<?xml version="1.0" encoding="UTF-8"?>
<gpx version="1.1" creator="https://www.youtrack.es" xsi:schemaLocation="http://www.topografix.com/GPX/1/1 http://www.topografix.com/GPX/1/1/gpx.xsd http://www.garmin.com/xmlschemas/GpxExtensions/v3 http://www.garmin.com/xmlschemas/GpxExtensionsv3.xsd http://www.garmin.com/xmlschemas/TrackPointExtension/v1 http://www.garmin.com/xmlschemas/TrackPointExtensionv1.xsd" xmlns:gpxtpx="http://www.garmin.com/xmlschemas/TrackPointExtension/v1" xmlns:gpxx="http://www.garmin.com/xmlschemas/GpxExtensions/v3" xmlns:xsi="http://www.w3.org/2001/XMLSchema-instance">
  <metadata>
    <link href="https://www.youtrack.es">
      <text>YouTrack.es</text>
    </link>
    <time>2026-05-10T15:35:48Z</time>
  </metadata>
  <trk>
    <src>https://www.youtrack.es</src>
    <link href="https://www.youtrack.es/ruta/2140-bretana">
      <text>YouTrack.es</text>
    </link>
    <trkseg>
      <trkpt lat="48.1215007" lon="-1.6809987">
        <ele>33.671</ele>
        <time>2018-08-17T08:58:23.000Z</time>
      </trkpt>
      <trkpt lat="48.1215007" lon="-1.6809987">
        <ele>33.655</ele>
        <time>2018-08-17T08:58:27.000Z</time>
      </trkpt>
      <trkpt lat="48.1215007" lon="-1.6809987">
        <ele>33.647</ele>
        <time>2018-08-17T08:58:35.561Z</time>
      </trkpt>
      <trkpt lat="48.1216842" lon="-1.6809468">
        <ele>33.637</ele>
        <time>2018-08-17T08:58:53.384Z</time>
      </trkpt>
      <trkpt lat="48.1217583" lon="-1.6808431">
        <ele>33.420</ele>
        <time>2018-08-17T08:58:58.903Z</time>
      </trkpt>
      <trkpt lat="48.1218338" lon="-1.6807614">
        <ele>32.876</ele>
        <time>2018-08-17T08:59:03.893Z</time>
      </trkpt>
      <trkpt lat="48.1218820" lon="-1.6806203">
        <ele>32.333</ele>
        <time>2018-08-17T08:59:09.584Z</time>
      </trkpt>
      <trkpt lat="48.1219468" lon="-1.6805238">
        <ele>32.097</ele>
        <time>2018-08-17T08:59:14.548Z</time>
      </trkpt>
      <trkpt lat="48.1220280" lon="-1.6804600">
        <ele>32.037</ele>
        <time>2018-08-17T08:59:19.534Z</time>
      </trkpt>
      <trkpt lat="48.1220747" lon="-1.6803284">
        <ele>31.896</ele>
        <time>2018-08-17T08:59:25.000Z</time>
      </trkpt>
      <trkpt lat="48.1220747" lon="-1.6803284">
        <ele>31.620</ele>
        <time>2018-08-17T08:59:40.000Z</time>
      </trkpt>
      <trkpt lat="48.1220747" lon="-1.6803284">
        <ele>31.413</ele>
        <time>2018-08-17T08:59:50.778Z</time>
      </trkpt>
      <trkpt lat="48.1221910" lon="-1.6801516">
        <ele>31.407</ele>
        <time>2018-08-17T09:00:02.895Z</time>
      </trkpt>
      <trkpt lat="48.1222665" lon="-1.6800405">
        <ele>31.067</ele>
        <time>2018-08-17T09:00:07.812Z</time>
      </trkpt>
      <trkpt lat="48.1223409" lon="-1.6799448">
        <ele>30.010</ele>
        <time>2018-08-17T09:00:12.085Z</time>
      </trkpt>
      <trkpt lat="48.1224217" lon="-1.6798275">
        <ele>28.898</ele>
        <time>2018-08-17T09:00:16.776Z</time>
      </trkpt>
      <trkpt lat="48.1224914" lon="-1.6797077">
        <ele>28.586</ele>
        <time>2018-08-17T09:00:21.011Z</time>
      </trkpt>
      <trkpt lat="48.1225433" lon="-1.6795776">
        <ele>29.043</ele>
        <time>2018-08-17T09:00:24.797Z</time>
      </trkpt>
      <trkpt lat="48.1226134" lon="-1.6794476">
        <ele>29.654</ele>
        <time>2018-08-17T09:00:28.742Z</time>
      </trkpt>
      <trkpt lat="48.1226870" lon="-1.6793085">
        <ele>29.954</ele>
        <time>2018-08-17T09:00:32.910Z</time>
      </trkpt>
      <trkpt lat="48.1227555" lon="-1.6791744">
        <ele>29.983</ele>
        <time>2018-08-17T09:00:36.946Z</time>
      </trkpt>
      <trkpt lat="48.1228244" lon="-1.6790303">
        <ele>29.925</ele>
        <time>2018-08-17T09:00:41.270Z</time>
      </trkpt>
      <trkpt lat="48.1228846" lon="-1.6788881">
        <ele>29.897</ele>
        <time>2018-08-17T09:00:45.540Z</time>
      </trkpt>
      <trkpt lat="48.1229319" lon="-1.6787434">
        <ele>29.803</ele>
        <time>2018-08-17T09:00:49.629Z</time>
      </trkpt>
      <trkpt lat="48.1229871" lon="-1.6786022">
        <ele>29.478</ele>
        <time>2018-08-17T09:00:53.642Z</time>
      </trkpt>
      <trkpt lat="48.1230526" lon="-1.6784681">
        <ele>29.022</ele>
        <time>2018-08-17T09:00:57.615Z</time>
      </trkpt>
      <trkpt lat="48.1231214" lon="-1.6783295">
        <ele>28.734</ele>
        <time>2018-08-17T09:01:01.749Z</time>
      </trkpt>
      <trkpt lat="48.1231862" lon="-1.6782286">
        <ele>28.816</ele>
        <time>2018-08-17T09:01:05.139Z</time>
      </trkpt>
      <trkpt lat="48.1232324" lon="-1.6780739">
        <ele>29.180</ele>
        <time>2018-08-17T09:01:09.322Z</time>
      </trkpt>
      <trkpt lat="48.1232685" lon="-1.6779139">
        <ele>29.422</ele>
        <time>2018-08-17T09:01:13.551Z</time>
      </trkpt>
      <trkpt lat="48.1233062" lon="-1.6777569">
        <ele>29.177</ele>
        <time>2018-08-17T09:01:17.664Z</time>
      </trkpt>
      <trkpt lat="48.1233231" lon="-1.6775908">
        <ele>28.586</ele>
        <time>2018-08-17T09:01:21.732Z</time>
      </trkpt>
      <trkpt lat="48.1233808" lon="-1.6774570">
        <ele>28.129</ele>
        <time>2018-08-17T09:01:25.634Z</time>
      </trkpt>
      <trkpt lat="48.1234453" lon="-1.6773209">
        <ele>28.095</ele>
        <time>2018-08-17T09:01:29.860Z</time>
      </trkpt>
      <trkpt lat="48.1234819" lon="-1.6771859">
        <ele>28.361</ele>
        <time>2018-08-17T09:01:33.577Z</time>
      </trkpt>
      <trkpt lat="48.1235018" lon="-1.6770338">
        <ele>28.700</ele>
        <time>2018-08-17T09:01:37.366Z</time>
      </trkpt>
      <trkpt lat="48.1235203" lon="-1.6768898">
        <ele>29.152</ele>
        <time>2018-08-17T09:01:40.801Z</time>
      </trkpt>
      <trkpt lat="48.1235420" lon="-1.6767255">
        <ele>29.774</ele>
        <time>2018-08-17T09:01:44.671Z</time>
      </trkpt>
      <trkpt lat="48.1235574" lon="-1.6765670">
        <ele>30.293</ele>
        <time>2018-08-17T09:01:48.449Z</time>
      </trkpt>
      <trkpt lat="48.1235790" lon="-1.6764068">
        <ele>30.563</ele>
        <time>2018-08-17T09:01:52.387Z</time>
      </trkpt>
      <trkpt lat="48.1235949" lon="-1.6762567">
        <ele>30.704</ele>
        <time>2018-08-17T09:01:56.044Z</time>
      </trkpt>
      <trkpt lat="48.1236115" lon="-1.6760927">
        <ele>30.749</ele>
        <time>2018-08-17T09:01:59.949Z</time>
      </trkpt>
      <trkpt lat="48.1236436" lon="-1.6759487">
        <ele>30.662</ele>
        <time>2018-08-17T09:02:03.471Z</time>
      </trkpt>
      <trkpt lat="48.1237050" lon="-1.6757971">
        <ele>30.487</ele>
        <time>2018-08-17T09:02:07.615Z</time>
      </trkpt>
      <trkpt lat="48.1237445" lon="-1.6756427">
        <ele>30.342</ele>
        <time>2018-08-17T09:02:11.854Z</time>
      </trkpt>
      <trkpt lat="48.1237774" lon="-1.6755026">
        <ele>30.472</ele>
        <time>2018-08-17T09:02:16.040Z</time>
      </trkpt>
      <trkpt lat="48.1238380" lon="-1.6753988">
        <ele>30.926</ele>
        <time>2018-08-17T09:02:19.907Z</time>
      </trkpt>
      <trkpt lat="48.1238901" lon="-1.6752773">
        <ele>31.392</ele>
        <time>2018-08-17T09:02:23.720Z</time>
      </trkpt>
      <trkpt lat="48.1239709" lon="-1.6751716">
        <ele>31.579</ele>
        <time>2018-08-17T09:02:27.807Z</time>
      </trkpt>
      <trkpt lat="48.1240468" lon="-1.6750807">
        <ele>31.587</ele>
        <time>2018-08-17T09:02:31.463Z</time>
      </trkpt>
      <trkpt lat="48.1241299" lon="-1.6749919">
        <ele>31.623</ele>
        <time>2018-08-17T09:02:35.224Z</time>
      </trkpt>
      <trkpt lat="48.1242203" lon="-1.6749036">
        <ele>31.711</ele>
        <time>2018-08-17T09:02:39.177Z</time>
      </trkpt>
      <trkpt lat="48.1243022" lon="-1.6748132">
        <ele>31.788</ele>
        <time>2018-08-17T09:02:42.879Z</time>
      </trkpt>
      <trkpt lat="48.1244124" lon="-1.6747412">
        <ele>31.896</ele>
        <time>2018-08-17T09:02:47.200Z</time>
      </trkpt>
      <trkpt lat="48.1245186" lon="-1.6746736">
        <ele>32.101</ele>
        <time>2018-08-17T09:02:51.278Z</time>
      </trkpt>
      <trkpt lat="48.1246170" lon="-1.6746508">
        <ele>32.373</ele>
        <time>2018-08-17T09:02:54.771Z</time>
      </trkpt>
      <trkpt lat="48.1247195" lon="-1.6746324">
        <ele>32.544</ele>
        <time>2018-08-17T09:02:58.521Z</time>
      </trkpt>
      <trkpt lat="48.1248302" lon="-1.6746196">
        <ele>32.529</ele>
        <time>2018-08-17T09:03:02.756Z</time>
      </trkpt>
      <trkpt lat="48.1249212" lon="-1.6746088">
        <ele>32.433</ele>
        <time>2018-08-17T09:03:06.266Z</time>
      </trkpt>
      <trkpt lat="48.1250146" lon="-1.6746081">
        <ele>32.357</ele>
        <time>2018-08-17T09:03:09.746Z</time>
      </trkpt>
      <trkpt lat="48.1251118" lon="-1.6746071">
        <ele>32.173</ele>
        <time>2018-08-17T09:03:13.210Z</time>
      </trkpt>
      <trkpt lat="48.1252224" lon="-1.6746279">
        <ele>31.732</ele>
        <time>2018-08-17T09:03:17.060Z</time>
      </trkpt>
      <trkpt lat="48.1253361" lon="-1.6746744">
        <ele>31.122</ele>
        <time>2018-08-17T09:03:20.975Z</time>
      </trkpt>
      <trkpt lat="48.1254478" lon="-1.6747260">
        <ele>30.555</ele>
        <time>2018-08-17T09:03:24.834Z</time>
      </trkpt>
      <trkpt lat="48.1255539" lon="-1.6747846">
        <ele>30.183</ele>
        <time>2018-08-17T09:03:28.539Z</time>
      </trkpt>
      <trkpt lat="48.1256370" lon="-1.6748402">
        <ele>30.030</ele>
        <time>2018-08-17T09:03:31.485Z</time>
      </trkpt>
      <trkpt lat="48.1257149" lon="-1.6749083">
        <ele>29.939</ele>
        <time>2018-08-17T09:03:34.390Z</time>
      </trkpt>
      <trkpt lat="48.1258137" lon="-1.6749896">
        <ele>29.799</ele>
        <time>2018-08-17T09:03:37.990Z</time>
      </trkpt>
      <trkpt lat="48.1258901" lon="-1.6750618">
        <ele>29.653</ele>
        <time>2018-08-17T09:03:40.881Z</time>
      </trkpt>
      <trkpt lat="48.1259696" lon="-1.6751839">
        <ele>29.502</ele>
        <time>2018-08-17T09:03:44.634Z</time>
      </trkpt>
      <trkpt lat="48.1260368" lon="-1.6753243">
        <ele>29.307</ele>
        <time>2018-08-17T09:03:48.549Z</time>
      </trkpt>
      <trkpt lat="48.1260898" lon="-1.6754769">
        <ele>29.152</ele>
        <time>2018-08-17T09:03:52.414Z</time>
      </trkpt>
      <trkpt lat="48.1261227" lon="-1.6756149">
        <ele>29.110</ele>
        <time>2018-08-17T09:03:55.589Z</time>
      </trkpt>
      <trkpt lat="48.1261438" lon="-1.6757516">
        <ele>29.113</ele>
        <time>2018-08-17T09:03:58.548Z</time>
      </trkpt>
      <trkpt lat="48.1261629" lon="-1.6759004">
        <ele>29.089</ele>
        <time>2018-08-17T09:04:01.693Z</time>
      </trkpt>
      <trkpt lat="48.1261852" lon="-1.6760386">
        <ele>29.097</ele>
        <time>2018-08-17T09:04:04.626Z</time>
      </trkpt>
      <trkpt lat="48.1262037" lon="-1.6761910">
        <ele>29.247</ele>
        <time>2018-08-17T09:04:07.837Z</time>
      </trkpt>
      <trkpt lat="48.1262264" lon="-1.6763697">
        <ele>29.495</ele>
        <time>2018-08-17T09:04:11.627Z</time>
      </trkpt>
      <trkpt lat="48.1262447" lon="-1.6765098">
        <ele>29.579</ele>
        <time>2018-08-17T09:04:14.595Z</time>
      </trkpt>
      <trkpt lat="48.1262631" lon="-1.6766525">
        <ele>29.186</ele>
        <time>2018-08-17T09:04:17.598Z</time>
      </trkpt>
      <trkpt lat="48.1262905" lon="-1.6768364">
        <ele>28.379</ele>
        <time>2018-08-17T09:04:21.423Z</time>
      </trkpt>
      <trkpt lat="48.1263113" lon="-1.6769981">
        <ele>27.637</ele>
        <time>2018-08-17T09:04:24.691Z</time>
      </trkpt>
      <trkpt lat="48.1263326" lon="-1.6771417">
        <ele>27.245</ele>
        <time>2018-08-17T09:04:27.584Z</time>
      </trkpt>
      <trkpt lat="48.1263622" lon="-1.6772804">
        <ele>27.093</ele>
        <time>2018-08-17T09:04:30.488Z</time>
      </trkpt>
      <trkpt lat="48.1263845" lon="-1.6774546">
        <ele>27.031</ele>
        <time>2018-08-17T09:04:34.095Z</time>
      </trkpt>
      <trkpt lat="48.1264079" lon="-1.6775948">
        <ele>27.020</ele>
        <time>2018-08-17T09:04:37.076Z</time>
      </trkpt>
      <trkpt lat="48.1264314" lon="-1.6777296">
        <ele>27.137</ele>
        <time>2018-08-17T09:04:39.932Z</time>
      </trkpt>
      <trkpt lat="48.1264550" lon="-1.6778744">
        <ele>27.436</ele>
        <time>2018-08-17T09:04:42.948Z</time>
      </trkpt>
      <trkpt lat="48.1264883" lon="-1.6780149">
        <ele>27.742</ele>
        <time>2018-08-17T09:04:45.934Z</time>
      </trkpt>
      <trkpt lat="48.1265285" lon="-1.6781481">
        <ele>27.849</ele>
        <time>2018-08-17T09:04:48.873Z</time>
      </trkpt>
      <trkpt lat="48.1265782" lon="-1.6782768">
        <ele>27.747</ele>
        <time>2018-08-17T09:04:51.882Z</time>
      </trkpt>
      <trkpt lat="48.1266355" lon="-1.6784058">
        <ele>27.537</ele>
        <time>2018-08-17T09:04:54.981Z</time>
      </trkpt>
      <trkpt lat="48.1267000" lon="-1.6785293">
        <ele>27.351</ele>
        <time>2018-08-17T09:04:58.071Z</time>
      </trkpt>
      <trkpt lat="48.1267868" lon="-1.6786186">
        <ele>27.285</ele>
        <time>2018-08-17T09:05:01.144Z</time>
      </trkpt>
      <trkpt lat="48.1268707" lon="-1.6787092">
        <ele>27.395</ele>
        <time>2018-08-17T09:05:04.115Z</time>
      </trkpt>
      <trkpt lat="48.1269536" lon="-1.6788028">
        <ele>27.720</ele>
        <time>2018-08-17T09:05:07.078Z</time>
      </trkpt>
      <trkpt lat="48.1270458" lon="-1.6788572">
        <ele>28.141</ele>
        <time>2018-08-17T09:05:09.950Z</time>
      </trkpt>
      <trkpt lat="48.1271427" lon="-1.6788820">
        <ele>28.357</ele>
        <time>2018-08-17T09:05:12.849Z</time>
      </trkpt>
      <trkpt lat="48.1272369" lon="-1.6789215">
        <ele>28.167</ele>
        <time>2018-08-17T09:05:15.745Z</time>
      </trkpt>
      <trkpt lat="48.1273368" lon="-1.6789515">
        <ele>27.738</ele>
        <time>2018-08-17T09:05:18.751Z</time>
      </trkpt>
      <trkpt lat="48.1274377" lon="-1.6789752">
        <ele>27.480</ele>
        <time>2018-08-17T09:05:21.743Z</time>
      </trkpt>
      <trkpt lat="48.1275393" lon="-1.6790026">
        <ele>27.612</ele>
        <time>2018-08-17T09:05:24.771Z</time>
      </trkpt>
      <trkpt lat="48.1276328" lon="-1.6790307">
        <ele>28.026</ele>
        <time>2018-08-17T09:05:27.619Z</time>
      </trkpt>
      <trkpt lat="48.1277259" lon="-1.6790462">
        <ele>28.510</ele>
        <time>2018-08-17T09:05:30.486Z</time>
      </trkpt>
      <trkpt lat="48.1278208" lon="-1.6790738">
        <ele>28.856</ele>
        <time>2018-08-17T09:05:33.494Z</time>
      </trkpt>
      <trkpt lat="48.1279090" lon="-1.6791132">
        <ele>28.982</ele>
        <time>2018-08-17T09:05:36.435Z</time>
      </trkpt>
      <trkpt lat="48.1280157" lon="-1.6791291">
        <ele>29.022</ele>
        <time>2018-08-17T09:05:40.012Z</time>
      </trkpt>
      <trkpt lat="48.1281196" lon="-1.6791564">
        <ele>29.087</ele>
        <time>2018-08-17T09:05:43.792Z</time>
      </trkpt>
      <trkpt lat="48.1282079" lon="-1.6791939">
        <ele>29.150</ele>
        <time>2018-08-17T09:05:47.450Z</time>
      </trkpt>
      <trkpt lat="48.1283082" lon="-1.6792374">
        <ele>29.226</ele>
        <time>2018-08-17T09:05:51.983Z</time>
      </trkpt>
      <trkpt lat="48.1284151" lon="-1.6792699">
        <ele>29.475</ele>
        <time>2018-08-17T09:05:56.696Z</time>
      </trkpt>
      <trkpt lat="48.1285282" lon="-1.6793099">
        <ele>29.920</ele>
        <time>2018-08-17T09:06:01.135Z</time>
      </trkpt>
      <trkpt lat="48.1286421" lon="-1.6793421">
        <ele>30.338</ele>
        <time>2018-08-17T09:06:04.948Z</time>
      </trkpt>
      <trkpt lat="48.1287609" lon="-1.6793743">
        <ele>30.567</ele>
        <time>2018-08-17T09:06:08.455Z</time>
      </trkpt>
      <trkpt lat="48.1288738" lon="-1.6794048">
        <ele>30.641</ele>
        <time>2018-08-17T09:06:11.584Z</time>
      </trkpt>
      <trkpt lat="48.1289739" lon="-1.6794403">
        <ele>30.614</ele>
        <time>2018-08-17T09:06:14.317Z</time>
      </trkpt>
      <trkpt lat="48.1291057" lon="-1.6794911">
        <ele>30.477</ele>
        <time>2018-08-17T09:06:17.822Z</time>
      </trkpt>
      <trkpt lat="48.1292225" lon="-1.6795339">
        <ele>30.244</ele>
        <time>2018-08-17T09:06:20.882Z</time>
      </trkpt>
      <trkpt lat="48.1293263" lon="-1.6795623">
        <ele>30.032</ele>
        <time>2018-08-17T09:06:23.644Z</time>
      </trkpt>
      <trkpt lat="48.1298139" lon="-1.6797441">
        <ele>29.936</ele>
        <time>2018-08-17T09:06:37.052Z</time>
      </trkpt>
      <trkpt lat="48.1299050" lon="-1.6797676">
        <ele>29.815</ele>
        <time>2018-08-17T09:06:39.623Z</time>
      </trkpt>
      <trkpt lat="48.1300215" lon="-1.6797751">
        <ele>29.440</ele>
        <time>2018-08-17T09:06:43.000Z</time>
      </trkpt>
      <trkpt lat="48.1300215" lon="-1.6797751">
        <ele>29.111</ele>
        <time>2018-08-17T09:06:45.000Z</time>
      </trkpt>
      <trkpt lat="48.1300215" lon="-1.6797751">
        <ele>29.103</ele>
        <time>2018-08-17T09:06:45.100Z</time>
      </trkpt>
      <trkpt lat="48.1302617" lon="-1.6798107">
        <ele>29.263</ele>
        <time>2018-08-17T09:06:53.904Z</time>
      </trkpt>
      <trkpt lat="48.1303810" lon="-1.6798254">
        <ele>29.339</ele>
        <time>2018-08-17T09:06:57.424Z</time>
      </trkpt>
      <trkpt lat="48.1304802" lon="-1.6798075">
        <ele>29.243</ele>
        <time>2018-08-17T09:07:00.301Z</time>
      </trkpt>
      <trkpt lat="48.1305855" lon="-1.6797638">
        <ele>28.969</ele>
        <time>2018-08-17T09:07:03.323Z</time>
      </trkpt>
      <trkpt lat="48.1306960" lon="-1.6797284">
        <ele>28.605</ele>
        <time>2018-08-17T09:07:06.350Z</time>
      </trkpt>
      <trkpt lat="48.1308160" lon="-1.6797232">
        <ele>28.408</ele>
        <time>2018-08-17T09:07:09.575Z</time>
      </trkpt>
      <trkpt lat="48.1309356" lon="-1.6797220">
        <ele>28.675</ele>
        <time>2018-08-17T09:07:12.869Z</time>
      </trkpt>
      <trkpt lat="48.1310387" lon="-1.6797455">
        <ele>29.299</ele>
        <time>2018-08-17T09:07:15.728Z</time>
      </trkpt>
      <trkpt lat="48.1311437" lon="-1.6797972">
        <ele>29.812</ele>
        <time>2018-08-17T09:07:18.616Z</time>
      </trkpt>
      <trkpt lat="48.1312469" lon="-1.6798652">
        <ele>29.928</ele>
        <time>2018-08-17T09:07:21.406Z</time>
      </trkpt>
      <trkpt lat="48.1313549" lon="-1.6799485">
        <ele>29.626</ele>
        <time>2018-08-17T09:07:24.410Z</time>
      </trkpt>
      <trkpt lat="48.1314655" lon="-1.6800192">
        <ele>29.008</ele>
        <time>2018-08-17T09:07:27.572Z</time>
      </trkpt>
      <trkpt lat="48.1315599" lon="-1.6800789">
        <ele>28.381</ele>
        <time>2018-08-17T09:07:30.482Z</time>
      </trkpt>
      <trkpt lat="48.1316513" lon="-1.6801260">
        <ele>28.031</ele>
        <time>2018-08-17T09:07:33.269Z</time>
      </trkpt>
      <trkpt lat="48.1317449" lon="-1.6801497">
        <ele>27.949</ele>
        <time>2018-08-17T09:07:35.980Z</time>
      </trkpt>
      <trkpt lat="48.1318509" lon="-1.6801765">
        <ele>28.035</ele>
        <time>2018-08-17T09:07:39.100Z</time>
      </trkpt>
      <trkpt lat="48.1319586" lon="-1.6801885">
        <ele>28.224</ele>
        <time>2018-08-17T09:07:42.318Z</time>
      </trkpt>
      <trkpt lat="48.1320601" lon="-1.6801836">
        <ele>28.418</ele>
        <time>2018-08-17T09:07:45.355Z</time>
      </trkpt>
      <trkpt lat="48.1321632" lon="-1.6801625">
        <ele>28.510</ele>
        <time>2018-08-17T09:07:48.462Z</time>
      </trkpt>
      <trkpt lat="48.1322626" lon="-1.6801306">
        <ele>28.490</ele>
        <time>2018-08-17T09:07:51.408Z</time>
      </trkpt>
      <trkpt lat="48.1323649" lon="-1.6800828">
        <ele>28.547</ele>
        <time>2018-08-17T09:07:54.367Z</time>
      </trkpt>
      <trkpt lat="48.1324735" lon="-1.6800346">
        <ele>28.850</ele>
        <time>2018-08-17T09:07:57.434Z</time>
      </trkpt>
      <trkpt lat="48.1325740" lon="-1.6799748">
        <ele>29.249</ele>
        <time>2018-08-17T09:08:00.328Z</time>
      </trkpt>
      <trkpt lat="48.1326759" lon="-1.6799137">
        <ele>29.493</ele>
        <time>2018-08-17T09:08:03.348Z</time>
      </trkpt>
      <trkpt lat="48.1327898" lon="-1.6798737">
        <ele>29.428</ele>
        <time>2018-08-17T09:08:06.836Z</time>
      </trkpt>
      <trkpt lat="48.1328845" lon="-1.6798505">
        <ele>28.975</ele>
        <time>2018-08-17T09:08:09.855Z</time>
      </trkpt>
      <trkpt lat="48.1330012" lon="-1.6798362">
        <ele>28.340</ele>
        <time>2018-08-17T09:08:13.610Z</time>
      </trkpt>
      <trkpt lat="48.1330926" lon="-1.6798312">
        <ele>27.924</ele>
        <time>2018-08-17T09:08:16.482Z</time>
      </trkpt>
      <trkpt lat="48.1331893" lon="-1.6798388">
        <ele>27.869</ele>
        <time>2018-08-17T09:08:19.493Z</time>
      </trkpt>
      <trkpt lat="48.1332875" lon="-1.6798514">
        <ele>28.044</ele>
        <time>2018-08-17T09:08:22.590Z</time>
      </trkpt>
      <trkpt lat="48.1333926" lon="-1.6798686">
        <ele>28.275</ele>
        <time>2018-08-17T09:08:25.843Z</time>
      </trkpt>
      <trkpt lat="48.1334921" lon="-1.6798833">
        <ele>28.485</ele>
        <time>2018-08-17T09:08:28.769Z</time>
      </trkpt>
      <trkpt lat="48.1336166" lon="-1.6798983">
        <ele>28.647</ele>
        <time>2018-08-17T09:08:32.476Z</time>
      </trkpt>
      <trkpt lat="48.1337242" lon="-1.6798969">
        <ele>28.754</ele>
        <time>2018-08-17T09:08:35.855Z</time>
      </trkpt>
      <trkpt lat="48.1338138" lon="-1.6798774">
        <ele>28.795</ele>
        <time>2018-08-17T09:08:38.776Z</time>
      </trkpt>
      <trkpt lat="48.1339282" lon="-1.6798597">
        <ele>28.811</ele>
        <time>2018-08-17T09:08:42.369Z</time>
      </trkpt>
      <trkpt lat="48.1340278" lon="-1.6798267">
        <ele>28.920</ele>
        <time>2018-08-17T09:08:45.381Z</time>
      </trkpt>
      <trkpt lat="48.1341266" lon="-1.6797915">
        <ele>29.151</ele>
        <time>2018-08-17T09:08:48.265Z</time>
      </trkpt>
      <trkpt lat="48.1342490" lon="-1.6797627">
        <ele>29.306</ele>
        <time>2018-08-17T09:08:51.824Z</time>
      </trkpt>
      <trkpt lat="48.1343485" lon="-1.6797251">
        <ele>29.206</ele>
        <time>2018-08-17T09:08:54.770Z</time>
      </trkpt>
      <trkpt lat="48.1344367" lon="-1.6796783">
        <ele>28.887</ele>
        <time>2018-08-17T09:08:57.379Z</time>
      </trkpt>
      <trkpt lat="48.1345207" lon="-1.6796179">
        <ele>28.534</ele>
        <time>2018-08-17T09:08:59.872Z</time>
      </trkpt>
      <trkpt lat="48.1346132" lon="-1.6795390">
        <ele>28.209</ele>
        <time>2018-08-17T09:09:02.662Z</time>
      </trkpt>
      <trkpt lat="48.1347049" lon="-1.6794426">
        <ele>27.858</ele>
        <time>2018-08-17T09:09:05.749Z</time>
      </trkpt>
      <trkpt lat="48.1347919" lon="-1.6793352">
        <ele>27.570</ele>
        <time>2018-08-17T09:09:09.337Z</time>
      </trkpt>
      <trkpt lat="48.1348453" lon="-1.6792231">
        <ele>27.445</ele>
        <time>2018-08-17T09:09:12.473Z</time>
      </trkpt>
      <trkpt lat="48.1348856" lon="-1.6790874">
        <ele>27.379</ele>
        <time>2018-08-17T09:09:15.931Z</time>
      </trkpt>
      <trkpt lat="48.1349362" lon="-1.6789382">
        <ele>27.294</ele>
        <time>2018-08-17T09:09:19.987Z</time>
      </trkpt>
      <trkpt lat="48.1349629" lon="-1.6787872">
        <ele>27.239</ele>
        <time>2018-08-17T09:09:23.960Z</time>
      </trkpt>
      <trkpt lat="48.1349980" lon="-1.6786448">
        <ele>27.290</ele>
        <time>2018-08-17T09:09:27.774Z</time>
      </trkpt>
      <trkpt lat="48.1350389" lon="-1.6785244">
        <ele>27.403</ele>
        <time>2018-08-17T09:09:31.251Z</time>
      </trkpt>
      <trkpt lat="48.1350875" lon="-1.6783721">
        <ele>27.448</ele>
        <time>2018-08-17T09:09:35.751Z</time>
      </trkpt>
      <trkpt lat="48.1351235" lon="-1.6782340">
        <ele>27.386</ele>
        <time>2018-08-17T09:09:39.612Z</time>
      </trkpt>
      <trkpt lat="48.1351950" lon="-1.6781001">
        <ele>27.191</ele>
        <time>2018-08-17T09:09:43.916Z</time>
      </trkpt>
      <trkpt lat="48.1352461" lon="-1.6779433">
        <ele>26.820</ele>
        <time>2018-08-17T09:09:48.435Z</time>
      </trkpt>
      <trkpt lat="48.1353121" lon="-1.6778040">
        <ele>26.417</ele>
        <time>2018-08-17T09:09:52.791Z</time>
      </trkpt>
      <trkpt lat="48.1353650" lon="-1.6776565">
        <ele>26.242</ele>
        <time>2018-08-17T09:09:57.164Z</time>
      </trkpt>
      <trkpt lat="48.1353975" lon="-1.6775150">
        <ele>26.359</ele>
        <time>2018-08-17T09:10:01.263Z</time>
      </trkpt>
      <trkpt lat="48.1354571" lon="-1.6773623">
        <ele>26.499</ele>
        <time>2018-08-17T09:10:05.482Z</time>
      </trkpt>
      <trkpt lat="48.1355065" lon="-1.6772326">
        <ele>26.440</ele>
        <time>2018-08-17T09:10:08.482Z</time>
      </trkpt>
      <trkpt lat="48.1355553" lon="-1.6771037">
        <ele>26.350</ele>
        <time>2018-08-17T09:10:11.211Z</time>
      </trkpt>
      <trkpt lat="48.1356364" lon="-1.6769561">
        <ele>26.434</ele>
        <time>2018-08-17T09:10:14.665Z</time>
      </trkpt>
      <trkpt lat="48.1357480" lon="-1.6768142">
        <ele>26.666</ele>
        <time>2018-08-17T09:10:18.571Z</time>
      </trkpt>
      <trkpt lat="48.1358265" lon="-1.6767319">
        <ele>26.926</ele>
        <time>2018-08-17T09:10:21.111Z</time>
      </trkpt>
      <trkpt lat="48.1359371" lon="-1.6766206">
        <ele>27.116</ele>
        <time>2018-08-17T09:10:24.676Z</time>
      </trkpt>
      <trkpt lat="48.1360184" lon="-1.6765598">
        <ele>27.163</ele>
        <time>2018-08-17T09:10:27.092Z</time>
      </trkpt>
      <trkpt lat="48.1361326" lon="-1.6764713">
        <ele>27.093</ele>
        <time>2018-08-17T09:10:30.447Z</time>
      </trkpt>
      <trkpt lat="48.1362360" lon="-1.6763735">
        <ele>27.061</ele>
        <time>2018-08-17T09:10:33.585Z</time>
      </trkpt>
      <trkpt lat="48.1363167" lon="-1.6762600">
        <ele>27.173</ele>
        <time>2018-08-17T09:10:36.356Z</time>
      </trkpt>
      <trkpt lat="48.1364016" lon="-1.6761396">
        <ele>27.346</ele>
        <time>2018-08-17T09:10:39.307Z</time>
      </trkpt>
      <trkpt lat="48.1364940" lon="-1.6760313">
        <ele>27.593</ele>
        <time>2018-08-17T09:10:42.303Z</time>
      </trkpt>
      <trkpt lat="48.1366144" lon="-1.6759583">
        <ele>28.082</ele>
        <time>2018-08-17T09:10:45.678Z</time>
      </trkpt>
      <trkpt lat="48.1367092" lon="-1.6758481">
        <ele>28.716</ele>
        <time>2018-08-17T09:10:48.938Z</time>
      </trkpt>
      <trkpt lat="48.1368120" lon="-1.6757478">
        <ele>29.071</ele>
        <time>2018-08-17T09:10:52.258Z</time>
      </trkpt>
      <trkpt lat="48.1369621" lon="-1.6757197">
        <ele>28.965</ele>
        <time>2018-08-17T09:10:56.396Z</time>
      </trkpt>
      <trkpt lat="48.1369840" lon="-1.6755805">
        <ele>28.613</ele>
        <time>2018-08-17T09:10:59.178Z</time>
      </trkpt>
      <trkpt lat="48.1370747" lon="-1.6755624">
        <ele>28.271</ele>
        <time>2018-08-17T09:11:01.994Z</time>
      </trkpt>
      <trkpt lat="48.1372005" lon="-1.6754887">
        <ele>28.104</ele>
        <time>2018-08-17T09:11:06.434Z</time>
      </trkpt>
      <trkpt lat="48.1372813" lon="-1.6754292">
        <ele>28.157</ele>
        <time>2018-08-17T09:11:09.302Z</time>
      </trkpt>
      <trkpt lat="48.1373705" lon="-1.6753770">
        <ele>28.288</ele>
        <time>2018-08-17T09:11:12.248Z</time>
      </trkpt>
      <trkpt lat="48.1374577" lon="-1.6753130">
        <ele>28.386</ele>
        <time>2018-08-17T09:11:15.127Z</time>
      </trkpt>
      <trkpt lat="48.1375418" lon="-1.6752633">
        <ele>28.446</ele>
        <time>2018-08-17T09:11:17.742Z</time>
      </trkpt>
      <trkpt lat="48.1376308" lon="-1.6752238">
        <ele>28.492</ele>
        <time>2018-08-17T09:11:20.411Z</time>
      </trkpt>
      <trkpt lat="48.1377258" lon="-1.6751736">
        <ele>28.477</ele>
        <time>2018-08-17T09:11:23.321Z</time>
      </trkpt>
      <trkpt lat="48.1378170" lon="-1.6751018">
        <ele>28.418</ele>
        <time>2018-08-17T09:11:26.224Z</time>
      </trkpt>
      <trkpt lat="48.1378893" lon="-1.6749918">
        <ele>28.436</ele>
        <time>2018-08-17T09:11:29.060Z</time>
      </trkpt>
      <trkpt lat="48.1379476" lon="-1.6748782">
        <ele>28.620</ele>
        <time>2018-08-17T09:11:31.746Z</time>
      </trkpt>
      <trkpt lat="48.1380219" lon="-1.6747804">
        <ele>28.958</ele>
        <time>2018-08-17T09:11:34.669Z</time>
      </trkpt>
      <trkpt lat="48.1381122" lon="-1.6746896">
        <ele>29.402</ele>
        <time>2018-08-17T09:11:37.960Z</time>
      </trkpt>
      <trkpt lat="48.1381823" lon="-1.6745859">
        <ele>29.813</ele>
        <time>2018-08-17T09:11:40.826Z</time>
      </trkpt>
      <trkpt lat="48.1382560" lon="-1.6744953">
        <ele>30.098</ele>
        <time>2018-08-17T09:11:43.495Z</time>
      </trkpt>
      <trkpt lat="48.1383269" lon="-1.6744070">
        <ele>30.262</ele>
        <time>2018-08-17T09:11:46.001Z</time>
      </trkpt>
      <trkpt lat="48.1384110" lon="-1.6743248">
        <ele>30.340</ele>
        <time>2018-08-17T09:11:48.697Z</time>
      </trkpt>
      <trkpt lat="48.1384969" lon="-1.6742270">
        <ele>30.444</ele>
        <time>2018-08-17T09:11:51.617Z</time>
      </trkpt>
      <trkpt lat="48.1385900" lon="-1.6741274">
        <ele>30.701</ele>
        <time>2018-08-17T09:11:54.770Z</time>
      </trkpt>
      <trkpt lat="48.1386902" lon="-1.6740537">
        <ele>31.057</ele>
        <time>2018-08-17T09:11:58.020Z</time>
      </trkpt>
      <trkpt lat="48.1387914" lon="-1.6740293">
        <ele>31.407</ele>
        <time>2018-08-17T09:12:01.145Z</time>
      </trkpt>
      <trkpt lat="48.1388916" lon="-1.6739811">
        <ele>31.770</ele>
        <time>2018-08-17T09:12:04.424Z</time>
      </trkpt>
      <trkpt lat="48.1389836" lon="-1.6739321">
        <ele>32.157</ele>
        <time>2018-08-17T09:12:07.341Z</time>
      </trkpt>
      <trkpt lat="48.1390522" lon="-1.6738351">
        <ele>32.552</ele>
        <time>2018-08-17T09:12:10.099Z</time>
      </trkpt>
      <trkpt lat="48.1391465" lon="-1.6737293">
        <ele>32.918</ele>
        <time>2018-08-17T09:12:13.449Z</time>
      </trkpt>
      <trkpt lat="48.1392425" lon="-1.6736808">
        <ele>33.128</ele>
        <time>2018-08-17T09:12:16.274Z</time>
      </trkpt>
      <trkpt lat="48.1393337" lon="-1.6736406">
        <ele>33.102</ele>
        <time>2018-08-17T09:12:18.975Z</time>
      </trkpt>
      <trkpt lat="48.1394471" lon="-1.6736338">
        <ele>32.925</ele>
        <time>2018-08-17T09:12:22.295Z</time>
      </trkpt>
      <trkpt lat="48.1395567" lon="-1.6736311">
        <ele>32.713</ele>
        <time>2018-08-17T09:12:25.655Z</time>
      </trkpt>
      <trkpt lat="48.1396689" lon="-1.6736410">
        <ele>32.578</ele>
        <time>2018-08-17T09:12:29.239Z</time>
      </trkpt>
      <trkpt lat="48.1397678" lon="-1.6736217">
        <ele>32.567</ele>
        <time>2018-08-17T09:12:32.441Z</time>
      </trkpt>
      <trkpt lat="48.1398580" lon="-1.6735874">
        <ele>32.612</ele>
        <time>2018-08-17T09:12:35.407Z</time>
      </trkpt>
      <trkpt lat="48.1399734" lon="-1.6735455">
        <ele>32.513</ele>
        <time>2018-08-17T09:12:39.266Z</time>
      </trkpt>
      <trkpt lat="48.1400811" lon="-1.6735550">
        <ele>32.171</ele>
        <time>2018-08-17T09:12:42.807Z</time>
      </trkpt>
      <trkpt lat="48.1401736" lon="-1.6735906">
        <ele>31.733</ele>
        <time>2018-08-17T09:12:45.744Z</time>
      </trkpt>
      <trkpt lat="48.1402751" lon="-1.6735969">
        <ele>31.184</ele>
        <time>2018-08-17T09:12:48.622Z</time>
      </trkpt>
      <trkpt lat="48.1403933" lon="-1.6736204">
        <ele>30.481</ele>
        <time>2018-08-17T09:12:51.958Z</time>
      </trkpt>
      <trkpt lat="48.1404857" lon="-1.6736997">
        <ele>29.933</ele>
        <time>2018-08-17T09:12:54.872Z</time>
      </trkpt>
      <trkpt lat="48.1405609" lon="-1.6737978">
        <ele>29.801</ele>
        <time>2018-08-17T09:12:57.507Z</time>
      </trkpt>
      <trkpt lat="48.1406402" lon="-1.6738906">
        <ele>29.954</ele>
        <time>2018-08-17T09:12:59.994Z</time>
      </trkpt>
      <trkpt lat="48.1407191" lon="-1.6740031">
        <ele>30.137</ele>
        <time>2018-08-17T09:13:02.652Z</time>
      </trkpt>
      <trkpt lat="48.1407997" lon="-1.6741324">
        <ele>30.223</ele>
        <time>2018-08-17T09:13:05.755Z</time>
      </trkpt>
      <trkpt lat="48.1408753" lon="-1.6742356">
        <ele>30.224</ele>
        <time>2018-08-17T09:13:08.512Z</time>
      </trkpt>
      <trkpt lat="48.1409668" lon="-1.6742960">
        <ele>30.072</ele>
        <time>2018-08-17T09:13:11.161Z</time>
      </trkpt>
      <trkpt lat="48.1410721" lon="-1.6743285">
        <ele>29.703</ele>
        <time>2018-08-17T09:13:14.133Z</time>
      </trkpt>
      <trkpt lat="48.1411865" lon="-1.6743343">
        <ele>29.244</ele>
        <time>2018-08-17T09:13:18.344Z</time>
      </trkpt>
      <trkpt lat="48.1412773" lon="-1.6743082">
        <ele>28.893</ele>
        <time>2018-08-17T09:13:21.967Z</time>
      </trkpt>
      <trkpt lat="48.1413614" lon="-1.6742595">
        <ele>28.861</ele>
        <time>2018-08-17T09:13:25.448Z</time>
      </trkpt>
      <trkpt lat="48.1418029" lon="-1.6744110">
        <ele>29.581</ele>
        <time>2018-08-17T09:13:40.891Z</time>
      </trkpt>
      <trkpt lat="48.1419235" lon="-1.6744525">
        <ele>29.710</ele>
        <time>2018-08-17T09:13:44.944Z</time>
      </trkpt>
      <trkpt lat="48.1420135" lon="-1.6745279">
        <ele>29.614</ele>
        <time>2018-08-17T09:13:48.150Z</time>
      </trkpt>
      <trkpt lat="48.1421084" lon="-1.6745728">
        <ele>29.337</ele>
        <time>2018-08-17T09:13:51.102Z</time>
      </trkpt>
      <trkpt lat="48.1422082" lon="-1.6746158">
        <ele>28.892</ele>
        <time>2018-08-17T09:13:54.204Z</time>
      </trkpt>
      <trkpt lat="48.1423145" lon="-1.6746701">
        <ele>28.373</ele>
        <time>2018-08-17T09:13:57.613Z</time>
      </trkpt>
      <trkpt lat="48.1424024" lon="-1.6747289">
        <ele>27.919</ele>
        <time>2018-08-17T09:14:00.499Z</time>
      </trkpt>
      <trkpt lat="48.1424897" lon="-1.6747804">
        <ele>27.632</ele>
        <time>2018-08-17T09:14:03.241Z</time>
      </trkpt>
      <trkpt lat="48.1425822" lon="-1.6748126">
        <ele>27.574</ele>
        <time>2018-08-17T09:14:05.964Z</time>
      </trkpt>
      <trkpt lat="48.1426819" lon="-1.6748499">
        <ele>27.635</ele>
        <time>2018-08-17T09:14:08.894Z</time>
      </trkpt>
      <trkpt lat="48.1427810" lon="-1.6748846">
        <ele>27.686</ele>
        <time>2018-08-17T09:14:11.806Z</time>
      </trkpt>
      <trkpt lat="48.1428712" lon="-1.6749335">
        <ele>27.694</ele>
        <time>2018-08-17T09:14:14.561Z</time>
      </trkpt>
      <trkpt lat="48.1429533" lon="-1.6750299">
        <ele>27.807</ele>
        <time>2018-08-17T09:14:17.549Z</time>
      </trkpt>
      <trkpt lat="48.1430164" lon="-1.6751390">
        <ele>28.138</ele>
        <time>2018-08-17T09:14:20.315Z</time>
      </trkpt>
      <trkpt lat="48.1430784" lon="-1.6752639">
        <ele>28.541</ele>
        <time>2018-08-17T09:14:23.388Z</time>
      </trkpt>
      <trkpt lat="48.1431421" lon="-1.6753654">
        <ele>28.756</ele>
        <time>2018-08-17T09:14:26.165Z</time>
      </trkpt>
      <trkpt lat="48.1432147" lon="-1.6755060">
        <ele>28.743</ele>
        <time>2018-08-17T09:14:29.606Z</time>
      </trkpt>
      <trkpt lat="48.1432696" lon="-1.6756227">
        <ele>28.639</ele>
        <time>2018-08-17T09:14:32.319Z</time>
      </trkpt>
      <trkpt lat="48.1433269" lon="-1.6757444">
        <ele>28.551</ele>
        <time>2018-08-17T09:14:35.147Z</time>
      </trkpt>
      <trkpt lat="48.1433954" lon="-1.6758598">
        <ele>28.488</ele>
        <time>2018-08-17T09:14:37.891Z</time>
      </trkpt>
      <trkpt lat="48.1434775" lon="-1.6759482">
        <ele>28.511</ele>
        <time>2018-08-17T09:14:40.495Z</time>
      </trkpt>
      <trkpt lat="48.1435598" lon="-1.6760781">
        <ele>28.658</ele>
        <time>2018-08-17T09:14:43.719Z</time>
      </trkpt>
      <trkpt lat="48.1436170" lon="-1.6761915">
        <ele>28.761</ele>
        <time>2018-08-17T09:14:46.438Z</time>
      </trkpt>
      <trkpt lat="48.1436810" lon="-1.6762873">
        <ele>28.627</ele>
        <time>2018-08-17T09:14:49.049Z</time>
      </trkpt>
      <trkpt lat="48.1437587" lon="-1.6763743">
        <ele>28.300</ele>
        <time>2018-08-17T09:14:51.805Z</time>
      </trkpt>
      <trkpt lat="48.1438345" lon="-1.6764746">
        <ele>27.838</ele>
        <time>2018-08-17T09:14:54.633Z</time>
      </trkpt>
      <trkpt lat="48.1439102" lon="-1.6765800">
        <ele>27.300</ele>
        <time>2018-08-17T09:14:57.563Z</time>
      </trkpt>
      <trkpt lat="48.1439994" lon="-1.6766574">
        <ele>27.008</ele>
        <time>2018-08-17T09:15:00.560Z</time>
      </trkpt>
      <trkpt lat="48.1440972" lon="-1.6766779">
        <ele>27.221</ele>
        <time>2018-08-17T09:15:03.480Z</time>
      </trkpt>
      <trkpt lat="48.1441571" lon="-1.6767995">
        <ele>27.803</ele>
        <time>2018-08-17T09:15:06.459Z</time>
      </trkpt>
      <trkpt lat="48.1442415" lon="-1.6768793">
        <ele>28.455</ele>
        <time>2018-08-17T09:15:09.338Z</time>
      </trkpt>
      <trkpt lat="48.1443374" lon="-1.6769202">
        <ele>28.907</ele>
        <time>2018-08-17T09:15:12.092Z</time>
      </trkpt>
      <trkpt lat="48.1444412" lon="-1.6769157">
        <ele>29.071</ele>
        <time>2018-08-17T09:15:15.184Z</time>
      </trkpt>
      <trkpt lat="48.1445511" lon="-1.6769620">
        <ele>29.051</ele>
        <time>2018-08-17T09:15:18.761Z</time>
      </trkpt>
      <trkpt lat="48.1446545" lon="-1.6770269">
        <ele>28.938</ele>
        <time>2018-08-17T09:15:22.418Z</time>
      </trkpt>
      <trkpt lat="48.1447655" lon="-1.6770794">
        <ele>28.826</ele>
        <time>2018-08-17T09:15:26.119Z</time>
      </trkpt>
      <trkpt lat="48.1448745" lon="-1.6771320">
        <ele>28.771</ele>
        <time>2018-08-17T09:15:29.698Z</time>
      </trkpt>
      <trkpt lat="48.1449598" lon="-1.6771843">
        <ele>28.767</ele>
        <time>2018-08-17T09:15:32.470Z</time>
      </trkpt>
      <trkpt lat="48.1450474" lon="-1.6772287">
        <ele>28.711</ele>
        <time>2018-08-17T09:15:35.218Z</time>
      </trkpt>
      <trkpt lat="48.1451566" lon="-1.6772731">
        <ele>28.560</ele>
        <time>2018-08-17T09:15:38.719Z</time>
      </trkpt>
      <trkpt lat="48.1452699" lon="-1.6773259">
        <ele>28.434</ele>
        <time>2018-08-17T09:15:42.494Z</time>
      </trkpt>
      <trkpt lat="48.1453735" lon="-1.6773853">
        <ele>28.417</ele>
        <time>2018-08-17T09:15:46.148Z</time>
      </trkpt>
      <trkpt lat="48.1454833" lon="-1.6774354">
        <ele>28.453</ele>
        <time>2018-08-17T09:15:50.005Z</time>
      </trkpt>
      <trkpt lat="48.1455771" lon="-1.6774958">
        <ele>28.509</ele>
        <time>2018-08-17T09:15:53.556Z</time>
      </trkpt>
      <trkpt lat="48.1456602" lon="-1.6775875">
        <ele>28.576</ele>
        <time>2018-08-17T09:15:57.336Z</time>
      </trkpt>
      <trkpt lat="48.1457247" lon="-1.6777054">
        <ele>28.701</ele>
        <time>2018-08-17T09:16:01.093Z</time>
      </trkpt>
      <trkpt lat="48.1457877" lon="-1.6778034">
        <ele>28.899</ele>
        <time>2018-08-17T09:16:04.365Z</time>
      </trkpt>
      <trkpt lat="48.1458229" lon="-1.6779605">
        <ele>29.074</ele>
        <time>2018-08-17T09:16:08.405Z</time>
      </trkpt>
      <trkpt lat="48.1458316" lon="-1.6781271">
        <ele>29.156</ele>
        <time>2018-08-17T09:16:12.719Z</time>
      </trkpt>
      <trkpt lat="48.1458243" lon="-1.6782723">
        <ele>29.171</ele>
        <time>2018-08-17T09:16:16.708Z</time>
      </trkpt>
      <trkpt lat="48.1458113" lon="-1.6784274">
        <ele>29.102</ele>
        <time>2018-08-17T09:16:20.930Z</time>
      </trkpt>
      <trkpt lat="48.1457859" lon="-1.6785612">
        <ele>28.925</ele>
        <time>2018-08-17T09:16:24.486Z</time>
      </trkpt>
      <trkpt lat="48.1457565" lon="-1.6786973">
        <ele>28.680</ele>
        <time>2018-08-17T09:16:27.887Z</time>
      </trkpt>
      <trkpt lat="48.1457490" lon="-1.6788451">
        <ele>28.439</ele>
        <time>2018-08-17T09:16:31.357Z</time>
      </trkpt>
      <trkpt lat="48.1457468" lon="-1.6790015">
        <ele>28.290</ele>
        <time>2018-08-17T09:16:35.197Z</time>
      </trkpt>
      <trkpt lat="48.1457451" lon="-1.6791541">
        <ele>28.273</ele>
        <time>2018-08-17T09:16:39.150Z</time>
      </trkpt>
      <trkpt lat="48.1457809" lon="-1.6793158">
        <ele>28.321</ele>
        <time>2018-08-17T09:16:43.711Z</time>
      </trkpt>
      <trkpt lat="48.1458063" lon="-1.6794687">
        <ele>28.362</ele>
        <time>2018-08-17T09:16:47.834Z</time>
      </trkpt>
      <trkpt lat="48.1458211" lon="-1.6797376">
        <ele>28.379</ele>
        <time>2018-08-17T09:16:52.968Z</time>
      </trkpt>
      <trkpt lat="48.1458597" lon="-1.6798856">
        <ele>28.405</ele>
        <time>2018-08-17T09:16:55.936Z</time>
      </trkpt>
      <trkpt lat="48.1459452" lon="-1.6799300">
        <ele>28.466</ele>
        <time>2018-08-17T09:16:59.164Z</time>
      </trkpt>
      <trkpt lat="48.1460479" lon="-1.6799657">
        <ele>28.531</ele>
        <time>2018-08-17T09:17:03.600Z</time>
      </trkpt>
      <trkpt lat="48.1461517" lon="-1.6799578">
        <ele>28.629</ele>
        <time>2018-08-17T09:17:09.261Z</time>
      </trkpt>
      <trkpt lat="48.1462386" lon="-1.6798921">
        <ele>28.866</ele>
        <time>2018-08-17T09:17:16.174Z</time>
      </trkpt>
      <trkpt lat="48.1463362" lon="-1.6798415">
        <ele>29.189</ele>
        <time>2018-08-17T09:17:20.270Z</time>
      </trkpt>
      <trkpt lat="48.1464249" lon="-1.6798167">
        <ele>29.408</ele>
        <time>2018-08-17T09:17:22.686Z</time>
      </trkpt>
      <trkpt lat="48.1465730" lon="-1.6797940">
        <ele>29.458</ele>
        <time>2018-08-17T09:17:26.360Z</time>
      </trkpt>
      <trkpt lat="48.1466983" lon="-1.6797923">
        <ele>29.531</ele>
        <time>2018-08-17T09:17:29.475Z</time>
      </trkpt>
      <trkpt lat="48.1468131" lon="-1.6797912">
        <ele>29.994</ele>
        <time>2018-08-17T09:17:32.598Z</time>
      </trkpt>
      <trkpt lat="48.1469054" lon="-1.6797741">
        <ele>30.876</ele>
        <time>2018-08-17T09:17:35.396Z</time>
      </trkpt>
      <trkpt lat="48.1469998" lon="-1.6797582">
        <ele>31.706</ele>
        <time>2018-08-17T09:17:38.184Z</time>
      </trkpt>
      <trkpt lat="48.1471168" lon="-1.6797496">
        <ele>31.998</ele>
        <time>2018-08-17T09:17:41.480Z</time>
      </trkpt>
      <trkpt lat="48.1472125" lon="-1.6797367">
        <ele>31.726</ele>
        <time>2018-08-17T09:17:44.186Z</time>
      </trkpt>
      <trkpt lat="48.1473221" lon="-1.6797343">
        <ele>31.275</ele>
        <time>2018-08-17T09:17:47.354Z</time>
      </trkpt>
      <trkpt lat="48.1474222" lon="-1.6797277">
        <ele>31.019</ele>
        <time>2018-08-17T09:17:50.325Z</time>
      </trkpt>
      <trkpt lat="48.1475266" lon="-1.6797108">
        <ele>31.005</ele>
        <time>2018-08-17T09:17:53.467Z</time>
      </trkpt>
      <trkpt lat="48.1476425" lon="-1.6796825">
        <ele>30.945</ele>
        <time>2018-08-17T09:17:57.027Z</time>
      </trkpt>
      <trkpt lat="48.1477383" lon="-1.6796680">
        <ele>30.590</ele>
        <time>2018-08-17T09:17:59.963Z</time>
      </trkpt>
      <trkpt lat="48.1478353" lon="-1.6796490">
        <ele>30.062</ele>
        <time>2018-08-17T09:18:02.958Z</time>
      </trkpt>
      <trkpt lat="48.1479511" lon="-1.6796279">
        <ele>29.583</ele>
        <time>2018-08-17T09:18:06.548Z</time>
      </trkpt>
      <trkpt lat="48.1480468" lon="-1.6796197">
        <ele>29.179</ele>
        <time>2018-08-17T09:18:09.475Z</time>
      </trkpt>
      <trkpt lat="48.1481462" lon="-1.6796062">
        <ele>28.743</ele>
        <time>2018-08-17T09:18:12.472Z</time>
      </trkpt>
      <trkpt lat="48.1482565" lon="-1.6795984">
        <ele>28.211</ele>
        <time>2018-08-17T09:18:15.782Z</time>
      </trkpt>
      <trkpt lat="48.1483471" lon="-1.6795894">
        <ele>27.699</ele>
        <time>2018-08-17T09:18:18.552Z</time>
      </trkpt>
      <trkpt lat="48.1484523" lon="-1.6795895">
        <ele>27.328</ele>
        <time>2018-08-17T09:18:21.775Z</time>
      </trkpt>
      <trkpt lat="48.1485483" lon="-1.6795817">
        <ele>27.121</ele>
        <time>2018-08-17T09:18:24.729Z</time>
      </trkpt>
      <trkpt lat="48.1486470" lon="-1.6795663">
        <ele>27.054</ele>
        <time>2018-08-17T09:18:27.773Z</time>
      </trkpt>
      <trkpt lat="48.1487565" lon="-1.6795486">
        <ele>27.072</ele>
        <time>2018-08-17T09:18:31.071Z</time>
      </trkpt>
      <trkpt lat="48.1488498" lon="-1.6795253">
        <ele>27.110</ele>
        <time>2018-08-17T09:18:33.938Z</time>
      </trkpt>
      <trkpt lat="48.1489456" lon="-1.6794929">
        <ele>27.192</ele>
        <time>2018-08-17T09:18:36.982Z</time>
      </trkpt>
      <trkpt lat="48.1490416" lon="-1.6794648">
        <ele>27.329</ele>
        <time>2018-08-17T09:18:40.030Z</time>
      </trkpt>
      <trkpt lat="48.1491552" lon="-1.6794543">
        <ele>27.474</ele>
        <time>2018-08-17T09:18:43.476Z</time>
      </trkpt>
      <trkpt lat="48.1492487" lon="-1.6794544">
        <ele>27.556</ele>
        <time>2018-08-17T09:18:46.348Z</time>
      </trkpt>
      <trkpt lat="48.1493524" lon="-1.6794604">
        <ele>27.582</ele>
        <time>2018-08-17T09:18:49.643Z</time>
      </trkpt>
      <trkpt lat="48.1494535" lon="-1.6794558">
        <ele>27.612</ele>
        <time>2018-08-17T09:18:52.941Z</time>
      </trkpt>
      <trkpt lat="48.1495440" lon="-1.6794286">
        <ele>27.726</ele>
        <time>2018-08-17T09:18:56.021Z</time>
      </trkpt>
      <trkpt lat="48.1496415" lon="-1.6794032">
        <ele>27.918</ele>
        <time>2018-08-17T09:18:59.384Z</time>
      </trkpt>
      <trkpt lat="48.1497323" lon="-1.6793930">
        <ele>28.090</ele>
        <time>2018-08-17T09:19:02.432Z</time>
      </trkpt>
      <trkpt lat="48.1498298" lon="-1.6793944">
        <ele>28.159</ele>
        <time>2018-08-17T09:19:05.801Z</time>
      </trkpt>
      <trkpt lat="48.1499203" lon="-1.6793990">
        <ele>28.143</ele>
        <time>2018-08-17T09:19:09.144Z</time>
      </trkpt>
      <trkpt lat="48.1500140" lon="-1.6793800">
        <ele>28.075</ele>
        <time>2018-08-17T09:19:12.957Z</time>
      </trkpt>
      <trkpt lat="48.1501034" lon="-1.6793586">
        <ele>27.861</ele>
        <time>2018-08-17T09:19:16.950Z</time>
      </trkpt>
      <trkpt lat="48.1502015" lon="-1.6793403">
        <ele>27.519</ele>
        <time>2018-08-17T09:19:22.144Z</time>
      </trkpt>
      <trkpt lat="48.1502932" lon="-1.6793187">
        <ele>27.285</ele>
        <time>2018-08-17T09:19:27.999Z</time>
      </trkpt>
      <trkpt lat="48.1502932" lon="-1.6793187">
        <ele>27.249</ele>
        <time>2018-08-17T09:19:37.999Z</time>
      </trkpt>
      <trkpt lat="48.1502932" lon="-1.6793187">
        <ele>27.276</ele>
        <time>2018-08-17T09:19:38.099Z</time>
      </trkpt>
      <trkpt lat="48.1504128" lon="-1.6792845">
        <ele>27.284</ele>
        <time>2018-08-17T09:19:49.000Z</time>
      </trkpt>
      <trkpt lat="48.1504128" lon="-1.6792845">
        <ele>27.270</ele>
        <time>2018-08-17T09:19:52.000Z</time>
      </trkpt>
      <trkpt lat="48.1504128" lon="-1.6792845">
        <ele>27.257</ele>
        <time>2018-08-17T09:21:25.584Z</time>
      </trkpt>
      <trkpt lat="48.1506057" lon="-1.6792555">
        <ele>27.251</ele>
        <time>2018-08-17T09:21:40.114Z</time>
      </trkpt>
      <trkpt lat="48.1507092" lon="-1.6792097">
        <ele>27.667</ele>
        <time>2018-08-17T09:21:45.293Z</time>
      </trkpt>
      <trkpt lat="48.1508105" lon="-1.6791690">
        <ele>28.754</ele>
        <time>2018-08-17T09:21:49.899Z</time>
      </trkpt>
      <trkpt lat="48.1509035" lon="-1.6790922">
        <ele>29.794</ele>
        <time>2018-08-17T09:21:54.501Z</time>
      </trkpt>
      <trkpt lat="48.1509563" lon="-1.6789642">
        <ele>29.991</ele>
        <time>2018-08-17T09:21:58.963Z</time>
      </trkpt>
      <trkpt lat="48.1509721" lon="-1.6788147">
        <ele>29.510</ele>
        <time>2018-08-17T09:22:03.332Z</time>
      </trkpt>
      <trkpt lat="48.1510179" lon="-1.6786980">
        <ele>28.912</ele>
        <time>2018-08-17T09:22:07.167Z</time>
      </trkpt>
      <trkpt lat="48.1510654" lon="-1.6785626">
        <ele>28.515</ele>
        <time>2018-08-17T09:22:11.448Z</time>
      </trkpt>
      <trkpt lat="48.1511056" lon="-1.6784143">
        <ele>28.266</ele>
        <time>2018-08-17T09:22:15.765Z</time>
      </trkpt>
      <trkpt lat="48.1511553" lon="-1.6782858">
        <ele>28.129</ele>
        <time>2018-08-17T09:22:19.554Z</time>
      </trkpt>
      <trkpt lat="48.1512255" lon="-1.6781895">
        <ele>28.183</ele>
        <time>2018-08-17T09:22:23.122Z</time>
      </trkpt>
      <trkpt lat="48.1513123" lon="-1.6780824">
        <ele>28.392</ele>
        <time>2018-08-17T09:22:27.358Z</time>
      </trkpt>
      <trkpt lat="48.1513988" lon="-1.6780093">
        <ele>28.547</ele>
        <time>2018-08-17T09:22:31.109Z</time>
      </trkpt>
      <trkpt lat="48.1514826" lon="-1.6779105">
        <ele>28.532</ele>
        <time>2018-08-17T09:22:35.000Z</time>
      </trkpt>
      <trkpt lat="48.1514826" lon="-1.6779105">
        <ele>28.408</ele>
        <time>2018-08-17T09:22:38.000Z</time>
      </trkpt>
      <trkpt lat="48.1514826" lon="-1.6779105">
        <ele>28.313</ele>
        <time>2018-08-17T09:22:38.100Z</time>
      </trkpt>
      <trkpt lat="48.1516318" lon="-1.6776251">
        <ele>28.322</ele>
        <time>2018-08-17T09:22:49.574Z</time>
      </trkpt>
      <trkpt lat="48.1516804" lon="-1.6774884">
        <ele>28.394</ele>
        <time>2018-08-17T09:22:53.228Z</time>
      </trkpt>
      <trkpt lat="48.1517455" lon="-1.6773463">
        <ele>28.450</ele>
        <time>2018-08-17T09:22:57.506Z</time>
      </trkpt>
      <trkpt lat="48.1517740" lon="-1.6771939">
        <ele>28.394</ele>
        <time>2018-08-17T09:23:01.493Z</time>
      </trkpt>
      <trkpt lat="48.1517805" lon="-1.6770336">
        <ele>28.208</ele>
        <time>2018-08-17T09:23:05.208Z</time>
      </trkpt>
      <trkpt lat="48.1517763" lon="-1.6768901">
        <ele>28.019</ele>
        <time>2018-08-17T09:23:08.299Z</time>
      </trkpt>
      <trkpt lat="48.1517752" lon="-1.6767383">
        <ele>27.940</ele>
        <time>2018-08-17T09:23:11.501Z</time>
      </trkpt>
      <trkpt lat="48.1517777" lon="-1.6765898">
        <ele>27.875</ele>
        <time>2018-08-17T09:23:14.636Z</time>
      </trkpt>
      <trkpt lat="48.1517763" lon="-1.6764453">
        <ele>27.726</ele>
        <time>2018-08-17T09:23:17.717Z</time>
      </trkpt>
      <trkpt lat="48.1517665" lon="-1.6763111">
        <ele>27.567</ele>
        <time>2018-08-17T09:23:20.658Z</time>
      </trkpt>
      <trkpt lat="48.1517315" lon="-1.6761455">
        <ele>27.419</ele>
        <time>2018-08-17T09:23:24.577Z</time>
      </trkpt>
      <trkpt lat="48.1516771" lon="-1.6759887">
        <ele>27.201</ele>
        <time>2018-08-17T09:23:28.711Z</time>
      </trkpt>
      <trkpt lat="48.1516171" lon="-1.6758820">
        <ele>26.955</ele>
        <time>2018-08-17T09:23:31.924Z</time>
      </trkpt>
      <trkpt lat="48.1515363" lon="-1.6757693">
        <ele>26.781</ele>
        <time>2018-08-17T09:23:35.484Z</time>
      </trkpt>
      <trkpt lat="48.1514707" lon="-1.6756718">
        <ele>26.779</ele>
        <time>2018-08-17T09:23:38.337Z</time>
      </trkpt>
      <trkpt lat="48.1514002" lon="-1.6755415">
        <ele>27.002</ele>
        <time>2018-08-17T09:23:41.902Z</time>
      </trkpt>
      <trkpt lat="48.1513457" lon="-1.6754300">
        <ele>27.309</ele>
        <time>2018-08-17T09:23:44.868Z</time>
      </trkpt>
      <trkpt lat="48.1513198" lon="-1.6752754">
        <ele>27.445</ele>
        <time>2018-08-17T09:23:48.217Z</time>
      </trkpt>
      <trkpt lat="48.1513034" lon="-1.6751298">
        <ele>27.269</ele>
        <time>2018-08-17T09:23:51.245Z</time>
      </trkpt>
      <trkpt lat="48.1512942" lon="-1.6749896">
        <ele>26.904</ele>
        <time>2018-08-17T09:23:54.103Z</time>
      </trkpt>
      <trkpt lat="48.1513040" lon="-1.6748478">
        <ele>26.762</ele>
        <time>2018-08-17T09:23:56.993Z</time>
      </trkpt>
      <trkpt lat="48.1513215" lon="-1.6747053">
        <ele>27.041</ele>
        <time>2018-08-17T09:23:59.938Z</time>
      </trkpt>
      <trkpt lat="48.1513477" lon="-1.6745676">
        <ele>27.331</ele>
        <time>2018-08-17T09:24:02.810Z</time>
      </trkpt>
      <trkpt lat="48.1513721" lon="-1.6744328">
        <ele>27.202</ele>
        <time>2018-08-17T09:24:05.522Z</time>
      </trkpt>
      <trkpt lat="48.1514217" lon="-1.6742919">
        <ele>26.600</ele>
        <time>2018-08-17T09:24:08.508Z</time>
      </trkpt>
      <trkpt lat="48.1514975" lon="-1.6741622">
        <ele>25.763</ele>
        <time>2018-08-17T09:24:11.675Z</time>
      </trkpt>
      <trkpt lat="48.1515793" lon="-1.6740324">
        <ele>25.287</ele>
        <time>2018-08-17T09:24:14.942Z</time>
      </trkpt>
      <trkpt lat="48.1516536" lon="-1.6739077">
        <ele>25.534</ele>
        <time>2018-08-17T09:24:18.204Z</time>
      </trkpt>
      <trkpt lat="48.1517254" lon="-1.6737946">
        <ele>26.107</ele>
        <time>2018-08-17T09:24:21.492Z</time>
      </trkpt>
      <trkpt lat="48.1517386" lon="-1.6736185">
        <ele>26.552</ele>
        <time>2018-08-17T09:24:25.402Z</time>
      </trkpt>
      <trkpt lat="48.1517243" lon="-1.6734439">
        <ele>26.804</ele>
        <time>2018-08-17T09:24:29.153Z</time>
      </trkpt>
      <trkpt lat="48.1517000" lon="-1.6732995">
        <ele>26.998</ele>
        <time>2018-08-17T09:24:32.216Z</time>
      </trkpt>
      <trkpt lat="48.1516791" lon="-1.6731679">
        <ele>27.248</ele>
        <time>2018-08-17T09:24:34.889Z</time>
      </trkpt>
      <trkpt lat="48.1516450" lon="-1.6730285">
        <ele>27.497</ele>
        <time>2018-08-17T09:24:37.760Z</time>
      </trkpt>
      <trkpt lat="48.1516208" lon="-1.6728722">
        <ele>27.629</ele>
        <time>2018-08-17T09:24:40.887Z</time>
      </trkpt>
      <trkpt lat="48.1515992" lon="-1.6727206">
        <ele>27.655</ele>
        <time>2018-08-17T09:24:43.963Z</time>
      </trkpt>
      <trkpt lat="48.1515784" lon="-1.6725828">
        <ele>27.635</ele>
        <time>2018-08-17T09:24:46.753Z</time>
      </trkpt>
      <trkpt lat="48.1515627" lon="-1.6724472">
        <ele>27.610</ele>
        <time>2018-08-17T09:24:49.437Z</time>
      </trkpt>
      <trkpt lat="48.1515479" lon="-1.6723080">
        <ele>27.596</ele>
        <time>2018-08-17T09:24:52.199Z</time>
      </trkpt>
      <trkpt lat="48.1515331" lon="-1.6721671">
        <ele>27.638</ele>
        <time>2018-08-17T09:24:55.069Z</time>
      </trkpt>
      <trkpt lat="48.1515108" lon="-1.6720344">
        <ele>27.783</ele>
        <time>2018-08-17T09:24:57.884Z</time>
      </trkpt>
      <trkpt lat="48.1514945" lon="-1.6718944">
        <ele>28.064</ele>
        <time>2018-08-17T09:25:00.832Z</time>
      </trkpt>
      <trkpt lat="48.1514776" lon="-1.6717510">
        <ele>28.453</ele>
        <time>2018-08-17T09:25:03.858Z</time>
      </trkpt>
      <trkpt lat="48.1514567" lon="-1.6716173">
        <ele>28.792</ele>
        <time>2018-08-17T09:25:06.687Z</time>
      </trkpt>
      <trkpt lat="48.1514400" lon="-1.6714807">
        <ele>28.955</ele>
        <time>2018-08-17T09:25:09.552Z</time>
      </trkpt>
      <trkpt lat="48.1514135" lon="-1.6713092">
        <ele>28.986</ele>
        <time>2018-08-17T09:25:13.107Z</time>
      </trkpt>
      <trkpt lat="48.1513733" lon="-1.6711512">
        <ele>28.938</ele>
        <time>2018-08-17T09:25:16.447Z</time>
      </trkpt>
      <trkpt lat="48.1513450" lon="-1.6710178">
        <ele>28.837</ele>
        <time>2018-08-17T09:25:19.333Z</time>
      </trkpt>
      <trkpt lat="48.1513085" lon="-1.6708622">
        <ele>28.802</ele>
        <time>2018-08-17T09:25:22.849Z</time>
      </trkpt>
      <trkpt lat="48.1512897" lon="-1.6706862">
        <ele>28.914</ele>
        <time>2018-08-17T09:25:26.632Z</time>
      </trkpt>
      <trkpt lat="48.1512780" lon="-1.6705309">
        <ele>29.095</ele>
        <time>2018-08-17T09:25:29.818Z</time>
      </trkpt>
      <trkpt lat="48.1512437" lon="-1.6703903">
        <ele>29.256</ele>
        <time>2018-08-17T09:25:32.847Z</time>
      </trkpt>
      <trkpt lat="48.1512153" lon="-1.6702623">
        <ele>29.358</ele>
        <time>2018-08-17T09:25:35.712Z</time>
      </trkpt>
      <trkpt lat="48.1511920" lon="-1.6701033">
        <ele>29.362</ele>
        <time>2018-08-17T09:25:39.252Z</time>
      </trkpt>
      <trkpt lat="48.1511938" lon="-1.6699310">
        <ele>29.289</ele>
        <time>2018-08-17T09:25:43.001Z</time>
      </trkpt>
      <trkpt lat="48.1511927" lon="-1.6697919">
        <ele>29.230</ele>
        <time>2018-08-17T09:25:46.018Z</time>
      </trkpt>
      <trkpt lat="48.1511640" lon="-1.6696320">
        <ele>29.282</ele>
        <time>2018-08-17T09:25:49.652Z</time>
      </trkpt>
      <trkpt lat="48.1511284" lon="-1.6694742">
        <ele>29.440</ele>
        <time>2018-08-17T09:25:53.310Z</time>
      </trkpt>
      <trkpt lat="48.1511211" lon="-1.6693237">
        <ele>29.582</ele>
        <time>2018-08-17T09:25:56.519Z</time>
      </trkpt>
      <trkpt lat="48.1511094" lon="-1.6691779">
        <ele>29.585</ele>
        <time>2018-08-17T09:25:59.629Z</time>
      </trkpt>
      <trkpt lat="48.1510796" lon="-1.6690263">
        <ele>29.501</ele>
        <time>2018-08-17T09:26:03.027Z</time>
      </trkpt>
      <trkpt lat="48.1510550" lon="-1.6688887">
        <ele>29.496</ele>
        <time>2018-08-17T09:26:06.051Z</time>
      </trkpt>
      <trkpt lat="48.1510072" lon="-1.6687446">
        <ele>29.600</ele>
        <time>2018-08-17T09:26:09.350Z</time>
      </trkpt>
      <trkpt lat="48.1509754" lon="-1.6686063">
        <ele>29.698</ele>
        <time>2018-08-17T09:26:12.420Z</time>
      </trkpt>
      <trkpt lat="48.1509587" lon="-1.6684645">
        <ele>29.975</ele>
        <time>2018-08-17T09:26:15.478Z</time>
      </trkpt>
      <trkpt lat="48.1509221" lon="-1.6683260">
        <ele>30.585</ele>
        <time>2018-08-17T09:26:18.485Z</time>
      </trkpt>
      <trkpt lat="48.1508708" lon="-1.6682039">
        <ele>31.094</ele>
        <time>2018-08-17T09:26:21.250Z</time>
      </trkpt>
      <trkpt lat="48.1508157" lon="-1.6680753">
        <ele>31.111</ele>
        <time>2018-08-17T09:26:24.099Z</time>
      </trkpt>
      <trkpt lat="48.1507711" lon="-1.6679341">
        <ele>30.881</ele>
        <time>2018-08-17T09:26:27.000Z</time>
      </trkpt>
      <trkpt lat="48.1507333" lon="-1.6677872">
        <ele>30.715</ele>
        <time>2018-08-17T09:26:29.974Z</time>
      </trkpt>
      <trkpt lat="48.1507078" lon="-1.6676411">
        <ele>30.660</ele>
        <time>2018-08-17T09:26:32.872Z</time>
      </trkpt>
      <trkpt lat="48.1506947" lon="-1.6674875">
        <ele>30.603</ele>
        <time>2018-08-17T09:26:35.870Z</time>
      </trkpt>
      <trkpt lat="48.1506882" lon="-1.6673474">
        <ele>30.478</ele>
        <time>2018-08-17T09:26:38.653Z</time>
      </trkpt>
      <trkpt lat="48.1507095" lon="-1.6672100">
        <ele>30.377</ele>
        <time>2018-08-17T09:26:41.567Z</time>
      </trkpt>
      <trkpt lat="48.1507313" lon="-1.6670725">
        <ele>30.358</ele>
        <time>2018-08-17T09:26:44.564Z</time>
      </trkpt>
      <trkpt lat="48.1507629" lon="-1.6669216">
        <ele>30.338</ele>
        <time>2018-08-17T09:26:47.815Z</time>
      </trkpt>
      <trkpt lat="48.1507899" lon="-1.6667608">
        <ele>30.265</ele>
        <time>2018-08-17T09:26:51.057Z</time>
      </trkpt>
      <trkpt lat="48.1508256" lon="-1.6665955">
        <ele>30.241</ele>
        <time>2018-08-17T09:26:54.319Z</time>
      </trkpt>
      <trkpt lat="48.1508685" lon="-1.6664349">
        <ele>30.379</ele>
        <time>2018-08-17T09:26:57.454Z</time>
      </trkpt>
      <trkpt lat="48.1509085" lon="-1.6662726">
        <ele>30.622</ele>
        <time>2018-08-17T09:27:00.521Z</time>
      </trkpt>
      <trkpt lat="48.1509544" lon="-1.6661198">
        <ele>30.812</ele>
        <time>2018-08-17T09:27:03.471Z</time>
      </trkpt>
      <trkpt lat="48.1510117" lon="-1.6659748">
        <ele>30.829</ele>
        <time>2018-08-17T09:27:06.423Z</time>
      </trkpt>
      <trkpt lat="48.1510946" lon="-1.6658466">
        <ele>30.684</ele>
        <time>2018-08-17T09:27:09.530Z</time>
      </trkpt>
      <trkpt lat="48.1511847" lon="-1.6657380">
        <ele>30.510</ele>
        <time>2018-08-17T09:27:12.546Z</time>
      </trkpt>
      <trkpt lat="48.1512709" lon="-1.6656355">
        <ele>30.406</ele>
        <time>2018-08-17T09:27:15.449Z</time>
      </trkpt>
      <trkpt lat="48.1513433" lon="-1.6655274">
        <ele>30.400</ele>
        <time>2018-08-17T09:27:18.219Z</time>
      </trkpt>
      <trkpt lat="48.1513895" lon="-1.6653986">
        <ele>30.480</ele>
        <time>2018-08-17T09:27:20.967Z</time>
      </trkpt>
      <trkpt lat="48.1514136" lon="-1.6652681">
        <ele>30.682</ele>
        <time>2018-08-17T09:27:23.596Z</time>
      </trkpt>
      <trkpt lat="48.1514261" lon="-1.6651237">
        <ele>31.001</ele>
        <time>2018-08-17T09:27:26.448Z</time>
      </trkpt>
      <trkpt lat="48.1514381" lon="-1.6649774">
        <ele>31.371</ele>
        <time>2018-08-17T09:27:29.295Z</time>
      </trkpt>
      <trkpt lat="48.1514547" lon="-1.6648327">
        <ele>31.720</ele>
        <time>2018-08-17T09:27:32.139Z</time>
      </trkpt>
      <trkpt lat="48.1514699" lon="-1.6646963">
        <ele>31.961</ele>
        <time>2018-08-17T09:27:34.923Z</time>
      </trkpt>
      <trkpt lat="48.1514824" lon="-1.6645565">
        <ele>32.025</ele>
        <time>2018-08-17T09:27:37.838Z</time>
      </trkpt>
      <trkpt lat="48.1514942" lon="-1.6644012">
        <ele>31.892</ele>
        <time>2018-08-17T09:27:41.017Z</time>
      </trkpt>
      <trkpt lat="48.1514907" lon="-1.6642458">
        <ele>31.545</ele>
        <time>2018-08-17T09:27:44.067Z</time>
      </trkpt>
      <trkpt lat="48.1514698" lon="-1.6640980">
        <ele>31.063</ele>
        <time>2018-08-17T09:27:46.992Z</time>
      </trkpt>
      <trkpt lat="48.1514366" lon="-1.6639565">
        <ele>30.526</ele>
        <time>2018-08-17T09:27:49.917Z</time>
      </trkpt>
      <trkpt lat="48.1513933" lon="-1.6638160">
        <ele>30.012</ele>
        <time>2018-08-17T09:27:52.889Z</time>
      </trkpt>
      <trkpt lat="48.1513393" lon="-1.6636738">
        <ele>29.663</ele>
        <time>2018-08-17T09:27:55.936Z</time>
      </trkpt>
      <trkpt lat="48.1513205" lon="-1.6635330">
        <ele>29.515</ele>
        <time>2018-08-17T09:27:58.603Z</time>
      </trkpt>
      <trkpt lat="48.1513139" lon="-1.6633740">
        <ele>29.467</ele>
        <time>2018-08-17T09:28:01.584Z</time>
      </trkpt>
      <trkpt lat="48.1513231" lon="-1.6632202">
        <ele>29.394</ele>
        <time>2018-08-17T09:28:04.477Z</time>
      </trkpt>
      <trkpt lat="48.1513441" lon="-1.6630680">
        <ele>29.225</ele>
        <time>2018-08-17T09:28:07.462Z</time>
      </trkpt>
      <trkpt lat="48.1513674" lon="-1.6628971">
        <ele>29.022</ele>
        <time>2018-08-17T09:28:11.061Z</time>
      </trkpt>
      <trkpt lat="48.1514007" lon="-1.6627542">
        <ele>28.884</ele>
        <time>2018-08-17T09:28:14.483Z</time>
      </trkpt>
      <trkpt lat="48.1514482" lon="-1.6626232">
        <ele>28.981</ele>
        <time>2018-08-17T09:28:18.232Z</time>
      </trkpt>
      <trkpt lat="48.1514994" lon="-1.6624794">
        <ele>29.376</ele>
        <time>2018-08-17T09:28:23.033Z</time>
      </trkpt>
      <trkpt lat="48.1515306" lon="-1.6623120">
        <ele>29.780</ele>
        <time>2018-08-17T09:28:28.298Z</time>
      </trkpt>
      <trkpt lat="48.1515630" lon="-1.6621271">
        <ele>29.907</ele>
        <time>2018-08-17T09:28:32.734Z</time>
      </trkpt>
      <trkpt lat="48.1516049" lon="-1.6619633">
        <ele>29.809</ele>
        <time>2018-08-17T09:28:35.773Z</time>
      </trkpt>
      <trkpt lat="48.1516424" lon="-1.6618025">
        <ele>29.760</ele>
        <time>2018-08-17T09:28:38.586Z</time>
      </trkpt>
      <trkpt lat="48.1516580" lon="-1.6616267">
        <ele>29.930</ele>
        <time>2018-08-17T09:28:41.690Z</time>
      </trkpt>
      <trkpt lat="48.1517023" lon="-1.6614891">
        <ele>30.170</ele>
        <time>2018-08-17T09:28:44.536Z</time>
      </trkpt>
      <trkpt lat="48.1517406" lon="-1.6613473">
        <ele>30.188</ele>
        <time>2018-08-17T09:28:47.579Z</time>
      </trkpt>
      <trkpt lat="48.1517712" lon="-1.6612133">
        <ele>29.924</ele>
        <time>2018-08-17T09:28:50.499Z</time>
      </trkpt>
      <trkpt lat="48.1518167" lon="-1.6610732">
        <ele>29.595</ele>
        <time>2018-08-17T09:28:53.805Z</time>
      </trkpt>
      <trkpt lat="48.1518723" lon="-1.6609281">
        <ele>29.374</ele>
        <time>2018-08-17T09:28:57.305Z</time>
      </trkpt>
      <trkpt lat="48.1519237" lon="-1.6607838">
        <ele>29.247</ele>
        <time>2018-08-17T09:29:00.606Z</time>
      </trkpt>
      <trkpt lat="48.1519665" lon="-1.6606615">
        <ele>29.188</ele>
        <time>2018-08-17T09:29:03.507Z</time>
      </trkpt>
      <trkpt lat="48.1520126" lon="-1.6605121">
        <ele>29.152</ele>
        <time>2018-08-17T09:29:07.145Z</time>
      </trkpt>
      <trkpt lat="48.1520629" lon="-1.6603548">
        <ele>29.080</ele>
        <time>2018-08-17T09:29:10.852Z</time>
      </trkpt>
      <trkpt lat="48.1521072" lon="-1.6602285">
        <ele>28.977</ele>
        <time>2018-08-17T09:29:14.032Z</time>
      </trkpt>
      <trkpt lat="48.1521503" lon="-1.6601049">
        <ele>28.987</ele>
        <time>2018-08-17T09:29:17.539Z</time>
      </trkpt>
      <trkpt lat="48.1522002" lon="-1.6599565">
        <ele>29.186</ele>
        <time>2018-08-17T09:29:22.229Z</time>
      </trkpt>
      <trkpt lat="48.1522440" lon="-1.6598327">
        <ele>29.355</ele>
        <time>2018-08-17T09:29:26.152Z</time>
      </trkpt>
      <trkpt lat="48.1522910" lon="-1.6596923">
        <ele>29.306</ele>
        <time>2018-08-17T09:29:30.205Z</time>
      </trkpt>
      <trkpt lat="48.1523270" lon="-1.6595406">
        <ele>29.299</ele>
        <time>2018-08-17T09:29:34.068Z</time>
      </trkpt>
      <trkpt lat="48.1523656" lon="-1.6593796">
        <ele>29.572</ele>
        <time>2018-08-17T09:29:38.000Z</time>
      </trkpt>
      <trkpt lat="48.1523656" lon="-1.6593796">
        <ele>29.847</ele>
        <time>2018-08-17T09:29:41.000Z</time>
      </trkpt>
      <trkpt lat="48.1523656" lon="-1.6593796">
        <ele>29.836</ele>
        <time>2018-08-17T09:29:41.100Z</time>
      </trkpt>
      <trkpt lat="48.1524295" lon="-1.6590525">
        <ele>29.686</ele>
        <time>2018-08-17T09:29:50.159Z</time>
      </trkpt>
      <trkpt lat="48.1524752" lon="-1.6588800">
        <ele>29.624</ele>
        <time>2018-08-17T09:29:53.899Z</time>
      </trkpt>
      <trkpt lat="48.1525193" lon="-1.6587589">
        <ele>29.714</ele>
        <time>2018-08-17T09:29:56.584Z</time>
      </trkpt>
      <trkpt lat="48.1525666" lon="-1.6586160">
        <ele>29.905</ele>
        <time>2018-08-17T09:29:59.668Z</time>
      </trkpt>
      <trkpt lat="48.1526106" lon="-1.6584618">
        <ele>30.157</ele>
        <time>2018-08-17T09:30:02.994Z</time>
      </trkpt>
      <trkpt lat="48.1526371" lon="-1.6583242">
        <ele>30.461</ele>
        <time>2018-08-17T09:30:05.711Z</time>
      </trkpt>
      <trkpt lat="48.1526784" lon="-1.6581936">
        <ele>30.777</ele>
        <time>2018-08-17T09:30:08.588Z</time>
      </trkpt>
      <trkpt lat="48.1527328" lon="-1.6580559">
        <ele>31.108</ele>
        <time>2018-08-17T09:30:12.199Z</time>
      </trkpt>
      <trkpt lat="48.1527780" lon="-1.6579161">
        <ele>31.469</ele>
        <time>2018-08-17T09:30:16.168Z</time>
      </trkpt>
      <trkpt lat="48.1528143" lon="-1.6577921">
        <ele>31.803</ele>
        <time>2018-08-17T09:30:19.870Z</time>
      </trkpt>
      <trkpt lat="48.1528482" lon="-1.6576645">
        <ele>32.045</ele>
        <time>2018-08-17T09:30:22.941Z</time>
      </trkpt>
      <trkpt lat="48.1528940" lon="-1.6574972">
        <ele>32.170</ele>
        <time>2018-08-17T09:30:26.069Z</time>
      </trkpt>
      <trkpt lat="48.1529299" lon="-1.6573735">
        <ele>32.334</ele>
        <time>2018-08-17T09:30:28.003Z</time>
      </trkpt>
      <trkpt lat="48.1529826" lon="-1.6571889">
        <ele>32.678</ele>
        <time>2018-08-17T09:30:30.699Z</time>
      </trkpt>
      <trkpt lat="48.1530269" lon="-1.6570246">
        <ele>33.021</ele>
        <time>2018-08-17T09:30:33.000Z</time>
      </trkpt>
      <trkpt lat="48.1530269" lon="-1.6570246">
        <ele>33.151</ele>
        <time>2018-08-17T09:30:35.000Z</time>
      </trkpt>
      <trkpt lat="48.1530269" lon="-1.6570246">
        <ele>33.130</ele>
        <time>2018-08-17T09:30:35.100Z</time>
      </trkpt>
      <trkpt lat="48.1531580" lon="-1.6567599">
        <ele>33.092</ele>
        <time>2018-08-17T09:30:44.881Z</time>
      </trkpt>
      <trkpt lat="48.1532234" lon="-1.6566576">
        <ele>33.090</ele>
        <time>2018-08-17T09:30:48.073Z</time>
      </trkpt>
      <trkpt lat="48.1532825" lon="-1.6565544">
        <ele>32.979</ele>
        <time>2018-08-17T09:30:51.073Z</time>
      </trkpt>
      <trkpt lat="48.1533435" lon="-1.6564513">
        <ele>32.636</ele>
        <time>2018-08-17T09:30:54.070Z</time>
      </trkpt>
      <trkpt lat="48.1534144" lon="-1.6563657">
        <ele>32.160</ele>
        <time>2018-08-17T09:30:57.016Z</time>
      </trkpt>
      <trkpt lat="48.1535053" lon="-1.6562547">
        <ele>31.744</ele>
        <time>2018-08-17T09:31:00.770Z</time>
      </trkpt>
      <trkpt lat="48.1536027" lon="-1.6561593">
        <ele>31.389</ele>
        <time>2018-08-17T09:31:04.481Z</time>
      </trkpt>
      <trkpt lat="48.1536866" lon="-1.6560448">
        <ele>31.030</ele>
        <time>2018-08-17T09:31:08.188Z</time>
      </trkpt>
      <trkpt lat="48.1537704" lon="-1.6559357">
        <ele>30.673</ele>
        <time>2018-08-17T09:31:11.828Z</time>
      </trkpt>
      <trkpt lat="48.1538414" lon="-1.6558513">
        <ele>30.375</ele>
        <time>2018-08-17T09:31:14.869Z</time>
      </trkpt>
      <trkpt lat="48.1539197" lon="-1.6557555">
        <ele>30.187</ele>
        <time>2018-08-17T09:31:18.482Z</time>
      </trkpt>
      <trkpt lat="48.1540170" lon="-1.6556814">
        <ele>30.100</ele>
        <time>2018-08-17T09:31:22.258Z</time>
      </trkpt>
      <trkpt lat="48.1541087" lon="-1.6556188">
        <ele>30.033</ele>
        <time>2018-08-17T09:31:25.552Z</time>
      </trkpt>
      <trkpt lat="48.1541940" lon="-1.6555380">
        <ele>29.890</ele>
        <time>2018-08-17T09:31:28.836Z</time>
      </trkpt>
      <trkpt lat="48.1542933" lon="-1.6554599">
        <ele>29.636</ele>
        <time>2018-08-17T09:31:32.526Z</time>
      </trkpt>
      <trkpt lat="48.1543818" lon="-1.6554162">
        <ele>29.386</ele>
        <time>2018-08-17T09:31:35.621Z</time>
      </trkpt>
      <trkpt lat="48.1544629" lon="-1.6553464">
        <ele>29.260</ele>
        <time>2018-08-17T09:31:38.831Z</time>
      </trkpt>
      <trkpt lat="48.1545587" lon="-1.6552833">
        <ele>29.241</ele>
        <time>2018-08-17T09:31:42.498Z</time>
      </trkpt>
      <trkpt lat="48.1546495" lon="-1.6552626">
        <ele>29.277</ele>
        <time>2018-08-17T09:31:45.612Z</time>
      </trkpt>
      <trkpt lat="48.1547466" lon="-1.6552385">
        <ele>29.334</ele>
        <time>2018-08-17T09:31:48.923Z</time>
      </trkpt>
      <trkpt lat="48.1548609" lon="-1.6552114">
        <ele>29.400</ele>
        <time>2018-08-17T09:31:52.851Z</time>
      </trkpt>
      <trkpt lat="48.1549510" lon="-1.6551907">
        <ele>29.510</ele>
        <time>2018-08-17T09:31:56.127Z</time>
      </trkpt>
      <trkpt lat="48.1550621" lon="-1.6551436">
        <ele>29.767</ele>
        <time>2018-08-17T09:32:00.477Z</time>
      </trkpt>
      <trkpt lat="48.1551670" lon="-1.6550836">
        <ele>30.143</ele>
        <time>2018-08-17T09:32:04.512Z</time>
      </trkpt>
      <trkpt lat="48.1552701" lon="-1.6550350">
        <ele>30.348</ele>
        <time>2018-08-17T09:32:08.229Z</time>
      </trkpt>
      <trkpt lat="48.1553753" lon="-1.6549764">
        <ele>30.063</ele>
        <time>2018-08-17T09:32:11.946Z</time>
      </trkpt>
      <trkpt lat="48.1554710" lon="-1.6549430">
        <ele>29.386</ele>
        <time>2018-08-17T09:32:15.094Z</time>
      </trkpt>
      <trkpt lat="48.1555597" lon="-1.6549062">
        <ele>28.837</ele>
        <time>2018-08-17T09:32:18.101Z</time>
      </trkpt>
      <trkpt lat="48.1556594" lon="-1.6548458">
        <ele>28.722</ele>
        <time>2018-08-17T09:32:21.607Z</time>
      </trkpt>
      <trkpt lat="48.1557541" lon="-1.6548311">
        <ele>28.887</ele>
        <time>2018-08-17T09:32:24.540Z</time>
      </trkpt>
      <trkpt lat="48.1558658" lon="-1.6548191">
        <ele>29.098</ele>
        <time>2018-08-17T09:32:27.824Z</time>
      </trkpt>
      <trkpt lat="48.1559565" lon="-1.6547627">
        <ele>29.193</ele>
        <time>2018-08-17T09:32:30.632Z</time>
      </trkpt>
      <trkpt lat="48.1560419" lon="-1.6546532">
        <ele>29.107</ele>
        <time>2018-08-17T09:32:33.960Z</time>
      </trkpt>
      <trkpt lat="48.1561174" lon="-1.6545168">
        <ele>28.929</ele>
        <time>2018-08-17T09:32:37.731Z</time>
      </trkpt>
      <trkpt lat="48.1561587" lon="-1.6543590">
        <ele>28.742</ele>
        <time>2018-08-17T09:32:41.516Z</time>
      </trkpt>
      <trkpt lat="48.1562079" lon="-1.6542110">
        <ele>28.563</ele>
        <time>2018-08-17T09:32:45.219Z</time>
      </trkpt>
      <trkpt lat="48.1562781" lon="-1.6540747">
        <ele>28.447</ele>
        <time>2018-08-17T09:32:49.063Z</time>
      </trkpt>
      <trkpt lat="48.1563303" lon="-1.6539341">
        <ele>28.501</ele>
        <time>2018-08-17T09:32:52.668Z</time>
      </trkpt>
      <trkpt lat="48.1564255" lon="-1.6538215">
        <ele>28.722</ele>
        <time>2018-08-17T09:32:56.721Z</time>
      </trkpt>
      <trkpt lat="48.1565093" lon="-1.6537515">
        <ele>28.949</ele>
        <time>2018-08-17T09:32:59.895Z</time>
      </trkpt>
      <trkpt lat="48.1566013" lon="-1.6536922">
        <ele>29.123</ele>
        <time>2018-08-17T09:33:03.175Z</time>
      </trkpt>
      <trkpt lat="48.1566877" lon="-1.6536383">
        <ele>29.307</ele>
        <time>2018-08-17T09:33:06.219Z</time>
      </trkpt>
      <trkpt lat="48.1567920" lon="-1.6535425">
        <ele>29.467</ele>
        <time>2018-08-17T09:33:10.156Z</time>
      </trkpt>
      <trkpt lat="48.1568762" lon="-1.6534789">
        <ele>29.522</ele>
        <time>2018-08-17T09:33:13.127Z</time>
      </trkpt>
      <trkpt lat="48.1569653" lon="-1.6534311">
        <ele>29.457</ele>
        <time>2018-08-17T09:33:16.270Z</time>
      </trkpt>
      <trkpt lat="48.1570624" lon="-1.6533797">
        <ele>29.331</ele>
        <time>2018-08-17T09:33:19.811Z</time>
      </trkpt>
      <trkpt lat="48.1571712" lon="-1.6533539">
        <ele>29.271</ele>
        <time>2018-08-17T09:33:23.711Z</time>
      </trkpt>
      <trkpt lat="48.1572915" lon="-1.6534037">
        <ele>29.344</ele>
        <time>2018-08-17T09:33:27.912Z</time>
      </trkpt>
      <trkpt lat="48.1574040" lon="-1.6534695">
        <ele>29.511</ele>
        <time>2018-08-17T09:33:31.889Z</time>
      </trkpt>
      <trkpt lat="48.1575014" lon="-1.6534897">
        <ele>29.697</ele>
        <time>2018-08-17T09:33:35.300Z</time>
      </trkpt>
      <trkpt lat="48.1576065" lon="-1.6534847">
        <ele>29.855</ele>
        <time>2018-08-17T09:33:39.093Z</time>
      </trkpt>
      <trkpt lat="48.1576953" lon="-1.6534605">
        <ele>30.101</ele>
        <time>2018-08-17T09:33:42.261Z</time>
      </trkpt>
      <trkpt lat="48.1578152" lon="-1.6534029">
        <ele>30.619</ele>
        <time>2018-08-17T09:33:46.578Z</time>
      </trkpt>
      <trkpt lat="48.1579201" lon="-1.6533977">
        <ele>31.280</ele>
        <time>2018-08-17T09:33:50.071Z</time>
      </trkpt>
      <trkpt lat="48.1580255" lon="-1.6534178">
        <ele>31.744</ele>
        <time>2018-08-17T09:33:53.693Z</time>
      </trkpt>
      <trkpt lat="48.1581174" lon="-1.6534424">
        <ele>31.918</ele>
        <time>2018-08-17T09:33:56.973Z</time>
      </trkpt>
      <trkpt lat="48.1582256" lon="-1.6534273">
        <ele>31.957</ele>
        <time>2018-08-17T09:34:00.813Z</time>
      </trkpt>
      <trkpt lat="48.1583348" lon="-1.6534468">
        <ele>32.037</ele>
        <time>2018-08-17T09:34:04.666Z</time>
      </trkpt>
      <trkpt lat="48.1584190" lon="-1.6535044">
        <ele>32.198</ele>
        <time>2018-08-17T09:34:07.842Z</time>
      </trkpt>
      <trkpt lat="48.1589126" lon="-1.6534912">
        <ele>32.295</ele>
        <time>2018-08-17T09:34:24.908Z</time>
      </trkpt>
      <trkpt lat="48.1589995" lon="-1.6535452">
        <ele>32.219</ele>
        <time>2018-08-17T09:34:28.313Z</time>
      </trkpt>
      <trkpt lat="48.1591048" lon="-1.6535976">
        <ele>32.142</ele>
        <time>2018-08-17T09:34:32.525Z</time>
      </trkpt>
      <trkpt lat="48.1592005" lon="-1.6535942">
        <ele>31.954</ele>
        <time>2018-08-17T09:34:36.133Z</time>
      </trkpt>
      <trkpt lat="48.1592915" lon="-1.6536176">
        <ele>31.581</ele>
        <time>2018-08-17T09:34:39.392Z</time>
      </trkpt>
      <trkpt lat="48.1593844" lon="-1.6536714">
        <ele>31.153</ele>
        <time>2018-08-17T09:34:42.841Z</time>
      </trkpt>
      <trkpt lat="48.1594890" lon="-1.6537396">
        <ele>30.832</ele>
        <time>2018-08-17T09:34:46.867Z</time>
      </trkpt>
      <trkpt lat="48.1595694" lon="-1.6538491">
        <ele>30.669</ele>
        <time>2018-08-17T09:34:50.745Z</time>
      </trkpt>
      <trkpt lat="48.1596479" lon="-1.6539209">
        <ele>30.569</ele>
        <time>2018-08-17T09:34:53.912Z</time>
      </trkpt>
      <trkpt lat="48.1597447" lon="-1.6539820">
        <ele>30.419</ele>
        <time>2018-08-17T09:34:57.392Z</time>
      </trkpt>
      <trkpt lat="48.1598231" lon="-1.6540579">
        <ele>30.292</ele>
        <time>2018-08-17T09:35:00.317Z</time>
      </trkpt>
      <trkpt lat="48.1599104" lon="-1.6540973">
        <ele>30.282</ele>
        <time>2018-08-17T09:35:02.956Z</time>
      </trkpt>
      <trkpt lat="48.1600243" lon="-1.6541542">
        <ele>30.333</ele>
        <time>2018-08-17T09:35:07.588Z</time>
      </trkpt>
      <trkpt lat="48.1600369" lon="-1.6542928">
        <ele>30.346</ele>
        <time>2018-08-17T09:35:12.523Z</time>
      </trkpt>
      <trkpt lat="48.1601042" lon="-1.6544312">
        <ele>30.294</ele>
        <time>2018-08-17T09:35:18.941Z</time>
      </trkpt>
      <trkpt lat="48.1601825" lon="-1.6545391">
        <ele>30.343</ele>
        <time>2018-08-17T09:35:22.949Z</time>
      </trkpt>
      <trkpt lat="48.1602902" lon="-1.6546312">
        <ele>30.632</ele>
        <time>2018-08-17T09:35:27.003Z</time>
      </trkpt>
      <trkpt lat="48.1603957" lon="-1.6547455">
        <ele>30.991</ele>
        <time>2018-08-17T09:35:31.119Z</time>
      </trkpt>
      <trkpt lat="48.1604824" lon="-1.6548816">
        <ele>31.245</ele>
        <time>2018-08-17T09:35:35.348Z</time>
      </trkpt>
      <trkpt lat="48.1605371" lon="-1.6550318">
        <ele>31.419</ele>
        <time>2018-08-17T09:35:39.338Z</time>
      </trkpt>
      <trkpt lat="48.1606321" lon="-1.6551314">
        <ele>31.474</ele>
        <time>2018-08-17T09:35:43.242Z</time>
      </trkpt>
      <trkpt lat="48.1606846" lon="-1.6552940">
        <ele>31.354</ele>
        <time>2018-08-17T09:35:47.206Z</time>
      </trkpt>
      <trkpt lat="48.1607138" lon="-1.6554441">
        <ele>31.155</ele>
        <time>2018-08-17T09:35:50.562Z</time>
      </trkpt>
      <trkpt lat="48.1607402" lon="-1.6555882">
        <ele>31.011</ele>
        <time>2018-08-17T09:35:53.552Z</time>
      </trkpt>
      <trkpt lat="48.1607913" lon="-1.6557030">
        <ele>30.940</ele>
        <time>2018-08-17T09:35:56.249Z</time>
      </trkpt>
      <trkpt lat="48.1608276" lon="-1.6558408">
        <ele>30.841</ele>
        <time>2018-08-17T09:35:59.204Z</time>
      </trkpt>
      <trkpt lat="48.1608464" lon="-1.6560165">
        <ele>30.655</ele>
        <time>2018-08-17T09:36:03.026Z</time>
      </trkpt>
      <trkpt lat="48.1608679" lon="-1.6561977">
        <ele>30.534</ele>
        <time>2018-08-17T09:36:07.265Z</time>
      </trkpt>
      <trkpt lat="48.1608914" lon="-1.6563325">
        <ele>30.609</ele>
        <time>2018-08-17T09:36:10.569Z</time>
      </trkpt>
      <trkpt lat="48.1609650" lon="-1.6564352">
        <ele>30.764</ele>
        <time>2018-08-17T09:36:14.079Z</time>
      </trkpt>
      <trkpt lat="48.1610060" lon="-1.6565664">
        <ele>30.899</ele>
        <time>2018-08-17T09:36:17.393Z</time>
      </trkpt>
      <trkpt lat="48.1610301" lon="-1.6566998">
        <ele>31.038</ele>
        <time>2018-08-17T09:36:20.555Z</time>
      </trkpt>
      <trkpt lat="48.1610495" lon="-1.6568649">
        <ele>31.209</ele>
        <time>2018-08-17T09:36:24.330Z</time>
      </trkpt>
      <trkpt lat="48.1610932" lon="-1.6569921">
        <ele>31.397</ele>
        <time>2018-08-17T09:36:27.460Z</time>
      </trkpt>
      <trkpt lat="48.1611787" lon="-1.6570641">
        <ele>31.467</ele>
        <time>2018-08-17T09:36:30.645Z</time>
      </trkpt>
      <trkpt lat="48.1612608" lon="-1.6571435">
        <ele>31.231</ele>
        <time>2018-08-17T09:36:33.770Z</time>
      </trkpt>
      <trkpt lat="48.1613248" lon="-1.6572477">
        <ele>30.788</ele>
        <time>2018-08-17T09:36:36.785Z</time>
      </trkpt>
      <trkpt lat="48.1613739" lon="-1.6573628">
        <ele>30.550</ele>
        <time>2018-08-17T09:36:39.727Z</time>
      </trkpt>
      <trkpt lat="48.1614072" lon="-1.6575137">
        <ele>30.764</ele>
        <time>2018-08-17T09:36:43.144Z</time>
      </trkpt>
      <trkpt lat="48.1614688" lon="-1.6576467">
        <ele>31.236</ele>
        <time>2018-08-17T09:36:46.619Z</time>
      </trkpt>
      <trkpt lat="48.1615386" lon="-1.6577785">
        <ele>31.683</ele>
        <time>2018-08-17T09:36:50.186Z</time>
      </trkpt>
      <trkpt lat="48.1616102" lon="-1.6579153">
        <ele>31.952</ele>
        <time>2018-08-17T09:36:53.717Z</time>
      </trkpt>
      <trkpt lat="48.1616587" lon="-1.6580337">
        <ele>32.068</ele>
        <time>2018-08-17T09:36:56.437Z</time>
      </trkpt>
      <trkpt lat="48.1616784" lon="-1.6581766">
        <ele>32.077</ele>
        <time>2018-08-17T09:36:59.260Z</time>
      </trkpt>
      <trkpt lat="48.1616911" lon="-1.6583280">
        <ele>31.943</ele>
        <time>2018-08-17T09:37:02.198Z</time>
      </trkpt>
      <trkpt lat="48.1616850" lon="-1.6584768">
        <ele>31.709</ele>
        <time>2018-08-17T09:37:05.242Z</time>
      </trkpt>
      <trkpt lat="48.1616630" lon="-1.6586260">
        <ele>31.501</ele>
        <time>2018-08-17T09:37:08.674Z</time>
      </trkpt>
      <trkpt lat="48.1616564" lon="-1.6588083">
        <ele>31.311</ele>
        <time>2018-08-17T09:37:12.751Z</time>
      </trkpt>
      <trkpt lat="48.1616218" lon="-1.6589719">
        <ele>30.980</ele>
        <time>2018-08-17T09:37:16.091Z</time>
      </trkpt>
      <trkpt lat="48.1615812" lon="-1.6591349">
        <ele>30.477</ele>
        <time>2018-08-17T09:37:19.423Z</time>
      </trkpt>
      <trkpt lat="48.1615174" lon="-1.6592971">
        <ele>30.125</ele>
        <time>2018-08-17T09:37:23.046Z</time>
      </trkpt>
      <trkpt lat="48.1614622" lon="-1.6594494">
        <ele>30.129</ele>
        <time>2018-08-17T09:37:26.333Z</time>
      </trkpt>
      <trkpt lat="48.1614364" lon="-1.6596046">
        <ele>30.373</ele>
        <time>2018-08-17T09:37:29.467Z</time>
      </trkpt>
      <trkpt lat="48.1614062" lon="-1.6597628">
        <ele>30.764</ele>
        <time>2018-08-17T09:37:32.826Z</time>
      </trkpt>
      <trkpt lat="48.1613487" lon="-1.6598972">
        <ele>31.240</ele>
        <time>2018-08-17T09:37:36.040Z</time>
      </trkpt>
      <trkpt lat="48.1612956" lon="-1.6600131">
        <ele>31.639</ele>
        <time>2018-08-17T09:37:38.842Z</time>
      </trkpt>
      <trkpt lat="48.1612471" lon="-1.6601453">
        <ele>31.845</ele>
        <time>2018-08-17T09:37:41.779Z</time>
      </trkpt>
      <trkpt lat="48.1612125" lon="-1.6602775">
        <ele>31.837</ele>
        <time>2018-08-17T09:37:44.522Z</time>
      </trkpt>
      <trkpt lat="48.1611720" lon="-1.6604043">
        <ele>31.680</ele>
        <time>2018-08-17T09:37:47.262Z</time>
      </trkpt>
      <trkpt lat="48.1611379" lon="-1.6605497">
        <ele>31.546</ele>
        <time>2018-08-17T09:37:50.252Z</time>
      </trkpt>
      <trkpt lat="48.1611060" lon="-1.6606770">
        <ele>31.544</ele>
        <time>2018-08-17T09:37:52.868Z</time>
      </trkpt>
      <trkpt lat="48.1610930" lon="-1.6608215">
        <ele>31.568</ele>
        <time>2018-08-17T09:37:55.655Z</time>
      </trkpt>
      <trkpt lat="48.1610682" lon="-1.6609652">
        <ele>31.414</ele>
        <time>2018-08-17T09:37:58.490Z</time>
      </trkpt>
      <trkpt lat="48.1610356" lon="-1.6611065">
        <ele>31.074</ele>
        <time>2018-08-17T09:38:01.389Z</time>
      </trkpt>
      <trkpt lat="48.1610006" lon="-1.6612495">
        <ele>30.768</ele>
        <time>2018-08-17T09:38:04.417Z</time>
      </trkpt>
      <trkpt lat="48.1609754" lon="-1.6613868">
        <ele>30.629</ele>
        <time>2018-08-17T09:38:07.293Z</time>
      </trkpt>
      <trkpt lat="48.1609347" lon="-1.6615119">
        <ele>30.578</ele>
        <time>2018-08-17T09:38:10.115Z</time>
      </trkpt>
      <trkpt lat="48.1608947" lon="-1.6616442">
        <ele>30.554</ele>
        <time>2018-08-17T09:38:13.038Z</time>
      </trkpt>
      <trkpt lat="48.1608545" lon="-1.6617700">
        <ele>30.651</ele>
        <time>2018-08-17T09:38:15.801Z</time>
      </trkpt>
      <trkpt lat="48.1608332" lon="-1.6619156">
        <ele>30.906</ele>
        <time>2018-08-17T09:38:18.767Z</time>
      </trkpt>
      <trkpt lat="48.1608188" lon="-1.6620638">
        <ele>31.253</ele>
        <time>2018-08-17T09:38:21.807Z</time>
      </trkpt>
      <trkpt lat="48.1608065" lon="-1.6622042">
        <ele>31.684</ele>
        <time>2018-08-17T09:38:24.717Z</time>
      </trkpt>
      <trkpt lat="48.1607819" lon="-1.6623813">
        <ele>32.113</ele>
        <time>2018-08-17T09:38:28.324Z</time>
      </trkpt>
      <trkpt lat="48.1607681" lon="-1.6625196">
        <ele>32.310</ele>
        <time>2018-08-17T09:38:30.983Z</time>
      </trkpt>
      <trkpt lat="48.1607551" lon="-1.6626698">
        <ele>32.200</ele>
        <time>2018-08-17T09:38:33.827Z</time>
      </trkpt>
      <trkpt lat="48.1607417" lon="-1.6628142">
        <ele>31.912</ele>
        <time>2018-08-17T09:38:36.615Z</time>
      </trkpt>
      <trkpt lat="48.1607187" lon="-1.6629537">
        <ele>31.603</ele>
        <time>2018-08-17T09:38:39.377Z</time>
      </trkpt>
      <trkpt lat="48.1607005" lon="-1.6630957">
        <ele>31.365</ele>
        <time>2018-08-17T09:38:42.135Z</time>
      </trkpt>
      <trkpt lat="48.1606911" lon="-1.6632411">
        <ele>31.182</ele>
        <time>2018-08-17T09:38:44.934Z</time>
      </trkpt>
      <trkpt lat="48.1606789" lon="-1.6633928">
        <ele>30.970</ele>
        <time>2018-08-17T09:38:47.905Z</time>
      </trkpt>
      <trkpt lat="48.1606684" lon="-1.6635646">
        <ele>30.747</ele>
        <time>2018-08-17T09:38:51.370Z</time>
      </trkpt>
      <trkpt lat="48.1606442" lon="-1.6637237">
        <ele>30.584</ele>
        <time>2018-08-17T09:38:54.797Z</time>
      </trkpt>
      <trkpt lat="48.1606436" lon="-1.6638850">
        <ele>30.478</ele>
        <time>2018-08-17T09:38:58.273Z</time>
      </trkpt>
      <trkpt lat="48.1606654" lon="-1.6640566">
        <ele>30.503</ele>
        <time>2018-08-17T09:39:02.111Z</time>
      </trkpt>
      <trkpt lat="48.1606897" lon="-1.6642210">
        <ele>30.750</ele>
        <time>2018-08-17T09:39:05.950Z</time>
      </trkpt>
      <trkpt lat="48.1607248" lon="-1.6643807">
        <ele>31.097</ele>
        <time>2018-08-17T09:39:09.821Z</time>
      </trkpt>
      <trkpt lat="48.1607267" lon="-1.6645210">
        <ele>31.330</ele>
        <time>2018-08-17T09:39:12.965Z</time>
      </trkpt>
      <trkpt lat="48.1607414" lon="-1.6646606">
        <ele>31.384</ele>
        <time>2018-08-17T09:39:15.994Z</time>
      </trkpt>
      <trkpt lat="48.1607584" lon="-1.6648165">
        <ele>31.268</ele>
        <time>2018-08-17T09:39:19.215Z</time>
      </trkpt>
      <trkpt lat="48.1607678" lon="-1.6649903">
        <ele>30.916</ele>
        <time>2018-08-17T09:39:22.671Z</time>
      </trkpt>
      <trkpt lat="48.1607652" lon="-1.6651534">
        <ele>30.368</ele>
        <time>2018-08-17T09:39:25.814Z</time>
      </trkpt>
      <trkpt lat="48.1607662" lon="-1.6653297">
        <ele>29.866</ele>
        <time>2018-08-17T09:39:29.261Z</time>
      </trkpt>
      <trkpt lat="48.1607640" lon="-1.6654972">
        <ele>29.576</ele>
        <time>2018-08-17T09:39:32.819Z</time>
      </trkpt>
      <trkpt lat="48.1607859" lon="-1.6656608">
        <ele>29.525</ele>
        <time>2018-08-17T09:39:36.593Z</time>
      </trkpt>
      <trkpt lat="48.1608278" lon="-1.6658255">
        <ele>29.782</ele>
        <time>2018-08-17T09:39:40.291Z</time>
      </trkpt>
      <trkpt lat="48.1608801" lon="-1.6659513">
        <ele>30.287</ele>
        <time>2018-08-17T09:39:43.254Z</time>
      </trkpt>
      <trkpt lat="48.1609455" lon="-1.6660576">
        <ele>30.766</ele>
        <time>2018-08-17T09:39:46.118Z</time>
      </trkpt>
      <trkpt lat="48.1610281" lon="-1.6661352">
        <ele>31.014</ele>
        <time>2018-08-17T09:39:49.039Z</time>
      </trkpt>
      <trkpt lat="48.1611209" lon="-1.6662222">
        <ele>31.066</ele>
        <time>2018-08-17T09:39:52.473Z</time>
      </trkpt>
      <trkpt lat="48.1611998" lon="-1.6662931">
        <ele>31.049</ele>
        <time>2018-08-17T09:39:55.476Z</time>
      </trkpt>
      <trkpt lat="48.1612700" lon="-1.6663824">
        <ele>31.040</ele>
        <time>2018-08-17T09:39:58.430Z</time>
      </trkpt>
      <trkpt lat="48.1613556" lon="-1.6664622">
        <ele>31.004</ele>
        <time>2018-08-17T09:40:01.678Z</time>
      </trkpt>
      <trkpt lat="48.1614459" lon="-1.6665335">
        <ele>30.909</ele>
        <time>2018-08-17T09:40:05.113Z</time>
      </trkpt>
      <trkpt lat="48.1615429" lon="-1.6666136">
        <ele>30.820</ele>
        <time>2018-08-17T09:40:08.962Z</time>
      </trkpt>
      <trkpt lat="48.1616421" lon="-1.6667092">
        <ele>30.871</ele>
        <time>2018-08-17T09:40:13.048Z</time>
      </trkpt>
      <trkpt lat="48.1617310" lon="-1.6667898">
        <ele>31.083</ele>
        <time>2018-08-17T09:40:16.700Z</time>
      </trkpt>
      <trkpt lat="48.1618269" lon="-1.6668861">
        <ele>31.249</ele>
        <time>2018-08-17T09:40:20.778Z</time>
      </trkpt>
      <trkpt lat="48.1619173" lon="-1.6669945">
        <ele>31.213</ele>
        <time>2018-08-17T09:40:24.802Z</time>
      </trkpt>
      <trkpt lat="48.1620044" lon="-1.6671201">
        <ele>31.108</ele>
        <time>2018-08-17T09:40:28.800Z</time>
      </trkpt>
      <trkpt lat="48.1620850" lon="-1.6672090">
        <ele>31.175</ele>
        <time>2018-08-17T09:40:32.026Z</time>
      </trkpt>
      <trkpt lat="48.1621770" lon="-1.6672833">
        <ele>31.457</ele>
        <time>2018-08-17T09:40:35.431Z</time>
      </trkpt>
      <trkpt lat="48.1622681" lon="-1.6673334">
        <ele>31.833</ele>
        <time>2018-08-17T09:40:38.668Z</time>
      </trkpt>
      <trkpt lat="48.1623879" lon="-1.6673507">
        <ele>32.241</ele>
        <time>2018-08-17T09:40:42.659Z</time>
      </trkpt>
      <trkpt lat="48.1625051" lon="-1.6673635">
        <ele>32.651</ele>
        <time>2018-08-17T09:40:46.260Z</time>
      </trkpt>
      <trkpt lat="48.1626106" lon="-1.6674005">
        <ele>32.962</ele>
        <time>2018-08-17T09:40:49.668Z</time>
      </trkpt>
      <trkpt lat="48.1627144" lon="-1.6674451">
        <ele>33.116</ele>
        <time>2018-08-17T09:40:53.384Z</time>
      </trkpt>
      <trkpt lat="48.1628273" lon="-1.6674486">
        <ele>33.160</ele>
        <time>2018-08-17T09:40:57.324Z</time>
      </trkpt>
      <trkpt lat="48.1629299" lon="-1.6674544">
        <ele>33.204</ele>
        <time>2018-08-17T09:41:00.563Z</time>
      </trkpt>
      <trkpt lat="48.1630275" lon="-1.6674939">
        <ele>33.308</ele>
        <time>2018-08-17T09:41:03.651Z</time>
      </trkpt>
      <trkpt lat="48.1631368" lon="-1.6675249">
        <ele>33.440</ele>
        <time>2018-08-17T09:41:07.136Z</time>
      </trkpt>
      <trkpt lat="48.1632428" lon="-1.6675562">
        <ele>33.503</ele>
        <time>2018-08-17T09:41:10.584Z</time>
      </trkpt>
      <trkpt lat="48.1633380" lon="-1.6675788">
        <ele>33.456</ele>
        <time>2018-08-17T09:41:13.675Z</time>
      </trkpt>
      <trkpt lat="48.1634382" lon="-1.6676039">
        <ele>33.371</ele>
        <time>2018-08-17T09:41:17.007Z</time>
      </trkpt>
      <trkpt lat="48.1635313" lon="-1.6676284">
        <ele>33.320</ele>
        <time>2018-08-17T09:41:20.097Z</time>
      </trkpt>
      <trkpt lat="48.1636202" lon="-1.6676558">
        <ele>33.313</ele>
        <time>2018-08-17T09:41:22.979Z</time>
      </trkpt>
      <trkpt lat="48.1637115" lon="-1.6676728">
        <ele>33.334</ele>
        <time>2018-08-17T09:41:25.807Z</time>
      </trkpt>
      <trkpt lat="48.1638108" lon="-1.6676728">
        <ele>33.398</ele>
        <time>2018-08-17T09:41:28.752Z</time>
      </trkpt>
      <trkpt lat="48.1639050" lon="-1.6676687">
        <ele>33.553</ele>
        <time>2018-08-17T09:41:31.525Z</time>
      </trkpt>
      <trkpt lat="48.1640129" lon="-1.6676865">
        <ele>33.795</ele>
        <time>2018-08-17T09:41:34.862Z</time>
      </trkpt>
      <trkpt lat="48.1641044" lon="-1.6677111">
        <ele>34.063</ele>
        <time>2018-08-17T09:41:37.875Z</time>
      </trkpt>
      <trkpt lat="48.1642195" lon="-1.6677355">
        <ele>34.294</ele>
        <time>2018-08-17T09:41:41.705Z</time>
      </trkpt>
      <trkpt lat="48.1643317" lon="-1.6677459">
        <ele>34.435</ele>
        <time>2018-08-17T09:41:45.275Z</time>
      </trkpt>
      <trkpt lat="48.1644488" lon="-1.6677738">
        <ele>34.489</ele>
        <time>2018-08-17T09:41:48.777Z</time>
      </trkpt>
      <trkpt lat="48.1645584" lon="-1.6678113">
        <ele>34.495</ele>
        <time>2018-08-17T09:41:52.167Z</time>
      </trkpt>
      <trkpt lat="48.1646582" lon="-1.6678432">
        <ele>34.469</ele>
        <time>2018-08-17T09:41:55.364Z</time>
      </trkpt>
      <trkpt lat="48.1647503" lon="-1.6678641">
        <ele>34.347</ele>
        <time>2018-08-17T09:41:58.264Z</time>
      </trkpt>
      <trkpt lat="48.1648464" lon="-1.6678827">
        <ele>34.088</ele>
        <time>2018-08-17T09:42:01.289Z</time>
      </trkpt>
      <trkpt lat="48.1649483" lon="-1.6678971">
        <ele>33.807</ele>
        <time>2018-08-17T09:42:04.600Z</time>
      </trkpt>
      <trkpt lat="48.1650429" lon="-1.6679156">
        <ele>33.663</ele>
        <time>2018-08-17T09:42:07.728Z</time>
      </trkpt>
      <trkpt lat="48.1651496" lon="-1.6678725">
        <ele>33.684</ele>
        <time>2018-08-17T09:42:11.233Z</time>
      </trkpt>
      <trkpt lat="48.1652473" lon="-1.6678473">
        <ele>33.773</ele>
        <time>2018-08-17T09:42:14.359Z</time>
      </trkpt>
      <trkpt lat="48.1653507" lon="-1.6678598">
        <ele>33.847</ele>
        <time>2018-08-17T09:42:17.702Z</time>
      </trkpt>
      <trkpt lat="48.1654593" lon="-1.6678285">
        <ele>33.955</ele>
        <time>2018-08-17T09:42:21.427Z</time>
      </trkpt>
      <trkpt lat="48.1655440" lon="-1.6677756">
        <ele>34.125</ele>
        <time>2018-08-17T09:42:24.681Z</time>
      </trkpt>
      <trkpt lat="48.1656433" lon="-1.6677248">
        <ele>34.238</ele>
        <time>2018-08-17T09:42:28.526Z</time>
      </trkpt>
      <trkpt lat="48.1657353" lon="-1.6676475">
        <ele>34.185</ele>
        <time>2018-08-17T09:42:32.521Z</time>
      </trkpt>
      <trkpt lat="48.1658244" lon="-1.6675565">
        <ele>33.976</ele>
        <time>2018-08-17T09:42:37.059Z</time>
      </trkpt>
      <trkpt lat="48.1659101" lon="-1.6674833">
        <ele>33.690</ele>
        <time>2018-08-17T09:42:42.307Z</time>
      </trkpt>
      <trkpt lat="48.1659916" lon="-1.6674198">
        <ele>33.436</ele>
        <time>2018-08-17T09:42:47.877Z</time>
      </trkpt>
      <trkpt lat="48.1660558" lon="-1.6673159">
        <ele>33.294</ele>
        <time>2018-08-17T09:42:53.878Z</time>
      </trkpt>
      <trkpt lat="48.1661415" lon="-1.6672281">
        <ele>33.337</ele>
        <time>2018-08-17T09:42:59.480Z</time>
      </trkpt>
      <trkpt lat="48.1662293" lon="-1.6671341">
        <ele>33.624</ele>
        <time>2018-08-17T09:43:04.581Z</time>
      </trkpt>
      <trkpt lat="48.1663105" lon="-1.6670237">
        <ele>34.083</ele>
        <time>2018-08-17T09:43:09.341Z</time>
      </trkpt>
      <trkpt lat="48.1663925" lon="-1.6669293">
        <ele>34.500</ele>
        <time>2018-08-17T09:43:13.646Z</time>
      </trkpt>
      <trkpt lat="48.1664768" lon="-1.6668430">
        <ele>34.597</ele>
        <time>2018-08-17T09:43:17.897Z</time>
      </trkpt>
      <trkpt lat="48.1665612" lon="-1.6667739">
        <ele>34.191</ele>
        <time>2018-08-17T09:43:21.704Z</time>
      </trkpt>
      <trkpt lat="48.1666396" lon="-1.6667069">
        <ele>33.468</ele>
        <time>2018-08-17T09:43:25.130Z</time>
      </trkpt>
      <trkpt lat="48.1667351" lon="-1.6666176">
        <ele>32.847</ele>
        <time>2018-08-17T09:43:29.301Z</time>
      </trkpt>
      <trkpt lat="48.1668342" lon="-1.6665411">
        <ele>32.601</ele>
        <time>2018-08-17T09:43:33.305Z</time>
      </trkpt>
      <trkpt lat="48.1669246" lon="-1.6664921">
        <ele>32.693</ele>
        <time>2018-08-17T09:43:36.567Z</time>
      </trkpt>
      <trkpt lat="48.1670332" lon="-1.6664116">
        <ele>32.802</ele>
        <time>2018-08-17T09:43:40.385Z</time>
      </trkpt>
      <trkpt lat="48.1671081" lon="-1.6663107">
        <ele>32.688</ele>
        <time>2018-08-17T09:43:43.505Z</time>
      </trkpt>
      <trkpt lat="48.1671791" lon="-1.6662065">
        <ele>32.462</ele>
        <time>2018-08-17T09:43:46.572Z</time>
      </trkpt>
      <trkpt lat="48.1672685" lon="-1.6661055">
        <ele>32.311</ele>
        <time>2018-08-17T09:43:49.950Z</time>
      </trkpt>
      <trkpt lat="48.1673482" lon="-1.6660410">
        <ele>32.361</ele>
        <time>2018-08-17T09:43:52.575Z</time>
      </trkpt>
      <trkpt lat="48.1674538" lon="-1.6659688">
        <ele>32.668</ele>
        <time>2018-08-17T09:43:55.938Z</time>
      </trkpt>
      <trkpt lat="48.1675385" lon="-1.6659025">
        <ele>33.067</ele>
        <time>2018-08-17T09:43:58.786Z</time>
      </trkpt>
      <trkpt lat="48.1676219" lon="-1.6658256">
        <ele>33.348</ele>
        <time>2018-08-17T09:44:01.694Z</time>
      </trkpt>
      <trkpt lat="48.1676985" lon="-1.6657318">
        <ele>33.655</ele>
        <time>2018-08-17T09:44:04.549Z</time>
      </trkpt>
      <trkpt lat="48.1677888" lon="-1.6656350">
        <ele>34.220</ele>
        <time>2018-08-17T09:44:07.660Z</time>
      </trkpt>
      <trkpt lat="48.1678726" lon="-1.6655298">
        <ele>34.880</ele>
        <time>2018-08-17T09:44:10.667Z</time>
      </trkpt>
      <trkpt lat="48.1679410" lon="-1.6654169">
        <ele>35.284</ele>
        <time>2018-08-17T09:44:13.468Z</time>
      </trkpt>
      <trkpt lat="48.1680087" lon="-1.6653101">
        <ele>35.357</ele>
        <time>2018-08-17T09:44:16.251Z</time>
      </trkpt>
      <trkpt lat="48.1681139" lon="-1.6652384">
        <ele>35.250</ele>
        <time>2018-08-17T09:44:19.602Z</time>
      </trkpt>
      <trkpt lat="48.1682076" lon="-1.6651636">
        <ele>35.168</ele>
        <time>2018-08-17T09:44:22.674Z</time>
      </trkpt>
      <trkpt lat="48.1683028" lon="-1.6650828">
        <ele>35.270</ele>
        <time>2018-08-17T09:44:25.837Z</time>
      </trkpt>
      <trkpt lat="48.1683842" lon="-1.6650106">
        <ele>35.531</ele>
        <time>2018-08-17T09:44:28.741Z</time>
      </trkpt>
      <trkpt lat="48.1684736" lon="-1.6649201">
        <ele>35.720</ele>
        <time>2018-08-17T09:44:32.215Z</time>
      </trkpt>
      <trkpt lat="48.1685528" lon="-1.6648533">
        <ele>35.615</ele>
        <time>2018-08-17T09:44:35.446Z</time>
      </trkpt>
      <trkpt lat="48.1686299" lon="-1.6647839">
        <ele>35.136</ele>
        <time>2018-08-17T09:44:39.000Z</time>
      </trkpt>
      <trkpt lat="48.1686299" lon="-1.6647839">
        <ele>34.465</ele>
        <time>2018-08-17T09:44:47.000Z</time>
      </trkpt>
      <trkpt lat="48.1686299" lon="-1.6647839">
        <ele>34.035</ele>
        <time>2018-08-17T09:45:40.396Z</time>
      </trkpt>
      <trkpt lat="48.1687877" lon="-1.6646165">
        <ele>34.044</ele>
        <time>2018-08-17T09:45:51.813Z</time>
      </trkpt>
      <trkpt lat="48.1688973" lon="-1.6645056">
        <ele>34.250</ele>
        <time>2018-08-17T09:45:54.677Z</time>
      </trkpt>
      <trkpt lat="48.1689888" lon="-1.6644091">
        <ele>34.272</ele>
        <time>2018-08-17T09:45:56.756Z</time>
      </trkpt>
      <trkpt lat="48.1690775" lon="-1.6643179">
        <ele>33.905</ele>
        <time>2018-08-17T09:45:58.745Z</time>
      </trkpt>
      <trkpt lat="48.1692100" lon="-1.6642063">
        <ele>33.291</ele>
        <time>2018-08-17T09:46:01.838Z</time>
      </trkpt>
      <trkpt lat="48.1692960" lon="-1.6641095">
        <ele>32.775</ele>
        <time>2018-08-17T09:46:05.038Z</time>
      </trkpt>
      <trkpt lat="48.1693923" lon="-1.6640224">
        <ele>32.526</ele>
        <time>2018-08-17T09:46:09.281Z</time>
      </trkpt>
      <trkpt lat="48.1694710" lon="-1.6639178">
        <ele>32.489</ele>
        <time>2018-08-17T09:46:13.607Z</time>
      </trkpt>
      <trkpt lat="48.1695738" lon="-1.6638437">
        <ele>32.476</ele>
        <time>2018-08-17T09:46:18.265Z</time>
      </trkpt>
      <trkpt lat="48.1696612" lon="-1.6637697">
        <ele>32.368</ele>
        <time>2018-08-17T09:46:22.094Z</time>
      </trkpt>
      <trkpt lat="48.1697624" lon="-1.6636603">
        <ele>32.231</ele>
        <time>2018-08-17T09:46:26.066Z</time>
      </trkpt>
      <trkpt lat="48.1698584" lon="-1.6635755">
        <ele>32.171</ele>
        <time>2018-08-17T09:46:29.299Z</time>
      </trkpt>
      <trkpt lat="48.1699422" lon="-1.6634972">
        <ele>32.289</ele>
        <time>2018-08-17T09:46:32.401Z</time>
      </trkpt>
      <trkpt lat="48.1700424" lon="-1.6634114">
        <ele>32.699</ele>
        <time>2018-08-17T09:46:36.062Z</time>
      </trkpt>
      <trkpt lat="48.1701285" lon="-1.6633303">
        <ele>33.263</ele>
        <time>2018-08-17T09:46:39.107Z</time>
      </trkpt>
      <trkpt lat="48.1702122" lon="-1.6632396">
        <ele>33.606</ele>
        <time>2018-08-17T09:46:42.124Z</time>
      </trkpt>
      <trkpt lat="48.1702909" lon="-1.6631437">
        <ele>33.452</ele>
        <time>2018-08-17T09:46:45.046Z</time>
      </trkpt>
      <trkpt lat="48.1703700" lon="-1.6630531">
        <ele>32.902</ele>
        <time>2018-08-17T09:46:47.902Z</time>
      </trkpt>
      <trkpt lat="48.1704465" lon="-1.6629617">
        <ele>32.340</ele>
        <time>2018-08-17T09:46:50.695Z</time>
      </trkpt>
      <trkpt lat="48.1705315" lon="-1.6628824">
        <ele>32.098</ele>
        <time>2018-08-17T09:46:53.611Z</time>
      </trkpt>
      <trkpt lat="48.1706132" lon="-1.6628134">
        <ele>32.186</ele>
        <time>2018-08-17T09:46:56.438Z</time>
      </trkpt>
      <trkpt lat="48.1706897" lon="-1.6627379">
        <ele>32.320</ele>
        <time>2018-08-17T09:46:59.264Z</time>
      </trkpt>
      <trkpt lat="48.1707927" lon="-1.6626405">
        <ele>32.220</ele>
        <time>2018-08-17T09:47:03.093Z</time>
      </trkpt>
      <trkpt lat="48.1708931" lon="-1.6625511">
        <ele>31.857</ele>
        <time>2018-08-17T09:47:06.812Z</time>
      </trkpt>
      <trkpt lat="48.1709761" lon="-1.6624783">
        <ele>31.416</ele>
        <time>2018-08-17T09:47:09.789Z</time>
      </trkpt>
      <trkpt lat="48.1710628" lon="-1.6623877">
        <ele>31.114</ele>
        <time>2018-08-17T09:47:12.920Z</time>
      </trkpt>
      <trkpt lat="48.1711473" lon="-1.6622878">
        <ele>31.063</ele>
        <time>2018-08-17T09:47:16.033Z</time>
      </trkpt>
      <trkpt lat="48.1712354" lon="-1.6622138">
        <ele>31.198</ele>
        <time>2018-08-17T09:47:18.953Z</time>
      </trkpt>
      <trkpt lat="48.1713145" lon="-1.6621275">
        <ele>31.374</ele>
        <time>2018-08-17T09:47:21.793Z</time>
      </trkpt>
      <trkpt lat="48.1713892" lon="-1.6620189">
        <ele>31.497</ele>
        <time>2018-08-17T09:47:24.794Z</time>
      </trkpt>
      <trkpt lat="48.1714667" lon="-1.6619097">
        <ele>31.554</ele>
        <time>2018-08-17T09:47:27.817Z</time>
      </trkpt>
      <trkpt lat="48.1715425" lon="-1.6617914">
        <ele>31.537</ele>
        <time>2018-08-17T09:47:30.876Z</time>
      </trkpt>
      <trkpt lat="48.1715946" lon="-1.6616613">
        <ele>31.433</ele>
        <time>2018-08-17T09:47:33.701Z</time>
      </trkpt>
      <trkpt lat="48.1716388" lon="-1.6615250">
        <ele>31.266</ele>
        <time>2018-08-17T09:47:36.534Z</time>
      </trkpt>
      <trkpt lat="48.1716766" lon="-1.6613877">
        <ele>31.074</ele>
        <time>2018-08-17T09:47:39.312Z</time>
      </trkpt>
      <trkpt lat="48.1717019" lon="-1.6612329">
        <ele>30.870</ele>
        <time>2018-08-17T09:47:42.283Z</time>
      </trkpt>
      <trkpt lat="48.1717118" lon="-1.6610821">
        <ele>30.679</ele>
        <time>2018-08-17T09:47:45.109Z</time>
      </trkpt>
      <trkpt lat="48.1717135" lon="-1.6609183">
        <ele>30.602</ele>
        <time>2018-08-17T09:47:48.164Z</time>
      </trkpt>
      <trkpt lat="48.1717028" lon="-1.6607605">
        <ele>30.741</ele>
        <time>2018-08-17T09:47:51.091Z</time>
      </trkpt>
      <trkpt lat="48.1716864" lon="-1.6606033">
        <ele>31.063</ele>
        <time>2018-08-17T09:47:54.005Z</time>
      </trkpt>
      <trkpt lat="48.1716732" lon="-1.6604466">
        <ele>31.392</ele>
        <time>2018-08-17T09:47:56.878Z</time>
      </trkpt>
      <trkpt lat="48.1716630" lon="-1.6602858">
        <ele>31.658</ele>
        <time>2018-08-17T09:47:59.790Z</time>
      </trkpt>
      <trkpt lat="48.1716540" lon="-1.6601258">
        <ele>31.909</ele>
        <time>2018-08-17T09:48:02.681Z</time>
      </trkpt>
      <trkpt lat="48.1716433" lon="-1.6599623">
        <ele>32.177</ele>
        <time>2018-08-17T09:48:05.664Z</time>
      </trkpt>
      <trkpt lat="48.1716320" lon="-1.6598011">
        <ele>32.438</ele>
        <time>2018-08-17T09:48:08.617Z</time>
      </trkpt>
      <trkpt lat="48.1716190" lon="-1.6596418">
        <ele>32.597</ele>
        <time>2018-08-17T09:48:11.532Z</time>
      </trkpt>
      <trkpt lat="48.1716096" lon="-1.6594888">
        <ele>32.512</ele>
        <time>2018-08-17T09:48:14.345Z</time>
      </trkpt>
      <trkpt lat="48.1715993" lon="-1.6593433">
        <ele>32.257</ele>
        <time>2018-08-17T09:48:17.081Z</time>
      </trkpt>
      <trkpt lat="48.1715861" lon="-1.6591943">
        <ele>32.050</ele>
        <time>2018-08-17T09:48:19.905Z</time>
      </trkpt>
      <trkpt lat="48.1715700" lon="-1.6590421">
        <ele>32.009</ele>
        <time>2018-08-17T09:48:22.762Z</time>
      </trkpt>
      <trkpt lat="48.1715537" lon="-1.6588687">
        <ele>32.115</ele>
        <time>2018-08-17T09:48:25.930Z</time>
      </trkpt>
      <trkpt lat="48.1715483" lon="-1.6587004">
        <ele>32.257</ele>
        <time>2018-08-17T09:48:28.914Z</time>
      </trkpt>
      <trkpt lat="48.1715386" lon="-1.6585255">
        <ele>32.311</ele>
        <time>2018-08-17T09:48:32.002Z</time>
      </trkpt>
      <trkpt lat="48.1715267" lon="-1.6583601">
        <ele>32.217</ele>
        <time>2018-08-17T09:48:34.913Z</time>
      </trkpt>
      <trkpt lat="48.1715180" lon="-1.6582075">
        <ele>31.978</ele>
        <time>2018-08-17T09:48:37.666Z</time>
      </trkpt>
      <trkpt lat="48.1715047" lon="-1.6580564">
        <ele>31.679</ele>
        <time>2018-08-17T09:48:40.495Z</time>
      </trkpt>
      <trkpt lat="48.1714888" lon="-1.6579096">
        <ele>31.437</ele>
        <time>2018-08-17T09:48:43.297Z</time>
      </trkpt>
      <trkpt lat="48.1714713" lon="-1.6577562">
        <ele>31.242</ele>
        <time>2018-08-17T09:48:46.225Z</time>
      </trkpt>
      <trkpt lat="48.1714580" lon="-1.6576071">
        <ele>31.024</ele>
        <time>2018-08-17T09:48:49.035Z</time>
      </trkpt>
      <trkpt lat="48.1714399" lon="-1.6574577">
        <ele>30.836</ele>
        <time>2018-08-17T09:48:51.862Z</time>
      </trkpt>
      <trkpt lat="48.1714222" lon="-1.6573133">
        <ele>30.748</ele>
        <time>2018-08-17T09:48:54.602Z</time>
      </trkpt>
      <trkpt lat="48.1714051" lon="-1.6571741">
        <ele>30.748</ele>
        <time>2018-08-17T09:48:57.278Z</time>
      </trkpt>
      <trkpt lat="48.1713726" lon="-1.6570294">
        <ele>30.826</ele>
        <time>2018-08-17T09:49:00.225Z</time>
      </trkpt>
      <trkpt lat="48.1713178" lon="-1.6568746">
        <ele>31.047</ele>
        <time>2018-08-17T09:49:03.709Z</time>
      </trkpt>
      <trkpt lat="48.1712478" lon="-1.6567555">
        <ele>31.411</ele>
        <time>2018-08-17T09:49:06.928Z</time>
      </trkpt>
      <trkpt lat="48.1711686" lon="-1.6566591">
        <ele>31.720</ele>
        <time>2018-08-17T09:49:10.002Z</time>
      </trkpt>
      <trkpt lat="48.1710965" lon="-1.6565512">
        <ele>31.810</ele>
        <time>2018-08-17T09:49:12.972Z</time>
      </trkpt>
      <trkpt lat="48.1710312" lon="-1.6564372">
        <ele>31.766</ele>
        <time>2018-08-17T09:49:15.864Z</time>
      </trkpt>
      <trkpt lat="48.1709598" lon="-1.6563278">
        <ele>31.713</ele>
        <time>2018-08-17T09:49:18.833Z</time>
      </trkpt>
      <trkpt lat="48.1708899" lon="-1.6561998">
        <ele>31.722</ele>
        <time>2018-08-17T09:49:22.062Z</time>
      </trkpt>
      <trkpt lat="48.1708218" lon="-1.6560663">
        <ele>31.818</ele>
        <time>2018-08-17T09:49:25.322Z</time>
      </trkpt>
      <trkpt lat="48.1707554" lon="-1.6559254">
        <ele>32.016</ele>
        <time>2018-08-17T09:49:28.657Z</time>
      </trkpt>
      <trkpt lat="48.1707058" lon="-1.6557961">
        <ele>32.270</ele>
        <time>2018-08-17T09:49:31.594Z</time>
      </trkpt>
      <trkpt lat="48.1706658" lon="-1.6556517">
        <ele>32.446</ele>
        <time>2018-08-17T09:49:34.856Z</time>
      </trkpt>
      <trkpt lat="48.1706278" lon="-1.6554971">
        <ele>32.440</ele>
        <time>2018-08-17T09:49:38.442Z</time>
      </trkpt>
      <trkpt lat="48.1706008" lon="-1.6553369">
        <ele>32.299</ele>
        <time>2018-08-17T09:49:42.088Z</time>
      </trkpt>
      <trkpt lat="48.1705840" lon="-1.6551681">
        <ele>32.128</ele>
        <time>2018-08-17T09:49:45.845Z</time>
      </trkpt>
      <trkpt lat="48.1705683" lon="-1.6550345">
        <ele>31.962</ele>
        <time>2018-08-17T09:49:48.871Z</time>
      </trkpt>
      <trkpt lat="48.1705452" lon="-1.6548992">
        <ele>31.811</ele>
        <time>2018-08-17T09:49:51.952Z</time>
      </trkpt>
      <trkpt lat="48.1705269" lon="-1.6547563">
        <ele>31.754</ele>
        <time>2018-08-17T09:49:55.033Z</time>
      </trkpt>
      <trkpt lat="48.1705091" lon="-1.6546101">
        <ele>31.888</ele>
        <time>2018-08-17T09:49:58.063Z</time>
      </trkpt>
      <trkpt lat="48.1704902" lon="-1.6544351">
        <ele>32.168</ele>
        <time>2018-08-17T09:50:01.585Z</time>
      </trkpt>
      <trkpt lat="48.1704684" lon="-1.6543003">
        <ele>32.330</ele>
        <time>2018-08-17T09:50:04.356Z</time>
      </trkpt>
      <trkpt lat="48.1704384" lon="-1.6541647">
        <ele>32.203</ele>
        <time>2018-08-17T09:50:07.230Z</time>
      </trkpt>
      <trkpt lat="48.1704039" lon="-1.6540325">
        <ele>31.926</ele>
        <time>2018-08-17T09:50:10.088Z</time>
      </trkpt>
      <trkpt lat="48.1703611" lon="-1.6538808">
        <ele>31.632</ele>
        <time>2018-08-17T09:50:13.423Z</time>
      </trkpt>
      <trkpt lat="48.1703064" lon="-1.6537286">
        <ele>31.188</ele>
        <time>2018-08-17T09:50:17.055Z</time>
      </trkpt>
      <trkpt lat="48.1702434" lon="-1.6536114">
        <ele>30.533</ele>
        <time>2018-08-17T09:50:20.339Z</time>
      </trkpt>
      <trkpt lat="48.1701818" lon="-1.6534817">
        <ele>29.969</ele>
        <time>2018-08-17T09:50:23.821Z</time>
      </trkpt>
      <trkpt lat="48.1701210" lon="-1.6533472">
        <ele>29.766</ele>
        <time>2018-08-17T09:50:27.263Z</time>
      </trkpt>
      <trkpt lat="48.1700556" lon="-1.6532074">
        <ele>29.900</ele>
        <time>2018-08-17T09:50:30.768Z</time>
      </trkpt>
      <trkpt lat="48.1699915" lon="-1.6530779">
        <ele>30.260</ele>
        <time>2018-08-17T09:50:34.037Z</time>
      </trkpt>
      <trkpt lat="48.1699207" lon="-1.6529677">
        <ele>30.738</ele>
        <time>2018-08-17T09:50:37.143Z</time>
      </trkpt>
      <trkpt lat="48.1698507" lon="-1.6528706">
        <ele>31.225</ele>
        <time>2018-08-17T09:50:40.077Z</time>
      </trkpt>
      <trkpt lat="48.1697710" lon="-1.6527852">
        <ele>31.655</ele>
        <time>2018-08-17T09:50:43.137Z</time>
      </trkpt>
      <trkpt lat="48.1696964" lon="-1.6526886">
        <ele>32.137</ele>
        <time>2018-08-17T09:50:46.253Z</time>
      </trkpt>
      <trkpt lat="48.1695967" lon="-1.6525853">
        <ele>32.741</ele>
        <time>2018-08-17T09:50:50.319Z</time>
      </trkpt>
      <trkpt lat="48.1694923" lon="-1.6525018">
        <ele>33.205</ele>
        <time>2018-08-17T09:50:54.522Z</time>
      </trkpt>
      <trkpt lat="48.1694005" lon="-1.6524226">
        <ele>33.323</ele>
        <time>2018-08-17T09:50:58.423Z</time>
      </trkpt>
      <trkpt lat="48.1693084" lon="-1.6523883">
        <ele>33.246</ele>
        <time>2018-08-17T09:51:02.085Z</time>
      </trkpt>
      <trkpt lat="48.1692036" lon="-1.6523291">
        <ele>33.207</ele>
        <time>2018-08-17T09:51:06.638Z</time>
      </trkpt>
      <trkpt lat="48.1691086" lon="-1.6522944">
        <ele>33.296</ele>
        <time>2018-08-17T09:51:10.560Z</time>
      </trkpt>
      <trkpt lat="48.1690129" lon="-1.6522710">
        <ele>33.387</ele>
        <time>2018-08-17T09:51:14.434Z</time>
      </trkpt>
      <trkpt lat="48.1689129" lon="-1.6522117">
        <ele>33.359</ele>
        <time>2018-08-17T09:51:18.854Z</time>
      </trkpt>
      <trkpt lat="48.1688088" lon="-1.6521462">
        <ele>33.264</ele>
        <time>2018-08-17T09:51:23.482Z</time>
      </trkpt>
      <trkpt lat="48.1687101" lon="-1.6520834">
        <ele>33.229</ele>
        <time>2018-08-17T09:51:27.968Z</time>
      </trkpt>
      <trkpt lat="48.1686080" lon="-1.6520487">
        <ele>33.299</ele>
        <time>2018-08-17T09:51:32.403Z</time>
      </trkpt>
      <trkpt lat="48.1685032" lon="-1.6520211">
        <ele>33.355</ele>
        <time>2018-08-17T09:51:36.833Z</time>
      </trkpt>
      <trkpt lat="48.1684127" lon="-1.6519957">
        <ele>33.270</ele>
        <time>2018-08-17T09:51:41.000Z</time>
      </trkpt>
      <trkpt lat="48.1684127" lon="-1.6519957">
        <ele>33.124</ele>
        <time>2018-08-17T09:51:59.000Z</time>
      </trkpt>
      <trkpt lat="48.1684127" lon="-1.6519957">
        <ele>33.054</ele>
        <time>2018-08-17T09:52:11.347Z</time>
      </trkpt>
      <trkpt lat="48.1682091" lon="-1.6518687">
        <ele>33.078</ele>
        <time>2018-08-17T09:52:26.426Z</time>
      </trkpt>
      <trkpt lat="48.1681084" lon="-1.6518186">
        <ele>33.232</ele>
        <time>2018-08-17T09:52:30.377Z</time>
      </trkpt>
      <trkpt lat="48.1680033" lon="-1.6517466">
        <ele>33.521</ele>
        <time>2018-08-17T09:52:34.234Z</time>
      </trkpt>
      <trkpt lat="48.1679151" lon="-1.6517087">
        <ele>33.739</ele>
        <time>2018-08-17T09:52:37.193Z</time>
      </trkpt>
      <trkpt lat="48.1678032" lon="-1.6516544">
        <ele>33.723</ele>
        <time>2018-08-17T09:52:40.911Z</time>
      </trkpt>
      <trkpt lat="48.1677163" lon="-1.6516063">
        <ele>33.553</ele>
        <time>2018-08-17T09:52:43.821Z</time>
      </trkpt>
      <trkpt lat="48.1676346" lon="-1.6515276">
        <ele>33.382</ele>
        <time>2018-08-17T09:52:46.944Z</time>
      </trkpt>
      <trkpt lat="48.1675628" lon="-1.6514412">
        <ele>33.365</ele>
        <time>2018-08-17T09:52:50.026Z</time>
      </trkpt>
      <trkpt lat="48.1674741" lon="-1.6513510">
        <ele>33.545</ele>
        <time>2018-08-17T09:52:53.671Z</time>
      </trkpt>
      <trkpt lat="48.1674068" lon="-1.6512467">
        <ele>33.741</ele>
        <time>2018-08-17T09:52:56.875Z</time>
      </trkpt>
      <trkpt lat="48.1673589" lon="-1.6511079">
        <ele>33.794</ele>
        <time>2018-08-17T09:53:00.274Z</time>
      </trkpt>
      <trkpt lat="48.1673269" lon="-1.6509719">
        <ele>33.756</ele>
        <time>2018-08-17T09:53:03.435Z</time>
      </trkpt>
      <trkpt lat="48.1672838" lon="-1.6508411">
        <ele>33.714</ele>
        <time>2018-08-17T09:53:06.708Z</time>
      </trkpt>
      <trkpt lat="48.1672503" lon="-1.6506773">
        <ele>33.676</ele>
        <time>2018-08-17T09:53:10.585Z</time>
      </trkpt>
      <trkpt lat="48.1672452" lon="-1.6505261">
        <ele>33.601</ele>
        <time>2018-08-17T09:53:14.013Z</time>
      </trkpt>
      <trkpt lat="48.1672466" lon="-1.6503741">
        <ele>33.488</ele>
        <time>2018-08-17T09:53:17.435Z</time>
      </trkpt>
      <trkpt lat="48.1672634" lon="-1.6502176">
        <ele>33.329</ele>
        <time>2018-08-17T09:53:20.931Z</time>
      </trkpt>
      <trkpt lat="48.1672558" lon="-1.6500714">
        <ele>33.068</ele>
        <time>2018-08-17T09:53:24.216Z</time>
      </trkpt>
      <trkpt lat="48.1672349" lon="-1.6499288">
        <ele>32.728</ele>
        <time>2018-08-17T09:53:27.436Z</time>
      </trkpt>
      <trkpt lat="48.1672137" lon="-1.6497571">
        <ele>32.469</ele>
        <time>2018-08-17T09:53:31.042Z</time>
      </trkpt>
      <trkpt lat="48.1671944" lon="-1.6496175">
        <ele>32.410</ele>
        <time>2018-08-17T09:53:33.893Z</time>
      </trkpt>
      <trkpt lat="48.1671787" lon="-1.6494715">
        <ele>32.493</ele>
        <time>2018-08-17T09:53:36.911Z</time>
      </trkpt>
      <trkpt lat="48.1671628" lon="-1.6493304">
        <ele>32.582</ele>
        <time>2018-08-17T09:53:39.916Z</time>
      </trkpt>
      <trkpt lat="48.1671482" lon="-1.6491966">
        <ele>32.606</ele>
        <time>2018-08-17T09:53:42.768Z</time>
      </trkpt>
      <trkpt lat="48.1671258" lon="-1.6490623">
        <ele>32.572</ele>
        <time>2018-08-17T09:53:45.683Z</time>
      </trkpt>
      <trkpt lat="48.1671104" lon="-1.6489162">
        <ele>32.489</ele>
        <time>2018-08-17T09:53:48.839Z</time>
      </trkpt>
      <trkpt lat="48.1671004" lon="-1.6487756">
        <ele>32.365</ele>
        <time>2018-08-17T09:53:51.876Z</time>
      </trkpt>
      <trkpt lat="48.1671040" lon="-1.6486283">
        <ele>32.242</ele>
        <time>2018-08-17T09:53:55.055Z</time>
      </trkpt>
      <trkpt lat="48.1671343" lon="-1.6484671">
        <ele>32.086</ele>
        <time>2018-08-17T09:53:58.791Z</time>
      </trkpt>
      <trkpt lat="48.1671682" lon="-1.6483203">
        <ele>31.849</ele>
        <time>2018-08-17T09:54:02.406Z</time>
      </trkpt>
      <trkpt lat="48.1671570" lon="-1.6481824">
        <ele>31.608</ele>
        <time>2018-08-17T09:54:05.682Z</time>
      </trkpt>
      <trkpt lat="48.1671206" lon="-1.6480371">
        <ele>31.452</ele>
        <time>2018-08-17T09:54:09.213Z</time>
      </trkpt>
      <trkpt lat="48.1671221" lon="-1.6478784">
        <ele>31.410</ele>
        <time>2018-08-17T09:54:12.746Z</time>
      </trkpt>
      <trkpt lat="48.1671325" lon="-1.6477137">
        <ele>31.471</ele>
        <time>2018-08-17T09:54:16.342Z</time>
      </trkpt>
      <trkpt lat="48.1671548" lon="-1.6475390">
        <ele>31.516</ele>
        <time>2018-08-17T09:54:20.091Z</time>
      </trkpt>
      <trkpt lat="48.1671783" lon="-1.6474020">
        <ele>31.462</ele>
        <time>2018-08-17T09:54:23.071Z</time>
      </trkpt>
      <trkpt lat="48.1672265" lon="-1.6472428">
        <ele>31.357</ele>
        <time>2018-08-17T09:54:26.776Z</time>
      </trkpt>
      <trkpt lat="48.1672971" lon="-1.6471073">
        <ele>31.269</ele>
        <time>2018-08-17T09:54:30.390Z</time>
      </trkpt>
      <trkpt lat="48.1673612" lon="-1.6470124">
        <ele>31.201</ele>
        <time>2018-08-17T09:54:33.190Z</time>
      </trkpt>
      <trkpt lat="48.1674370" lon="-1.6469195">
        <ele>31.071</ele>
        <time>2018-08-17T09:54:36.209Z</time>
      </trkpt>
      <trkpt lat="48.1675106" lon="-1.6468358">
        <ele>30.842</ele>
        <time>2018-08-17T09:54:38.993Z</time>
      </trkpt>
      <trkpt lat="48.1675829" lon="-1.6467520">
        <ele>30.635</ele>
        <time>2018-08-17T09:54:41.691Z</time>
      </trkpt>
      <trkpt lat="48.1676628" lon="-1.6466598">
        <ele>30.599</ele>
        <time>2018-08-17T09:54:44.684Z</time>
      </trkpt>
      <trkpt lat="48.1677414" lon="-1.6465507">
        <ele>30.763</ele>
        <time>2018-08-17T09:54:47.929Z</time>
      </trkpt>
      <trkpt lat="48.1678155" lon="-1.6464607">
        <ele>31.019</ele>
        <time>2018-08-17T09:54:50.834Z</time>
      </trkpt>
      <trkpt lat="48.1678924" lon="-1.6463723">
        <ele>31.212</ele>
        <time>2018-08-17T09:54:53.802Z</time>
      </trkpt>
      <trkpt lat="48.1679645" lon="-1.6462862">
        <ele>31.292</ele>
        <time>2018-08-17T09:54:56.656Z</time>
      </trkpt>
      <trkpt lat="48.1680509" lon="-1.6461750">
        <ele>31.276</ele>
        <time>2018-08-17T09:55:00.280Z</time>
      </trkpt>
      <trkpt lat="48.1681225" lon="-1.6460917">
        <ele>31.237</ele>
        <time>2018-08-17T09:55:03.231Z</time>
      </trkpt>
      <trkpt lat="48.1682061" lon="-1.6459842">
        <ele>31.197</ele>
        <time>2018-08-17T09:55:06.833Z</time>
      </trkpt>
      <trkpt lat="48.1682842" lon="-1.6458953">
        <ele>31.111</ele>
        <time>2018-08-17T09:55:10.018Z</time>
      </trkpt>
      <trkpt lat="48.1683550" lon="-1.6458098">
        <ele>31.016</ele>
        <time>2018-08-17T09:55:12.926Z</time>
      </trkpt>
      <trkpt lat="48.1684267" lon="-1.6457206">
        <ele>31.001</ele>
        <time>2018-08-17T09:55:15.818Z</time>
      </trkpt>
      <trkpt lat="48.1685003" lon="-1.6456319">
        <ele>31.068</ele>
        <time>2018-08-17T09:55:18.730Z</time>
      </trkpt>
      <trkpt lat="48.1685769" lon="-1.6455383">
        <ele>31.181</ele>
        <time>2018-08-17T09:55:21.879Z</time>
      </trkpt>
      <trkpt lat="48.1686465" lon="-1.6454525">
        <ele>31.286</ele>
        <time>2018-08-17T09:55:24.834Z</time>
      </trkpt>
      <trkpt lat="48.1687412" lon="-1.6453480">
        <ele>31.396</ele>
        <time>2018-08-17T09:55:28.817Z</time>
      </trkpt>
      <trkpt lat="48.1688204" lon="-1.6452486">
        <ele>31.650</ele>
        <time>2018-08-17T09:55:32.392Z</time>
      </trkpt>
      <trkpt lat="48.1688982" lon="-1.6451569">
        <ele>32.063</ele>
        <time>2018-08-17T09:55:35.723Z</time>
      </trkpt>
      <trkpt lat="48.1689960" lon="-1.6450598">
        <ele>32.375</ele>
        <time>2018-08-17T09:55:39.526Z</time>
      </trkpt>
      <trkpt lat="48.1690778" lon="-1.6449751">
        <ele>32.425</ele>
        <time>2018-08-17T09:55:42.543Z</time>
      </trkpt>
      <trkpt lat="48.1691702" lon="-1.6448648">
        <ele>32.389</ele>
        <time>2018-08-17T09:55:46.175Z</time>
      </trkpt>
      <trkpt lat="48.1692540" lon="-1.6447446">
        <ele>32.499</ele>
        <time>2018-08-17T09:55:49.909Z</time>
      </trkpt>
      <trkpt lat="48.1693206" lon="-1.6446540">
        <ele>32.764</ele>
        <time>2018-08-17T09:55:52.836Z</time>
      </trkpt>
      <trkpt lat="48.1693870" lon="-1.6445589">
        <ele>33.022</ele>
        <time>2018-08-17T09:55:55.996Z</time>
      </trkpt>
      <trkpt lat="48.1694713" lon="-1.6444421">
        <ele>33.188</ele>
        <time>2018-08-17T09:56:00.039Z</time>
      </trkpt>
      <trkpt lat="48.1695638" lon="-1.6443464">
        <ele>33.296</ele>
        <time>2018-08-17T09:56:03.853Z</time>
      </trkpt>
      <trkpt lat="48.1696582" lon="-1.6442556">
        <ele>33.275</ele>
        <time>2018-08-17T09:56:07.502Z</time>
      </trkpt>
      <trkpt lat="48.1697487" lon="-1.6441552">
        <ele>33.073</ele>
        <time>2018-08-17T09:56:11.172Z</time>
      </trkpt>
      <trkpt lat="48.1698481" lon="-1.6440775">
        <ele>32.867</ele>
        <time>2018-08-17T09:56:14.895Z</time>
      </trkpt>
      <trkpt lat="48.1699361" lon="-1.6440234">
        <ele>32.850</ele>
        <time>2018-08-17T09:56:18.021Z</time>
      </trkpt>
      <trkpt lat="48.1700214" lon="-1.6439637">
        <ele>32.988</ele>
        <time>2018-08-17T09:56:21.022Z</time>
      </trkpt>
      <trkpt lat="48.1701152" lon="-1.6439003">
        <ele>33.202</ele>
        <time>2018-08-17T09:56:24.197Z</time>
      </trkpt>
      <trkpt lat="48.1702130" lon="-1.6438206">
        <ele>33.513</ele>
        <time>2018-08-17T09:56:27.548Z</time>
      </trkpt>
      <trkpt lat="48.1703065" lon="-1.6437315">
        <ele>33.909</ele>
        <time>2018-08-17T09:56:30.924Z</time>
      </trkpt>
      <trkpt lat="48.1703873" lon="-1.6436594">
        <ele>34.255</ele>
        <time>2018-08-17T09:56:33.927Z</time>
      </trkpt>
      <trkpt lat="48.1704955" lon="-1.6436030">
        <ele>34.443</ele>
        <time>2018-08-17T09:56:37.673Z</time>
      </trkpt>
      <trkpt lat="48.1706160" lon="-1.6435779">
        <ele>34.377</ele>
        <time>2018-08-17T09:56:41.695Z</time>
      </trkpt>
      <trkpt lat="48.1707077" lon="-1.6435621">
        <ele>34.074</ele>
        <time>2018-08-17T09:56:44.720Z</time>
      </trkpt>
      <trkpt lat="48.1708002" lon="-1.6435379">
        <ele>33.822</ele>
        <time>2018-08-17T09:56:47.978Z</time>
      </trkpt>
      <trkpt lat="48.1709005" lon="-1.6435045">
        <ele>33.840</ele>
        <time>2018-08-17T09:56:51.639Z</time>
      </trkpt>
      <trkpt lat="48.1710108" lon="-1.6434518">
        <ele>33.910</ele>
        <time>2018-08-17T09:56:55.544Z</time>
      </trkpt>
      <trkpt lat="48.1711122" lon="-1.6434301">
        <ele>33.802</ele>
        <time>2018-08-17T09:56:58.743Z</time>
      </trkpt>
      <trkpt lat="48.1712091" lon="-1.6434068">
        <ele>33.609</ele>
        <time>2018-08-17T09:57:01.777Z</time>
      </trkpt>
      <trkpt lat="48.1713030" lon="-1.6433811">
        <ele>33.452</ele>
        <time>2018-08-17T09:57:04.683Z</time>
      </trkpt>
      <trkpt lat="48.1713905" lon="-1.6433436">
        <ele>33.349</ele>
        <time>2018-08-17T09:57:07.377Z</time>
      </trkpt>
      <trkpt lat="48.1714881" lon="-1.6433079">
        <ele>33.301</ele>
        <time>2018-08-17T09:57:10.307Z</time>
      </trkpt>
      <trkpt lat="48.1715874" lon="-1.6432820">
        <ele>33.289</ele>
        <time>2018-08-17T09:57:13.272Z</time>
      </trkpt>
      <trkpt lat="48.1716850" lon="-1.6432599">
        <ele>33.295</ele>
        <time>2018-08-17T09:57:16.297Z</time>
      </trkpt>
      <trkpt lat="48.1717969" lon="-1.6432085">
        <ele>33.330</ele>
        <time>2018-08-17T09:57:20.183Z</time>
      </trkpt>
      <trkpt lat="48.1718919" lon="-1.6431672">
        <ele>33.404</ele>
        <time>2018-08-17T09:57:23.970Z</time>
      </trkpt>
      <trkpt lat="48.1719891" lon="-1.6431435">
        <ele>33.614</ele>
        <time>2018-08-17T09:57:28.246Z</time>
      </trkpt>
      <trkpt lat="48.1720808" lon="-1.6431071">
        <ele>34.040</ele>
        <time>2018-08-17T09:57:32.924Z</time>
      </trkpt>
      <trkpt lat="48.1721764" lon="-1.6430604">
        <ele>34.521</ele>
        <time>2018-08-17T09:57:38.693Z</time>
      </trkpt>
      <trkpt lat="48.1722810" lon="-1.6430249">
        <ele>34.717</ele>
        <time>2018-08-17T09:57:45.039Z</time>
      </trkpt>
      <trkpt lat="48.1723771" lon="-1.6429912">
        <ele>34.534</ele>
        <time>2018-08-17T09:57:49.710Z</time>
      </trkpt>
      <trkpt lat="48.1724668" lon="-1.6429637">
        <ele>34.103</ele>
        <time>2018-08-17T09:57:53.633Z</time>
      </trkpt>
      <trkpt lat="48.1725682" lon="-1.6429236">
        <ele>33.584</ele>
        <time>2018-08-17T09:57:58.000Z</time>
      </trkpt>
      <trkpt lat="48.1725682" lon="-1.6429236">
        <ele>33.168</ele>
        <time>2018-08-17T09:58:02.000Z</time>
      </trkpt>
      <trkpt lat="48.1725682" lon="-1.6429236">
        <ele>33.000</ele>
        <time>2018-08-17T09:58:02.100Z</time>
      </trkpt>
      <trkpt lat="48.1728395" lon="-1.6428436">
        <ele>33.011</ele>
        <time>2018-08-17T09:58:18.683Z</time>
      </trkpt>
      <trkpt lat="48.1729353" lon="-1.6428156">
        <ele>32.844</ele>
        <time>2018-08-17T09:58:22.537Z</time>
      </trkpt>
      <trkpt lat="48.1730533" lon="-1.6427819">
        <ele>32.283</ele>
        <time>2018-08-17T09:58:27.407Z</time>
      </trkpt>
      <trkpt lat="48.1731455" lon="-1.6427528">
        <ele>31.758</ele>
        <time>2018-08-17T09:58:31.024Z</time>
      </trkpt>
      <trkpt lat="48.1732496" lon="-1.6427218">
        <ele>31.726</ele>
        <time>2018-08-17T09:58:34.798Z</time>
      </trkpt>
      <trkpt lat="48.1733384" lon="-1.6426943">
        <ele>32.168</ele>
        <time>2018-08-17T09:58:37.882Z</time>
      </trkpt>
      <trkpt lat="48.1734387" lon="-1.6426643">
        <ele>32.847</ele>
        <time>2018-08-17T09:58:41.311Z</time>
      </trkpt>
      <trkpt lat="48.1735458" lon="-1.6426336">
        <ele>33.450</ele>
        <time>2018-08-17T09:58:44.967Z</time>
      </trkpt>
      <trkpt lat="48.1736509" lon="-1.6425774">
        <ele>33.783</ele>
        <time>2018-08-17T09:58:48.742Z</time>
      </trkpt>
      <trkpt lat="48.1737442" lon="-1.6425094">
        <ele>33.783</ele>
        <time>2018-08-17T09:58:52.221Z</time>
      </trkpt>
      <trkpt lat="48.1738358" lon="-1.6425357">
        <ele>33.499</ele>
        <time>2018-08-17T09:58:55.344Z</time>
      </trkpt>
      <trkpt lat="48.1739364" lon="-1.6424975">
        <ele>33.171</ele>
        <time>2018-08-17T09:58:58.801Z</time>
      </trkpt>
      <trkpt lat="48.1740484" lon="-1.6424842">
        <ele>32.981</ele>
        <time>2018-08-17T09:59:02.596Z</time>
      </trkpt>
      <trkpt lat="48.1741557" lon="-1.6424327">
        <ele>32.916</ele>
        <time>2018-08-17T09:59:06.523Z</time>
      </trkpt>
      <trkpt lat="48.1742548" lon="-1.6424069">
        <ele>32.939</ele>
        <time>2018-08-17T09:59:10.183Z</time>
      </trkpt>
      <trkpt lat="48.1743473" lon="-1.6423865">
        <ele>33.110</ele>
        <time>2018-08-17T09:59:13.604Z</time>
      </trkpt>
      <trkpt lat="48.1744360" lon="-1.6423292">
        <ele>33.508</ele>
        <time>2018-08-17T09:59:17.026Z</time>
      </trkpt>
      <trkpt lat="48.1745318" lon="-1.6422768">
        <ele>34.002</ele>
        <time>2018-08-17T09:59:20.486Z</time>
      </trkpt>
      <trkpt lat="48.1746491" lon="-1.6422772">
        <ele>34.342</ele>
        <time>2018-08-17T09:59:24.340Z</time>
      </trkpt>
      <trkpt lat="48.1747485" lon="-1.6422297">
        <ele>34.457</ele>
        <time>2018-08-17T09:59:27.747Z</time>
      </trkpt>
      <trkpt lat="48.1748441" lon="-1.6421917">
        <ele>34.426</ele>
        <time>2018-08-17T09:59:31.000Z</time>
      </trkpt>
      <trkpt lat="48.1748441" lon="-1.6421917">
        <ele>34.353</ele>
        <time>2018-08-17T09:59:32.000Z</time>
      </trkpt>
      <trkpt lat="48.1748441" lon="-1.6421917">
        <ele>34.315</ele>
        <time>2018-08-17T09:59:32.100Z</time>
      </trkpt>
      <trkpt lat="48.1750158" lon="-1.6421100">
        <ele>34.313</ele>
        <time>2018-08-17T09:59:41.733Z</time>
      </trkpt>
      <trkpt lat="48.1751265" lon="-1.6420782">
        <ele>34.281</ele>
        <time>2018-08-17T09:59:45.220Z</time>
      </trkpt>
      <trkpt lat="48.1752198" lon="-1.6420399">
        <ele>34.175</ele>
        <time>2018-08-17T09:59:48.192Z</time>
      </trkpt>
      <trkpt lat="48.1753075" lon="-1.6420079">
        <ele>33.966</ele>
        <time>2018-08-17T09:59:50.922Z</time>
      </trkpt>
      <trkpt lat="48.1754168" lon="-1.6419573">
        <ele>33.621</ele>
        <time>2018-08-17T09:59:54.325Z</time>
      </trkpt>
      <trkpt lat="48.1755181" lon="-1.6419117">
        <ele>33.222</ele>
        <time>2018-08-17T09:59:57.479Z</time>
      </trkpt>
      <trkpt lat="48.1756108" lon="-1.6418829">
        <ele>32.977</ele>
        <time>2018-08-17T10:00:00.345Z</time>
      </trkpt>
      <trkpt lat="48.1757229" lon="-1.6418340">
        <ele>32.969</ele>
        <time>2018-08-17T10:00:04.000Z</time>
      </trkpt>
      <trkpt lat="48.1757229" lon="-1.6418340">
        <ele>33.080</ele>
        <time>2018-08-17T10:00:04.000Z</time>
      </trkpt>
      <trkpt lat="48.1757229" lon="-1.6418340">
        <ele>33.153</ele>
        <time>2018-08-17T10:00:04.100Z</time>
      </trkpt>
      <trkpt lat="48.1758788" lon="-1.6417889">
        <ele>33.137</ele>
        <time>2018-08-17T10:00:12.074Z</time>
      </trkpt>
      <trkpt lat="48.1759764" lon="-1.6417456">
        <ele>33.092</ele>
        <time>2018-08-17T10:00:16.091Z</time>
      </trkpt>
      <trkpt lat="48.1760607" lon="-1.6416750">
        <ele>33.085</ele>
        <time>2018-08-17T10:00:20.159Z</time>
      </trkpt>
      <trkpt lat="48.1761545" lon="-1.6416351">
        <ele>33.053</ele>
        <time>2018-08-17T10:00:24.684Z</time>
      </trkpt>
      <trkpt lat="48.1762495" lon="-1.6416014">
        <ele>32.938</ele>
        <time>2018-08-17T10:00:29.655Z</time>
      </trkpt>
      <trkpt lat="48.1763591" lon="-1.6415619">
        <ele>32.920</ele>
        <time>2018-08-17T10:00:34.988Z</time>
      </trkpt>
      <trkpt lat="48.1764558" lon="-1.6415447">
        <ele>33.185</ele>
        <time>2018-08-17T10:00:38.652Z</time>
      </trkpt>
      <trkpt lat="48.1765737" lon="-1.6415041">
        <ele>33.583</ele>
        <time>2018-08-17T10:00:42.208Z</time>
      </trkpt>
      <trkpt lat="48.1766844" lon="-1.6414605">
        <ele>33.805</ele>
        <time>2018-08-17T10:00:44.867Z</time>
      </trkpt>
      <trkpt lat="48.1768304" lon="-1.6414338">
        <ele>33.770</ele>
        <time>2018-08-17T10:00:47.893Z</time>
      </trkpt>
      <trkpt lat="48.1769357" lon="-1.6414138">
        <ele>33.671</ele>
        <time>2018-08-17T10:00:49.962Z</time>
      </trkpt>
      <trkpt lat="48.1770391" lon="-1.6413748">
        <ele>33.679</ele>
        <time>2018-08-17T10:00:52.143Z</time>
      </trkpt>
      <trkpt lat="48.1771694" lon="-1.6413330">
        <ele>33.784</ele>
        <time>2018-08-17T10:00:55.000Z</time>
      </trkpt>
      <trkpt lat="48.1771694" lon="-1.6413330">
        <ele>33.889</ele>
        <time>2018-08-17T10:00:55.000Z</time>
      </trkpt>
      <trkpt lat="48.1771694" lon="-1.6413330">
        <ele>33.916</ele>
        <time>2018-08-17T10:00:55.100Z</time>
      </trkpt>
      <trkpt lat="48.1772945" lon="-1.6412476">
        <ele>33.884</ele>
        <time>2018-08-17T10:01:02.434Z</time>
      </trkpt>
      <trkpt lat="48.1773939" lon="-1.6412092">
        <ele>33.857</ele>
        <time>2018-08-17T10:01:05.650Z</time>
      </trkpt>
      <trkpt lat="48.1775050" lon="-1.6411910">
        <ele>33.848</ele>
        <time>2018-08-17T10:01:09.000Z</time>
      </trkpt>
      <trkpt lat="48.1775050" lon="-1.6411910">
        <ele>33.845</ele>
        <time>2018-08-17T10:01:09.000Z</time>
      </trkpt>
      <trkpt lat="48.1775050" lon="-1.6411910">
        <ele>33.833</ele>
        <time>2018-08-17T10:01:09.100Z</time>
      </trkpt>
      <trkpt lat="48.1776530" lon="-1.6411646">
        <ele>33.817</ele>
        <time>2018-08-17T10:01:15.000Z</time>
      </trkpt>
      <trkpt lat="48.1776530" lon="-1.6411646">
        <ele>33.807</ele>
        <time>2018-08-17T10:01:21.000Z</time>
      </trkpt>
      <trkpt lat="48.1776530" lon="-1.6411646">
        <ele>33.801</ele>
        <time>2018-08-17T10:04:19.795Z</time>
      </trkpt>
      <trkpt lat="48.1778963" lon="-1.6410526">
        <ele>33.790</ele>
        <time>2018-08-17T10:04:37.959Z</time>
      </trkpt>
      <trkpt lat="48.1780076" lon="-1.6410163">
        <ele>33.851</ele>
        <time>2018-08-17T10:04:42.480Z</time>
      </trkpt>
      <trkpt lat="48.1781179" lon="-1.6410103">
        <ele>34.095</ele>
        <time>2018-08-17T10:04:46.566Z</time>
      </trkpt>
      <trkpt lat="48.1782296" lon="-1.6409751">
        <ele>34.389</ele>
        <time>2018-08-17T10:04:50.629Z</time>
      </trkpt>
      <trkpt lat="48.1783212" lon="-1.6409336">
        <ele>34.424</ele>
        <time>2018-08-17T10:04:54.057Z</time>
      </trkpt>
      <trkpt lat="48.1784248" lon="-1.6408959">
        <ele>34.191</ele>
        <time>2018-08-17T10:04:57.994Z</time>
      </trkpt>
      <trkpt lat="48.1785190" lon="-1.6408463">
        <ele>33.919</ele>
        <time>2018-08-17T10:05:01.612Z</time>
      </trkpt>
      <trkpt lat="48.1786266" lon="-1.6407987">
        <ele>33.721</ele>
        <time>2018-08-17T10:05:05.602Z</time>
      </trkpt>
      <trkpt lat="48.1787236" lon="-1.6407800">
        <ele>33.573</ele>
        <time>2018-08-17T10:05:09.115Z</time>
      </trkpt>
      <trkpt lat="48.1788179" lon="-1.6407363">
        <ele>33.449</ele>
        <time>2018-08-17T10:05:12.678Z</time>
      </trkpt>
      <trkpt lat="48.1789216" lon="-1.6407024">
        <ele>33.356</ele>
        <time>2018-08-17T10:05:16.450Z</time>
      </trkpt>
      <trkpt lat="48.1790338" lon="-1.6406837">
        <ele>33.359</ele>
        <time>2018-08-17T10:05:20.361Z</time>
      </trkpt>
      <trkpt lat="48.1791417" lon="-1.6406609">
        <ele>33.473</ele>
        <time>2018-08-17T10:05:24.064Z</time>
      </trkpt>
      <trkpt lat="48.1792467" lon="-1.6406239">
        <ele>33.571</ele>
        <time>2018-08-17T10:05:27.688Z</time>
      </trkpt>
      <trkpt lat="48.1793576" lon="-1.6405882">
        <ele>33.472</ele>
        <time>2018-08-17T10:05:31.481Z</time>
      </trkpt>
      <trkpt lat="48.1794572" lon="-1.6405479">
        <ele>33.159</ele>
        <time>2018-08-17T10:05:34.958Z</time>
      </trkpt>
      <trkpt lat="48.1795637" lon="-1.6405041">
        <ele>32.829</ele>
        <time>2018-08-17T10:05:38.722Z</time>
      </trkpt>
      <trkpt lat="48.1796709" lon="-1.6404520">
        <ele>32.640</ele>
        <time>2018-08-17T10:05:42.552Z</time>
      </trkpt>
      <trkpt lat="48.1797771" lon="-1.6404156">
        <ele>32.682</ele>
        <time>2018-08-17T10:05:46.250Z</time>
      </trkpt>
      <trkpt lat="48.1798863" lon="-1.6403713">
        <ele>32.749</ele>
        <time>2018-08-17T10:05:50.115Z</time>
      </trkpt>
      <trkpt lat="48.1799986" lon="-1.6403354">
        <ele>32.836</ele>
        <time>2018-08-17T10:05:54.000Z</time>
      </trkpt>
      <trkpt lat="48.1799986" lon="-1.6403354">
        <ele>32.935</ele>
        <time>2018-08-17T10:05:55.000Z</time>
      </trkpt>
      <trkpt lat="48.1799986" lon="-1.6403354">
        <ele>32.991</ele>
        <time>2018-08-17T10:05:55.100Z</time>
      </trkpt>
      <trkpt lat="48.1801656" lon="-1.6402903">
        <ele>32.973</ele>
        <time>2018-08-17T10:06:03.537Z</time>
      </trkpt>
      <trkpt lat="48.1802744" lon="-1.6402698">
        <ele>32.960</ele>
        <time>2018-08-17T10:06:07.324Z</time>
      </trkpt>
      <trkpt lat="48.1803824" lon="-1.6402385">
        <ele>33.028</ele>
        <time>2018-08-17T10:06:11.121Z</time>
      </trkpt>
      <trkpt lat="48.1804903" lon="-1.6401929">
        <ele>33.181</ele>
        <time>2018-08-17T10:06:15.031Z</time>
      </trkpt>
      <trkpt lat="48.1805923" lon="-1.6401675">
        <ele>33.414</ele>
        <time>2018-08-17T10:06:18.699Z</time>
      </trkpt>
      <trkpt lat="48.1807081" lon="-1.6401234">
        <ele>33.672</ele>
        <time>2018-08-17T10:06:22.915Z</time>
      </trkpt>
      <trkpt lat="48.1808173" lon="-1.6400873">
        <ele>33.839</ele>
        <time>2018-08-17T10:06:26.849Z</time>
      </trkpt>
      <trkpt lat="48.1809076" lon="-1.6400438">
        <ele>33.863</ele>
        <time>2018-08-17T10:06:30.340Z</time>
      </trkpt>
      <trkpt lat="48.1810066" lon="-1.6399976">
        <ele>33.795</ele>
        <time>2018-08-17T10:06:34.478Z</time>
      </trkpt>
      <trkpt lat="48.1811042" lon="-1.6399471">
        <ele>33.735</ele>
        <time>2018-08-17T10:06:39.089Z</time>
      </trkpt>
      <trkpt lat="48.1812102" lon="-1.6399083">
        <ele>33.732</ele>
        <time>2018-08-17T10:06:44.532Z</time>
      </trkpt>
      <trkpt lat="48.1812914" lon="-1.6398303">
        <ele>33.748</ele>
        <time>2018-08-17T10:06:49.262Z</time>
      </trkpt>
      <trkpt lat="48.1813869" lon="-1.6398292">
        <ele>33.736</ele>
        <time>2018-08-17T10:06:54.000Z</time>
      </trkpt>
      <trkpt lat="48.1813869" lon="-1.6398292">
        <ele>33.711</ele>
        <time>2018-08-17T10:06:56.000Z</time>
      </trkpt>
      <trkpt lat="48.1813869" lon="-1.6398292">
        <ele>33.696</ele>
        <time>2018-08-17T10:06:56.100Z</time>
      </trkpt>
      <trkpt lat="48.1815433" lon="-1.6398202">
        <ele>33.693</ele>
        <time>2018-08-17T10:07:09.000Z</time>
      </trkpt>
      <trkpt lat="48.1815433" lon="-1.6398202">
        <ele>33.691</ele>
        <time>2018-08-17T10:07:11.000Z</time>
      </trkpt>
      <trkpt lat="48.1815433" lon="-1.6398202">
        <ele>33.681</ele>
        <time>2018-08-17T10:07:44.126Z</time>
      </trkpt>
      <trkpt lat="48.1814243" lon="-1.6394764">
        <ele>33.666</ele>
        <time>2018-08-17T10:07:57.304Z</time>
      </trkpt>
      <trkpt lat="48.1813990" lon="-1.6393193">
        <ele>33.583</ele>
        <time>2018-08-17T10:08:00.106Z</time>
      </trkpt>
      <trkpt lat="48.1813624" lon="-1.6391642">
        <ele>33.382</ele>
        <time>2018-08-17T10:08:03.000Z</time>
      </trkpt>
      <trkpt lat="48.1813624" lon="-1.6391642">
        <ele>33.169</ele>
        <time>2018-08-17T10:08:05.000Z</time>
      </trkpt>
      <trkpt lat="48.1813624" lon="-1.6391642">
        <ele>33.066</ele>
        <time>2018-08-17T10:08:05.100Z</time>
      </trkpt>
      <trkpt lat="48.1813033" lon="-1.6390579">
        <ele>33.093</ele>
        <time>2018-08-17T10:08:06.000Z</time>
      </trkpt>
      <trkpt lat="48.1813033" lon="-1.6390579">
        <ele>33.176</ele>
        <time>2018-08-17T10:08:07.000Z</time>
      </trkpt>
      <trkpt lat="48.1813033" lon="-1.6390579">
        <ele>33.206</ele>
        <time>2018-08-17T10:08:07.100Z</time>
      </trkpt>
      <trkpt lat="48.1812170" lon="-1.6388530">
        <ele>33.177</ele>
        <time>2018-08-17T10:08:16.085Z</time>
      </trkpt>
      <trkpt lat="48.1812056" lon="-1.6386948">
        <ele>33.286</ele>
        <time>2018-08-17T10:08:22.856Z</time>
      </trkpt>
      <trkpt lat="48.1811950" lon="-1.6385486">
        <ele>33.632</ele>
        <time>2018-08-17T10:08:29.679Z</time>
      </trkpt>
      <trkpt lat="48.1811965" lon="-1.6384047">
        <ele>34.000</ele>
        <time>2018-08-17T10:08:38.899Z</time>
      </trkpt>
      <trkpt lat="48.1812425" lon="-1.6382628">
        <ele>34.301</ele>
        <time>2018-08-17T10:08:49.000Z</time>
      </trkpt>
      <trkpt lat="48.1812425" lon="-1.6382628">
        <ele>34.650</ele>
        <time>2018-08-17T10:08:52.000Z</time>
      </trkpt>
      <trkpt lat="48.1812425" lon="-1.6382628">
        <ele>34.892</ele>
        <time>2018-08-17T10:18:50.472Z</time>
      </trkpt>
      <trkpt lat="48.1813329" lon="-1.6382816">
        <ele>34.724</ele>
        <time>2018-08-17T10:19:29.000Z</time>
      </trkpt>
      <trkpt lat="48.1813329" lon="-1.6382816">
        <ele>34.632</ele>
        <time>2018-08-17T10:19:36.000Z</time>
      </trkpt>
      <trkpt lat="48.1813329" lon="-1.6382816">
        <ele>34.623</ele>
        <time>2018-08-17T10:19:36.280Z</time>
      </trkpt>
      <trkpt lat="48.1813990" lon="-1.6384268">
        <ele>34.653</ele>
        <time>2018-08-17T10:19:46.815Z</time>
      </trkpt>
      <trkpt lat="48.1814830" lon="-1.6385147">
        <ele>34.665</ele>
        <time>2018-08-17T10:19:52.139Z</time>
      </trkpt>
      <trkpt lat="48.1815741" lon="-1.6385821">
        <ele>34.707</ele>
        <time>2018-08-17T10:19:57.000Z</time>
      </trkpt>
      <trkpt lat="48.1815741" lon="-1.6385821">
        <ele>34.789</ele>
        <time>2018-08-17T10:19:59.000Z</time>
      </trkpt>
      <trkpt lat="48.1815741" lon="-1.6385821">
        <ele>34.813</ele>
        <time>2018-08-17T10:20:09.492Z</time>
      </trkpt>
      <trkpt lat="48.1815907" lon="-1.6388761">
        <ele>34.763</ele>
        <time>2018-08-17T10:20:23.870Z</time>
      </trkpt>
      <trkpt lat="48.1816383" lon="-1.6389942">
        <ele>34.645</ele>
        <time>2018-08-17T10:20:27.168Z</time>
      </trkpt>
      <trkpt lat="48.1817030" lon="-1.6391372">
        <ele>34.414</ele>
        <time>2018-08-17T10:20:30.956Z</time>
      </trkpt>
      <trkpt lat="48.1817670" lon="-1.6392423">
        <ele>34.108</ele>
        <time>2018-08-17T10:20:34.000Z</time>
      </trkpt>
      <trkpt lat="48.1817670" lon="-1.6392423">
        <ele>33.817</ele>
        <time>2018-08-17T10:20:44.000Z</time>
      </trkpt>
      <trkpt lat="48.1817670" lon="-1.6392423">
        <ele>33.654</ele>
        <time>2018-08-17T10:23:36.081Z</time>
      </trkpt>
      <trkpt lat="48.1818537" lon="-1.6390139">
        <ele>33.693</ele>
        <time>2018-08-17T10:23:56.225Z</time>
      </trkpt>
      <trkpt lat="48.1818095" lon="-1.6388924">
        <ele>33.824</ele>
        <time>2018-08-17T10:24:01.959Z</time>
      </trkpt>
      <trkpt lat="48.1817041" lon="-1.6388776">
        <ele>33.907</ele>
        <time>2018-08-17T10:24:07.805Z</time>
      </trkpt>
      <trkpt lat="48.1816084" lon="-1.6389474">
        <ele>33.946</ele>
        <time>2018-08-17T10:24:13.194Z</time>
      </trkpt>
      <trkpt lat="48.1815625" lon="-1.6390728">
        <ele>34.063</ele>
        <time>2018-08-17T10:24:18.500Z</time>
      </trkpt>
      <trkpt lat="48.1815743" lon="-1.6392209">
        <ele>34.290</ele>
        <time>2018-08-17T10:24:24.329Z</time>
      </trkpt>
      <trkpt lat="48.1816005" lon="-1.6393636">
        <ele>34.561</ele>
        <time>2018-08-17T10:24:29.785Z</time>
      </trkpt>
      <trkpt lat="48.1816097" lon="-1.6395200">
        <ele>34.791</ele>
        <time>2018-08-17T10:24:35.619Z</time>
      </trkpt>
      <trkpt lat="48.1816260" lon="-1.6396712">
        <ele>34.923</ele>
        <time>2018-08-17T10:24:44.507Z</time>
      </trkpt>
      <trkpt lat="48.1817089" lon="-1.6397369">
        <ele>34.925</ele>
        <time>2018-08-17T10:24:52.877Z</time>
      </trkpt>
      <trkpt lat="48.1818031" lon="-1.6397336">
        <ele>34.723</ele>
        <time>2018-08-17T10:25:04.000Z</time>
      </trkpt>
      <trkpt lat="48.1818031" lon="-1.6397336">
        <ele>34.299</ele>
        <time>2018-08-17T10:25:09.000Z</time>
      </trkpt>
      <trkpt lat="48.1818031" lon="-1.6397336">
        <ele>33.963</ele>
        <time>2018-08-17T10:25:09.688Z</time>
      </trkpt>
      <trkpt lat="48.1819493" lon="-1.6396639">
        <ele>33.958</ele>
        <time>2018-08-17T10:25:19.740Z</time>
      </trkpt>
      <trkpt lat="48.1820644" lon="-1.6396277">
        <ele>34.117</ele>
        <time>2018-08-17T10:25:24.315Z</time>
      </trkpt>
      <trkpt lat="48.1821548" lon="-1.6395887">
        <ele>34.256</ele>
        <time>2018-08-17T10:25:28.212Z</time>
      </trkpt>
      <trkpt lat="48.1822614" lon="-1.6395518">
        <ele>34.354</ele>
        <time>2018-08-17T10:25:33.193Z</time>
      </trkpt>
      <trkpt lat="48.1823635" lon="-1.6395309">
        <ele>34.411</ele>
        <time>2018-08-17T10:25:38.749Z</time>
      </trkpt>
      <trkpt lat="48.1824550" lon="-1.6394889">
        <ele>34.421</ele>
        <time>2018-08-17T10:25:44.350Z</time>
      </trkpt>
      <trkpt lat="48.1825574" lon="-1.6394698">
        <ele>34.407</ele>
        <time>2018-08-17T10:25:49.843Z</time>
      </trkpt>
      <trkpt lat="48.1826515" lon="-1.6394584">
        <ele>34.477</ele>
        <time>2018-08-17T10:25:54.699Z</time>
      </trkpt>
      <trkpt lat="48.1827530" lon="-1.6394289">
        <ele>34.689</ele>
        <time>2018-08-17T10:25:59.616Z</time>
      </trkpt>
      <trkpt lat="48.1828564" lon="-1.6393848">
        <ele>34.901</ele>
        <time>2018-08-17T10:26:04.353Z</time>
      </trkpt>
      <trkpt lat="48.1829499" lon="-1.6393474">
        <ele>34.982</ele>
        <time>2018-08-17T10:26:08.528Z</time>
      </trkpt>
      <trkpt lat="48.1830488" lon="-1.6392751">
        <ele>35.002</ele>
        <time>2018-08-17T10:26:13.167Z</time>
      </trkpt>
      <trkpt lat="48.1831499" lon="-1.6391950">
        <ele>35.062</ele>
        <time>2018-08-17T10:26:17.895Z</time>
      </trkpt>
      <trkpt lat="48.1832413" lon="-1.6391087">
        <ele>35.152</ele>
        <time>2018-08-17T10:26:22.326Z</time>
      </trkpt>
      <trkpt lat="48.1833240" lon="-1.6390305">
        <ele>35.215</ele>
        <time>2018-08-17T10:26:26.181Z</time>
      </trkpt>
      <trkpt lat="48.1834195" lon="-1.6389631">
        <ele>35.236</ele>
        <time>2018-08-17T10:26:30.138Z</time>
      </trkpt>
      <trkpt lat="48.1835090" lon="-1.6388906">
        <ele>35.252</ele>
        <time>2018-08-17T10:26:34.015Z</time>
      </trkpt>
      <trkpt lat="48.1835938" lon="-1.6388399">
        <ele>35.276</ele>
        <time>2018-08-17T10:26:37.790Z</time>
      </trkpt>
      <trkpt lat="48.1836693" lon="-1.6387444">
        <ele>35.340</ele>
        <time>2018-08-17T10:26:42.048Z</time>
      </trkpt>
      <trkpt lat="48.1837596" lon="-1.6386694">
        <ele>35.462</ele>
        <time>2018-08-17T10:26:46.314Z</time>
      </trkpt>
      <trkpt lat="48.1838449" lon="-1.6385804">
        <ele>35.587</ele>
        <time>2018-08-17T10:26:50.334Z</time>
      </trkpt>
      <trkpt lat="48.1839407" lon="-1.6385203">
        <ele>35.668</ele>
        <time>2018-08-17T10:26:54.328Z</time>
      </trkpt>
      <trkpt lat="48.1840230" lon="-1.6384533">
        <ele>35.784</ele>
        <time>2018-08-17T10:26:58.021Z</time>
      </trkpt>
      <trkpt lat="48.1840898" lon="-1.6383523">
        <ele>36.016</ele>
        <time>2018-08-17T10:27:01.878Z</time>
      </trkpt>
      <trkpt lat="48.1841675" lon="-1.6382755">
        <ele>36.128</ele>
        <time>2018-08-17T10:27:05.877Z</time>
      </trkpt>
      <trkpt lat="48.1842454" lon="-1.6381918">
        <ele>35.842</ele>
        <time>2018-08-17T10:27:10.207Z</time>
      </trkpt>
      <trkpt lat="48.1843404" lon="-1.6380996">
        <ele>35.320</ele>
        <time>2018-08-17T10:27:15.000Z</time>
      </trkpt>
      <trkpt lat="48.1843404" lon="-1.6380996">
        <ele>34.921</ele>
        <time>2018-08-17T10:27:18.000Z</time>
      </trkpt>
      <trkpt lat="48.1843404" lon="-1.6380996">
        <ele>34.773</ele>
        <time>2018-08-17T10:27:18.100Z</time>
      </trkpt>
      <trkpt lat="48.1845414" lon="-1.6379060">
        <ele>34.784</ele>
        <time>2018-08-17T10:27:30.800Z</time>
      </trkpt>
      <trkpt lat="48.1846297" lon="-1.6378464">
        <ele>34.775</ele>
        <time>2018-08-17T10:27:34.562Z</time>
      </trkpt>
      <trkpt lat="48.1847106" lon="-1.6377647">
        <ele>34.618</ele>
        <time>2018-08-17T10:27:38.074Z</time>
      </trkpt>
      <trkpt lat="48.1848069" lon="-1.6376834">
        <ele>34.411</ele>
        <time>2018-08-17T10:27:42.015Z</time>
      </trkpt>
      <trkpt lat="48.1849027" lon="-1.6376173">
        <ele>34.365</ele>
        <time>2018-08-17T10:27:45.793Z</time>
      </trkpt>
      <trkpt lat="48.1849813" lon="-1.6375039">
        <ele>34.498</ele>
        <time>2018-08-17T10:27:49.484Z</time>
      </trkpt>
      <trkpt lat="48.1850926" lon="-1.6374272">
        <ele>34.733</ele>
        <time>2018-08-17T10:27:53.207Z</time>
      </trkpt>
      <trkpt lat="48.1852093" lon="-1.6374049">
        <ele>35.017</ele>
        <time>2018-08-17T10:27:56.751Z</time>
      </trkpt>
      <trkpt lat="48.1853134" lon="-1.6374094">
        <ele>35.248</ele>
        <time>2018-08-17T10:27:59.948Z</time>
      </trkpt>
      <trkpt lat="48.1854137" lon="-1.6374381">
        <ele>35.335</ele>
        <time>2018-08-17T10:28:03.165Z</time>
      </trkpt>
      <trkpt lat="48.1854990" lon="-1.6374854">
        <ele>35.246</ele>
        <time>2018-08-17T10:28:06.089Z</time>
      </trkpt>
      <trkpt lat="48.1855863" lon="-1.6375334">
        <ele>35.025</ele>
        <time>2018-08-17T10:28:09.031Z</time>
      </trkpt>
      <trkpt lat="48.1856766" lon="-1.6375497">
        <ele>34.822</ele>
        <time>2018-08-17T10:28:11.814Z</time>
      </trkpt>
      <trkpt lat="48.1857744" lon="-1.6375480">
        <ele>34.732</ele>
        <time>2018-08-17T10:28:14.789Z</time>
      </trkpt>
      <trkpt lat="48.1858756" lon="-1.6375260">
        <ele>34.719</ele>
        <time>2018-08-17T10:28:17.938Z</time>
      </trkpt>
      <trkpt lat="48.1859580" lon="-1.6374392">
        <ele>34.763</ele>
        <time>2018-08-17T10:28:21.069Z</time>
      </trkpt>
      <trkpt lat="48.1860212" lon="-1.6373303">
        <ele>34.852</ele>
        <time>2018-08-17T10:28:24.062Z</time>
      </trkpt>
      <trkpt lat="48.1860669" lon="-1.6371978">
        <ele>34.925</ele>
        <time>2018-08-17T10:28:27.100Z</time>
      </trkpt>
      <trkpt lat="48.1861135" lon="-1.6370755">
        <ele>34.905</ele>
        <time>2018-08-17T10:28:29.895Z</time>
      </trkpt>
      <trkpt lat="48.1861613" lon="-1.6369491">
        <ele>34.806</ele>
        <time>2018-08-17T10:28:32.684Z</time>
      </trkpt>
      <trkpt lat="48.1862098" lon="-1.6368080">
        <ele>34.708</ele>
        <time>2018-08-17T10:28:35.760Z</time>
      </trkpt>
      <trkpt lat="48.1862740" lon="-1.6366766">
        <ele>34.660</ele>
        <time>2018-08-17T10:28:39.035Z</time>
      </trkpt>
      <trkpt lat="48.1863419" lon="-1.6365614">
        <ele>34.642</ele>
        <time>2018-08-17T10:28:42.204Z</time>
      </trkpt>
      <trkpt lat="48.1864260" lon="-1.6364869">
        <ele>34.611</ele>
        <time>2018-08-17T10:28:45.138Z</time>
      </trkpt>
      <trkpt lat="48.1865167" lon="-1.6364216">
        <ele>34.522</ele>
        <time>2018-08-17T10:28:48.120Z</time>
      </trkpt>
      <trkpt lat="48.1866175" lon="-1.6363921">
        <ele>34.388</ele>
        <time>2018-08-17T10:28:51.178Z</time>
      </trkpt>
      <trkpt lat="48.1867124" lon="-1.6363801">
        <ele>34.331</ele>
        <time>2018-08-17T10:28:54.058Z</time>
      </trkpt>
      <trkpt lat="48.1868126" lon="-1.6363933">
        <ele>34.431</ele>
        <time>2018-08-17T10:28:57.145Z</time>
      </trkpt>
      <trkpt lat="48.1869308" lon="-1.6364324">
        <ele>34.597</ele>
        <time>2018-08-17T10:29:00.797Z</time>
      </trkpt>
      <trkpt lat="48.1870247" lon="-1.6364649">
        <ele>34.715</ele>
        <time>2018-08-17T10:29:03.690Z</time>
      </trkpt>
      <trkpt lat="48.1871026" lon="-1.6365334">
        <ele>34.755</ele>
        <time>2018-08-17T10:29:06.462Z</time>
      </trkpt>
      <trkpt lat="48.1872051" lon="-1.6366148">
        <ele>34.735</ele>
        <time>2018-08-17T10:29:10.283Z</time>
      </trkpt>
      <trkpt lat="48.1872989" lon="-1.6366507">
        <ele>34.658</ele>
        <time>2018-08-17T10:29:13.719Z</time>
      </trkpt>
      <trkpt lat="48.1874027" lon="-1.6366620">
        <ele>34.450</ele>
        <time>2018-08-17T10:29:17.340Z</time>
      </trkpt>
      <trkpt lat="48.1875208" lon="-1.6366606">
        <ele>34.010</ele>
        <time>2018-08-17T10:29:21.220Z</time>
      </trkpt>
      <trkpt lat="48.1876136" lon="-1.6366466">
        <ele>33.428</ele>
        <time>2018-08-17T10:29:24.129Z</time>
      </trkpt>
      <trkpt lat="48.1877027" lon="-1.6365939">
        <ele>32.974</ele>
        <time>2018-08-17T10:29:27.002Z</time>
      </trkpt>
      <trkpt lat="48.1877914" lon="-1.6365073">
        <ele>32.814</ele>
        <time>2018-08-17T10:29:30.075Z</time>
      </trkpt>
      <trkpt lat="48.1878654" lon="-1.6364172">
        <ele>32.969</ele>
        <time>2018-08-17T10:29:32.779Z</time>
      </trkpt>
      <trkpt lat="48.1879424" lon="-1.6363115">
        <ele>33.364</ele>
        <time>2018-08-17T10:29:35.710Z</time>
      </trkpt>
      <trkpt lat="48.1880052" lon="-1.6362108">
        <ele>33.773</ele>
        <time>2018-08-17T10:29:38.331Z</time>
      </trkpt>
      <trkpt lat="48.1880603" lon="-1.6360966">
        <ele>34.056</ele>
        <time>2018-08-17T10:29:41.071Z</time>
      </trkpt>
      <trkpt lat="48.1881262" lon="-1.6359786">
        <ele>34.260</ele>
        <time>2018-08-17T10:29:44.078Z</time>
      </trkpt>
      <trkpt lat="48.1881739" lon="-1.6358515">
        <ele>34.447</ele>
        <time>2018-08-17T10:29:46.906Z</time>
      </trkpt>
      <trkpt lat="48.1882163" lon="-1.6357280">
        <ele>34.609</ele>
        <time>2018-08-17T10:29:49.598Z</time>
      </trkpt>
      <trkpt lat="48.1882589" lon="-1.6356003">
        <ele>34.843</ele>
        <time>2018-08-17T10:29:52.365Z</time>
      </trkpt>
      <trkpt lat="48.1883078" lon="-1.6354679">
        <ele>35.416</ele>
        <time>2018-08-17T10:29:55.269Z</time>
      </trkpt>
      <trkpt lat="48.1883541" lon="-1.6353334">
        <ele>36.280</ele>
        <time>2018-08-17T10:29:58.082Z</time>
      </trkpt>
      <trkpt lat="48.1883998" lon="-1.6352098">
        <ele>36.939</ele>
        <time>2018-08-17T10:30:00.680Z</time>
      </trkpt>
      <trkpt lat="48.1884424" lon="-1.6350780">
        <ele>37.110</ele>
        <time>2018-08-17T10:30:03.421Z</time>
      </trkpt>
      <trkpt lat="48.1884891" lon="-1.6349493">
        <ele>36.957</ele>
        <time>2018-08-17T10:30:06.185Z</time>
      </trkpt>
      <trkpt lat="48.1885489" lon="-1.6348354">
        <ele>36.684</ele>
        <time>2018-08-17T10:30:08.919Z</time>
      </trkpt>
      <trkpt lat="48.1886208" lon="-1.6346917">
        <ele>36.408</ele>
        <time>2018-08-17T10:30:12.367Z</time>
      </trkpt>
      <trkpt lat="48.1886803" lon="-1.6345896">
        <ele>36.245</ele>
        <time>2018-08-17T10:30:15.036Z</time>
      </trkpt>
      <trkpt lat="48.1887661" lon="-1.6344662">
        <ele>36.237</ele>
        <time>2018-08-17T10:30:18.669Z</time>
      </trkpt>
      <trkpt lat="48.1888528" lon="-1.6343688">
        <ele>36.240</ele>
        <time>2018-08-17T10:30:22.039Z</time>
      </trkpt>
      <trkpt lat="48.1889353" lon="-1.6343036">
        <ele>36.098</ele>
        <time>2018-08-17T10:30:24.998Z</time>
      </trkpt>
      <trkpt lat="48.1890230" lon="-1.6342461">
        <ele>35.860</ele>
        <time>2018-08-17T10:30:28.067Z</time>
      </trkpt>
      <trkpt lat="48.1891298" lon="-1.6341738">
        <ele>35.682</ele>
        <time>2018-08-17T10:30:31.777Z</time>
      </trkpt>
      <trkpt lat="48.1892244" lon="-1.6340896">
        <ele>35.592</ele>
        <time>2018-08-17T10:30:35.259Z</time>
      </trkpt>
      <trkpt lat="48.1893222" lon="-1.6340156">
        <ele>35.521</ele>
        <time>2018-08-17T10:30:38.728Z</time>
      </trkpt>
      <trkpt lat="48.1894320" lon="-1.6339668">
        <ele>35.448</ele>
        <time>2018-08-17T10:30:42.318Z</time>
      </trkpt>
      <trkpt lat="48.1895182" lon="-1.6338978">
        <ele>35.402</ele>
        <time>2018-08-17T10:30:45.375Z</time>
      </trkpt>
      <trkpt lat="48.1896268" lon="-1.6338330">
        <ele>35.314</ele>
        <time>2018-08-17T10:30:48.969Z</time>
      </trkpt>
      <trkpt lat="48.1897276" lon="-1.6337578">
        <ele>35.099</ele>
        <time>2018-08-17T10:30:52.288Z</time>
      </trkpt>
      <trkpt lat="48.1898247" lon="-1.6336855">
        <ele>34.867</ele>
        <time>2018-08-17T10:30:55.460Z</time>
      </trkpt>
      <trkpt lat="48.1899007" lon="-1.6336104">
        <ele>34.738</ele>
        <time>2018-08-17T10:30:58.146Z</time>
      </trkpt>
      <trkpt lat="48.1899988" lon="-1.6335367">
        <ele>34.655</ele>
        <time>2018-08-17T10:31:01.502Z</time>
      </trkpt>
      <trkpt lat="48.1900852" lon="-1.6334655">
        <ele>34.578</ele>
        <time>2018-08-17T10:31:04.574Z</time>
      </trkpt>
      <trkpt lat="48.1901801" lon="-1.6334276">
        <ele>34.607</ele>
        <time>2018-08-17T10:31:07.639Z</time>
      </trkpt>
      <trkpt lat="48.1902697" lon="-1.6334458">
        <ele>34.791</ele>
        <time>2018-08-17T10:31:10.602Z</time>
      </trkpt>
      <trkpt lat="48.1903639" lon="-1.6334657">
        <ele>35.008</ele>
        <time>2018-08-17T10:31:14.099Z</time>
      </trkpt>
      <trkpt lat="48.1904701" lon="-1.6335022">
        <ele>35.127</ele>
        <time>2018-08-17T10:31:19.003Z</time>
      </trkpt>
      <trkpt lat="48.1905680" lon="-1.6335789">
        <ele>35.157</ele>
        <time>2018-08-17T10:31:24.234Z</time>
      </trkpt>
      <trkpt lat="48.1906662" lon="-1.6336803">
        <ele>35.151</ele>
        <time>2018-08-17T10:31:28.738Z</time>
      </trkpt>
      <trkpt lat="48.1907421" lon="-1.6337815">
        <ele>35.149</ele>
        <time>2018-08-17T10:31:32.198Z</time>
      </trkpt>
      <trkpt lat="48.1908227" lon="-1.6338752">
        <ele>35.191</ele>
        <time>2018-08-17T10:31:35.742Z</time>
      </trkpt>
      <trkpt lat="48.1908983" lon="-1.6339599">
        <ele>35.274</ele>
        <time>2018-08-17T10:31:39.057Z</time>
      </trkpt>
      <trkpt lat="48.1909850" lon="-1.6340153">
        <ele>35.295</ele>
        <time>2018-08-17T10:31:42.233Z</time>
      </trkpt>
      <trkpt lat="48.1910816" lon="-1.6340348">
        <ele>35.104</ele>
        <time>2018-08-17T10:31:45.486Z</time>
      </trkpt>
      <trkpt lat="48.1911742" lon="-1.6340470">
        <ele>34.746</ele>
        <time>2018-08-17T10:31:48.537Z</time>
      </trkpt>
      <trkpt lat="48.1912745" lon="-1.6340388">
        <ele>34.461</ele>
        <time>2018-08-17T10:31:51.790Z</time>
      </trkpt>
      <trkpt lat="48.1913863" lon="-1.6340136">
        <ele>34.372</ele>
        <time>2018-08-17T10:31:55.567Z</time>
      </trkpt>
      <trkpt lat="48.1914984" lon="-1.6339839">
        <ele>34.383</ele>
        <time>2018-08-17T10:31:59.361Z</time>
      </trkpt>
      <trkpt lat="48.1915934" lon="-1.6339307">
        <ele>34.387</ele>
        <time>2018-08-17T10:32:02.911Z</time>
      </trkpt>
      <trkpt lat="48.1917068" lon="-1.6338367">
        <ele>34.469</ele>
        <time>2018-08-17T10:32:08.005Z</time>
      </trkpt>
      <trkpt lat="48.1917958" lon="-1.6337732">
        <ele>34.720</ele>
        <time>2018-08-17T10:32:11.556Z</time>
      </trkpt>
      <trkpt lat="48.1918795" lon="-1.6337202">
        <ele>34.991</ele>
        <time>2018-08-17T10:32:14.925Z</time>
      </trkpt>
      <trkpt lat="48.1919591" lon="-1.6336339">
        <ele>35.064</ele>
        <time>2018-08-17T10:32:18.752Z</time>
      </trkpt>
      <trkpt lat="48.1920433" lon="-1.6335509">
        <ele>34.937</ele>
        <time>2018-08-17T10:32:22.421Z</time>
      </trkpt>
      <trkpt lat="48.1921265" lon="-1.6334541">
        <ele>34.796</ele>
        <time>2018-08-17T10:32:25.896Z</time>
      </trkpt>
      <trkpt lat="48.1922027" lon="-1.6333545">
        <ele>34.840</ele>
        <time>2018-08-17T10:32:29.122Z</time>
      </trkpt>
      <trkpt lat="48.1922850" lon="-1.6332371">
        <ele>35.060</ele>
        <time>2018-08-17T10:32:32.644Z</time>
      </trkpt>
      <trkpt lat="48.1923557" lon="-1.6331480">
        <ele>35.279</ele>
        <time>2018-08-17T10:32:35.515Z</time>
      </trkpt>
      <trkpt lat="48.1924409" lon="-1.6330562">
        <ele>35.318</ele>
        <time>2018-08-17T10:32:38.886Z</time>
      </trkpt>
      <trkpt lat="48.1925121" lon="-1.6329694">
        <ele>35.150</ele>
        <time>2018-08-17T10:32:41.950Z</time>
      </trkpt>
      <trkpt lat="48.1925944" lon="-1.6328579">
        <ele>34.869</ele>
        <time>2018-08-17T10:32:45.671Z</time>
      </trkpt>
      <trkpt lat="48.1926708" lon="-1.6327660">
        <ele>34.562</ele>
        <time>2018-08-17T10:32:48.916Z</time>
      </trkpt>
      <trkpt lat="48.1927491" lon="-1.6326647">
        <ele>34.287</ele>
        <time>2018-08-17T10:32:52.319Z</time>
      </trkpt>
      <trkpt lat="48.1928245" lon="-1.6325633">
        <ele>34.076</ele>
        <time>2018-08-17T10:32:55.631Z</time>
      </trkpt>
      <trkpt lat="48.1929070" lon="-1.6324854">
        <ele>33.892</ele>
        <time>2018-08-17T10:32:58.679Z</time>
      </trkpt>
      <trkpt lat="48.1929919" lon="-1.6323994">
        <ele>33.735</ele>
        <time>2018-08-17T10:33:01.735Z</time>
      </trkpt>
      <trkpt lat="48.1930833" lon="-1.6323010">
        <ele>33.589</ele>
        <time>2018-08-17T10:33:04.964Z</time>
      </trkpt>
      <trkpt lat="48.1931711" lon="-1.6322093">
        <ele>33.487</ele>
        <time>2018-08-17T10:33:07.815Z</time>
      </trkpt>
      <trkpt lat="48.1932503" lon="-1.6321225">
        <ele>33.510</ele>
        <time>2018-08-17T10:33:10.516Z</time>
      </trkpt>
      <trkpt lat="48.1933336" lon="-1.6320458">
        <ele>33.613</ele>
        <time>2018-08-17T10:33:13.969Z</time>
      </trkpt>
      <trkpt lat="48.1934033" lon="-1.6319581">
        <ele>33.699</ele>
        <time>2018-08-17T10:33:18.000Z</time>
      </trkpt>
      <trkpt lat="48.1934637" lon="-1.6318514">
        <ele>33.833</ele>
        <time>2018-08-17T10:33:22.425Z</time>
      </trkpt>
      <trkpt lat="48.1935347" lon="-1.6317467">
        <ele>34.102</ele>
        <time>2018-08-17T10:33:26.770Z</time>
      </trkpt>
      <trkpt lat="48.1936225" lon="-1.6316183">
        <ele>34.687</ele>
        <time>2018-08-17T10:33:31.486Z</time>
      </trkpt>
      <trkpt lat="48.1936938" lon="-1.6315364">
        <ele>35.582</ele>
        <time>2018-08-17T10:33:34.160Z</time>
      </trkpt>
      <trkpt lat="48.1937792" lon="-1.6314440">
        <ele>36.328</ele>
        <time>2018-08-17T10:33:37.220Z</time>
      </trkpt>
      <trkpt lat="48.1938522" lon="-1.6313508">
        <ele>36.527</ele>
        <time>2018-08-17T10:33:40.953Z</time>
      </trkpt>
      <trkpt lat="48.1939282" lon="-1.6312687">
        <ele>36.267</ele>
        <time>2018-08-17T10:33:44.946Z</time>
      </trkpt>
      <trkpt lat="48.1940180" lon="-1.6312087">
        <ele>35.865</ele>
        <time>2018-08-17T10:33:49.891Z</time>
      </trkpt>
      <trkpt lat="48.1940889" lon="-1.6311026">
        <ele>35.608</ele>
        <time>2018-08-17T10:33:54.074Z</time>
      </trkpt>
      <trkpt lat="48.1941545" lon="-1.6309878">
        <ele>35.521</ele>
        <time>2018-08-17T10:33:58.392Z</time>
      </trkpt>
      <trkpt lat="48.1942264" lon="-1.6309060">
        <ele>35.418</ele>
        <time>2018-08-17T10:34:02.664Z</time>
      </trkpt>
      <trkpt lat="48.1943181" lon="-1.6308231">
        <ele>35.185</ele>
        <time>2018-08-17T10:34:08.688Z</time>
      </trkpt>
      <trkpt lat="48.1944065" lon="-1.6307147">
        <ele>34.903</ele>
        <time>2018-08-17T10:34:16.106Z</time>
      </trkpt>
      <trkpt lat="48.1944904" lon="-1.6306261">
        <ele>34.654</ele>
        <time>2018-08-17T10:34:21.378Z</time>
      </trkpt>
      <trkpt lat="48.1945966" lon="-1.6305436">
        <ele>34.441</ele>
        <time>2018-08-17T10:34:26.038Z</time>
      </trkpt>
      <trkpt lat="48.1946792" lon="-1.6304881">
        <ele>34.384</ele>
        <time>2018-08-17T10:34:29.601Z</time>
      </trkpt>
      <trkpt lat="48.1947686" lon="-1.6304258">
        <ele>34.536</ele>
        <time>2018-08-17T10:34:33.813Z</time>
      </trkpt>
      <trkpt lat="48.1948646" lon="-1.6303864">
        <ele>34.692</ele>
        <time>2018-08-17T10:34:38.680Z</time>
      </trkpt>
      <trkpt lat="48.1949683" lon="-1.6303357">
        <ele>34.664</ele>
        <time>2018-08-17T10:34:44.429Z</time>
      </trkpt>
      <trkpt lat="48.1950750" lon="-1.6302948">
        <ele>34.529</ele>
        <time>2018-08-17T10:34:49.919Z</time>
      </trkpt>
      <trkpt lat="48.1951701" lon="-1.6302712">
        <ele>34.587</ele>
        <time>2018-08-17T10:34:55.149Z</time>
      </trkpt>
      <trkpt lat="48.1952791" lon="-1.6302843">
        <ele>34.970</ele>
        <time>2018-08-17T10:35:01.450Z</time>
      </trkpt>
      <trkpt lat="48.1953811" lon="-1.6303112">
        <ele>35.469</ele>
        <time>2018-08-17T10:35:08.391Z</time>
      </trkpt>
      <trkpt lat="48.1954811" lon="-1.6303402">
        <ele>35.854</ele>
        <time>2018-08-17T10:35:15.695Z</time>
      </trkpt>
      <trkpt lat="48.1955794" lon="-1.6303785">
        <ele>35.998</ele>
        <time>2018-08-17T10:35:21.639Z</time>
      </trkpt>
      <trkpt lat="48.1956816" lon="-1.6303813">
        <ele>35.779</ele>
        <time>2018-08-17T10:35:28.943Z</time>
      </trkpt>
      <trkpt lat="48.1957846" lon="-1.6304188">
        <ele>35.285</ele>
        <time>2018-08-17T10:35:35.764Z</time>
      </trkpt>
      <trkpt lat="48.1958758" lon="-1.6304932">
        <ele>34.772</ele>
        <time>2018-08-17T10:35:41.347Z</time>
      </trkpt>
      <trkpt lat="48.1959619" lon="-1.6305454">
        <ele>34.328</ele>
        <time>2018-08-17T10:35:45.899Z</time>
      </trkpt>
      <trkpt lat="48.1960537" lon="-1.6305692">
        <ele>33.799</ele>
        <time>2018-08-17T10:35:50.753Z</time>
      </trkpt>
      <trkpt lat="48.1961519" lon="-1.6306015">
        <ele>33.219</ele>
        <time>2018-08-17T10:35:57.154Z</time>
      </trkpt>
      <trkpt lat="48.1962378" lon="-1.6306493">
        <ele>32.974</ele>
        <time>2018-08-17T10:36:02.500Z</time>
      </trkpt>
      <trkpt lat="48.1963263" lon="-1.6307407">
        <ele>33.282</ele>
        <time>2018-08-17T10:36:06.955Z</time>
      </trkpt>
      <trkpt lat="48.1964063" lon="-1.6308468">
        <ele>33.839</ele>
        <time>2018-08-17T10:36:10.802Z</time>
      </trkpt>
      <trkpt lat="48.1964819" lon="-1.6309354">
        <ele>34.167</ele>
        <time>2018-08-17T10:36:14.144Z</time>
      </trkpt>
      <trkpt lat="48.1965573" lon="-1.6310152">
        <ele>34.134</ele>
        <time>2018-08-17T10:36:17.300Z</time>
      </trkpt>
      <trkpt lat="48.1966272" lon="-1.6311309">
        <ele>34.008</ele>
        <time>2018-08-17T10:36:20.735Z</time>
      </trkpt>
      <trkpt lat="48.1966964" lon="-1.6312516">
        <ele>34.059</ele>
        <time>2018-08-17T10:36:23.978Z</time>
      </trkpt>
      <trkpt lat="48.1967652" lon="-1.6313642">
        <ele>34.274</ele>
        <time>2018-08-17T10:36:26.581Z</time>
      </trkpt>
      <trkpt lat="48.1968208" lon="-1.6314810">
        <ele>34.496</ele>
        <time>2018-08-17T10:36:28.893Z</time>
      </trkpt>
      <trkpt lat="48.1968831" lon="-1.6315907">
        <ele>34.639</ele>
        <time>2018-08-17T10:36:31.258Z</time>
      </trkpt>
      <trkpt lat="48.1969408" lon="-1.6317030">
        <ele>34.715</ele>
        <time>2018-08-17T10:36:33.666Z</time>
      </trkpt>
      <trkpt lat="48.1969661" lon="-1.6318625">
        <ele>34.812</ele>
        <time>2018-08-17T10:36:36.549Z</time>
      </trkpt>
      <trkpt lat="48.1969701" lon="-1.6320656">
        <ele>34.981</ele>
        <time>2018-08-17T10:36:40.759Z</time>
      </trkpt>
      <trkpt lat="48.1969710" lon="-1.6322451">
        <ele>35.140</ele>
        <time>2018-08-17T10:36:45.383Z</time>
      </trkpt>
      <trkpt lat="48.1969820" lon="-1.6324199">
        <ele>35.209</ele>
        <time>2018-08-17T10:36:50.291Z</time>
      </trkpt>
      <trkpt lat="48.1969994" lon="-1.6325884">
        <ele>35.215</ele>
        <time>2018-08-17T10:36:54.011Z</time>
      </trkpt>
      <trkpt lat="48.1970053" lon="-1.6327246">
        <ele>35.212</ele>
        <time>2018-08-17T10:36:56.706Z</time>
      </trkpt>
      <trkpt lat="48.1970046" lon="-1.6328709">
        <ele>35.272</ele>
        <time>2018-08-17T10:36:59.916Z</time>
      </trkpt>
      <trkpt lat="48.1970213" lon="-1.6330172">
        <ele>35.492</ele>
        <time>2018-08-17T10:37:03.546Z</time>
      </trkpt>
      <trkpt lat="48.1970439" lon="-1.6331555">
        <ele>35.991</ele>
        <time>2018-08-17T10:37:06.941Z</time>
      </trkpt>
      <trkpt lat="48.1970518" lon="-1.6333175">
        <ele>36.750</ele>
        <time>2018-08-17T10:37:10.316Z</time>
      </trkpt>
      <trkpt lat="48.1970537" lon="-1.6334740">
        <ele>37.483</ele>
        <time>2018-08-17T10:37:13.540Z</time>
      </trkpt>
      <trkpt lat="48.1970605" lon="-1.6336119">
        <ele>37.745</ele>
        <time>2018-08-17T10:37:16.406Z</time>
      </trkpt>
      <trkpt lat="48.1970668" lon="-1.6337958">
        <ele>37.299</ele>
        <time>2018-08-17T10:37:20.271Z</time>
      </trkpt>
      <trkpt lat="48.1970797" lon="-1.6339375">
        <ele>36.422</ele>
        <time>2018-08-17T10:37:23.263Z</time>
      </trkpt>
      <trkpt lat="48.1971157" lon="-1.6340722">
        <ele>35.669</ele>
        <time>2018-08-17T10:37:26.271Z</time>
      </trkpt>
      <trkpt lat="48.1971193" lon="-1.6342579">
        <ele>35.290</ele>
        <time>2018-08-17T10:37:30.098Z</time>
      </trkpt>
      <trkpt lat="48.1971229" lon="-1.6343945">
        <ele>35.200</ele>
        <time>2018-08-17T10:37:32.900Z</time>
      </trkpt>
      <trkpt lat="48.1971175" lon="-1.6345409">
        <ele>35.238</ele>
        <time>2018-08-17T10:37:35.895Z</time>
      </trkpt>
      <trkpt lat="48.1971197" lon="-1.6346853">
        <ele>35.314</ele>
        <time>2018-08-17T10:37:38.835Z</time>
      </trkpt>
      <trkpt lat="48.1971327" lon="-1.6348237">
        <ele>35.475</ele>
        <time>2018-08-17T10:37:41.678Z</time>
      </trkpt>
      <trkpt lat="48.1971592" lon="-1.6349959">
        <ele>35.790</ele>
        <time>2018-08-17T10:37:45.278Z</time>
      </trkpt>
      <trkpt lat="48.1971858" lon="-1.6351641">
        <ele>36.179</ele>
        <time>2018-08-17T10:37:48.681Z</time>
      </trkpt>
      <trkpt lat="48.1972132" lon="-1.6353405">
        <ele>36.481</ele>
        <time>2018-08-17T10:37:52.173Z</time>
      </trkpt>
      <trkpt lat="48.1972340" lon="-1.6354771">
        <ele>36.655</ele>
        <time>2018-08-17T10:37:55.023Z</time>
      </trkpt>
      <trkpt lat="48.1972478" lon="-1.6356137">
        <ele>36.772</ele>
        <time>2018-08-17T10:37:57.906Z</time>
      </trkpt>
      <trkpt lat="48.1972566" lon="-1.6357669">
        <ele>36.819</ele>
        <time>2018-08-17T10:38:01.187Z</time>
      </trkpt>
      <trkpt lat="48.1972690" lon="-1.6359024">
        <ele>36.734</ele>
        <time>2018-08-17T10:38:04.143Z</time>
      </trkpt>
      <trkpt lat="48.1972881" lon="-1.6360732">
        <ele>36.559</ele>
        <time>2018-08-17T10:38:07.861Z</time>
      </trkpt>
      <trkpt lat="48.1973038" lon="-1.6362382">
        <ele>36.434</ele>
        <time>2018-08-17T10:38:11.403Z</time>
      </trkpt>
      <trkpt lat="48.1973220" lon="-1.6364058">
        <ele>36.435</ele>
        <time>2018-08-17T10:38:15.020Z</time>
      </trkpt>
      <trkpt lat="48.1973338" lon="-1.6365396">
        <ele>36.499</ele>
        <time>2018-08-17T10:38:17.936Z</time>
      </trkpt>
      <trkpt lat="48.1973376" lon="-1.6366783">
        <ele>36.550</ele>
        <time>2018-08-17T10:38:21.023Z</time>
      </trkpt>
      <trkpt lat="48.1973597" lon="-1.6368431">
        <ele>36.579</ele>
        <time>2018-08-17T10:38:24.762Z</time>
      </trkpt>
      <trkpt lat="48.1973845" lon="-1.6370020">
        <ele>36.595</ele>
        <time>2018-08-17T10:38:28.405Z</time>
      </trkpt>
      <trkpt lat="48.1974213" lon="-1.6371566">
        <ele>36.651</ele>
        <time>2018-08-17T10:38:32.098Z</time>
      </trkpt>
      <trkpt lat="48.1974548" lon="-1.6373118">
        <ele>36.786</ele>
        <time>2018-08-17T10:38:35.751Z</time>
      </trkpt>
      <trkpt lat="48.1974748" lon="-1.6374800">
        <ele>36.894</ele>
        <time>2018-08-17T10:38:39.534Z</time>
      </trkpt>
      <trkpt lat="48.1975073" lon="-1.6376394">
        <ele>36.884</ele>
        <time>2018-08-17T10:38:43.207Z</time>
      </trkpt>
      <trkpt lat="48.1975659" lon="-1.6377891">
        <ele>36.849</ele>
        <time>2018-08-17T10:38:46.987Z</time>
      </trkpt>
      <trkpt lat="48.1976257" lon="-1.6379262">
        <ele>36.930</ele>
        <time>2018-08-17T10:38:50.423Z</time>
      </trkpt>
      <trkpt lat="48.1976879" lon="-1.6380618">
        <ele>37.116</ele>
        <time>2018-08-17T10:38:53.815Z</time>
      </trkpt>
      <trkpt lat="48.1977421" lon="-1.6381902">
        <ele>37.234</ele>
        <time>2018-08-17T10:38:56.894Z</time>
      </trkpt>
      <trkpt lat="48.1978013" lon="-1.6382953">
        <ele>37.157</ele>
        <time>2018-08-17T10:38:59.611Z</time>
      </trkpt>
      <trkpt lat="48.1978523" lon="-1.6384100">
        <ele>36.940</ele>
        <time>2018-08-17T10:39:02.292Z</time>
      </trkpt>
      <trkpt lat="48.1978964" lon="-1.6385460">
        <ele>36.692</ele>
        <time>2018-08-17T10:39:05.263Z</time>
      </trkpt>
      <trkpt lat="48.1979671" lon="-1.6386549">
        <ele>36.487</ele>
        <time>2018-08-17T10:39:08.334Z</time>
      </trkpt>
      <trkpt lat="48.1980429" lon="-1.6387424">
        <ele>36.439</ele>
        <time>2018-08-17T10:39:11.390Z</time>
      </trkpt>
      <trkpt lat="48.1981380" lon="-1.6388342">
        <ele>36.583</ele>
        <time>2018-08-17T10:39:15.048Z</time>
      </trkpt>
      <trkpt lat="48.1982339" lon="-1.6389092">
        <ele>36.754</ele>
        <time>2018-08-17T10:39:18.404Z</time>
      </trkpt>
      <trkpt lat="48.1983156" lon="-1.6389673">
        <ele>36.777</ele>
        <time>2018-08-17T10:39:21.146Z</time>
      </trkpt>
      <trkpt lat="48.1984047" lon="-1.6390307">
        <ele>36.638</ele>
        <time>2018-08-17T10:39:24.170Z</time>
      </trkpt>
      <trkpt lat="48.1985119" lon="-1.6391011">
        <ele>36.358</ele>
        <time>2018-08-17T10:39:27.856Z</time>
      </trkpt>
      <trkpt lat="48.1985962" lon="-1.6391483">
        <ele>35.918</ele>
        <time>2018-08-17T10:39:30.746Z</time>
      </trkpt>
      <trkpt lat="48.1987080" lon="-1.6391836">
        <ele>35.411</ele>
        <time>2018-08-17T10:39:34.493Z</time>
      </trkpt>
      <trkpt lat="48.1988225" lon="-1.6392063">
        <ele>35.030</ele>
        <time>2018-08-17T10:39:38.400Z</time>
      </trkpt>
      <trkpt lat="48.1989235" lon="-1.6392185">
        <ele>34.842</ele>
        <time>2018-08-17T10:39:41.954Z</time>
      </trkpt>
      <trkpt lat="48.1990188" lon="-1.6392249">
        <ele>34.892</ele>
        <time>2018-08-17T10:39:45.358Z</time>
      </trkpt>
      <trkpt lat="48.1991302" lon="-1.6392314">
        <ele>35.197</ele>
        <time>2018-08-17T10:39:49.173Z</time>
      </trkpt>
      <trkpt lat="48.1992303" lon="-1.6392330">
        <ele>35.638</ele>
        <time>2018-08-17T10:39:52.466Z</time>
      </trkpt>
      <trkpt lat="48.1993230" lon="-1.6392217">
        <ele>36.055</ele>
        <time>2018-08-17T10:39:55.527Z</time>
      </trkpt>
      <trkpt lat="48.1994246" lon="-1.6391953">
        <ele>36.325</ele>
        <time>2018-08-17T10:39:58.989Z</time>
      </trkpt>
      <trkpt lat="48.1995287" lon="-1.6391862">
        <ele>36.395</ele>
        <time>2018-08-17T10:40:02.560Z</time>
      </trkpt>
      <trkpt lat="48.1996361" lon="-1.6391679">
        <ele>36.351</ele>
        <time>2018-08-17T10:40:06.206Z</time>
      </trkpt>
      <trkpt lat="48.1997367" lon="-1.6391442">
        <ele>36.341</ele>
        <time>2018-08-17T10:40:09.418Z</time>
      </trkpt>
      <trkpt lat="48.1998375" lon="-1.6390989">
        <ele>36.516</ele>
        <time>2018-08-17T10:40:12.636Z</time>
      </trkpt>
      <trkpt lat="48.1999408" lon="-1.6390082">
        <ele>36.851</ele>
        <time>2018-08-17T10:40:16.362Z</time>
      </trkpt>
      <trkpt lat="48.2000215" lon="-1.6389132">
        <ele>37.157</ele>
        <time>2018-08-17T10:40:19.678Z</time>
      </trkpt>
      <trkpt lat="48.2001191" lon="-1.6388191">
        <ele>37.321</ele>
        <time>2018-08-17T10:40:23.474Z</time>
      </trkpt>
      <trkpt lat="48.2001997" lon="-1.6387220">
        <ele>37.518</ele>
        <time>2018-08-17T10:40:26.789Z</time>
      </trkpt>
      <trkpt lat="48.2002913" lon="-1.6386150">
        <ele>37.941</ele>
        <time>2018-08-17T10:40:30.504Z</time>
      </trkpt>
      <trkpt lat="48.2003610" lon="-1.6385275">
        <ele>38.439</ele>
        <time>2018-08-17T10:40:33.487Z</time>
      </trkpt>
      <trkpt lat="48.2004441" lon="-1.6384136">
        <ele>38.740</ele>
        <time>2018-08-17T10:40:37.285Z</time>
      </trkpt>
      <trkpt lat="48.2005089" lon="-1.6383043">
        <ele>38.780</ele>
        <time>2018-08-17T10:40:40.776Z</time>
      </trkpt>
      <trkpt lat="48.2005725" lon="-1.6381941">
        <ele>38.724</ele>
        <time>2018-08-17T10:40:44.403Z</time>
      </trkpt>
      <trkpt lat="48.2006559" lon="-1.6380604">
        <ele>38.694</ele>
        <time>2018-08-17T10:40:48.872Z</time>
      </trkpt>
      <trkpt lat="48.2007511" lon="-1.6379595">
        <ele>38.617</ele>
        <time>2018-08-17T10:40:52.915Z</time>
      </trkpt>
      <trkpt lat="48.2008302" lon="-1.6378485">
        <ele>38.330</ele>
        <time>2018-08-17T10:40:56.624Z</time>
      </trkpt>
      <trkpt lat="48.2008991" lon="-1.6377444">
        <ele>37.838</ele>
        <time>2018-08-17T10:41:00.664Z</time>
      </trkpt>
      <trkpt lat="48.2009708" lon="-1.6376598">
        <ele>37.364</ele>
        <time>2018-08-17T10:41:04.622Z</time>
      </trkpt>
      <trkpt lat="48.2010327" lon="-1.6375472">
        <ele>37.200</ele>
        <time>2018-08-17T10:41:09.368Z</time>
      </trkpt>
      <trkpt lat="48.2011033" lon="-1.6374558">
        <ele>37.359</ele>
        <time>2018-08-17T10:41:13.670Z</time>
      </trkpt>
      <trkpt lat="48.2012069" lon="-1.6373484">
        <ele>37.628</ele>
        <time>2018-08-17T10:41:19.468Z</time>
      </trkpt>
      <trkpt lat="48.2013260" lon="-1.6372381">
        <ele>37.801</ele>
        <time>2018-08-17T10:41:25.600Z</time>
      </trkpt>
      <trkpt lat="48.2014189" lon="-1.6371518">
        <ele>37.860</ele>
        <time>2018-08-17T10:41:29.222Z</time>
      </trkpt>
      <trkpt lat="48.2014942" lon="-1.6370676">
        <ele>38.177</ele>
        <time>2018-08-17T10:41:32.000Z</time>
      </trkpt>
      <trkpt lat="48.2014942" lon="-1.6370676">
        <ele>38.985</ele>
        <time>2018-08-17T10:41:33.000Z</time>
      </trkpt>
      <trkpt lat="48.2014942" lon="-1.6370676">
        <ele>39.653</ele>
        <time>2018-08-17T10:41:33.100Z</time>
      </trkpt>
      <trkpt lat="48.2016157" lon="-1.6368628">
        <ele>39.626</ele>
        <time>2018-08-17T10:41:42.244Z</time>
      </trkpt>
      <trkpt lat="48.2017009" lon="-1.6367922">
        <ele>39.349</ele>
        <time>2018-08-17T10:41:45.949Z</time>
      </trkpt>
      <trkpt lat="48.2018029" lon="-1.6367139">
        <ele>39.376</ele>
        <time>2018-08-17T10:41:50.248Z</time>
      </trkpt>
      <trkpt lat="48.2018828" lon="-1.6366290">
        <ele>39.960</ele>
        <time>2018-08-17T10:41:53.872Z</time>
      </trkpt>
      <trkpt lat="48.2019570" lon="-1.6365111">
        <ele>40.992</ele>
        <time>2018-08-17T10:41:57.745Z</time>
      </trkpt>
      <trkpt lat="48.2020281" lon="-1.6364004">
        <ele>41.713</ele>
        <time>2018-08-17T10:42:01.458Z</time>
      </trkpt>
      <trkpt lat="48.2021127" lon="-1.6363024">
        <ele>41.292</ele>
        <time>2018-08-17T10:42:05.340Z</time>
      </trkpt>
      <trkpt lat="48.2021977" lon="-1.6361985">
        <ele>39.986</ele>
        <time>2018-08-17T10:42:09.341Z</time>
      </trkpt>
      <trkpt lat="48.2022796" lon="-1.6361222">
        <ele>38.723</ele>
        <time>2018-08-17T10:42:12.917Z</time>
      </trkpt>
      <trkpt lat="48.2023879" lon="-1.6360737">
        <ele>38.092</ele>
        <time>2018-08-17T10:42:17.096Z</time>
      </trkpt>
      <trkpt lat="48.2024860" lon="-1.6360648">
        <ele>38.400</ele>
        <time>2018-08-17T10:42:20.603Z</time>
      </trkpt>
      <trkpt lat="48.2025772" lon="-1.6360585">
        <ele>39.873</ele>
        <time>2018-08-17T10:42:23.796Z</time>
      </trkpt>
      <trkpt lat="48.2026688" lon="-1.6360258">
        <ele>41.876</ele>
        <time>2018-08-17T10:42:27.260Z</time>
      </trkpt>
      <trkpt lat="48.2027672" lon="-1.6359776">
        <ele>43.006</ele>
        <time>2018-08-17T10:42:31.267Z</time>
      </trkpt>
      <trkpt lat="48.2028674" lon="-1.6359604">
        <ele>42.512</ele>
        <time>2018-08-17T10:42:35.296Z</time>
      </trkpt>
      <trkpt lat="48.2029615" lon="-1.6359922">
        <ele>41.130</ele>
        <time>2018-08-17T10:42:38.955Z</time>
      </trkpt>
      <trkpt lat="48.2030562" lon="-1.6360229">
        <ele>40.384</ele>
        <time>2018-08-17T10:42:42.430Z</time>
      </trkpt>
      <trkpt lat="48.2031639" lon="-1.6360519">
        <ele>40.934</ele>
        <time>2018-08-17T10:42:46.360Z</time>
      </trkpt>
      <trkpt lat="48.2032455" lon="-1.6361088">
        <ele>42.015</ele>
        <time>2018-08-17T10:42:49.791Z</time>
      </trkpt>
      <trkpt lat="48.2033297" lon="-1.6361855">
        <ele>42.713</ele>
        <time>2018-08-17T10:42:53.845Z</time>
      </trkpt>
      <trkpt lat="48.2034060" lon="-1.6362668">
        <ele>42.910</ele>
        <time>2018-08-17T10:42:58.071Z</time>
      </trkpt>
      <trkpt lat="48.2034934" lon="-1.6363448">
        <ele>42.849</ele>
        <time>2018-08-17T10:43:02.684Z</time>
      </trkpt>
      <trkpt lat="48.2035859" lon="-1.6364373">
        <ele>42.802</ele>
        <time>2018-08-17T10:43:07.159Z</time>
      </trkpt>
      <trkpt lat="48.2036708" lon="-1.6365652">
        <ele>42.806</ele>
        <time>2018-08-17T10:43:11.632Z</time>
      </trkpt>
      <trkpt lat="48.2037695" lon="-1.6366261">
        <ele>42.732</ele>
        <time>2018-08-17T10:43:15.576Z</time>
      </trkpt>
      <trkpt lat="48.2038651" lon="-1.6367031">
        <ele>41.626</ele>
        <time>2018-08-17T10:43:19.637Z</time>
      </trkpt>
      <trkpt lat="48.2039257" lon="-1.6368465">
        <ele>38.725</ele>
        <time>2018-08-17T10:43:23.811Z</time>
      </trkpt>
      <trkpt lat="48.2039687" lon="-1.6369897">
        <ele>35.350</ele>
        <time>2018-08-17T10:43:27.478Z</time>
      </trkpt>
      <trkpt lat="48.2040228" lon="-1.6371217">
        <ele>33.482</ele>
        <time>2018-08-17T10:43:31.062Z</time>
      </trkpt>
      <trkpt lat="48.2040854" lon="-1.6372416">
        <ele>33.572</ele>
        <time>2018-08-17T10:43:34.616Z</time>
      </trkpt>
      <trkpt lat="48.2041323" lon="-1.6374049">
        <ele>35.148</ele>
        <time>2018-08-17T10:43:38.763Z</time>
      </trkpt>
      <trkpt lat="48.2041682" lon="-1.6375650">
        <ele>37.225</ele>
        <time>2018-08-17T10:43:42.496Z</time>
      </trkpt>
      <trkpt lat="48.2041963" lon="-1.6377238">
        <ele>38.819</ele>
        <time>2018-08-17T10:43:45.953Z</time>
      </trkpt>
      <trkpt lat="48.2042473" lon="-1.6378454">
        <ele>39.840</ele>
        <time>2018-08-17T10:43:48.991Z</time>
      </trkpt>
      <trkpt lat="48.2043068" lon="-1.6379955">
        <ele>40.743</ele>
        <time>2018-08-17T10:43:52.794Z</time>
      </trkpt>
      <trkpt lat="48.2043662" lon="-1.6381378">
        <ele>41.632</ele>
        <time>2018-08-17T10:43:56.676Z</time>
      </trkpt>
      <trkpt lat="48.2044467" lon="-1.6382587">
        <ele>42.221</ele>
        <time>2018-08-17T10:44:00.836Z</time>
      </trkpt>
      <trkpt lat="48.2045114" lon="-1.6383722">
        <ele>42.233</ele>
        <time>2018-08-17T10:44:04.645Z</time>
      </trkpt>
      <trkpt lat="48.2045998" lon="-1.6384658">
        <ele>41.407</ele>
        <time>2018-08-17T10:44:08.800Z</time>
      </trkpt>
      <trkpt lat="48.2046910" lon="-1.6385771">
        <ele>39.955</ele>
        <time>2018-08-17T10:44:13.175Z</time>
      </trkpt>
      <trkpt lat="48.2047817" lon="-1.6386544">
        <ele>38.905</ele>
        <time>2018-08-17T10:44:17.013Z</time>
      </trkpt>
      <trkpt lat="48.2048656" lon="-1.6387195">
        <ele>38.908</ele>
        <time>2018-08-17T10:44:20.590Z</time>
      </trkpt>
      <trkpt lat="48.2049569" lon="-1.6387299">
        <ele>39.313</ele>
        <time>2018-08-17T10:44:24.182Z</time>
      </trkpt>
      <trkpt lat="48.2050699" lon="-1.6387305">
        <ele>39.351</ele>
        <time>2018-08-17T10:44:28.726Z</time>
      </trkpt>
      <trkpt lat="48.2051593" lon="-1.6387000">
        <ele>39.024</ele>
        <time>2018-08-17T10:44:32.535Z</time>
      </trkpt>
      <trkpt lat="48.2052426" lon="-1.6386433">
        <ele>38.639</ele>
        <time>2018-08-17T10:44:36.698Z</time>
      </trkpt>
      <trkpt lat="48.2053306" lon="-1.6385587">
        <ele>37.900</ele>
        <time>2018-08-17T10:44:42.267Z</time>
      </trkpt>
      <trkpt lat="48.2054331" lon="-1.6384812">
        <ele>36.204</ele>
        <time>2018-08-17T10:44:48.456Z</time>
      </trkpt>
      <trkpt lat="48.2055298" lon="-1.6383974">
        <ele>33.802</ele>
        <time>2018-08-17T10:44:52.905Z</time>
      </trkpt>
      <trkpt lat="48.2056127" lon="-1.6383140">
        <ele>31.736</ele>
        <time>2018-08-17T10:44:56.215Z</time>
      </trkpt>
      <trkpt lat="48.2056993" lon="-1.6382364">
        <ele>30.577</ele>
        <time>2018-08-17T10:44:59.458Z</time>
      </trkpt>
      <trkpt lat="48.2057972" lon="-1.6381730">
        <ele>30.244</ele>
        <time>2018-08-17T10:45:02.930Z</time>
      </trkpt>
      <trkpt lat="48.2058854" lon="-1.6381329">
        <ele>30.846</ele>
        <time>2018-08-17T10:45:06.009Z</time>
      </trkpt>
      <trkpt lat="48.2059715" lon="-1.6380919">
        <ele>32.430</ele>
        <time>2018-08-17T10:45:09.018Z</time>
      </trkpt>
      <trkpt lat="48.2060702" lon="-1.6380283">
        <ele>34.203</ele>
        <time>2018-08-17T10:45:12.583Z</time>
      </trkpt>
      <trkpt lat="48.2061567" lon="-1.6379594">
        <ele>35.646</ele>
        <time>2018-08-17T10:45:15.754Z</time>
      </trkpt>
      <trkpt lat="48.2062531" lon="-1.6378568">
        <ele>37.030</ele>
        <time>2018-08-17T10:45:19.318Z</time>
      </trkpt>
      <trkpt lat="48.2063313" lon="-1.6377769">
        <ele>38.273</ele>
        <time>2018-08-17T10:45:21.961Z</time>
      </trkpt>
      <trkpt lat="48.2064207" lon="-1.6376953">
        <ele>38.959</ele>
        <time>2018-08-17T10:45:24.845Z</time>
      </trkpt>
      <trkpt lat="48.2065137" lon="-1.6376267">
        <ele>39.023</ele>
        <time>2018-08-17T10:45:27.915Z</time>
      </trkpt>
      <trkpt lat="48.2065945" lon="-1.6375400">
        <ele>38.693</ele>
        <time>2018-08-17T10:45:31.000Z</time>
      </trkpt>
      <trkpt lat="48.2065945" lon="-1.6375400">
        <ele>38.391</ele>
        <time>2018-08-17T10:45:35.000Z</time>
      </trkpt>
      <trkpt lat="48.2065945" lon="-1.6375400">
        <ele>38.378</ele>
        <time>2018-08-17T10:45:35.100Z</time>
      </trkpt>
      <trkpt lat="48.2067737" lon="-1.6373655">
        <ele>38.518</ele>
        <time>2018-08-17T10:45:42.602Z</time>
      </trkpt>
      <trkpt lat="48.2069231" lon="-1.6373224">
        <ele>38.626</ele>
        <time>2018-08-17T10:45:46.672Z</time>
      </trkpt>
      <trkpt lat="48.2070139" lon="-1.6372564">
        <ele>38.715</ele>
        <time>2018-08-17T10:45:50.767Z</time>
      </trkpt>
      <trkpt lat="48.2070856" lon="-1.6371734">
        <ele>38.793</ele>
        <time>2018-08-17T10:45:54.446Z</time>
      </trkpt>
      <trkpt lat="48.2071751" lon="-1.6370830">
        <ele>38.707</ele>
        <time>2018-08-17T10:45:58.995Z</time>
      </trkpt>
      <trkpt lat="48.2072850" lon="-1.6370119">
        <ele>38.428</ele>
        <time>2018-08-17T10:46:02.838Z</time>
      </trkpt>
      <trkpt lat="48.2073667" lon="-1.6369432">
        <ele>38.169</ele>
        <time>2018-08-17T10:46:05.809Z</time>
      </trkpt>
      <trkpt lat="48.2074489" lon="-1.6368785">
        <ele>38.391</ele>
        <time>2018-08-17T10:46:08.825Z</time>
      </trkpt>
      <trkpt lat="48.2075197" lon="-1.6367631">
        <ele>39.255</ele>
        <time>2018-08-17T10:46:12.471Z</time>
      </trkpt>
      <trkpt lat="48.2076049" lon="-1.6366690">
        <ele>39.936</ele>
        <time>2018-08-17T10:46:16.263Z</time>
      </trkpt>
      <trkpt lat="48.2076861" lon="-1.6366008">
        <ele>39.716</ele>
        <time>2018-08-17T10:46:19.623Z</time>
      </trkpt>
      <trkpt lat="48.2077257" lon="-1.6364760">
        <ele>38.973</ele>
        <time>2018-08-17T10:46:23.552Z</time>
      </trkpt>
      <trkpt lat="48.2078196" lon="-1.6364004">
        <ele>37.759</ele>
        <time>2018-08-17T10:46:28.762Z</time>
      </trkpt>
      <trkpt lat="48.2079056" lon="-1.6363147">
        <ele>35.911</ele>
        <time>2018-08-17T10:46:35.017Z</time>
      </trkpt>
      <trkpt lat="48.2079806" lon="-1.6362338">
        <ele>33.869</ele>
        <time>2018-08-17T10:46:39.998Z</time>
      </trkpt>
      <trkpt lat="48.2080678" lon="-1.6361648">
        <ele>32.175</ele>
        <time>2018-08-17T10:46:45.393Z</time>
      </trkpt>
      <trkpt lat="48.2081504" lon="-1.6361097">
        <ele>31.410</ele>
        <time>2018-08-17T10:46:50.653Z</time>
      </trkpt>
      <trkpt lat="48.2082322" lon="-1.6360312">
        <ele>31.808</ele>
        <time>2018-08-17T10:46:55.436Z</time>
      </trkpt>
      <trkpt lat="48.2083162" lon="-1.6359664">
        <ele>32.572</ele>
        <time>2018-08-17T10:47:00.165Z</time>
      </trkpt>
      <trkpt lat="48.2084137" lon="-1.6358803">
        <ele>32.599</ele>
        <time>2018-08-17T10:47:05.955Z</time>
      </trkpt>
      <trkpt lat="48.2085000" lon="-1.6358160">
        <ele>31.600</ele>
        <time>2018-08-17T10:47:09.737Z</time>
      </trkpt>
      <trkpt lat="48.2086018" lon="-1.6357330">
        <ele>30.322</ele>
        <time>2018-08-17T10:47:13.019Z</time>
      </trkpt>
      <trkpt lat="48.2087200" lon="-1.6356549">
        <ele>29.525</ele>
        <time>2018-08-17T10:47:16.395Z</time>
      </trkpt>
      <trkpt lat="48.2088270" lon="-1.6356106">
        <ele>29.772</ele>
        <time>2018-08-17T10:47:19.456Z</time>
      </trkpt>
      <trkpt lat="48.2089162" lon="-1.6355764">
        <ele>31.159</ele>
        <time>2018-08-17T10:47:22.180Z</time>
      </trkpt>
      <trkpt lat="48.2090124" lon="-1.6355458">
        <ele>32.589</ele>
        <time>2018-08-17T10:47:25.300Z</time>
      </trkpt>
      <trkpt lat="48.2091183" lon="-1.6355313">
        <ele>33.143</ele>
        <time>2018-08-17T10:47:29.151Z</time>
      </trkpt>
      <trkpt lat="48.2092143" lon="-1.6355131">
        <ele>33.246</ele>
        <time>2018-08-17T10:47:32.889Z</time>
      </trkpt>
      <trkpt lat="48.2093230" lon="-1.6354738">
        <ele>33.468</ele>
        <time>2018-08-17T10:47:37.329Z</time>
      </trkpt>
      <trkpt lat="48.2094129" lon="-1.6354566">
        <ele>33.573</ele>
        <time>2018-08-17T10:47:40.925Z</time>
      </trkpt>
      <trkpt lat="48.2095127" lon="-1.6354367">
        <ele>33.133</ele>
        <time>2018-08-17T10:47:44.937Z</time>
      </trkpt>
      <trkpt lat="48.2096052" lon="-1.6354238">
        <ele>32.317</ele>
        <time>2018-08-17T10:47:48.831Z</time>
      </trkpt>
      <trkpt lat="48.2097079" lon="-1.6354285">
        <ele>31.662</ele>
        <time>2018-08-17T10:47:53.296Z</time>
      </trkpt>
      <trkpt lat="48.2098096" lon="-1.6354534">
        <ele>31.686</ele>
        <time>2018-08-17T10:47:58.069Z</time>
      </trkpt>
      <trkpt lat="48.2099068" lon="-1.6354802">
        <ele>32.480</ele>
        <time>2018-08-17T10:48:03.260Z</time>
      </trkpt>
      <trkpt lat="48.2099976" lon="-1.6355244">
        <ele>33.489</ele>
        <time>2018-08-17T10:48:09.376Z</time>
      </trkpt>
      <trkpt lat="48.2100923" lon="-1.6356081">
        <ele>34.304</ele>
        <time>2018-08-17T10:48:15.748Z</time>
      </trkpt>
      <trkpt lat="48.2101961" lon="-1.6356934">
        <ele>34.945</ele>
        <time>2018-08-17T10:48:20.437Z</time>
      </trkpt>
      <trkpt lat="48.2102893" lon="-1.6357519">
        <ele>35.608</ele>
        <time>2018-08-17T10:48:23.543Z</time>
      </trkpt>
      <trkpt lat="48.2103768" lon="-1.6358390">
        <ele>36.370</ele>
        <time>2018-08-17T10:48:26.333Z</time>
      </trkpt>
      <trkpt lat="48.2105408" lon="-1.6360111">
        <ele>36.797</ele>
        <time>2018-08-17T10:48:30.643Z</time>
      </trkpt>
      <trkpt lat="48.2106316" lon="-1.6361770">
        <ele>36.344</ele>
        <time>2018-08-17T10:48:33.584Z</time>
      </trkpt>
      <trkpt lat="48.2107106" lon="-1.6362750">
        <ele>35.285</ele>
        <time>2018-08-17T10:48:36.071Z</time>
      </trkpt>
      <trkpt lat="48.2107975" lon="-1.6363129">
        <ele>34.093</ele>
        <time>2018-08-17T10:48:38.805Z</time>
      </trkpt>
      <trkpt lat="48.2108678" lon="-1.6363978">
        <ele>32.737</ele>
        <time>2018-08-17T10:48:41.989Z</time>
      </trkpt>
      <trkpt lat="48.2109202" lon="-1.6365082">
        <ele>31.288</ele>
        <time>2018-08-17T10:48:46.970Z</time>
      </trkpt>
      <trkpt lat="48.2109640" lon="-1.6366486">
        <ele>30.239</ele>
        <time>2018-08-17T10:48:52.045Z</time>
      </trkpt>
      <trkpt lat="48.2110043" lon="-1.6368051">
        <ele>29.815</ele>
        <time>2018-08-17T10:48:56.818Z</time>
      </trkpt>
      <trkpt lat="48.2110514" lon="-1.6369450">
        <ele>29.748</ele>
        <time>2018-08-17T10:49:00.916Z</time>
      </trkpt>
      <trkpt lat="48.2111101" lon="-1.6370475">
        <ele>29.703</ele>
        <time>2018-08-17T10:49:04.524Z</time>
      </trkpt>
      <trkpt lat="48.2111517" lon="-1.6371902">
        <ele>29.588</ele>
        <time>2018-08-17T10:49:09.495Z</time>
      </trkpt>
      <trkpt lat="48.2112016" lon="-1.6373095">
        <ele>29.485</ele>
        <time>2018-08-17T10:49:13.884Z</time>
      </trkpt>
      <trkpt lat="48.2112338" lon="-1.6374363">
        <ele>29.414</ele>
        <time>2018-08-17T10:49:17.977Z</time>
      </trkpt>
      <trkpt lat="48.2112554" lon="-1.6375844">
        <ele>29.150</ele>
        <time>2018-08-17T10:49:23.056Z</time>
      </trkpt>
      <trkpt lat="48.2112681" lon="-1.6377478">
        <ele>28.589</ele>
        <time>2018-08-17T10:49:27.848Z</time>
      </trkpt>
      <trkpt lat="48.2112712" lon="-1.6378977">
        <ele>28.133</ele>
        <time>2018-08-17T10:49:32.053Z</time>
      </trkpt>
      <trkpt lat="48.2112727" lon="-1.6380571">
        <ele>28.733</ele>
        <time>2018-08-17T10:49:37.345Z</time>
      </trkpt>
      <trkpt lat="48.2112328" lon="-1.6382317">
        <ele>30.607</ele>
        <time>2018-08-17T10:49:43.922Z</time>
      </trkpt>
      <trkpt lat="48.2112029" lon="-1.6383710">
        <ele>32.562</ele>
        <time>2018-08-17T10:49:48.000Z</time>
      </trkpt>
      <trkpt lat="48.2112029" lon="-1.6383710">
        <ele>33.546</ele>
        <time>2018-08-17T10:50:04.000Z</time>
      </trkpt>
      <trkpt lat="48.2112029" lon="-1.6383710">
        <ele>33.749</ele>
        <time>2018-08-17T10:50:48.977Z</time>
      </trkpt>
      <trkpt lat="48.2111176" lon="-1.6387205">
        <ele>33.658</ele>
        <time>2018-08-17T10:51:39.030Z</time>
      </trkpt>
      <trkpt lat="48.2111040" lon="-1.6388539">
        <ele>33.631</ele>
        <time>2018-08-17T10:51:47.000Z</time>
      </trkpt>
      <trkpt lat="48.2111040" lon="-1.6388539">
        <ele>33.782</ele>
        <time>2018-08-17T10:51:58.000Z</time>
      </trkpt>
      <trkpt lat="48.2111040" lon="-1.6388539">
        <ele>33.936</ele>
        <time>2018-08-17T10:52:53.992Z</time>
      </trkpt>
      <trkpt lat="48.2111371" lon="-1.6391258">
        <ele>33.923</ele>
        <time>2018-08-17T10:53:06.494Z</time>
      </trkpt>
      <trkpt lat="48.2111283" lon="-1.6392695">
        <ele>34.828</ele>
        <time>2018-08-17T10:53:10.364Z</time>
      </trkpt>
      <trkpt lat="48.2111113" lon="-1.6394064">
        <ele>37.372</ele>
        <time>2018-08-17T10:53:13.948Z</time>
      </trkpt>
      <trkpt lat="48.2111031" lon="-1.6395537">
        <ele>40.098</ele>
        <time>2018-08-17T10:53:17.628Z</time>
      </trkpt>
      <trkpt lat="48.2110825" lon="-1.6397031">
        <ele>41.397</ele>
        <time>2018-08-17T10:53:21.250Z</time>
      </trkpt>
      <trkpt lat="48.2110701" lon="-1.6398757">
        <ele>41.337</ele>
        <time>2018-08-17T10:53:25.096Z</time>
      </trkpt>
      <trkpt lat="48.2110572" lon="-1.6400121">
        <ele>40.673</ele>
        <time>2018-08-17T10:53:27.953Z</time>
      </trkpt>
      <trkpt lat="48.2110482" lon="-1.6401494">
        <ele>40.167</ele>
        <time>2018-08-17T10:53:30.751Z</time>
      </trkpt>
      <trkpt lat="48.2110388" lon="-1.6402875">
        <ele>40.034</ele>
        <time>2018-08-17T10:53:33.554Z</time>
      </trkpt>
      <trkpt lat="48.2110362" lon="-1.6404636">
        <ele>40.142</ele>
        <time>2018-08-17T10:53:37.102Z</time>
      </trkpt>
      <trkpt lat="48.2110249" lon="-1.6405980">
        <ele>40.351</ele>
        <time>2018-08-17T10:53:39.817Z</time>
      </trkpt>
      <trkpt lat="48.2110193" lon="-1.6407356">
        <ele>40.793</ele>
        <time>2018-08-17T10:53:42.549Z</time>
      </trkpt>
      <trkpt lat="48.2110064" lon="-1.6409116">
        <ele>41.868</ele>
        <time>2018-08-17T10:53:46.055Z</time>
      </trkpt>
      <trkpt lat="48.2109950" lon="-1.6410512">
        <ele>43.607</ele>
        <time>2018-08-17T10:53:48.881Z</time>
      </trkpt>
      <trkpt lat="48.2109921" lon="-1.6411891">
        <ele>45.315</ele>
        <time>2018-08-17T10:53:51.661Z</time>
      </trkpt>
      <trkpt lat="48.2109851" lon="-1.6413249">
        <ele>46.323</ele>
        <time>2018-08-17T10:53:54.406Z</time>
      </trkpt>
      <trkpt lat="48.2109790" lon="-1.6414653">
        <ele>46.517</ele>
        <time>2018-08-17T10:53:57.254Z</time>
      </trkpt>
      <trkpt lat="48.2109732" lon="-1.6416035">
        <ele>46.196</ele>
        <time>2018-08-17T10:54:00.077Z</time>
      </trkpt>
      <trkpt lat="48.2109592" lon="-1.6417436">
        <ele>45.803</ele>
        <time>2018-08-17T10:54:02.979Z</time>
      </trkpt>
      <trkpt lat="48.2109471" lon="-1.6418778">
        <ele>45.589</ele>
        <time>2018-08-17T10:54:05.770Z</time>
      </trkpt>
      <trkpt lat="48.2109357" lon="-1.6420135">
        <ele>45.524</ele>
        <time>2018-08-17T10:54:08.586Z</time>
      </trkpt>
      <trkpt lat="48.2109310" lon="-1.6421906">
        <ele>45.774</ele>
        <time>2018-08-17T10:54:12.182Z</time>
      </trkpt>
      <trkpt lat="48.2109273" lon="-1.6423307">
        <ele>46.439</ele>
        <time>2018-08-17T10:54:14.991Z</time>
      </trkpt>
      <trkpt lat="48.2109206" lon="-1.6424713">
        <ele>47.071</ele>
        <time>2018-08-17T10:54:17.783Z</time>
      </trkpt>
      <trkpt lat="48.2109145" lon="-1.6426422">
        <ele>47.209</ele>
        <time>2018-08-17T10:54:21.168Z</time>
      </trkpt>
      <trkpt lat="48.2109104" lon="-1.6428223">
        <ele>46.967</ele>
        <time>2018-08-17T10:54:24.806Z</time>
      </trkpt>
      <trkpt lat="48.2109147" lon="-1.6429979">
        <ele>46.846</ele>
        <time>2018-08-17T10:54:28.418Z</time>
      </trkpt>
      <trkpt lat="48.2109303" lon="-1.6431323">
        <ele>47.175</ele>
        <time>2018-08-17T10:54:31.203Z</time>
      </trkpt>
      <trkpt lat="48.2109538" lon="-1.6433003">
        <ele>47.666</ele>
        <time>2018-08-17T10:54:34.710Z</time>
      </trkpt>
      <trkpt lat="48.2109832" lon="-1.6434607">
        <ele>48.007</ele>
        <time>2018-08-17T10:54:38.191Z</time>
      </trkpt>
      <trkpt lat="48.2110071" lon="-1.6436329">
        <ele>48.345</ele>
        <time>2018-08-17T10:54:41.961Z</time>
      </trkpt>
      <trkpt lat="48.2110371" lon="-1.6438024">
        <ele>48.754</ele>
        <time>2018-08-17T10:54:45.715Z</time>
      </trkpt>
      <trkpt lat="48.2110622" lon="-1.6439350">
        <ele>49.031</ele>
        <time>2018-08-17T10:54:48.616Z</time>
      </trkpt>
      <trkpt lat="48.2110872" lon="-1.6440712">
        <ele>49.041</ele>
        <time>2018-08-17T10:54:51.546Z</time>
      </trkpt>
      <trkpt lat="48.2111184" lon="-1.6442010">
        <ele>48.867</ele>
        <time>2018-08-17T10:54:54.352Z</time>
      </trkpt>
      <trkpt lat="48.2111693" lon="-1.6443608">
        <ele>48.734</ele>
        <time>2018-08-17T10:54:57.892Z</time>
      </trkpt>
      <trkpt lat="48.2112236" lon="-1.6445137">
        <ele>48.881</ele>
        <time>2018-08-17T10:55:01.374Z</time>
      </trkpt>
      <trkpt lat="48.2112625" lon="-1.6446484">
        <ele>49.310</ele>
        <time>2018-08-17T10:55:04.356Z</time>
      </trkpt>
      <trkpt lat="48.2113190" lon="-1.6447676">
        <ele>49.750</ele>
        <time>2018-08-17T10:55:07.386Z</time>
      </trkpt>
      <trkpt lat="48.2113799" lon="-1.6448907">
        <ele>49.589</ele>
        <time>2018-08-17T10:55:10.505Z</time>
      </trkpt>
      <trkpt lat="48.2114299" lon="-1.6450140">
        <ele>48.609</ele>
        <time>2018-08-17T10:55:13.348Z</time>
      </trkpt>
      <trkpt lat="48.2114919" lon="-1.6451316">
        <ele>47.254</ele>
        <time>2018-08-17T10:55:16.181Z</time>
      </trkpt>
      <trkpt lat="48.2115465" lon="-1.6452697">
        <ele>45.844</ele>
        <time>2018-08-17T10:55:19.149Z</time>
      </trkpt>
      <trkpt lat="48.2116080" lon="-1.6453906">
        <ele>44.263</ele>
        <time>2018-08-17T10:55:22.002Z</time>
      </trkpt>
      <trkpt lat="48.2116756" lon="-1.6455001">
        <ele>42.581</ele>
        <time>2018-08-17T10:55:24.815Z</time>
      </trkpt>
      <trkpt lat="48.2117676" lon="-1.6455709">
        <ele>40.992</ele>
        <time>2018-08-17T10:55:27.721Z</time>
      </trkpt>
      <trkpt lat="48.2118549" lon="-1.6456455">
        <ele>39.755</ele>
        <time>2018-08-17T10:55:30.542Z</time>
      </trkpt>
      <trkpt lat="48.2119268" lon="-1.6457441">
        <ele>39.349</ele>
        <time>2018-08-17T10:55:33.267Z</time>
      </trkpt>
      <trkpt lat="48.2120139" lon="-1.6458590">
        <ele>39.909</ele>
        <time>2018-08-17T10:55:36.471Z</time>
      </trkpt>
      <trkpt lat="48.2121122" lon="-1.6459413">
        <ele>40.635</ele>
        <time>2018-08-17T10:55:39.563Z</time>
      </trkpt>
      <trkpt lat="48.2121930" lon="-1.6460013">
        <ele>40.856</ele>
        <time>2018-08-17T10:55:42.087Z</time>
      </trkpt>
      <trkpt lat="48.2122861" lon="-1.6460502">
        <ele>40.836</ele>
        <time>2018-08-17T10:55:44.904Z</time>
      </trkpt>
      <trkpt lat="48.2123776" lon="-1.6461111">
        <ele>41.076</ele>
        <time>2018-08-17T10:55:47.884Z</time>
      </trkpt>
      <trkpt lat="48.2124667" lon="-1.6461825">
        <ele>41.484</ele>
        <time>2018-08-17T10:55:50.927Z</time>
      </trkpt>
      <trkpt lat="48.2125584" lon="-1.6462418">
        <ele>41.642</ele>
        <time>2018-08-17T10:55:53.928Z</time>
      </trkpt>
      <trkpt lat="48.2126520" lon="-1.6462819">
        <ele>41.454</ele>
        <time>2018-08-17T10:55:56.781Z</time>
      </trkpt>
      <trkpt lat="48.2127479" lon="-1.6463139">
        <ele>40.976</ele>
        <time>2018-08-17T10:55:59.585Z</time>
      </trkpt>
      <trkpt lat="48.2128389" lon="-1.6463513">
        <ele>40.264</ele>
        <time>2018-08-17T10:56:02.239Z</time>
      </trkpt>
      <trkpt lat="48.2129288" lon="-1.6463860">
        <ele>39.478</ele>
        <time>2018-08-17T10:56:04.843Z</time>
      </trkpt>
      <trkpt lat="48.2130174" lon="-1.6464088">
        <ele>38.681</ele>
        <time>2018-08-17T10:56:07.371Z</time>
      </trkpt>
      <trkpt lat="48.2131294" lon="-1.6464365">
        <ele>37.821</ele>
        <time>2018-08-17T10:56:10.593Z</time>
      </trkpt>
      <trkpt lat="48.2132240" lon="-1.6464484">
        <ele>36.950</ele>
        <time>2018-08-17T10:56:13.335Z</time>
      </trkpt>
      <trkpt lat="48.2133142" lon="-1.6464579">
        <ele>36.277</ele>
        <time>2018-08-17T10:56:16.021Z</time>
      </trkpt>
      <trkpt lat="48.2134099" lon="-1.6464556">
        <ele>35.948</ele>
        <time>2018-08-17T10:56:18.942Z</time>
      </trkpt>
      <trkpt lat="48.2135244" lon="-1.6464400">
        <ele>35.884</ele>
        <time>2018-08-17T10:56:22.534Z</time>
      </trkpt>
      <trkpt lat="48.2136285" lon="-1.6464155">
        <ele>35.899</ele>
        <time>2018-08-17T10:56:25.836Z</time>
      </trkpt>
      <trkpt lat="48.2137214" lon="-1.6463923">
        <ele>35.562</ele>
        <time>2018-08-17T10:56:28.773Z</time>
      </trkpt>
      <trkpt lat="48.2138143" lon="-1.6463668">
        <ele>34.411</ele>
        <time>2018-08-17T10:56:31.710Z</time>
      </trkpt>
      <trkpt lat="48.2139153" lon="-1.6463268">
        <ele>32.677</ele>
        <time>2018-08-17T10:56:35.108Z</time>
      </trkpt>
      <trkpt lat="48.2140121" lon="-1.6462805">
        <ele>30.924</ele>
        <time>2018-08-17T10:56:38.611Z</time>
      </trkpt>
      <trkpt lat="48.2141166" lon="-1.6462430">
        <ele>29.499</ele>
        <time>2018-08-17T10:56:42.445Z</time>
      </trkpt>
      <trkpt lat="48.2142260" lon="-1.6461803">
        <ele>28.742</ele>
        <time>2018-08-17T10:56:46.742Z</time>
      </trkpt>
      <trkpt lat="48.2143341" lon="-1.6461107">
        <ele>28.711</ele>
        <time>2018-08-17T10:56:51.008Z</time>
      </trkpt>
      <trkpt lat="48.2144212" lon="-1.6460516">
        <ele>28.883</ele>
        <time>2018-08-17T10:56:54.418Z</time>
      </trkpt>
      <trkpt lat="48.2145130" lon="-1.6459945">
        <ele>28.851</ele>
        <time>2018-08-17T10:56:57.961Z</time>
      </trkpt>
      <trkpt lat="48.2146234" lon="-1.6459257">
        <ele>28.878</ele>
        <time>2018-08-17T10:57:02.103Z</time>
      </trkpt>
      <trkpt lat="48.2147045" lon="-1.6458522">
        <ele>29.538</ele>
        <time>2018-08-17T10:57:05.278Z</time>
      </trkpt>
      <trkpt lat="48.2147768" lon="-1.6457655">
        <ele>30.851</ele>
        <time>2018-08-17T10:57:08.361Z</time>
      </trkpt>
      <trkpt lat="48.2148479" lon="-1.6456805">
        <ele>32.208</ele>
        <time>2018-08-17T10:57:11.355Z</time>
      </trkpt>
      <trkpt lat="48.2149304" lon="-1.6455703">
        <ele>33.126</ele>
        <time>2018-08-17T10:57:14.809Z</time>
      </trkpt>
      <trkpt lat="48.2150170" lon="-1.6454672">
        <ele>33.612</ele>
        <time>2018-08-17T10:57:18.204Z</time>
      </trkpt>
      <trkpt lat="48.2150853" lon="-1.6453781">
        <ele>34.008</ele>
        <time>2018-08-17T10:57:21.004Z</time>
      </trkpt>
      <trkpt lat="48.2151656" lon="-1.6452484">
        <ele>34.547</ele>
        <time>2018-08-17T10:57:24.636Z</time>
      </trkpt>
      <trkpt lat="48.2152343" lon="-1.6451459">
        <ele>35.156</ele>
        <time>2018-08-17T10:57:27.636Z</time>
      </trkpt>
      <trkpt lat="48.2153043" lon="-1.6450498">
        <ele>35.873</ele>
        <time>2018-08-17T10:57:30.652Z</time>
      </trkpt>
      <trkpt lat="48.2153745" lon="-1.6449417">
        <ele>36.781</ele>
        <time>2018-08-17T10:57:33.957Z</time>
      </trkpt>
      <trkpt lat="48.2154377" lon="-1.6448292">
        <ele>37.674</ele>
        <time>2018-08-17T10:57:37.164Z</time>
      </trkpt>
      <trkpt lat="48.2154967" lon="-1.6446783">
        <ele>38.324</ele>
        <time>2018-08-17T10:57:40.894Z</time>
      </trkpt>
      <trkpt lat="48.2155470" lon="-1.6445469">
        <ele>38.609</ele>
        <time>2018-08-17T10:57:43.980Z</time>
      </trkpt>
      <trkpt lat="48.2155946" lon="-1.6444188">
        <ele>38.475</ele>
        <time>2018-08-17T10:57:46.841Z</time>
      </trkpt>
      <trkpt lat="48.2156444" lon="-1.6442935">
        <ele>38.180</ele>
        <time>2018-08-17T10:57:49.656Z</time>
      </trkpt>
      <trkpt lat="48.2157022" lon="-1.6441428">
        <ele>38.124</ele>
        <time>2018-08-17T10:57:52.988Z</time>
      </trkpt>
      <trkpt lat="48.2157587" lon="-1.6439906">
        <ele>38.356</ele>
        <time>2018-08-17T10:57:56.368Z</time>
      </trkpt>
      <trkpt lat="48.2158078" lon="-1.6438739">
        <ele>38.555</ele>
        <time>2018-08-17T10:57:59.078Z</time>
      </trkpt>
      <trkpt lat="48.2158615" lon="-1.6437520">
        <ele>38.454</ele>
        <time>2018-08-17T10:58:01.940Z</time>
      </trkpt>
      <trkpt lat="48.2159085" lon="-1.6436312">
        <ele>38.060</ele>
        <time>2018-08-17T10:58:04.626Z</time>
      </trkpt>
      <trkpt lat="48.2159530" lon="-1.6435114">
        <ele>37.626</ele>
        <time>2018-08-17T10:58:07.271Z</time>
      </trkpt>
      <trkpt lat="48.2160041" lon="-1.6433973">
        <ele>37.383</ele>
        <time>2018-08-17T10:58:10.016Z</time>
      </trkpt>
      <trkpt lat="48.2160708" lon="-1.6432502">
        <ele>37.527</ele>
        <time>2018-08-17T10:58:13.635Z</time>
      </trkpt>
      <trkpt lat="48.2161260" lon="-1.6431038">
        <ele>38.233</ele>
        <time>2018-08-17T10:58:17.062Z</time>
      </trkpt>
      <trkpt lat="48.2161834" lon="-1.6429645">
        <ele>39.376</ele>
        <time>2018-08-17T10:58:20.333Z</time>
      </trkpt>
      <trkpt lat="48.2162277" lon="-1.6428435">
        <ele>40.443</ele>
        <time>2018-08-17T10:58:23.036Z</time>
      </trkpt>
      <trkpt lat="48.2162735" lon="-1.6427217">
        <ele>41.068</ele>
        <time>2018-08-17T10:58:25.758Z</time>
      </trkpt>
      <trkpt lat="48.2163204" lon="-1.6425905">
        <ele>41.323</ele>
        <time>2018-08-17T10:58:28.674Z</time>
      </trkpt>
      <trkpt lat="48.2163912" lon="-1.6424463">
        <ele>41.401</ele>
        <time>2018-08-17T10:58:32.255Z</time>
      </trkpt>
      <trkpt lat="48.2164558" lon="-1.6422792">
        <ele>41.423</ele>
        <time>2018-08-17T10:58:36.256Z</time>
      </trkpt>
      <trkpt lat="48.2165066" lon="-1.6421435">
        <ele>41.481</ele>
        <time>2018-08-17T10:58:39.645Z</time>
      </trkpt>
      <trkpt lat="48.2165930" lon="-1.6419354">
        <ele>41.593</ele>
        <time>2018-08-17T10:58:45.713Z</time>
      </trkpt>
      <trkpt lat="48.2166461" lon="-1.6417798">
        <ele>41.736</ele>
        <time>2018-08-17T10:58:51.288Z</time>
      </trkpt>
      <trkpt lat="48.2167155" lon="-1.6416475">
        <ele>41.731</ele>
        <time>2018-08-17T10:58:58.493Z</time>
      </trkpt>
      <trkpt lat="48.2167441" lon="-1.6415052">
        <ele>41.246</ele>
        <time>2018-08-17T10:59:04.696Z</time>
      </trkpt>
      <trkpt lat="48.2168002" lon="-1.6413437">
        <ele>40.082</ele>
        <time>2018-08-17T10:59:09.177Z</time>
      </trkpt>
      <trkpt lat="48.2168445" lon="-1.6412207">
        <ele>38.337</ele>
        <time>2018-08-17T10:59:11.004Z</time>
      </trkpt>
      <trkpt lat="48.2168829" lon="-1.6410901">
        <ele>36.551</ele>
        <time>2018-08-17T10:59:12.694Z</time>
      </trkpt>
      <trkpt lat="48.2169396" lon="-1.6409618">
        <ele>35.415</ele>
        <time>2018-08-17T10:59:14.573Z</time>
      </trkpt>
      <trkpt lat="48.2169974" lon="-1.6408306">
        <ele>35.067</ele>
        <time>2018-08-17T10:59:16.635Z</time>
      </trkpt>
      <trkpt lat="48.2170625" lon="-1.6407002">
        <ele>35.150</ele>
        <time>2018-08-17T10:59:19.098Z</time>
      </trkpt>
      <trkpt lat="48.2171347" lon="-1.6405788">
        <ele>35.668</ele>
        <time>2018-08-17T10:59:21.801Z</time>
      </trkpt>
      <trkpt lat="48.2172119" lon="-1.6404511">
        <ele>36.799</ele>
        <time>2018-08-17T10:59:24.862Z</time>
      </trkpt>
      <trkpt lat="48.2172679" lon="-1.6403320">
        <ele>38.106</ele>
        <time>2018-08-17T10:59:27.544Z</time>
      </trkpt>
      <trkpt lat="48.2172881" lon="-1.6401682">
        <ele>38.891</ele>
        <time>2018-08-17T10:59:30.681Z</time>
      </trkpt>
      <trkpt lat="48.2173474" lon="-1.6400264">
        <ele>38.033</ele>
        <time>2018-08-17T10:59:33.815Z</time>
      </trkpt>
      <trkpt lat="48.2174259" lon="-1.6399446">
        <ele>35.261</ele>
        <time>2018-08-17T10:59:36.417Z</time>
      </trkpt>
      <trkpt lat="48.2175144" lon="-1.6398567">
        <ele>32.634</ele>
        <time>2018-08-17T10:59:39.245Z</time>
      </trkpt>
      <trkpt lat="48.2175926" lon="-1.6397692">
        <ele>32.074</ele>
        <time>2018-08-17T10:59:41.841Z</time>
      </trkpt>
      <trkpt lat="48.2176822" lon="-1.6396874">
        <ele>33.032</ele>
        <time>2018-08-17T10:59:44.650Z</time>
      </trkpt>
      <trkpt lat="48.2177687" lon="-1.6396432">
        <ele>34.533</ele>
        <time>2018-08-17T10:59:47.086Z</time>
      </trkpt>
      <trkpt lat="48.2178653" lon="-1.6395920">
        <ele>36.137</ele>
        <time>2018-08-17T10:59:49.912Z</time>
      </trkpt>
      <trkpt lat="48.2179662" lon="-1.6395790">
        <ele>37.957</ele>
        <time>2018-08-17T10:59:52.984Z</time>
      </trkpt>
      <trkpt lat="48.2180669" lon="-1.6395708">
        <ele>40.261</ele>
        <time>2018-08-17T10:59:56.169Z</time>
      </trkpt>
      <trkpt lat="48.2181591" lon="-1.6395614">
        <ele>42.622</ele>
        <time>2018-08-17T10:59:59.131Z</time>
      </trkpt>
      <trkpt lat="48.2182755" lon="-1.6395258">
        <ele>44.245</ele>
        <time>2018-08-17T11:00:02.808Z</time>
      </trkpt>
      <trkpt lat="48.2183871" lon="-1.6394923">
        <ele>45.170</ele>
        <time>2018-08-17T11:00:06.150Z</time>
      </trkpt>
      <trkpt lat="48.2185035" lon="-1.6395074">
        <ele>45.717</ele>
        <time>2018-08-17T11:00:09.725Z</time>
      </trkpt>
      <trkpt lat="48.2185999" lon="-1.6395328">
        <ele>45.706</ele>
        <time>2018-08-17T11:00:12.912Z</time>
      </trkpt>
      <trkpt lat="48.2187072" lon="-1.6394935">
        <ele>44.902</ele>
        <time>2018-08-17T11:00:16.584Z</time>
      </trkpt>
      <trkpt lat="48.2188064" lon="-1.6394559">
        <ele>43.561</ele>
        <time>2018-08-17T11:00:19.854Z</time>
      </trkpt>
      <trkpt lat="48.2189023" lon="-1.6394718">
        <ele>42.195</ele>
        <time>2018-08-17T11:00:22.810Z</time>
      </trkpt>
      <trkpt lat="48.2190134" lon="-1.6394862">
        <ele>41.091</ele>
        <time>2018-08-17T11:00:26.138Z</time>
      </trkpt>
      <trkpt lat="48.2191063" lon="-1.6394713">
        <ele>40.232</ele>
        <time>2018-08-17T11:00:28.915Z</time>
      </trkpt>
      <trkpt lat="48.2192074" lon="-1.6394713">
        <ele>39.196</ele>
        <time>2018-08-17T11:00:32.019Z</time>
      </trkpt>
      <trkpt lat="48.2193222" lon="-1.6394986">
        <ele>37.842</ele>
        <time>2018-08-17T11:00:35.827Z</time>
      </trkpt>
      <trkpt lat="48.2194186" lon="-1.6395287">
        <ele>36.881</ele>
        <time>2018-08-17T11:00:39.368Z</time>
      </trkpt>
      <trkpt lat="48.2195313" lon="-1.6395558">
        <ele>36.873</ele>
        <time>2018-08-17T11:00:43.872Z</time>
      </trkpt>
      <trkpt lat="48.2196480" lon="-1.6395986">
        <ele>37.318</ele>
        <time>2018-08-17T11:00:48.757Z</time>
      </trkpt>
      <trkpt lat="48.2197607" lon="-1.6396289">
        <ele>37.563</ele>
        <time>2018-08-17T11:00:53.151Z</time>
      </trkpt>
      <trkpt lat="48.2198649" lon="-1.6396656">
        <ele>37.512</ele>
        <time>2018-08-17T11:00:56.975Z</time>
      </trkpt>
      <trkpt lat="48.2199617" lon="-1.6396682">
        <ele>37.425</ele>
        <time>2018-08-17T11:01:00.493Z</time>
      </trkpt>
      <trkpt lat="48.2200590" lon="-1.6396682">
        <ele>37.522</ele>
        <time>2018-08-17T11:01:04.127Z</time>
      </trkpt>
      <trkpt lat="48.2201512" lon="-1.6396821">
        <ele>37.842</ele>
        <time>2018-08-17T11:01:07.602Z</time>
      </trkpt>
      <trkpt lat="48.2202697" lon="-1.6396862">
        <ele>38.195</ele>
        <time>2018-08-17T11:01:11.888Z</time>
      </trkpt>
      <trkpt lat="48.2203658" lon="-1.6396861">
        <ele>38.381</ele>
        <time>2018-08-17T11:01:15.366Z</time>
      </trkpt>
      <trkpt lat="48.2204560" lon="-1.6396894">
        <ele>38.497</ele>
        <time>2018-08-17T11:01:18.788Z</time>
      </trkpt>
      <trkpt lat="48.2205515" lon="-1.6396907">
        <ele>38.643</ele>
        <time>2018-08-17T11:01:22.459Z</time>
      </trkpt>
      <trkpt lat="48.2206494" lon="-1.6397081">
        <ele>38.768</ele>
        <time>2018-08-17T11:01:26.196Z</time>
      </trkpt>
      <trkpt lat="48.2207696" lon="-1.6397290">
        <ele>38.840</ele>
        <time>2018-08-17T11:01:30.710Z</time>
      </trkpt>
      <trkpt lat="48.2208798" lon="-1.6397476">
        <ele>38.857</ele>
        <time>2018-08-17T11:01:34.462Z</time>
      </trkpt>
      <trkpt lat="48.2209952" lon="-1.6398299">
        <ele>38.800</ele>
        <time>2018-08-17T11:01:38.594Z</time>
      </trkpt>
      <trkpt lat="48.2210977" lon="-1.6398670">
        <ele>38.715</ele>
        <time>2018-08-17T11:01:42.020Z</time>
      </trkpt>
      <trkpt lat="48.2211893" lon="-1.6398469">
        <ele>38.733</ele>
        <time>2018-08-17T11:01:45.062Z</time>
      </trkpt>
      <trkpt lat="48.2212916" lon="-1.6397980">
        <ele>38.941</ele>
        <time>2018-08-17T11:01:48.705Z</time>
      </trkpt>
      <trkpt lat="48.2214054" lon="-1.6397866">
        <ele>39.250</ele>
        <time>2018-08-17T11:01:52.663Z</time>
      </trkpt>
      <trkpt lat="48.2215014" lon="-1.6398012">
        <ele>39.144</ele>
        <time>2018-08-17T11:01:55.975Z</time>
      </trkpt>
      <trkpt lat="48.2216057" lon="-1.6398135">
        <ele>38.332</ele>
        <time>2018-08-17T11:01:59.433Z</time>
      </trkpt>
      <trkpt lat="48.2217249" lon="-1.6398433">
        <ele>37.606</ele>
        <time>2018-08-17T11:02:03.026Z</time>
      </trkpt>
      <trkpt lat="48.2218375" lon="-1.6398582">
        <ele>37.665</ele>
        <time>2018-08-17T11:02:06.422Z</time>
      </trkpt>
      <trkpt lat="48.2219470" lon="-1.6398731">
        <ele>37.748</ele>
        <time>2018-08-17T11:02:10.079Z</time>
      </trkpt>
      <trkpt lat="48.2220422" lon="-1.6398772">
        <ele>37.110</ele>
        <time>2018-08-17T11:02:13.425Z</time>
      </trkpt>
      <trkpt lat="48.2221489" lon="-1.6398412">
        <ele>36.560</ele>
        <time>2018-08-17T11:02:17.695Z</time>
      </trkpt>
      <trkpt lat="48.2222456" lon="-1.6398192">
        <ele>36.929</ele>
        <time>2018-08-17T11:02:22.004Z</time>
      </trkpt>
      <trkpt lat="48.2223560" lon="-1.6398154">
        <ele>37.679</ele>
        <time>2018-08-17T11:02:28.273Z</time>
      </trkpt>
      <trkpt lat="48.2224926" lon="-1.6398305">
        <ele>38.124</ele>
        <time>2018-08-17T11:02:36.362Z</time>
      </trkpt>
      <trkpt lat="48.2225993" lon="-1.6398684">
        <ele>38.632</ele>
        <time>2018-08-17T11:02:41.128Z</time>
      </trkpt>
      <trkpt lat="48.2227506" lon="-1.6398976">
        <ele>39.619</ele>
        <time>2018-08-17T11:02:46.938Z</time>
      </trkpt>
      <trkpt lat="48.2228589" lon="-1.6399628">
        <ele>40.279</ele>
        <time>2018-08-17T11:02:51.727Z</time>
      </trkpt>
      <trkpt lat="48.2230025" lon="-1.6399862">
        <ele>39.645</ele>
        <time>2018-08-17T11:02:57.351Z</time>
      </trkpt>
      <trkpt lat="48.2230930" lon="-1.6399525">
        <ele>38.209</ele>
        <time>2018-08-17T11:03:00.193Z</time>
      </trkpt>
      <trkpt lat="48.2231790" lon="-1.6400389">
        <ele>37.073</ele>
        <time>2018-08-17T11:03:03.081Z</time>
      </trkpt>
      <trkpt lat="48.2232896" lon="-1.6399758">
        <ele>35.976</ele>
        <time>2018-08-17T11:03:06.839Z</time>
      </trkpt>
      <trkpt lat="48.2234032" lon="-1.6399417">
        <ele>34.241</ele>
        <time>2018-08-17T11:03:10.763Z</time>
      </trkpt>
      <trkpt lat="48.2235016" lon="-1.6399566">
        <ele>32.545</ele>
        <time>2018-08-17T11:03:14.698Z</time>
      </trkpt>
      <trkpt lat="48.2235965" lon="-1.6399487">
        <ele>31.922</ele>
        <time>2018-08-17T11:03:19.459Z</time>
      </trkpt>
      <trkpt lat="48.2236986" lon="-1.6399489">
        <ele>32.281</ele>
        <time>2018-08-17T11:03:25.625Z</time>
      </trkpt>
      <trkpt lat="48.2237996" lon="-1.6399561">
        <ele>32.636</ele>
        <time>2018-08-17T11:03:29.826Z</time>
      </trkpt>
      <trkpt lat="48.2238920" lon="-1.6399695">
        <ele>31.406</ele>
        <time>2018-08-17T11:03:34.677Z</time>
      </trkpt>
      <trkpt lat="48.2239972" lon="-1.6400131">
        <ele>28.474</ele>
        <time>2018-08-17T11:03:42.528Z</time>
      </trkpt>
      <trkpt lat="48.2240884" lon="-1.6400314">
        <ele>26.010</ele>
        <time>2018-08-17T11:03:48.121Z</time>
      </trkpt>
      <trkpt lat="48.2241801" lon="-1.6400478">
        <ele>25.611</ele>
        <time>2018-08-17T11:03:53.367Z</time>
      </trkpt>
      <trkpt lat="48.2242948" lon="-1.6400479">
        <ele>26.581</ele>
        <time>2018-08-17T11:03:58.693Z</time>
      </trkpt>
      <trkpt lat="48.2243850" lon="-1.6400359">
        <ele>27.985</ele>
        <time>2018-08-17T11:04:02.704Z</time>
      </trkpt>
      <trkpt lat="48.2244951" lon="-1.6400554">
        <ele>29.805</ele>
        <time>2018-08-17T11:04:08.193Z</time>
      </trkpt>
      <trkpt lat="48.2245836" lon="-1.6400796">
        <ele>32.009</ele>
        <time>2018-08-17T11:04:12.787Z</time>
      </trkpt>
      <trkpt lat="48.2246947" lon="-1.6400939">
        <ele>33.882</ele>
        <time>2018-08-17T11:04:18.032Z</time>
      </trkpt>
      <trkpt lat="48.2247850" lon="-1.6400882">
        <ele>34.934</ele>
        <time>2018-08-17T11:04:22.065Z</time>
      </trkpt>
      <trkpt lat="48.2248981" lon="-1.6400860">
        <ele>35.456</ele>
        <time>2018-08-17T11:04:27.086Z</time>
      </trkpt>
      <trkpt lat="48.2250081" lon="-1.6400877">
        <ele>35.887</ele>
        <time>2018-08-17T11:04:31.891Z</time>
      </trkpt>
      <trkpt lat="48.2251088" lon="-1.6401118">
        <ele>36.628</ele>
        <time>2018-08-17T11:04:36.342Z</time>
      </trkpt>
      <trkpt lat="48.2252188" lon="-1.6401219">
        <ele>38.017</ele>
        <time>2018-08-17T11:04:41.430Z</time>
      </trkpt>
      <trkpt lat="48.2253243" lon="-1.6401376">
        <ele>39.760</ele>
        <time>2018-08-17T11:04:46.518Z</time>
      </trkpt>
      <trkpt lat="48.2254143" lon="-1.6401732">
        <ele>41.113</ele>
        <time>2018-08-17T11:04:50.592Z</time>
      </trkpt>
      <trkpt lat="48.2255044" lon="-1.6402140">
        <ele>41.730</ele>
        <time>2018-08-17T11:04:54.454Z</time>
      </trkpt>
      <trkpt lat="48.2255968" lon="-1.6402416">
        <ele>41.821</ele>
        <time>2018-08-17T11:04:58.300Z</time>
      </trkpt>
      <trkpt lat="48.2257069" lon="-1.6402410">
        <ele>41.941</ele>
        <time>2018-08-17T11:05:03.000Z</time>
      </trkpt>
      <trkpt lat="48.2257069" lon="-1.6402410">
        <ele>42.398</ele>
        <time>2018-08-17T11:05:22.000Z</time>
      </trkpt>
      <trkpt lat="48.2257069" lon="-1.6402410">
        <ele>42.808</ele>
        <time>2018-08-17T11:06:37.000Z</time>
      </trkpt>
      <trkpt lat="48.2256736" lon="-1.6402049">
        <ele>33.973</ele>
        <time>2018-08-17T11:53:40.000Z</time>
      </trkpt>
      <trkpt lat="48.2256736" lon="-1.6402049">
        <ele>33.958</ele>
        <time>2018-08-17T11:54:23.000Z</time>
      </trkpt>
      <trkpt lat="48.2256736" lon="-1.6402049">
        <ele>33.949</ele>
        <time>2018-08-17T11:54:23.100Z</time>
      </trkpt>
      <trkpt lat="48.2258746" lon="-1.6402235">
        <ele>33.942</ele>
        <time>2018-08-17T11:54:38.305Z</time>
      </trkpt>
      <trkpt lat="48.2259719" lon="-1.6402576">
        <ele>34.433</ele>
        <time>2018-08-17T11:54:43.310Z</time>
      </trkpt>
      <trkpt lat="48.2260579" lon="-1.6402146">
        <ele>35.726</ele>
        <time>2018-08-17T11:54:47.630Z</time>
      </trkpt>
      <trkpt lat="48.2261444" lon="-1.6401766">
        <ele>36.820</ele>
        <time>2018-08-17T11:54:51.564Z</time>
      </trkpt>
      <trkpt lat="48.2262342" lon="-1.6401691">
        <ele>36.828</ele>
        <time>2018-08-17T11:54:55.142Z</time>
      </trkpt>
      <trkpt lat="48.2263341" lon="-1.6401792">
        <ele>36.266</ele>
        <time>2018-08-17T11:54:58.884Z</time>
      </trkpt>
      <trkpt lat="48.2264365" lon="-1.6402347">
        <ele>35.893</ele>
        <time>2018-08-17T11:55:02.883Z</time>
      </trkpt>
      <trkpt lat="48.2265306" lon="-1.6402907">
        <ele>35.975</ele>
        <time>2018-08-17T11:55:06.617Z</time>
      </trkpt>
      <trkpt lat="48.2266254" lon="-1.6403328">
        <ele>36.733</ele>
        <time>2018-08-17T11:55:10.219Z</time>
      </trkpt>
      <trkpt lat="48.2267189" lon="-1.6403768">
        <ele>38.164</ele>
        <time>2018-08-17T11:55:13.706Z</time>
      </trkpt>
      <trkpt lat="48.2268158" lon="-1.6403854">
        <ele>39.953</ele>
        <time>2018-08-17T11:55:17.086Z</time>
      </trkpt>
      <trkpt lat="48.2269188" lon="-1.6404162">
        <ele>41.874</ele>
        <time>2018-08-17T11:55:20.708Z</time>
      </trkpt>
      <trkpt lat="48.2270182" lon="-1.6404617">
        <ele>43.581</ele>
        <time>2018-08-17T11:55:24.344Z</time>
      </trkpt>
      <trkpt lat="48.2271216" lon="-1.6404901">
        <ele>44.612</ele>
        <time>2018-08-17T11:55:28.025Z</time>
      </trkpt>
      <trkpt lat="48.2272039" lon="-1.6405483">
        <ele>45.026</ele>
        <time>2018-08-17T11:55:31.121Z</time>
      </trkpt>
      <trkpt lat="48.2272876" lon="-1.6406163">
        <ele>45.063</ele>
        <time>2018-08-17T11:55:34.367Z</time>
      </trkpt>
      <trkpt lat="48.2273889" lon="-1.6406436">
        <ele>44.805</ele>
        <time>2018-08-17T11:55:37.953Z</time>
      </trkpt>
      <trkpt lat="48.2274866" lon="-1.6407255">
        <ele>44.287</ele>
        <time>2018-08-17T11:55:41.787Z</time>
      </trkpt>
      <trkpt lat="48.2275832" lon="-1.6407956">
        <ele>43.620</ele>
        <time>2018-08-17T11:55:45.525Z</time>
      </trkpt>
      <trkpt lat="48.2276782" lon="-1.6408223">
        <ele>43.045</ele>
        <time>2018-08-17T11:55:48.917Z</time>
      </trkpt>
      <trkpt lat="48.2277900" lon="-1.6408513">
        <ele>42.504</ele>
        <time>2018-08-17T11:55:52.872Z</time>
      </trkpt>
      <trkpt lat="48.2278762" lon="-1.6408124">
        <ele>41.744</ele>
        <time>2018-08-17T11:55:56.007Z</time>
      </trkpt>
      <trkpt lat="48.2279947" lon="-1.6407865">
        <ele>40.473</ele>
        <time>2018-08-17T11:56:00.171Z</time>
      </trkpt>
      <trkpt lat="48.2281044" lon="-1.6407722">
        <ele>38.440</ele>
        <time>2018-08-17T11:56:04.025Z</time>
      </trkpt>
      <trkpt lat="48.2282174" lon="-1.6408089">
        <ele>36.123</ele>
        <time>2018-08-17T11:56:08.043Z</time>
      </trkpt>
      <trkpt lat="48.2283316" lon="-1.6408509">
        <ele>34.436</ele>
        <time>2018-08-17T11:56:12.062Z</time>
      </trkpt>
      <trkpt lat="48.2284426" lon="-1.6408884">
        <ele>33.459</ele>
        <time>2018-08-17T11:56:16.001Z</time>
      </trkpt>
      <trkpt lat="48.2285447" lon="-1.6409460">
        <ele>32.785</ele>
        <time>2018-08-17T11:56:19.917Z</time>
      </trkpt>
      <trkpt lat="48.2286399" lon="-1.6410091">
        <ele>32.192</ele>
        <time>2018-08-17T11:56:23.834Z</time>
      </trkpt>
      <trkpt lat="48.2287257" lon="-1.6410545">
        <ele>31.678</ele>
        <time>2018-08-17T11:56:27.315Z</time>
      </trkpt>
      <trkpt lat="48.2288250" lon="-1.6410880">
        <ele>31.719</ele>
        <time>2018-08-17T11:56:31.195Z</time>
      </trkpt>
      <trkpt lat="48.2289214" lon="-1.6411388">
        <ele>32.580</ele>
        <time>2018-08-17T11:56:35.097Z</time>
      </trkpt>
      <trkpt lat="48.2290263" lon="-1.6412026">
        <ele>33.582</ele>
        <time>2018-08-17T11:56:39.378Z</time>
      </trkpt>
      <trkpt lat="48.2291245" lon="-1.6412722">
        <ele>33.806</ele>
        <time>2018-08-17T11:56:43.351Z</time>
      </trkpt>
      <trkpt lat="48.2292328" lon="-1.6413448">
        <ele>33.167</ele>
        <time>2018-08-17T11:56:47.582Z</time>
      </trkpt>
      <trkpt lat="48.2293486" lon="-1.6413750">
        <ele>32.448</ele>
        <time>2018-08-17T11:56:51.794Z</time>
      </trkpt>
      <trkpt lat="48.2294535" lon="-1.6414284">
        <ele>32.281</ele>
        <time>2018-08-17T11:56:55.789Z</time>
      </trkpt>
      <trkpt lat="48.2295690" lon="-1.6414354">
        <ele>32.443</ele>
        <time>2018-08-17T11:56:59.954Z</time>
      </trkpt>
      <trkpt lat="48.2296775" lon="-1.6414545">
        <ele>32.442</ele>
        <time>2018-08-17T11:57:03.876Z</time>
      </trkpt>
      <trkpt lat="48.2297824" lon="-1.6414849">
        <ele>32.124</ele>
        <time>2018-08-17T11:57:07.577Z</time>
      </trkpt>
      <trkpt lat="48.2298716" lon="-1.6415158">
        <ele>31.763</ele>
        <time>2018-08-17T11:57:10.664Z</time>
      </trkpt>
      <trkpt lat="48.2299835" lon="-1.6415647">
        <ele>31.784</ele>
        <time>2018-08-17T11:57:14.746Z</time>
      </trkpt>
      <trkpt lat="48.2300783" lon="-1.6416521">
        <ele>32.384</ele>
        <time>2018-08-17T11:57:18.794Z</time>
      </trkpt>
      <trkpt lat="48.2301840" lon="-1.6417265">
        <ele>33.400</ele>
        <time>2018-08-17T11:57:23.039Z</time>
      </trkpt>
      <trkpt lat="48.2302888" lon="-1.6417713">
        <ele>34.530</ele>
        <time>2018-08-17T11:57:27.003Z</time>
      </trkpt>
      <trkpt lat="48.2303828" lon="-1.6418153">
        <ele>35.503</ele>
        <time>2018-08-17T11:57:30.674Z</time>
      </trkpt>
      <trkpt lat="48.2304768" lon="-1.6418705">
        <ele>35.877</ele>
        <time>2018-08-17T11:57:34.508Z</time>
      </trkpt>
      <trkpt lat="48.2305789" lon="-1.6419288">
        <ele>35.533</ele>
        <time>2018-08-17T11:57:38.712Z</time>
      </trkpt>
      <trkpt lat="48.2306724" lon="-1.6419873">
        <ele>34.980</ele>
        <time>2018-08-17T11:57:42.554Z</time>
      </trkpt>
      <trkpt lat="48.2307786" lon="-1.6420266">
        <ele>34.657</ele>
        <time>2018-08-17T11:57:46.515Z</time>
      </trkpt>
      <trkpt lat="48.2308880" lon="-1.6420352">
        <ele>34.409</ele>
        <time>2018-08-17T11:57:50.354Z</time>
      </trkpt>
      <trkpt lat="48.2309949" lon="-1.6420479">
        <ele>34.023</ele>
        <time>2018-08-17T11:57:54.024Z</time>
      </trkpt>
      <trkpt lat="48.2310863" lon="-1.6420840">
        <ele>33.764</ele>
        <time>2018-08-17T11:57:57.462Z</time>
      </trkpt>
      <trkpt lat="48.2311772" lon="-1.6421044">
        <ele>33.892</ele>
        <time>2018-08-17T11:58:01.220Z</time>
      </trkpt>
      <trkpt lat="48.2312707" lon="-1.6421633">
        <ele>34.139</ele>
        <time>2018-08-17T11:58:05.539Z</time>
      </trkpt>
      <trkpt lat="48.2313700" lon="-1.6422421">
        <ele>34.214</ele>
        <time>2018-08-17T11:58:10.050Z</time>
      </trkpt>
      <trkpt lat="48.2314514" lon="-1.6423051">
        <ele>34.538</ele>
        <time>2018-08-17T11:58:13.390Z</time>
      </trkpt>
      <trkpt lat="48.2315655" lon="-1.6423443">
        <ele>35.455</ele>
        <time>2018-08-17T11:58:17.642Z</time>
      </trkpt>
      <trkpt lat="48.2316597" lon="-1.6423793">
        <ele>36.343</ele>
        <time>2018-08-17T11:58:21.279Z</time>
      </trkpt>
      <trkpt lat="48.2317535" lon="-1.6424423">
        <ele>36.455</ele>
        <time>2018-08-17T11:58:25.080Z</time>
      </trkpt>
      <trkpt lat="48.2318493" lon="-1.6425267">
        <ele>35.947</ele>
        <time>2018-08-17T11:58:29.084Z</time>
      </trkpt>
      <trkpt lat="48.2319247" lon="-1.6426165">
        <ele>35.601</ele>
        <time>2018-08-17T11:58:32.678Z</time>
      </trkpt>
      <trkpt lat="48.2320192" lon="-1.6426977">
        <ele>35.867</ele>
        <time>2018-08-17T11:58:36.762Z</time>
      </trkpt>
      <trkpt lat="48.2321143" lon="-1.6427904">
        <ele>36.403</ele>
        <time>2018-08-17T11:58:40.711Z</time>
      </trkpt>
      <trkpt lat="48.2321852" lon="-1.6428865">
        <ele>36.895</ele>
        <time>2018-08-17T11:58:43.940Z</time>
      </trkpt>
      <trkpt lat="48.2322615" lon="-1.6429705">
        <ele>37.339</ele>
        <time>2018-08-17T11:58:47.064Z</time>
      </trkpt>
      <trkpt lat="48.2323365" lon="-1.6430532">
        <ele>37.609</ele>
        <time>2018-08-17T11:58:50.085Z</time>
      </trkpt>
      <trkpt lat="48.2324149" lon="-1.6431352">
        <ele>37.578</ele>
        <time>2018-08-17T11:58:53.234Z</time>
      </trkpt>
      <trkpt lat="48.2324889" lon="-1.6432138">
        <ele>37.207</ele>
        <time>2018-08-17T11:58:56.306Z</time>
      </trkpt>
      <trkpt lat="48.2325715" lon="-1.6433349">
        <ele>36.540</ele>
        <time>2018-08-17T11:59:00.341Z</time>
      </trkpt>
      <trkpt lat="48.2326527" lon="-1.6434456">
        <ele>35.843</ele>
        <time>2018-08-17T11:59:04.155Z</time>
      </trkpt>
      <trkpt lat="48.2327437" lon="-1.6435404">
        <ele>35.657</ele>
        <time>2018-08-17T11:59:08.150Z</time>
      </trkpt>
      <trkpt lat="48.2328164" lon="-1.6436291">
        <ele>36.368</ele>
        <time>2018-08-17T11:59:11.638Z</time>
      </trkpt>
      <trkpt lat="48.2329058" lon="-1.6437186">
        <ele>37.583</ele>
        <time>2018-08-17T11:59:15.706Z</time>
      </trkpt>
      <trkpt lat="48.2329866" lon="-1.6437967">
        <ele>38.460</ele>
        <time>2018-08-17T11:59:19.429Z</time>
      </trkpt>
      <trkpt lat="48.2330700" lon="-1.6438924">
        <ele>38.691</ele>
        <time>2018-08-17T11:59:23.376Z</time>
      </trkpt>
      <trkpt lat="48.2331552" lon="-1.6439987">
        <ele>38.548</ele>
        <time>2018-08-17T11:59:27.463Z</time>
      </trkpt>
      <trkpt lat="48.2332319" lon="-1.6441088">
        <ele>38.391</ele>
        <time>2018-08-17T11:59:31.386Z</time>
      </trkpt>
      <trkpt lat="48.2333186" lon="-1.6441951">
        <ele>38.395</ele>
        <time>2018-08-17T11:59:35.395Z</time>
      </trkpt>
      <trkpt lat="48.2333886" lon="-1.6442883">
        <ele>38.611</ele>
        <time>2018-08-17T11:59:39.159Z</time>
      </trkpt>
      <trkpt lat="48.2334777" lon="-1.6443599">
        <ele>38.980</ele>
        <time>2018-08-17T11:59:43.116Z</time>
      </trkpt>
      <trkpt lat="48.2335643" lon="-1.6444627">
        <ele>39.309</ele>
        <time>2018-08-17T11:59:47.186Z</time>
      </trkpt>
      <trkpt lat="48.2336557" lon="-1.6445758">
        <ele>39.332</ele>
        <time>2018-08-17T11:59:51.277Z</time>
      </trkpt>
      <trkpt lat="48.2337223" lon="-1.6446835">
        <ele>39.161</ele>
        <time>2018-08-17T11:59:54.509Z</time>
      </trkpt>
      <trkpt lat="48.2337913" lon="-1.6447775">
        <ele>39.180</ele>
        <time>2018-08-17T11:59:57.621Z</time>
      </trkpt>
      <trkpt lat="48.2338752" lon="-1.6448914">
        <ele>39.502</ele>
        <time>2018-08-17T12:00:01.554Z</time>
      </trkpt>
      <trkpt lat="48.2339525" lon="-1.6449947">
        <ele>39.948</ele>
        <time>2018-08-17T12:00:05.301Z</time>
      </trkpt>
      <trkpt lat="48.2340402" lon="-1.6450922">
        <ele>40.568</ele>
        <time>2018-08-17T12:00:09.390Z</time>
      </trkpt>
      <trkpt lat="48.2341184" lon="-1.6451907">
        <ele>41.348</ele>
        <time>2018-08-17T12:00:13.266Z</time>
      </trkpt>
      <trkpt lat="48.2342062" lon="-1.6452844">
        <ele>42.034</ele>
        <time>2018-08-17T12:00:17.478Z</time>
      </trkpt>
      <trkpt lat="48.2342749" lon="-1.6453746">
        <ele>42.732</ele>
        <time>2018-08-17T12:00:21.048Z</time>
      </trkpt>
      <trkpt lat="48.2343579" lon="-1.6454537">
        <ele>43.630</ele>
        <time>2018-08-17T12:00:24.665Z</time>
      </trkpt>
      <trkpt lat="48.2344475" lon="-1.6455497">
        <ele>44.585</ele>
        <time>2018-08-17T12:00:28.620Z</time>
      </trkpt>
      <trkpt lat="48.2345206" lon="-1.6456600">
        <ele>45.317</ele>
        <time>2018-08-17T12:00:32.375Z</time>
      </trkpt>
      <trkpt lat="48.2346108" lon="-1.6457636">
        <ele>45.632</ele>
        <time>2018-08-17T12:00:36.451Z</time>
      </trkpt>
      <trkpt lat="48.2346929" lon="-1.6458746">
        <ele>45.581</ele>
        <time>2018-08-17T12:00:40.290Z</time>
      </trkpt>
      <trkpt lat="48.2347877" lon="-1.6459739">
        <ele>45.352</ele>
        <time>2018-08-17T12:00:44.179Z</time>
      </trkpt>
      <trkpt lat="48.2348921" lon="-1.6460493">
        <ele>44.968</ele>
        <time>2018-08-17T12:00:48.105Z</time>
      </trkpt>
      <trkpt lat="48.2349894" lon="-1.6460953">
        <ele>44.411</ele>
        <time>2018-08-17T12:00:51.744Z</time>
      </trkpt>
      <trkpt lat="48.2350635" lon="-1.6461961">
        <ele>43.760</ele>
        <time>2018-08-17T12:00:55.482Z</time>
      </trkpt>
      <trkpt lat="48.2351308" lon="-1.6463308">
        <ele>43.289</ele>
        <time>2018-08-17T12:00:59.695Z</time>
      </trkpt>
      <trkpt lat="48.2352118" lon="-1.6464382">
        <ele>43.134</ele>
        <time>2018-08-17T12:01:03.747Z</time>
      </trkpt>
      <trkpt lat="48.2352961" lon="-1.6465359">
        <ele>42.922</ele>
        <time>2018-08-17T12:01:07.760Z</time>
      </trkpt>
      <trkpt lat="48.2353742" lon="-1.6466536">
        <ele>42.369</ele>
        <time>2018-08-17T12:01:11.877Z</time>
      </trkpt>
      <trkpt lat="48.2354500" lon="-1.6467750">
        <ele>41.887</ele>
        <time>2018-08-17T12:01:15.930Z</time>
      </trkpt>
      <trkpt lat="48.2355220" lon="-1.6468989">
        <ele>42.022</ele>
        <time>2018-08-17T12:01:19.922Z</time>
      </trkpt>
      <trkpt lat="48.2355992" lon="-1.6470059">
        <ele>42.626</ele>
        <time>2018-08-17T12:01:23.743Z</time>
      </trkpt>
      <trkpt lat="48.2356833" lon="-1.6471178">
        <ele>43.162</ele>
        <time>2018-08-17T12:01:27.735Z</time>
      </trkpt>
      <trkpt lat="48.2357659" lon="-1.6472398">
        <ele>43.070</ele>
        <time>2018-08-17T12:01:31.791Z</time>
      </trkpt>
      <trkpt lat="48.2358473" lon="-1.6473392">
        <ele>42.194</ele>
        <time>2018-08-17T12:01:35.557Z</time>
      </trkpt>
      <trkpt lat="48.2359160" lon="-1.6474518">
        <ele>41.091</ele>
        <time>2018-08-17T12:01:39.314Z</time>
      </trkpt>
      <trkpt lat="48.2359842" lon="-1.6475818">
        <ele>40.563</ele>
        <time>2018-08-17T12:01:43.333Z</time>
      </trkpt>
      <trkpt lat="48.2360568" lon="-1.6477067">
        <ele>40.760</ele>
        <time>2018-08-17T12:01:47.292Z</time>
      </trkpt>
      <trkpt lat="48.2361379" lon="-1.6478036">
        <ele>41.169</ele>
        <time>2018-08-17T12:01:51.140Z</time>
      </trkpt>
      <trkpt lat="48.2362036" lon="-1.6479396">
        <ele>41.241</ele>
        <time>2018-08-17T12:01:55.563Z</time>
      </trkpt>
      <trkpt lat="48.2362622" lon="-1.6480806">
        <ele>40.850</ele>
        <time>2018-08-17T12:02:00.381Z</time>
      </trkpt>
      <trkpt lat="48.2363137" lon="-1.6481951">
        <ele>40.052</ele>
        <time>2018-08-17T12:02:04.565Z</time>
      </trkpt>
      <trkpt lat="48.2363634" lon="-1.6483144">
        <ele>39.092</ele>
        <time>2018-08-17T12:02:08.836Z</time>
      </trkpt>
      <trkpt lat="48.2364242" lon="-1.6484350">
        <ele>38.564</ele>
        <time>2018-08-17T12:02:13.593Z</time>
      </trkpt>
      <trkpt lat="48.2364807" lon="-1.6485675">
        <ele>39.091</ele>
        <time>2018-08-17T12:02:19.000Z</time>
      </trkpt>
      <trkpt lat="48.2364807" lon="-1.6485675">
        <ele>40.429</ele>
        <time>2018-08-17T12:02:30.000Z</time>
      </trkpt>
      <trkpt lat="48.2364807" lon="-1.6485675">
        <ele>41.403</ele>
        <time>2018-08-17T12:02:30.688Z</time>
      </trkpt>
      <trkpt lat="48.2366058" lon="-1.6488266">
        <ele>41.353</ele>
        <time>2018-08-17T12:02:44.843Z</time>
      </trkpt>
      <trkpt lat="48.2366675" lon="-1.6489586">
        <ele>41.582</ele>
        <time>2018-08-17T12:02:48.803Z</time>
      </trkpt>
      <trkpt lat="48.2367357" lon="-1.6490775">
        <ele>43.175</ele>
        <time>2018-08-17T12:02:52.637Z</time>
      </trkpt>
      <trkpt lat="48.2368061" lon="-1.6491770">
        <ele>45.003</ele>
        <time>2018-08-17T12:02:56.226Z</time>
      </trkpt>
      <trkpt lat="48.2368653" lon="-1.6492925">
        <ele>45.404</ele>
        <time>2018-08-17T12:02:59.891Z</time>
      </trkpt>
      <trkpt lat="48.2369216" lon="-1.6494005">
        <ele>44.350</ele>
        <time>2018-08-17T12:03:03.399Z</time>
      </trkpt>
      <trkpt lat="48.2369855" lon="-1.6495171">
        <ele>42.591</ele>
        <time>2018-08-17T12:03:07.239Z</time>
      </trkpt>
      <trkpt lat="48.2370548" lon="-1.6496342">
        <ele>40.813</ele>
        <time>2018-08-17T12:03:11.197Z</time>
      </trkpt>
      <trkpt lat="48.2371228" lon="-1.6497684">
        <ele>39.869</ele>
        <time>2018-08-17T12:03:15.544Z</time>
      </trkpt>
      <trkpt lat="48.2372003" lon="-1.6498627">
        <ele>40.190</ele>
        <time>2018-08-17T12:03:19.529Z</time>
      </trkpt>
      <trkpt lat="48.2372854" lon="-1.6499712">
        <ele>40.744</ele>
        <time>2018-08-17T12:03:23.840Z</time>
      </trkpt>
      <trkpt lat="48.2373353" lon="-1.6500998">
        <ele>40.626</ele>
        <time>2018-08-17T12:03:27.266Z</time>
      </trkpt>
      <trkpt lat="48.2373909" lon="-1.6502312">
        <ele>40.131</ele>
        <time>2018-08-17T12:03:30.514Z</time>
      </trkpt>
      <trkpt lat="48.2374546" lon="-1.6503443">
        <ele>39.788</ele>
        <time>2018-08-17T12:03:33.477Z</time>
      </trkpt>
      <trkpt lat="48.2375039" lon="-1.6504725">
        <ele>39.619</ele>
        <time>2018-08-17T12:03:36.434Z</time>
      </trkpt>
      <trkpt lat="48.2375748" lon="-1.6506093">
        <ele>39.478</ele>
        <time>2018-08-17T12:03:39.926Z</time>
      </trkpt>
      <trkpt lat="48.2376336" lon="-1.6507213">
        <ele>39.160</ele>
        <time>2018-08-17T12:03:42.801Z</time>
      </trkpt>
      <trkpt lat="48.2377007" lon="-1.6508422">
        <ele>38.605</ele>
        <time>2018-08-17T12:03:45.874Z</time>
      </trkpt>
      <trkpt lat="48.2377491" lon="-1.6509835">
        <ele>38.088</ele>
        <time>2018-08-17T12:03:48.940Z</time>
      </trkpt>
      <trkpt lat="48.2377957" lon="-1.6511118">
        <ele>38.068</ele>
        <time>2018-08-17T12:03:51.842Z</time>
      </trkpt>
      <trkpt lat="48.2378419" lon="-1.6512277">
        <ele>38.923</ele>
        <time>2018-08-17T12:03:54.655Z</time>
      </trkpt>
      <trkpt lat="48.2379222" lon="-1.6513463">
        <ele>40.396</ele>
        <time>2018-08-17T12:03:58.425Z</time>
      </trkpt>
      <trkpt lat="48.2380084" lon="-1.6514481">
        <ele>41.577</ele>
        <time>2018-08-17T12:04:02.474Z</time>
      </trkpt>
      <trkpt lat="48.2380921" lon="-1.6515725">
        <ele>41.998</ele>
        <time>2018-08-17T12:04:06.457Z</time>
      </trkpt>
      <trkpt lat="48.2381635" lon="-1.6516720">
        <ele>41.766</ele>
        <time>2018-08-17T12:04:09.413Z</time>
      </trkpt>
      <trkpt lat="48.2382152" lon="-1.6518163">
        <ele>41.150</ele>
        <time>2018-08-17T12:04:12.666Z</time>
      </trkpt>
      <trkpt lat="48.2382660" lon="-1.6519471">
        <ele>40.523</ele>
        <time>2018-08-17T12:04:15.634Z</time>
      </trkpt>
      <trkpt lat="48.2383358" lon="-1.6520838">
        <ele>40.170</ele>
        <time>2018-08-17T12:04:18.914Z</time>
      </trkpt>
      <trkpt lat="48.2384066" lon="-1.6522120">
        <ele>40.427</ele>
        <time>2018-08-17T12:04:21.999Z</time>
      </trkpt>
      <trkpt lat="48.2384819" lon="-1.6523185">
        <ele>41.322</ele>
        <time>2018-08-17T12:04:24.938Z</time>
      </trkpt>
      <trkpt lat="48.2385420" lon="-1.6524189">
        <ele>42.091</ele>
        <time>2018-08-17T12:04:27.599Z</time>
      </trkpt>
      <trkpt lat="48.2386148" lon="-1.6525635">
        <ele>41.918</ele>
        <time>2018-08-17T12:04:31.366Z</time>
      </trkpt>
      <trkpt lat="48.2386804" lon="-1.6526891">
        <ele>40.945</ele>
        <time>2018-08-17T12:04:34.938Z</time>
      </trkpt>
      <trkpt lat="48.2387556" lon="-1.6528216">
        <ele>39.997</ele>
        <time>2018-08-17T12:04:39.047Z</time>
      </trkpt>
      <trkpt lat="48.2388171" lon="-1.6529658">
        <ele>39.624</ele>
        <time>2018-08-17T12:04:42.666Z</time>
      </trkpt>
      <trkpt lat="48.2388707" lon="-1.6531255">
        <ele>39.714</ele>
        <time>2018-08-17T12:04:46.156Z</time>
      </trkpt>
      <trkpt lat="48.2389313" lon="-1.6532462">
        <ele>39.938</ele>
        <time>2018-08-17T12:04:49.185Z</time>
      </trkpt>
      <trkpt lat="48.2389960" lon="-1.6533671">
        <ele>40.044</ele>
        <time>2018-08-17T12:04:52.411Z</time>
      </trkpt>
      <trkpt lat="48.2390804" lon="-1.6534789">
        <ele>39.975</ele>
        <time>2018-08-17T12:04:56.014Z</time>
      </trkpt>
      <trkpt lat="48.2391461" lon="-1.6535870">
        <ele>39.571</ele>
        <time>2018-08-17T12:04:59.163Z</time>
      </trkpt>
      <trkpt lat="48.2392032" lon="-1.6536988">
        <ele>38.706</ele>
        <time>2018-08-17T12:05:02.209Z</time>
      </trkpt>
      <trkpt lat="48.2392742" lon="-1.6538426">
        <ele>37.687</ele>
        <time>2018-08-17T12:05:06.107Z</time>
      </trkpt>
      <trkpt lat="48.2393360" lon="-1.6539724">
        <ele>36.932</ele>
        <time>2018-08-17T12:05:09.421Z</time>
      </trkpt>
      <trkpt lat="48.2393976" lon="-1.6540827">
        <ele>36.372</ele>
        <time>2018-08-17T12:05:12.316Z</time>
      </trkpt>
      <trkpt lat="48.2394631" lon="-1.6542130">
        <ele>35.901</ele>
        <time>2018-08-17T12:05:15.465Z</time>
      </trkpt>
      <trkpt lat="48.2395250" lon="-1.6543582">
        <ele>35.657</ele>
        <time>2018-08-17T12:05:18.606Z</time>
      </trkpt>
      <trkpt lat="48.2395753" lon="-1.6545205">
        <ele>36.143</ele>
        <time>2018-08-17T12:05:21.769Z</time>
      </trkpt>
      <trkpt lat="48.2396238" lon="-1.6546780">
        <ele>37.466</ele>
        <time>2018-08-17T12:05:24.748Z</time>
      </trkpt>
      <trkpt lat="48.2396813" lon="-1.6548391">
        <ele>38.665</ele>
        <time>2018-08-17T12:05:27.806Z</time>
      </trkpt>
      <trkpt lat="48.2397580" lon="-1.6549746">
        <ele>38.937</ele>
        <time>2018-08-17T12:05:30.790Z</time>
      </trkpt>
      <trkpt lat="48.2398331" lon="-1.6550866">
        <ele>38.755</ele>
        <time>2018-08-17T12:05:33.501Z</time>
      </trkpt>
      <trkpt lat="48.2399049" lon="-1.6552043">
        <ele>38.710</ele>
        <time>2018-08-17T12:05:36.279Z</time>
      </trkpt>
      <trkpt lat="48.2399684" lon="-1.6553246">
        <ele>38.734</ele>
        <time>2018-08-17T12:05:39.056Z</time>
      </trkpt>
      <trkpt lat="48.2400294" lon="-1.6554296">
        <ele>38.480</ele>
        <time>2018-08-17T12:05:41.714Z</time>
      </trkpt>
      <trkpt lat="48.2400867" lon="-1.6555343">
        <ele>37.798</ele>
        <time>2018-08-17T12:05:44.407Z</time>
      </trkpt>
      <trkpt lat="48.2401501" lon="-1.6556340">
        <ele>36.748</ele>
        <time>2018-08-17T12:05:47.147Z</time>
      </trkpt>
      <trkpt lat="48.2402199" lon="-1.6557521">
        <ele>35.665</ele>
        <time>2018-08-17T12:05:50.197Z</time>
      </trkpt>
      <trkpt lat="48.2402716" lon="-1.6558896">
        <ele>34.930</ele>
        <time>2018-08-17T12:05:53.163Z</time>
      </trkpt>
      <trkpt lat="48.2403250" lon="-1.6560147">
        <ele>34.599</ele>
        <time>2018-08-17T12:05:55.957Z</time>
      </trkpt>
      <trkpt lat="48.2403834" lon="-1.6561366">
        <ele>34.441</ele>
        <time>2018-08-17T12:05:58.843Z</time>
      </trkpt>
      <trkpt lat="48.2404415" lon="-1.6562579">
        <ele>34.204</ele>
        <time>2018-08-17T12:06:01.731Z</time>
      </trkpt>
      <trkpt lat="48.2405041" lon="-1.6564084">
        <ele>33.850</ele>
        <time>2018-08-17T12:06:05.339Z</time>
      </trkpt>
      <trkpt lat="48.2405645" lon="-1.6565475">
        <ele>33.560</ele>
        <time>2018-08-17T12:06:09.004Z</time>
      </trkpt>
      <trkpt lat="48.2406177" lon="-1.6566659">
        <ele>33.559</ele>
        <time>2018-08-17T12:06:12.204Z</time>
      </trkpt>
      <trkpt lat="48.2406694" lon="-1.6567899">
        <ele>33.879</ele>
        <time>2018-08-17T12:06:15.288Z</time>
      </trkpt>
      <trkpt lat="48.2407144" lon="-1.6569122">
        <ele>34.430</ele>
        <time>2018-08-17T12:06:18.094Z</time>
      </trkpt>
      <trkpt lat="48.2407565" lon="-1.6570396">
        <ele>35.178</ele>
        <time>2018-08-17T12:06:20.905Z</time>
      </trkpt>
      <trkpt lat="48.2408270" lon="-1.6571702">
        <ele>35.945</ele>
        <time>2018-08-17T12:06:24.276Z</time>
      </trkpt>
      <trkpt lat="48.2409072" lon="-1.6573082">
        <ele>36.177</ele>
        <time>2018-08-17T12:06:28.077Z</time>
      </trkpt>
      <trkpt lat="48.2409945" lon="-1.6574421">
        <ele>35.705</ele>
        <time>2018-08-17T12:06:32.023Z</time>
      </trkpt>
      <trkpt lat="48.2410576" lon="-1.6575609">
        <ele>35.289</ele>
        <time>2018-08-17T12:06:35.143Z</time>
      </trkpt>
      <trkpt lat="48.2411237" lon="-1.6576871">
        <ele>35.547</ele>
        <time>2018-08-17T12:06:38.271Z</time>
      </trkpt>
      <trkpt lat="48.2411823" lon="-1.6578182">
        <ele>35.916</ele>
        <time>2018-08-17T12:06:41.215Z</time>
      </trkpt>
      <trkpt lat="48.2412428" lon="-1.6579450">
        <ele>35.788</ele>
        <time>2018-08-17T12:06:44.073Z</time>
      </trkpt>
      <trkpt lat="48.2413221" lon="-1.6580684">
        <ele>35.546</ele>
        <time>2018-08-17T12:06:47.258Z</time>
      </trkpt>
      <trkpt lat="48.2413951" lon="-1.6582020">
        <ele>35.775</ele>
        <time>2018-08-17T12:06:50.556Z</time>
      </trkpt>
      <trkpt lat="48.2414582" lon="-1.6583306">
        <ele>36.632</ele>
        <time>2018-08-17T12:06:53.625Z</time>
      </trkpt>
      <trkpt lat="48.2415220" lon="-1.6584510">
        <ele>37.807</ele>
        <time>2018-08-17T12:06:56.530Z</time>
      </trkpt>
      <trkpt lat="48.2415994" lon="-1.6585679">
        <ele>38.511</ele>
        <time>2018-08-17T12:06:59.688Z</time>
      </trkpt>
      <trkpt lat="48.2416862" lon="-1.6586954">
        <ele>38.047</ele>
        <time>2018-08-17T12:07:03.316Z</time>
      </trkpt>
      <trkpt lat="48.2417534" lon="-1.6588081">
        <ele>36.753</ele>
        <time>2018-08-17T12:07:06.481Z</time>
      </trkpt>
      <trkpt lat="48.2418179" lon="-1.6589488">
        <ele>35.719</ele>
        <time>2018-08-17T12:07:09.986Z</time>
      </trkpt>
      <trkpt lat="48.2418712" lon="-1.6590850">
        <ele>35.557</ele>
        <time>2018-08-17T12:07:13.018Z</time>
      </trkpt>
      <trkpt lat="48.2419244" lon="-1.6592121">
        <ele>36.056</ele>
        <time>2018-08-17T12:07:15.812Z</time>
      </trkpt>
      <trkpt lat="48.2419828" lon="-1.6593162">
        <ele>36.752</ele>
        <time>2018-08-17T12:07:18.385Z</time>
      </trkpt>
      <trkpt lat="48.2420512" lon="-1.6594257">
        <ele>37.175</ele>
        <time>2018-08-17T12:07:21.312Z</time>
      </trkpt>
      <trkpt lat="48.2421174" lon="-1.6595325">
        <ele>36.943</ele>
        <time>2018-08-17T12:07:24.433Z</time>
      </trkpt>
      <trkpt lat="48.2421772" lon="-1.6596567">
        <ele>36.180</ele>
        <time>2018-08-17T12:07:27.898Z</time>
      </trkpt>
      <trkpt lat="48.2422269" lon="-1.6597818">
        <ele>35.715</ele>
        <time>2018-08-17T12:07:31.074Z</time>
      </trkpt>
      <trkpt lat="48.2422647" lon="-1.6599161">
        <ele>36.133</ele>
        <time>2018-08-17T12:07:34.053Z</time>
      </trkpt>
      <trkpt lat="48.2423238" lon="-1.6600362">
        <ele>37.125</ele>
        <time>2018-08-17T12:07:37.071Z</time>
      </trkpt>
      <trkpt lat="48.2423822" lon="-1.6601630">
        <ele>38.358</ele>
        <time>2018-08-17T12:07:40.165Z</time>
      </trkpt>
      <trkpt lat="48.2424461" lon="-1.6602941">
        <ele>39.624</ele>
        <time>2018-08-17T12:07:43.341Z</time>
      </trkpt>
      <trkpt lat="48.2425078" lon="-1.6604173">
        <ele>40.458</ele>
        <time>2018-08-17T12:07:46.247Z</time>
      </trkpt>
      <trkpt lat="48.2425677" lon="-1.6605294">
        <ele>40.680</ele>
        <time>2018-08-17T12:07:48.872Z</time>
      </trkpt>
      <trkpt lat="48.2426239" lon="-1.6606495">
        <ele>40.617</ele>
        <time>2018-08-17T12:07:51.538Z</time>
      </trkpt>
      <trkpt lat="48.2426834" lon="-1.6607974">
        <ele>40.653</ele>
        <time>2018-08-17T12:07:54.730Z</time>
      </trkpt>
      <trkpt lat="48.2427368" lon="-1.6609377">
        <ele>40.966</ele>
        <time>2018-08-17T12:07:57.834Z</time>
      </trkpt>
      <trkpt lat="48.2427877" lon="-1.6610620">
        <ele>41.420</ele>
        <time>2018-08-17T12:08:00.755Z</time>
      </trkpt>
      <trkpt lat="48.2428421" lon="-1.6611768">
        <ele>41.721</ele>
        <time>2018-08-17T12:08:03.774Z</time>
      </trkpt>
      <trkpt lat="48.2429022" lon="-1.6612837">
        <ele>41.718</ele>
        <time>2018-08-17T12:08:06.799Z</time>
      </trkpt>
      <trkpt lat="48.2429586" lon="-1.6614187">
        <ele>41.482</ele>
        <time>2018-08-17T12:08:10.140Z</time>
      </trkpt>
      <trkpt lat="48.2430163" lon="-1.6615370">
        <ele>41.194</ele>
        <time>2018-08-17T12:08:13.204Z</time>
      </trkpt>
      <trkpt lat="48.2430913" lon="-1.6616740">
        <ele>41.118</ele>
        <time>2018-08-17T12:08:16.773Z</time>
      </trkpt>
      <trkpt lat="48.2431567" lon="-1.6618001">
        <ele>41.347</ele>
        <time>2018-08-17T12:08:19.994Z</time>
      </trkpt>
      <trkpt lat="48.2432335" lon="-1.6619189">
        <ele>41.650</ele>
        <time>2018-08-17T12:08:23.432Z</time>
      </trkpt>
      <trkpt lat="48.2433117" lon="-1.6620256">
        <ele>41.901</ele>
        <time>2018-08-17T12:08:26.642Z</time>
      </trkpt>
      <trkpt lat="48.2433731" lon="-1.6621302">
        <ele>42.515</ele>
        <time>2018-08-17T12:08:29.270Z</time>
      </trkpt>
      <trkpt lat="48.2434310" lon="-1.6622447">
        <ele>43.635</ele>
        <time>2018-08-17T12:08:31.873Z</time>
      </trkpt>
      <trkpt lat="48.2434899" lon="-1.6623511">
        <ele>44.383</ele>
        <time>2018-08-17T12:08:34.477Z</time>
      </trkpt>
      <trkpt lat="48.2435567" lon="-1.6624446">
        <ele>43.917</ele>
        <time>2018-08-17T12:08:37.367Z</time>
      </trkpt>
      <trkpt lat="48.2436323" lon="-1.6625761">
        <ele>42.637</ele>
        <time>2018-08-17T12:08:41.513Z</time>
      </trkpt>
      <trkpt lat="48.2436973" lon="-1.6626806">
        <ele>41.356</ele>
        <time>2018-08-17T12:08:45.221Z</time>
      </trkpt>
      <trkpt lat="48.2437767" lon="-1.6628007">
        <ele>40.432</ele>
        <time>2018-08-17T12:08:49.064Z</time>
      </trkpt>
      <trkpt lat="48.2438408" lon="-1.6629517">
        <ele>39.931</ele>
        <time>2018-08-17T12:08:52.718Z</time>
      </trkpt>
      <trkpt lat="48.2439115" lon="-1.6630856">
        <ele>39.718</ele>
        <time>2018-08-17T12:08:56.380Z</time>
      </trkpt>
      <trkpt lat="48.2439796" lon="-1.6632392">
        <ele>39.679</ele>
        <time>2018-08-17T12:09:00.580Z</time>
      </trkpt>
      <trkpt lat="48.2440368" lon="-1.6633849">
        <ele>39.738</ele>
        <time>2018-08-17T12:09:04.390Z</time>
      </trkpt>
      <trkpt lat="48.2440890" lon="-1.6635331">
        <ele>39.812</ele>
        <time>2018-08-17T12:09:08.132Z</time>
      </trkpt>
      <trkpt lat="48.2441286" lon="-1.6636738">
        <ele>39.804</ele>
        <time>2018-08-17T12:09:11.471Z</time>
      </trkpt>
      <trkpt lat="48.2441999" lon="-1.6638160">
        <ele>39.560</ele>
        <time>2018-08-17T12:09:15.320Z</time>
      </trkpt>
      <trkpt lat="48.2442551" lon="-1.6639393">
        <ele>39.120</ele>
        <time>2018-08-17T12:09:18.747Z</time>
      </trkpt>
      <trkpt lat="48.2443218" lon="-1.6640889">
        <ele>38.771</ele>
        <time>2018-08-17T12:09:22.976Z</time>
      </trkpt>
      <trkpt lat="48.2443735" lon="-1.6642203">
        <ele>38.534</ele>
        <time>2018-08-17T12:09:26.565Z</time>
      </trkpt>
      <trkpt lat="48.2444512" lon="-1.6643685">
        <ele>38.343</ele>
        <time>2018-08-17T12:09:30.724Z</time>
      </trkpt>
      <trkpt lat="48.2445271" lon="-1.6644930">
        <ele>38.503</ele>
        <time>2018-08-17T12:09:34.025Z</time>
      </trkpt>
      <trkpt lat="48.2446011" lon="-1.6645803">
        <ele>39.213</ele>
        <time>2018-08-17T12:09:36.695Z</time>
      </trkpt>
      <trkpt lat="48.2446821" lon="-1.6646756">
        <ele>39.993</ele>
        <time>2018-08-17T12:09:39.869Z</time>
      </trkpt>
      <trkpt lat="48.2447473" lon="-1.6647932">
        <ele>39.920</ele>
        <time>2018-08-17T12:09:43.451Z</time>
      </trkpt>
      <trkpt lat="48.2448164" lon="-1.6649183">
        <ele>38.803</ele>
        <time>2018-08-17T12:09:47.541Z</time>
      </trkpt>
      <trkpt lat="48.2448944" lon="-1.6650044">
        <ele>37.690</ele>
        <time>2018-08-17T12:09:51.130Z</time>
      </trkpt>
      <trkpt lat="48.2449428" lon="-1.6651473">
        <ele>37.461</ele>
        <time>2018-08-17T12:09:54.649Z</time>
      </trkpt>
      <trkpt lat="48.2449834" lon="-1.6652801">
        <ele>37.841</ele>
        <time>2018-08-17T12:09:57.691Z</time>
      </trkpt>
      <trkpt lat="48.2450547" lon="-1.6653710">
        <ele>38.297</ele>
        <time>2018-08-17T12:10:00.895Z</time>
      </trkpt>
      <trkpt lat="48.2451327" lon="-1.6654560">
        <ele>38.534</ele>
        <time>2018-08-17T12:10:05.270Z</time>
      </trkpt>
      <trkpt lat="48.2452083" lon="-1.6655503">
        <ele>38.333</ele>
        <time>2018-08-17T12:10:10.557Z</time>
      </trkpt>
      <trkpt lat="48.2453059" lon="-1.6656389">
        <ele>37.730</ele>
        <time>2018-08-17T12:10:17.235Z</time>
      </trkpt>
      <trkpt lat="48.2453991" lon="-1.6657168">
        <ele>37.051</ele>
        <time>2018-08-17T12:10:22.506Z</time>
      </trkpt>
      <trkpt lat="48.2454839" lon="-1.6658121">
        <ele>36.574</ele>
        <time>2018-08-17T12:10:26.675Z</time>
      </trkpt>
      <trkpt lat="48.2455730" lon="-1.6659190">
        <ele>36.142</ele>
        <time>2018-08-17T12:10:30.682Z</time>
      </trkpt>
      <trkpt lat="48.2456378" lon="-1.6660203">
        <ele>35.601</ele>
        <time>2018-08-17T12:10:34.070Z</time>
      </trkpt>
      <trkpt lat="48.2457033" lon="-1.6661250">
        <ele>35.174</ele>
        <time>2018-08-17T12:10:37.826Z</time>
      </trkpt>
      <trkpt lat="48.2457732" lon="-1.6662187">
        <ele>35.111</ele>
        <time>2018-08-17T12:10:41.948Z</time>
      </trkpt>
      <trkpt lat="48.2458273" lon="-1.6663280">
        <ele>35.378</ele>
        <time>2018-08-17T12:10:46.408Z</time>
      </trkpt>
      <trkpt lat="48.2458923" lon="-1.6664479">
        <ele>35.961</ele>
        <time>2018-08-17T12:10:51.785Z</time>
      </trkpt>
      <trkpt lat="48.2459497" lon="-1.6665873">
        <ele>36.709</ele>
        <time>2018-08-17T12:10:58.753Z</time>
      </trkpt>
      <trkpt lat="48.2460035" lon="-1.6667144">
        <ele>37.311</ele>
        <time>2018-08-17T12:11:04.530Z</time>
      </trkpt>
      <trkpt lat="48.2460648" lon="-1.6668331">
        <ele>37.625</ele>
        <time>2018-08-17T12:11:10.169Z</time>
      </trkpt>
      <trkpt lat="48.2461345" lon="-1.6669588">
        <ele>37.554</ele>
        <time>2018-08-17T12:11:16.690Z</time>
      </trkpt>
      <trkpt lat="48.2461944" lon="-1.6670728">
        <ele>37.089</ele>
        <time>2018-08-17T12:11:21.756Z</time>
      </trkpt>
      <trkpt lat="48.2462634" lon="-1.6671968">
        <ele>36.525</ele>
        <time>2018-08-17T12:11:27.074Z</time>
      </trkpt>
      <trkpt lat="48.2463251" lon="-1.6673097">
        <ele>35.760</ele>
        <time>2018-08-17T12:11:32.379Z</time>
      </trkpt>
      <trkpt lat="48.2464002" lon="-1.6674098">
        <ele>34.598</ele>
        <time>2018-08-17T12:11:38.065Z</time>
      </trkpt>
      <trkpt lat="48.2464707" lon="-1.6675086">
        <ele>33.718</ele>
        <time>2018-08-17T12:11:42.726Z</time>
      </trkpt>
      <trkpt lat="48.2465412" lon="-1.6676283">
        <ele>33.682</ele>
        <time>2018-08-17T12:11:47.235Z</time>
      </trkpt>
      <trkpt lat="48.2466249" lon="-1.6677170">
        <ele>33.829</ele>
        <time>2018-08-17T12:11:50.907Z</time>
      </trkpt>
      <trkpt lat="48.2467100" lon="-1.6677843">
        <ele>33.513</ele>
        <time>2018-08-17T12:11:54.224Z</time>
      </trkpt>
      <trkpt lat="48.2467898" lon="-1.6678647">
        <ele>33.247</ele>
        <time>2018-08-17T12:11:57.481Z</time>
      </trkpt>
      <trkpt lat="48.2468854" lon="-1.6679340">
        <ele>34.305</ele>
        <time>2018-08-17T12:12:01.162Z</time>
      </trkpt>
      <trkpt lat="48.2469756" lon="-1.6679771">
        <ele>37.048</ele>
        <time>2018-08-17T12:12:04.621Z</time>
      </trkpt>
      <trkpt lat="48.2470937" lon="-1.6679936">
        <ele>40.179</ele>
        <time>2018-08-17T12:12:09.031Z</time>
      </trkpt>
      <trkpt lat="48.2471856" lon="-1.6680011">
        <ele>42.226</ele>
        <time>2018-08-17T12:12:12.277Z</time>
      </trkpt>
      <trkpt lat="48.2472935" lon="-1.6680087">
        <ele>43.354</ele>
        <time>2018-08-17T12:12:15.990Z</time>
      </trkpt>
      <trkpt lat="48.2474029" lon="-1.6680014">
        <ele>44.601</ele>
        <time>2018-08-17T12:12:19.884Z</time>
      </trkpt>
      <trkpt lat="48.2474925" lon="-1.6679899">
        <ele>46.260</ele>
        <time>2018-08-17T12:12:23.191Z</time>
      </trkpt>
      <trkpt lat="48.2475907" lon="-1.6679573">
        <ele>48.047</ele>
        <time>2018-08-17T12:12:26.977Z</time>
      </trkpt>
      <trkpt lat="48.2476902" lon="-1.6678862">
        <ele>49.666</ele>
        <time>2018-08-17T12:12:31.755Z</time>
      </trkpt>
      <trkpt lat="48.2477721" lon="-1.6677789">
        <ele>50.539</ele>
        <time>2018-08-17T12:12:37.324Z</time>
      </trkpt>
      <trkpt lat="48.2478528" lon="-1.6676779">
        <ele>50.047</ele>
        <time>2018-08-17T12:12:42.749Z</time>
      </trkpt>
      <trkpt lat="48.2479240" lon="-1.6675775">
        <ele>48.337</ele>
        <time>2018-08-17T12:12:47.579Z</time>
      </trkpt>
      <trkpt lat="48.2479978" lon="-1.6674990">
        <ele>46.340</ele>
        <time>2018-08-17T12:12:51.390Z</time>
      </trkpt>
      <trkpt lat="48.2481001" lon="-1.6674381">
        <ele>44.853</ele>
        <time>2018-08-17T12:12:55.425Z</time>
      </trkpt>
      <trkpt lat="48.2481637" lon="-1.6673042">
        <ele>43.942</ele>
        <time>2018-08-17T12:12:59.523Z</time>
      </trkpt>
      <trkpt lat="48.2482195" lon="-1.6671973">
        <ele>43.437</ele>
        <time>2018-08-17T12:13:02.953Z</time>
      </trkpt>
      <trkpt lat="48.2482868" lon="-1.6670740">
        <ele>43.081</ele>
        <time>2018-08-17T12:13:06.909Z</time>
      </trkpt>
      <trkpt lat="48.2483394" lon="-1.6669545">
        <ele>42.511</ele>
        <time>2018-08-17T12:13:10.402Z</time>
      </trkpt>
      <trkpt lat="48.2483983" lon="-1.6668245">
        <ele>41.720</ele>
        <time>2018-08-17T12:13:14.213Z</time>
      </trkpt>
      <trkpt lat="48.2484617" lon="-1.6666974">
        <ele>41.116</ele>
        <time>2018-08-17T12:13:18.032Z</time>
      </trkpt>
      <trkpt lat="48.2485168" lon="-1.6665610">
        <ele>40.710</ele>
        <time>2018-08-17T12:13:21.926Z</time>
      </trkpt>
      <trkpt lat="48.2485914" lon="-1.6664261">
        <ele>39.950</ele>
        <time>2018-08-17T12:13:26.484Z</time>
      </trkpt>
      <trkpt lat="48.2486523" lon="-1.6662961">
        <ele>38.504</ele>
        <time>2018-08-17T12:13:30.832Z</time>
      </trkpt>
      <trkpt lat="48.2487094" lon="-1.6661778">
        <ele>36.703</ele>
        <time>2018-08-17T12:13:35.066Z</time>
      </trkpt>
      <trkpt lat="48.2487678" lon="-1.6660640">
        <ele>35.172</ele>
        <time>2018-08-17T12:13:39.367Z</time>
      </trkpt>
      <trkpt lat="48.2488435" lon="-1.6659592">
        <ele>34.279</ele>
        <time>2018-08-17T12:13:43.728Z</time>
      </trkpt>
      <trkpt lat="48.2489164" lon="-1.6658313">
        <ele>33.987</ele>
        <time>2018-08-17T12:13:47.908Z</time>
      </trkpt>
      <trkpt lat="48.2490125" lon="-1.6657300">
        <ele>33.827</ele>
        <time>2018-08-17T12:13:51.888Z</time>
      </trkpt>
      <trkpt lat="48.2491089" lon="-1.6656675">
        <ele>33.425</ele>
        <time>2018-08-17T12:13:55.326Z</time>
      </trkpt>
      <trkpt lat="48.2492152" lon="-1.6655820">
        <ele>33.025</ele>
        <time>2018-08-17T12:13:59.403Z</time>
      </trkpt>
      <trkpt lat="48.2492998" lon="-1.6655036">
        <ele>32.958</ele>
        <time>2018-08-17T12:14:02.633Z</time>
      </trkpt>
      <trkpt lat="48.2493964" lon="-1.6654331">
        <ele>33.206</ele>
        <time>2018-08-17T12:14:06.121Z</time>
      </trkpt>
      <trkpt lat="48.2495111" lon="-1.6653762">
        <ele>33.935</ele>
        <time>2018-08-17T12:14:10.119Z</time>
      </trkpt>
      <trkpt lat="48.2496229" lon="-1.6653174">
        <ele>35.369</ele>
        <time>2018-08-17T12:14:14.127Z</time>
      </trkpt>
      <trkpt lat="48.2497221" lon="-1.6652916">
        <ele>37.421</ele>
        <time>2018-08-17T12:14:17.516Z</time>
      </trkpt>
      <trkpt lat="48.2498238" lon="-1.6652732">
        <ele>39.734</ele>
        <time>2018-08-17T12:14:20.767Z</time>
      </trkpt>
      <trkpt lat="48.2499141" lon="-1.6652414">
        <ele>41.713</ele>
        <time>2018-08-17T12:14:23.569Z</time>
      </trkpt>
      <trkpt lat="48.2500065" lon="-1.6651877">
        <ele>43.126</ele>
        <time>2018-08-17T12:14:26.517Z</time>
      </trkpt>
      <trkpt lat="48.2501025" lon="-1.6651690">
        <ele>44.367</ele>
        <time>2018-08-17T12:14:29.388Z</time>
      </trkpt>
      <trkpt lat="48.2502013" lon="-1.6651683">
        <ele>45.518</ele>
        <time>2018-08-17T12:14:32.333Z</time>
      </trkpt>
      <trkpt lat="48.2503264" lon="-1.6651492">
        <ele>46.410</ele>
        <time>2018-08-17T12:14:36.325Z</time>
      </trkpt>
      <trkpt lat="48.2504325" lon="-1.6651463">
        <ele>47.308</ele>
        <time>2018-08-17T12:14:39.970Z</time>
      </trkpt>
      <trkpt lat="48.2505397" lon="-1.6651419">
        <ele>48.320</ele>
        <time>2018-08-17T12:14:43.679Z</time>
      </trkpt>
      <trkpt lat="48.2506449" lon="-1.6651095">
        <ele>48.894</ele>
        <time>2018-08-17T12:14:47.473Z</time>
      </trkpt>
      <trkpt lat="48.2507496" lon="-1.6650772">
        <ele>48.374</ele>
        <time>2018-08-17T12:14:51.436Z</time>
      </trkpt>
      <trkpt lat="48.2508543" lon="-1.6650626">
        <ele>46.858</ele>
        <time>2018-08-17T12:14:55.439Z</time>
      </trkpt>
      <trkpt lat="48.2509479" lon="-1.6650445">
        <ele>45.252</ele>
        <time>2018-08-17T12:14:58.922Z</time>
      </trkpt>
      <trkpt lat="48.2510555" lon="-1.6650373">
        <ele>44.376</ele>
        <time>2018-08-17T12:15:02.680Z</time>
      </trkpt>
      <trkpt lat="48.2511560" lon="-1.6649824">
        <ele>44.250</ele>
        <time>2018-08-17T12:15:06.159Z</time>
      </trkpt>
      <trkpt lat="48.2512504" lon="-1.6649706">
        <ele>44.410</ele>
        <time>2018-08-17T12:15:09.205Z</time>
      </trkpt>
      <trkpt lat="48.2513490" lon="-1.6649733">
        <ele>44.501</ele>
        <time>2018-08-17T12:15:12.490Z</time>
      </trkpt>
      <trkpt lat="48.2514608" lon="-1.6649860">
        <ele>44.565</ele>
        <time>2018-08-17T12:15:16.349Z</time>
      </trkpt>
      <trkpt lat="48.2515671" lon="-1.6649850">
        <ele>44.732</ele>
        <time>2018-08-17T12:15:20.046Z</time>
      </trkpt>
      <trkpt lat="48.2516732" lon="-1.6649740">
        <ele>44.766</ele>
        <time>2018-08-17T12:15:23.790Z</time>
      </trkpt>
      <trkpt lat="48.2517786" lon="-1.6649652">
        <ele>44.224</ele>
        <time>2018-08-17T12:15:27.584Z</time>
      </trkpt>
      <trkpt lat="48.2518854" lon="-1.6649473">
        <ele>43.015</ele>
        <time>2018-08-17T12:15:31.510Z</time>
      </trkpt>
      <trkpt lat="48.2519810" lon="-1.6649246">
        <ele>41.538</ele>
        <time>2018-08-17T12:15:34.797Z</time>
      </trkpt>
      <trkpt lat="48.2520884" lon="-1.6649572">
        <ele>40.356</ele>
        <time>2018-08-17T12:15:38.320Z</time>
      </trkpt>
      <trkpt lat="48.2521962" lon="-1.6649776">
        <ele>39.802</ele>
        <time>2018-08-17T12:15:41.992Z</time>
      </trkpt>
      <trkpt lat="48.2523009" lon="-1.6649548">
        <ele>39.797</ele>
        <time>2018-08-17T12:15:45.873Z</time>
      </trkpt>
      <trkpt lat="48.2523905" lon="-1.6649663">
        <ele>40.158</ele>
        <time>2018-08-17T12:15:49.139Z</time>
      </trkpt>
      <trkpt lat="48.2525033" lon="-1.6649573">
        <ele>40.941</ele>
        <time>2018-08-17T12:15:53.220Z</time>
      </trkpt>
      <trkpt lat="48.2526102" lon="-1.6649492">
        <ele>42.511</ele>
        <time>2018-08-17T12:15:57.191Z</time>
      </trkpt>
      <trkpt lat="48.2527155" lon="-1.6649704">
        <ele>44.695</ele>
        <time>2018-08-17T12:16:01.083Z</time>
      </trkpt>
      <trkpt lat="48.2528212" lon="-1.6649758">
        <ele>46.717</ele>
        <time>2018-08-17T12:16:04.864Z</time>
      </trkpt>
      <trkpt lat="48.2529116" lon="-1.6649491">
        <ele>48.099</ele>
        <time>2018-08-17T12:16:08.193Z</time>
      </trkpt>
      <trkpt lat="48.2530096" lon="-1.6649092">
        <ele>48.243</ele>
        <time>2018-08-17T12:16:11.948Z</time>
      </trkpt>
      <trkpt lat="48.2531125" lon="-1.6648662">
        <ele>46.653</ele>
        <time>2018-08-17T12:16:16.084Z</time>
      </trkpt>
      <trkpt lat="48.2532054" lon="-1.6648357">
        <ele>44.370</ele>
        <time>2018-08-17T12:16:19.809Z</time>
      </trkpt>
      <trkpt lat="48.2533016" lon="-1.6648255">
        <ele>42.825</ele>
        <time>2018-08-17T12:16:23.673Z</time>
      </trkpt>
      <trkpt lat="48.2533988" lon="-1.6648112">
        <ele>42.288</ele>
        <time>2018-08-17T12:16:27.853Z</time>
      </trkpt>
      <trkpt lat="48.2535003" lon="-1.6647983">
        <ele>42.316</ele>
        <time>2018-08-17T12:16:32.201Z</time>
      </trkpt>
      <trkpt lat="48.2536243" lon="-1.6647841">
        <ele>42.488</ele>
        <time>2018-08-17T12:16:37.025Z</time>
      </trkpt>
      <trkpt lat="48.2537184" lon="-1.6647498">
        <ele>42.329</ele>
        <time>2018-08-17T12:16:40.777Z</time>
      </trkpt>
      <trkpt lat="48.2538096" lon="-1.6647479">
        <ele>41.597</ele>
        <time>2018-08-17T12:16:44.750Z</time>
      </trkpt>
      <trkpt lat="48.2539053" lon="-1.6647664">
        <ele>40.714</ele>
        <time>2018-08-17T12:16:48.572Z</time>
      </trkpt>
      <trkpt lat="48.2540008" lon="-1.6647932">
        <ele>40.278</ele>
        <time>2018-08-17T12:16:52.028Z</time>
      </trkpt>
      <trkpt lat="48.2541051" lon="-1.6648476">
        <ele>40.394</ele>
        <time>2018-08-17T12:16:55.995Z</time>
      </trkpt>
      <trkpt lat="48.2541993" lon="-1.6648814">
        <ele>40.784</ele>
        <time>2018-08-17T12:16:59.574Z</time>
      </trkpt>
      <trkpt lat="48.2542846" lon="-1.6649277">
        <ele>41.503</ele>
        <time>2018-08-17T12:17:03.092Z</time>
      </trkpt>
      <trkpt lat="48.2543708" lon="-1.6649778">
        <ele>42.677</ele>
        <time>2018-08-17T12:17:06.794Z</time>
      </trkpt>
      <trkpt lat="48.2544770" lon="-1.6650415">
        <ele>43.995</ele>
        <time>2018-08-17T12:17:11.342Z</time>
      </trkpt>
      <trkpt lat="48.2545673" lon="-1.6650972">
        <ele>45.106</ele>
        <time>2018-08-17T12:17:15.216Z</time>
      </trkpt>
      <trkpt lat="48.2546610" lon="-1.6651702">
        <ele>45.835</ele>
        <time>2018-08-17T12:17:19.378Z</time>
      </trkpt>
      <trkpt lat="48.2547614" lon="-1.6652463">
        <ele>46.114</ele>
        <time>2018-08-17T12:17:23.870Z</time>
      </trkpt>
      <trkpt lat="48.2548435" lon="-1.6653139">
        <ele>46.138</ele>
        <time>2018-08-17T12:17:27.788Z</time>
      </trkpt>
      <trkpt lat="48.2549361" lon="-1.6654163">
        <ele>45.734</ele>
        <time>2018-08-17T12:17:32.660Z</time>
      </trkpt>
      <trkpt lat="48.2550110" lon="-1.6654976">
        <ele>44.764</ele>
        <time>2018-08-17T12:17:36.542Z</time>
      </trkpt>
      <trkpt lat="48.2550709" lon="-1.6656068">
        <ele>43.539</ele>
        <time>2018-08-17T12:17:40.620Z</time>
      </trkpt>
      <trkpt lat="48.2551252" lon="-1.6657380">
        <ele>42.433</ele>
        <time>2018-08-17T12:17:45.323Z</time>
      </trkpt>
      <trkpt lat="48.2551903" lon="-1.6658452">
        <ele>41.688</ele>
        <time>2018-08-17T12:17:49.896Z</time>
      </trkpt>
      <trkpt lat="48.2552657" lon="-1.6659529">
        <ele>40.885</ele>
        <time>2018-08-17T12:17:54.878Z</time>
      </trkpt>
      <trkpt lat="48.2553256" lon="-1.6660716">
        <ele>39.503</ele>
        <time>2018-08-17T12:18:00.131Z</time>
      </trkpt>
      <trkpt lat="48.2553235" lon="-1.6662110">
        <ele>38.151</ele>
        <time>2018-08-17T12:18:05.598Z</time>
      </trkpt>
      <trkpt lat="48.2553527" lon="-1.6663605">
        <ele>38.209</ele>
        <time>2018-08-17T12:18:13.000Z</time>
      </trkpt>
      <trkpt lat="48.2553527" lon="-1.6663605">
        <ele>39.919</ele>
        <time>2018-08-17T12:18:20.000Z</time>
      </trkpt>
      <trkpt lat="48.2553527" lon="-1.6663605">
        <ele>41.491</ele>
        <time>2018-08-17T12:18:22.202Z</time>
      </trkpt>
      <trkpt lat="48.2554737" lon="-1.6667078">
        <ele>41.465</ele>
        <time>2018-08-17T12:18:52.936Z</time>
      </trkpt>
      <trkpt lat="48.2555412" lon="-1.6668260">
        <ele>42.022</ele>
        <time>2018-08-17T12:18:59.183Z</time>
      </trkpt>
      <trkpt lat="48.2555972" lon="-1.6669471">
        <ele>45.105</ele>
        <time>2018-08-17T12:19:04.211Z</time>
      </trkpt>
      <trkpt lat="48.2556475" lon="-1.6670778">
        <ele>48.783</ele>
        <time>2018-08-17T12:19:09.159Z</time>
      </trkpt>
      <trkpt lat="48.2556997" lon="-1.6672044">
        <ele>50.736</ele>
        <time>2018-08-17T12:19:14.329Z</time>
      </trkpt>
      <trkpt lat="48.2557585" lon="-1.6673257">
        <ele>50.823</ele>
        <time>2018-08-17T12:19:19.611Z</time>
      </trkpt>
      <trkpt lat="48.2558399" lon="-1.6674071">
        <ele>49.473</ele>
        <time>2018-08-17T12:19:24.364Z</time>
      </trkpt>
      <trkpt lat="48.2559001" lon="-1.6675254">
        <ele>47.302</ele>
        <time>2018-08-17T12:19:28.856Z</time>
      </trkpt>
      <trkpt lat="48.2559559" lon="-1.6676380">
        <ele>45.108</ele>
        <time>2018-08-17T12:19:33.289Z</time>
      </trkpt>
      <trkpt lat="48.2560212" lon="-1.6677502">
        <ele>43.457</ele>
        <time>2018-08-17T12:19:38.267Z</time>
      </trkpt>
      <trkpt lat="48.2560823" lon="-1.6678781">
        <ele>42.345</ele>
        <time>2018-08-17T12:19:43.566Z</time>
      </trkpt>
      <trkpt lat="48.2561515" lon="-1.6679812">
        <ele>41.593</ele>
        <time>2018-08-17T12:19:48.326Z</time>
      </trkpt>
      <trkpt lat="48.2562069" lon="-1.6681171">
        <ele>41.400</ele>
        <time>2018-08-17T12:19:53.165Z</time>
      </trkpt>
      <trkpt lat="48.2562564" lon="-1.6682623">
        <ele>41.816</ele>
        <time>2018-08-17T12:19:57.596Z</time>
      </trkpt>
      <trkpt lat="48.2562991" lon="-1.6684258">
        <ele>42.443</ele>
        <time>2018-08-17T12:20:01.978Z</time>
      </trkpt>
      <trkpt lat="48.2563309" lon="-1.6685641">
        <ele>43.028</ele>
        <time>2018-08-17T12:20:05.440Z</time>
      </trkpt>
      <trkpt lat="48.2563649" lon="-1.6687013">
        <ele>43.929</ele>
        <time>2018-08-17T12:20:08.880Z</time>
      </trkpt>
      <trkpt lat="48.2564115" lon="-1.6688461">
        <ele>45.209</ele>
        <time>2018-08-17T12:20:12.660Z</time>
      </trkpt>
      <trkpt lat="48.2564765" lon="-1.6689709">
        <ele>46.078</ele>
        <time>2018-08-17T12:20:16.432Z</time>
      </trkpt>
      <trkpt lat="48.2565449" lon="-1.6690647">
        <ele>45.672</ele>
        <time>2018-08-17T12:20:19.758Z</time>
      </trkpt>
      <trkpt lat="48.2566173" lon="-1.6691915">
        <ele>44.261</ele>
        <time>2018-08-17T12:20:23.782Z</time>
      </trkpt>
      <trkpt lat="48.2566755" lon="-1.6693182">
        <ele>42.982</ele>
        <time>2018-08-17T12:20:27.713Z</time>
      </trkpt>
      <trkpt lat="48.2567239" lon="-1.6694638">
        <ele>42.533</ele>
        <time>2018-08-17T12:20:32.399Z</time>
      </trkpt>
      <trkpt lat="48.2567648" lon="-1.6695954">
        <ele>43.063</ele>
        <time>2018-08-17T12:20:36.464Z</time>
      </trkpt>
      <trkpt lat="48.2568067" lon="-1.6697433">
        <ele>44.535</ele>
        <time>2018-08-17T12:20:40.117Z</time>
      </trkpt>
      <trkpt lat="48.2568561" lon="-1.6698760">
        <ele>46.231</ele>
        <time>2018-08-17T12:20:43.477Z</time>
      </trkpt>
      <trkpt lat="48.2569163" lon="-1.6699977">
        <ele>47.293</ele>
        <time>2018-08-17T12:20:47.228Z</time>
      </trkpt>
      <trkpt lat="48.2569727" lon="-1.6701399">
        <ele>47.450</ele>
        <time>2018-08-17T12:20:51.630Z</time>
      </trkpt>
      <trkpt lat="48.2570408" lon="-1.6702610">
        <ele>46.743</ele>
        <time>2018-08-17T12:20:55.860Z</time>
      </trkpt>
      <trkpt lat="48.2571182" lon="-1.6703913">
        <ele>45.488</ele>
        <time>2018-08-17T12:21:00.210Z</time>
      </trkpt>
      <trkpt lat="48.2572080" lon="-1.6705011">
        <ele>44.117</ele>
        <time>2018-08-17T12:21:04.275Z</time>
      </trkpt>
      <trkpt lat="48.2572791" lon="-1.6705914">
        <ele>42.961</ele>
        <time>2018-08-17T12:21:07.497Z</time>
      </trkpt>
      <trkpt lat="48.2573755" lon="-1.6706742">
        <ele>42.068</ele>
        <time>2018-08-17T12:21:11.267Z</time>
      </trkpt>
      <trkpt lat="48.2574612" lon="-1.6707291">
        <ele>41.212</ele>
        <time>2018-08-17T12:21:14.267Z</time>
      </trkpt>
      <trkpt lat="48.2575467" lon="-1.6707713">
        <ele>40.116</ele>
        <time>2018-08-17T12:21:17.092Z</time>
      </trkpt>
      <trkpt lat="48.2576550" lon="-1.6708300">
        <ele>38.883</ele>
        <time>2018-08-17T12:21:20.575Z</time>
      </trkpt>
      <trkpt lat="48.2577485" lon="-1.6708867">
        <ele>37.886</ele>
        <time>2018-08-17T12:21:23.378Z</time>
      </trkpt>
      <trkpt lat="48.2578345" lon="-1.6709693">
        <ele>37.331</ele>
        <time>2018-08-17T12:21:26.036Z</time>
      </trkpt>
      <trkpt lat="48.2579232" lon="-1.6710535">
        <ele>37.234</ele>
        <time>2018-08-17T12:21:28.679Z</time>
      </trkpt>
      <trkpt lat="48.2580104" lon="-1.6711004">
        <ele>37.543</ele>
        <time>2018-08-17T12:21:31.000Z</time>
      </trkpt>
      <trkpt lat="48.2580104" lon="-1.6711004">
        <ele>37.922</ele>
        <time>2018-08-17T12:21:31.000Z</time>
      </trkpt>
      <trkpt lat="48.2580104" lon="-1.6711004">
        <ele>38.089</ele>
        <time>2018-08-17T12:21:31.100Z</time>
      </trkpt>
      <trkpt lat="48.2581954" lon="-1.6711072">
        <ele>38.053</ele>
        <time>2018-08-17T12:21:48.063Z</time>
      </trkpt>
      <trkpt lat="48.2582959" lon="-1.6710723">
        <ele>38.321</ele>
        <time>2018-08-17T12:21:52.969Z</time>
      </trkpt>
      <trkpt lat="48.2583961" lon="-1.6710570">
        <ele>39.854</ele>
        <time>2018-08-17T12:21:57.063Z</time>
      </trkpt>
      <trkpt lat="48.2584868" lon="-1.6710538">
        <ele>43.056</ele>
        <time>2018-08-17T12:22:00.707Z</time>
      </trkpt>
      <trkpt lat="48.2585909" lon="-1.6710223">
        <ele>46.738</ele>
        <time>2018-08-17T12:22:05.109Z</time>
      </trkpt>
      <trkpt lat="48.2586924" lon="-1.6709750">
        <ele>49.094</ele>
        <time>2018-08-17T12:22:09.995Z</time>
      </trkpt>
      <trkpt lat="48.2587651" lon="-1.6708842">
        <ele>49.433</ele>
        <time>2018-08-17T12:22:14.562Z</time>
      </trkpt>
      <trkpt lat="48.2588621" lon="-1.6708358">
        <ele>48.509</ele>
        <time>2018-08-17T12:22:18.823Z</time>
      </trkpt>
      <trkpt lat="48.2589619" lon="-1.6707738">
        <ele>47.558</ele>
        <time>2018-08-17T12:22:22.970Z</time>
      </trkpt>
      <trkpt lat="48.2590510" lon="-1.6707026">
        <ele>47.262</ele>
        <time>2018-08-17T12:22:26.764Z</time>
      </trkpt>
      <trkpt lat="48.2591468" lon="-1.6706037">
        <ele>47.431</ele>
        <time>2018-08-17T12:22:31.401Z</time>
      </trkpt>
      <trkpt lat="48.2592223" lon="-1.6705026">
        <ele>47.585</ele>
        <time>2018-08-17T12:22:35.825Z</time>
      </trkpt>
      <trkpt lat="48.2592961" lon="-1.6704191">
        <ele>47.329</ele>
        <time>2018-08-17T12:22:40.305Z</time>
      </trkpt>
      <trkpt lat="48.2593847" lon="-1.6703448">
        <ele>46.389</ele>
        <time>2018-08-17T12:22:46.332Z</time>
      </trkpt>
      <trkpt lat="48.2594417" lon="-1.6702369">
        <ele>44.570</ele>
        <time>2018-08-17T12:22:51.044Z</time>
      </trkpt>
      <trkpt lat="48.2594982" lon="-1.6701177">
        <ele>42.233</ele>
        <time>2018-08-17T12:22:54.947Z</time>
      </trkpt>
      <trkpt lat="48.2595594" lon="-1.6700097">
        <ele>40.251</ele>
        <time>2018-08-17T12:22:58.428Z</time>
      </trkpt>
      <trkpt lat="48.2596366" lon="-1.6699143">
        <ele>39.231</ele>
        <time>2018-08-17T12:23:02.458Z</time>
      </trkpt>
      <trkpt lat="48.2597244" lon="-1.6698315">
        <ele>39.136</ele>
        <time>2018-08-17T12:23:07.103Z</time>
      </trkpt>
      <trkpt lat="48.2597948" lon="-1.6697399">
        <ele>39.508</ele>
        <time>2018-08-17T12:23:11.112Z</time>
      </trkpt>
      <trkpt lat="48.2598350" lon="-1.6696063">
        <ele>40.333</ele>
        <time>2018-08-17T12:23:15.065Z</time>
      </trkpt>
      <trkpt lat="48.2599009" lon="-1.6694824">
        <ele>41.834</ele>
        <time>2018-08-17T12:23:19.456Z</time>
      </trkpt>
      <trkpt lat="48.2599634" lon="-1.6693714">
        <ele>43.951</ele>
        <time>2018-08-17T12:23:23.576Z</time>
      </trkpt>
      <trkpt lat="48.2600257" lon="-1.6692667">
        <ele>46.433</ele>
        <time>2018-08-17T12:23:27.319Z</time>
      </trkpt>
      <trkpt lat="48.2600666" lon="-1.6691067">
        <ele>48.617</ele>
        <time>2018-08-17T12:23:31.417Z</time>
      </trkpt>
      <trkpt lat="48.2601356" lon="-1.6690010">
        <ele>49.807</ele>
        <time>2018-08-17T12:23:34.872Z</time>
      </trkpt>
      <trkpt lat="48.2602155" lon="-1.6688922">
        <ele>49.503</ele>
        <time>2018-08-17T12:23:38.665Z</time>
      </trkpt>
      <trkpt lat="48.2602868" lon="-1.6687933">
        <ele>47.650</ele>
        <time>2018-08-17T12:23:42.173Z</time>
      </trkpt>
      <trkpt lat="48.2603489" lon="-1.6686423">
        <ele>44.940</ele>
        <time>2018-08-17T12:23:46.593Z</time>
      </trkpt>
      <trkpt lat="48.2604012" lon="-1.6685263">
        <ele>42.094</ele>
        <time>2018-08-17T12:23:50.063Z</time>
      </trkpt>
      <trkpt lat="48.2604224" lon="-1.6683881">
        <ele>39.803</ele>
        <time>2018-08-17T12:23:53.427Z</time>
      </trkpt>
      <trkpt lat="48.2604225" lon="-1.6682347">
        <ele>38.549</ele>
        <time>2018-08-17T12:23:56.838Z</time>
      </trkpt>
      <trkpt lat="48.2604479" lon="-1.6680791">
        <ele>37.760</ele>
        <time>2018-08-17T12:24:00.354Z</time>
      </trkpt>
      <trkpt lat="48.2605048" lon="-1.6679567">
        <ele>36.928</ele>
        <time>2018-08-17T12:24:03.789Z</time>
      </trkpt>
      <trkpt lat="48.2605633" lon="-1.6678266">
        <ele>36.669</ele>
        <time>2018-08-17T12:24:07.713Z</time>
      </trkpt>
      <trkpt lat="48.2606183" lon="-1.6676793">
        <ele>37.671</ele>
        <time>2018-08-17T12:24:12.882Z</time>
      </trkpt>
      <trkpt lat="48.2606194" lon="-1.6675114">
        <ele>39.405</ele>
        <time>2018-08-17T12:24:18.232Z</time>
      </trkpt>
      <trkpt lat="48.2606577" lon="-1.6673699">
        <ele>40.826</ele>
        <time>2018-08-17T12:24:22.279Z</time>
      </trkpt>
      <trkpt lat="48.2606450" lon="-1.6671960">
        <ele>41.687</ele>
        <time>2018-08-17T12:24:26.433Z</time>
      </trkpt>
      <trkpt lat="48.2606797" lon="-1.6670467">
        <ele>42.278</ele>
        <time>2018-08-17T12:24:29.963Z</time>
      </trkpt>
      <trkpt lat="48.2607355" lon="-1.6669385">
        <ele>42.685</ele>
        <time>2018-08-17T12:24:32.916Z</time>
      </trkpt>
      <trkpt lat="48.2608005" lon="-1.6667945">
        <ele>42.978</ele>
        <time>2018-08-17T12:24:36.602Z</time>
      </trkpt>
      <trkpt lat="48.2608433" lon="-1.6666259">
        <ele>43.319</ele>
        <time>2018-08-17T12:24:40.317Z</time>
      </trkpt>
      <trkpt lat="48.2608737" lon="-1.6664863">
        <ele>43.600</ele>
        <time>2018-08-17T12:24:43.334Z</time>
      </trkpt>
      <trkpt lat="48.2609340" lon="-1.6663625">
        <ele>43.688</ele>
        <time>2018-08-17T12:24:46.664Z</time>
      </trkpt>
      <trkpt lat="48.2609933" lon="-1.6662396">
        <ele>43.730</ele>
        <time>2018-08-17T12:24:50.112Z</time>
      </trkpt>
      <trkpt lat="48.2610643" lon="-1.6661038">
        <ele>43.868</ele>
        <time>2018-08-17T12:24:54.161Z</time>
      </trkpt>
      <trkpt lat="48.2611326" lon="-1.6659760">
        <ele>44.210</ele>
        <time>2018-08-17T12:24:57.999Z</time>
      </trkpt>
      <trkpt lat="48.2612071" lon="-1.6658464">
        <ele>45.251</ele>
        <time>2018-08-17T12:25:01.988Z</time>
      </trkpt>
      <trkpt lat="48.2612706" lon="-1.6657246">
        <ele>47.269</ele>
        <time>2018-08-17T12:25:05.568Z</time>
      </trkpt>
      <trkpt lat="48.2613550" lon="-1.6656272">
        <ele>49.590</ele>
        <time>2018-08-17T12:25:09.245Z</time>
      </trkpt>
      <trkpt lat="48.2614287" lon="-1.6655055">
        <ele>51.294</ele>
        <time>2018-08-17T12:25:13.015Z</time>
      </trkpt>
      <trkpt lat="48.2615028" lon="-1.6653894">
        <ele>52.069</ele>
        <time>2018-08-17T12:25:16.718Z</time>
      </trkpt>
      <trkpt lat="48.2615876" lon="-1.6652974">
        <ele>52.279</ele>
        <time>2018-08-17T12:25:20.441Z</time>
      </trkpt>
      <trkpt lat="48.2616758" lon="-1.6651914">
        <ele>52.528</ele>
        <time>2018-08-17T12:25:24.389Z</time>
      </trkpt>
      <trkpt lat="48.2617569" lon="-1.6650967">
        <ele>52.927</ele>
        <time>2018-08-17T12:25:27.669Z</time>
      </trkpt>
      <trkpt lat="48.2618490" lon="-1.6650107">
        <ele>53.201</ele>
        <time>2018-08-17T12:25:31.002Z</time>
      </trkpt>
      <trkpt lat="48.2619278" lon="-1.6649355">
        <ele>53.120</ele>
        <time>2018-08-17T12:25:33.904Z</time>
      </trkpt>
      <trkpt lat="48.2620042" lon="-1.6648621">
        <ele>52.678</ele>
        <time>2018-08-17T12:25:36.783Z</time>
      </trkpt>
      <trkpt lat="48.2620910" lon="-1.6647772">
        <ele>52.123</ele>
        <time>2018-08-17T12:25:40.214Z</time>
      </trkpt>
      <trkpt lat="48.2621862" lon="-1.6646857">
        <ele>51.443</ele>
        <time>2018-08-17T12:25:43.997Z</time>
      </trkpt>
      <trkpt lat="48.2622840" lon="-1.6645886">
        <ele>50.360</ele>
        <time>2018-08-17T12:25:47.926Z</time>
      </trkpt>
      <trkpt lat="48.2623760" lon="-1.6645073">
        <ele>48.890</ele>
        <time>2018-08-17T12:25:51.600Z</time>
      </trkpt>
      <trkpt lat="48.2624811" lon="-1.6644488">
        <ele>47.115</ele>
        <time>2018-08-17T12:25:55.588Z</time>
      </trkpt>
      <trkpt lat="48.2625784" lon="-1.6643961">
        <ele>45.101</ele>
        <time>2018-08-17T12:25:59.415Z</time>
      </trkpt>
      <trkpt lat="48.2626656" lon="-1.6643546">
        <ele>43.224</ele>
        <time>2018-08-17T12:26:02.859Z</time>
      </trkpt>
      <trkpt lat="48.2627722" lon="-1.6643285">
        <ele>41.739</ele>
        <time>2018-08-17T12:26:06.997Z</time>
      </trkpt>
      <trkpt lat="48.2628812" lon="-1.6643206">
        <ele>40.604</ele>
        <time>2018-08-17T12:26:11.184Z</time>
      </trkpt>
      <trkpt lat="48.2629979" lon="-1.6643089">
        <ele>39.657</ele>
        <time>2018-08-17T12:26:15.374Z</time>
      </trkpt>
      <trkpt lat="48.2631161" lon="-1.6643456">
        <ele>38.866</ele>
        <time>2018-08-17T12:26:19.435Z</time>
      </trkpt>
      <trkpt lat="48.2632204" lon="-1.6643533">
        <ele>38.450</ele>
        <time>2018-08-17T12:26:22.903Z</time>
      </trkpt>
      <trkpt lat="48.2633052" lon="-1.6644045">
        <ele>38.499</ele>
        <time>2018-08-17T12:26:25.949Z</time>
      </trkpt>
      <trkpt lat="48.2633900" lon="-1.6644609">
        <ele>38.727</ele>
        <time>2018-08-17T12:26:29.000Z</time>
      </trkpt>
      <trkpt lat="48.2633900" lon="-1.6644609">
        <ele>38.855</ele>
        <time>2018-08-17T12:26:31.000Z</time>
      </trkpt>
      <trkpt lat="48.2633900" lon="-1.6644609">
        <ele>38.847</ele>
        <time>2018-08-17T12:26:31.100Z</time>
      </trkpt>
      <trkpt lat="48.2635792" lon="-1.6646091">
        <ele>38.808</ele>
        <time>2018-08-17T12:26:41.931Z</time>
      </trkpt>
      <trkpt lat="48.2636625" lon="-1.6646826">
        <ele>38.798</ele>
        <time>2018-08-17T12:26:45.718Z</time>
      </trkpt>
      <trkpt lat="48.2637429" lon="-1.6647743">
        <ele>38.895</ele>
        <time>2018-08-17T12:26:49.725Z</time>
      </trkpt>
      <trkpt lat="48.2638075" lon="-1.6648700">
        <ele>39.142</ele>
        <time>2018-08-17T12:26:53.234Z</time>
      </trkpt>
      <trkpt lat="48.2639026" lon="-1.6649196">
        <ele>39.394</ele>
        <time>2018-08-17T12:26:57.093Z</time>
      </trkpt>
      <trkpt lat="48.2639827" lon="-1.6649903">
        <ele>39.502</ele>
        <time>2018-08-17T12:27:00.681Z</time>
      </trkpt>
      <trkpt lat="48.2640613" lon="-1.6650646">
        <ele>39.492</ele>
        <time>2018-08-17T12:27:04.243Z</time>
      </trkpt>
      <trkpt lat="48.2641427" lon="-1.6651365">
        <ele>39.389</ele>
        <time>2018-08-17T12:27:07.940Z</time>
      </trkpt>
      <trkpt lat="48.2642241" lon="-1.6652049">
        <ele>39.214</ele>
        <time>2018-08-17T12:27:11.595Z</time>
      </trkpt>
      <trkpt lat="48.2643106" lon="-1.6652637">
        <ele>39.057</ele>
        <time>2018-08-17T12:27:15.122Z</time>
      </trkpt>
      <trkpt lat="48.2644045" lon="-1.6653666">
        <ele>38.791</ele>
        <time>2018-08-17T12:27:19.216Z</time>
      </trkpt>
      <trkpt lat="48.2644848" lon="-1.6654574">
        <ele>38.264</ele>
        <time>2018-08-17T12:27:22.713Z</time>
      </trkpt>
      <trkpt lat="48.2645632" lon="-1.6655716">
        <ele>37.570</ele>
        <time>2018-08-17T12:27:26.515Z</time>
      </trkpt>
      <trkpt lat="48.2646436" lon="-1.6656967">
        <ele>36.883</ele>
        <time>2018-08-17T12:27:30.512Z</time>
      </trkpt>
      <trkpt lat="48.2646975" lon="-1.6658334">
        <ele>36.497</ele>
        <time>2018-08-17T12:27:34.151Z</time>
      </trkpt>
      <trkpt lat="48.2647707" lon="-1.6659597">
        <ele>36.606</ele>
        <time>2018-08-17T12:27:37.909Z</time>
      </trkpt>
      <trkpt lat="48.2648582" lon="-1.6660608">
        <ele>36.914</ele>
        <time>2018-08-17T12:27:41.598Z</time>
      </trkpt>
      <trkpt lat="48.2649697" lon="-1.6660742">
        <ele>36.978</ele>
        <time>2018-08-17T12:27:45.346Z</time>
      </trkpt>
      <trkpt lat="48.2650870" lon="-1.6660798">
        <ele>36.540</ele>
        <time>2018-08-17T12:27:48.962Z</time>
      </trkpt>
      <trkpt lat="48.2651828" lon="-1.6661430">
        <ele>35.781</ele>
        <time>2018-08-17T12:27:52.000Z</time>
      </trkpt>
      <trkpt lat="48.2651828" lon="-1.6661430">
        <ele>35.273</ele>
        <time>2018-08-17T12:27:54.000Z</time>
      </trkpt>
      <trkpt lat="48.2651828" lon="-1.6661430">
        <ele>35.283</ele>
        <time>2018-08-17T12:27:54.100Z</time>
      </trkpt>
      <trkpt lat="48.2653319" lon="-1.6663274">
        <ele>35.529</ele>
        <time>2018-08-17T12:28:01.948Z</time>
      </trkpt>
      <trkpt lat="48.2653913" lon="-1.6664395">
        <ele>36.435</ele>
        <time>2018-08-17T12:28:04.803Z</time>
      </trkpt>
      <trkpt lat="48.2654661" lon="-1.6665356">
        <ele>38.585</ele>
        <time>2018-08-17T12:28:07.786Z</time>
      </trkpt>
      <trkpt lat="48.2655623" lon="-1.6666393">
        <ele>41.239</ele>
        <time>2018-08-17T12:28:11.264Z</time>
      </trkpt>
      <trkpt lat="48.2656500" lon="-1.6667347">
        <ele>43.313</ele>
        <time>2018-08-17T12:28:14.536Z</time>
      </trkpt>
      <trkpt lat="48.2657043" lon="-1.6668626">
        <ele>44.537</ele>
        <time>2018-08-17T12:28:17.966Z</time>
      </trkpt>
      <trkpt lat="48.2657692" lon="-1.6669694">
        <ele>44.158</ele>
        <time>2018-08-17T12:28:23.000Z</time>
      </trkpt>
      <trkpt lat="48.2657692" lon="-1.6669694">
        <ele>41.993</ele>
        <time>2018-08-17T12:28:40.000Z</time>
      </trkpt>
      <trkpt lat="48.2657692" lon="-1.6669694">
        <ele>40.088</ele>
        <time>2018-08-17T12:32:23.036Z</time>
      </trkpt>
      <trkpt lat="48.2659369" lon="-1.6672407">
        <ele>40.134</ele>
        <time>2018-08-17T12:32:51.074Z</time>
      </trkpt>
      <trkpt lat="48.2660197" lon="-1.6673100">
        <ele>41.233</ele>
        <time>2018-08-17T12:32:56.433Z</time>
      </trkpt>
      <trkpt lat="48.2661039" lon="-1.6673940">
        <ele>42.113</ele>
        <time>2018-08-17T12:33:01.209Z</time>
      </trkpt>
      <trkpt lat="48.2662049" lon="-1.6674474">
        <ele>42.583</ele>
        <time>2018-08-17T12:33:06.009Z</time>
      </trkpt>
      <trkpt lat="48.2662985" lon="-1.6675300">
        <ele>42.991</ele>
        <time>2018-08-17T12:33:10.624Z</time>
      </trkpt>
      <trkpt lat="48.2663947" lon="-1.6675770">
        <ele>43.526</ele>
        <time>2018-08-17T12:33:14.479Z</time>
      </trkpt>
      <trkpt lat="48.2665056" lon="-1.6676308">
        <ele>43.997</ele>
        <time>2018-08-17T12:33:18.945Z</time>
      </trkpt>
      <trkpt lat="48.2665968" lon="-1.6676938">
        <ele>44.173</ele>
        <time>2018-08-17T12:33:22.829Z</time>
      </trkpt>
      <trkpt lat="48.2666847" lon="-1.6677671">
        <ele>44.073</ele>
        <time>2018-08-17T12:33:26.392Z</time>
      </trkpt>
      <trkpt lat="48.2667852" lon="-1.6678112">
        <ele>43.993</ele>
        <time>2018-08-17T12:33:29.855Z</time>
      </trkpt>
      <trkpt lat="48.2668744" lon="-1.6678350">
        <ele>44.227</ele>
        <time>2018-08-17T12:33:32.812Z</time>
      </trkpt>
      <trkpt lat="48.2669663" lon="-1.6678417">
        <ele>44.667</ele>
        <time>2018-08-17T12:33:35.848Z</time>
      </trkpt>
      <trkpt lat="48.2670831" lon="-1.6678638">
        <ele>45.110</ele>
        <time>2018-08-17T12:33:39.893Z</time>
      </trkpt>
      <trkpt lat="48.2671972" lon="-1.6678883">
        <ele>45.633</ele>
        <time>2018-08-17T12:33:43.881Z</time>
      </trkpt>
      <trkpt lat="48.2672961" lon="-1.6679007">
        <ele>46.224</ele>
        <time>2018-08-17T12:33:47.184Z</time>
      </trkpt>
      <trkpt lat="48.2674059" lon="-1.6679125">
        <ele>46.432</ele>
        <time>2018-08-17T12:33:50.908Z</time>
      </trkpt>
      <trkpt lat="48.2675245" lon="-1.6679345">
        <ele>46.053</ele>
        <time>2018-08-17T12:33:55.234Z</time>
      </trkpt>
      <trkpt lat="48.2676312" lon="-1.6679275">
        <ele>45.689</ele>
        <time>2018-08-17T12:33:58.954Z</time>
      </trkpt>
      <trkpt lat="48.2677399" lon="-1.6679200">
        <ele>45.869</ele>
        <time>2018-08-17T12:34:02.571Z</time>
      </trkpt>
      <trkpt lat="48.2678323" lon="-1.6679082">
        <ele>46.314</ele>
        <time>2018-08-17T12:34:05.690Z</time>
      </trkpt>
      <trkpt lat="48.2679246" lon="-1.6678870">
        <ele>46.720</ele>
        <time>2018-08-17T12:34:08.957Z</time>
      </trkpt>
      <trkpt lat="48.2680276" lon="-1.6678559">
        <ele>47.234</ele>
        <time>2018-08-17T12:34:12.720Z</time>
      </trkpt>
      <trkpt lat="48.2681219" lon="-1.6678225">
        <ele>47.889</ele>
        <time>2018-08-17T12:34:16.180Z</time>
      </trkpt>
      <trkpt lat="48.2682250" lon="-1.6677974">
        <ele>48.392</ele>
        <time>2018-08-17T12:34:19.808Z</time>
      </trkpt>
      <trkpt lat="48.2683295" lon="-1.6677609">
        <ele>48.514</ele>
        <time>2018-08-17T12:34:23.368Z</time>
      </trkpt>
      <trkpt lat="48.2684337" lon="-1.6677017">
        <ele>48.319</ele>
        <time>2018-08-17T12:34:26.942Z</time>
      </trkpt>
      <trkpt lat="48.2685193" lon="-1.6676485">
        <ele>47.947</ele>
        <time>2018-08-17T12:34:29.880Z</time>
      </trkpt>
      <trkpt lat="48.2686265" lon="-1.6675855">
        <ele>47.535</ele>
        <time>2018-08-17T12:34:33.573Z</time>
      </trkpt>
      <trkpt lat="48.2687247" lon="-1.6675010">
        <ele>47.245</ele>
        <time>2018-08-17T12:34:37.305Z</time>
      </trkpt>
      <trkpt lat="48.2688192" lon="-1.6674328">
        <ele>46.848</ele>
        <time>2018-08-17T12:34:40.750Z</time>
      </trkpt>
      <trkpt lat="48.2688999" lon="-1.6673719">
        <ele>46.035</ele>
        <time>2018-08-17T12:34:43.633Z</time>
      </trkpt>
      <trkpt lat="48.2689846" lon="-1.6673199">
        <ele>45.155</ele>
        <time>2018-08-17T12:34:46.544Z</time>
      </trkpt>
      <trkpt lat="48.2690717" lon="-1.6672419">
        <ele>44.584</ele>
        <time>2018-08-17T12:34:49.813Z</time>
      </trkpt>
      <trkpt lat="48.2691434" lon="-1.6671236">
        <ele>43.811</ele>
        <time>2018-08-17T12:34:53.278Z</time>
      </trkpt>
      <trkpt lat="48.2692461" lon="-1.6670464">
        <ele>42.520</ele>
        <time>2018-08-17T12:34:56.984Z</time>
      </trkpt>
      <trkpt lat="48.2693584" lon="-1.6669885">
        <ele>41.754</ele>
        <time>2018-08-17T12:35:00.748Z</time>
      </trkpt>
      <trkpt lat="48.2694441" lon="-1.6669345">
        <ele>42.377</ele>
        <time>2018-08-17T12:35:03.612Z</time>
      </trkpt>
      <trkpt lat="48.2695227" lon="-1.6668632">
        <ele>43.623</ele>
        <time>2018-08-17T12:35:06.666Z</time>
      </trkpt>
      <trkpt lat="48.2696091" lon="-1.6667904">
        <ele>44.527</ele>
        <time>2018-08-17T12:35:10.000Z</time>
      </trkpt>
      <trkpt lat="48.2696091" lon="-1.6667904">
        <ele>44.893</ele>
        <time>2018-08-17T12:35:11.000Z</time>
      </trkpt>
      <trkpt lat="48.2696091" lon="-1.6667904">
        <ele>44.894</ele>
        <time>2018-08-17T12:35:11.100Z</time>
      </trkpt>
      <trkpt lat="48.2697857" lon="-1.6667028">
        <ele>44.816</ele>
        <time>2018-08-17T12:35:19.987Z</time>
      </trkpt>
      <trkpt lat="48.2698797" lon="-1.6666315">
        <ele>44.832</ele>
        <time>2018-08-17T12:35:23.797Z</time>
      </trkpt>
      <trkpt lat="48.2699800" lon="-1.6665730">
        <ele>44.912</ele>
        <time>2018-08-17T12:35:27.743Z</time>
      </trkpt>
      <trkpt lat="48.2700625" lon="-1.6664922">
        <ele>44.833</ele>
        <time>2018-08-17T12:35:31.351Z</time>
      </trkpt>
      <trkpt lat="48.2701518" lon="-1.6664031">
        <ele>43.898</ele>
        <time>2018-08-17T12:35:35.210Z</time>
      </trkpt>
      <trkpt lat="48.2702495" lon="-1.6663089">
        <ele>41.935</ele>
        <time>2018-08-17T12:35:39.454Z</time>
      </trkpt>
      <trkpt lat="48.2703436" lon="-1.6662420">
        <ele>40.000</ele>
        <time>2018-08-17T12:35:43.359Z</time>
      </trkpt>
      <trkpt lat="48.2704425" lon="-1.6661872">
        <ele>39.429</ele>
        <time>2018-08-17T12:35:47.248Z</time>
      </trkpt>
      <trkpt lat="48.2705470" lon="-1.6661258">
        <ele>40.346</ele>
        <time>2018-08-17T12:35:51.368Z</time>
      </trkpt>
      <trkpt lat="48.2706332" lon="-1.6660743">
        <ele>41.875</ele>
        <time>2018-08-17T12:35:54.861Z</time>
      </trkpt>
      <trkpt lat="48.2707336" lon="-1.6659973">
        <ele>43.098</ele>
        <time>2018-08-17T12:35:59.422Z</time>
      </trkpt>
      <trkpt lat="48.2708140" lon="-1.6659368">
        <ele>43.632</ele>
        <time>2018-08-17T12:36:03.064Z</time>
      </trkpt>
      <trkpt lat="48.2709259" lon="-1.6658862">
        <ele>43.576</ele>
        <time>2018-08-17T12:36:07.448Z</time>
      </trkpt>
      <trkpt lat="48.2710318" lon="-1.6658131">
        <ele>43.341</ele>
        <time>2018-08-17T12:36:11.718Z</time>
      </trkpt>
      <trkpt lat="48.2711149" lon="-1.6657470">
        <ele>43.174</ele>
        <time>2018-08-17T12:36:15.235Z</time>
      </trkpt>
      <trkpt lat="48.2712213" lon="-1.6656766">
        <ele>43.165</ele>
        <time>2018-08-17T12:36:19.607Z</time>
      </trkpt>
      <trkpt lat="48.2713241" lon="-1.6656026">
        <ele>43.293</ele>
        <time>2018-08-17T12:36:23.685Z</time>
      </trkpt>
      <trkpt lat="48.2714255" lon="-1.6655193">
        <ele>43.479</ele>
        <time>2018-08-17T12:36:27.634Z</time>
      </trkpt>
      <trkpt lat="48.2715358" lon="-1.6654671">
        <ele>43.727</ele>
        <time>2018-08-17T12:36:31.505Z</time>
      </trkpt>
      <trkpt lat="48.2716319" lon="-1.6654023">
        <ele>44.062</ele>
        <time>2018-08-17T12:36:34.928Z</time>
      </trkpt>
      <trkpt lat="48.2717214" lon="-1.6653763">
        <ele>44.250</ele>
        <time>2018-08-17T12:36:37.764Z</time>
      </trkpt>
      <trkpt lat="48.2718181" lon="-1.6653483">
        <ele>44.010</ele>
        <time>2018-08-17T12:36:40.904Z</time>
      </trkpt>
      <trkpt lat="48.2719161" lon="-1.6652988">
        <ele>43.353</ele>
        <time>2018-08-17T12:36:44.290Z</time>
      </trkpt>
      <trkpt lat="48.2723061" lon="-1.6649407">
        <ele>42.217</ele>
        <time>2018-08-17T12:36:59.879Z</time>
      </trkpt>
      <trkpt lat="48.2723888" lon="-1.6648581">
        <ele>43.476</ele>
        <time>2018-08-17T12:37:04.000Z</time>
      </trkpt>
      <trkpt lat="48.2723888" lon="-1.6648581">
        <ele>46.492</ele>
        <time>2018-08-17T12:37:04.000Z</time>
      </trkpt>
      <trkpt lat="48.2723888" lon="-1.6648581">
        <ele>48.835</ele>
        <time>2018-08-17T12:37:04.100Z</time>
      </trkpt>
      <trkpt lat="48.2725324" lon="-1.6646885">
        <ele>48.756</ele>
        <time>2018-08-17T12:37:25.102Z</time>
      </trkpt>
      <trkpt lat="48.2726246" lon="-1.6646599">
        <ele>47.700</ele>
        <time>2018-08-17T12:37:31.437Z</time>
      </trkpt>
      <trkpt lat="48.2727097" lon="-1.6645709">
        <ele>47.302</ele>
        <time>2018-08-17T12:37:36.790Z</time>
      </trkpt>
      <trkpt lat="48.2727889" lon="-1.6644786">
        <ele>47.473</ele>
        <time>2018-08-17T12:37:42.560Z</time>
      </trkpt>
      <trkpt lat="48.2728651" lon="-1.6643946">
        <ele>47.630</ele>
        <time>2018-08-17T12:37:48.000Z</time>
      </trkpt>
      <trkpt lat="48.2728651" lon="-1.6643946">
        <ele>47.636</ele>
        <time>2018-08-17T12:37:50.000Z</time>
      </trkpt>
      <trkpt lat="48.2728651" lon="-1.6643946">
        <ele>47.593</ele>
        <time>2018-08-17T12:37:50.100Z</time>
      </trkpt>
      <trkpt lat="48.2729519" lon="-1.6643555">
        <ele>47.570</ele>
        <time>2018-08-17T12:39:08.000Z</time>
      </trkpt>
      <trkpt lat="48.2729519" lon="-1.6643555">
        <ele>47.566</ele>
        <time>2018-08-17T12:39:10.000Z</time>
      </trkpt>
      <trkpt lat="48.2729519" lon="-1.6643555">
        <ele>47.547</ele>
        <time>2018-08-17T12:41:24.832Z</time>
      </trkpt>
      <trkpt lat="48.2728587" lon="-1.6643785">
        <ele>47.510</ele>
        <time>2018-08-17T12:41:49.000Z</time>
      </trkpt>
      <trkpt lat="48.2728587" lon="-1.6643785">
        <ele>47.507</ele>
        <time>2018-08-17T12:41:52.000Z</time>
      </trkpt>
      <trkpt lat="48.2728587" lon="-1.6643785">
        <ele>47.501</ele>
        <time>2018-08-17T12:42:26.215Z</time>
      </trkpt>
      <trkpt lat="48.2727533" lon="-1.6644311">
        <ele>47.461</ele>
        <time>2018-08-17T12:42:41.000Z</time>
      </trkpt>
      <trkpt lat="48.2727533" lon="-1.6644311">
        <ele>47.444</ele>
        <time>2018-08-17T12:42:42.000Z</time>
      </trkpt>
      <trkpt lat="48.2727533" lon="-1.6644311">
        <ele>47.424</ele>
        <time>2018-08-17T12:42:42.100Z</time>
      </trkpt>
      <trkpt lat="48.2728418" lon="-1.6643939">
        <ele>47.389</ele>
        <time>2018-08-17T12:42:56.000Z</time>
      </trkpt>
      <trkpt lat="48.2728418" lon="-1.6643939">
        <ele>47.386</ele>
        <time>2018-08-17T12:43:00.000Z</time>
      </trkpt>
      <trkpt lat="48.2728418" lon="-1.6643939">
        <ele>47.380</ele>
        <time>2018-08-17T12:44:12.502Z</time>
      </trkpt>
      <trkpt lat="48.2730187" lon="-1.6642673">
        <ele>47.361</ele>
        <time>2018-08-17T12:44:27.098Z</time>
      </trkpt>
      <trkpt lat="48.2731140" lon="-1.6642212">
        <ele>47.340</ele>
        <time>2018-08-17T12:44:32.181Z</time>
      </trkpt>
      <trkpt lat="48.2732150" lon="-1.6642002">
        <ele>47.344</ele>
        <time>2018-08-17T12:44:37.603Z</time>
      </trkpt>
      <trkpt lat="48.2733188" lon="-1.6641960">
        <ele>47.380</ele>
        <time>2018-08-17T12:44:42.948Z</time>
      </trkpt>
      <trkpt lat="48.2734226" lon="-1.6641696">
        <ele>47.411</ele>
        <time>2018-08-17T12:44:47.821Z</time>
      </trkpt>
      <trkpt lat="48.2735328" lon="-1.6641726">
        <ele>47.279</ele>
        <time>2018-08-17T12:44:52.677Z</time>
      </trkpt>
      <trkpt lat="48.2736341" lon="-1.6641885">
        <ele>46.890</ele>
        <time>2018-08-17T12:44:57.129Z</time>
      </trkpt>
      <trkpt lat="48.2737322" lon="-1.6642181">
        <ele>46.443</ele>
        <time>2018-08-17T12:45:01.393Z</time>
      </trkpt>
      <trkpt lat="48.2738235" lon="-1.6642867">
        <ele>46.343</ele>
        <time>2018-08-17T12:45:05.432Z</time>
      </trkpt>
      <trkpt lat="48.2739233" lon="-1.6643110">
        <ele>46.733</ele>
        <time>2018-08-17T12:45:09.167Z</time>
      </trkpt>
      <trkpt lat="48.2740086" lon="-1.6643603">
        <ele>47.252</ele>
        <time>2018-08-17T12:45:12.458Z</time>
      </trkpt>
      <trkpt lat="48.2740995" lon="-1.6644143">
        <ele>47.395</ele>
        <time>2018-08-17T12:45:16.000Z</time>
      </trkpt>
      <trkpt lat="48.2740995" lon="-1.6644143">
        <ele>47.129</ele>
        <time>2018-08-17T12:45:19.000Z</time>
      </trkpt>
      <trkpt lat="48.2740995" lon="-1.6644143">
        <ele>46.852</ele>
        <time>2018-08-17T12:45:19.100Z</time>
      </trkpt>
      <trkpt lat="48.2742682" lon="-1.6646290">
        <ele>46.831</ele>
        <time>2018-08-17T12:45:30.814Z</time>
      </trkpt>
      <trkpt lat="48.2743285" lon="-1.6647392">
        <ele>46.765</ele>
        <time>2018-08-17T12:45:34.842Z</time>
      </trkpt>
      <trkpt lat="48.2743766" lon="-1.6648895">
        <ele>46.331</ele>
        <time>2018-08-17T12:45:39.700Z</time>
      </trkpt>
      <trkpt lat="48.2744373" lon="-1.6650087">
        <ele>45.761</ele>
        <time>2018-08-17T12:45:43.757Z</time>
      </trkpt>
      <trkpt lat="48.2744862" lon="-1.6651293">
        <ele>45.418</ele>
        <time>2018-08-17T12:45:46.985Z</time>
      </trkpt>
      <trkpt lat="48.2745400" lon="-1.6652969">
        <ele>45.385</ele>
        <time>2018-08-17T12:45:51.026Z</time>
      </trkpt>
      <trkpt lat="48.2745809" lon="-1.6654718">
        <ele>45.633</ele>
        <time>2018-08-17T12:45:55.624Z</time>
      </trkpt>
      <trkpt lat="48.2746198" lon="-1.6656197">
        <ele>46.069</ele>
        <time>2018-08-17T12:45:59.965Z</time>
      </trkpt>
      <trkpt lat="48.2746693" lon="-1.6657477">
        <ele>46.579</ele>
        <time>2018-08-17T12:46:03.737Z</time>
      </trkpt>
      <trkpt lat="48.2747286" lon="-1.6658580">
        <ele>47.042</ele>
        <time>2018-08-17T12:46:07.053Z</time>
      </trkpt>
      <trkpt lat="48.2748052" lon="-1.6659914">
        <ele>47.313</ele>
        <time>2018-08-17T12:46:11.325Z</time>
      </trkpt>
      <trkpt lat="48.2748626" lon="-1.6661059">
        <ele>47.339</ele>
        <time>2018-08-17T12:46:15.134Z</time>
      </trkpt>
      <trkpt lat="48.2749156" lon="-1.6662251">
        <ele>47.197</ele>
        <time>2018-08-17T12:46:18.850Z</time>
      </trkpt>
      <trkpt lat="48.2749690" lon="-1.6663406">
        <ele>47.037</ele>
        <time>2018-08-17T12:46:22.175Z</time>
      </trkpt>
      <trkpt lat="48.2750272" lon="-1.6664845">
        <ele>46.955</ele>
        <time>2018-08-17T12:46:25.961Z</time>
      </trkpt>
      <trkpt lat="48.2751048" lon="-1.6666173">
        <ele>46.874</ele>
        <time>2018-08-17T12:46:29.838Z</time>
      </trkpt>
      <trkpt lat="48.2751946" lon="-1.6667286">
        <ele>46.711</ele>
        <time>2018-08-17T12:46:33.769Z</time>
      </trkpt>
      <trkpt lat="48.2752578" lon="-1.6668602">
        <ele>46.533</ele>
        <time>2018-08-17T12:46:37.646Z</time>
      </trkpt>
      <trkpt lat="48.2753039" lon="-1.6669967">
        <ele>46.435</ele>
        <time>2018-08-17T12:46:41.330Z</time>
      </trkpt>
      <trkpt lat="48.2753455" lon="-1.6671514">
        <ele>46.436</ele>
        <time>2018-08-17T12:46:45.211Z</time>
      </trkpt>
      <trkpt lat="48.2753639" lon="-1.6672922">
        <ele>46.580</ele>
        <time>2018-08-17T12:46:48.964Z</time>
      </trkpt>
      <trkpt lat="48.2753874" lon="-1.6674620">
        <ele>46.877</ele>
        <time>2018-08-17T12:46:54.399Z</time>
      </trkpt>
      <trkpt lat="48.2754321" lon="-1.6676058">
        <ele>47.246</ele>
        <time>2018-08-17T12:46:59.256Z</time>
      </trkpt>
      <trkpt lat="48.2754906" lon="-1.6677588">
        <ele>47.620</ele>
        <time>2018-08-17T12:47:04.539Z</time>
      </trkpt>
      <trkpt lat="48.2755489" lon="-1.6678831">
        <ele>47.943</ele>
        <time>2018-08-17T12:47:09.625Z</time>
      </trkpt>
      <trkpt lat="48.2756134" lon="-1.6680007">
        <ele>48.145</ele>
        <time>2018-08-17T12:47:14.859Z</time>
      </trkpt>
      <trkpt lat="48.2756525" lon="-1.6681361">
        <ele>48.186</ele>
        <time>2018-08-17T12:47:19.572Z</time>
      </trkpt>
      <trkpt lat="48.2757148" lon="-1.6682415">
        <ele>47.983</ele>
        <time>2018-08-17T12:47:23.434Z</time>
      </trkpt>
      <trkpt lat="48.2757513" lon="-1.6683822">
        <ele>47.351</ele>
        <time>2018-08-17T12:47:26.802Z</time>
      </trkpt>
      <trkpt lat="48.2757792" lon="-1.6685200">
        <ele>46.402</ele>
        <time>2018-08-17T12:47:29.616Z</time>
      </trkpt>
      <trkpt lat="48.2758458" lon="-1.6686731">
        <ele>45.725</ele>
        <time>2018-08-17T12:47:33.041Z</time>
      </trkpt>
      <trkpt lat="48.2759017" lon="-1.6688054">
        <ele>45.695</ele>
        <time>2018-08-17T12:47:36.212Z</time>
      </trkpt>
      <trkpt lat="48.2759631" lon="-1.6689264">
        <ele>46.086</ele>
        <time>2018-08-17T12:47:39.408Z</time>
      </trkpt>
      <trkpt lat="48.2760293" lon="-1.6690305">
        <ele>46.522</ele>
        <time>2018-08-17T12:47:42.893Z</time>
      </trkpt>
      <trkpt lat="48.2760933" lon="-1.6691695">
        <ele>46.822</ele>
        <time>2018-08-17T12:47:47.192Z</time>
      </trkpt>
      <trkpt lat="48.2761550" lon="-1.6692778">
        <ele>46.981</ele>
        <time>2018-08-17T12:47:50.678Z</time>
      </trkpt>
      <trkpt lat="48.2762196" lon="-1.6693928">
        <ele>47.117</ele>
        <time>2018-08-17T12:47:54.153Z</time>
      </trkpt>
      <trkpt lat="48.2762888" lon="-1.6695241">
        <ele>47.601</ele>
        <time>2018-08-17T12:47:57.898Z</time>
      </trkpt>
      <trkpt lat="48.2763552" lon="-1.6696376">
        <ele>48.025</ele>
        <time>2018-08-17T12:48:01.222Z</time>
      </trkpt>
      <trkpt lat="48.2764246" lon="-1.6697400">
        <ele>48.619</ele>
        <time>2018-08-17T12:48:04.322Z</time>
      </trkpt>
      <trkpt lat="48.2764853" lon="-1.6698625">
        <ele>49.203</ele>
        <time>2018-08-17T12:48:07.456Z</time>
      </trkpt>
      <trkpt lat="48.2765342" lon="-1.6699977">
        <ele>49.549</ele>
        <time>2018-08-17T12:48:10.643Z</time>
      </trkpt>
      <trkpt lat="48.2765941" lon="-1.6701054">
        <ele>49.612</ele>
        <time>2018-08-17T12:48:13.747Z</time>
      </trkpt>
      <trkpt lat="48.2766650" lon="-1.6702146">
        <ele>49.576</ele>
        <time>2018-08-17T12:48:17.168Z</time>
      </trkpt>
      <trkpt lat="48.2767414" lon="-1.6702948">
        <ele>49.589</ele>
        <time>2018-08-17T12:48:20.208Z</time>
      </trkpt>
      <trkpt lat="48.2768141" lon="-1.6703951">
        <ele>49.615</ele>
        <time>2018-08-17T12:48:23.255Z</time>
      </trkpt>
      <trkpt lat="48.2768946" lon="-1.6705196">
        <ele>49.483</ele>
        <time>2018-08-17T12:48:26.751Z</time>
      </trkpt>
      <trkpt lat="48.2769729" lon="-1.6705959">
        <ele>49.303</ele>
        <time>2018-08-17T12:48:29.557Z</time>
      </trkpt>
      <trkpt lat="48.2770608" lon="-1.6706499">
        <ele>49.035</ele>
        <time>2018-08-17T12:48:32.388Z</time>
      </trkpt>
      <trkpt lat="48.2771497" lon="-1.6706990">
        <ele>48.645</ele>
        <time>2018-08-17T12:48:35.195Z</time>
      </trkpt>
      <trkpt lat="48.2772520" lon="-1.6707790">
        <ele>48.106</ele>
        <time>2018-08-17T12:48:38.621Z</time>
      </trkpt>
      <trkpt lat="48.2773315" lon="-1.6708492">
        <ele>47.560</ele>
        <time>2018-08-17T12:48:41.396Z</time>
      </trkpt>
      <trkpt lat="48.2774315" lon="-1.6709454">
        <ele>47.204</ele>
        <time>2018-08-17T12:48:44.999Z</time>
      </trkpt>
      <trkpt lat="48.2774315" lon="-1.6709454">
        <ele>47.080</ele>
        <time>2018-08-17T12:48:46.999Z</time>
      </trkpt>
      <trkpt lat="48.2774315" lon="-1.6709454">
        <ele>47.087</ele>
        <time>2018-08-17T12:48:47.099Z</time>
      </trkpt>
      <trkpt lat="48.2776760" lon="-1.6710658">
        <ele>47.107</ele>
        <time>2018-08-17T12:49:00.748Z</time>
      </trkpt>
      <trkpt lat="48.2777659" lon="-1.6710965">
        <ele>46.934</ele>
        <time>2018-08-17T12:49:04.364Z</time>
      </trkpt>
      <trkpt lat="48.2778651" lon="-1.6711378">
        <ele>46.491</ele>
        <time>2018-08-17T12:49:08.292Z</time>
      </trkpt>
      <trkpt lat="48.2779502" lon="-1.6712181">
        <ele>46.048</ele>
        <time>2018-08-17T12:49:11.783Z</time>
      </trkpt>
      <trkpt lat="48.2780389" lon="-1.6712505">
        <ele>45.840</ele>
        <time>2018-08-17T12:49:14.861Z</time>
      </trkpt>
      <trkpt lat="48.2781395" lon="-1.6712707">
        <ele>45.803</ele>
        <time>2018-08-17T12:49:18.274Z</time>
      </trkpt>
      <trkpt lat="48.2782361" lon="-1.6712465">
        <ele>45.825</ele>
        <time>2018-08-17T12:49:21.574Z</time>
      </trkpt>
      <trkpt lat="48.2783495" lon="-1.6712303">
        <ele>45.896</ele>
        <time>2018-08-17T12:49:25.241Z</time>
      </trkpt>
      <trkpt lat="48.2784403" lon="-1.6712450">
        <ele>46.027</ele>
        <time>2018-08-17T12:49:28.104Z</time>
      </trkpt>
      <trkpt lat="48.2785278" lon="-1.6712806">
        <ele>46.157</ele>
        <time>2018-08-17T12:49:30.990Z</time>
      </trkpt>
      <trkpt lat="48.2786283" lon="-1.6713377">
        <ele>46.288</ele>
        <time>2018-08-17T12:49:34.476Z</time>
      </trkpt>
      <trkpt lat="48.2787409" lon="-1.6713674">
        <ele>46.503</ele>
        <time>2018-08-17T12:49:38.067Z</time>
      </trkpt>
      <trkpt lat="48.2788285" lon="-1.6714187">
        <ele>46.760</ele>
        <time>2018-08-17T12:49:40.506Z</time>
      </trkpt>
      <trkpt lat="48.2789394" lon="-1.6714489">
        <ele>46.937</ele>
        <time>2018-08-17T12:49:43.470Z</time>
      </trkpt>
      <trkpt lat="48.2790318" lon="-1.6714641">
        <ele>46.993</ele>
        <time>2018-08-17T12:49:46.526Z</time>
      </trkpt>
      <trkpt lat="48.2791336" lon="-1.6714736">
        <ele>46.867</ele>
        <time>2018-08-17T12:49:50.019Z</time>
      </trkpt>
      <trkpt lat="48.2792426" lon="-1.6714998">
        <ele>46.563</ele>
        <time>2018-08-17T12:49:53.583Z</time>
      </trkpt>
      <trkpt lat="48.2793555" lon="-1.6715452">
        <ele>46.274</ele>
        <time>2018-08-17T12:49:57.189Z</time>
      </trkpt>
      <trkpt lat="48.2794413" lon="-1.6715978">
        <ele>46.183</ele>
        <time>2018-08-17T12:50:00.127Z</time>
      </trkpt>
      <trkpt lat="48.2795381" lon="-1.6716553">
        <ele>46.301</ele>
        <time>2018-08-17T12:50:03.352Z</time>
      </trkpt>
      <trkpt lat="48.2796400" lon="-1.6717020">
        <ele>46.579</ele>
        <time>2018-08-17T12:50:06.638Z</time>
      </trkpt>
      <trkpt lat="48.2797458" lon="-1.6717205">
        <ele>46.988</ele>
        <time>2018-08-17T12:50:10.047Z</time>
      </trkpt>
      <trkpt lat="48.2798405" lon="-1.6717932">
        <ele>47.502</ele>
        <time>2018-08-17T12:50:13.675Z</time>
      </trkpt>
      <trkpt lat="48.2799439" lon="-1.6718901">
        <ele>48.016</ele>
        <time>2018-08-17T12:50:18.145Z</time>
      </trkpt>
      <trkpt lat="48.2800278" lon="-1.6719609">
        <ele>48.378</ele>
        <time>2018-08-17T12:50:21.872Z</time>
      </trkpt>
      <trkpt lat="48.2801281" lon="-1.6720476">
        <ele>48.480</ele>
        <time>2018-08-17T12:50:25.972Z</time>
      </trkpt>
      <trkpt lat="48.2802224" lon="-1.6721349">
        <ele>48.347</ele>
        <time>2018-08-17T12:50:29.718Z</time>
      </trkpt>
      <trkpt lat="48.2803115" lon="-1.6722282">
        <ele>48.140</ele>
        <time>2018-08-17T12:50:33.408Z</time>
      </trkpt>
      <trkpt lat="48.2804039" lon="-1.6723111">
        <ele>48.074</ele>
        <time>2018-08-17T12:50:37.138Z</time>
      </trkpt>
      <trkpt lat="48.2804949" lon="-1.6723198">
        <ele>48.239</ele>
        <time>2018-08-17T12:50:40.431Z</time>
      </trkpt>
      <trkpt lat="48.2805982" lon="-1.6723814">
        <ele>48.538</ele>
        <time>2018-08-17T12:50:45.290Z</time>
      </trkpt>
      <trkpt lat="48.2807019" lon="-1.6724661">
        <ele>48.874</ele>
        <time>2018-08-17T12:50:50.950Z</time>
      </trkpt>
      <trkpt lat="48.2807937" lon="-1.6725190">
        <ele>49.198</ele>
        <time>2018-08-17T12:50:54.989Z</time>
      </trkpt>
      <trkpt lat="48.2809015" lon="-1.6725667">
        <ele>49.323</ele>
        <time>2018-08-17T12:50:59.257Z</time>
      </trkpt>
      <trkpt lat="48.2809922" lon="-1.6725914">
        <ele>49.156</ele>
        <time>2018-08-17T12:51:02.858Z</time>
      </trkpt>
      <trkpt lat="48.2811067" lon="-1.6726032">
        <ele>49.029</ele>
        <time>2018-08-17T12:51:08.697Z</time>
      </trkpt>
      <trkpt lat="48.2812124" lon="-1.6725867">
        <ele>49.224</ele>
        <time>2018-08-17T12:51:15.175Z</time>
      </trkpt>
      <trkpt lat="48.2813155" lon="-1.6725821">
        <ele>49.553</ele>
        <time>2018-08-17T12:51:19.861Z</time>
      </trkpt>
      <trkpt lat="48.2814094" lon="-1.6725669">
        <ele>49.599</ele>
        <time>2018-08-17T12:51:23.520Z</time>
      </trkpt>
      <trkpt lat="48.2815014" lon="-1.6725506">
        <ele>49.250</ele>
        <time>2018-08-17T12:51:26.919Z</time>
      </trkpt>
      <trkpt lat="48.2816043" lon="-1.6725659">
        <ele>48.816</ele>
        <time>2018-08-17T12:51:31.082Z</time>
      </trkpt>
      <trkpt lat="48.2817155" lon="-1.6725577">
        <ele>48.495</ele>
        <time>2018-08-17T12:51:36.663Z</time>
      </trkpt>
      <trkpt lat="48.2818190" lon="-1.6725437">
        <ele>48.183</ele>
        <time>2018-08-17T12:51:42.312Z</time>
      </trkpt>
      <trkpt lat="48.2819425" lon="-1.6725132">
        <ele>47.932</ele>
        <time>2018-08-17T12:51:47.869Z</time>
      </trkpt>
      <trkpt lat="48.2820507" lon="-1.6724926">
        <ele>47.922</ele>
        <time>2018-08-17T12:51:52.398Z</time>
      </trkpt>
      <trkpt lat="48.2821463" lon="-1.6724611">
        <ele>48.153</ele>
        <time>2018-08-17T12:51:56.158Z</time>
      </trkpt>
      <trkpt lat="48.2822458" lon="-1.6724271">
        <ele>48.422</ele>
        <time>2018-08-17T12:51:59.926Z</time>
      </trkpt>
      <trkpt lat="48.2823625" lon="-1.6724220">
        <ele>48.536</ele>
        <time>2018-08-17T12:52:04.003Z</time>
      </trkpt>
      <trkpt lat="48.2824581" lon="-1.6723955">
        <ele>48.475</ele>
        <time>2018-08-17T12:52:07.359Z</time>
      </trkpt>
      <trkpt lat="48.2825530" lon="-1.6723670">
        <ele>48.332</ele>
        <time>2018-08-17T12:52:10.479Z</time>
      </trkpt>
      <trkpt lat="48.2826678" lon="-1.6723335">
        <ele>48.216</ele>
        <time>2018-08-17T12:52:13.819Z</time>
      </trkpt>
      <trkpt lat="48.2827770" lon="-1.6723062">
        <ele>48.163</ele>
        <time>2018-08-17T12:52:16.635Z</time>
      </trkpt>
      <trkpt lat="48.2828756" lon="-1.6722784">
        <ele>48.107</ele>
        <time>2018-08-17T12:52:19.000Z</time>
      </trkpt>
      <trkpt lat="48.2828756" lon="-1.6722784">
        <ele>47.992</ele>
        <time>2018-08-17T12:52:21.000Z</time>
      </trkpt>
      <trkpt lat="48.2828756" lon="-1.6722784">
        <ele>47.888</ele>
        <time>2018-08-17T12:52:21.100Z</time>
      </trkpt>
      <trkpt lat="48.2830842" lon="-1.6721979">
        <ele>47.885</ele>
        <time>2018-08-17T12:52:31.207Z</time>
      </trkpt>
      <trkpt lat="48.2831904" lon="-1.6721350">
        <ele>48.137</ele>
        <time>2018-08-17T12:52:35.652Z</time>
      </trkpt>
      <trkpt lat="48.2832894" lon="-1.6720951">
        <ele>48.677</ele>
        <time>2018-08-17T12:52:39.873Z</time>
      </trkpt>
      <trkpt lat="48.2833839" lon="-1.6720596">
        <ele>49.307</ele>
        <time>2018-08-17T12:52:43.900Z</time>
      </trkpt>
      <trkpt lat="48.2834803" lon="-1.6720102">
        <ele>49.859</ele>
        <time>2018-08-17T12:52:48.461Z</time>
      </trkpt>
      <trkpt lat="48.2835805" lon="-1.6719812">
        <ele>50.244</ele>
        <time>2018-08-17T12:52:53.541Z</time>
      </trkpt>
      <trkpt lat="48.2836873" lon="-1.6719248">
        <ele>50.397</ele>
        <time>2018-08-17T12:52:59.668Z</time>
      </trkpt>
      <trkpt lat="48.2837784" lon="-1.6718692">
        <ele>50.256</ele>
        <time>2018-08-17T12:53:03.802Z</time>
      </trkpt>
      <trkpt lat="48.2838710" lon="-1.6717887">
        <ele>49.717</ele>
        <time>2018-08-17T12:53:07.409Z</time>
      </trkpt>
      <trkpt lat="48.2839842" lon="-1.6717367">
        <ele>48.985</ele>
        <time>2018-08-17T12:53:11.333Z</time>
      </trkpt>
      <trkpt lat="48.2840981" lon="-1.6716749">
        <ele>48.697</ele>
        <time>2018-08-17T12:53:15.481Z</time>
      </trkpt>
      <trkpt lat="48.2841956" lon="-1.6716185">
        <ele>49.139</ele>
        <time>2018-08-17T12:53:19.019Z</time>
      </trkpt>
      <trkpt lat="48.2842952" lon="-1.6715173">
        <ele>49.894</ele>
        <time>2018-08-17T12:53:22.797Z</time>
      </trkpt>
      <trkpt lat="48.2844012" lon="-1.6714691">
        <ele>50.526</ele>
        <time>2018-08-17T12:53:26.451Z</time>
      </trkpt>
      <trkpt lat="48.2845079" lon="-1.6714337">
        <ele>51.013</ele>
        <time>2018-08-17T12:53:30.876Z</time>
      </trkpt>
      <trkpt lat="48.2845957" lon="-1.6713913">
        <ele>51.429</ele>
        <time>2018-08-17T12:53:34.866Z</time>
      </trkpt>
      <trkpt lat="48.2846800" lon="-1.6713260">
        <ele>51.756</ele>
        <time>2018-08-17T12:53:38.698Z</time>
      </trkpt>
      <trkpt lat="48.2847767" lon="-1.6712559">
        <ele>51.926</ele>
        <time>2018-08-17T12:53:43.034Z</time>
      </trkpt>
      <trkpt lat="48.2848724" lon="-1.6712466">
        <ele>51.951</ele>
        <time>2018-08-17T12:53:47.100Z</time>
      </trkpt>
      <trkpt lat="48.2849612" lon="-1.6712884">
        <ele>51.585</ele>
        <time>2018-08-17T12:53:51.170Z</time>
      </trkpt>
      <trkpt lat="48.2850585" lon="-1.6713003">
        <ele>50.701</ele>
        <time>2018-08-17T12:53:55.207Z</time>
      </trkpt>
      <trkpt lat="48.2851599" lon="-1.6713523">
        <ele>49.845</ele>
        <time>2018-08-17T12:53:59.145Z</time>
      </trkpt>
      <trkpt lat="48.2852522" lon="-1.6713866">
        <ele>49.500</ele>
        <time>2018-08-17T12:54:02.703Z</time>
      </trkpt>
      <trkpt lat="48.2853340" lon="-1.6714564">
        <ele>49.523</ele>
        <time>2018-08-17T12:54:06.800Z</time>
      </trkpt>
      <trkpt lat="48.2854204" lon="-1.6715594">
        <ele>49.670</ele>
        <time>2018-08-17T12:54:12.448Z</time>
      </trkpt>
      <trkpt lat="48.2854753" lon="-1.6716808">
        <ele>49.800</ele>
        <time>2018-08-17T12:54:18.275Z</time>
      </trkpt>
      <trkpt lat="48.2855214" lon="-1.6718006">
        <ele>49.870</ele>
        <time>2018-08-17T12:54:23.599Z</time>
      </trkpt>
      <trkpt lat="48.2855729" lon="-1.6719158">
        <ele>50.022</ele>
        <time>2018-08-17T12:54:28.547Z</time>
      </trkpt>
      <trkpt lat="48.2856181" lon="-1.6720496">
        <ele>50.357</ele>
        <time>2018-08-17T12:54:33.495Z</time>
      </trkpt>
      <trkpt lat="48.2856635" lon="-1.6721878">
        <ele>50.683</ele>
        <time>2018-08-17T12:54:38.189Z</time>
      </trkpt>
      <trkpt lat="48.2856711" lon="-1.6723224">
        <ele>50.808</ele>
        <time>2018-08-17T12:54:42.146Z</time>
      </trkpt>
      <trkpt lat="48.2856954" lon="-1.6724879">
        <ele>50.848</ele>
        <time>2018-08-17T12:54:47.162Z</time>
      </trkpt>
      <trkpt lat="48.2857530" lon="-1.6726089">
        <ele>51.009</ele>
        <time>2018-08-17T12:54:51.319Z</time>
      </trkpt>
      <trkpt lat="48.2858109" lon="-1.6727520">
        <ele>51.301</ele>
        <time>2018-08-17T12:54:55.279Z</time>
      </trkpt>
      <trkpt lat="48.2858169" lon="-1.6729114">
        <ele>51.549</ele>
        <time>2018-08-17T12:54:59.071Z</time>
      </trkpt>
      <trkpt lat="48.2858168" lon="-1.6730707">
        <ele>51.616</ele>
        <time>2018-08-17T12:55:03.050Z</time>
      </trkpt>
      <trkpt lat="48.2858202" lon="-1.6732081">
        <ele>51.521</ele>
        <time>2018-08-17T12:55:06.085Z</time>
      </trkpt>
      <trkpt lat="48.2858412" lon="-1.6733697">
        <ele>51.411</ele>
        <time>2018-08-17T12:55:09.584Z</time>
      </trkpt>
      <trkpt lat="48.2858643" lon="-1.6735113">
        <ele>51.438</ele>
        <time>2018-08-17T12:55:13.039Z</time>
      </trkpt>
      <trkpt lat="48.2858941" lon="-1.6736532">
        <ele>51.611</ele>
        <time>2018-08-17T12:55:16.833Z</time>
      </trkpt>
      <trkpt lat="48.2859728" lon="-1.6737581">
        <ele>51.937</ele>
        <time>2018-08-17T12:55:19.814Z</time>
      </trkpt>
      <trkpt lat="48.2860577" lon="-1.6738754">
        <ele>52.598</ele>
        <time>2018-08-17T12:55:22.590Z</time>
      </trkpt>
      <trkpt lat="48.2860314" lon="-1.6740392">
        <ele>53.704</ele>
        <time>2018-08-17T12:55:25.666Z</time>
      </trkpt>
      <trkpt lat="48.2859663" lon="-1.6741650">
        <ele>54.894</ele>
        <time>2018-08-17T12:55:28.817Z</time>
      </trkpt>
      <trkpt lat="48.2859544" lon="-1.6743326">
        <ele>55.423</ele>
        <time>2018-08-17T12:55:32.962Z</time>
      </trkpt>
      <trkpt lat="48.2859709" lon="-1.6744806">
        <ele>54.908</ele>
        <time>2018-08-17T12:55:36.152Z</time>
      </trkpt>
      <trkpt lat="48.2860357" lon="-1.6746302">
        <ele>53.806</ele>
        <time>2018-08-17T12:55:40.039Z</time>
      </trkpt>
      <trkpt lat="48.2861054" lon="-1.6747533">
        <ele>52.863</ele>
        <time>2018-08-17T12:55:44.049Z</time>
      </trkpt>
      <trkpt lat="48.2861741" lon="-1.6748681">
        <ele>52.404</ele>
        <time>2018-08-17T12:55:48.250Z</time>
      </trkpt>
      <trkpt lat="48.2862799" lon="-1.6749239">
        <ele>52.300</ele>
        <time>2018-08-17T12:55:52.926Z</time>
      </trkpt>
      <trkpt lat="48.2863568" lon="-1.6750183">
        <ele>52.029</ele>
        <time>2018-08-17T12:55:56.858Z</time>
      </trkpt>
      <trkpt lat="48.2864446" lon="-1.6750868">
        <ele>51.183</ele>
        <time>2018-08-17T12:56:00.809Z</time>
      </trkpt>
      <trkpt lat="48.2865439" lon="-1.6751582">
        <ele>50.090</ele>
        <time>2018-08-17T12:56:04.761Z</time>
      </trkpt>
      <trkpt lat="48.2866235" lon="-1.6752290">
        <ele>49.409</ele>
        <time>2018-08-17T12:56:08.017Z</time>
      </trkpt>
      <trkpt lat="48.2867275" lon="-1.6752570">
        <ele>49.293</ele>
        <time>2018-08-17T12:56:12.322Z</time>
      </trkpt>
      <trkpt lat="48.2868375" lon="-1.6752762">
        <ele>49.368</ele>
        <time>2018-08-17T12:56:17.047Z</time>
      </trkpt>
      <trkpt lat="48.2869447" lon="-1.6752768">
        <ele>49.314</ele>
        <time>2018-08-17T12:56:21.126Z</time>
      </trkpt>
      <trkpt lat="48.2870351" lon="-1.6753011">
        <ele>49.316</ele>
        <time>2018-08-17T12:56:24.150Z</time>
      </trkpt>
      <trkpt lat="48.2871370" lon="-1.6753049">
        <ele>49.620</ele>
        <time>2018-08-17T12:56:27.380Z</time>
      </trkpt>
      <trkpt lat="48.2872263" lon="-1.6752896">
        <ele>50.035</ele>
        <time>2018-08-17T12:56:30.208Z</time>
      </trkpt>
      <trkpt lat="48.2873174" lon="-1.6753178">
        <ele>50.264</ele>
        <time>2018-08-17T12:56:33.219Z</time>
      </trkpt>
      <trkpt lat="48.2874061" lon="-1.6753797">
        <ele>50.277</ele>
        <time>2018-08-17T12:56:36.558Z</time>
      </trkpt>
      <trkpt lat="48.2875284" lon="-1.6754137">
        <ele>50.310</ele>
        <time>2018-08-17T12:56:40.936Z</time>
      </trkpt>
      <trkpt lat="48.2876452" lon="-1.6754116">
        <ele>50.601</ele>
        <time>2018-08-17T12:56:44.794Z</time>
      </trkpt>
      <trkpt lat="48.2877536" lon="-1.6754089">
        <ele>51.112</ele>
        <time>2018-08-17T12:56:48.179Z</time>
      </trkpt>
      <trkpt lat="48.2878558" lon="-1.6753779">
        <ele>51.615</ele>
        <time>2018-08-17T12:56:51.414Z</time>
      </trkpt>
      <trkpt lat="48.2879510" lon="-1.6753316">
        <ele>51.929</ele>
        <time>2018-08-17T12:56:54.785Z</time>
      </trkpt>
      <trkpt lat="48.2880433" lon="-1.6752951">
        <ele>52.052</ele>
        <time>2018-08-17T12:56:58.277Z</time>
      </trkpt>
      <trkpt lat="48.2881411" lon="-1.6752874">
        <ele>52.101</ele>
        <time>2018-08-17T12:57:01.988Z</time>
      </trkpt>
      <trkpt lat="48.2882558" lon="-1.6752915">
        <ele>52.140</ele>
        <time>2018-08-17T12:57:06.306Z</time>
      </trkpt>
      <trkpt lat="48.2883556" lon="-1.6752197">
        <ele>52.163</ele>
        <time>2018-08-17T12:57:10.483Z</time>
      </trkpt>
      <trkpt lat="48.2884544" lon="-1.6752007">
        <ele>52.089</ele>
        <time>2018-08-17T12:57:14.344Z</time>
      </trkpt>
      <trkpt lat="48.2885502" lon="-1.6751709">
        <ele>51.860</ele>
        <time>2018-08-17T12:57:18.299Z</time>
      </trkpt>
      <trkpt lat="48.2886581" lon="-1.6751374">
        <ele>51.576</ele>
        <time>2018-08-17T12:57:22.787Z</time>
      </trkpt>
      <trkpt lat="48.2887497" lon="-1.6751037">
        <ele>50.909</ele>
        <time>2018-08-17T12:57:26.535Z</time>
      </trkpt>
      <trkpt lat="48.2888564" lon="-1.6750524">
        <ele>49.604</ele>
        <time>2018-08-17T12:57:30.865Z</time>
      </trkpt>
      <trkpt lat="48.2889425" lon="-1.6750138">
        <ele>48.434</ele>
        <time>2018-08-17T12:57:34.180Z</time>
      </trkpt>
      <trkpt lat="48.2890350" lon="-1.6749669">
        <ele>48.483</ele>
        <time>2018-08-17T12:57:37.630Z</time>
      </trkpt>
      <trkpt lat="48.2891370" lon="-1.6749359">
        <ele>49.721</ele>
        <time>2018-08-17T12:57:41.299Z</time>
      </trkpt>
      <trkpt lat="48.2892317" lon="-1.6749348">
        <ele>51.140</ele>
        <time>2018-08-17T12:57:44.721Z</time>
      </trkpt>
      <trkpt lat="48.2893214" lon="-1.6749225">
        <ele>52.008</ele>
        <time>2018-08-17T12:57:48.123Z</time>
      </trkpt>
      <trkpt lat="48.2894145" lon="-1.6749036">
        <ele>52.405</ele>
        <time>2018-08-17T12:57:51.831Z</time>
      </trkpt>
      <trkpt lat="48.2895092" lon="-1.6748845">
        <ele>52.469</ele>
        <time>2018-08-17T12:57:55.785Z</time>
      </trkpt>
      <trkpt lat="48.2896023" lon="-1.6748301">
        <ele>52.236</ele>
        <time>2018-08-17T12:57:59.839Z</time>
      </trkpt>
      <trkpt lat="48.2896876" lon="-1.6747702">
        <ele>51.900</ele>
        <time>2018-08-17T12:58:03.575Z</time>
      </trkpt>
      <trkpt lat="48.2897845" lon="-1.6746956">
        <ele>51.698</ele>
        <time>2018-08-17T12:58:07.878Z</time>
      </trkpt>
      <trkpt lat="48.2898716" lon="-1.6746478">
        <ele>51.870</ele>
        <time>2018-08-17T12:58:11.471Z</time>
      </trkpt>
      <trkpt lat="48.2899689" lon="-1.6746064">
        <ele>52.467</ele>
        <time>2018-08-17T12:58:15.299Z</time>
      </trkpt>
      <trkpt lat="48.2900792" lon="-1.6745710">
        <ele>53.119</ele>
        <time>2018-08-17T12:58:19.493Z</time>
      </trkpt>
      <trkpt lat="48.2901788" lon="-1.6745336">
        <ele>53.573</ele>
        <time>2018-08-17T12:58:23.262Z</time>
      </trkpt>
      <trkpt lat="48.2902853" lon="-1.6745138">
        <ele>53.931</ele>
        <time>2018-08-17T12:58:27.224Z</time>
      </trkpt>
      <trkpt lat="48.2903760" lon="-1.6744442">
        <ele>54.121</ele>
        <time>2018-08-17T12:58:31.061Z</time>
      </trkpt>
      <trkpt lat="48.2904769" lon="-1.6744015">
        <ele>53.992</ele>
        <time>2018-08-17T12:58:35.150Z</time>
      </trkpt>
      <trkpt lat="48.2905699" lon="-1.6743427">
        <ele>53.669</ele>
        <time>2018-08-17T12:58:39.277Z</time>
      </trkpt>
      <trkpt lat="48.2906613" lon="-1.6743043">
        <ele>53.415</ele>
        <time>2018-08-17T12:58:43.423Z</time>
      </trkpt>
      <trkpt lat="48.2907618" lon="-1.6742976">
        <ele>53.341</ele>
        <time>2018-08-17T12:58:47.797Z</time>
      </trkpt>
      <trkpt lat="48.2908547" lon="-1.6742888">
        <ele>53.350</ele>
        <time>2018-08-17T12:58:51.622Z</time>
      </trkpt>
      <trkpt lat="48.2909437" lon="-1.6742686">
        <ele>53.294</ele>
        <time>2018-08-17T12:58:55.139Z</time>
      </trkpt>
      <trkpt lat="48.2910343" lon="-1.6742220">
        <ele>53.147</ele>
        <time>2018-08-17T12:58:58.769Z</time>
      </trkpt>
      <trkpt lat="48.2911236" lon="-1.6741665">
        <ele>53.028</ele>
        <time>2018-08-17T12:59:02.370Z</time>
      </trkpt>
      <trkpt lat="48.2912304" lon="-1.6741460">
        <ele>53.018</ele>
        <time>2018-08-17T12:59:06.236Z</time>
      </trkpt>
      <trkpt lat="48.2913181" lon="-1.6741112">
        <ele>53.065</ele>
        <time>2018-08-17T12:59:09.555Z</time>
      </trkpt>
      <trkpt lat="48.2914368" lon="-1.6741158">
        <ele>53.130</ele>
        <time>2018-08-17T12:59:14.086Z</time>
      </trkpt>
      <trkpt lat="48.2915318" lon="-1.6741413">
        <ele>53.218</ele>
        <time>2018-08-17T12:59:17.736Z</time>
      </trkpt>
      <trkpt lat="48.2916421" lon="-1.6741222">
        <ele>53.280</ele>
        <time>2018-08-17T12:59:21.723Z</time>
      </trkpt>
      <trkpt lat="48.2917599" lon="-1.6741000">
        <ele>53.159</ele>
        <time>2018-08-17T12:59:25.972Z</time>
      </trkpt>
      <trkpt lat="48.2918504" lon="-1.6741127">
        <ele>52.806</ele>
        <time>2018-08-17T12:59:29.428Z</time>
      </trkpt>
      <trkpt lat="48.2919600" lon="-1.6740704">
        <ele>52.428</ele>
        <time>2018-08-17T12:59:34.052Z</time>
      </trkpt>
      <trkpt lat="48.2920377" lon="-1.6740003">
        <ele>52.214</ele>
        <time>2018-08-17T12:59:37.993Z</time>
      </trkpt>
      <trkpt lat="48.2921405" lon="-1.6739573">
        <ele>52.079</ele>
        <time>2018-08-17T12:59:42.602Z</time>
      </trkpt>
      <trkpt lat="48.2922272" lon="-1.6738858">
        <ele>51.903</ele>
        <time>2018-08-17T12:59:46.413Z</time>
      </trkpt>
      <trkpt lat="48.2923157" lon="-1.6737739">
        <ele>51.747</ele>
        <time>2018-08-17T12:59:50.267Z</time>
      </trkpt>
      <trkpt lat="48.2924160" lon="-1.6736669">
        <ele>51.747</ele>
        <time>2018-08-17T12:59:54.124Z</time>
      </trkpt>
      <trkpt lat="48.2925286" lon="-1.6736183">
        <ele>51.882</ele>
        <time>2018-08-17T12:59:57.831Z</time>
      </trkpt>
      <trkpt lat="48.2926254" lon="-1.6735424">
        <ele>52.022</ele>
        <time>2018-08-17T13:00:01.300Z</time>
      </trkpt>
      <trkpt lat="48.2926922" lon="-1.6734402">
        <ele>52.151</ele>
        <time>2018-08-17T13:00:04.339Z</time>
      </trkpt>
      <trkpt lat="48.2927582" lon="-1.6733449">
        <ele>52.338</ele>
        <time>2018-08-17T13:00:07.393Z</time>
      </trkpt>
      <trkpt lat="48.2928346" lon="-1.6732595">
        <ele>52.537</ele>
        <time>2018-08-17T13:00:10.754Z</time>
      </trkpt>
      <trkpt lat="48.2929103" lon="-1.6731434">
        <ele>52.527</ele>
        <time>2018-08-17T13:00:14.721Z</time>
      </trkpt>
      <trkpt lat="48.2929740" lon="-1.6730235">
        <ele>52.221</ele>
        <time>2018-08-17T13:00:18.621Z</time>
      </trkpt>
      <trkpt lat="48.2930327" lon="-1.6729045">
        <ele>51.870</ele>
        <time>2018-08-17T13:00:22.536Z</time>
      </trkpt>
      <trkpt lat="48.2930945" lon="-1.6727971">
        <ele>51.707</ele>
        <time>2018-08-17T13:00:26.392Z</time>
      </trkpt>
      <trkpt lat="48.2931428" lon="-1.6726831">
        <ele>51.603</ele>
        <time>2018-08-17T13:00:30.057Z</time>
      </trkpt>
      <trkpt lat="48.2932026" lon="-1.6725784">
        <ele>51.340</ele>
        <time>2018-08-17T13:00:33.656Z</time>
      </trkpt>
      <trkpt lat="48.2932605" lon="-1.6724706">
        <ele>50.818</ele>
        <time>2018-08-17T13:00:37.083Z</time>
      </trkpt>
      <trkpt lat="48.2933200" lon="-1.6723369">
        <ele>50.176</ele>
        <time>2018-08-17T13:00:40.883Z</time>
      </trkpt>
      <trkpt lat="48.2934134" lon="-1.6722242">
        <ele>49.716</ele>
        <time>2018-08-17T13:00:45.083Z</time>
      </trkpt>
      <trkpt lat="48.2935003" lon="-1.6721296">
        <ele>49.731</ele>
        <time>2018-08-17T13:00:48.921Z</time>
      </trkpt>
      <trkpt lat="48.2936026" lon="-1.6720680">
        <ele>50.177</ele>
        <time>2018-08-17T13:00:52.974Z</time>
      </trkpt>
      <trkpt lat="48.2936999" lon="-1.6720383">
        <ele>50.667</ele>
        <time>2018-08-17T13:00:56.667Z</time>
      </trkpt>
      <trkpt lat="48.2937917" lon="-1.6719934">
        <ele>51.063</ele>
        <time>2018-08-17T13:01:00.267Z</time>
      </trkpt>
      <trkpt lat="48.2938978" lon="-1.6719426">
        <ele>51.510</ele>
        <time>2018-08-17T13:01:04.490Z</time>
      </trkpt>
      <trkpt lat="48.2939839" lon="-1.6719034">
        <ele>51.889</ele>
        <time>2018-08-17T13:01:07.907Z</time>
      </trkpt>
      <trkpt lat="48.2940832" lon="-1.6718681">
        <ele>52.083</ele>
        <time>2018-08-17T13:01:11.735Z</time>
      </trkpt>
      <trkpt lat="48.2941870" lon="-1.6718415">
        <ele>52.188</ele>
        <time>2018-08-17T13:01:15.621Z</time>
      </trkpt>
      <trkpt lat="48.2942888" lon="-1.6717992">
        <ele>52.373</ele>
        <time>2018-08-17T13:01:19.507Z</time>
      </trkpt>
      <trkpt lat="48.2943906" lon="-1.6717596">
        <ele>52.716</ele>
        <time>2018-08-17T13:01:23.436Z</time>
      </trkpt>
      <trkpt lat="48.2944835" lon="-1.6717262">
        <ele>52.877</ele>
        <time>2018-08-17T13:01:27.013Z</time>
      </trkpt>
      <trkpt lat="48.2945806" lon="-1.6716941">
        <ele>52.135</ele>
        <time>2018-08-17T13:01:30.776Z</time>
      </trkpt>
      <trkpt lat="48.2946854" lon="-1.6716674">
        <ele>50.527</ele>
        <time>2018-08-17T13:01:34.898Z</time>
      </trkpt>
      <trkpt lat="48.2947979" lon="-1.6716737">
        <ele>49.080</ele>
        <time>2018-08-17T13:01:39.434Z</time>
      </trkpt>
      <trkpt lat="48.2948873" lon="-1.6716948">
        <ele>48.749</ele>
        <time>2018-08-17T13:01:43.184Z</time>
      </trkpt>
      <trkpt lat="48.2949735" lon="-1.6717361">
        <ele>49.516</ele>
        <time>2018-08-17T13:01:46.985Z</time>
      </trkpt>
      <trkpt lat="48.2950758" lon="-1.6717994">
        <ele>50.584</ele>
        <time>2018-08-17T13:01:51.685Z</time>
      </trkpt>
      <trkpt lat="48.2951742" lon="-1.6718659">
        <ele>51.222</ele>
        <time>2018-08-17T13:01:56.114Z</time>
      </trkpt>
      <trkpt lat="48.2952597" lon="-1.6719343">
        <ele>51.200</ele>
        <time>2018-08-17T13:01:59.976Z</time>
      </trkpt>
      <trkpt lat="48.2953333" lon="-1.6720293">
        <ele>50.458</ele>
        <time>2018-08-17T13:02:03.867Z</time>
      </trkpt>
      <trkpt lat="48.2954348" lon="-1.6720986">
        <ele>49.380</ele>
        <time>2018-08-17T13:02:08.376Z</time>
      </trkpt>
      <trkpt lat="48.2955210" lon="-1.6721695">
        <ele>48.714</ele>
        <time>2018-08-17T13:02:12.321Z</time>
      </trkpt>
      <trkpt lat="48.2955925" lon="-1.6722573">
        <ele>48.722</ele>
        <time>2018-08-17T13:02:16.104Z</time>
      </trkpt>
      <trkpt lat="48.2956745" lon="-1.6723657">
        <ele>48.980</ele>
        <time>2018-08-17T13:02:20.572Z</time>
      </trkpt>
      <trkpt lat="48.2957461" lon="-1.6724740">
        <ele>49.044</ele>
        <time>2018-08-17T13:02:24.604Z</time>
      </trkpt>
      <trkpt lat="48.2958251" lon="-1.6725607">
        <ele>48.900</ele>
        <time>2018-08-17T13:02:28.411Z</time>
      </trkpt>
      <trkpt lat="48.2959066" lon="-1.6726410">
        <ele>49.036</ele>
        <time>2018-08-17T13:02:32.298Z</time>
      </trkpt>
      <trkpt lat="48.2959963" lon="-1.6726970">
        <ele>49.885</ele>
        <time>2018-08-17T13:02:36.548Z</time>
      </trkpt>
      <trkpt lat="48.2960866" lon="-1.6727410">
        <ele>51.136</ele>
        <time>2018-08-17T13:02:41.196Z</time>
      </trkpt>
      <trkpt lat="48.2961783" lon="-1.6728041">
        <ele>52.154</ele>
        <time>2018-08-17T13:02:47.000Z</time>
      </trkpt>
      <trkpt lat="48.2961783" lon="-1.6728041">
        <ele>52.697</ele>
        <time>2018-08-17T13:02:49.000Z</time>
      </trkpt>
      <trkpt lat="48.2961783" lon="-1.6728041">
        <ele>52.839</ele>
        <time>2018-08-17T13:02:49.175Z</time>
      </trkpt>
      <trkpt lat="48.2963785" lon="-1.6728897">
        <ele>52.779</ele>
        <time>2018-08-17T13:03:02.000Z</time>
      </trkpt>
      <trkpt lat="48.2963785" lon="-1.6728897">
        <ele>52.697</ele>
        <time>2018-08-17T13:03:20.000Z</time>
      </trkpt>
      <trkpt lat="48.2963785" lon="-1.6728897">
        <ele>52.674</ele>
        <time>2018-08-17T13:05:30.337Z</time>
      </trkpt>
      <trkpt lat="48.2966215" lon="-1.6729429">
        <ele>52.691</ele>
        <time>2018-08-17T13:05:49.883Z</time>
      </trkpt>
      <trkpt lat="48.2967144" lon="-1.6729834">
        <ele>52.838</ele>
        <time>2018-08-17T13:05:54.799Z</time>
      </trkpt>
      <trkpt lat="48.2968187" lon="-1.6730005">
        <ele>53.183</ele>
        <time>2018-08-17T13:06:00.049Z</time>
      </trkpt>
      <trkpt lat="48.2969087" lon="-1.6730287">
        <ele>53.520</ele>
        <time>2018-08-17T13:06:04.294Z</time>
      </trkpt>
      <trkpt lat="48.2970057" lon="-1.6730553">
        <ele>53.662</ele>
        <time>2018-08-17T13:06:08.276Z</time>
      </trkpt>
      <trkpt lat="48.2971040" lon="-1.6730795">
        <ele>53.665</ele>
        <time>2018-08-17T13:06:11.996Z</time>
      </trkpt>
      <trkpt lat="48.2972157" lon="-1.6731093">
        <ele>53.578</ele>
        <time>2018-08-17T13:06:16.084Z</time>
      </trkpt>
      <trkpt lat="48.2973268" lon="-1.6731383">
        <ele>53.400</ele>
        <time>2018-08-17T13:06:19.876Z</time>
      </trkpt>
      <trkpt lat="48.2974237" lon="-1.6731721">
        <ele>53.177</ele>
        <time>2018-08-17T13:06:23.000Z</time>
      </trkpt>
      <trkpt lat="48.2974237" lon="-1.6731721">
        <ele>52.990</ele>
        <time>2018-08-17T13:06:23.000Z</time>
      </trkpt>
      <trkpt lat="48.2974237" lon="-1.6731721">
        <ele>52.891</ele>
        <time>2018-08-17T13:06:23.098Z</time>
      </trkpt>
      <trkpt lat="48.2975567" lon="-1.6732233">
        <ele>52.878</ele>
        <time>2018-08-17T13:06:31.475Z</time>
      </trkpt>
      <trkpt lat="48.2976492" lon="-1.6732487">
        <ele>52.803</ele>
        <time>2018-08-17T13:06:35.610Z</time>
      </trkpt>
      <trkpt lat="48.2977571" lon="-1.6732740">
        <ele>52.503</ele>
        <time>2018-08-17T13:06:40.454Z</time>
      </trkpt>
      <trkpt lat="48.2978533" lon="-1.6732927">
        <ele>52.025</ele>
        <time>2018-08-17T13:06:44.317Z</time>
      </trkpt>
      <trkpt lat="48.2979460" lon="-1.6733246">
        <ele>51.602</ele>
        <time>2018-08-17T13:06:47.933Z</time>
      </trkpt>
      <trkpt lat="48.2980355" lon="-1.6733593">
        <ele>51.399</ele>
        <time>2018-08-17T13:06:51.363Z</time>
      </trkpt>
      <trkpt lat="48.2981324" lon="-1.6733994">
        <ele>51.474</ele>
        <time>2018-08-17T13:06:55.000Z</time>
      </trkpt>
      <trkpt lat="48.2981324" lon="-1.6733994">
        <ele>51.751</ele>
        <time>2018-08-17T13:06:57.000Z</time>
      </trkpt>
      <trkpt lat="48.2981324" lon="-1.6733994">
        <ele>51.967</ele>
        <time>2018-08-17T13:06:57.100Z</time>
      </trkpt>
      <trkpt lat="48.2983322" lon="-1.6734765">
        <ele>51.902</ele>
        <time>2018-08-17T13:07:08.087Z</time>
      </trkpt>
      <trkpt lat="48.2984266" lon="-1.6735073">
        <ele>51.695</ele>
        <time>2018-08-17T13:07:11.850Z</time>
      </trkpt>
      <trkpt lat="48.2985243" lon="-1.6735364">
        <ele>51.522</ele>
        <time>2018-08-17T13:07:15.613Z</time>
      </trkpt>
      <trkpt lat="48.2986282" lon="-1.6735729">
        <ele>51.437</ele>
        <time>2018-08-17T13:07:19.485Z</time>
      </trkpt>
      <trkpt lat="48.2987398" lon="-1.6736139">
        <ele>51.413</ele>
        <time>2018-08-17T13:07:23.615Z</time>
      </trkpt>
      <trkpt lat="48.2988461" lon="-1.6736471">
        <ele>51.334</ele>
        <time>2018-08-17T13:07:27.527Z</time>
      </trkpt>
      <trkpt lat="48.2989497" lon="-1.6736845">
        <ele>51.146</ele>
        <time>2018-08-17T13:07:31.318Z</time>
      </trkpt>
      <trkpt lat="48.2990525" lon="-1.6737180">
        <ele>50.931</ele>
        <time>2018-08-17T13:07:35.037Z</time>
      </trkpt>
      <trkpt lat="48.2991563" lon="-1.6737449">
        <ele>50.720</ele>
        <time>2018-08-17T13:07:38.747Z</time>
      </trkpt>
      <trkpt lat="48.2992621" lon="-1.6737774">
        <ele>50.551</ele>
        <time>2018-08-17T13:07:42.523Z</time>
      </trkpt>
      <trkpt lat="48.2993700" lon="-1.6738169">
        <ele>50.568</ele>
        <time>2018-08-17T13:07:46.403Z</time>
      </trkpt>
      <trkpt lat="48.2994737" lon="-1.6738502">
        <ele>50.843</ele>
        <time>2018-08-17T13:07:50.100Z</time>
      </trkpt>
      <trkpt lat="48.2995840" lon="-1.6738862">
        <ele>51.285</ele>
        <time>2018-08-17T13:07:54.002Z</time>
      </trkpt>
      <trkpt lat="48.2996923" lon="-1.6739198">
        <ele>51.841</ele>
        <time>2018-08-17T13:07:57.846Z</time>
      </trkpt>
      <trkpt lat="48.2997945" lon="-1.6739469">
        <ele>52.520</ele>
        <time>2018-08-17T13:08:01.529Z</time>
      </trkpt>
      <trkpt lat="48.2998951" lon="-1.6739843">
        <ele>53.296</ele>
        <time>2018-08-17T13:08:05.230Z</time>
      </trkpt>
      <trkpt lat="48.3000020" lon="-1.6740392">
        <ele>54.089</ele>
        <time>2018-08-17T13:08:09.267Z</time>
      </trkpt>
      <trkpt lat="48.3000955" lon="-1.6740939">
        <ele>54.803</ele>
        <time>2018-08-17T13:08:12.896Z</time>
      </trkpt>
      <trkpt lat="48.3001913" lon="-1.6741535">
        <ele>55.449</ele>
        <time>2018-08-17T13:08:16.678Z</time>
      </trkpt>
      <trkpt lat="48.3002918" lon="-1.6742227">
        <ele>56.001</ele>
        <time>2018-08-17T13:08:20.734Z</time>
      </trkpt>
      <trkpt lat="48.3003878" lon="-1.6742521">
        <ele>56.285</ele>
        <time>2018-08-17T13:08:24.442Z</time>
      </trkpt>
      <trkpt lat="48.3004797" lon="-1.6743064">
        <ele>56.199</ele>
        <time>2018-08-17T13:08:28.366Z</time>
      </trkpt>
      <trkpt lat="48.3005386" lon="-1.6744365">
        <ele>55.874</ele>
        <time>2018-08-17T13:08:33.000Z</time>
      </trkpt>
      <trkpt lat="48.3005386" lon="-1.6744365">
        <ele>55.620</ele>
        <time>2018-08-17T13:08:35.000Z</time>
      </trkpt>
      <trkpt lat="48.3005386" lon="-1.6744365">
        <ele>55.604</ele>
        <time>2018-08-17T13:08:35.100Z</time>
      </trkpt>
      <trkpt lat="48.3006478" lon="-1.6746760">
        <ele>55.709</ele>
        <time>2018-08-17T13:08:44.337Z</time>
      </trkpt>
      <trkpt lat="48.3007136" lon="-1.6748240">
        <ele>55.758</ele>
        <time>2018-08-17T13:08:47.860Z</time>
      </trkpt>
      <trkpt lat="48.3007693" lon="-1.6749610">
        <ele>55.620</ele>
        <time>2018-08-17T13:08:51.046Z</time>
      </trkpt>
      <trkpt lat="48.3007952" lon="-1.6750962">
        <ele>55.135</ele>
        <time>2018-08-17T13:08:53.905Z</time>
      </trkpt>
      <trkpt lat="48.3008124" lon="-1.6752540">
        <ele>54.209</ele>
        <time>2018-08-17T13:08:57.260Z</time>
      </trkpt>
      <trkpt lat="48.3008231" lon="-1.6754330">
        <ele>53.142</ele>
        <time>2018-08-17T13:09:01.000Z</time>
      </trkpt>
      <trkpt lat="48.3008231" lon="-1.6754330">
        <ele>52.442</ele>
        <time>2018-08-17T13:09:03.000Z</time>
      </trkpt>
      <trkpt lat="48.3008231" lon="-1.6754330">
        <ele>52.245</ele>
        <time>2018-08-17T13:09:03.100Z</time>
      </trkpt>
      <trkpt lat="48.3008315" lon="-1.6757364">
        <ele>52.298</ele>
        <time>2018-08-17T13:09:12.089Z</time>
      </trkpt>
      <trkpt lat="48.3008261" lon="-1.6758761">
        <ele>51.954</ele>
        <time>2018-08-17T13:09:15.123Z</time>
      </trkpt>
      <trkpt lat="48.3008483" lon="-1.6760474">
        <ele>50.895</ele>
        <time>2018-08-17T13:09:18.679Z</time>
      </trkpt>
      <trkpt lat="48.3008660" lon="-1.6762076">
        <ele>49.912</ele>
        <time>2018-08-17T13:09:21.745Z</time>
      </trkpt>
      <trkpt lat="48.3008823" lon="-1.6763568">
        <ele>49.724</ele>
        <time>2018-08-17T13:09:24.436Z</time>
      </trkpt>
      <trkpt lat="48.3008924" lon="-1.6765244">
        <ele>50.003</ele>
        <time>2018-08-17T13:09:27.317Z</time>
      </trkpt>
      <trkpt lat="48.3008940" lon="-1.6766865">
        <ele>50.182</ele>
        <time>2018-08-17T13:09:30.228Z</time>
      </trkpt>
      <trkpt lat="48.3008921" lon="-1.6768652">
        <ele>50.074</ele>
        <time>2018-08-17T13:09:33.726Z</time>
      </trkpt>
      <trkpt lat="48.3008785" lon="-1.6770018">
        <ele>50.106</ele>
        <time>2018-08-17T13:09:36.776Z</time>
      </trkpt>
      <trkpt lat="48.3008541" lon="-1.6771325">
        <ele>50.706</ele>
        <time>2018-08-17T13:09:40.000Z</time>
      </trkpt>
      <trkpt lat="48.3008541" lon="-1.6771325">
        <ele>51.469</ele>
        <time>2018-08-17T13:09:41.000Z</time>
      </trkpt>
      <trkpt lat="48.3008541" lon="-1.6771325">
        <ele>51.785</ele>
        <time>2018-08-17T13:09:41.100Z</time>
      </trkpt>
      <trkpt lat="48.3008849" lon="-1.6773594">
        <ele>51.693</ele>
        <time>2018-08-17T13:09:49.779Z</time>
      </trkpt>
      <trkpt lat="48.3009530" lon="-1.6774960">
        <ele>51.516</ele>
        <time>2018-08-17T13:09:53.646Z</time>
      </trkpt>
      <trkpt lat="48.3010334" lon="-1.6776161">
        <ele>51.314</ele>
        <time>2018-08-17T13:09:57.252Z</time>
      </trkpt>
      <trkpt lat="48.3011007" lon="-1.6777100">
        <ele>51.036</ele>
        <time>2018-08-17T13:09:59.964Z</time>
      </trkpt>
      <trkpt lat="48.3011795" lon="-1.6778039">
        <ele>50.815</ele>
        <time>2018-08-17T13:10:02.817Z</time>
      </trkpt>
      <trkpt lat="48.3012595" lon="-1.6778827">
        <ele>50.933</ele>
        <time>2018-08-17T13:10:05.516Z</time>
      </trkpt>
      <trkpt lat="48.3013714" lon="-1.6779302">
        <ele>51.542</ele>
        <time>2018-08-17T13:10:08.834Z</time>
      </trkpt>
      <trkpt lat="48.3014782" lon="-1.6779515">
        <ele>52.511</ele>
        <time>2018-08-17T13:10:12.000Z</time>
      </trkpt>
      <trkpt lat="48.3014782" lon="-1.6779515">
        <ele>53.457</ele>
        <time>2018-08-17T13:10:15.000Z</time>
      </trkpt>
      <trkpt lat="48.3014782" lon="-1.6779515">
        <ele>53.944</ele>
        <time>2018-08-17T13:10:15.100Z</time>
      </trkpt>
      <trkpt lat="48.3017038" lon="-1.6780171">
        <ele>53.878</ele>
        <time>2018-08-17T13:10:26.300Z</time>
      </trkpt>
      <trkpt lat="48.3018110" lon="-1.6780393">
        <ele>54.162</ele>
        <time>2018-08-17T13:10:30.015Z</time>
      </trkpt>
      <trkpt lat="48.3019197" lon="-1.6780762">
        <ele>55.435</ele>
        <time>2018-08-17T13:10:33.797Z</time>
      </trkpt>
      <trkpt lat="48.3020235" lon="-1.6781575">
        <ele>57.088</ele>
        <time>2018-08-17T13:10:37.807Z</time>
      </trkpt>
      <trkpt lat="48.3020935" lon="-1.6782450">
        <ele>58.376</ele>
        <time>2018-08-17T13:10:40.953Z</time>
      </trkpt>
      <trkpt lat="48.3021956" lon="-1.6783312">
        <ele>59.107</ele>
        <time>2018-08-17T13:10:45.072Z</time>
      </trkpt>
      <trkpt lat="48.3022870" lon="-1.6784149">
        <ele>59.040</ele>
        <time>2018-08-17T13:10:48.920Z</time>
      </trkpt>
      <trkpt lat="48.3023680" lon="-1.6785075">
        <ele>58.199</ele>
        <time>2018-08-17T13:10:52.666Z</time>
      </trkpt>
      <trkpt lat="48.3024396" lon="-1.6786054">
        <ele>57.054</ele>
        <time>2018-08-17T13:10:56.254Z</time>
      </trkpt>
      <trkpt lat="48.3025290" lon="-1.6787172">
        <ele>55.701</ele>
        <time>2018-08-17T13:11:00.474Z</time>
      </trkpt>
      <trkpt lat="48.3025955" lon="-1.6788412">
        <ele>54.040</ele>
        <time>2018-08-17T13:11:04.306Z</time>
      </trkpt>
      <trkpt lat="48.3026454" lon="-1.6789735">
        <ele>52.653</ele>
        <time>2018-08-17T13:11:07.999Z</time>
      </trkpt>
      <trkpt lat="48.3026989" lon="-1.6791094">
        <ele>52.011</ele>
        <time>2018-08-17T13:11:11.821Z</time>
      </trkpt>
      <trkpt lat="48.3027429" lon="-1.6792534">
        <ele>52.112</ele>
        <time>2018-08-17T13:11:15.591Z</time>
      </trkpt>
      <trkpt lat="48.3027982" lon="-1.6794010">
        <ele>52.786</ele>
        <time>2018-08-17T13:11:19.598Z</time>
      </trkpt>
      <trkpt lat="48.3028344" lon="-1.6795517">
        <ele>53.490</ele>
        <time>2018-08-17T13:11:23.431Z</time>
      </trkpt>
      <trkpt lat="48.3028161" lon="-1.6796909">
        <ele>53.589</ele>
        <time>2018-08-17T13:11:26.828Z</time>
      </trkpt>
      <trkpt lat="48.3027941" lon="-1.6798533">
        <ele>52.781</ele>
        <time>2018-08-17T13:11:30.755Z</time>
      </trkpt>
      <trkpt lat="48.3027981" lon="-1.6800172">
        <ele>51.475</ele>
        <time>2018-08-17T13:11:34.638Z</time>
      </trkpt>
      <trkpt lat="48.3027981" lon="-1.6801835">
        <ele>50.648</ele>
        <time>2018-08-17T13:11:38.570Z</time>
      </trkpt>
      <trkpt lat="48.3027815" lon="-1.6803566">
        <ele>50.854</ele>
        <time>2018-08-17T13:11:42.641Z</time>
      </trkpt>
      <trkpt lat="48.3027592" lon="-1.6805293">
        <ele>51.825</ele>
        <time>2018-08-17T13:11:46.669Z</time>
      </trkpt>
      <trkpt lat="48.3027547" lon="-1.6807054">
        <ele>53.128</ele>
        <time>2018-08-17T13:11:50.702Z</time>
      </trkpt>
      <trkpt lat="48.3027427" lon="-1.6808578">
        <ele>54.409</ele>
        <time>2018-08-17T13:11:54.214Z</time>
      </trkpt>
      <trkpt lat="48.3027413" lon="-1.6809987">
        <ele>55.116</ele>
        <time>2018-08-17T13:11:57.379Z</time>
      </trkpt>
      <trkpt lat="48.3027482" lon="-1.6811351">
        <ele>54.987</ele>
        <time>2018-08-17T13:12:00.429Z</time>
      </trkpt>
      <trkpt lat="48.3027661" lon="-1.6813036">
        <ele>54.404</ele>
        <time>2018-08-17T13:12:04.260Z</time>
      </trkpt>
      <trkpt lat="48.3027662" lon="-1.6814747">
        <ele>53.836</ele>
        <time>2018-08-17T13:12:08.109Z</time>
      </trkpt>
      <trkpt lat="48.3027681" lon="-1.6816509">
        <ele>53.511</ele>
        <time>2018-08-17T13:12:12.050Z</time>
      </trkpt>
      <trkpt lat="48.3027703" lon="-1.6818204">
        <ele>53.312</ele>
        <time>2018-08-17T13:12:15.856Z</time>
      </trkpt>
      <trkpt lat="48.3027775" lon="-1.6819737">
        <ele>53.042</ele>
        <time>2018-08-17T13:12:19.338Z</time>
      </trkpt>
      <trkpt lat="48.3027779" lon="-1.6821538">
        <ele>52.778</ele>
        <time>2018-08-17T13:12:23.444Z</time>
      </trkpt>
      <trkpt lat="48.3027728" lon="-1.6823169">
        <ele>52.655</ele>
        <time>2018-08-17T13:12:27.157Z</time>
      </trkpt>
      <trkpt lat="48.3027714" lon="-1.6824568">
        <ele>52.825</ele>
        <time>2018-08-17T13:12:30.290Z</time>
      </trkpt>
      <trkpt lat="48.3027753" lon="-1.6826340">
        <ele>53.340</ele>
        <time>2018-08-17T13:12:34.192Z</time>
      </trkpt>
      <trkpt lat="48.3027887" lon="-1.6827781">
        <ele>53.557</ele>
        <time>2018-08-17T13:12:37.309Z</time>
      </trkpt>
      <trkpt lat="48.3027899" lon="-1.6829154">
        <ele>52.950</ele>
        <time>2018-08-17T13:12:40.288Z</time>
      </trkpt>
      <trkpt lat="48.3027893" lon="-1.6830734">
        <ele>51.973</ele>
        <time>2018-08-17T13:12:43.811Z</time>
      </trkpt>
      <trkpt lat="48.3027793" lon="-1.6832435">
        <ele>51.106</ele>
        <time>2018-08-17T13:12:47.772Z</time>
      </trkpt>
      <trkpt lat="48.3027785" lon="-1.6833976">
        <ele>50.265</ele>
        <time>2018-08-17T13:12:51.471Z</time>
      </trkpt>
      <trkpt lat="48.3027662" lon="-1.6835571">
        <ele>49.262</ele>
        <time>2018-08-17T13:12:55.393Z</time>
      </trkpt>
      <trkpt lat="48.3027743" lon="-1.6837038">
        <ele>48.067</ele>
        <time>2018-08-17T13:12:59.038Z</time>
      </trkpt>
      <trkpt lat="48.3027845" lon="-1.6838566">
        <ele>46.859</ele>
        <time>2018-08-17T13:13:02.935Z</time>
      </trkpt>
      <trkpt lat="48.3027947" lon="-1.6839958">
        <ele>46.053</ele>
        <time>2018-08-17T13:13:06.569Z</time>
      </trkpt>
      <trkpt lat="48.3028135" lon="-1.6841377">
        <ele>45.903</ele>
        <time>2018-08-17T13:13:10.403Z</time>
      </trkpt>
      <trkpt lat="48.3028405" lon="-1.6842820">
        <ele>46.420</ele>
        <time>2018-08-17T13:13:14.386Z</time>
      </trkpt>
      <trkpt lat="48.3028720" lon="-1.6844221">
        <ele>47.366</ele>
        <time>2018-08-17T13:13:18.284Z</time>
      </trkpt>
      <trkpt lat="48.3028825" lon="-1.6845799">
        <ele>48.227</ele>
        <time>2018-08-17T13:13:22.388Z</time>
      </trkpt>
      <trkpt lat="48.3029220" lon="-1.6847210">
        <ele>48.638</ele>
        <time>2018-08-17T13:13:26.405Z</time>
      </trkpt>
      <trkpt lat="48.3029884" lon="-1.6848550">
        <ele>48.892</ele>
        <time>2018-08-17T13:13:31.125Z</time>
      </trkpt>
      <trkpt lat="48.3030492" lon="-1.6849714">
        <ele>49.580</ele>
        <time>2018-08-17T13:13:35.246Z</time>
      </trkpt>
      <trkpt lat="48.3031065" lon="-1.6851228">
        <ele>50.793</ele>
        <time>2018-08-17T13:13:39.519Z</time>
      </trkpt>
      <trkpt lat="48.3031739" lon="-1.6852509">
        <ele>51.903</ele>
        <time>2018-08-17T13:13:43.163Z</time>
      </trkpt>
      <trkpt lat="48.3032439" lon="-1.6853447">
        <ele>52.603</ele>
        <time>2018-08-17T13:13:46.240Z</time>
      </trkpt>
      <trkpt lat="48.3033398" lon="-1.6854325">
        <ele>53.420</ele>
        <time>2018-08-17T13:13:49.998Z</time>
      </trkpt>
      <trkpt lat="48.3034376" lon="-1.6855164">
        <ele>54.609</ele>
        <time>2018-08-17T13:13:53.853Z</time>
      </trkpt>
      <trkpt lat="48.3035345" lon="-1.6855829">
        <ele>55.654</ele>
        <time>2018-08-17T13:13:57.578Z</time>
      </trkpt>
      <trkpt lat="48.3036382" lon="-1.6856029">
        <ele>55.928</ele>
        <time>2018-08-17T13:14:01.356Z</time>
      </trkpt>
      <trkpt lat="48.3037472" lon="-1.6856129">
        <ele>55.441</ele>
        <time>2018-08-17T13:14:05.387Z</time>
      </trkpt>
      <trkpt lat="48.3038436" lon="-1.6856002">
        <ele>54.951</ele>
        <time>2018-08-17T13:14:09.000Z</time>
      </trkpt>
      <trkpt lat="48.3038436" lon="-1.6856002">
        <ele>55.032</ele>
        <time>2018-08-17T13:14:09.000Z</time>
      </trkpt>
      <trkpt lat="48.3038436" lon="-1.6856002">
        <ele>55.302</ele>
        <time>2018-08-17T13:14:09.100Z</time>
      </trkpt>
      <trkpt lat="48.3039633" lon="-1.6856029">
        <ele>55.299</ele>
        <time>2018-08-17T13:14:15.532Z</time>
      </trkpt>
      <trkpt lat="48.3040655" lon="-1.6855939">
        <ele>55.528</ele>
        <time>2018-08-17T13:14:19.000Z</time>
      </trkpt>
      <trkpt lat="48.3040655" lon="-1.6855939">
        <ele>56.451</ele>
        <time>2018-08-17T13:14:25.000Z</time>
      </trkpt>
      <trkpt lat="48.3040655" lon="-1.6855939">
        <ele>57.277</ele>
        <time>2018-08-17T13:14:27.785Z</time>
      </trkpt>
      <trkpt lat="48.3041997" lon="-1.6855351">
        <ele>57.247</ele>
        <time>2018-08-17T13:14:45.000Z</time>
      </trkpt>
      <trkpt lat="48.3041997" lon="-1.6855351">
        <ele>56.889</ele>
        <time>2018-08-17T13:14:50.000Z</time>
      </trkpt>
      <trkpt lat="48.3041997" lon="-1.6855351">
        <ele>56.833</ele>
        <time>2018-08-17T13:14:51.653Z</time>
      </trkpt>
      <trkpt lat="48.3043563" lon="-1.6855829">
        <ele>57.002</ele>
        <time>2018-08-17T13:15:01.808Z</time>
      </trkpt>
      <trkpt lat="48.3044610" lon="-1.6855981">
        <ele>57.338</ele>
        <time>2018-08-17T13:15:05.804Z</time>
      </trkpt>
      <trkpt lat="48.3045639" lon="-1.6855850">
        <ele>57.898</ele>
        <time>2018-08-17T13:15:09.441Z</time>
      </trkpt>
      <trkpt lat="48.3046561" lon="-1.6855832">
        <ele>58.381</ele>
        <time>2018-08-17T13:15:12.625Z</time>
      </trkpt>
      <trkpt lat="48.3047533" lon="-1.6855535">
        <ele>58.510</ele>
        <time>2018-08-17T13:15:16.035Z</time>
      </trkpt>
      <trkpt lat="48.3048711" lon="-1.6855436">
        <ele>58.427</ele>
        <time>2018-08-17T13:15:19.921Z</time>
      </trkpt>
      <trkpt lat="48.3049856" lon="-1.6855255">
        <ele>58.331</ele>
        <time>2018-08-17T13:15:23.552Z</time>
      </trkpt>
      <trkpt lat="48.3050755" lon="-1.6855189">
        <ele>58.316</ele>
        <time>2018-08-17T13:15:26.391Z</time>
      </trkpt>
      <trkpt lat="48.3051910" lon="-1.6855019">
        <ele>58.460</ele>
        <time>2018-08-17T13:15:30.102Z</time>
      </trkpt>
      <trkpt lat="48.3052990" lon="-1.6854893">
        <ele>58.754</ele>
        <time>2018-08-17T13:15:33.628Z</time>
      </trkpt>
      <trkpt lat="48.3054007" lon="-1.6855020">
        <ele>59.030</ele>
        <time>2018-08-17T13:15:37.000Z</time>
      </trkpt>
      <trkpt lat="48.3054007" lon="-1.6855020">
        <ele>59.165</ele>
        <time>2018-08-17T13:15:38.000Z</time>
      </trkpt>
      <trkpt lat="48.3054007" lon="-1.6855020">
        <ele>59.185</ele>
        <time>2018-08-17T13:15:38.100Z</time>
      </trkpt>
      <trkpt lat="48.3055845" lon="-1.6855062">
        <ele>59.150</ele>
        <time>2018-08-17T13:15:47.465Z</time>
      </trkpt>
      <trkpt lat="48.3056952" lon="-1.6854773">
        <ele>59.418</ele>
        <time>2018-08-17T13:15:51.323Z</time>
      </trkpt>
      <trkpt lat="48.3058083" lon="-1.6854508">
        <ele>60.310</ele>
        <time>2018-08-17T13:15:55.188Z</time>
      </trkpt>
      <trkpt lat="48.3059019" lon="-1.6854356">
        <ele>61.479</ele>
        <time>2018-08-17T13:15:58.327Z</time>
      </trkpt>
      <trkpt lat="48.3060230" lon="-1.6854338">
        <ele>62.576</ele>
        <time>2018-08-17T13:16:02.347Z</time>
      </trkpt>
      <trkpt lat="48.3061166" lon="-1.6854370">
        <ele>63.585</ele>
        <time>2018-08-17T13:16:05.411Z</time>
      </trkpt>
      <trkpt lat="48.3062060" lon="-1.6854218">
        <ele>64.267</ele>
        <time>2018-08-17T13:16:08.366Z</time>
      </trkpt>
      <trkpt lat="48.3063164" lon="-1.6854033">
        <ele>64.429</ele>
        <time>2018-08-17T13:16:12.087Z</time>
      </trkpt>
      <trkpt lat="48.3064278" lon="-1.6854063">
        <ele>64.210</ele>
        <time>2018-08-17T13:16:15.906Z</time>
      </trkpt>
      <trkpt lat="48.3065400" lon="-1.6853954">
        <ele>63.800</ele>
        <time>2018-08-17T13:16:19.804Z</time>
      </trkpt>
      <trkpt lat="48.3066510" lon="-1.6853757">
        <ele>63.289</ele>
        <time>2018-08-17T13:16:23.685Z</time>
      </trkpt>
      <trkpt lat="48.3067638" lon="-1.6853743">
        <ele>62.515</ele>
        <time>2018-08-17T13:16:27.590Z</time>
      </trkpt>
      <trkpt lat="48.3068798" lon="-1.6853663">
        <ele>61.470</ele>
        <time>2018-08-17T13:16:31.602Z</time>
      </trkpt>
      <trkpt lat="48.3069876" lon="-1.6853581">
        <ele>60.472</ele>
        <time>2018-08-17T13:16:35.372Z</time>
      </trkpt>
      <trkpt lat="48.3070942" lon="-1.6853403">
        <ele>59.766</ele>
        <time>2018-08-17T13:16:39.178Z</time>
      </trkpt>
      <trkpt lat="48.3072002" lon="-1.6853289">
        <ele>59.066</ele>
        <time>2018-08-17T13:16:43.008Z</time>
      </trkpt>
      <trkpt lat="48.3073102" lon="-1.6853085">
        <ele>58.041</ele>
        <time>2018-08-17T13:16:47.004Z</time>
      </trkpt>
      <trkpt lat="48.3074268" lon="-1.6852867">
        <ele>56.923</ele>
        <time>2018-08-17T13:16:51.146Z</time>
      </trkpt>
      <trkpt lat="48.3075409" lon="-1.6852710">
        <ele>56.172</ele>
        <time>2018-08-17T13:16:55.103Z</time>
      </trkpt>
      <trkpt lat="48.3076523" lon="-1.6852499">
        <ele>55.879</ele>
        <time>2018-08-17T13:16:58.972Z</time>
      </trkpt>
      <trkpt lat="48.3077608" lon="-1.6852375">
        <ele>55.897</ele>
        <time>2018-08-17T13:17:02.763Z</time>
      </trkpt>
      <trkpt lat="48.3078657" lon="-1.6852088">
        <ele>56.008</ele>
        <time>2018-08-17T13:17:06.524Z</time>
      </trkpt>
      <trkpt lat="48.3079776" lon="-1.6851822">
        <ele>56.173</ele>
        <time>2018-08-17T13:17:10.509Z</time>
      </trkpt>
      <trkpt lat="48.3080641" lon="-1.6851461">
        <ele>56.518</ele>
        <time>2018-08-17T13:17:13.598Z</time>
      </trkpt>
      <trkpt lat="48.3081736" lon="-1.6851016">
        <ele>57.001</ele>
        <time>2018-08-17T13:17:17.491Z</time>
      </trkpt>
      <trkpt lat="48.3082787" lon="-1.6851220">
        <ele>57.544</ele>
        <time>2018-08-17T13:17:21.215Z</time>
      </trkpt>
      <trkpt lat="48.3083879" lon="-1.6851382">
        <ele>58.169</ele>
        <time>2018-08-17T13:17:25.146Z</time>
      </trkpt>
      <trkpt lat="48.3085019" lon="-1.6851374">
        <ele>58.682</ele>
        <time>2018-08-17T13:17:29.208Z</time>
      </trkpt>
      <trkpt lat="48.3086077" lon="-1.6851127">
        <ele>58.657</ele>
        <time>2018-08-17T13:17:33.030Z</time>
      </trkpt>
      <trkpt lat="48.3087165" lon="-1.6850927">
        <ele>58.088</ele>
        <time>2018-08-17T13:17:36.997Z</time>
      </trkpt>
      <trkpt lat="48.3088160" lon="-1.6850688">
        <ele>57.461</ele>
        <time>2018-08-17T13:17:40.697Z</time>
      </trkpt>
      <trkpt lat="48.3089195" lon="-1.6850611">
        <ele>56.817</ele>
        <time>2018-08-17T13:17:44.549Z</time>
      </trkpt>
      <trkpt lat="48.3090161" lon="-1.6850706">
        <ele>55.854</ele>
        <time>2018-08-17T13:17:48.239Z</time>
      </trkpt>
      <trkpt lat="48.3091271" lon="-1.6851031">
        <ele>54.785</ele>
        <time>2018-08-17T13:17:52.591Z</time>
      </trkpt>
      <trkpt lat="48.3092229" lon="-1.6851408">
        <ele>54.021</ele>
        <time>2018-08-17T13:17:56.336Z</time>
      </trkpt>
      <trkpt lat="48.3093267" lon="-1.6851743">
        <ele>53.620</ele>
        <time>2018-08-17T13:18:00.334Z</time>
      </trkpt>
      <trkpt lat="48.3094125" lon="-1.6852230">
        <ele>53.390</ele>
        <time>2018-08-17T13:18:03.760Z</time>
      </trkpt>
      <trkpt lat="48.3095040" lon="-1.6852981">
        <ele>52.996</ele>
        <time>2018-08-17T13:18:07.663Z</time>
      </trkpt>
      <trkpt lat="48.3095799" lon="-1.6853985">
        <ele>52.380</ele>
        <time>2018-08-17T13:18:11.802Z</time>
      </trkpt>
      <trkpt lat="48.3096764" lon="-1.6854922">
        <ele>52.110</ele>
        <time>2018-08-17T13:18:16.750Z</time>
      </trkpt>
      <trkpt lat="48.3097511" lon="-1.6855857">
        <ele>52.550</ele>
        <time>2018-08-17T13:18:20.600Z</time>
      </trkpt>
      <trkpt lat="48.3098339" lon="-1.6857041">
        <ele>53.308</ele>
        <time>2018-08-17T13:18:24.705Z</time>
      </trkpt>
      <trkpt lat="48.3098908" lon="-1.6858390">
        <ele>53.861</ele>
        <time>2018-08-17T13:18:28.381Z</time>
      </trkpt>
      <trkpt lat="48.3099532" lon="-1.6859463">
        <ele>54.027</ele>
        <time>2018-08-17T13:18:31.883Z</time>
      </trkpt>
      <trkpt lat="48.3100047" lon="-1.6860668">
        <ele>53.379</ele>
        <time>2018-08-17T13:18:35.714Z</time>
      </trkpt>
      <trkpt lat="48.3100259" lon="-1.6862075">
        <ele>51.802</ele>
        <time>2018-08-17T13:18:39.949Z</time>
      </trkpt>
      <trkpt lat="48.3100146" lon="-1.6863663">
        <ele>50.195</ele>
        <time>2018-08-17T13:18:44.772Z</time>
      </trkpt>
      <trkpt lat="48.3100191" lon="-1.6865447">
        <ele>49.245</ele>
        <time>2018-08-17T13:18:49.170Z</time>
      </trkpt>
      <trkpt lat="48.3100292" lon="-1.6867232">
        <ele>48.694</ele>
        <time>2018-08-17T13:18:52.830Z</time>
      </trkpt>
      <trkpt lat="48.3100343" lon="-1.6868661">
        <ele>48.707</ele>
        <time>2018-08-17T13:18:55.649Z</time>
      </trkpt>
      <trkpt lat="48.3100311" lon="-1.6870059">
        <ele>49.601</ele>
        <time>2018-08-17T13:18:58.487Z</time>
      </trkpt>
      <trkpt lat="48.3100307" lon="-1.6871831">
        <ele>51.030</ele>
        <time>2018-08-17T13:19:02.254Z</time>
      </trkpt>
      <trkpt lat="48.3100108" lon="-1.6873302">
        <ele>52.381</ele>
        <time>2018-08-17T13:19:05.656Z</time>
      </trkpt>
      <trkpt lat="48.3099901" lon="-1.6874714">
        <ele>53.511</ele>
        <time>2018-08-17T13:19:09.164Z</time>
      </trkpt>
      <trkpt lat="48.3099575" lon="-1.6875973">
        <ele>54.670</ele>
        <time>2018-08-17T13:19:12.668Z</time>
      </trkpt>
      <trkpt lat="48.3099044" lon="-1.6877077">
        <ele>55.820</ele>
        <time>2018-08-17T13:19:16.414Z</time>
      </trkpt>
      <trkpt lat="48.3098659" lon="-1.6878481">
        <ele>56.663</ele>
        <time>2018-08-17T13:19:21.033Z</time>
      </trkpt>
      <trkpt lat="48.3098276" lon="-1.6879754">
        <ele>57.185</ele>
        <time>2018-08-17T13:19:25.638Z</time>
      </trkpt>
      <trkpt lat="48.3097907" lon="-1.6881257">
        <ele>57.453</ele>
        <time>2018-08-17T13:19:31.240Z</time>
      </trkpt>
      <trkpt lat="48.3097717" lon="-1.6882926">
        <ele>57.529</ele>
        <time>2018-08-17T13:19:36.878Z</time>
      </trkpt>
      <trkpt lat="48.3097606" lon="-1.6884499">
        <ele>57.616</ele>
        <time>2018-08-17T13:19:41.754Z</time>
      </trkpt>
      <trkpt lat="48.3097235" lon="-1.6885860">
        <ele>57.846</ele>
        <time>2018-08-17T13:19:46.232Z</time>
      </trkpt>
      <trkpt lat="48.3096821" lon="-1.6887260">
        <ele>58.141</ele>
        <time>2018-08-17T13:19:51.035Z</time>
      </trkpt>
      <trkpt lat="48.3096461" lon="-1.6888592">
        <ele>58.343</ele>
        <time>2018-08-17T13:19:55.596Z</time>
      </trkpt>
      <trkpt lat="48.3096223" lon="-1.6890147">
        <ele>58.415</ele>
        <time>2018-08-17T13:20:00.313Z</time>
      </trkpt>
      <trkpt lat="48.3096082" lon="-1.6891817">
        <ele>58.420</ele>
        <time>2018-08-17T13:20:04.733Z</time>
      </trkpt>
      <trkpt lat="48.3096155" lon="-1.6893410">
        <ele>58.441</ele>
        <time>2018-08-17T13:20:08.653Z</time>
      </trkpt>
      <trkpt lat="48.3096197" lon="-1.6894875">
        <ele>58.605</ele>
        <time>2018-08-17T13:20:12.269Z</time>
      </trkpt>
      <trkpt lat="48.3096634" lon="-1.6896339">
        <ele>58.921</ele>
        <time>2018-08-17T13:20:16.419Z</time>
      </trkpt>
      <trkpt lat="48.3097020" lon="-1.6897631">
        <ele>59.203</ele>
        <time>2018-08-17T13:20:20.145Z</time>
      </trkpt>
      <trkpt lat="48.3097301" lon="-1.6899117">
        <ele>59.239</ele>
        <time>2018-08-17T13:20:24.056Z</time>
      </trkpt>
      <trkpt lat="48.3097800" lon="-1.6900451">
        <ele>59.025</ele>
        <time>2018-08-17T13:20:27.853Z</time>
      </trkpt>
      <trkpt lat="48.3098515" lon="-1.6901391">
        <ele>58.768</ele>
        <time>2018-08-17T13:20:31.424Z</time>
      </trkpt>
      <trkpt lat="48.3099305" lon="-1.6902311">
        <ele>58.606</ele>
        <time>2018-08-17T13:20:35.095Z</time>
      </trkpt>
      <trkpt lat="48.3100038" lon="-1.6903456">
        <ele>58.307</ele>
        <time>2018-08-17T13:20:38.649Z</time>
      </trkpt>
      <trkpt lat="48.3100731" lon="-1.6904874">
        <ele>57.781</ele>
        <time>2018-08-17T13:20:42.261Z</time>
      </trkpt>
      <trkpt lat="48.3101433" lon="-1.6905982">
        <ele>57.365</ele>
        <time>2018-08-17T13:20:45.290Z</time>
      </trkpt>
      <trkpt lat="48.3102323" lon="-1.6907116">
        <ele>57.284</ele>
        <time>2018-08-17T13:20:48.824Z</time>
      </trkpt>
      <trkpt lat="48.3103203" lon="-1.6908108">
        <ele>57.596</ele>
        <time>2018-08-17T13:20:52.343Z</time>
      </trkpt>
      <trkpt lat="48.3104252" lon="-1.6908394">
        <ele>58.340</ele>
        <time>2018-08-17T13:20:56.000Z</time>
      </trkpt>
      <trkpt lat="48.3104252" lon="-1.6908394">
        <ele>59.180</ele>
        <time>2018-08-17T13:20:56.000Z</time>
      </trkpt>
      <trkpt lat="48.3104252" lon="-1.6908394">
        <ele>59.614</ele>
        <time>2018-08-17T13:20:56.033Z</time>
      </trkpt>
      <trkpt lat="48.3105625" lon="-1.6908675">
        <ele>59.551</ele>
        <time>2018-08-17T13:21:02.990Z</time>
      </trkpt>
      <trkpt lat="48.3106718" lon="-1.6908924">
        <ele>59.614</ele>
        <time>2018-08-17T13:21:06.554Z</time>
      </trkpt>
      <trkpt lat="48.3107861" lon="-1.6908989">
        <ele>60.264</ele>
        <time>2018-08-17T13:21:10.274Z</time>
      </trkpt>
      <trkpt lat="48.3108781" lon="-1.6909299">
        <ele>61.051</ele>
        <time>2018-08-17T13:21:13.409Z</time>
      </trkpt>
      <trkpt lat="48.3109778" lon="-1.6909765">
        <ele>61.787</ele>
        <time>2018-08-17T13:21:17.000Z</time>
      </trkpt>
      <trkpt lat="48.3109778" lon="-1.6909765">
        <ele>62.728</ele>
        <time>2018-08-17T13:21:17.000Z</time>
      </trkpt>
      <trkpt lat="48.3109778" lon="-1.6909765">
        <ele>63.401</ele>
        <time>2018-08-17T13:21:17.100Z</time>
      </trkpt>
      <trkpt lat="48.3111116" lon="-1.6910171">
        <ele>63.351</ele>
        <time>2018-08-17T13:21:24.439Z</time>
      </trkpt>
      <trkpt lat="48.3112133" lon="-1.6910559">
        <ele>63.055</ele>
        <time>2018-08-17T13:21:28.246Z</time>
      </trkpt>
      <trkpt lat="48.3113198" lon="-1.6911009">
        <ele>63.010</ele>
        <time>2018-08-17T13:21:32.181Z</time>
      </trkpt>
      <trkpt lat="48.3114319" lon="-1.6911516">
        <ele>62.890</ele>
        <time>2018-08-17T13:21:36.229Z</time>
      </trkpt>
      <trkpt lat="48.3115394" lon="-1.6912076">
        <ele>62.318</ele>
        <time>2018-08-17T13:21:40.069Z</time>
      </trkpt>
      <trkpt lat="48.3116460" lon="-1.6912865">
        <ele>61.547</ele>
        <time>2018-08-17T13:21:44.012Z</time>
      </trkpt>
      <trkpt lat="48.3117448" lon="-1.6913725">
        <ele>60.883</ele>
        <time>2018-08-17T13:21:47.829Z</time>
      </trkpt>
      <trkpt lat="48.3118445" lon="-1.6914552">
        <ele>60.369</ele>
        <time>2018-08-17T13:21:51.744Z</time>
      </trkpt>
      <trkpt lat="48.3119484" lon="-1.6914944">
        <ele>60.053</ele>
        <time>2018-08-17T13:21:55.539Z</time>
      </trkpt>
      <trkpt lat="48.3120483" lon="-1.6915371">
        <ele>59.784</ele>
        <time>2018-08-17T13:21:59.275Z</time>
      </trkpt>
      <trkpt lat="48.3121479" lon="-1.6915908">
        <ele>59.461</ele>
        <time>2018-08-17T13:22:03.067Z</time>
      </trkpt>
      <trkpt lat="48.3122462" lon="-1.6916453">
        <ele>59.251</ele>
        <time>2018-08-17T13:22:06.819Z</time>
      </trkpt>
      <trkpt lat="48.3123418" lon="-1.6916986">
        <ele>59.229</ele>
        <time>2018-08-17T13:22:10.490Z</time>
      </trkpt>
      <trkpt lat="48.3124256" lon="-1.6917691">
        <ele>59.188</ele>
        <time>2018-08-17T13:22:14.000Z</time>
      </trkpt>
      <trkpt lat="48.3124256" lon="-1.6917691">
        <ele>59.006</ele>
        <time>2018-08-17T13:22:14.000Z</time>
      </trkpt>
      <trkpt lat="48.3124256" lon="-1.6917691">
        <ele>58.829</ele>
        <time>2018-08-17T13:22:14.014Z</time>
      </trkpt>
      <trkpt lat="48.3125511" lon="-1.6918935">
        <ele>58.805</ele>
        <time>2018-08-17T13:22:23.850Z</time>
      </trkpt>
      <trkpt lat="48.3126419" lon="-1.6919888">
        <ele>58.287</ele>
        <time>2018-08-17T13:22:28.555Z</time>
      </trkpt>
      <trkpt lat="48.3127155" lon="-1.6920773">
        <ele>56.782</ele>
        <time>2018-08-17T13:22:32.174Z</time>
      </trkpt>
      <trkpt lat="48.3127976" lon="-1.6921441">
        <ele>55.029</ele>
        <time>2018-08-17T13:22:35.591Z</time>
      </trkpt>
      <trkpt lat="48.3128919" lon="-1.6922257">
        <ele>54.004</ele>
        <time>2018-08-17T13:22:39.350Z</time>
      </trkpt>
      <trkpt lat="48.3129388" lon="-1.6923467">
        <ele>53.717</ele>
        <time>2018-08-17T13:22:42.380Z</time>
      </trkpt>
      <trkpt lat="48.3129746" lon="-1.6924904">
        <ele>53.611</ele>
        <time>2018-08-17T13:22:45.747Z</time>
      </trkpt>
      <trkpt lat="48.3130140" lon="-1.6926347">
        <ele>53.100</ele>
        <time>2018-08-17T13:22:49.469Z</time>
      </trkpt>
      <trkpt lat="48.3130496" lon="-1.6927904">
        <ele>52.215</ele>
        <time>2018-08-17T13:22:53.570Z</time>
      </trkpt>
      <trkpt lat="48.3130782" lon="-1.6929294">
        <ele>51.559</ele>
        <time>2018-08-17T13:22:57.320Z</time>
      </trkpt>
      <trkpt lat="48.3131150" lon="-1.6930717">
        <ele>51.816</ele>
        <time>2018-08-17T13:23:01.258Z</time>
      </trkpt>
      <trkpt lat="48.3131495" lon="-1.6931968">
        <ele>52.890</ele>
        <time>2018-08-17T13:23:04.591Z</time>
      </trkpt>
      <trkpt lat="48.3132029" lon="-1.6933396">
        <ele>54.001</ele>
        <time>2018-08-17T13:23:08.447Z</time>
      </trkpt>
      <trkpt lat="48.3132506" lon="-1.6935008">
        <ele>54.633</ele>
        <time>2018-08-17T13:23:12.475Z</time>
      </trkpt>
      <trkpt lat="48.3132883" lon="-1.6936680">
        <ele>54.870</ele>
        <time>2018-08-17T13:23:16.738Z</time>
      </trkpt>
      <trkpt lat="48.3133138" lon="-1.6937988">
        <ele>55.025</ele>
        <time>2018-08-17T13:23:20.597Z</time>
      </trkpt>
      <trkpt lat="48.3133426" lon="-1.6939308">
        <ele>55.520</ele>
        <time>2018-08-17T13:23:25.369Z</time>
      </trkpt>
      <trkpt lat="48.3133631" lon="-1.6940739">
        <ele>56.680</ele>
        <time>2018-08-17T13:23:31.206Z</time>
      </trkpt>
      <trkpt lat="48.3134344" lon="-1.6941616">
        <ele>58.212</ele>
        <time>2018-08-17T13:23:38.000Z</time>
      </trkpt>
      <trkpt lat="48.3134344" lon="-1.6941616">
        <ele>59.341</ele>
        <time>2018-08-17T13:23:43.000Z</time>
      </trkpt>
      <trkpt lat="48.3134344" lon="-1.6941616">
        <ele>59.709</ele>
        <time>2018-08-17T13:23:43.100Z</time>
      </trkpt>
      <trkpt lat="48.3135240" lon="-1.6944858">
        <ele>59.606</ele>
        <time>2018-08-17T13:23:54.414Z</time>
      </trkpt>
      <trkpt lat="48.3135602" lon="-1.6946559">
        <ele>59.440</ele>
        <time>2018-08-17T13:23:58.270Z</time>
      </trkpt>
      <trkpt lat="48.3135868" lon="-1.6948141">
        <ele>59.451</ele>
        <time>2018-08-17T13:24:02.132Z</time>
      </trkpt>
      <trkpt lat="48.3136273" lon="-1.6949366">
        <ele>59.604</ele>
        <time>2018-08-17T13:24:05.608Z</time>
      </trkpt>
      <trkpt lat="48.3136781" lon="-1.6950711">
        <ele>59.998</ele>
        <time>2018-08-17T13:24:09.638Z</time>
      </trkpt>
      <trkpt lat="48.3137073" lon="-1.6952112">
        <ele>60.811</ele>
        <time>2018-08-17T13:24:13.533Z</time>
      </trkpt>
      <trkpt lat="48.3137449" lon="-1.6953576">
        <ele>61.733</ele>
        <time>2018-08-17T13:24:17.957Z</time>
      </trkpt>
      <trkpt lat="48.3137922" lon="-1.6955118">
        <ele>62.287</ele>
        <time>2018-08-17T13:24:22.783Z</time>
      </trkpt>
      <trkpt lat="48.3138287" lon="-1.6956696">
        <ele>61.987</ele>
        <time>2018-08-17T13:24:27.573Z</time>
      </trkpt>
      <trkpt lat="48.3138695" lon="-1.6957967">
        <ele>60.760</ele>
        <time>2018-08-17T13:24:32.254Z</time>
      </trkpt>
      <trkpt lat="48.3139160" lon="-1.6959295">
        <ele>59.050</ele>
        <time>2018-08-17T13:24:39.000Z</time>
      </trkpt>
      <trkpt lat="48.3139160" lon="-1.6959295">
        <ele>57.345</ele>
        <time>2018-08-17T13:25:01.000Z</time>
      </trkpt>
      <trkpt lat="48.3139160" lon="-1.6959295">
        <ele>56.314</ele>
        <time>2018-08-17T13:29:33.188Z</time>
      </trkpt>
      <trkpt lat="48.3140132" lon="-1.6962868">
        <ele>56.592</ele>
        <time>2018-08-17T13:30:00.204Z</time>
      </trkpt>
      <trkpt lat="48.3140529" lon="-1.6964213">
        <ele>58.365</ele>
        <time>2018-08-17T13:30:05.186Z</time>
      </trkpt>
      <trkpt lat="48.3141042" lon="-1.6965658">
        <ele>61.092</ele>
        <time>2018-08-17T13:30:10.052Z</time>
      </trkpt>
      <trkpt lat="48.3141372" lon="-1.6966960">
        <ele>63.508</ele>
        <time>2018-08-17T13:30:13.940Z</time>
      </trkpt>
      <trkpt lat="48.3141684" lon="-1.6968441">
        <ele>64.997</ele>
        <time>2018-08-17T13:30:18.329Z</time>
      </trkpt>
      <trkpt lat="48.3142019" lon="-1.6969945">
        <ele>65.801</ele>
        <time>2018-08-17T13:30:22.925Z</time>
      </trkpt>
      <trkpt lat="48.3142416" lon="-1.6971298">
        <ele>66.101</ele>
        <time>2018-08-17T13:30:27.067Z</time>
      </trkpt>
      <trkpt lat="48.3142813" lon="-1.6972616">
        <ele>66.104</ele>
        <time>2018-08-17T13:30:30.950Z</time>
      </trkpt>
      <trkpt lat="48.3143150" lon="-1.6973984">
        <ele>66.046</ele>
        <time>2018-08-17T13:30:34.846Z</time>
      </trkpt>
      <trkpt lat="48.3143475" lon="-1.6975355">
        <ele>66.161</ele>
        <time>2018-08-17T13:30:38.839Z</time>
      </trkpt>
      <trkpt lat="48.3143903" lon="-1.6976775">
        <ele>66.595</ele>
        <time>2018-08-17T13:30:43.153Z</time>
      </trkpt>
      <trkpt lat="48.3144299" lon="-1.6978174">
        <ele>67.192</ele>
        <time>2018-08-17T13:30:47.294Z</time>
      </trkpt>
      <trkpt lat="48.3144664" lon="-1.6979478">
        <ele>67.795</ele>
        <time>2018-08-17T13:30:51.037Z</time>
      </trkpt>
      <trkpt lat="48.3145069" lon="-1.6980974">
        <ele>68.386</ele>
        <time>2018-08-17T13:30:55.042Z</time>
      </trkpt>
      <trkpt lat="48.3145506" lon="-1.6982459">
        <ele>68.690</ele>
        <time>2018-08-17T13:30:59.030Z</time>
      </trkpt>
      <trkpt lat="48.3145955" lon="-1.6984074">
        <ele>68.518</ele>
        <time>2018-08-17T13:31:03.375Z</time>
      </trkpt>
      <trkpt lat="48.3146274" lon="-1.6985473">
        <ele>68.262</ele>
        <time>2018-08-17T13:31:06.810Z</time>
      </trkpt>
      <trkpt lat="48.3146642" lon="-1.6986768">
        <ele>68.278</ele>
        <time>2018-08-17T13:31:10.023Z</time>
      </trkpt>
      <trkpt lat="48.3147043" lon="-1.6988094">
        <ele>68.577</ele>
        <time>2018-08-17T13:31:13.413Z</time>
      </trkpt>
      <trkpt lat="48.3147571" lon="-1.6989638">
        <ele>69.036</ele>
        <time>2018-08-17T13:31:17.565Z</time>
      </trkpt>
      <trkpt lat="48.3148053" lon="-1.6991140">
        <ele>69.511</ele>
        <time>2018-08-17T13:31:21.629Z</time>
      </trkpt>
      <trkpt lat="48.3148439" lon="-1.6992589">
        <ele>70.064</ele>
        <time>2018-08-17T13:31:25.634Z</time>
      </trkpt>
      <trkpt lat="48.3148788" lon="-1.6993939">
        <ele>70.853</ele>
        <time>2018-08-17T13:31:29.643Z</time>
      </trkpt>
      <trkpt lat="48.3149111" lon="-1.6995309">
        <ele>71.745</ele>
        <time>2018-08-17T13:31:33.882Z</time>
      </trkpt>
      <trkpt lat="48.3149400" lon="-1.6996641">
        <ele>72.450</ele>
        <time>2018-08-17T13:31:37.890Z</time>
      </trkpt>
      <trkpt lat="48.3149858" lon="-1.6997988">
        <ele>72.755</ele>
        <time>2018-08-17T13:31:41.889Z</time>
      </trkpt>
      <trkpt lat="48.3150387" lon="-1.6999294">
        <ele>72.692</ele>
        <time>2018-08-17T13:31:45.745Z</time>
      </trkpt>
      <trkpt lat="48.3150856" lon="-1.7000835">
        <ele>72.714</ele>
        <time>2018-08-17T13:31:50.010Z</time>
      </trkpt>
      <trkpt lat="48.3151269" lon="-1.7002159">
        <ele>73.128</ele>
        <time>2018-08-17T13:31:53.702Z</time>
      </trkpt>
      <trkpt lat="48.3151598" lon="-1.7003497">
        <ele>73.573</ele>
        <time>2018-08-17T13:31:57.333Z</time>
      </trkpt>
      <trkpt lat="48.3151961" lon="-1.7005049">
        <ele>73.670</ele>
        <time>2018-08-17T13:32:01.614Z</time>
      </trkpt>
      <trkpt lat="48.3152354" lon="-1.7006628">
        <ele>73.654</ele>
        <time>2018-08-17T13:32:06.157Z</time>
      </trkpt>
      <trkpt lat="48.3152716" lon="-1.7007980">
        <ele>73.825</ele>
        <time>2018-08-17T13:32:10.181Z</time>
      </trkpt>
      <trkpt lat="48.3152984" lon="-1.7009513">
        <ele>74.107</ele>
        <time>2018-08-17T13:32:14.617Z</time>
      </trkpt>
      <trkpt lat="48.3153486" lon="-1.7010737">
        <ele>74.317</ele>
        <time>2018-08-17T13:32:18.753Z</time>
      </trkpt>
      <trkpt lat="48.3154043" lon="-1.7012260">
        <ele>74.411</ele>
        <time>2018-08-17T13:32:23.873Z</time>
      </trkpt>
      <trkpt lat="48.3154575" lon="-1.7013796">
        <ele>74.002</ele>
        <time>2018-08-17T13:32:28.972Z</time>
      </trkpt>
      <trkpt lat="48.3155031" lon="-1.7015297">
        <ele>72.671</ele>
        <time>2018-08-17T13:32:33.623Z</time>
      </trkpt>
      <trkpt lat="48.3155352" lon="-1.7016804">
        <ele>70.939</ele>
        <time>2018-08-17T13:32:38.385Z</time>
      </trkpt>
      <trkpt lat="48.3155600" lon="-1.7018112">
        <ele>69.757</ele>
        <time>2018-08-17T13:32:42.846Z</time>
      </trkpt>
      <trkpt lat="48.3156051" lon="-1.7019522">
        <ele>69.213</ele>
        <time>2018-08-17T13:32:48.073Z</time>
      </trkpt>
      <trkpt lat="48.3156329" lon="-1.7020826">
        <ele>68.888</ele>
        <time>2018-08-17T13:32:52.555Z</time>
      </trkpt>
      <trkpt lat="48.3156651" lon="-1.7022089">
        <ele>68.548</ele>
        <time>2018-08-17T13:32:56.747Z</time>
      </trkpt>
      <trkpt lat="48.3157054" lon="-1.7023572">
        <ele>68.180</ele>
        <time>2018-08-17T13:33:01.784Z</time>
      </trkpt>
      <trkpt lat="48.3157438" lon="-1.7024864">
        <ele>67.855</ele>
        <time>2018-08-17T13:33:06.528Z</time>
      </trkpt>
      <trkpt lat="48.3157817" lon="-1.7026196">
        <ele>67.657</ele>
        <time>2018-08-17T13:33:11.652Z</time>
      </trkpt>
      <trkpt lat="48.3158264" lon="-1.7027475">
        <ele>67.774</ele>
        <time>2018-08-17T13:33:16.804Z</time>
      </trkpt>
      <trkpt lat="48.3158694" lon="-1.7029005">
        <ele>68.517</ele>
        <time>2018-08-17T13:33:22.365Z</time>
      </trkpt>
      <trkpt lat="48.3159114" lon="-1.7030502">
        <ele>69.675</ele>
        <time>2018-08-17T13:33:26.964Z</time>
      </trkpt>
      <trkpt lat="48.3159521" lon="-1.7031834">
        <ele>70.564</ele>
        <time>2018-08-17T13:33:30.892Z</time>
      </trkpt>
      <trkpt lat="48.3159875" lon="-1.7033269">
        <ele>70.893</ele>
        <time>2018-08-17T13:33:35.039Z</time>
      </trkpt>
      <trkpt lat="48.3160238" lon="-1.7034830">
        <ele>70.834</ele>
        <time>2018-08-17T13:33:39.546Z</time>
      </trkpt>
      <trkpt lat="48.3160631" lon="-1.7036184">
        <ele>70.664</ele>
        <time>2018-08-17T13:33:43.455Z</time>
      </trkpt>
      <trkpt lat="48.3161019" lon="-1.7037529">
        <ele>70.559</ele>
        <time>2018-08-17T13:33:47.199Z</time>
      </trkpt>
      <trkpt lat="48.3161561" lon="-1.7038727">
        <ele>70.488</ele>
        <time>2018-08-17T13:33:50.821Z</time>
      </trkpt>
      <trkpt lat="48.3162188" lon="-1.7039843">
        <ele>70.419</ele>
        <time>2018-08-17T13:33:54.463Z</time>
      </trkpt>
      <trkpt lat="48.3162910" lon="-1.7040883">
        <ele>70.481</ele>
        <time>2018-08-17T13:33:58.207Z</time>
      </trkpt>
      <trkpt lat="48.3163686" lon="-1.7041886">
        <ele>70.713</ele>
        <time>2018-08-17T13:34:02.053Z</time>
      </trkpt>
      <trkpt lat="48.3164500" lon="-1.7042800">
        <ele>70.901</ele>
        <time>2018-08-17T13:34:05.886Z</time>
      </trkpt>
      <trkpt lat="48.3165236" lon="-1.7043702">
        <ele>70.866</ele>
        <time>2018-08-17T13:34:09.422Z</time>
      </trkpt>
      <trkpt lat="48.3165982" lon="-1.7044683">
        <ele>70.727</ele>
        <time>2018-08-17T13:34:13.008Z</time>
      </trkpt>
      <trkpt lat="48.3166648" lon="-1.7045736">
        <ele>70.598</ele>
        <time>2018-08-17T13:34:16.421Z</time>
      </trkpt>
      <trkpt lat="48.3167227" lon="-1.7047017">
        <ele>70.469</ele>
        <time>2018-08-17T13:34:20.050Z</time>
      </trkpt>
      <trkpt lat="48.3167680" lon="-1.7048509">
        <ele>70.346</ele>
        <time>2018-08-17T13:34:24.033Z</time>
      </trkpt>
      <trkpt lat="48.3167932" lon="-1.7050110">
        <ele>70.258</ele>
        <time>2018-08-17T13:34:27.965Z</time>
      </trkpt>
      <trkpt lat="48.3168195" lon="-1.7051656">
        <ele>70.290</ele>
        <time>2018-08-17T13:34:31.624Z</time>
      </trkpt>
      <trkpt lat="48.3168506" lon="-1.7053167">
        <ele>70.479</ele>
        <time>2018-08-17T13:34:35.347Z</time>
      </trkpt>
      <trkpt lat="48.3168744" lon="-1.7054837">
        <ele>70.710</ele>
        <time>2018-08-17T13:34:39.514Z</time>
      </trkpt>
      <trkpt lat="48.3168958" lon="-1.7056449">
        <ele>70.872</ele>
        <time>2018-08-17T13:34:43.541Z</time>
      </trkpt>
      <trkpt lat="48.3169175" lon="-1.7057962">
        <ele>70.950</ele>
        <time>2018-08-17T13:34:47.302Z</time>
      </trkpt>
      <trkpt lat="48.3169350" lon="-1.7059542">
        <ele>70.923</ele>
        <time>2018-08-17T13:34:51.147Z</time>
      </trkpt>
      <trkpt lat="48.3169425" lon="-1.7061192">
        <ele>70.806</ele>
        <time>2018-08-17T13:34:55.135Z</time>
      </trkpt>
      <trkpt lat="48.3169488" lon="-1.7062822">
        <ele>70.561</ele>
        <time>2018-08-17T13:34:59.173Z</time>
      </trkpt>
      <trkpt lat="48.3169544" lon="-1.7064438">
        <ele>70.186</ele>
        <time>2018-08-17T13:35:03.175Z</time>
      </trkpt>
      <trkpt lat="48.3169614" lon="-1.7065983">
        <ele>69.892</ele>
        <time>2018-08-17T13:35:06.888Z</time>
      </trkpt>
      <trkpt lat="48.3169678" lon="-1.7067527">
        <ele>69.919</ele>
        <time>2018-08-17T13:35:10.508Z</time>
      </trkpt>
      <trkpt lat="48.3169671" lon="-1.7069162">
        <ele>70.290</ele>
        <time>2018-08-17T13:35:14.326Z</time>
      </trkpt>
      <trkpt lat="48.3169626" lon="-1.7070813">
        <ele>70.812</ele>
        <time>2018-08-17T13:35:18.305Z</time>
      </trkpt>
      <trkpt lat="48.3169554" lon="-1.7072452">
        <ele>71.197</ele>
        <time>2018-08-17T13:35:22.545Z</time>
      </trkpt>
      <trkpt lat="48.3169474" lon="-1.7074024">
        <ele>71.362</ele>
        <time>2018-08-17T13:35:26.773Z</time>
      </trkpt>
      <trkpt lat="48.3169452" lon="-1.7075529">
        <ele>71.416</ele>
        <time>2018-08-17T13:35:30.660Z</time>
      </trkpt>
      <trkpt lat="48.3169363" lon="-1.7077194">
        <ele>71.407</ele>
        <time>2018-08-17T13:35:34.673Z</time>
      </trkpt>
      <trkpt lat="48.3169353" lon="-1.7078890">
        <ele>71.320</ele>
        <time>2018-08-17T13:35:38.679Z</time>
      </trkpt>
      <trkpt lat="48.3169182" lon="-1.7080646">
        <ele>70.942</ele>
        <time>2018-08-17T13:35:42.922Z</time>
      </trkpt>
      <trkpt lat="48.3168972" lon="-1.7082281">
        <ele>70.165</ele>
        <time>2018-08-17T13:35:46.939Z</time>
      </trkpt>
      <trkpt lat="48.3168757" lon="-1.7083924">
        <ele>69.382</ele>
        <time>2018-08-17T13:35:51.078Z</time>
      </trkpt>
      <trkpt lat="48.3168561" lon="-1.7085532">
        <ele>68.982</ele>
        <time>2018-08-17T13:35:55.259Z</time>
      </trkpt>
      <trkpt lat="48.3168428" lon="-1.7087127">
        <ele>68.893</ele>
        <time>2018-08-17T13:35:59.320Z</time>
      </trkpt>
      <trkpt lat="48.3167959" lon="-1.7088416">
        <ele>68.918</ele>
        <time>2018-08-17T13:36:02.889Z</time>
      </trkpt>
      <trkpt lat="48.3167620" lon="-1.7089814">
        <ele>68.857</ele>
        <time>2018-08-17T13:36:06.406Z</time>
      </trkpt>
      <trkpt lat="48.3167246" lon="-1.7091341">
        <ele>68.643</ele>
        <time>2018-08-17T13:36:10.250Z</time>
      </trkpt>
      <trkpt lat="48.3166821" lon="-1.7092881">
        <ele>68.433</ele>
        <time>2018-08-17T13:36:14.397Z</time>
      </trkpt>
      <trkpt lat="48.3166465" lon="-1.7094368">
        <ele>68.365</ele>
        <time>2018-08-17T13:36:18.578Z</time>
      </trkpt>
      <trkpt lat="48.3166187" lon="-1.7095720">
        <ele>68.325</ele>
        <time>2018-08-17T13:36:22.414Z</time>
      </trkpt>
      <trkpt lat="48.3165799" lon="-1.7097105">
        <ele>68.156</ele>
        <time>2018-08-17T13:36:26.425Z</time>
      </trkpt>
      <trkpt lat="48.3165431" lon="-1.7098438">
        <ele>67.873</ele>
        <time>2018-08-17T13:36:30.198Z</time>
      </trkpt>
      <trkpt lat="48.3164993" lon="-1.7099849">
        <ele>67.471</ele>
        <time>2018-08-17T13:36:34.401Z</time>
      </trkpt>
      <trkpt lat="48.3164489" lon="-1.7101307">
        <ele>66.955</ele>
        <time>2018-08-17T13:36:39.001Z</time>
      </trkpt>
      <trkpt lat="48.3164121" lon="-1.7102656">
        <ele>66.530</ele>
        <time>2018-08-17T13:36:43.057Z</time>
      </trkpt>
      <trkpt lat="48.3163620" lon="-1.7103903">
        <ele>66.270</ele>
        <time>2018-08-17T13:36:46.968Z</time>
      </trkpt>
      <trkpt lat="48.3163103" lon="-1.7105159">
        <ele>65.840</ele>
        <time>2018-08-17T13:36:50.906Z</time>
      </trkpt>
      <trkpt lat="48.3162457" lon="-1.7106478">
        <ele>65.116</ele>
        <time>2018-08-17T13:36:55.347Z</time>
      </trkpt>
      <trkpt lat="48.3161821" lon="-1.7107709">
        <ele>64.470</ele>
        <time>2018-08-17T13:36:59.487Z</time>
      </trkpt>
      <trkpt lat="48.3161193" lon="-1.7108960">
        <ele>64.185</ele>
        <time>2018-08-17T13:37:03.541Z</time>
      </trkpt>
      <trkpt lat="48.3160513" lon="-1.7110208">
        <ele>64.157</ele>
        <time>2018-08-17T13:37:07.665Z</time>
      </trkpt>
      <trkpt lat="48.3159734" lon="-1.7111370">
        <ele>64.267</ele>
        <time>2018-08-17T13:37:11.754Z</time>
      </trkpt>
      <trkpt lat="48.3159055" lon="-1.7112469">
        <ele>64.493</ele>
        <time>2018-08-17T13:37:15.376Z</time>
      </trkpt>
      <trkpt lat="48.3158327" lon="-1.7113625">
        <ele>64.907</ele>
        <time>2018-08-17T13:37:19.243Z</time>
      </trkpt>
      <trkpt lat="48.3157577" lon="-1.7114833">
        <ele>65.475</ele>
        <time>2018-08-17T13:37:23.335Z</time>
      </trkpt>
      <trkpt lat="48.3156855" lon="-1.7115972">
        <ele>65.936</ele>
        <time>2018-08-17T13:37:27.235Z</time>
      </trkpt>
      <trkpt lat="48.3156197" lon="-1.7116977">
        <ele>65.978</ele>
        <time>2018-08-17T13:37:30.725Z</time>
      </trkpt>
      <trkpt lat="48.3155462" lon="-1.7118087">
        <ele>65.790</ele>
        <time>2018-08-17T13:37:34.600Z</time>
      </trkpt>
      <trkpt lat="48.3154765" lon="-1.7119197">
        <ele>65.840</ele>
        <time>2018-08-17T13:37:38.340Z</time>
      </trkpt>
      <trkpt lat="48.3154100" lon="-1.7120289">
        <ele>66.195</ele>
        <time>2018-08-17T13:37:41.970Z</time>
      </trkpt>
      <trkpt lat="48.3153379" lon="-1.7121470">
        <ele>66.511</ele>
        <time>2018-08-17T13:37:46.107Z</time>
      </trkpt>
      <trkpt lat="48.3152726" lon="-1.7122740">
        <ele>66.575</ele>
        <time>2018-08-17T13:37:50.605Z</time>
      </trkpt>
      <trkpt lat="48.3152264" lon="-1.7124088">
        <ele>66.292</ele>
        <time>2018-08-17T13:37:55.089Z</time>
      </trkpt>
      <trkpt lat="48.3151746" lon="-1.7125524">
        <ele>65.739</ele>
        <time>2018-08-17T13:37:59.921Z</time>
      </trkpt>
      <trkpt lat="48.3151322" lon="-1.7126763">
        <ele>65.055</ele>
        <time>2018-08-17T13:38:04.106Z</time>
      </trkpt>
      <trkpt lat="48.3150820" lon="-1.7128177">
        <ele>64.338</ele>
        <time>2018-08-17T13:38:08.576Z</time>
      </trkpt>
      <trkpt lat="48.3150358" lon="-1.7129596">
        <ele>63.706</ele>
        <time>2018-08-17T13:38:12.665Z</time>
      </trkpt>
      <trkpt lat="48.3149834" lon="-1.7130878">
        <ele>63.264</ele>
        <time>2018-08-17T13:38:16.446Z</time>
      </trkpt>
      <trkpt lat="48.3149217" lon="-1.7132246">
        <ele>62.938</ele>
        <time>2018-08-17T13:38:20.527Z</time>
      </trkpt>
      <trkpt lat="48.3148577" lon="-1.7133679">
        <ele>62.645</ele>
        <time>2018-08-17T13:38:24.914Z</time>
      </trkpt>
      <trkpt lat="48.3147971" lon="-1.7135084">
        <ele>62.433</ele>
        <time>2018-08-17T13:38:29.236Z</time>
      </trkpt>
      <trkpt lat="48.3147513" lon="-1.7136391">
        <ele>62.586</ele>
        <time>2018-08-17T13:38:32.907Z</time>
      </trkpt>
      <trkpt lat="48.3146975" lon="-1.7137735">
        <ele>63.250</ele>
        <time>2018-08-17T13:38:36.683Z</time>
      </trkpt>
      <trkpt lat="48.3146418" lon="-1.7139183">
        <ele>64.151</ele>
        <time>2018-08-17T13:38:40.737Z</time>
      </trkpt>
      <trkpt lat="48.3145889" lon="-1.7140650">
        <ele>64.894</ele>
        <time>2018-08-17T13:38:44.835Z</time>
      </trkpt>
      <trkpt lat="48.3145497" lon="-1.7142041">
        <ele>65.306</ele>
        <time>2018-08-17T13:38:48.632Z</time>
      </trkpt>
      <trkpt lat="48.3145083" lon="-1.7143465">
        <ele>65.362</ele>
        <time>2018-08-17T13:38:52.719Z</time>
      </trkpt>
      <trkpt lat="48.3144714" lon="-1.7144812">
        <ele>65.192</ele>
        <time>2018-08-17T13:38:56.592Z</time>
      </trkpt>
      <trkpt lat="48.3144404" lon="-1.7146130">
        <ele>64.943</ele>
        <time>2018-08-17T13:39:00.158Z</time>
      </trkpt>
      <trkpt lat="48.3144078" lon="-1.7147453">
        <ele>64.786</ele>
        <time>2018-08-17T13:39:03.578Z</time>
      </trkpt>
      <trkpt lat="48.3143654" lon="-1.7148891">
        <ele>64.896</ele>
        <time>2018-08-17T13:39:07.310Z</time>
      </trkpt>
      <trkpt lat="48.3143406" lon="-1.7150443">
        <ele>65.212</ele>
        <time>2018-08-17T13:39:11.045Z</time>
      </trkpt>
      <trkpt lat="48.3143039" lon="-1.7151966">
        <ele>65.512</ele>
        <time>2018-08-17T13:39:14.736Z</time>
      </trkpt>
      <trkpt lat="48.3142646" lon="-1.7153419">
        <ele>65.701</ele>
        <time>2018-08-17T13:39:18.270Z</time>
      </trkpt>
      <trkpt lat="48.3142330" lon="-1.7155064">
        <ele>65.778</ele>
        <time>2018-08-17T13:39:22.203Z</time>
      </trkpt>
      <trkpt lat="48.3141972" lon="-1.7156531">
        <ele>65.790</ele>
        <time>2018-08-17T13:39:25.944Z</time>
      </trkpt>
      <trkpt lat="48.3141696" lon="-1.7157955">
        <ele>65.866</ele>
        <time>2018-08-17T13:39:29.573Z</time>
      </trkpt>
      <trkpt lat="48.3141459" lon="-1.7159319">
        <ele>66.060</ele>
        <time>2018-08-17T13:39:33.050Z</time>
      </trkpt>
      <trkpt lat="48.3141123" lon="-1.7160885">
        <ele>66.239</ele>
        <time>2018-08-17T13:39:37.225Z</time>
      </trkpt>
      <trkpt lat="48.3140908" lon="-1.7162373">
        <ele>66.269</ele>
        <time>2018-08-17T13:39:41.118Z</time>
      </trkpt>
      <trkpt lat="48.3140613" lon="-1.7163808">
        <ele>66.212</ele>
        <time>2018-08-17T13:39:44.783Z</time>
      </trkpt>
      <trkpt lat="48.3140310" lon="-1.7165328">
        <ele>66.281</ele>
        <time>2018-08-17T13:39:48.478Z</time>
      </trkpt>
      <trkpt lat="48.3139914" lon="-1.7166937">
        <ele>66.602</ele>
        <time>2018-08-17T13:39:52.387Z</time>
      </trkpt>
      <trkpt lat="48.3139504" lon="-1.7168446">
        <ele>67.056</ele>
        <time>2018-08-17T13:39:56.053Z</time>
      </trkpt>
      <trkpt lat="48.3139090" lon="-1.7169984">
        <ele>67.512</ele>
        <time>2018-08-17T13:39:59.605Z</time>
      </trkpt>
      <trkpt lat="48.3138788" lon="-1.7171257">
        <ele>67.951</ele>
        <time>2018-08-17T13:40:02.384Z</time>
      </trkpt>
      <trkpt lat="48.3138372" lon="-1.7172502">
        <ele>68.351</ele>
        <time>2018-08-17T13:40:05.135Z</time>
      </trkpt>
      <trkpt lat="48.3137740" lon="-1.7173652">
        <ele>68.732</ele>
        <time>2018-08-17T13:40:07.934Z</time>
      </trkpt>
      <trkpt lat="48.3136951" lon="-1.7174785">
        <ele>69.076</ele>
        <time>2018-08-17T13:40:10.860Z</time>
      </trkpt>
      <trkpt lat="48.3136063" lon="-1.7175813">
        <ele>69.195</ele>
        <time>2018-08-17T13:40:13.787Z</time>
      </trkpt>
      <trkpt lat="48.3135177" lon="-1.7176774">
        <ele>68.995</ele>
        <time>2018-08-17T13:40:16.713Z</time>
      </trkpt>
      <trkpt lat="48.3134299" lon="-1.7177468">
        <ele>68.686</ele>
        <time>2018-08-17T13:40:19.595Z</time>
      </trkpt>
      <trkpt lat="48.3133208" lon="-1.7178193">
        <ele>68.501</ele>
        <time>2018-08-17T13:40:23.320Z</time>
      </trkpt>
      <trkpt lat="48.3132268" lon="-1.7179100">
        <ele>68.529</ele>
        <time>2018-08-17T13:40:27.323Z</time>
      </trkpt>
      <trkpt lat="48.3131655" lon="-1.7180407">
        <ele>68.777</ele>
        <time>2018-08-17T13:40:31.871Z</time>
      </trkpt>
      <trkpt lat="48.3131339" lon="-1.7181782">
        <ele>69.121</ele>
        <time>2018-08-17T13:40:36.882Z</time>
      </trkpt>
      <trkpt lat="48.3131025" lon="-1.7183227">
        <ele>69.447</ele>
        <time>2018-08-17T13:40:43.000Z</time>
      </trkpt>
      <trkpt lat="48.3131025" lon="-1.7183227">
        <ele>69.735</ele>
        <time>2018-08-17T13:40:46.000Z</time>
      </trkpt>
      <trkpt lat="48.3131025" lon="-1.7183227">
        <ele>69.889</ele>
        <time>2018-08-17T13:40:52.761Z</time>
      </trkpt>
      <trkpt lat="48.3129126" lon="-1.7183485">
        <ele>69.849</ele>
        <time>2018-08-17T13:41:07.244Z</time>
      </trkpt>
      <trkpt lat="48.3128068" lon="-1.7183056">
        <ele>69.768</ele>
        <time>2018-08-17T13:41:11.401Z</time>
      </trkpt>
      <trkpt lat="48.3126988" lon="-1.7182623">
        <ele>69.782</ele>
        <time>2018-08-17T13:41:15.092Z</time>
      </trkpt>
      <trkpt lat="48.3125950" lon="-1.7182949">
        <ele>69.790</ele>
        <time>2018-08-17T13:41:18.431Z</time>
      </trkpt>
      <trkpt lat="48.3125545" lon="-1.7184313">
        <ele>69.660</ele>
        <time>2018-08-17T13:41:21.371Z</time>
      </trkpt>
      <trkpt lat="48.3125391" lon="-1.7186028">
        <ele>69.348</ele>
        <time>2018-08-17T13:41:24.382Z</time>
      </trkpt>
      <trkpt lat="48.3125162" lon="-1.7187734">
        <ele>68.916</ele>
        <time>2018-08-17T13:41:27.117Z</time>
      </trkpt>
      <trkpt lat="48.3124871" lon="-1.7189366">
        <ele>68.477</ele>
        <time>2018-08-17T13:41:29.664Z</time>
      </trkpt>
      <trkpt lat="48.3124538" lon="-1.7190849">
        <ele>68.058</ele>
        <time>2018-08-17T13:41:32.000Z</time>
      </trkpt>
      <trkpt lat="48.3124538" lon="-1.7190849">
        <ele>67.682</ele>
        <time>2018-08-17T13:41:34.000Z</time>
      </trkpt>
      <trkpt lat="48.3124538" lon="-1.7190849">
        <ele>67.482</ele>
        <time>2018-08-17T13:41:34.100Z</time>
      </trkpt>
      <trkpt lat="48.3123842" lon="-1.7193703">
        <ele>67.472</ele>
        <time>2018-08-17T13:41:43.590Z</time>
      </trkpt>
      <trkpt lat="48.3123576" lon="-1.7195034">
        <ele>67.432</ele>
        <time>2018-08-17T13:41:46.706Z</time>
      </trkpt>
      <trkpt lat="48.3123326" lon="-1.7196406">
        <ele>67.130</ele>
        <time>2018-08-17T13:41:49.893Z</time>
      </trkpt>
      <trkpt lat="48.3123056" lon="-1.7197856">
        <ele>66.663</ele>
        <time>2018-08-17T13:41:53.232Z</time>
      </trkpt>
      <trkpt lat="48.3122725" lon="-1.7199271">
        <ele>66.314</ele>
        <time>2018-08-17T13:41:56.512Z</time>
      </trkpt>
      <trkpt lat="48.3122482" lon="-1.7200654">
        <ele>66.188</ele>
        <time>2018-08-17T13:41:59.599Z</time>
      </trkpt>
      <trkpt lat="48.3122451" lon="-1.7202037">
        <ele>66.237</ele>
        <time>2018-08-17T13:42:02.592Z</time>
      </trkpt>
      <trkpt lat="48.3122530" lon="-1.7203384">
        <ele>66.431</ele>
        <time>2018-08-17T13:42:05.564Z</time>
      </trkpt>
      <trkpt lat="48.3122631" lon="-1.7204988">
        <ele>66.804</ele>
        <time>2018-08-17T13:42:09.227Z</time>
      </trkpt>
      <trkpt lat="48.3122602" lon="-1.7206492">
        <ele>67.386</ele>
        <time>2018-08-17T13:42:12.797Z</time>
      </trkpt>
      <trkpt lat="48.3122377" lon="-1.7207877">
        <ele>68.027</ele>
        <time>2018-08-17T13:42:16.336Z</time>
      </trkpt>
      <trkpt lat="48.3122372" lon="-1.7209322">
        <ele>68.527</ele>
        <time>2018-08-17T13:42:20.147Z</time>
      </trkpt>
      <trkpt lat="48.3122325" lon="-1.7210690">
        <ele>68.943</ele>
        <time>2018-08-17T13:42:23.940Z</time>
      </trkpt>
      <trkpt lat="48.3121939" lon="-1.7212159">
        <ele>69.509</ele>
        <time>2018-08-17T13:42:29.058Z</time>
      </trkpt>
      <trkpt lat="48.3121430" lon="-1.7213578">
        <ele>70.249</ele>
        <time>2018-08-17T13:42:34.409Z</time>
      </trkpt>
      <trkpt lat="48.3121022" lon="-1.7214975">
        <ele>70.995</ele>
        <time>2018-08-17T13:42:38.755Z</time>
      </trkpt>
      <trkpt lat="48.3121071" lon="-1.7216396">
        <ele>71.610</ele>
        <time>2018-08-17T13:42:42.327Z</time>
      </trkpt>
      <trkpt lat="48.3120646" lon="-1.7217820">
        <ele>72.012</ele>
        <time>2018-08-17T13:42:46.320Z</time>
      </trkpt>
      <trkpt lat="48.3120281" lon="-1.7219409">
        <ele>71.985</ele>
        <time>2018-08-17T13:42:51.673Z</time>
      </trkpt>
      <trkpt lat="48.3120049" lon="-1.7220851">
        <ele>71.489</ele>
        <time>2018-08-17T13:42:56.766Z</time>
      </trkpt>
      <trkpt lat="48.3119681" lon="-1.7222289">
        <ele>70.921</ele>
        <time>2018-08-17T13:43:01.405Z</time>
      </trkpt>
      <trkpt lat="48.3119512" lon="-1.7224014">
        <ele>70.754</ele>
        <time>2018-08-17T13:43:07.141Z</time>
      </trkpt>
      <trkpt lat="48.3119100" lon="-1.7225235">
        <ele>70.998</ele>
        <time>2018-08-17T13:43:12.157Z</time>
      </trkpt>
      <trkpt lat="48.3118609" lon="-1.7226681">
        <ele>71.189</ele>
        <time>2018-08-17T13:43:17.495Z</time>
      </trkpt>
      <trkpt lat="48.3118276" lon="-1.7228074">
        <ele>70.999</ele>
        <time>2018-08-17T13:43:21.944Z</time>
      </trkpt>
      <trkpt lat="48.3117925" lon="-1.7229712">
        <ele>70.745</ele>
        <time>2018-08-17T13:43:26.608Z</time>
      </trkpt>
      <trkpt lat="48.3117583" lon="-1.7231320">
        <ele>70.766</ele>
        <time>2018-08-17T13:43:30.823Z</time>
      </trkpt>
      <trkpt lat="48.3117133" lon="-1.7232584">
        <ele>71.059</ele>
        <time>2018-08-17T13:43:34.480Z</time>
      </trkpt>
      <trkpt lat="48.3116858" lon="-1.7234071">
        <ele>72.034</ele>
        <time>2018-08-17T13:43:39.061Z</time>
      </trkpt>
      <trkpt lat="48.3116612" lon="-1.7235711">
        <ele>74.368</ele>
        <time>2018-08-17T13:43:44.677Z</time>
      </trkpt>
      <trkpt lat="48.3116442" lon="-1.7237146">
        <ele>77.611</ele>
        <time>2018-08-17T13:43:49.346Z</time>
      </trkpt>
      <trkpt lat="48.3116316" lon="-1.7238699">
        <ele>80.101</ele>
        <time>2018-08-17T13:43:54.153Z</time>
      </trkpt>
      <trkpt lat="48.3115936" lon="-1.7240074">
        <ele>80.216</ele>
        <time>2018-08-17T13:43:58.898Z</time>
      </trkpt>
      <trkpt lat="48.3115766" lon="-1.7241496">
        <ele>78.044</ele>
        <time>2018-08-17T13:44:03.356Z</time>
      </trkpt>
      <trkpt lat="48.3115584" lon="-1.7243125">
        <ele>74.970</ele>
        <time>2018-08-17T13:44:07.845Z</time>
      </trkpt>
      <trkpt lat="48.3115459" lon="-1.7244621">
        <ele>72.192</ele>
        <time>2018-08-17T13:44:11.932Z</time>
      </trkpt>
      <trkpt lat="48.3115072" lon="-1.7245987">
        <ele>70.440</ele>
        <time>2018-08-17T13:44:16.109Z</time>
      </trkpt>
      <trkpt lat="48.3114918" lon="-1.7247430">
        <ele>69.907</ele>
        <time>2018-08-17T13:44:20.475Z</time>
      </trkpt>
      <trkpt lat="48.3114747" lon="-1.7249036">
        <ele>69.745</ele>
        <time>2018-08-17T13:44:25.353Z</time>
      </trkpt>
      <trkpt lat="48.3114642" lon="-1.7250409">
        <ele>69.288</ele>
        <time>2018-08-17T13:44:29.653Z</time>
      </trkpt>
      <trkpt lat="48.3114552" lon="-1.7251982">
        <ele>68.685</ele>
        <time>2018-08-17T13:44:34.354Z</time>
      </trkpt>
      <trkpt lat="48.3114460" lon="-1.7253463">
        <ele>68.327</ele>
        <time>2018-08-17T13:44:38.433Z</time>
      </trkpt>
      <trkpt lat="48.3114459" lon="-1.7255113">
        <ele>68.496</ele>
        <time>2018-08-17T13:44:42.679Z</time>
      </trkpt>
      <trkpt lat="48.3114537" lon="-1.7256613">
        <ele>69.300</ele>
        <time>2018-08-17T13:44:46.628Z</time>
      </trkpt>
      <trkpt lat="48.3114448" lon="-1.7258216">
        <ele>70.318</ele>
        <time>2018-08-17T13:44:50.846Z</time>
      </trkpt>
      <trkpt lat="48.3114415" lon="-1.7259873">
        <ele>70.989</ele>
        <time>2018-08-17T13:44:55.235Z</time>
      </trkpt>
      <trkpt lat="48.3114344" lon="-1.7261285">
        <ele>71.170</ele>
        <time>2018-08-17T13:44:59.254Z</time>
      </trkpt>
      <trkpt lat="48.3114245" lon="-1.7262693">
        <ele>70.950</ele>
        <time>2018-08-17T13:45:03.344Z</time>
      </trkpt>
      <trkpt lat="48.3114382" lon="-1.7264085">
        <ele>70.257</ele>
        <time>2018-08-17T13:45:07.807Z</time>
      </trkpt>
      <trkpt lat="48.3114255" lon="-1.7265599">
        <ele>69.215</ele>
        <time>2018-08-17T13:45:12.732Z</time>
      </trkpt>
      <trkpt lat="48.3114506" lon="-1.7267255">
        <ele>68.765</ele>
        <time>2018-08-17T13:45:17.499Z</time>
      </trkpt>
      <trkpt lat="48.3114531" lon="-1.7268879">
        <ele>70.180</ele>
        <time>2018-08-17T13:45:21.555Z</time>
      </trkpt>
      <trkpt lat="48.3114416" lon="-1.7270538">
        <ele>73.146</ele>
        <time>2018-08-17T13:45:25.614Z</time>
      </trkpt>
      <trkpt lat="48.3114551" lon="-1.7272220">
        <ele>75.984</ele>
        <time>2018-08-17T13:45:29.719Z</time>
      </trkpt>
      <trkpt lat="48.3114753" lon="-1.7273552">
        <ele>78.036</ele>
        <time>2018-08-17T13:45:33.004Z</time>
      </trkpt>
      <trkpt lat="48.3114699" lon="-1.7275171">
        <ele>79.551</ele>
        <time>2018-08-17T13:45:37.190Z</time>
      </trkpt>
      <trkpt lat="48.3114559" lon="-1.7276745">
        <ele>80.100</ele>
        <time>2018-08-17T13:45:41.795Z</time>
      </trkpt>
      <trkpt lat="48.3114586" lon="-1.7278516">
        <ele>79.249</ele>
        <time>2018-08-17T13:45:47.051Z</time>
      </trkpt>
      <trkpt lat="48.3114676" lon="-1.7279987">
        <ele>77.735</ele>
        <time>2018-08-17T13:45:50.977Z</time>
      </trkpt>
      <trkpt lat="48.3114671" lon="-1.7281521">
        <ele>76.764</ele>
        <time>2018-08-17T13:45:54.896Z</time>
      </trkpt>
      <trkpt lat="48.3114757" lon="-1.7283203">
        <ele>76.585</ele>
        <time>2018-08-17T13:45:59.364Z</time>
      </trkpt>
      <trkpt lat="48.3114651" lon="-1.7284674">
        <ele>76.608</ele>
        <time>2018-08-17T13:46:03.645Z</time>
      </trkpt>
      <trkpt lat="48.3114635" lon="-1.7286240">
        <ele>76.425</ele>
        <time>2018-08-17T13:46:08.035Z</time>
      </trkpt>
      <trkpt lat="48.3114763" lon="-1.7287607">
        <ele>76.045</ele>
        <time>2018-08-17T13:46:11.783Z</time>
      </trkpt>
      <trkpt lat="48.3114868" lon="-1.7289014">
        <ele>75.668</ele>
        <time>2018-08-17T13:46:15.741Z</time>
      </trkpt>
      <trkpt lat="48.3114959" lon="-1.7290521">
        <ele>75.393</ele>
        <time>2018-08-17T13:46:20.098Z</time>
      </trkpt>
      <trkpt lat="48.3115065" lon="-1.7292141">
        <ele>75.222</ele>
        <time>2018-08-17T13:46:24.562Z</time>
      </trkpt>
      <trkpt lat="48.3115224" lon="-1.7293712">
        <ele>75.311</ele>
        <time>2018-08-17T13:46:29.069Z</time>
      </trkpt>
      <trkpt lat="48.3115236" lon="-1.7295091">
        <ele>75.803</ele>
        <time>2018-08-17T13:46:33.239Z</time>
      </trkpt>
      <trkpt lat="48.3115355" lon="-1.7296625">
        <ele>76.493</ele>
        <time>2018-08-17T13:46:37.746Z</time>
      </trkpt>
      <trkpt lat="48.3115260" lon="-1.7298063">
        <ele>77.084</ele>
        <time>2018-08-17T13:46:41.901Z</time>
      </trkpt>
      <trkpt lat="48.3115194" lon="-1.7299549">
        <ele>77.767</ele>
        <time>2018-08-17T13:46:46.091Z</time>
      </trkpt>
      <trkpt lat="48.3115429" lon="-1.7301071">
        <ele>78.732</ele>
        <time>2018-08-17T13:46:50.399Z</time>
      </trkpt>
      <trkpt lat="48.3115605" lon="-1.7302633">
        <ele>79.496</ele>
        <time>2018-08-17T13:46:54.802Z</time>
      </trkpt>
      <trkpt lat="48.3115837" lon="-1.7304144">
        <ele>79.373</ele>
        <time>2018-08-17T13:46:58.878Z</time>
      </trkpt>
      <trkpt lat="48.3115763" lon="-1.7305849">
        <ele>78.501</ele>
        <time>2018-08-17T13:47:02.404Z</time>
      </trkpt>
      <trkpt lat="48.3115792" lon="-1.7307465">
        <ele>77.695</ele>
        <time>2018-08-17T13:47:05.081Z</time>
      </trkpt>
      <trkpt lat="48.3115823" lon="-1.7309259">
        <ele>77.856</ele>
        <time>2018-08-17T13:47:07.705Z</time>
      </trkpt>
      <trkpt lat="48.3115958" lon="-1.7310907">
        <ele>79.185</ele>
        <time>2018-08-17T13:47:09.938Z</time>
      </trkpt>
      <trkpt lat="48.3116075" lon="-1.7312449">
        <ele>80.687</ele>
        <time>2018-08-17T13:47:12.000Z</time>
      </trkpt>
      <trkpt lat="48.3116075" lon="-1.7312449">
        <ele>81.273</ele>
        <time>2018-08-17T13:47:14.000Z</time>
      </trkpt>
      <trkpt lat="48.3116075" lon="-1.7312449">
        <ele>81.087</ele>
        <time>2018-08-17T13:47:14.100Z</time>
      </trkpt>
      <trkpt lat="48.3116510" lon="-1.7315164">
        <ele>80.771</ele>
        <time>2018-08-17T13:47:22.420Z</time>
      </trkpt>
      <trkpt lat="48.3116506" lon="-1.7316539">
        <ele>79.487</ele>
        <time>2018-08-17T13:47:25.000Z</time>
      </trkpt>
      <trkpt lat="48.3116506" lon="-1.7316539">
        <ele>76.573</ele>
        <time>2018-08-17T13:47:29.000Z</time>
      </trkpt>
      <trkpt lat="48.3116506" lon="-1.7316539">
        <ele>74.179</ele>
        <time>2018-08-17T13:47:29.100Z</time>
      </trkpt>
      <trkpt lat="48.3116666" lon="-1.7320376">
        <ele>74.597</ele>
        <time>2018-08-17T13:47:44.766Z</time>
      </trkpt>
      <trkpt lat="48.3116814" lon="-1.7321744">
        <ele>77.373</ele>
        <time>2018-08-17T13:47:48.783Z</time>
      </trkpt>
      <trkpt lat="48.3116839" lon="-1.7323335">
        <ele>80.675</ele>
        <time>2018-08-17T13:47:53.308Z</time>
      </trkpt>
      <trkpt lat="48.3117026" lon="-1.7324875">
        <ele>82.819</ele>
        <time>2018-08-17T13:47:57.726Z</time>
      </trkpt>
      <trkpt lat="48.3116891" lon="-1.7326224">
        <ele>83.399</ele>
        <time>2018-08-17T13:48:01.848Z</time>
      </trkpt>
      <trkpt lat="48.3116827" lon="-1.7327784">
        <ele>83.175</ele>
        <time>2018-08-17T13:48:06.666Z</time>
      </trkpt>
      <trkpt lat="48.3116826" lon="-1.7329198">
        <ele>82.730</ele>
        <time>2018-08-17T13:48:10.821Z</time>
      </trkpt>
      <trkpt lat="48.3116946" lon="-1.7330556">
        <ele>82.256</ele>
        <time>2018-08-17T13:48:14.705Z</time>
      </trkpt>
      <trkpt lat="48.3117095" lon="-1.7331912">
        <ele>81.916</ele>
        <time>2018-08-17T13:48:18.459Z</time>
      </trkpt>
      <trkpt lat="48.3117122" lon="-1.7333323">
        <ele>81.739</ele>
        <time>2018-08-17T13:48:22.415Z</time>
      </trkpt>
      <trkpt lat="48.3117020" lon="-1.7334683">
        <ele>81.600</ele>
        <time>2018-08-17T13:48:26.561Z</time>
      </trkpt>
      <trkpt lat="48.3116958" lon="-1.7336090">
        <ele>81.553</ele>
        <time>2018-08-17T13:48:31.140Z</time>
      </trkpt>
      <trkpt lat="48.3117001" lon="-1.7337540">
        <ele>81.728</ele>
        <time>2018-08-17T13:48:35.896Z</time>
      </trkpt>
      <trkpt lat="48.3117042" lon="-1.7338996">
        <ele>82.036</ele>
        <time>2018-08-17T13:48:40.952Z</time>
      </trkpt>
      <trkpt lat="48.3117114" lon="-1.7340476">
        <ele>82.270</ele>
        <time>2018-08-17T13:48:46.604Z</time>
      </trkpt>
      <trkpt lat="48.3116997" lon="-1.7342024">
        <ele>82.359</ele>
        <time>2018-08-17T13:48:52.896Z</time>
      </trkpt>
      <trkpt lat="48.3116797" lon="-1.7343421">
        <ele>82.303</ele>
        <time>2018-08-17T13:48:57.928Z</time>
      </trkpt>
      <trkpt lat="48.3116466" lon="-1.7344886">
        <ele>82.132</ele>
        <time>2018-08-17T13:49:02.871Z</time>
      </trkpt>
      <trkpt lat="48.3116375" lon="-1.7346334">
        <ele>81.748</ele>
        <time>2018-08-17T13:49:07.067Z</time>
      </trkpt>
      <trkpt lat="48.3116340" lon="-1.7347765">
        <ele>81.108</ele>
        <time>2018-08-17T13:49:10.851Z</time>
      </trkpt>
      <trkpt lat="48.3116370" lon="-1.7349302">
        <ele>80.730</ele>
        <time>2018-08-17T13:49:14.967Z</time>
      </trkpt>
      <trkpt lat="48.3116590" lon="-1.7350700">
        <ele>81.142</ele>
        <time>2018-08-17T13:49:19.081Z</time>
      </trkpt>
      <trkpt lat="48.3116596" lon="-1.7352273">
        <ele>82.065</ele>
        <time>2018-08-17T13:49:23.952Z</time>
      </trkpt>
      <trkpt lat="48.3116886" lon="-1.7353761">
        <ele>82.886</ele>
        <time>2018-08-17T13:49:28.985Z</time>
      </trkpt>
      <trkpt lat="48.3117026" lon="-1.7355223">
        <ele>83.375</ele>
        <time>2018-08-17T13:49:33.602Z</time>
      </trkpt>
      <trkpt lat="48.3116972" lon="-1.7356661">
        <ele>83.715</ele>
        <time>2018-08-17T13:49:37.593Z</time>
      </trkpt>
      <trkpt lat="48.3117099" lon="-1.7358283">
        <ele>84.402</ele>
        <time>2018-08-17T13:49:41.757Z</time>
      </trkpt>
      <trkpt lat="48.3117200" lon="-1.7359915">
        <ele>85.575</ele>
        <time>2018-08-17T13:49:45.858Z</time>
      </trkpt>
      <trkpt lat="48.3117400" lon="-1.7361370">
        <ele>86.897</ele>
        <time>2018-08-17T13:49:49.579Z</time>
      </trkpt>
      <trkpt lat="48.3117742" lon="-1.7362719">
        <ele>88.097</ele>
        <time>2018-08-17T13:49:53.299Z</time>
      </trkpt>
      <trkpt lat="48.3117947" lon="-1.7364254">
        <ele>89.078</ele>
        <time>2018-08-17T13:49:57.755Z</time>
      </trkpt>
      <trkpt lat="48.3117968" lon="-1.7365609">
        <ele>89.712</ele>
        <time>2018-08-17T13:50:01.542Z</time>
      </trkpt>
      <trkpt lat="48.3117931" lon="-1.7367106">
        <ele>89.493</ele>
        <time>2018-08-17T13:50:05.270Z</time>
      </trkpt>
      <trkpt lat="48.3118065" lon="-1.7368476">
        <ele>88.198</ele>
        <time>2018-08-17T13:50:08.677Z</time>
      </trkpt>
      <trkpt lat="48.3118156" lon="-1.7370208">
        <ele>86.688</ele>
        <time>2018-08-17T13:50:13.086Z</time>
      </trkpt>
      <trkpt lat="48.3118171" lon="-1.7371858">
        <ele>85.183</ele>
        <time>2018-08-17T13:50:17.381Z</time>
      </trkpt>
      <trkpt lat="48.3117782" lon="-1.7373208">
        <ele>83.208</ele>
        <time>2018-08-17T13:50:21.969Z</time>
      </trkpt>
      <trkpt lat="48.3117298" lon="-1.7374591">
        <ele>81.161</ele>
        <time>2018-08-17T13:50:27.000Z</time>
      </trkpt>
      <trkpt lat="48.3117298" lon="-1.7374591">
        <ele>79.702</ele>
        <time>2018-08-17T13:50:30.000Z</time>
      </trkpt>
      <trkpt lat="48.3117298" lon="-1.7374591">
        <ele>79.057</ele>
        <time>2018-08-17T13:50:30.100Z</time>
      </trkpt>
      <trkpt lat="48.3116766" lon="-1.7377819">
        <ele>79.306</ele>
        <time>2018-08-17T13:50:46.000Z</time>
      </trkpt>
      <trkpt lat="48.3116766" lon="-1.7377819">
        <ele>79.913</ele>
        <time>2018-08-17T13:51:01.000Z</time>
      </trkpt>
      <trkpt lat="48.3116766" lon="-1.7377819">
        <ele>80.155</ele>
        <time>2018-08-17T13:51:39.048Z</time>
      </trkpt>
      <trkpt lat="48.3116147" lon="-1.7380854">
        <ele>80.017</ele>
        <time>2018-08-17T13:52:10.814Z</time>
      </trkpt>
      <trkpt lat="48.3116391" lon="-1.7382353">
        <ele>81.313</ele>
        <time>2018-08-17T13:52:16.967Z</time>
      </trkpt>
      <trkpt lat="48.3116321" lon="-1.7384009">
        <ele>85.034</ele>
        <time>2018-08-17T13:52:23.256Z</time>
      </trkpt>
      <trkpt lat="48.3116373" lon="-1.7385642">
        <ele>89.003</ele>
        <time>2018-08-17T13:52:29.282Z</time>
      </trkpt>
      <trkpt lat="48.3116405" lon="-1.7387179">
        <ele>91.019</ele>
        <time>2018-08-17T13:52:35.911Z</time>
      </trkpt>
      <trkpt lat="48.3116368" lon="-1.7388806">
        <ele>91.457</ele>
        <time>2018-08-17T13:52:42.645Z</time>
      </trkpt>
      <trkpt lat="48.3116451" lon="-1.7390401">
        <ele>91.233</ele>
        <time>2018-08-17T13:52:48.565Z</time>
      </trkpt>
      <trkpt lat="48.3116421" lon="-1.7391999">
        <ele>90.861</ele>
        <time>2018-08-17T13:52:54.367Z</time>
      </trkpt>
      <trkpt lat="48.3116625" lon="-1.7393615">
        <ele>90.436</ele>
        <time>2018-08-17T13:53:02.104Z</time>
      </trkpt>
      <trkpt lat="48.3116741" lon="-1.7395023">
        <ele>90.096</ele>
        <time>2018-08-17T13:53:09.984Z</time>
      </trkpt>
      <trkpt lat="48.3116551" lon="-1.7396438">
        <ele>89.951</ele>
        <time>2018-08-17T13:53:18.000Z</time>
      </trkpt>
      <trkpt lat="48.3116551" lon="-1.7396438">
        <ele>89.887</ele>
        <time>2018-08-17T13:53:21.000Z</time>
      </trkpt>
      <trkpt lat="48.3116551" lon="-1.7396438">
        <ele>89.823</ele>
        <time>2018-08-17T13:53:25.064Z</time>
      </trkpt>
      <trkpt lat="48.3116669" lon="-1.7399452">
        <ele>89.793</ele>
        <time>2018-08-17T13:53:45.674Z</time>
      </trkpt>
      <trkpt lat="48.3116912" lon="-1.7400917">
        <ele>89.506</ele>
        <time>2018-08-17T13:53:51.483Z</time>
      </trkpt>
      <trkpt lat="48.3117055" lon="-1.7402314">
        <ele>88.725</ele>
        <time>2018-08-17T13:53:57.357Z</time>
      </trkpt>
      <trkpt lat="48.3116901" lon="-1.7403900">
        <ele>87.818</ele>
        <time>2018-08-17T13:54:03.804Z</time>
      </trkpt>
      <trkpt lat="48.3116939" lon="-1.7405468">
        <ele>87.291</ele>
        <time>2018-08-17T13:54:10.069Z</time>
      </trkpt>
      <trkpt lat="48.3117135" lon="-1.7406909">
        <ele>87.359</ele>
        <time>2018-08-17T13:54:16.358Z</time>
      </trkpt>
      <trkpt lat="48.3117249" lon="-1.7408336">
        <ele>88.020</ele>
        <time>2018-08-17T13:54:22.154Z</time>
      </trkpt>
      <trkpt lat="48.3117131" lon="-1.7409691">
        <ele>88.925</ele>
        <time>2018-08-17T13:54:28.250Z</time>
      </trkpt>
      <trkpt lat="48.3117149" lon="-1.7411122">
        <ele>89.700</ele>
        <time>2018-08-17T13:54:36.098Z</time>
      </trkpt>
      <trkpt lat="48.3116913" lon="-1.7412582">
        <ele>90.173</ele>
        <time>2018-08-17T13:54:43.182Z</time>
      </trkpt>
      <trkpt lat="48.3117109" lon="-1.7413998">
        <ele>90.360</ele>
        <time>2018-08-17T13:54:49.328Z</time>
      </trkpt>
      <trkpt lat="48.3117263" lon="-1.7415352">
        <ele>90.385</ele>
        <time>2018-08-17T13:54:54.644Z</time>
      </trkpt>
      <trkpt lat="48.3117026" lon="-1.7416968">
        <ele>90.197</ele>
        <time>2018-08-17T13:54:59.438Z</time>
      </trkpt>
      <trkpt lat="48.3117026" lon="-1.7418543">
        <ele>89.652</ele>
        <time>2018-08-17T13:55:03.237Z</time>
      </trkpt>
      <trkpt lat="48.3117228" lon="-1.7419927">
        <ele>88.919</ele>
        <time>2018-08-17T13:55:06.437Z</time>
      </trkpt>
      <trkpt lat="48.3117441" lon="-1.7421333">
        <ele>88.457</ele>
        <time>2018-08-17T13:55:09.792Z</time>
      </trkpt>
      <trkpt lat="48.3117320" lon="-1.7422765">
        <ele>88.480</ele>
        <time>2018-08-17T13:55:13.262Z</time>
      </trkpt>
      <trkpt lat="48.3117086" lon="-1.7424406">
        <ele>88.724</ele>
        <time>2018-08-17T13:55:17.524Z</time>
      </trkpt>
      <trkpt lat="48.3116970" lon="-1.7425840">
        <ele>88.827</ele>
        <time>2018-08-17T13:55:21.409Z</time>
      </trkpt>
      <trkpt lat="48.3116917" lon="-1.7427432">
        <ele>88.594</ele>
        <time>2018-08-17T13:55:25.908Z</time>
      </trkpt>
      <trkpt lat="48.3116620" lon="-1.7428750">
        <ele>88.104</ele>
        <time>2018-08-17T13:55:29.725Z</time>
      </trkpt>
      <trkpt lat="48.3116324" lon="-1.7430257">
        <ele>87.518</ele>
        <time>2018-08-17T13:55:33.666Z</time>
      </trkpt>
      <trkpt lat="48.3116133" lon="-1.7431909">
        <ele>86.934</ele>
        <time>2018-08-17T13:55:37.493Z</time>
      </trkpt>
      <trkpt lat="48.3115871" lon="-1.7433460">
        <ele>86.458</ele>
        <time>2018-08-17T13:55:40.973Z</time>
      </trkpt>
      <trkpt lat="48.3115614" lon="-1.7435145">
        <ele>86.063</ele>
        <time>2018-08-17T13:55:44.594Z</time>
      </trkpt>
      <trkpt lat="48.3115537" lon="-1.7436592">
        <ele>85.557</ele>
        <time>2018-08-17T13:55:47.599Z</time>
      </trkpt>
      <trkpt lat="48.3115749" lon="-1.7438110">
        <ele>84.779</ele>
        <time>2018-08-17T13:55:50.818Z</time>
      </trkpt>
      <trkpt lat="48.3115867" lon="-1.7439490">
        <ele>83.862</ele>
        <time>2018-08-17T13:55:53.744Z</time>
      </trkpt>
      <trkpt lat="48.3115878" lon="-1.7441221">
        <ele>83.376</ele>
        <time>2018-08-17T13:55:57.424Z</time>
      </trkpt>
      <trkpt lat="48.3115768" lon="-1.7442950">
        <ele>83.606</ele>
        <time>2018-08-17T13:56:01.258Z</time>
      </trkpt>
      <trkpt lat="48.3115914" lon="-1.7444355">
        <ele>84.102</ele>
        <time>2018-08-17T13:56:04.520Z</time>
      </trkpt>
      <trkpt lat="48.3115955" lon="-1.7445970">
        <ele>84.412</ele>
        <time>2018-08-17T13:56:08.256Z</time>
      </trkpt>
      <trkpt lat="48.3116216" lon="-1.7447474">
        <ele>84.818</ele>
        <time>2018-08-17T13:56:11.795Z</time>
      </trkpt>
      <trkpt lat="48.3116353" lon="-1.7449125">
        <ele>85.611</ele>
        <time>2018-08-17T13:56:15.406Z</time>
      </trkpt>
      <trkpt lat="48.3116233" lon="-1.7450925">
        <ele>86.230</ele>
        <time>2018-08-17T13:56:19.105Z</time>
      </trkpt>
      <trkpt lat="48.3116342" lon="-1.7452444">
        <ele>85.812</ele>
        <time>2018-08-17T13:56:22.131Z</time>
      </trkpt>
      <trkpt lat="48.3116471" lon="-1.7453998">
        <ele>84.351</ele>
        <time>2018-08-17T13:56:25.204Z</time>
      </trkpt>
      <trkpt lat="48.3116536" lon="-1.7455563">
        <ele>82.742</ele>
        <time>2018-08-17T13:56:28.374Z</time>
      </trkpt>
      <trkpt lat="48.3116552" lon="-1.7457262">
        <ele>81.912</ele>
        <time>2018-08-17T13:56:31.951Z</time>
      </trkpt>
      <trkpt lat="48.3116544" lon="-1.7458642">
        <ele>81.957</ele>
        <time>2018-08-17T13:56:35.122Z</time>
      </trkpt>
      <trkpt lat="48.3116578" lon="-1.7460020">
        <ele>82.418</ele>
        <time>2018-08-17T13:56:38.349Z</time>
      </trkpt>
      <trkpt lat="48.3116590" lon="-1.7461556">
        <ele>82.898</ele>
        <time>2018-08-17T13:56:41.811Z</time>
      </trkpt>
      <trkpt lat="48.3116808" lon="-1.7463213">
        <ele>83.334</ele>
        <time>2018-08-17T13:56:45.100Z</time>
      </trkpt>
      <trkpt lat="48.3116993" lon="-1.7464882">
        <ele>84.220</ele>
        <time>2018-08-17T13:56:48.016Z</time>
      </trkpt>
      <trkpt lat="48.3117172" lon="-1.7466750">
        <ele>85.735</ele>
        <time>2018-08-17T13:56:51.021Z</time>
      </trkpt>
      <trkpt lat="48.3117347" lon="-1.7468646">
        <ele>86.956</ele>
        <time>2018-08-17T13:56:53.907Z</time>
      </trkpt>
      <trkpt lat="48.3117480" lon="-1.7470679">
        <ele>87.154</ele>
        <time>2018-08-17T13:56:56.897Z</time>
      </trkpt>
      <trkpt lat="48.3117581" lon="-1.7472690">
        <ele>86.696</ele>
        <time>2018-08-17T13:56:59.763Z</time>
      </trkpt>
      <trkpt lat="48.3117776" lon="-1.7474695">
        <ele>85.942</ele>
        <time>2018-08-17T13:57:02.543Z</time>
      </trkpt>
      <trkpt lat="48.3117885" lon="-1.7476039">
        <ele>84.712</ele>
        <time>2018-08-17T13:57:04.355Z</time>
      </trkpt>
      <trkpt lat="48.3118267" lon="-1.7478298">
        <ele>82.968</ele>
        <time>2018-08-17T13:57:07.494Z</time>
      </trkpt>
      <trkpt lat="48.3118360" lon="-1.7479784">
        <ele>81.225</ele>
        <time>2018-08-17T13:57:09.547Z</time>
      </trkpt>
      <trkpt lat="48.3118341" lon="-1.7481974">
        <ele>79.982</ele>
        <time>2018-08-17T13:57:12.620Z</time>
      </trkpt>
      <trkpt lat="48.3118492" lon="-1.7483725">
        <ele>79.270</ele>
        <time>2018-08-17T13:57:15.214Z</time>
      </trkpt>
      <trkpt lat="48.3118672" lon="-1.7485867">
        <ele>78.900</ele>
        <time>2018-08-17T13:57:18.676Z</time>
      </trkpt>
      <trkpt lat="48.3118843" lon="-1.7487595">
        <ele>78.339</ele>
        <time>2018-08-17T13:57:21.747Z</time>
      </trkpt>
      <trkpt lat="48.3119029" lon="-1.7489039">
        <ele>77.251</ele>
        <time>2018-08-17T13:57:24.422Z</time>
      </trkpt>
      <trkpt lat="48.3119128" lon="-1.7490540">
        <ele>76.799</ele>
        <time>2018-08-17T13:57:27.134Z</time>
      </trkpt>
      <trkpt lat="48.3119282" lon="-1.7492050">
        <ele>78.080</ele>
        <time>2018-08-17T13:57:29.786Z</time>
      </trkpt>
      <trkpt lat="48.3119575" lon="-1.7493714">
        <ele>80.107</ele>
        <time>2018-08-17T13:57:32.680Z</time>
      </trkpt>
      <trkpt lat="48.3119706" lon="-1.7495544">
        <ele>81.440</ele>
        <time>2018-08-17T13:57:35.854Z</time>
      </trkpt>
      <trkpt lat="48.3119773" lon="-1.7496895">
        <ele>81.835</ele>
        <time>2018-08-17T13:57:38.277Z</time>
      </trkpt>
      <trkpt lat="48.3119758" lon="-1.7498475">
        <ele>81.418</ele>
        <time>2018-08-17T13:57:41.148Z</time>
      </trkpt>
      <trkpt lat="48.3119647" lon="-1.7500031">
        <ele>80.441</ele>
        <time>2018-08-17T13:57:44.009Z</time>
      </trkpt>
      <trkpt lat="48.3119670" lon="-1.7501688">
        <ele>79.611</ele>
        <time>2018-08-17T13:57:47.063Z</time>
      </trkpt>
      <trkpt lat="48.3119915" lon="-1.7503228">
        <ele>79.537</ele>
        <time>2018-08-17T13:57:49.967Z</time>
      </trkpt>
      <trkpt lat="48.3120107" lon="-1.7504771">
        <ele>80.346</ele>
        <time>2018-08-17T13:57:52.855Z</time>
      </trkpt>
      <trkpt lat="48.3120312" lon="-1.7506456">
        <ele>81.944</ele>
        <time>2018-08-17T13:57:56.074Z</time>
      </trkpt>
      <trkpt lat="48.3120473" lon="-1.7507978">
        <ele>83.723</ele>
        <time>2018-08-17T13:57:59.020Z</time>
      </trkpt>
      <trkpt lat="48.3120449" lon="-1.7509527">
        <ele>84.867</ele>
        <time>2018-08-17T13:58:02.081Z</time>
      </trkpt>
      <trkpt lat="48.3120481" lon="-1.7511128">
        <ele>84.660</ele>
        <time>2018-08-17T13:58:05.405Z</time>
      </trkpt>
      <trkpt lat="48.3120590" lon="-1.7512554">
        <ele>83.179</ele>
        <time>2018-08-17T13:58:08.458Z</time>
      </trkpt>
      <trkpt lat="48.3120759" lon="-1.7513889">
        <ele>81.592</ele>
        <time>2018-08-17T13:58:11.393Z</time>
      </trkpt>
      <trkpt lat="48.3120890" lon="-1.7515533">
        <ele>80.885</ele>
        <time>2018-08-17T13:58:14.995Z</time>
      </trkpt>
      <trkpt lat="48.3121006" lon="-1.7516898">
        <ele>80.924</ele>
        <time>2018-08-17T13:58:17.961Z</time>
      </trkpt>
      <trkpt lat="48.3121146" lon="-1.7518691">
        <ele>81.218</ele>
        <time>2018-08-17T13:58:21.709Z</time>
      </trkpt>
      <trkpt lat="48.3121305" lon="-1.7520234">
        <ele>81.415</ele>
        <time>2018-08-17T13:58:24.887Z</time>
      </trkpt>
      <trkpt lat="48.3121398" lon="-1.7522028">
        <ele>81.398</ele>
        <time>2018-08-17T13:58:28.625Z</time>
      </trkpt>
      <trkpt lat="48.3121639" lon="-1.7523768">
        <ele>81.211</ele>
        <time>2018-08-17T13:58:32.507Z</time>
      </trkpt>
      <trkpt lat="48.3121817" lon="-1.7525198">
        <ele>80.965</ele>
        <time>2018-08-17T13:58:35.802Z</time>
      </trkpt>
      <trkpt lat="48.3122111" lon="-1.7526479">
        <ele>80.696</ele>
        <time>2018-08-17T13:58:38.894Z</time>
      </trkpt>
      <trkpt lat="48.3122268" lon="-1.7528227">
        <ele>80.200</ele>
        <time>2018-08-17T13:58:42.960Z</time>
      </trkpt>
      <trkpt lat="48.3122303" lon="-1.7529632">
        <ele>79.420</ele>
        <time>2018-08-17T13:58:46.189Z</time>
      </trkpt>
      <trkpt lat="48.3122407" lon="-1.7531120">
        <ele>78.808</ele>
        <time>2018-08-17T13:58:49.592Z</time>
      </trkpt>
      <trkpt lat="48.3122418" lon="-1.7532665">
        <ele>78.961</ele>
        <time>2018-08-17T13:58:53.071Z</time>
      </trkpt>
      <trkpt lat="48.3122355" lon="-1.7534428">
        <ele>79.771</ele>
        <time>2018-08-17T13:58:56.926Z</time>
      </trkpt>
      <trkpt lat="48.3122377" lon="-1.7535972">
        <ele>80.664</ele>
        <time>2018-08-17T13:59:00.193Z</time>
      </trkpt>
      <trkpt lat="48.3122148" lon="-1.7537869">
        <ele>81.183</ele>
        <time>2018-08-17T13:59:04.079Z</time>
      </trkpt>
      <trkpt lat="48.3122163" lon="-1.7539619">
        <ele>81.082</ele>
        <time>2018-08-17T13:59:07.489Z</time>
      </trkpt>
      <trkpt lat="48.3122369" lon="-1.7541241">
        <ele>80.491</ele>
        <time>2018-08-17T13:59:10.707Z</time>
      </trkpt>
      <trkpt lat="48.3122492" lon="-1.7542609">
        <ele>80.030</ele>
        <time>2018-08-17T13:59:13.453Z</time>
      </trkpt>
      <trkpt lat="48.3122468" lon="-1.7544008">
        <ele>80.239</ele>
        <time>2018-08-17T13:59:16.302Z</time>
      </trkpt>
      <trkpt lat="48.3122754" lon="-1.7545359">
        <ele>81.260</ele>
        <time>2018-08-17T13:59:19.214Z</time>
      </trkpt>
      <trkpt lat="48.3123123" lon="-1.7546765">
        <ele>82.739</ele>
        <time>2018-08-17T13:59:22.339Z</time>
      </trkpt>
      <trkpt lat="48.3123434" lon="-1.7548119">
        <ele>84.019</ele>
        <time>2018-08-17T13:59:25.315Z</time>
      </trkpt>
      <trkpt lat="48.3123572" lon="-1.7549853">
        <ele>84.567</ele>
        <time>2018-08-17T13:59:28.988Z</time>
      </trkpt>
      <trkpt lat="48.3123765" lon="-1.7551221">
        <ele>84.293</ele>
        <time>2018-08-17T13:59:31.975Z</time>
      </trkpt>
      <trkpt lat="48.3124069" lon="-1.7552862">
        <ele>83.617</ele>
        <time>2018-08-17T13:59:35.651Z</time>
      </trkpt>
      <trkpt lat="48.3124514" lon="-1.7554201">
        <ele>83.081</ele>
        <time>2018-08-17T13:59:38.787Z</time>
      </trkpt>
      <trkpt lat="48.3124917" lon="-1.7555630">
        <ele>82.775</ele>
        <time>2018-08-17T13:59:41.923Z</time>
      </trkpt>
      <trkpt lat="48.3125257" lon="-1.7556895">
        <ele>82.521</ele>
        <time>2018-08-17T13:59:44.569Z</time>
      </trkpt>
      <trkpt lat="48.3125689" lon="-1.7558262">
        <ele>82.193</ele>
        <time>2018-08-17T13:59:47.293Z</time>
      </trkpt>
      <trkpt lat="48.3126119" lon="-1.7559470">
        <ele>81.725</ele>
        <time>2018-08-17T13:59:49.723Z</time>
      </trkpt>
      <trkpt lat="48.3126664" lon="-1.7560907">
        <ele>81.240</ele>
        <time>2018-08-17T13:59:52.663Z</time>
      </trkpt>
      <trkpt lat="48.3127173" lon="-1.7562646">
        <ele>81.030</ele>
        <time>2018-08-17T13:59:56.095Z</time>
      </trkpt>
      <trkpt lat="48.3127628" lon="-1.7564210">
        <ele>81.144</ele>
        <time>2018-08-17T13:59:59.178Z</time>
      </trkpt>
      <trkpt lat="48.3128062" lon="-1.7565733">
        <ele>81.289</ele>
        <time>2018-08-17T14:00:02.130Z</time>
      </trkpt>
      <trkpt lat="48.3128771" lon="-1.7567089">
        <ele>81.232</ele>
        <time>2018-08-17T14:00:05.078Z</time>
      </trkpt>
      <trkpt lat="48.3129647" lon="-1.7568602">
        <ele>80.984</ele>
        <time>2018-08-17T14:00:08.464Z</time>
      </trkpt>
      <trkpt lat="48.3130328" lon="-1.7570037">
        <ele>80.786</ele>
        <time>2018-08-17T14:00:11.537Z</time>
      </trkpt>
      <trkpt lat="48.3130987" lon="-1.7571524">
        <ele>80.835</ele>
        <time>2018-08-17T14:00:14.945Z</time>
      </trkpt>
      <trkpt lat="48.3131530" lon="-1.7572897">
        <ele>81.034</ele>
        <time>2018-08-17T14:00:18.062Z</time>
      </trkpt>
      <trkpt lat="48.3132080" lon="-1.7574212">
        <ele>81.308</ele>
        <time>2018-08-17T14:00:21.175Z</time>
      </trkpt>
      <trkpt lat="48.3132696" lon="-1.7575556">
        <ele>81.834</ele>
        <time>2018-08-17T14:00:24.565Z</time>
      </trkpt>
      <trkpt lat="48.3133362" lon="-1.7576667">
        <ele>82.548</ele>
        <time>2018-08-17T14:00:27.750Z</time>
      </trkpt>
      <trkpt lat="48.3134095" lon="-1.7577465">
        <ele>83.104</ele>
        <time>2018-08-17T14:00:30.693Z</time>
      </trkpt>
      <trkpt lat="48.3134908" lon="-1.7578344">
        <ele>83.212</ele>
        <time>2018-08-17T14:00:34.036Z</time>
      </trkpt>
      <trkpt lat="48.3135797" lon="-1.7579311">
        <ele>82.907</ele>
        <time>2018-08-17T14:00:37.808Z</time>
      </trkpt>
      <trkpt lat="48.3136755" lon="-1.7580201">
        <ele>82.375</ele>
        <time>2018-08-17T14:00:41.704Z</time>
      </trkpt>
      <trkpt lat="48.3137660" lon="-1.7580722">
        <ele>81.821</ele>
        <time>2018-08-17T14:00:44.951Z</time>
      </trkpt>
      <trkpt lat="48.3138525" lon="-1.7581524">
        <ele>81.534</ele>
        <time>2018-08-17T14:00:48.185Z</time>
      </trkpt>
      <trkpt lat="48.3139339" lon="-1.7582322">
        <ele>82.098</ele>
        <time>2018-08-17T14:00:51.099Z</time>
      </trkpt>
      <trkpt lat="48.3140250" lon="-1.7583209">
        <ele>83.558</ele>
        <time>2018-08-17T14:00:54.193Z</time>
      </trkpt>
      <trkpt lat="48.3141102" lon="-1.7584092">
        <ele>84.937</ele>
        <time>2018-08-17T14:00:57.061Z</time>
      </trkpt>
      <trkpt lat="48.3142020" lon="-1.7584748">
        <ele>85.246</ele>
        <time>2018-08-17T14:00:59.838Z</time>
      </trkpt>
      <trkpt lat="48.3143085" lon="-1.7585443">
        <ele>84.091</ele>
        <time>2018-08-17T14:01:02.952Z</time>
      </trkpt>
      <trkpt lat="48.3144061" lon="-1.7586105">
        <ele>81.974</ele>
        <time>2018-08-17T14:01:05.822Z</time>
      </trkpt>
      <trkpt lat="48.3145037" lon="-1.7586429">
        <ele>80.430</ele>
        <time>2018-08-17T14:01:08.555Z</time>
      </trkpt>
      <trkpt lat="48.3146071" lon="-1.7586949">
        <ele>80.314</ele>
        <time>2018-08-17T14:01:11.568Z</time>
      </trkpt>
      <trkpt lat="48.3147067" lon="-1.7587472">
        <ele>80.994</ele>
        <time>2018-08-17T14:01:14.550Z</time>
      </trkpt>
      <trkpt lat="48.3148119" lon="-1.7588312">
        <ele>81.609</ele>
        <time>2018-08-17T14:01:17.979Z</time>
      </trkpt>
      <trkpt lat="48.3148963" lon="-1.7588850">
        <ele>81.837</ele>
        <time>2018-08-17T14:01:20.480Z</time>
      </trkpt>
      <trkpt lat="48.3150197" lon="-1.7589452">
        <ele>81.764</ele>
        <time>2018-08-17T14:01:23.793Z</time>
      </trkpt>
      <trkpt lat="48.3151248" lon="-1.7590296">
        <ele>81.614</ele>
        <time>2018-08-17T14:01:26.753Z</time>
      </trkpt>
      <trkpt lat="48.3152085" lon="-1.7591395">
        <ele>81.506</ele>
        <time>2018-08-17T14:01:29.599Z</time>
      </trkpt>
      <trkpt lat="48.3152644" lon="-1.7592458">
        <ele>81.439</ele>
        <time>2018-08-17T14:01:31.967Z</time>
      </trkpt>
      <trkpt lat="48.3153271" lon="-1.7593590">
        <ele>81.706</ele>
        <time>2018-08-17T14:01:34.930Z</time>
      </trkpt>
      <trkpt lat="48.3153942" lon="-1.7594691">
        <ele>82.521</ele>
        <time>2018-08-17T14:01:38.179Z</time>
      </trkpt>
      <trkpt lat="48.3154545" lon="-1.7596134">
        <ele>83.430</ele>
        <time>2018-08-17T14:01:42.000Z</time>
      </trkpt>
      <trkpt lat="48.3154545" lon="-1.7596134">
        <ele>83.845</ele>
        <time>2018-08-17T14:01:42.000Z</time>
      </trkpt>
      <trkpt lat="48.3154545" lon="-1.7596134">
        <ele>83.763</ele>
        <time>2018-08-17T14:01:42.100Z</time>
      </trkpt>
      <trkpt lat="48.3155098" lon="-1.7598048">
        <ele>83.511</ele>
        <time>2018-08-17T14:01:48.857Z</time>
      </trkpt>
      <trkpt lat="48.3155615" lon="-1.7599686">
        <ele>82.802</ele>
        <time>2018-08-17T14:01:52.873Z</time>
      </trkpt>
      <trkpt lat="48.3156100" lon="-1.7600986">
        <ele>81.004</ele>
        <time>2018-08-17T14:01:56.711Z</time>
      </trkpt>
      <trkpt lat="48.3156477" lon="-1.7602362">
        <ele>78.581</ele>
        <time>2018-08-17T14:02:00.854Z</time>
      </trkpt>
      <trkpt lat="48.3157005" lon="-1.7603986">
        <ele>76.727</ele>
        <time>2018-08-17T14:02:05.446Z</time>
      </trkpt>
      <trkpt lat="48.3157379" lon="-1.7605248">
        <ele>75.907</ele>
        <time>2018-08-17T14:02:08.887Z</time>
      </trkpt>
      <trkpt lat="48.3157419" lon="-1.7606606">
        <ele>76.097</ele>
        <time>2018-08-17T14:02:12.096Z</time>
      </trkpt>
      <trkpt lat="48.3157130" lon="-1.7608021">
        <ele>76.986</ele>
        <time>2018-08-17T14:02:15.459Z</time>
      </trkpt>
      <trkpt lat="48.3156764" lon="-1.7609421">
        <ele>77.682</ele>
        <time>2018-08-17T14:02:19.052Z</time>
      </trkpt>
      <trkpt lat="48.3156366" lon="-1.7610653">
        <ele>77.588</ele>
        <time>2018-08-17T14:02:22.628Z</time>
      </trkpt>
      <trkpt lat="48.3156017" lon="-1.7612112">
        <ele>77.017</ele>
        <time>2018-08-17T14:02:27.075Z</time>
      </trkpt>
      <trkpt lat="48.3155778" lon="-1.7613547">
        <ele>76.346</ele>
        <time>2018-08-17T14:02:31.174Z</time>
      </trkpt>
      <trkpt lat="48.3155504" lon="-1.7615027">
        <ele>75.635</ele>
        <time>2018-08-17T14:02:35.052Z</time>
      </trkpt>
      <trkpt lat="48.3154849" lon="-1.7616259">
        <ele>74.912</ele>
        <time>2018-08-17T14:02:39.169Z</time>
      </trkpt>
      <trkpt lat="48.3153994" lon="-1.7617065">
        <ele>74.183</ele>
        <time>2018-08-17T14:02:43.177Z</time>
      </trkpt>
      <trkpt lat="48.3153146" lon="-1.7617906">
        <ele>73.522</ele>
        <time>2018-08-17T14:02:47.235Z</time>
      </trkpt>
      <trkpt lat="48.3152216" lon="-1.7618978">
        <ele>73.168</ele>
        <time>2018-08-17T14:02:52.183Z</time>
      </trkpt>
      <trkpt lat="48.3151269" lon="-1.7619961">
        <ele>73.468</ele>
        <time>2018-08-17T14:02:57.581Z</time>
      </trkpt>
      <trkpt lat="48.3150256" lon="-1.7620839">
        <ele>74.331</ele>
        <time>2018-08-17T14:03:02.966Z</time>
      </trkpt>
      <trkpt lat="48.3149473" lon="-1.7621738">
        <ele>74.892</ele>
        <time>2018-08-17T14:03:07.168Z</time>
      </trkpt>
      <trkpt lat="48.3148589" lon="-1.7622152">
        <ele>74.600</ele>
        <time>2018-08-17T14:03:11.215Z</time>
      </trkpt>
      <trkpt lat="48.3147420" lon="-1.7622755">
        <ele>73.980</ele>
        <time>2018-08-17T14:03:16.929Z</time>
      </trkpt>
      <trkpt lat="48.3146270" lon="-1.7623201">
        <ele>73.709</ele>
        <time>2018-08-17T14:03:21.763Z</time>
      </trkpt>
      <trkpt lat="48.3145360" lon="-1.7623476">
        <ele>73.879</ele>
        <time>2018-08-17T14:03:25.050Z</time>
      </trkpt>
      <trkpt lat="48.3144244" lon="-1.7623706">
        <ele>74.272</ele>
        <time>2018-08-17T14:03:28.549Z</time>
      </trkpt>
      <trkpt lat="48.3143331" lon="-1.7623976">
        <ele>74.652</ele>
        <time>2018-08-17T14:03:31.339Z</time>
      </trkpt>
      <trkpt lat="48.3142256" lon="-1.7624173">
        <ele>74.877</ele>
        <time>2018-08-17T14:03:34.792Z</time>
      </trkpt>
      <trkpt lat="48.3141212" lon="-1.7624296">
        <ele>74.862</ele>
        <time>2018-08-17T14:03:38.451Z</time>
      </trkpt>
      <trkpt lat="48.3140023" lon="-1.7624330">
        <ele>74.670</ele>
        <time>2018-08-17T14:03:42.790Z</time>
      </trkpt>
      <trkpt lat="48.3138952" lon="-1.7624277">
        <ele>74.569</ele>
        <time>2018-08-17T14:03:46.514Z</time>
      </trkpt>
      <trkpt lat="48.3137935" lon="-1.7624357">
        <ele>74.772</ele>
        <time>2018-08-17T14:03:49.939Z</time>
      </trkpt>
      <trkpt lat="48.3136837" lon="-1.7624494">
        <ele>75.135</ele>
        <time>2018-08-17T14:03:53.609Z</time>
      </trkpt>
      <trkpt lat="48.3135721" lon="-1.7624586">
        <ele>75.198</ele>
        <time>2018-08-17T14:03:57.250Z</time>
      </trkpt>
      <trkpt lat="48.3134822" lon="-1.7624624">
        <ele>74.777</ele>
        <time>2018-08-17T14:04:00.108Z</time>
      </trkpt>
      <trkpt lat="48.3133912" lon="-1.7624529">
        <ele>74.259</ele>
        <time>2018-08-17T14:04:02.985Z</time>
      </trkpt>
      <trkpt lat="48.3132767" lon="-1.7624567">
        <ele>74.042</ele>
        <time>2018-08-17T14:04:06.639Z</time>
      </trkpt>
      <trkpt lat="48.3131591" lon="-1.7624608">
        <ele>74.092</ele>
        <time>2018-08-17T14:04:10.452Z</time>
      </trkpt>
      <trkpt lat="48.3130648" lon="-1.7624609">
        <ele>74.134</ele>
        <time>2018-08-17T14:04:13.542Z</time>
      </trkpt>
      <trkpt lat="48.3129740" lon="-1.7624612">
        <ele>73.936</ele>
        <time>2018-08-17T14:04:16.521Z</time>
      </trkpt>
      <trkpt lat="48.3128558" lon="-1.7624593">
        <ele>73.592</ele>
        <time>2018-08-17T14:04:20.269Z</time>
      </trkpt>
      <trkpt lat="48.3127454" lon="-1.7624470">
        <ele>73.336</ele>
        <time>2018-08-17T14:04:23.659Z</time>
      </trkpt>
      <trkpt lat="48.3126323" lon="-1.7624217">
        <ele>73.236</ele>
        <time>2018-08-17T14:04:27.156Z</time>
      </trkpt>
      <trkpt lat="48.3125273" lon="-1.7623854">
        <ele>73.206</ele>
        <time>2018-08-17T14:04:30.437Z</time>
      </trkpt>
      <trkpt lat="48.3124352" lon="-1.7623426">
        <ele>73.166</ele>
        <time>2018-08-17T14:04:33.347Z</time>
      </trkpt>
      <trkpt lat="48.3123423" lon="-1.7622968">
        <ele>73.068</ele>
        <time>2018-08-17T14:04:36.290Z</time>
      </trkpt>
      <trkpt lat="48.3122356" lon="-1.7622251">
        <ele>72.902</ele>
        <time>2018-08-17T14:04:39.879Z</time>
      </trkpt>
      <trkpt lat="48.3121528" lon="-1.7621651">
        <ele>72.700</ele>
        <time>2018-08-17T14:04:42.812Z</time>
      </trkpt>
      <trkpt lat="48.3120693" lon="-1.7621019">
        <ele>72.523</ele>
        <time>2018-08-17T14:04:45.961Z</time>
      </trkpt>
      <trkpt lat="48.3119875" lon="-1.7620441">
        <ele>72.418</ele>
        <time>2018-08-17T14:04:48.864Z</time>
      </trkpt>
      <trkpt lat="48.3119062" lon="-1.7619756">
        <ele>72.407</ele>
        <time>2018-08-17T14:04:51.726Z</time>
      </trkpt>
      <trkpt lat="48.3118186" lon="-1.7618849">
        <ele>72.585</ele>
        <time>2018-08-17T14:04:55.016Z</time>
      </trkpt>
      <trkpt lat="48.3117359" lon="-1.7617657">
        <ele>73.031</ele>
        <time>2018-08-17T14:04:58.514Z</time>
      </trkpt>
      <trkpt lat="48.3116648" lon="-1.7616652">
        <ele>73.626</ele>
        <time>2018-08-17T14:05:01.451Z</time>
      </trkpt>
      <trkpt lat="48.3116003" lon="-1.7615675">
        <ele>74.138</ele>
        <time>2018-08-17T14:05:04.191Z</time>
      </trkpt>
      <trkpt lat="48.3115337" lon="-1.7614712">
        <ele>74.404</ele>
        <time>2018-08-17T14:05:07.030Z</time>
      </trkpt>
      <trkpt lat="48.3114625" lon="-1.7613775">
        <ele>74.308</ele>
        <time>2018-08-17T14:05:09.941Z</time>
      </trkpt>
      <trkpt lat="48.3113922" lon="-1.7612811">
        <ele>73.827</ele>
        <time>2018-08-17T14:05:12.692Z</time>
      </trkpt>
      <trkpt lat="48.3113203" lon="-1.7611825">
        <ele>73.177</ele>
        <time>2018-08-17T14:05:15.366Z</time>
      </trkpt>
      <trkpt lat="48.3112535" lon="-1.7610923">
        <ele>72.696</ele>
        <time>2018-08-17T14:05:17.765Z</time>
      </trkpt>
      <trkpt lat="48.3111714" lon="-1.7610075">
        <ele>72.501</ele>
        <time>2018-08-17T14:05:20.398Z</time>
      </trkpt>
      <trkpt lat="48.3110788" lon="-1.7609313">
        <ele>72.405</ele>
        <time>2018-08-17T14:05:23.187Z</time>
      </trkpt>
      <trkpt lat="48.3109822" lon="-1.7608455">
        <ele>72.227</ele>
        <time>2018-08-17T14:05:26.151Z</time>
      </trkpt>
      <trkpt lat="48.3108831" lon="-1.7607719">
        <ele>72.060</ele>
        <time>2018-08-17T14:05:29.104Z</time>
      </trkpt>
      <trkpt lat="48.3107819" lon="-1.7607163">
        <ele>72.032</ele>
        <time>2018-08-17T14:05:32.098Z</time>
      </trkpt>
      <trkpt lat="48.3106798" lon="-1.7606594">
        <ele>72.046</ele>
        <time>2018-08-17T14:05:35.256Z</time>
      </trkpt>
      <trkpt lat="48.3105788" lon="-1.7606139">
        <ele>71.964</ele>
        <time>2018-08-17T14:05:38.522Z</time>
      </trkpt>
      <trkpt lat="48.3104861" lon="-1.7605786">
        <ele>71.806</ele>
        <time>2018-08-17T14:05:41.616Z</time>
      </trkpt>
      <trkpt lat="48.3103710" lon="-1.7605443">
        <ele>71.753</ele>
        <time>2018-08-17T14:05:45.458Z</time>
      </trkpt>
      <trkpt lat="48.3102650" lon="-1.7605276">
        <ele>71.889</ele>
        <time>2018-08-17T14:05:48.997Z</time>
      </trkpt>
      <trkpt lat="48.3101490" lon="-1.7604945">
        <ele>72.078</ele>
        <time>2018-08-17T14:05:52.979Z</time>
      </trkpt>
      <trkpt lat="48.3100356" lon="-1.7604689">
        <ele>72.224</ele>
        <time>2018-08-17T14:05:56.901Z</time>
      </trkpt>
      <trkpt lat="48.3099321" lon="-1.7604612">
        <ele>72.359</ele>
        <time>2018-08-17T14:06:00.541Z</time>
      </trkpt>
      <trkpt lat="48.3098217" lon="-1.7604480">
        <ele>72.323</ele>
        <time>2018-08-17T14:06:04.603Z</time>
      </trkpt>
      <trkpt lat="48.3097219" lon="-1.7604466">
        <ele>71.907</ele>
        <time>2018-08-17T14:06:08.644Z</time>
      </trkpt>
      <trkpt lat="48.3096211" lon="-1.7604226">
        <ele>71.297</ele>
        <time>2018-08-17T14:06:13.231Z</time>
      </trkpt>
      <trkpt lat="48.3095222" lon="-1.7604125">
        <ele>70.936</ele>
        <time>2018-08-17T14:06:17.629Z</time>
      </trkpt>
      <trkpt lat="48.3094319" lon="-1.7604124">
        <ele>71.130</ele>
        <time>2018-08-17T14:06:21.353Z</time>
      </trkpt>
      <trkpt lat="48.3093153" lon="-1.7604287">
        <ele>71.923</ele>
        <time>2018-08-17T14:06:26.116Z</time>
      </trkpt>
      <trkpt lat="48.3092147" lon="-1.7604343">
        <ele>73.096</ele>
        <time>2018-08-17T14:06:29.720Z</time>
      </trkpt>
      <trkpt lat="48.3091098" lon="-1.7604444">
        <ele>74.232</ele>
        <time>2018-08-17T14:06:33.080Z</time>
      </trkpt>
      <trkpt lat="48.3090212" lon="-1.7604685">
        <ele>74.971</ele>
        <time>2018-08-17T14:06:35.939Z</time>
      </trkpt>
      <trkpt lat="48.3089214" lon="-1.7604929">
        <ele>75.246</ele>
        <time>2018-08-17T14:06:39.250Z</time>
      </trkpt>
      <trkpt lat="48.3088239" lon="-1.7605061">
        <ele>75.256</ele>
        <time>2018-08-17T14:06:42.531Z</time>
      </trkpt>
      <trkpt lat="48.3087165" lon="-1.7605457">
        <ele>75.213</ele>
        <time>2018-08-17T14:06:46.063Z</time>
      </trkpt>
      <trkpt lat="48.3086044" lon="-1.7605805">
        <ele>75.205</ele>
        <time>2018-08-17T14:06:49.617Z</time>
      </trkpt>
      <trkpt lat="48.3085140" lon="-1.7606126">
        <ele>75.200</ele>
        <time>2018-08-17T14:06:52.435Z</time>
      </trkpt>
      <trkpt lat="48.3084254" lon="-1.7606499">
        <ele>75.100</ele>
        <time>2018-08-17T14:06:55.114Z</time>
      </trkpt>
      <trkpt lat="48.3083372" lon="-1.7606841">
        <ele>74.866</ele>
        <time>2018-08-17T14:06:57.652Z</time>
      </trkpt>
      <trkpt lat="48.3082447" lon="-1.7607359">
        <ele>74.594</ele>
        <time>2018-08-17T14:07:00.303Z</time>
      </trkpt>
      <trkpt lat="48.3081472" lon="-1.7607975">
        <ele>74.350</ele>
        <time>2018-08-17T14:07:03.080Z</time>
      </trkpt>
      <trkpt lat="48.3080486" lon="-1.7608585">
        <ele>74.120</ele>
        <time>2018-08-17T14:07:05.858Z</time>
      </trkpt>
      <trkpt lat="48.3079523" lon="-1.7609327">
        <ele>73.917</ele>
        <time>2018-08-17T14:07:08.717Z</time>
      </trkpt>
      <trkpt lat="48.3078605" lon="-1.7610083">
        <ele>73.678</ele>
        <time>2018-08-17T14:07:11.601Z</time>
      </trkpt>
      <trkpt lat="48.3077728" lon="-1.7610815">
        <ele>73.356</ele>
        <time>2018-08-17T14:07:14.501Z</time>
      </trkpt>
      <trkpt lat="48.3076936" lon="-1.7611494">
        <ele>73.119</ele>
        <time>2018-08-17T14:07:17.240Z</time>
      </trkpt>
      <trkpt lat="48.3076145" lon="-1.7612250">
        <ele>73.094</ele>
        <time>2018-08-17T14:07:20.137Z</time>
      </trkpt>
      <trkpt lat="48.3075157" lon="-1.7613234">
        <ele>73.176</ele>
        <time>2018-08-17T14:07:23.967Z</time>
      </trkpt>
      <trkpt lat="48.3074243" lon="-1.7614181">
        <ele>73.246</ele>
        <time>2018-08-17T14:07:27.764Z</time>
      </trkpt>
      <trkpt lat="48.3073481" lon="-1.7615193">
        <ele>73.308</ele>
        <time>2018-08-17T14:07:31.391Z</time>
      </trkpt>
      <trkpt lat="48.3072798" lon="-1.7616181">
        <ele>73.417</ele>
        <time>2018-08-17T14:07:34.735Z</time>
      </trkpt>
      <trkpt lat="48.3072102" lon="-1.7617416">
        <ele>73.568</ele>
        <time>2018-08-17T14:07:38.346Z</time>
      </trkpt>
      <trkpt lat="48.3071316" lon="-1.7618640">
        <ele>73.702</ele>
        <time>2018-08-17T14:07:42.080Z</time>
      </trkpt>
      <trkpt lat="48.3070587" lon="-1.7619833">
        <ele>73.753</ele>
        <time>2018-08-17T14:07:45.666Z</time>
      </trkpt>
      <trkpt lat="48.3069991" lon="-1.7621180">
        <ele>73.667</ele>
        <time>2018-08-17T14:07:49.200Z</time>
      </trkpt>
      <trkpt lat="48.3069297" lon="-1.7622625">
        <ele>73.494</ele>
        <time>2018-08-17T14:07:53.109Z</time>
      </trkpt>
      <trkpt lat="48.3068744" lon="-1.7624060">
        <ele>73.352</ele>
        <time>2018-08-17T14:07:56.821Z</time>
      </trkpt>
      <trkpt lat="48.3068225" lon="-1.7625380">
        <ele>73.212</ele>
        <time>2018-08-17T14:08:00.149Z</time>
      </trkpt>
      <trkpt lat="48.3067887" lon="-1.7627121">
        <ele>72.995</ele>
        <time>2018-08-17T14:08:03.952Z</time>
      </trkpt>
      <trkpt lat="48.3067458" lon="-1.7628444">
        <ele>72.825</ele>
        <time>2018-08-17T14:08:07.055Z</time>
      </trkpt>
      <trkpt lat="48.3067087" lon="-1.7629993">
        <ele>72.869</ele>
        <time>2018-08-17T14:08:10.606Z</time>
      </trkpt>
      <trkpt lat="48.3066836" lon="-1.7631686">
        <ele>73.101</ele>
        <time>2018-08-17T14:08:14.381Z</time>
      </trkpt>
      <trkpt lat="48.3066604" lon="-1.7633402">
        <ele>73.368</ele>
        <time>2018-08-17T14:08:18.122Z</time>
      </trkpt>
      <trkpt lat="48.3066431" lon="-1.7634790">
        <ele>73.595</ele>
        <time>2018-08-17T14:08:21.091Z</time>
      </trkpt>
      <trkpt lat="48.3066109" lon="-1.7636070">
        <ele>73.840</ele>
        <time>2018-08-17T14:08:23.957Z</time>
      </trkpt>
      <trkpt lat="48.3065663" lon="-1.7637320">
        <ele>74.189</ele>
        <time>2018-08-17T14:08:26.965Z</time>
      </trkpt>
      <trkpt lat="48.3065163" lon="-1.7638932">
        <ele>74.620</ele>
        <time>2018-08-17T14:08:30.788Z</time>
      </trkpt>
      <trkpt lat="48.3064790" lon="-1.7640195">
        <ele>75.127</ele>
        <time>2018-08-17T14:08:33.727Z</time>
      </trkpt>
      <trkpt lat="48.3064438" lon="-1.7641554">
        <ele>75.673</ele>
        <time>2018-08-17T14:08:36.753Z</time>
      </trkpt>
      <trkpt lat="48.3063960" lon="-1.7642847">
        <ele>76.039</ele>
        <time>2018-08-17T14:08:39.779Z</time>
      </trkpt>
      <trkpt lat="48.3063572" lon="-1.7644161">
        <ele>76.033</ele>
        <time>2018-08-17T14:08:42.725Z</time>
      </trkpt>
      <trkpt lat="48.3063195" lon="-1.7645396">
        <ele>75.789</ele>
        <time>2018-08-17T14:08:45.549Z</time>
      </trkpt>
      <trkpt lat="48.3062738" lon="-1.7646922">
        <ele>75.679</ele>
        <time>2018-08-17T14:08:49.103Z</time>
      </trkpt>
      <trkpt lat="48.3062259" lon="-1.7648356">
        <ele>76.010</ele>
        <time>2018-08-17T14:08:52.599Z</time>
      </trkpt>
      <trkpt lat="48.3061873" lon="-1.7649677">
        <ele>76.631</ele>
        <time>2018-08-17T14:08:56.042Z</time>
      </trkpt>
      <trkpt lat="48.3061247" lon="-1.7650835">
        <ele>77.118</ele>
        <time>2018-08-17T14:08:59.720Z</time>
      </trkpt>
      <trkpt lat="48.3060523" lon="-1.7652308">
        <ele>77.004</ele>
        <time>2018-08-17T14:09:03.886Z</time>
      </trkpt>
      <trkpt lat="48.3059881" lon="-1.7653447">
        <ele>76.021</ele>
        <time>2018-08-17T14:09:07.069Z</time>
      </trkpt>
      <trkpt lat="48.3059307" lon="-1.7654680">
        <ele>74.487</ele>
        <time>2018-08-17T14:09:10.104Z</time>
      </trkpt>
      <trkpt lat="48.3058614" lon="-1.7655777">
        <ele>73.094</ele>
        <time>2018-08-17T14:09:13.032Z</time>
      </trkpt>
      <trkpt lat="48.3057904" lon="-1.7656758">
        <ele>72.216</ele>
        <time>2018-08-17T14:09:15.772Z</time>
      </trkpt>
      <trkpt lat="48.3057116" lon="-1.7657699">
        <ele>71.801</ele>
        <time>2018-08-17T14:09:18.638Z</time>
      </trkpt>
      <trkpt lat="48.3056253" lon="-1.7658767">
        <ele>71.658</ele>
        <time>2018-08-17T14:09:21.804Z</time>
      </trkpt>
      <trkpt lat="48.3055432" lon="-1.7659849">
        <ele>71.685</ele>
        <time>2018-08-17T14:09:24.862Z</time>
      </trkpt>
      <trkpt lat="48.3054600" lon="-1.7660752">
        <ele>71.811</ele>
        <time>2018-08-17T14:09:27.760Z</time>
      </trkpt>
      <trkpt lat="48.3053515" lon="-1.7661797">
        <ele>71.964</ele>
        <time>2018-08-17T14:09:31.268Z</time>
      </trkpt>
      <trkpt lat="48.3052363" lon="-1.7662624">
        <ele>72.242</ele>
        <time>2018-08-17T14:09:34.473Z</time>
      </trkpt>
      <trkpt lat="48.3051214" lon="-1.7663458">
        <ele>72.725</ele>
        <time>2018-08-17T14:09:37.460Z</time>
      </trkpt>
      <trkpt lat="48.3050076" lon="-1.7664218">
        <ele>73.146</ele>
        <time>2018-08-17T14:09:40.369Z</time>
      </trkpt>
      <trkpt lat="48.3049000" lon="-1.7664723">
        <ele>73.270</ele>
        <time>2018-08-17T14:09:43.091Z</time>
      </trkpt>
      <trkpt lat="48.3047777" lon="-1.7665165">
        <ele>73.255</ele>
        <time>2018-08-17T14:09:46.206Z</time>
      </trkpt>
      <trkpt lat="48.3046607" lon="-1.7665579">
        <ele>73.286</ele>
        <time>2018-08-17T14:09:49.215Z</time>
      </trkpt>
      <trkpt lat="48.3045497" lon="-1.7665973">
        <ele>73.433</ele>
        <time>2018-08-17T14:09:52.064Z</time>
      </trkpt>
      <trkpt lat="48.3044609" lon="-1.7666349">
        <ele>74.003</ele>
        <time>2018-08-17T14:09:54.492Z</time>
      </trkpt>
      <trkpt lat="48.3043373" lon="-1.7666821">
        <ele>75.067</ele>
        <time>2018-08-17T14:09:58.224Z</time>
      </trkpt>
      <trkpt lat="48.3042326" lon="-1.7667168">
        <ele>75.971</ele>
        <time>2018-08-17T14:10:01.446Z</time>
      </trkpt>
      <trkpt lat="48.3041416" lon="-1.7667589">
        <ele>76.228</ele>
        <time>2018-08-17T14:10:04.195Z</time>
      </trkpt>
      <trkpt lat="48.3040515" lon="-1.7667980">
        <ele>76.095</ele>
        <time>2018-08-17T14:10:06.891Z</time>
      </trkpt>
      <trkpt lat="48.3039398" lon="-1.7668339">
        <ele>75.914</ele>
        <time>2018-08-17T14:10:10.376Z</time>
      </trkpt>
      <trkpt lat="48.3038416" lon="-1.7669069">
        <ele>75.757</ele>
        <time>2018-08-17T14:10:14.012Z</time>
      </trkpt>
      <trkpt lat="48.3037506" lon="-1.7669900">
        <ele>75.597</ele>
        <time>2018-08-17T14:10:17.817Z</time>
      </trkpt>
      <trkpt lat="48.3036568" lon="-1.7670580">
        <ele>75.303</ele>
        <time>2018-08-17T14:10:21.588Z</time>
      </trkpt>
      <trkpt lat="48.3035603" lon="-1.7671536">
        <ele>74.652</ele>
        <time>2018-08-17T14:10:25.917Z</time>
      </trkpt>
      <trkpt lat="48.3034703" lon="-1.7672396">
        <ele>73.788</ele>
        <time>2018-08-17T14:10:30.104Z</time>
      </trkpt>
      <trkpt lat="48.3033872" lon="-1.7673094">
        <ele>73.210</ele>
        <time>2018-08-17T14:10:33.825Z</time>
      </trkpt>
      <trkpt lat="48.3032941" lon="-1.7673958">
        <ele>73.441</ele>
        <time>2018-08-17T14:10:38.085Z</time>
      </trkpt>
      <trkpt lat="48.3032099" lon="-1.7674953">
        <ele>74.444</ele>
        <time>2018-08-17T14:10:42.667Z</time>
      </trkpt>
      <trkpt lat="48.3031430" lon="-1.7676042">
        <ele>75.035</ele>
        <time>2018-08-17T14:10:47.124Z</time>
      </trkpt>
      <trkpt lat="48.3030876" lon="-1.7677244">
        <ele>74.294</ele>
        <time>2018-08-17T14:10:52.039Z</time>
      </trkpt>
      <trkpt lat="48.3030309" lon="-1.7678469">
        <ele>72.821</ele>
        <time>2018-08-17T14:10:58.139Z</time>
      </trkpt>
      <trkpt lat="48.3030054" lon="-1.7679953">
        <ele>71.663</ele>
        <time>2018-08-17T14:11:05.065Z</time>
      </trkpt>
      <trkpt lat="48.3029662" lon="-1.7681514">
        <ele>71.225</ele>
        <time>2018-08-17T14:11:12.447Z</time>
      </trkpt>
      <trkpt lat="48.3029204" lon="-1.7682689">
        <ele>71.801</ele>
        <time>2018-08-17T14:11:18.548Z</time>
      </trkpt>
      <trkpt lat="48.3028873" lon="-1.7684037">
        <ele>73.284</ele>
        <time>2018-08-17T14:11:23.962Z</time>
      </trkpt>
      <trkpt lat="48.3028382" lon="-1.7685251">
        <ele>74.691</ele>
        <time>2018-08-17T14:11:28.518Z</time>
      </trkpt>
      <trkpt lat="48.3027709" lon="-1.7686575">
        <ele>75.187</ele>
        <time>2018-08-17T14:11:33.465Z</time>
      </trkpt>
      <trkpt lat="48.3027128" lon="-1.7688127">
        <ele>74.944</ele>
        <time>2018-08-17T14:11:38.381Z</time>
      </trkpt>
      <trkpt lat="48.3026950" lon="-1.7689652">
        <ele>74.450</ele>
        <time>2018-08-17T14:11:42.892Z</time>
      </trkpt>
      <trkpt lat="48.3026493" lon="-1.7691255">
        <ele>74.168</ele>
        <time>2018-08-17T14:11:47.786Z</time>
      </trkpt>
      <trkpt lat="48.3026255" lon="-1.7692725">
        <ele>74.349</ele>
        <time>2018-08-17T14:11:51.834Z</time>
      </trkpt>
      <trkpt lat="48.3025820" lon="-1.7693932">
        <ele>74.912</ele>
        <time>2018-08-17T14:11:55.108Z</time>
      </trkpt>
      <trkpt lat="48.3025140" lon="-1.7695281">
        <ele>75.451</ele>
        <time>2018-08-17T14:11:58.462Z</time>
      </trkpt>
      <trkpt lat="48.3024495" lon="-1.7696405">
        <ele>75.522</ele>
        <time>2018-08-17T14:12:00.741Z</time>
      </trkpt>
      <trkpt lat="48.3023735" lon="-1.7697742">
        <ele>75.142</ele>
        <time>2018-08-17T14:12:02.925Z</time>
      </trkpt>
      <trkpt lat="48.3022932" lon="-1.7699152">
        <ele>74.754</ele>
        <time>2018-08-17T14:12:04.960Z</time>
      </trkpt>
      <trkpt lat="48.3021654" lon="-1.7701460">
        <ele>74.632</ele>
        <time>2018-08-17T14:12:08.171Z</time>
      </trkpt>
      <trkpt lat="48.3020522" lon="-1.7703711">
        <ele>74.626</ele>
        <time>2018-08-17T14:12:11.291Z</time>
      </trkpt>
      <trkpt lat="48.3019870" lon="-1.7705107">
        <ele>74.327</ele>
        <time>2018-08-17T14:12:13.346Z</time>
      </trkpt>
      <trkpt lat="48.3019236" lon="-1.7706384">
        <ele>73.634</ele>
        <time>2018-08-17T14:12:15.454Z</time>
      </trkpt>
      <trkpt lat="48.3018661" lon="-1.7707556">
        <ele>72.975</ele>
        <time>2018-08-17T14:12:17.600Z</time>
      </trkpt>
      <trkpt lat="48.3017998" lon="-1.7709011">
        <ele>72.703</ele>
        <time>2018-08-17T14:12:20.471Z</time>
      </trkpt>
      <trkpt lat="48.3017343" lon="-1.7710365">
        <ele>72.767</ele>
        <time>2018-08-17T14:12:23.489Z</time>
      </trkpt>
      <trkpt lat="48.3016726" lon="-1.7711401">
        <ele>73.005</ele>
        <time>2018-08-17T14:12:26.484Z</time>
      </trkpt>
      <trkpt lat="48.3015958" lon="-1.7712557">
        <ele>73.274</ele>
        <time>2018-08-17T14:12:30.651Z</time>
      </trkpt>
      <trkpt lat="48.3015316" lon="-1.7713590">
        <ele>73.484</ele>
        <time>2018-08-17T14:12:35.030Z</time>
      </trkpt>
      <trkpt lat="48.3014883" lon="-1.7714912">
        <ele>73.420</ele>
        <time>2018-08-17T14:12:40.378Z</time>
      </trkpt>
      <trkpt lat="48.3015128" lon="-1.7716341">
        <ele>72.813</ele>
        <time>2018-08-17T14:12:46.062Z</time>
      </trkpt>
      <trkpt lat="48.3015856" lon="-1.7717297">
        <ele>71.866</ele>
        <time>2018-08-17T14:12:51.207Z</time>
      </trkpt>
      <trkpt lat="48.3016653" lon="-1.7718460">
        <ele>71.130</ele>
        <time>2018-08-17T14:12:55.982Z</time>
      </trkpt>
      <trkpt lat="48.3017332" lon="-1.7719402">
        <ele>70.823</ele>
        <time>2018-08-17T14:12:59.684Z</time>
      </trkpt>
      <trkpt lat="48.3017343" lon="-1.7720915">
        <ele>70.676</ele>
        <time>2018-08-17T14:13:04.000Z</time>
      </trkpt>
      <trkpt lat="48.3017343" lon="-1.7720915">
        <ele>70.444</ele>
        <time>2018-08-17T14:13:23.000Z</time>
      </trkpt>
      <trkpt lat="48.3017343" lon="-1.7720915">
        <ele>70.235</ele>
        <time>2018-08-17T14:15:09.774Z</time>
      </trkpt>
      <trkpt lat="48.3015850" lon="-1.7723155">
        <ele>70.208</ele>
        <time>2018-08-17T14:15:20.457Z</time>
      </trkpt>
      <trkpt lat="48.3015119" lon="-1.7724230">
        <ele>69.818</ele>
        <time>2018-08-17T14:15:23.152Z</time>
      </trkpt>
      <trkpt lat="48.3014445" lon="-1.7725442">
        <ele>68.524</ele>
        <time>2018-08-17T14:15:25.943Z</time>
      </trkpt>
      <trkpt lat="48.3013837" lon="-1.7726672">
        <ele>66.878</ele>
        <time>2018-08-17T14:15:28.795Z</time>
      </trkpt>
      <trkpt lat="48.3013292" lon="-1.7727935">
        <ele>65.685</ele>
        <time>2018-08-17T14:15:31.904Z</time>
      </trkpt>
      <trkpt lat="48.3012746" lon="-1.7729342">
        <ele>65.045</ele>
        <time>2018-08-17T14:15:35.521Z</time>
      </trkpt>
      <trkpt lat="48.3012141" lon="-1.7730681">
        <ele>65.025</ele>
        <time>2018-08-17T14:15:39.190Z</time>
      </trkpt>
      <trkpt lat="48.3011669" lon="-1.7732080">
        <ele>65.900</ele>
        <time>2018-08-17T14:15:42.852Z</time>
      </trkpt>
      <trkpt lat="48.3011322" lon="-1.7733439">
        <ele>67.369</ele>
        <time>2018-08-17T14:15:46.378Z</time>
      </trkpt>
      <trkpt lat="48.3011069" lon="-1.7734752">
        <ele>68.720</ele>
        <time>2018-08-17T14:15:50.059Z</time>
      </trkpt>
      <trkpt lat="48.3010768" lon="-1.7736042">
        <ele>69.751</ele>
        <time>2018-08-17T14:15:54.215Z</time>
      </trkpt>
      <trkpt lat="48.3010338" lon="-1.7737514">
        <ele>70.753</ele>
        <time>2018-08-17T14:15:59.470Z</time>
      </trkpt>
      <trkpt lat="48.3009904" lon="-1.7739115">
        <ele>71.749</ele>
        <time>2018-08-17T14:16:04.500Z</time>
      </trkpt>
      <trkpt lat="48.3009668" lon="-1.7740489">
        <ele>71.944</ele>
        <time>2018-08-17T14:16:08.120Z</time>
      </trkpt>
      <trkpt lat="48.3009389" lon="-1.7741866">
        <ele>70.814</ele>
        <time>2018-08-17T14:16:11.406Z</time>
      </trkpt>
      <trkpt lat="48.3008930" lon="-1.7743551">
        <ele>69.189</ele>
        <time>2018-08-17T14:16:15.585Z</time>
      </trkpt>
      <trkpt lat="48.3008606" lon="-1.7745187">
        <ele>68.087</ele>
        <time>2018-08-17T14:16:19.720Z</time>
      </trkpt>
      <trkpt lat="48.3008389" lon="-1.7746842">
        <ele>67.557</ele>
        <time>2018-08-17T14:16:23.854Z</time>
      </trkpt>
      <trkpt lat="48.3008113" lon="-1.7748415">
        <ele>67.313</ele>
        <time>2018-08-17T14:16:28.015Z</time>
      </trkpt>
      <trkpt lat="48.3007867" lon="-1.7749801">
        <ele>67.265</ele>
        <time>2018-08-17T14:16:32.000Z</time>
      </trkpt>
      <trkpt lat="48.3007867" lon="-1.7749801">
        <ele>67.363</ele>
        <time>2018-08-17T14:16:44.000Z</time>
      </trkpt>
      <trkpt lat="48.3007867" lon="-1.7749801">
        <ele>67.425</ele>
        <time>2018-08-17T14:16:55.286Z</time>
      </trkpt>
      <trkpt lat="48.3007258" lon="-1.7752624">
        <ele>67.394</ele>
        <time>2018-08-17T14:17:11.617Z</time>
      </trkpt>
      <trkpt lat="48.3006862" lon="-1.7754045">
        <ele>67.715</ele>
        <time>2018-08-17T14:17:16.434Z</time>
      </trkpt>
      <trkpt lat="48.3006589" lon="-1.7755520">
        <ele>68.696</ele>
        <time>2018-08-17T14:17:21.149Z</time>
      </trkpt>
      <trkpt lat="48.3006370" lon="-1.7756928">
        <ele>69.758</ele>
        <time>2018-08-17T14:17:25.087Z</time>
      </trkpt>
      <trkpt lat="48.3006218" lon="-1.7758328">
        <ele>69.937</ele>
        <time>2018-08-17T14:17:28.314Z</time>
      </trkpt>
      <trkpt lat="48.3005796" lon="-1.7759565">
        <ele>68.982</ele>
        <time>2018-08-17T14:17:31.064Z</time>
      </trkpt>
      <trkpt lat="48.3005405" lon="-1.7761091">
        <ele>67.437</ele>
        <time>2018-08-17T14:17:33.754Z</time>
      </trkpt>
      <trkpt lat="48.3005090" lon="-1.7762905">
        <ele>66.066</ele>
        <time>2018-08-17T14:17:36.483Z</time>
      </trkpt>
      <trkpt lat="48.3004656" lon="-1.7764837">
        <ele>65.281</ele>
        <time>2018-08-17T14:17:39.352Z</time>
      </trkpt>
      <trkpt lat="48.3004387" lon="-1.7766132">
        <ele>65.103</ele>
        <time>2018-08-17T14:17:41.334Z</time>
      </trkpt>
      <trkpt lat="48.3003963" lon="-1.7768123">
        <ele>65.228</ele>
        <time>2018-08-17T14:17:44.674Z</time>
      </trkpt>
      <trkpt lat="48.3003634" lon="-1.7769870">
        <ele>65.327</ele>
        <time>2018-08-17T14:17:47.985Z</time>
      </trkpt>
      <trkpt lat="48.3003428" lon="-1.7771380">
        <ele>65.207</ele>
        <time>2018-08-17T14:17:51.052Z</time>
      </trkpt>
      <trkpt lat="48.3003273" lon="-1.7772756">
        <ele>64.937</ele>
        <time>2018-08-17T14:17:53.778Z</time>
      </trkpt>
      <trkpt lat="48.3003186" lon="-1.7774153">
        <ele>64.818</ele>
        <time>2018-08-17T14:17:56.142Z</time>
      </trkpt>
      <trkpt lat="48.3003035" lon="-1.7775628">
        <ele>64.989</ele>
        <time>2018-08-17T14:17:58.397Z</time>
      </trkpt>
      <trkpt lat="48.3002757" lon="-1.7777525">
        <ele>65.244</ele>
        <time>2018-08-17T14:18:01.092Z</time>
      </trkpt>
      <trkpt lat="48.3002457" lon="-1.7779582">
        <ele>65.363</ele>
        <time>2018-08-17T14:18:03.885Z</time>
      </trkpt>
      <trkpt lat="48.3002142" lon="-1.7781717">
        <ele>65.262</ele>
        <time>2018-08-17T14:18:06.870Z</time>
      </trkpt>
      <trkpt lat="48.3002073" lon="-1.7783757">
        <ele>64.969</ele>
        <time>2018-08-17T14:18:10.005Z</time>
      </trkpt>
      <trkpt lat="48.3002129" lon="-1.7785467">
        <ele>64.684</ele>
        <time>2018-08-17T14:18:12.892Z</time>
      </trkpt>
      <trkpt lat="48.3002349" lon="-1.7787147">
        <ele>64.456</ele>
        <time>2018-08-17T14:18:16.236Z</time>
      </trkpt>
      <trkpt lat="48.3002752" lon="-1.7788607">
        <ele>64.057</ele>
        <time>2018-08-17T14:18:20.258Z</time>
      </trkpt>
      <trkpt lat="48.3003369" lon="-1.7789691">
        <ele>63.407</ele>
        <time>2018-08-17T14:18:24.884Z</time>
      </trkpt>
      <trkpt lat="48.3003920" lon="-1.7790802">
        <ele>62.761</ele>
        <time>2018-08-17T14:18:30.098Z</time>
      </trkpt>
      <trkpt lat="48.3004456" lon="-1.7791942">
        <ele>62.425</ele>
        <time>2018-08-17T14:18:36.515Z</time>
      </trkpt>
      <trkpt lat="48.3004820" lon="-1.7793185">
        <ele>62.430</ele>
        <time>2018-08-17T14:18:43.351Z</time>
      </trkpt>
      <trkpt lat="48.3005345" lon="-1.7794485">
        <ele>62.352</ele>
        <time>2018-08-17T14:18:49.755Z</time>
      </trkpt>
      <trkpt lat="48.3005718" lon="-1.7795842">
        <ele>61.890</ele>
        <time>2018-08-17T14:18:53.993Z</time>
      </trkpt>
      <trkpt lat="48.3006268" lon="-1.7797147">
        <ele>61.446</ele>
        <time>2018-08-17T14:18:57.660Z</time>
      </trkpt>
      <trkpt lat="48.3006892" lon="-1.7798604">
        <ele>61.423</ele>
        <time>2018-08-17T14:19:01.328Z</time>
      </trkpt>
      <trkpt lat="48.3007348" lon="-1.7799834">
        <ele>61.630</ele>
        <time>2018-08-17T14:19:04.070Z</time>
      </trkpt>
      <trkpt lat="48.3007909" lon="-1.7801163">
        <ele>61.841</ele>
        <time>2018-08-17T14:19:06.985Z</time>
      </trkpt>
      <trkpt lat="48.3008467" lon="-1.7802520">
        <ele>62.029</ele>
        <time>2018-08-17T14:19:09.904Z</time>
      </trkpt>
      <trkpt lat="48.3008908" lon="-1.7803902">
        <ele>62.101</ele>
        <time>2018-08-17T14:19:12.772Z</time>
      </trkpt>
      <trkpt lat="48.3009275" lon="-1.7805210">
        <ele>61.996</ele>
        <time>2018-08-17T14:19:15.558Z</time>
      </trkpt>
      <trkpt lat="48.3009642" lon="-1.7806844">
        <ele>61.841</ele>
        <time>2018-08-17T14:19:18.949Z</time>
      </trkpt>
      <trkpt lat="48.3010020" lon="-1.7808301">
        <ele>61.813</ele>
        <time>2018-08-17T14:19:21.912Z</time>
      </trkpt>
      <trkpt lat="48.3010357" lon="-1.7809828">
        <ele>62.106</ele>
        <time>2018-08-17T14:19:24.869Z</time>
      </trkpt>
      <trkpt lat="48.3010605" lon="-1.7811263">
        <ele>62.880</ele>
        <time>2018-08-17T14:19:27.577Z</time>
      </trkpt>
      <trkpt lat="48.3011085" lon="-1.7812859">
        <ele>63.876</ele>
        <time>2018-08-17T14:19:30.735Z</time>
      </trkpt>
      <trkpt lat="48.3011681" lon="-1.7814399">
        <ele>63.970</ele>
        <time>2018-08-17T14:19:33.841Z</time>
      </trkpt>
      <trkpt lat="48.3012316" lon="-1.7816039">
        <ele>62.521</ele>
        <time>2018-08-17T14:19:36.994Z</time>
      </trkpt>
      <trkpt lat="48.3012928" lon="-1.7817609">
        <ele>60.589</ele>
        <time>2018-08-17T14:19:39.940Z</time>
      </trkpt>
      <trkpt lat="48.3013565" lon="-1.7819002">
        <ele>59.539</ele>
        <time>2018-08-17T14:19:42.711Z</time>
      </trkpt>
      <trkpt lat="48.3014136" lon="-1.7820288">
        <ele>59.485</ele>
        <time>2018-08-17T14:19:45.342Z</time>
      </trkpt>
      <trkpt lat="48.3014602" lon="-1.7821530">
        <ele>59.807</ele>
        <time>2018-08-17T14:19:47.860Z</time>
      </trkpt>
      <trkpt lat="48.3015185" lon="-1.7822823">
        <ele>59.997</ele>
        <time>2018-08-17T14:19:50.700Z</time>
      </trkpt>
      <trkpt lat="48.3015740" lon="-1.7824147">
        <ele>60.279</ele>
        <time>2018-08-17T14:19:53.593Z</time>
      </trkpt>
      <trkpt lat="48.3016256" lon="-1.7825567">
        <ele>60.931</ele>
        <time>2018-08-17T14:19:56.673Z</time>
      </trkpt>
      <trkpt lat="48.3016557" lon="-1.7827044">
        <ele>61.676</ele>
        <time>2018-08-17T14:19:59.859Z</time>
      </trkpt>
      <trkpt lat="48.3017122" lon="-1.7828572">
        <ele>62.350</ele>
        <time>2018-08-17T14:20:03.659Z</time>
      </trkpt>
      <trkpt lat="48.3017569" lon="-1.7830209">
        <ele>63.032</ele>
        <time>2018-08-17T14:20:07.598Z</time>
      </trkpt>
      <trkpt lat="48.3018139" lon="-1.7831704">
        <ele>63.566</ele>
        <time>2018-08-17T14:20:11.362Z</time>
      </trkpt>
      <trkpt lat="48.3018747" lon="-1.7833256">
        <ele>63.847</ele>
        <time>2018-08-17T14:20:15.000Z</time>
      </trkpt>
      <trkpt lat="48.3018747" lon="-1.7833256">
        <ele>63.944</ele>
        <time>2018-08-17T14:20:17.000Z</time>
      </trkpt>
      <trkpt lat="48.3018747" lon="-1.7833256">
        <ele>63.935</ele>
        <time>2018-08-17T14:20:17.100Z</time>
      </trkpt>
      <trkpt lat="48.3019859" lon="-1.7836397">
        <ele>63.898</ele>
        <time>2018-08-17T14:20:24.737Z</time>
      </trkpt>
      <trkpt lat="48.3020415" lon="-1.7837891">
        <ele>63.873</ele>
        <time>2018-08-17T14:20:27.470Z</time>
      </trkpt>
      <trkpt lat="48.3020919" lon="-1.7839317">
        <ele>63.863</ele>
        <time>2018-08-17T14:20:30.055Z</time>
      </trkpt>
      <trkpt lat="48.3021424" lon="-1.7840696">
        <ele>63.792</ele>
        <time>2018-08-17T14:20:32.627Z</time>
      </trkpt>
      <trkpt lat="48.3021974" lon="-1.7841961">
        <ele>63.508</ele>
        <time>2018-08-17T14:20:35.216Z</time>
      </trkpt>
      <trkpt lat="48.3022450" lon="-1.7843116">
        <ele>63.051</ele>
        <time>2018-08-17T14:20:37.639Z</time>
      </trkpt>
      <trkpt lat="48.3023045" lon="-1.7844519">
        <ele>62.679</ele>
        <time>2018-08-17T14:20:40.650Z</time>
      </trkpt>
      <trkpt lat="48.3023545" lon="-1.7845717">
        <ele>62.412</ele>
        <time>2018-08-17T14:20:43.192Z</time>
      </trkpt>
      <trkpt lat="48.3024139" lon="-1.7847093">
        <ele>61.990</ele>
        <time>2018-08-17T14:20:46.000Z</time>
      </trkpt>
      <trkpt lat="48.3024139" lon="-1.7847093">
        <ele>61.423</ele>
        <time>2018-08-17T14:20:46.000Z</time>
      </trkpt>
      <trkpt lat="48.3024139" lon="-1.7847093">
        <ele>61.059</ele>
        <time>2018-08-17T14:20:46.034Z</time>
      </trkpt>
      <trkpt lat="48.3024771" lon="-1.7849361">
        <ele>61.054</ele>
        <time>2018-08-17T14:20:52.552Z</time>
      </trkpt>
      <trkpt lat="48.3025287" lon="-1.7850889">
        <ele>61.038</ele>
        <time>2018-08-17T14:20:55.243Z</time>
      </trkpt>
      <trkpt lat="48.3025716" lon="-1.7852368">
        <ele>60.707</ele>
        <time>2018-08-17T14:20:57.706Z</time>
      </trkpt>
      <trkpt lat="48.3026222" lon="-1.7853887">
        <ele>60.379</ele>
        <time>2018-08-17T14:21:00.259Z</time>
      </trkpt>
      <trkpt lat="48.3026838" lon="-1.7855514">
        <ele>60.474</ele>
        <time>2018-08-17T14:21:03.000Z</time>
      </trkpt>
      <trkpt lat="48.3026838" lon="-1.7855514">
        <ele>60.878</ele>
        <time>2018-08-17T14:21:04.000Z</time>
      </trkpt>
      <trkpt lat="48.3026838" lon="-1.7855514">
        <ele>61.161</ele>
        <time>2018-08-17T14:21:04.100Z</time>
      </trkpt>
      <trkpt lat="48.3027798" lon="-1.7858263">
        <ele>61.070</ele>
        <time>2018-08-17T14:21:11.237Z</time>
      </trkpt>
      <trkpt lat="48.3028432" lon="-1.7859836">
        <ele>60.376</ele>
        <time>2018-08-17T14:21:14.317Z</time>
      </trkpt>
      <trkpt lat="48.3029037" lon="-1.7861373">
        <ele>59.133</ele>
        <time>2018-08-17T14:21:17.285Z</time>
      </trkpt>
      <trkpt lat="48.3029639" lon="-1.7862924">
        <ele>57.878</ele>
        <time>2018-08-17T14:21:20.291Z</time>
      </trkpt>
      <trkpt lat="48.3030199" lon="-1.7864511">
        <ele>56.970</ele>
        <time>2018-08-17T14:21:23.480Z</time>
      </trkpt>
      <trkpt lat="48.3030602" lon="-1.7865763">
        <ele>56.393</ele>
        <time>2018-08-17T14:21:26.523Z</time>
      </trkpt>
      <trkpt lat="48.3031038" lon="-1.7867125">
        <ele>56.237</ele>
        <time>2018-08-17T14:21:30.000Z</time>
      </trkpt>
      <trkpt lat="48.3031038" lon="-1.7867125">
        <ele>56.439</ele>
        <time>2018-08-17T14:21:32.000Z</time>
      </trkpt>
      <trkpt lat="48.3031038" lon="-1.7867125">
        <ele>56.652</ele>
        <time>2018-08-17T14:21:32.100Z</time>
      </trkpt>
      <trkpt lat="48.3032090" lon="-1.7869669">
        <ele>56.631</ele>
        <time>2018-08-17T14:21:42.075Z</time>
      </trkpt>
      <trkpt lat="48.3032457" lon="-1.7870980">
        <ele>56.634</ele>
        <time>2018-08-17T14:21:45.067Z</time>
      </trkpt>
      <trkpt lat="48.3032851" lon="-1.7872245">
        <ele>56.999</ele>
        <time>2018-08-17T14:21:47.606Z</time>
      </trkpt>
      <trkpt lat="48.3033344" lon="-1.7873700">
        <ele>57.579</ele>
        <time>2018-08-17T14:21:50.361Z</time>
      </trkpt>
      <trkpt lat="48.3033871" lon="-1.7875137">
        <ele>57.999</ele>
        <time>2018-08-17T14:21:53.082Z</time>
      </trkpt>
      <trkpt lat="48.3034374" lon="-1.7876302">
        <ele>58.135</ele>
        <time>2018-08-17T14:21:55.411Z</time>
      </trkpt>
      <trkpt lat="48.3034821" lon="-1.7877646">
        <ele>58.122</ele>
        <time>2018-08-17T14:21:57.929Z</time>
      </trkpt>
      <trkpt lat="48.3035252" lon="-1.7879151">
        <ele>58.085</ele>
        <time>2018-08-17T14:22:00.609Z</time>
      </trkpt>
      <trkpt lat="48.3035699" lon="-1.7880754">
        <ele>58.012</ele>
        <time>2018-08-17T14:22:03.351Z</time>
      </trkpt>
      <trkpt lat="48.3036181" lon="-1.7882330">
        <ele>57.895</ele>
        <time>2018-08-17T14:22:06.000Z</time>
      </trkpt>
      <trkpt lat="48.3036181" lon="-1.7882330">
        <ele>57.811</ele>
        <time>2018-08-17T14:22:07.000Z</time>
      </trkpt>
      <trkpt lat="48.3036181" lon="-1.7882330">
        <ele>57.791</ele>
        <time>2018-08-17T14:22:07.100Z</time>
      </trkpt>
      <trkpt lat="48.3037035" lon="-1.7884907">
        <ele>57.805</ele>
        <time>2018-08-17T14:22:13.571Z</time>
      </trkpt>
      <trkpt lat="48.3037559" lon="-1.7886545">
        <ele>57.900</ele>
        <time>2018-08-17T14:22:16.402Z</time>
      </trkpt>
      <trkpt lat="48.3038102" lon="-1.7888081">
        <ele>58.112</ele>
        <time>2018-08-17T14:22:19.165Z</time>
      </trkpt>
      <trkpt lat="48.3038671" lon="-1.7889610">
        <ele>58.142</ele>
        <time>2018-08-17T14:22:21.974Z</time>
      </trkpt>
      <trkpt lat="48.3039300" lon="-1.7891156">
        <ele>57.616</ele>
        <time>2018-08-17T14:22:24.874Z</time>
      </trkpt>
      <trkpt lat="48.3039905" lon="-1.7892714">
        <ele>56.666</ele>
        <time>2018-08-17T14:22:27.778Z</time>
      </trkpt>
      <trkpt lat="48.3040566" lon="-1.7894105">
        <ele>55.695</ele>
        <time>2018-08-17T14:22:30.592Z</time>
      </trkpt>
      <trkpt lat="48.3041169" lon="-1.7895353">
        <ele>54.957</ele>
        <time>2018-08-17T14:22:33.213Z</time>
      </trkpt>
      <trkpt lat="48.3041620" lon="-1.7896600">
        <ele>54.555</ele>
        <time>2018-08-17T14:22:35.699Z</time>
      </trkpt>
      <trkpt lat="48.3041910" lon="-1.7897945">
        <ele>54.307</ele>
        <time>2018-08-17T14:22:38.214Z</time>
      </trkpt>
      <trkpt lat="48.3042416" lon="-1.7899420">
        <ele>53.870</ele>
        <time>2018-08-17T14:22:41.165Z</time>
      </trkpt>
      <trkpt lat="48.3042985" lon="-1.7900913">
        <ele>52.928</ele>
        <time>2018-08-17T14:22:44.224Z</time>
      </trkpt>
      <trkpt lat="48.3043484" lon="-1.7902452">
        <ele>51.581</ele>
        <time>2018-08-17T14:22:47.209Z</time>
      </trkpt>
      <trkpt lat="48.3043952" lon="-1.7903924">
        <ele>50.825</ele>
        <time>2018-08-17T14:22:50.000Z</time>
      </trkpt>
      <trkpt lat="48.3043952" lon="-1.7903924">
        <ele>51.284</ele>
        <time>2018-08-17T14:22:52.000Z</time>
      </trkpt>
      <trkpt lat="48.3043952" lon="-1.7903924">
        <ele>51.981</ele>
        <time>2018-08-17T14:22:52.100Z</time>
      </trkpt>
      <trkpt lat="48.3044866" lon="-1.7906727">
        <ele>51.987</ele>
        <time>2018-08-17T14:22:59.627Z</time>
      </trkpt>
      <trkpt lat="48.3045319" lon="-1.7908008">
        <ele>51.666</ele>
        <time>2018-08-17T14:23:02.368Z</time>
      </trkpt>
      <trkpt lat="48.3045807" lon="-1.7909198">
        <ele>51.579</ele>
        <time>2018-08-17T14:23:04.959Z</time>
      </trkpt>
      <trkpt lat="48.3046372" lon="-1.7910493">
        <ele>51.585</ele>
        <time>2018-08-17T14:23:07.658Z</time>
      </trkpt>
      <trkpt lat="48.3046898" lon="-1.7911790">
        <ele>51.419</ele>
        <time>2018-08-17T14:23:10.279Z</time>
      </trkpt>
      <trkpt lat="48.3047419" lon="-1.7913000">
        <ele>51.210</ele>
        <time>2018-08-17T14:23:12.759Z</time>
      </trkpt>
      <trkpt lat="48.3047966" lon="-1.7914248">
        <ele>51.209</ele>
        <time>2018-08-17T14:23:15.284Z</time>
      </trkpt>
      <trkpt lat="48.3048410" lon="-1.7915479">
        <ele>51.467</ele>
        <time>2018-08-17T14:23:17.566Z</time>
      </trkpt>
      <trkpt lat="48.3048962" lon="-1.7917181">
        <ele>51.825</ele>
        <time>2018-08-17T14:23:20.484Z</time>
      </trkpt>
      <trkpt lat="48.3049187" lon="-1.7918859">
        <ele>52.067</ele>
        <time>2018-08-17T14:23:23.125Z</time>
      </trkpt>
      <trkpt lat="48.3049531" lon="-1.7920417">
        <ele>52.139</ele>
        <time>2018-08-17T14:23:25.796Z</time>
      </trkpt>
      <trkpt lat="48.3050002" lon="-1.7921970">
        <ele>52.160</ele>
        <time>2018-08-17T14:23:28.586Z</time>
      </trkpt>
      <trkpt lat="48.3050660" lon="-1.7923961">
        <ele>52.230</ele>
        <time>2018-08-17T14:23:32.000Z</time>
      </trkpt>
      <trkpt lat="48.3050660" lon="-1.7923961">
        <ele>52.292</ele>
        <time>2018-08-17T14:23:34.000Z</time>
      </trkpt>
      <trkpt lat="48.3050660" lon="-1.7923961">
        <ele>52.271</ele>
        <time>2018-08-17T14:23:34.100Z</time>
      </trkpt>
      <trkpt lat="48.3051686" lon="-1.7927256">
        <ele>52.211</ele>
        <time>2018-08-17T14:23:41.348Z</time>
      </trkpt>
      <trkpt lat="48.3052197" lon="-1.7928826">
        <ele>52.088</ele>
        <time>2018-08-17T14:23:43.903Z</time>
      </trkpt>
      <trkpt lat="48.3052620" lon="-1.7930350">
        <ele>51.722</ele>
        <time>2018-08-17T14:23:46.400Z</time>
      </trkpt>
      <trkpt lat="48.3053069" lon="-1.7931744">
        <ele>51.000</ele>
        <time>2018-08-17T14:23:48.933Z</time>
      </trkpt>
      <trkpt lat="48.3053429" lon="-1.7932989">
        <ele>50.101</ele>
        <time>2018-08-17T14:23:51.324Z</time>
      </trkpt>
      <trkpt lat="48.3053903" lon="-1.7934271">
        <ele>49.126</ele>
        <time>2018-08-17T14:23:54.389Z</time>
      </trkpt>
      <trkpt lat="48.3054437" lon="-1.7935466">
        <ele>48.009</ele>
        <time>2018-08-17T14:23:58.000Z</time>
      </trkpt>
      <trkpt lat="48.3054437" lon="-1.7935466">
        <ele>46.993</ele>
        <time>2018-08-17T14:24:01.000Z</time>
      </trkpt>
      <trkpt lat="48.3054437" lon="-1.7935466">
        <ele>46.505</ele>
        <time>2018-08-17T14:24:55.000Z</time>
      </trkpt>
      <trkpt lat="48.3054437" lon="-1.7935466">
        <ele>46.537</ele>
        <time>2018-08-17T14:30:15.075Z</time>
      </trkpt>
      <trkpt lat="48.3055448" lon="-1.7938010">
        <ele>46.761</ele>
        <time>2018-08-17T14:30:28.549Z</time>
      </trkpt>
      <trkpt lat="48.3055939" lon="-1.7939453">
        <ele>46.852</ele>
        <time>2018-08-17T14:30:31.861Z</time>
      </trkpt>
      <trkpt lat="48.3056365" lon="-1.7940818">
        <ele>46.715</ele>
        <time>2018-08-17T14:30:34.575Z</time>
      </trkpt>
      <trkpt lat="48.3056926" lon="-1.7942278">
        <ele>46.417</ele>
        <time>2018-08-17T14:30:37.219Z</time>
      </trkpt>
      <trkpt lat="48.3057602" lon="-1.7944061">
        <ele>46.013</ele>
        <time>2018-08-17T14:30:40.235Z</time>
      </trkpt>
      <trkpt lat="48.3058205" lon="-1.7945796">
        <ele>45.591</ele>
        <time>2018-08-17T14:30:43.595Z</time>
      </trkpt>
      <trkpt lat="48.3058583" lon="-1.7947164">
        <ele>45.335</ele>
        <time>2018-08-17T14:30:46.843Z</time>
      </trkpt>
      <trkpt lat="48.3059130" lon="-1.7948255">
        <ele>45.330</ele>
        <time>2018-08-17T14:30:50.748Z</time>
      </trkpt>
      <trkpt lat="48.3059676" lon="-1.7949623">
        <ele>45.481</ele>
        <time>2018-08-17T14:30:56.306Z</time>
      </trkpt>
      <trkpt lat="48.3060260" lon="-1.7950743">
        <ele>45.741</ele>
        <time>2018-08-17T14:31:01.749Z</time>
      </trkpt>
      <trkpt lat="48.3060907" lon="-1.7951794">
        <ele>46.096</ele>
        <time>2018-08-17T14:31:06.763Z</time>
      </trkpt>
      <trkpt lat="48.3061427" lon="-1.7953205">
        <ele>46.121</ele>
        <time>2018-08-17T14:31:11.947Z</time>
      </trkpt>
      <trkpt lat="48.3061943" lon="-1.7954335">
        <ele>45.042</ele>
        <time>2018-08-17T14:31:15.847Z</time>
      </trkpt>
      <trkpt lat="48.3062552" lon="-1.7955528">
        <ele>43.050</ele>
        <time>2018-08-17T14:31:19.497Z</time>
      </trkpt>
      <trkpt lat="48.3062923" lon="-1.7956865">
        <ele>41.307</ele>
        <time>2018-08-17T14:31:22.681Z</time>
      </trkpt>
      <trkpt lat="48.3063231" lon="-1.7958436">
        <ele>40.435</ele>
        <time>2018-08-17T14:31:26.345Z</time>
      </trkpt>
      <trkpt lat="48.3063332" lon="-1.7959813">
        <ele>40.288</ele>
        <time>2018-08-17T14:31:29.511Z</time>
      </trkpt>
      <trkpt lat="48.3063372" lon="-1.7961276">
        <ele>40.573</ele>
        <time>2018-08-17T14:31:32.994Z</time>
      </trkpt>
      <trkpt lat="48.3063771" lon="-1.7962900">
        <ele>40.908</ele>
        <time>2018-08-17T14:31:37.469Z</time>
      </trkpt>
      <trkpt lat="48.3064212" lon="-1.7964340">
        <ele>41.159</ele>
        <time>2018-08-17T14:31:41.445Z</time>
      </trkpt>
      <trkpt lat="48.3064775" lon="-1.7965843">
        <ele>41.400</ele>
        <time>2018-08-17T14:31:44.730Z</time>
      </trkpt>
      <trkpt lat="48.3065495" lon="-1.7967412">
        <ele>41.414</ele>
        <time>2018-08-17T14:31:47.761Z</time>
      </trkpt>
      <trkpt lat="48.3066184" lon="-1.7969129">
        <ele>40.497</ele>
        <time>2018-08-17T14:31:50.938Z</time>
      </trkpt>
      <trkpt lat="48.3066729" lon="-1.7970803">
        <ele>38.638</ele>
        <time>2018-08-17T14:31:54.270Z</time>
      </trkpt>
      <trkpt lat="48.3067202" lon="-1.7972294">
        <ele>37.159</ele>
        <time>2018-08-17T14:31:57.695Z</time>
      </trkpt>
      <trkpt lat="48.3067776" lon="-1.7973876">
        <ele>36.932</ele>
        <time>2018-08-17T14:32:01.999Z</time>
      </trkpt>
      <trkpt lat="48.3068515" lon="-1.7975187">
        <ele>36.972</ele>
        <time>2018-08-17T14:32:05.842Z</time>
      </trkpt>
      <trkpt lat="48.3069275" lon="-1.7976598">
        <ele>35.575</ele>
        <time>2018-08-17T14:32:09.387Z</time>
      </trkpt>
      <trkpt lat="48.3069769" lon="-1.7978223">
        <ele>32.305</ele>
        <time>2018-08-17T14:32:12.659Z</time>
      </trkpt>
      <trkpt lat="48.3070277" lon="-1.7979788">
        <ele>28.646</ele>
        <time>2018-08-17T14:32:15.684Z</time>
      </trkpt>
      <trkpt lat="48.3070643" lon="-1.7981091">
        <ele>26.287</ele>
        <time>2018-08-17T14:32:18.155Z</time>
      </trkpt>
      <trkpt lat="48.3070983" lon="-1.7982343">
        <ele>25.594</ele>
        <time>2018-08-17T14:32:20.597Z</time>
      </trkpt>
      <trkpt lat="48.3071554" lon="-1.7984051">
        <ele>26.158</ele>
        <time>2018-08-17T14:32:24.094Z</time>
      </trkpt>
      <trkpt lat="48.3072093" lon="-1.7985709">
        <ele>27.678</ele>
        <time>2018-08-17T14:32:27.259Z</time>
      </trkpt>
      <trkpt lat="48.3072561" lon="-1.7987265">
        <ele>29.589</ele>
        <time>2018-08-17T14:32:30.106Z</time>
      </trkpt>
      <trkpt lat="48.3073115" lon="-1.7989013">
        <ele>30.980</ele>
        <time>2018-08-17T14:32:33.456Z</time>
      </trkpt>
      <trkpt lat="48.3073653" lon="-1.7990667">
        <ele>31.898</ele>
        <time>2018-08-17T14:32:36.752Z</time>
      </trkpt>
      <trkpt lat="48.3074155" lon="-1.7992160">
        <ele>33.243</ele>
        <time>2018-08-17T14:32:39.657Z</time>
      </trkpt>
      <trkpt lat="48.3074663" lon="-1.7993452">
        <ele>35.003</ele>
        <time>2018-08-17T14:32:41.968Z</time>
      </trkpt>
      <trkpt lat="48.3075316" lon="-1.7994800">
        <ele>36.502</ele>
        <time>2018-08-17T14:32:44.154Z</time>
      </trkpt>
      <trkpt lat="48.3076072" lon="-1.7997329">
        <ele>37.494</ele>
        <time>2018-08-17T14:32:47.838Z</time>
      </trkpt>
      <trkpt lat="48.3076762" lon="-1.7999399">
        <ele>38.007</ele>
        <time>2018-08-17T14:32:51.154Z</time>
      </trkpt>
      <trkpt lat="48.3077247" lon="-1.8001175">
        <ele>38.131</ele>
        <time>2018-08-17T14:32:54.015Z</time>
      </trkpt>
      <trkpt lat="48.3077644" lon="-1.8003106">
        <ele>37.960</ele>
        <time>2018-08-17T14:32:57.116Z</time>
      </trkpt>
      <trkpt lat="48.3078966" lon="-1.8004382">
        <ele>37.714</ele>
        <time>2018-08-17T14:33:00.872Z</time>
      </trkpt>
      <trkpt lat="48.3079540" lon="-1.8005995">
        <ele>37.886</ele>
        <time>2018-08-17T14:33:03.857Z</time>
      </trkpt>
      <trkpt lat="48.3079943" lon="-1.8007691">
        <ele>38.593</ele>
        <time>2018-08-17T14:33:06.806Z</time>
      </trkpt>
      <trkpt lat="48.3080538" lon="-1.8009143">
        <ele>39.379</ele>
        <time>2018-08-17T14:33:09.621Z</time>
      </trkpt>
      <trkpt lat="48.3081143" lon="-1.8010756">
        <ele>40.031</ele>
        <time>2018-08-17T14:33:12.757Z</time>
      </trkpt>
      <trkpt lat="48.3081581" lon="-1.8012526">
        <ele>40.599</ele>
        <time>2018-08-17T14:33:16.072Z</time>
      </trkpt>
      <trkpt lat="48.3082042" lon="-1.8014093">
        <ele>41.025</ele>
        <time>2018-08-17T14:33:19.236Z</time>
      </trkpt>
      <trkpt lat="48.3082577" lon="-1.8015452">
        <ele>41.690</ele>
        <time>2018-08-17T14:33:22.215Z</time>
      </trkpt>
      <trkpt lat="48.3082946" lon="-1.8016761">
        <ele>42.904</ele>
        <time>2018-08-17T14:33:24.924Z</time>
      </trkpt>
      <trkpt lat="48.3083394" lon="-1.8018126">
        <ele>43.652</ele>
        <time>2018-08-17T14:33:27.899Z</time>
      </trkpt>
      <trkpt lat="48.3083883" lon="-1.8019461">
        <ele>43.121</ele>
        <time>2018-08-17T14:33:30.936Z</time>
      </trkpt>
      <trkpt lat="48.3084426" lon="-1.8020649">
        <ele>42.086</ele>
        <time>2018-08-17T14:33:33.776Z</time>
      </trkpt>
      <trkpt lat="48.3085006" lon="-1.8021733">
        <ele>41.423</ele>
        <time>2018-08-17T14:33:36.526Z</time>
      </trkpt>
      <trkpt lat="48.3085588" lon="-1.8023035">
        <ele>41.199</ele>
        <time>2018-08-17T14:33:39.761Z</time>
      </trkpt>
      <trkpt lat="48.3085948" lon="-1.8024626">
        <ele>41.276</ele>
        <time>2018-08-17T14:33:43.285Z</time>
      </trkpt>
      <trkpt lat="48.3086202" lon="-1.8026030">
        <ele>41.502</ele>
        <time>2018-08-17T14:33:46.216Z</time>
      </trkpt>
      <trkpt lat="48.3086566" lon="-1.8027616">
        <ele>41.370</ele>
        <time>2018-08-17T14:33:49.480Z</time>
      </trkpt>
      <trkpt lat="48.3086772" lon="-1.8029014">
        <ele>39.967</ele>
        <time>2018-08-17T14:33:52.297Z</time>
      </trkpt>
      <trkpt lat="48.3087362" lon="-1.8030614">
        <ele>37.314</ele>
        <time>2018-08-17T14:33:55.959Z</time>
      </trkpt>
      <trkpt lat="48.3087760" lon="-1.8031857">
        <ele>34.650</ele>
        <time>2018-08-17T14:33:58.697Z</time>
      </trkpt>
      <trkpt lat="48.3088283" lon="-1.8033080">
        <ele>32.940</ele>
        <time>2018-08-17T14:34:01.516Z</time>
      </trkpt>
      <trkpt lat="48.3088760" lon="-1.8034449">
        <ele>32.462</ele>
        <time>2018-08-17T14:34:04.551Z</time>
      </trkpt>
      <trkpt lat="48.3089274" lon="-1.8035971">
        <ele>33.017</ele>
        <time>2018-08-17T14:34:08.897Z</time>
      </trkpt>
      <trkpt lat="48.3089779" lon="-1.8037152">
        <ele>33.838</ele>
        <time>2018-08-17T14:34:13.328Z</time>
      </trkpt>
      <trkpt lat="48.3090132" lon="-1.8038452">
        <ele>34.433</ele>
        <time>2018-08-17T14:34:18.658Z</time>
      </trkpt>
      <trkpt lat="48.3090756" lon="-1.8039587">
        <ele>34.920</ele>
        <time>2018-08-17T14:34:23.697Z</time>
      </trkpt>
      <trkpt lat="48.3091263" lon="-1.8040963">
        <ele>35.472</ele>
        <time>2018-08-17T14:34:28.264Z</time>
      </trkpt>
      <trkpt lat="48.3091667" lon="-1.8042263">
        <ele>36.170</ele>
        <time>2018-08-17T14:34:31.973Z</time>
      </trkpt>
      <trkpt lat="48.3092185" lon="-1.8043641">
        <ele>37.009</ele>
        <time>2018-08-17T14:34:35.732Z</time>
      </trkpt>
      <trkpt lat="48.3092729" lon="-1.8045153">
        <ele>37.765</ele>
        <time>2018-08-17T14:34:39.768Z</time>
      </trkpt>
      <trkpt lat="48.3093141" lon="-1.8046590">
        <ele>38.195</ele>
        <time>2018-08-17T14:34:43.462Z</time>
      </trkpt>
      <trkpt lat="48.3093726" lon="-1.8048043">
        <ele>38.280</ele>
        <time>2018-08-17T14:34:47.269Z</time>
      </trkpt>
      <trkpt lat="48.3094252" lon="-1.8049208">
        <ele>37.993</ele>
        <time>2018-08-17T14:34:50.333Z</time>
      </trkpt>
      <trkpt lat="48.3094665" lon="-1.8050588">
        <ele>37.385</ele>
        <time>2018-08-17T14:34:53.553Z</time>
      </trkpt>
      <trkpt lat="48.3095121" lon="-1.8051930">
        <ele>36.844</ele>
        <time>2018-08-17T14:34:56.666Z</time>
      </trkpt>
      <trkpt lat="48.3095845" lon="-1.8053404">
        <ele>36.646</ele>
        <time>2018-08-17T14:35:00.222Z</time>
      </trkpt>
      <trkpt lat="48.3096654" lon="-1.8054493">
        <ele>36.598</ele>
        <time>2018-08-17T14:35:03.315Z</time>
      </trkpt>
      <trkpt lat="48.3097295" lon="-1.8055698">
        <ele>36.431</ele>
        <time>2018-08-17T14:35:06.276Z</time>
      </trkpt>
      <trkpt lat="48.3098124" lon="-1.8057013">
        <ele>36.148</ele>
        <time>2018-08-17T14:35:09.957Z</time>
      </trkpt>
      <trkpt lat="48.3099160" lon="-1.8057245">
        <ele>35.887</ele>
        <time>2018-08-17T14:35:13.331Z</time>
      </trkpt>
      <trkpt lat="48.3100206" lon="-1.8056853">
        <ele>35.800</ele>
        <time>2018-08-17T14:35:17.028Z</time>
      </trkpt>
      <trkpt lat="48.3101205" lon="-1.8056811">
        <ele>35.976</ele>
        <time>2018-08-17T14:35:20.571Z</time>
      </trkpt>
      <trkpt lat="48.3102327" lon="-1.8056583">
        <ele>36.262</ele>
        <time>2018-08-17T14:35:24.827Z</time>
      </trkpt>
      <trkpt lat="48.3103458" lon="-1.8056912">
        <ele>36.125</ele>
        <time>2018-08-17T14:35:29.519Z</time>
      </trkpt>
      <trkpt lat="48.3104360" lon="-1.8057109">
        <ele>35.055</ele>
        <time>2018-08-17T14:35:33.290Z</time>
      </trkpt>
      <trkpt lat="48.3105433" lon="-1.8057339">
        <ele>33.405</ele>
        <time>2018-08-17T14:35:37.602Z</time>
      </trkpt>
      <trkpt lat="48.3106497" lon="-1.8057530">
        <ele>32.372</ele>
        <time>2018-08-17T14:35:41.564Z</time>
      </trkpt>
      <trkpt lat="48.3107632" lon="-1.8057612">
        <ele>32.770</ele>
        <time>2018-08-17T14:35:45.414Z</time>
      </trkpt>
      <trkpt lat="48.3108567" lon="-1.8057354">
        <ele>34.158</ele>
        <time>2018-08-17T14:35:48.529Z</time>
      </trkpt>
      <trkpt lat="48.3109763" lon="-1.8057587">
        <ele>35.283</ele>
        <time>2018-08-17T14:35:52.244Z</time>
      </trkpt>
      <trkpt lat="48.3110903" lon="-1.8057576">
        <ele>35.506</ele>
        <time>2018-08-17T14:35:55.784Z</time>
      </trkpt>
      <trkpt lat="48.3111868" lon="-1.8057692">
        <ele>35.326</ele>
        <time>2018-08-17T14:35:58.940Z</time>
      </trkpt>
      <trkpt lat="48.3112817" lon="-1.8057916">
        <ele>35.568</ele>
        <time>2018-08-17T14:36:02.146Z</time>
      </trkpt>
      <trkpt lat="48.3113836" lon="-1.8057488">
        <ele>36.653</ele>
        <time>2018-08-17T14:36:05.642Z</time>
      </trkpt>
      <trkpt lat="48.3114946" lon="-1.8057317">
        <ele>38.559</ele>
        <time>2018-08-17T14:36:09.276Z</time>
      </trkpt>
      <trkpt lat="48.3115945" lon="-1.8057507">
        <ele>40.763</ele>
        <time>2018-08-17T14:36:12.648Z</time>
      </trkpt>
      <trkpt lat="48.3117029" lon="-1.8057575">
        <ele>42.617</ele>
        <time>2018-08-17T14:36:16.449Z</time>
      </trkpt>
      <trkpt lat="48.3118052" lon="-1.8057774">
        <ele>43.894</ele>
        <time>2018-08-17T14:36:20.155Z</time>
      </trkpt>
      <trkpt lat="48.3119044" lon="-1.8057866">
        <ele>44.655</ele>
        <time>2018-08-17T14:36:23.508Z</time>
      </trkpt>
      <trkpt lat="48.3120001" lon="-1.8058053">
        <ele>44.939</ele>
        <time>2018-08-17T14:36:26.611Z</time>
      </trkpt>
      <trkpt lat="48.3120978" lon="-1.8057630">
        <ele>44.966</ele>
        <time>2018-08-17T14:36:29.943Z</time>
      </trkpt>
      <trkpt lat="48.3121989" lon="-1.8057762">
        <ele>45.168</ele>
        <time>2018-08-17T14:36:33.393Z</time>
      </trkpt>
      <trkpt lat="48.3123004" lon="-1.8058291">
        <ele>45.859</ele>
        <time>2018-08-17T14:36:37.024Z</time>
      </trkpt>
      <trkpt lat="48.3124089" lon="-1.8058384">
        <ele>46.732</ele>
        <time>2018-08-17T14:36:40.555Z</time>
      </trkpt>
      <trkpt lat="48.3125001" lon="-1.8058452">
        <ele>47.092</ele>
        <time>2018-08-17T14:36:43.410Z</time>
      </trkpt>
      <trkpt lat="48.3126003" lon="-1.8058450">
        <ele>46.681</ele>
        <time>2018-08-17T14:36:46.510Z</time>
      </trkpt>
      <trkpt lat="48.3126934" lon="-1.8058517">
        <ele>45.953</ele>
        <time>2018-08-17T14:36:49.386Z</time>
      </trkpt>
      <trkpt lat="48.3127943" lon="-1.8058685">
        <ele>45.496</ele>
        <time>2018-08-17T14:36:52.494Z</time>
      </trkpt>
      <trkpt lat="48.3128996" lon="-1.8058633">
        <ele>45.622</ele>
        <time>2018-08-17T14:36:55.742Z</time>
      </trkpt>
      <trkpt lat="48.3130153" lon="-1.8058601">
        <ele>46.240</ele>
        <time>2018-08-17T14:36:59.358Z</time>
      </trkpt>
      <trkpt lat="48.3131305" lon="-1.8058712">
        <ele>46.557</ele>
        <time>2018-08-17T14:37:02.910Z</time>
      </trkpt>
      <trkpt lat="48.3132312" lon="-1.8058714">
        <ele>46.061</ele>
        <time>2018-08-17T14:37:05.897Z</time>
      </trkpt>
      <trkpt lat="48.3133356" lon="-1.8058839">
        <ele>45.295</ele>
        <time>2018-08-17T14:37:09.117Z</time>
      </trkpt>
      <trkpt lat="48.3134462" lon="-1.8059146">
        <ele>44.691</ele>
        <time>2018-08-17T14:37:12.835Z</time>
      </trkpt>
      <trkpt lat="48.3135621" lon="-1.8059388">
        <ele>44.136</ele>
        <time>2018-08-17T14:37:16.795Z</time>
      </trkpt>
      <trkpt lat="48.3136798" lon="-1.8059825">
        <ele>43.697</ele>
        <time>2018-08-17T14:37:20.662Z</time>
      </trkpt>
      <trkpt lat="48.3137868" lon="-1.8059990">
        <ele>43.297</ele>
        <time>2018-08-17T14:37:23.992Z</time>
      </trkpt>
      <trkpt lat="48.3138979" lon="-1.8059787">
        <ele>42.700</ele>
        <time>2018-08-17T14:37:27.483Z</time>
      </trkpt>
      <trkpt lat="48.3140165" lon="-1.8059626">
        <ele>41.690</ele>
        <time>2018-08-17T14:37:31.151Z</time>
      </trkpt>
      <trkpt lat="48.3141119" lon="-1.8059785">
        <ele>40.219</ele>
        <time>2018-08-17T14:37:34.045Z</time>
      </trkpt>
      <trkpt lat="48.3142036" lon="-1.8060293">
        <ele>38.518</ele>
        <time>2018-08-17T14:37:37.000Z</time>
      </trkpt>
      <trkpt lat="48.3143004" lon="-1.8061043">
        <ele>36.991</ele>
        <time>2018-08-17T14:37:40.319Z</time>
      </trkpt>
      <trkpt lat="48.3143860" lon="-1.8061700">
        <ele>35.797</ele>
        <time>2018-08-17T14:37:43.313Z</time>
      </trkpt>
      <trkpt lat="48.3144978" lon="-1.8062030">
        <ele>34.870</ele>
        <time>2018-08-17T14:37:46.948Z</time>
      </trkpt>
      <trkpt lat="48.3146053" lon="-1.8062103">
        <ele>33.926</ele>
        <time>2018-08-17T14:37:50.331Z</time>
      </trkpt>
      <trkpt lat="48.3150585" lon="-1.8066387">
        <ele>32.447</ele>
        <time>2018-08-17T14:38:06.492Z</time>
      </trkpt>
      <trkpt lat="48.3151492" lon="-1.8066852">
        <ele>32.827</ele>
        <time>2018-08-17T14:38:09.315Z</time>
      </trkpt>
      <trkpt lat="48.3152458" lon="-1.8067574">
        <ele>33.254</ele>
        <time>2018-08-17T14:38:12.607Z</time>
      </trkpt>
      <trkpt lat="48.3153405" lon="-1.8067585">
        <ele>33.012</ele>
        <time>2018-08-17T14:38:15.501Z</time>
      </trkpt>
      <trkpt lat="48.3154431" lon="-1.8067991">
        <ele>32.463</ele>
        <time>2018-08-17T14:38:18.674Z</time>
      </trkpt>
      <trkpt lat="48.3155215" lon="-1.8068999">
        <ele>31.995</ele>
        <time>2018-08-17T14:38:21.715Z</time>
      </trkpt>
      <trkpt lat="48.3156128" lon="-1.8069299">
        <ele>31.462</ele>
        <time>2018-08-17T14:38:24.560Z</time>
      </trkpt>
      <trkpt lat="48.3157154" lon="-1.8069647">
        <ele>30.869</ele>
        <time>2018-08-17T14:38:27.903Z</time>
      </trkpt>
      <trkpt lat="48.3158019" lon="-1.8070232">
        <ele>30.466</ele>
        <time>2018-08-17T14:38:31.042Z</time>
      </trkpt>
      <trkpt lat="48.3159110" lon="-1.8070894">
        <ele>30.165</ele>
        <time>2018-08-17T14:38:34.927Z</time>
      </trkpt>
      <trkpt lat="48.3160119" lon="-1.8071463">
        <ele>29.429</ele>
        <time>2018-08-17T14:38:38.492Z</time>
      </trkpt>
      <trkpt lat="48.3161161" lon="-1.8071651">
        <ele>28.164</ele>
        <time>2018-08-17T14:38:42.022Z</time>
      </trkpt>
      <trkpt lat="48.3162300" lon="-1.8071915">
        <ele>27.068</ele>
        <time>2018-08-17T14:38:45.950Z</time>
      </trkpt>
      <trkpt lat="48.3163395" lon="-1.8071879">
        <ele>26.654</ele>
        <time>2018-08-17T14:38:49.627Z</time>
      </trkpt>
      <trkpt lat="48.3164533" lon="-1.8071967">
        <ele>26.723</ele>
        <time>2018-08-17T14:38:53.449Z</time>
      </trkpt>
      <trkpt lat="48.3165294" lon="-1.8072791">
        <ele>26.705</ele>
        <time>2018-08-17T14:38:56.642Z</time>
      </trkpt>
      <trkpt lat="48.3166075" lon="-1.8073773">
        <ele>26.263</ele>
        <time>2018-08-17T14:39:00.055Z</time>
      </trkpt>
      <trkpt lat="48.3167156" lon="-1.8074669">
        <ele>25.658</ele>
        <time>2018-08-17T14:39:04.218Z</time>
      </trkpt>
      <trkpt lat="48.3168034" lon="-1.8075815">
        <ele>25.445</ele>
        <time>2018-08-17T14:39:08.099Z</time>
      </trkpt>
      <trkpt lat="48.3168866" lon="-1.8076638">
        <ele>25.941</ele>
        <time>2018-08-17T14:39:11.279Z</time>
      </trkpt>
      <trkpt lat="48.3169614" lon="-1.8077737">
        <ele>26.953</ele>
        <time>2018-08-17T14:39:14.619Z</time>
      </trkpt>
      <trkpt lat="48.3170319" lon="-1.8078795">
        <ele>27.923</ele>
        <time>2018-08-17T14:39:17.749Z</time>
      </trkpt>
      <trkpt lat="48.3171192" lon="-1.8079375">
        <ele>28.487</ele>
        <time>2018-08-17T14:39:20.648Z</time>
      </trkpt>
      <trkpt lat="48.3172256" lon="-1.8079919">
        <ele>28.848</ele>
        <time>2018-08-17T14:39:24.054Z</time>
      </trkpt>
      <trkpt lat="48.3173174" lon="-1.8080150">
        <ele>29.323</ele>
        <time>2018-08-17T14:39:26.931Z</time>
      </trkpt>
      <trkpt lat="48.3174127" lon="-1.8080215">
        <ele>30.027</ele>
        <time>2018-08-17T14:39:29.955Z</time>
      </trkpt>
      <trkpt lat="48.3175136" lon="-1.8080222">
        <ele>30.863</ele>
        <time>2018-08-17T14:39:33.173Z</time>
      </trkpt>
      <trkpt lat="48.3176253" lon="-1.8080366">
        <ele>30.876</ele>
        <time>2018-08-17T14:39:36.845Z</time>
      </trkpt>
      <trkpt lat="48.3177142" lon="-1.8080733">
        <ele>29.455</ele>
        <time>2018-08-17T14:39:39.967Z</time>
      </trkpt>
      <trkpt lat="48.3178190" lon="-1.8081213">
        <ele>27.774</ele>
        <time>2018-08-17T14:39:43.654Z</time>
      </trkpt>
      <trkpt lat="48.3179220" lon="-1.8081633">
        <ele>27.072</ele>
        <time>2018-08-17T14:39:47.080Z</time>
      </trkpt>
      <trkpt lat="48.3180332" lon="-1.8082271">
        <ele>27.238</ele>
        <time>2018-08-17T14:39:50.905Z</time>
      </trkpt>
      <trkpt lat="48.3181285" lon="-1.8083377">
        <ele>27.704</ele>
        <time>2018-08-17T14:39:54.864Z</time>
      </trkpt>
      <trkpt lat="48.3182139" lon="-1.8084267">
        <ele>28.348</ele>
        <time>2018-08-17T14:39:58.122Z</time>
      </trkpt>
      <trkpt lat="48.3183160" lon="-1.8085082">
        <ele>29.236</ele>
        <time>2018-08-17T14:40:01.594Z</time>
      </trkpt>
      <trkpt lat="48.3184023" lon="-1.8086104">
        <ele>30.024</ele>
        <time>2018-08-17T14:40:04.864Z</time>
      </trkpt>
      <trkpt lat="48.3184857" lon="-1.8086834">
        <ele>30.505</ele>
        <time>2018-08-17T14:40:07.825Z</time>
      </trkpt>
      <trkpt lat="48.3185869" lon="-1.8087725">
        <ele>30.820</ele>
        <time>2018-08-17T14:40:11.631Z</time>
      </trkpt>
      <trkpt lat="48.3186783" lon="-1.8088326">
        <ele>30.808</ele>
        <time>2018-08-17T14:40:14.906Z</time>
      </trkpt>
      <trkpt lat="48.3187791" lon="-1.8088964">
        <ele>30.256</ele>
        <time>2018-08-17T14:40:18.334Z</time>
      </trkpt>
      <trkpt lat="48.3188882" lon="-1.8089341">
        <ele>29.462</ele>
        <time>2018-08-17T14:40:21.872Z</time>
      </trkpt>
      <trkpt lat="48.3189982" lon="-1.8089720">
        <ele>29.076</ele>
        <time>2018-08-17T14:40:25.600Z</time>
      </trkpt>
      <trkpt lat="48.3191002" lon="-1.8090118">
        <ele>29.501</ele>
        <time>2018-08-17T14:40:29.240Z</time>
      </trkpt>
      <trkpt lat="48.3191863" lon="-1.8090507">
        <ele>30.488</ele>
        <time>2018-08-17T14:40:32.242Z</time>
      </trkpt>
      <trkpt lat="48.3192965" lon="-1.8090884">
        <ele>31.380</ele>
        <time>2018-08-17T14:40:35.788Z</time>
      </trkpt>
      <trkpt lat="48.3193874" lon="-1.8091312">
        <ele>31.475</ele>
        <time>2018-08-17T14:40:38.814Z</time>
      </trkpt>
      <trkpt lat="48.3194856" lon="-1.8091810">
        <ele>30.670</ele>
        <time>2018-08-17T14:40:42.084Z</time>
      </trkpt>
      <trkpt lat="48.3195871" lon="-1.8092352">
        <ele>29.698</ele>
        <time>2018-08-17T14:40:45.481Z</time>
      </trkpt>
      <trkpt lat="48.3196749" lon="-1.8092812">
        <ele>29.074</ele>
        <time>2018-08-17T14:40:48.478Z</time>
      </trkpt>
      <trkpt lat="48.3197858" lon="-1.8093131">
        <ele>28.251</ele>
        <time>2018-08-17T14:40:52.238Z</time>
      </trkpt>
      <trkpt lat="48.3198626" lon="-1.8093964">
        <ele>26.928</ele>
        <time>2018-08-17T14:40:55.461Z</time>
      </trkpt>
      <trkpt lat="48.3199452" lon="-1.8094518">
        <ele>25.756</ele>
        <time>2018-08-17T14:40:58.622Z</time>
      </trkpt>
      <trkpt lat="48.3200454" lon="-1.8094932">
        <ele>25.279</ele>
        <time>2018-08-17T14:41:02.220Z</time>
      </trkpt>
      <trkpt lat="48.3201519" lon="-1.8095601">
        <ele>25.263</ele>
        <time>2018-08-17T14:41:06.145Z</time>
      </trkpt>
      <trkpt lat="48.3202351" lon="-1.8096241">
        <ele>25.074</ele>
        <time>2018-08-17T14:41:09.331Z</time>
      </trkpt>
      <trkpt lat="48.3203215" lon="-1.8097210">
        <ele>24.401</ele>
        <time>2018-08-17T14:41:13.004Z</time>
      </trkpt>
      <trkpt lat="48.3204036" lon="-1.8098303">
        <ele>23.473</ele>
        <time>2018-08-17T14:41:16.725Z</time>
      </trkpt>
      <trkpt lat="48.3204807" lon="-1.8099259">
        <ele>22.789</ele>
        <time>2018-08-17T14:41:20.011Z</time>
      </trkpt>
      <trkpt lat="48.3205764" lon="-1.8099513">
        <ele>22.509</ele>
        <time>2018-08-17T14:41:23.011Z</time>
      </trkpt>
      <trkpt lat="48.3209346" lon="-1.8104875">
        <ele>22.339</ele>
        <time>2018-08-17T14:41:40.555Z</time>
      </trkpt>
      <trkpt lat="48.3210097" lon="-1.8106012">
        <ele>22.399</ele>
        <time>2018-08-17T14:41:44.499Z</time>
      </trkpt>
      <trkpt lat="48.3210586" lon="-1.8107419">
        <ele>22.173</ele>
        <time>2018-08-17T14:41:48.568Z</time>
      </trkpt>
      <trkpt lat="48.3211119" lon="-1.8108964">
        <ele>21.452</ele>
        <time>2018-08-17T14:41:53.021Z</time>
      </trkpt>
      <trkpt lat="48.3211594" lon="-1.8110598">
        <ele>20.839</ele>
        <time>2018-08-17T14:41:57.332Z</time>
      </trkpt>
      <trkpt lat="48.3211954" lon="-1.8112515">
        <ele>20.937</ele>
        <time>2018-08-17T14:42:01.662Z</time>
      </trkpt>
      <trkpt lat="48.3212425" lon="-1.8114279">
        <ele>21.682</ele>
        <time>2018-08-17T14:42:05.520Z</time>
      </trkpt>
      <trkpt lat="48.3212738" lon="-1.8115979">
        <ele>23.111</ele>
        <time>2018-08-17T14:42:09.003Z</time>
      </trkpt>
      <trkpt lat="48.3213210" lon="-1.8117348">
        <ele>25.075</ele>
        <time>2018-08-17T14:42:12.123Z</time>
      </trkpt>
      <trkpt lat="48.3213459" lon="-1.8118985">
        <ele>26.914</ele>
        <time>2018-08-17T14:42:15.534Z</time>
      </trkpt>
      <trkpt lat="48.3213559" lon="-1.8120686">
        <ele>28.294</ele>
        <time>2018-08-17T14:42:18.898Z</time>
      </trkpt>
      <trkpt lat="48.3213719" lon="-1.8122359">
        <ele>29.326</ele>
        <time>2018-08-17T14:42:22.166Z</time>
      </trkpt>
      <trkpt lat="48.3213822" lon="-1.8123809">
        <ele>30.445</ele>
        <time>2018-08-17T14:42:25.045Z</time>
      </trkpt>
      <trkpt lat="48.3213899" lon="-1.8125270">
        <ele>31.912</ele>
        <time>2018-08-17T14:42:28.058Z</time>
      </trkpt>
      <trkpt lat="48.3213910" lon="-1.8126905">
        <ele>33.160</ele>
        <time>2018-08-17T14:42:31.484Z</time>
      </trkpt>
      <trkpt lat="48.3214093" lon="-1.8128572">
        <ele>33.675</ele>
        <time>2018-08-17T14:42:35.043Z</time>
      </trkpt>
      <trkpt lat="48.3214445" lon="-1.8129903">
        <ele>33.595</ele>
        <time>2018-08-17T14:42:38.018Z</time>
      </trkpt>
      <trkpt lat="48.3215079" lon="-1.8131159">
        <ele>33.215</ele>
        <time>2018-08-17T14:42:41.359Z</time>
      </trkpt>
      <trkpt lat="48.3215585" lon="-1.8132659">
        <ele>32.886</ele>
        <time>2018-08-17T14:42:45.281Z</time>
      </trkpt>
      <trkpt lat="48.3215826" lon="-1.8134419">
        <ele>32.809</ele>
        <time>2018-08-17T14:42:49.692Z</time>
      </trkpt>
      <trkpt lat="48.3215944" lon="-1.8135863">
        <ele>32.890</ele>
        <time>2018-08-17T14:42:53.199Z</time>
      </trkpt>
      <trkpt lat="48.3216091" lon="-1.8137297">
        <ele>33.100</ele>
        <time>2018-08-17T14:42:56.569Z</time>
      </trkpt>
      <trkpt lat="48.3216210" lon="-1.8138735">
        <ele>33.492</ele>
        <time>2018-08-17T14:42:59.409Z</time>
      </trkpt>
      <trkpt lat="48.3216259" lon="-1.8141254">
        <ele>33.883</ele>
        <time>2018-08-17T14:43:03.166Z</time>
      </trkpt>
      <trkpt lat="48.3216499" lon="-1.8142651">
        <ele>33.914</ele>
        <time>2018-08-17T14:43:05.187Z</time>
      </trkpt>
      <trkpt lat="48.3216642" lon="-1.8144173">
        <ele>33.234</ele>
        <time>2018-08-17T14:43:07.417Z</time>
      </trkpt>
      <trkpt lat="48.3216593" lon="-1.8145780">
        <ele>31.837</ele>
        <time>2018-08-17T14:43:09.999Z</time>
      </trkpt>
      <trkpt lat="48.3216593" lon="-1.8145780">
        <ele>30.389</ele>
        <time>2018-08-17T14:43:16.999Z</time>
      </trkpt>
      <trkpt lat="48.3216593" lon="-1.8145780">
        <ele>29.654</ele>
        <time>2018-08-17T14:43:23.961Z</time>
      </trkpt>
      <trkpt lat="48.3215016" lon="-1.8147842">
        <ele>29.911</ele>
        <time>2018-08-17T14:43:42.751Z</time>
      </trkpt>
      <trkpt lat="48.3214588" lon="-1.8149280">
        <ele>31.190</ele>
        <time>2018-08-17T14:43:46.686Z</time>
      </trkpt>
      <trkpt lat="48.3214563" lon="-1.8150645">
        <ele>33.224</ele>
        <time>2018-08-17T14:43:49.724Z</time>
      </trkpt>
      <trkpt lat="48.3214708" lon="-1.8152043">
        <ele>35.587</ele>
        <time>2018-08-17T14:43:52.719Z</time>
      </trkpt>
      <trkpt lat="48.3214799" lon="-1.8153447">
        <ele>37.785</ele>
        <time>2018-08-17T14:43:55.524Z</time>
      </trkpt>
      <trkpt lat="48.3214640" lon="-1.8154953">
        <ele>39.228</ele>
        <time>2018-08-17T14:43:58.434Z</time>
      </trkpt>
      <trkpt lat="48.3214567" lon="-1.8156736">
        <ele>39.599</ele>
        <time>2018-08-17T14:44:01.902Z</time>
      </trkpt>
      <trkpt lat="48.3214910" lon="-1.8158398">
        <ele>39.254</ele>
        <time>2018-08-17T14:44:05.470Z</time>
      </trkpt>
      <trkpt lat="48.3215000" lon="-1.8160039">
        <ele>38.757</ele>
        <time>2018-08-17T14:44:08.701Z</time>
      </trkpt>
      <trkpt lat="48.3215064" lon="-1.8161650">
        <ele>38.241</ele>
        <time>2018-08-17T14:44:11.523Z</time>
      </trkpt>
      <trkpt lat="48.3214905" lon="-1.8163615">
        <ele>37.363</ele>
        <time>2018-08-17T14:44:14.662Z</time>
      </trkpt>
      <trkpt lat="48.3214871" lon="-1.8165552">
        <ele>36.269</ele>
        <time>2018-08-17T14:44:17.616Z</time>
      </trkpt>
      <trkpt lat="48.3214890" lon="-1.8166913">
        <ele>35.537</ele>
        <time>2018-08-17T14:44:19.739Z</time>
      </trkpt>
      <trkpt lat="48.3214847" lon="-1.8168806">
        <ele>35.329</ele>
        <time>2018-08-17T14:44:22.842Z</time>
      </trkpt>
      <trkpt lat="48.3215065" lon="-1.8170424">
        <ele>35.457</ele>
        <time>2018-08-17T14:44:25.606Z</time>
      </trkpt>
      <trkpt lat="48.3215489" lon="-1.8171933">
        <ele>35.830</ele>
        <time>2018-08-17T14:44:28.365Z</time>
      </trkpt>
      <trkpt lat="48.3216005" lon="-1.8173425">
        <ele>36.297</ele>
        <time>2018-08-17T14:44:31.306Z</time>
      </trkpt>
      <trkpt lat="48.3216598" lon="-1.8174621">
        <ele>36.356</ele>
        <time>2018-08-17T14:44:34.074Z</time>
      </trkpt>
      <trkpt lat="48.3217271" lon="-1.8175696">
        <ele>35.598</ele>
        <time>2018-08-17T14:44:36.830Z</time>
      </trkpt>
      <trkpt lat="48.3217834" lon="-1.8176987">
        <ele>34.400</ele>
        <time>2018-08-17T14:44:39.585Z</time>
      </trkpt>
      <trkpt lat="48.3218437" lon="-1.8178241">
        <ele>33.429</ele>
        <time>2018-08-17T14:44:42.281Z</time>
      </trkpt>
      <trkpt lat="48.3219217" lon="-1.8179305">
        <ele>32.746</ele>
        <time>2018-08-17T14:44:45.096Z</time>
      </trkpt>
      <trkpt lat="48.3219891" lon="-1.8180395">
        <ele>32.005</ele>
        <time>2018-08-17T14:44:47.810Z</time>
      </trkpt>
      <trkpt lat="48.3220525" lon="-1.8181470">
        <ele>31.015</ele>
        <time>2018-08-17T14:44:50.772Z</time>
      </trkpt>
      <trkpt lat="48.3221230" lon="-1.8182589">
        <ele>29.963</ele>
        <time>2018-08-17T14:44:54.318Z</time>
      </trkpt>
      <trkpt lat="48.3222076" lon="-1.8183320">
        <ele>29.217</ele>
        <time>2018-08-17T14:44:58.934Z</time>
      </trkpt>
      <trkpt lat="48.3222950" lon="-1.8184130">
        <ele>28.925</ele>
        <time>2018-08-17T14:45:04.613Z</time>
      </trkpt>
      <trkpt lat="48.3223534" lon="-1.8185217">
        <ele>28.591</ele>
        <time>2018-08-17T14:45:10.037Z</time>
      </trkpt>
      <trkpt lat="48.3224078" lon="-1.8186326">
        <ele>27.630</ele>
        <time>2018-08-17T14:45:14.908Z</time>
      </trkpt>
      <trkpt lat="48.3224775" lon="-1.8187352">
        <ele>26.134</ele>
        <time>2018-08-17T14:45:18.983Z</time>
      </trkpt>
      <trkpt lat="48.3225426" lon="-1.8188675">
        <ele>24.738</ele>
        <time>2018-08-17T14:45:23.465Z</time>
      </trkpt>
      <trkpt lat="48.3226218" lon="-1.8189752">
        <ele>24.050</ele>
        <time>2018-08-17T14:45:28.063Z</time>
      </trkpt>
      <trkpt lat="48.3227020" lon="-1.8190978">
        <ele>24.356</ele>
        <time>2018-08-17T14:45:32.891Z</time>
      </trkpt>
      <trkpt lat="48.3227771" lon="-1.8192416">
        <ele>25.375</ele>
        <time>2018-08-17T14:45:37.314Z</time>
      </trkpt>
      <trkpt lat="48.3228428" lon="-1.8193722">
        <ele>26.458</ele>
        <time>2018-08-17T14:45:41.023Z</time>
      </trkpt>
      <trkpt lat="48.3229178" lon="-1.8194481">
        <ele>27.172</ele>
        <time>2018-08-17T14:45:44.461Z</time>
      </trkpt>
      <trkpt lat="48.3229901" lon="-1.8195475">
        <ele>27.854</ele>
        <time>2018-08-17T14:45:48.088Z</time>
      </trkpt>
      <trkpt lat="48.3230470" lon="-1.8196523">
        <ele>28.835</ele>
        <time>2018-08-17T14:45:51.245Z</time>
      </trkpt>
      <trkpt lat="48.3231177" lon="-1.8197642">
        <ele>29.794</ele>
        <time>2018-08-17T14:45:54.757Z</time>
      </trkpt>
      <trkpt lat="48.3231838" lon="-1.8198946">
        <ele>30.394</ele>
        <time>2018-08-17T14:45:58.357Z</time>
      </trkpt>
      <trkpt lat="48.3232410" lon="-1.8200508">
        <ele>30.464</ele>
        <time>2018-08-17T14:46:01.856Z</time>
      </trkpt>
      <trkpt lat="48.3233057" lon="-1.8201870">
        <ele>29.851</ele>
        <time>2018-08-17T14:46:04.967Z</time>
      </trkpt>
      <trkpt lat="48.3233848" lon="-1.8203326">
        <ele>28.910</ele>
        <time>2018-08-17T14:46:08.448Z</time>
      </trkpt>
      <trkpt lat="48.3234508" lon="-1.8204776">
        <ele>28.413</ele>
        <time>2018-08-17T14:46:11.660Z</time>
      </trkpt>
      <trkpt lat="48.3235065" lon="-1.8206193">
        <ele>28.668</ele>
        <time>2018-08-17T14:46:14.535Z</time>
      </trkpt>
      <trkpt lat="48.3235780" lon="-1.8207718">
        <ele>29.204</ele>
        <time>2018-08-17T14:46:17.706Z</time>
      </trkpt>
      <trkpt lat="48.3236588" lon="-1.8209132">
        <ele>29.597</ele>
        <time>2018-08-17T14:46:20.844Z</time>
      </trkpt>
      <trkpt lat="48.3237486" lon="-1.8210347">
        <ele>29.842</ele>
        <time>2018-08-17T14:46:23.821Z</time>
      </trkpt>
      <trkpt lat="48.3238314" lon="-1.8211853">
        <ele>29.980</ele>
        <time>2018-08-17T14:46:26.983Z</time>
      </trkpt>
      <trkpt lat="48.3239018" lon="-1.8213494">
        <ele>30.054</ele>
        <time>2018-08-17T14:46:30.167Z</time>
      </trkpt>
      <trkpt lat="48.3239687" lon="-1.8215256">
        <ele>30.290</ele>
        <time>2018-08-17T14:46:33.563Z</time>
      </trkpt>
      <trkpt lat="48.3240521" lon="-1.8216717">
        <ele>30.947</ele>
        <time>2018-08-17T14:46:37.024Z</time>
      </trkpt>
      <trkpt lat="48.3241377" lon="-1.8218023">
        <ele>31.932</ele>
        <time>2018-08-17T14:46:40.650Z</time>
      </trkpt>
      <trkpt lat="48.3242121" lon="-1.8219011">
        <ele>32.907</ele>
        <time>2018-08-17T14:46:43.650Z</time>
      </trkpt>
      <trkpt lat="48.3242831" lon="-1.8219956">
        <ele>33.656</ele>
        <time>2018-08-17T14:46:46.405Z</time>
      </trkpt>
      <trkpt lat="48.3243406" lon="-1.8221303">
        <ele>34.155</ele>
        <time>2018-08-17T14:46:49.404Z</time>
      </trkpt>
      <trkpt lat="48.3244151" lon="-1.8222806">
        <ele>34.492</ele>
        <time>2018-08-17T14:46:53.172Z</time>
      </trkpt>
      <trkpt lat="48.3244769" lon="-1.8224355">
        <ele>34.675</ele>
        <time>2018-08-17T14:46:57.224Z</time>
      </trkpt>
      <trkpt lat="48.3245178" lon="-1.8225834">
        <ele>34.463</ele>
        <time>2018-08-17T14:47:00.932Z</time>
      </trkpt>
      <trkpt lat="48.3245827" lon="-1.8227189">
        <ele>33.839</ele>
        <time>2018-08-17T14:47:04.527Z</time>
      </trkpt>
      <trkpt lat="48.3246449" lon="-1.8228739">
        <ele>33.219</ele>
        <time>2018-08-17T14:47:08.376Z</time>
      </trkpt>
      <trkpt lat="48.3247055" lon="-1.8230162">
        <ele>32.733</ele>
        <time>2018-08-17T14:47:12.064Z</time>
      </trkpt>
      <trkpt lat="48.3247463" lon="-1.8231558">
        <ele>32.415</ele>
        <time>2018-08-17T14:47:15.462Z</time>
      </trkpt>
      <trkpt lat="48.3248285" lon="-1.8232805">
        <ele>32.552</ele>
        <time>2018-08-17T14:47:19.367Z</time>
      </trkpt>
      <trkpt lat="48.3249038" lon="-1.8233771">
        <ele>32.976</ele>
        <time>2018-08-17T14:47:22.633Z</time>
      </trkpt>
      <trkpt lat="48.3249518" lon="-1.8234935">
        <ele>32.950</ele>
        <time>2018-08-17T14:47:25.611Z</time>
      </trkpt>
      <trkpt lat="48.3250280" lon="-1.8236335">
        <ele>32.135</ele>
        <time>2018-08-17T14:47:29.406Z</time>
      </trkpt>
      <trkpt lat="48.3250936" lon="-1.8237336">
        <ele>30.905</ele>
        <time>2018-08-17T14:47:32.259Z</time>
      </trkpt>
      <trkpt lat="48.3251719" lon="-1.8238070">
        <ele>29.612</ele>
        <time>2018-08-17T14:47:35.026Z</time>
      </trkpt>
      <trkpt lat="48.3252394" lon="-1.8239197">
        <ele>28.345</ele>
        <time>2018-08-17T14:47:38.037Z</time>
      </trkpt>
      <trkpt lat="48.3253033" lon="-1.8240216">
        <ele>27.616</ele>
        <time>2018-08-17T14:47:40.863Z</time>
      </trkpt>
      <trkpt lat="48.3253792" lon="-1.8241358">
        <ele>27.884</ele>
        <time>2018-08-17T14:47:44.178Z</time>
      </trkpt>
      <trkpt lat="48.3254528" lon="-1.8242532">
        <ele>28.899</ele>
        <time>2018-08-17T14:47:47.503Z</time>
      </trkpt>
      <trkpt lat="48.3255064" lon="-1.8243672">
        <ele>30.167</ele>
        <time>2018-08-17T14:47:50.526Z</time>
      </trkpt>
      <trkpt lat="48.3255427" lon="-1.8245051">
        <ele>31.270</ele>
        <time>2018-08-17T14:47:53.859Z</time>
      </trkpt>
      <trkpt lat="48.3255795" lon="-1.8246381">
        <ele>31.916</ele>
        <time>2018-08-17T14:47:57.057Z</time>
      </trkpt>
      <trkpt lat="48.3256307" lon="-1.8247614">
        <ele>32.101</ele>
        <time>2018-08-17T14:48:00.304Z</time>
      </trkpt>
      <trkpt lat="48.3256839" lon="-1.8248756">
        <ele>32.132</ele>
        <time>2018-08-17T14:48:03.498Z</time>
      </trkpt>
      <trkpt lat="48.3257660" lon="-1.8249575">
        <ele>32.303</ele>
        <time>2018-08-17T14:48:06.981Z</time>
      </trkpt>
      <trkpt lat="48.3258588" lon="-1.8250495">
        <ele>33.051</ele>
        <time>2018-08-17T14:48:10.917Z</time>
      </trkpt>
      <trkpt lat="48.3259385" lon="-1.8251366">
        <ele>34.426</ele>
        <time>2018-08-17T14:48:14.465Z</time>
      </trkpt>
      <trkpt lat="48.3260069" lon="-1.8252644">
        <ele>35.715</ele>
        <time>2018-08-17T14:48:18.673Z</time>
      </trkpt>
      <trkpt lat="48.3260437" lon="-1.8254006">
        <ele>36.149</ele>
        <time>2018-08-17T14:48:22.531Z</time>
      </trkpt>
      <trkpt lat="48.3260979" lon="-1.8255266">
        <ele>35.764</ele>
        <time>2018-08-17T14:48:26.350Z</time>
      </trkpt>
      <trkpt lat="48.3261528" lon="-1.8256532">
        <ele>35.084</ele>
        <time>2018-08-17T14:48:30.117Z</time>
      </trkpt>
      <trkpt lat="48.3262134" lon="-1.8258042">
        <ele>34.275</ele>
        <time>2018-08-17T14:48:34.543Z</time>
      </trkpt>
      <trkpt lat="48.3262823" lon="-1.8259354">
        <ele>32.971</ele>
        <time>2018-08-17T14:48:38.871Z</time>
      </trkpt>
      <trkpt lat="48.3263550" lon="-1.8260483">
        <ele>31.383</ele>
        <time>2018-08-17T14:48:42.947Z</time>
      </trkpt>
      <trkpt lat="48.3264353" lon="-1.8261569">
        <ele>30.421</ele>
        <time>2018-08-17T14:48:47.477Z</time>
      </trkpt>
      <trkpt lat="48.3265177" lon="-1.8262480">
        <ele>30.588</ele>
        <time>2018-08-17T14:48:52.209Z</time>
      </trkpt>
      <trkpt lat="48.3265969" lon="-1.8263355">
        <ele>31.386</ele>
        <time>2018-08-17T14:48:56.585Z</time>
      </trkpt>
      <trkpt lat="48.3266625" lon="-1.8264413">
        <ele>32.022</ele>
        <time>2018-08-17T14:49:00.587Z</time>
      </trkpt>
      <trkpt lat="48.3267192" lon="-1.8265522">
        <ele>32.199</ele>
        <time>2018-08-17T14:49:04.429Z</time>
      </trkpt>
      <trkpt lat="48.3267772" lon="-1.8266780">
        <ele>32.111</ele>
        <time>2018-08-17T14:49:08.531Z</time>
      </trkpt>
      <trkpt lat="48.3268332" lon="-1.8267934">
        <ele>31.950</ele>
        <time>2018-08-17T14:49:12.114Z</time>
      </trkpt>
      <trkpt lat="48.3269113" lon="-1.8269051">
        <ele>31.709</ele>
        <time>2018-08-17T14:49:16.034Z</time>
      </trkpt>
      <trkpt lat="48.3270150" lon="-1.8269596">
        <ele>31.226</ele>
        <time>2018-08-17T14:49:20.210Z</time>
      </trkpt>
      <trkpt lat="48.3270968" lon="-1.8270154">
        <ele>30.372</ele>
        <time>2018-08-17T14:49:23.734Z</time>
      </trkpt>
      <trkpt lat="48.3271916" lon="-1.8271087">
        <ele>29.404</ele>
        <time>2018-08-17T14:49:28.054Z</time>
      </trkpt>
      <trkpt lat="48.3272683" lon="-1.8272354">
        <ele>28.836</ele>
        <time>2018-08-17T14:49:31.909Z</time>
      </trkpt>
      <trkpt lat="48.3273129" lon="-1.8273943">
        <ele>28.799</ele>
        <time>2018-08-17T14:49:35.564Z</time>
      </trkpt>
      <trkpt lat="48.3273578" lon="-1.8275877">
        <ele>28.994</ele>
        <time>2018-08-17T14:49:40.180Z</time>
      </trkpt>
      <trkpt lat="48.3273825" lon="-1.8277456">
        <ele>29.199</ele>
        <time>2018-08-17T14:49:44.226Z</time>
      </trkpt>
      <trkpt lat="48.3274418" lon="-1.8278967">
        <ele>29.750</ele>
        <time>2018-08-17T14:49:48.831Z</time>
      </trkpt>
      <trkpt lat="48.3274744" lon="-1.8280362">
        <ele>31.555</ele>
        <time>2018-08-17T14:49:52.749Z</time>
      </trkpt>
      <trkpt lat="48.3275499" lon="-1.8281157">
        <ele>34.501</ele>
        <time>2018-08-17T14:49:56.399Z</time>
      </trkpt>
      <trkpt lat="48.3276289" lon="-1.8282255">
        <ele>36.990</ele>
        <time>2018-08-17T14:50:00.582Z</time>
      </trkpt>
      <trkpt lat="48.3276936" lon="-1.8283496">
        <ele>37.834</ele>
        <time>2018-08-17T14:50:04.589Z</time>
      </trkpt>
      <trkpt lat="48.3277475" lon="-1.8284757">
        <ele>37.223</ele>
        <time>2018-08-17T14:50:08.332Z</time>
      </trkpt>
      <trkpt lat="48.3278320" lon="-1.8285827">
        <ele>35.727</ele>
        <time>2018-08-17T14:50:12.435Z</time>
      </trkpt>
      <trkpt lat="48.3279144" lon="-1.8286884">
        <ele>33.794</ele>
        <time>2018-08-17T14:50:16.835Z</time>
      </trkpt>
      <trkpt lat="48.3279710" lon="-1.8288205">
        <ele>31.336</ele>
        <time>2018-08-17T14:50:21.187Z</time>
      </trkpt>
      <trkpt lat="48.3280313" lon="-1.8289458">
        <ele>28.561</ele>
        <time>2018-08-17T14:50:25.298Z</time>
      </trkpt>
      <trkpt lat="48.3281070" lon="-1.8290554">
        <ele>26.475</ele>
        <time>2018-08-17T14:50:29.336Z</time>
      </trkpt>
      <trkpt lat="48.3281878" lon="-1.8291754">
        <ele>25.710</ele>
        <time>2018-08-17T14:50:33.598Z</time>
      </trkpt>
      <trkpt lat="48.3282632" lon="-1.8292815">
        <ele>25.790</ele>
        <time>2018-08-17T14:50:37.483Z</time>
      </trkpt>
      <trkpt lat="48.3283359" lon="-1.8293748">
        <ele>26.091</ele>
        <time>2018-08-17T14:50:41.075Z</time>
      </trkpt>
      <trkpt lat="48.3284089" lon="-1.8295105">
        <ele>26.277</ele>
        <time>2018-08-17T14:50:45.520Z</time>
      </trkpt>
      <trkpt lat="48.3284760" lon="-1.8296476">
        <ele>26.597</ele>
        <time>2018-08-17T14:50:50.209Z</time>
      </trkpt>
      <trkpt lat="48.3285593" lon="-1.8297488">
        <ele>27.279</ele>
        <time>2018-08-17T14:50:54.703Z</time>
      </trkpt>
      <trkpt lat="48.3286329" lon="-1.8298303">
        <ele>27.968</ele>
        <time>2018-08-17T14:50:58.302Z</time>
      </trkpt>
      <trkpt lat="48.3287133" lon="-1.8299187">
        <ele>28.339</ele>
        <time>2018-08-17T14:51:01.989Z</time>
      </trkpt>
      <trkpt lat="48.3288242" lon="-1.8299700">
        <ele>28.636</ele>
        <time>2018-08-17T14:51:06.087Z</time>
      </trkpt>
      <trkpt lat="48.3289256" lon="-1.8300291">
        <ele>29.042</ele>
        <time>2018-08-17T14:51:09.950Z</time>
      </trkpt>
      <trkpt lat="48.3290305" lon="-1.8300892">
        <ele>29.534</ele>
        <time>2018-08-17T14:51:14.137Z</time>
      </trkpt>
      <trkpt lat="48.3291282" lon="-1.8301779">
        <ele>30.137</ele>
        <time>2018-08-17T14:51:18.644Z</time>
      </trkpt>
      <trkpt lat="48.3292160" lon="-1.8302583">
        <ele>30.751</ele>
        <time>2018-08-17T14:51:22.335Z</time>
      </trkpt>
      <trkpt lat="48.3293139" lon="-1.8303077">
        <ele>31.210</ele>
        <time>2018-08-17T14:51:25.481Z</time>
      </trkpt>
      <trkpt lat="48.3294206" lon="-1.8303804">
        <ele>31.445</ele>
        <time>2018-08-17T14:51:28.871Z</time>
      </trkpt>
      <trkpt lat="48.3295220" lon="-1.8304732">
        <ele>31.402</ele>
        <time>2018-08-17T14:51:33.439Z</time>
      </trkpt>
      <trkpt lat="48.3296235" lon="-1.8304859">
        <ele>31.209</ele>
        <time>2018-08-17T14:51:37.996Z</time>
      </trkpt>
      <trkpt lat="48.3297162" lon="-1.8304898">
        <ele>31.130</ele>
        <time>2018-08-17T14:51:42.802Z</time>
      </trkpt>
      <trkpt lat="48.3298209" lon="-1.8305087">
        <ele>31.281</ele>
        <time>2018-08-17T14:51:47.499Z</time>
      </trkpt>
      <trkpt lat="48.3299218" lon="-1.8305360">
        <ele>31.771</ele>
        <time>2018-08-17T14:51:51.837Z</time>
      </trkpt>
      <trkpt lat="48.3300289" lon="-1.8305890">
        <ele>32.545</ele>
        <time>2018-08-17T14:51:56.559Z</time>
      </trkpt>
      <trkpt lat="48.3301277" lon="-1.8306118">
        <ele>33.465</ele>
        <time>2018-08-17T14:52:00.824Z</time>
      </trkpt>
      <trkpt lat="48.3302135" lon="-1.8306908">
        <ele>34.397</ele>
        <time>2018-08-17T14:52:05.207Z</time>
      </trkpt>
      <trkpt lat="48.3302975" lon="-1.8307497">
        <ele>34.231</ele>
        <time>2018-08-17T14:52:08.974Z</time>
      </trkpt>
      <trkpt lat="48.3303839" lon="-1.8308336">
        <ele>32.017</ele>
        <time>2018-08-17T14:52:13.177Z</time>
      </trkpt>
      <trkpt lat="48.3304817" lon="-1.8308791">
        <ele>29.070</ele>
        <time>2018-08-17T14:52:17.593Z</time>
      </trkpt>
      <trkpt lat="48.3305668" lon="-1.8309630">
        <ele>27.261</ele>
        <time>2018-08-17T14:52:21.757Z</time>
      </trkpt>
      <trkpt lat="48.3306730" lon="-1.8310364">
        <ele>26.811</ele>
        <time>2018-08-17T14:52:26.385Z</time>
      </trkpt>
      <trkpt lat="48.3307570" lon="-1.8311232">
        <ele>27.028</ele>
        <time>2018-08-17T14:52:30.452Z</time>
      </trkpt>
      <trkpt lat="48.3308467" lon="-1.8312059">
        <ele>27.285</ele>
        <time>2018-08-17T14:52:34.848Z</time>
      </trkpt>
      <trkpt lat="48.3309330" lon="-1.8312507">
        <ele>27.068</ele>
        <time>2018-08-17T14:52:38.950Z</time>
      </trkpt>
      <trkpt lat="48.3310189" lon="-1.8313432">
        <ele>26.219</ele>
        <time>2018-08-17T14:52:43.919Z</time>
      </trkpt>
      <trkpt lat="48.3311194" lon="-1.8313543">
        <ele>24.361</ele>
        <time>2018-08-17T14:52:48.850Z</time>
      </trkpt>
      <trkpt lat="48.3312315" lon="-1.8314479">
        <ele>21.245</ele>
        <time>2018-08-17T14:52:54.249Z</time>
      </trkpt>
      <trkpt lat="48.3313124" lon="-1.8315489">
        <ele>18.088</ele>
        <time>2018-08-17T14:52:57.262Z</time>
      </trkpt>
      <trkpt lat="48.3314761" lon="-1.8317319">
        <ele>15.990</ele>
        <time>2018-08-17T14:53:01.067Z</time>
      </trkpt>
      <trkpt lat="48.3315581" lon="-1.8318576">
        <ele>14.614</ele>
        <time>2018-08-17T14:53:03.124Z</time>
      </trkpt>
      <trkpt lat="48.3316718" lon="-1.8319966">
        <ele>14.018</ele>
        <time>2018-08-17T14:53:05.864Z</time>
      </trkpt>
      <trkpt lat="48.3317963" lon="-1.8321379">
        <ele>14.722</ele>
        <time>2018-08-17T14:53:09.097Z</time>
      </trkpt>
      <trkpt lat="48.3318507" lon="-1.8323248">
        <ele>16.308</ele>
        <time>2018-08-17T14:53:12.161Z</time>
      </trkpt>
      <trkpt lat="48.3319213" lon="-1.8325335">
        <ele>17.873</ele>
        <time>2018-08-17T14:53:16.259Z</time>
      </trkpt>
      <trkpt lat="48.3319608" lon="-1.8326616">
        <ele>19.222</ele>
        <time>2018-08-17T14:53:18.939Z</time>
      </trkpt>
      <trkpt lat="48.3319948" lon="-1.8327968">
        <ele>20.946</ele>
        <time>2018-08-17T14:53:22.042Z</time>
      </trkpt>
      <trkpt lat="48.3320356" lon="-1.8329444">
        <ele>23.597</ele>
        <time>2018-08-17T14:53:25.984Z</time>
      </trkpt>
      <trkpt lat="48.3320640" lon="-1.8330748">
        <ele>26.644</ele>
        <time>2018-08-17T14:53:29.725Z</time>
      </trkpt>
      <trkpt lat="48.3320932" lon="-1.8332072">
        <ele>28.736</ele>
        <time>2018-08-17T14:53:33.652Z</time>
      </trkpt>
      <trkpt lat="48.3321260" lon="-1.8333386">
        <ele>29.431</ele>
        <time>2018-08-17T14:53:38.000Z</time>
      </trkpt>
      <trkpt lat="48.3321260" lon="-1.8333386">
        <ele>29.419</ele>
        <time>2018-08-17T14:53:47.000Z</time>
      </trkpt>
      <trkpt lat="48.3321260" lon="-1.8333386">
        <ele>29.337</ele>
        <time>2018-08-17T14:54:12.083Z</time>
      </trkpt>
      <trkpt lat="48.3322011" lon="-1.8336646">
        <ele>29.345</ele>
        <time>2018-08-17T14:54:27.531Z</time>
      </trkpt>
      <trkpt lat="48.3322331" lon="-1.8338224">
        <ele>29.988</ele>
        <time>2018-08-17T14:54:31.703Z</time>
      </trkpt>
      <trkpt lat="48.3322782" lon="-1.8339815">
        <ele>31.615</ele>
        <time>2018-08-17T14:54:35.747Z</time>
      </trkpt>
      <trkpt lat="48.3323339" lon="-1.8341435">
        <ele>33.625</ele>
        <time>2018-08-17T14:54:40.058Z</time>
      </trkpt>
      <trkpt lat="48.3323782" lon="-1.8342871">
        <ele>35.305</ele>
        <time>2018-08-17T14:54:44.050Z</time>
      </trkpt>
      <trkpt lat="48.3324367" lon="-1.8344122">
        <ele>36.139</ele>
        <time>2018-08-17T14:54:48.110Z</time>
      </trkpt>
      <trkpt lat="48.3324987" lon="-1.8345307">
        <ele>35.921</ele>
        <time>2018-08-17T14:54:52.275Z</time>
      </trkpt>
      <trkpt lat="48.3325484" lon="-1.8346674">
        <ele>35.318</ele>
        <time>2018-08-17T14:54:56.408Z</time>
      </trkpt>
      <trkpt lat="48.3326060" lon="-1.8347958">
        <ele>34.890</ele>
        <time>2018-08-17T14:55:00.368Z</time>
      </trkpt>
      <trkpt lat="48.3326709" lon="-1.8349115">
        <ele>34.664</ele>
        <time>2018-08-17T14:55:04.180Z</time>
      </trkpt>
      <trkpt lat="48.3327589" lon="-1.8350035">
        <ele>34.384</ele>
        <time>2018-08-17T14:55:08.216Z</time>
      </trkpt>
      <trkpt lat="48.3328522" lon="-1.8350834">
        <ele>33.798</ele>
        <time>2018-08-17T14:55:12.234Z</time>
      </trkpt>
      <trkpt lat="48.3329454" lon="-1.8351224">
        <ele>32.722</ele>
        <time>2018-08-17T14:55:15.751Z</time>
      </trkpt>
      <trkpt lat="48.3330470" lon="-1.8351722">
        <ele>31.035</ele>
        <time>2018-08-17T14:55:19.638Z</time>
      </trkpt>
      <trkpt lat="48.3331452" lon="-1.8352423">
        <ele>29.164</ele>
        <time>2018-08-17T14:55:23.692Z</time>
      </trkpt>
      <trkpt lat="48.3332443" lon="-1.8353194">
        <ele>28.354</ele>
        <time>2018-08-17T14:55:27.945Z</time>
      </trkpt>
      <trkpt lat="48.3333350" lon="-1.8353827">
        <ele>29.460</ele>
        <time>2018-08-17T14:55:31.808Z</time>
      </trkpt>
      <trkpt lat="48.3334315" lon="-1.8354221">
        <ele>31.725</ele>
        <time>2018-08-17T14:55:35.517Z</time>
      </trkpt>
      <trkpt lat="48.3335207" lon="-1.8354517">
        <ele>33.741</ele>
        <time>2018-08-17T14:55:38.841Z</time>
      </trkpt>
      <trkpt lat="48.3336121" lon="-1.8354558">
        <ele>35.074</ele>
        <time>2018-08-17T14:55:42.550Z</time>
      </trkpt>
      <trkpt lat="48.3337138" lon="-1.8354869">
        <ele>35.924</ele>
        <time>2018-08-17T14:55:47.066Z</time>
      </trkpt>
      <trkpt lat="48.3338246" lon="-1.8354474">
        <ele>36.329</ele>
        <time>2018-08-17T14:55:52.208Z</time>
      </trkpt>
      <trkpt lat="48.3339211" lon="-1.8354230">
        <ele>36.068</ele>
        <time>2018-08-17T14:55:56.237Z</time>
      </trkpt>
      <trkpt lat="48.3340221" lon="-1.8353894">
        <ele>34.940</ele>
        <time>2018-08-17T14:56:00.141Z</time>
      </trkpt>
      <trkpt lat="48.3341125" lon="-1.8353381">
        <ele>32.676</ele>
        <time>2018-08-17T14:56:03.827Z</time>
      </trkpt>
      <trkpt lat="48.3342161" lon="-1.8352974">
        <ele>29.530</ele>
        <time>2018-08-17T14:56:07.821Z</time>
      </trkpt>
      <trkpt lat="48.3343145" lon="-1.8352577">
        <ele>26.724</ele>
        <time>2018-08-17T14:56:11.090Z</time>
      </trkpt>
      <trkpt lat="48.3344310" lon="-1.8352387">
        <ele>24.681</ele>
        <time>2018-08-17T14:56:14.457Z</time>
      </trkpt>
      <trkpt lat="48.3345448" lon="-1.8352155">
        <ele>22.846</ele>
        <time>2018-08-17T14:56:17.868Z</time>
      </trkpt>
      <trkpt lat="48.3346494" lon="-1.8351709">
        <ele>21.569</ele>
        <time>2018-08-17T14:56:21.572Z</time>
      </trkpt>
      <trkpt lat="48.3347462" lon="-1.8351221">
        <ele>21.493</ele>
        <time>2018-08-17T14:56:25.454Z</time>
      </trkpt>
      <trkpt lat="48.3348283" lon="-1.8350635">
        <ele>22.403</ele>
        <time>2018-08-17T14:56:29.130Z</time>
      </trkpt>
      <trkpt lat="48.3349298" lon="-1.8350286">
        <ele>23.614</ele>
        <time>2018-08-17T14:56:33.071Z</time>
      </trkpt>
      <trkpt lat="48.3350274" lon="-1.8349689">
        <ele>24.579</ele>
        <time>2018-08-17T14:56:36.841Z</time>
      </trkpt>
      <trkpt lat="48.3351094" lon="-1.8348982">
        <ele>25.301</ele>
        <time>2018-08-17T14:56:40.222Z</time>
      </trkpt>
      <trkpt lat="48.3352089" lon="-1.8348563">
        <ele>26.149</ele>
        <time>2018-08-17T14:56:43.923Z</time>
      </trkpt>
      <trkpt lat="48.3353002" lon="-1.8348172">
        <ele>27.349</ele>
        <time>2018-08-17T14:56:47.310Z</time>
      </trkpt>
      <trkpt lat="48.3354090" lon="-1.8348077">
        <ele>28.650</ele>
        <time>2018-08-17T14:56:51.207Z</time>
      </trkpt>
      <trkpt lat="48.3355083" lon="-1.8347968">
        <ele>29.613</ele>
        <time>2018-08-17T14:56:54.762Z</time>
      </trkpt>
      <trkpt lat="48.3356071" lon="-1.8347710">
        <ele>30.087</ele>
        <time>2018-08-17T14:56:58.437Z</time>
      </trkpt>
      <trkpt lat="48.3357106" lon="-1.8347564">
        <ele>30.230</ele>
        <time>2018-08-17T14:57:02.251Z</time>
      </trkpt>
      <trkpt lat="48.3358136" lon="-1.8347411">
        <ele>30.234</ele>
        <time>2018-08-17T14:57:05.993Z</time>
      </trkpt>
      <trkpt lat="48.3359252" lon="-1.8347647">
        <ele>30.395</ele>
        <time>2018-08-17T14:57:10.251Z</time>
      </trkpt>
      <trkpt lat="48.3360255" lon="-1.8347827">
        <ele>30.964</ele>
        <time>2018-08-17T14:57:14.326Z</time>
      </trkpt>
      <trkpt lat="48.3361361" lon="-1.8348181">
        <ele>31.738</ele>
        <time>2018-08-17T14:57:18.922Z</time>
      </trkpt>
      <trkpt lat="48.3362233" lon="-1.8348600">
        <ele>32.488</ele>
        <time>2018-08-17T14:57:22.456Z</time>
      </trkpt>
      <trkpt lat="48.3363193" lon="-1.8348752">
        <ele>33.020</ele>
        <time>2018-08-17T14:57:26.150Z</time>
      </trkpt>
      <trkpt lat="48.3364118" lon="-1.8349221">
        <ele>32.834</ele>
        <time>2018-08-17T14:57:29.998Z</time>
      </trkpt>
      <trkpt lat="48.3364995" lon="-1.8350045">
        <ele>31.950</ele>
        <time>2018-08-17T14:57:34.135Z</time>
      </trkpt>
      <trkpt lat="48.3365850" lon="-1.8351061">
        <ele>31.079</ele>
        <time>2018-08-17T14:57:38.530Z</time>
      </trkpt>
      <trkpt lat="48.3366750" lon="-1.8352076">
        <ele>30.720</ele>
        <time>2018-08-17T14:57:42.971Z</time>
      </trkpt>
      <trkpt lat="48.3367607" lon="-1.8352900">
        <ele>30.810</ele>
        <time>2018-08-17T14:57:46.943Z</time>
      </trkpt>
      <trkpt lat="48.3368375" lon="-1.8353933">
        <ele>31.103</ele>
        <time>2018-08-17T14:57:51.110Z</time>
      </trkpt>
      <trkpt lat="48.3369069" lon="-1.8354881">
        <ele>31.440</ele>
        <time>2018-08-17T14:57:54.915Z</time>
      </trkpt>
      <trkpt lat="48.3369939" lon="-1.8355961">
        <ele>31.790</ele>
        <time>2018-08-17T14:57:59.420Z</time>
      </trkpt>
      <trkpt lat="48.3370483" lon="-1.8357049">
        <ele>32.197</ele>
        <time>2018-08-17T14:58:02.944Z</time>
      </trkpt>
      <trkpt lat="48.3371234" lon="-1.8358339">
        <ele>32.735</ele>
        <time>2018-08-17T14:58:07.138Z</time>
      </trkpt>
      <trkpt lat="48.3372125" lon="-1.8359445">
        <ele>33.268</ele>
        <time>2018-08-17T14:58:11.210Z</time>
      </trkpt>
      <trkpt lat="48.3372832" lon="-1.8360451">
        <ele>33.774</ele>
        <time>2018-08-17T14:58:14.564Z</time>
      </trkpt>
      <trkpt lat="48.3373682" lon="-1.8361516">
        <ele>34.329</ele>
        <time>2018-08-17T14:58:18.422Z</time>
      </trkpt>
      <trkpt lat="48.3374467" lon="-1.8362656">
        <ele>34.701</ele>
        <time>2018-08-17T14:58:22.316Z</time>
      </trkpt>
      <trkpt lat="48.3375172" lon="-1.8363863">
        <ele>34.618</ele>
        <time>2018-08-17T14:58:26.117Z</time>
      </trkpt>
      <trkpt lat="48.3375861" lon="-1.8364857">
        <ele>34.138</ele>
        <time>2018-08-17T14:58:29.516Z</time>
      </trkpt>
      <trkpt lat="48.3376643" lon="-1.8365853">
        <ele>33.512</ele>
        <time>2018-08-17T14:58:33.309Z</time>
      </trkpt>
      <trkpt lat="48.3377494" lon="-1.8366915">
        <ele>33.033</ele>
        <time>2018-08-17T14:58:37.473Z</time>
      </trkpt>
      <trkpt lat="48.3378366" lon="-1.8367951">
        <ele>32.951</ele>
        <time>2018-08-17T14:58:41.439Z</time>
      </trkpt>
      <trkpt lat="48.3379204" lon="-1.8368577">
        <ele>33.122</ele>
        <time>2018-08-17T14:58:44.661Z</time>
      </trkpt>
      <trkpt lat="48.3380027" lon="-1.8369415">
        <ele>33.049</ele>
        <time>2018-08-17T14:58:48.285Z</time>
      </trkpt>
      <trkpt lat="48.3381126" lon="-1.8369962">
        <ele>32.362</ele>
        <time>2018-08-17T14:58:52.802Z</time>
      </trkpt>
      <trkpt lat="48.3382156" lon="-1.8370713">
        <ele>31.305</ele>
        <time>2018-08-17T14:58:57.351Z</time>
      </trkpt>
      <trkpt lat="48.3383328" lon="-1.8371029">
        <ele>30.696</ele>
        <time>2018-08-17T14:59:01.924Z</time>
      </trkpt>
      <trkpt lat="48.3384293" lon="-1.8370990">
        <ele>31.041</ele>
        <time>2018-08-17T14:59:05.423Z</time>
      </trkpt>
      <trkpt lat="48.3385402" lon="-1.8370850">
        <ele>31.765</ele>
        <time>2018-08-17T14:59:09.355Z</time>
      </trkpt>
      <trkpt lat="48.3386424" lon="-1.8370638">
        <ele>32.117</ele>
        <time>2018-08-17T14:59:12.970Z</time>
      </trkpt>
      <trkpt lat="48.3387508" lon="-1.8370404">
        <ele>31.974</ele>
        <time>2018-08-17T14:59:16.628Z</time>
      </trkpt>
      <trkpt lat="48.3388650" lon="-1.8370258">
        <ele>31.606</ele>
        <time>2018-08-17T14:59:20.175Z</time>
      </trkpt>
      <trkpt lat="48.3389596" lon="-1.8369967">
        <ele>31.359</ele>
        <time>2018-08-17T14:59:23.110Z</time>
      </trkpt>
      <trkpt lat="48.3390466" lon="-1.8369452">
        <ele>31.462</ele>
        <time>2018-08-17T14:59:26.010Z</time>
      </trkpt>
      <trkpt lat="48.3391504" lon="-1.8368760">
        <ele>31.789</ele>
        <time>2018-08-17T14:59:29.708Z</time>
      </trkpt>
      <trkpt lat="48.3392290" lon="-1.8368054">
        <ele>32.030</ele>
        <time>2018-08-17T14:59:32.791Z</time>
      </trkpt>
      <trkpt lat="48.3393085" lon="-1.8367277">
        <ele>31.968</ele>
        <time>2018-08-17T14:59:36.052Z</time>
      </trkpt>
      <trkpt lat="48.3393905" lon="-1.8366627">
        <ele>31.539</ele>
        <time>2018-08-17T14:59:39.373Z</time>
      </trkpt>
      <trkpt lat="48.3394783" lon="-1.8365819">
        <ele>30.813</ele>
        <time>2018-08-17T14:59:43.417Z</time>
      </trkpt>
      <trkpt lat="48.3395624" lon="-1.8365092">
        <ele>30.049</ele>
        <time>2018-08-17T14:59:47.423Z</time>
      </trkpt>
      <trkpt lat="48.3396528" lon="-1.8364365">
        <ele>29.547</ele>
        <time>2018-08-17T14:59:51.179Z</time>
      </trkpt>
      <trkpt lat="48.3397400" lon="-1.8363678">
        <ele>29.616</ele>
        <time>2018-08-17T14:59:54.502Z</time>
      </trkpt>
      <trkpt lat="48.3398228" lon="-1.8362863">
        <ele>30.230</ele>
        <time>2018-08-17T14:59:57.896Z</time>
      </trkpt>
      <trkpt lat="48.3399189" lon="-1.8362182">
        <ele>30.895</ele>
        <time>2018-08-17T15:00:02.012Z</time>
      </trkpt>
      <trkpt lat="48.3399956" lon="-1.8361421">
        <ele>31.050</ele>
        <time>2018-08-17T15:00:06.058Z</time>
      </trkpt>
      <trkpt lat="48.3400918" lon="-1.8361079">
        <ele>30.660</ele>
        <time>2018-08-17T15:00:10.406Z</time>
      </trkpt>
      <trkpt lat="48.3401955" lon="-1.8360929">
        <ele>30.216</ele>
        <time>2018-08-17T15:00:14.313Z</time>
      </trkpt>
      <trkpt lat="48.3402941" lon="-1.8360576">
        <ele>30.110</ele>
        <time>2018-08-17T15:00:17.825Z</time>
      </trkpt>
      <trkpt lat="48.3403833" lon="-1.8359957">
        <ele>30.220</ele>
        <time>2018-08-17T15:00:21.175Z</time>
      </trkpt>
      <trkpt lat="48.3404642" lon="-1.8359368">
        <ele>30.431</ele>
        <time>2018-08-17T15:00:24.272Z</time>
      </trkpt>
      <trkpt lat="48.3405484" lon="-1.8358769">
        <ele>30.744</ele>
        <time>2018-08-17T15:00:27.515Z</time>
      </trkpt>
      <trkpt lat="48.3406367" lon="-1.8358272">
        <ele>31.026</ele>
        <time>2018-08-17T15:00:30.998Z</time>
      </trkpt>
      <trkpt lat="48.3406367" lon="-1.8358272">
        <ele>31.136</ele>
        <time>2018-08-17T15:00:43.000Z</time>
      </trkpt>
      <trkpt lat="48.3406367" lon="-1.8358272">
        <ele>31.107</ele>
        <time>2018-08-17T15:01:47.292Z</time>
      </trkpt>
      <trkpt lat="48.3408331" lon="-1.8357204">
        <ele>31.052</ele>
        <time>2018-08-17T15:02:02.619Z</time>
      </trkpt>
      <trkpt lat="48.3409404" lon="-1.8356873">
        <ele>31.359</ele>
        <time>2018-08-17T15:02:07.610Z</time>
      </trkpt>
      <trkpt lat="48.3410392" lon="-1.8356499">
        <ele>32.393</ele>
        <time>2018-08-17T15:02:12.087Z</time>
      </trkpt>
      <trkpt lat="48.3411358" lon="-1.8356299">
        <ele>34.074</ele>
        <time>2018-08-17T15:02:16.042Z</time>
      </trkpt>
      <trkpt lat="48.3412349" lon="-1.8356034">
        <ele>36.097</ele>
        <time>2018-08-17T15:02:19.980Z</time>
      </trkpt>
      <trkpt lat="48.3413391" lon="-1.8355800">
        <ele>38.034</ele>
        <time>2018-08-17T15:02:23.891Z</time>
      </trkpt>
      <trkpt lat="48.3414473" lon="-1.8355455">
        <ele>39.502</ele>
        <time>2018-08-17T15:02:28.138Z</time>
      </trkpt>
      <trkpt lat="48.3415389" lon="-1.8355155">
        <ele>40.442</ele>
        <time>2018-08-17T15:02:31.775Z</time>
      </trkpt>
      <trkpt lat="48.3416522" lon="-1.8354941">
        <ele>40.803</ele>
        <time>2018-08-17T15:02:35.952Z</time>
      </trkpt>
      <trkpt lat="48.3417454" lon="-1.8354733">
        <ele>40.534</ele>
        <time>2018-08-17T15:02:39.474Z</time>
      </trkpt>
      <trkpt lat="48.3418358" lon="-1.8354504">
        <ele>39.525</ele>
        <time>2018-08-17T15:02:42.756Z</time>
      </trkpt>
      <trkpt lat="48.3419255" lon="-1.8354267">
        <ele>37.967</ele>
        <time>2018-08-17T15:02:45.856Z</time>
      </trkpt>
      <trkpt lat="48.3420204" lon="-1.8354073">
        <ele>36.870</ele>
        <time>2018-08-17T15:02:49.103Z</time>
      </trkpt>
      <trkpt lat="48.3421088" lon="-1.8353812">
        <ele>36.865</ele>
        <time>2018-08-17T15:02:52.226Z</time>
      </trkpt>
      <trkpt lat="48.3422209" lon="-1.8353586">
        <ele>37.240</ele>
        <time>2018-08-17T15:02:56.402Z</time>
      </trkpt>
      <trkpt lat="48.3423383" lon="-1.8353449">
        <ele>36.951</ele>
        <time>2018-08-17T15:03:01.074Z</time>
      </trkpt>
      <trkpt lat="48.3424344" lon="-1.8353264">
        <ele>35.832</ele>
        <time>2018-08-17T15:03:04.803Z</time>
      </trkpt>
      <trkpt lat="48.3425493" lon="-1.8353177">
        <ele>34.392</ele>
        <time>2018-08-17T15:03:09.028Z</time>
      </trkpt>
      <trkpt lat="48.3426591" lon="-1.8353313">
        <ele>33.094</ele>
        <time>2018-08-17T15:03:13.138Z</time>
      </trkpt>
      <trkpt lat="48.3427500" lon="-1.8353453">
        <ele>32.269</ele>
        <time>2018-08-17T15:03:16.762Z</time>
      </trkpt>
      <trkpt lat="48.3428613" lon="-1.8353542">
        <ele>32.363</ele>
        <time>2018-08-17T15:03:21.277Z</time>
      </trkpt>
      <trkpt lat="48.3429625" lon="-1.8353474">
        <ele>33.290</ele>
        <time>2018-08-17T15:03:25.262Z</time>
      </trkpt>
      <trkpt lat="48.3430704" lon="-1.8353381">
        <ele>34.231</ele>
        <time>2018-08-17T15:03:29.583Z</time>
      </trkpt>
      <trkpt lat="48.3431792" lon="-1.8353319">
        <ele>34.559</ele>
        <time>2018-08-17T15:03:34.122Z</time>
      </trkpt>
      <trkpt lat="48.3432810" lon="-1.8353417">
        <ele>34.450</ele>
        <time>2018-08-17T15:03:38.208Z</time>
      </trkpt>
      <trkpt lat="48.3433994" lon="-1.8353614">
        <ele>34.518</ele>
        <time>2018-08-17T15:03:42.805Z</time>
      </trkpt>
      <trkpt lat="48.3434986" lon="-1.8353776">
        <ele>35.468</ele>
        <time>2018-08-17T15:03:46.780Z</time>
      </trkpt>
      <trkpt lat="48.3436131" lon="-1.8353798">
        <ele>37.256</ele>
        <time>2018-08-17T15:03:51.328Z</time>
      </trkpt>
      <trkpt lat="48.3437185" lon="-1.8353734">
        <ele>38.945</ele>
        <time>2018-08-17T15:03:55.274Z</time>
      </trkpt>
      <trkpt lat="48.3438311" lon="-1.8353885">
        <ele>39.429</ele>
        <time>2018-08-17T15:03:59.238Z</time>
      </trkpt>
      <trkpt lat="48.3439471" lon="-1.8354085">
        <ele>38.386</ele>
        <time>2018-08-17T15:04:03.162Z</time>
      </trkpt>
      <trkpt lat="48.3440645" lon="-1.8354178">
        <ele>36.540</ele>
        <time>2018-08-17T15:04:07.098Z</time>
      </trkpt>
      <trkpt lat="48.3441552" lon="-1.8354229">
        <ele>34.725</ele>
        <time>2018-08-17T15:04:10.180Z</time>
      </trkpt>
      <trkpt lat="48.3442685" lon="-1.8354211">
        <ele>33.288</ele>
        <time>2018-08-17T15:04:14.145Z</time>
      </trkpt>
      <trkpt lat="48.3443805" lon="-1.8354200">
        <ele>32.116</ele>
        <time>2018-08-17T15:04:18.249Z</time>
      </trkpt>
      <trkpt lat="48.3444900" lon="-1.8354203">
        <ele>30.922</ele>
        <time>2018-08-17T15:04:22.652Z</time>
      </trkpt>
      <trkpt lat="48.3445938" lon="-1.8354188">
        <ele>29.876</ele>
        <time>2018-08-17T15:04:27.209Z</time>
      </trkpt>
      <trkpt lat="48.3446947" lon="-1.8354251">
        <ele>29.316</ele>
        <time>2018-08-17T15:04:31.227Z</time>
      </trkpt>
      <trkpt lat="48.3447879" lon="-1.8354098">
        <ele>29.169</ele>
        <time>2018-08-17T15:04:33.993Z</time>
      </trkpt>
      <trkpt lat="48.3448944" lon="-1.8353914">
        <ele>29.112</ele>
        <time>2018-08-17T15:04:36.428Z</time>
      </trkpt>
      <trkpt lat="48.3450134" lon="-1.8354051">
        <ele>28.905</ele>
        <time>2018-08-17T15:04:38.860Z</time>
      </trkpt>
      <trkpt lat="48.3451171" lon="-1.8354078">
        <ele>28.615</ele>
        <time>2018-08-17T15:04:40.948Z</time>
      </trkpt>
      <trkpt lat="48.3452110" lon="-1.8354197">
        <ele>28.413</ele>
        <time>2018-08-17T15:04:42.850Z</time>
      </trkpt>
      <trkpt lat="48.3453631" lon="-1.8354501">
        <ele>28.349</ele>
        <time>2018-08-17T15:04:46.333Z</time>
      </trkpt>
      <trkpt lat="48.3454980" lon="-1.8354882">
        <ele>28.514</ele>
        <time>2018-08-17T15:04:50.107Z</time>
      </trkpt>
      <trkpt lat="48.3455939" lon="-1.8355781">
        <ele>28.913</ele>
        <time>2018-08-17T15:04:53.608Z</time>
      </trkpt>
      <trkpt lat="48.3456773" lon="-1.8356568">
        <ele>29.313</ele>
        <time>2018-08-17T15:04:56.834Z</time>
      </trkpt>
      <trkpt lat="48.3457567" lon="-1.8357241">
        <ele>29.482</ele>
        <time>2018-08-17T15:04:59.922Z</time>
      </trkpt>
      <trkpt lat="48.3458517" lon="-1.8358255">
        <ele>29.329</ele>
        <time>2018-08-17T15:05:03.893Z</time>
      </trkpt>
      <trkpt lat="48.3459447" lon="-1.8359213">
        <ele>28.806</ele>
        <time>2018-08-17T15:05:07.681Z</time>
      </trkpt>
      <trkpt lat="48.3460440" lon="-1.8360108">
        <ele>28.102</ele>
        <time>2018-08-17T15:05:11.622Z</time>
      </trkpt>
      <trkpt lat="48.3461218" lon="-1.8360794">
        <ele>27.558</ele>
        <time>2018-08-17T15:05:14.716Z</time>
      </trkpt>
      <trkpt lat="48.3462229" lon="-1.8361648">
        <ele>27.334</ele>
        <time>2018-08-17T15:05:18.636Z</time>
      </trkpt>
      <trkpt lat="48.3463235" lon="-1.8362486">
        <ele>27.392</ele>
        <time>2018-08-17T15:05:22.611Z</time>
      </trkpt>
      <trkpt lat="48.3464305" lon="-1.8363165">
        <ele>27.639</ele>
        <time>2018-08-17T15:05:26.603Z</time>
      </trkpt>
      <trkpt lat="48.3465385" lon="-1.8363648">
        <ele>27.987</ele>
        <time>2018-08-17T15:05:30.511Z</time>
      </trkpt>
      <trkpt lat="48.3466520" lon="-1.8363902">
        <ele>28.459</ele>
        <time>2018-08-17T15:05:34.692Z</time>
      </trkpt>
      <trkpt lat="48.3467517" lon="-1.8364089">
        <ele>29.016</ele>
        <time>2018-08-17T15:05:38.416Z</time>
      </trkpt>
      <trkpt lat="48.3468506" lon="-1.8364291">
        <ele>29.788</ele>
        <time>2018-08-17T15:05:42.162Z</time>
      </trkpt>
      <trkpt lat="48.3469498" lon="-1.8364416">
        <ele>30.870</ele>
        <time>2018-08-17T15:05:45.919Z</time>
      </trkpt>
      <trkpt lat="48.3470501" lon="-1.8364412">
        <ele>31.678</ele>
        <time>2018-08-17T15:05:49.722Z</time>
      </trkpt>
      <trkpt lat="48.3471512" lon="-1.8364342">
        <ele>31.661</ele>
        <time>2018-08-17T15:05:53.554Z</time>
      </trkpt>
      <trkpt lat="48.3472459" lon="-1.8364071">
        <ele>31.145</ele>
        <time>2018-08-17T15:05:57.147Z</time>
      </trkpt>
      <trkpt lat="48.3473422" lon="-1.8363696">
        <ele>30.653</ele>
        <time>2018-08-17T15:06:00.775Z</time>
      </trkpt>
      <trkpt lat="48.3474432" lon="-1.8363130">
        <ele>30.427</ele>
        <time>2018-08-17T15:06:04.623Z</time>
      </trkpt>
      <trkpt lat="48.3475475" lon="-1.8362556">
        <ele>30.472</ele>
        <time>2018-08-17T15:06:08.528Z</time>
      </trkpt>
      <trkpt lat="48.3476525" lon="-1.8361923">
        <ele>30.619</ele>
        <time>2018-08-17T15:06:12.491Z</time>
      </trkpt>
      <trkpt lat="48.3477567" lon="-1.8361391">
        <ele>30.693</ele>
        <time>2018-08-17T15:06:16.360Z</time>
      </trkpt>
      <trkpt lat="48.3478646" lon="-1.8360891">
        <ele>30.677</ele>
        <time>2018-08-17T15:06:20.382Z</time>
      </trkpt>
      <trkpt lat="48.3479726" lon="-1.8360416">
        <ele>30.675</ele>
        <time>2018-08-17T15:06:24.463Z</time>
      </trkpt>
      <trkpt lat="48.3480763" lon="-1.8359933">
        <ele>30.738</ele>
        <time>2018-08-17T15:06:28.423Z</time>
      </trkpt>
      <trkpt lat="48.3481830" lon="-1.8359420">
        <ele>30.658</ele>
        <time>2018-08-17T15:06:32.561Z</time>
      </trkpt>
      <trkpt lat="48.3482837" lon="-1.8358964">
        <ele>30.283</ele>
        <time>2018-08-17T15:06:36.671Z</time>
      </trkpt>
      <trkpt lat="48.3483792" lon="-1.8358601">
        <ele>29.927</ele>
        <time>2018-08-17T15:06:40.848Z</time>
      </trkpt>
      <trkpt lat="48.3484827" lon="-1.8358427">
        <ele>29.886</ele>
        <time>2018-08-17T15:06:45.641Z</time>
      </trkpt>
      <trkpt lat="48.3485848" lon="-1.8358260">
        <ele>30.129</ele>
        <time>2018-08-17T15:06:50.250Z</time>
      </trkpt>
      <trkpt lat="48.3486816" lon="-1.8358266">
        <ele>30.602</ele>
        <time>2018-08-17T15:06:54.544Z</time>
      </trkpt>
      <trkpt lat="48.3487924" lon="-1.8358092">
        <ele>31.235</ele>
        <time>2018-08-17T15:06:59.462Z</time>
      </trkpt>
      <trkpt lat="48.3488908" lon="-1.8358055">
        <ele>31.830</ele>
        <time>2018-08-17T15:07:03.636Z</time>
      </trkpt>
      <trkpt lat="48.3489920" lon="-1.8358225">
        <ele>32.094</ele>
        <time>2018-08-17T15:07:07.851Z</time>
      </trkpt>
      <trkpt lat="48.3490948" lon="-1.8358403">
        <ele>31.941</ele>
        <time>2018-08-17T15:07:12.139Z</time>
      </trkpt>
      <trkpt lat="48.3491886" lon="-1.8358559">
        <ele>31.492</ele>
        <time>2018-08-17T15:07:16.233Z</time>
      </trkpt>
      <trkpt lat="48.3492790" lon="-1.8358733">
        <ele>30.813</ele>
        <time>2018-08-17T15:07:20.460Z</time>
      </trkpt>
      <trkpt lat="48.3493713" lon="-1.8359046">
        <ele>29.645</ele>
        <time>2018-08-17T15:07:25.114Z</time>
      </trkpt>
      <trkpt lat="48.3494672" lon="-1.8359264">
        <ele>28.017</ele>
        <time>2018-08-17T15:07:29.731Z</time>
      </trkpt>
      <trkpt lat="48.3495720" lon="-1.8359748">
        <ele>26.663</ele>
        <time>2018-08-17T15:07:34.578Z</time>
      </trkpt>
      <trkpt lat="48.3496632" lon="-1.8359928">
        <ele>25.979</ele>
        <time>2018-08-17T15:07:38.584Z</time>
      </trkpt>
      <trkpt lat="48.3497556" lon="-1.8360098">
        <ele>25.520</ele>
        <time>2018-08-17T15:07:42.642Z</time>
      </trkpt>
      <trkpt lat="48.3498608" lon="-1.8360623">
        <ele>25.012</ele>
        <time>2018-08-17T15:07:47.489Z</time>
      </trkpt>
      <trkpt lat="48.3499661" lon="-1.8361119">
        <ele>24.551</ele>
        <time>2018-08-17T15:07:52.191Z</time>
      </trkpt>
      <trkpt lat="48.3500529" lon="-1.8361671">
        <ele>24.168</ele>
        <time>2018-08-17T15:07:56.097Z</time>
      </trkpt>
      <trkpt lat="48.3501457" lon="-1.8362150">
        <ele>23.679</ele>
        <time>2018-08-17T15:08:00.199Z</time>
      </trkpt>
      <trkpt lat="48.3502330" lon="-1.8362642">
        <ele>23.081</ele>
        <time>2018-08-17T15:08:04.207Z</time>
      </trkpt>
      <trkpt lat="48.3503193" lon="-1.8363269">
        <ele>22.955</ele>
        <time>2018-08-17T15:08:08.310Z</time>
      </trkpt>
      <trkpt lat="48.3504188" lon="-1.8363998">
        <ele>23.991</ele>
        <time>2018-08-17T15:08:12.834Z</time>
      </trkpt>
      <trkpt lat="48.3505021" lon="-1.8364803">
        <ele>26.028</ele>
        <time>2018-08-17T15:08:16.763Z</time>
      </trkpt>
      <trkpt lat="48.3505839" lon="-1.8365601">
        <ele>28.113</ele>
        <time>2018-08-17T15:08:20.557Z</time>
      </trkpt>
      <trkpt lat="48.3506652" lon="-1.8366448">
        <ele>29.655</ele>
        <time>2018-08-17T15:08:24.331Z</time>
      </trkpt>
      <trkpt lat="48.3507525" lon="-1.8367382">
        <ele>30.716</ele>
        <time>2018-08-17T15:08:28.425Z</time>
      </trkpt>
      <trkpt lat="48.3508250" lon="-1.8368274">
        <ele>31.390</ele>
        <time>2018-08-17T15:08:31.967Z</time>
      </trkpt>
      <trkpt lat="48.3509034" lon="-1.8369093">
        <ele>31.497</ele>
        <time>2018-08-17T15:08:35.327Z</time>
      </trkpt>
      <trkpt lat="48.3509768" lon="-1.8369964">
        <ele>30.675</ele>
        <time>2018-08-17T15:08:38.402Z</time>
      </trkpt>
      <trkpt lat="48.3510640" lon="-1.8370877">
        <ele>28.845</ele>
        <time>2018-08-17T15:08:42.020Z</time>
      </trkpt>
      <trkpt lat="48.3511418" lon="-1.8371807">
        <ele>26.710</ele>
        <time>2018-08-17T15:08:45.694Z</time>
      </trkpt>
      <trkpt lat="48.3512136" lon="-1.8373065">
        <ele>25.206</ele>
        <time>2018-08-17T15:08:49.810Z</time>
      </trkpt>
      <trkpt lat="48.3512816" lon="-1.8374215">
        <ele>24.855</ele>
        <time>2018-08-17T15:08:53.622Z</time>
      </trkpt>
      <trkpt lat="48.3513547" lon="-1.8375361">
        <ele>25.485</ele>
        <time>2018-08-17T15:08:57.417Z</time>
      </trkpt>
      <trkpt lat="48.3514298" lon="-1.8376564">
        <ele>26.335</ele>
        <time>2018-08-17T15:09:01.384Z</time>
      </trkpt>
      <trkpt lat="48.3515038" lon="-1.8377853">
        <ele>26.575</ele>
        <time>2018-08-17T15:09:05.594Z</time>
      </trkpt>
      <trkpt lat="48.3515803" lon="-1.8378993">
        <ele>25.949</ele>
        <time>2018-08-17T15:09:09.642Z</time>
      </trkpt>
      <trkpt lat="48.3516539" lon="-1.8380118">
        <ele>24.944</ele>
        <time>2018-08-17T15:09:13.470Z</time>
      </trkpt>
      <trkpt lat="48.3517291" lon="-1.8381400">
        <ele>24.429</ele>
        <time>2018-08-17T15:09:17.673Z</time>
      </trkpt>
      <trkpt lat="48.3517971" lon="-1.8382487">
        <ele>24.668</ele>
        <time>2018-08-17T15:09:21.451Z</time>
      </trkpt>
      <trkpt lat="48.3518512" lon="-1.8383836">
        <ele>25.177</ele>
        <time>2018-08-17T15:09:25.459Z</time>
      </trkpt>
      <trkpt lat="48.3519113" lon="-1.8385089">
        <ele>25.651</ele>
        <time>2018-08-17T15:09:29.433Z</time>
      </trkpt>
      <trkpt lat="48.3519757" lon="-1.8386390">
        <ele>26.155</ele>
        <time>2018-08-17T15:09:33.644Z</time>
      </trkpt>
      <trkpt lat="48.3520503" lon="-1.8387402">
        <ele>26.459</ele>
        <time>2018-08-17T15:09:37.624Z</time>
      </trkpt>
      <trkpt lat="48.3521159" lon="-1.8388694">
        <ele>26.272</ele>
        <time>2018-08-17T15:09:41.888Z</time>
      </trkpt>
      <trkpt lat="48.3521815" lon="-1.8389970">
        <ele>25.780</ele>
        <time>2018-08-17T15:09:46.195Z</time>
      </trkpt>
      <trkpt lat="48.3522378" lon="-1.8391277">
        <ele>25.433</ele>
        <time>2018-08-17T15:09:50.519Z</time>
      </trkpt>
      <trkpt lat="48.3522893" lon="-1.8392527">
        <ele>25.652</ele>
        <time>2018-08-17T15:09:54.507Z</time>
      </trkpt>
      <trkpt lat="48.3523445" lon="-1.8394014">
        <ele>26.405</ele>
        <time>2018-08-17T15:09:59.000Z</time>
      </trkpt>
      <trkpt lat="48.3524051" lon="-1.8395210">
        <ele>27.038</ele>
        <time>2018-08-17T15:10:02.965Z</time>
      </trkpt>
      <trkpt lat="48.3524620" lon="-1.8396400">
        <ele>26.941</ele>
        <time>2018-08-17T15:10:06.718Z</time>
      </trkpt>
      <trkpt lat="48.3525212" lon="-1.8397640">
        <ele>26.265</ele>
        <time>2018-08-17T15:10:10.507Z</time>
      </trkpt>
      <trkpt lat="48.3525866" lon="-1.8398849">
        <ele>25.493</ele>
        <time>2018-08-17T15:10:14.323Z</time>
      </trkpt>
      <trkpt lat="48.3526458" lon="-1.8400270">
        <ele>24.900</ele>
        <time>2018-08-17T15:10:18.427Z</time>
      </trkpt>
      <trkpt lat="48.3527008" lon="-1.8401679">
        <ele>24.648</ele>
        <time>2018-08-17T15:10:22.586Z</time>
      </trkpt>
      <trkpt lat="48.3527519" lon="-1.8402999">
        <ele>24.817</ele>
        <time>2018-08-17T15:10:26.657Z</time>
      </trkpt>
      <trkpt lat="48.3528059" lon="-1.8404161">
        <ele>25.298</ele>
        <time>2018-08-17T15:10:30.086Z</time>
      </trkpt>
      <trkpt lat="48.3528759" lon="-1.8405847">
        <ele>26.107</ele>
        <time>2018-08-17T15:10:33.193Z</time>
      </trkpt>
      <trkpt lat="48.3529678" lon="-1.8408089">
        <ele>27.172</ele>
        <time>2018-08-17T15:10:36.355Z</time>
      </trkpt>
      <trkpt lat="48.3530382" lon="-1.8409458">
        <ele>28.071</ele>
        <time>2018-08-17T15:10:38.485Z</time>
      </trkpt>
      <trkpt lat="48.3531389" lon="-1.8411034">
        <ele>28.520</ele>
        <time>2018-08-17T15:10:41.599Z</time>
      </trkpt>
      <trkpt lat="48.3532207" lon="-1.8412292">
        <ele>28.634</ele>
        <time>2018-08-17T15:10:44.635Z</time>
      </trkpt>
      <trkpt lat="48.3533064" lon="-1.8413144">
        <ele>28.676</ele>
        <time>2018-08-17T15:10:47.573Z</time>
      </trkpt>
      <trkpt lat="48.3533965" lon="-1.8413985">
        <ele>28.794</ele>
        <time>2018-08-17T15:10:50.711Z</time>
      </trkpt>
      <trkpt lat="48.3534780" lon="-1.8414793">
        <ele>28.933</ele>
        <time>2018-08-17T15:10:53.700Z</time>
      </trkpt>
      <trkpt lat="48.3535561" lon="-1.8415580">
        <ele>28.882</ele>
        <time>2018-08-17T15:10:56.680Z</time>
      </trkpt>
      <trkpt lat="48.3536316" lon="-1.8416333">
        <ele>28.395</ele>
        <time>2018-08-17T15:10:59.629Z</time>
      </trkpt>
      <trkpt lat="48.3537401" lon="-1.8417074">
        <ele>27.574</ele>
        <time>2018-08-17T15:11:03.640Z</time>
      </trkpt>
      <trkpt lat="48.3538456" lon="-1.8417754">
        <ele>26.904</ele>
        <time>2018-08-17T15:11:07.576Z</time>
      </trkpt>
      <trkpt lat="48.3539508" lon="-1.8418333">
        <ele>26.616</ele>
        <time>2018-08-17T15:11:11.437Z</time>
      </trkpt>
      <trkpt lat="48.3540564" lon="-1.8418796">
        <ele>26.573</ele>
        <time>2018-08-17T15:11:15.295Z</time>
      </trkpt>
      <trkpt lat="48.3541597" lon="-1.8419134">
        <ele>26.617</ele>
        <time>2018-08-17T15:11:19.078Z</time>
      </trkpt>
      <trkpt lat="48.3542612" lon="-1.8419417">
        <ele>26.580</ele>
        <time>2018-08-17T15:11:22.848Z</time>
      </trkpt>
      <trkpt lat="48.3543612" lon="-1.8419628">
        <ele>26.374</ele>
        <time>2018-08-17T15:11:26.500Z</time>
      </trkpt>
      <trkpt lat="48.3544701" lon="-1.8419806">
        <ele>26.005</ele>
        <time>2018-08-17T15:11:30.503Z</time>
      </trkpt>
      <trkpt lat="48.3545666" lon="-1.8419809">
        <ele>25.553</ele>
        <time>2018-08-17T15:11:34.262Z</time>
      </trkpt>
      <trkpt lat="48.3546562" lon="-1.8419677">
        <ele>25.303</ele>
        <time>2018-08-17T15:11:38.027Z</time>
      </trkpt>
      <trkpt lat="48.3547653" lon="-1.8419353">
        <ele>25.432</ele>
        <time>2018-08-17T15:11:42.847Z</time>
      </trkpt>
      <trkpt lat="48.3548552" lon="-1.8419091">
        <ele>25.503</ele>
        <time>2018-08-17T15:11:46.881Z</time>
      </trkpt>
      <trkpt lat="48.3549584" lon="-1.8418807">
        <ele>25.156</ele>
        <time>2018-08-17T15:11:51.696Z</time>
      </trkpt>
      <trkpt lat="48.3550553" lon="-1.8418400">
        <ele>24.845</ele>
        <time>2018-08-17T15:11:56.571Z</time>
      </trkpt>
      <trkpt lat="48.3551572" lon="-1.8417895">
        <ele>25.290</ele>
        <time>2018-08-17T15:12:01.708Z</time>
      </trkpt>
      <trkpt lat="48.3552566" lon="-1.8417369">
        <ele>26.378</ele>
        <time>2018-08-17T15:12:06.285Z</time>
      </trkpt>
      <trkpt lat="48.3553549" lon="-1.8416801">
        <ele>27.105</ele>
        <time>2018-08-17T15:12:10.626Z</time>
      </trkpt>
      <trkpt lat="48.3554529" lon="-1.8416211">
        <ele>26.290</ele>
        <time>2018-08-17T15:12:14.910Z</time>
      </trkpt>
      <trkpt lat="48.3555554" lon="-1.8415466">
        <ele>23.964</ele>
        <time>2018-08-17T15:12:19.391Z</time>
      </trkpt>
      <trkpt lat="48.3556478" lon="-1.8414648">
        <ele>21.608</ele>
        <time>2018-08-17T15:12:23.615Z</time>
      </trkpt>
      <trkpt lat="48.3557358" lon="-1.8413771">
        <ele>20.514</ele>
        <time>2018-08-17T15:12:27.805Z</time>
      </trkpt>
      <trkpt lat="48.3558212" lon="-1.8412817">
        <ele>20.655</ele>
        <time>2018-08-17T15:12:31.923Z</time>
      </trkpt>
      <trkpt lat="48.3559067" lon="-1.8411785">
        <ele>21.312</ele>
        <time>2018-08-17T15:12:36.068Z</time>
      </trkpt>
      <trkpt lat="48.3559935" lon="-1.8410798">
        <ele>21.852</ele>
        <time>2018-08-17T15:12:40.129Z</time>
      </trkpt>
      <trkpt lat="48.3560712" lon="-1.8409658">
        <ele>22.031</ele>
        <time>2018-08-17T15:12:44.168Z</time>
      </trkpt>
      <trkpt lat="48.3561468" lon="-1.8408526">
        <ele>21.848</ele>
        <time>2018-08-17T15:12:48.254Z</time>
      </trkpt>
      <trkpt lat="48.3562201" lon="-1.8407206">
        <ele>21.468</ele>
        <time>2018-08-17T15:12:52.784Z</time>
      </trkpt>
      <trkpt lat="48.3562887" lon="-1.8406237">
        <ele>21.150</ele>
        <time>2018-08-17T15:12:56.612Z</time>
      </trkpt>
      <trkpt lat="48.3563590" lon="-1.8405278">
        <ele>21.176</ele>
        <time>2018-08-17T15:13:00.439Z</time>
      </trkpt>
      <trkpt lat="48.3564335" lon="-1.8404230">
        <ele>21.591</ele>
        <time>2018-08-17T15:13:04.364Z</time>
      </trkpt>
      <trkpt lat="48.3565063" lon="-1.8402997">
        <ele>22.207</ele>
        <time>2018-08-17T15:13:08.492Z</time>
      </trkpt>
      <trkpt lat="48.3565695" lon="-1.8401852">
        <ele>22.881</ele>
        <time>2018-08-17T15:13:12.376Z</time>
      </trkpt>
      <trkpt lat="48.3566316" lon="-1.8400795">
        <ele>23.485</ele>
        <time>2018-08-17T15:13:16.148Z</time>
      </trkpt>
      <trkpt lat="48.3566990" lon="-1.8399852">
        <ele>23.855</ele>
        <time>2018-08-17T15:13:19.813Z</time>
      </trkpt>
      <trkpt lat="48.3567707" lon="-1.8398841">
        <ele>23.848</ele>
        <time>2018-08-17T15:13:23.667Z</time>
      </trkpt>
      <trkpt lat="48.3568445" lon="-1.8397797">
        <ele>23.496</ele>
        <time>2018-08-17T15:13:27.554Z</time>
      </trkpt>
      <trkpt lat="48.3569168" lon="-1.8396677">
        <ele>23.275</ele>
        <time>2018-08-17T15:13:31.416Z</time>
      </trkpt>
      <trkpt lat="48.3569867" lon="-1.8395540">
        <ele>23.613</ele>
        <time>2018-08-17T15:13:35.195Z</time>
      </trkpt>
      <trkpt lat="48.3570545" lon="-1.8394417">
        <ele>24.298</ele>
        <time>2018-08-17T15:13:38.954Z</time>
      </trkpt>
      <trkpt lat="48.3571258" lon="-1.8393382">
        <ele>24.873</ele>
        <time>2018-08-17T15:13:42.790Z</time>
      </trkpt>
      <trkpt lat="48.3571979" lon="-1.8392383">
        <ele>25.151</ele>
        <time>2018-08-17T15:13:46.709Z</time>
      </trkpt>
      <trkpt lat="48.3572732" lon="-1.8391414">
        <ele>25.284</ele>
        <time>2018-08-17T15:13:50.674Z</time>
      </trkpt>
      <trkpt lat="48.3573465" lon="-1.8390357">
        <ele>25.541</ele>
        <time>2018-08-17T15:13:54.635Z</time>
      </trkpt>
      <trkpt lat="48.3574248" lon="-1.8389289">
        <ele>26.068</ele>
        <time>2018-08-17T15:13:58.653Z</time>
      </trkpt>
      <trkpt lat="48.3574950" lon="-1.8388194">
        <ele>26.901</ele>
        <time>2018-08-17T15:14:02.427Z</time>
      </trkpt>
      <trkpt lat="48.3575670" lon="-1.8387020">
        <ele>27.901</ele>
        <time>2018-08-17T15:14:06.293Z</time>
      </trkpt>
      <trkpt lat="48.3576443" lon="-1.8385860">
        <ele>28.761</ele>
        <time>2018-08-17T15:14:10.162Z</time>
      </trkpt>
      <trkpt lat="48.3577163" lon="-1.8384683">
        <ele>29.285</ele>
        <time>2018-08-17T15:14:13.892Z</time>
      </trkpt>
      <trkpt lat="48.3577931" lon="-1.8383597">
        <ele>29.484</ele>
        <time>2018-08-17T15:14:17.646Z</time>
      </trkpt>
      <trkpt lat="48.3578707" lon="-1.8382651">
        <ele>29.384</ele>
        <time>2018-08-17T15:14:21.356Z</time>
      </trkpt>
      <trkpt lat="48.3579462" lon="-1.8381662">
        <ele>29.016</ele>
        <time>2018-08-17T15:14:25.213Z</time>
      </trkpt>
      <trkpt lat="48.3580131" lon="-1.8380563">
        <ele>28.626</ele>
        <time>2018-08-17T15:14:29.033Z</time>
      </trkpt>
      <trkpt lat="48.3580841" lon="-1.8379566">
        <ele>28.491</ele>
        <time>2018-08-17T15:14:32.768Z</time>
      </trkpt>
      <trkpt lat="48.3581505" lon="-1.8378606">
        <ele>28.571</ele>
        <time>2018-08-17T15:14:36.361Z</time>
      </trkpt>
      <trkpt lat="48.3582212" lon="-1.8377510">
        <ele>28.607</ele>
        <time>2018-08-17T15:14:40.302Z</time>
      </trkpt>
      <trkpt lat="48.3582927" lon="-1.8376504">
        <ele>28.406</ele>
        <time>2018-08-17T15:14:44.080Z</time>
      </trkpt>
      <trkpt lat="48.3583567" lon="-1.8375540">
        <ele>28.053</ele>
        <time>2018-08-17T15:14:47.672Z</time>
      </trkpt>
      <trkpt lat="48.3584177" lon="-1.8374530">
        <ele>27.852</ele>
        <time>2018-08-17T15:14:51.405Z</time>
      </trkpt>
      <trkpt lat="48.3584830" lon="-1.8373479">
        <ele>27.991</ele>
        <time>2018-08-17T15:14:55.383Z</time>
      </trkpt>
      <trkpt lat="48.3585520" lon="-1.8372482">
        <ele>28.402</ele>
        <time>2018-08-17T15:14:59.328Z</time>
      </trkpt>
      <trkpt lat="48.3586236" lon="-1.8371445">
        <ele>28.867</ele>
        <time>2018-08-17T15:15:03.382Z</time>
      </trkpt>
      <trkpt lat="48.3586943" lon="-1.8370504">
        <ele>29.265</ele>
        <time>2018-08-17T15:15:07.193Z</time>
      </trkpt>
      <trkpt lat="48.3587685" lon="-1.8369341">
        <ele>29.659</ele>
        <time>2018-08-17T15:15:11.593Z</time>
      </trkpt>
      <trkpt lat="48.3588442" lon="-1.8368188">
        <ele>30.067</ele>
        <time>2018-08-17T15:15:16.200Z</time>
      </trkpt>
      <trkpt lat="48.3589091" lon="-1.8367151">
        <ele>30.353</ele>
        <time>2018-08-17T15:15:20.684Z</time>
      </trkpt>
      <trkpt lat="48.3589619" lon="-1.8366048">
        <ele>30.443</ele>
        <time>2018-08-17T15:15:25.629Z</time>
      </trkpt>
      <trkpt lat="48.3590401" lon="-1.8364950">
        <ele>30.380</ele>
        <time>2018-08-17T15:15:31.410Z</time>
      </trkpt>
      <trkpt lat="48.3591299" lon="-1.8364115">
        <ele>30.152</ele>
        <time>2018-08-17T15:15:35.630Z</time>
      </trkpt>
      <trkpt lat="48.3592336" lon="-1.8362787">
        <ele>29.714</ele>
        <time>2018-08-17T15:15:39.687Z</time>
      </trkpt>
      <trkpt lat="48.3593049" lon="-1.8361871">
        <ele>29.194</ele>
        <time>2018-08-17T15:15:42.000Z</time>
      </trkpt>
      <trkpt lat="48.3593049" lon="-1.8361871">
        <ele>28.836</ele>
        <time>2018-08-17T15:15:43.000Z</time>
      </trkpt>
      <trkpt lat="48.3593049" lon="-1.8361871">
        <ele>28.718</ele>
        <time>2018-08-17T15:15:43.100Z</time>
      </trkpt>
      <trkpt lat="48.3594857" lon="-1.8359920">
        <ele>28.733</ele>
        <time>2018-08-17T15:15:50.057Z</time>
      </trkpt>
      <trkpt lat="48.3595794" lon="-1.8358953">
        <ele>28.524</ele>
        <time>2018-08-17T15:15:53.174Z</time>
      </trkpt>
      <trkpt lat="48.3596768" lon="-1.8357989">
        <ele>27.899</ele>
        <time>2018-08-17T15:15:57.239Z</time>
      </trkpt>
      <trkpt lat="48.3597671" lon="-1.8357158">
        <ele>27.243</ele>
        <time>2018-08-17T15:16:02.579Z</time>
      </trkpt>
      <trkpt lat="48.3598331" lon="-1.8356126">
        <ele>26.983</ele>
        <time>2018-08-17T15:16:09.096Z</time>
      </trkpt>
      <trkpt lat="48.3599200" lon="-1.8355567">
        <ele>27.245</ele>
        <time>2018-08-17T15:16:17.788Z</time>
      </trkpt>
      <trkpt lat="48.3600104" lon="-1.8355030">
        <ele>27.951</ele>
        <time>2018-08-17T15:16:25.597Z</time>
      </trkpt>
      <trkpt lat="48.3601018" lon="-1.8354593">
        <ele>29.012</ele>
        <time>2018-08-17T15:16:30.891Z</time>
      </trkpt>
      <trkpt lat="48.3602057" lon="-1.8354303">
        <ele>30.392</ele>
        <time>2018-08-17T15:16:35.278Z</time>
      </trkpt>
      <trkpt lat="48.3603046" lon="-1.8353950">
        <ele>31.839</ele>
        <time>2018-08-17T15:16:39.156Z</time>
      </trkpt>
      <trkpt lat="48.3604140" lon="-1.8353683">
        <ele>32.931</ele>
        <time>2018-08-17T15:16:43.313Z</time>
      </trkpt>
      <trkpt lat="48.3605272" lon="-1.8353357">
        <ele>33.406</ele>
        <time>2018-08-17T15:16:47.547Z</time>
      </trkpt>
      <trkpt lat="48.3606425" lon="-1.8352929">
        <ele>33.219</ele>
        <time>2018-08-17T15:16:51.873Z</time>
      </trkpt>
      <trkpt lat="48.3607408" lon="-1.8352519">
        <ele>32.789</ele>
        <time>2018-08-17T15:16:55.654Z</time>
      </trkpt>
      <trkpt lat="48.3608382" lon="-1.8352156">
        <ele>32.589</ele>
        <time>2018-08-17T15:16:59.425Z</time>
      </trkpt>
      <trkpt lat="48.3609374" lon="-1.8351765">
        <ele>32.741</ele>
        <time>2018-08-17T15:17:03.327Z</time>
      </trkpt>
      <trkpt lat="48.3610270" lon="-1.8351441">
        <ele>33.243</ele>
        <time>2018-08-17T15:17:06.829Z</time>
      </trkpt>
      <trkpt lat="48.3611348" lon="-1.8351090">
        <ele>33.985</ele>
        <time>2018-08-17T15:17:10.851Z</time>
      </trkpt>
      <trkpt lat="48.3612433" lon="-1.8350588">
        <ele>34.696</ele>
        <time>2018-08-17T15:17:14.800Z</time>
      </trkpt>
      <trkpt lat="48.3613548" lon="-1.8350156">
        <ele>35.300</ele>
        <time>2018-08-17T15:17:18.843Z</time>
      </trkpt>
      <trkpt lat="48.3614435" lon="-1.8349780">
        <ele>35.804</ele>
        <time>2018-08-17T15:17:22.292Z</time>
      </trkpt>
      <trkpt lat="48.3615380" lon="-1.8349476">
        <ele>36.134</ele>
        <time>2018-08-17T15:17:26.216Z</time>
      </trkpt>
      <trkpt lat="48.3616246" lon="-1.8349079">
        <ele>36.277</ele>
        <time>2018-08-17T15:17:30.021Z</time>
      </trkpt>
      <trkpt lat="48.3617375" lon="-1.8348798">
        <ele>36.285</ele>
        <time>2018-08-17T15:17:34.807Z</time>
      </trkpt>
      <trkpt lat="48.3618405" lon="-1.8348347">
        <ele>36.230</ele>
        <time>2018-08-17T15:17:39.445Z</time>
      </trkpt>
      <trkpt lat="48.3619478" lon="-1.8347955">
        <ele>36.278</ele>
        <time>2018-08-17T15:17:44.382Z</time>
      </trkpt>
      <trkpt lat="48.3620459" lon="-1.8347486">
        <ele>36.506</ele>
        <time>2018-08-17T15:17:49.176Z</time>
      </trkpt>
      <trkpt lat="48.3621480" lon="-1.8346975">
        <ele>36.767</ele>
        <time>2018-08-17T15:17:54.846Z</time>
      </trkpt>
      <trkpt lat="48.3622424" lon="-1.8346675">
        <ele>36.786</ele>
        <time>2018-08-17T15:18:00.204Z</time>
      </trkpt>
      <trkpt lat="48.3623453" lon="-1.8346213">
        <ele>36.435</ele>
        <time>2018-08-17T15:18:05.710Z</time>
      </trkpt>
      <trkpt lat="48.3624400" lon="-1.8345874">
        <ele>35.987</ele>
        <time>2018-08-17T15:18:10.084Z</time>
      </trkpt>
      <trkpt lat="48.3625349" lon="-1.8345546">
        <ele>35.773</ele>
        <time>2018-08-17T15:18:14.401Z</time>
      </trkpt>
      <trkpt lat="48.3626321" lon="-1.8344943">
        <ele>35.749</ele>
        <time>2018-08-17T15:18:19.394Z</time>
      </trkpt>
      <trkpt lat="48.3627362" lon="-1.8344508">
        <ele>35.761</ele>
        <time>2018-08-17T15:18:24.544Z</time>
      </trkpt>
      <trkpt lat="48.3628387" lon="-1.8344293">
        <ele>35.976</ele>
        <time>2018-08-17T15:18:28.678Z</time>
      </trkpt>
      <trkpt lat="48.3629376" lon="-1.8344008">
        <ele>36.814</ele>
        <time>2018-08-17T15:18:32.261Z</time>
      </trkpt>
      <trkpt lat="48.3630281" lon="-1.8343809">
        <ele>38.177</ele>
        <time>2018-08-17T15:18:35.507Z</time>
      </trkpt>
      <trkpt lat="48.3631418" lon="-1.8343621">
        <ele>39.333</ele>
        <time>2018-08-17T15:18:39.700Z</time>
      </trkpt>
      <trkpt lat="48.3632535" lon="-1.8343275">
        <ele>39.877</ele>
        <time>2018-08-17T15:18:44.000Z</time>
      </trkpt>
      <trkpt lat="48.3633409" lon="-1.8342921">
        <ele>39.900</ele>
        <time>2018-08-17T15:18:47.369Z</time>
      </trkpt>
      <trkpt lat="48.3634481" lon="-1.8342482">
        <ele>39.053</ele>
        <time>2018-08-17T15:18:51.273Z</time>
      </trkpt>
      <trkpt lat="48.3635428" lon="-1.8342150">
        <ele>37.027</ele>
        <time>2018-08-17T15:18:54.658Z</time>
      </trkpt>
      <trkpt lat="48.3636387" lon="-1.8341766">
        <ele>34.363</ele>
        <time>2018-08-17T15:18:58.295Z</time>
      </trkpt>
      <trkpt lat="48.3637436" lon="-1.8341317">
        <ele>32.009</ele>
        <time>2018-08-17T15:19:02.536Z</time>
      </trkpt>
      <trkpt lat="48.3638423" lon="-1.8340870">
        <ele>30.563</ele>
        <time>2018-08-17T15:19:06.538Z</time>
      </trkpt>
      <trkpt lat="48.3639510" lon="-1.8340784">
        <ele>30.073</ele>
        <time>2018-08-17T15:19:10.552Z</time>
      </trkpt>
      <trkpt lat="48.3640639" lon="-1.8340655">
        <ele>30.103</ele>
        <time>2018-08-17T15:19:14.581Z</time>
      </trkpt>
      <trkpt lat="48.3641623" lon="-1.8340253">
        <ele>30.252</ele>
        <time>2018-08-17T15:19:18.101Z</time>
      </trkpt>
      <trkpt lat="48.3642723" lon="-1.8340038">
        <ele>30.225</ele>
        <time>2018-08-17T15:19:21.673Z</time>
      </trkpt>
      <trkpt lat="48.3643665" lon="-1.8339897">
        <ele>29.941</ele>
        <time>2018-08-17T15:19:24.678Z</time>
      </trkpt>
      <trkpt lat="48.3644843" lon="-1.8339564">
        <ele>29.590</ele>
        <time>2018-08-17T15:19:28.497Z</time>
      </trkpt>
      <trkpt lat="48.3645747" lon="-1.8339243">
        <ele>29.372</ele>
        <time>2018-08-17T15:19:31.524Z</time>
      </trkpt>
      <trkpt lat="48.3646646" lon="-1.8338967">
        <ele>29.253</ele>
        <time>2018-08-17T15:19:34.639Z</time>
      </trkpt>
      <trkpt lat="48.3647659" lon="-1.8338512">
        <ele>29.048</ele>
        <time>2018-08-17T15:19:38.355Z</time>
      </trkpt>
      <trkpt lat="48.3648511" lon="-1.8338079">
        <ele>28.688</ele>
        <time>2018-08-17T15:19:41.506Z</time>
      </trkpt>
      <trkpt lat="48.3649481" lon="-1.8337518">
        <ele>28.344</ele>
        <time>2018-08-17T15:19:45.072Z</time>
      </trkpt>
      <trkpt lat="48.3650574" lon="-1.8336974">
        <ele>28.386</ele>
        <time>2018-08-17T15:19:48.814Z</time>
      </trkpt>
      <trkpt lat="48.3651466" lon="-1.8336671">
        <ele>29.194</ele>
        <time>2018-08-17T15:19:51.739Z</time>
      </trkpt>
      <trkpt lat="48.3652436" lon="-1.8336358">
        <ele>30.602</ele>
        <time>2018-08-17T15:19:54.930Z</time>
      </trkpt>
      <trkpt lat="48.3653355" lon="-1.8336042">
        <ele>31.897</ele>
        <time>2018-08-17T15:19:58.014Z</time>
      </trkpt>
      <trkpt lat="48.3654250" lon="-1.8335842">
        <ele>32.661</ele>
        <time>2018-08-17T15:20:01.032Z</time>
      </trkpt>
      <trkpt lat="48.3655141" lon="-1.8335513">
        <ele>32.977</ele>
        <time>2018-08-17T15:20:04.146Z</time>
      </trkpt>
      <trkpt lat="48.3656267" lon="-1.8335088">
        <ele>33.026</ele>
        <time>2018-08-17T15:20:08.205Z</time>
      </trkpt>
      <trkpt lat="48.3657329" lon="-1.8334701">
        <ele>32.749</ele>
        <time>2018-08-17T15:20:12.028Z</time>
      </trkpt>
      <trkpt lat="48.3658409" lon="-1.8334220">
        <ele>32.144</ele>
        <time>2018-08-17T15:20:15.890Z</time>
      </trkpt>
      <trkpt lat="48.3659455" lon="-1.8333807">
        <ele>31.601</ele>
        <time>2018-08-17T15:20:19.708Z</time>
      </trkpt>
      <trkpt lat="48.3660354" lon="-1.8333208">
        <ele>31.460</ele>
        <time>2018-08-17T15:20:23.234Z</time>
      </trkpt>
      <trkpt lat="48.3661363" lon="-1.8332769">
        <ele>31.747</ele>
        <time>2018-08-17T15:20:26.911Z</time>
      </trkpt>
      <trkpt lat="48.3662480" lon="-1.8332413">
        <ele>32.310</ele>
        <time>2018-08-17T15:20:30.989Z</time>
      </trkpt>
      <trkpt lat="48.3663457" lon="-1.8332100">
        <ele>32.797</ele>
        <time>2018-08-17T15:20:34.775Z</time>
      </trkpt>
      <trkpt lat="48.3664489" lon="-1.8331766">
        <ele>32.994</ele>
        <time>2018-08-17T15:20:38.907Z</time>
      </trkpt>
      <trkpt lat="48.3665520" lon="-1.8331364">
        <ele>33.000</ele>
        <time>2018-08-17T15:20:43.064Z</time>
      </trkpt>
      <trkpt lat="48.3666510" lon="-1.8330926">
        <ele>32.844</ele>
        <time>2018-08-17T15:20:46.996Z</time>
      </trkpt>
      <trkpt lat="48.3667503" lon="-1.8330417">
        <ele>32.303</ele>
        <time>2018-08-17T15:20:50.845Z</time>
      </trkpt>
      <trkpt lat="48.3668589" lon="-1.8329916">
        <ele>31.407</ele>
        <time>2018-08-17T15:20:54.944Z</time>
      </trkpt>
      <trkpt lat="48.3669626" lon="-1.8329299">
        <ele>30.545</ele>
        <time>2018-08-17T15:20:59.056Z</time>
      </trkpt>
      <trkpt lat="48.3670644" lon="-1.8328745">
        <ele>30.061</ele>
        <time>2018-08-17T15:21:03.084Z</time>
      </trkpt>
      <trkpt lat="48.3671667" lon="-1.8328180">
        <ele>30.046</ele>
        <time>2018-08-17T15:21:07.073Z</time>
      </trkpt>
      <trkpt lat="48.3672724" lon="-1.8327497">
        <ele>30.412</ele>
        <time>2018-08-17T15:21:11.171Z</time>
      </trkpt>
      <trkpt lat="48.3673744" lon="-1.8326808">
        <ele>31.087</ele>
        <time>2018-08-17T15:21:15.092Z</time>
      </trkpt>
      <trkpt lat="48.3674739" lon="-1.8325968">
        <ele>31.934</ele>
        <time>2018-08-17T15:21:19.108Z</time>
      </trkpt>
      <trkpt lat="48.3675671" lon="-1.8325009">
        <ele>32.424</ele>
        <time>2018-08-17T15:21:23.185Z</time>
      </trkpt>
      <trkpt lat="48.3676561" lon="-1.8324146">
        <ele>32.108</ele>
        <time>2018-08-17T15:21:27.072Z</time>
      </trkpt>
      <trkpt lat="48.3677475" lon="-1.8323231">
        <ele>31.236</ele>
        <time>2018-08-17T15:21:31.073Z</time>
      </trkpt>
      <trkpt lat="48.3678428" lon="-1.8322226">
        <ele>30.448</ele>
        <time>2018-08-17T15:21:35.313Z</time>
      </trkpt>
      <trkpt lat="48.3679334" lon="-1.8321306">
        <ele>29.892</ele>
        <time>2018-08-17T15:21:39.400Z</time>
      </trkpt>
      <trkpt lat="48.3680167" lon="-1.8320465">
        <ele>29.262</ele>
        <time>2018-08-17T15:21:43.177Z</time>
      </trkpt>
      <trkpt lat="48.3681033" lon="-1.8319649">
        <ele>28.484</ele>
        <time>2018-08-17T15:21:46.974Z</time>
      </trkpt>
      <trkpt lat="48.3681932" lon="-1.8318840">
        <ele>27.719</ele>
        <time>2018-08-17T15:21:50.881Z</time>
      </trkpt>
      <trkpt lat="48.3682774" lon="-1.8318022">
        <ele>27.139</ele>
        <time>2018-08-17T15:21:54.747Z</time>
      </trkpt>
      <trkpt lat="48.3683548" lon="-1.8317230">
        <ele>26.851</ele>
        <time>2018-08-17T15:21:58.381Z</time>
      </trkpt>
      <trkpt lat="48.3684381" lon="-1.8316229">
        <ele>26.785</ele>
        <time>2018-08-17T15:22:02.477Z</time>
      </trkpt>
      <trkpt lat="48.3685178" lon="-1.8315367">
        <ele>26.673</ele>
        <time>2018-08-17T15:22:06.330Z</time>
      </trkpt>
      <trkpt lat="48.3685940" lon="-1.8314650">
        <ele>26.376</ele>
        <time>2018-08-17T15:22:09.991Z</time>
      </trkpt>
      <trkpt lat="48.3686675" lon="-1.8313868">
        <ele>26.144</ele>
        <time>2018-08-17T15:22:13.688Z</time>
      </trkpt>
      <trkpt lat="48.3687491" lon="-1.8313080">
        <ele>26.199</ele>
        <time>2018-08-17T15:22:17.630Z</time>
      </trkpt>
      <trkpt lat="48.3688288" lon="-1.8312395">
        <ele>26.380</ele>
        <time>2018-08-17T15:22:21.362Z</time>
      </trkpt>
      <trkpt lat="48.3689122" lon="-1.8311586">
        <ele>26.434</ele>
        <time>2018-08-17T15:22:25.497Z</time>
      </trkpt>
      <trkpt lat="48.3689946" lon="-1.8310770">
        <ele>26.252</ele>
        <time>2018-08-17T15:22:29.792Z</time>
      </trkpt>
      <trkpt lat="48.3690907" lon="-1.8309939">
        <ele>25.725</ele>
        <time>2018-08-17T15:22:34.724Z</time>
      </trkpt>
      <trkpt lat="48.3691708" lon="-1.8309125">
        <ele>24.867</ele>
        <time>2018-08-17T15:22:38.785Z</time>
      </trkpt>
      <trkpt lat="48.3692516" lon="-1.8308352">
        <ele>23.978</ele>
        <time>2018-08-17T15:22:42.717Z</time>
      </trkpt>
      <trkpt lat="48.3693368" lon="-1.8307571">
        <ele>23.381</ele>
        <time>2018-08-17T15:22:46.791Z</time>
      </trkpt>
      <trkpt lat="48.3694332" lon="-1.8306685">
        <ele>23.261</ele>
        <time>2018-08-17T15:22:51.270Z</time>
      </trkpt>
      <trkpt lat="48.3695135" lon="-1.8305880">
        <ele>23.600</ele>
        <time>2018-08-17T15:22:55.125Z</time>
      </trkpt>
      <trkpt lat="48.3695985" lon="-1.8304998">
        <ele>24.162</ele>
        <time>2018-08-17T15:22:59.113Z</time>
      </trkpt>
      <trkpt lat="48.3696871" lon="-1.8304095">
        <ele>25.024</ele>
        <time>2018-08-17T15:23:02.883Z</time>
      </trkpt>
      <trkpt lat="48.3697808" lon="-1.8303412">
        <ele>26.503</ele>
        <time>2018-08-17T15:23:06.532Z</time>
      </trkpt>
      <trkpt lat="48.3698666" lon="-1.8302703">
        <ele>28.691</ele>
        <time>2018-08-17T15:23:10.350Z</time>
      </trkpt>
      <trkpt lat="48.3699571" lon="-1.8301917">
        <ele>31.185</ele>
        <time>2018-08-17T15:23:14.677Z</time>
      </trkpt>
      <trkpt lat="48.3700509" lon="-1.8300957">
        <ele>33.131</ele>
        <time>2018-08-17T15:23:19.179Z</time>
      </trkpt>
      <trkpt lat="48.3701460" lon="-1.8300132">
        <ele>33.785</ele>
        <time>2018-08-17T15:23:23.315Z</time>
      </trkpt>
      <trkpt lat="48.3702229" lon="-1.8299416">
        <ele>33.286</ele>
        <time>2018-08-17T15:23:26.803Z</time>
      </trkpt>
      <trkpt lat="48.3703136" lon="-1.8298389">
        <ele>32.455</ele>
        <time>2018-08-17T15:23:31.337Z</time>
      </trkpt>
      <trkpt lat="48.3704016" lon="-1.8297355">
        <ele>31.688</ele>
        <time>2018-08-17T15:23:35.714Z</time>
      </trkpt>
      <trkpt lat="48.3704961" lon="-1.8296504">
        <ele>30.835</ele>
        <time>2018-08-17T15:23:39.929Z</time>
      </trkpt>
      <trkpt lat="48.3705913" lon="-1.8295769">
        <ele>29.988</ele>
        <time>2018-08-17T15:23:43.999Z</time>
      </trkpt>
      <trkpt lat="48.3706818" lon="-1.8295020">
        <ele>29.316</ele>
        <time>2018-08-17T15:23:47.983Z</time>
      </trkpt>
      <trkpt lat="48.3707719" lon="-1.8294354">
        <ele>28.790</ele>
        <time>2018-08-17T15:23:51.856Z</time>
      </trkpt>
      <trkpt lat="48.3708651" lon="-1.8293652">
        <ele>28.410</ele>
        <time>2018-08-17T15:23:55.815Z</time>
      </trkpt>
      <trkpt lat="48.3709588" lon="-1.8293003">
        <ele>28.531</ele>
        <time>2018-08-17T15:23:59.762Z</time>
      </trkpt>
      <trkpt lat="48.3710483" lon="-1.8292350">
        <ele>29.334</ele>
        <time>2018-08-17T15:24:03.682Z</time>
      </trkpt>
      <trkpt lat="48.3711352" lon="-1.8291767">
        <ele>30.227</ele>
        <time>2018-08-17T15:24:07.600Z</time>
      </trkpt>
      <trkpt lat="48.3712361" lon="-1.8291219">
        <ele>30.563</ele>
        <time>2018-08-17T15:24:11.913Z</time>
      </trkpt>
      <trkpt lat="48.3713449" lon="-1.8290789">
        <ele>30.361</ele>
        <time>2018-08-17T15:24:16.090Z</time>
      </trkpt>
      <trkpt lat="48.3714530" lon="-1.8290429">
        <ele>29.955</ele>
        <time>2018-08-17T15:24:20.090Z</time>
      </trkpt>
      <trkpt lat="48.3715650" lon="-1.8290073">
        <ele>29.527</ele>
        <time>2018-08-17T15:24:24.232Z</time>
      </trkpt>
      <trkpt lat="48.3716712" lon="-1.8290004">
        <ele>29.093</ele>
        <time>2018-08-17T15:24:28.108Z</time>
      </trkpt>
      <trkpt lat="48.3717601" lon="-1.8289665">
        <ele>28.749</ele>
        <time>2018-08-17T15:24:31.597Z</time>
      </trkpt>
      <trkpt lat="48.3718606" lon="-1.8289398">
        <ele>28.556</ele>
        <time>2018-08-17T15:24:35.520Z</time>
      </trkpt>
      <trkpt lat="48.3719710" lon="-1.8289085">
        <ele>28.465</ele>
        <time>2018-08-17T15:24:39.965Z</time>
      </trkpt>
      <trkpt lat="48.3720774" lon="-1.8289091">
        <ele>28.410</ele>
        <time>2018-08-17T15:24:44.232Z</time>
      </trkpt>
      <trkpt lat="48.3721768" lon="-1.8289105">
        <ele>28.284</ele>
        <time>2018-08-17T15:24:48.193Z</time>
      </trkpt>
      <trkpt lat="48.3722827" lon="-1.8289208">
        <ele>27.861</ele>
        <time>2018-08-17T15:24:52.484Z</time>
      </trkpt>
      <trkpt lat="48.3723930" lon="-1.8289345">
        <ele>27.157</ele>
        <time>2018-08-17T15:24:56.859Z</time>
      </trkpt>
      <trkpt lat="48.3724926" lon="-1.8289356">
        <ele>26.658</ele>
        <time>2018-08-17T15:25:00.766Z</time>
      </trkpt>
      <trkpt lat="48.3725921" lon="-1.8289491">
        <ele>26.715</ele>
        <time>2018-08-17T15:25:04.863Z</time>
      </trkpt>
      <trkpt lat="48.3726897" lon="-1.8289602">
        <ele>27.114</ele>
        <time>2018-08-17T15:25:09.000Z</time>
      </trkpt>
      <trkpt lat="48.3726897" lon="-1.8289602">
        <ele>27.399</ele>
        <time>2018-08-17T15:25:24.000Z</time>
      </trkpt>
      <trkpt lat="48.3726897" lon="-1.8289602">
        <ele>27.377</ele>
        <time>2018-08-17T15:25:24.100Z</time>
      </trkpt>
      <trkpt lat="48.3727805" lon="-1.8289021">
        <ele>27.214</ele>
        <time>2018-08-17T15:25:36.000Z</time>
      </trkpt>
      <trkpt lat="48.3727805" lon="-1.8289021">
        <ele>27.111</ele>
        <time>2018-08-17T15:25:38.000Z</time>
      </trkpt>
      <trkpt lat="48.3727805" lon="-1.8289021">
        <ele>27.092</ele>
        <time>2018-08-17T15:25:38.100Z</time>
      </trkpt>
      <trkpt lat="48.3727805" lon="-1.8289021">
        <ele>27.088</ele>
        <time>2018-08-17T15:27:00.000Z</time>
      </trkpt>
      <trkpt lat="48.3727805" lon="-1.8289021">
        <ele>27.079</ele>
        <time>2018-08-17T15:27:06.734Z</time>
      </trkpt>
      <trkpt lat="48.3729382" lon="-1.8290542">
        <ele>27.070</ele>
        <time>2018-08-17T15:27:20.112Z</time>
      </trkpt>
      <trkpt lat="48.3730247" lon="-1.8290917">
        <ele>26.605</ele>
        <time>2018-08-17T15:27:24.023Z</time>
      </trkpt>
      <trkpt lat="48.3731159" lon="-1.8291365">
        <ele>25.412</ele>
        <time>2018-08-17T15:27:28.012Z</time>
      </trkpt>
      <trkpt lat="48.3732108" lon="-1.8291897">
        <ele>24.237</ele>
        <time>2018-08-17T15:27:31.984Z</time>
      </trkpt>
      <trkpt lat="48.3733074" lon="-1.8292581">
        <ele>23.786</ele>
        <time>2018-08-17T15:27:35.974Z</time>
      </trkpt>
      <trkpt lat="48.3734058" lon="-1.8293251">
        <ele>23.946</ele>
        <time>2018-08-17T15:27:39.918Z</time>
      </trkpt>
      <trkpt lat="48.3735051" lon="-1.8293985">
        <ele>24.391</ele>
        <time>2018-08-17T15:27:43.970Z</time>
      </trkpt>
      <trkpt lat="48.3735978" lon="-1.8294697">
        <ele>24.780</ele>
        <time>2018-08-17T15:27:47.808Z</time>
      </trkpt>
      <trkpt lat="48.3736898" lon="-1.8295453">
        <ele>24.921</ele>
        <time>2018-08-17T15:27:51.614Z</time>
      </trkpt>
      <trkpt lat="48.3737845" lon="-1.8296250">
        <ele>24.871</ele>
        <time>2018-08-17T15:27:55.547Z</time>
      </trkpt>
      <trkpt lat="48.3738756" lon="-1.8297096">
        <ele>24.770</ele>
        <time>2018-08-17T15:27:59.463Z</time>
      </trkpt>
      <trkpt lat="48.3739681" lon="-1.8297900">
        <ele>24.708</ele>
        <time>2018-08-17T15:28:03.385Z</time>
      </trkpt>
      <trkpt lat="48.3740587" lon="-1.8298726">
        <ele>24.710</ele>
        <time>2018-08-17T15:28:07.235Z</time>
      </trkpt>
      <trkpt lat="48.3741505" lon="-1.8299568">
        <ele>24.764</ele>
        <time>2018-08-17T15:28:11.106Z</time>
      </trkpt>
      <trkpt lat="48.3742383" lon="-1.8300408">
        <ele>24.693</ele>
        <time>2018-08-17T15:28:14.893Z</time>
      </trkpt>
      <trkpt lat="48.3743276" lon="-1.8301251">
        <ele>24.160</ele>
        <time>2018-08-17T15:28:18.795Z</time>
      </trkpt>
      <trkpt lat="48.3744153" lon="-1.8302054">
        <ele>23.236</ele>
        <time>2018-08-17T15:28:22.632Z</time>
      </trkpt>
      <trkpt lat="48.3745003" lon="-1.8302989">
        <ele>22.537</ele>
        <time>2018-08-17T15:28:26.551Z</time>
      </trkpt>
      <trkpt lat="48.3745890" lon="-1.8303851">
        <ele>22.491</ele>
        <time>2018-08-17T15:28:30.416Z</time>
      </trkpt>
      <trkpt lat="48.3746743" lon="-1.8304767">
        <ele>22.914</ele>
        <time>2018-08-17T15:28:34.166Z</time>
      </trkpt>
      <trkpt lat="48.3747650" lon="-1.8305710">
        <ele>23.372</ele>
        <time>2018-08-17T15:28:38.041Z</time>
      </trkpt>
      <trkpt lat="48.3748542" lon="-1.8306637">
        <ele>23.655</ele>
        <time>2018-08-17T15:28:41.894Z</time>
      </trkpt>
      <trkpt lat="48.3749329" lon="-1.8307542">
        <ele>23.815</ele>
        <time>2018-08-17T15:28:45.474Z</time>
      </trkpt>
      <trkpt lat="48.3750169" lon="-1.8308636">
        <ele>23.992</ele>
        <time>2018-08-17T15:28:49.466Z</time>
      </trkpt>
      <trkpt lat="48.3751009" lon="-1.8309832">
        <ele>24.346</ele>
        <time>2018-08-17T15:28:53.533Z</time>
      </trkpt>
      <trkpt lat="48.3751831" lon="-1.8310922">
        <ele>24.984</ele>
        <time>2018-08-17T15:28:57.368Z</time>
      </trkpt>
      <trkpt lat="48.3752689" lon="-1.8311993">
        <ele>25.819</ele>
        <time>2018-08-17T15:29:01.286Z</time>
      </trkpt>
      <trkpt lat="48.3753497" lon="-1.8313026">
        <ele>26.576</ele>
        <time>2018-08-17T15:29:05.081Z</time>
      </trkpt>
      <trkpt lat="48.3754287" lon="-1.8313914">
        <ele>27.020</ele>
        <time>2018-08-17T15:29:08.725Z</time>
      </trkpt>
      <trkpt lat="48.3755209" lon="-1.8314852">
        <ele>27.178</ele>
        <time>2018-08-17T15:29:13.031Z</time>
      </trkpt>
      <trkpt lat="48.3756090" lon="-1.8315889">
        <ele>27.197</ele>
        <time>2018-08-17T15:29:17.711Z</time>
      </trkpt>
      <trkpt lat="48.3756809" lon="-1.8316843">
        <ele>27.392</ele>
        <time>2018-08-17T15:29:21.917Z</time>
      </trkpt>
      <trkpt lat="48.3757556" lon="-1.8317978">
        <ele>27.972</ele>
        <time>2018-08-17T15:29:26.470Z</time>
      </trkpt>
      <trkpt lat="48.3758290" lon="-1.8319202">
        <ele>28.653</ele>
        <time>2018-08-17T15:29:30.924Z</time>
      </trkpt>
      <trkpt lat="48.3758991" lon="-1.8320322">
        <ele>28.880</ele>
        <time>2018-08-17T15:29:35.120Z</time>
      </trkpt>
      <trkpt lat="48.3759767" lon="-1.8321368">
        <ele>28.540</ele>
        <time>2018-08-17T15:29:39.713Z</time>
      </trkpt>
      <trkpt lat="48.3760454" lon="-1.8322442">
        <ele>28.126</ele>
        <time>2018-08-17T15:29:44.055Z</time>
      </trkpt>
      <trkpt lat="48.3761032" lon="-1.8323681">
        <ele>28.049</ele>
        <time>2018-08-17T15:29:48.073Z</time>
      </trkpt>
      <trkpt lat="48.3761640" lon="-1.8324728">
        <ele>28.106</ele>
        <time>2018-08-17T15:29:51.507Z</time>
      </trkpt>
      <trkpt lat="48.3762418" lon="-1.8325571">
        <ele>27.997</ele>
        <time>2018-08-17T15:29:54.927Z</time>
      </trkpt>
      <trkpt lat="48.3763264" lon="-1.8326165">
        <ele>27.394</ele>
        <time>2018-08-17T15:29:58.243Z</time>
      </trkpt>
      <trkpt lat="48.3764040" lon="-1.8326861">
        <ele>26.194</ele>
        <time>2018-08-17T15:30:01.525Z</time>
      </trkpt>
      <trkpt lat="48.3764917" lon="-1.8327846">
        <ele>24.940</ele>
        <time>2018-08-17T15:30:05.713Z</time>
      </trkpt>
      <trkpt lat="48.3765533" lon="-1.8328969">
        <ele>24.206</ele>
        <time>2018-08-17T15:30:09.495Z</time>
      </trkpt>
      <trkpt lat="48.3765907" lon="-1.8330623">
        <ele>24.046</ele>
        <time>2018-08-17T15:30:13.902Z</time>
      </trkpt>
      <trkpt lat="48.3766091" lon="-1.8332247">
        <ele>24.389</ele>
        <time>2018-08-17T15:30:17.979Z</time>
      </trkpt>
      <trkpt lat="48.3766424" lon="-1.8333849">
        <ele>25.024</ele>
        <time>2018-08-17T15:30:22.112Z</time>
      </trkpt>
      <trkpt lat="48.3767129" lon="-1.8335056">
        <ele>25.633</ele>
        <time>2018-08-17T15:30:26.150Z</time>
      </trkpt>
      <trkpt lat="48.3767989" lon="-1.8335961">
        <ele>26.022</ele>
        <time>2018-08-17T15:30:30.313Z</time>
      </trkpt>
      <trkpt lat="48.3768566" lon="-1.8337051">
        <ele>26.179</ele>
        <time>2018-08-17T15:30:34.221Z</time>
      </trkpt>
      <trkpt lat="48.3768994" lon="-1.8338594">
        <ele>26.197</ele>
        <time>2018-08-17T15:30:38.958Z</time>
      </trkpt>
      <trkpt lat="48.3769372" lon="-1.8339933">
        <ele>26.212</ele>
        <time>2018-08-17T15:30:42.986Z</time>
      </trkpt>
      <trkpt lat="48.3769755" lon="-1.8341264">
        <ele>26.397</ele>
        <time>2018-08-17T15:30:46.960Z</time>
      </trkpt>
      <trkpt lat="48.3770186" lon="-1.8342515">
        <ele>26.839</ele>
        <time>2018-08-17T15:30:50.826Z</time>
      </trkpt>
      <trkpt lat="48.3770611" lon="-1.8343754">
        <ele>27.344</ele>
        <time>2018-08-17T15:30:54.658Z</time>
      </trkpt>
      <trkpt lat="48.3770986" lon="-1.8345050">
        <ele>27.662</ele>
        <time>2018-08-17T15:30:58.587Z</time>
      </trkpt>
      <trkpt lat="48.3771370" lon="-1.8346275">
        <ele>27.760</ele>
        <time>2018-08-17T15:31:02.391Z</time>
      </trkpt>
      <trkpt lat="48.3771780" lon="-1.8347502">
        <ele>27.723</ele>
        <time>2018-08-17T15:31:06.281Z</time>
      </trkpt>
      <trkpt lat="48.3772275" lon="-1.8348986">
        <ele>27.645</ele>
        <time>2018-08-17T15:31:10.963Z</time>
      </trkpt>
      <trkpt lat="48.3772647" lon="-1.8350304">
        <ele>27.735</ele>
        <time>2018-08-17T15:31:14.907Z</time>
      </trkpt>
      <trkpt lat="48.3772959" lon="-1.8351656">
        <ele>28.096</ele>
        <time>2018-08-17T15:31:18.775Z</time>
      </trkpt>
      <trkpt lat="48.3773235" lon="-1.8353078">
        <ele>28.541</ele>
        <time>2018-08-17T15:31:22.713Z</time>
      </trkpt>
      <trkpt lat="48.3773394" lon="-1.8354616">
        <ele>28.873</ele>
        <time>2018-08-17T15:31:26.715Z</time>
      </trkpt>
      <trkpt lat="48.3773560" lon="-1.8356216">
        <ele>29.071</ele>
        <time>2018-08-17T15:31:30.778Z</time>
      </trkpt>
      <trkpt lat="48.3773823" lon="-1.8357700">
        <ele>29.195</ele>
        <time>2018-08-17T15:31:34.710Z</time>
      </trkpt>
      <trkpt lat="48.3774220" lon="-1.8358948">
        <ele>29.314</ele>
        <time>2018-08-17T15:31:38.511Z</time>
      </trkpt>
      <trkpt lat="48.3774663" lon="-1.8360284">
        <ele>29.315</ele>
        <time>2018-08-17T15:31:43.039Z</time>
      </trkpt>
      <trkpt lat="48.3774986" lon="-1.8361563">
        <ele>29.114</ele>
        <time>2018-08-17T15:31:47.791Z</time>
      </trkpt>
      <trkpt lat="48.3775370" lon="-1.8362805">
        <ele>29.065</ele>
        <time>2018-08-17T15:31:53.351Z</time>
      </trkpt>
      <trkpt lat="48.3775927" lon="-1.8363969">
        <ele>29.443</ele>
        <time>2018-08-17T15:31:59.441Z</time>
      </trkpt>
      <trkpt lat="48.3776536" lon="-1.8365097">
        <ele>29.916</ele>
        <time>2018-08-17T15:32:06.060Z</time>
      </trkpt>
      <trkpt lat="48.3777085" lon="-1.8366217">
        <ele>30.129</ele>
        <time>2018-08-17T15:32:12.857Z</time>
      </trkpt>
      <trkpt lat="48.3777485" lon="-1.8367468">
        <ele>30.168</ele>
        <time>2018-08-17T15:32:20.018Z</time>
      </trkpt>
      <trkpt lat="48.3777470" lon="-1.8368927">
        <ele>30.328</ele>
        <time>2018-08-17T15:32:26.182Z</time>
      </trkpt>
      <trkpt lat="48.3777732" lon="-1.8370351">
        <ele>30.715</ele>
        <time>2018-08-17T15:32:30.200Z</time>
      </trkpt>
      <trkpt lat="48.3778202" lon="-1.8371934">
        <ele>30.971</ele>
        <time>2018-08-17T15:32:33.575Z</time>
      </trkpt>
      <trkpt lat="48.3778721" lon="-1.8373868">
        <ele>30.788</ele>
        <time>2018-08-17T15:32:36.760Z</time>
      </trkpt>
      <trkpt lat="48.3779140" lon="-1.8375200">
        <ele>30.322</ele>
        <time>2018-08-17T15:32:38.695Z</time>
      </trkpt>
      <trkpt lat="48.3779686" lon="-1.8377355">
        <ele>29.788</ele>
        <time>2018-08-17T15:32:41.623Z</time>
      </trkpt>
      <trkpt lat="48.3780157" lon="-1.8378737">
        <ele>29.302</ele>
        <time>2018-08-17T15:32:43.789Z</time>
      </trkpt>
      <trkpt lat="48.3780706" lon="-1.8380091">
        <ele>28.898</ele>
        <time>2018-08-17T15:32:46.546Z</time>
      </trkpt>
      <trkpt lat="48.3781004" lon="-1.8381478">
        <ele>28.537</ele>
        <time>2018-08-17T15:32:49.786Z</time>
      </trkpt>
      <trkpt lat="48.3781295" lon="-1.8382820">
        <ele>28.377</ele>
        <time>2018-08-17T15:32:53.732Z</time>
      </trkpt>
      <trkpt lat="48.3781835" lon="-1.8384284">
        <ele>28.545</ele>
        <time>2018-08-17T15:32:58.388Z</time>
      </trkpt>
      <trkpt lat="48.3782275" lon="-1.8385617">
        <ele>28.768</ele>
        <time>2018-08-17T15:33:02.326Z</time>
      </trkpt>
      <trkpt lat="48.3782827" lon="-1.8387087">
        <ele>28.736</ele>
        <time>2018-08-17T15:33:06.458Z</time>
      </trkpt>
      <trkpt lat="48.3783374" lon="-1.8388583">
        <ele>28.407</ele>
        <time>2018-08-17T15:33:10.440Z</time>
      </trkpt>
      <trkpt lat="48.3783817" lon="-1.8389877">
        <ele>27.958</ele>
        <time>2018-08-17T15:33:14.065Z</time>
      </trkpt>
      <trkpt lat="48.3784265" lon="-1.8391349">
        <ele>27.545</ele>
        <time>2018-08-17T15:33:18.242Z</time>
      </trkpt>
      <trkpt lat="48.3784711" lon="-1.8392880">
        <ele>27.227</ele>
        <time>2018-08-17T15:33:22.315Z</time>
      </trkpt>
      <trkpt lat="48.3785204" lon="-1.8394377">
        <ele>26.994</ele>
        <time>2018-08-17T15:33:26.347Z</time>
      </trkpt>
      <trkpt lat="48.3785562" lon="-1.8395624">
        <ele>26.795</ele>
        <time>2018-08-17T15:33:29.558Z</time>
      </trkpt>
      <trkpt lat="48.3785975" lon="-1.8396855">
        <ele>26.573</ele>
        <time>2018-08-17T15:33:32.718Z</time>
      </trkpt>
      <trkpt lat="48.3786310" lon="-1.8398131">
        <ele>26.298</ele>
        <time>2018-08-17T15:33:35.801Z</time>
      </trkpt>
      <trkpt lat="48.3786787" lon="-1.8399645">
        <ele>25.933</ele>
        <time>2018-08-17T15:33:39.600Z</time>
      </trkpt>
      <trkpt lat="48.3787213" lon="-1.8401136">
        <ele>25.568</ele>
        <time>2018-08-17T15:33:43.400Z</time>
      </trkpt>
      <trkpt lat="48.3787677" lon="-1.8402657">
        <ele>25.379</ele>
        <time>2018-08-17T15:33:47.414Z</time>
      </trkpt>
      <trkpt lat="48.3788131" lon="-1.8404022">
        <ele>25.415</ele>
        <time>2018-08-17T15:33:51.223Z</time>
      </trkpt>
      <trkpt lat="48.3788638" lon="-1.8405509">
        <ele>25.401</ele>
        <time>2018-08-17T15:33:55.484Z</time>
      </trkpt>
      <trkpt lat="48.3789088" lon="-1.8407075">
        <ele>25.132</ele>
        <time>2018-08-17T15:33:59.944Z</time>
      </trkpt>
      <trkpt lat="48.3789442" lon="-1.8408428">
        <ele>24.886</ele>
        <time>2018-08-17T15:34:04.210Z</time>
      </trkpt>
      <trkpt lat="48.3789843" lon="-1.8409820">
        <ele>25.135</ele>
        <time>2018-08-17T15:34:09.408Z</time>
      </trkpt>
      <trkpt lat="48.3790313" lon="-1.8411141">
        <ele>26.091</ele>
        <time>2018-08-17T15:34:14.578Z</time>
      </trkpt>
      <trkpt lat="48.3790779" lon="-1.8412491">
        <ele>27.397</ele>
        <time>2018-08-17T15:34:19.681Z</time>
      </trkpt>
      <trkpt lat="48.3791182" lon="-1.8413772">
        <ele>28.372</ele>
        <time>2018-08-17T15:34:24.664Z</time>
      </trkpt>
      <trkpt lat="48.3791586" lon="-1.8415217">
        <ele>28.764</ele>
        <time>2018-08-17T15:34:31.070Z</time>
      </trkpt>
      <trkpt lat="48.3791927" lon="-1.8416625">
        <ele>28.956</ele>
        <time>2018-08-17T15:34:37.414Z</time>
      </trkpt>
      <trkpt lat="48.3792235" lon="-1.8418015">
        <ele>29.338</ele>
        <time>2018-08-17T15:34:42.749Z</time>
      </trkpt>
      <trkpt lat="48.3792598" lon="-1.8419547">
        <ele>29.890</ele>
        <time>2018-08-17T15:34:48.154Z</time>
      </trkpt>
      <trkpt lat="48.3793078" lon="-1.8420754">
        <ele>30.370</ele>
        <time>2018-08-17T15:34:52.518Z</time>
      </trkpt>
      <trkpt lat="48.3793573" lon="-1.8421997">
        <ele>30.489</ele>
        <time>2018-08-17T15:34:56.757Z</time>
      </trkpt>
      <trkpt lat="48.3793993" lon="-1.8423416">
        <ele>30.162</ele>
        <time>2018-08-17T15:35:01.163Z</time>
      </trkpt>
      <trkpt lat="48.3794420" lon="-1.8424750">
        <ele>29.865</ele>
        <time>2018-08-17T15:35:05.268Z</time>
      </trkpt>
      <trkpt lat="48.3794911" lon="-1.8426146">
        <ele>29.979</ele>
        <time>2018-08-17T15:35:09.381Z</time>
      </trkpt>
      <trkpt lat="48.3795445" lon="-1.8427616">
        <ele>30.183</ele>
        <time>2018-08-17T15:35:13.546Z</time>
      </trkpt>
      <trkpt lat="48.3795881" lon="-1.8429019">
        <ele>30.059</ele>
        <time>2018-08-17T15:35:17.360Z</time>
      </trkpt>
      <trkpt lat="48.3796348" lon="-1.8430531">
        <ele>29.720</ele>
        <time>2018-08-17T15:35:21.403Z</time>
      </trkpt>
      <trkpt lat="48.3796823" lon="-1.8431974">
        <ele>29.480</ele>
        <time>2018-08-17T15:35:25.282Z</time>
      </trkpt>
      <trkpt lat="48.3797326" lon="-1.8433450">
        <ele>29.445</ele>
        <time>2018-08-17T15:35:29.294Z</time>
      </trkpt>
      <trkpt lat="48.3797850" lon="-1.8434810">
        <ele>29.570</ele>
        <time>2018-08-17T15:35:33.103Z</time>
      </trkpt>
      <trkpt lat="48.3798346" lon="-1.8436175">
        <ele>29.767</ele>
        <time>2018-08-17T15:35:36.988Z</time>
      </trkpt>
      <trkpt lat="48.3798789" lon="-1.8437400">
        <ele>29.923</ele>
        <time>2018-08-17T15:35:40.650Z</time>
      </trkpt>
      <trkpt lat="48.3799222" lon="-1.8438826">
        <ele>29.974</ele>
        <time>2018-08-17T15:35:44.776Z</time>
      </trkpt>
      <trkpt lat="48.3799723" lon="-1.8440384">
        <ele>29.637</ele>
        <time>2018-08-17T15:35:49.163Z</time>
      </trkpt>
      <trkpt lat="48.3800206" lon="-1.8441808">
        <ele>28.747</ele>
        <time>2018-08-17T15:35:53.253Z</time>
      </trkpt>
      <trkpt lat="48.3800677" lon="-1.8443098">
        <ele>27.781</ele>
        <time>2018-08-17T15:35:57.081Z</time>
      </trkpt>
      <trkpt lat="48.3801070" lon="-1.8444518">
        <ele>27.360</ele>
        <time>2018-08-17T15:36:01.004Z</time>
      </trkpt>
      <trkpt lat="48.3801463" lon="-1.8446061">
        <ele>27.573</ele>
        <time>2018-08-17T15:36:05.163Z</time>
      </trkpt>
      <trkpt lat="48.3801910" lon="-1.8447492">
        <ele>28.074</ele>
        <time>2018-08-17T15:36:09.209Z</time>
      </trkpt>
      <trkpt lat="48.3802435" lon="-1.8449060">
        <ele>28.214</ele>
        <time>2018-08-17T15:36:13.645Z</time>
      </trkpt>
      <trkpt lat="48.3802835" lon="-1.8450275">
        <ele>27.666</ele>
        <time>2018-08-17T15:36:16.887Z</time>
      </trkpt>
      <trkpt lat="48.3803252" lon="-1.8451589">
        <ele>26.720</ele>
        <time>2018-08-17T15:36:20.363Z</time>
      </trkpt>
      <trkpt lat="48.3803712" lon="-1.8453012">
        <ele>25.845</ele>
        <time>2018-08-17T15:36:24.175Z</time>
      </trkpt>
      <trkpt lat="48.3804190" lon="-1.8454568">
        <ele>25.321</ele>
        <time>2018-08-17T15:36:28.209Z</time>
      </trkpt>
      <trkpt lat="48.3804759" lon="-1.8456163">
        <ele>25.187</ele>
        <time>2018-08-17T15:36:32.405Z</time>
      </trkpt>
      <trkpt lat="48.3805183" lon="-1.8457783">
        <ele>25.339</ele>
        <time>2018-08-17T15:36:36.473Z</time>
      </trkpt>
      <trkpt lat="48.3805554" lon="-1.8459383">
        <ele>25.856</ele>
        <time>2018-08-17T15:36:40.353Z</time>
      </trkpt>
      <trkpt lat="48.3806060" lon="-1.8461065">
        <ele>26.918</ele>
        <time>2018-08-17T15:36:44.407Z</time>
      </trkpt>
      <trkpt lat="48.3806496" lon="-1.8462338">
        <ele>28.268</ele>
        <time>2018-08-17T15:36:47.532Z</time>
      </trkpt>
      <trkpt lat="48.3807026" lon="-1.8463929">
        <ele>29.259</ele>
        <time>2018-08-17T15:36:51.463Z</time>
      </trkpt>
      <trkpt lat="48.3807543" lon="-1.8465436">
        <ele>29.654</ele>
        <time>2018-08-17T15:36:55.230Z</time>
      </trkpt>
      <trkpt lat="48.3808012" lon="-1.8467044">
        <ele>29.749</ele>
        <time>2018-08-17T15:36:59.155Z</time>
      </trkpt>
      <trkpt lat="48.3808456" lon="-1.8468674">
        <ele>30.030</ele>
        <time>2018-08-17T15:37:03.089Z</time>
      </trkpt>
      <trkpt lat="48.3808870" lon="-1.8469894">
        <ele>30.708</ele>
        <time>2018-08-17T15:37:06.246Z</time>
      </trkpt>
      <trkpt lat="48.3809442" lon="-1.8471230">
        <ele>31.380</ele>
        <time>2018-08-17T15:37:10.108Z</time>
      </trkpt>
      <trkpt lat="48.3809951" lon="-1.8472653">
        <ele>31.653</ele>
        <time>2018-08-17T15:37:14.081Z</time>
      </trkpt>
      <trkpt lat="48.3810495" lon="-1.8474165">
        <ele>31.632</ele>
        <time>2018-08-17T15:37:18.140Z</time>
      </trkpt>
      <trkpt lat="48.3810832" lon="-1.8475447">
        <ele>31.527</ele>
        <time>2018-08-17T15:37:21.368Z</time>
      </trkpt>
      <trkpt lat="48.3811236" lon="-1.8477012">
        <ele>31.272</ele>
        <time>2018-08-17T15:37:25.428Z</time>
      </trkpt>
      <trkpt lat="48.3811657" lon="-1.8478470">
        <ele>30.687</ele>
        <time>2018-08-17T15:37:29.230Z</time>
      </trkpt>
      <trkpt lat="48.3812140" lon="-1.8480054">
        <ele>29.925</ele>
        <time>2018-08-17T15:37:33.258Z</time>
      </trkpt>
      <trkpt lat="48.3812623" lon="-1.8481658">
        <ele>29.385</ele>
        <time>2018-08-17T15:37:37.323Z</time>
      </trkpt>
      <trkpt lat="48.3813087" lon="-1.8483141">
        <ele>29.237</ele>
        <time>2018-08-17T15:37:41.111Z</time>
      </trkpt>
      <trkpt lat="48.3813436" lon="-1.8484418">
        <ele>29.322</ele>
        <time>2018-08-17T15:37:44.261Z</time>
      </trkpt>
      <trkpt lat="48.3813975" lon="-1.8485984">
        <ele>29.346</ele>
        <time>2018-08-17T15:37:48.266Z</time>
      </trkpt>
      <trkpt lat="48.3814493" lon="-1.8487543">
        <ele>29.202</ele>
        <time>2018-08-17T15:37:52.206Z</time>
      </trkpt>
      <trkpt lat="48.3815016" lon="-1.8489068">
        <ele>28.995</ele>
        <time>2018-08-17T15:37:56.181Z</time>
      </trkpt>
      <trkpt lat="48.3815494" lon="-1.8490544">
        <ele>28.850</ele>
        <time>2018-08-17T15:38:00.100Z</time>
      </trkpt>
      <trkpt lat="48.3815917" lon="-1.8492037">
        <ele>28.682</ele>
        <time>2018-08-17T15:38:04.000Z</time>
      </trkpt>
      <trkpt lat="48.3816308" lon="-1.8493598">
        <ele>28.296</ele>
        <time>2018-08-17T15:38:07.949Z</time>
      </trkpt>
      <trkpt lat="48.3816702" lon="-1.8495222">
        <ele>27.741</ele>
        <time>2018-08-17T15:38:11.970Z</time>
      </trkpt>
      <trkpt lat="48.3817074" lon="-1.8496826">
        <ele>27.351</ele>
        <time>2018-08-17T15:38:16.027Z</time>
      </trkpt>
      <trkpt lat="48.3817332" lon="-1.8498310">
        <ele>27.278</ele>
        <time>2018-08-17T15:38:19.854Z</time>
      </trkpt>
      <trkpt lat="48.3817565" lon="-1.8499810">
        <ele>27.351</ele>
        <time>2018-08-17T15:38:23.700Z</time>
      </trkpt>
      <trkpt lat="48.3817728" lon="-1.8501426">
        <ele>27.377</ele>
        <time>2018-08-17T15:38:27.685Z</time>
      </trkpt>
      <trkpt lat="48.3817836" lon="-1.8503066">
        <ele>27.266</ele>
        <time>2018-08-17T15:38:31.718Z</time>
      </trkpt>
      <trkpt lat="48.3817938" lon="-1.8504542">
        <ele>26.959</ele>
        <time>2018-08-17T15:38:35.481Z</time>
      </trkpt>
      <trkpt lat="48.3818002" lon="-1.8506153">
        <ele>26.350</ele>
        <time>2018-08-17T15:38:39.726Z</time>
      </trkpt>
      <trkpt lat="48.3817911" lon="-1.8507729">
        <ele>25.547</ele>
        <time>2018-08-17T15:38:43.929Z</time>
      </trkpt>
      <trkpt lat="48.3817740" lon="-1.8509334">
        <ele>24.958</ele>
        <time>2018-08-17T15:38:48.087Z</time>
      </trkpt>
      <trkpt lat="48.3817538" lon="-1.8511005">
        <ele>24.948</ele>
        <time>2018-08-17T15:38:52.220Z</time>
      </trkpt>
      <trkpt lat="48.3817326" lon="-1.8512706">
        <ele>25.492</ele>
        <time>2018-08-17T15:38:56.249Z</time>
      </trkpt>
      <trkpt lat="48.3817085" lon="-1.8514451">
        <ele>26.471</ele>
        <time>2018-08-17T15:39:00.258Z</time>
      </trkpt>
      <trkpt lat="48.3816756" lon="-1.8516145">
        <ele>27.772</ele>
        <time>2018-08-17T15:39:04.246Z</time>
      </trkpt>
      <trkpt lat="48.3816425" lon="-1.8517754">
        <ele>28.985</ele>
        <time>2018-08-17T15:39:08.255Z</time>
      </trkpt>
      <trkpt lat="48.3816004" lon="-1.8519304">
        <ele>29.647</ele>
        <time>2018-08-17T15:39:12.570Z</time>
      </trkpt>
      <trkpt lat="48.3815679" lon="-1.8520947">
        <ele>29.770</ele>
        <time>2018-08-17T15:39:17.101Z</time>
      </trkpt>
      <trkpt lat="48.3815252" lon="-1.8522333">
        <ele>29.270</ele>
        <time>2018-08-17T15:39:20.952Z</time>
      </trkpt>
      <trkpt lat="48.3814700" lon="-1.8523738">
        <ele>28.137</ele>
        <time>2018-08-17T15:39:24.887Z</time>
      </trkpt>
      <trkpt lat="48.3814175" lon="-1.8525167">
        <ele>26.983</ele>
        <time>2018-08-17T15:39:28.755Z</time>
      </trkpt>
      <trkpt lat="48.3813638" lon="-1.8526659">
        <ele>26.384</ele>
        <time>2018-08-17T15:39:32.930Z</time>
      </trkpt>
      <trkpt lat="48.3813537" lon="-1.8528143">
        <ele>26.328</ele>
        <time>2018-08-17T15:39:36.933Z</time>
      </trkpt>
      <trkpt lat="48.3813232" lon="-1.8529426">
        <ele>26.689</ele>
        <time>2018-08-17T15:39:40.561Z</time>
      </trkpt>
      <trkpt lat="48.3812631" lon="-1.8530442">
        <ele>27.247</ele>
        <time>2018-08-17T15:39:43.809Z</time>
      </trkpt>
      <trkpt lat="48.3811895" lon="-1.8531321">
        <ele>27.667</ele>
        <time>2018-08-17T15:39:47.128Z</time>
      </trkpt>
      <trkpt lat="48.3811095" lon="-1.8532326">
        <ele>27.773</ele>
        <time>2018-08-17T15:39:51.112Z</time>
      </trkpt>
      <trkpt lat="48.3810323" lon="-1.8533105">
        <ele>27.699</ele>
        <time>2018-08-17T15:39:54.723Z</time>
      </trkpt>
      <trkpt lat="48.3809318" lon="-1.8533960">
        <ele>27.695</ele>
        <time>2018-08-17T15:39:58.731Z</time>
      </trkpt>
      <trkpt lat="48.3808445" lon="-1.8534904">
        <ele>27.849</ele>
        <time>2018-08-17T15:40:01.123Z</time>
      </trkpt>
      <trkpt lat="48.3807468" lon="-1.8535862">
        <ele>27.926</ele>
        <time>2018-08-17T15:40:03.165Z</time>
      </trkpt>
      <trkpt lat="48.3806480" lon="-1.8536763">
        <ele>27.642</ele>
        <time>2018-08-17T15:40:05.148Z</time>
      </trkpt>
      <trkpt lat="48.3805066" lon="-1.8537861">
        <ele>27.044</ele>
        <time>2018-08-17T15:40:07.990Z</time>
      </trkpt>
      <trkpt lat="48.3804133" lon="-1.8538508">
        <ele>26.435</ele>
        <time>2018-08-17T15:40:09.986Z</time>
      </trkpt>
      <trkpt lat="48.3803289" lon="-1.8538987">
        <ele>26.021</ele>
        <time>2018-08-17T15:40:11.901Z</time>
      </trkpt>
      <trkpt lat="48.3802069" lon="-1.8539684">
        <ele>25.787</ele>
        <time>2018-08-17T15:40:14.881Z</time>
      </trkpt>
      <trkpt lat="48.3801017" lon="-1.8540082">
        <ele>25.619</ele>
        <time>2018-08-17T15:40:17.638Z</time>
      </trkpt>
      <trkpt lat="48.3800034" lon="-1.8540542">
        <ele>25.469</ele>
        <time>2018-08-17T15:40:20.496Z</time>
      </trkpt>
      <trkpt lat="48.3799125" lon="-1.8540912">
        <ele>25.379</ele>
        <time>2018-08-17T15:40:23.288Z</time>
      </trkpt>
      <trkpt lat="48.3798183" lon="-1.8541232">
        <ele>25.374</ele>
        <time>2018-08-17T15:40:26.232Z</time>
      </trkpt>
      <trkpt lat="48.3797250" lon="-1.8541487">
        <ele>25.416</ele>
        <time>2018-08-17T15:40:29.138Z</time>
      </trkpt>
      <trkpt lat="48.3796354" lon="-1.8541622">
        <ele>25.412</ele>
        <time>2018-08-17T15:40:31.919Z</time>
      </trkpt>
      <trkpt lat="48.3795432" lon="-1.8541756">
        <ele>25.172</ele>
        <time>2018-08-17T15:40:34.785Z</time>
      </trkpt>
      <trkpt lat="48.3794404" lon="-1.8541776">
        <ele>24.540</ele>
        <time>2018-08-17T15:40:37.899Z</time>
      </trkpt>
      <trkpt lat="48.3793377" lon="-1.8541697">
        <ele>23.701</ele>
        <time>2018-08-17T15:40:40.974Z</time>
      </trkpt>
      <trkpt lat="48.3792384" lon="-1.8541627">
        <ele>23.070</ele>
        <time>2018-08-17T15:40:43.993Z</time>
      </trkpt>
      <trkpt lat="48.3791410" lon="-1.8541566">
        <ele>22.819</ele>
        <time>2018-08-17T15:40:46.984Z</time>
      </trkpt>
      <trkpt lat="48.3790478" lon="-1.8541378">
        <ele>22.834</ele>
        <time>2018-08-17T15:40:49.920Z</time>
      </trkpt>
      <trkpt lat="48.3789303" lon="-1.8541338">
        <ele>22.989</ele>
        <time>2018-08-17T15:40:53.681Z</time>
      </trkpt>
      <trkpt lat="48.3788401" lon="-1.8541475">
        <ele>23.177</ele>
        <time>2018-08-17T15:40:56.621Z</time>
      </trkpt>
      <trkpt lat="48.3787487" lon="-1.8541504">
        <ele>23.249</ele>
        <time>2018-08-17T15:40:59.565Z</time>
      </trkpt>
      <trkpt lat="48.3786576" lon="-1.8541402">
        <ele>23.119</ele>
        <time>2018-08-17T15:41:02.485Z</time>
      </trkpt>
      <trkpt lat="48.3785668" lon="-1.8541332">
        <ele>22.859</ele>
        <time>2018-08-17T15:41:05.373Z</time>
      </trkpt>
      <trkpt lat="48.3784751" lon="-1.8541438">
        <ele>22.556</ele>
        <time>2018-08-17T15:41:08.271Z</time>
      </trkpt>
      <trkpt lat="48.3783574" lon="-1.8541475">
        <ele>22.195</ele>
        <time>2018-08-17T15:41:12.000Z</time>
      </trkpt>
      <trkpt lat="48.3783574" lon="-1.8541475">
        <ele>21.831</ele>
        <time>2018-08-17T15:41:15.000Z</time>
      </trkpt>
      <trkpt lat="48.3783574" lon="-1.8541475">
        <ele>21.630</ele>
        <time>2018-08-17T15:41:15.100Z</time>
      </trkpt>
      <trkpt lat="48.3781252" lon="-1.8541627">
        <ele>21.637</ele>
        <time>2018-08-17T15:41:23.714Z</time>
      </trkpt>
      <trkpt lat="48.3780337" lon="-1.8541596">
        <ele>21.717</ele>
        <time>2018-08-17T15:41:26.117Z</time>
      </trkpt>
      <trkpt lat="48.3779408" lon="-1.8541539">
        <ele>21.744</ele>
        <time>2018-08-17T15:41:28.528Z</time>
      </trkpt>
      <trkpt lat="48.3778509" lon="-1.8541509">
        <ele>21.721</ele>
        <time>2018-08-17T15:41:30.885Z</time>
      </trkpt>
      <trkpt lat="48.3777391" lon="-1.8541611">
        <ele>21.696</ele>
        <time>2018-08-17T15:41:33.836Z</time>
      </trkpt>
      <trkpt lat="48.3776202" lon="-1.8541673">
        <ele>21.563</ele>
        <time>2018-08-17T15:41:37.000Z</time>
      </trkpt>
      <trkpt lat="48.3776202" lon="-1.8541673">
        <ele>21.254</ele>
        <time>2018-08-17T15:41:39.000Z</time>
      </trkpt>
      <trkpt lat="48.3776202" lon="-1.8541673">
        <ele>21.001</ele>
        <time>2018-08-17T15:41:39.100Z</time>
      </trkpt>
      <trkpt lat="48.3774109" lon="-1.8541404">
        <ele>21.024</ele>
        <time>2018-08-17T15:41:48.490Z</time>
      </trkpt>
      <trkpt lat="48.3773205" lon="-1.8541308">
        <ele>21.215</ele>
        <time>2018-08-17T15:41:51.422Z</time>
      </trkpt>
      <trkpt lat="48.3772268" lon="-1.8541169">
        <ele>21.425</ele>
        <time>2018-08-17T15:41:54.425Z</time>
      </trkpt>
      <trkpt lat="48.3771333" lon="-1.8541115">
        <ele>21.640</ele>
        <time>2018-08-17T15:41:57.424Z</time>
      </trkpt>
      <trkpt lat="48.3770428" lon="-1.8541175">
        <ele>21.865</ele>
        <time>2018-08-17T15:42:00.377Z</time>
      </trkpt>
      <trkpt lat="48.3769521" lon="-1.8541258">
        <ele>22.141</ele>
        <time>2018-08-17T15:42:03.392Z</time>
      </trkpt>
      <trkpt lat="48.3768615" lon="-1.8541303">
        <ele>22.581</ele>
        <time>2018-08-17T15:42:06.418Z</time>
      </trkpt>
      <trkpt lat="48.3767462" lon="-1.8541618">
        <ele>23.125</ele>
        <time>2018-08-17T15:42:10.319Z</time>
      </trkpt>
      <trkpt lat="48.3766318" lon="-1.8542134">
        <ele>23.528</ele>
        <time>2018-08-17T15:42:14.264Z</time>
      </trkpt>
      <trkpt lat="48.3765427" lon="-1.8542579">
        <ele>23.579</ele>
        <time>2018-08-17T15:42:17.413Z</time>
      </trkpt>
      <trkpt lat="48.3764403" lon="-1.8543253">
        <ele>23.260</ele>
        <time>2018-08-17T15:42:21.288Z</time>
      </trkpt>
      <trkpt lat="48.3763429" lon="-1.8544141">
        <ele>22.796</ele>
        <time>2018-08-17T15:42:25.231Z</time>
      </trkpt>
      <trkpt lat="48.3762710" lon="-1.8544952">
        <ele>22.461</ele>
        <time>2018-08-17T15:42:28.333Z</time>
      </trkpt>
      <trkpt lat="48.3761814" lon="-1.8546035">
        <ele>22.346</ele>
        <time>2018-08-17T15:42:32.320Z</time>
      </trkpt>
      <trkpt lat="48.3760967" lon="-1.8547169">
        <ele>22.388</ele>
        <time>2018-08-17T15:42:36.179Z</time>
      </trkpt>
      <trkpt lat="48.3760202" lon="-1.8548453">
        <ele>22.363</ele>
        <time>2018-08-17T15:42:39.956Z</time>
      </trkpt>
      <trkpt lat="48.3759515" lon="-1.8549890">
        <ele>21.936</ele>
        <time>2018-08-17T15:42:43.777Z</time>
      </trkpt>
      <trkpt lat="48.3758919" lon="-1.8551385">
        <ele>21.151</ele>
        <time>2018-08-17T15:42:47.528Z</time>
      </trkpt>
      <trkpt lat="48.3758536" lon="-1.8552666">
        <ele>20.540</ele>
        <time>2018-08-17T15:42:50.622Z</time>
      </trkpt>
      <trkpt lat="48.3758088" lon="-1.8554300">
        <ele>20.451</ele>
        <time>2018-08-17T15:42:54.672Z</time>
      </trkpt>
      <trkpt lat="48.3757732" lon="-1.8555931">
        <ele>20.757</ele>
        <time>2018-08-17T15:42:58.580Z</time>
      </trkpt>
      <trkpt lat="48.3757543" lon="-1.8557255">
        <ele>21.260</ele>
        <time>2018-08-17T15:43:01.544Z</time>
      </trkpt>
      <trkpt lat="48.3757354" lon="-1.8558701">
        <ele>21.794</ele>
        <time>2018-08-17T15:43:04.761Z</time>
      </trkpt>
      <trkpt lat="48.3757218" lon="-1.8560424">
        <ele>22.236</ele>
        <time>2018-08-17T15:43:08.819Z</time>
      </trkpt>
      <trkpt lat="48.3757186" lon="-1.8561952">
        <ele>22.711</ele>
        <time>2018-08-17T15:43:12.594Z</time>
      </trkpt>
      <trkpt lat="48.3757238" lon="-1.8563507">
        <ele>23.432</ele>
        <time>2018-08-17T15:43:16.515Z</time>
      </trkpt>
      <trkpt lat="48.3757224" lon="-1.8565048">
        <ele>24.256</ele>
        <time>2018-08-17T15:43:20.483Z</time>
      </trkpt>
      <trkpt lat="48.3757275" lon="-1.8566599">
        <ele>24.902</ele>
        <time>2018-08-17T15:43:24.612Z</time>
      </trkpt>
      <trkpt lat="48.3757280" lon="-1.8568075">
        <ele>25.332</ele>
        <time>2018-08-17T15:43:28.700Z</time>
      </trkpt>
      <trkpt lat="48.3757337" lon="-1.8569763">
        <ele>25.781</ele>
        <time>2018-08-17T15:43:33.322Z</time>
      </trkpt>
      <trkpt lat="48.3757517" lon="-1.8571259">
        <ele>26.444</ele>
        <time>2018-08-17T15:43:37.242Z</time>
      </trkpt>
      <trkpt lat="48.3757765" lon="-1.8572818">
        <ele>27.145</ele>
        <time>2018-08-17T15:43:41.100Z</time>
      </trkpt>
      <trkpt lat="48.3758112" lon="-1.8574477">
        <ele>27.526</ele>
        <time>2018-08-17T15:43:45.368Z</time>
      </trkpt>
      <trkpt lat="48.3758068" lon="-1.8575844">
        <ele>27.508</ele>
        <time>2018-08-17T15:43:49.062Z</time>
      </trkpt>
      <trkpt lat="48.3758079" lon="-1.8577255">
        <ele>27.286</ele>
        <time>2018-08-17T15:43:52.946Z</time>
      </trkpt>
      <trkpt lat="48.3758215" lon="-1.8578708">
        <ele>27.051</ele>
        <time>2018-08-17T15:43:56.902Z</time>
      </trkpt>
      <trkpt lat="48.3758432" lon="-1.8580189">
        <ele>26.864</ele>
        <time>2018-08-17T15:44:00.899Z</time>
      </trkpt>
      <trkpt lat="48.3758606" lon="-1.8581687">
        <ele>26.803</ele>
        <time>2018-08-17T15:44:04.913Z</time>
      </trkpt>
      <trkpt lat="48.3758813" lon="-1.8583123">
        <ele>26.951</ele>
        <time>2018-08-17T15:44:08.911Z</time>
      </trkpt>
      <trkpt lat="48.3759003" lon="-1.8584485">
        <ele>27.358</ele>
        <time>2018-08-17T15:44:12.791Z</time>
      </trkpt>
      <trkpt lat="48.3759255" lon="-1.8585911">
        <ele>27.992</ele>
        <time>2018-08-17T15:44:16.929Z</time>
      </trkpt>
      <trkpt lat="48.3759558" lon="-1.8587263">
        <ele>28.778</ele>
        <time>2018-08-17T15:44:20.925Z</time>
      </trkpt>
      <trkpt lat="48.3759801" lon="-1.8588610">
        <ele>29.564</ele>
        <time>2018-08-17T15:44:24.816Z</time>
      </trkpt>
      <trkpt lat="48.3760005" lon="-1.8589982">
        <ele>29.912</ele>
        <time>2018-08-17T15:44:28.784Z</time>
      </trkpt>
      <trkpt lat="48.3760269" lon="-1.8591562">
        <ele>29.602</ele>
        <time>2018-08-17T15:44:33.427Z</time>
      </trkpt>
      <trkpt lat="48.3760567" lon="-1.8593150">
        <ele>29.156</ele>
        <time>2018-08-17T15:44:38.095Z</time>
      </trkpt>
      <trkpt lat="48.3760831" lon="-1.8594512">
        <ele>29.046</ele>
        <time>2018-08-17T15:44:41.969Z</time>
      </trkpt>
      <trkpt lat="48.3761103" lon="-1.8595918">
        <ele>29.134</ele>
        <time>2018-08-17T15:44:45.817Z</time>
      </trkpt>
      <trkpt lat="48.3761348" lon="-1.8597381">
        <ele>29.120</ele>
        <time>2018-08-17T15:44:49.700Z</time>
      </trkpt>
      <trkpt lat="48.3761624" lon="-1.8598813">
        <ele>28.957</ele>
        <time>2018-08-17T15:44:53.522Z</time>
      </trkpt>
      <trkpt lat="48.3762009" lon="-1.8600239">
        <ele>28.805</ele>
        <time>2018-08-17T15:44:57.457Z</time>
      </trkpt>
      <trkpt lat="48.3762363" lon="-1.8601716">
        <ele>28.771</ele>
        <time>2018-08-17T15:45:01.452Z</time>
      </trkpt>
      <trkpt lat="48.3762749" lon="-1.8603191">
        <ele>28.762</ele>
        <time>2018-08-17T15:45:05.471Z</time>
      </trkpt>
      <trkpt lat="48.3763097" lon="-1.8604616">
        <ele>28.678</ele>
        <time>2018-08-17T15:45:09.379Z</time>
      </trkpt>
      <trkpt lat="48.3763475" lon="-1.8605943">
        <ele>28.564</ele>
        <time>2018-08-17T15:45:13.171Z</time>
      </trkpt>
      <trkpt lat="48.3763852" lon="-1.8607343">
        <ele>28.511</ele>
        <time>2018-08-17T15:45:17.160Z</time>
      </trkpt>
      <trkpt lat="48.3764248" lon="-1.8608648">
        <ele>28.538</ele>
        <time>2018-08-17T15:45:21.011Z</time>
      </trkpt>
      <trkpt lat="48.3764626" lon="-1.8609888">
        <ele>28.600</ele>
        <time>2018-08-17T15:45:24.814Z</time>
      </trkpt>
      <trkpt lat="48.3765010" lon="-1.8611181">
        <ele>28.668</ele>
        <time>2018-08-17T15:45:28.769Z</time>
      </trkpt>
      <trkpt lat="48.3765409" lon="-1.8612588">
        <ele>28.748</ele>
        <time>2018-08-17T15:45:32.848Z</time>
      </trkpt>
      <trkpt lat="48.3765841" lon="-1.8613948">
        <ele>28.788</ele>
        <time>2018-08-17T15:45:36.773Z</time>
      </trkpt>
      <trkpt lat="48.3766275" lon="-1.8615259">
        <ele>28.752</ele>
        <time>2018-08-17T15:45:40.619Z</time>
      </trkpt>
      <trkpt lat="48.3766733" lon="-1.8616629">
        <ele>28.689</ele>
        <time>2018-08-17T15:45:44.619Z</time>
      </trkpt>
      <trkpt lat="48.3767224" lon="-1.8618019">
        <ele>28.651</ele>
        <time>2018-08-17T15:45:48.624Z</time>
      </trkpt>
      <trkpt lat="48.3767674" lon="-1.8619372">
        <ele>28.653</ele>
        <time>2018-08-17T15:45:52.467Z</time>
      </trkpt>
      <trkpt lat="48.3768172" lon="-1.8620633">
        <ele>28.687</ele>
        <time>2018-08-17T15:45:56.292Z</time>
      </trkpt>
      <trkpt lat="48.3768686" lon="-1.8621940">
        <ele>28.763</ele>
        <time>2018-08-17T15:46:00.310Z</time>
      </trkpt>
      <trkpt lat="48.3769173" lon="-1.8623285">
        <ele>28.880</ele>
        <time>2018-08-17T15:46:04.287Z</time>
      </trkpt>
      <trkpt lat="48.3769669" lon="-1.8624622">
        <ele>28.974</ele>
        <time>2018-08-17T15:46:08.190Z</time>
      </trkpt>
      <trkpt lat="48.3770210" lon="-1.8625947">
        <ele>28.955</ele>
        <time>2018-08-17T15:46:12.110Z</time>
      </trkpt>
      <trkpt lat="48.3770727" lon="-1.8627326">
        <ele>28.839</ele>
        <time>2018-08-17T15:46:16.066Z</time>
      </trkpt>
      <trkpt lat="48.3771315" lon="-1.8628617">
        <ele>28.713</ele>
        <time>2018-08-17T15:46:19.954Z</time>
      </trkpt>
      <trkpt lat="48.3771859" lon="-1.8629819">
        <ele>28.626</ele>
        <time>2018-08-17T15:46:23.674Z</time>
      </trkpt>
      <trkpt lat="48.3772422" lon="-1.8630960">
        <ele>28.574</ele>
        <time>2018-08-17T15:46:27.456Z</time>
      </trkpt>
      <trkpt lat="48.3772946" lon="-1.8632180">
        <ele>28.626</ele>
        <time>2018-08-17T15:46:31.396Z</time>
      </trkpt>
      <trkpt lat="48.3773429" lon="-1.8633342">
        <ele>28.816</ele>
        <time>2018-08-17T15:46:35.157Z</time>
      </trkpt>
      <trkpt lat="48.3774081" lon="-1.8634672">
        <ele>29.013</ele>
        <time>2018-08-17T15:46:39.856Z</time>
      </trkpt>
      <trkpt lat="48.3774715" lon="-1.8635780">
        <ele>29.077</ele>
        <time>2018-08-17T15:46:44.089Z</time>
      </trkpt>
      <trkpt lat="48.3775347" lon="-1.8637002">
        <ele>29.024</ele>
        <time>2018-08-17T15:46:48.443Z</time>
      </trkpt>
      <trkpt lat="48.3776005" lon="-1.8638284">
        <ele>28.859</ele>
        <time>2018-08-17T15:46:52.780Z</time>
      </trkpt>
      <trkpt lat="48.3776594" lon="-1.8639582">
        <ele>28.593</ele>
        <time>2018-08-17T15:46:56.873Z</time>
      </trkpt>
      <trkpt lat="48.3777216" lon="-1.8640726">
        <ele>28.279</ele>
        <time>2018-08-17T15:47:00.822Z</time>
      </trkpt>
      <trkpt lat="48.3777854" lon="-1.8641871">
        <ele>27.977</ele>
        <time>2018-08-17T15:47:04.926Z</time>
      </trkpt>
      <trkpt lat="48.3778505" lon="-1.8643047">
        <ele>27.764</ele>
        <time>2018-08-17T15:47:09.054Z</time>
      </trkpt>
      <trkpt lat="48.3779169" lon="-1.8644192">
        <ele>27.683</ele>
        <time>2018-08-17T15:47:13.104Z</time>
      </trkpt>
      <trkpt lat="48.3779811" lon="-1.8645332">
        <ele>27.674</ele>
        <time>2018-08-17T15:47:17.102Z</time>
      </trkpt>
      <trkpt lat="48.3780344" lon="-1.8646428">
        <ele>27.680</ele>
        <time>2018-08-17T15:47:20.822Z</time>
      </trkpt>
      <trkpt lat="48.3781085" lon="-1.8647523">
        <ele>27.682</ele>
        <time>2018-08-17T15:47:25.297Z</time>
      </trkpt>
      <trkpt lat="48.3781720" lon="-1.8648564">
        <ele>27.585</ele>
        <time>2018-08-17T15:47:29.403Z</time>
      </trkpt>
      <trkpt lat="48.3782475" lon="-1.8649736">
        <ele>27.341</ele>
        <time>2018-08-17T15:47:33.926Z</time>
      </trkpt>
      <trkpt lat="48.3783210" lon="-1.8650823">
        <ele>27.042</ele>
        <time>2018-08-17T15:47:38.023Z</time>
      </trkpt>
      <trkpt lat="48.3783944" lon="-1.8651950">
        <ele>26.803</ele>
        <time>2018-08-17T15:47:42.163Z</time>
      </trkpt>
      <trkpt lat="48.3784662" lon="-1.8653009">
        <ele>26.679</ele>
        <time>2018-08-17T15:47:46.132Z</time>
      </trkpt>
      <trkpt lat="48.3785370" lon="-1.8654109">
        <ele>26.665</ele>
        <time>2018-08-17T15:47:50.179Z</time>
      </trkpt>
      <trkpt lat="48.3786085" lon="-1.8655088">
        <ele>26.444</ele>
        <time>2018-08-17T15:47:53.999Z</time>
      </trkpt>
      <trkpt lat="48.3786085" lon="-1.8655088">
        <ele>25.829</ele>
        <time>2018-08-17T15:48:05.999Z</time>
      </trkpt>
      <trkpt lat="48.3786085" lon="-1.8655088">
        <ele>25.302</ele>
        <time>2018-08-17T15:52:16.857Z</time>
      </trkpt>
      <trkpt lat="48.3787485" lon="-1.8657768">
        <ele>25.385</ele>
        <time>2018-08-17T15:52:37.025Z</time>
      </trkpt>
      <trkpt lat="48.3788235" lon="-1.8658712">
        <ele>26.562</ele>
        <time>2018-08-17T15:52:41.929Z</time>
      </trkpt>
      <trkpt lat="48.3789007" lon="-1.8659408">
        <ele>29.017</ele>
        <time>2018-08-17T15:52:46.287Z</time>
      </trkpt>
      <trkpt lat="48.3789762" lon="-1.8660193">
        <ele>31.673</ele>
        <time>2018-08-17T15:52:50.746Z</time>
      </trkpt>
      <trkpt lat="48.3790563" lon="-1.8661224">
        <ele>33.404</ele>
        <time>2018-08-17T15:52:55.703Z</time>
      </trkpt>
      <trkpt lat="48.3791350" lon="-1.8661926">
        <ele>34.254</ele>
        <time>2018-08-17T15:52:59.820Z</time>
      </trkpt>
      <trkpt lat="48.3792106" lon="-1.8662771">
        <ele>34.241</ele>
        <time>2018-08-17T15:53:04.051Z</time>
      </trkpt>
      <trkpt lat="48.3792818" lon="-1.8663664">
        <ele>33.417</ele>
        <time>2018-08-17T15:53:08.132Z</time>
      </trkpt>
      <trkpt lat="48.3793603" lon="-1.8664443">
        <ele>32.685</ele>
        <time>2018-08-17T15:53:12.208Z</time>
      </trkpt>
      <trkpt lat="48.3794386" lon="-1.8665425">
        <ele>32.904</ele>
        <time>2018-08-17T15:53:16.670Z</time>
      </trkpt>
      <trkpt lat="48.3795133" lon="-1.8666214">
        <ele>33.813</ele>
        <time>2018-08-17T15:53:20.504Z</time>
      </trkpt>
      <trkpt lat="48.3795965" lon="-1.8666876">
        <ele>34.637</ele>
        <time>2018-08-17T15:53:24.350Z</time>
      </trkpt>
      <trkpt lat="48.3796844" lon="-1.8667813">
        <ele>34.545</ele>
        <time>2018-08-17T15:53:28.847Z</time>
      </trkpt>
      <trkpt lat="48.3797528" lon="-1.8668825">
        <ele>33.380</ele>
        <time>2018-08-17T15:53:32.751Z</time>
      </trkpt>
      <trkpt lat="48.3798160" lon="-1.8670204">
        <ele>32.455</ele>
        <time>2018-08-17T15:53:37.128Z</time>
      </trkpt>
      <trkpt lat="48.3798747" lon="-1.8671658">
        <ele>33.120</ele>
        <time>2018-08-17T15:53:41.723Z</time>
      </trkpt>
      <trkpt lat="48.3799496" lon="-1.8672711">
        <ele>34.841</ele>
        <time>2018-08-17T15:53:46.087Z</time>
      </trkpt>
      <trkpt lat="48.3800425" lon="-1.8673708">
        <ele>35.906</ele>
        <time>2018-08-17T15:53:50.613Z</time>
      </trkpt>
      <trkpt lat="48.3801224" lon="-1.8674919">
        <ele>35.201</ele>
        <time>2018-08-17T15:53:54.617Z</time>
      </trkpt>
      <trkpt lat="48.3801854" lon="-1.8676120">
        <ele>33.198</ele>
        <time>2018-08-17T15:53:58.204Z</time>
      </trkpt>
      <trkpt lat="48.3802352" lon="-1.8677371">
        <ele>30.982</ele>
        <time>2018-08-17T15:54:01.713Z</time>
      </trkpt>
      <trkpt lat="48.3802768" lon="-1.8678640">
        <ele>29.123</ele>
        <time>2018-08-17T15:54:05.137Z</time>
      </trkpt>
      <trkpt lat="48.3803131" lon="-1.8680185">
        <ele>27.896</ele>
        <time>2018-08-17T15:54:09.035Z</time>
      </trkpt>
      <trkpt lat="48.3803456" lon="-1.8681882">
        <ele>27.418</ele>
        <time>2018-08-17T15:54:13.413Z</time>
      </trkpt>
      <trkpt lat="48.3803704" lon="-1.8683465">
        <ele>27.530</ele>
        <time>2018-08-17T15:54:17.639Z</time>
      </trkpt>
      <trkpt lat="48.3803856" lon="-1.8684946">
        <ele>28.050</ele>
        <time>2018-08-17T15:54:21.469Z</time>
      </trkpt>
      <trkpt lat="48.3803975" lon="-1.8686403">
        <ele>28.814</ele>
        <time>2018-08-17T15:54:25.111Z</time>
      </trkpt>
      <trkpt lat="48.3804045" lon="-1.8688057">
        <ele>29.651</ele>
        <time>2018-08-17T15:54:29.243Z</time>
      </trkpt>
      <trkpt lat="48.3804085" lon="-1.8689685">
        <ele>30.345</ele>
        <time>2018-08-17T15:54:33.391Z</time>
      </trkpt>
      <trkpt lat="48.3804050" lon="-1.8691205">
        <ele>30.614</ele>
        <time>2018-08-17T15:54:37.250Z</time>
      </trkpt>
      <trkpt lat="48.3803984" lon="-1.8692708">
        <ele>30.424</ele>
        <time>2018-08-17T15:54:41.038Z</time>
      </trkpt>
      <trkpt lat="48.3803766" lon="-1.8694299">
        <ele>30.095</ele>
        <time>2018-08-17T15:54:45.122Z</time>
      </trkpt>
      <trkpt lat="48.3803574" lon="-1.8695818">
        <ele>30.023</ele>
        <time>2018-08-17T15:54:48.985Z</time>
      </trkpt>
      <trkpt lat="48.3803271" lon="-1.8697392">
        <ele>30.279</ele>
        <time>2018-08-17T15:54:53.084Z</time>
      </trkpt>
      <trkpt lat="48.3802803" lon="-1.8698847">
        <ele>30.585</ele>
        <time>2018-08-17T15:54:57.031Z</time>
      </trkpt>
      <trkpt lat="48.3802389" lon="-1.8700344">
        <ele>30.711</ele>
        <time>2018-08-17T15:55:00.922Z</time>
      </trkpt>
      <trkpt lat="48.3801998" lon="-1.8701842">
        <ele>30.767</ele>
        <time>2018-08-17T15:55:04.663Z</time>
      </trkpt>
      <trkpt lat="48.3801592" lon="-1.8703318">
        <ele>30.996</ele>
        <time>2018-08-17T15:55:08.255Z</time>
      </trkpt>
      <trkpt lat="48.3800984" lon="-1.8704850">
        <ele>31.404</ele>
        <time>2018-08-17T15:55:12.265Z</time>
      </trkpt>
      <trkpt lat="48.3800410" lon="-1.8706394">
        <ele>31.687</ele>
        <time>2018-08-17T15:55:16.157Z</time>
      </trkpt>
      <trkpt lat="48.3799866" lon="-1.8707861">
        <ele>31.673</ele>
        <time>2018-08-17T15:55:19.520Z</time>
      </trkpt>
      <trkpt lat="48.3799266" lon="-1.8709446">
        <ele>31.467</ele>
        <time>2018-08-17T15:55:22.464Z</time>
      </trkpt>
      <trkpt lat="48.3798688" lon="-1.8710968">
        <ele>31.200</ele>
        <time>2018-08-17T15:55:24.884Z</time>
      </trkpt>
      <trkpt lat="48.3798217" lon="-1.8712206">
        <ele>30.852</ele>
        <time>2018-08-17T15:55:26.860Z</time>
      </trkpt>
      <trkpt lat="48.3797484" lon="-1.8714137">
        <ele>30.233</ele>
        <time>2018-08-17T15:55:30.458Z</time>
      </trkpt>
      <trkpt lat="48.3796903" lon="-1.8715799">
        <ele>29.379</ele>
        <time>2018-08-17T15:55:34.137Z</time>
      </trkpt>
      <trkpt lat="48.3796288" lon="-1.8717174">
        <ele>28.503</ele>
        <time>2018-08-17T15:55:37.666Z</time>
      </trkpt>
      <trkpt lat="48.3795731" lon="-1.8718459">
        <ele>27.478</ele>
        <time>2018-08-17T15:55:40.961Z</time>
      </trkpt>
      <trkpt lat="48.3795114" lon="-1.8719944">
        <ele>26.332</ele>
        <time>2018-08-17T15:55:44.781Z</time>
      </trkpt>
      <trkpt lat="48.3794511" lon="-1.8721402">
        <ele>25.558</ele>
        <time>2018-08-17T15:55:48.623Z</time>
      </trkpt>
      <trkpt lat="48.3793941" lon="-1.8722883">
        <ele>25.354</ele>
        <time>2018-08-17T15:55:52.634Z</time>
      </trkpt>
      <trkpt lat="48.3793343" lon="-1.8724266">
        <ele>25.400</ele>
        <time>2018-08-17T15:55:56.738Z</time>
      </trkpt>
      <trkpt lat="48.3792750" lon="-1.8725403">
        <ele>25.404</ele>
        <time>2018-08-17T15:56:00.310Z</time>
      </trkpt>
      <trkpt lat="48.3792153" lon="-1.8726692">
        <ele>25.449</ele>
        <time>2018-08-17T15:56:04.012Z</time>
      </trkpt>
      <trkpt lat="48.3791616" lon="-1.8728167">
        <ele>25.713</ele>
        <time>2018-08-17T15:56:07.854Z</time>
      </trkpt>
      <trkpt lat="48.3791022" lon="-1.8729721">
        <ele>26.088</ele>
        <time>2018-08-17T15:56:11.955Z</time>
      </trkpt>
      <trkpt lat="48.3790433" lon="-1.8731196">
        <ele>26.354</ele>
        <time>2018-08-17T15:56:15.994Z</time>
      </trkpt>
      <trkpt lat="48.3789854" lon="-1.8732632">
        <ele>26.570</ele>
        <time>2018-08-17T15:56:20.013Z</time>
      </trkpt>
      <trkpt lat="48.3789286" lon="-1.8734090">
        <ele>26.863</ele>
        <time>2018-08-17T15:56:24.133Z</time>
      </trkpt>
      <trkpt lat="48.3788689" lon="-1.8735377">
        <ele>27.130</ele>
        <time>2018-08-17T15:56:27.925Z</time>
      </trkpt>
      <trkpt lat="48.3788112" lon="-1.8736787">
        <ele>27.239</ele>
        <time>2018-08-17T15:56:31.808Z</time>
      </trkpt>
      <trkpt lat="48.3787533" lon="-1.8738322">
        <ele>27.285</ele>
        <time>2018-08-17T15:56:35.898Z</time>
      </trkpt>
      <trkpt lat="48.3786999" lon="-1.8739650">
        <ele>27.382</ele>
        <time>2018-08-17T15:56:39.513Z</time>
      </trkpt>
      <trkpt lat="48.3786397" lon="-1.8741041">
        <ele>27.781</ele>
        <time>2018-08-17T15:56:43.432Z</time>
      </trkpt>
      <trkpt lat="48.3785821" lon="-1.8742496">
        <ele>28.671</ele>
        <time>2018-08-17T15:56:47.555Z</time>
      </trkpt>
      <trkpt lat="48.3785290" lon="-1.8743922">
        <ele>29.682</ele>
        <time>2018-08-17T15:56:51.556Z</time>
      </trkpt>
      <trkpt lat="48.3784702" lon="-1.8745300">
        <ele>30.286</ele>
        <time>2018-08-17T15:56:55.402Z</time>
      </trkpt>
      <trkpt lat="48.3784088" lon="-1.8746829">
        <ele>30.498</ele>
        <time>2018-08-17T15:56:59.453Z</time>
      </trkpt>
      <trkpt lat="48.3783728" lon="-1.8748492">
        <ele>30.573</ele>
        <time>2018-08-17T15:57:03.418Z</time>
      </trkpt>
      <trkpt lat="48.3783361" lon="-1.8750111">
        <ele>30.533</ele>
        <time>2018-08-17T15:57:07.429Z</time>
      </trkpt>
      <trkpt lat="48.3783135" lon="-1.8751625">
        <ele>30.194</ele>
        <time>2018-08-17T15:57:11.242Z</time>
      </trkpt>
      <trkpt lat="48.3783051" lon="-1.8753087">
        <ele>29.493</ele>
        <time>2018-08-17T15:57:14.893Z</time>
      </trkpt>
      <trkpt lat="48.3782946" lon="-1.8754616">
        <ele>28.617</ele>
        <time>2018-08-17T15:57:18.759Z</time>
      </trkpt>
      <trkpt lat="48.3782933" lon="-1.8756160">
        <ele>27.819</ele>
        <time>2018-08-17T15:57:22.637Z</time>
      </trkpt>
      <trkpt lat="48.3782919" lon="-1.8757798">
        <ele>27.177</ele>
        <time>2018-08-17T15:57:26.623Z</time>
      </trkpt>
      <trkpt lat="48.3782992" lon="-1.8759457">
        <ele>26.696</ele>
        <time>2018-08-17T15:57:30.582Z</time>
      </trkpt>
      <trkpt lat="48.3783200" lon="-1.8761061">
        <ele>26.571</ele>
        <time>2018-08-17T15:57:34.448Z</time>
      </trkpt>
      <trkpt lat="48.3783417" lon="-1.8762615">
        <ele>27.068</ele>
        <time>2018-08-17T15:57:38.204Z</time>
      </trkpt>
      <trkpt lat="48.3783742" lon="-1.8764143">
        <ele>27.982</ele>
        <time>2018-08-17T15:57:41.995Z</time>
      </trkpt>
      <trkpt lat="48.3784204" lon="-1.8765664">
        <ele>28.797</ele>
        <time>2018-08-17T15:57:45.905Z</time>
      </trkpt>
      <trkpt lat="48.3784736" lon="-1.8767178">
        <ele>29.296</ele>
        <time>2018-08-17T15:57:49.872Z</time>
      </trkpt>
      <trkpt lat="48.3785338" lon="-1.8768541">
        <ele>29.538</ele>
        <time>2018-08-17T15:57:53.680Z</time>
      </trkpt>
      <trkpt lat="48.3785972" lon="-1.8769989">
        <ele>29.534</ele>
        <time>2018-08-17T15:57:57.732Z</time>
      </trkpt>
      <trkpt lat="48.3786575" lon="-1.8771466">
        <ele>29.307</ele>
        <time>2018-08-17T15:58:01.769Z</time>
      </trkpt>
      <trkpt lat="48.3787237" lon="-1.8772931">
        <ele>28.983</ele>
        <time>2018-08-17T15:58:05.934Z</time>
      </trkpt>
      <trkpt lat="48.3787704" lon="-1.8774292">
        <ele>28.736</ele>
        <time>2018-08-17T15:58:09.575Z</time>
      </trkpt>
      <trkpt lat="48.3788183" lon="-1.8775808">
        <ele>28.675</ele>
        <time>2018-08-17T15:58:13.566Z</time>
      </trkpt>
      <trkpt lat="48.3788595" lon="-1.8777323">
        <ele>28.984</ele>
        <time>2018-08-17T15:58:17.500Z</time>
      </trkpt>
      <trkpt lat="48.3788933" lon="-1.8778797">
        <ele>29.733</ele>
        <time>2018-08-17T15:58:21.329Z</time>
      </trkpt>
      <trkpt lat="48.3789134" lon="-1.8780293">
        <ele>30.666</ele>
        <time>2018-08-17T15:58:25.134Z</time>
      </trkpt>
      <trkpt lat="48.3789424" lon="-1.8781769">
        <ele>31.434</ele>
        <time>2018-08-17T15:58:28.939Z</time>
      </trkpt>
      <trkpt lat="48.3789724" lon="-1.8783445">
        <ele>31.798</ele>
        <time>2018-08-17T15:58:33.137Z</time>
      </trkpt>
      <trkpt lat="48.3790017" lon="-1.8785086">
        <ele>31.437</ele>
        <time>2018-08-17T15:58:37.345Z</time>
      </trkpt>
      <trkpt lat="48.3790264" lon="-1.8786498">
        <ele>30.387</ele>
        <time>2018-08-17T15:58:41.379Z</time>
      </trkpt>
      <trkpt lat="48.3790455" lon="-1.8787857">
        <ele>29.281</ele>
        <time>2018-08-17T15:58:45.700Z</time>
      </trkpt>
      <trkpt lat="48.3790672" lon="-1.8789396">
        <ele>28.649</ele>
        <time>2018-08-17T15:58:51.187Z</time>
      </trkpt>
      <trkpt lat="48.3790812" lon="-1.8790785">
        <ele>28.465</ele>
        <time>2018-08-17T15:58:56.477Z</time>
      </trkpt>
      <trkpt lat="48.3790991" lon="-1.8792137">
        <ele>28.585</ele>
        <time>2018-08-17T15:59:02.000Z</time>
      </trkpt>
      <trkpt lat="48.3790991" lon="-1.8792137">
        <ele>28.859</ele>
        <time>2018-08-17T15:59:04.000Z</time>
      </trkpt>
      <trkpt lat="48.3790991" lon="-1.8792137">
        <ele>29.052</ele>
        <time>2018-08-17T15:59:04.100Z</time>
      </trkpt>
      <trkpt lat="48.3791457" lon="-1.8795379">
        <ele>29.033</ele>
        <time>2018-08-17T15:59:26.929Z</time>
      </trkpt>
      <trkpt lat="48.3791780" lon="-1.8796901">
        <ele>29.211</ele>
        <time>2018-08-17T15:59:32.735Z</time>
      </trkpt>
      <trkpt lat="48.3791677" lon="-1.8798842">
        <ele>29.894</ele>
        <time>2018-08-17T15:59:36.710Z</time>
      </trkpt>
      <trkpt lat="48.3791968" lon="-1.8800678">
        <ele>30.564</ele>
        <time>2018-08-17T15:59:39.040Z</time>
      </trkpt>
      <trkpt lat="48.3792237" lon="-1.8802432">
        <ele>30.539</ele>
        <time>2018-08-17T15:59:40.949Z</time>
      </trkpt>
      <trkpt lat="48.3792361" lon="-1.8804193">
        <ele>29.787</ele>
        <time>2018-08-17T15:59:42.874Z</time>
      </trkpt>
      <trkpt lat="48.3792491" lon="-1.8806664">
        <ele>28.784</ele>
        <time>2018-08-17T15:59:45.689Z</time>
      </trkpt>
      <trkpt lat="48.3792648" lon="-1.8808091">
        <ele>28.013</ele>
        <time>2018-08-17T15:59:47.530Z</time>
      </trkpt>
      <trkpt lat="48.3792946" lon="-1.8809992">
        <ele>27.546</ele>
        <time>2018-08-17T15:59:50.217Z</time>
      </trkpt>
      <trkpt lat="48.3793193" lon="-1.8811667">
        <ele>27.271</ele>
        <time>2018-08-17T15:59:52.863Z</time>
      </trkpt>
      <trkpt lat="48.3793402" lon="-1.8813206">
        <ele>27.055</ele>
        <time>2018-08-17T15:59:55.551Z</time>
      </trkpt>
      <trkpt lat="48.3793564" lon="-1.8814657">
        <ele>26.707</ele>
        <time>2018-08-17T15:59:58.295Z</time>
      </trkpt>
      <trkpt lat="48.3793823" lon="-1.8815970">
        <ele>26.242</ele>
        <time>2018-08-17T16:00:01.000Z</time>
      </trkpt>
      <trkpt lat="48.3794503" lon="-1.8817433">
        <ele>25.976</ele>
        <time>2018-08-17T16:00:05.000Z</time>
      </trkpt>
      <trkpt lat="48.3795256" lon="-1.8818718">
        <ele>26.086</ele>
        <time>2018-08-17T16:00:09.000Z</time>
      </trkpt>
      <trkpt lat="48.3795837" lon="-1.8820144">
        <ele>26.387</ele>
        <time>2018-08-17T16:00:12.713Z</time>
      </trkpt>
      <trkpt lat="48.3796052" lon="-1.8821885">
        <ele>26.619</ele>
        <time>2018-08-17T16:00:16.612Z</time>
      </trkpt>
      <trkpt lat="48.3796057" lon="-1.8823627">
        <ele>26.560</ele>
        <time>2018-08-17T16:00:20.446Z</time>
      </trkpt>
      <trkpt lat="48.3796083" lon="-1.8825291">
        <ele>26.048</ele>
        <time>2018-08-17T16:00:24.233Z</time>
      </trkpt>
      <trkpt lat="48.3796038" lon="-1.8826849">
        <ele>25.297</ele>
        <time>2018-08-17T16:00:27.972Z</time>
      </trkpt>
      <trkpt lat="48.3795903" lon="-1.8828292">
        <ele>24.779</ele>
        <time>2018-08-17T16:00:31.667Z</time>
      </trkpt>
      <trkpt lat="48.3795837" lon="-1.8829912">
        <ele>24.660</ele>
        <time>2018-08-17T16:00:35.806Z</time>
      </trkpt>
      <trkpt lat="48.3795919" lon="-1.8831675">
        <ele>24.687</ele>
        <time>2018-08-17T16:00:40.020Z</time>
      </trkpt>
      <trkpt lat="48.3796072" lon="-1.8833416">
        <ele>24.438</ele>
        <time>2018-08-17T16:00:43.994Z</time>
      </trkpt>
      <trkpt lat="48.3796119" lon="-1.8834861">
        <ele>23.776</ele>
        <time>2018-08-17T16:00:47.375Z</time>
      </trkpt>
      <trkpt lat="48.3796142" lon="-1.8836536">
        <ele>23.112</ele>
        <time>2018-08-17T16:00:51.466Z</time>
      </trkpt>
      <trkpt lat="48.3796406" lon="-1.8838250">
        <ele>22.971</ele>
        <time>2018-08-17T16:00:55.703Z</time>
      </trkpt>
      <trkpt lat="48.3796704" lon="-1.8839826">
        <ele>23.333</ele>
        <time>2018-08-17T16:00:59.576Z</time>
      </trkpt>
      <trkpt lat="48.3797069" lon="-1.8841315">
        <ele>23.769</ele>
        <time>2018-08-17T16:01:03.384Z</time>
      </trkpt>
      <trkpt lat="48.3797623" lon="-1.8842812">
        <ele>23.988</ele>
        <time>2018-08-17T16:01:07.498Z</time>
      </trkpt>
      <trkpt lat="48.3798238" lon="-1.8844270">
        <ele>24.022</ele>
        <time>2018-08-17T16:01:11.537Z</time>
      </trkpt>
      <trkpt lat="48.3798884" lon="-1.8845660">
        <ele>24.047</ele>
        <time>2018-08-17T16:01:15.423Z</time>
      </trkpt>
      <trkpt lat="48.3799657" lon="-1.8846960">
        <ele>24.167</ele>
        <time>2018-08-17T16:01:19.384Z</time>
      </trkpt>
      <trkpt lat="48.3800491" lon="-1.8847909">
        <ele>24.320</ele>
        <time>2018-08-17T16:01:23.022Z</time>
      </trkpt>
      <trkpt lat="48.3801447" lon="-1.8848732">
        <ele>24.490</ele>
        <time>2018-08-17T16:01:27.082Z</time>
      </trkpt>
      <trkpt lat="48.3802294" lon="-1.8849632">
        <ele>24.803</ele>
        <time>2018-08-17T16:01:31.098Z</time>
      </trkpt>
      <trkpt lat="48.3803310" lon="-1.8850145">
        <ele>25.206</ele>
        <time>2018-08-17T16:01:35.299Z</time>
      </trkpt>
      <trkpt lat="48.3804292" lon="-1.8850724">
        <ele>25.493</ele>
        <time>2018-08-17T16:01:39.336Z</time>
      </trkpt>
      <trkpt lat="48.3805378" lon="-1.8851094">
        <ele>25.856</ele>
        <time>2018-08-17T16:01:43.531Z</time>
      </trkpt>
      <trkpt lat="48.3806451" lon="-1.8851153">
        <ele>26.513</ele>
        <time>2018-08-17T16:01:47.548Z</time>
      </trkpt>
      <trkpt lat="48.3807546" lon="-1.8851229">
        <ele>27.137</ele>
        <time>2018-08-17T16:01:51.722Z</time>
      </trkpt>
      <trkpt lat="48.3808479" lon="-1.8851306">
        <ele>27.239</ele>
        <time>2018-08-17T16:01:55.277Z</time>
      </trkpt>
      <trkpt lat="48.3809373" lon="-1.8851475">
        <ele>26.738</ele>
        <time>2018-08-17T16:01:58.521Z</time>
      </trkpt>
      <trkpt lat="48.3810473" lon="-1.8851740">
        <ele>26.015</ele>
        <time>2018-08-17T16:02:02.419Z</time>
      </trkpt>
      <trkpt lat="48.3811575" lon="-1.8852072">
        <ele>25.376</ele>
        <time>2018-08-17T16:02:06.430Z</time>
      </trkpt>
      <trkpt lat="48.3812637" lon="-1.8852432">
        <ele>24.821</ele>
        <time>2018-08-17T16:02:10.354Z</time>
      </trkpt>
      <trkpt lat="48.3813697" lon="-1.8853000">
        <ele>24.479</ele>
        <time>2018-08-17T16:02:14.408Z</time>
      </trkpt>
      <trkpt lat="48.3814734" lon="-1.8853633">
        <ele>24.451</ele>
        <time>2018-08-17T16:02:18.411Z</time>
      </trkpt>
      <trkpt lat="48.3815725" lon="-1.8854421">
        <ele>24.559</ele>
        <time>2018-08-17T16:02:22.398Z</time>
      </trkpt>
      <trkpt lat="48.3816595" lon="-1.8855154">
        <ele>24.638</ele>
        <time>2018-08-17T16:02:25.991Z</time>
      </trkpt>
      <trkpt lat="48.3817508" lon="-1.8856079">
        <ele>24.869</ele>
        <time>2018-08-17T16:02:29.991Z</time>
      </trkpt>
      <trkpt lat="48.3818412" lon="-1.8857132">
        <ele>25.637</ele>
        <time>2018-08-17T16:02:34.058Z</time>
      </trkpt>
      <trkpt lat="48.3819232" lon="-1.8858197">
        <ele>26.938</ele>
        <time>2018-08-17T16:02:37.891Z</time>
      </trkpt>
      <trkpt lat="48.3820054" lon="-1.8859342">
        <ele>28.218</ele>
        <time>2018-08-17T16:02:41.948Z</time>
      </trkpt>
      <trkpt lat="48.3820859" lon="-1.8860522">
        <ele>28.973</ele>
        <time>2018-08-17T16:02:46.054Z</time>
      </trkpt>
      <trkpt lat="48.3821615" lon="-1.8861645">
        <ele>29.006</ele>
        <time>2018-08-17T16:02:49.944Z</time>
      </trkpt>
      <trkpt lat="48.3822299" lon="-1.8863008">
        <ele>28.494</ele>
        <time>2018-08-17T16:02:54.083Z</time>
      </trkpt>
      <trkpt lat="48.3822978" lon="-1.8864362">
        <ele>27.946</ele>
        <time>2018-08-17T16:02:58.056Z</time>
      </trkpt>
      <trkpt lat="48.3823498" lon="-1.8865786">
        <ele>27.746</ele>
        <time>2018-08-17T16:03:01.793Z</time>
      </trkpt>
      <trkpt lat="48.3823862" lon="-1.8867026">
        <ele>27.822</ele>
        <time>2018-08-17T16:03:04.923Z</time>
      </trkpt>
      <trkpt lat="48.3824406" lon="-1.8868516">
        <ele>27.907</ele>
        <time>2018-08-17T16:03:08.824Z</time>
      </trkpt>
      <trkpt lat="48.3824817" lon="-1.8869997">
        <ele>27.587</ele>
        <time>2018-08-17T16:03:12.495Z</time>
      </trkpt>
      <trkpt lat="48.3825079" lon="-1.8871421">
        <ele>26.649</ele>
        <time>2018-08-17T16:03:15.949Z</time>
      </trkpt>
      <trkpt lat="48.3825197" lon="-1.8872974">
        <ele>25.495</ele>
        <time>2018-08-17T16:03:19.761Z</time>
      </trkpt>
      <trkpt lat="48.3825433" lon="-1.8874296">
        <ele>24.632</ele>
        <time>2018-08-17T16:03:23.194Z</time>
      </trkpt>
      <trkpt lat="48.3825577" lon="-1.8876064">
        <ele>24.153</ele>
        <time>2018-08-17T16:03:27.461Z</time>
      </trkpt>
      <trkpt lat="48.3825667" lon="-1.8877770">
        <ele>23.974</ele>
        <time>2018-08-17T16:03:31.461Z</time>
      </trkpt>
      <trkpt lat="48.3825563" lon="-1.8879277">
        <ele>24.007</ele>
        <time>2018-08-17T16:03:35.037Z</time>
      </trkpt>
      <trkpt lat="48.3825401" lon="-1.8880871">
        <ele>24.190</ele>
        <time>2018-08-17T16:03:38.935Z</time>
      </trkpt>
      <trkpt lat="48.3825246" lon="-1.8882345">
        <ele>24.581</ele>
        <time>2018-08-17T16:03:42.615Z</time>
      </trkpt>
      <trkpt lat="48.3825076" lon="-1.8883762">
        <ele>25.172</ele>
        <time>2018-08-17T16:03:46.266Z</time>
      </trkpt>
      <trkpt lat="48.3824868" lon="-1.8885129">
        <ele>25.732</ele>
        <time>2018-08-17T16:03:49.937Z</time>
      </trkpt>
      <trkpt lat="48.3824612" lon="-1.8886536">
        <ele>26.185</ele>
        <time>2018-08-17T16:03:53.806Z</time>
      </trkpt>
      <trkpt lat="48.3824201" lon="-1.8887958">
        <ele>26.702</ele>
        <time>2018-08-17T16:03:57.927Z</time>
      </trkpt>
      <trkpt lat="48.3823749" lon="-1.8889541">
        <ele>27.290</ele>
        <time>2018-08-17T16:04:02.354Z</time>
      </trkpt>
      <trkpt lat="48.3823371" lon="-1.8890846">
        <ele>27.841</ele>
        <time>2018-08-17T16:04:05.831Z</time>
      </trkpt>
      <trkpt lat="48.3822846" lon="-1.8892236">
        <ele>28.299</ele>
        <time>2018-08-17T16:04:09.803Z</time>
      </trkpt>
      <trkpt lat="48.3822340" lon="-1.8893524">
        <ele>28.413</ele>
        <time>2018-08-17T16:04:13.608Z</time>
      </trkpt>
      <trkpt lat="48.3821748" lon="-1.8894620">
        <ele>28.038</ele>
        <time>2018-08-17T16:04:17.145Z</time>
      </trkpt>
      <trkpt lat="48.3821016" lon="-1.8895909">
        <ele>27.531</ele>
        <time>2018-08-17T16:04:21.442Z</time>
      </trkpt>
      <trkpt lat="48.3820508" lon="-1.8897329">
        <ele>27.250</ele>
        <time>2018-08-17T16:04:25.683Z</time>
      </trkpt>
      <trkpt lat="48.3819934" lon="-1.8898487">
        <ele>26.836</ele>
        <time>2018-08-17T16:04:29.475Z</time>
      </trkpt>
      <trkpt lat="48.3819318" lon="-1.8899600">
        <ele>25.983</ele>
        <time>2018-08-17T16:04:33.251Z</time>
      </trkpt>
      <trkpt lat="48.3818635" lon="-1.8900897">
        <ele>25.309</ele>
        <time>2018-08-17T16:04:37.622Z</time>
      </trkpt>
      <trkpt lat="48.3817943" lon="-1.8902180">
        <ele>25.387</ele>
        <time>2018-08-17T16:04:42.140Z</time>
      </trkpt>
      <trkpt lat="48.3817180" lon="-1.8903307">
        <ele>26.075</ele>
        <time>2018-08-17T16:04:46.581Z</time>
      </trkpt>
      <trkpt lat="48.3816543" lon="-1.8904519">
        <ele>26.969</ele>
        <time>2018-08-17T16:04:50.699Z</time>
      </trkpt>
      <trkpt lat="48.3815826" lon="-1.8905829">
        <ele>27.559</ele>
        <time>2018-08-17T16:04:55.169Z</time>
      </trkpt>
      <trkpt lat="48.3815184" lon="-1.8906814">
        <ele>27.606</ele>
        <time>2018-08-17T16:04:58.769Z</time>
      </trkpt>
      <trkpt lat="48.3814573" lon="-1.8907859">
        <ele>27.507</ele>
        <time>2018-08-17T16:05:02.236Z</time>
      </trkpt>
      <trkpt lat="48.3813715" lon="-1.8909035">
        <ele>27.720</ele>
        <time>2018-08-17T16:05:06.606Z</time>
      </trkpt>
      <trkpt lat="48.3812853" lon="-1.8910106">
        <ele>28.547</ele>
        <time>2018-08-17T16:05:11.049Z</time>
      </trkpt>
      <trkpt lat="48.3812119" lon="-1.8911428">
        <ele>29.853</ele>
        <time>2018-08-17T16:05:15.448Z</time>
      </trkpt>
      <trkpt lat="48.3811255" lon="-1.8912691">
        <ele>31.237</ele>
        <time>2018-08-17T16:05:19.905Z</time>
      </trkpt>
      <trkpt lat="48.3810526" lon="-1.8913689">
        <ele>32.684</ele>
        <time>2018-08-17T16:05:23.372Z</time>
      </trkpt>
      <trkpt lat="48.3809876" lon="-1.8914741">
        <ele>34.115</ele>
        <time>2018-08-17T16:05:26.563Z</time>
      </trkpt>
      <trkpt lat="48.3809089" lon="-1.8915891">
        <ele>34.772</ele>
        <time>2018-08-17T16:05:30.206Z</time>
      </trkpt>
      <trkpt lat="48.3808424" lon="-1.8916945">
        <ele>34.224</ele>
        <time>2018-08-17T16:05:33.512Z</time>
      </trkpt>
      <trkpt lat="48.3807785" lon="-1.8917991">
        <ele>32.926</ele>
        <time>2018-08-17T16:05:36.994Z</time>
      </trkpt>
      <trkpt lat="48.3806922" lon="-1.8918901">
        <ele>31.123</ele>
        <time>2018-08-17T16:05:41.173Z</time>
      </trkpt>
      <trkpt lat="48.3806284" lon="-1.8919877">
        <ele>28.819</ele>
        <time>2018-08-17T16:05:44.687Z</time>
      </trkpt>
      <trkpt lat="48.3805471" lon="-1.8921041">
        <ele>26.761</ele>
        <time>2018-08-17T16:05:48.646Z</time>
      </trkpt>
      <trkpt lat="48.3804703" lon="-1.8922106">
        <ele>25.526</ele>
        <time>2018-08-17T16:05:52.256Z</time>
      </trkpt>
      <trkpt lat="48.3803827" lon="-1.8923182">
        <ele>24.851</ele>
        <time>2018-08-17T16:05:56.436Z</time>
      </trkpt>
      <trkpt lat="48.3803034" lon="-1.8924420">
        <ele>24.711</ele>
        <time>2018-08-17T16:06:00.781Z</time>
      </trkpt>
      <trkpt lat="48.3802428" lon="-1.8925428">
        <ele>25.304</ele>
        <time>2018-08-17T16:06:04.426Z</time>
      </trkpt>
      <trkpt lat="48.3801716" lon="-1.8926449">
        <ele>26.292</ele>
        <time>2018-08-17T16:06:09.038Z</time>
      </trkpt>
      <trkpt lat="48.3801014" lon="-1.8927395">
        <ele>27.038</ele>
        <time>2018-08-17T16:06:13.053Z</time>
      </trkpt>
      <trkpt lat="48.3800117" lon="-1.8928518">
        <ele>27.222</ele>
        <time>2018-08-17T16:06:17.321Z</time>
      </trkpt>
      <trkpt lat="48.3799224" lon="-1.8929608">
        <ele>26.902</ele>
        <time>2018-08-17T16:06:21.410Z</time>
      </trkpt>
      <trkpt lat="48.3798390" lon="-1.8930581">
        <ele>26.369</ele>
        <time>2018-08-17T16:06:25.247Z</time>
      </trkpt>
      <trkpt lat="48.3797518" lon="-1.8931673">
        <ele>25.975</ele>
        <time>2018-08-17T16:06:29.465Z</time>
      </trkpt>
      <trkpt lat="48.3796621" lon="-1.8932713">
        <ele>25.847</ele>
        <time>2018-08-17T16:06:33.741Z</time>
      </trkpt>
      <trkpt lat="48.3795865" lon="-1.8933707">
        <ele>26.036</ele>
        <time>2018-08-17T16:06:37.599Z</time>
      </trkpt>
      <trkpt lat="48.3795035" lon="-1.8934816">
        <ele>26.527</ele>
        <time>2018-08-17T16:06:41.906Z</time>
      </trkpt>
      <trkpt lat="48.3794218" lon="-1.8936014">
        <ele>27.048</ele>
        <time>2018-08-17T16:06:46.160Z</time>
      </trkpt>
      <trkpt lat="48.3793423" lon="-1.8937028">
        <ele>27.047</ele>
        <time>2018-08-17T16:06:49.945Z</time>
      </trkpt>
      <trkpt lat="48.3792681" lon="-1.8938158">
        <ele>26.372</ele>
        <time>2018-08-17T16:06:53.835Z</time>
      </trkpt>
      <trkpt lat="48.3791918" lon="-1.8939343">
        <ele>25.587</ele>
        <time>2018-08-17T16:06:57.928Z</time>
      </trkpt>
      <trkpt lat="48.3791137" lon="-1.8940443">
        <ele>25.198</ele>
        <time>2018-08-17T16:07:02.084Z</time>
      </trkpt>
      <trkpt lat="48.3790398" lon="-1.8941325">
        <ele>25.072</ele>
        <time>2018-08-17T16:07:06.000Z</time>
      </trkpt>
      <trkpt lat="48.3789571" lon="-1.8942555">
        <ele>24.973</ele>
        <time>2018-08-17T16:07:10.934Z</time>
      </trkpt>
      <trkpt lat="48.3788917" lon="-1.8943888">
        <ele>24.884</ele>
        <time>2018-08-17T16:07:15.196Z</time>
      </trkpt>
      <trkpt lat="48.3787893" lon="-1.8944654">
        <ele>24.932</ele>
        <time>2018-08-17T16:07:19.533Z</time>
      </trkpt>
      <trkpt lat="48.3786925" lon="-1.8945570">
        <ele>25.200</ele>
        <time>2018-08-17T16:07:23.732Z</time>
      </trkpt>
      <trkpt lat="48.3786141" lon="-1.8946416">
        <ele>25.587</ele>
        <time>2018-08-17T16:07:27.392Z</time>
      </trkpt>
      <trkpt lat="48.3785286" lon="-1.8947331">
        <ele>25.642</ele>
        <time>2018-08-17T16:07:31.614Z</time>
      </trkpt>
      <trkpt lat="48.3784746" lon="-1.8948433">
        <ele>25.143</ele>
        <time>2018-08-17T16:07:35.358Z</time>
      </trkpt>
      <trkpt lat="48.3784156" lon="-1.8949929">
        <ele>24.423</ele>
        <time>2018-08-17T16:07:39.855Z</time>
      </trkpt>
      <trkpt lat="48.3783672" lon="-1.8951098">
        <ele>23.793</ele>
        <time>2018-08-17T16:07:43.707Z</time>
      </trkpt>
      <trkpt lat="48.3783179" lon="-1.8952299">
        <ele>23.334</ele>
        <time>2018-08-17T16:07:48.362Z</time>
      </trkpt>
      <trkpt lat="48.3782652" lon="-1.8953506">
        <ele>23.143</ele>
        <time>2018-08-17T16:07:54.288Z</time>
      </trkpt>
      <trkpt lat="48.3782244" lon="-1.8954855">
        <ele>23.330</ele>
        <time>2018-08-17T16:08:01.271Z</time>
      </trkpt>
      <trkpt lat="48.3781643" lon="-1.8956267">
        <ele>23.701</ele>
        <time>2018-08-17T16:08:07.999Z</time>
      </trkpt>
      <trkpt lat="48.3781643" lon="-1.8956267">
        <ele>23.858</ele>
        <time>2018-08-17T16:08:07.999Z</time>
      </trkpt>
      <trkpt lat="48.3781643" lon="-1.8956267">
        <ele>23.781</ele>
        <time>2018-08-17T16:08:08.099Z</time>
      </trkpt>
      <trkpt lat="48.3780912" lon="-1.8959212">
        <ele>23.702</ele>
        <time>2018-08-17T16:08:14.699Z</time>
      </trkpt>
      <trkpt lat="48.3780517" lon="-1.8961170">
        <ele>23.686</ele>
        <time>2018-08-17T16:08:17.748Z</time>
      </trkpt>
      <trkpt lat="48.3780287" lon="-1.8963015">
        <ele>23.756</ele>
        <time>2018-08-17T16:08:21.007Z</time>
      </trkpt>
      <trkpt lat="48.3780180" lon="-1.8964533">
        <ele>23.867</ele>
        <time>2018-08-17T16:08:24.174Z</time>
      </trkpt>
      <trkpt lat="48.3780075" lon="-1.8965984">
        <ele>23.928</ele>
        <time>2018-08-17T16:08:27.571Z</time>
      </trkpt>
      <trkpt lat="48.3780050" lon="-1.8967587">
        <ele>23.902</ele>
        <time>2018-08-17T16:08:31.816Z</time>
      </trkpt>
      <trkpt lat="48.3780105" lon="-1.8968989">
        <ele>23.843</ele>
        <time>2018-08-17T16:08:35.663Z</time>
      </trkpt>
      <trkpt lat="48.3780195" lon="-1.8970597">
        <ele>23.691</ele>
        <time>2018-08-17T16:08:39.810Z</time>
      </trkpt>
      <trkpt lat="48.3780368" lon="-1.8972258">
        <ele>23.380</ele>
        <time>2018-08-17T16:08:44.125Z</time>
      </trkpt>
      <trkpt lat="48.3780586" lon="-1.8973814">
        <ele>23.072</ele>
        <time>2018-08-17T16:08:48.303Z</time>
      </trkpt>
      <trkpt lat="48.3780913" lon="-1.8975283">
        <ele>23.019</ele>
        <time>2018-08-17T16:08:52.315Z</time>
      </trkpt>
      <trkpt lat="48.3781219" lon="-1.8976777">
        <ele>23.278</ele>
        <time>2018-08-17T16:08:56.263Z</time>
      </trkpt>
      <trkpt lat="48.3781576" lon="-1.8978300">
        <ele>23.694</ele>
        <time>2018-08-17T16:09:00.161Z</time>
      </trkpt>
      <trkpt lat="48.3781977" lon="-1.8979837">
        <ele>24.043</ele>
        <time>2018-08-17T16:09:03.977Z</time>
      </trkpt>
      <trkpt lat="48.3782344" lon="-1.8981538">
        <ele>24.071</ele>
        <time>2018-08-17T16:09:08.008Z</time>
      </trkpt>
      <trkpt lat="48.3782767" lon="-1.8983219">
        <ele>23.645</ele>
        <time>2018-08-17T16:09:11.985Z</time>
      </trkpt>
      <trkpt lat="48.3783103" lon="-1.8984524">
        <ele>23.016</ele>
        <time>2018-08-17T16:09:15.083Z</time>
      </trkpt>
      <trkpt lat="48.3783446" lon="-1.8985808">
        <ele>22.557</ele>
        <time>2018-08-17T16:09:18.182Z</time>
      </trkpt>
      <trkpt lat="48.3783852" lon="-1.8987397">
        <ele>22.384</ele>
        <time>2018-08-17T16:09:21.991Z</time>
      </trkpt>
      <trkpt lat="48.3784273" lon="-1.8989087">
        <ele>22.441</ele>
        <time>2018-08-17T16:09:25.860Z</time>
      </trkpt>
      <trkpt lat="48.3784599" lon="-1.8990390">
        <ele>22.608</ele>
        <time>2018-08-17T16:09:28.773Z</time>
      </trkpt>
      <trkpt lat="48.3784935" lon="-1.8991725">
        <ele>22.761</ele>
        <time>2018-08-17T16:09:31.763Z</time>
      </trkpt>
      <trkpt lat="48.3785256" lon="-1.8993045">
        <ele>22.850</ele>
        <time>2018-08-17T16:09:34.756Z</time>
      </trkpt>
      <trkpt lat="48.3785555" lon="-1.8994724">
        <ele>22.926</ele>
        <time>2018-08-17T16:09:38.500Z</time>
      </trkpt>
      <trkpt lat="48.3785879" lon="-1.8996456">
        <ele>23.202</ele>
        <time>2018-08-17T16:09:42.358Z</time>
      </trkpt>
      <trkpt lat="48.3786155" lon="-1.8997748">
        <ele>23.740</ele>
        <time>2018-08-17T16:09:45.269Z</time>
      </trkpt>
      <trkpt lat="48.3786459" lon="-1.8999490">
        <ele>24.240</ele>
        <time>2018-08-17T16:09:49.245Z</time>
      </trkpt>
      <trkpt lat="48.3786672" lon="-1.9001219">
        <ele>24.519</ele>
        <time>2018-08-17T16:09:53.712Z</time>
      </trkpt>
      <trkpt lat="48.3786751" lon="-1.9002780">
        <ele>24.713</ele>
        <time>2018-08-17T16:09:57.942Z</time>
      </trkpt>
      <trkpt lat="48.3786716" lon="-1.9004373">
        <ele>24.884</ele>
        <time>2018-08-17T16:10:01.801Z</time>
      </trkpt>
      <trkpt lat="48.3786697" lon="-1.9005839">
        <ele>25.005</ele>
        <time>2018-08-17T16:10:04.919Z</time>
      </trkpt>
      <trkpt lat="48.3786682" lon="-1.9007310">
        <ele>25.081</ele>
        <time>2018-08-17T16:10:07.966Z</time>
      </trkpt>
      <trkpt lat="48.3786645" lon="-1.9008711">
        <ele>25.057</ele>
        <time>2018-08-17T16:10:10.885Z</time>
      </trkpt>
      <trkpt lat="48.3786544" lon="-1.9010118">
        <ele>24.852</ele>
        <time>2018-08-17T16:10:13.858Z</time>
      </trkpt>
      <trkpt lat="48.3786376" lon="-1.9011472">
        <ele>24.507</ele>
        <time>2018-08-17T16:10:16.831Z</time>
      </trkpt>
      <trkpt lat="48.3786122" lon="-1.9013170">
        <ele>24.047</ele>
        <time>2018-08-17T16:10:20.644Z</time>
      </trkpt>
      <trkpt lat="48.3785787" lon="-1.9014880">
        <ele>23.512</ele>
        <time>2018-08-17T16:10:24.564Z</time>
      </trkpt>
      <trkpt lat="48.3785478" lon="-1.9016162">
        <ele>23.298</ele>
        <time>2018-08-17T16:10:27.534Z</time>
      </trkpt>
      <trkpt lat="48.3785102" lon="-1.9017438">
        <ele>23.694</ele>
        <time>2018-08-17T16:10:30.619Z</time>
      </trkpt>
      <trkpt lat="48.3784687" lon="-1.9019037">
        <ele>24.416</ele>
        <time>2018-08-17T16:10:34.510Z</time>
      </trkpt>
      <trkpt lat="48.3784312" lon="-1.9020605">
        <ele>25.036</ele>
        <time>2018-08-17T16:10:38.303Z</time>
      </trkpt>
      <trkpt lat="48.3783910" lon="-1.9022212">
        <ele>25.373</ele>
        <time>2018-08-17T16:10:42.153Z</time>
      </trkpt>
      <trkpt lat="48.3783571" lon="-1.9023472">
        <ele>25.437</ele>
        <time>2018-08-17T16:10:45.256Z</time>
      </trkpt>
      <trkpt lat="48.3783217" lon="-1.9025014">
        <ele>25.401</ele>
        <time>2018-08-17T16:10:49.093Z</time>
      </trkpt>
      <trkpt lat="48.3782771" lon="-1.9026611">
        <ele>25.443</ele>
        <time>2018-08-17T16:10:53.249Z</time>
      </trkpt>
      <trkpt lat="48.3782360" lon="-1.9027865">
        <ele>25.716</ele>
        <time>2018-08-17T16:10:56.423Z</time>
      </trkpt>
      <trkpt lat="48.3781861" lon="-1.9029289">
        <ele>26.409</ele>
        <time>2018-08-17T16:10:59.836Z</time>
      </trkpt>
      <trkpt lat="48.3781428" lon="-1.9030579">
        <ele>27.472</ele>
        <time>2018-08-17T16:11:02.950Z</time>
      </trkpt>
      <trkpt lat="48.3781015" lon="-1.9031871">
        <ele>28.465</ele>
        <time>2018-08-17T16:11:06.169Z</time>
      </trkpt>
      <trkpt lat="48.3780552" lon="-1.9033399">
        <ele>29.035</ele>
        <time>2018-08-17T16:11:10.107Z</time>
      </trkpt>
      <trkpt lat="48.3780146" lon="-1.9034869">
        <ele>29.231</ele>
        <time>2018-08-17T16:11:13.946Z</time>
      </trkpt>
      <trkpt lat="48.3779719" lon="-1.9036467">
        <ele>29.233</ele>
        <time>2018-08-17T16:11:18.030Z</time>
      </trkpt>
      <trkpt lat="48.3779385" lon="-1.9037729">
        <ele>29.037</ele>
        <time>2018-08-17T16:11:21.156Z</time>
      </trkpt>
      <trkpt lat="48.3778888" lon="-1.9039309">
        <ele>28.614</ele>
        <time>2018-08-17T16:11:25.128Z</time>
      </trkpt>
      <trkpt lat="48.3778545" lon="-1.9040605">
        <ele>28.182</ele>
        <time>2018-08-17T16:11:28.211Z</time>
      </trkpt>
      <trkpt lat="48.3778206" lon="-1.9041876">
        <ele>27.971</ele>
        <time>2018-08-17T16:11:31.206Z</time>
      </trkpt>
      <trkpt lat="48.3777833" lon="-1.9043130">
        <ele>28.055</ele>
        <time>2018-08-17T16:11:34.265Z</time>
      </trkpt>
      <trkpt lat="48.3777394" lon="-1.9044785">
        <ele>28.358</ele>
        <time>2018-08-17T16:11:38.266Z</time>
      </trkpt>
      <trkpt lat="48.3776964" lon="-1.9046421">
        <ele>28.592</ele>
        <time>2018-08-17T16:11:42.254Z</time>
      </trkpt>
      <trkpt lat="48.3776517" lon="-1.9047926">
        <ele>28.573</ele>
        <time>2018-08-17T16:11:46.029Z</time>
      </trkpt>
      <trkpt lat="48.3776153" lon="-1.9049544">
        <ele>28.436</ele>
        <time>2018-08-17T16:11:49.939Z</time>
      </trkpt>
      <trkpt lat="48.3775730" lon="-1.9051141">
        <ele>28.340</ele>
        <time>2018-08-17T16:11:53.935Z</time>
      </trkpt>
      <trkpt lat="48.3775269" lon="-1.9052619">
        <ele>28.309</ele>
        <time>2018-08-17T16:11:57.842Z</time>
      </trkpt>
      <trkpt lat="48.3774912" lon="-1.9054093">
        <ele>28.319</ele>
        <time>2018-08-17T16:12:01.698Z</time>
      </trkpt>
      <trkpt lat="48.3774576" lon="-1.9055455">
        <ele>28.417</ele>
        <time>2018-08-17T16:12:05.318Z</time>
      </trkpt>
      <trkpt lat="48.3774158" lon="-1.9057001">
        <ele>28.625</ele>
        <time>2018-08-17T16:12:09.437Z</time>
      </trkpt>
      <trkpt lat="48.3773682" lon="-1.9058577">
        <ele>28.823</ele>
        <time>2018-08-17T16:12:13.594Z</time>
      </trkpt>
      <trkpt lat="48.3773223" lon="-1.9060190">
        <ele>28.887</ele>
        <time>2018-08-17T16:12:17.694Z</time>
      </trkpt>
      <trkpt lat="48.3772882" lon="-1.9061455">
        <ele>28.799</ele>
        <time>2018-08-17T16:12:20.805Z</time>
      </trkpt>
      <trkpt lat="48.3772544" lon="-1.9062712">
        <ele>28.635</ele>
        <time>2018-08-17T16:12:23.875Z</time>
      </trkpt>
      <trkpt lat="48.3772116" lon="-1.9064310">
        <ele>28.562</ele>
        <time>2018-08-17T16:12:27.787Z</time>
      </trkpt>
      <trkpt lat="48.3771720" lon="-1.9065935">
        <ele>28.656</ele>
        <time>2018-08-17T16:12:31.787Z</time>
      </trkpt>
      <trkpt lat="48.3771335" lon="-1.9067431">
        <ele>28.617</ele>
        <time>2018-08-17T16:12:35.646Z</time>
      </trkpt>
      <trkpt lat="48.3770909" lon="-1.9068803">
        <ele>28.097</ele>
        <time>2018-08-17T16:12:39.398Z</time>
      </trkpt>
      <trkpt lat="48.3770469" lon="-1.9070306">
        <ele>27.271</ele>
        <time>2018-08-17T16:12:43.501Z</time>
      </trkpt>
      <trkpt lat="48.3770041" lon="-1.9071767">
        <ele>26.509</ele>
        <time>2018-08-17T16:12:47.526Z</time>
      </trkpt>
      <trkpt lat="48.3769652" lon="-1.9073208">
        <ele>25.939</ele>
        <time>2018-08-17T16:12:51.428Z</time>
      </trkpt>
      <trkpt lat="48.3769283" lon="-1.9074761">
        <ele>25.606</ele>
        <time>2018-08-17T16:12:55.463Z</time>
      </trkpt>
      <trkpt lat="48.3768724" lon="-1.9076226">
        <ele>25.528</ele>
        <time>2018-08-17T16:12:59.518Z</time>
      </trkpt>
      <trkpt lat="48.3768325" lon="-1.9077823">
        <ele>25.606</ele>
        <time>2018-08-17T16:13:03.620Z</time>
      </trkpt>
      <trkpt lat="48.3767879" lon="-1.9079363">
        <ele>25.619</ele>
        <time>2018-08-17T16:13:07.639Z</time>
      </trkpt>
      <trkpt lat="48.3767411" lon="-1.9080927">
        <ele>25.441</ele>
        <time>2018-08-17T16:13:11.688Z</time>
      </trkpt>
      <trkpt lat="48.3766940" lon="-1.9082520">
        <ele>25.220</ele>
        <time>2018-08-17T16:13:15.760Z</time>
      </trkpt>
      <trkpt lat="48.3766546" lon="-1.9084231">
        <ele>25.330</ele>
        <time>2018-08-17T16:13:19.906Z</time>
      </trkpt>
      <trkpt lat="48.3766155" lon="-1.9085914">
        <ele>25.959</ele>
        <time>2018-08-17T16:13:23.917Z</time>
      </trkpt>
      <trkpt lat="48.3765770" lon="-1.9087617">
        <ele>26.802</ele>
        <time>2018-08-17T16:13:27.939Z</time>
      </trkpt>
      <trkpt lat="48.3765285" lon="-1.9089230">
        <ele>27.493</ele>
        <time>2018-08-17T16:13:31.849Z</time>
      </trkpt>
      <trkpt lat="48.3764986" lon="-1.9090541">
        <ele>27.967</ele>
        <time>2018-08-17T16:13:34.922Z</time>
      </trkpt>
      <trkpt lat="48.3764573" lon="-1.9092103">
        <ele>28.197</ele>
        <time>2018-08-17T16:13:38.787Z</time>
      </trkpt>
      <trkpt lat="48.3764154" lon="-1.9093617">
        <ele>28.206</ele>
        <time>2018-08-17T16:13:42.706Z</time>
      </trkpt>
      <trkpt lat="48.3763689" lon="-1.9094987">
        <ele>28.169</ele>
        <time>2018-08-17T16:13:46.509Z</time>
      </trkpt>
      <trkpt lat="48.3763295" lon="-1.9096385">
        <ele>28.261</ele>
        <time>2018-08-17T16:13:50.343Z</time>
      </trkpt>
      <trkpt lat="48.3762936" lon="-1.9097747">
        <ele>28.485</ele>
        <time>2018-08-17T16:13:54.120Z</time>
      </trkpt>
      <trkpt lat="48.3762702" lon="-1.9099140">
        <ele>28.687</ele>
        <time>2018-08-17T16:13:57.907Z</time>
      </trkpt>
      <trkpt lat="48.3762332" lon="-1.9100716">
        <ele>28.630</ele>
        <time>2018-08-17T16:14:02.263Z</time>
      </trkpt>
      <trkpt lat="48.3761886" lon="-1.9102223">
        <ele>28.127</ele>
        <time>2018-08-17T16:14:06.366Z</time>
      </trkpt>
      <trkpt lat="48.3761501" lon="-1.9103505">
        <ele>27.289</ele>
        <time>2018-08-17T16:14:09.666Z</time>
      </trkpt>
      <trkpt lat="48.3761114" lon="-1.9104792">
        <ele>26.462</ele>
        <time>2018-08-17T16:14:12.918Z</time>
      </trkpt>
      <trkpt lat="48.3760736" lon="-1.9106045">
        <ele>25.873</ele>
        <time>2018-08-17T16:14:16.123Z</time>
      </trkpt>
      <trkpt lat="48.3760240" lon="-1.9107687">
        <ele>25.561</ele>
        <time>2018-08-17T16:14:20.319Z</time>
      </trkpt>
      <trkpt lat="48.3759693" lon="-1.9109172">
        <ele>25.531</ele>
        <time>2018-08-17T16:14:24.320Z</time>
      </trkpt>
      <trkpt lat="48.3759242" lon="-1.9110702">
        <ele>25.720</ele>
        <time>2018-08-17T16:14:28.388Z</time>
      </trkpt>
      <trkpt lat="48.3758834" lon="-1.9112187">
        <ele>25.935</ele>
        <time>2018-08-17T16:14:32.332Z</time>
      </trkpt>
      <trkpt lat="48.3758413" lon="-1.9113690">
        <ele>26.050</ele>
        <time>2018-08-17T16:14:36.338Z</time>
      </trkpt>
      <trkpt lat="48.3757989" lon="-1.9115172">
        <ele>26.150</ele>
        <time>2018-08-17T16:14:40.302Z</time>
      </trkpt>
      <trkpt lat="48.3757551" lon="-1.9116647">
        <ele>26.372</ele>
        <time>2018-08-17T16:14:44.266Z</time>
      </trkpt>
      <trkpt lat="48.3757108" lon="-1.9118119">
        <ele>26.678</ele>
        <time>2018-08-17T16:14:48.258Z</time>
      </trkpt>
      <trkpt lat="48.3756705" lon="-1.9119532">
        <ele>26.866</ele>
        <time>2018-08-17T16:14:52.143Z</time>
      </trkpt>
      <trkpt lat="48.3756271" lon="-1.9120858">
        <ele>26.854</ele>
        <time>2018-08-17T16:14:55.912Z</time>
      </trkpt>
      <trkpt lat="48.3755925" lon="-1.9122357">
        <ele>26.835</ele>
        <time>2018-08-17T16:14:59.967Z</time>
      </trkpt>
      <trkpt lat="48.3755497" lon="-1.9123781">
        <ele>26.969</ele>
        <time>2018-08-17T16:15:04.014Z</time>
      </trkpt>
      <trkpt lat="48.3755155" lon="-1.9125163">
        <ele>27.035</ele>
        <time>2018-08-17T16:15:07.785Z</time>
      </trkpt>
      <trkpt lat="48.3754700" lon="-1.9126748">
        <ele>26.829</ele>
        <time>2018-08-17T16:15:12.044Z</time>
      </trkpt>
      <trkpt lat="48.3754312" lon="-1.9128305">
        <ele>26.538</ele>
        <time>2018-08-17T16:15:16.187Z</time>
      </trkpt>
      <trkpt lat="48.3753921" lon="-1.9129710">
        <ele>26.471</ele>
        <time>2018-08-17T16:15:20.184Z</time>
      </trkpt>
      <trkpt lat="48.3753583" lon="-1.9131071">
        <ele>26.692</ele>
        <time>2018-08-17T16:15:24.196Z</time>
      </trkpt>
      <trkpt lat="48.3753271" lon="-1.9132384">
        <ele>26.999</ele>
        <time>2018-08-17T16:15:28.047Z</time>
      </trkpt>
      <trkpt lat="48.3752899" lon="-1.9133844">
        <ele>27.182</ele>
        <time>2018-08-17T16:15:32.193Z</time>
      </trkpt>
      <trkpt lat="48.3752488" lon="-1.9135297">
        <ele>27.270</ele>
        <time>2018-08-17T16:15:36.289Z</time>
      </trkpt>
      <trkpt lat="48.3752095" lon="-1.9136745">
        <ele>27.440</ele>
        <time>2018-08-17T16:15:40.398Z</time>
      </trkpt>
      <trkpt lat="48.3751691" lon="-1.9138151">
        <ele>27.752</ele>
        <time>2018-08-17T16:15:44.438Z</time>
      </trkpt>
      <trkpt lat="48.3751231" lon="-1.9139491">
        <ele>28.144</ele>
        <time>2018-08-17T16:15:48.385Z</time>
      </trkpt>
      <trkpt lat="48.3750839" lon="-1.9140853">
        <ele>28.563</ele>
        <time>2018-08-17T16:15:52.255Z</time>
      </trkpt>
      <trkpt lat="48.3750468" lon="-1.9142264">
        <ele>28.904</ele>
        <time>2018-08-17T16:15:56.180Z</time>
      </trkpt>
      <trkpt lat="48.3750101" lon="-1.9143652">
        <ele>29.051</ele>
        <time>2018-08-17T16:16:00.032Z</time>
      </trkpt>
      <trkpt lat="48.3749673" lon="-1.9145026">
        <ele>29.041</ele>
        <time>2018-08-17T16:16:03.946Z</time>
      </trkpt>
      <trkpt lat="48.3749251" lon="-1.9146466">
        <ele>28.979</ele>
        <time>2018-08-17T16:16:08.001Z</time>
      </trkpt>
      <trkpt lat="48.3748880" lon="-1.9147957">
        <ele>28.836</ele>
        <time>2018-08-17T16:16:12.056Z</time>
      </trkpt>
      <trkpt lat="48.3748452" lon="-1.9149464">
        <ele>28.521</ele>
        <time>2018-08-17T16:16:16.207Z</time>
      </trkpt>
      <trkpt lat="48.3748051" lon="-1.9150897">
        <ele>28.148</ele>
        <time>2018-08-17T16:16:20.195Z</time>
      </trkpt>
      <trkpt lat="48.3747644" lon="-1.9152324">
        <ele>27.915</ele>
        <time>2018-08-17T16:16:24.170Z</time>
      </trkpt>
      <trkpt lat="48.3747252" lon="-1.9153878">
        <ele>27.763</ele>
        <time>2018-08-17T16:16:28.336Z</time>
      </trkpt>
      <trkpt lat="48.3746850" lon="-1.9155421">
        <ele>27.518</ele>
        <time>2018-08-17T16:16:32.426Z</time>
      </trkpt>
      <trkpt lat="48.3746488" lon="-1.9156935">
        <ele>27.157</ele>
        <time>2018-08-17T16:16:36.537Z</time>
      </trkpt>
      <trkpt lat="48.3746130" lon="-1.9158271">
        <ele>26.772</ele>
        <time>2018-08-17T16:16:40.292Z</time>
      </trkpt>
      <trkpt lat="48.3745721" lon="-1.9159755">
        <ele>26.402</ele>
        <time>2018-08-17T16:16:44.328Z</time>
      </trkpt>
      <trkpt lat="48.3745333" lon="-1.9161321">
        <ele>26.089</ele>
        <time>2018-08-17T16:16:48.314Z</time>
      </trkpt>
      <trkpt lat="48.3744923" lon="-1.9162941">
        <ele>25.873</ele>
        <time>2018-08-17T16:16:52.423Z</time>
      </trkpt>
      <trkpt lat="48.3744548" lon="-1.9164369">
        <ele>25.743</ele>
        <time>2018-08-17T16:16:56.331Z</time>
      </trkpt>
      <trkpt lat="48.3744221" lon="-1.9165722">
        <ele>25.656</ele>
        <time>2018-08-17T16:17:00.518Z</time>
      </trkpt>
      <trkpt lat="48.3743881" lon="-1.9167042">
        <ele>25.613</ele>
        <time>2018-08-17T16:17:04.953Z</time>
      </trkpt>
      <trkpt lat="48.3743510" lon="-1.9168573">
        <ele>25.600</ele>
        <time>2018-08-17T16:17:09.757Z</time>
      </trkpt>
      <trkpt lat="48.3743005" lon="-1.9170113">
        <ele>25.582</ele>
        <time>2018-08-17T16:17:13.789Z</time>
      </trkpt>
      <trkpt lat="48.3742584" lon="-1.9171661">
        <ele>25.456</ele>
        <time>2018-08-17T16:17:16.802Z</time>
      </trkpt>
      <trkpt lat="48.3742074" lon="-1.9173391">
        <ele>25.140</ele>
        <time>2018-08-17T16:17:19.783Z</time>
      </trkpt>
      <trkpt lat="48.3741523" lon="-1.9175163">
        <ele>24.544</ele>
        <time>2018-08-17T16:17:22.796Z</time>
      </trkpt>
      <trkpt lat="48.3741019" lon="-1.9176690">
        <ele>23.740</ele>
        <time>2018-08-17T16:17:25.502Z</time>
      </trkpt>
      <trkpt lat="48.3740554" lon="-1.9178345">
        <ele>22.999</ele>
        <time>2018-08-17T16:17:28.404Z</time>
      </trkpt>
      <trkpt lat="48.3740098" lon="-1.9179891">
        <ele>22.391</ele>
        <time>2018-08-17T16:17:31.193Z</time>
      </trkpt>
      <trkpt lat="48.3739713" lon="-1.9181501">
        <ele>22.662</ele>
        <time>2018-08-17T16:17:34.122Z</time>
      </trkpt>
      <trkpt lat="48.3739322" lon="-1.9182829">
        <ele>23.219</ele>
        <time>2018-08-17T16:17:36.782Z</time>
      </trkpt>
      <trkpt lat="48.3738779" lon="-1.9184361">
        <ele>23.791</ele>
        <time>2018-08-17T16:17:40.139Z</time>
      </trkpt>
      <trkpt lat="48.3738449" lon="-1.9185638">
        <ele>24.128</ele>
        <time>2018-08-17T16:17:42.977Z</time>
      </trkpt>
      <trkpt lat="48.3737873" lon="-1.9187179">
        <ele>24.194</ele>
        <time>2018-08-17T16:17:46.785Z</time>
      </trkpt>
      <trkpt lat="48.3737384" lon="-1.9188377">
        <ele>24.608</ele>
        <time>2018-08-17T16:17:49.885Z</time>
      </trkpt>
      <trkpt lat="48.3736866" lon="-1.9189771">
        <ele>26.208</ele>
        <time>2018-08-17T16:17:53.447Z</time>
      </trkpt>
      <trkpt lat="48.3736429" lon="-1.9191285">
        <ele>28.837</ele>
        <time>2018-08-17T16:17:57.218Z</time>
      </trkpt>
      <trkpt lat="48.3735996" lon="-1.9192483">
        <ele>31.570</ele>
        <time>2018-08-17T16:18:00.386Z</time>
      </trkpt>
      <trkpt lat="48.3735719" lon="-1.9193827">
        <ele>33.648</ele>
        <time>2018-08-17T16:18:03.643Z</time>
      </trkpt>
      <trkpt lat="48.3735406" lon="-1.9195140">
        <ele>34.277</ele>
        <time>2018-08-17T16:18:06.798Z</time>
      </trkpt>
      <trkpt lat="48.3735099" lon="-1.9196600">
        <ele>33.354</ele>
        <time>2018-08-17T16:18:10.112Z</time>
      </trkpt>
      <trkpt lat="48.3734796" lon="-1.9198026">
        <ele>31.923</ele>
        <time>2018-08-17T16:18:13.247Z</time>
      </trkpt>
      <trkpt lat="48.3734441" lon="-1.9199275">
        <ele>30.918</ele>
        <time>2018-08-17T16:18:16.081Z</time>
      </trkpt>
      <trkpt lat="48.3734039" lon="-1.9200516">
        <ele>30.766</ele>
        <time>2018-08-17T16:18:19.016Z</time>
      </trkpt>
      <trkpt lat="48.3733707" lon="-1.9202041">
        <ele>31.466</ele>
        <time>2018-08-17T16:18:22.529Z</time>
      </trkpt>
      <trkpt lat="48.3733391" lon="-1.9203570">
        <ele>31.869</ele>
        <time>2018-08-17T16:18:26.207Z</time>
      </trkpt>
      <trkpt lat="48.3733023" lon="-1.9205211">
        <ele>30.656</ele>
        <time>2018-08-17T16:18:30.262Z</time>
      </trkpt>
      <trkpt lat="48.3732718" lon="-1.9206547">
        <ele>28.105</ele>
        <time>2018-08-17T16:18:33.464Z</time>
      </trkpt>
      <trkpt lat="48.3732437" lon="-1.9207944">
        <ele>25.631</ele>
        <time>2018-08-17T16:18:36.636Z</time>
      </trkpt>
      <trkpt lat="48.3732065" lon="-1.9209595">
        <ele>23.611</ele>
        <time>2018-08-17T16:18:40.375Z</time>
      </trkpt>
      <trkpt lat="48.3731563" lon="-1.9211055">
        <ele>23.394</ele>
        <time>2018-08-17T16:18:43.999Z</time>
      </trkpt>
      <trkpt lat="48.3731563" lon="-1.9211055">
        <ele>23.240</ele>
        <time>2018-08-17T16:18:43.999Z</time>
      </trkpt>
      <trkpt lat="48.3731563" lon="-1.9211055">
        <ele>23.165</ele>
        <time>2018-08-17T16:18:44.099Z</time>
      </trkpt>
      <trkpt lat="48.3730974" lon="-1.9212983">
        <ele>23.163</ele>
        <time>2018-08-17T16:18:50.301Z</time>
      </trkpt>
      <trkpt lat="48.3730956" lon="-1.9214371">
        <ele>23.020</ele>
        <time>2018-08-17T16:18:53.561Z</time>
      </trkpt>
      <trkpt lat="48.3730206" lon="-1.9215286">
        <ele>22.565</ele>
        <time>2018-08-17T16:18:57.999Z</time>
      </trkpt>
      <trkpt lat="48.3730206" lon="-1.9215286">
        <ele>22.066</ele>
        <time>2018-08-17T16:19:00.999Z</time>
      </trkpt>
      <trkpt lat="48.3730206" lon="-1.9215286">
        <ele>21.856</ele>
        <time>2018-08-17T16:19:01.099Z</time>
      </trkpt>
      <trkpt lat="48.3729384" lon="-1.9218650">
        <ele>21.887</ele>
        <time>2018-08-17T16:19:11.837Z</time>
      </trkpt>
      <trkpt lat="48.3728924" lon="-1.9220263">
        <ele>21.944</ele>
        <time>2018-08-17T16:19:16.020Z</time>
      </trkpt>
      <trkpt lat="48.3728413" lon="-1.9221654">
        <ele>21.913</ele>
        <time>2018-08-17T16:19:19.851Z</time>
      </trkpt>
      <trkpt lat="48.3727894" lon="-1.9223047">
        <ele>21.838</ele>
        <time>2018-08-17T16:19:23.699Z</time>
      </trkpt>
      <trkpt lat="48.3727325" lon="-1.9224423">
        <ele>21.813</ele>
        <time>2018-08-17T16:19:27.586Z</time>
      </trkpt>
      <trkpt lat="48.3726820" lon="-1.9225851">
        <ele>21.864</ele>
        <time>2018-08-17T16:19:31.466Z</time>
      </trkpt>
      <trkpt lat="48.3726254" lon="-1.9227238">
        <ele>21.940</ele>
        <time>2018-08-17T16:19:35.404Z</time>
      </trkpt>
      <trkpt lat="48.3725659" lon="-1.9228581">
        <ele>21.962</ele>
        <time>2018-08-17T16:19:39.350Z</time>
      </trkpt>
      <trkpt lat="48.3725069" lon="-1.9229847">
        <ele>21.847</ele>
        <time>2018-08-17T16:19:43.108Z</time>
      </trkpt>
      <trkpt lat="48.3724538" lon="-1.9231202">
        <ele>21.597</ele>
        <time>2018-08-17T16:19:46.886Z</time>
      </trkpt>
      <trkpt lat="48.3723902" lon="-1.9232564">
        <ele>21.353</ele>
        <time>2018-08-17T16:19:50.939Z</time>
      </trkpt>
      <trkpt lat="48.3723248" lon="-1.9233744">
        <ele>21.226</ele>
        <time>2018-08-17T16:19:54.752Z</time>
      </trkpt>
      <trkpt lat="48.3722662" lon="-1.9234875">
        <ele>21.201</ele>
        <time>2018-08-17T16:19:58.349Z</time>
      </trkpt>
      <trkpt lat="48.3722015" lon="-1.9236107">
        <ele>21.228</ele>
        <time>2018-08-17T16:20:02.517Z</time>
      </trkpt>
      <trkpt lat="48.3721222" lon="-1.9237299">
        <ele>21.446</ele>
        <time>2018-08-17T16:20:07.045Z</time>
      </trkpt>
      <trkpt lat="48.3720585" lon="-1.9238615">
        <ele>22.041</ele>
        <time>2018-08-17T16:20:11.116Z</time>
      </trkpt>
      <trkpt lat="48.3719983" lon="-1.9240023">
        <ele>22.801</ele>
        <time>2018-08-17T16:20:15.131Z</time>
      </trkpt>
      <trkpt lat="48.3719439" lon="-1.9241603">
        <ele>23.290</ele>
        <time>2018-08-17T16:20:19.242Z</time>
      </trkpt>
      <trkpt lat="48.3719029" lon="-1.9242853">
        <ele>23.228</ele>
        <time>2018-08-17T16:20:22.426Z</time>
      </trkpt>
      <trkpt lat="48.3718497" lon="-1.9244407">
        <ele>22.530</ele>
        <time>2018-08-17T16:20:26.472Z</time>
      </trkpt>
      <trkpt lat="48.3718050" lon="-1.9245963">
        <ele>21.485</ele>
        <time>2018-08-17T16:20:30.588Z</time>
      </trkpt>
      <trkpt lat="48.3717581" lon="-1.9247321">
        <ele>20.596</ele>
        <time>2018-08-17T16:20:34.524Z</time>
      </trkpt>
      <trkpt lat="48.3717140" lon="-1.9248674">
        <ele>20.140</ele>
        <time>2018-08-17T16:20:38.553Z</time>
      </trkpt>
      <trkpt lat="48.3716731" lon="-1.9249951">
        <ele>20.044</ele>
        <time>2018-08-17T16:20:42.330Z</time>
      </trkpt>
      <trkpt lat="48.3716246" lon="-1.9251328">
        <ele>19.998</ele>
        <time>2018-08-17T16:20:46.387Z</time>
      </trkpt>
      <trkpt lat="48.3715891" lon="-1.9252814">
        <ele>19.759</ele>
        <time>2018-08-17T16:20:50.462Z</time>
      </trkpt>
      <trkpt lat="48.3715525" lon="-1.9254274">
        <ele>19.410</ele>
        <time>2018-08-17T16:20:54.368Z</time>
      </trkpt>
      <trkpt lat="48.3715304" lon="-1.9255917">
        <ele>19.229</ele>
        <time>2018-08-17T16:20:58.421Z</time>
      </trkpt>
      <trkpt lat="48.3715095" lon="-1.9257609">
        <ele>19.449</ele>
        <time>2018-08-17T16:21:02.647Z</time>
      </trkpt>
      <trkpt lat="48.3714955" lon="-1.9259215">
        <ele>20.056</ele>
        <time>2018-08-17T16:21:06.876Z</time>
      </trkpt>
      <trkpt lat="48.3714887" lon="-1.9260669">
        <ele>20.793</ele>
        <time>2018-08-17T16:21:10.780Z</time>
      </trkpt>
      <trkpt lat="48.3714841" lon="-1.9262229">
        <ele>21.352</ele>
        <time>2018-08-17T16:21:14.924Z</time>
      </trkpt>
      <trkpt lat="48.3714930" lon="-1.9263788">
        <ele>21.514</ele>
        <time>2018-08-17T16:21:19.100Z</time>
      </trkpt>
      <trkpt lat="48.3715011" lon="-1.9265374">
        <ele>21.247</ele>
        <time>2018-08-17T16:21:23.501Z</time>
      </trkpt>
      <trkpt lat="48.3715204" lon="-1.9266723">
        <ele>20.797</ele>
        <time>2018-08-17T16:21:27.270Z</time>
      </trkpt>
      <trkpt lat="48.3715141" lon="-1.9268159">
        <ele>20.530</ele>
        <time>2018-08-17T16:21:31.017Z</time>
      </trkpt>
      <trkpt lat="48.3715277" lon="-1.9269707">
        <ele>20.671</ele>
        <time>2018-08-17T16:21:35.048Z</time>
      </trkpt>
      <trkpt lat="48.3715459" lon="-1.9271254">
        <ele>21.119</ele>
        <time>2018-08-17T16:21:39.239Z</time>
      </trkpt>
      <trkpt lat="48.3715785" lon="-1.9272624">
        <ele>21.661</ele>
        <time>2018-08-17T16:21:43.345Z</time>
      </trkpt>
      <trkpt lat="48.3716337" lon="-1.9273707">
        <ele>22.259</ele>
        <time>2018-08-17T16:21:47.471Z</time>
      </trkpt>
      <trkpt lat="48.3717046" lon="-1.9274663">
        <ele>22.924</ele>
        <time>2018-08-17T16:21:52.148Z</time>
      </trkpt>
      <trkpt lat="48.3717650" lon="-1.9275718">
        <ele>23.516</ele>
        <time>2018-08-17T16:21:56.591Z</time>
      </trkpt>
      <trkpt lat="48.3718061" lon="-1.9277164">
        <ele>23.875</ele>
        <time>2018-08-17T16:22:01.371Z</time>
      </trkpt>
      <trkpt lat="48.3718282" lon="-1.9278803">
        <ele>23.879</ele>
        <time>2018-08-17T16:22:06.254Z</time>
      </trkpt>
      <trkpt lat="48.3718567" lon="-1.9280115">
        <ele>23.402</ele>
        <time>2018-08-17T16:22:10.043Z</time>
      </trkpt>
      <trkpt lat="48.3719108" lon="-1.9281422">
        <ele>22.507</ele>
        <time>2018-08-17T16:22:13.994Z</time>
      </trkpt>
      <trkpt lat="48.3719654" lon="-1.9282810">
        <ele>21.560</ele>
        <time>2018-08-17T16:22:18.178Z</time>
      </trkpt>
      <trkpt lat="48.3720255" lon="-1.9283922">
        <ele>20.898</ele>
        <time>2018-08-17T16:22:22.304Z</time>
      </trkpt>
      <trkpt lat="48.3720998" lon="-1.9285117">
        <ele>20.736</ele>
        <time>2018-08-17T16:22:27.214Z</time>
      </trkpt>
      <trkpt lat="48.3721712" lon="-1.9286364">
        <ele>21.079</ele>
        <time>2018-08-17T16:22:32.013Z</time>
      </trkpt>
      <trkpt lat="48.3722323" lon="-1.9287388">
        <ele>21.584</ele>
        <time>2018-08-17T16:22:35.876Z</time>
      </trkpt>
      <trkpt lat="48.3722977" lon="-1.9288382">
        <ele>21.895</ele>
        <time>2018-08-17T16:22:39.672Z</time>
      </trkpt>
      <trkpt lat="48.3723614" lon="-1.9289550">
        <ele>21.962</ele>
        <time>2018-08-17T16:22:43.638Z</time>
      </trkpt>
      <trkpt lat="48.3724266" lon="-1.9290724">
        <ele>21.886</ele>
        <time>2018-08-17T16:22:47.585Z</time>
      </trkpt>
      <trkpt lat="48.3724903" lon="-1.9291898">
        <ele>21.746</ele>
        <time>2018-08-17T16:22:51.591Z</time>
      </trkpt>
      <trkpt lat="48.3725490" lon="-1.9293017">
        <ele>21.582</ele>
        <time>2018-08-17T16:22:55.497Z</time>
      </trkpt>
      <trkpt lat="48.3726079" lon="-1.9294150">
        <ele>21.332</ele>
        <time>2018-08-17T16:22:59.426Z</time>
      </trkpt>
      <trkpt lat="48.3726535" lon="-1.9295424">
        <ele>20.980</ele>
        <time>2018-08-17T16:23:03.298Z</time>
      </trkpt>
      <trkpt lat="48.3727024" lon="-1.9296712">
        <ele>20.703</ele>
        <time>2018-08-17T16:23:07.323Z</time>
      </trkpt>
      <trkpt lat="48.3727509" lon="-1.9297943">
        <ele>20.656</ele>
        <time>2018-08-17T16:23:11.288Z</time>
      </trkpt>
      <trkpt lat="48.3728005" lon="-1.9299073">
        <ele>20.786</ele>
        <time>2018-08-17T16:23:15.173Z</time>
      </trkpt>
      <trkpt lat="48.3728839" lon="-1.9300126">
        <ele>20.973</ele>
        <time>2018-08-17T16:23:19.974Z</time>
      </trkpt>
      <trkpt lat="48.3729713" lon="-1.9301129">
        <ele>21.130</ele>
        <time>2018-08-17T16:23:25.130Z</time>
      </trkpt>
      <trkpt lat="48.3730570" lon="-1.9301961">
        <ele>21.248</ele>
        <time>2018-08-17T16:23:30.517Z</time>
      </trkpt>
      <trkpt lat="48.3731418" lon="-1.9302709">
        <ele>21.344</ele>
        <time>2018-08-17T16:23:36.386Z</time>
      </trkpt>
      <trkpt lat="48.3732331" lon="-1.9303283">
        <ele>21.552</ele>
        <time>2018-08-17T16:23:42.723Z</time>
      </trkpt>
      <trkpt lat="48.3733083" lon="-1.9304078">
        <ele>22.132</ele>
        <time>2018-08-17T16:23:49.000Z</time>
      </trkpt>
      <trkpt lat="48.3733083" lon="-1.9304078">
        <ele>23.003</ele>
        <time>2018-08-17T16:23:49.000Z</time>
      </trkpt>
      <trkpt lat="48.3733083" lon="-1.9304078">
        <ele>23.568</ele>
        <time>2018-08-17T16:23:49.663Z</time>
      </trkpt>
      <trkpt lat="48.3733860" lon="-1.9305855">
        <ele>23.530</ele>
        <time>2018-08-17T16:23:56.602Z</time>
      </trkpt>
      <trkpt lat="48.3735075" lon="-1.9307488">
        <ele>23.224</ele>
        <time>2018-08-17T16:23:59.843Z</time>
      </trkpt>
      <trkpt lat="48.3736509" lon="-1.9309213">
        <ele>22.932</ele>
        <time>2018-08-17T16:24:02.908Z</time>
      </trkpt>
      <trkpt lat="48.3737384" lon="-1.9310229">
        <ele>22.565</ele>
        <time>2018-08-17T16:24:04.833Z</time>
      </trkpt>
      <trkpt lat="48.3738190" lon="-1.9311252">
        <ele>22.116</ele>
        <time>2018-08-17T16:24:06.886Z</time>
      </trkpt>
      <trkpt lat="48.3739262" lon="-1.9312319">
        <ele>21.784</ele>
        <time>2018-08-17T16:24:09.658Z</time>
      </trkpt>
      <trkpt lat="48.3740085" lon="-1.9313365">
        <ele>21.659</ele>
        <time>2018-08-17T16:24:12.420Z</time>
      </trkpt>
      <trkpt lat="48.3741029" lon="-1.9314326">
        <ele>21.619</ele>
        <time>2018-08-17T16:24:15.820Z</time>
      </trkpt>
      <trkpt lat="48.3741835" lon="-1.9315249">
        <ele>21.523</ele>
        <time>2018-08-17T16:24:19.311Z</time>
      </trkpt>
      <trkpt lat="48.3742637" lon="-1.9316214">
        <ele>21.354</ele>
        <time>2018-08-17T16:24:23.021Z</time>
      </trkpt>
      <trkpt lat="48.3743472" lon="-1.9317179">
        <ele>21.196</ele>
        <time>2018-08-17T16:24:26.829Z</time>
      </trkpt>
      <trkpt lat="48.3744316" lon="-1.9318201">
        <ele>21.102</ele>
        <time>2018-08-17T16:24:30.737Z</time>
      </trkpt>
      <trkpt lat="48.3745117" lon="-1.9319148">
        <ele>21.062</ele>
        <time>2018-08-17T16:24:34.426Z</time>
      </trkpt>
      <trkpt lat="48.3745891" lon="-1.9320110">
        <ele>21.052</ele>
        <time>2018-08-17T16:24:38.108Z</time>
      </trkpt>
      <trkpt lat="48.3746643" lon="-1.9320938">
        <ele>21.089</ele>
        <time>2018-08-17T16:24:41.618Z</time>
      </trkpt>
      <trkpt lat="48.3747375" lon="-1.9321765">
        <ele>21.288</ele>
        <time>2018-08-17T16:24:45.176Z</time>
      </trkpt>
      <trkpt lat="48.3748163" lon="-1.9322636">
        <ele>21.713</ele>
        <time>2018-08-17T16:24:49.011Z</time>
      </trkpt>
      <trkpt lat="48.3748966" lon="-1.9323535">
        <ele>22.189</ele>
        <time>2018-08-17T16:24:52.837Z</time>
      </trkpt>
      <trkpt lat="48.3749752" lon="-1.9324392">
        <ele>22.487</ele>
        <time>2018-08-17T16:24:56.477Z</time>
      </trkpt>
      <trkpt lat="48.3750587" lon="-1.9325349">
        <ele>22.610</ele>
        <time>2018-08-17T16:25:00.400Z</time>
      </trkpt>
      <trkpt lat="48.3751465" lon="-1.9326300">
        <ele>22.711</ele>
        <time>2018-08-17T16:25:04.377Z</time>
      </trkpt>
      <trkpt lat="48.3752320" lon="-1.9327235">
        <ele>22.837</ele>
        <time>2018-08-17T16:25:08.148Z</time>
      </trkpt>
      <trkpt lat="48.3753173" lon="-1.9328143">
        <ele>22.854</ele>
        <time>2018-08-17T16:25:11.840Z</time>
      </trkpt>
      <trkpt lat="48.3754022" lon="-1.9329089">
        <ele>22.690</ele>
        <time>2018-08-17T16:25:15.603Z</time>
      </trkpt>
      <trkpt lat="48.3754901" lon="-1.9330119">
        <ele>22.483</ele>
        <time>2018-08-17T16:25:19.586Z</time>
      </trkpt>
      <trkpt lat="48.3755758" lon="-1.9331091">
        <ele>22.405</ele>
        <time>2018-08-17T16:25:23.363Z</time>
      </trkpt>
      <trkpt lat="48.3756651" lon="-1.9332092">
        <ele>22.468</ele>
        <time>2018-08-17T16:25:27.221Z</time>
      </trkpt>
      <trkpt lat="48.3757520" lon="-1.9333125">
        <ele>22.572</ele>
        <time>2018-08-17T16:25:31.077Z</time>
      </trkpt>
      <trkpt lat="48.3758427" lon="-1.9334142">
        <ele>22.586</ele>
        <time>2018-08-17T16:25:34.989Z</time>
      </trkpt>
      <trkpt lat="48.3759353" lon="-1.9335172">
        <ele>22.354</ele>
        <time>2018-08-17T16:25:38.914Z</time>
      </trkpt>
      <trkpt lat="48.3760283" lon="-1.9336215">
        <ele>21.843</ele>
        <time>2018-08-17T16:25:42.800Z</time>
      </trkpt>
      <trkpt lat="48.3761193" lon="-1.9337275">
        <ele>21.274</ele>
        <time>2018-08-17T16:25:46.594Z</time>
      </trkpt>
      <trkpt lat="48.3762127" lon="-1.9338330">
        <ele>20.874</ele>
        <time>2018-08-17T16:25:50.400Z</time>
      </trkpt>
      <trkpt lat="48.3763064" lon="-1.9339391">
        <ele>20.671</ele>
        <time>2018-08-17T16:25:54.197Z</time>
      </trkpt>
      <trkpt lat="48.3763992" lon="-1.9340226">
        <ele>20.532</ele>
        <time>2018-08-17T16:25:57.705Z</time>
      </trkpt>
      <trkpt lat="48.3765087" lon="-1.9340606">
        <ele>20.341</ele>
        <time>2018-08-17T16:26:01.390Z</time>
      </trkpt>
      <trkpt lat="48.3766263" lon="-1.9340843">
        <ele>19.938</ele>
        <time>2018-08-17T16:26:05.337Z</time>
      </trkpt>
      <trkpt lat="48.3767266" lon="-1.9341427">
        <ele>19.272</ele>
        <time>2018-08-17T16:26:08.906Z</time>
      </trkpt>
      <trkpt lat="48.3767999" lon="-1.9342535">
        <ele>18.661</ele>
        <time>2018-08-17T16:26:12.377Z</time>
      </trkpt>
      <trkpt lat="48.3768428" lon="-1.9343866">
        <ele>18.407</ele>
        <time>2018-08-17T16:26:15.784Z</time>
      </trkpt>
      <trkpt lat="48.3768816" lon="-1.9345299">
        <ele>18.425</ele>
        <time>2018-08-17T16:26:19.512Z</time>
      </trkpt>
      <trkpt lat="48.3769307" lon="-1.9346677">
        <ele>18.551</ele>
        <time>2018-08-17T16:26:23.073Z</time>
      </trkpt>
      <trkpt lat="48.3769985" lon="-1.9347735">
        <ele>18.743</ele>
        <time>2018-08-17T16:26:26.154Z</time>
      </trkpt>
      <trkpt lat="48.3770715" lon="-1.9348532">
        <ele>19.021</ele>
        <time>2018-08-17T16:26:28.885Z</time>
      </trkpt>
      <trkpt lat="48.3771538" lon="-1.9349339">
        <ele>19.304</ele>
        <time>2018-08-17T16:26:31.879Z</time>
      </trkpt>
      <trkpt lat="48.3772317" lon="-1.9350266">
        <ele>19.528</ele>
        <time>2018-08-17T16:26:35.001Z</time>
      </trkpt>
      <trkpt lat="48.3773114" lon="-1.9351184">
        <ele>19.753</ele>
        <time>2018-08-17T16:26:38.123Z</time>
      </trkpt>
      <trkpt lat="48.3773836" lon="-1.9352101">
        <ele>19.968</ele>
        <time>2018-08-17T16:26:40.962Z</time>
      </trkpt>
      <trkpt lat="48.3774615" lon="-1.9352879">
        <ele>19.917</ele>
        <time>2018-08-17T16:26:43.711Z</time>
      </trkpt>
      <trkpt lat="48.3775387" lon="-1.9353645">
        <ele>19.492</ele>
        <time>2018-08-17T16:26:46.455Z</time>
      </trkpt>
      <trkpt lat="48.3776128" lon="-1.9354445">
        <ele>19.054</ele>
        <time>2018-08-17T16:26:49.234Z</time>
      </trkpt>
      <trkpt lat="48.3776837" lon="-1.9355283">
        <ele>18.973</ele>
        <time>2018-08-17T16:26:52.013Z</time>
      </trkpt>
      <trkpt lat="48.3777588" lon="-1.9356131">
        <ele>19.208</ele>
        <time>2018-08-17T16:26:54.918Z</time>
      </trkpt>
      <trkpt lat="48.3778320" lon="-1.9356956">
        <ele>19.536</ele>
        <time>2018-08-17T16:26:57.751Z</time>
      </trkpt>
      <trkpt lat="48.3779186" lon="-1.9357974">
        <ele>19.808</ele>
        <time>2018-08-17T16:27:01.142Z</time>
      </trkpt>
      <trkpt lat="48.3780165" lon="-1.9359040">
        <ele>20.000</ele>
        <time>2018-08-17T16:27:04.931Z</time>
      </trkpt>
      <trkpt lat="48.3781037" lon="-1.9359844">
        <ele>20.092</ele>
        <time>2018-08-17T16:27:08.253Z</time>
      </trkpt>
      <trkpt lat="48.3782011" lon="-1.9360870">
        <ele>20.033</ele>
        <time>2018-08-17T16:27:12.105Z</time>
      </trkpt>
      <trkpt lat="48.3783213" lon="-1.9362127">
        <ele>19.730</ele>
        <time>2018-08-17T16:27:16.296Z</time>
      </trkpt>
      <trkpt lat="48.3784203" lon="-1.9363144">
        <ele>19.233</ele>
        <time>2018-08-17T16:27:19.272Z</time>
      </trkpt>
      <trkpt lat="48.3784978" lon="-1.9364128">
        <ele>18.949</ele>
        <time>2018-08-17T16:27:21.533Z</time>
      </trkpt>
      <trkpt lat="48.3785792" lon="-1.9364882">
        <ele>19.238</ele>
        <time>2018-08-17T16:27:23.549Z</time>
      </trkpt>
      <trkpt lat="48.3786729" lon="-1.9365705">
        <ele>19.882</ele>
        <time>2018-08-17T16:27:26.080Z</time>
      </trkpt>
      <trkpt lat="48.3787534" lon="-1.9366698">
        <ele>20.210</ele>
        <time>2018-08-17T16:27:28.857Z</time>
      </trkpt>
      <trkpt lat="48.3788345" lon="-1.9367832">
        <ele>19.893</ele>
        <time>2018-08-17T16:27:32.294Z</time>
      </trkpt>
      <trkpt lat="48.3789203" lon="-1.9368821">
        <ele>19.314</ele>
        <time>2018-08-17T16:27:36.050Z</time>
      </trkpt>
      <trkpt lat="48.3790048" lon="-1.9369793">
        <ele>19.175</ele>
        <time>2018-08-17T16:27:39.963Z</time>
      </trkpt>
      <trkpt lat="48.3790846" lon="-1.9370762">
        <ele>19.814</ele>
        <time>2018-08-17T16:27:43.706Z</time>
      </trkpt>
      <trkpt lat="48.3791600" lon="-1.9371593">
        <ele>20.865</ele>
        <time>2018-08-17T16:27:47.022Z</time>
      </trkpt>
      <trkpt lat="48.3792407" lon="-1.9372600">
        <ele>21.643</ele>
        <time>2018-08-17T16:27:50.833Z</time>
      </trkpt>
      <trkpt lat="48.3793194" lon="-1.9373493">
        <ele>21.795</ele>
        <time>2018-08-17T16:27:54.486Z</time>
      </trkpt>
      <trkpt lat="48.3794032" lon="-1.9374566">
        <ele>21.405</ele>
        <time>2018-08-17T16:27:58.748Z</time>
      </trkpt>
      <trkpt lat="48.3794885" lon="-1.9375578">
        <ele>20.861</ele>
        <time>2018-08-17T16:28:02.975Z</time>
      </trkpt>
      <trkpt lat="48.3795674" lon="-1.9376490">
        <ele>20.544</ele>
        <time>2018-08-17T16:28:06.839Z</time>
      </trkpt>
      <trkpt lat="48.3796450" lon="-1.9377369">
        <ele>20.539</ele>
        <time>2018-08-17T16:28:10.561Z</time>
      </trkpt>
      <trkpt lat="48.3797304" lon="-1.9378243">
        <ele>20.670</ele>
        <time>2018-08-17T16:28:14.321Z</time>
      </trkpt>
      <trkpt lat="48.3797974" lon="-1.9379145">
        <ele>20.915</ele>
        <time>2018-08-17T16:28:17.572Z</time>
      </trkpt>
      <trkpt lat="48.3798820" lon="-1.9380179">
        <ele>21.329</ele>
        <time>2018-08-17T16:28:21.559Z</time>
      </trkpt>
      <trkpt lat="48.3799640" lon="-1.9381193">
        <ele>21.981</ele>
        <time>2018-08-17T16:28:25.466Z</time>
      </trkpt>
      <trkpt lat="48.3800359" lon="-1.9382227">
        <ele>22.942</ele>
        <time>2018-08-17T16:28:29.206Z</time>
      </trkpt>
      <trkpt lat="48.3801177" lon="-1.9383107">
        <ele>23.952</ele>
        <time>2018-08-17T16:28:33.285Z</time>
      </trkpt>
      <trkpt lat="48.3801989" lon="-1.9383708">
        <ele>24.704</ele>
        <time>2018-08-17T16:28:37.221Z</time>
      </trkpt>
      <trkpt lat="48.3802821" lon="-1.9384553">
        <ele>25.416</ele>
        <time>2018-08-17T16:28:41.797Z</time>
      </trkpt>
      <trkpt lat="48.3803610" lon="-1.9385384">
        <ele>26.334</ele>
        <time>2018-08-17T16:28:45.939Z</time>
      </trkpt>
      <trkpt lat="48.3804387" lon="-1.9386228">
        <ele>27.539</ele>
        <time>2018-08-17T16:28:49.800Z</time>
      </trkpt>
      <trkpt lat="48.3805143" lon="-1.9387086">
        <ele>28.987</ele>
        <time>2018-08-17T16:28:53.642Z</time>
      </trkpt>
      <trkpt lat="48.3806142" lon="-1.9387788">
        <ele>30.851</ele>
        <time>2018-08-17T16:28:58.182Z</time>
      </trkpt>
      <trkpt lat="48.3807048" lon="-1.9388499">
        <ele>33.047</ele>
        <time>2018-08-17T16:29:02.394Z</time>
      </trkpt>
      <trkpt lat="48.3808126" lon="-1.9388854">
        <ele>34.266</ele>
        <time>2018-08-17T16:29:07.320Z</time>
      </trkpt>
      <trkpt lat="48.3809051" lon="-1.9389301">
        <ele>32.961</ele>
        <time>2018-08-17T16:29:12.288Z</time>
      </trkpt>
      <trkpt lat="48.3809889" lon="-1.9389885">
        <ele>29.381</ele>
        <time>2018-08-17T16:29:17.162Z</time>
      </trkpt>
      <trkpt lat="48.3810835" lon="-1.9390560">
        <ele>25.067</ele>
        <time>2018-08-17T16:29:22.114Z</time>
      </trkpt>
      <trkpt lat="48.3811766" lon="-1.9391067">
        <ele>21.525</ele>
        <time>2018-08-17T16:29:26.383Z</time>
      </trkpt>
      <trkpt lat="48.3812849" lon="-1.9391606">
        <ele>19.553</ele>
        <time>2018-08-17T16:29:31.049Z</time>
      </trkpt>
      <trkpt lat="48.3813732" lon="-1.9392124">
        <ele>19.077</ele>
        <time>2018-08-17T16:29:35.105Z</time>
      </trkpt>
      <trkpt lat="48.3814817" lon="-1.9392608">
        <ele>19.382</ele>
        <time>2018-08-17T16:29:40.020Z</time>
      </trkpt>
      <trkpt lat="48.3815715" lon="-1.9392774">
        <ele>19.567</ele>
        <time>2018-08-17T16:29:44.009Z</time>
      </trkpt>
      <trkpt lat="48.3816800" lon="-1.9393069">
        <ele>19.182</ele>
        <time>2018-08-17T16:29:48.760Z</time>
      </trkpt>
      <trkpt lat="48.3817854" lon="-1.9393486">
        <ele>18.837</ele>
        <time>2018-08-17T16:29:52.895Z</time>
      </trkpt>
      <trkpt lat="48.3818745" lon="-1.9393953">
        <ele>19.449</ele>
        <time>2018-08-17T16:29:56.378Z</time>
      </trkpt>
      <trkpt lat="48.3819629" lon="-1.9394475">
        <ele>20.851</ele>
        <time>2018-08-17T16:29:59.982Z</time>
      </trkpt>
      <trkpt lat="48.3820610" lon="-1.9394773">
        <ele>22.051</ele>
        <time>2018-08-17T16:30:04.126Z</time>
      </trkpt>
      <trkpt lat="48.3821667" lon="-1.9395284">
        <ele>22.537</ele>
        <time>2018-08-17T16:30:09.061Z</time>
      </trkpt>
      <trkpt lat="48.3822567" lon="-1.9395597">
        <ele>22.564</ele>
        <time>2018-08-17T16:30:13.297Z</time>
      </trkpt>
      <trkpt lat="48.3823454" lon="-1.9396008">
        <ele>22.616</ele>
        <time>2018-08-17T16:30:17.880Z</time>
      </trkpt>
      <trkpt lat="48.3824503" lon="-1.9396332">
        <ele>23.242</ele>
        <time>2018-08-17T16:30:23.364Z</time>
      </trkpt>
      <trkpt lat="48.3825537" lon="-1.9396403">
        <ele>24.418</ele>
        <time>2018-08-17T16:30:28.120Z</time>
      </trkpt>
      <trkpt lat="48.3826518" lon="-1.9396763">
        <ele>25.052</ele>
        <time>2018-08-17T16:30:32.514Z</time>
      </trkpt>
      <trkpt lat="48.3827479" lon="-1.9397001">
        <ele>24.197</ele>
        <time>2018-08-17T16:30:37.029Z</time>
      </trkpt>
      <trkpt lat="48.3828542" lon="-1.9397317">
        <ele>22.319</ele>
        <time>2018-08-17T16:30:42.441Z</time>
      </trkpt>
      <trkpt lat="48.3829570" lon="-1.9397748">
        <ele>20.252</ele>
        <time>2018-08-17T16:30:47.382Z</time>
      </trkpt>
      <trkpt lat="48.3830526" lon="-1.9398087">
        <ele>18.429</ele>
        <time>2018-08-17T16:30:51.719Z</time>
      </trkpt>
      <trkpt lat="48.3831592" lon="-1.9398581">
        <ele>17.450</ele>
        <time>2018-08-17T16:30:56.733Z</time>
      </trkpt>
      <trkpt lat="48.3832574" lon="-1.9398888">
        <ele>17.541</ele>
        <time>2018-08-17T16:31:01.243Z</time>
      </trkpt>
      <trkpt lat="48.3833705" lon="-1.9399164">
        <ele>18.001</ele>
        <time>2018-08-17T16:31:06.176Z</time>
      </trkpt>
      <trkpt lat="48.3834848" lon="-1.9399455">
        <ele>18.221</ele>
        <time>2018-08-17T16:31:11.013Z</time>
      </trkpt>
      <trkpt lat="48.3835809" lon="-1.9399541">
        <ele>18.544</ele>
        <time>2018-08-17T16:31:15.232Z</time>
      </trkpt>
      <trkpt lat="48.3836915" lon="-1.9399506">
        <ele>19.388</ele>
        <time>2018-08-17T16:31:20.497Z</time>
      </trkpt>
      <trkpt lat="48.3838002" lon="-1.9399873">
        <ele>20.566</ele>
        <time>2018-08-17T16:31:25.792Z</time>
      </trkpt>
      <trkpt lat="48.3839039" lon="-1.9400374">
        <ele>21.859</ele>
        <time>2018-08-17T16:31:31.000Z</time>
      </trkpt>
      <trkpt lat="48.3839039" lon="-1.9400374">
        <ele>23.063</ele>
        <time>2018-08-17T16:31:52.000Z</time>
      </trkpt>
      <trkpt lat="48.3839039" lon="-1.9400374">
        <ele>23.677</ele>
        <time>2018-08-17T16:35:38.355Z</time>
      </trkpt>
      <trkpt lat="48.3841115" lon="-1.9400498">
        <ele>23.444</ele>
        <time>2018-08-17T16:35:55.945Z</time>
      </trkpt>
      <trkpt lat="48.3842090" lon="-1.9400858">
        <ele>21.969</ele>
        <time>2018-08-17T16:36:00.548Z</time>
      </trkpt>
      <trkpt lat="48.3842957" lon="-1.9401228">
        <ele>19.433</ele>
        <time>2018-08-17T16:36:04.375Z</time>
      </trkpt>
      <trkpt lat="48.3843816" lon="-1.9401754">
        <ele>17.166</ele>
        <time>2018-08-17T16:36:08.323Z</time>
      </trkpt>
      <trkpt lat="48.3844637" lon="-1.9402342">
        <ele>15.899</ele>
        <time>2018-08-17T16:36:12.221Z</time>
      </trkpt>
      <trkpt lat="48.3845484" lon="-1.9403052">
        <ele>15.217</ele>
        <time>2018-08-17T16:36:16.412Z</time>
      </trkpt>
      <trkpt lat="48.3846326" lon="-1.9403787">
        <ele>14.787</ele>
        <time>2018-08-17T16:36:20.716Z</time>
      </trkpt>
      <trkpt lat="48.3847064" lon="-1.9404600">
        <ele>14.419</ele>
        <time>2018-08-17T16:36:24.802Z</time>
      </trkpt>
      <trkpt lat="48.3847870" lon="-1.9405350">
        <ele>13.926</ele>
        <time>2018-08-17T16:36:28.913Z</time>
      </trkpt>
      <trkpt lat="48.3848694" lon="-1.9406169">
        <ele>13.327</ele>
        <time>2018-08-17T16:36:33.194Z</time>
      </trkpt>
      <trkpt lat="48.3849597" lon="-1.9407107">
        <ele>12.873</ele>
        <time>2018-08-17T16:36:37.990Z</time>
      </trkpt>
      <trkpt lat="48.3850357" lon="-1.9408086">
        <ele>12.732</ele>
        <time>2018-08-17T16:36:42.642Z</time>
      </trkpt>
      <trkpt lat="48.3851040" lon="-1.9409081">
        <ele>12.989</ele>
        <time>2018-08-17T16:36:47.337Z</time>
      </trkpt>
      <trkpt lat="48.3851705" lon="-1.9410206">
        <ele>13.897</ele>
        <time>2018-08-17T16:36:52.108Z</time>
      </trkpt>
      <trkpt lat="48.3852352" lon="-1.9411417">
        <ele>15.348</ele>
        <time>2018-08-17T16:36:56.882Z</time>
      </trkpt>
      <trkpt lat="48.3852931" lon="-1.9412821">
        <ele>16.670</ele>
        <time>2018-08-17T16:37:01.566Z</time>
      </trkpt>
      <trkpt lat="48.3853399" lon="-1.9414009">
        <ele>17.430</ele>
        <time>2018-08-17T16:37:05.609Z</time>
      </trkpt>
      <trkpt lat="48.3853900" lon="-1.9415390">
        <ele>17.773</ele>
        <time>2018-08-17T16:37:10.188Z</time>
      </trkpt>
      <trkpt lat="48.3854328" lon="-1.9416814">
        <ele>18.024</ele>
        <time>2018-08-17T16:37:14.200Z</time>
      </trkpt>
      <trkpt lat="48.3854782" lon="-1.9418251">
        <ele>18.480</ele>
        <time>2018-08-17T16:37:18.091Z</time>
      </trkpt>
      <trkpt lat="48.3855214" lon="-1.9419849">
        <ele>19.349</ele>
        <time>2018-08-17T16:37:22.473Z</time>
      </trkpt>
      <trkpt lat="48.3855509" lon="-1.9421259">
        <ele>20.409</ele>
        <time>2018-08-17T16:37:26.313Z</time>
      </trkpt>
      <trkpt lat="48.3855751" lon="-1.9422758">
        <ele>21.079</ele>
        <time>2018-08-17T16:37:30.269Z</time>
      </trkpt>
      <trkpt lat="48.3855943" lon="-1.9424274">
        <ele>20.901</ele>
        <time>2018-08-17T16:37:34.141Z</time>
      </trkpt>
      <trkpt lat="48.3856136" lon="-1.9426005">
        <ele>20.046</ele>
        <time>2018-08-17T16:37:38.495Z</time>
      </trkpt>
      <trkpt lat="48.3856244" lon="-1.9427432">
        <ele>19.098</ele>
        <time>2018-08-17T16:37:42.109Z</time>
      </trkpt>
      <trkpt lat="48.3856032" lon="-1.9428797">
        <ele>18.370</ele>
        <time>2018-08-17T16:37:45.669Z</time>
      </trkpt>
      <trkpt lat="48.3856147" lon="-1.9430365">
        <ele>17.610</ele>
        <time>2018-08-17T16:37:49.730Z</time>
      </trkpt>
      <trkpt lat="48.3856038" lon="-1.9431844">
        <ele>16.708</ele>
        <time>2018-08-17T16:37:53.475Z</time>
      </trkpt>
      <trkpt lat="48.3856064" lon="-1.9433540">
        <ele>16.066</ele>
        <time>2018-08-17T16:37:57.651Z</time>
      </trkpt>
      <trkpt lat="48.3855844" lon="-1.9435125">
        <ele>15.960</ele>
        <time>2018-08-17T16:38:01.590Z</time>
      </trkpt>
      <trkpt lat="48.3855545" lon="-1.9436665">
        <ele>16.127</ele>
        <time>2018-08-17T16:38:05.496Z</time>
      </trkpt>
      <trkpt lat="48.3855325" lon="-1.9438136">
        <ele>16.417</ele>
        <time>2018-08-17T16:38:09.177Z</time>
      </trkpt>
      <trkpt lat="48.3855195" lon="-1.9439606">
        <ele>16.834</ele>
        <time>2018-08-17T16:38:12.797Z</time>
      </trkpt>
      <trkpt lat="48.3854903" lon="-1.9441206">
        <ele>17.199</ele>
        <time>2018-08-17T16:38:16.938Z</time>
      </trkpt>
      <trkpt lat="48.3854557" lon="-1.9442622">
        <ele>17.413</ele>
        <time>2018-08-17T16:38:20.896Z</time>
      </trkpt>
      <trkpt lat="48.3854338" lon="-1.9443955">
        <ele>17.607</ele>
        <time>2018-08-17T16:38:24.595Z</time>
      </trkpt>
      <trkpt lat="48.3854019" lon="-1.9445322">
        <ele>17.860</ele>
        <time>2018-08-17T16:38:28.429Z</time>
      </trkpt>
      <trkpt lat="48.3853732" lon="-1.9446650">
        <ele>18.126</ele>
        <time>2018-08-17T16:38:32.044Z</time>
      </trkpt>
      <trkpt lat="48.3853359" lon="-1.9447926">
        <ele>18.303</ele>
        <time>2018-08-17T16:38:35.735Z</time>
      </trkpt>
      <trkpt lat="48.3853016" lon="-1.9449304">
        <ele>18.348</ele>
        <time>2018-08-17T16:38:39.724Z</time>
      </trkpt>
      <trkpt lat="48.3852694" lon="-1.9450880">
        <ele>18.325</ele>
        <time>2018-08-17T16:38:43.978Z</time>
      </trkpt>
      <trkpt lat="48.3852358" lon="-1.9452288">
        <ele>18.299</ele>
        <time>2018-08-17T16:38:47.748Z</time>
      </trkpt>
      <trkpt lat="48.3852082" lon="-1.9453763">
        <ele>18.140</ele>
        <time>2018-08-17T16:38:51.868Z</time>
      </trkpt>
      <trkpt lat="48.3851643" lon="-1.9455270">
        <ele>17.900</ele>
        <time>2018-08-17T16:38:56.504Z</time>
      </trkpt>
      <trkpt lat="48.3851468" lon="-1.9456696">
        <ele>17.645</ele>
        <time>2018-08-17T16:39:00.372Z</time>
      </trkpt>
      <trkpt lat="48.3851264" lon="-1.9458221">
        <ele>17.246</ele>
        <time>2018-08-17T16:39:04.284Z</time>
      </trkpt>
      <trkpt lat="48.3850851" lon="-1.9459478">
        <ele>16.833</ele>
        <time>2018-08-17T16:39:07.778Z</time>
      </trkpt>
      <trkpt lat="48.3850676" lon="-1.9460923">
        <ele>16.840</ele>
        <time>2018-08-17T16:39:11.503Z</time>
      </trkpt>
      <trkpt lat="48.3850571" lon="-1.9462554">
        <ele>17.272</ele>
        <time>2018-08-17T16:39:15.666Z</time>
      </trkpt>
      <trkpt lat="48.3850432" lon="-1.9463967">
        <ele>17.763</ele>
        <time>2018-08-17T16:39:19.385Z</time>
      </trkpt>
      <trkpt lat="48.3850160" lon="-1.9465357">
        <ele>18.065</ele>
        <time>2018-08-17T16:39:23.386Z</time>
      </trkpt>
      <trkpt lat="48.3849857" lon="-1.9466939">
        <ele>18.533</ele>
        <time>2018-08-17T16:39:27.991Z</time>
      </trkpt>
      <trkpt lat="48.3849395" lon="-1.9468503">
        <ele>19.934</ele>
        <time>2018-08-17T16:39:32.515Z</time>
      </trkpt>
      <trkpt lat="48.3848968" lon="-1.9470024">
        <ele>22.187</ele>
        <time>2018-08-17T16:39:36.706Z</time>
      </trkpt>
      <trkpt lat="48.3848853" lon="-1.9471449">
        <ele>23.912</ele>
        <time>2018-08-17T16:39:40.406Z</time>
      </trkpt>
      <trkpt lat="48.3848732" lon="-1.9473169">
        <ele>24.174</ele>
        <time>2018-08-17T16:39:44.790Z</time>
      </trkpt>
      <trkpt lat="48.3848528" lon="-1.9474717">
        <ele>23.491</ele>
        <time>2018-08-17T16:39:48.632Z</time>
      </trkpt>
      <trkpt lat="48.3848206" lon="-1.9476120">
        <ele>22.774</ele>
        <time>2018-08-17T16:39:52.239Z</time>
      </trkpt>
      <trkpt lat="48.3847933" lon="-1.9477491">
        <ele>22.563</ele>
        <time>2018-08-17T16:39:55.727Z</time>
      </trkpt>
      <trkpt lat="48.3847815" lon="-1.9479093">
        <ele>23.047</ele>
        <time>2018-08-17T16:39:59.876Z</time>
      </trkpt>
      <trkpt lat="48.3847496" lon="-1.9480675">
        <ele>23.994</ele>
        <time>2018-08-17T16:40:04.391Z</time>
      </trkpt>
      <trkpt lat="48.3847078" lon="-1.9482052">
        <ele>24.856</ele>
        <time>2018-08-17T16:40:08.611Z</time>
      </trkpt>
      <trkpt lat="48.3846781" lon="-1.9483404">
        <ele>25.346</ele>
        <time>2018-08-17T16:40:12.478Z</time>
      </trkpt>
      <trkpt lat="48.3846454" lon="-1.9484734">
        <ele>25.555</ele>
        <time>2018-08-17T16:40:16.273Z</time>
      </trkpt>
      <trkpt lat="48.3846154" lon="-1.9486203">
        <ele>25.639</ele>
        <time>2018-08-17T16:40:20.406Z</time>
      </trkpt>
      <trkpt lat="48.3845875" lon="-1.9487542">
        <ele>25.553</ele>
        <time>2018-08-17T16:40:24.159Z</time>
      </trkpt>
      <trkpt lat="48.3845726" lon="-1.9489056">
        <ele>25.234</ele>
        <time>2018-08-17T16:40:28.045Z</time>
      </trkpt>
      <trkpt lat="48.3845556" lon="-1.9490671">
        <ele>25.018</ele>
        <time>2018-08-17T16:40:32.144Z</time>
      </trkpt>
      <trkpt lat="48.3845205" lon="-1.9492205">
        <ele>25.268</ele>
        <time>2018-08-17T16:40:36.165Z</time>
      </trkpt>
      <trkpt lat="48.3844765" lon="-1.9493702">
        <ele>25.845</ele>
        <time>2018-08-17T16:40:40.090Z</time>
      </trkpt>
      <trkpt lat="48.3844547" lon="-1.9495091">
        <ele>26.327</ele>
        <time>2018-08-17T16:40:43.532Z</time>
      </trkpt>
      <trkpt lat="48.3844163" lon="-1.9496509">
        <ele>26.630</ele>
        <time>2018-08-17T16:40:47.322Z</time>
      </trkpt>
      <trkpt lat="48.3843861" lon="-1.9498190">
        <ele>26.931</ele>
        <time>2018-08-17T16:40:51.548Z</time>
      </trkpt>
      <trkpt lat="48.3843641" lon="-1.9499835">
        <ele>27.257</ele>
        <time>2018-08-17T16:40:55.465Z</time>
      </trkpt>
      <trkpt lat="48.3843424" lon="-1.9501253">
        <ele>27.512</ele>
        <time>2018-08-17T16:40:58.937Z</time>
      </trkpt>
      <trkpt lat="48.3843216" lon="-1.9502585">
        <ele>27.589</ele>
        <time>2018-08-17T16:41:02.392Z</time>
      </trkpt>
      <trkpt lat="48.3842901" lon="-1.9504126">
        <ele>27.225</ele>
        <time>2018-08-17T16:41:06.413Z</time>
      </trkpt>
      <trkpt lat="48.3842637" lon="-1.9505832">
        <ele>26.465</ele>
        <time>2018-08-17T16:41:10.657Z</time>
      </trkpt>
      <trkpt lat="48.3842483" lon="-1.9507537">
        <ele>25.800</ele>
        <time>2018-08-17T16:41:14.761Z</time>
      </trkpt>
      <trkpt lat="48.3842360" lon="-1.9509081">
        <ele>25.540</ele>
        <time>2018-08-17T16:41:18.441Z</time>
      </trkpt>
      <trkpt lat="48.3842154" lon="-1.9510683">
        <ele>25.364</ele>
        <time>2018-08-17T16:41:22.412Z</time>
      </trkpt>
      <trkpt lat="48.3841880" lon="-1.9512273">
        <ele>24.848</ele>
        <time>2018-08-17T16:41:26.613Z</time>
      </trkpt>
      <trkpt lat="48.3841612" lon="-1.9513610">
        <ele>23.841</ele>
        <time>2018-08-17T16:41:30.426Z</time>
      </trkpt>
      <trkpt lat="48.3841286" lon="-1.9515052">
        <ele>22.113</ele>
        <time>2018-08-17T16:41:34.612Z</time>
      </trkpt>
      <trkpt lat="48.3841118" lon="-1.9516474">
        <ele>19.794</ele>
        <time>2018-08-17T16:41:38.662Z</time>
      </trkpt>
      <trkpt lat="48.3840837" lon="-1.9517856">
        <ele>17.889</ele>
        <time>2018-08-17T16:41:42.799Z</time>
      </trkpt>
      <trkpt lat="48.3840495" lon="-1.9519395">
        <ele>17.020</ele>
        <time>2018-08-17T16:41:47.356Z</time>
      </trkpt>
      <trkpt lat="48.3840268" lon="-1.9520907">
        <ele>16.888</ele>
        <time>2018-08-17T16:41:51.730Z</time>
      </trkpt>
      <trkpt lat="48.3840022" lon="-1.9522387">
        <ele>17.286</ele>
        <time>2018-08-17T16:41:56.135Z</time>
      </trkpt>
      <trkpt lat="48.3839676" lon="-1.9523658">
        <ele>18.397</ele>
        <time>2018-08-17T16:41:59.952Z</time>
      </trkpt>
      <trkpt lat="48.3839518" lon="-1.9525257">
        <ele>20.101</ele>
        <time>2018-08-17T16:42:04.413Z</time>
      </trkpt>
      <trkpt lat="48.3839374" lon="-1.9526638">
        <ele>21.778</ele>
        <time>2018-08-17T16:42:08.276Z</time>
      </trkpt>
      <trkpt lat="48.3839129" lon="-1.9528032">
        <ele>23.107</ele>
        <time>2018-08-17T16:42:12.485Z</time>
      </trkpt>
      <trkpt lat="48.3838810" lon="-1.9529430">
        <ele>24.154</ele>
        <time>2018-08-17T16:42:17.262Z</time>
      </trkpt>
      <trkpt lat="48.3838552" lon="-1.9530894">
        <ele>24.794</ele>
        <time>2018-08-17T16:42:21.907Z</time>
      </trkpt>
      <trkpt lat="48.3838293" lon="-1.9532299">
        <ele>24.814</ele>
        <time>2018-08-17T16:42:26.318Z</time>
      </trkpt>
      <trkpt lat="48.3838107" lon="-1.9533815">
        <ele>24.338</ele>
        <time>2018-08-17T16:42:31.091Z</time>
      </trkpt>
      <trkpt lat="48.3837751" lon="-1.9535190">
        <ele>23.735</ele>
        <time>2018-08-17T16:42:35.769Z</time>
      </trkpt>
      <trkpt lat="48.3837529" lon="-1.9536684">
        <ele>23.291</ele>
        <time>2018-08-17T16:42:40.470Z</time>
      </trkpt>
      <trkpt lat="48.3837244" lon="-1.9538322">
        <ele>23.118</ele>
        <time>2018-08-17T16:42:45.413Z</time>
      </trkpt>
      <trkpt lat="48.3836971" lon="-1.9539955">
        <ele>23.218</ele>
        <time>2018-08-17T16:42:50.316Z</time>
      </trkpt>
      <trkpt lat="48.3836690" lon="-1.9541444">
        <ele>23.460</ele>
        <time>2018-08-17T16:42:54.828Z</time>
      </trkpt>
      <trkpt lat="48.3836386" lon="-1.9542972">
        <ele>23.731</ele>
        <time>2018-08-17T16:42:59.194Z</time>
      </trkpt>
      <trkpt lat="48.3836093" lon="-1.9544546">
        <ele>23.938</ele>
        <time>2018-08-17T16:43:03.367Z</time>
      </trkpt>
      <trkpt lat="48.3835788" lon="-1.9545968">
        <ele>24.026</ele>
        <time>2018-08-17T16:43:07.177Z</time>
      </trkpt>
      <trkpt lat="48.3835539" lon="-1.9547499">
        <ele>24.029</ele>
        <time>2018-08-17T16:43:11.258Z</time>
      </trkpt>
      <trkpt lat="48.3835315" lon="-1.9548952">
        <ele>24.003</ele>
        <time>2018-08-17T16:43:15.407Z</time>
      </trkpt>
      <trkpt lat="48.3835138" lon="-1.9550521">
        <ele>24.039</ele>
        <time>2018-08-17T16:43:20.388Z</time>
      </trkpt>
      <trkpt lat="48.3834895" lon="-1.9551859">
        <ele>24.304</ele>
        <time>2018-08-17T16:43:24.290Z</time>
      </trkpt>
      <trkpt lat="48.3834600" lon="-1.9553383">
        <ele>24.817</ele>
        <time>2018-08-17T16:43:28.423Z</time>
      </trkpt>
      <trkpt lat="48.3834344" lon="-1.9554714">
        <ele>25.332</ele>
        <time>2018-08-17T16:43:31.894Z</time>
      </trkpt>
      <trkpt lat="48.3834136" lon="-1.9556246">
        <ele>25.463</ele>
        <time>2018-08-17T16:43:35.864Z</time>
      </trkpt>
      <trkpt lat="48.3833925" lon="-1.9557683">
        <ele>24.625</ele>
        <time>2018-08-17T16:43:39.678Z</time>
      </trkpt>
      <trkpt lat="48.3833596" lon="-1.9559181">
        <ele>22.877</ele>
        <time>2018-08-17T16:43:43.643Z</time>
      </trkpt>
      <trkpt lat="48.3833398" lon="-1.9560757">
        <ele>21.642</ele>
        <time>2018-08-17T16:43:47.413Z</time>
      </trkpt>
      <trkpt lat="48.3833269" lon="-1.9562475">
        <ele>21.917</ele>
        <time>2018-08-17T16:43:51.380Z</time>
      </trkpt>
      <trkpt lat="48.3833114" lon="-1.9564063">
        <ele>22.966</ele>
        <time>2018-08-17T16:43:55.136Z</time>
      </trkpt>
      <trkpt lat="48.3832925" lon="-1.9565698">
        <ele>24.192</ele>
        <time>2018-08-17T16:43:59.161Z</time>
      </trkpt>
      <trkpt lat="48.3832823" lon="-1.9567099">
        <ele>25.602</ele>
        <time>2018-08-17T16:44:02.713Z</time>
      </trkpt>
      <trkpt lat="48.3832692" lon="-1.9568712">
        <ele>26.453</ele>
        <time>2018-08-17T16:44:06.915Z</time>
      </trkpt>
      <trkpt lat="48.3832496" lon="-1.9570286">
        <ele>26.018</ele>
        <time>2018-08-17T16:44:11.146Z</time>
      </trkpt>
      <trkpt lat="48.3832380" lon="-1.9571676">
        <ele>24.877</ele>
        <time>2018-08-17T16:44:15.373Z</time>
      </trkpt>
      <trkpt lat="48.3832173" lon="-1.9573171">
        <ele>24.054</ele>
        <time>2018-08-17T16:44:20.452Z</time>
      </trkpt>
      <trkpt lat="48.3832184" lon="-1.9574594">
        <ele>23.893</ele>
        <time>2018-08-17T16:44:25.447Z</time>
      </trkpt>
      <trkpt lat="48.3832159" lon="-1.9575978">
        <ele>24.038</ele>
        <time>2018-08-17T16:44:30.204Z</time>
      </trkpt>
      <trkpt lat="48.3832160" lon="-1.9577385">
        <ele>24.120</ele>
        <time>2018-08-17T16:44:34.814Z</time>
      </trkpt>
      <trkpt lat="48.3832374" lon="-1.9578976">
        <ele>24.140</ele>
        <time>2018-08-17T16:44:40.269Z</time>
      </trkpt>
      <trkpt lat="48.3832534" lon="-1.9580443">
        <ele>24.222</ele>
        <time>2018-08-17T16:44:46.000Z</time>
      </trkpt>
      <trkpt lat="48.3832534" lon="-1.9580443">
        <ele>24.345</ele>
        <time>2018-08-17T16:45:00.000Z</time>
      </trkpt>
      <trkpt lat="48.3832534" lon="-1.9580443">
        <ele>24.412</ele>
        <time>2018-08-17T16:49:06.035Z</time>
      </trkpt>
      <trkpt lat="48.3832487" lon="-1.9583318">
        <ele>24.380</ele>
        <time>2018-08-17T16:49:23.289Z</time>
      </trkpt>
      <trkpt lat="48.3832568" lon="-1.9584775">
        <ele>24.118</ele>
        <time>2018-08-17T16:49:28.608Z</time>
      </trkpt>
      <trkpt lat="48.3832644" lon="-1.9586337">
        <ele>22.737</ele>
        <time>2018-08-17T16:49:33.766Z</time>
      </trkpt>
      <trkpt lat="48.3832788" lon="-1.9588022">
        <ele>20.006</ele>
        <time>2018-08-17T16:49:38.630Z</time>
      </trkpt>
      <trkpt lat="48.3832941" lon="-1.9589513">
        <ele>17.448</ele>
        <time>2018-08-17T16:49:42.663Z</time>
      </trkpt>
      <trkpt lat="48.3833099" lon="-1.9591038">
        <ele>16.104</ele>
        <time>2018-08-17T16:49:46.815Z</time>
      </trkpt>
      <trkpt lat="48.3833364" lon="-1.9592581">
        <ele>15.543</ele>
        <time>2018-08-17T16:49:51.144Z</time>
      </trkpt>
      <trkpt lat="48.3833530" lon="-1.9593978">
        <ele>15.209</ele>
        <time>2018-08-17T16:49:54.958Z</time>
      </trkpt>
      <trkpt lat="48.3833682" lon="-1.9595560">
        <ele>14.820</ele>
        <time>2018-08-17T16:49:59.277Z</time>
      </trkpt>
      <trkpt lat="48.3833789" lon="-1.9596968">
        <ele>14.618</ele>
        <time>2018-08-17T16:50:03.049Z</time>
      </trkpt>
      <trkpt lat="48.3833907" lon="-1.9598333">
        <ele>14.861</ele>
        <time>2018-08-17T16:50:06.640Z</time>
      </trkpt>
      <trkpt lat="48.3834011" lon="-1.9599781">
        <ele>15.181</ele>
        <time>2018-08-17T16:50:10.394Z</time>
      </trkpt>
      <trkpt lat="48.3834097" lon="-1.9601164">
        <ele>15.204</ele>
        <time>2018-08-17T16:50:13.928Z</time>
      </trkpt>
      <trkpt lat="48.3834215" lon="-1.9602772">
        <ele>15.036</ele>
        <time>2018-08-17T16:50:18.021Z</time>
      </trkpt>
      <trkpt lat="48.3834327" lon="-1.9604370">
        <ele>14.993</ele>
        <time>2018-08-17T16:50:22.062Z</time>
      </trkpt>
      <trkpt lat="48.3834410" lon="-1.9605940">
        <ele>15.250</ele>
        <time>2018-08-17T16:50:25.965Z</time>
      </trkpt>
      <trkpt lat="48.3834444" lon="-1.9607431">
        <ele>15.765</ele>
        <time>2018-08-17T16:50:29.645Z</time>
      </trkpt>
      <trkpt lat="48.3834532" lon="-1.9609019">
        <ele>16.332</ele>
        <time>2018-08-17T16:50:33.530Z</time>
      </trkpt>
      <trkpt lat="48.3834685" lon="-1.9610713">
        <ele>16.641</ele>
        <time>2018-08-17T16:50:37.712Z</time>
      </trkpt>
      <trkpt lat="48.3834848" lon="-1.9612253">
        <ele>16.288</ele>
        <time>2018-08-17T16:50:41.653Z</time>
      </trkpt>
      <trkpt lat="48.3834910" lon="-1.9613709">
        <ele>15.178</ele>
        <time>2018-08-17T16:50:45.433Z</time>
      </trkpt>
      <trkpt lat="48.3835003" lon="-1.9615172">
        <ele>13.862</ele>
        <time>2018-08-17T16:50:49.212Z</time>
      </trkpt>
      <trkpt lat="48.3835160" lon="-1.9616696">
        <ele>12.958</ele>
        <time>2018-08-17T16:50:53.094Z</time>
      </trkpt>
      <trkpt lat="48.3835235" lon="-1.9618249">
        <ele>12.540</ele>
        <time>2018-08-17T16:50:57.082Z</time>
      </trkpt>
      <trkpt lat="48.3835296" lon="-1.9619754">
        <ele>12.245</ele>
        <time>2018-08-17T16:51:00.915Z</time>
      </trkpt>
      <trkpt lat="48.3835459" lon="-1.9621368">
        <ele>11.676</ele>
        <time>2018-08-17T16:51:04.853Z</time>
      </trkpt>
      <trkpt lat="48.3835593" lon="-1.9623029">
        <ele>10.913</ele>
        <time>2018-08-17T16:51:08.852Z</time>
      </trkpt>
      <trkpt lat="48.3835759" lon="-1.9624661">
        <ele>10.696</ele>
        <time>2018-08-17T16:51:12.914Z</time>
      </trkpt>
      <trkpt lat="48.3835959" lon="-1.9626168">
        <ele>11.357</ele>
        <time>2018-08-17T16:51:16.762Z</time>
      </trkpt>
      <trkpt lat="48.3836089" lon="-1.9627677">
        <ele>12.282</ele>
        <time>2018-08-17T16:51:20.584Z</time>
      </trkpt>
      <trkpt lat="48.3836182" lon="-1.9629182">
        <ele>12.877</ele>
        <time>2018-08-17T16:51:24.386Z</time>
      </trkpt>
      <trkpt lat="48.3836283" lon="-1.9630690">
        <ele>13.227</ele>
        <time>2018-08-17T16:51:28.250Z</time>
      </trkpt>
      <trkpt lat="48.3836367" lon="-1.9632136">
        <ele>13.578</ele>
        <time>2018-08-17T16:51:31.988Z</time>
      </trkpt>
      <trkpt lat="48.3836477" lon="-1.9633581">
        <ele>13.959</ele>
        <time>2018-08-17T16:51:35.688Z</time>
      </trkpt>
      <trkpt lat="48.3836543" lon="-1.9635140">
        <ele>14.104</ele>
        <time>2018-08-17T16:51:39.601Z</time>
      </trkpt>
      <trkpt lat="48.3836598" lon="-1.9636699">
        <ele>13.844</ele>
        <time>2018-08-17T16:51:43.542Z</time>
      </trkpt>
      <trkpt lat="48.3836566" lon="-1.9638176">
        <ele>13.328</ele>
        <time>2018-08-17T16:51:47.356Z</time>
      </trkpt>
      <trkpt lat="48.3836418" lon="-1.9639671">
        <ele>12.802</ele>
        <time>2018-08-17T16:51:51.215Z</time>
      </trkpt>
      <trkpt lat="48.3836264" lon="-1.9641253">
        <ele>12.435</ele>
        <time>2018-08-17T16:51:55.210Z</time>
      </trkpt>
      <trkpt lat="48.3836168" lon="-1.9642780">
        <ele>12.287</ele>
        <time>2018-08-17T16:51:59.037Z</time>
      </trkpt>
      <trkpt lat="48.3836032" lon="-1.9644280">
        <ele>12.233</ele>
        <time>2018-08-17T16:52:02.983Z</time>
      </trkpt>
      <trkpt lat="48.3835853" lon="-1.9645882">
        <ele>12.102</ele>
        <time>2018-08-17T16:52:07.662Z</time>
      </trkpt>
      <trkpt lat="48.3835671" lon="-1.9647433">
        <ele>11.827</ele>
        <time>2018-08-17T16:52:13.023Z</time>
      </trkpt>
      <trkpt lat="48.3835525" lon="-1.9648950">
        <ele>11.496</ele>
        <time>2018-08-17T16:52:19.491Z</time>
      </trkpt>
      <trkpt lat="48.3835341" lon="-1.9650338">
        <ele>11.318</ele>
        <time>2018-08-17T16:52:26.423Z</time>
      </trkpt>
      <trkpt lat="48.3835098" lon="-1.9651664">
        <ele>11.654</ele>
        <time>2018-08-17T16:52:33.515Z</time>
      </trkpt>
      <trkpt lat="48.3834633" lon="-1.9653393">
        <ele>12.518</ele>
        <time>2018-08-17T16:52:38.648Z</time>
      </trkpt>
      <trkpt lat="48.3834275" lon="-1.9654825">
        <ele>13.279</ele>
        <time>2018-08-17T16:52:40.798Z</time>
      </trkpt>
      <trkpt lat="48.3833592" lon="-1.9657422">
        <ele>13.433</ele>
        <time>2018-08-17T16:52:44.282Z</time>
      </trkpt>
      <trkpt lat="48.3833128" lon="-1.9658834">
        <ele>13.052</ele>
        <time>2018-08-17T16:52:46.223Z</time>
      </trkpt>
      <trkpt lat="48.3832431" lon="-1.9660894">
        <ele>12.409</ele>
        <time>2018-08-17T16:52:49.286Z</time>
      </trkpt>
      <trkpt lat="48.3831979" lon="-1.9662711">
        <ele>11.841</ele>
        <time>2018-08-17T16:52:52.168Z</time>
      </trkpt>
      <trkpt lat="48.3831550" lon="-1.9664307">
        <ele>11.617</ele>
        <time>2018-08-17T16:52:55.000Z</time>
      </trkpt>
      <trkpt lat="48.3831038" lon="-1.9665751">
        <ele>11.722</ele>
        <time>2018-08-17T16:52:58.020Z</time>
      </trkpt>
      <trkpt lat="48.3830732" lon="-1.9667026">
        <ele>11.932</ele>
        <time>2018-08-17T16:53:00.911Z</time>
      </trkpt>
      <trkpt lat="48.3830320" lon="-1.9668538">
        <ele>12.029</ele>
        <time>2018-08-17T16:53:04.764Z</time>
      </trkpt>
      <trkpt lat="48.3829880" lon="-1.9669856">
        <ele>11.776</ele>
        <time>2018-08-17T16:53:08.434Z</time>
      </trkpt>
      <trkpt lat="48.3829450" lon="-1.9671281">
        <ele>11.149</ele>
        <time>2018-08-17T16:53:12.315Z</time>
      </trkpt>
      <trkpt lat="48.3828989" lon="-1.9672713">
        <ele>10.568</ele>
        <time>2018-08-17T16:53:16.233Z</time>
      </trkpt>
      <trkpt lat="48.3828543" lon="-1.9674009">
        <ele>10.422</ele>
        <time>2018-08-17T16:53:19.897Z</time>
      </trkpt>
      <trkpt lat="48.3828163" lon="-1.9675411">
        <ele>10.585</ele>
        <time>2018-08-17T16:53:23.789Z</time>
      </trkpt>
      <trkpt lat="48.3827813" lon="-1.9676904">
        <ele>10.803</ele>
        <time>2018-08-17T16:53:27.814Z</time>
      </trkpt>
      <trkpt lat="48.3827521" lon="-1.9678407">
        <ele>10.970</ele>
        <time>2018-08-17T16:53:31.741Z</time>
      </trkpt>
      <trkpt lat="48.3827111" lon="-1.9679867">
        <ele>11.063</ele>
        <time>2018-08-17T16:53:35.721Z</time>
      </trkpt>
      <trkpt lat="48.3826746" lon="-1.9681394">
        <ele>11.091</ele>
        <time>2018-08-17T16:53:39.747Z</time>
      </trkpt>
      <trkpt lat="48.3826323" lon="-1.9682930">
        <ele>11.109</ele>
        <time>2018-08-17T16:53:43.847Z</time>
      </trkpt>
      <trkpt lat="48.3825873" lon="-1.9684501">
        <ele>11.076</ele>
        <time>2018-08-17T16:53:48.025Z</time>
      </trkpt>
      <trkpt lat="48.3825482" lon="-1.9686159">
        <ele>10.916</ele>
        <time>2018-08-17T16:53:52.222Z</time>
      </trkpt>
      <trkpt lat="48.3825064" lon="-1.9687655">
        <ele>10.567</ele>
        <time>2018-08-17T16:53:56.057Z</time>
      </trkpt>
      <trkpt lat="48.3824635" lon="-1.9689194">
        <ele>10.127</ele>
        <time>2018-08-17T16:53:59.976Z</time>
      </trkpt>
      <trkpt lat="48.3824336" lon="-1.9690793">
        <ele>9.807</ele>
        <time>2018-08-17T16:54:03.834Z</time>
      </trkpt>
      <trkpt lat="48.3823982" lon="-1.9692230">
        <ele>9.649</ele>
        <time>2018-08-17T16:54:07.449Z</time>
      </trkpt>
      <trkpt lat="48.3823551" lon="-1.9693444">
        <ele>9.452</ele>
        <time>2018-08-17T16:54:10.819Z</time>
      </trkpt>
      <trkpt lat="48.3823115" lon="-1.9694988">
        <ele>9.136</ele>
        <time>2018-08-17T16:54:15.078Z</time>
      </trkpt>
      <trkpt lat="48.3822740" lon="-1.9696417">
        <ele>8.853</ele>
        <time>2018-08-17T16:54:19.037Z</time>
      </trkpt>
      <trkpt lat="48.3822316" lon="-1.9697640">
        <ele>8.870</ele>
        <time>2018-08-17T16:54:22.654Z</time>
      </trkpt>
      <trkpt lat="48.3821863" lon="-1.9698876">
        <ele>9.407</ele>
        <time>2018-08-17T16:54:26.387Z</time>
      </trkpt>
      <trkpt lat="48.3821299" lon="-1.9700247">
        <ele>10.276</ele>
        <time>2018-08-17T16:54:30.569Z</time>
      </trkpt>
      <trkpt lat="48.3820867" lon="-1.9701785">
        <ele>10.893</ele>
        <time>2018-08-17T16:54:34.769Z</time>
      </trkpt>
      <trkpt lat="48.3820445" lon="-1.9703212">
        <ele>11.002</ele>
        <time>2018-08-17T16:54:38.665Z</time>
      </trkpt>
      <trkpt lat="48.3819959" lon="-1.9704539">
        <ele>10.948</ele>
        <time>2018-08-17T16:54:42.516Z</time>
      </trkpt>
      <trkpt lat="48.3819445" lon="-1.9705711">
        <ele>11.149</ele>
        <time>2018-08-17T16:54:46.200Z</time>
      </trkpt>
      <trkpt lat="48.3819055" lon="-1.9707252">
        <ele>11.583</ele>
        <time>2018-08-17T16:54:50.801Z</time>
      </trkpt>
      <trkpt lat="48.3818692" lon="-1.9708765">
        <ele>11.946</ele>
        <time>2018-08-17T16:54:55.344Z</time>
      </trkpt>
      <trkpt lat="48.3818372" lon="-1.9710253">
        <ele>12.264</ele>
        <time>2018-08-17T16:54:59.526Z</time>
      </trkpt>
      <trkpt lat="48.3818009" lon="-1.9711725">
        <ele>12.770</ele>
        <time>2018-08-17T16:55:03.647Z</time>
      </trkpt>
      <trkpt lat="48.3817571" lon="-1.9713314">
        <ele>13.370</ele>
        <time>2018-08-17T16:55:07.973Z</time>
      </trkpt>
      <trkpt lat="48.3817116" lon="-1.9714927">
        <ele>13.799</ele>
        <time>2018-08-17T16:55:12.121Z</time>
      </trkpt>
      <trkpt lat="48.3816700" lon="-1.9716340">
        <ele>13.616</ele>
        <time>2018-08-17T16:55:15.801Z</time>
      </trkpt>
      <trkpt lat="48.3816517" lon="-1.9717811">
        <ele>12.593</ele>
        <time>2018-08-17T16:55:19.526Z</time>
      </trkpt>
      <trkpt lat="48.3816464" lon="-1.9719270">
        <ele>11.267</ele>
        <time>2018-08-17T16:55:23.344Z</time>
      </trkpt>
      <trkpt lat="48.3816384" lon="-1.9720704">
        <ele>9.930</ele>
        <time>2018-08-17T16:55:27.215Z</time>
      </trkpt>
      <trkpt lat="48.3816365" lon="-1.9722199">
        <ele>8.431</ele>
        <time>2018-08-17T16:55:31.253Z</time>
      </trkpt>
      <trkpt lat="48.3816387" lon="-1.9723723">
        <ele>7.170</ele>
        <time>2018-08-17T16:55:35.320Z</time>
      </trkpt>
      <trkpt lat="48.3816373" lon="-1.9725167">
        <ele>6.501</ele>
        <time>2018-08-17T16:55:39.211Z</time>
      </trkpt>
      <trkpt lat="48.3816424" lon="-1.9726771">
        <ele>6.279</ele>
        <time>2018-08-17T16:55:43.604Z</time>
      </trkpt>
      <trkpt lat="48.3816455" lon="-1.9728150">
        <ele>6.353</ele>
        <time>2018-08-17T16:55:47.425Z</time>
      </trkpt>
      <trkpt lat="48.3816490" lon="-1.9729528">
        <ele>6.696</ele>
        <time>2018-08-17T16:55:51.474Z</time>
      </trkpt>
      <trkpt lat="48.3816609" lon="-1.9730882">
        <ele>7.223</ele>
        <time>2018-08-17T16:55:55.645Z</time>
      </trkpt>
      <trkpt lat="48.3816718" lon="-1.9732293">
        <ele>7.755</ele>
        <time>2018-08-17T16:55:59.885Z</time>
      </trkpt>
      <trkpt lat="48.3816846" lon="-1.9733666">
        <ele>8.242</ele>
        <time>2018-08-17T16:56:03.836Z</time>
      </trkpt>
      <trkpt lat="48.3817101" lon="-1.9735063">
        <ele>8.835</ele>
        <time>2018-08-17T16:56:07.923Z</time>
      </trkpt>
      <trkpt lat="48.3817372" lon="-1.9736437">
        <ele>9.550</ele>
        <time>2018-08-17T16:56:11.965Z</time>
      </trkpt>
      <trkpt lat="48.3817650" lon="-1.9737730">
        <ele>10.389</ele>
        <time>2018-08-17T16:56:15.860Z</time>
      </trkpt>
      <trkpt lat="48.3818005" lon="-1.9739090">
        <ele>11.265</ele>
        <time>2018-08-17T16:56:20.222Z</time>
      </trkpt>
      <trkpt lat="48.3818476" lon="-1.9740655">
        <ele>12.506</ele>
        <time>2018-08-17T16:56:25.372Z</time>
      </trkpt>
      <trkpt lat="48.3818904" lon="-1.9741925">
        <ele>14.540</ele>
        <time>2018-08-17T16:56:29.540Z</time>
      </trkpt>
      <trkpt lat="48.3819414" lon="-1.9743355">
        <ele>16.701</ele>
        <time>2018-08-17T16:56:34.211Z</time>
      </trkpt>
      <trkpt lat="48.3819935" lon="-1.9744712">
        <ele>17.610</ele>
        <time>2018-08-17T16:56:38.651Z</time>
      </trkpt>
      <trkpt lat="48.3820382" lon="-1.9746020">
        <ele>16.999</ele>
        <time>2018-08-17T16:56:42.825Z</time>
      </trkpt>
      <trkpt lat="48.3820908" lon="-1.9747351">
        <ele>15.820</ele>
        <time>2018-08-17T16:56:47.203Z</time>
      </trkpt>
      <trkpt lat="48.3821314" lon="-1.9748927">
        <ele>15.024</ele>
        <time>2018-08-17T16:56:51.810Z</time>
      </trkpt>
      <trkpt lat="48.3821759" lon="-1.9750350">
        <ele>14.676</ele>
        <time>2018-08-17T16:56:56.199Z</time>
      </trkpt>
      <trkpt lat="48.3822216" lon="-1.9751687">
        <ele>14.580</ele>
        <time>2018-08-17T16:57:00.850Z</time>
      </trkpt>
      <trkpt lat="48.3822626" lon="-1.9752938">
        <ele>15.013</ele>
        <time>2018-08-17T16:57:05.433Z</time>
      </trkpt>
      <trkpt lat="48.3823133" lon="-1.9754467">
        <ele>16.078</ele>
        <time>2018-08-17T16:57:10.834Z</time>
      </trkpt>
      <trkpt lat="48.3823585" lon="-1.9755695">
        <ele>16.965</ele>
        <time>2018-08-17T16:57:15.025Z</time>
      </trkpt>
      <trkpt lat="48.3823962" lon="-1.9756945">
        <ele>16.945</ele>
        <time>2018-08-17T16:57:19.137Z</time>
      </trkpt>
      <trkpt lat="48.3824288" lon="-1.9758356">
        <ele>16.285</ele>
        <time>2018-08-17T16:57:23.474Z</time>
      </trkpt>
      <trkpt lat="48.3824904" lon="-1.9759671">
        <ele>15.788</ele>
        <time>2018-08-17T16:57:27.903Z</time>
      </trkpt>
      <trkpt lat="48.3825433" lon="-1.9760908">
        <ele>15.921</ele>
        <time>2018-08-17T16:57:31.955Z</time>
      </trkpt>
      <trkpt lat="48.3825912" lon="-1.9762280">
        <ele>16.357</ele>
        <time>2018-08-17T16:57:36.258Z</time>
      </trkpt>
      <trkpt lat="48.3826356" lon="-1.9763798">
        <ele>16.425</ele>
        <time>2018-08-17T16:57:40.761Z</time>
      </trkpt>
      <trkpt lat="48.3826929" lon="-1.9765153">
        <ele>15.982</ele>
        <time>2018-08-17T16:57:45.018Z</time>
      </trkpt>
      <trkpt lat="48.3827386" lon="-1.9766459">
        <ele>15.467</ele>
        <time>2018-08-17T16:57:48.918Z</time>
      </trkpt>
      <trkpt lat="48.3827759" lon="-1.9767712">
        <ele>15.114</ele>
        <time>2018-08-17T16:57:52.623Z</time>
      </trkpt>
      <trkpt lat="48.3828200" lon="-1.9768908">
        <ele>14.813</ele>
        <time>2018-08-17T16:57:56.441Z</time>
      </trkpt>
      <trkpt lat="48.3828729" lon="-1.9770308">
        <ele>14.550</ele>
        <time>2018-08-17T16:58:01.063Z</time>
      </trkpt>
      <trkpt lat="48.3829168" lon="-1.9771665">
        <ele>14.319</ele>
        <time>2018-08-17T16:58:05.252Z</time>
      </trkpt>
      <trkpt lat="48.3829755" lon="-1.9773114">
        <ele>13.808</ele>
        <time>2018-08-17T16:58:09.644Z</time>
      </trkpt>
      <trkpt lat="48.3830258" lon="-1.9774357">
        <ele>12.770</ele>
        <time>2018-08-17T16:58:13.533Z</time>
      </trkpt>
      <trkpt lat="48.3830690" lon="-1.9775650">
        <ele>11.345</ele>
        <time>2018-08-17T16:58:17.519Z</time>
      </trkpt>
      <trkpt lat="48.3831101" lon="-1.9776914">
        <ele>10.158</ele>
        <time>2018-08-17T16:58:21.319Z</time>
      </trkpt>
      <trkpt lat="48.3831540" lon="-1.9778470">
        <ele>9.770</ele>
        <time>2018-08-17T16:58:25.900Z</time>
      </trkpt>
      <trkpt lat="48.3831914" lon="-1.9779722">
        <ele>10.034</ele>
        <time>2018-08-17T16:58:29.764Z</time>
      </trkpt>
      <trkpt lat="48.3832308" lon="-1.9780972">
        <ele>10.519</ele>
        <time>2018-08-17T16:58:33.747Z</time>
      </trkpt>
      <trkpt lat="48.3832693" lon="-1.9782233">
        <ele>11.109</ele>
        <time>2018-08-17T16:58:37.760Z</time>
      </trkpt>
      <trkpt lat="48.3833021" lon="-1.9783508">
        <ele>11.755</ele>
        <time>2018-08-17T16:58:41.721Z</time>
      </trkpt>
      <trkpt lat="48.3833498" lon="-1.9784811">
        <ele>12.461</ele>
        <time>2018-08-17T16:58:45.961Z</time>
      </trkpt>
      <trkpt lat="48.3834055" lon="-1.9786073">
        <ele>13.246</ele>
        <time>2018-08-17T16:58:50.198Z</time>
      </trkpt>
      <trkpt lat="48.3834796" lon="-1.9787161">
        <ele>13.954</ele>
        <time>2018-08-17T16:58:54.548Z</time>
      </trkpt>
      <trkpt lat="48.3835007" lon="-1.9788588">
        <ele>14.405</ele>
        <time>2018-08-17T16:58:58.655Z</time>
      </trkpt>
      <trkpt lat="48.3835507" lon="-1.9789963">
        <ele>14.606</ele>
        <time>2018-08-17T16:59:02.932Z</time>
      </trkpt>
      <trkpt lat="48.3836058" lon="-1.9791214">
        <ele>14.667</ele>
        <time>2018-08-17T16:59:07.005Z</time>
      </trkpt>
      <trkpt lat="48.3836644" lon="-1.9792554">
        <ele>14.659</ele>
        <time>2018-08-17T16:59:11.499Z</time>
      </trkpt>
      <trkpt lat="48.3837066" lon="-1.9794026">
        <ele>14.597</ele>
        <time>2018-08-17T16:59:16.073Z</time>
      </trkpt>
      <trkpt lat="48.3837556" lon="-1.9795548">
        <ele>14.445</ele>
        <time>2018-08-17T16:59:20.958Z</time>
      </trkpt>
      <trkpt lat="48.3837935" lon="-1.9797111">
        <ele>14.185</ele>
        <time>2018-08-17T16:59:25.917Z</time>
      </trkpt>
      <trkpt lat="48.3838317" lon="-1.9798368">
        <ele>13.781</ele>
        <time>2018-08-17T16:59:30.011Z</time>
      </trkpt>
      <trkpt lat="48.3838696" lon="-1.9799603">
        <ele>13.401</ele>
        <time>2018-08-17T16:59:33.997Z</time>
      </trkpt>
      <trkpt lat="48.3839236" lon="-1.9801040">
        <ele>13.415</ele>
        <time>2018-08-17T16:59:38.822Z</time>
      </trkpt>
      <trkpt lat="48.3839756" lon="-1.9802272">
        <ele>13.820</ele>
        <time>2018-08-17T16:59:42.958Z</time>
      </trkpt>
      <trkpt lat="48.3840259" lon="-1.9803555">
        <ele>14.249</ele>
        <time>2018-08-17T16:59:47.101Z</time>
      </trkpt>
      <trkpt lat="48.3840703" lon="-1.9804871">
        <ele>14.552</ele>
        <time>2018-08-17T16:59:51.478Z</time>
      </trkpt>
      <trkpt lat="48.3841077" lon="-1.9806440">
        <ele>14.759</ele>
        <time>2018-08-17T16:59:56.900Z</time>
      </trkpt>
      <trkpt lat="48.3841517" lon="-1.9807841">
        <ele>14.834</ele>
        <time>2018-08-17T17:00:02.431Z</time>
      </trkpt>
      <trkpt lat="48.3842264" lon="-1.9808755">
        <ele>14.764</ele>
        <time>2018-08-17T17:00:08.999Z</time>
      </trkpt>
      <trkpt lat="48.3842264" lon="-1.9808755">
        <ele>14.674</ele>
        <time>2018-08-17T17:00:19.999Z</time>
      </trkpt>
      <trkpt lat="48.3842264" lon="-1.9808755">
        <ele>14.666</ele>
        <time>2018-08-17T17:00:28.388Z</time>
      </trkpt>
      <trkpt lat="48.3842814" lon="-1.9812626">
        <ele>14.707</ele>
        <time>2018-08-17T17:00:44.074Z</time>
      </trkpt>
      <trkpt lat="48.3843341" lon="-1.9814309">
        <ele>14.727</ele>
        <time>2018-08-17T17:00:46.737Z</time>
      </trkpt>
      <trkpt lat="48.3843880" lon="-1.9815749">
        <ele>14.341</ele>
        <time>2018-08-17T17:00:48.926Z</time>
      </trkpt>
      <trkpt lat="48.3844642" lon="-1.9817862">
        <ele>13.353</ele>
        <time>2018-08-17T17:00:52.159Z</time>
      </trkpt>
      <trkpt lat="48.3845163" lon="-1.9819133">
        <ele>12.364</ele>
        <time>2018-08-17T17:00:54.325Z</time>
      </trkpt>
      <trkpt lat="48.3845850" lon="-1.9821028">
        <ele>11.995</ele>
        <time>2018-08-17T17:00:57.751Z</time>
      </trkpt>
      <trkpt lat="48.3846348" lon="-1.9822666">
        <ele>12.209</ele>
        <time>2018-08-17T17:01:00.923Z</time>
      </trkpt>
      <trkpt lat="48.3846716" lon="-1.9824361">
        <ele>12.702</ele>
        <time>2018-08-17T17:01:04.418Z</time>
      </trkpt>
      <trkpt lat="48.3847027" lon="-1.9825674">
        <ele>13.159</ele>
        <time>2018-08-17T17:01:07.317Z</time>
      </trkpt>
      <trkpt lat="48.3847345" lon="-1.9827339">
        <ele>13.451</ele>
        <time>2018-08-17T17:01:11.055Z</time>
      </trkpt>
      <trkpt lat="48.3847501" lon="-1.9829111">
        <ele>13.601</ele>
        <time>2018-08-17T17:01:14.983Z</time>
      </trkpt>
      <trkpt lat="48.3847563" lon="-1.9830859">
        <ele>13.740</ele>
        <time>2018-08-17T17:01:18.898Z</time>
      </trkpt>
      <trkpt lat="48.3847557" lon="-1.9832626">
        <ele>13.957</ele>
        <time>2018-08-17T17:01:22.753Z</time>
      </trkpt>
      <trkpt lat="48.3847521" lon="-1.9834021">
        <ele>14.161</ele>
        <time>2018-08-17T17:01:25.812Z</time>
      </trkpt>
      <trkpt lat="48.3847430" lon="-1.9835398">
        <ele>14.298</ele>
        <time>2018-08-17T17:01:28.902Z</time>
      </trkpt>
      <trkpt lat="48.3847181" lon="-1.9837139">
        <ele>14.427</ele>
        <time>2018-08-17T17:01:32.980Z</time>
      </trkpt>
      <trkpt lat="48.3846849" lon="-1.9838734">
        <ele>14.649</ele>
        <time>2018-08-17T17:01:36.901Z</time>
      </trkpt>
      <trkpt lat="48.3846381" lon="-1.9840207">
        <ele>14.996</ele>
        <time>2018-08-17T17:01:40.830Z</time>
      </trkpt>
      <trkpt lat="48.3845934" lon="-1.9841522">
        <ele>15.311</ele>
        <time>2018-08-17T17:01:44.368Z</time>
      </trkpt>
      <trkpt lat="48.3845403" lon="-1.9843060">
        <ele>15.427</ele>
        <time>2018-08-17T17:01:48.383Z</time>
      </trkpt>
      <trkpt lat="48.3844866" lon="-1.9844146">
        <ele>14.918</ele>
        <time>2018-08-17T17:01:51.589Z</time>
      </trkpt>
      <trkpt lat="48.3844274" lon="-1.9845482">
        <ele>13.381</ele>
        <time>2018-08-17T17:01:55.618Z</time>
      </trkpt>
      <trkpt lat="48.3843570" lon="-1.9846689">
        <ele>11.471</ele>
        <time>2018-08-17T17:01:59.894Z</time>
      </trkpt>
      <trkpt lat="48.3842832" lon="-1.9847814">
        <ele>10.386</ele>
        <time>2018-08-17T17:02:03.946Z</time>
      </trkpt>
      <trkpt lat="48.3842231" lon="-1.9848873">
        <ele>10.610</ele>
        <time>2018-08-17T17:02:07.219Z</time>
      </trkpt>
      <trkpt lat="48.3841449" lon="-1.9849815">
        <ele>11.643</ele>
        <time>2018-08-17T17:02:10.580Z</time>
      </trkpt>
      <trkpt lat="48.3840657" lon="-1.9850661">
        <ele>12.576</ele>
        <time>2018-08-17T17:02:13.776Z</time>
      </trkpt>
      <trkpt lat="48.3839901" lon="-1.9851424">
        <ele>12.990</ele>
        <time>2018-08-17T17:02:16.770Z</time>
      </trkpt>
      <trkpt lat="48.3839220" lon="-1.9852439">
        <ele>13.049</ele>
        <time>2018-08-17T17:02:19.955Z</time>
      </trkpt>
      <trkpt lat="48.3838236" lon="-1.9853266">
        <ele>12.852</ele>
        <time>2018-08-17T17:02:23.786Z</time>
      </trkpt>
      <trkpt lat="48.3837285" lon="-1.9854269">
        <ele>12.446</ele>
        <time>2018-08-17T17:02:27.766Z</time>
      </trkpt>
      <trkpt lat="48.3836288" lon="-1.9855218">
        <ele>12.167</ele>
        <time>2018-08-17T17:02:31.809Z</time>
      </trkpt>
      <trkpt lat="48.3835582" lon="-1.9856082">
        <ele>12.260</ele>
        <time>2018-08-17T17:02:34.946Z</time>
      </trkpt>
      <trkpt lat="48.3834695" lon="-1.9857149">
        <ele>12.427</ele>
        <time>2018-08-17T17:02:38.871Z</time>
      </trkpt>
      <trkpt lat="48.3834015" lon="-1.9858071">
        <ele>12.366</ele>
        <time>2018-08-17T17:02:42.049Z</time>
      </trkpt>
      <trkpt lat="48.3833371" lon="-1.9859020">
        <ele>12.024</ele>
        <time>2018-08-17T17:02:45.233Z</time>
      </trkpt>
      <trkpt lat="48.3832571" lon="-1.9860053">
        <ele>11.483</ele>
        <time>2018-08-17T17:02:49.057Z</time>
      </trkpt>
      <trkpt lat="48.3831707" lon="-1.9860896">
        <ele>11.012</ele>
        <time>2018-08-17T17:02:52.908Z</time>
      </trkpt>
      <trkpt lat="48.3830893" lon="-1.9861795">
        <ele>10.819</ele>
        <time>2018-08-17T17:02:56.751Z</time>
      </trkpt>
      <trkpt lat="48.3830015" lon="-1.9862812">
        <ele>11.148</ele>
        <time>2018-08-17T17:03:00.993Z</time>
      </trkpt>
      <trkpt lat="48.3829231" lon="-1.9863768">
        <ele>12.172</ele>
        <time>2018-08-17T17:03:04.896Z</time>
      </trkpt>
      <trkpt lat="48.3828472" lon="-1.9864812">
        <ele>13.405</ele>
        <time>2018-08-17T17:03:08.982Z</time>
      </trkpt>
      <trkpt lat="48.3827709" lon="-1.9865827">
        <ele>14.170</ele>
        <time>2018-08-17T17:03:13.914Z</time>
      </trkpt>
      <trkpt lat="48.3827112" lon="-1.9867069">
        <ele>14.398</ele>
        <time>2018-08-17T17:03:19.732Z</time>
      </trkpt>
      <trkpt lat="48.3826844" lon="-1.9868612">
        <ele>14.548</ele>
        <time>2018-08-17T17:03:26.566Z</time>
      </trkpt>
      <trkpt lat="48.3826637" lon="-1.9870178">
        <ele>15.011</ele>
        <time>2018-08-17T17:03:32.959Z</time>
      </trkpt>
      <trkpt lat="48.3826050" lon="-1.9871481">
        <ele>15.952</ele>
        <time>2018-08-17T17:03:38.341Z</time>
      </trkpt>
      <trkpt lat="48.3825356" lon="-1.9872492">
        <ele>17.218</ele>
        <time>2018-08-17T17:03:42.611Z</time>
      </trkpt>
      <trkpt lat="48.3824544" lon="-1.9873327">
        <ele>18.016</ele>
        <time>2018-08-17T17:03:46.425Z</time>
      </trkpt>
      <trkpt lat="48.3823518" lon="-1.9874329">
        <ele>17.590</ele>
        <time>2018-08-17T17:03:50.380Z</time>
      </trkpt>
      <trkpt lat="48.3822744" lon="-1.9875579">
        <ele>16.089</ele>
        <time>2018-08-17T17:03:53.605Z</time>
      </trkpt>
      <trkpt lat="48.3822169" lon="-1.9877207">
        <ele>14.262</ele>
        <time>2018-08-17T17:03:56.846Z</time>
      </trkpt>
      <trkpt lat="48.3821728" lon="-1.9878883">
        <ele>12.912</ele>
        <time>2018-08-17T17:03:59.952Z</time>
      </trkpt>
      <trkpt lat="48.3821377" lon="-1.9880543">
        <ele>12.402</ele>
        <time>2018-08-17T17:04:03.035Z</time>
      </trkpt>
      <trkpt lat="48.3821106" lon="-1.9882069">
        <ele>12.584</ele>
        <time>2018-08-17T17:04:06.053Z</time>
      </trkpt>
      <trkpt lat="48.3820859" lon="-1.9883481">
        <ele>13.059</ele>
        <time>2018-08-17T17:04:09.050Z</time>
      </trkpt>
      <trkpt lat="48.3820535" lon="-1.9885062">
        <ele>13.422</ele>
        <time>2018-08-17T17:04:12.784Z</time>
      </trkpt>
      <trkpt lat="48.3820351" lon="-1.9886615">
        <ele>13.517</ele>
        <time>2018-08-17T17:04:16.575Z</time>
      </trkpt>
      <trkpt lat="48.3820227" lon="-1.9888307">
        <ele>13.359</ele>
        <time>2018-08-17T17:04:20.814Z</time>
      </trkpt>
      <trkpt lat="48.3820127" lon="-1.9889820">
        <ele>12.890</ele>
        <time>2018-08-17T17:04:24.679Z</time>
      </trkpt>
      <trkpt lat="48.3820085" lon="-1.9891376">
        <ele>12.143</ele>
        <time>2018-08-17T17:04:28.647Z</time>
      </trkpt>
      <trkpt lat="48.3820015" lon="-1.9892965">
        <ele>11.442</ele>
        <time>2018-08-17T17:04:32.657Z</time>
      </trkpt>
      <trkpt lat="48.3819903" lon="-1.9894596">
        <ele>11.073</ele>
        <time>2018-08-17T17:04:36.703Z</time>
      </trkpt>
      <trkpt lat="48.3819879" lon="-1.9896325">
        <ele>11.136</ele>
        <time>2018-08-17T17:04:40.947Z</time>
      </trkpt>
      <trkpt lat="48.3819880" lon="-1.9897950">
        <ele>11.543</ele>
        <time>2018-08-17T17:04:45.006Z</time>
      </trkpt>
      <trkpt lat="48.3820025" lon="-1.9899499">
        <ele>12.006</ele>
        <time>2018-08-17T17:04:49.014Z</time>
      </trkpt>
      <trkpt lat="48.3820156" lon="-1.9900946">
        <ele>12.301</ele>
        <time>2018-08-17T17:04:52.858Z</time>
      </trkpt>
      <trkpt lat="48.3820315" lon="-1.9902281">
        <ele>12.438</ele>
        <time>2018-08-17T17:04:56.474Z</time>
      </trkpt>
      <trkpt lat="48.3820533" lon="-1.9903735">
        <ele>12.554</ele>
        <time>2018-08-17T17:05:00.384Z</time>
      </trkpt>
      <trkpt lat="48.3820836" lon="-1.9905288">
        <ele>12.737</ele>
        <time>2018-08-17T17:05:04.587Z</time>
      </trkpt>
      <trkpt lat="48.3821185" lon="-1.9906647">
        <ele>12.854</ele>
        <time>2018-08-17T17:05:08.418Z</time>
      </trkpt>
      <trkpt lat="48.3821591" lon="-1.9908004">
        <ele>12.795</ele>
        <time>2018-08-17T17:05:12.367Z</time>
      </trkpt>
      <trkpt lat="48.3821983" lon="-1.9909304">
        <ele>12.859</ele>
        <time>2018-08-17T17:05:16.139Z</time>
      </trkpt>
      <trkpt lat="48.3822392" lon="-1.9910748">
        <ele>13.383</ele>
        <time>2018-08-17T17:05:20.194Z</time>
      </trkpt>
      <trkpt lat="48.3822879" lon="-1.9912217">
        <ele>14.143</ele>
        <time>2018-08-17T17:05:24.358Z</time>
      </trkpt>
      <trkpt lat="48.3823402" lon="-1.9913543">
        <ele>14.613</ele>
        <time>2018-08-17T17:05:28.316Z</time>
      </trkpt>
      <trkpt lat="48.3823931" lon="-1.9914757">
        <ele>14.631</ele>
        <time>2018-08-17T17:05:32.130Z</time>
      </trkpt>
      <trkpt lat="48.3824522" lon="-1.9915995">
        <ele>14.423</ele>
        <time>2018-08-17T17:05:36.170Z</time>
      </trkpt>
      <trkpt lat="48.3825114" lon="-1.9917244">
        <ele>14.243</ele>
        <time>2018-08-17T17:05:40.245Z</time>
      </trkpt>
      <trkpt lat="48.3825633" lon="-1.9918424">
        <ele>14.161</ele>
        <time>2018-08-17T17:05:43.995Z</time>
      </trkpt>
      <trkpt lat="48.3826314" lon="-1.9919688">
        <ele>14.073</ele>
        <time>2018-08-17T17:05:48.220Z</time>
      </trkpt>
      <trkpt lat="48.3827098" lon="-1.9920832">
        <ele>13.765</ele>
        <time>2018-08-17T17:05:52.425Z</time>
      </trkpt>
      <trkpt lat="48.3827790" lon="-1.9921920">
        <ele>13.233</ele>
        <time>2018-08-17T17:05:56.295Z</time>
      </trkpt>
      <trkpt lat="48.3828509" lon="-1.9922966">
        <ele>13.133</ele>
        <time>2018-08-17T17:06:00.245Z</time>
      </trkpt>
      <trkpt lat="48.3829188" lon="-1.9923884">
        <ele>13.874</ele>
        <time>2018-08-17T17:06:03.944Z</time>
      </trkpt>
      <trkpt lat="48.3829914" lon="-1.9924856">
        <ele>14.821</ele>
        <time>2018-08-17T17:06:07.919Z</time>
      </trkpt>
      <trkpt lat="48.3830637" lon="-1.9925927">
        <ele>15.435</ele>
        <time>2018-08-17T17:06:11.986Z</time>
      </trkpt>
      <trkpt lat="48.3831388" lon="-1.9927008">
        <ele>15.795</ele>
        <time>2018-08-17T17:06:16.096Z</time>
      </trkpt>
      <trkpt lat="48.3832046" lon="-1.9928051">
        <ele>15.928</ele>
        <time>2018-08-17T17:06:19.995Z</time>
      </trkpt>
      <trkpt lat="48.3832854" lon="-1.9929170">
        <ele>15.848</ele>
        <time>2018-08-17T17:06:24.626Z</time>
      </trkpt>
      <trkpt lat="48.3833530" lon="-1.9930131">
        <ele>15.692</ele>
        <time>2018-08-17T17:06:28.625Z</time>
      </trkpt>
      <trkpt lat="48.3834228" lon="-1.9931060">
        <ele>15.566</ele>
        <time>2018-08-17T17:06:32.655Z</time>
      </trkpt>
      <trkpt lat="48.3835108" lon="-1.9932068">
        <ele>15.590</ele>
        <time>2018-08-17T17:06:37.477Z</time>
      </trkpt>
      <trkpt lat="48.3835932" lon="-1.9933229">
        <ele>15.717</ele>
        <time>2018-08-17T17:06:42.299Z</time>
      </trkpt>
      <trkpt lat="48.3836782" lon="-1.9934343">
        <ele>15.763</ele>
        <time>2018-08-17T17:06:46.813Z</time>
      </trkpt>
      <trkpt lat="48.3837479" lon="-1.9935535">
        <ele>15.593</ele>
        <time>2018-08-17T17:06:50.893Z</time>
      </trkpt>
      <trkpt lat="48.3838267" lon="-1.9936635">
        <ele>15.228</ele>
        <time>2018-08-17T17:06:55.024Z</time>
      </trkpt>
      <trkpt lat="48.3839041" lon="-1.9937669">
        <ele>14.841</ele>
        <time>2018-08-17T17:06:58.948Z</time>
      </trkpt>
      <trkpt lat="48.3839873" lon="-1.9938761">
        <ele>14.769</ele>
        <time>2018-08-17T17:07:03.229Z</time>
      </trkpt>
      <trkpt lat="48.3840571" lon="-1.9939887">
        <ele>15.134</ele>
        <time>2018-08-17T17:07:07.339Z</time>
      </trkpt>
      <trkpt lat="48.3841299" lon="-1.9941119">
        <ele>15.608</ele>
        <time>2018-08-17T17:07:11.712Z</time>
      </trkpt>
      <trkpt lat="48.3842166" lon="-1.9942102">
        <ele>15.850</ele>
        <time>2018-08-17T17:07:15.911Z</time>
      </trkpt>
      <trkpt lat="48.3842973" lon="-1.9943156">
        <ele>15.900</ele>
        <time>2018-08-17T17:07:19.997Z</time>
      </trkpt>
      <trkpt lat="48.3843707" lon="-1.9944184">
        <ele>15.938</ele>
        <time>2018-08-17T17:07:23.965Z</time>
      </trkpt>
      <trkpt lat="48.3844530" lon="-1.9945115">
        <ele>16.047</ele>
        <time>2018-08-17T17:07:28.288Z</time>
      </trkpt>
      <trkpt lat="48.3845276" lon="-1.9945888">
        <ele>16.182</ele>
        <time>2018-08-17T17:07:32.339Z</time>
      </trkpt>
      <trkpt lat="48.3845865" lon="-1.9946941">
        <ele>16.258</ele>
        <time>2018-08-17T17:07:36.353Z</time>
      </trkpt>
      <trkpt lat="48.3846596" lon="-1.9948119">
        <ele>16.275</ele>
        <time>2018-08-17T17:07:40.764Z</time>
      </trkpt>
      <trkpt lat="48.3847304" lon="-1.9949246">
        <ele>16.405</ele>
        <time>2018-08-17T17:07:44.829Z</time>
      </trkpt>
      <trkpt lat="48.3847972" lon="-1.9950397">
        <ele>16.791</ele>
        <time>2018-08-17T17:07:48.818Z</time>
      </trkpt>
      <trkpt lat="48.3848633" lon="-1.9951409">
        <ele>17.254</ele>
        <time>2018-08-17T17:07:52.602Z</time>
      </trkpt>
      <trkpt lat="48.3849342" lon="-1.9952302">
        <ele>17.626</ele>
        <time>2018-08-17T17:07:56.382Z</time>
      </trkpt>
      <trkpt lat="48.3850097" lon="-1.9953286">
        <ele>17.853</ele>
        <time>2018-08-17T17:08:00.572Z</time>
      </trkpt>
      <trkpt lat="48.3850919" lon="-1.9954241">
        <ele>17.430</ele>
        <time>2018-08-17T17:08:05.519Z</time>
      </trkpt>
      <trkpt lat="48.3851612" lon="-1.9955135">
        <ele>16.187</ele>
        <time>2018-08-17T17:08:10.578Z</time>
      </trkpt>
      <trkpt lat="48.3852274" lon="-1.9956052">
        <ele>14.808</ele>
        <time>2018-08-17T17:08:17.000Z</time>
      </trkpt>
      <trkpt lat="48.3852274" lon="-1.9956052">
        <ele>14.964</ele>
        <time>2018-08-17T17:08:23.000Z</time>
      </trkpt>
      <trkpt lat="48.3852274" lon="-1.9956052">
        <ele>15.000</ele>
        <time>2018-08-17T17:08:23.173Z</time>
      </trkpt>
      <trkpt lat="48.3851256" lon="-1.9959275">
        <ele>14.899</ele>
        <time>2018-08-17T17:08:42.529Z</time>
      </trkpt>
      <trkpt lat="48.3851772" lon="-1.9960435">
        <ele>14.711</ele>
        <time>2018-08-17T17:08:46.870Z</time>
      </trkpt>
      <trkpt lat="48.3852427" lon="-1.9961534">
        <ele>14.323</ele>
        <time>2018-08-17T17:08:51.653Z</time>
      </trkpt>
      <trkpt lat="48.3853172" lon="-1.9962578">
        <ele>13.811</ele>
        <time>2018-08-17T17:08:56.681Z</time>
      </trkpt>
      <trkpt lat="48.3854008" lon="-1.9963250">
        <ele>13.431</ele>
        <time>2018-08-17T17:09:01.103Z</time>
      </trkpt>
      <trkpt lat="48.3854753" lon="-1.9964283">
        <ele>13.364</ele>
        <time>2018-08-17T17:09:05.645Z</time>
      </trkpt>
      <trkpt lat="48.3855526" lon="-1.9965431">
        <ele>13.573</ele>
        <time>2018-08-17T17:09:10.376Z</time>
      </trkpt>
      <trkpt lat="48.3856216" lon="-1.9966373">
        <ele>13.792</ele>
        <time>2018-08-17T17:09:14.413Z</time>
      </trkpt>
      <trkpt lat="48.3856899" lon="-1.9967456">
        <ele>13.435</ele>
        <time>2018-08-17T17:09:18.793Z</time>
      </trkpt>
      <trkpt lat="48.3857684" lon="-1.9968640">
        <ele>12.246</ele>
        <time>2018-08-17T17:09:23.805Z</time>
      </trkpt>
      <trkpt lat="48.3858360" lon="-1.9969639">
        <ele>10.857</ele>
        <time>2018-08-17T17:09:28.159Z</time>
      </trkpt>
      <trkpt lat="48.3859018" lon="-1.9970652">
        <ele>10.006</ele>
        <time>2018-08-17T17:09:32.576Z</time>
      </trkpt>
      <trkpt lat="48.3859769" lon="-1.9971656">
        <ele>9.733</ele>
        <time>2018-08-17T17:09:37.306Z</time>
      </trkpt>
      <trkpt lat="48.3860467" lon="-1.9972556">
        <ele>10.078</ele>
        <time>2018-08-17T17:09:41.614Z</time>
      </trkpt>
      <trkpt lat="48.3861202" lon="-1.9973525">
        <ele>11.310</ele>
        <time>2018-08-17T17:09:46.176Z</time>
      </trkpt>
      <trkpt lat="48.3862050" lon="-1.9974468">
        <ele>13.281</ele>
        <time>2018-08-17T17:09:51.433Z</time>
      </trkpt>
      <trkpt lat="48.3862843" lon="-1.9975250">
        <ele>15.162</ele>
        <time>2018-08-17T17:09:56.847Z</time>
      </trkpt>
      <trkpt lat="48.3863569" lon="-1.9976111">
        <ele>16.386</ele>
        <time>2018-08-17T17:10:02.952Z</time>
      </trkpt>
      <trkpt lat="48.3864397" lon="-1.9976940">
        <ele>17.144</ele>
        <time>2018-08-17T17:10:09.553Z</time>
      </trkpt>
      <trkpt lat="48.3865289" lon="-1.9977892">
        <ele>17.826</ele>
        <time>2018-08-17T17:10:15.869Z</time>
      </trkpt>
      <trkpt lat="48.3865967" lon="-1.9978791">
        <ele>18.448</ele>
        <time>2018-08-17T17:10:19.511Z</time>
      </trkpt>
      <trkpt lat="48.3866724" lon="-1.9979705">
        <ele>18.732</ele>
        <time>2018-08-17T17:10:22.267Z</time>
      </trkpt>
      <trkpt lat="48.3867964" lon="-1.9980894">
        <ele>18.449</ele>
        <time>2018-08-17T17:10:25.505Z</time>
      </trkpt>
      <trkpt lat="48.3868741" lon="-1.9981616">
        <ele>17.791</ele>
        <time>2018-08-17T17:10:27.506Z</time>
      </trkpt>
      <trkpt lat="48.3869889" lon="-1.9982399">
        <ele>17.213</ele>
        <time>2018-08-17T17:10:30.409Z</time>
      </trkpt>
      <trkpt lat="48.3870937" lon="-1.9983337">
        <ele>16.968</ele>
        <time>2018-08-17T17:10:33.566Z</time>
      </trkpt>
      <trkpt lat="48.3871834" lon="-1.9983925">
        <ele>17.005</ele>
        <time>2018-08-17T17:10:36.509Z</time>
      </trkpt>
      <trkpt lat="48.3872630" lon="-1.9984557">
        <ele>17.282</ele>
        <time>2018-08-17T17:10:39.573Z</time>
      </trkpt>
      <trkpt lat="48.3873559" lon="-1.9985373">
        <ele>17.962</ele>
        <time>2018-08-17T17:10:43.891Z</time>
      </trkpt>
      <trkpt lat="48.3874468" lon="-1.9986039">
        <ele>19.018</ele>
        <time>2018-08-17T17:10:48.384Z</time>
      </trkpt>
      <trkpt lat="48.3875315" lon="-1.9986599">
        <ele>20.442</ele>
        <time>2018-08-17T17:10:52.621Z</time>
      </trkpt>
      <trkpt lat="48.3876352" lon="-1.9987211">
        <ele>22.300</ele>
        <time>2018-08-17T17:10:57.706Z</time>
      </trkpt>
      <trkpt lat="48.3877195" lon="-1.9987682">
        <ele>24.095</ele>
        <time>2018-08-17T17:11:01.880Z</time>
      </trkpt>
      <trkpt lat="48.3878190" lon="-1.9988217">
        <ele>25.200</ele>
        <time>2018-08-17T17:11:06.786Z</time>
      </trkpt>
      <trkpt lat="48.3879169" lon="-1.9988908">
        <ele>25.603</ele>
        <time>2018-08-17T17:11:12.056Z</time>
      </trkpt>
      <trkpt lat="48.3880106" lon="-1.9989530">
        <ele>25.448</ele>
        <time>2018-08-17T17:11:17.399Z</time>
      </trkpt>
      <trkpt lat="48.3880959" lon="-1.9989994">
        <ele>24.972</ele>
        <time>2018-08-17T17:11:22.381Z</time>
      </trkpt>
      <trkpt lat="48.3881921" lon="-1.9990427">
        <ele>24.602</ele>
        <time>2018-08-17T17:11:28.425Z</time>
      </trkpt>
      <trkpt lat="48.3882781" lon="-1.9991122">
        <ele>24.716</ele>
        <time>2018-08-17T17:11:35.084Z</time>
      </trkpt>
      <trkpt lat="48.3883538" lon="-1.9991871">
        <ele>25.371</ele>
        <time>2018-08-17T17:11:41.994Z</time>
      </trkpt>
      <trkpt lat="48.3884373" lon="-1.9992785">
        <ele>26.207</ele>
        <time>2018-08-17T17:11:50.405Z</time>
      </trkpt>
      <trkpt lat="48.3885300" lon="-1.9992795">
        <ele>26.343</ele>
        <time>2018-08-17T17:11:57.642Z</time>
      </trkpt>
      <trkpt lat="48.3885826" lon="-1.9991419">
        <ele>24.338</ele>
        <time>2018-08-17T17:12:04.277Z</time>
      </trkpt>
      <trkpt lat="48.3886237" lon="-1.9989438">
        <ele>20.241</ele>
        <time>2018-08-17T17:12:08.904Z</time>
      </trkpt>
      <trkpt lat="48.3886142" lon="-1.9986869">
        <ele>16.093</ele>
        <time>2018-08-17T17:12:12.417Z</time>
      </trkpt>
      <trkpt lat="48.3886063" lon="-1.9985120">
        <ele>13.319</ele>
        <time>2018-08-17T17:12:14.429Z</time>
      </trkpt>
      <trkpt lat="48.3885829" lon="-1.9982642">
        <ele>11.922</ele>
        <time>2018-08-17T17:12:17.319Z</time>
      </trkpt>
      <trkpt lat="48.3885693" lon="-1.9980288">
        <ele>11.430</ele>
        <time>2018-08-17T17:12:20.209Z</time>
      </trkpt>
      <trkpt lat="48.3885802" lon="-1.9978850">
        <ele>11.111</ele>
        <time>2018-08-17T17:12:22.154Z</time>
      </trkpt>
      <trkpt lat="48.3886159" lon="-1.9976815">
        <ele>10.719</ele>
        <time>2018-08-17T17:12:25.155Z</time>
      </trkpt>
      <trkpt lat="48.3886540" lon="-1.9975048">
        <ele>10.559</ele>
        <time>2018-08-17T17:12:28.036Z</time>
      </trkpt>
      <trkpt lat="48.3886887" lon="-1.9973740">
        <ele>10.898</ele>
        <time>2018-08-17T17:12:30.449Z</time>
      </trkpt>
      <trkpt lat="48.3887177" lon="-1.9972359">
        <ele>11.732</ele>
        <time>2018-08-17T17:12:33.192Z</time>
      </trkpt>
      <trkpt lat="48.3887463" lon="-1.9970735">
        <ele>12.871</ele>
        <time>2018-08-17T17:12:36.845Z</time>
      </trkpt>
      <trkpt lat="48.3887783" lon="-1.9969246">
        <ele>14.135</ele>
        <time>2018-08-17T17:12:40.696Z</time>
      </trkpt>
      <trkpt lat="48.3888035" lon="-1.9967774">
        <ele>15.270</ele>
        <time>2018-08-17T17:12:44.573Z</time>
      </trkpt>
      <trkpt lat="48.3888268" lon="-1.9966394">
        <ele>15.963</ele>
        <time>2018-08-17T17:12:48.429Z</time>
      </trkpt>
      <trkpt lat="48.3888725" lon="-1.9964725">
        <ele>16.672</ele>
        <time>2018-08-17T17:12:53.159Z</time>
      </trkpt>
      <trkpt lat="48.3889227" lon="-1.9963588">
        <ele>17.956</ele>
        <time>2018-08-17T17:12:56.449Z</time>
      </trkpt>
      <trkpt lat="48.3889979" lon="-1.9962266">
        <ele>19.198</ele>
        <time>2018-08-17T17:13:00.686Z</time>
      </trkpt>
      <trkpt lat="48.3890616" lon="-1.9961012">
        <ele>19.704</ele>
        <time>2018-08-17T17:13:04.817Z</time>
      </trkpt>
      <trkpt lat="48.3891133" lon="-1.9959865">
        <ele>19.598</ele>
        <time>2018-08-17T17:13:08.756Z</time>
      </trkpt>
      <trkpt lat="48.3891933" lon="-1.9958658">
        <ele>19.294</ele>
        <time>2018-08-17T17:13:13.868Z</time>
      </trkpt>
      <trkpt lat="48.3892584" lon="-1.9957315">
        <ele>19.200</ele>
        <time>2018-08-17T17:13:18.460Z</time>
      </trkpt>
      <trkpt lat="48.3893021" lon="-1.9956108">
        <ele>19.354</ele>
        <time>2018-08-17T17:13:21.831Z</time>
      </trkpt>
      <trkpt lat="48.3893400" lon="-1.9954467">
        <ele>19.541</ele>
        <time>2018-08-17T17:13:26.088Z</time>
      </trkpt>
      <trkpt lat="48.3893655" lon="-1.9952985">
        <ele>19.530</ele>
        <time>2018-08-17T17:13:30.091Z</time>
      </trkpt>
      <trkpt lat="48.3893827" lon="-1.9951639">
        <ele>19.178</ele>
        <time>2018-08-17T17:13:34.071Z</time>
      </trkpt>
      <trkpt lat="48.3894020" lon="-1.9950250">
        <ele>18.650</ele>
        <time>2018-08-17T17:13:38.672Z</time>
      </trkpt>
      <trkpt lat="48.3894268" lon="-1.9948780">
        <ele>18.115</ele>
        <time>2018-08-17T17:13:44.085Z</time>
      </trkpt>
      <trkpt lat="48.3894561" lon="-1.9947207">
        <ele>17.528</ele>
        <time>2018-08-17T17:13:50.082Z</time>
      </trkpt>
      <trkpt lat="48.3894784" lon="-1.9945844">
        <ele>16.884</ele>
        <time>2018-08-17T17:13:55.147Z</time>
      </trkpt>
      <trkpt lat="48.3894990" lon="-1.9944506">
        <ele>16.334</ele>
        <time>2018-08-17T17:14:00.056Z</time>
      </trkpt>
      <trkpt lat="48.3895253" lon="-1.9943138">
        <ele>15.980</ele>
        <time>2018-08-17T17:14:04.987Z</time>
      </trkpt>
      <trkpt lat="48.3895511" lon="-1.9941642">
        <ele>15.782</ele>
        <time>2018-08-17T17:14:10.173Z</time>
      </trkpt>
      <trkpt lat="48.3895761" lon="-1.9940138">
        <ele>15.517</ele>
        <time>2018-08-17T17:14:15.283Z</time>
      </trkpt>
      <trkpt lat="48.3896013" lon="-1.9938678">
        <ele>15.056</ele>
        <time>2018-08-17T17:14:20.134Z</time>
      </trkpt>
      <trkpt lat="48.3896331" lon="-1.9937209">
        <ele>14.521</ele>
        <time>2018-08-17T17:14:25.209Z</time>
      </trkpt>
      <trkpt lat="48.3896735" lon="-1.9935975">
        <ele>14.040</ele>
        <time>2018-08-17T17:14:30.263Z</time>
      </trkpt>
      <trkpt lat="48.3897594" lon="-1.9935520">
        <ele>13.459</ele>
        <time>2018-08-17T17:14:36.115Z</time>
      </trkpt>
      <trkpt lat="48.3898460" lon="-1.9935962">
        <ele>12.750</ele>
        <time>2018-08-17T17:14:41.519Z</time>
      </trkpt>
      <trkpt lat="48.3899366" lon="-1.9936202">
        <ele>12.223</ele>
        <time>2018-08-17T17:14:46.510Z</time>
      </trkpt>
      <trkpt lat="48.3900254" lon="-1.9936406">
        <ele>12.210</ele>
        <time>2018-08-17T17:14:51.311Z</time>
      </trkpt>
      <trkpt lat="48.3901167" lon="-1.9936894">
        <ele>12.596</ele>
        <time>2018-08-17T17:14:56.261Z</time>
      </trkpt>
      <trkpt lat="48.3902162" lon="-1.9937548">
        <ele>13.102</ele>
        <time>2018-08-17T17:15:01.514Z</time>
      </trkpt>
      <trkpt lat="48.3903170" lon="-1.9938168">
        <ele>13.556</ele>
        <time>2018-08-17T17:15:06.538Z</time>
      </trkpt>
      <trkpt lat="48.3904075" lon="-1.9938638">
        <ele>13.958</ele>
        <time>2018-08-17T17:15:11.009Z</time>
      </trkpt>
      <trkpt lat="48.3904959" lon="-1.9938958">
        <ele>14.506</ele>
        <time>2018-08-17T17:15:15.841Z</time>
      </trkpt>
      <trkpt lat="48.3905865" lon="-1.9939419">
        <ele>15.249</ele>
        <time>2018-08-17T17:15:20.975Z</time>
      </trkpt>
      <trkpt lat="48.3906909" lon="-1.9939725">
        <ele>15.684</ele>
        <time>2018-08-17T17:15:26.547Z</time>
      </trkpt>
      <trkpt lat="48.3907842" lon="-1.9940004">
        <ele>15.462</ele>
        <time>2018-08-17T17:15:31.712Z</time>
      </trkpt>
      <trkpt lat="48.3908748" lon="-1.9940492">
        <ele>14.730</ele>
        <time>2018-08-17T17:15:36.791Z</time>
      </trkpt>
      <trkpt lat="48.3909755" lon="-1.9940805">
        <ele>13.830</ele>
        <time>2018-08-17T17:15:42.035Z</time>
      </trkpt>
      <trkpt lat="48.3910651" lon="-1.9940951">
        <ele>13.149</ele>
        <time>2018-08-17T17:15:46.759Z</time>
      </trkpt>
      <trkpt lat="48.3911583" lon="-1.9940703">
        <ele>13.152</ele>
        <time>2018-08-17T17:15:51.933Z</time>
      </trkpt>
      <trkpt lat="48.3912490" lon="-1.9940374">
        <ele>13.905</ele>
        <time>2018-08-17T17:15:56.998Z</time>
      </trkpt>
      <trkpt lat="48.3912490" lon="-1.9940374">
        <ele>14.828</ele>
        <time>2018-08-17T17:16:13.998Z</time>
      </trkpt>
      <trkpt lat="48.3912490" lon="-1.9940374">
        <ele>15.282</ele>
        <time>2018-08-17T17:18:52.298Z</time>
      </trkpt>
      <trkpt lat="48.3911410" lon="-1.9940657">
        <ele>14.992</ele>
        <time>2018-08-17T17:19:08.000Z</time>
      </trkpt>
      <trkpt lat="48.3911410" lon="-1.9940657">
        <ele>14.850</ele>
        <time>2018-08-17T17:19:09.000Z</time>
      </trkpt>
      <trkpt lat="48.3911410" lon="-1.9940657">
        <ele>14.854</ele>
        <time>2018-08-17T17:19:09.100Z</time>
      </trkpt>
      <trkpt lat="48.3909822" lon="-1.9940841">
        <ele>14.919</ele>
        <time>2018-08-17T17:19:19.025Z</time>
      </trkpt>
      <trkpt lat="48.3908898" lon="-1.9940621">
        <ele>15.216</ele>
        <time>2018-08-17T17:19:23.061Z</time>
      </trkpt>
      <trkpt lat="48.3908035" lon="-1.9940225">
        <ele>15.881</ele>
        <time>2018-08-17T17:19:27.001Z</time>
      </trkpt>
      <trkpt lat="48.3907158" lon="-1.9939807">
        <ele>16.514</ele>
        <time>2018-08-17T17:19:30.883Z</time>
      </trkpt>
      <trkpt lat="48.3906130" lon="-1.9939569">
        <ele>16.730</ele>
        <time>2018-08-17T17:19:34.985Z</time>
      </trkpt>
      <trkpt lat="48.3905067" lon="-1.9939036">
        <ele>16.664</ele>
        <time>2018-08-17T17:19:39.225Z</time>
      </trkpt>
      <trkpt lat="48.3904058" lon="-1.9938495">
        <ele>16.548</ele>
        <time>2018-08-17T17:19:43.450Z</time>
      </trkpt>
      <trkpt lat="48.3903115" lon="-1.9938150">
        <ele>16.262</ele>
        <time>2018-08-17T17:19:47.490Z</time>
      </trkpt>
      <trkpt lat="48.3902236" lon="-1.9937676">
        <ele>15.619</ele>
        <time>2018-08-17T17:19:51.445Z</time>
      </trkpt>
      <trkpt lat="48.3901341" lon="-1.9937231">
        <ele>14.814</ele>
        <time>2018-08-17T17:19:55.378Z</time>
      </trkpt>
      <trkpt lat="48.3900412" lon="-1.9936836">
        <ele>14.036</ele>
        <time>2018-08-17T17:19:59.316Z</time>
      </trkpt>
      <trkpt lat="48.3899417" lon="-1.9936468">
        <ele>13.302</ele>
        <time>2018-08-17T17:20:03.498Z</time>
      </trkpt>
      <trkpt lat="48.3898430" lon="-1.9936230">
        <ele>12.772</ele>
        <time>2018-08-17T17:20:07.759Z</time>
      </trkpt>
      <trkpt lat="48.3897352" lon="-1.9936047">
        <ele>12.546</ele>
        <time>2018-08-17T17:20:12.846Z</time>
      </trkpt>
      <trkpt lat="48.3896338" lon="-1.9935853">
        <ele>12.497</ele>
        <time>2018-08-17T17:20:17.775Z</time>
      </trkpt>
      <trkpt lat="48.3895279" lon="-1.9936068">
        <ele>12.591</ele>
        <time>2018-08-17T17:20:22.806Z</time>
      </trkpt>
      <trkpt lat="48.3894309" lon="-1.9936550">
        <ele>12.747</ele>
        <time>2018-08-17T17:20:27.477Z</time>
      </trkpt>
      <trkpt lat="48.3893274" lon="-1.9937142">
        <ele>12.762</ele>
        <time>2018-08-17T17:20:32.261Z</time>
      </trkpt>
      <trkpt lat="48.3892387" lon="-1.9937715">
        <ele>12.618</ele>
        <time>2018-08-17T17:20:36.221Z</time>
      </trkpt>
      <trkpt lat="48.3891466" lon="-1.9938313">
        <ele>12.453</ele>
        <time>2018-08-17T17:20:40.169Z</time>
      </trkpt>
      <trkpt lat="48.3890528" lon="-1.9938965">
        <ele>12.308</ele>
        <time>2018-08-17T17:20:44.046Z</time>
      </trkpt>
      <trkpt lat="48.3889552" lon="-1.9939666">
        <ele>12.282</ele>
        <time>2018-08-17T17:20:47.975Z</time>
      </trkpt>
      <trkpt lat="48.3888583" lon="-1.9940365">
        <ele>12.455</ele>
        <time>2018-08-17T17:20:51.882Z</time>
      </trkpt>
      <trkpt lat="48.3887630" lon="-1.9941130">
        <ele>12.781</ele>
        <time>2018-08-17T17:20:55.782Z</time>
      </trkpt>
      <trkpt lat="48.3886593" lon="-1.9941799">
        <ele>13.391</ele>
        <time>2018-08-17T17:20:59.673Z</time>
      </trkpt>
      <trkpt lat="48.3885492" lon="-1.9942491">
        <ele>14.568</ele>
        <time>2018-08-17T17:21:03.539Z</time>
      </trkpt>
      <trkpt lat="48.3884621" lon="-1.9943061">
        <ele>16.083</ele>
        <time>2018-08-17T17:21:06.482Z</time>
      </trkpt>
      <trkpt lat="48.3883746" lon="-1.9943667">
        <ele>17.267</ele>
        <time>2018-08-17T17:21:09.404Z</time>
      </trkpt>
      <trkpt lat="48.3882889" lon="-1.9944284">
        <ele>17.848</ele>
        <time>2018-08-17T17:21:12.324Z</time>
      </trkpt>
      <trkpt lat="48.3882041" lon="-1.9944909">
        <ele>18.025</ele>
        <time>2018-08-17T17:21:15.286Z</time>
      </trkpt>
      <trkpt lat="48.3881143" lon="-1.9945441">
        <ele>17.860</ele>
        <time>2018-08-17T17:21:18.313Z</time>
      </trkpt>
      <trkpt lat="48.3880154" lon="-1.9945674">
        <ele>17.167</ele>
        <time>2018-08-17T17:21:21.471Z</time>
      </trkpt>
      <trkpt lat="48.3879169" lon="-1.9945477">
        <ele>16.069</ele>
        <time>2018-08-17T17:21:24.717Z</time>
      </trkpt>
      <trkpt lat="48.3878071" lon="-1.9945209">
        <ele>14.941</ele>
        <time>2018-08-17T17:21:28.532Z</time>
      </trkpt>
      <trkpt lat="48.3876966" lon="-1.9944756">
        <ele>14.036</ele>
        <time>2018-08-17T17:21:32.567Z</time>
      </trkpt>
      <trkpt lat="48.3875959" lon="-1.9944185">
        <ele>13.515</ele>
        <time>2018-08-17T17:21:36.584Z</time>
      </trkpt>
      <trkpt lat="48.3875067" lon="-1.9943584">
        <ele>13.387</ele>
        <time>2018-08-17T17:21:40.528Z</time>
      </trkpt>
      <trkpt lat="48.3874244" lon="-1.9942869">
        <ele>13.504</ele>
        <time>2018-08-17T17:21:44.638Z</time>
      </trkpt>
      <trkpt lat="48.3873391" lon="-1.9941812">
        <ele>13.732</ele>
        <time>2018-08-17T17:21:49.685Z</time>
      </trkpt>
      <trkpt lat="48.3872641" lon="-1.9940750">
        <ele>13.819</ele>
        <time>2018-08-17T17:21:54.748Z</time>
      </trkpt>
      <trkpt lat="48.3872002" lon="-1.9939667">
        <ele>13.588</ele>
        <time>2018-08-17T17:21:59.764Z</time>
      </trkpt>
      <trkpt lat="48.3871547" lon="-1.9938500">
        <ele>13.214</ele>
        <time>2018-08-17T17:22:04.784Z</time>
      </trkpt>
      <trkpt lat="48.3871174" lon="-1.9937155">
        <ele>12.929</ele>
        <time>2018-08-17T17:22:10.729Z</time>
      </trkpt>
      <trkpt lat="48.3871023" lon="-1.9935689">
        <ele>12.800</ele>
        <time>2018-08-17T17:22:17.477Z</time>
      </trkpt>
      <trkpt lat="48.3870873" lon="-1.9934306">
        <ele>12.805</ele>
        <time>2018-08-17T17:22:25.000Z</time>
      </trkpt>
      <trkpt lat="48.3870934" lon="-1.9932835">
        <ele>12.936</ele>
        <time>2018-08-17T17:22:33.731Z</time>
      </trkpt>
      <trkpt lat="48.3871106" lon="-1.9931385">
        <ele>13.393</ele>
        <time>2018-08-17T17:22:41.311Z</time>
      </trkpt>
      <trkpt lat="48.3871621" lon="-1.9930059">
        <ele>14.194</ele>
        <time>2018-08-17T17:22:47.275Z</time>
      </trkpt>
      <trkpt lat="48.3872429" lon="-1.9928884">
        <ele>14.760</ele>
        <time>2018-08-17T17:22:52.881Z</time>
      </trkpt>
      <trkpt lat="48.3873195" lon="-1.9928038">
        <ele>14.675</ele>
        <time>2018-08-17T17:22:58.439Z</time>
      </trkpt>
      <trkpt lat="48.3874113" lon="-1.9928379">
        <ele>14.241</ele>
        <time>2018-08-17T17:23:04.000Z</time>
      </trkpt>
      <trkpt lat="48.3874113" lon="-1.9928379">
        <ele>13.952</ele>
        <time>2018-08-17T17:23:15.000Z</time>
      </trkpt>
      <trkpt lat="48.3874113" lon="-1.9928379">
        <ele>13.960</ele>
        <time>2018-08-17T17:24:35.027Z</time>
      </trkpt>
      <trkpt lat="48.3874113" lon="-1.9928379">
        <ele>14.065</ele>
        <time>2018-08-17T17:26:02.000Z</time>
      </trkpt>
      <trkpt lat="48.3874113" lon="-1.9928379">
        <ele>14.012</ele>
        <time>2018-08-17T17:26:02.100Z</time>
      </trkpt>
      <trkpt lat="48.3874781" lon="-1.9927411">
        <ele>14.023</ele>
        <time>2018-08-17T17:26:39.000Z</time>
      </trkpt>
      <trkpt lat="48.3874781" lon="-1.9927411">
        <ele>14.037</ele>
        <time>2018-08-17T17:26:41.000Z</time>
      </trkpt>
      <trkpt lat="48.3874781" lon="-1.9927411">
        <ele>14.031</ele>
        <time>2018-08-17T17:27:18.000Z</time>
      </trkpt>
      <trkpt lat="48.3876914" lon="-1.9927840">
        <ele>0.000</ele>
        <time>2018-08-17T17:28:59.000Z</time>
      </trkpt>
      <trkpt lat="48.3871168" lon="-1.9928790">
        <ele>13.977</ele>
        <time>2018-08-18T08:39:10.000Z</time>
      </trkpt>
      <trkpt lat="48.3871168" lon="-1.9928790">
        <ele>13.974</ele>
        <time>2018-08-18T08:39:29.903Z</time>
      </trkpt>
      <trkpt lat="48.3870966" lon="-1.9931565">
        <ele>13.971</ele>
        <time>2018-08-18T08:39:46.052Z</time>
      </trkpt>
      <trkpt lat="48.3870874" lon="-1.9932951">
        <ele>14.142</ele>
        <time>2018-08-18T08:39:51.320Z</time>
      </trkpt>
      <trkpt lat="48.3870730" lon="-1.9934462">
        <ele>14.593</ele>
        <time>2018-08-18T08:39:55.353Z</time>
      </trkpt>
      <trkpt lat="48.3870557" lon="-1.9936258">
        <ele>15.058</ele>
        <time>2018-08-18T08:39:59.815Z</time>
      </trkpt>
      <trkpt lat="48.3870948" lon="-1.9937864">
        <ele>15.290</ele>
        <time>2018-08-18T08:40:03.779Z</time>
      </trkpt>
      <trkpt lat="48.3871526" lon="-1.9939101">
        <ele>15.361</ele>
        <time>2018-08-18T08:40:06.743Z</time>
      </trkpt>
      <trkpt lat="48.3872157" lon="-1.9940258">
        <ele>15.376</ele>
        <time>2018-08-18T08:40:09.373Z</time>
      </trkpt>
      <trkpt lat="48.3872915" lon="-1.9941372">
        <ele>15.374</ele>
        <time>2018-08-18T08:40:11.958Z</time>
      </trkpt>
      <trkpt lat="48.3873802" lon="-1.9942506">
        <ele>15.303</ele>
        <time>2018-08-18T08:40:14.690Z</time>
      </trkpt>
      <trkpt lat="48.3874716" lon="-1.9943395">
        <ele>15.057</ele>
        <time>2018-08-18T08:40:17.347Z</time>
      </trkpt>
      <trkpt lat="48.3875618" lon="-1.9943997">
        <ele>14.572</ele>
        <time>2018-08-18T08:40:19.920Z</time>
      </trkpt>
      <trkpt lat="48.3876492" lon="-1.9944444">
        <ele>13.904</ele>
        <time>2018-08-18T08:40:22.448Z</time>
      </trkpt>
      <trkpt lat="48.3877435" lon="-1.9944769">
        <ele>13.256</ele>
        <time>2018-08-18T08:40:25.272Z</time>
      </trkpt>
      <trkpt lat="48.3878515" lon="-1.9945011">
        <ele>12.840</ele>
        <time>2018-08-18T08:40:28.823Z</time>
      </trkpt>
      <trkpt lat="48.3879569" lon="-1.9945241">
        <ele>12.678</ele>
        <time>2018-08-18T08:40:33.000Z</time>
      </trkpt>
      <trkpt lat="48.3879569" lon="-1.9945241">
        <ele>12.658</ele>
        <time>2018-08-18T08:40:47.000Z</time>
      </trkpt>
      <trkpt lat="48.3879569" lon="-1.9945241">
        <ele>12.667</ele>
        <time>2018-08-18T08:41:23.569Z</time>
      </trkpt>
      <trkpt lat="48.3881984" lon="-1.9944362">
        <ele>12.665</ele>
        <time>2018-08-18T08:41:41.766Z</time>
      </trkpt>
      <trkpt lat="48.3882877" lon="-1.9943823">
        <ele>12.630</ele>
        <time>2018-08-18T08:41:45.451Z</time>
      </trkpt>
      <trkpt lat="48.3883869" lon="-1.9943145">
        <ele>12.504</ele>
        <time>2018-08-18T08:41:49.531Z</time>
      </trkpt>
      <trkpt lat="48.3884740" lon="-1.9942529">
        <ele>12.175</ele>
        <time>2018-08-18T08:41:52.967Z</time>
      </trkpt>
      <trkpt lat="48.3885586" lon="-1.9941861">
        <ele>11.677</ele>
        <time>2018-08-18T08:41:56.251Z</time>
      </trkpt>
      <trkpt lat="48.3886551" lon="-1.9941239">
        <ele>11.341</ele>
        <time>2018-08-18T08:41:59.772Z</time>
      </trkpt>
      <trkpt lat="48.3887586" lon="-1.9940640">
        <ele>11.422</ele>
        <time>2018-08-18T08:42:03.376Z</time>
      </trkpt>
      <trkpt lat="48.3888607" lon="-1.9939951">
        <ele>11.781</ele>
        <time>2018-08-18T08:42:06.896Z</time>
      </trkpt>
      <trkpt lat="48.3889524" lon="-1.9939224">
        <ele>12.233</ele>
        <time>2018-08-18T08:42:10.118Z</time>
      </trkpt>
      <trkpt lat="48.3890408" lon="-1.9938371">
        <ele>12.709</ele>
        <time>2018-08-18T08:42:13.331Z</time>
      </trkpt>
      <trkpt lat="48.3891224" lon="-1.9937766">
        <ele>13.172</ele>
        <time>2018-08-18T08:42:16.038Z</time>
      </trkpt>
      <trkpt lat="48.3892125" lon="-1.9937206">
        <ele>13.599</ele>
        <time>2018-08-18T08:42:18.800Z</time>
      </trkpt>
      <trkpt lat="48.3893006" lon="-1.9936634">
        <ele>13.944</ele>
        <time>2018-08-18T08:42:21.409Z</time>
      </trkpt>
      <trkpt lat="48.3893897" lon="-1.9936164">
        <ele>14.163</ele>
        <time>2018-08-18T08:42:23.914Z</time>
      </trkpt>
      <trkpt lat="48.3894956" lon="-1.9935653">
        <ele>14.330</ele>
        <time>2018-08-18T08:42:26.896Z</time>
      </trkpt>
      <trkpt lat="48.3896006" lon="-1.9935476">
        <ele>14.601</ele>
        <time>2018-08-18T08:42:29.882Z</time>
      </trkpt>
      <trkpt lat="48.3896375" lon="-1.9936743">
        <ele>15.003</ele>
        <time>2018-08-18T08:42:32.623Z</time>
      </trkpt>
      <trkpt lat="48.3896187" lon="-1.9938257">
        <ele>15.304</ele>
        <time>2018-08-18T08:42:35.903Z</time>
      </trkpt>
      <trkpt lat="48.3896034" lon="-1.9939860">
        <ele>15.342</ele>
        <time>2018-08-18T08:42:39.719Z</time>
      </trkpt>
      <trkpt lat="48.3895806" lon="-1.9941476">
        <ele>15.244</ele>
        <time>2018-08-18T08:42:43.281Z</time>
      </trkpt>
      <trkpt lat="48.3895514" lon="-1.9943081">
        <ele>15.131</ele>
        <time>2018-08-18T08:42:46.290Z</time>
      </trkpt>
      <trkpt lat="48.3895225" lon="-1.9944726">
        <ele>15.021</ele>
        <time>2018-08-18T08:42:49.085Z</time>
      </trkpt>
      <trkpt lat="48.3894813" lon="-1.9946304">
        <ele>14.961</ele>
        <time>2018-08-18T08:42:51.728Z</time>
      </trkpt>
      <trkpt lat="48.3894412" lon="-1.9947922">
        <ele>14.979</ele>
        <time>2018-08-18T08:42:54.318Z</time>
      </trkpt>
      <trkpt lat="48.3894047" lon="-1.9949553">
        <ele>15.046</ele>
        <time>2018-08-18T08:42:56.829Z</time>
      </trkpt>
      <trkpt lat="48.3893708" lon="-1.9951171">
        <ele>15.100</ele>
        <time>2018-08-18T08:42:59.257Z</time>
      </trkpt>
      <trkpt lat="48.3893418" lon="-1.9952967">
        <ele>15.081</ele>
        <time>2018-08-18T08:43:01.878Z</time>
      </trkpt>
      <trkpt lat="48.3893221" lon="-1.9954763">
        <ele>14.797</ele>
        <time>2018-08-18T08:43:04.438Z</time>
      </trkpt>
      <trkpt lat="48.3892885" lon="-1.9956441">
        <ele>14.198</ele>
        <time>2018-08-18T08:43:06.864Z</time>
      </trkpt>
      <trkpt lat="48.3892414" lon="-1.9957933">
        <ele>13.707</ele>
        <time>2018-08-18T08:43:09.098Z</time>
      </trkpt>
      <trkpt lat="48.3891822" lon="-1.9959129">
        <ele>13.666</ele>
        <time>2018-08-18T08:43:11.065Z</time>
      </trkpt>
      <trkpt lat="48.3891081" lon="-1.9960362">
        <ele>13.894</ele>
        <time>2018-08-18T08:43:13.283Z</time>
      </trkpt>
      <trkpt lat="48.3890279" lon="-1.9961625">
        <ele>14.134</ele>
        <time>2018-08-18T08:43:15.655Z</time>
      </trkpt>
      <trkpt lat="48.3889501" lon="-1.9962978">
        <ele>14.281</ele>
        <time>2018-08-18T08:43:18.159Z</time>
      </trkpt>
      <trkpt lat="48.3888819" lon="-1.9964319">
        <ele>14.297</ele>
        <time>2018-08-18T08:43:20.604Z</time>
      </trkpt>
      <trkpt lat="48.3888262" lon="-1.9965740">
        <ele>14.233</ele>
        <time>2018-08-18T08:43:23.009Z</time>
      </trkpt>
      <trkpt lat="48.3888097" lon="-1.9967286">
        <ele>14.156</ele>
        <time>2018-08-18T08:43:25.257Z</time>
      </trkpt>
      <trkpt lat="48.3888057" lon="-1.9968879">
        <ele>14.079</ele>
        <time>2018-08-18T08:43:27.505Z</time>
      </trkpt>
      <trkpt lat="48.3887979" lon="-1.9970282">
        <ele>13.980</ele>
        <time>2018-08-18T08:43:29.449Z</time>
      </trkpt>
      <trkpt lat="48.3887898" lon="-1.9971958">
        <ele>13.715</ele>
        <time>2018-08-18T08:43:31.782Z</time>
      </trkpt>
      <trkpt lat="48.3887617" lon="-1.9973526">
        <ele>13.130</ele>
        <time>2018-08-18T08:43:34.048Z</time>
      </trkpt>
      <trkpt lat="48.3887100" lon="-1.9974866">
        <ele>12.437</ele>
        <time>2018-08-18T08:43:36.228Z</time>
      </trkpt>
      <trkpt lat="48.3886602" lon="-1.9976132">
        <ele>12.001</ele>
        <time>2018-08-18T08:43:38.398Z</time>
      </trkpt>
      <trkpt lat="48.3886144" lon="-1.9977387">
        <ele>11.933</ele>
        <time>2018-08-18T08:43:40.620Z</time>
      </trkpt>
      <trkpt lat="48.3885789" lon="-1.9978881">
        <ele>12.052</ele>
        <time>2018-08-18T08:43:43.202Z</time>
      </trkpt>
      <trkpt lat="48.3885816" lon="-1.9980530">
        <ele>12.120</ele>
        <time>2018-08-18T08:43:45.968Z</time>
      </trkpt>
      <trkpt lat="48.3886063" lon="-1.9982251">
        <ele>12.036</ele>
        <time>2018-08-18T08:43:48.846Z</time>
      </trkpt>
      <trkpt lat="48.3886265" lon="-1.9983654">
        <ele>11.854</ele>
        <time>2018-08-18T08:43:51.086Z</time>
      </trkpt>
      <trkpt lat="48.3886632" lon="-1.9985186">
        <ele>11.704</ele>
        <time>2018-08-18T08:43:53.652Z</time>
      </trkpt>
      <trkpt lat="48.3886631" lon="-1.9986892">
        <ele>11.670</ele>
        <time>2018-08-18T08:43:56.435Z</time>
      </trkpt>
      <trkpt lat="48.3886479" lon="-1.9988278">
        <ele>11.733</ele>
        <time>2018-08-18T08:43:58.701Z</time>
      </trkpt>
      <trkpt lat="48.3886317" lon="-1.9989637">
        <ele>11.884</ele>
        <time>2018-08-18T08:44:00.902Z</time>
      </trkpt>
      <trkpt lat="48.3886236" lon="-1.9991087">
        <ele>12.118</ele>
        <time>2018-08-18T08:44:03.418Z</time>
      </trkpt>
      <trkpt lat="48.3885903" lon="-1.9992590">
        <ele>12.395</ele>
        <time>2018-08-18T08:44:06.417Z</time>
      </trkpt>
      <trkpt lat="48.3885387" lon="-1.9993796">
        <ele>12.648</ele>
        <time>2018-08-18T08:44:09.554Z</time>
      </trkpt>
      <trkpt lat="48.3885178" lon="-1.9995255">
        <ele>12.927</ele>
        <time>2018-08-18T08:44:13.043Z</time>
      </trkpt>
      <trkpt lat="48.3886173" lon="-1.9996171">
        <ele>13.297</ele>
        <time>2018-08-18T08:44:16.871Z</time>
      </trkpt>
      <trkpt lat="48.3887442" lon="-1.9997065">
        <ele>13.539</ele>
        <time>2018-08-18T08:44:21.374Z</time>
      </trkpt>
      <trkpt lat="48.3889447" lon="-1.9998874">
        <ele>13.423</ele>
        <time>2018-08-18T08:44:32.820Z</time>
      </trkpt>
      <trkpt lat="48.3891100" lon="-1.9999532">
        <ele>13.071</ele>
        <time>2018-08-18T08:44:42.224Z</time>
      </trkpt>
      <trkpt lat="48.3892363" lon="-2.0000036">
        <ele>12.713</ele>
        <time>2018-08-18T08:44:48.337Z</time>
      </trkpt>
      <trkpt lat="48.3893142" lon="-2.0000997">
        <ele>12.469</ele>
        <time>2018-08-18T08:44:52.305Z</time>
      </trkpt>
      <trkpt lat="48.3894093" lon="-2.0001284">
        <ele>12.237</ele>
        <time>2018-08-18T08:44:55.289Z</time>
      </trkpt>
      <trkpt lat="48.3895136" lon="-2.0001879">
        <ele>11.776</ele>
        <time>2018-08-18T08:44:57.753Z</time>
      </trkpt>
      <trkpt lat="48.3896131" lon="-2.0002871">
        <ele>11.119</ele>
        <time>2018-08-18T08:44:59.845Z</time>
      </trkpt>
      <trkpt lat="48.3896974" lon="-2.0003606">
        <ele>10.585</ele>
        <time>2018-08-18T08:45:01.244Z</time>
      </trkpt>
      <trkpt lat="48.3897799" lon="-2.0004435">
        <ele>10.365</ele>
        <time>2018-08-18T08:45:02.542Z</time>
      </trkpt>
      <trkpt lat="48.3898602" lon="-2.0005057">
        <ele>10.390</ele>
        <time>2018-08-18T08:45:03.724Z</time>
      </trkpt>
      <trkpt lat="48.3899555" lon="-2.0005603">
        <ele>10.463</ele>
        <time>2018-08-18T08:45:05.822Z</time>
      </trkpt>
      <trkpt lat="48.3900477" lon="-2.0006112">
        <ele>10.460</ele>
        <time>2018-08-18T08:45:08.033Z</time>
      </trkpt>
      <trkpt lat="48.3901559" lon="-2.0006763">
        <ele>10.457</ele>
        <time>2018-08-18T08:45:10.657Z</time>
      </trkpt>
      <trkpt lat="48.3902683" lon="-2.0007418">
        <ele>10.651</ele>
        <time>2018-08-18T08:45:17.055Z</time>
      </trkpt>
      <trkpt lat="48.3903567" lon="-2.0008099">
        <ele>11.071</ele>
        <time>2018-08-18T08:45:24.230Z</time>
      </trkpt>
      <trkpt lat="48.3905141" lon="-2.0009303">
        <ele>11.485</ele>
        <time>2018-08-18T08:45:33.181Z</time>
      </trkpt>
      <trkpt lat="48.3906095" lon="-2.0010039">
        <ele>11.692</ele>
        <time>2018-08-18T08:45:38.425Z</time>
      </trkpt>
      <trkpt lat="48.3907070" lon="-2.0010591">
        <ele>11.708</ele>
        <time>2018-08-18T08:45:42.612Z</time>
      </trkpt>
      <trkpt lat="48.3907917" lon="-2.0011255">
        <ele>11.678</ele>
        <time>2018-08-18T08:45:46.979Z</time>
      </trkpt>
      <trkpt lat="48.3908980" lon="-2.0011851">
        <ele>11.703</ele>
        <time>2018-08-18T08:45:52.659Z</time>
      </trkpt>
      <trkpt lat="48.3910088" lon="-2.0012179">
        <ele>11.727</ele>
        <time>2018-08-18T08:45:57.557Z</time>
      </trkpt>
      <trkpt lat="48.3911146" lon="-2.0013072">
        <ele>11.569</ele>
        <time>2018-08-18T08:46:00.742Z</time>
      </trkpt>
      <trkpt lat="48.3912159" lon="-2.0013960">
        <ele>11.168</ele>
        <time>2018-08-18T08:46:03.784Z</time>
      </trkpt>
      <trkpt lat="48.3913150" lon="-2.0014717">
        <ele>10.729</ele>
        <time>2018-08-18T08:46:07.298Z</time>
      </trkpt>
      <trkpt lat="48.3914168" lon="-2.0015645">
        <ele>10.494</ele>
        <time>2018-08-18T08:46:14.156Z</time>
      </trkpt>
      <trkpt lat="48.3915076" lon="-2.0016430">
        <ele>10.540</ele>
        <time>2018-08-18T08:46:21.067Z</time>
      </trkpt>
      <trkpt lat="48.3919309" lon="-2.0019871">
        <ele>10.913</ele>
        <time>2018-08-18T08:46:38.154Z</time>
      </trkpt>
      <trkpt lat="48.3920277" lon="-2.0020090">
        <ele>10.273</ele>
        <time>2018-08-18T08:46:40.566Z</time>
      </trkpt>
      <trkpt lat="48.3921304" lon="-2.0020073">
        <ele>8.185</ele>
        <time>2018-08-18T08:46:42.953Z</time>
      </trkpt>
      <trkpt lat="48.3922441" lon="-2.0020180">
        <ele>5.364</ele>
        <time>2018-08-18T08:46:45.601Z</time>
      </trkpt>
      <trkpt lat="48.3923549" lon="-2.0020418">
        <ele>3.350</ele>
        <time>2018-08-18T08:46:48.227Z</time>
      </trkpt>
      <trkpt lat="48.3924589" lon="-2.0021137">
        <ele>2.983</ele>
        <time>2018-08-18T08:46:51.267Z</time>
      </trkpt>
      <trkpt lat="48.3925492" lon="-2.0022133">
        <ele>4.292</ele>
        <time>2018-08-18T08:46:55.037Z</time>
      </trkpt>
      <trkpt lat="48.3926352" lon="-2.0023239">
        <ele>6.424</ele>
        <time>2018-08-18T08:46:59.463Z</time>
      </trkpt>
      <trkpt lat="48.3927050" lon="-2.0024172">
        <ele>8.054</ele>
        <time>2018-08-18T08:47:03.110Z</time>
      </trkpt>
      <trkpt lat="48.3927800" lon="-2.0025190">
        <ele>8.787</ele>
        <time>2018-08-18T08:47:06.493Z</time>
      </trkpt>
      <trkpt lat="48.3928409" lon="-2.0026234">
        <ele>9.051</ele>
        <time>2018-08-18T08:47:09.062Z</time>
      </trkpt>
      <trkpt lat="48.3929006" lon="-2.0027507">
        <ele>8.908</ele>
        <time>2018-08-18T08:47:11.760Z</time>
      </trkpt>
      <trkpt lat="48.3929684" lon="-2.0029110">
        <ele>8.300</ele>
        <time>2018-08-18T08:47:15.033Z</time>
      </trkpt>
      <trkpt lat="48.3930445" lon="-2.0030348">
        <ele>7.727</ele>
        <time>2018-08-18T08:47:18.459Z</time>
      </trkpt>
      <trkpt lat="48.3931219" lon="-2.0031664">
        <ele>7.602</ele>
        <time>2018-08-18T08:47:22.336Z</time>
      </trkpt>
      <trkpt lat="48.3931989" lon="-2.0033117">
        <ele>7.582</ele>
        <time>2018-08-18T08:47:26.183Z</time>
      </trkpt>
      <trkpt lat="48.3932559" lon="-2.0034494">
        <ele>7.303</ele>
        <time>2018-08-18T08:47:29.292Z</time>
      </trkpt>
      <trkpt lat="48.3933239" lon="-2.0035769">
        <ele>7.210</ele>
        <time>2018-08-18T08:47:32.345Z</time>
      </trkpt>
      <trkpt lat="48.3933814" lon="-2.0036881">
        <ele>7.893</ele>
        <time>2018-08-18T08:47:34.997Z</time>
      </trkpt>
      <trkpt lat="48.3934650" lon="-2.0038052">
        <ele>9.154</ele>
        <time>2018-08-18T08:47:38.074Z</time>
      </trkpt>
      <trkpt lat="48.3935402" lon="-2.0038882">
        <ele>10.352</ele>
        <time>2018-08-18T08:47:40.247Z</time>
      </trkpt>
      <trkpt lat="48.3936191" lon="-2.0039761">
        <ele>11.050</ele>
        <time>2018-08-18T08:47:42.523Z</time>
      </trkpt>
      <trkpt lat="48.3937608" lon="-2.0040319">
        <ele>10.930</ele>
        <time>2018-08-18T08:47:46.478Z</time>
      </trkpt>
      <trkpt lat="48.3938766" lon="-2.0040408">
        <ele>9.591</ele>
        <time>2018-08-18T08:47:49.807Z</time>
      </trkpt>
      <trkpt lat="48.3939873" lon="-2.0040211">
        <ele>7.134</ele>
        <time>2018-08-18T08:47:52.917Z</time>
      </trkpt>
      <trkpt lat="48.3940784" lon="-2.0039962">
        <ele>4.659</ele>
        <time>2018-08-18T08:47:55.341Z</time>
      </trkpt>
      <trkpt lat="48.3941853" lon="-2.0039525">
        <ele>3.283</ele>
        <time>2018-08-18T08:47:57.816Z</time>
      </trkpt>
      <trkpt lat="48.3942769" lon="-2.0039385">
        <ele>3.212</ele>
        <time>2018-08-18T08:47:59.721Z</time>
      </trkpt>
      <trkpt lat="48.3943685" lon="-2.0039192">
        <ele>3.888</ele>
        <time>2018-08-18T08:48:01.678Z</time>
      </trkpt>
      <trkpt lat="48.3944552" lon="-2.0039771">
        <ele>4.732</ele>
        <time>2018-08-18T08:48:03.811Z</time>
      </trkpt>
      <trkpt lat="48.3945875" lon="-2.0040331">
        <ele>5.845</ele>
        <time>2018-08-18T08:48:07.158Z</time>
      </trkpt>
      <trkpt lat="48.3946821" lon="-2.0040483">
        <ele>7.393</ele>
        <time>2018-08-18T08:48:09.584Z</time>
      </trkpt>
      <trkpt lat="48.3948586" lon="-2.0041314">
        <ele>9.208</ele>
        <time>2018-08-18T08:48:13.899Z</time>
      </trkpt>
      <trkpt lat="48.3949696" lon="-2.0041356">
        <ele>10.978</ele>
        <time>2018-08-18T08:48:16.177Z</time>
      </trkpt>
      <trkpt lat="48.3950621" lon="-2.0041687">
        <ele>12.114</ele>
        <time>2018-08-18T08:48:18.178Z</time>
      </trkpt>
      <trkpt lat="48.3951625" lon="-2.0041871">
        <ele>12.331</ele>
        <time>2018-08-18T08:48:20.769Z</time>
      </trkpt>
      <trkpt lat="48.3952663" lon="-2.0042161">
        <ele>12.229</ele>
        <time>2018-08-18T08:48:23.930Z</time>
      </trkpt>
      <trkpt lat="48.3953571" lon="-2.0042459">
        <ele>12.331</ele>
        <time>2018-08-18T08:48:26.405Z</time>
      </trkpt>
      <trkpt lat="48.3954768" lon="-2.0042707">
        <ele>12.127</ele>
        <time>2018-08-18T08:48:29.109Z</time>
      </trkpt>
      <trkpt lat="48.3956038" lon="-2.0042546">
        <ele>10.988</ele>
        <time>2018-08-18T08:48:31.806Z</time>
      </trkpt>
      <trkpt lat="48.3957336" lon="-2.0042211">
        <ele>9.399</ele>
        <time>2018-08-18T08:48:35.081Z</time>
      </trkpt>
      <trkpt lat="48.3958482" lon="-2.0041914">
        <ele>8.222</ele>
        <time>2018-08-18T08:48:39.261Z</time>
      </trkpt>
      <trkpt lat="48.3959360" lon="-2.0041333">
        <ele>7.701</ele>
        <time>2018-08-18T08:48:42.561Z</time>
      </trkpt>
      <trkpt lat="48.3960395" lon="-2.0040926">
        <ele>7.631</ele>
        <time>2018-08-18T08:48:45.410Z</time>
      </trkpt>
      <trkpt lat="48.3961281" lon="-2.0040478">
        <ele>7.752</ele>
        <time>2018-08-18T08:48:47.562Z</time>
      </trkpt>
      <trkpt lat="48.3962179" lon="-2.0039846">
        <ele>7.891</ele>
        <time>2018-08-18T08:48:49.781Z</time>
      </trkpt>
      <trkpt lat="48.3963171" lon="-2.0039224">
        <ele>7.846</ele>
        <time>2018-08-18T08:48:52.101Z</time>
      </trkpt>
      <trkpt lat="48.3964311" lon="-2.0038647">
        <ele>7.555</ele>
        <time>2018-08-18T08:48:54.599Z</time>
      </trkpt>
      <trkpt lat="48.3965529" lon="-2.0038245">
        <ele>7.212</ele>
        <time>2018-08-18T08:48:57.131Z</time>
      </trkpt>
      <trkpt lat="48.3966461" lon="-2.0038072">
        <ele>7.003</ele>
        <time>2018-08-18T08:48:59.196Z</time>
      </trkpt>
      <trkpt lat="48.3967653" lon="-2.0037857">
        <ele>7.107</ele>
        <time>2018-08-18T08:49:02.041Z</time>
      </trkpt>
      <trkpt lat="48.3968680" lon="-2.0037895">
        <ele>7.846</ele>
        <time>2018-08-18T08:49:04.549Z</time>
      </trkpt>
      <trkpt lat="48.3969578" lon="-2.0038081">
        <ele>9.336</ele>
        <time>2018-08-18T08:49:06.697Z</time>
      </trkpt>
      <trkpt lat="48.3970460" lon="-2.0038775">
        <ele>11.003</ele>
        <time>2018-08-18T08:49:08.934Z</time>
      </trkpt>
      <trkpt lat="48.3971468" lon="-2.0039484">
        <ele>12.152</ele>
        <time>2018-08-18T08:49:11.351Z</time>
      </trkpt>
      <trkpt lat="48.3972565" lon="-2.0040236">
        <ele>12.567</ele>
        <time>2018-08-18T08:49:13.991Z</time>
      </trkpt>
      <trkpt lat="48.3973495" lon="-2.0040850">
        <ele>12.428</ele>
        <time>2018-08-18T08:49:16.153Z</time>
      </trkpt>
      <trkpt lat="48.3974800" lon="-2.0041474">
        <ele>11.981</ele>
        <time>2018-08-18T08:49:19.214Z</time>
      </trkpt>
      <trkpt lat="48.3975758" lon="-2.0041875">
        <ele>11.464</ele>
        <time>2018-08-18T08:49:21.741Z</time>
      </trkpt>
      <trkpt lat="48.3976622" lon="-2.0042343">
        <ele>11.089</ele>
        <time>2018-08-18T08:49:24.868Z</time>
      </trkpt>
      <trkpt lat="48.3977586" lon="-2.0043040">
        <ele>11.205</ele>
        <time>2018-08-18T08:49:29.306Z</time>
      </trkpt>
      <trkpt lat="48.3978473" lon="-2.0043829">
        <ele>11.844</ele>
        <time>2018-08-18T08:49:35.021Z</time>
      </trkpt>
      <trkpt lat="48.3979456" lon="-2.0044675">
        <ele>12.461</ele>
        <time>2018-08-18T08:49:41.503Z</time>
      </trkpt>
      <trkpt lat="48.3980517" lon="-2.0045541">
        <ele>12.570</ele>
        <time>2018-08-18T08:49:46.377Z</time>
      </trkpt>
      <trkpt lat="48.3981430" lon="-2.0046238">
        <ele>12.326</ele>
        <time>2018-08-18T08:49:49.912Z</time>
      </trkpt>
      <trkpt lat="48.3982314" lon="-2.0046739">
        <ele>12.133</ele>
        <time>2018-08-18T08:49:53.018Z</time>
      </trkpt>
      <trkpt lat="48.3983244" lon="-2.0047307">
        <ele>12.319</ele>
        <time>2018-08-18T08:49:55.890Z</time>
      </trkpt>
      <trkpt lat="48.3984123" lon="-2.0047775">
        <ele>13.122</ele>
        <time>2018-08-18T08:49:58.273Z</time>
      </trkpt>
      <trkpt lat="48.3985149" lon="-2.0048341">
        <ele>14.338</ele>
        <time>2018-08-18T08:50:01.163Z</time>
      </trkpt>
      <trkpt lat="48.3986490" lon="-2.0049458">
        <ele>14.974</ele>
        <time>2018-08-18T08:50:05.571Z</time>
      </trkpt>
      <trkpt lat="48.3987302" lon="-2.0050154">
        <ele>14.143</ele>
        <time>2018-08-18T08:50:08.187Z</time>
      </trkpt>
      <trkpt lat="48.3988371" lon="-2.0051053">
        <ele>12.363</ele>
        <time>2018-08-18T08:50:11.601Z</time>
      </trkpt>
      <trkpt lat="48.3989415" lon="-2.0051978">
        <ele>11.195</ele>
        <time>2018-08-18T08:50:15.348Z</time>
      </trkpt>
      <trkpt lat="48.3990334" lon="-2.0052834">
        <ele>11.340</ele>
        <time>2018-08-18T08:50:19.077Z</time>
      </trkpt>
      <trkpt lat="48.3991225" lon="-2.0053512">
        <ele>11.883</ele>
        <time>2018-08-18T08:50:22.628Z</time>
      </trkpt>
      <trkpt lat="48.3992182" lon="-2.0054169">
        <ele>11.920</ele>
        <time>2018-08-18T08:50:26.047Z</time>
      </trkpt>
      <trkpt lat="48.3993028" lon="-2.0054642">
        <ele>11.613</ele>
        <time>2018-08-18T08:50:28.476Z</time>
      </trkpt>
      <trkpt lat="48.3993880" lon="-2.0055386">
        <ele>11.477</ele>
        <time>2018-08-18T08:50:30.834Z</time>
      </trkpt>
      <trkpt lat="48.3994821" lon="-2.0056336">
        <ele>11.792</ele>
        <time>2018-08-18T08:50:33.759Z</time>
      </trkpt>
      <trkpt lat="48.3995674" lon="-2.0056859">
        <ele>12.287</ele>
        <time>2018-08-18T08:50:36.495Z</time>
      </trkpt>
      <trkpt lat="48.3996621" lon="-2.0057464">
        <ele>12.590</ele>
        <time>2018-08-18T08:50:39.961Z</time>
      </trkpt>
      <trkpt lat="48.3997575" lon="-2.0057960">
        <ele>12.664</ele>
        <time>2018-08-18T08:50:43.798Z</time>
      </trkpt>
      <trkpt lat="48.3998554" lon="-2.0058376">
        <ele>12.532</ele>
        <time>2018-08-18T08:50:47.562Z</time>
      </trkpt>
      <trkpt lat="48.3999630" lon="-2.0058723">
        <ele>12.141</ele>
        <time>2018-08-18T08:50:51.590Z</time>
      </trkpt>
      <trkpt lat="48.4000547" lon="-2.0058671">
        <ele>11.460</ele>
        <time>2018-08-18T08:50:55.158Z</time>
      </trkpt>
      <trkpt lat="48.4001499" lon="-2.0058670">
        <ele>10.780</ele>
        <time>2018-08-18T08:50:59.149Z</time>
      </trkpt>
      <trkpt lat="48.4002581" lon="-2.0059021">
        <ele>10.955</ele>
        <time>2018-08-18T08:51:04.242Z</time>
      </trkpt>
      <trkpt lat="48.4003666" lon="-2.0059428">
        <ele>12.101</ele>
        <time>2018-08-18T08:51:09.733Z</time>
      </trkpt>
      <trkpt lat="48.4004860" lon="-2.0060022">
        <ele>13.140</ele>
        <time>2018-08-18T08:51:15.973Z</time>
      </trkpt>
      <trkpt lat="48.4005877" lon="-2.0060639">
        <ele>13.068</ele>
        <time>2018-08-18T08:51:23.338Z</time>
      </trkpt>
      <trkpt lat="48.4011034" lon="-2.0062650">
        <ele>11.044</ele>
        <time>2018-08-18T08:51:43.162Z</time>
      </trkpt>
      <trkpt lat="48.4012102" lon="-2.0063265">
        <ele>10.200</ele>
        <time>2018-08-18T08:51:47.265Z</time>
      </trkpt>
      <trkpt lat="48.4013150" lon="-2.0063819">
        <ele>9.011</ele>
        <time>2018-08-18T08:51:51.432Z</time>
      </trkpt>
      <trkpt lat="48.4014598" lon="-2.0064772">
        <ele>7.676</ele>
        <time>2018-08-18T08:51:56.999Z</time>
      </trkpt>
      <trkpt lat="48.4014598" lon="-2.0064772">
        <ele>6.957</ele>
        <time>2018-08-18T08:52:15.999Z</time>
      </trkpt>
      <trkpt lat="48.4014598" lon="-2.0064772">
        <ele>7.014</ele>
        <time>2018-08-18T08:52:40.000Z</time>
      </trkpt>
      <trkpt lat="48.4017033" lon="-2.0066305">
        <ele>7.378</ele>
        <time>2018-08-18T08:53:03.769Z</time>
      </trkpt>
      <trkpt lat="48.4017984" lon="-2.0066622">
        <ele>8.505</ele>
        <time>2018-08-18T08:53:08.608Z</time>
      </trkpt>
      <trkpt lat="48.4018894" lon="-2.0067171">
        <ele>10.859</ele>
        <time>2018-08-18T08:53:12.732Z</time>
      </trkpt>
      <trkpt lat="48.4019774" lon="-2.0067516">
        <ele>13.067</ele>
        <time>2018-08-18T08:53:15.988Z</time>
      </trkpt>
      <trkpt lat="48.4020728" lon="-2.0067815">
        <ele>13.440</ele>
        <time>2018-08-18T08:53:19.282Z</time>
      </trkpt>
      <trkpt lat="48.4021678" lon="-2.0068301">
        <ele>12.142</ele>
        <time>2018-08-18T08:53:22.594Z</time>
      </trkpt>
      <trkpt lat="48.4022684" lon="-2.0068759">
        <ele>10.256</ele>
        <time>2018-08-18T08:53:25.853Z</time>
      </trkpt>
      <trkpt lat="48.4023594" lon="-2.0069060">
        <ele>8.553</ele>
        <time>2018-08-18T08:53:28.726Z</time>
      </trkpt>
      <trkpt lat="48.4024719" lon="-2.0069479">
        <ele>7.353</ele>
        <time>2018-08-18T08:53:32.611Z</time>
      </trkpt>
      <trkpt lat="48.4025616" lon="-2.0070029">
        <ele>7.081</ele>
        <time>2018-08-18T08:53:36.136Z</time>
      </trkpt>
      <trkpt lat="48.4026498" lon="-2.0070911">
        <ele>7.690</ele>
        <time>2018-08-18T08:53:39.610Z</time>
      </trkpt>
      <trkpt lat="48.4027528" lon="-2.0071389">
        <ele>8.205</ele>
        <time>2018-08-18T08:53:42.269Z</time>
      </trkpt>
      <trkpt lat="48.4028434" lon="-2.0071649">
        <ele>7.911</ele>
        <time>2018-08-18T08:53:44.125Z</time>
      </trkpt>
      <trkpt lat="48.4029351" lon="-2.0071911">
        <ele>7.268</ele>
        <time>2018-08-18T08:53:45.937Z</time>
      </trkpt>
      <trkpt lat="48.4030542" lon="-2.0072479">
        <ele>6.912</ele>
        <time>2018-08-18T08:53:48.445Z</time>
      </trkpt>
      <trkpt lat="48.4031597" lon="-2.0072897">
        <ele>6.950</ele>
        <time>2018-08-18T08:53:50.720Z</time>
      </trkpt>
      <trkpt lat="48.4032708" lon="-2.0073253">
        <ele>7.279</ele>
        <time>2018-08-18T08:53:53.151Z</time>
      </trkpt>
      <trkpt lat="48.4033798" lon="-2.0073786">
        <ele>7.786</ele>
        <time>2018-08-18T08:53:55.600Z</time>
      </trkpt>
      <trkpt lat="48.4034894" lon="-2.0074221">
        <ele>8.253</ele>
        <time>2018-08-18T08:53:58.070Z</time>
      </trkpt>
      <trkpt lat="48.4035890" lon="-2.0074559">
        <ele>8.580</ele>
        <time>2018-08-18T08:54:00.376Z</time>
      </trkpt>
      <trkpt lat="48.4036793" lon="-2.0075008">
        <ele>8.935</ele>
        <time>2018-08-18T08:54:02.612Z</time>
      </trkpt>
      <trkpt lat="48.4037676" lon="-2.0075597">
        <ele>9.440</ele>
        <time>2018-08-18T08:54:05.023Z</time>
      </trkpt>
      <trkpt lat="48.4038512" lon="-2.0076202">
        <ele>10.205</ele>
        <time>2018-08-18T08:54:07.457Z</time>
      </trkpt>
      <trkpt lat="48.4039378" lon="-2.0076670">
        <ele>11.181</ele>
        <time>2018-08-18T08:54:09.851Z</time>
      </trkpt>
      <trkpt lat="48.4040345" lon="-2.0077121">
        <ele>11.968</ele>
        <time>2018-08-18T08:54:12.471Z</time>
      </trkpt>
      <trkpt lat="48.4041383" lon="-2.0077612">
        <ele>12.408</ele>
        <time>2018-08-18T08:54:15.219Z</time>
      </trkpt>
      <trkpt lat="48.4042363" lon="-2.0078322">
        <ele>13.086</ele>
        <time>2018-08-18T08:54:17.852Z</time>
      </trkpt>
      <trkpt lat="48.4043255" lon="-2.0078694">
        <ele>14.318</ele>
        <time>2018-08-18T08:54:20.000Z</time>
      </trkpt>
      <trkpt lat="48.4044297" lon="-2.0078981">
        <ele>15.296</ele>
        <time>2018-08-18T08:54:22.722Z</time>
      </trkpt>
      <trkpt lat="48.4045424" lon="-2.0079301">
        <ele>15.345</ele>
        <time>2018-08-18T08:54:25.908Z</time>
      </trkpt>
      <trkpt lat="48.4046328" lon="-2.0079510">
        <ele>15.038</ele>
        <time>2018-08-18T08:54:28.504Z</time>
      </trkpt>
      <trkpt lat="48.4047427" lon="-2.0079335">
        <ele>15.191</ele>
        <time>2018-08-18T08:54:31.411Z</time>
      </trkpt>
      <trkpt lat="48.4048442" lon="-2.0079938">
        <ele>15.849</ele>
        <time>2018-08-18T08:54:34.098Z</time>
      </trkpt>
      <trkpt lat="48.4049332" lon="-2.0080354">
        <ele>16.474</ele>
        <time>2018-08-18T08:54:36.386Z</time>
      </trkpt>
      <trkpt lat="48.4050416" lon="-2.0080541">
        <ele>16.738</ele>
        <time>2018-08-18T08:54:39.247Z</time>
      </trkpt>
      <trkpt lat="48.4051272" lon="-2.0081066">
        <ele>17.026</ele>
        <time>2018-08-18T08:54:41.995Z</time>
      </trkpt>
      <trkpt lat="48.4052195" lon="-2.0081672">
        <ele>17.677</ele>
        <time>2018-08-18T08:54:45.164Z</time>
      </trkpt>
      <trkpt lat="48.4053099" lon="-2.0082075">
        <ele>17.996</ele>
        <time>2018-08-18T08:54:48.494Z</time>
      </trkpt>
      <trkpt lat="48.4054163" lon="-2.0082493">
        <ele>17.374</ele>
        <time>2018-08-18T08:54:52.846Z</time>
      </trkpt>
      <trkpt lat="48.4055131" lon="-2.0083053">
        <ele>16.608</ele>
        <time>2018-08-18T08:54:57.119Z</time>
      </trkpt>
      <trkpt lat="48.4056129" lon="-2.0083493">
        <ele>16.633</ele>
        <time>2018-08-18T08:55:01.412Z</time>
      </trkpt>
      <trkpt lat="48.4057209" lon="-2.0083964">
        <ele>17.274</ele>
        <time>2018-08-18T08:55:05.677Z</time>
      </trkpt>
      <trkpt lat="48.4058111" lon="-2.0084353">
        <ele>17.881</ele>
        <time>2018-08-18T08:55:08.858Z</time>
      </trkpt>
      <trkpt lat="48.4059278" lon="-2.0084583">
        <ele>17.775</ele>
        <time>2018-08-18T08:55:13.169Z</time>
      </trkpt>
      <trkpt lat="48.4060159" lon="-2.0084998">
        <ele>16.437</ele>
        <time>2018-08-18T08:55:16.775Z</time>
      </trkpt>
      <trkpt lat="48.4061237" lon="-2.0085302">
        <ele>14.365</ele>
        <time>2018-08-18T08:55:20.782Z</time>
      </trkpt>
      <trkpt lat="48.4062115" lon="-2.0085690">
        <ele>12.655</ele>
        <time>2018-08-18T08:55:24.479Z</time>
      </trkpt>
      <trkpt lat="48.4063005" lon="-2.0086112">
        <ele>11.836</ele>
        <time>2018-08-18T08:55:28.496Z</time>
      </trkpt>
      <trkpt lat="48.4063917" lon="-2.0086495">
        <ele>11.637</ele>
        <time>2018-08-18T08:55:32.343Z</time>
      </trkpt>
      <trkpt lat="48.4064943" lon="-2.0086861">
        <ele>11.722</ele>
        <time>2018-08-18T08:55:36.841Z</time>
      </trkpt>
      <trkpt lat="48.4065991" lon="-2.0087378">
        <ele>11.987</ele>
        <time>2018-08-18T08:55:41.666Z</time>
      </trkpt>
      <trkpt lat="48.4066859" lon="-2.0087767">
        <ele>12.390</ele>
        <time>2018-08-18T08:55:45.591Z</time>
      </trkpt>
      <trkpt lat="48.4067902" lon="-2.0088551">
        <ele>12.995</ele>
        <time>2018-08-18T08:55:50.856Z</time>
      </trkpt>
      <trkpt lat="48.4068803" lon="-2.0089590">
        <ele>13.841</ele>
        <time>2018-08-18T08:55:55.528Z</time>
      </trkpt>
      <trkpt lat="48.4069874" lon="-2.0090113">
        <ele>14.514</ele>
        <time>2018-08-18T08:56:00.269Z</time>
      </trkpt>
      <trkpt lat="48.4071133" lon="-2.0090802">
        <ele>14.780</ele>
        <time>2018-08-18T08:56:05.534Z</time>
      </trkpt>
      <trkpt lat="48.4072246" lon="-2.0091315">
        <ele>14.651</ele>
        <time>2018-08-18T08:56:09.277Z</time>
      </trkpt>
      <trkpt lat="48.4075506" lon="-2.0092315">
        <ele>13.910</ele>
        <time>2018-08-18T08:56:17.641Z</time>
      </trkpt>
      <trkpt lat="48.4076513" lon="-2.0093038">
        <ele>11.971</ele>
        <time>2018-08-18T08:56:20.286Z</time>
      </trkpt>
      <trkpt lat="48.4077587" lon="-2.0093803">
        <ele>9.112</ele>
        <time>2018-08-18T08:56:23.366Z</time>
      </trkpt>
      <trkpt lat="48.4078495" lon="-2.0094736">
        <ele>6.896</ele>
        <time>2018-08-18T08:56:26.446Z</time>
      </trkpt>
      <trkpt lat="48.4079302" lon="-2.0095479">
        <ele>6.333</ele>
        <time>2018-08-18T08:56:28.910Z</time>
      </trkpt>
      <trkpt lat="48.4080246" lon="-2.0096343">
        <ele>6.902</ele>
        <time>2018-08-18T08:56:31.420Z</time>
      </trkpt>
      <trkpt lat="48.4081074" lon="-2.0096887">
        <ele>7.717</ele>
        <time>2018-08-18T08:56:33.401Z</time>
      </trkpt>
      <trkpt lat="48.4082338" lon="-2.0097898">
        <ele>8.252</ele>
        <time>2018-08-18T08:56:36.449Z</time>
      </trkpt>
      <trkpt lat="48.4083570" lon="-2.0098842">
        <ele>8.444</ele>
        <time>2018-08-18T08:56:39.308Z</time>
      </trkpt>
      <trkpt lat="48.4085057" lon="-2.0099686">
        <ele>8.592</ele>
        <time>2018-08-18T08:56:42.645Z</time>
      </trkpt>
      <trkpt lat="48.4086246" lon="-2.0100210">
        <ele>8.995</ele>
        <time>2018-08-18T08:56:45.438Z</time>
      </trkpt>
      <trkpt lat="48.4087357" lon="-2.0100468">
        <ele>9.523</ele>
        <time>2018-08-18T08:56:48.106Z</time>
      </trkpt>
      <trkpt lat="48.4088366" lon="-2.0100602">
        <ele>9.834</ele>
        <time>2018-08-18T08:56:50.624Z</time>
      </trkpt>
      <trkpt lat="48.4089276" lon="-2.0100569">
        <ele>9.653</ele>
        <time>2018-08-18T08:56:53.122Z</time>
      </trkpt>
      <trkpt lat="48.4090318" lon="-2.0100909">
        <ele>9.027</ele>
        <time>2018-08-18T08:56:56.197Z</time>
      </trkpt>
      <trkpt lat="48.4091193" lon="-2.0101638">
        <ele>8.624</ele>
        <time>2018-08-18T08:56:59.262Z</time>
      </trkpt>
      <trkpt lat="48.4092030" lon="-2.0102535">
        <ele>8.897</ele>
        <time>2018-08-18T08:57:02.284Z</time>
      </trkpt>
      <trkpt lat="48.4092860" lon="-2.0103273">
        <ele>9.384</ele>
        <time>2018-08-18T08:57:05.036Z</time>
      </trkpt>
      <trkpt lat="48.4093866" lon="-2.0104139">
        <ele>9.546</ele>
        <time>2018-08-18T08:57:08.192Z</time>
      </trkpt>
      <trkpt lat="48.4094671" lon="-2.0105077">
        <ele>9.406</ele>
        <time>2018-08-18T08:57:10.925Z</time>
      </trkpt>
      <trkpt lat="48.4095350" lon="-2.0105967">
        <ele>9.459</ele>
        <time>2018-08-18T08:57:13.407Z</time>
      </trkpt>
      <trkpt lat="48.4095881" lon="-2.0107137">
        <ele>9.992</ele>
        <time>2018-08-18T08:57:16.080Z</time>
      </trkpt>
      <trkpt lat="48.4096394" lon="-2.0108367">
        <ele>10.623</ele>
        <time>2018-08-18T08:57:18.808Z</time>
      </trkpt>
      <trkpt lat="48.4096868" lon="-2.0109794">
        <ele>11.027</ele>
        <time>2018-08-18T08:57:21.850Z</time>
      </trkpt>
      <trkpt lat="48.4097305" lon="-2.0111298">
        <ele>11.333</ele>
        <time>2018-08-18T08:57:25.064Z</time>
      </trkpt>
      <trkpt lat="48.4097675" lon="-2.0112694">
        <ele>11.628</ele>
        <time>2018-08-18T08:57:28.000Z</time>
      </trkpt>
      <trkpt lat="48.4097675" lon="-2.0112694">
        <ele>11.869</ele>
        <time>2018-08-18T08:57:44.000Z</time>
      </trkpt>
      <trkpt lat="48.4097675" lon="-2.0112694">
        <ele>11.986</ele>
        <time>2018-08-18T08:58:10.674Z</time>
      </trkpt>
      <trkpt lat="48.4098446" lon="-2.0116601">
        <ele>11.970</ele>
        <time>2018-08-18T08:58:32.976Z</time>
      </trkpt>
      <trkpt lat="48.4099080" lon="-2.0117866">
        <ele>11.904</ele>
        <time>2018-08-18T08:58:36.769Z</time>
      </trkpt>
      <trkpt lat="48.4099900" lon="-2.0119059">
        <ele>11.865</ele>
        <time>2018-08-18T08:58:40.243Z</time>
      </trkpt>
      <trkpt lat="48.4100730" lon="-2.0120261">
        <ele>11.864</ele>
        <time>2018-08-18T08:58:43.804Z</time>
      </trkpt>
      <trkpt lat="48.4101546" lon="-2.0121256">
        <ele>12.185</ele>
        <time>2018-08-18T08:58:46.934Z</time>
      </trkpt>
      <trkpt lat="48.4102498" lon="-2.0121935">
        <ele>13.176</ele>
        <time>2018-08-18T08:58:49.885Z</time>
      </trkpt>
      <trkpt lat="48.4103402" lon="-2.0122618">
        <ele>14.572</ele>
        <time>2018-08-18T08:58:52.690Z</time>
      </trkpt>
      <trkpt lat="48.4104330" lon="-2.0123075">
        <ele>15.699</ele>
        <time>2018-08-18T08:58:55.399Z</time>
      </trkpt>
      <trkpt lat="48.4105212" lon="-2.0123434">
        <ele>16.325</ele>
        <time>2018-08-18T08:58:57.937Z</time>
      </trkpt>
      <trkpt lat="48.4106237" lon="-2.0123435">
        <ele>16.513</ele>
        <time>2018-08-18T08:59:00.828Z</time>
      </trkpt>
      <trkpt lat="48.4107189" lon="-2.0123644">
        <ele>16.462</ele>
        <time>2018-08-18T08:59:03.592Z</time>
      </trkpt>
      <trkpt lat="48.4108181" lon="-2.0123910">
        <ele>16.531</ele>
        <time>2018-08-18T08:59:06.521Z</time>
      </trkpt>
      <trkpt lat="48.4109182" lon="-2.0124130">
        <ele>17.049</ele>
        <time>2018-08-18T08:59:09.868Z</time>
      </trkpt>
      <trkpt lat="48.4110117" lon="-2.0124426">
        <ele>17.962</ele>
        <time>2018-08-18T08:59:13.440Z</time>
      </trkpt>
      <trkpt lat="48.4111257" lon="-2.0124380">
        <ele>19.575</ele>
        <time>2018-08-18T08:59:17.649Z</time>
      </trkpt>
      <trkpt lat="48.4112205" lon="-2.0124432">
        <ele>22.621</ele>
        <time>2018-08-18T08:59:21.251Z</time>
      </trkpt>
      <trkpt lat="48.4113322" lon="-2.0124224">
        <ele>26.440</ele>
        <time>2018-08-18T08:59:25.938Z</time>
      </trkpt>
      <trkpt lat="48.4114262" lon="-2.0124153">
        <ele>29.125</ele>
        <time>2018-08-18T08:59:30.482Z</time>
      </trkpt>
      <trkpt lat="48.4115301" lon="-2.0124634">
        <ele>29.992</ele>
        <time>2018-08-18T08:59:34.905Z</time>
      </trkpt>
      <trkpt lat="48.4116247" lon="-2.0125122">
        <ele>29.300</ele>
        <time>2018-08-18T08:59:37.921Z</time>
      </trkpt>
      <trkpt lat="48.4117284" lon="-2.0125488">
        <ele>27.242</ele>
        <time>2018-08-18T08:59:40.847Z</time>
      </trkpt>
      <trkpt lat="48.4118270" lon="-2.0125659">
        <ele>24.613</ele>
        <time>2018-08-18T08:59:43.492Z</time>
      </trkpt>
      <trkpt lat="48.4119838" lon="-2.0125747">
        <ele>22.285</ele>
        <time>2018-08-18T08:59:47.681Z</time>
      </trkpt>
      <trkpt lat="48.4120780" lon="-2.0125836">
        <ele>20.387</ele>
        <time>2018-08-18T08:59:50.186Z</time>
      </trkpt>
      <trkpt lat="48.4121686" lon="-2.0125978">
        <ele>18.711</ele>
        <time>2018-08-18T08:59:52.663Z</time>
      </trkpt>
      <trkpt lat="48.4122895" lon="-2.0125991">
        <ele>17.286</ele>
        <time>2018-08-18T08:59:56.186Z</time>
      </trkpt>
      <trkpt lat="48.4124071" lon="-2.0125948">
        <ele>16.172</ele>
        <time>2018-08-18T08:59:59.714Z</time>
      </trkpt>
      <trkpt lat="48.4125188" lon="-2.0125958">
        <ele>14.925</ele>
        <time>2018-08-18T09:00:02.781Z</time>
      </trkpt>
      <trkpt lat="48.4126102" lon="-2.0125982">
        <ele>13.117</ele>
        <time>2018-08-18T09:00:05.251Z</time>
      </trkpt>
      <trkpt lat="48.4127007" lon="-2.0126154">
        <ele>11.315</ele>
        <time>2018-08-18T09:00:07.795Z</time>
      </trkpt>
      <trkpt lat="48.4128168" lon="-2.0126479">
        <ele>10.344</ele>
        <time>2018-08-18T09:00:11.171Z</time>
      </trkpt>
      <trkpt lat="48.4129225" lon="-2.0126892">
        <ele>10.750</ele>
        <time>2018-08-18T09:00:14.392Z</time>
      </trkpt>
      <trkpt lat="48.4130092" lon="-2.0127244">
        <ele>12.383</ele>
        <time>2018-08-18T09:00:17.028Z</time>
      </trkpt>
      <trkpt lat="48.4131010" lon="-2.0127947">
        <ele>14.047</ele>
        <time>2018-08-18T09:00:20.026Z</time>
      </trkpt>
      <trkpt lat="48.4131906" lon="-2.0128855">
        <ele>14.538</ele>
        <time>2018-08-18T09:00:23.191Z</time>
      </trkpt>
      <trkpt lat="48.4132781" lon="-2.0129725">
        <ele>13.925</ele>
        <time>2018-08-18T09:00:26.266Z</time>
      </trkpt>
      <trkpt lat="48.4133681" lon="-2.0130757">
        <ele>13.114</ele>
        <time>2018-08-18T09:00:29.618Z</time>
      </trkpt>
      <trkpt lat="48.4134483" lon="-2.0131552">
        <ele>12.725</ele>
        <time>2018-08-18T09:00:32.617Z</time>
      </trkpt>
      <trkpt lat="48.4135333" lon="-2.0132295">
        <ele>12.626</ele>
        <time>2018-08-18T09:00:35.705Z</time>
      </trkpt>
      <trkpt lat="48.4136121" lon="-2.0133053">
        <ele>12.212</ele>
        <time>2018-08-18T09:00:38.511Z</time>
      </trkpt>
      <trkpt lat="48.4136941" lon="-2.0133701">
        <ele>11.244</ele>
        <time>2018-08-18T09:00:41.166Z</time>
      </trkpt>
      <trkpt lat="48.4137791" lon="-2.0134227">
        <ele>10.451</ele>
        <time>2018-08-18T09:00:43.754Z</time>
      </trkpt>
      <trkpt lat="48.4138719" lon="-2.0135063">
        <ele>10.423</ele>
        <time>2018-08-18T09:00:46.829Z</time>
      </trkpt>
      <trkpt lat="48.4139570" lon="-2.0135964">
        <ele>10.790</ele>
        <time>2018-08-18T09:00:49.802Z</time>
      </trkpt>
      <trkpt lat="48.4140504" lon="-2.0136999">
        <ele>10.864</ele>
        <time>2018-08-18T09:00:53.084Z</time>
      </trkpt>
      <trkpt lat="48.4141340" lon="-2.0137568">
        <ele>10.211</ele>
        <time>2018-08-18T09:00:55.600Z</time>
      </trkpt>
      <trkpt lat="48.4142351" lon="-2.0138046">
        <ele>8.951</ele>
        <time>2018-08-18T09:00:58.434Z</time>
      </trkpt>
      <trkpt lat="48.4143414" lon="-2.0138445">
        <ele>7.721</ele>
        <time>2018-08-18T09:01:01.387Z</time>
      </trkpt>
      <trkpt lat="48.4144520" lon="-2.0138934">
        <ele>7.081</ele>
        <time>2018-08-18T09:01:04.578Z</time>
      </trkpt>
      <trkpt lat="48.4145740" lon="-2.0139425">
        <ele>7.392</ele>
        <time>2018-08-18T09:01:08.119Z</time>
      </trkpt>
      <trkpt lat="48.4146689" lon="-2.0139688">
        <ele>8.698</ele>
        <time>2018-08-18T09:01:10.971Z</time>
      </trkpt>
      <trkpt lat="48.4147604" lon="-2.0139994">
        <ele>10.331</ele>
        <time>2018-08-18T09:01:13.854Z</time>
      </trkpt>
      <trkpt lat="48.4148670" lon="-2.0140302">
        <ele>11.482</ele>
        <time>2018-08-18T09:01:17.398Z</time>
      </trkpt>
      <trkpt lat="48.4149599" lon="-2.0140608">
        <ele>12.063</ele>
        <time>2018-08-18T09:01:20.793Z</time>
      </trkpt>
      <trkpt lat="48.4150616" lon="-2.0141156">
        <ele>12.512</ele>
        <time>2018-08-18T09:01:25.242Z</time>
      </trkpt>
      <trkpt lat="48.4151759" lon="-2.0141009">
        <ele>13.114</ele>
        <time>2018-08-18T09:01:30.513Z</time>
      </trkpt>
      <trkpt lat="48.4152739" lon="-2.0140931">
        <ele>13.904</ele>
        <time>2018-08-18T09:01:35.703Z</time>
      </trkpt>
      <trkpt lat="48.4153783" lon="-2.0140678">
        <ele>14.820</ele>
        <time>2018-08-18T09:01:42.181Z</time>
      </trkpt>
      <trkpt lat="48.4154766" lon="-2.0140710">
        <ele>15.637</ele>
        <time>2018-08-18T09:01:47.413Z</time>
      </trkpt>
      <trkpt lat="48.4155772" lon="-2.0140765">
        <ele>16.142</ele>
        <time>2018-08-18T09:01:50.638Z</time>
      </trkpt>
      <trkpt lat="48.4156583" lon="-2.0141365">
        <ele>16.397</ele>
        <time>2018-08-18T09:01:52.751Z</time>
      </trkpt>
      <trkpt lat="48.4157735" lon="-2.0141117">
        <ele>15.986</ele>
        <time>2018-08-18T09:01:54.922Z</time>
      </trkpt>
      <trkpt lat="48.4158802" lon="-2.0140700">
        <ele>14.593</ele>
        <time>2018-08-18T09:01:56.809Z</time>
      </trkpt>
      <trkpt lat="48.4160660" lon="-2.0140525">
        <ele>12.935</ele>
        <time>2018-08-18T09:02:00.125Z</time>
      </trkpt>
      <trkpt lat="48.4161716" lon="-2.0140328">
        <ele>11.416</ele>
        <time>2018-08-18T09:02:02.101Z</time>
      </trkpt>
      <trkpt lat="48.4163094" lon="-2.0140070">
        <ele>9.859</ele>
        <time>2018-08-18T09:02:04.564Z</time>
      </trkpt>
      <trkpt lat="48.4164810" lon="-2.0139957">
        <ele>8.932</ele>
        <time>2018-08-18T09:02:07.260Z</time>
      </trkpt>
      <trkpt lat="48.4165760" lon="-2.0139268">
        <ele>9.124</ele>
        <time>2018-08-18T09:02:09.069Z</time>
      </trkpt>
      <trkpt lat="48.4167967" lon="-2.0140647">
        <ele>9.676</ele>
        <time>2018-08-18T09:02:13.830Z</time>
      </trkpt>
      <trkpt lat="48.4169610" lon="-2.0140991">
        <ele>9.830</ele>
        <time>2018-08-18T09:02:17.137Z</time>
      </trkpt>
      <trkpt lat="48.4170576" lon="-2.0141355">
        <ele>9.586</ele>
        <time>2018-08-18T09:02:19.275Z</time>
      </trkpt>
      <trkpt lat="48.4171494" lon="-2.0141268">
        <ele>9.283</ele>
        <time>2018-08-18T09:02:23.452Z</time>
      </trkpt>
      <trkpt lat="48.4172432" lon="-2.0141369">
        <ele>9.385</ele>
        <time>2018-08-18T09:02:29.999Z</time>
      </trkpt>
      <trkpt lat="48.4172432" lon="-2.0141369">
        <ele>9.999</ele>
        <time>2018-08-18T09:02:30.999Z</time>
      </trkpt>
      <trkpt lat="48.4172432" lon="-2.0141369">
        <ele>10.520</ele>
        <time>2018-08-18T09:03:48.146Z</time>
      </trkpt>
      <trkpt lat="48.4174201" lon="-2.0142747">
        <ele>10.508</ele>
        <time>2018-08-18T09:04:25.999Z</time>
      </trkpt>
      <trkpt lat="48.4174201" lon="-2.0142747">
        <ele>10.297</ele>
        <time>2018-08-18T09:04:32.999Z</time>
      </trkpt>
      <trkpt lat="48.4174201" lon="-2.0142747">
        <ele>10.273</ele>
        <time>2018-08-18T09:04:33.027Z</time>
      </trkpt>
      <trkpt lat="48.4175625" lon="-2.0143142">
        <ele>10.385</ele>
        <time>2018-08-18T09:04:41.794Z</time>
      </trkpt>
      <trkpt lat="48.4176540" lon="-2.0143629">
        <ele>10.446</ele>
        <time>2018-08-18T09:04:45.032Z</time>
      </trkpt>
      <trkpt lat="48.4177470" lon="-2.0143988">
        <ele>10.289</ele>
        <time>2018-08-18T09:04:47.999Z</time>
      </trkpt>
      <trkpt lat="48.4177470" lon="-2.0143988">
        <ele>9.904</ele>
        <time>2018-08-18T09:04:57.999Z</time>
      </trkpt>
      <trkpt lat="48.4177470" lon="-2.0143988">
        <ele>9.606</ele>
        <time>2018-08-18T09:06:47.990Z</time>
      </trkpt>
      <trkpt lat="48.4179836" lon="-2.0144142">
        <ele>9.610</ele>
        <time>2018-08-18T09:07:06.550Z</time>
      </trkpt>
      <trkpt lat="48.4180785" lon="-2.0144709">
        <ele>9.720</ele>
        <time>2018-08-18T09:07:11.102Z</time>
      </trkpt>
      <trkpt lat="48.4181945" lon="-2.0144991">
        <ele>9.724</ele>
        <time>2018-08-18T09:07:16.339Z</time>
      </trkpt>
      <trkpt lat="48.4182901" lon="-2.0144821">
        <ele>10.150</ele>
        <time>2018-08-18T09:07:21.358Z</time>
      </trkpt>
      <trkpt lat="48.4183867" lon="-2.0144548">
        <ele>11.388</ele>
        <time>2018-08-18T09:07:27.007Z</time>
      </trkpt>
      <trkpt lat="48.4184820" lon="-2.0144603">
        <ele>12.628</ele>
        <time>2018-08-18T09:07:32.771Z</time>
      </trkpt>
      <trkpt lat="48.4185743" lon="-2.0144251">
        <ele>13.064</ele>
        <time>2018-08-18T09:07:38.708Z</time>
      </trkpt>
      <trkpt lat="48.4186612" lon="-2.0143817">
        <ele>12.445</ele>
        <time>2018-08-18T09:07:44.642Z</time>
      </trkpt>
      <trkpt lat="48.4187517" lon="-2.0143303">
        <ele>10.715</ele>
        <time>2018-08-18T09:07:50.662Z</time>
      </trkpt>
      <trkpt lat="48.4188512" lon="-2.0143447">
        <ele>7.317</ele>
        <time>2018-08-18T09:07:55.726Z</time>
      </trkpt>
      <trkpt lat="48.4189700" lon="-2.0143944">
        <ele>1.897</ele>
        <time>2018-08-18T09:08:00.854Z</time>
      </trkpt>
      <trkpt lat="48.4190628" lon="-2.0144570">
        <ele>0.000</ele>
        <time>2018-08-18T09:08:04.661Z</time>
      </trkpt>
      <trkpt lat="48.4191713" lon="-2.0145020">
        <ele>0.000</ele>
        <time>2018-08-18T09:08:08.002Z</time>
      </trkpt>
      <trkpt lat="48.4193024" lon="-2.0145525">
        <ele>0.000</ele>
        <time>2018-08-18T09:08:10.980Z</time>
      </trkpt>
      <trkpt lat="48.4194560" lon="-2.0146381">
        <ele>0.000</ele>
        <time>2018-08-18T09:08:13.764Z</time>
      </trkpt>
      <trkpt lat="48.4199674" lon="-2.0148500">
        <ele>0.000</ele>
        <time>2018-08-18T09:08:23.031Z</time>
      </trkpt>
      <trkpt lat="48.4200737" lon="-2.0148846">
        <ele>0.000</ele>
        <time>2018-08-18T09:08:25.325Z</time>
      </trkpt>
      <trkpt lat="48.4202109" lon="-2.0149242">
        <ele>0.000</ele>
        <time>2018-08-18T09:08:28.355Z</time>
      </trkpt>
      <trkpt lat="48.4203241" lon="-2.0149642">
        <ele>0.667</ele>
        <time>2018-08-18T09:08:30.940Z</time>
      </trkpt>
      <trkpt lat="48.4204336" lon="-2.0150086">
        <ele>1.750</ele>
        <time>2018-08-18T09:08:33.589Z</time>
      </trkpt>
      <trkpt lat="48.4205506" lon="-2.0150247">
        <ele>2.661</ele>
        <time>2018-08-18T09:08:36.807Z</time>
      </trkpt>
      <trkpt lat="48.4206469" lon="-2.0150498">
        <ele>3.918</ele>
        <time>2018-08-18T09:08:39.776Z</time>
      </trkpt>
      <trkpt lat="48.4207480" lon="-2.0150570">
        <ele>6.305</ele>
        <time>2018-08-18T09:08:42.853Z</time>
      </trkpt>
      <trkpt lat="48.4208841" lon="-2.0150425">
        <ele>9.555</ele>
        <time>2018-08-18T09:08:46.108Z</time>
      </trkpt>
      <trkpt lat="48.4210176" lon="-2.0150200">
        <ele>12.314</ele>
        <time>2018-08-18T09:08:48.913Z</time>
      </trkpt>
      <trkpt lat="48.4211440" lon="-2.0149638">
        <ele>13.704</ele>
        <time>2018-08-18T09:08:51.655Z</time>
      </trkpt>
      <trkpt lat="48.4212357" lon="-2.0149154">
        <ele>13.979</ele>
        <time>2018-08-18T09:08:53.823Z</time>
      </trkpt>
      <trkpt lat="48.4213304" lon="-2.0148472">
        <ele>13.989</ele>
        <time>2018-08-18T09:08:56.526Z</time>
      </trkpt>
      <trkpt lat="48.4214233" lon="-2.0147828">
        <ele>14.313</ele>
        <time>2018-08-18T09:08:59.468Z</time>
      </trkpt>
      <trkpt lat="48.4215035" lon="-2.0147084">
        <ele>15.032</ele>
        <time>2018-08-18T09:09:02.278Z</time>
      </trkpt>
      <trkpt lat="48.4216006" lon="-2.0146737">
        <ele>16.072</ele>
        <time>2018-08-18T09:09:05.301Z</time>
      </trkpt>
      <trkpt lat="48.4217036" lon="-2.0146958">
        <ele>17.221</ele>
        <time>2018-08-18T09:09:08.521Z</time>
      </trkpt>
      <trkpt lat="48.4218482" lon="-2.0147276">
        <ele>18.093</ele>
        <time>2018-08-18T09:09:12.941Z</time>
      </trkpt>
      <trkpt lat="48.4219437" lon="-2.0148058">
        <ele>18.524</ele>
        <time>2018-08-18T09:09:15.880Z</time>
      </trkpt>
      <trkpt lat="48.4220210" lon="-2.0148996">
        <ele>18.350</ele>
        <time>2018-08-18T09:09:18.874Z</time>
      </trkpt>
      <trkpt lat="48.4220995" lon="-2.0149759">
        <ele>17.339</ele>
        <time>2018-08-18T09:09:21.964Z</time>
      </trkpt>
      <trkpt lat="48.4221987" lon="-2.0150432">
        <ele>15.780</ele>
        <time>2018-08-18T09:09:27.106Z</time>
      </trkpt>
      <trkpt lat="48.4222973" lon="-2.0150614">
        <ele>14.119</ele>
        <time>2018-08-18T09:09:33.478Z</time>
      </trkpt>
      <trkpt lat="48.4223961" lon="-2.0151186">
        <ele>12.612</ele>
        <time>2018-08-18T09:09:39.528Z</time>
      </trkpt>
      <trkpt lat="48.4224888" lon="-2.0151808">
        <ele>11.701</ele>
        <time>2018-08-18T09:09:43.498Z</time>
      </trkpt>
      <trkpt lat="48.4225809" lon="-2.0152446">
        <ele>11.641</ele>
        <time>2018-08-18T09:09:46.736Z</time>
      </trkpt>
      <trkpt lat="48.4226669" lon="-2.0152968">
        <ele>12.275</ele>
        <time>2018-08-18T09:09:49.578Z</time>
      </trkpt>
      <trkpt lat="48.4227873" lon="-2.0153388">
        <ele>13.374</ele>
        <time>2018-08-18T09:09:53.226Z</time>
      </trkpt>
      <trkpt lat="48.4229129" lon="-2.0153980">
        <ele>14.583</ele>
        <time>2018-08-18T09:09:56.715Z</time>
      </trkpt>
      <trkpt lat="48.4230108" lon="-2.0154953">
        <ele>15.594</ele>
        <time>2018-08-18T09:09:59.817Z</time>
      </trkpt>
      <trkpt lat="48.4230867" lon="-2.0156162">
        <ele>16.263</ele>
        <time>2018-08-18T09:10:03.022Z</time>
      </trkpt>
      <trkpt lat="48.4231801" lon="-2.0157341">
        <ele>16.270</ele>
        <time>2018-08-18T09:10:06.930Z</time>
      </trkpt>
      <trkpt lat="48.4232763" lon="-2.0157705">
        <ele>14.861</ele>
        <time>2018-08-18T09:10:10.551Z</time>
      </trkpt>
      <trkpt lat="48.4233745" lon="-2.0157883">
        <ele>12.018</ele>
        <time>2018-08-18T09:10:14.222Z</time>
      </trkpt>
      <trkpt lat="48.4234849" lon="-2.0158036">
        <ele>9.115</ele>
        <time>2018-08-18T09:10:18.353Z</time>
      </trkpt>
      <trkpt lat="48.4235829" lon="-2.0158410">
        <ele>7.341</ele>
        <time>2018-08-18T09:10:22.015Z</time>
      </trkpt>
      <trkpt lat="48.4240941" lon="-2.0158097">
        <ele>6.353</ele>
        <time>2018-08-18T09:10:38.265Z</time>
      </trkpt>
      <trkpt lat="48.4242164" lon="-2.0157720">
        <ele>5.516</ele>
        <time>2018-08-18T09:10:41.821Z</time>
      </trkpt>
      <trkpt lat="48.4243071" lon="-2.0157193">
        <ele>4.587</ele>
        <time>2018-08-18T09:10:44.715Z</time>
      </trkpt>
      <trkpt lat="48.4244269" lon="-2.0156813">
        <ele>4.133</ele>
        <time>2018-08-18T09:10:47.497Z</time>
      </trkpt>
      <trkpt lat="48.4245143" lon="-2.0156492">
        <ele>3.892</ele>
        <time>2018-08-18T09:10:49.186Z</time>
      </trkpt>
      <trkpt lat="48.4246329" lon="-2.0156066">
        <ele>3.532</ele>
        <time>2018-08-18T09:10:51.476Z</time>
      </trkpt>
      <trkpt lat="48.4250960" lon="-2.0155176">
        <ele>3.035</ele>
        <time>2018-08-18T09:11:00.631Z</time>
      </trkpt>
      <trkpt lat="48.4255748" lon="-2.0153725">
        <ele>3.098</ele>
        <time>2018-08-18T09:11:11.362Z</time>
      </trkpt>
      <trkpt lat="48.4256709" lon="-2.0152691">
        <ele>3.916</ele>
        <time>2018-08-18T09:11:14.454Z</time>
      </trkpt>
      <trkpt lat="48.4257720" lon="-2.0151342">
        <ele>6.180</ele>
        <time>2018-08-18T09:11:17.716Z</time>
      </trkpt>
      <trkpt lat="48.4258394" lon="-2.0150088">
        <ele>9.126</ele>
        <time>2018-08-18T09:11:19.784Z</time>
      </trkpt>
      <trkpt lat="48.4261262" lon="-2.0144699">
        <ele>12.399</ele>
        <time>2018-08-18T09:11:27.769Z</time>
      </trkpt>
      <trkpt lat="48.4264458" lon="-2.0144427">
        <ele>13.868</ele>
        <time>2018-08-18T09:11:32.628Z</time>
      </trkpt>
      <trkpt lat="48.4267949" lon="-2.0139475">
        <ele>16.145</ele>
        <time>2018-08-18T09:11:40.354Z</time>
      </trkpt>
      <trkpt lat="48.4269089" lon="-2.0139262">
        <ele>13.573</ele>
        <time>2018-08-18T09:11:42.204Z</time>
      </trkpt>
      <trkpt lat="48.4270116" lon="-2.0139071">
        <ele>7.404</ele>
        <time>2018-08-18T09:11:43.870Z</time>
      </trkpt>
      <trkpt lat="48.4271219" lon="-2.0138991">
        <ele>1.250</ele>
        <time>2018-08-18T09:11:45.649Z</time>
      </trkpt>
      <trkpt lat="48.4272673" lon="-2.0138834">
        <ele>0.000</ele>
        <time>2018-08-18T09:11:47.997Z</time>
      </trkpt>
      <trkpt lat="48.4273701" lon="-2.0138695">
        <ele>0.000</ele>
        <time>2018-08-18T09:11:49.660Z</time>
      </trkpt>
      <trkpt lat="48.4274707" lon="-2.0138559">
        <ele>0.000</ele>
        <time>2018-08-18T09:11:51.287Z</time>
      </trkpt>
      <trkpt lat="48.4275656" lon="-2.0138301">
        <ele>0.000</ele>
        <time>2018-08-18T09:11:52.840Z</time>
      </trkpt>
      <trkpt lat="48.4276566" lon="-2.0138026">
        <ele>0.000</ele>
        <time>2018-08-18T09:11:54.336Z</time>
      </trkpt>
      <trkpt lat="48.4277567" lon="-2.0137358">
        <ele>0.000</ele>
        <time>2018-08-18T09:11:56.814Z</time>
      </trkpt>
      <trkpt lat="48.4278662" lon="-2.0137157">
        <ele>0.000</ele>
        <time>2018-08-18T09:11:59.762Z</time>
      </trkpt>
      <trkpt lat="48.4279689" lon="-2.0136817">
        <ele>0.000</ele>
        <time>2018-08-18T09:12:02.513Z</time>
      </trkpt>
      <trkpt lat="48.4280716" lon="-2.0136458">
        <ele>0.000</ele>
        <time>2018-08-18T09:12:05.082Z</time>
      </trkpt>
      <trkpt lat="48.4281873" lon="-2.0136272">
        <ele>0.000</ele>
        <time>2018-08-18T09:12:08.229Z</time>
      </trkpt>
      <trkpt lat="48.4283100" lon="-2.0136828">
        <ele>0.000</ele>
        <time>2018-08-18T09:12:13.159Z</time>
      </trkpt>
      <trkpt lat="48.4283919" lon="-2.0137465">
        <ele>0.000</ele>
        <time>2018-08-18T09:12:18.534Z</time>
      </trkpt>
      <trkpt lat="48.4284738" lon="-2.0138088">
        <ele>0.000</ele>
        <time>2018-08-18T09:12:23.675Z</time>
      </trkpt>
      <trkpt lat="48.4285712" lon="-2.0139034">
        <ele>0.000</ele>
        <time>2018-08-18T09:12:29.282Z</time>
      </trkpt>
      <trkpt lat="48.4286659" lon="-2.0139801">
        <ele>0.000</ele>
        <time>2018-08-18T09:12:34.103Z</time>
      </trkpt>
      <trkpt lat="48.4287583" lon="-2.0140645">
        <ele>0.000</ele>
        <time>2018-08-18T09:12:39.722Z</time>
      </trkpt>
      <trkpt lat="48.4288286" lon="-2.0141585">
        <ele>0.000</ele>
        <time>2018-08-18T09:12:44.075Z</time>
      </trkpt>
      <trkpt lat="48.4289156" lon="-2.0142688">
        <ele>0.000</ele>
        <time>2018-08-18T09:12:48.082Z</time>
      </trkpt>
      <trkpt lat="48.4289693" lon="-2.0143816">
        <ele>0.000</ele>
        <time>2018-08-18T09:12:51.053Z</time>
      </trkpt>
      <trkpt lat="48.4290153" lon="-2.0145225">
        <ele>0.000</ele>
        <time>2018-08-18T09:12:54.743Z</time>
      </trkpt>
      <trkpt lat="48.4291302" lon="-2.0148892">
        <ele>0.000</ele>
        <time>2018-08-18T09:13:04.826Z</time>
      </trkpt>
      <trkpt lat="48.4291397" lon="-2.0150851">
        <ele>0.000</ele>
        <time>2018-08-18T09:13:08.671Z</time>
      </trkpt>
      <trkpt lat="48.4291752" lon="-2.0152236">
        <ele>0.000</ele>
        <time>2018-08-18T09:13:11.480Z</time>
      </trkpt>
      <trkpt lat="48.4291769" lon="-2.0153723">
        <ele>0.000</ele>
        <time>2018-08-18T09:13:13.946Z</time>
      </trkpt>
      <trkpt lat="48.4291735" lon="-2.0155377">
        <ele>0.000</ele>
        <time>2018-08-18T09:13:16.369Z</time>
      </trkpt>
      <trkpt lat="48.4291743" lon="-2.0157054">
        <ele>0.000</ele>
        <time>2018-08-18T09:13:19.278Z</time>
      </trkpt>
      <trkpt lat="48.4291514" lon="-2.0158745">
        <ele>0.000</ele>
        <time>2018-08-18T09:13:22.646Z</time>
      </trkpt>
      <trkpt lat="48.4291285" lon="-2.0160131">
        <ele>0.000</ele>
        <time>2018-08-18T09:13:26.529Z</time>
      </trkpt>
      <trkpt lat="48.4290855" lon="-2.0162308">
        <ele>0.000</ele>
        <time>2018-08-18T09:13:33.622Z</time>
      </trkpt>
      <trkpt lat="48.4290500" lon="-2.0163782">
        <ele>0.000</ele>
        <time>2018-08-18T09:13:37.951Z</time>
      </trkpt>
      <trkpt lat="48.4290033" lon="-2.0166333">
        <ele>0.667</ele>
        <time>2018-08-18T09:13:42.649Z</time>
      </trkpt>
      <trkpt lat="48.4289807" lon="-2.0167814">
        <ele>1.807</ele>
        <time>2018-08-18T09:13:44.823Z</time>
      </trkpt>
      <trkpt lat="48.4289303" lon="-2.0169624">
        <ele>2.611</ele>
        <time>2018-08-18T09:13:47.337Z</time>
      </trkpt>
      <trkpt lat="48.4288954" lon="-2.0170985">
        <ele>3.157</ele>
        <time>2018-08-18T09:13:49.132Z</time>
      </trkpt>
      <trkpt lat="48.4288647" lon="-2.0172500">
        <ele>3.831</ele>
        <time>2018-08-18T09:13:51.076Z</time>
      </trkpt>
      <trkpt lat="48.4288455" lon="-2.0174198">
        <ele>4.717</ele>
        <time>2018-08-18T09:13:53.425Z</time>
      </trkpt>
      <trkpt lat="48.4288195" lon="-2.0175775">
        <ele>5.482</ele>
        <time>2018-08-18T09:13:55.986Z</time>
      </trkpt>
      <trkpt lat="48.4287899" lon="-2.0177384">
        <ele>6.306</ele>
        <time>2018-08-18T09:13:59.000Z</time>
      </trkpt>
      <trkpt lat="48.4287821" lon="-2.0179102">
        <ele>7.561</ele>
        <time>2018-08-18T09:14:02.385Z</time>
      </trkpt>
      <trkpt lat="48.4287698" lon="-2.0180621">
        <ele>8.788</ele>
        <time>2018-08-18T09:14:05.571Z</time>
      </trkpt>
      <trkpt lat="48.4287394" lon="-2.0182133">
        <ele>9.397</ele>
        <time>2018-08-18T09:14:08.887Z</time>
      </trkpt>
      <trkpt lat="48.4287148" lon="-2.0183832">
        <ele>9.507</ele>
        <time>2018-08-18T09:14:12.187Z</time>
      </trkpt>
      <trkpt lat="48.4286968" lon="-2.0185353">
        <ele>9.416</ele>
        <time>2018-08-18T09:14:15.106Z</time>
      </trkpt>
      <trkpt lat="48.4286798" lon="-2.0187012">
        <ele>9.204</ele>
        <time>2018-08-18T09:14:18.655Z</time>
      </trkpt>
      <trkpt lat="48.4286660" lon="-2.0188430">
        <ele>8.861</ele>
        <time>2018-08-18T09:14:21.682Z</time>
      </trkpt>
      <trkpt lat="48.4286526" lon="-2.0190124">
        <ele>8.555</ele>
        <time>2018-08-18T09:14:25.382Z</time>
      </trkpt>
      <trkpt lat="48.4286255" lon="-2.0191541">
        <ele>8.428</ele>
        <time>2018-08-18T09:14:28.639Z</time>
      </trkpt>
      <trkpt lat="48.4285928" lon="-2.0192902">
        <ele>8.397</ele>
        <time>2018-08-18T09:14:32.071Z</time>
      </trkpt>
      <trkpt lat="48.4285565" lon="-2.0194478">
        <ele>8.358</ele>
        <time>2018-08-18T09:14:36.288Z</time>
      </trkpt>
      <trkpt lat="48.4285507" lon="-2.0195959">
        <ele>8.305</ele>
        <time>2018-08-18T09:14:40.198Z</time>
      </trkpt>
      <trkpt lat="48.4284443" lon="-2.0203976">
        <ele>8.238</ele>
        <time>2018-08-18T09:15:03.917Z</time>
      </trkpt>
      <trkpt lat="48.4284001" lon="-2.0210973">
        <ele>8.203</ele>
        <time>2018-08-18T09:15:19.694Z</time>
      </trkpt>
      <trkpt lat="48.4283714" lon="-2.0212604">
        <ele>8.168</ele>
        <time>2018-08-18T09:15:23.575Z</time>
      </trkpt>
      <trkpt lat="48.4283357" lon="-2.0214327">
        <ele>8.125</ele>
        <time>2018-08-18T09:15:28.502Z</time>
      </trkpt>
      <trkpt lat="48.4283074" lon="-2.0215852">
        <ele>8.068</ele>
        <time>2018-08-18T09:15:33.670Z</time>
      </trkpt>
      <trkpt lat="48.4282795" lon="-2.0217403">
        <ele>8.074</ele>
        <time>2018-08-18T09:15:38.834Z</time>
      </trkpt>
      <trkpt lat="48.4282400" lon="-2.0218924">
        <ele>8.189</ele>
        <time>2018-08-18T09:15:44.806Z</time>
      </trkpt>
      <trkpt lat="48.4281479" lon="-2.0226381">
        <ele>8.285</ele>
        <time>2018-08-18T09:16:14.187Z</time>
      </trkpt>
      <trkpt lat="48.4280500" lon="-2.0233869">
        <ele>8.039</ele>
        <time>2018-08-18T09:16:31.918Z</time>
      </trkpt>
      <trkpt lat="48.4280228" lon="-2.0235556">
        <ele>7.452</ele>
        <time>2018-08-18T09:16:35.132Z</time>
      </trkpt>
      <trkpt lat="48.4279934" lon="-2.0237284">
        <ele>6.736</ele>
        <time>2018-08-18T09:16:38.306Z</time>
      </trkpt>
      <trkpt lat="48.4279315" lon="-2.0239130">
        <ele>6.265</ele>
        <time>2018-08-18T09:16:41.485Z</time>
      </trkpt>
      <trkpt lat="48.4278812" lon="-2.0240865">
        <ele>6.113</ele>
        <time>2018-08-18T09:16:44.106Z</time>
      </trkpt>
      <trkpt lat="48.4278397" lon="-2.0242734">
        <ele>5.962</ele>
        <time>2018-08-18T09:16:46.757Z</time>
      </trkpt>
      <trkpt lat="48.4277991" lon="-2.0244578">
        <ele>5.516</ele>
        <time>2018-08-18T09:16:49.374Z</time>
      </trkpt>
      <trkpt lat="48.4277580" lon="-2.0246337">
        <ele>4.907</ele>
        <time>2018-08-18T09:16:51.924Z</time>
      </trkpt>
      <trkpt lat="48.4277200" lon="-2.0248143">
        <ele>4.449</ele>
        <time>2018-08-18T09:16:54.598Z</time>
      </trkpt>
      <trkpt lat="48.4276775" lon="-2.0249946">
        <ele>4.288</ele>
        <time>2018-08-18T09:16:57.405Z</time>
      </trkpt>
      <trkpt lat="48.4276503" lon="-2.0251603">
        <ele>4.443</ele>
        <time>2018-08-18T09:16:59.974Z</time>
      </trkpt>
      <trkpt lat="48.4276351" lon="-2.0253136">
        <ele>4.767</ele>
        <time>2018-08-18T09:17:02.299Z</time>
      </trkpt>
      <trkpt lat="48.4276157" lon="-2.0254682">
        <ele>5.031</ele>
        <time>2018-08-18T09:17:04.630Z</time>
      </trkpt>
      <trkpt lat="48.4275934" lon="-2.0256528">
        <ele>5.175</ele>
        <time>2018-08-18T09:17:07.386Z</time>
      </trkpt>
      <trkpt lat="48.4275604" lon="-2.0258271">
        <ele>5.291</ele>
        <time>2018-08-18T09:17:10.091Z</time>
      </trkpt>
      <trkpt lat="48.4275208" lon="-2.0259840">
        <ele>5.395</ele>
        <time>2018-08-18T09:17:12.623Z</time>
      </trkpt>
      <trkpt lat="48.4274960" lon="-2.0261366">
        <ele>5.482</ele>
        <time>2018-08-18T09:17:14.893Z</time>
      </trkpt>
      <trkpt lat="48.4274715" lon="-2.0263217">
        <ele>5.587</ele>
        <time>2018-08-18T09:17:17.448Z</time>
      </trkpt>
      <trkpt lat="48.4274315" lon="-2.0264470">
        <ele>5.747</ele>
        <time>2018-08-18T09:17:19.361Z</time>
      </trkpt>
      <trkpt lat="48.4273887" lon="-2.0265763">
        <ele>6.052</ele>
        <time>2018-08-18T09:17:21.382Z</time>
      </trkpt>
      <trkpt lat="48.4273501" lon="-2.0267145">
        <ele>6.474</ele>
        <time>2018-08-18T09:17:23.563Z</time>
      </trkpt>
      <trkpt lat="48.4273090" lon="-2.0268463">
        <ele>6.792</ele>
        <time>2018-08-18T09:17:25.718Z</time>
      </trkpt>
      <trkpt lat="48.4272688" lon="-2.0269760">
        <ele>6.890</ele>
        <time>2018-08-18T09:17:27.876Z</time>
      </trkpt>
      <trkpt lat="48.4272370" lon="-2.0271055">
        <ele>6.826</ele>
        <time>2018-08-18T09:17:30.000Z</time>
      </trkpt>
      <trkpt lat="48.4272370" lon="-2.0271055">
        <ele>6.722</ele>
        <time>2018-08-18T09:17:32.000Z</time>
      </trkpt>
      <trkpt lat="48.4272370" lon="-2.0271055">
        <ele>6.688</ele>
        <time>2018-08-18T09:17:32.100Z</time>
      </trkpt>
      <trkpt lat="48.4271978" lon="-2.0273978">
        <ele>6.707</ele>
        <time>2018-08-18T09:17:41.658Z</time>
      </trkpt>
      <trkpt lat="48.4271697" lon="-2.0275652">
        <ele>6.664</ele>
        <time>2018-08-18T09:17:44.607Z</time>
      </trkpt>
      <trkpt lat="48.4271307" lon="-2.0277353">
        <ele>6.531</ele>
        <time>2018-08-18T09:17:47.522Z</time>
      </trkpt>
      <trkpt lat="48.4270999" lon="-2.0279061">
        <ele>6.406</ele>
        <time>2018-08-18T09:17:50.390Z</time>
      </trkpt>
      <trkpt lat="48.4270530" lon="-2.0280679">
        <ele>6.408</ele>
        <time>2018-08-18T09:17:53.250Z</time>
      </trkpt>
      <trkpt lat="48.4270137" lon="-2.0282207">
        <ele>6.539</ele>
        <time>2018-08-18T09:17:55.854Z</time>
      </trkpt>
      <trkpt lat="48.4269666" lon="-2.0283881">
        <ele>6.740</ele>
        <time>2018-08-18T09:17:58.851Z</time>
      </trkpt>
      <trkpt lat="48.4269259" lon="-2.0285274">
        <ele>6.962</ele>
        <time>2018-08-18T09:18:01.596Z</time>
      </trkpt>
      <trkpt lat="48.4269109" lon="-2.0286988">
        <ele>7.168</ele>
        <time>2018-08-18T09:18:04.715Z</time>
      </trkpt>
      <trkpt lat="48.4269005" lon="-2.0288554">
        <ele>7.338</ele>
        <time>2018-08-18T09:18:07.474Z</time>
      </trkpt>
      <trkpt lat="48.4268736" lon="-2.0290019">
        <ele>7.475</ele>
        <time>2018-08-18T09:18:10.079Z</time>
      </trkpt>
      <trkpt lat="48.4268620" lon="-2.0291489">
        <ele>7.561</ele>
        <time>2018-08-18T09:18:12.580Z</time>
      </trkpt>
      <trkpt lat="48.4268287" lon="-2.0293259">
        <ele>7.586</ele>
        <time>2018-08-18T09:18:15.548Z</time>
      </trkpt>
      <trkpt lat="48.4268402" lon="-2.0294659">
        <ele>7.696</ele>
        <time>2018-08-18T09:18:17.746Z</time>
      </trkpt>
      <trkpt lat="48.4268771" lon="-2.0296057">
        <ele>7.984</ele>
        <time>2018-08-18T09:18:20.669Z</time>
      </trkpt>
      <trkpt lat="48.4268919" lon="-2.0297588">
        <ele>8.204</ele>
        <time>2018-08-18T09:18:23.748Z</time>
      </trkpt>
      <trkpt lat="48.4268977" lon="-2.0299113">
        <ele>8.126</ele>
        <time>2018-08-18T09:18:27.528Z</time>
      </trkpt>
      <trkpt lat="48.4269243" lon="-2.0300600">
        <ele>7.873</ele>
        <time>2018-08-18T09:18:31.583Z</time>
      </trkpt>
      <trkpt lat="48.4269491" lon="-2.0302218">
        <ele>7.638</ele>
        <time>2018-08-18T09:18:36.035Z</time>
      </trkpt>
      <trkpt lat="48.4269827" lon="-2.0303727">
        <ele>7.578</ele>
        <time>2018-08-18T09:18:39.904Z</time>
      </trkpt>
      <trkpt lat="48.4270110" lon="-2.0305279">
        <ele>7.738</ele>
        <time>2018-08-18T09:18:43.638Z</time>
      </trkpt>
      <trkpt lat="48.4270331" lon="-2.0306821">
        <ele>7.929</ele>
        <time>2018-08-18T09:18:47.219Z</time>
      </trkpt>
      <trkpt lat="48.4270463" lon="-2.0308317">
        <ele>7.940</ele>
        <time>2018-08-18T09:18:50.638Z</time>
      </trkpt>
      <trkpt lat="48.4270657" lon="-2.0310029">
        <ele>7.652</ele>
        <time>2018-08-18T09:18:54.567Z</time>
      </trkpt>
      <trkpt lat="48.4271008" lon="-2.0311358">
        <ele>7.131</ele>
        <time>2018-08-18T09:18:57.652Z</time>
      </trkpt>
      <trkpt lat="48.4271798" lon="-2.0312478">
        <ele>6.684</ele>
        <time>2018-08-18T09:19:00.842Z</time>
      </trkpt>
      <trkpt lat="48.4272522" lon="-2.0313595">
        <ele>6.469</ele>
        <time>2018-08-18T09:19:03.950Z</time>
      </trkpt>
      <trkpt lat="48.4272877" lon="-2.0315068">
        <ele>6.383</ele>
        <time>2018-08-18T09:19:07.203Z</time>
      </trkpt>
      <trkpt lat="48.4273317" lon="-2.0316587">
        <ele>6.371</ele>
        <time>2018-08-18T09:19:10.798Z</time>
      </trkpt>
      <trkpt lat="48.4273889" lon="-2.0317632">
        <ele>6.477</ele>
        <time>2018-08-18T09:19:14.235Z</time>
      </trkpt>
      <trkpt lat="48.4276602" lon="-2.0324118">
        <ele>6.809</ele>
        <time>2018-08-18T09:19:36.322Z</time>
      </trkpt>
      <trkpt lat="48.4279504" lon="-2.0329370">
        <ele>6.726</ele>
        <time>2018-08-18T09:19:52.942Z</time>
      </trkpt>
      <trkpt lat="48.4279937" lon="-2.0330646">
        <ele>6.883</ele>
        <time>2018-08-18T09:19:56.197Z</time>
      </trkpt>
      <trkpt lat="48.4280632" lon="-2.0331873">
        <ele>7.718</ele>
        <time>2018-08-18T09:19:59.858Z</time>
      </trkpt>
      <trkpt lat="48.4281372" lon="-2.0332957">
        <ele>8.873</ele>
        <time>2018-08-18T09:20:03.274Z</time>
      </trkpt>
      <trkpt lat="48.4282117" lon="-2.0333875">
        <ele>9.958</ele>
        <time>2018-08-18T09:20:06.275Z</time>
      </trkpt>
      <trkpt lat="48.4286234" lon="-2.0337768">
        <ele>11.490</ele>
        <time>2018-08-18T09:20:20.277Z</time>
      </trkpt>
      <trkpt lat="48.4287330" lon="-2.0338410">
        <ele>11.332</ele>
        <time>2018-08-18T09:20:23.552Z</time>
      </trkpt>
      <trkpt lat="48.4288190" lon="-2.0339107">
        <ele>10.904</ele>
        <time>2018-08-18T09:20:26.191Z</time>
      </trkpt>
      <trkpt lat="48.4288922" lon="-2.0340089">
        <ele>10.427</ele>
        <time>2018-08-18T09:20:28.838Z</time>
      </trkpt>
      <trkpt lat="48.4289722" lon="-2.0340830">
        <ele>9.828</ele>
        <time>2018-08-18T09:20:31.655Z</time>
      </trkpt>
      <trkpt lat="48.4290651" lon="-2.0341369">
        <ele>9.334</ele>
        <time>2018-08-18T09:20:34.906Z</time>
      </trkpt>
      <trkpt lat="48.4291462" lon="-2.0342051">
        <ele>9.259</ele>
        <time>2018-08-18T09:20:37.903Z</time>
      </trkpt>
      <trkpt lat="48.4292379" lon="-2.0342788">
        <ele>9.599</ele>
        <time>2018-08-18T09:20:41.288Z</time>
      </trkpt>
      <trkpt lat="48.4293315" lon="-2.0343270">
        <ele>10.207</ele>
        <time>2018-08-18T09:20:44.518Z</time>
      </trkpt>
      <trkpt lat="48.4294352" lon="-2.0343959">
        <ele>10.859</ele>
        <time>2018-08-18T09:20:48.080Z</time>
      </trkpt>
      <trkpt lat="48.4295475" lon="-2.0344669">
        <ele>11.312</ele>
        <time>2018-08-18T09:20:52.289Z</time>
      </trkpt>
      <trkpt lat="48.4296422" lon="-2.0345557">
        <ele>11.532</ele>
        <time>2018-08-18T09:20:56.291Z</time>
      </trkpt>
      <trkpt lat="48.4297306" lon="-2.0346428">
        <ele>11.664</ele>
        <time>2018-08-18T09:21:00.068Z</time>
      </trkpt>
      <trkpt lat="48.4298260" lon="-2.0347127">
        <ele>11.556</ele>
        <time>2018-08-18T09:21:04.304Z</time>
      </trkpt>
      <trkpt lat="48.4299276" lon="-2.0347796">
        <ele>11.076</ele>
        <time>2018-08-18T09:21:09.187Z</time>
      </trkpt>
      <trkpt lat="48.4300195" lon="-2.0348347">
        <ele>10.550</ele>
        <time>2018-08-18T09:21:13.641Z</time>
      </trkpt>
      <trkpt lat="48.4304898" lon="-2.0350753">
        <ele>10.315</ele>
        <time>2018-08-18T09:21:30.908Z</time>
      </trkpt>
      <trkpt lat="48.4309615" lon="-2.0352814">
        <ele>10.246</ele>
        <time>2018-08-18T09:21:44.019Z</time>
      </trkpt>
      <trkpt lat="48.4310730" lon="-2.0352998">
        <ele>9.815</ele>
        <time>2018-08-18T09:21:47.168Z</time>
      </trkpt>
      <trkpt lat="48.4311980" lon="-2.0352578">
        <ele>9.277</ele>
        <time>2018-08-18T09:21:50.817Z</time>
      </trkpt>
      <trkpt lat="48.4313037" lon="-2.0352157">
        <ele>9.033</ele>
        <time>2018-08-18T09:21:53.967Z</time>
      </trkpt>
      <trkpt lat="48.4314109" lon="-2.0351625">
        <ele>8.992</ele>
        <time>2018-08-18T09:21:57.351Z</time>
      </trkpt>
      <trkpt lat="48.4315065" lon="-2.0351667">
        <ele>8.841</ele>
        <time>2018-08-18T09:22:00.338Z</time>
      </trkpt>
      <trkpt lat="48.4316078" lon="-2.0351703">
        <ele>8.429</ele>
        <time>2018-08-18T09:22:03.688Z</time>
      </trkpt>
      <trkpt lat="48.4317249" lon="-2.0351696">
        <ele>7.841</ele>
        <time>2018-08-18T09:22:07.765Z</time>
      </trkpt>
      <trkpt lat="48.4318174" lon="-2.0351442">
        <ele>7.472</ele>
        <time>2018-08-18T09:22:10.753Z</time>
      </trkpt>
      <trkpt lat="48.4319316" lon="-2.0351497">
        <ele>7.504</ele>
        <time>2018-08-18T09:22:14.052Z</time>
      </trkpt>
      <trkpt lat="48.4320361" lon="-2.0351854">
        <ele>7.724</ele>
        <time>2018-08-18T09:22:17.000Z</time>
      </trkpt>
      <trkpt lat="48.4320361" lon="-2.0351854">
        <ele>7.892</ele>
        <time>2018-08-18T09:22:18.000Z</time>
      </trkpt>
      <trkpt lat="48.4320361" lon="-2.0351854">
        <ele>7.948</ele>
        <time>2018-08-18T09:22:18.100Z</time>
      </trkpt>
      <trkpt lat="48.4322096" lon="-2.0352434">
        <ele>7.931</ele>
        <time>2018-08-18T09:22:25.283Z</time>
      </trkpt>
      <trkpt lat="48.4322980" lon="-2.0352821">
        <ele>7.901</ele>
        <time>2018-08-18T09:22:28.212Z</time>
      </trkpt>
      <trkpt lat="48.4323945" lon="-2.0353080">
        <ele>7.792</ele>
        <time>2018-08-18T09:22:31.818Z</time>
      </trkpt>
      <trkpt lat="48.4324955" lon="-2.0353280">
        <ele>7.339</ele>
        <time>2018-08-18T09:22:36.756Z</time>
      </trkpt>
      <trkpt lat="48.4325965" lon="-2.0352952">
        <ele>6.550</ele>
        <time>2018-08-18T09:22:42.713Z</time>
      </trkpt>
      <trkpt lat="48.4326932" lon="-2.0353225">
        <ele>5.951</ele>
        <time>2018-08-18T09:22:49.181Z</time>
      </trkpt>
      <trkpt lat="48.4327885" lon="-2.0353717">
        <ele>5.883</ele>
        <time>2018-08-18T09:22:55.783Z</time>
      </trkpt>
      <trkpt lat="48.4332755" lon="-2.0354476">
        <ele>6.358</ele>
        <time>2018-08-18T09:23:18.948Z</time>
      </trkpt>
      <trkpt lat="48.4337252" lon="-2.0355929">
        <ele>6.579</ele>
        <time>2018-08-18T09:23:31.030Z</time>
      </trkpt>
      <trkpt lat="48.4341604" lon="-2.0358094">
        <ele>6.596</ele>
        <time>2018-08-18T09:23:43.414Z</time>
      </trkpt>
      <trkpt lat="48.4345454" lon="-2.0361970">
        <ele>6.255</ele>
        <time>2018-08-18T09:23:56.308Z</time>
      </trkpt>
      <trkpt lat="48.4349630" lon="-2.0367305">
        <ele>5.512</ele>
        <time>2018-08-18T09:24:10.636Z</time>
      </trkpt>
      <trkpt lat="48.4352294" lon="-2.0372966">
        <ele>4.629</ele>
        <time>2018-08-18T09:24:21.348Z</time>
      </trkpt>
      <trkpt lat="48.4355140" lon="-2.0379319">
        <ele>4.119</ele>
        <time>2018-08-18T09:24:32.847Z</time>
      </trkpt>
      <trkpt lat="48.4357409" lon="-2.0385277">
        <ele>4.533</ele>
        <time>2018-08-18T09:24:45.654Z</time>
      </trkpt>
      <trkpt lat="48.4357983" lon="-2.0386607">
        <ele>5.171</ele>
        <time>2018-08-18T09:24:48.376Z</time>
      </trkpt>
      <trkpt lat="48.4358591" lon="-2.0387623">
        <ele>5.676</ele>
        <time>2018-08-18T09:24:50.442Z</time>
      </trkpt>
      <trkpt lat="48.4359455" lon="-2.0388498">
        <ele>5.795</ele>
        <time>2018-08-18T09:24:52.405Z</time>
      </trkpt>
      <trkpt lat="48.4360255" lon="-2.0389185">
        <ele>5.643</ele>
        <time>2018-08-18T09:24:54.114Z</time>
      </trkpt>
      <trkpt lat="48.4361105" lon="-2.0390307">
        <ele>5.484</ele>
        <time>2018-08-18T09:24:56.249Z</time>
      </trkpt>
      <trkpt lat="48.4362201" lon="-2.0392260">
        <ele>5.489</ele>
        <time>2018-08-18T09:25:00.058Z</time>
      </trkpt>
      <trkpt lat="48.4363283" lon="-2.0392859">
        <ele>5.732</ele>
        <time>2018-08-18T09:25:02.775Z</time>
      </trkpt>
      <trkpt lat="48.4364041" lon="-2.0393723">
        <ele>6.156</ele>
        <time>2018-08-18T09:25:05.128Z</time>
      </trkpt>
      <trkpt lat="48.4364792" lon="-2.0394673">
        <ele>6.529</ele>
        <time>2018-08-18T09:25:07.631Z</time>
      </trkpt>
      <trkpt lat="48.4365762" lon="-2.0395470">
        <ele>6.694</ele>
        <time>2018-08-18T09:25:10.464Z</time>
      </trkpt>
      <trkpt lat="48.4366803" lon="-2.0396254">
        <ele>6.665</ele>
        <time>2018-08-18T09:25:13.245Z</time>
      </trkpt>
      <trkpt lat="48.4367570" lon="-2.0397140">
        <ele>6.421</ele>
        <time>2018-08-18T09:25:15.446Z</time>
      </trkpt>
      <trkpt lat="48.4368308" lon="-2.0398054">
        <ele>6.036</ele>
        <time>2018-08-18T09:25:18.041Z</time>
      </trkpt>
      <trkpt lat="48.4369171" lon="-2.0398909">
        <ele>5.726</ele>
        <time>2018-08-18T09:25:21.000Z</time>
      </trkpt>
      <trkpt lat="48.4369171" lon="-2.0398909">
        <ele>5.610</ele>
        <time>2018-08-18T09:25:25.000Z</time>
      </trkpt>
      <trkpt lat="48.4369171" lon="-2.0398909">
        <ele>5.627</ele>
        <time>2018-08-18T09:27:53.107Z</time>
      </trkpt>
      <trkpt lat="48.4370123" lon="-2.0400887">
        <ele>5.681</ele>
        <time>2018-08-18T09:28:04.223Z</time>
      </trkpt>
      <trkpt lat="48.4371222" lon="-2.0401518">
        <ele>5.972</ele>
        <time>2018-08-18T09:28:08.449Z</time>
      </trkpt>
      <trkpt lat="48.4372098" lon="-2.0402039">
        <ele>6.794</ele>
        <time>2018-08-18T09:28:11.479Z</time>
      </trkpt>
      <trkpt lat="48.4372980" lon="-2.0402463">
        <ele>7.884</ele>
        <time>2018-08-18T09:28:14.339Z</time>
      </trkpt>
      <trkpt lat="48.4373897" lon="-2.0402792">
        <ele>8.729</ele>
        <time>2018-08-18T09:28:17.175Z</time>
      </trkpt>
      <trkpt lat="48.4374879" lon="-2.0402993">
        <ele>9.202</ele>
        <time>2018-08-18T09:28:20.112Z</time>
      </trkpt>
      <trkpt lat="48.4375863" lon="-2.0403069">
        <ele>9.424</ele>
        <time>2018-08-18T09:28:23.028Z</time>
      </trkpt>
      <trkpt lat="48.4376850" lon="-2.0403038">
        <ele>9.556</ele>
        <time>2018-08-18T09:28:25.936Z</time>
      </trkpt>
      <trkpt lat="48.4377857" lon="-2.0402850">
        <ele>9.697</ele>
        <time>2018-08-18T09:28:28.875Z</time>
      </trkpt>
      <trkpt lat="48.4378856" lon="-2.0402535">
        <ele>9.819</ele>
        <time>2018-08-18T09:28:31.832Z</time>
      </trkpt>
      <trkpt lat="48.4379868" lon="-2.0402137">
        <ele>9.914</ele>
        <time>2018-08-18T09:28:34.885Z</time>
      </trkpt>
      <trkpt lat="48.4380843" lon="-2.0401663">
        <ele>10.029</ele>
        <time>2018-08-18T09:28:37.876Z</time>
      </trkpt>
      <trkpt lat="48.4381811" lon="-2.0401212">
        <ele>10.156</ele>
        <time>2018-08-18T09:28:40.853Z</time>
      </trkpt>
      <trkpt lat="48.4382742" lon="-2.0400790">
        <ele>10.270</ele>
        <time>2018-08-18T09:28:43.719Z</time>
      </trkpt>
      <trkpt lat="48.4383710" lon="-2.0400332">
        <ele>10.365</ele>
        <time>2018-08-18T09:28:46.656Z</time>
      </trkpt>
      <trkpt lat="48.4384690" lon="-2.0399827">
        <ele>10.434</ele>
        <time>2018-08-18T09:28:49.593Z</time>
      </trkpt>
      <trkpt lat="48.4385708" lon="-2.0399315">
        <ele>10.450</ele>
        <time>2018-08-18T09:28:52.631Z</time>
      </trkpt>
      <trkpt lat="48.4386691" lon="-2.0398858">
        <ele>10.341</ele>
        <time>2018-08-18T09:28:55.578Z</time>
      </trkpt>
      <trkpt lat="48.4387665" lon="-2.0398301">
        <ele>10.088</ele>
        <time>2018-08-18T09:28:58.546Z</time>
      </trkpt>
      <trkpt lat="48.4388661" lon="-2.0397770">
        <ele>9.818</ele>
        <time>2018-08-18T09:29:01.504Z</time>
      </trkpt>
      <trkpt lat="48.4389690" lon="-2.0397252">
        <ele>9.642</ele>
        <time>2018-08-18T09:29:04.448Z</time>
      </trkpt>
      <trkpt lat="48.4390781" lon="-2.0396816">
        <ele>9.648</ele>
        <time>2018-08-18T09:29:07.421Z</time>
      </trkpt>
      <trkpt lat="48.4391885" lon="-2.0396360">
        <ele>9.931</ele>
        <time>2018-08-18T09:29:10.388Z</time>
      </trkpt>
      <trkpt lat="48.4392970" lon="-2.0395853">
        <ele>10.394</ele>
        <time>2018-08-18T09:29:13.294Z</time>
      </trkpt>
      <trkpt lat="48.4394110" lon="-2.0395374">
        <ele>10.778</ele>
        <time>2018-08-18T09:29:16.292Z</time>
      </trkpt>
      <trkpt lat="48.4395227" lon="-2.0394838">
        <ele>10.970</ele>
        <time>2018-08-18T09:29:19.267Z</time>
      </trkpt>
      <trkpt lat="48.4396296" lon="-2.0394300">
        <ele>11.020</ele>
        <time>2018-08-18T09:29:22.157Z</time>
      </trkpt>
      <trkpt lat="48.4397358" lon="-2.0393748">
        <ele>10.945</ele>
        <time>2018-08-18T09:29:25.077Z</time>
      </trkpt>
      <trkpt lat="48.4398332" lon="-2.0393187">
        <ele>10.721</ele>
        <time>2018-08-18T09:29:27.841Z</time>
      </trkpt>
      <trkpt lat="48.4399325" lon="-2.0392674">
        <ele>10.422</ele>
        <time>2018-08-18T09:29:30.684Z</time>
      </trkpt>
      <trkpt lat="48.4400291" lon="-2.0392083">
        <ele>10.105</ele>
        <time>2018-08-18T09:29:33.607Z</time>
      </trkpt>
      <trkpt lat="48.4401168" lon="-2.0391616">
        <ele>9.769</ele>
        <time>2018-08-18T09:29:36.311Z</time>
      </trkpt>
      <trkpt lat="48.4402063" lon="-2.0391117">
        <ele>9.480</ele>
        <time>2018-08-18T09:29:39.115Z</time>
      </trkpt>
      <trkpt lat="48.4403007" lon="-2.0390331">
        <ele>9.204</ele>
        <time>2018-08-18T09:29:42.191Z</time>
      </trkpt>
      <trkpt lat="48.4403886" lon="-2.0389410">
        <ele>8.845</ele>
        <time>2018-08-18T09:29:45.145Z</time>
      </trkpt>
      <trkpt lat="48.4404676" lon="-2.0388291">
        <ele>8.600</ele>
        <time>2018-08-18T09:29:48.183Z</time>
      </trkpt>
      <trkpt lat="48.4405428" lon="-2.0386890">
        <ele>8.644</ele>
        <time>2018-08-18T09:29:51.763Z</time>
      </trkpt>
      <trkpt lat="48.4406055" lon="-2.0385584">
        <ele>8.952</ele>
        <time>2018-08-18T09:29:55.317Z</time>
      </trkpt>
      <trkpt lat="48.4406717" lon="-2.0384372">
        <ele>9.622</ele>
        <time>2018-08-18T09:29:59.012Z</time>
      </trkpt>
      <trkpt lat="48.4407360" lon="-2.0383092">
        <ele>10.689</ele>
        <time>2018-08-18T09:30:02.861Z</time>
      </trkpt>
      <trkpt lat="48.4408167" lon="-2.0381813">
        <ele>11.775</ele>
        <time>2018-08-18T09:30:06.927Z</time>
      </trkpt>
      <trkpt lat="48.4408912" lon="-2.0380867">
        <ele>12.428</ele>
        <time>2018-08-18T09:30:10.172Z</time>
      </trkpt>
      <trkpt lat="48.4409733" lon="-2.0379997">
        <ele>12.440</ele>
        <time>2018-08-18T09:30:13.517Z</time>
      </trkpt>
      <trkpt lat="48.4410689" lon="-2.0379003">
        <ele>11.952</ele>
        <time>2018-08-18T09:30:17.511Z</time>
      </trkpt>
      <trkpt lat="48.4411558" lon="-2.0378064">
        <ele>11.315</ele>
        <time>2018-08-18T09:30:21.339Z</time>
      </trkpt>
      <trkpt lat="48.4412534" lon="-2.0377204">
        <ele>10.817</ele>
        <time>2018-08-18T09:30:25.393Z</time>
      </trkpt>
      <trkpt lat="48.4413297" lon="-2.0376343">
        <ele>10.587</ele>
        <time>2018-08-18T09:30:29.000Z</time>
      </trkpt>
      <trkpt lat="48.4413297" lon="-2.0376343">
        <ele>10.623</ele>
        <time>2018-08-18T09:30:41.000Z</time>
      </trkpt>
      <trkpt lat="48.4413297" lon="-2.0376343">
        <ele>10.719</ele>
        <time>2018-08-18T09:32:44.692Z</time>
      </trkpt>
      <trkpt lat="48.4414892" lon="-2.0375978">
        <ele>10.716</ele>
        <time>2018-08-18T09:32:59.000Z</time>
      </trkpt>
      <trkpt lat="48.4414892" lon="-2.0375978">
        <ele>10.650</ele>
        <time>2018-08-18T09:33:14.000Z</time>
      </trkpt>
      <trkpt lat="48.4414892" lon="-2.0375978">
        <ele>10.609</ele>
        <time>2018-08-18T09:34:00.613Z</time>
      </trkpt>
      <trkpt lat="48.4416478" lon="-2.0377961">
        <ele>10.618</ele>
        <time>2018-08-18T09:34:19.235Z</time>
      </trkpt>
      <trkpt lat="48.4417093" lon="-2.0379129">
        <ele>10.745</ele>
        <time>2018-08-18T09:34:25.014Z</time>
      </trkpt>
      <trkpt lat="48.4417501" lon="-2.0380458">
        <ele>11.171</ele>
        <time>2018-08-18T09:34:30.505Z</time>
      </trkpt>
      <trkpt lat="48.4417955" lon="-2.0381679">
        <ele>11.875</ele>
        <time>2018-08-18T09:34:35.763Z</time>
      </trkpt>
      <trkpt lat="48.4418489" lon="-2.0382869">
        <ele>12.512</ele>
        <time>2018-08-18T09:34:41.418Z</time>
      </trkpt>
      <trkpt lat="48.4419136" lon="-2.0384057">
        <ele>12.922</ele>
        <time>2018-08-18T09:34:48.000Z</time>
      </trkpt>
      <trkpt lat="48.4419136" lon="-2.0384057">
        <ele>13.224</ele>
        <time>2018-08-18T09:34:48.000Z</time>
      </trkpt>
      <trkpt lat="48.4419136" lon="-2.0384057">
        <ele>13.396</ele>
        <time>2018-08-18T09:34:48.100Z</time>
      </trkpt>
      <trkpt lat="48.4420252" lon="-2.0386182">
        <ele>13.378</ele>
        <time>2018-08-18T09:35:07.883Z</time>
      </trkpt>
      <trkpt lat="48.4420790" lon="-2.0387377">
        <ele>13.482</ele>
        <time>2018-08-18T09:35:16.129Z</time>
      </trkpt>
      <trkpt lat="48.4421037" lon="-2.0388769">
        <ele>14.066</ele>
        <time>2018-08-18T09:35:24.097Z</time>
      </trkpt>
      <trkpt lat="48.4421359" lon="-2.0390108">
        <ele>14.970</ele>
        <time>2018-08-18T09:35:31.517Z</time>
      </trkpt>
      <trkpt lat="48.4421725" lon="-2.0391465">
        <ele>16.010</ele>
        <time>2018-08-18T09:35:38.268Z</time>
      </trkpt>
      <trkpt lat="48.4421638" lon="-2.0393109">
        <ele>17.195</ele>
        <time>2018-08-18T09:35:44.418Z</time>
      </trkpt>
      <trkpt lat="48.4421619" lon="-2.0394641">
        <ele>18.136</ele>
        <time>2018-08-18T09:35:49.835Z</time>
      </trkpt>
      <trkpt lat="48.4421825" lon="-2.0396005">
        <ele>18.311</ele>
        <time>2018-08-18T09:35:55.226Z</time>
      </trkpt>
      <trkpt lat="48.4421600" lon="-2.0397484">
        <ele>17.848</ele>
        <time>2018-08-18T09:36:01.740Z</time>
      </trkpt>
      <trkpt lat="48.4421552" lon="-2.0398885">
        <ele>17.507</ele>
        <time>2018-08-18T09:36:08.684Z</time>
      </trkpt>
      <trkpt lat="48.4422251" lon="-2.0399758">
        <ele>17.751</ele>
        <time>2018-08-18T09:36:15.864Z</time>
      </trkpt>
      <trkpt lat="48.4422677" lon="-2.0400972">
        <ele>18.137</ele>
        <time>2018-08-18T09:36:23.000Z</time>
      </trkpt>
      <trkpt lat="48.4422677" lon="-2.0400972">
        <ele>18.184</ele>
        <time>2018-08-18T09:38:45.000Z</time>
      </trkpt>
      <trkpt lat="48.4422677" lon="-2.0400972">
        <ele>18.053</ele>
        <time>2018-08-18T09:41:05.449Z</time>
      </trkpt>
      <trkpt lat="48.4422677" lon="-2.0400972">
        <ele>18.079</ele>
        <time>2018-08-18T09:41:15.000Z</time>
      </trkpt>
      <trkpt lat="48.4422677" lon="-2.0400972">
        <ele>18.126</ele>
        <time>2018-08-18T09:41:15.100Z</time>
      </trkpt>
      <trkpt lat="48.4422677" lon="-2.0400972">
        <ele>18.083</ele>
        <time>2018-08-18T09:41:17.000Z</time>
      </trkpt>
      <trkpt lat="48.4422677" lon="-2.0400972">
        <ele>18.061</ele>
        <time>2018-08-18T09:41:50.339Z</time>
      </trkpt>
      <trkpt lat="48.4422677" lon="-2.0400972">
        <ele>18.057</ele>
        <time>2018-08-18T09:42:03.000Z</time>
      </trkpt>
      <trkpt lat="48.4422677" lon="-2.0400972">
        <ele>18.057</ele>
        <time>2018-08-18T09:44:37.991Z</time>
      </trkpt>
      <trkpt lat="48.4422036" lon="-2.0398948">
        <ele>18.049</ele>
        <time>2018-08-18T09:45:35.981Z</time>
      </trkpt>
      <trkpt lat="48.4422013" lon="-2.0397523">
        <ele>17.880</ele>
        <time>2018-08-18T09:45:47.300Z</time>
      </trkpt>
      <trkpt lat="48.4421967" lon="-2.0396109">
        <ele>17.459</ele>
        <time>2018-08-18T09:45:57.835Z</time>
      </trkpt>
      <trkpt lat="48.4422214" lon="-2.0394787">
        <ele>17.104</ele>
        <time>2018-08-18T09:46:09.000Z</time>
      </trkpt>
      <trkpt lat="48.4422214" lon="-2.0394787">
        <ele>17.091</ele>
        <time>2018-08-18T09:46:26.000Z</time>
      </trkpt>
      <trkpt lat="48.4422214" lon="-2.0394787">
        <ele>17.211</ele>
        <time>2018-08-18T09:46:26.100Z</time>
      </trkpt>
      <trkpt lat="48.4423041" lon="-2.0392548">
        <ele>17.220</ele>
        <time>2018-08-18T09:46:45.000Z</time>
      </trkpt>
      <trkpt lat="48.4423041" lon="-2.0392548">
        <ele>17.146</ele>
        <time>2018-08-18T09:46:55.000Z</time>
      </trkpt>
      <trkpt lat="48.4423041" lon="-2.0392548">
        <ele>17.092</ele>
        <time>2018-08-18T09:46:55.100Z</time>
      </trkpt>
      <trkpt lat="48.4422691" lon="-2.0390274">
        <ele>17.087</ele>
        <time>2018-08-18T09:47:17.000Z</time>
      </trkpt>
      <trkpt lat="48.4422691" lon="-2.0390274">
        <ele>17.099</ele>
        <time>2018-08-18T09:47:27.000Z</time>
      </trkpt>
      <trkpt lat="48.4422691" lon="-2.0390274">
        <ele>17.093</ele>
        <time>2018-08-18T09:47:33.787Z</time>
      </trkpt>
      <trkpt lat="48.4422784" lon="-2.0388475">
        <ele>17.078</ele>
        <time>2018-08-18T09:48:46.000Z</time>
      </trkpt>
      <trkpt lat="48.4422784" lon="-2.0388475">
        <ele>17.067</ele>
        <time>2018-08-18T09:48:57.000Z</time>
      </trkpt>
      <trkpt lat="48.4422784" lon="-2.0388475">
        <ele>17.059</ele>
        <time>2018-08-18T09:49:15.935Z</time>
      </trkpt>
      <trkpt lat="48.4422784" lon="-2.0388475">
        <ele>17.048</ele>
        <time>2018-08-18T09:49:43.000Z</time>
      </trkpt>
      <trkpt lat="48.4422784" lon="-2.0388475">
        <ele>17.044</ele>
        <time>2018-08-18T09:50:19.162Z</time>
      </trkpt>
      <trkpt lat="48.4423190" lon="-2.0386474">
        <ele>17.038</ele>
        <time>2018-08-18T09:50:47.384Z</time>
      </trkpt>
      <trkpt lat="48.4423369" lon="-2.0385110">
        <ele>16.050</ele>
        <time>2018-08-18T09:51:00.000Z</time>
      </trkpt>
      <trkpt lat="48.4423369" lon="-2.0385110">
        <ele>13.487</ele>
        <time>2018-08-18T09:51:07.000Z</time>
      </trkpt>
      <trkpt lat="48.4423369" lon="-2.0385110">
        <ele>11.350</ele>
        <time>2018-08-18T09:51:23.769Z</time>
      </trkpt>
      <trkpt lat="48.4423642" lon="-2.0381854">
        <ele>11.381</ele>
        <time>2018-08-18T09:51:47.175Z</time>
      </trkpt>
      <trkpt lat="48.4422693" lon="-2.0381589">
        <ele>11.753</ele>
        <time>2018-08-18T09:51:57.332Z</time>
      </trkpt>
      <trkpt lat="48.4423699" lon="-2.0381766">
        <ele>10.632</ele>
        <time>2018-08-18T09:52:08.000Z</time>
      </trkpt>
      <trkpt lat="48.4423699" lon="-2.0381766">
        <ele>9.169</ele>
        <time>2018-08-18T09:52:14.000Z</time>
      </trkpt>
      <trkpt lat="48.4423699" lon="-2.0381766">
        <ele>8.828</ele>
        <time>2018-08-18T09:52:28.314Z</time>
      </trkpt>
      <trkpt lat="48.4423699" lon="-2.0381766">
        <ele>8.828</ele>
        <time>2018-08-18T09:52:28.314Z</time>
      </trkpt>
      <trkpt lat="48.4423297" lon="-2.0386420">
        <ele>12.777</ele>
        <time>2018-08-18T10:05:16.000Z</time>
      </trkpt>
      <trkpt lat="48.4423297" lon="-2.0386420">
        <ele>12.772</ele>
        <time>2018-08-18T10:05:29.999Z</time>
      </trkpt>
      <trkpt lat="48.4423297" lon="-2.0386420">
        <ele>12.768</ele>
        <time>2018-08-18T10:06:00.495Z</time>
      </trkpt>
      <trkpt lat="48.4422742" lon="-2.0387606">
        <ele>12.760</ele>
        <time>2018-08-18T10:06:14.999Z</time>
      </trkpt>
      <trkpt lat="48.4422742" lon="-2.0387606">
        <ele>12.756</ele>
        <time>2018-08-18T10:06:23.999Z</time>
      </trkpt>
      <trkpt lat="48.4422742" lon="-2.0387606">
        <ele>12.750</ele>
        <time>2018-08-18T10:06:24.099Z</time>
      </trkpt>
      <trkpt lat="48.4421919" lon="-2.0388159">
        <ele>12.744</ele>
        <time>2018-08-18T10:06:33.999Z</time>
      </trkpt>
      <trkpt lat="48.4421919" lon="-2.0388159">
        <ele>12.739</ele>
        <time>2018-08-18T10:06:42.999Z</time>
      </trkpt>
      <trkpt lat="48.4421919" lon="-2.0388159">
        <ele>12.734</ele>
        <time>2018-08-18T10:06:43.099Z</time>
      </trkpt>
      <trkpt lat="48.4421050" lon="-2.0388674">
        <ele>12.724</ele>
        <time>2018-08-18T10:06:56.999Z</time>
      </trkpt>
      <trkpt lat="48.4421050" lon="-2.0388674">
        <ele>12.722</ele>
        <time>2018-08-18T10:07:29.999Z</time>
      </trkpt>
      <trkpt lat="48.4421050" lon="-2.0388674">
        <ele>12.716</ele>
        <time>2018-08-18T10:07:30.099Z</time>
      </trkpt>
      <trkpt lat="48.4421523" lon="-2.0390719">
        <ele>12.710</ele>
        <time>2018-08-18T10:07:49.093Z</time>
      </trkpt>
      <trkpt lat="48.4421749" lon="-2.0392037">
        <ele>12.882</ele>
        <time>2018-08-18T10:07:57.575Z</time>
      </trkpt>
      <trkpt lat="48.4422043" lon="-2.0393341">
        <ele>13.771</ele>
        <time>2018-08-18T10:08:05.701Z</time>
      </trkpt>
      <trkpt lat="48.4422134" lon="-2.0394691">
        <ele>15.587</ele>
        <time>2018-08-18T10:08:15.074Z</time>
      </trkpt>
      <trkpt lat="48.4421813" lon="-2.0396074">
        <ele>17.568</ele>
        <time>2018-08-18T10:08:28.427Z</time>
      </trkpt>
      <trkpt lat="48.4421714" lon="-2.0397475">
        <ele>18.823</ele>
        <time>2018-08-18T10:08:40.999Z</time>
      </trkpt>
      <trkpt lat="48.4421714" lon="-2.0397475">
        <ele>19.222</ele>
        <time>2018-08-18T10:08:53.999Z</time>
      </trkpt>
      <trkpt lat="48.4421714" lon="-2.0397475">
        <ele>19.130</ele>
        <time>2018-08-18T10:08:54.099Z</time>
      </trkpt>
      <trkpt lat="48.4421559" lon="-2.0399221">
        <ele>18.929</ele>
        <time>2018-08-18T10:09:08.941Z</time>
      </trkpt>
      <trkpt lat="48.4422192" lon="-2.0400240">
        <ele>18.812</ele>
        <time>2018-08-18T10:09:15.999Z</time>
      </trkpt>
      <trkpt lat="48.4422192" lon="-2.0400240">
        <ele>18.786</ele>
        <time>2018-08-18T10:09:23.999Z</time>
      </trkpt>
      <trkpt lat="48.4422192" lon="-2.0400240">
        <ele>18.791</ele>
        <time>2018-08-18T10:12:49.224Z</time>
      </trkpt>
      <trkpt lat="48.4421187" lon="-2.0398677">
        <ele>18.788</ele>
        <time>2018-08-18T10:13:03.567Z</time>
      </trkpt>
      <trkpt lat="48.4421489" lon="-2.0397074">
        <ele>17.815</ele>
        <time>2018-08-18T10:13:09.149Z</time>
      </trkpt>
      <trkpt lat="48.4421763" lon="-2.0395657">
        <ele>15.219</ele>
        <time>2018-08-18T10:13:14.568Z</time>
      </trkpt>
      <trkpt lat="48.4422109" lon="-2.0394143">
        <ele>12.424</ele>
        <time>2018-08-18T10:13:20.478Z</time>
      </trkpt>
      <trkpt lat="48.4422087" lon="-2.0392542">
        <ele>10.962</ele>
        <time>2018-08-18T10:13:26.165Z</time>
      </trkpt>
      <trkpt lat="48.4421706" lon="-2.0391086">
        <ele>10.589</ele>
        <time>2018-08-18T10:13:30.995Z</time>
      </trkpt>
      <trkpt lat="48.4421129" lon="-2.0389754">
        <ele>10.618</ele>
        <time>2018-08-18T10:13:35.281Z</time>
      </trkpt>
      <trkpt lat="48.4420777" lon="-2.0388098">
        <ele>10.862</ele>
        <time>2018-08-18T10:13:39.853Z</time>
      </trkpt>
      <trkpt lat="48.4420312" lon="-2.0386830">
        <ele>11.441</ele>
        <time>2018-08-18T10:13:43.626Z</time>
      </trkpt>
      <trkpt lat="48.4419692" lon="-2.0385398">
        <ele>12.132</ele>
        <time>2018-08-18T10:13:48.079Z</time>
      </trkpt>
      <trkpt lat="48.4419271" lon="-2.0384143">
        <ele>12.459</ele>
        <time>2018-08-18T10:13:51.865Z</time>
      </trkpt>
      <trkpt lat="48.4418694" lon="-2.0382821">
        <ele>12.237</ele>
        <time>2018-08-18T10:13:56.234Z</time>
      </trkpt>
      <trkpt lat="48.4418094" lon="-2.0381695">
        <ele>11.682</ele>
        <time>2018-08-18T10:14:00.127Z</time>
      </trkpt>
      <trkpt lat="48.4417469" lon="-2.0380313">
        <ele>11.152</ele>
        <time>2018-08-18T10:14:04.445Z</time>
      </trkpt>
      <trkpt lat="48.4416734" lon="-2.0378880">
        <ele>10.850</ele>
        <time>2018-08-18T10:14:08.679Z</time>
      </trkpt>
      <trkpt lat="48.4416147" lon="-2.0377334">
        <ele>10.612</ele>
        <time>2018-08-18T10:14:12.412Z</time>
      </trkpt>
      <trkpt lat="48.4415683" lon="-2.0376048">
        <ele>10.145</ele>
        <time>2018-08-18T10:14:15.411Z</time>
      </trkpt>
      <trkpt lat="48.4414929" lon="-2.0374953">
        <ele>9.528</ele>
        <time>2018-08-18T10:14:19.000Z</time>
      </trkpt>
      <trkpt lat="48.4414929" lon="-2.0374953">
        <ele>9.077</ele>
        <time>2018-08-18T10:14:34.000Z</time>
      </trkpt>
      <trkpt lat="48.4414929" lon="-2.0374953">
        <ele>8.906</ele>
        <time>2018-08-18T10:14:34.100Z</time>
      </trkpt>
      <trkpt lat="48.4412916" lon="-2.0372533">
        <ele>8.930</ele>
        <time>2018-08-18T10:15:54.892Z</time>
      </trkpt>
      <trkpt lat="48.4412138" lon="-2.0371548">
        <ele>8.750</ele>
        <time>2018-08-18T10:16:00.840Z</time>
      </trkpt>
      <trkpt lat="48.4411402" lon="-2.0370734">
        <ele>7.924</ele>
        <time>2018-08-18T10:16:05.000Z</time>
      </trkpt>
      <trkpt lat="48.4411402" lon="-2.0370734">
        <ele>6.720</ele>
        <time>2018-08-18T10:16:21.000Z</time>
      </trkpt>
      <trkpt lat="48.4411402" lon="-2.0370734">
        <ele>5.984</ele>
        <time>2018-08-18T10:16:48.579Z</time>
      </trkpt>
      <trkpt lat="48.4411402" lon="-2.0370734">
        <ele>6.404</ele>
        <time>2018-08-18T10:17:01.000Z</time>
      </trkpt>
      <trkpt lat="48.4411402" lon="-2.0370734">
        <ele>6.632</ele>
        <time>2018-08-18T10:20:49.429Z</time>
      </trkpt>
      <trkpt lat="48.4411997" lon="-2.0369015">
        <ele>6.563</ele>
        <time>2018-08-18T10:21:23.000Z</time>
      </trkpt>
      <trkpt lat="48.4411997" lon="-2.0369015">
        <ele>6.358</ele>
        <time>2018-08-18T10:21:27.000Z</time>
      </trkpt>
      <trkpt lat="48.4411997" lon="-2.0369015">
        <ele>6.261</ele>
        <time>2018-08-18T10:23:29.843Z</time>
      </trkpt>
      <trkpt lat="48.4411997" lon="-2.0369015">
        <ele>6.329</ele>
        <time>2018-08-18T10:23:48.000Z</time>
      </trkpt>
      <trkpt lat="48.4411997" lon="-2.0369015">
        <ele>6.348</ele>
        <time>2018-08-18T10:24:07.439Z</time>
      </trkpt>
      <trkpt lat="48.4413665" lon="-2.0368015">
        <ele>6.338</ele>
        <time>2018-08-18T10:24:19.075Z</time>
      </trkpt>
      <trkpt lat="48.4414641" lon="-2.0367544">
        <ele>6.295</ele>
        <time>2018-08-18T10:24:22.884Z</time>
      </trkpt>
      <trkpt lat="48.4415587" lon="-2.0367167">
        <ele>6.234</ele>
        <time>2018-08-18T10:24:26.920Z</time>
      </trkpt>
      <trkpt lat="48.4416501" lon="-2.0367141">
        <ele>6.186</ele>
        <time>2018-08-18T10:24:31.056Z</time>
      </trkpt>
      <trkpt lat="48.4417486" lon="-2.0366630">
        <ele>6.156</ele>
        <time>2018-08-18T10:24:36.399Z</time>
      </trkpt>
      <trkpt lat="48.4418408" lon="-2.0366591">
        <ele>6.096</ele>
        <time>2018-08-18T10:24:41.000Z</time>
      </trkpt>
      <trkpt lat="48.4418408" lon="-2.0366591">
        <ele>5.994</ele>
        <time>2018-08-18T10:24:53.000Z</time>
      </trkpt>
      <trkpt lat="48.4418408" lon="-2.0366591">
        <ele>5.918</ele>
        <time>2018-08-18T10:26:31.951Z</time>
      </trkpt>
      <trkpt lat="48.4420779" lon="-2.0365868">
        <ele>5.932</ele>
        <time>2018-08-18T10:26:54.944Z</time>
      </trkpt>
      <trkpt lat="48.4421775" lon="-2.0365482">
        <ele>6.269</ele>
        <time>2018-08-18T10:27:01.582Z</time>
      </trkpt>
      <trkpt lat="48.4422690" lon="-2.0365482">
        <ele>7.169</ele>
        <time>2018-08-18T10:27:07.794Z</time>
      </trkpt>
      <trkpt lat="48.4423672" lon="-2.0365700">
        <ele>8.569</ele>
        <time>2018-08-18T10:27:14.557Z</time>
      </trkpt>
      <trkpt lat="48.4424732" lon="-2.0365667">
        <ele>10.038</ele>
        <time>2018-08-18T10:27:20.817Z</time>
      </trkpt>
      <trkpt lat="48.4425853" lon="-2.0365920">
        <ele>11.050</ele>
        <time>2018-08-18T10:27:25.751Z</time>
      </trkpt>
      <trkpt lat="48.4426685" lon="-2.0366511">
        <ele>11.437</ele>
        <time>2018-08-18T10:27:29.190Z</time>
      </trkpt>
      <trkpt lat="48.4427746" lon="-2.0366915">
        <ele>11.464</ele>
        <time>2018-08-18T10:27:33.132Z</time>
      </trkpt>
      <trkpt lat="48.4428671" lon="-2.0367335">
        <ele>11.317</ele>
        <time>2018-08-18T10:27:36.682Z</time>
      </trkpt>
      <trkpt lat="48.4429395" lon="-2.0368155">
        <ele>11.080</ele>
        <time>2018-08-18T10:27:40.190Z</time>
      </trkpt>
      <trkpt lat="48.4430100" lon="-2.0369137">
        <ele>10.865</ele>
        <time>2018-08-18T10:27:44.127Z</time>
      </trkpt>
      <trkpt lat="48.4430664" lon="-2.0370445">
        <ele>10.758</ele>
        <time>2018-08-18T10:27:48.955Z</time>
      </trkpt>
      <trkpt lat="48.4431264" lon="-2.0371761">
        <ele>10.835</ele>
        <time>2018-08-18T10:27:54.305Z</time>
      </trkpt>
      <trkpt lat="48.4431797" lon="-2.0373111">
        <ele>11.102</ele>
        <time>2018-08-18T10:27:59.799Z</time>
      </trkpt>
      <trkpt lat="48.4432440" lon="-2.0374308">
        <ele>11.378</ele>
        <time>2018-08-18T10:28:04.799Z</time>
      </trkpt>
      <trkpt lat="48.4433084" lon="-2.0375667">
        <ele>11.556</ele>
        <time>2018-08-18T10:28:10.580Z</time>
      </trkpt>
      <trkpt lat="48.4433696" lon="-2.0376868">
        <ele>11.753</ele>
        <time>2018-08-18T10:28:15.533Z</time>
      </trkpt>
      <trkpt lat="48.4434363" lon="-2.0378040">
        <ele>12.066</ele>
        <time>2018-08-18T10:28:20.026Z</time>
      </trkpt>
      <trkpt lat="48.4435048" lon="-2.0379234">
        <ele>12.478</ele>
        <time>2018-08-18T10:28:24.350Z</time>
      </trkpt>
      <trkpt lat="48.4435776" lon="-2.0380526">
        <ele>12.860</ele>
        <time>2018-08-18T10:28:28.679Z</time>
      </trkpt>
      <trkpt lat="48.4436550" lon="-2.0381758">
        <ele>13.009</ele>
        <time>2018-08-18T10:28:32.818Z</time>
      </trkpt>
      <trkpt lat="48.4437369" lon="-2.0383017">
        <ele>12.834</ele>
        <time>2018-08-18T10:28:37.037Z</time>
      </trkpt>
      <trkpt lat="48.4438018" lon="-2.0384001">
        <ele>12.468</ele>
        <time>2018-08-18T10:28:40.273Z</time>
      </trkpt>
      <trkpt lat="48.4438659" lon="-2.0385098">
        <ele>11.916</ele>
        <time>2018-08-18T10:28:43.547Z</time>
      </trkpt>
      <trkpt lat="48.4439342" lon="-2.0386252">
        <ele>11.133</ele>
        <time>2018-08-18T10:28:46.794Z</time>
      </trkpt>
      <trkpt lat="48.4440054" lon="-2.0387405">
        <ele>10.420</ele>
        <time>2018-08-18T10:28:49.938Z</time>
      </trkpt>
      <trkpt lat="48.4440714" lon="-2.0388511">
        <ele>9.941</ele>
        <time>2018-08-18T10:28:52.903Z</time>
      </trkpt>
      <trkpt lat="48.4441385" lon="-2.0389507">
        <ele>9.477</ele>
        <time>2018-08-18T10:28:55.820Z</time>
      </trkpt>
      <trkpt lat="48.4442269" lon="-2.0390664">
        <ele>9.019</ele>
        <time>2018-08-18T10:28:59.609Z</time>
      </trkpt>
      <trkpt lat="48.4443085" lon="-2.0391290">
        <ele>8.743</ele>
        <time>2018-08-18T10:29:02.624Z</time>
      </trkpt>
      <trkpt lat="48.4444004" lon="-2.0391738">
        <ele>8.665</ele>
        <time>2018-08-18T10:29:05.778Z</time>
      </trkpt>
      <trkpt lat="48.4444877" lon="-2.0392220">
        <ele>8.686</ele>
        <time>2018-08-18T10:29:08.772Z</time>
      </trkpt>
      <trkpt lat="48.4445725" lon="-2.0392802">
        <ele>8.710</ele>
        <time>2018-08-18T10:29:11.761Z</time>
      </trkpt>
      <trkpt lat="48.4446672" lon="-2.0393351">
        <ele>8.669</ele>
        <time>2018-08-18T10:29:14.944Z</time>
      </trkpt>
      <trkpt lat="48.4447642" lon="-2.0393823">
        <ele>8.532</ele>
        <time>2018-08-18T10:29:18.060Z</time>
      </trkpt>
      <trkpt lat="48.4448675" lon="-2.0393844">
        <ele>8.349</ele>
        <time>2018-08-18T10:29:21.527Z</time>
      </trkpt>
      <trkpt lat="48.4449568" lon="-2.0394463">
        <ele>8.171</ele>
        <time>2018-08-18T10:29:25.221Z</time>
      </trkpt>
      <trkpt lat="48.4450514" lon="-2.0394488">
        <ele>7.970</ele>
        <time>2018-08-18T10:29:28.757Z</time>
      </trkpt>
      <trkpt lat="48.4451521" lon="-2.0394510">
        <ele>7.748</ele>
        <time>2018-08-18T10:29:32.100Z</time>
      </trkpt>
      <trkpt lat="48.4452537" lon="-2.0394543">
        <ele>7.569</ele>
        <time>2018-08-18T10:29:35.247Z</time>
      </trkpt>
      <trkpt lat="48.4453606" lon="-2.0394294">
        <ele>7.460</ele>
        <time>2018-08-18T10:29:38.434Z</time>
      </trkpt>
      <trkpt lat="48.4454530" lon="-2.0394000">
        <ele>7.295</ele>
        <time>2018-08-18T10:29:41.173Z</time>
      </trkpt>
      <trkpt lat="48.4455491" lon="-2.0393639">
        <ele>6.982</ele>
        <time>2018-08-18T10:29:44.073Z</time>
      </trkpt>
      <trkpt lat="48.4456447" lon="-2.0393286">
        <ele>6.703</ele>
        <time>2018-08-18T10:29:46.923Z</time>
      </trkpt>
      <trkpt lat="48.4457393" lon="-2.0392965">
        <ele>6.629</ele>
        <time>2018-08-18T10:29:49.711Z</time>
      </trkpt>
      <trkpt lat="48.4458361" lon="-2.0392602">
        <ele>6.629</ele>
        <time>2018-08-18T10:29:52.607Z</time>
      </trkpt>
      <trkpt lat="48.4459329" lon="-2.0392336">
        <ele>6.547</ele>
        <time>2018-08-18T10:29:55.523Z</time>
      </trkpt>
      <trkpt lat="48.4460306" lon="-2.0391987">
        <ele>6.404</ele>
        <time>2018-08-18T10:29:58.517Z</time>
      </trkpt>
      <trkpt lat="48.4461286" lon="-2.0391569">
        <ele>6.303</ele>
        <time>2018-08-18T10:30:01.517Z</time>
      </trkpt>
      <trkpt lat="48.4462263" lon="-2.0391041">
        <ele>6.275</ele>
        <time>2018-08-18T10:30:04.541Z</time>
      </trkpt>
      <trkpt lat="48.4463194" lon="-2.0390476">
        <ele>6.310</ele>
        <time>2018-08-18T10:30:07.461Z</time>
      </trkpt>
      <trkpt lat="48.4464063" lon="-2.0389788">
        <ele>6.419</ele>
        <time>2018-08-18T10:30:10.344Z</time>
      </trkpt>
      <trkpt lat="48.4464844" lon="-2.0389065">
        <ele>6.631</ele>
        <time>2018-08-18T10:30:13.089Z</time>
      </trkpt>
      <trkpt lat="48.4465640" lon="-2.0388358">
        <ele>6.953</ele>
        <time>2018-08-18T10:30:15.903Z</time>
      </trkpt>
      <trkpt lat="48.4466421" lon="-2.0387631">
        <ele>7.350</ele>
        <time>2018-08-18T10:30:18.723Z</time>
      </trkpt>
      <trkpt lat="48.4467416" lon="-2.0386679">
        <ele>7.773</ele>
        <time>2018-08-18T10:30:22.398Z</time>
      </trkpt>
      <trkpt lat="48.4468418" lon="-2.0385841">
        <ele>8.153</ele>
        <time>2018-08-18T10:30:26.071Z</time>
      </trkpt>
      <trkpt lat="48.4469464" lon="-2.0385015">
        <ele>8.407</ele>
        <time>2018-08-18T10:30:29.939Z</time>
      </trkpt>
      <trkpt lat="48.4470287" lon="-2.0384425">
        <ele>8.504</ele>
        <time>2018-08-18T10:30:32.922Z</time>
      </trkpt>
      <trkpt lat="48.4471358" lon="-2.0383643">
        <ele>8.484</ele>
        <time>2018-08-18T10:30:36.770Z</time>
      </trkpt>
      <trkpt lat="48.4472202" lon="-2.0383064">
        <ele>8.403</ele>
        <time>2018-08-18T10:30:39.761Z</time>
      </trkpt>
      <trkpt lat="48.4473068" lon="-2.0382478">
        <ele>8.270</ele>
        <time>2018-08-18T10:30:42.822Z</time>
      </trkpt>
      <trkpt lat="48.4473941" lon="-2.0381839">
        <ele>8.088</ele>
        <time>2018-08-18T10:30:45.900Z</time>
      </trkpt>
      <trkpt lat="48.4474800" lon="-2.0381166">
        <ele>7.937</ele>
        <time>2018-08-18T10:30:48.862Z</time>
      </trkpt>
      <trkpt lat="48.4475827" lon="-2.0380373">
        <ele>8.010</ele>
        <time>2018-08-18T10:30:52.344Z</time>
      </trkpt>
      <trkpt lat="48.4476905" lon="-2.0379629">
        <ele>8.374</ele>
        <time>2018-08-18T10:30:56.030Z</time>
      </trkpt>
      <trkpt lat="48.4477999" lon="-2.0378966">
        <ele>8.831</ele>
        <time>2018-08-18T10:30:59.833Z</time>
      </trkpt>
      <trkpt lat="48.4479104" lon="-2.0378395">
        <ele>9.122</ele>
        <time>2018-08-18T10:31:03.664Z</time>
      </trkpt>
      <trkpt lat="48.4480240" lon="-2.0378070">
        <ele>9.143</ele>
        <time>2018-08-18T10:31:07.510Z</time>
      </trkpt>
      <trkpt lat="48.4481231" lon="-2.0377888">
        <ele>8.945</ele>
        <time>2018-08-18T10:31:10.795Z</time>
      </trkpt>
      <trkpt lat="48.4482236" lon="-2.0377875">
        <ele>8.613</ele>
        <time>2018-08-18T10:31:14.001Z</time>
      </trkpt>
      <trkpt lat="48.4483246" lon="-2.0378038">
        <ele>8.182</ele>
        <time>2018-08-18T10:31:17.093Z</time>
      </trkpt>
      <trkpt lat="48.4484250" lon="-2.0378368">
        <ele>7.752</ele>
        <time>2018-08-18T10:31:20.166Z</time>
      </trkpt>
      <trkpt lat="48.4485115" lon="-2.0378856">
        <ele>7.482</ele>
        <time>2018-08-18T10:31:22.917Z</time>
      </trkpt>
      <trkpt lat="48.4485923" lon="-2.0379520">
        <ele>7.365</ele>
        <time>2018-08-18T10:31:25.703Z</time>
      </trkpt>
      <trkpt lat="48.4486753" lon="-2.0380256">
        <ele>7.253</ele>
        <time>2018-08-18T10:31:28.689Z</time>
      </trkpt>
      <trkpt lat="48.4487574" lon="-2.0380997">
        <ele>7.112</ele>
        <time>2018-08-18T10:31:31.672Z</time>
      </trkpt>
      <trkpt lat="48.4488359" lon="-2.0381974">
        <ele>7.078</ele>
        <time>2018-08-18T10:31:34.805Z</time>
      </trkpt>
      <trkpt lat="48.4489009" lon="-2.0383281">
        <ele>7.267</ele>
        <time>2018-08-18T10:31:38.091Z</time>
      </trkpt>
      <trkpt lat="48.4489483" lon="-2.0384747">
        <ele>7.955</ele>
        <time>2018-08-18T10:31:41.482Z</time>
      </trkpt>
      <trkpt lat="48.4489875" lon="-2.0386405">
        <ele>9.141</ele>
        <time>2018-08-18T10:31:45.396Z</time>
      </trkpt>
      <trkpt lat="48.4490158" lon="-2.0387806">
        <ele>10.160</ele>
        <time>2018-08-18T10:31:48.765Z</time>
      </trkpt>
      <trkpt lat="48.4490578" lon="-2.0389006">
        <ele>10.523</ele>
        <time>2018-08-18T10:31:51.835Z</time>
      </trkpt>
      <trkpt lat="48.4491009" lon="-2.0390541">
        <ele>10.452</ele>
        <time>2018-08-18T10:31:55.438Z</time>
      </trkpt>
      <trkpt lat="48.4491339" lon="-2.0392212">
        <ele>10.454</ele>
        <time>2018-08-18T10:31:59.239Z</time>
      </trkpt>
      <trkpt lat="48.4491649" lon="-2.0393742">
        <ele>11.011</ele>
        <time>2018-08-18T10:32:02.764Z</time>
      </trkpt>
      <trkpt lat="48.4492097" lon="-2.0395398">
        <ele>11.996</ele>
        <time>2018-08-18T10:32:06.795Z</time>
      </trkpt>
      <trkpt lat="48.4492452" lon="-2.0397099">
        <ele>12.637</ele>
        <time>2018-08-18T10:32:10.853Z</time>
      </trkpt>
      <trkpt lat="48.4492913" lon="-2.0398789">
        <ele>12.561</ele>
        <time>2018-08-18T10:32:14.560Z</time>
      </trkpt>
      <trkpt lat="48.4493541" lon="-2.0400441">
        <ele>12.233</ele>
        <time>2018-08-18T10:32:18.137Z</time>
      </trkpt>
      <trkpt lat="48.4494271" lon="-2.0401907">
        <ele>12.127</ele>
        <time>2018-08-18T10:32:21.401Z</time>
      </trkpt>
      <trkpt lat="48.4495149" lon="-2.0403218">
        <ele>12.153</ele>
        <time>2018-08-18T10:32:24.697Z</time>
      </trkpt>
      <trkpt lat="48.4496117" lon="-2.0404084">
        <ele>11.718</ele>
        <time>2018-08-18T10:32:27.760Z</time>
      </trkpt>
      <trkpt lat="48.4497153" lon="-2.0404336">
        <ele>10.559</ele>
        <time>2018-08-18T10:32:30.756Z</time>
      </trkpt>
      <trkpt lat="48.4498230" lon="-2.0404178">
        <ele>9.297</ele>
        <time>2018-08-18T10:32:34.018Z</time>
      </trkpt>
      <trkpt lat="48.4499209" lon="-2.0403568">
        <ele>8.421</ele>
        <time>2018-08-18T10:32:37.254Z</time>
      </trkpt>
      <trkpt lat="48.4500023" lon="-2.0402815">
        <ele>7.686</ele>
        <time>2018-08-18T10:32:40.190Z</time>
      </trkpt>
      <trkpt lat="48.4500769" lon="-2.0402002">
        <ele>6.912</ele>
        <time>2018-08-18T10:32:43.095Z</time>
      </trkpt>
      <trkpt lat="48.4501524" lon="-2.0400961">
        <ele>6.254</ele>
        <time>2018-08-18T10:32:46.515Z</time>
      </trkpt>
      <trkpt lat="48.4502180" lon="-2.0399987">
        <ele>6.020</ele>
        <time>2018-08-18T10:32:49.798Z</time>
      </trkpt>
      <trkpt lat="48.4502889" lon="-2.0398926">
        <ele>6.283</ele>
        <time>2018-08-18T10:32:53.687Z</time>
      </trkpt>
      <trkpt lat="48.4503600" lon="-2.0397558">
        <ele>7.191</ele>
        <time>2018-08-18T10:32:58.501Z</time>
      </trkpt>
      <trkpt lat="48.4504069" lon="-2.0396188">
        <ele>8.736</ele>
        <time>2018-08-18T10:33:02.597Z</time>
      </trkpt>
      <trkpt lat="48.4504380" lon="-2.0394785">
        <ele>10.302</ele>
        <time>2018-08-18T10:33:06.531Z</time>
      </trkpt>
      <trkpt lat="48.4504785" lon="-2.0393318">
        <ele>11.357</ele>
        <time>2018-08-18T10:33:10.953Z</time>
      </trkpt>
      <trkpt lat="48.4505236" lon="-2.0391966">
        <ele>11.917</ele>
        <time>2018-08-18T10:33:15.082Z</time>
      </trkpt>
      <trkpt lat="48.4505844" lon="-2.0390702">
        <ele>12.143</ele>
        <time>2018-08-18T10:33:19.142Z</time>
      </trkpt>
      <trkpt lat="48.4506585" lon="-2.0389332">
        <ele>12.273</ele>
        <time>2018-08-18T10:33:23.295Z</time>
      </trkpt>
      <trkpt lat="48.4507105" lon="-2.0388037">
        <ele>12.389</ele>
        <time>2018-08-18T10:33:26.685Z</time>
      </trkpt>
      <trkpt lat="48.4507705" lon="-2.0386597">
        <ele>12.482</ele>
        <time>2018-08-18T10:33:30.391Z</time>
      </trkpt>
      <trkpt lat="48.4508227" lon="-2.0385489">
        <ele>12.629</ele>
        <time>2018-08-18T10:33:33.426Z</time>
      </trkpt>
      <trkpt lat="48.4508816" lon="-2.0384022">
        <ele>12.859</ele>
        <time>2018-08-18T10:33:37.421Z</time>
      </trkpt>
      <trkpt lat="48.4509426" lon="-2.0382520">
        <ele>12.856</ele>
        <time>2018-08-18T10:33:41.514Z</time>
      </trkpt>
      <trkpt lat="48.4509991" lon="-2.0380976">
        <ele>12.315</ele>
        <time>2018-08-18T10:33:45.529Z</time>
      </trkpt>
      <trkpt lat="48.4510610" lon="-2.0379668">
        <ele>11.537</ele>
        <time>2018-08-18T10:33:49.299Z</time>
      </trkpt>
      <trkpt lat="48.4511110" lon="-2.0378434">
        <ele>10.854</ele>
        <time>2018-08-18T10:33:52.703Z</time>
      </trkpt>
      <trkpt lat="48.4511680" lon="-2.0377073">
        <ele>10.016</ele>
        <time>2018-08-18T10:33:56.251Z</time>
      </trkpt>
      <trkpt lat="48.4512407" lon="-2.0375386">
        <ele>8.904</ele>
        <time>2018-08-18T10:34:00.436Z</time>
      </trkpt>
      <trkpt lat="48.4512888" lon="-2.0373728">
        <ele>7.952</ele>
        <time>2018-08-18T10:34:04.181Z</time>
      </trkpt>
      <trkpt lat="48.4513293" lon="-2.0372206">
        <ele>7.147</ele>
        <time>2018-08-18T10:34:07.503Z</time>
      </trkpt>
      <trkpt lat="48.4513611" lon="-2.0370678">
        <ele>6.116</ele>
        <time>2018-08-18T10:34:10.730Z</time>
      </trkpt>
      <trkpt lat="48.4514028" lon="-2.0369066">
        <ele>5.076</ele>
        <time>2018-08-18T10:34:14.205Z</time>
      </trkpt>
      <trkpt lat="48.4514532" lon="-2.0367540">
        <ele>4.438</ele>
        <time>2018-08-18T10:34:17.580Z</time>
      </trkpt>
      <trkpt lat="48.4514880" lon="-2.0365942">
        <ele>4.392</ele>
        <time>2018-08-18T10:34:20.907Z</time>
      </trkpt>
      <trkpt lat="48.4515025" lon="-2.0364415">
        <ele>4.992</ele>
        <time>2018-08-18T10:34:24.031Z</time>
      </trkpt>
      <trkpt lat="48.4515492" lon="-2.0362977">
        <ele>5.921</ele>
        <time>2018-08-18T10:34:27.376Z</time>
      </trkpt>
      <trkpt lat="48.4515844" lon="-2.0361629">
        <ele>6.813</ele>
        <time>2018-08-18T10:34:30.492Z</time>
      </trkpt>
      <trkpt lat="48.4516107" lon="-2.0359928">
        <ele>7.587</ele>
        <time>2018-08-18T10:34:34.272Z</time>
      </trkpt>
      <trkpt lat="48.4516414" lon="-2.0358622">
        <ele>8.212</ele>
        <time>2018-08-18T10:34:37.293Z</time>
      </trkpt>
      <trkpt lat="48.4516746" lon="-2.0357348">
        <ele>8.657</ele>
        <time>2018-08-18T10:34:40.337Z</time>
      </trkpt>
      <trkpt lat="48.4517167" lon="-2.0356043">
        <ele>8.958</ele>
        <time>2018-08-18T10:34:43.757Z</time>
      </trkpt>
      <trkpt lat="48.4517754" lon="-2.0354535">
        <ele>9.128</ele>
        <time>2018-08-18T10:34:47.946Z</time>
      </trkpt>
      <trkpt lat="48.4518307" lon="-2.0353193">
        <ele>9.166</ele>
        <time>2018-08-18T10:34:51.565Z</time>
      </trkpt>
      <trkpt lat="48.4519057" lon="-2.0351949">
        <ele>9.071</ele>
        <time>2018-08-18T10:34:55.314Z</time>
      </trkpt>
      <trkpt lat="48.4519808" lon="-2.0350641">
        <ele>8.756</ele>
        <time>2018-08-18T10:34:59.092Z</time>
      </trkpt>
      <trkpt lat="48.4520707" lon="-2.0349579">
        <ele>8.264</ele>
        <time>2018-08-18T10:35:02.820Z</time>
      </trkpt>
      <trkpt lat="48.4521684" lon="-2.0348650">
        <ele>7.838</ele>
        <time>2018-08-18T10:35:06.623Z</time>
      </trkpt>
      <trkpt lat="48.4522705" lon="-2.0347819">
        <ele>7.654</ele>
        <time>2018-08-18T10:35:10.545Z</time>
      </trkpt>
      <trkpt lat="48.4523742" lon="-2.0347223">
        <ele>7.688</ele>
        <time>2018-08-18T10:35:14.448Z</time>
      </trkpt>
      <trkpt lat="48.4524812" lon="-2.0346910">
        <ele>7.949</ele>
        <time>2018-08-18T10:35:18.359Z</time>
      </trkpt>
      <trkpt lat="48.4525772" lon="-2.0346761">
        <ele>8.535</ele>
        <time>2018-08-18T10:35:21.684Z</time>
      </trkpt>
      <trkpt lat="48.4526877" lon="-2.0346681">
        <ele>9.401</ele>
        <time>2018-08-18T10:35:25.132Z</time>
      </trkpt>
      <trkpt lat="48.4527802" lon="-2.0346858">
        <ele>10.332</ele>
        <time>2018-08-18T10:35:27.860Z</time>
      </trkpt>
      <trkpt lat="48.4528807" lon="-2.0347085">
        <ele>11.082</ele>
        <time>2018-08-18T10:35:30.816Z</time>
      </trkpt>
      <trkpt lat="48.4529856" lon="-2.0347349">
        <ele>11.470</ele>
        <time>2018-08-18T10:35:34.084Z</time>
      </trkpt>
      <trkpt lat="48.4530854" lon="-2.0347518">
        <ele>11.428</ele>
        <time>2018-08-18T10:35:37.316Z</time>
      </trkpt>
      <trkpt lat="48.4531961" lon="-2.0347911">
        <ele>11.084</ele>
        <time>2018-08-18T10:35:41.013Z</time>
      </trkpt>
      <trkpt lat="48.4532814" lon="-2.0348382">
        <ele>11.033</ele>
        <time>2018-08-18T10:35:43.910Z</time>
      </trkpt>
      <trkpt lat="48.4533918" lon="-2.0349109">
        <ele>11.646</ele>
        <time>2018-08-18T10:35:47.697Z</time>
      </trkpt>
      <trkpt lat="48.4534830" lon="-2.0349511">
        <ele>12.374</ele>
        <time>2018-08-18T10:35:50.618Z</time>
      </trkpt>
      <trkpt lat="48.4535742" lon="-2.0350009">
        <ele>12.585</ele>
        <time>2018-08-18T10:35:53.546Z</time>
      </trkpt>
      <trkpt lat="48.4536657" lon="-2.0350615">
        <ele>12.240</ele>
        <time>2018-08-18T10:35:56.576Z</time>
      </trkpt>
      <trkpt lat="48.4537536" lon="-2.0351286">
        <ele>11.635</ele>
        <time>2018-08-18T10:35:59.605Z</time>
      </trkpt>
      <trkpt lat="48.4538371" lon="-2.0352003">
        <ele>11.172</ele>
        <time>2018-08-18T10:36:02.614Z</time>
      </trkpt>
      <trkpt lat="48.4539134" lon="-2.0352835">
        <ele>11.011</ele>
        <time>2018-08-18T10:36:05.615Z</time>
      </trkpt>
      <trkpt lat="48.4539961" lon="-2.0354045">
        <ele>11.001</ele>
        <time>2018-08-18T10:36:09.320Z</time>
      </trkpt>
      <trkpt lat="48.4540732" lon="-2.0355392">
        <ele>10.988</ele>
        <time>2018-08-18T10:36:13.074Z</time>
      </trkpt>
      <trkpt lat="48.4541338" lon="-2.0356483">
        <ele>10.957</ele>
        <time>2018-08-18T10:36:16.113Z</time>
      </trkpt>
      <trkpt lat="48.4542013" lon="-2.0357925">
        <ele>10.953</ele>
        <time>2018-08-18T10:36:19.956Z</time>
      </trkpt>
      <trkpt lat="48.4542717" lon="-2.0359370">
        <ele>10.974</ele>
        <time>2018-08-18T10:36:23.788Z</time>
      </trkpt>
      <trkpt lat="48.4543183" lon="-2.0360628">
        <ele>10.997</ele>
        <time>2018-08-18T10:36:26.840Z</time>
      </trkpt>
      <trkpt lat="48.4543571" lon="-2.0361889">
        <ele>10.876</ele>
        <time>2018-08-18T10:36:29.800Z</time>
      </trkpt>
      <trkpt lat="48.4543973" lon="-2.0363105">
        <ele>10.529</ele>
        <time>2018-08-18T10:36:32.700Z</time>
      </trkpt>
      <trkpt lat="48.4544211" lon="-2.0364441">
        <ele>10.077</ele>
        <time>2018-08-18T10:36:35.641Z</time>
      </trkpt>
      <trkpt lat="48.4544371" lon="-2.0365825">
        <ele>9.676</ele>
        <time>2018-08-18T10:36:38.551Z</time>
      </trkpt>
      <trkpt lat="48.4544542" lon="-2.0367252">
        <ele>9.419</ele>
        <time>2018-08-18T10:36:41.471Z</time>
      </trkpt>
      <trkpt lat="48.4544680" lon="-2.0368714">
        <ele>9.359</ele>
        <time>2018-08-18T10:36:44.420Z</time>
      </trkpt>
      <trkpt lat="48.4544789" lon="-2.0370197">
        <ele>9.458</ele>
        <time>2018-08-18T10:36:47.436Z</time>
      </trkpt>
      <trkpt lat="48.4544876" lon="-2.0371671">
        <ele>9.632</ele>
        <time>2018-08-18T10:36:50.489Z</time>
      </trkpt>
      <trkpt lat="48.4544968" lon="-2.0373086">
        <ele>9.732</ele>
        <time>2018-08-18T10:36:53.458Z</time>
      </trkpt>
      <trkpt lat="48.4545052" lon="-2.0374472">
        <ele>9.690</ele>
        <time>2018-08-18T10:36:56.413Z</time>
      </trkpt>
      <trkpt lat="48.4545201" lon="-2.0376206">
        <ele>9.596</ele>
        <time>2018-08-18T10:37:00.208Z</time>
      </trkpt>
      <trkpt lat="48.4545474" lon="-2.0377566">
        <ele>9.568</ele>
        <time>2018-08-18T10:37:03.675Z</time>
      </trkpt>
      <trkpt lat="48.4545969" lon="-2.0378769">
        <ele>9.624</ele>
        <time>2018-08-18T10:37:08.305Z</time>
      </trkpt>
      <trkpt lat="48.4546897" lon="-2.0379354">
        <ele>9.700</ele>
        <time>2018-08-18T10:37:14.706Z</time>
      </trkpt>
      <trkpt lat="48.4547296" lon="-2.0380639">
        <ele>9.734</ele>
        <time>2018-08-18T10:37:21.307Z</time>
      </trkpt>
      <trkpt lat="48.4547785" lon="-2.0382128">
        <ele>9.481</ele>
        <time>2018-08-18T10:37:28.483Z</time>
      </trkpt>
      <trkpt lat="48.4548713" lon="-2.0383090">
        <ele>8.820</ele>
        <time>2018-08-18T10:37:33.673Z</time>
      </trkpt>
      <trkpt lat="48.4549531" lon="-2.0383885">
        <ele>8.192</ele>
        <time>2018-08-18T10:37:37.136Z</time>
      </trkpt>
      <trkpt lat="48.4550378" lon="-2.0384447">
        <ele>7.985</ele>
        <time>2018-08-18T10:37:40.246Z</time>
      </trkpt>
      <trkpt lat="48.4551288" lon="-2.0384786">
        <ele>8.032</ele>
        <time>2018-08-18T10:37:43.392Z</time>
      </trkpt>
      <trkpt lat="48.4552439" lon="-2.0385012">
        <ele>8.093</ele>
        <time>2018-08-18T10:37:47.406Z</time>
      </trkpt>
      <trkpt lat="48.4553558" lon="-2.0384976">
        <ele>8.107</ele>
        <time>2018-08-18T10:37:51.455Z</time>
      </trkpt>
      <trkpt lat="48.4554624" lon="-2.0384623">
        <ele>8.018</ele>
        <time>2018-08-18T10:37:55.477Z</time>
      </trkpt>
      <trkpt lat="48.4555532" lon="-2.0383713">
        <ele>7.795</ele>
        <time>2018-08-18T10:37:59.561Z</time>
      </trkpt>
      <trkpt lat="48.4556351" lon="-2.0382690">
        <ele>7.571</ele>
        <time>2018-08-18T10:38:03.707Z</time>
      </trkpt>
      <trkpt lat="48.4557134" lon="-2.0381552">
        <ele>7.453</ele>
        <time>2018-08-18T10:38:08.321Z</time>
      </trkpt>
      <trkpt lat="48.4557881" lon="-2.0380671">
        <ele>7.404</ele>
        <time>2018-08-18T10:38:12.977Z</time>
      </trkpt>
      <trkpt lat="48.4558656" lon="-2.0379790">
        <ele>7.484</ele>
        <time>2018-08-18T10:38:18.106Z</time>
      </trkpt>
      <trkpt lat="48.4559399" lon="-2.0379021">
        <ele>7.823</ele>
        <time>2018-08-18T10:38:23.000Z</time>
      </trkpt>
      <trkpt lat="48.4559399" lon="-2.0379021">
        <ele>8.310</ele>
        <time>2018-08-18T10:38:35.000Z</time>
      </trkpt>
      <trkpt lat="48.4559399" lon="-2.0379021">
        <ele>8.608</ele>
        <time>2018-08-18T10:38:35.100Z</time>
      </trkpt>
      <trkpt lat="48.4560288" lon="-2.0378814">
        <ele>8.428</ele>
        <time>2018-08-18T10:38:52.000Z</time>
      </trkpt>
      <trkpt lat="48.4560288" lon="-2.0378814">
        <ele>8.331</ele>
        <time>2018-08-18T10:39:04.000Z</time>
      </trkpt>
      <trkpt lat="48.4560288" lon="-2.0378814">
        <ele>8.333</ele>
        <time>2018-08-18T10:39:50.170Z</time>
      </trkpt>
      <trkpt lat="48.4560913" lon="-2.0380014">
        <ele>8.379</ele>
        <time>2018-08-18T10:40:23.000Z</time>
      </trkpt>
      <trkpt lat="48.4560913" lon="-2.0380014">
        <ele>8.406</ele>
        <time>2018-08-18T10:40:35.000Z</time>
      </trkpt>
      <trkpt lat="48.4560913" lon="-2.0380014">
        <ele>8.405</ele>
        <time>2018-08-18T10:42:00.020Z</time>
      </trkpt>
      <trkpt lat="48.4561669" lon="-2.0381326">
        <ele>8.396</ele>
        <time>2018-08-18T10:42:16.143Z</time>
      </trkpt>
      <trkpt lat="48.4562252" lon="-2.0382444">
        <ele>8.580</ele>
        <time>2018-08-18T10:42:24.918Z</time>
      </trkpt>
      <trkpt lat="48.4562432" lon="-2.0383774">
        <ele>9.077</ele>
        <time>2018-08-18T10:42:34.000Z</time>
      </trkpt>
      <trkpt lat="48.4562432" lon="-2.0383774">
        <ele>9.593</ele>
        <time>2018-08-18T10:42:39.000Z</time>
      </trkpt>
      <trkpt lat="48.4562432" lon="-2.0383774">
        <ele>9.809</ele>
        <time>2018-08-18T10:49:31.990Z</time>
      </trkpt>
      <trkpt lat="48.4564121" lon="-2.0382670">
        <ele>9.772</ele>
        <time>2018-08-18T10:49:44.773Z</time>
      </trkpt>
      <trkpt lat="48.4565053" lon="-2.0381728">
        <ele>10.200</ele>
        <time>2018-08-18T10:49:48.701Z</time>
      </trkpt>
      <trkpt lat="48.4565956" lon="-2.0380928">
        <ele>11.586</ele>
        <time>2018-08-18T10:49:52.369Z</time>
      </trkpt>
      <trkpt lat="48.4567005" lon="-2.0380290">
        <ele>13.145</ele>
        <time>2018-08-18T10:49:56.645Z</time>
      </trkpt>
      <trkpt lat="48.4567990" lon="-2.0379820">
        <ele>13.859</ele>
        <time>2018-08-18T10:50:00.743Z</time>
      </trkpt>
      <trkpt lat="48.4568903" lon="-2.0379412">
        <ele>13.565</ele>
        <time>2018-08-18T10:50:04.609Z</time>
      </trkpt>
      <trkpt lat="48.4569881" lon="-2.0379107">
        <ele>12.687</ele>
        <time>2018-08-18T10:50:08.795Z</time>
      </trkpt>
      <trkpt lat="48.4570914" lon="-2.0379144">
        <ele>11.903</ele>
        <time>2018-08-18T10:50:13.339Z</time>
      </trkpt>
      <trkpt lat="48.4571988" lon="-2.0379134">
        <ele>11.672</ele>
        <time>2018-08-18T10:50:17.941Z</time>
      </trkpt>
      <trkpt lat="48.4572967" lon="-2.0379070">
        <ele>11.955</ele>
        <time>2018-08-18T10:50:21.899Z</time>
      </trkpt>
      <trkpt lat="48.4573984" lon="-2.0378864">
        <ele>12.359</ele>
        <time>2018-08-18T10:50:25.805Z</time>
      </trkpt>
      <trkpt lat="48.4575111" lon="-2.0378455">
        <ele>12.583</ele>
        <time>2018-08-18T10:50:29.879Z</time>
      </trkpt>
      <trkpt lat="48.4576020" lon="-2.0378129">
        <ele>12.620</ele>
        <time>2018-08-18T10:50:33.074Z</time>
      </trkpt>
      <trkpt lat="48.4577153" lon="-2.0377630">
        <ele>12.557</ele>
        <time>2018-08-18T10:50:37.039Z</time>
      </trkpt>
      <trkpt lat="48.4578036" lon="-2.0377109">
        <ele>12.492</ele>
        <time>2018-08-18T10:50:40.083Z</time>
      </trkpt>
      <trkpt lat="48.4578918" lon="-2.0376420">
        <ele>12.475</ele>
        <time>2018-08-18T10:50:43.229Z</time>
      </trkpt>
      <trkpt lat="48.4579763" lon="-2.0375631">
        <ele>12.471</ele>
        <time>2018-08-18T10:50:46.465Z</time>
      </trkpt>
      <trkpt lat="48.4580767" lon="-2.0374725">
        <ele>12.282</ele>
        <time>2018-08-18T10:50:50.481Z</time>
      </trkpt>
      <trkpt lat="48.4581752" lon="-2.0373934">
        <ele>11.767</ele>
        <time>2018-08-18T10:50:54.225Z</time>
      </trkpt>
      <trkpt lat="48.4582571" lon="-2.0373206">
        <ele>11.156</ele>
        <time>2018-08-18T10:50:57.309Z</time>
      </trkpt>
      <trkpt lat="48.4583378" lon="-2.0372527">
        <ele>10.736</ele>
        <time>2018-08-18T10:51:00.258Z</time>
      </trkpt>
      <trkpt lat="48.4584193" lon="-2.0371779">
        <ele>10.520</ele>
        <time>2018-08-18T10:51:03.271Z</time>
      </trkpt>
      <trkpt lat="48.4584989" lon="-2.0371033">
        <ele>10.440</ele>
        <time>2018-08-18T10:51:06.226Z</time>
      </trkpt>
      <trkpt lat="48.4585723" lon="-2.0370111">
        <ele>10.445</ele>
        <time>2018-08-18T10:51:09.217Z</time>
      </trkpt>
      <trkpt lat="48.4586418" lon="-2.0369144">
        <ele>10.477</ele>
        <time>2018-08-18T10:51:12.085Z</time>
      </trkpt>
      <trkpt lat="48.4587168" lon="-2.0368131">
        <ele>10.502</ele>
        <time>2018-08-18T10:51:15.085Z</time>
      </trkpt>
      <trkpt lat="48.4587881" lon="-2.0367083">
        <ele>10.494</ele>
        <time>2018-08-18T10:51:18.086Z</time>
      </trkpt>
      <trkpt lat="48.4588552" lon="-2.0366146">
        <ele>10.355</ele>
        <time>2018-08-18T10:51:20.842Z</time>
      </trkpt>
      <trkpt lat="48.4589234" lon="-2.0365125">
        <ele>10.057</ele>
        <time>2018-08-18T10:51:23.652Z</time>
      </trkpt>
      <trkpt lat="48.4589974" lon="-2.0364103">
        <ele>9.803</ele>
        <time>2018-08-18T10:51:26.469Z</time>
      </trkpt>
      <trkpt lat="48.4590758" lon="-2.0363115">
        <ele>9.791</ele>
        <time>2018-08-18T10:51:29.258Z</time>
      </trkpt>
      <trkpt lat="48.4591585" lon="-2.0362058">
        <ele>9.961</ele>
        <time>2018-08-18T10:51:32.182Z</time>
      </trkpt>
      <trkpt lat="48.4592427" lon="-2.0360960">
        <ele>10.074</ele>
        <time>2018-08-18T10:51:35.256Z</time>
      </trkpt>
      <trkpt lat="48.4593266" lon="-2.0359932">
        <ele>9.940</ele>
        <time>2018-08-18T10:51:38.299Z</time>
      </trkpt>
      <trkpt lat="48.4594077" lon="-2.0358823">
        <ele>9.607</ele>
        <time>2018-08-18T10:51:41.387Z</time>
      </trkpt>
      <trkpt lat="48.4594866" lon="-2.0357769">
        <ele>9.254</ele>
        <time>2018-08-18T10:51:44.402Z</time>
      </trkpt>
      <trkpt lat="48.4595678" lon="-2.0356767">
        <ele>8.997</ele>
        <time>2018-08-18T10:51:47.409Z</time>
      </trkpt>
      <trkpt lat="48.4596485" lon="-2.0355717">
        <ele>8.856</ele>
        <time>2018-08-18T10:51:50.510Z</time>
      </trkpt>
      <trkpt lat="48.4597268" lon="-2.0354760">
        <ele>8.789</ele>
        <time>2018-08-18T10:51:53.545Z</time>
      </trkpt>
      <trkpt lat="48.4598001" lon="-2.0353822">
        <ele>8.749</ele>
        <time>2018-08-18T10:51:56.448Z</time>
      </trkpt>
      <trkpt lat="48.4598796" lon="-2.0352863">
        <ele>8.732</ele>
        <time>2018-08-18T10:51:59.501Z</time>
      </trkpt>
      <trkpt lat="48.4599581" lon="-2.0351835">
        <ele>8.744</ele>
        <time>2018-08-18T10:52:02.640Z</time>
      </trkpt>
      <trkpt lat="48.4600314" lon="-2.0350845">
        <ele>8.710</ele>
        <time>2018-08-18T10:52:05.612Z</time>
      </trkpt>
      <trkpt lat="48.4601075" lon="-2.0349916">
        <ele>8.578</ele>
        <time>2018-08-18T10:52:08.571Z</time>
      </trkpt>
      <trkpt lat="48.4601816" lon="-2.0348965">
        <ele>8.405</ele>
        <time>2018-08-18T10:52:11.471Z</time>
      </trkpt>
      <trkpt lat="48.4602539" lon="-2.0347916">
        <ele>8.261</ele>
        <time>2018-08-18T10:52:14.374Z</time>
      </trkpt>
      <trkpt lat="48.4603324" lon="-2.0346752">
        <ele>8.124</ele>
        <time>2018-08-18T10:52:17.471Z</time>
      </trkpt>
      <trkpt lat="48.4604093" lon="-2.0345539">
        <ele>7.848</ele>
        <time>2018-08-18T10:52:20.565Z</time>
      </trkpt>
      <trkpt lat="48.4604880" lon="-2.0344404">
        <ele>7.402</ele>
        <time>2018-08-18T10:52:23.616Z</time>
      </trkpt>
      <trkpt lat="48.4605655" lon="-2.0343318">
        <ele>7.013</ele>
        <time>2018-08-18T10:52:26.607Z</time>
      </trkpt>
      <trkpt lat="48.4606399" lon="-2.0342223">
        <ele>6.759</ele>
        <time>2018-08-18T10:52:29.568Z</time>
      </trkpt>
      <trkpt lat="48.4607133" lon="-2.0341128">
        <ele>6.523</ele>
        <time>2018-08-18T10:52:32.558Z</time>
      </trkpt>
      <trkpt lat="48.4607824" lon="-2.0340095">
        <ele>6.326</ele>
        <time>2018-08-18T10:52:35.415Z</time>
      </trkpt>
      <trkpt lat="48.4608504" lon="-2.0339033">
        <ele>6.280</ele>
        <time>2018-08-18T10:52:38.270Z</time>
      </trkpt>
      <trkpt lat="48.4609227" lon="-2.0337906">
        <ele>6.438</ele>
        <time>2018-08-18T10:52:41.288Z</time>
      </trkpt>
      <trkpt lat="48.4609910" lon="-2.0336831">
        <ele>6.769</ele>
        <time>2018-08-18T10:52:44.089Z</time>
      </trkpt>
      <trkpt lat="48.4610576" lon="-2.0335578">
        <ele>7.285</ele>
        <time>2018-08-18T10:52:47.036Z</time>
      </trkpt>
      <trkpt lat="48.4611232" lon="-2.0334325">
        <ele>7.929</ele>
        <time>2018-08-18T10:52:50.012Z</time>
      </trkpt>
      <trkpt lat="48.4611843" lon="-2.0333114">
        <ele>8.428</ele>
        <time>2018-08-18T10:52:52.937Z</time>
      </trkpt>
      <trkpt lat="48.4612450" lon="-2.0331977">
        <ele>8.663</ele>
        <time>2018-08-18T10:52:55.950Z</time>
      </trkpt>
      <trkpt lat="48.4613005" lon="-2.0330859">
        <ele>8.776</ele>
        <time>2018-08-18T10:52:59.153Z</time>
      </trkpt>
      <trkpt lat="48.4613402" lon="-2.0329170">
        <ele>8.722</ele>
        <time>2018-08-18T10:53:03.339Z</time>
      </trkpt>
      <trkpt lat="48.4613636" lon="-2.0327789">
        <ele>8.384</ele>
        <time>2018-08-18T10:53:06.561Z</time>
      </trkpt>
      <trkpt lat="48.4613926" lon="-2.0326310">
        <ele>7.756</ele>
        <time>2018-08-18T10:53:09.961Z</time>
      </trkpt>
      <trkpt lat="48.4614127" lon="-2.0324843">
        <ele>6.898</ele>
        <time>2018-08-18T10:53:13.142Z</time>
      </trkpt>
      <trkpt lat="48.4614262" lon="-2.0323394">
        <ele>6.041</ele>
        <time>2018-08-18T10:53:16.136Z</time>
      </trkpt>
      <trkpt lat="48.4614393" lon="-2.0321891">
        <ele>5.477</ele>
        <time>2018-08-18T10:53:19.163Z</time>
      </trkpt>
      <trkpt lat="48.4614594" lon="-2.0320417">
        <ele>5.142</ele>
        <time>2018-08-18T10:53:22.078Z</time>
      </trkpt>
      <trkpt lat="48.4614796" lon="-2.0318884">
        <ele>4.810</ele>
        <time>2018-08-18T10:53:25.001Z</time>
      </trkpt>
      <trkpt lat="48.4614989" lon="-2.0317265">
        <ele>4.472</ele>
        <time>2018-08-18T10:53:28.027Z</time>
      </trkpt>
      <trkpt lat="48.4615249" lon="-2.0315678">
        <ele>4.261</ele>
        <time>2018-08-18T10:53:31.035Z</time>
      </trkpt>
      <trkpt lat="48.4615527" lon="-2.0314153">
        <ele>4.329</ele>
        <time>2018-08-18T10:53:33.973Z</time>
      </trkpt>
      <trkpt lat="48.4615787" lon="-2.0312573">
        <ele>4.699</ele>
        <time>2018-08-18T10:53:37.084Z</time>
      </trkpt>
      <trkpt lat="48.4616060" lon="-2.0311050">
        <ele>5.105</ele>
        <time>2018-08-18T10:53:40.227Z</time>
      </trkpt>
      <trkpt lat="48.4616281" lon="-2.0309510">
        <ele>5.269</ele>
        <time>2018-08-18T10:53:43.505Z</time>
      </trkpt>
      <trkpt lat="48.4616434" lon="-2.0308113">
        <ele>5.198</ele>
        <time>2018-08-18T10:53:46.481Z</time>
      </trkpt>
      <trkpt lat="48.4616555" lon="-2.0306744">
        <ele>5.123</ele>
        <time>2018-08-18T10:53:49.349Z</time>
      </trkpt>
      <trkpt lat="48.4616643" lon="-2.0305316">
        <ele>5.266</ele>
        <time>2018-08-18T10:53:52.271Z</time>
      </trkpt>
      <trkpt lat="48.4616740" lon="-2.0303835">
        <ele>5.566</ele>
        <time>2018-08-18T10:53:55.221Z</time>
      </trkpt>
      <trkpt lat="48.4616838" lon="-2.0302290">
        <ele>5.806</ele>
        <time>2018-08-18T10:53:58.198Z</time>
      </trkpt>
      <trkpt lat="48.4616955" lon="-2.0300719">
        <ele>5.972</ele>
        <time>2018-08-18T10:54:01.125Z</time>
      </trkpt>
      <trkpt lat="48.4617142" lon="-2.0299081">
        <ele>6.207</ele>
        <time>2018-08-18T10:54:04.130Z</time>
      </trkpt>
      <trkpt lat="48.4617409" lon="-2.0297493">
        <ele>6.528</ele>
        <time>2018-08-18T10:54:07.153Z</time>
      </trkpt>
      <trkpt lat="48.4617830" lon="-2.0296002">
        <ele>6.807</ele>
        <time>2018-08-18T10:54:10.303Z</time>
      </trkpt>
      <trkpt lat="48.4618432" lon="-2.0294910">
        <ele>6.957</ele>
        <time>2018-08-18T10:54:13.111Z</time>
      </trkpt>
      <trkpt lat="48.4619234" lon="-2.0293941">
        <ele>7.103</ele>
        <time>2018-08-18T10:54:16.117Z</time>
      </trkpt>
      <trkpt lat="48.4620104" lon="-2.0293111">
        <ele>7.380</ele>
        <time>2018-08-18T10:54:19.109Z</time>
      </trkpt>
      <trkpt lat="48.4621050" lon="-2.0292585">
        <ele>7.660</ele>
        <time>2018-08-18T10:54:22.130Z</time>
      </trkpt>
      <trkpt lat="48.4621933" lon="-2.0292134">
        <ele>7.849</ele>
        <time>2018-08-18T10:54:25.031Z</time>
      </trkpt>
      <trkpt lat="48.4623037" lon="-2.0291706">
        <ele>8.061</ele>
        <time>2018-08-18T10:54:28.628Z</time>
      </trkpt>
      <trkpt lat="48.4624020" lon="-2.0291399">
        <ele>8.302</ele>
        <time>2018-08-18T10:54:31.684Z</time>
      </trkpt>
      <trkpt lat="48.4624992" lon="-2.0291120">
        <ele>8.423</ele>
        <time>2018-08-18T10:54:34.673Z</time>
      </trkpt>
      <trkpt lat="48.4625986" lon="-2.0290854">
        <ele>8.349</ele>
        <time>2018-08-18T10:54:37.756Z</time>
      </trkpt>
      <trkpt lat="48.4626945" lon="-2.0290544">
        <ele>8.176</ele>
        <time>2018-08-18T10:54:40.794Z</time>
      </trkpt>
      <trkpt lat="48.4627846" lon="-2.0290102">
        <ele>8.031</ele>
        <time>2018-08-18T10:54:43.675Z</time>
      </trkpt>
      <trkpt lat="48.4628760" lon="-2.0289486">
        <ele>7.966</ele>
        <time>2018-08-18T10:54:46.617Z</time>
      </trkpt>
      <trkpt lat="48.4629741" lon="-2.0288738">
        <ele>8.030</ele>
        <time>2018-08-18T10:54:49.783Z</time>
      </trkpt>
      <trkpt lat="48.4630659" lon="-2.0287978">
        <ele>8.225</ele>
        <time>2018-08-18T10:54:52.754Z</time>
      </trkpt>
      <trkpt lat="48.4631606" lon="-2.0287178">
        <ele>8.422</ele>
        <time>2018-08-18T10:54:55.768Z</time>
      </trkpt>
      <trkpt lat="48.4632539" lon="-2.0286331">
        <ele>8.518</ele>
        <time>2018-08-18T10:54:58.736Z</time>
      </trkpt>
      <trkpt lat="48.4633437" lon="-2.0285312">
        <ele>8.535</ele>
        <time>2018-08-18T10:55:01.814Z</time>
      </trkpt>
      <trkpt lat="48.4634233" lon="-2.0284241">
        <ele>8.504</ele>
        <time>2018-08-18T10:55:04.806Z</time>
      </trkpt>
      <trkpt lat="48.4635020" lon="-2.0283329">
        <ele>8.454</ele>
        <time>2018-08-18T10:55:07.554Z</time>
      </trkpt>
      <trkpt lat="48.4635897" lon="-2.0282280">
        <ele>8.431</ele>
        <time>2018-08-18T10:55:10.617Z</time>
      </trkpt>
      <trkpt lat="48.4636637" lon="-2.0281277">
        <ele>8.475</ele>
        <time>2018-08-18T10:55:13.434Z</time>
      </trkpt>
      <trkpt lat="48.4637303" lon="-2.0280256">
        <ele>8.573</ele>
        <time>2018-08-18T10:55:16.188Z</time>
      </trkpt>
      <trkpt lat="48.4637981" lon="-2.0279191">
        <ele>8.766</ele>
        <time>2018-08-18T10:55:19.035Z</time>
      </trkpt>
      <trkpt lat="48.4638688" lon="-2.0278019">
        <ele>9.083</ele>
        <time>2018-08-18T10:55:22.122Z</time>
      </trkpt>
      <trkpt lat="48.4639357" lon="-2.0276894">
        <ele>9.298</ele>
        <time>2018-08-18T10:55:25.191Z</time>
      </trkpt>
      <trkpt lat="48.4639987" lon="-2.0275870">
        <ele>9.230</ele>
        <time>2018-08-18T10:55:28.162Z</time>
      </trkpt>
      <trkpt lat="48.4640763" lon="-2.0275111">
        <ele>9.054</ele>
        <time>2018-08-18T10:55:31.164Z</time>
      </trkpt>
      <trkpt lat="48.4641614" lon="-2.0274600">
        <ele>9.044</ele>
        <time>2018-08-18T10:55:34.050Z</time>
      </trkpt>
      <trkpt lat="48.4642438" lon="-2.0273975">
        <ele>9.272</ele>
        <time>2018-08-18T10:55:36.852Z</time>
      </trkpt>
      <trkpt lat="48.4643338" lon="-2.0273325">
        <ele>9.574</ele>
        <time>2018-08-18T10:55:39.904Z</time>
      </trkpt>
      <trkpt lat="48.4644245" lon="-2.0272911">
        <ele>9.787</ele>
        <time>2018-08-18T10:55:42.868Z</time>
      </trkpt>
      <trkpt lat="48.4645299" lon="-2.0272204">
        <ele>9.864</ele>
        <time>2018-08-18T10:55:46.539Z</time>
      </trkpt>
      <trkpt lat="48.4646370" lon="-2.0271418">
        <ele>9.683</ele>
        <time>2018-08-18T10:55:50.413Z</time>
      </trkpt>
      <trkpt lat="48.4647282" lon="-2.0271241">
        <ele>9.264</ele>
        <time>2018-08-18T10:55:53.403Z</time>
      </trkpt>
      <trkpt lat="48.4648202" lon="-2.0271179">
        <ele>8.909</ele>
        <time>2018-08-18T10:55:56.342Z</time>
      </trkpt>
      <trkpt lat="48.4649139" lon="-2.0271060">
        <ele>8.805</ele>
        <time>2018-08-18T10:55:59.266Z</time>
      </trkpt>
      <trkpt lat="48.4650108" lon="-2.0271225">
        <ele>8.847</ele>
        <time>2018-08-18T10:56:02.245Z</time>
      </trkpt>
      <trkpt lat="48.4651098" lon="-2.0271409">
        <ele>8.898</ele>
        <time>2018-08-18T10:56:05.210Z</time>
      </trkpt>
      <trkpt lat="48.4652150" lon="-2.0271697">
        <ele>8.918</ele>
        <time>2018-08-18T10:56:08.275Z</time>
      </trkpt>
      <trkpt lat="48.4653238" lon="-2.0272023">
        <ele>8.900</ele>
        <time>2018-08-18T10:56:11.359Z</time>
      </trkpt>
      <trkpt lat="48.4654322" lon="-2.0272334">
        <ele>8.778</ele>
        <time>2018-08-18T10:56:14.366Z</time>
      </trkpt>
      <trkpt lat="48.4655420" lon="-2.0272665">
        <ele>8.536</ele>
        <time>2018-08-18T10:56:17.404Z</time>
      </trkpt>
      <trkpt lat="48.4656510" lon="-2.0272959">
        <ele>8.208</ele>
        <time>2018-08-18T10:56:20.418Z</time>
      </trkpt>
      <trkpt lat="48.4657555" lon="-2.0273157">
        <ele>7.840</ele>
        <time>2018-08-18T10:56:23.274Z</time>
      </trkpt>
      <trkpt lat="48.4658600" lon="-2.0273347">
        <ele>7.592</ele>
        <time>2018-08-18T10:56:26.127Z</time>
      </trkpt>
      <trkpt lat="48.4659644" lon="-2.0273561">
        <ele>7.690</ele>
        <time>2018-08-18T10:56:29.001Z</time>
      </trkpt>
      <trkpt lat="48.4660707" lon="-2.0273761">
        <ele>8.115</ele>
        <time>2018-08-18T10:56:31.918Z</time>
      </trkpt>
      <trkpt lat="48.4661781" lon="-2.0274016">
        <ele>8.569</ele>
        <time>2018-08-18T10:56:34.863Z</time>
      </trkpt>
      <trkpt lat="48.4662872" lon="-2.0273971">
        <ele>8.854</ele>
        <time>2018-08-18T10:56:37.807Z</time>
      </trkpt>
      <trkpt lat="48.4663980" lon="-2.0273963">
        <ele>9.024</ele>
        <time>2018-08-18T10:56:40.786Z</time>
      </trkpt>
      <trkpt lat="48.4665093" lon="-2.0274008">
        <ele>9.119</ele>
        <time>2018-08-18T10:56:43.790Z</time>
      </trkpt>
      <trkpt lat="48.4666173" lon="-2.0274049">
        <ele>9.142</ele>
        <time>2018-08-18T10:56:46.717Z</time>
      </trkpt>
      <trkpt lat="48.4667253" lon="-2.0274014">
        <ele>9.168</ele>
        <time>2018-08-18T10:56:49.661Z</time>
      </trkpt>
      <trkpt lat="48.4668328" lon="-2.0273912">
        <ele>9.271</ele>
        <time>2018-08-18T10:56:52.600Z</time>
      </trkpt>
      <trkpt lat="48.4669429" lon="-2.0273828">
        <ele>9.433</ele>
        <time>2018-08-18T10:56:55.593Z</time>
      </trkpt>
      <trkpt lat="48.4670542" lon="-2.0273637">
        <ele>9.604</ele>
        <time>2018-08-18T10:56:58.621Z</time>
      </trkpt>
      <trkpt lat="48.4671578" lon="-2.0273354">
        <ele>9.751</ele>
        <time>2018-08-18T10:57:01.548Z</time>
      </trkpt>
      <trkpt lat="48.4672478" lon="-2.0273165">
        <ele>9.916</ele>
        <time>2018-08-18T10:57:04.203Z</time>
      </trkpt>
      <trkpt lat="48.4673431" lon="-2.0272694">
        <ele>10.214</ele>
        <time>2018-08-18T10:57:07.181Z</time>
      </trkpt>
      <trkpt lat="48.4674434" lon="-2.0271868">
        <ele>10.614</ele>
        <time>2018-08-18T10:57:10.471Z</time>
      </trkpt>
      <trkpt lat="48.4675242" lon="-2.0271020">
        <ele>10.913</ele>
        <time>2018-08-18T10:57:13.311Z</time>
      </trkpt>
      <trkpt lat="48.4676025" lon="-2.0270054">
        <ele>11.122</ele>
        <time>2018-08-18T10:57:16.294Z</time>
      </trkpt>
      <trkpt lat="48.4676697" lon="-2.0269076">
        <ele>11.395</ele>
        <time>2018-08-18T10:57:19.112Z</time>
      </trkpt>
      <trkpt lat="48.4677593" lon="-2.0267791">
        <ele>11.658</ele>
        <time>2018-08-18T10:57:22.918Z</time>
      </trkpt>
      <trkpt lat="48.4678259" lon="-2.0266534">
        <ele>11.348</ele>
        <time>2018-08-18T10:57:26.139Z</time>
      </trkpt>
      <trkpt lat="48.4679025" lon="-2.0265444">
        <ele>10.255</ele>
        <time>2018-08-18T10:57:29.250Z</time>
      </trkpt>
      <trkpt lat="48.4679759" lon="-2.0264504">
        <ele>9.109</ele>
        <time>2018-08-18T10:57:32.098Z</time>
      </trkpt>
      <trkpt lat="48.4680580" lon="-2.0263272">
        <ele>8.552</ele>
        <time>2018-08-18T10:57:35.469Z</time>
      </trkpt>
      <trkpt lat="48.4681458" lon="-2.0262138">
        <ele>8.456</ele>
        <time>2018-08-18T10:57:38.789Z</time>
      </trkpt>
      <trkpt lat="48.4682268" lon="-2.0261093">
        <ele>8.493</ele>
        <time>2018-08-18T10:57:41.901Z</time>
      </trkpt>
      <trkpt lat="48.4683006" lon="-2.0260058">
        <ele>8.581</ele>
        <time>2018-08-18T10:57:44.861Z</time>
      </trkpt>
      <trkpt lat="48.4683799" lon="-2.0258987">
        <ele>8.797</ele>
        <time>2018-08-18T10:57:47.948Z</time>
      </trkpt>
      <trkpt lat="48.4684597" lon="-2.0257941">
        <ele>9.024</ele>
        <time>2018-08-18T10:57:50.998Z</time>
      </trkpt>
      <trkpt lat="48.4685427" lon="-2.0256948">
        <ele>9.094</ele>
        <time>2018-08-18T10:57:54.114Z</time>
      </trkpt>
      <trkpt lat="48.4686145" lon="-2.0256005">
        <ele>8.986</ele>
        <time>2018-08-18T10:57:56.972Z</time>
      </trkpt>
      <trkpt lat="48.4686821" lon="-2.0254843">
        <ele>8.813</ele>
        <time>2018-08-18T10:58:00.031Z</time>
      </trkpt>
      <trkpt lat="48.4687409" lon="-2.0253571">
        <ele>8.679</ele>
        <time>2018-08-18T10:58:03.013Z</time>
      </trkpt>
      <trkpt lat="48.4688014" lon="-2.0252255">
        <ele>8.494</ele>
        <time>2018-08-18T10:58:06.031Z</time>
      </trkpt>
      <trkpt lat="48.4688494" lon="-2.0250900">
        <ele>8.176</ele>
        <time>2018-08-18T10:58:08.926Z</time>
      </trkpt>
      <trkpt lat="48.4689325" lon="-2.0249896">
        <ele>7.831</ele>
        <time>2018-08-18T10:58:11.930Z</time>
      </trkpt>
      <trkpt lat="48.4689884" lon="-2.0248489">
        <ele>7.604</ele>
        <time>2018-08-18T10:58:14.986Z</time>
      </trkpt>
      <trkpt lat="48.4690209" lon="-2.0246910">
        <ele>7.556</ele>
        <time>2018-08-18T10:58:18.078Z</time>
      </trkpt>
      <trkpt lat="48.4690631" lon="-2.0245374">
        <ele>7.624</ele>
        <time>2018-08-18T10:58:21.176Z</time>
      </trkpt>
      <trkpt lat="48.4691047" lon="-2.0243817">
        <ele>7.724</ele>
        <time>2018-08-18T10:58:24.324Z</time>
      </trkpt>
      <trkpt lat="48.4691426" lon="-2.0242365">
        <ele>7.631</ele>
        <time>2018-08-18T10:58:27.298Z</time>
      </trkpt>
      <trkpt lat="48.4691817" lon="-2.0240932">
        <ele>7.153</ele>
        <time>2018-08-18T10:58:30.284Z</time>
      </trkpt>
      <trkpt lat="48.4692192" lon="-2.0239617">
        <ele>6.467</ele>
        <time>2018-08-18T10:58:33.058Z</time>
      </trkpt>
      <trkpt lat="48.4692711" lon="-2.0238281">
        <ele>5.918</ele>
        <time>2018-08-18T10:58:36.031Z</time>
      </trkpt>
      <trkpt lat="48.4693167" lon="-2.0236846">
        <ele>5.651</ele>
        <time>2018-08-18T10:58:39.059Z</time>
      </trkpt>
      <trkpt lat="48.4693580" lon="-2.0235488">
        <ele>5.647</ele>
        <time>2018-08-18T10:58:41.934Z</time>
      </trkpt>
      <trkpt lat="48.4693973" lon="-2.0234162">
        <ele>5.797</ele>
        <time>2018-08-18T10:58:44.768Z</time>
      </trkpt>
      <trkpt lat="48.4694370" lon="-2.0232853">
        <ele>6.203</ele>
        <time>2018-08-18T10:58:47.610Z</time>
      </trkpt>
      <trkpt lat="48.4694763" lon="-2.0231576">
        <ele>7.095</ele>
        <time>2018-08-18T10:58:50.396Z</time>
      </trkpt>
      <trkpt lat="48.4695239" lon="-2.0230197">
        <ele>8.229</ele>
        <time>2018-08-18T10:58:53.473Z</time>
      </trkpt>
      <trkpt lat="48.4695714" lon="-2.0228554">
        <ele>9.058</ele>
        <time>2018-08-18T10:58:57.054Z</time>
      </trkpt>
      <trkpt lat="48.4696169" lon="-2.0227384">
        <ele>9.693</ele>
        <time>2018-08-18T10:58:59.804Z</time>
      </trkpt>
      <trkpt lat="48.4696697" lon="-2.0226076">
        <ele>10.450</ele>
        <time>2018-08-18T10:59:02.870Z</time>
      </trkpt>
      <trkpt lat="48.4697202" lon="-2.0224735">
        <ele>10.972</ele>
        <time>2018-08-18T10:59:05.911Z</time>
      </trkpt>
      <trkpt lat="48.4697651" lon="-2.0223390">
        <ele>10.911</ele>
        <time>2018-08-18T10:59:08.854Z</time>
      </trkpt>
      <trkpt lat="48.4698012" lon="-2.0221977">
        <ele>10.599</ele>
        <time>2018-08-18T10:59:11.793Z</time>
      </trkpt>
      <trkpt lat="48.4698371" lon="-2.0220502">
        <ele>10.447</ele>
        <time>2018-08-18T10:59:14.809Z</time>
      </trkpt>
      <trkpt lat="48.4698695" lon="-2.0219017">
        <ele>10.514</ele>
        <time>2018-08-18T10:59:17.797Z</time>
      </trkpt>
      <trkpt lat="48.4698967" lon="-2.0217544">
        <ele>10.656</ele>
        <time>2018-08-18T10:59:20.750Z</time>
      </trkpt>
      <trkpt lat="48.4699210" lon="-2.0216208">
        <ele>10.749</ele>
        <time>2018-08-18T10:59:23.485Z</time>
      </trkpt>
      <trkpt lat="48.4699322" lon="-2.0214553">
        <ele>10.824</ele>
        <time>2018-08-18T10:59:26.896Z</time>
      </trkpt>
      <trkpt lat="48.4699448" lon="-2.0213033">
        <ele>11.064</ele>
        <time>2018-08-18T10:59:30.051Z</time>
      </trkpt>
      <trkpt lat="48.4699593" lon="-2.0211416">
        <ele>11.504</ele>
        <time>2018-08-18T10:59:33.298Z</time>
      </trkpt>
      <trkpt lat="48.4699607" lon="-2.0209970">
        <ele>11.830</ele>
        <time>2018-08-18T10:59:36.171Z</time>
      </trkpt>
      <trkpt lat="48.4699622" lon="-2.0208484">
        <ele>11.817</ele>
        <time>2018-08-18T10:59:39.160Z</time>
      </trkpt>
      <trkpt lat="48.4699698" lon="-2.0206931">
        <ele>11.615</ele>
        <time>2018-08-18T10:59:42.354Z</time>
      </trkpt>
      <trkpt lat="48.4699742" lon="-2.0205384">
        <ele>11.447</ele>
        <time>2018-08-18T10:59:45.523Z</time>
      </trkpt>
      <trkpt lat="48.4699688" lon="-2.0203876">
        <ele>11.317</ele>
        <time>2018-08-18T10:59:48.562Z</time>
      </trkpt>
      <trkpt lat="48.4699844" lon="-2.0202484">
        <ele>11.141</ele>
        <time>2018-08-18T10:59:51.505Z</time>
      </trkpt>
      <trkpt lat="48.4699870" lon="-2.0200777">
        <ele>10.938</ele>
        <time>2018-08-18T10:59:55.038Z</time>
      </trkpt>
      <trkpt lat="48.4699915" lon="-2.0199144">
        <ele>10.782</ele>
        <time>2018-08-18T10:59:58.247Z</time>
      </trkpt>
      <trkpt lat="48.4700003" lon="-2.0197531">
        <ele>10.723</ele>
        <time>2018-08-18T11:00:01.306Z</time>
      </trkpt>
      <trkpt lat="48.4700163" lon="-2.0195904">
        <ele>10.808</ele>
        <time>2018-08-18T11:00:04.295Z</time>
      </trkpt>
      <trkpt lat="48.4700280" lon="-2.0194270">
        <ele>11.000</ele>
        <time>2018-08-18T11:00:07.193Z</time>
      </trkpt>
      <trkpt lat="48.4700456" lon="-2.0192521">
        <ele>11.184</ele>
        <time>2018-08-18T11:00:10.273Z</time>
      </trkpt>
      <trkpt lat="48.4700662" lon="-2.0190889">
        <ele>11.278</ele>
        <time>2018-08-18T11:00:13.201Z</time>
      </trkpt>
      <trkpt lat="48.4700818" lon="-2.0189260">
        <ele>11.287</ele>
        <time>2018-08-18T11:00:16.160Z</time>
      </trkpt>
      <trkpt lat="48.4700992" lon="-2.0187720">
        <ele>11.270</ele>
        <time>2018-08-18T11:00:18.999Z</time>
      </trkpt>
      <trkpt lat="48.4701091" lon="-2.0186147">
        <ele>11.481</ele>
        <time>2018-08-18T11:00:21.878Z</time>
      </trkpt>
      <trkpt lat="48.4701143" lon="-2.0184617">
        <ele>12.020</ele>
        <time>2018-08-18T11:00:24.669Z</time>
      </trkpt>
      <trkpt lat="48.4701225" lon="-2.0183081">
        <ele>12.555</ele>
        <time>2018-08-18T11:00:27.503Z</time>
      </trkpt>
      <trkpt lat="48.4701337" lon="-2.0181459">
        <ele>12.780</ele>
        <time>2018-08-18T11:00:30.519Z</time>
      </trkpt>
      <trkpt lat="48.4701515" lon="-2.0179912">
        <ele>12.789</ele>
        <time>2018-08-18T11:00:33.433Z</time>
      </trkpt>
      <trkpt lat="48.4701667" lon="-2.0178427">
        <ele>12.773</ele>
        <time>2018-08-18T11:00:36.262Z</time>
      </trkpt>
      <trkpt lat="48.4701808" lon="-2.0176861">
        <ele>12.804</ele>
        <time>2018-08-18T11:00:39.268Z</time>
      </trkpt>
      <trkpt lat="48.4701977" lon="-2.0175223">
        <ele>12.876</ele>
        <time>2018-08-18T11:00:42.374Z</time>
      </trkpt>
      <trkpt lat="48.4702108" lon="-2.0173616">
        <ele>12.953</ele>
        <time>2018-08-18T11:00:45.373Z</time>
      </trkpt>
      <trkpt lat="48.4702201" lon="-2.0171990">
        <ele>12.948</ele>
        <time>2018-08-18T11:00:48.398Z</time>
      </trkpt>
      <trkpt lat="48.4702366" lon="-2.0170338">
        <ele>12.801</ele>
        <time>2018-08-18T11:00:51.473Z</time>
      </trkpt>
      <trkpt lat="48.4702554" lon="-2.0168673">
        <ele>12.340</ele>
        <time>2018-08-18T11:00:54.562Z</time>
      </trkpt>
      <trkpt lat="48.4702766" lon="-2.0166992">
        <ele>11.559</ele>
        <time>2018-08-18T11:00:57.725Z</time>
      </trkpt>
      <trkpt lat="48.4702925" lon="-2.0165431">
        <ele>10.664</ele>
        <time>2018-08-18T11:01:00.714Z</time>
      </trkpt>
      <trkpt lat="48.4703030" lon="-2.0163951">
        <ele>9.824</ele>
        <time>2018-08-18T11:01:03.596Z</time>
      </trkpt>
      <trkpt lat="48.4703133" lon="-2.0162443">
        <ele>9.366</ele>
        <time>2018-08-18T11:01:06.566Z</time>
      </trkpt>
      <trkpt lat="48.4703216" lon="-2.0160872">
        <ele>9.518</ele>
        <time>2018-08-18T11:01:09.611Z</time>
      </trkpt>
      <trkpt lat="48.4703277" lon="-2.0159229">
        <ele>9.919</ele>
        <time>2018-08-18T11:01:12.691Z</time>
      </trkpt>
      <trkpt lat="48.4703441" lon="-2.0157589">
        <ele>10.198</ele>
        <time>2018-08-18T11:01:15.750Z</time>
      </trkpt>
      <trkpt lat="48.4703605" lon="-2.0156025">
        <ele>10.314</ele>
        <time>2018-08-18T11:01:18.669Z</time>
      </trkpt>
      <trkpt lat="48.4703749" lon="-2.0154496">
        <ele>10.420</ele>
        <time>2018-08-18T11:01:21.522Z</time>
      </trkpt>
      <trkpt lat="48.4703914" lon="-2.0152996">
        <ele>10.725</ele>
        <time>2018-08-18T11:01:24.352Z</time>
      </trkpt>
      <trkpt lat="48.4704064" lon="-2.0151531">
        <ele>11.299</ele>
        <time>2018-08-18T11:01:27.163Z</time>
      </trkpt>
      <trkpt lat="48.4704285" lon="-2.0150000">
        <ele>11.931</ele>
        <time>2018-08-18T11:01:30.183Z</time>
      </trkpt>
      <trkpt lat="48.4704362" lon="-2.0148421">
        <ele>12.206</ele>
        <time>2018-08-18T11:01:33.236Z</time>
      </trkpt>
      <trkpt lat="48.4704465" lon="-2.0146850">
        <ele>11.969</ele>
        <time>2018-08-18T11:01:36.252Z</time>
      </trkpt>
      <trkpt lat="48.4704658" lon="-2.0145235">
        <ele>11.482</ele>
        <time>2018-08-18T11:01:39.333Z</time>
      </trkpt>
      <trkpt lat="48.4704859" lon="-2.0143603">
        <ele>10.934</ele>
        <time>2018-08-18T11:01:42.385Z</time>
      </trkpt>
      <trkpt lat="48.4705017" lon="-2.0142027">
        <ele>10.384</ele>
        <time>2018-08-18T11:01:45.294Z</time>
      </trkpt>
      <trkpt lat="48.4705177" lon="-2.0140447">
        <ele>10.003</ele>
        <time>2018-08-18T11:01:48.210Z</time>
      </trkpt>
      <trkpt lat="48.4705287" lon="-2.0138838">
        <ele>9.934</ele>
        <time>2018-08-18T11:01:51.149Z</time>
      </trkpt>
      <trkpt lat="48.4705341" lon="-2.0137227">
        <ele>10.124</ele>
        <time>2018-08-18T11:01:54.059Z</time>
      </trkpt>
      <trkpt lat="48.4705407" lon="-2.0135586">
        <ele>10.416</ele>
        <time>2018-08-18T11:01:56.994Z</time>
      </trkpt>
      <trkpt lat="48.4705552" lon="-2.0133928">
        <ele>10.675</ele>
        <time>2018-08-18T11:01:59.925Z</time>
      </trkpt>
      <trkpt lat="48.4705656" lon="-2.0132228">
        <ele>10.840</ele>
        <time>2018-08-18T11:02:02.884Z</time>
      </trkpt>
      <trkpt lat="48.4705834" lon="-2.0130465">
        <ele>10.855</ele>
        <time>2018-08-18T11:02:05.959Z</time>
      </trkpt>
      <trkpt lat="48.4706011" lon="-2.0128861">
        <ele>10.748</ele>
        <time>2018-08-18T11:02:08.775Z</time>
      </trkpt>
      <trkpt lat="48.4706111" lon="-2.0127341">
        <ele>10.633</ele>
        <time>2018-08-18T11:02:11.519Z</time>
      </trkpt>
      <trkpt lat="48.4706314" lon="-2.0125913">
        <ele>10.586</ele>
        <time>2018-08-18T11:02:14.299Z</time>
      </trkpt>
      <trkpt lat="48.4706557" lon="-2.0124183">
        <ele>10.514</ele>
        <time>2018-08-18T11:02:17.933Z</time>
      </trkpt>
      <trkpt lat="48.4706903" lon="-2.0122917">
        <ele>10.344</ele>
        <time>2018-08-18T11:02:20.875Z</time>
      </trkpt>
      <trkpt lat="48.4707350" lon="-2.0121412">
        <ele>10.088</ele>
        <time>2018-08-18T11:02:24.613Z</time>
      </trkpt>
      <trkpt lat="48.4707598" lon="-2.0119938">
        <ele>9.690</ele>
        <time>2018-08-18T11:02:28.288Z</time>
      </trkpt>
      <trkpt lat="48.4707874" lon="-2.0118424">
        <ele>9.154</ele>
        <time>2018-08-18T11:02:32.261Z</time>
      </trkpt>
      <trkpt lat="48.4708116" lon="-2.0116715">
        <ele>8.709</ele>
        <time>2018-08-18T11:02:36.602Z</time>
      </trkpt>
      <trkpt lat="48.4708448" lon="-2.0115286">
        <ele>8.577</ele>
        <time>2018-08-18T11:02:40.082Z</time>
      </trkpt>
      <trkpt lat="48.4708748" lon="-2.0113867">
        <ele>8.752</ele>
        <time>2018-08-18T11:02:43.284Z</time>
      </trkpt>
      <trkpt lat="48.4709047" lon="-2.0112409">
        <ele>9.005</ele>
        <time>2018-08-18T11:02:46.434Z</time>
      </trkpt>
      <trkpt lat="48.4709475" lon="-2.0110971">
        <ele>9.092</ele>
        <time>2018-08-18T11:02:49.556Z</time>
      </trkpt>
      <trkpt lat="48.4709916" lon="-2.0109723">
        <ele>8.993</ele>
        <time>2018-08-18T11:02:52.349Z</time>
      </trkpt>
      <trkpt lat="48.4710373" lon="-2.0108539">
        <ele>8.915</ele>
        <time>2018-08-18T11:02:55.113Z</time>
      </trkpt>
      <trkpt lat="48.4710943" lon="-2.0107217">
        <ele>9.006</ele>
        <time>2018-08-18T11:02:58.319Z</time>
      </trkpt>
      <trkpt lat="48.4711548" lon="-2.0105953">
        <ele>9.138</ele>
        <time>2018-08-18T11:03:01.429Z</time>
      </trkpt>
      <trkpt lat="48.4712210" lon="-2.0104840">
        <ele>9.104</ele>
        <time>2018-08-18T11:03:04.383Z</time>
      </trkpt>
      <trkpt lat="48.4712996" lon="-2.0103803">
        <ele>8.765</ele>
        <time>2018-08-18T11:03:07.496Z</time>
      </trkpt>
      <trkpt lat="48.4713898" lon="-2.0102763">
        <ele>8.155</ele>
        <time>2018-08-18T11:03:10.745Z</time>
      </trkpt>
      <trkpt lat="48.4714809" lon="-2.0101758">
        <ele>7.560</ele>
        <time>2018-08-18T11:03:13.825Z</time>
      </trkpt>
      <trkpt lat="48.4715702" lon="-2.0100802">
        <ele>7.259</ele>
        <time>2018-08-18T11:03:16.790Z</time>
      </trkpt>
      <trkpt lat="48.4716606" lon="-2.0099971">
        <ele>7.264</ele>
        <time>2018-08-18T11:03:19.722Z</time>
      </trkpt>
      <trkpt lat="48.4717452" lon="-2.0099205">
        <ele>7.491</ele>
        <time>2018-08-18T11:03:22.580Z</time>
      </trkpt>
      <trkpt lat="48.4718363" lon="-2.0098329">
        <ele>7.859</ele>
        <time>2018-08-18T11:03:25.741Z</time>
      </trkpt>
      <trkpt lat="48.4719254" lon="-2.0097417">
        <ele>8.202</ele>
        <time>2018-08-18T11:03:28.837Z</time>
      </trkpt>
      <trkpt lat="48.4720115" lon="-2.0096519">
        <ele>8.369</ele>
        <time>2018-08-18T11:03:31.849Z</time>
      </trkpt>
      <trkpt lat="48.4720949" lon="-2.0095694">
        <ele>8.385</ele>
        <time>2018-08-18T11:03:34.758Z</time>
      </trkpt>
      <trkpt lat="48.4721790" lon="-2.0094880">
        <ele>8.457</ele>
        <time>2018-08-18T11:03:37.660Z</time>
      </trkpt>
      <trkpt lat="48.4722656" lon="-2.0094051">
        <ele>8.722</ele>
        <time>2018-08-18T11:03:40.594Z</time>
      </trkpt>
      <trkpt lat="48.4723532" lon="-2.0093214">
        <ele>9.017</ele>
        <time>2018-08-18T11:03:43.559Z</time>
      </trkpt>
      <trkpt lat="48.4724444" lon="-2.0092356">
        <ele>9.192</ele>
        <time>2018-08-18T11:03:46.620Z</time>
      </trkpt>
      <trkpt lat="48.4725289" lon="-2.0091470">
        <ele>9.260</ele>
        <time>2018-08-18T11:03:49.576Z</time>
      </trkpt>
      <trkpt lat="48.4726184" lon="-2.0090516">
        <ele>9.194</ele>
        <time>2018-08-18T11:03:52.732Z</time>
      </trkpt>
      <trkpt lat="48.4726973" lon="-2.0089705">
        <ele>9.029</ele>
        <time>2018-08-18T11:03:55.507Z</time>
      </trkpt>
      <trkpt lat="48.4727880" lon="-2.0088777">
        <ele>9.113</ele>
        <time>2018-08-18T11:03:58.727Z</time>
      </trkpt>
      <trkpt lat="48.4728765" lon="-2.0087888">
        <ele>9.635</ele>
        <time>2018-08-18T11:04:01.788Z</time>
      </trkpt>
      <trkpt lat="48.4729717" lon="-2.0087027">
        <ele>10.154</ele>
        <time>2018-08-18T11:04:04.918Z</time>
      </trkpt>
      <trkpt lat="48.4730683" lon="-2.0086238">
        <ele>10.244</ele>
        <time>2018-08-18T11:04:07.964Z</time>
      </trkpt>
      <trkpt lat="48.4731587" lon="-2.0085498">
        <ele>10.050</ele>
        <time>2018-08-18T11:04:10.777Z</time>
      </trkpt>
      <trkpt lat="48.4732493" lon="-2.0084810">
        <ele>9.808</ele>
        <time>2018-08-18T11:04:13.604Z</time>
      </trkpt>
      <trkpt lat="48.4733336" lon="-2.0084038">
        <ele>9.599</ele>
        <time>2018-08-18T11:04:16.479Z</time>
      </trkpt>
      <trkpt lat="48.4734279" lon="-2.0083271">
        <ele>9.510</ele>
        <time>2018-08-18T11:04:19.621Z</time>
      </trkpt>
      <trkpt lat="48.4735292" lon="-2.0082501">
        <ele>9.580</ele>
        <time>2018-08-18T11:04:22.890Z</time>
      </trkpt>
      <trkpt lat="48.4736341" lon="-2.0081661">
        <ele>9.380</ele>
        <time>2018-08-18T11:04:26.329Z</time>
      </trkpt>
      <trkpt lat="48.4737522" lon="-2.0081211">
        <ele>8.375</ele>
        <time>2018-08-18T11:04:29.879Z</time>
      </trkpt>
      <trkpt lat="48.4738708" lon="-2.0081320">
        <ele>6.731</ele>
        <time>2018-08-18T11:04:33.303Z</time>
      </trkpt>
      <trkpt lat="48.4739815" lon="-2.0081310">
        <ele>5.203</ele>
        <time>2018-08-18T11:04:36.445Z</time>
      </trkpt>
      <trkpt lat="48.4740918" lon="-2.0081437">
        <ele>4.277</ele>
        <time>2018-08-18T11:04:39.530Z</time>
      </trkpt>
      <trkpt lat="48.4742015" lon="-2.0081393">
        <ele>3.822</ele>
        <time>2018-08-18T11:04:42.566Z</time>
      </trkpt>
      <trkpt lat="48.4743043" lon="-2.0081238">
        <ele>3.518</ele>
        <time>2018-08-18T11:04:45.461Z</time>
      </trkpt>
      <trkpt lat="48.4744061" lon="-2.0081052">
        <ele>3.239</ele>
        <time>2018-08-18T11:04:48.382Z</time>
      </trkpt>
      <trkpt lat="48.4745122" lon="-2.0080916">
        <ele>2.969</ele>
        <time>2018-08-18T11:04:51.433Z</time>
      </trkpt>
      <trkpt lat="48.4746130" lon="-2.0080688">
        <ele>2.737</ele>
        <time>2018-08-18T11:04:54.398Z</time>
      </trkpt>
      <trkpt lat="48.4747135" lon="-2.0080469">
        <ele>2.547</ele>
        <time>2018-08-18T11:04:57.364Z</time>
      </trkpt>
      <trkpt lat="48.4748185" lon="-2.0080422">
        <ele>2.343</ele>
        <time>2018-08-18T11:05:00.375Z</time>
      </trkpt>
      <trkpt lat="48.4749251" lon="-2.0080344">
        <ele>2.133</ele>
        <time>2018-08-18T11:05:03.369Z</time>
      </trkpt>
      <trkpt lat="48.4750298" lon="-2.0080108">
        <ele>2.005</ele>
        <time>2018-08-18T11:05:06.297Z</time>
      </trkpt>
      <trkpt lat="48.4751337" lon="-2.0079726">
        <ele>2.132</ele>
        <time>2018-08-18T11:05:09.240Z</time>
      </trkpt>
      <trkpt lat="48.4752380" lon="-2.0079255">
        <ele>2.729</ele>
        <time>2018-08-18T11:05:12.268Z</time>
      </trkpt>
      <trkpt lat="48.4753280" lon="-2.0078745">
        <ele>3.806</ele>
        <time>2018-08-18T11:05:15.057Z</time>
      </trkpt>
      <trkpt lat="48.4754122" lon="-2.0078100">
        <ele>5.151</ele>
        <time>2018-08-18T11:05:17.922Z</time>
      </trkpt>
      <trkpt lat="48.4754918" lon="-2.0077147">
        <ele>6.490</ele>
        <time>2018-08-18T11:05:21.035Z</time>
      </trkpt>
      <trkpt lat="48.4755686" lon="-2.0076115">
        <ele>7.526</ele>
        <time>2018-08-18T11:05:24.113Z</time>
      </trkpt>
      <trkpt lat="48.4756558" lon="-2.0075138">
        <ele>8.085</ele>
        <time>2018-08-18T11:05:27.282Z</time>
      </trkpt>
      <trkpt lat="48.4757448" lon="-2.0074207">
        <ele>8.255</ele>
        <time>2018-08-18T11:05:30.398Z</time>
      </trkpt>
      <trkpt lat="48.4758219" lon="-2.0073171">
        <ele>8.304</ele>
        <time>2018-08-18T11:05:33.424Z</time>
      </trkpt>
      <trkpt lat="48.4758905" lon="-2.0072160">
        <ele>8.443</ele>
        <time>2018-08-18T11:05:36.340Z</time>
      </trkpt>
      <trkpt lat="48.4759708" lon="-2.0071334">
        <ele>8.645</ele>
        <time>2018-08-18T11:05:39.359Z</time>
      </trkpt>
      <trkpt lat="48.4760612" lon="-2.0070741">
        <ele>8.832</ele>
        <time>2018-08-18T11:05:42.397Z</time>
      </trkpt>
      <trkpt lat="48.4761531" lon="-2.0070152">
        <ele>9.044</ele>
        <time>2018-08-18T11:05:45.412Z</time>
      </trkpt>
      <trkpt lat="48.4762498" lon="-2.0069595">
        <ele>9.329</ele>
        <time>2018-08-18T11:05:48.462Z</time>
      </trkpt>
      <trkpt lat="48.4763422" lon="-2.0069017">
        <ele>9.645</ele>
        <time>2018-08-18T11:05:51.386Z</time>
      </trkpt>
      <trkpt lat="48.4764339" lon="-2.0068374">
        <ele>9.926</ele>
        <time>2018-08-18T11:05:54.366Z</time>
      </trkpt>
      <trkpt lat="48.4765238" lon="-2.0067797">
        <ele>10.157</ele>
        <time>2018-08-18T11:05:57.290Z</time>
      </trkpt>
      <trkpt lat="48.4766198" lon="-2.0067360">
        <ele>10.323</ele>
        <time>2018-08-18T11:06:00.321Z</time>
      </trkpt>
      <trkpt lat="48.4767197" lon="-2.0067103">
        <ele>10.372</ele>
        <time>2018-08-18T11:06:03.388Z</time>
      </trkpt>
      <trkpt lat="48.4768186" lon="-2.0066922">
        <ele>10.245</ele>
        <time>2018-08-18T11:06:06.411Z</time>
      </trkpt>
      <trkpt lat="48.4769163" lon="-2.0066853">
        <ele>9.934</ele>
        <time>2018-08-18T11:06:09.406Z</time>
      </trkpt>
      <trkpt lat="48.4770129" lon="-2.0066815">
        <ele>9.505</ele>
        <time>2018-08-18T11:06:12.370Z</time>
      </trkpt>
      <trkpt lat="48.4771104" lon="-2.0066940">
        <ele>9.111</ele>
        <time>2018-08-18T11:06:15.379Z</time>
      </trkpt>
      <trkpt lat="48.4772033" lon="-2.0067145">
        <ele>8.876</ele>
        <time>2018-08-18T11:06:18.338Z</time>
      </trkpt>
      <trkpt lat="48.4773155" lon="-2.0067396">
        <ele>8.795</ele>
        <time>2018-08-18T11:06:22.250Z</time>
      </trkpt>
      <trkpt lat="48.4774056" lon="-2.0067756">
        <ele>8.802</ele>
        <time>2018-08-18T11:06:25.999Z</time>
      </trkpt>
      <trkpt lat="48.4774056" lon="-2.0067756">
        <ele>8.837</ele>
        <time>2018-08-18T11:06:35.999Z</time>
      </trkpt>
      <trkpt lat="48.4774056" lon="-2.0067756">
        <ele>8.856</ele>
        <time>2018-08-18T11:06:39.711Z</time>
      </trkpt>
      <trkpt lat="48.4774839" lon="-2.0070330">
        <ele>8.851</ele>
        <time>2018-08-18T11:06:57.328Z</time>
      </trkpt>
      <trkpt lat="48.4774604" lon="-2.0071884">
        <ele>8.979</ele>
        <time>2018-08-18T11:07:03.181Z</time>
      </trkpt>
      <trkpt lat="48.4774322" lon="-2.0073177">
        <ele>9.342</ele>
        <time>2018-08-18T11:07:08.131Z</time>
      </trkpt>
      <trkpt lat="48.4773977" lon="-2.0074593">
        <ele>9.748</ele>
        <time>2018-08-18T11:07:13.818Z</time>
      </trkpt>
      <trkpt lat="48.4773639" lon="-2.0076003">
        <ele>10.041</ele>
        <time>2018-08-18T11:07:19.495Z</time>
      </trkpt>
      <trkpt lat="48.4773286" lon="-2.0077415">
        <ele>10.302</ele>
        <time>2018-08-18T11:07:25.220Z</time>
      </trkpt>
      <trkpt lat="48.4772970" lon="-2.0078853">
        <ele>10.562</ele>
        <time>2018-08-18T11:07:30.982Z</time>
      </trkpt>
      <trkpt lat="48.4772647" lon="-2.0080229">
        <ele>10.766</ele>
        <time>2018-08-18T11:07:36.502Z</time>
      </trkpt>
      <trkpt lat="48.4772314" lon="-2.0081610">
        <ele>10.970</ele>
        <time>2018-08-18T11:07:42.024Z</time>
      </trkpt>
      <trkpt lat="48.4771925" lon="-2.0082970">
        <ele>11.316</ele>
        <time>2018-08-18T11:07:47.559Z</time>
      </trkpt>
      <trkpt lat="48.4771450" lon="-2.0084294">
        <ele>11.799</ele>
        <time>2018-08-18T11:07:53.182Z</time>
      </trkpt>
      <trkpt lat="48.4770932" lon="-2.0085587">
        <ele>12.329</ele>
        <time>2018-08-18T11:07:58.811Z</time>
      </trkpt>
      <trkpt lat="48.4770413" lon="-2.0086917">
        <ele>12.843</ele>
        <time>2018-08-18T11:08:04.499Z</time>
      </trkpt>
      <trkpt lat="48.4769815" lon="-2.0088213">
        <ele>13.281</ele>
        <time>2018-08-18T11:08:10.226Z</time>
      </trkpt>
      <trkpt lat="48.4769217" lon="-2.0089487">
        <ele>13.684</ele>
        <time>2018-08-18T11:08:15.892Z</time>
      </trkpt>
      <trkpt lat="48.4768698" lon="-2.0090622">
        <ele>14.109</ele>
        <time>2018-08-18T11:08:20.999Z</time>
      </trkpt>
      <trkpt lat="48.4768698" lon="-2.0090622">
        <ele>14.451</ele>
        <time>2018-08-18T11:08:34.999Z</time>
      </trkpt>
      <trkpt lat="48.4768698" lon="-2.0090622">
        <ele>14.593</ele>
        <time>2018-08-18T11:09:30.875Z</time>
      </trkpt>
      <trkpt lat="48.4768078" lon="-2.0093155">
        <ele>14.568</ele>
        <time>2018-08-18T11:09:45.442Z</time>
      </trkpt>
      <trkpt lat="48.4768046" lon="-2.0094598">
        <ele>14.611</ele>
        <time>2018-08-18T11:09:50.547Z</time>
      </trkpt>
      <trkpt lat="48.4768201" lon="-2.0095940">
        <ele>14.960</ele>
        <time>2018-08-18T11:09:55.451Z</time>
      </trkpt>
      <trkpt lat="48.4768483" lon="-2.0097484">
        <ele>15.515</ele>
        <time>2018-08-18T11:10:01.116Z</time>
      </trkpt>
      <trkpt lat="48.4768768" lon="-2.0098786">
        <ele>16.021</ele>
        <time>2018-08-18T11:10:05.868Z</time>
      </trkpt>
      <trkpt lat="48.4769044" lon="-2.0100221">
        <ele>16.437</ele>
        <time>2018-08-18T11:10:11.293Z</time>
      </trkpt>
      <trkpt lat="48.4769390" lon="-2.0101700">
        <ele>16.796</ele>
        <time>2018-08-18T11:10:17.275Z</time>
      </trkpt>
      <trkpt lat="48.4769672" lon="-2.0103205">
        <ele>17.201</ele>
        <time>2018-08-18T11:10:23.209Z</time>
      </trkpt>
      <trkpt lat="48.4769960" lon="-2.0104694">
        <ele>17.738</ele>
        <time>2018-08-18T11:10:29.019Z</time>
      </trkpt>
      <trkpt lat="48.4770226" lon="-2.0106195">
        <ele>18.283</ele>
        <time>2018-08-18T11:10:34.809Z</time>
      </trkpt>
      <trkpt lat="48.4770475" lon="-2.0107695">
        <ele>18.665</ele>
        <time>2018-08-18T11:10:40.631Z</time>
      </trkpt>
      <trkpt lat="48.4770733" lon="-2.0109118">
        <ele>18.965</ele>
        <time>2018-08-18T11:10:46.249Z</time>
      </trkpt>
      <trkpt lat="48.4770928" lon="-2.0110501">
        <ele>19.292</ele>
        <time>2018-08-18T11:10:51.752Z</time>
      </trkpt>
      <trkpt lat="48.4771032" lon="-2.0111900">
        <ele>19.705</ele>
        <time>2018-08-18T11:10:57.448Z</time>
      </trkpt>
      <trkpt lat="48.4771039" lon="-2.0113351">
        <ele>20.250</ele>
        <time>2018-08-18T11:11:03.710Z</time>
      </trkpt>
      <trkpt lat="48.4771093" lon="-2.0114864">
        <ele>20.895</ele>
        <time>2018-08-18T11:11:10.144Z</time>
      </trkpt>
      <trkpt lat="48.4771001" lon="-2.0116301">
        <ele>21.565</ele>
        <time>2018-08-18T11:11:16.170Z</time>
      </trkpt>
      <trkpt lat="48.4770827" lon="-2.0117842">
        <ele>22.221</ele>
        <time>2018-08-18T11:11:22.890Z</time>
      </trkpt>
      <trkpt lat="48.4770558" lon="-2.0119208">
        <ele>22.863</ele>
        <time>2018-08-18T11:11:29.364Z</time>
      </trkpt>
      <trkpt lat="48.4770191" lon="-2.0120487">
        <ele>23.572</ele>
        <time>2018-08-18T11:11:36.047Z</time>
      </trkpt>
      <trkpt lat="48.4769807" lon="-2.0121751">
        <ele>24.288</ele>
        <time>2018-08-18T11:11:42.970Z</time>
      </trkpt>
      <trkpt lat="48.4769392" lon="-2.0122992">
        <ele>24.835</ele>
        <time>2018-08-18T11:11:50.157Z</time>
      </trkpt>
      <trkpt lat="48.4768885" lon="-2.0124356">
        <ele>25.276</ele>
        <time>2018-08-18T11:11:58.317Z</time>
      </trkpt>
      <trkpt lat="48.4768437" lon="-2.0125648">
        <ele>25.790</ele>
        <time>2018-08-18T11:12:05.771Z</time>
      </trkpt>
      <trkpt lat="48.4767931" lon="-2.0126885">
        <ele>26.410</ele>
        <time>2018-08-18T11:12:13.616Z</time>
      </trkpt>
      <trkpt lat="48.4767447" lon="-2.0128155">
        <ele>27.072</ele>
        <time>2018-08-18T11:12:21.908Z</time>
      </trkpt>
      <trkpt lat="48.4766985" lon="-2.0129414">
        <ele>27.717</ele>
        <time>2018-08-18T11:12:29.999Z</time>
      </trkpt>
      <trkpt lat="48.4766985" lon="-2.0129414">
        <ele>28.235</ele>
        <time>2018-08-18T11:12:50.999Z</time>
      </trkpt>
      <trkpt lat="48.4766985" lon="-2.0129414">
        <ele>28.482</ele>
        <time>2018-08-18T11:12:53.189Z</time>
      </trkpt>
      <trkpt lat="48.4766224" lon="-2.0131027">
        <ele>28.444</ele>
        <time>2018-08-18T11:13:16.493Z</time>
      </trkpt>
      <trkpt lat="48.4765766" lon="-2.0132204">
        <ele>28.713</ele>
        <time>2018-08-18T11:13:27.138Z</time>
      </trkpt>
      <trkpt lat="48.4765305" lon="-2.0133415">
        <ele>29.886</ele>
        <time>2018-08-18T11:13:37.746Z</time>
      </trkpt>
      <trkpt lat="48.4764870" lon="-2.0134626">
        <ele>31.687</ele>
        <time>2018-08-18T11:13:48.110Z</time>
      </trkpt>
      <trkpt lat="48.4764518" lon="-2.0135926">
        <ele>33.485</ele>
        <time>2018-08-18T11:13:58.632Z</time>
      </trkpt>
      <trkpt lat="48.4764159" lon="-2.0137245">
        <ele>35.000</ele>
        <time>2018-08-18T11:14:09.273Z</time>
      </trkpt>
      <trkpt lat="48.4763804" lon="-2.0138503">
        <ele>36.091</ele>
        <time>2018-08-18T11:14:19.439Z</time>
      </trkpt>
      <trkpt lat="48.4763538" lon="-2.0139808">
        <ele>36.755</ele>
        <time>2018-08-18T11:14:29.362Z</time>
      </trkpt>
      <trkpt lat="48.4763176" lon="-2.0141127">
        <ele>37.244</ele>
        <time>2018-08-18T11:14:39.646Z</time>
      </trkpt>
      <trkpt lat="48.4762783" lon="-2.0142454">
        <ele>37.872</ele>
        <time>2018-08-18T11:14:50.306Z</time>
      </trkpt>
      <trkpt lat="48.4762313" lon="-2.0143623">
        <ele>38.693</ele>
        <time>2018-08-18T11:15:00.566Z</time>
      </trkpt>
      <trkpt lat="48.4761823" lon="-2.0144792">
        <ele>39.545</ele>
        <time>2018-08-18T11:15:11.357Z</time>
      </trkpt>
      <trkpt lat="48.4761135" lon="-2.0145697">
        <ele>40.344</ele>
        <time>2018-08-18T11:15:22.999Z</time>
      </trkpt>
      <trkpt lat="48.4761135" lon="-2.0145697">
        <ele>41.027</ele>
        <time>2018-08-18T11:15:22.999Z</time>
      </trkpt>
      <trkpt lat="48.4761135" lon="-2.0145697">
        <ele>41.381</ele>
        <time>2018-08-18T11:16:32.474Z</time>
      </trkpt>
      <trkpt lat="48.4759333" lon="-2.0145710">
        <ele>41.333</ele>
        <time>2018-08-18T11:16:45.761Z</time>
      </trkpt>
      <trkpt lat="48.4758430" lon="-2.0145473">
        <ele>41.308</ele>
        <time>2018-08-18T11:16:49.541Z</time>
      </trkpt>
      <trkpt lat="48.4757436" lon="-2.0145350">
        <ele>41.681</ele>
        <time>2018-08-18T11:16:53.763Z</time>
      </trkpt>
      <trkpt lat="48.4756608" lon="-2.0146390">
        <ele>42.235</ele>
        <time>2018-08-18T11:16:58.720Z</time>
      </trkpt>
      <trkpt lat="48.4756214" lon="-2.0147791">
        <ele>42.598</ele>
        <time>2018-08-18T11:17:03.646Z</time>
      </trkpt>
      <trkpt lat="48.4756067" lon="-2.0149302">
        <ele>42.729</ele>
        <time>2018-08-18T11:17:08.657Z</time>
      </trkpt>
      <trkpt lat="48.4755968" lon="-2.0150756">
        <ele>42.762</ele>
        <time>2018-08-18T11:17:13.496Z</time>
      </trkpt>
      <trkpt lat="48.4755918" lon="-2.0152142">
        <ele>42.795</ele>
        <time>2018-08-18T11:17:18.232Z</time>
      </trkpt>
      <trkpt lat="48.4755884" lon="-2.0153648">
        <ele>42.896</ele>
        <time>2018-08-18T11:17:23.551Z</time>
      </trkpt>
      <trkpt lat="48.4755857" lon="-2.0155105">
        <ele>43.129</ele>
        <time>2018-08-18T11:17:28.837Z</time>
      </trkpt>
      <trkpt lat="48.4755880" lon="-2.0156609">
        <ele>43.495</ele>
        <time>2018-08-18T11:17:34.355Z</time>
      </trkpt>
      <trkpt lat="48.4755847" lon="-2.0158166">
        <ele>43.974</ele>
        <time>2018-08-18T11:17:40.134Z</time>
      </trkpt>
      <trkpt lat="48.4755856" lon="-2.0159768">
        <ele>44.623</ele>
        <time>2018-08-18T11:17:46.095Z</time>
      </trkpt>
      <trkpt lat="48.4755822" lon="-2.0161226">
        <ele>45.394</ele>
        <time>2018-08-18T11:17:51.537Z</time>
      </trkpt>
      <trkpt lat="48.4755577" lon="-2.0162656">
        <ele>46.091</ele>
        <time>2018-08-18T11:17:57.093Z</time>
      </trkpt>
      <trkpt lat="48.4755128" lon="-2.0163904">
        <ele>46.575</ele>
        <time>2018-08-18T11:18:02.492Z</time>
      </trkpt>
      <trkpt lat="48.4754323" lon="-2.0164917">
        <ele>46.969</ele>
        <time>2018-08-18T11:18:08.484Z</time>
      </trkpt>
      <trkpt lat="48.4753430" lon="-2.0165246">
        <ele>47.412</ele>
        <time>2018-08-18T11:18:13.552Z</time>
      </trkpt>
      <trkpt lat="48.4752632" lon="-2.0166023">
        <ele>47.858</ele>
        <time>2018-08-18T11:18:18.522Z</time>
      </trkpt>
      <trkpt lat="48.4751846" lon="-2.0167219">
        <ele>48.189</ele>
        <time>2018-08-18T11:18:23.965Z</time>
      </trkpt>
      <trkpt lat="48.4751221" lon="-2.0168209">
        <ele>48.355</ele>
        <time>2018-08-18T11:18:28.000Z</time>
      </trkpt>
      <trkpt lat="48.4751221" lon="-2.0168209">
        <ele>48.369</ele>
        <time>2018-08-18T11:18:32.000Z</time>
      </trkpt>
      <trkpt lat="48.4751221" lon="-2.0168209">
        <ele>48.326</ele>
        <time>2018-08-18T11:18:32.100Z</time>
      </trkpt>
      <trkpt lat="48.4750393" lon="-2.0171065">
        <ele>48.298</ele>
        <time>2018-08-18T11:18:41.000Z</time>
      </trkpt>
      <trkpt lat="48.4750393" lon="-2.0171065">
        <ele>48.296</ele>
        <time>2018-08-18T11:18:45.000Z</time>
      </trkpt>
      <trkpt lat="48.4750393" lon="-2.0171065">
        <ele>48.295</ele>
        <time>2018-08-18T11:18:45.100Z</time>
      </trkpt>
      <trkpt lat="48.4749827" lon="-2.0174804">
        <ele>48.277</ele>
        <time>2018-08-18T11:19:01.888Z</time>
      </trkpt>
      <trkpt lat="48.4749531" lon="-2.0176297">
        <ele>48.335</ele>
        <time>2018-08-18T11:19:07.088Z</time>
      </trkpt>
      <trkpt lat="48.4749228" lon="-2.0177757">
        <ele>48.536</ele>
        <time>2018-08-18T11:19:12.415Z</time>
      </trkpt>
      <trkpt lat="48.4748980" lon="-2.0179312">
        <ele>48.759</ele>
        <time>2018-08-18T11:19:18.063Z</time>
      </trkpt>
      <trkpt lat="48.4748779" lon="-2.0180693">
        <ele>48.906</ele>
        <time>2018-08-18T11:19:23.110Z</time>
      </trkpt>
      <trkpt lat="48.4748561" lon="-2.0182046">
        <ele>49.053</ele>
        <time>2018-08-18T11:19:28.386Z</time>
      </trkpt>
      <trkpt lat="48.4748363" lon="-2.0183396">
        <ele>49.288</ele>
        <time>2018-08-18T11:19:33.958Z</time>
      </trkpt>
      <trkpt lat="48.4748138" lon="-2.0184801">
        <ele>49.655</ele>
        <time>2018-08-18T11:19:39.984Z</time>
      </trkpt>
      <trkpt lat="48.4747907" lon="-2.0186212">
        <ele>50.160</ele>
        <time>2018-08-18T11:19:46.194Z</time>
      </trkpt>
      <trkpt lat="48.4747638" lon="-2.0187533">
        <ele>50.729</ele>
        <time>2018-08-18T11:19:52.337Z</time>
      </trkpt>
      <trkpt lat="48.4747431" lon="-2.0189066">
        <ele>51.239</ele>
        <time>2018-08-18T11:19:59.425Z</time>
      </trkpt>
      <trkpt lat="48.4747235" lon="-2.0190441">
        <ele>51.634</ele>
        <time>2018-08-18T11:20:05.282Z</time>
      </trkpt>
      <trkpt lat="48.4746973" lon="-2.0191781">
        <ele>51.990</ele>
        <time>2018-08-18T11:20:10.357Z</time>
      </trkpt>
      <trkpt lat="48.4746745" lon="-2.0193152">
        <ele>52.396</ele>
        <time>2018-08-18T11:20:15.090Z</time>
      </trkpt>
      <trkpt lat="48.4746506" lon="-2.0194637">
        <ele>52.783</ele>
        <time>2018-08-18T11:20:20.032Z</time>
      </trkpt>
      <trkpt lat="48.4746239" lon="-2.0196107">
        <ele>53.052</ele>
        <time>2018-08-18T11:20:24.946Z</time>
      </trkpt>
      <trkpt lat="48.4745973" lon="-2.0197616">
        <ele>53.214</ele>
        <time>2018-08-18T11:20:30.120Z</time>
      </trkpt>
      <trkpt lat="48.4745707" lon="-2.0199065">
        <ele>53.304</ele>
        <time>2018-08-18T11:20:35.202Z</time>
      </trkpt>
      <trkpt lat="48.4745446" lon="-2.0200422">
        <ele>53.350</ele>
        <time>2018-08-18T11:20:39.873Z</time>
      </trkpt>
      <trkpt lat="48.4745226" lon="-2.0201864">
        <ele>53.397</ele>
        <time>2018-08-18T11:20:44.664Z</time>
      </trkpt>
      <trkpt lat="48.4744969" lon="-2.0203330">
        <ele>53.457</ele>
        <time>2018-08-18T11:20:49.469Z</time>
      </trkpt>
      <trkpt lat="48.4744722" lon="-2.0204792">
        <ele>53.494</ele>
        <time>2018-08-18T11:20:54.025Z</time>
      </trkpt>
      <trkpt lat="48.4744499" lon="-2.0206117">
        <ele>53.473</ele>
        <time>2018-08-18T11:20:58.161Z</time>
      </trkpt>
      <trkpt lat="48.4744213" lon="-2.0207671">
        <ele>53.406</ele>
        <time>2018-08-18T11:21:03.684Z</time>
      </trkpt>
      <trkpt lat="48.4744000" lon="-2.0209092">
        <ele>53.327</ele>
        <time>2018-08-18T11:21:09.901Z</time>
      </trkpt>
      <trkpt lat="48.4743609" lon="-2.0210365">
        <ele>53.267</ele>
        <time>2018-08-18T11:21:15.893Z</time>
      </trkpt>
      <trkpt lat="48.4743008" lon="-2.0211526">
        <ele>53.283</ele>
        <time>2018-08-18T11:21:22.526Z</time>
      </trkpt>
      <trkpt lat="48.4743078" lon="-2.0212927">
        <ele>53.390</ele>
        <time>2018-08-18T11:21:27.181Z</time>
      </trkpt>
      <trkpt lat="48.4743305" lon="-2.0214372">
        <ele>53.463</ele>
        <time>2018-08-18T11:21:31.631Z</time>
      </trkpt>
      <trkpt lat="48.4743350" lon="-2.0215902">
        <ele>53.372</ele>
        <time>2018-08-18T11:21:36.512Z</time>
      </trkpt>
      <trkpt lat="48.4742965" lon="-2.0217249">
        <ele>53.172</ele>
        <time>2018-08-18T11:21:41.758Z</time>
      </trkpt>
      <trkpt lat="48.4743151" lon="-2.0218782">
        <ele>53.063</ele>
        <time>2018-08-18T11:21:46.777Z</time>
      </trkpt>
      <trkpt lat="48.4743361" lon="-2.0220298">
        <ele>53.141</ele>
        <time>2018-08-18T11:21:50.995Z</time>
      </trkpt>
      <trkpt lat="48.4743647" lon="-2.0221786">
        <ele>53.308</ele>
        <time>2018-08-18T11:21:55.059Z</time>
      </trkpt>
      <trkpt lat="48.4743931" lon="-2.0223141">
        <ele>53.447</ele>
        <time>2018-08-18T11:21:58.760Z</time>
      </trkpt>
      <trkpt lat="48.4744285" lon="-2.0224487">
        <ele>53.532</ele>
        <time>2018-08-18T11:22:02.562Z</time>
      </trkpt>
      <trkpt lat="48.4744646" lon="-2.0225766">
        <ele>53.544</ele>
        <time>2018-08-18T11:22:06.298Z</time>
      </trkpt>
      <trkpt lat="48.4745056" lon="-2.0227059">
        <ele>53.399</ele>
        <time>2018-08-18T11:22:10.238Z</time>
      </trkpt>
      <trkpt lat="48.4745519" lon="-2.0228428">
        <ele>53.025</ele>
        <time>2018-08-18T11:22:14.445Z</time>
      </trkpt>
      <trkpt lat="48.4745942" lon="-2.0229632">
        <ele>52.554</ele>
        <time>2018-08-18T11:22:18.146Z</time>
      </trkpt>
      <trkpt lat="48.4746675" lon="-2.0230471">
        <ele>52.352</ele>
        <time>2018-08-18T11:22:22.000Z</time>
      </trkpt>
      <trkpt lat="48.4746675" lon="-2.0230471">
        <ele>52.567</ele>
        <time>2018-08-18T11:22:22.000Z</time>
      </trkpt>
      <trkpt lat="48.4746675" lon="-2.0230471">
        <ele>52.829</ele>
        <time>2018-08-18T11:22:22.100Z</time>
      </trkpt>
      <trkpt lat="48.4747432" lon="-2.0232359">
        <ele>52.814</ele>
        <time>2018-08-18T11:22:30.935Z</time>
      </trkpt>
      <trkpt lat="48.4747720" lon="-2.0233949">
        <ele>52.844</ele>
        <time>2018-08-18T11:22:35.068Z</time>
      </trkpt>
      <trkpt lat="48.4747994" lon="-2.0235565">
        <ele>53.264</ele>
        <time>2018-08-18T11:22:39.126Z</time>
      </trkpt>
      <trkpt lat="48.4748175" lon="-2.0237225">
        <ele>53.805</ele>
        <time>2018-08-18T11:22:43.100Z</time>
      </trkpt>
      <trkpt lat="48.4748333" lon="-2.0238907">
        <ele>54.100</ele>
        <time>2018-08-18T11:22:46.956Z</time>
      </trkpt>
      <trkpt lat="48.4748663" lon="-2.0240617">
        <ele>54.160</ele>
        <time>2018-08-18T11:22:50.954Z</time>
      </trkpt>
      <trkpt lat="48.4749351" lon="-2.0241963">
        <ele>54.170</ele>
        <time>2018-08-18T11:22:54.817Z</time>
      </trkpt>
      <trkpt lat="48.4750199" lon="-2.0243134">
        <ele>54.267</ele>
        <time>2018-08-18T11:22:58.812Z</time>
      </trkpt>
      <trkpt lat="48.4750333" lon="-2.0244807">
        <ele>54.430</ele>
        <time>2018-08-18T11:23:02.790Z</time>
      </trkpt>
      <trkpt lat="48.4750185" lon="-2.0246464">
        <ele>54.581</ele>
        <time>2018-08-18T11:23:06.927Z</time>
      </trkpt>
      <trkpt lat="48.4750506" lon="-2.0247854">
        <ele>54.707</ele>
        <time>2018-08-18T11:23:10.781Z</time>
      </trkpt>
      <trkpt lat="48.4751111" lon="-2.0249060">
        <ele>54.817</ele>
        <time>2018-08-18T11:23:14.901Z</time>
      </trkpt>
      <trkpt lat="48.4751642" lon="-2.0250174">
        <ele>54.900</ele>
        <time>2018-08-18T11:23:18.776Z</time>
      </trkpt>
      <trkpt lat="48.4752280" lon="-2.0251548">
        <ele>54.939</ele>
        <time>2018-08-18T11:23:23.643Z</time>
      </trkpt>
      <trkpt lat="48.4752746" lon="-2.0252939">
        <ele>54.954</ele>
        <time>2018-08-18T11:23:28.266Z</time>
      </trkpt>
      <trkpt lat="48.4753063" lon="-2.0254509">
        <ele>54.974</ele>
        <time>2018-08-18T11:23:33.144Z</time>
      </trkpt>
      <trkpt lat="48.4753323" lon="-2.0256118">
        <ele>55.015</ele>
        <time>2018-08-18T11:23:37.979Z</time>
      </trkpt>
      <trkpt lat="48.4753483" lon="-2.0257804">
        <ele>55.088</ele>
        <time>2018-08-18T11:23:42.914Z</time>
      </trkpt>
      <trkpt lat="48.4753597" lon="-2.0259479">
        <ele>55.193</ele>
        <time>2018-08-18T11:23:47.828Z</time>
      </trkpt>
      <trkpt lat="48.4753742" lon="-2.0261098">
        <ele>55.318</ele>
        <time>2018-08-18T11:23:52.694Z</time>
      </trkpt>
      <trkpt lat="48.4753945" lon="-2.0262624">
        <ele>55.468</ele>
        <time>2018-08-18T11:23:57.422Z</time>
      </trkpt>
      <trkpt lat="48.4754223" lon="-2.0264097">
        <ele>55.655</ele>
        <time>2018-08-18T11:24:02.190Z</time>
      </trkpt>
      <trkpt lat="48.4754499" lon="-2.0265391">
        <ele>55.860</ele>
        <time>2018-08-18T11:24:06.745Z</time>
      </trkpt>
      <trkpt lat="48.4754901" lon="-2.0266673">
        <ele>56.050</ele>
        <time>2018-08-18T11:24:11.955Z</time>
      </trkpt>
      <trkpt lat="48.4755395" lon="-2.0268172">
        <ele>56.214</ele>
        <time>2018-08-18T11:24:17.656Z</time>
      </trkpt>
      <trkpt lat="48.4755881" lon="-2.0269673">
        <ele>56.366</ele>
        <time>2018-08-18T11:24:22.961Z</time>
      </trkpt>
      <trkpt lat="48.4756393" lon="-2.0270849">
        <ele>56.532</ele>
        <time>2018-08-18T11:24:27.863Z</time>
      </trkpt>
      <trkpt lat="48.4757018" lon="-2.0272190">
        <ele>56.749</ele>
        <time>2018-08-18T11:24:33.966Z</time>
      </trkpt>
      <trkpt lat="48.4757659" lon="-2.0273377">
        <ele>57.035</ele>
        <time>2018-08-18T11:24:39.432Z</time>
      </trkpt>
      <trkpt lat="48.4758294" lon="-2.0274478">
        <ele>57.433</ele>
        <time>2018-08-18T11:24:44.763Z</time>
      </trkpt>
      <trkpt lat="48.4758981" lon="-2.0275624">
        <ele>57.985</ele>
        <time>2018-08-18T11:24:50.689Z</time>
      </trkpt>
      <trkpt lat="48.4759681" lon="-2.0276751">
        <ele>58.681</ele>
        <time>2018-08-18T11:24:56.786Z</time>
      </trkpt>
      <trkpt lat="48.4760312" lon="-2.0277939">
        <ele>59.428</ele>
        <time>2018-08-18T11:25:02.782Z</time>
      </trkpt>
      <trkpt lat="48.4760967" lon="-2.0279174">
        <ele>60.086</ele>
        <time>2018-08-18T11:25:09.016Z</time>
      </trkpt>
      <trkpt lat="48.4761614" lon="-2.0280328">
        <ele>60.605</ele>
        <time>2018-08-18T11:25:15.102Z</time>
      </trkpt>
      <trkpt lat="48.4762256" lon="-2.0281398">
        <ele>61.009</ele>
        <time>2018-08-18T11:25:20.976Z</time>
      </trkpt>
      <trkpt lat="48.4762865" lon="-2.0282456">
        <ele>61.368</ele>
        <time>2018-08-18T11:25:26.636Z</time>
      </trkpt>
      <trkpt lat="48.4763537" lon="-2.0283621">
        <ele>61.754</ele>
        <time>2018-08-18T11:25:32.762Z</time>
      </trkpt>
      <trkpt lat="48.4764211" lon="-2.0284688">
        <ele>62.103</ele>
        <time>2018-08-18T11:25:38.653Z</time>
      </trkpt>
      <trkpt lat="48.4764839" lon="-2.0285792">
        <ele>62.406</ele>
        <time>2018-08-18T11:25:44.701Z</time>
      </trkpt>
      <trkpt lat="48.4765463" lon="-2.0286808">
        <ele>62.822</ele>
        <time>2018-08-18T11:25:50.560Z</time>
      </trkpt>
      <trkpt lat="48.4766066" lon="-2.0287859">
        <ele>63.397</ele>
        <time>2018-08-18T11:25:56.480Z</time>
      </trkpt>
      <trkpt lat="48.4766719" lon="-2.0289055">
        <ele>64.019</ele>
        <time>2018-08-18T11:26:03.258Z</time>
      </trkpt>
      <trkpt lat="48.4767368" lon="-2.0290179">
        <ele>64.601</ele>
        <time>2018-08-18T11:26:09.884Z</time>
      </trkpt>
      <trkpt lat="48.4767987" lon="-2.0291186">
        <ele>65.128</ele>
        <time>2018-08-18T11:26:15.919Z</time>
      </trkpt>
      <trkpt lat="48.4768579" lon="-2.0292246">
        <ele>65.591</ele>
        <time>2018-08-18T11:26:21.858Z</time>
      </trkpt>
      <trkpt lat="48.4769242" lon="-2.0293302">
        <ele>66.006</ele>
        <time>2018-08-18T11:26:27.929Z</time>
      </trkpt>
      <trkpt lat="48.4769877" lon="-2.0294411">
        <ele>66.437</ele>
        <time>2018-08-18T11:26:34.005Z</time>
      </trkpt>
      <trkpt lat="48.4770486" lon="-2.0295489">
        <ele>66.867</ele>
        <time>2018-08-18T11:26:39.922Z</time>
      </trkpt>
      <trkpt lat="48.4771194" lon="-2.0296650">
        <ele>67.243</ele>
        <time>2018-08-18T11:26:46.587Z</time>
      </trkpt>
      <trkpt lat="48.4771831" lon="-2.0297636">
        <ele>67.623</ele>
        <time>2018-08-18T11:26:52.375Z</time>
      </trkpt>
      <trkpt lat="48.4772461" lon="-2.0298756">
        <ele>68.073</ele>
        <time>2018-08-18T11:26:58.348Z</time>
      </trkpt>
      <trkpt lat="48.4773101" lon="-2.0299907">
        <ele>68.533</ele>
        <time>2018-08-18T11:27:04.271Z</time>
      </trkpt>
      <trkpt lat="48.4773806" lon="-2.0301067">
        <ele>68.885</ele>
        <time>2018-08-18T11:27:10.192Z</time>
      </trkpt>
      <trkpt lat="48.4774503" lon="-2.0302270">
        <ele>69.109</ele>
        <time>2018-08-18T11:27:15.942Z</time>
      </trkpt>
      <trkpt lat="48.4775128" lon="-2.0303406">
        <ele>69.262</ele>
        <time>2018-08-18T11:27:20.973Z</time>
      </trkpt>
      <trkpt lat="48.4775992" lon="-2.0304253">
        <ele>69.380</ele>
        <time>2018-08-18T11:27:25.898Z</time>
      </trkpt>
      <trkpt lat="48.4776999" lon="-2.0304397">
        <ele>69.450</ele>
        <time>2018-08-18T11:27:30.280Z</time>
      </trkpt>
      <trkpt lat="48.4778162" lon="-2.0304461">
        <ele>69.470</ele>
        <time>2018-08-18T11:27:34.615Z</time>
      </trkpt>
      <trkpt lat="48.4779264" lon="-2.0304566">
        <ele>69.467</ele>
        <time>2018-08-18T11:27:38.477Z</time>
      </trkpt>
      <trkpt lat="48.4780228" lon="-2.0304559">
        <ele>69.467</ele>
        <time>2018-08-18T11:27:42.014Z</time>
      </trkpt>
      <trkpt lat="48.4781216" lon="-2.0304530">
        <ele>69.465</ele>
        <time>2018-08-18T11:27:45.892Z</time>
      </trkpt>
      <trkpt lat="48.4782261" lon="-2.0304430">
        <ele>69.431</ele>
        <time>2018-08-18T11:27:50.018Z</time>
      </trkpt>
      <trkpt lat="48.4783311" lon="-2.0304143">
        <ele>69.311</ele>
        <time>2018-08-18T11:27:54.198Z</time>
      </trkpt>
      <trkpt lat="48.4784195" lon="-2.0303738">
        <ele>68.993</ele>
        <time>2018-08-18T11:27:58.000Z</time>
      </trkpt>
      <trkpt lat="48.4784195" lon="-2.0303738">
        <ele>68.502</ele>
        <time>2018-08-18T11:28:10.000Z</time>
      </trkpt>
      <trkpt lat="48.4784195" lon="-2.0303738">
        <ele>68.154</ele>
        <time>2018-08-18T11:29:20.894Z</time>
      </trkpt>
      <trkpt lat="48.4786152" lon="-2.0302686">
        <ele>68.165</ele>
        <time>2018-08-18T11:29:33.363Z</time>
      </trkpt>
      <trkpt lat="48.4787055" lon="-2.0302192">
        <ele>68.352</ele>
        <time>2018-08-18T11:29:36.519Z</time>
      </trkpt>
      <trkpt lat="48.4788004" lon="-2.0301669">
        <ele>68.389</ele>
        <time>2018-08-18T11:29:39.671Z</time>
      </trkpt>
      <trkpt lat="48.4789031" lon="-2.0301054">
        <ele>68.145</ele>
        <time>2018-08-18T11:29:43.000Z</time>
      </trkpt>
      <trkpt lat="48.4789031" lon="-2.0301054">
        <ele>67.786</ele>
        <time>2018-08-18T11:29:58.000Z</time>
      </trkpt>
      <trkpt lat="48.4789031" lon="-2.0301054">
        <ele>67.566</ele>
        <time>2018-08-18T11:30:43.183Z</time>
      </trkpt>
      <trkpt lat="48.4791277" lon="-2.0299926">
        <ele>67.553</ele>
        <time>2018-08-18T11:30:57.973Z</time>
      </trkpt>
      <trkpt lat="48.4792340" lon="-2.0299239">
        <ele>67.632</ele>
        <time>2018-08-18T11:31:01.871Z</time>
      </trkpt>
      <trkpt lat="48.4793371" lon="-2.0298618">
        <ele>67.696</ele>
        <time>2018-08-18T11:31:05.498Z</time>
      </trkpt>
      <trkpt lat="48.4794459" lon="-2.0298028">
        <ele>67.731</ele>
        <time>2018-08-18T11:31:09.363Z</time>
      </trkpt>
      <trkpt lat="48.4795438" lon="-2.0297641">
        <ele>67.754</ele>
        <time>2018-08-18T11:31:12.903Z</time>
      </trkpt>
      <trkpt lat="48.4796425" lon="-2.0297286">
        <ele>67.758</ele>
        <time>2018-08-18T11:31:16.448Z</time>
      </trkpt>
      <trkpt lat="48.4797427" lon="-2.0296808">
        <ele>67.723</ele>
        <time>2018-08-18T11:31:20.049Z</time>
      </trkpt>
      <trkpt lat="48.4798432" lon="-2.0296442">
        <ele>67.649</ele>
        <time>2018-08-18T11:31:23.481Z</time>
      </trkpt>
      <trkpt lat="48.4799535" lon="-2.0296188">
        <ele>67.528</ele>
        <time>2018-08-18T11:31:27.039Z</time>
      </trkpt>
      <trkpt lat="48.4800462" lon="-2.0296014">
        <ele>67.377</ele>
        <time>2018-08-18T11:31:29.992Z</time>
      </trkpt>
      <trkpt lat="48.4801529" lon="-2.0295811">
        <ele>67.193</ele>
        <time>2018-08-18T11:31:33.642Z</time>
      </trkpt>
      <trkpt lat="48.4802504" lon="-2.0295547">
        <ele>66.862</ele>
        <time>2018-08-18T11:31:37.359Z</time>
      </trkpt>
      <trkpt lat="48.4803470" lon="-2.0295225">
        <ele>66.367</ele>
        <time>2018-08-18T11:31:41.113Z</time>
      </trkpt>
      <trkpt lat="48.4804433" lon="-2.0294889">
        <ele>65.873</ele>
        <time>2018-08-18T11:31:45.261Z</time>
      </trkpt>
      <trkpt lat="48.4805540" lon="-2.0294614">
        <ele>65.525</ele>
        <time>2018-08-18T11:31:50.270Z</time>
      </trkpt>
      <trkpt lat="48.4806614" lon="-2.0294424">
        <ele>65.350</ele>
        <time>2018-08-18T11:31:55.184Z</time>
      </trkpt>
      <trkpt lat="48.4807694" lon="-2.0294311">
        <ele>65.290</ele>
        <time>2018-08-18T11:32:00.012Z</time>
      </trkpt>
      <trkpt lat="48.4808803" lon="-2.0294137">
        <ele>65.276</ele>
        <time>2018-08-18T11:32:04.828Z</time>
      </trkpt>
      <trkpt lat="48.4809786" lon="-2.0293980">
        <ele>65.273</ele>
        <time>2018-08-18T11:32:09.015Z</time>
      </trkpt>
      <trkpt lat="48.4810863" lon="-2.0293795">
        <ele>65.293</ele>
        <time>2018-08-18T11:32:13.715Z</time>
      </trkpt>
      <trkpt lat="48.4811745" lon="-2.0293445">
        <ele>65.370</ele>
        <time>2018-08-18T11:32:17.871Z</time>
      </trkpt>
      <trkpt lat="48.4812665" lon="-2.0293277">
        <ele>65.532</ele>
        <time>2018-08-18T11:32:22.334Z</time>
      </trkpt>
      <trkpt lat="48.4813627" lon="-2.0293079">
        <ele>65.757</ele>
        <time>2018-08-18T11:32:27.235Z</time>
      </trkpt>
      <trkpt lat="48.4814634" lon="-2.0292857">
        <ele>65.868</ele>
        <time>2018-08-18T11:32:32.475Z</time>
      </trkpt>
      <trkpt lat="48.4815547" lon="-2.0292621">
        <ele>65.744</ele>
        <time>2018-08-18T11:32:37.308Z</time>
      </trkpt>
      <trkpt lat="48.4816516" lon="-2.0292305">
        <ele>65.662</ele>
        <time>2018-08-18T11:32:42.638Z</time>
      </trkpt>
      <trkpt lat="48.4817462" lon="-2.0292105">
        <ele>65.885</ele>
        <time>2018-08-18T11:32:47.746Z</time>
      </trkpt>
      <trkpt lat="48.4818364" lon="-2.0291744">
        <ele>66.392</ele>
        <time>2018-08-18T11:32:52.844Z</time>
      </trkpt>
      <trkpt lat="48.4819332" lon="-2.0291391">
        <ele>67.061</ele>
        <time>2018-08-18T11:32:58.879Z</time>
      </trkpt>
      <trkpt lat="48.4820383" lon="-2.0291190">
        <ele>67.772</ele>
        <time>2018-08-18T11:33:05.768Z</time>
      </trkpt>
      <trkpt lat="48.4821380" lon="-2.0290995">
        <ele>68.432</ele>
        <time>2018-08-18T11:33:12.418Z</time>
      </trkpt>
      <trkpt lat="48.4822293" lon="-2.0290957">
        <ele>68.953</ele>
        <time>2018-08-18T11:33:18.399Z</time>
      </trkpt>
      <trkpt lat="48.4823385" lon="-2.0290770">
        <ele>69.238</ele>
        <time>2018-08-18T11:33:24.818Z</time>
      </trkpt>
      <trkpt lat="48.4824463" lon="-2.0290518">
        <ele>69.417</ele>
        <time>2018-08-18T11:33:30.569Z</time>
      </trkpt>
      <trkpt lat="48.4825594" lon="-2.0290351">
        <ele>69.667</ele>
        <time>2018-08-18T11:33:36.458Z</time>
      </trkpt>
      <trkpt lat="48.4826550" lon="-2.0290174">
        <ele>70.069</ele>
        <time>2018-08-18T11:33:41.844Z</time>
      </trkpt>
      <trkpt lat="48.4827487" lon="-2.0289942">
        <ele>70.715</ele>
        <time>2018-08-18T11:33:48.291Z</time>
      </trkpt>
      <trkpt lat="48.4828544" lon="-2.0289548">
        <ele>71.509</ele>
        <time>2018-08-18T11:33:55.521Z</time>
      </trkpt>
      <trkpt lat="48.4829466" lon="-2.0289594">
        <ele>72.123</ele>
        <time>2018-08-18T11:34:00.816Z</time>
      </trkpt>
      <trkpt lat="48.4830357" lon="-2.0289382">
        <ele>72.413</ele>
        <time>2018-08-18T11:34:04.866Z</time>
      </trkpt>
      <trkpt lat="48.4831333" lon="-2.0288956">
        <ele>72.483</ele>
        <time>2018-08-18T11:34:09.351Z</time>
      </trkpt>
      <trkpt lat="48.4832278" lon="-2.0288666">
        <ele>72.471</ele>
        <time>2018-08-18T11:34:13.512Z</time>
      </trkpt>
      <trkpt lat="48.4833210" lon="-2.0288606">
        <ele>72.438</ele>
        <time>2018-08-18T11:34:17.213Z</time>
      </trkpt>
      <trkpt lat="48.4834370" lon="-2.0288479">
        <ele>72.390</ele>
        <time>2018-08-18T11:34:21.419Z</time>
      </trkpt>
      <trkpt lat="48.4835299" lon="-2.0288504">
        <ele>72.345</ele>
        <time>2018-08-18T11:34:24.500Z</time>
      </trkpt>
      <trkpt lat="48.4836236" lon="-2.0289014">
        <ele>72.334</ele>
        <time>2018-08-18T11:34:27.615Z</time>
      </trkpt>
      <trkpt lat="48.4836874" lon="-2.0290282">
        <ele>72.370</ele>
        <time>2018-08-18T11:34:30.961Z</time>
      </trkpt>
      <trkpt lat="48.4837398" lon="-2.0291449">
        <ele>72.420</ele>
        <time>2018-08-18T11:34:34.075Z</time>
      </trkpt>
      <trkpt lat="48.4837916" lon="-2.0293068">
        <ele>72.451</ele>
        <time>2018-08-18T11:34:38.000Z</time>
      </trkpt>
      <trkpt lat="48.4837916" lon="-2.0293068">
        <ele>72.447</ele>
        <time>2018-08-18T11:34:40.000Z</time>
      </trkpt>
      <trkpt lat="48.4837916" lon="-2.0293068">
        <ele>72.413</ele>
        <time>2018-08-18T11:34:40.100Z</time>
      </trkpt>
      <trkpt lat="48.4838620" lon="-2.0296108">
        <ele>72.378</ele>
        <time>2018-08-18T11:34:50.044Z</time>
      </trkpt>
      <trkpt lat="48.4839044" lon="-2.0297409">
        <ele>72.360</ele>
        <time>2018-08-18T11:34:52.915Z</time>
      </trkpt>
      <trkpt lat="48.4839705" lon="-2.0298549">
        <ele>72.389</ele>
        <time>2018-08-18T11:34:55.639Z</time>
      </trkpt>
      <trkpt lat="48.4840251" lon="-2.0299965">
        <ele>72.473</ele>
        <time>2018-08-18T11:34:58.342Z</time>
      </trkpt>
      <trkpt lat="48.4840801" lon="-2.0301502">
        <ele>72.499</ele>
        <time>2018-08-18T11:35:01.070Z</time>
      </trkpt>
      <trkpt lat="48.4841207" lon="-2.0303044">
        <ele>72.382</ele>
        <time>2018-08-18T11:35:03.501Z</time>
      </trkpt>
      <trkpt lat="48.4841487" lon="-2.0304733">
        <ele>72.224</ele>
        <time>2018-08-18T11:35:06.010Z</time>
      </trkpt>
      <trkpt lat="48.4841787" lon="-2.0306523">
        <ele>72.123</ele>
        <time>2018-08-18T11:35:08.642Z</time>
      </trkpt>
      <trkpt lat="48.4842088" lon="-2.0308357">
        <ele>72.018</ele>
        <time>2018-08-18T11:35:11.276Z</time>
      </trkpt>
      <trkpt lat="48.4842512" lon="-2.0310296">
        <ele>71.872</ele>
        <time>2018-08-18T11:35:14.055Z</time>
      </trkpt>
      <trkpt lat="48.4843079" lon="-2.0312053">
        <ele>71.724</ele>
        <time>2018-08-18T11:35:16.674Z</time>
      </trkpt>
      <trkpt lat="48.4843929" lon="-2.0313665">
        <ele>71.583</ele>
        <time>2018-08-18T11:35:19.364Z</time>
      </trkpt>
      <trkpt lat="48.4844960" lon="-2.0315023">
        <ele>71.414</ele>
        <time>2018-08-18T11:35:21.990Z</time>
      </trkpt>
      <trkpt lat="48.4846029" lon="-2.0316129">
        <ele>71.151</ele>
        <time>2018-08-18T11:35:24.537Z</time>
      </trkpt>
      <trkpt lat="48.4846828" lon="-2.0316773">
        <ele>70.800</ele>
        <time>2018-08-18T11:35:26.344Z</time>
      </trkpt>
      <trkpt lat="48.4847842" lon="-2.0317770">
        <ele>70.594</ele>
        <time>2018-08-18T11:35:28.853Z</time>
      </trkpt>
      <trkpt lat="48.4848601" lon="-2.0318965">
        <ele>70.680</ele>
        <time>2018-08-18T11:35:31.279Z</time>
      </trkpt>
      <trkpt lat="48.4849078" lon="-2.0320189">
        <ele>70.833</ele>
        <time>2018-08-18T11:35:33.530Z</time>
      </trkpt>
      <trkpt lat="48.4849443" lon="-2.0321606">
        <ele>70.839</ele>
        <time>2018-08-18T11:35:36.240Z</time>
      </trkpt>
      <trkpt lat="48.4849679" lon="-2.0323036">
        <ele>70.760</ele>
        <time>2018-08-18T11:35:39.307Z</time>
      </trkpt>
      <trkpt lat="48.4850555" lon="-2.0323701">
        <ele>70.710</ele>
        <time>2018-08-18T11:35:42.651Z</time>
      </trkpt>
      <trkpt lat="48.4851517" lon="-2.0323447">
        <ele>70.654</ele>
        <time>2018-08-18T11:35:46.215Z</time>
      </trkpt>
      <trkpt lat="48.4852699" lon="-2.0323028">
        <ele>70.524</ele>
        <time>2018-08-18T11:35:50.557Z</time>
      </trkpt>
      <trkpt lat="48.4853888" lon="-2.0322637">
        <ele>70.357</ele>
        <time>2018-08-18T11:35:53.894Z</time>
      </trkpt>
      <trkpt lat="48.4854927" lon="-2.0322123">
        <ele>70.204</ele>
        <time>2018-08-18T11:35:56.386Z</time>
      </trkpt>
      <trkpt lat="48.4855274" lon="-2.0320757">
        <ele>70.085</ele>
        <time>2018-08-18T11:35:58.509Z</time>
      </trkpt>
      <trkpt lat="48.4855006" lon="-2.0319183">
        <ele>70.032</ele>
        <time>2018-08-18T11:36:00.923Z</time>
      </trkpt>
      <trkpt lat="48.4855498" lon="-2.0317865">
        <ele>70.068</ele>
        <time>2018-08-18T11:36:03.418Z</time>
      </trkpt>
      <trkpt lat="48.4856531" lon="-2.0317459">
        <ele>70.207</ele>
        <time>2018-08-18T11:36:06.711Z</time>
      </trkpt>
      <trkpt lat="48.4857561" lon="-2.0317168">
        <ele>70.503</ele>
        <time>2018-08-18T11:36:11.029Z</time>
      </trkpt>
      <trkpt lat="48.4858520" lon="-2.0316841">
        <ele>70.896</ele>
        <time>2018-08-18T11:36:15.788Z</time>
      </trkpt>
      <trkpt lat="48.4859427" lon="-2.0316424">
        <ele>71.194</ele>
        <time>2018-08-18T11:36:20.628Z</time>
      </trkpt>
      <trkpt lat="48.4860535" lon="-2.0316163">
        <ele>71.270</ele>
        <time>2018-08-18T11:36:25.760Z</time>
      </trkpt>
      <trkpt lat="48.4861559" lon="-2.0316062">
        <ele>71.159</ele>
        <time>2018-08-18T11:36:30.482Z</time>
      </trkpt>
      <trkpt lat="48.4862520" lon="-2.0315945">
        <ele>70.956</ele>
        <time>2018-08-18T11:36:35.184Z</time>
      </trkpt>
      <trkpt lat="48.4863458" lon="-2.0315859">
        <ele>70.668</ele>
        <time>2018-08-18T11:36:40.113Z</time>
      </trkpt>
      <trkpt lat="48.4864683" lon="-2.0315662">
        <ele>70.284</ele>
        <time>2018-08-18T11:36:47.005Z</time>
      </trkpt>
      <trkpt lat="48.4865599" lon="-2.0315648">
        <ele>69.881</ele>
        <time>2018-08-18T11:36:51.403Z</time>
      </trkpt>
      <trkpt lat="48.4866765" lon="-2.0315694">
        <ele>69.547</ele>
        <time>2018-08-18T11:36:56.299Z</time>
      </trkpt>
      <trkpt lat="48.4867820" lon="-2.0315875">
        <ele>69.433</ele>
        <time>2018-08-18T11:37:00.836Z</time>
      </trkpt>
      <trkpt lat="48.4868861" lon="-2.0315904">
        <ele>69.699</ele>
        <time>2018-08-18T11:37:04.971Z</time>
      </trkpt>
      <trkpt lat="48.4869799" lon="-2.0315888">
        <ele>70.194</ele>
        <time>2018-08-18T11:37:08.637Z</time>
      </trkpt>
      <trkpt lat="48.4870741" lon="-2.0316046">
        <ele>70.616</ele>
        <time>2018-08-18T11:37:12.262Z</time>
      </trkpt>
      <trkpt lat="48.4871695" lon="-2.0316101">
        <ele>70.925</ele>
        <time>2018-08-18T11:37:15.684Z</time>
      </trkpt>
      <trkpt lat="48.4872678" lon="-2.0316328">
        <ele>71.226</ele>
        <time>2018-08-18T11:37:18.920Z</time>
      </trkpt>
      <trkpt lat="48.4873593" lon="-2.0316572">
        <ele>71.514</ele>
        <time>2018-08-18T11:37:21.992Z</time>
      </trkpt>
      <trkpt lat="48.4874535" lon="-2.0316897">
        <ele>71.745</ele>
        <time>2018-08-18T11:37:25.625Z</time>
      </trkpt>
      <trkpt lat="48.4875671" lon="-2.0317291">
        <ele>72.003</ele>
        <time>2018-08-18T11:37:31.005Z</time>
      </trkpt>
      <trkpt lat="48.4876561" lon="-2.0317658">
        <ele>72.342</ele>
        <time>2018-08-18T11:37:35.742Z</time>
      </trkpt>
      <trkpt lat="48.4877518" lon="-2.0318179">
        <ele>72.655</ele>
        <time>2018-08-18T11:37:40.846Z</time>
      </trkpt>
      <trkpt lat="48.4878522" lon="-2.0318843">
        <ele>72.796</ele>
        <time>2018-08-18T11:37:46.446Z</time>
      </trkpt>
      <trkpt lat="48.4879403" lon="-2.0319347">
        <ele>72.774</ele>
        <time>2018-08-18T11:37:51.642Z</time>
      </trkpt>
      <trkpt lat="48.4880264" lon="-2.0319957">
        <ele>72.659</ele>
        <time>2018-08-18T11:37:57.209Z</time>
      </trkpt>
      <trkpt lat="48.4881262" lon="-2.0320376">
        <ele>72.522</ele>
        <time>2018-08-18T11:38:03.768Z</time>
      </trkpt>
      <trkpt lat="48.4882124" lon="-2.0320859">
        <ele>72.431</ele>
        <time>2018-08-18T11:38:10.025Z</time>
      </trkpt>
      <trkpt lat="48.4883095" lon="-2.0321362">
        <ele>72.456</ele>
        <time>2018-08-18T11:38:16.368Z</time>
      </trkpt>
      <trkpt lat="48.4884043" lon="-2.0321972">
        <ele>72.673</ele>
        <time>2018-08-18T11:38:22.648Z</time>
      </trkpt>
      <trkpt lat="48.4885124" lon="-2.0322565">
        <ele>73.051</ele>
        <time>2018-08-18T11:38:29.381Z</time>
      </trkpt>
      <trkpt lat="48.4886156" lon="-2.0323267">
        <ele>73.383</ele>
        <time>2018-08-18T11:38:36.276Z</time>
      </trkpt>
      <trkpt lat="48.4887036" lon="-2.0324266">
        <ele>73.548</ele>
        <time>2018-08-18T11:38:42.724Z</time>
      </trkpt>
      <trkpt lat="48.4887868" lon="-2.0325247">
        <ele>73.612</ele>
        <time>2018-08-18T11:38:48.790Z</time>
      </trkpt>
      <trkpt lat="48.4888768" lon="-2.0325903">
        <ele>73.652</ele>
        <time>2018-08-18T11:38:53.702Z</time>
      </trkpt>
      <trkpt lat="48.4889871" lon="-2.0326565">
        <ele>73.697</ele>
        <time>2018-08-18T11:38:59.093Z</time>
      </trkpt>
      <trkpt lat="48.4890730" lon="-2.0327083">
        <ele>73.741</ele>
        <time>2018-08-18T11:39:03.289Z</time>
      </trkpt>
      <trkpt lat="48.4891780" lon="-2.0327843">
        <ele>73.744</ele>
        <time>2018-08-18T11:39:08.960Z</time>
      </trkpt>
      <trkpt lat="48.4892768" lon="-2.0328595">
        <ele>73.597</ele>
        <time>2018-08-18T11:39:14.521Z</time>
      </trkpt>
      <trkpt lat="48.4893792" lon="-2.0328563">
        <ele>73.236</ele>
        <time>2018-08-18T11:39:19.671Z</time>
      </trkpt>
      <trkpt lat="48.4894694" lon="-2.0328750">
        <ele>72.795</ele>
        <time>2018-08-18T11:39:24.247Z</time>
      </trkpt>
      <trkpt lat="48.4895717" lon="-2.0328580">
        <ele>72.558</ele>
        <time>2018-08-18T11:39:30.534Z</time>
      </trkpt>
      <trkpt lat="48.4896363" lon="-2.0329676">
        <ele>72.637</ele>
        <time>2018-08-18T11:39:36.057Z</time>
      </trkpt>
      <trkpt lat="48.4896140" lon="-2.0331149">
        <ele>72.863</ele>
        <time>2018-08-18T11:39:40.380Z</time>
      </trkpt>
      <trkpt lat="48.4896106" lon="-2.0332789">
        <ele>73.056</ele>
        <time>2018-08-18T11:39:44.341Z</time>
      </trkpt>
      <trkpt lat="48.4896921" lon="-2.0333972">
        <ele>73.206</ele>
        <time>2018-08-18T11:39:48.225Z</time>
      </trkpt>
      <trkpt lat="48.4897611" lon="-2.0335214">
        <ele>73.419</ele>
        <time>2018-08-18T11:39:51.871Z</time>
      </trkpt>
      <trkpt lat="48.4898250" lon="-2.0336226">
        <ele>73.721</ele>
        <time>2018-08-18T11:39:55.039Z</time>
      </trkpt>
      <trkpt lat="48.4898842" lon="-2.0337251">
        <ele>73.917</ele>
        <time>2018-08-18T11:39:58.118Z</time>
      </trkpt>
      <trkpt lat="48.4899619" lon="-2.0338371">
        <ele>73.749</ele>
        <time>2018-08-18T11:40:01.756Z</time>
      </trkpt>
      <trkpt lat="48.4900201" lon="-2.0339490">
        <ele>73.284</ele>
        <time>2018-08-18T11:40:04.994Z</time>
      </trkpt>
      <trkpt lat="48.4900791" lon="-2.0340539">
        <ele>72.859</ele>
        <time>2018-08-18T11:40:08.413Z</time>
      </trkpt>
      <trkpt lat="48.4901418" lon="-2.0341630">
        <ele>72.607</ele>
        <time>2018-08-18T11:40:12.144Z</time>
      </trkpt>
      <trkpt lat="48.4901982" lon="-2.0342946">
        <ele>72.396</ele>
        <time>2018-08-18T11:40:16.150Z</time>
      </trkpt>
      <trkpt lat="48.4902656" lon="-2.0344394">
        <ele>72.205</ele>
        <time>2018-08-18T11:40:20.513Z</time>
      </trkpt>
      <trkpt lat="48.4903293" lon="-2.0345502">
        <ele>72.201</ele>
        <time>2018-08-18T11:40:24.293Z</time>
      </trkpt>
      <trkpt lat="48.4903888" lon="-2.0346920">
        <ele>72.504</ele>
        <time>2018-08-18T11:40:29.281Z</time>
      </trkpt>
      <trkpt lat="48.4904268" lon="-2.0348304">
        <ele>72.956</ele>
        <time>2018-08-18T11:40:33.881Z</time>
      </trkpt>
      <trkpt lat="48.4904502" lon="-2.0349750">
        <ele>73.218</ele>
        <time>2018-08-18T11:40:38.228Z</time>
      </trkpt>
      <trkpt lat="48.4905028" lon="-2.0351346">
        <ele>73.177</ele>
        <time>2018-08-18T11:40:42.625Z</time>
      </trkpt>
      <trkpt lat="48.4905572" lon="-2.0352789">
        <ele>73.014</ele>
        <time>2018-08-18T11:40:46.420Z</time>
      </trkpt>
      <trkpt lat="48.4906282" lon="-2.0354050">
        <ele>72.903</ele>
        <time>2018-08-18T11:40:50.375Z</time>
      </trkpt>
      <trkpt lat="48.4906991" lon="-2.0355228">
        <ele>72.865</ele>
        <time>2018-08-18T11:40:55.008Z</time>
      </trkpt>
      <trkpt lat="48.4907553" lon="-2.0356474">
        <ele>72.864</ele>
        <time>2018-08-18T11:41:00.332Z</time>
      </trkpt>
      <trkpt lat="48.4908036" lon="-2.0357801">
        <ele>72.896</ele>
        <time>2018-08-18T11:41:04.699Z</time>
      </trkpt>
      <trkpt lat="48.4908560" lon="-2.0359315">
        <ele>72.963</ele>
        <time>2018-08-18T11:41:08.912Z</time>
      </trkpt>
      <trkpt lat="48.4908932" lon="-2.0360660">
        <ele>72.947</ele>
        <time>2018-08-18T11:41:12.060Z</time>
      </trkpt>
      <trkpt lat="48.4909518" lon="-2.0361937">
        <ele>72.764</ele>
        <time>2018-08-18T11:41:15.245Z</time>
      </trkpt>
      <trkpt lat="48.4909816" lon="-2.0363604">
        <ele>72.486</ele>
        <time>2018-08-18T11:41:18.975Z</time>
      </trkpt>
      <trkpt lat="48.4910053" lon="-2.0365225">
        <ele>72.216</ele>
        <time>2018-08-18T11:41:22.844Z</time>
      </trkpt>
      <trkpt lat="48.4910424" lon="-2.0366651">
        <ele>72.033</ele>
        <time>2018-08-18T11:41:26.200Z</time>
      </trkpt>
      <trkpt lat="48.4911027" lon="-2.0368015">
        <ele>71.893</ele>
        <time>2018-08-18T11:41:29.687Z</time>
      </trkpt>
      <trkpt lat="48.4911594" lon="-2.0369080">
        <ele>71.684</ele>
        <time>2018-08-18T11:41:32.456Z</time>
      </trkpt>
      <trkpt lat="48.4912252" lon="-2.0370568">
        <ele>71.447</ele>
        <time>2018-08-18T11:41:36.164Z</time>
      </trkpt>
      <trkpt lat="48.4912625" lon="-2.0371905">
        <ele>71.199</ele>
        <time>2018-08-18T11:41:39.093Z</time>
      </trkpt>
      <trkpt lat="48.4912989" lon="-2.0373591">
        <ele>70.880</ele>
        <time>2018-08-18T11:41:42.312Z</time>
      </trkpt>
      <trkpt lat="48.4913557" lon="-2.0375006">
        <ele>70.528</ele>
        <time>2018-08-18T11:41:45.190Z</time>
      </trkpt>
      <trkpt lat="48.4914216" lon="-2.0376542">
        <ele>70.146</ele>
        <time>2018-08-18T11:41:48.564Z</time>
      </trkpt>
      <trkpt lat="48.4914863" lon="-2.0377886">
        <ele>69.615</ele>
        <time>2018-08-18T11:41:51.723Z</time>
      </trkpt>
      <trkpt lat="48.4915458" lon="-2.0379422">
        <ele>68.640</ele>
        <time>2018-08-18T11:41:55.021Z</time>
      </trkpt>
      <trkpt lat="48.4915936" lon="-2.0380867">
        <ele>67.281</ele>
        <time>2018-08-18T11:41:57.949Z</time>
      </trkpt>
      <trkpt lat="48.4916473" lon="-2.0382292">
        <ele>66.258</ele>
        <time>2018-08-18T11:42:01.146Z</time>
      </trkpt>
      <trkpt lat="48.4916885" lon="-2.0383636">
        <ele>66.014</ele>
        <time>2018-08-18T11:42:04.254Z</time>
      </trkpt>
      <trkpt lat="48.4917427" lon="-2.0384906">
        <ele>66.227</ele>
        <time>2018-08-18T11:42:07.570Z</time>
      </trkpt>
      <trkpt lat="48.4917874" lon="-2.0386359">
        <ele>66.499</ele>
        <time>2018-08-18T11:42:10.974Z</time>
      </trkpt>
      <trkpt lat="48.4918651" lon="-2.0387845">
        <ele>66.661</ele>
        <time>2018-08-18T11:42:14.764Z</time>
      </trkpt>
      <trkpt lat="48.4919237" lon="-2.0388902">
        <ele>66.688</ele>
        <time>2018-08-18T11:42:17.410Z</time>
      </trkpt>
      <trkpt lat="48.4919731" lon="-2.0390360">
        <ele>66.661</ele>
        <time>2018-08-18T11:42:20.372Z</time>
      </trkpt>
      <trkpt lat="48.4920301" lon="-2.0391908">
        <ele>66.691</ele>
        <time>2018-08-18T11:42:23.436Z</time>
      </trkpt>
      <trkpt lat="48.4920727" lon="-2.0393281">
        <ele>66.785</ele>
        <time>2018-08-18T11:42:26.071Z</time>
      </trkpt>
      <trkpt lat="48.4920891" lon="-2.0394844">
        <ele>66.866</ele>
        <time>2018-08-18T11:42:28.897Z</time>
      </trkpt>
      <trkpt lat="48.4921094" lon="-2.0396517">
        <ele>66.928</ele>
        <time>2018-08-18T11:42:31.998Z</time>
      </trkpt>
      <trkpt lat="48.4921473" lon="-2.0397968">
        <ele>67.005</ele>
        <time>2018-08-18T11:42:34.842Z</time>
      </trkpt>
      <trkpt lat="48.4922015" lon="-2.0399691">
        <ele>67.018</ele>
        <time>2018-08-18T11:42:38.107Z</time>
      </trkpt>
      <trkpt lat="48.4922718" lon="-2.0401526">
        <ele>66.879</ele>
        <time>2018-08-18T11:42:41.459Z</time>
      </trkpt>
      <trkpt lat="48.4923688" lon="-2.0403420">
        <ele>66.568</ele>
        <time>2018-08-18T11:42:44.999Z</time>
      </trkpt>
      <trkpt lat="48.4924293" lon="-2.0404442">
        <ele>66.157</ele>
        <time>2018-08-18T11:42:46.920Z</time>
      </trkpt>
      <trkpt lat="48.4925094" lon="-2.0405925">
        <ele>65.811</ele>
        <time>2018-08-18T11:42:49.589Z</time>
      </trkpt>
      <trkpt lat="48.4925735" lon="-2.0407558">
        <ele>65.667</ele>
        <time>2018-08-18T11:42:52.250Z</time>
      </trkpt>
      <trkpt lat="48.4926248" lon="-2.0409396">
        <ele>65.710</ele>
        <time>2018-08-18T11:42:55.076Z</time>
      </trkpt>
      <trkpt lat="48.4926391" lon="-2.0410791">
        <ele>66.017</ele>
        <time>2018-08-18T11:42:57.088Z</time>
      </trkpt>
      <trkpt lat="48.4926624" lon="-2.0412249">
        <ele>66.788</ele>
        <time>2018-08-18T11:42:59.246Z</time>
      </trkpt>
      <trkpt lat="48.4927286" lon="-2.0414061">
        <ele>67.899</ele>
        <time>2018-08-18T11:43:02.303Z</time>
      </trkpt>
      <trkpt lat="48.4927837" lon="-2.0415347">
        <ele>68.871</ele>
        <time>2018-08-18T11:43:04.542Z</time>
      </trkpt>
      <trkpt lat="48.4928424" lon="-2.0416791">
        <ele>69.424</ele>
        <time>2018-08-18T11:43:06.999Z</time>
      </trkpt>
      <trkpt lat="48.4928424" lon="-2.0416791">
        <ele>69.584</ele>
        <time>2018-08-18T11:43:06.999Z</time>
      </trkpt>
      <trkpt lat="48.4928424" lon="-2.0416791">
        <ele>69.518</ele>
        <time>2018-08-18T11:43:07.099Z</time>
      </trkpt>
      <trkpt lat="48.4929033" lon="-2.0418673">
        <ele>69.406</ele>
        <time>2018-08-18T11:43:12.453Z</time>
      </trkpt>
      <trkpt lat="48.4929571" lon="-2.0420448">
        <ele>69.122</ele>
        <time>2018-08-18T11:43:15.329Z</time>
      </trkpt>
      <trkpt lat="48.4930782" lon="-2.0422660">
        <ele>68.489</ele>
        <time>2018-08-18T11:43:19.438Z</time>
      </trkpt>
      <trkpt lat="48.4930934" lon="-2.0424308">
        <ele>67.752</ele>
        <time>2018-08-18T11:43:22.028Z</time>
      </trkpt>
      <trkpt lat="48.4931754" lon="-2.0425581">
        <ele>67.218</ele>
        <time>2018-08-18T11:43:24.621Z</time>
      </trkpt>
      <trkpt lat="48.4932814" lon="-2.0427259">
        <ele>66.897</ele>
        <time>2018-08-18T11:43:27.153Z</time>
      </trkpt>
      <trkpt lat="48.4932639" lon="-2.0429773">
        <ele>66.730</ele>
        <time>2018-08-18T11:43:30.359Z</time>
      </trkpt>
      <trkpt lat="48.4933421" lon="-2.0430954">
        <ele>66.586</ele>
        <time>2018-08-18T11:43:32.826Z</time>
      </trkpt>
      <trkpt lat="48.4933269" lon="-2.0432369">
        <ele>66.381</ele>
        <time>2018-08-18T11:43:35.949Z</time>
      </trkpt>
      <trkpt lat="48.4933793" lon="-2.0433497">
        <ele>66.199</ele>
        <time>2018-08-18T11:43:38.622Z</time>
      </trkpt>
      <trkpt lat="48.4934495" lon="-2.0435063">
        <ele>66.104</ele>
        <time>2018-08-18T11:43:42.360Z</time>
      </trkpt>
      <trkpt lat="48.4935250" lon="-2.0436310">
        <ele>66.053</ele>
        <time>2018-08-18T11:43:46.021Z</time>
      </trkpt>
      <trkpt lat="48.4935908" lon="-2.0437258">
        <ele>66.017</ele>
        <time>2018-08-18T11:43:49.177Z</time>
      </trkpt>
      <trkpt lat="48.4936611" lon="-2.0438735">
        <ele>65.918</ele>
        <time>2018-08-18T11:43:52.935Z</time>
      </trkpt>
      <trkpt lat="48.4937044" lon="-2.0439954">
        <ele>65.648</ele>
        <time>2018-08-18T11:43:56.021Z</time>
      </trkpt>
      <trkpt lat="48.4937506" lon="-2.0441184">
        <ele>65.266</ele>
        <time>2018-08-18T11:43:59.034Z</time>
      </trkpt>
      <trkpt lat="48.4937947" lon="-2.0442812">
        <ele>64.919</ele>
        <time>2018-08-18T11:44:02.115Z</time>
      </trkpt>
      <trkpt lat="48.4938737" lon="-2.0444589">
        <ele>64.640</ele>
        <time>2018-08-18T11:44:05.639Z</time>
      </trkpt>
      <trkpt lat="48.4939629" lon="-2.0445799">
        <ele>64.306</ele>
        <time>2018-08-18T11:44:09.386Z</time>
      </trkpt>
      <trkpt lat="48.4940305" lon="-2.0447291">
        <ele>63.829</ele>
        <time>2018-08-18T11:44:13.637Z</time>
      </trkpt>
      <trkpt lat="48.4940655" lon="-2.0448651">
        <ele>63.359</ele>
        <time>2018-08-18T11:44:16.976Z</time>
      </trkpt>
      <trkpt lat="48.4941294" lon="-2.0449880">
        <ele>63.129</ele>
        <time>2018-08-18T11:44:20.461Z</time>
      </trkpt>
      <trkpt lat="48.4942058" lon="-2.0450875">
        <ele>63.148</ele>
        <time>2018-08-18T11:44:24.073Z</time>
      </trkpt>
      <trkpt lat="48.4942615" lon="-2.0452185">
        <ele>63.260</ele>
        <time>2018-08-18T11:44:27.750Z</time>
      </trkpt>
      <trkpt lat="48.4943277" lon="-2.0453208">
        <ele>63.419</ele>
        <time>2018-08-18T11:44:30.690Z</time>
      </trkpt>
      <trkpt lat="48.4944060" lon="-2.0454435">
        <ele>63.699</ele>
        <time>2018-08-18T11:44:33.920Z</time>
      </trkpt>
      <trkpt lat="48.4944853" lon="-2.0455681">
        <ele>64.027</ele>
        <time>2018-08-18T11:44:37.171Z</time>
      </trkpt>
      <trkpt lat="48.4945660" lon="-2.0456870">
        <ele>64.213</ele>
        <time>2018-08-18T11:44:40.343Z</time>
      </trkpt>
      <trkpt lat="48.4946413" lon="-2.0457970">
        <ele>64.217</ele>
        <time>2018-08-18T11:44:43.209Z</time>
      </trkpt>
      <trkpt lat="48.4947243" lon="-2.0459087">
        <ele>64.237</ele>
        <time>2018-08-18T11:44:46.261Z</time>
      </trkpt>
      <trkpt lat="48.4948083" lon="-2.0460202">
        <ele>64.456</ele>
        <time>2018-08-18T11:44:49.317Z</time>
      </trkpt>
      <trkpt lat="48.4948897" lon="-2.0461440">
        <ele>64.763</ele>
        <time>2018-08-18T11:44:52.379Z</time>
      </trkpt>
      <trkpt lat="48.4949645" lon="-2.0462419">
        <ele>64.960</ele>
        <time>2018-08-18T11:44:54.941Z</time>
      </trkpt>
      <trkpt lat="48.4950535" lon="-2.0463509">
        <ele>65.070</ele>
        <time>2018-08-18T11:44:57.839Z</time>
      </trkpt>
      <trkpt lat="48.4951306" lon="-2.0464301">
        <ele>65.189</ele>
        <time>2018-08-18T11:45:00.098Z</time>
      </trkpt>
      <trkpt lat="48.4952169" lon="-2.0465043">
        <ele>65.278</ele>
        <time>2018-08-18T11:45:02.417Z</time>
      </trkpt>
      <trkpt lat="48.4953102" lon="-2.0465802">
        <ele>65.275</ele>
        <time>2018-08-18T11:45:04.873Z</time>
      </trkpt>
      <trkpt lat="48.4953925" lon="-2.0466493">
        <ele>65.382</ele>
        <time>2018-08-18T11:45:07.106Z</time>
      </trkpt>
      <trkpt lat="48.4954772" lon="-2.0467158">
        <ele>65.822</ele>
        <time>2018-08-18T11:45:09.507Z</time>
      </trkpt>
      <trkpt lat="48.4955599" lon="-2.0467778">
        <ele>66.436</ele>
        <time>2018-08-18T11:45:11.892Z</time>
      </trkpt>
      <trkpt lat="48.4956647" lon="-2.0468568">
        <ele>66.994</ele>
        <time>2018-08-18T11:45:15.107Z</time>
      </trkpt>
      <trkpt lat="48.4957752" lon="-2.0469197">
        <ele>67.458</ele>
        <time>2018-08-18T11:45:18.375Z</time>
      </trkpt>
      <trkpt lat="48.4958638" lon="-2.0469686">
        <ele>67.888</ele>
        <time>2018-08-18T11:45:20.863Z</time>
      </trkpt>
      <trkpt lat="48.4959533" lon="-2.0470242">
        <ele>68.321</ele>
        <time>2018-08-18T11:45:23.358Z</time>
      </trkpt>
      <trkpt lat="48.4960410" lon="-2.0470789">
        <ele>68.461</ele>
        <time>2018-08-18T11:45:26.047Z</time>
      </trkpt>
      <trkpt lat="48.4961364" lon="-2.0471392">
        <ele>68.043</ele>
        <time>2018-08-18T11:45:29.508Z</time>
      </trkpt>
      <trkpt lat="48.4962284" lon="-2.0471933">
        <ele>67.353</ele>
        <time>2018-08-18T11:45:33.221Z</time>
      </trkpt>
      <trkpt lat="48.4963237" lon="-2.0472449">
        <ele>66.774</ele>
        <time>2018-08-18T11:45:37.520Z</time>
      </trkpt>
      <trkpt lat="48.4964175" lon="-2.0472786">
        <ele>66.444</ele>
        <time>2018-08-18T11:45:42.027Z</time>
      </trkpt>
      <trkpt lat="48.4965316" lon="-2.0472772">
        <ele>66.337</ele>
        <time>2018-08-18T11:45:47.855Z</time>
      </trkpt>
      <trkpt lat="48.4966376" lon="-2.0472888">
        <ele>66.318</ele>
        <time>2018-08-18T11:45:52.732Z</time>
      </trkpt>
      <trkpt lat="48.4967368" lon="-2.0473031">
        <ele>66.279</ele>
        <time>2018-08-18T11:45:57.244Z</time>
      </trkpt>
      <trkpt lat="48.4968413" lon="-2.0473302">
        <ele>66.226</ele>
        <time>2018-08-18T11:46:01.806Z</time>
      </trkpt>
      <trkpt lat="48.4969680" lon="-2.0473632">
        <ele>66.198</ele>
        <time>2018-08-18T11:46:06.325Z</time>
      </trkpt>
      <trkpt lat="48.4971097" lon="-2.0474011">
        <ele>66.181</ele>
        <time>2018-08-18T11:46:10.224Z</time>
      </trkpt>
      <trkpt lat="48.4972154" lon="-2.0474289">
        <ele>66.163</ele>
        <time>2018-08-18T11:46:12.665Z</time>
      </trkpt>
      <trkpt lat="48.4973803" lon="-2.0474259">
        <ele>66.153</ele>
        <time>2018-08-18T11:46:16.274Z</time>
      </trkpt>
      <trkpt lat="48.4974947" lon="-2.0474303">
        <ele>66.155</ele>
        <time>2018-08-18T11:46:18.961Z</time>
      </trkpt>
      <trkpt lat="48.4976137" lon="-2.0474583">
        <ele>66.167</ele>
        <time>2018-08-18T11:46:22.123Z</time>
      </trkpt>
      <trkpt lat="48.4977038" lon="-2.0474560">
        <ele>66.193</ele>
        <time>2018-08-18T11:46:25.326Z</time>
      </trkpt>
      <trkpt lat="48.4978093" lon="-2.0474073">
        <ele>66.238</ele>
        <time>2018-08-18T11:46:30.020Z</time>
      </trkpt>
      <trkpt lat="48.4978986" lon="-2.0473916">
        <ele>66.294</ele>
        <time>2018-08-18T11:46:33.342Z</time>
      </trkpt>
      <trkpt lat="48.4980263" lon="-2.0473649">
        <ele>66.415</ele>
        <time>2018-08-18T11:46:37.095Z</time>
      </trkpt>
      <trkpt lat="48.4981365" lon="-2.0473532">
        <ele>66.698</ele>
        <time>2018-08-18T11:46:40.097Z</time>
      </trkpt>
      <trkpt lat="48.4982386" lon="-2.0473403">
        <ele>67.157</ele>
        <time>2018-08-18T11:46:43.000Z</time>
      </trkpt>
      <trkpt lat="48.4982386" lon="-2.0473403">
        <ele>67.659</ele>
        <time>2018-08-18T11:46:59.000Z</time>
      </trkpt>
      <trkpt lat="48.4982386" lon="-2.0473403">
        <ele>67.939</ele>
        <time>2018-08-18T11:46:59.100Z</time>
      </trkpt>
      <trkpt lat="48.4983478" lon="-2.0472938">
        <ele>67.845</ele>
        <time>2018-08-18T11:47:39.000Z</time>
      </trkpt>
      <trkpt lat="48.4983478" lon="-2.0472938">
        <ele>67.591</ele>
        <time>2018-08-18T11:47:54.000Z</time>
      </trkpt>
      <trkpt lat="48.4983478" lon="-2.0472938">
        <ele>67.458</ele>
        <time>2018-08-18T11:48:38.080Z</time>
      </trkpt>
      <trkpt lat="48.4985671" lon="-2.0472037">
        <ele>67.459</ele>
        <time>2018-08-18T11:48:59.969Z</time>
      </trkpt>
      <trkpt lat="48.4986524" lon="-2.0471592">
        <ele>67.316</ele>
        <time>2018-08-18T11:49:05.956Z</time>
      </trkpt>
      <trkpt lat="48.4987495" lon="-2.0471271">
        <ele>66.878</ele>
        <time>2018-08-18T11:49:11.645Z</time>
      </trkpt>
      <trkpt lat="48.4988576" lon="-2.0470856">
        <ele>66.395</ele>
        <time>2018-08-18T11:49:18.281Z</time>
      </trkpt>
      <trkpt lat="48.4989531" lon="-2.0470429">
        <ele>66.114</ele>
        <time>2018-08-18T11:49:23.462Z</time>
      </trkpt>
      <trkpt lat="48.4990546" lon="-2.0470118">
        <ele>65.972</ele>
        <time>2018-08-18T11:49:28.402Z</time>
      </trkpt>
      <trkpt lat="48.4991443" lon="-2.0469583">
        <ele>65.850</ele>
        <time>2018-08-18T11:49:33.352Z</time>
      </trkpt>
      <trkpt lat="48.4992249" lon="-2.0468798">
        <ele>65.703</ele>
        <time>2018-08-18T11:49:38.720Z</time>
      </trkpt>
      <trkpt lat="48.4993247" lon="-2.0468106">
        <ele>65.764</ele>
        <time>2018-08-18T11:49:44.337Z</time>
      </trkpt>
      <trkpt lat="48.4994325" lon="-2.0467960">
        <ele>66.201</ele>
        <time>2018-08-18T11:49:49.024Z</time>
      </trkpt>
      <trkpt lat="48.4995305" lon="-2.0467584">
        <ele>66.710</ele>
        <time>2018-08-18T11:49:53.167Z</time>
      </trkpt>
      <trkpt lat="48.4996179" lon="-2.0467074">
        <ele>67.007</ele>
        <time>2018-08-18T11:49:57.169Z</time>
      </trkpt>
      <trkpt lat="48.4997189" lon="-2.0466746">
        <ele>67.142</ele>
        <time>2018-08-18T11:50:01.436Z</time>
      </trkpt>
      <trkpt lat="48.4997886" lon="-2.0465748">
        <ele>67.230</ele>
        <time>2018-08-18T11:50:05.365Z</time>
      </trkpt>
      <trkpt lat="48.4998737" lon="-2.0464702">
        <ele>67.388</ele>
        <time>2018-08-18T11:50:10.012Z</time>
      </trkpt>
      <trkpt lat="48.4999713" lon="-2.0464119">
        <ele>67.620</ele>
        <time>2018-08-18T11:50:14.402Z</time>
      </trkpt>
      <trkpt lat="48.5000806" lon="-2.0463794">
        <ele>67.854</ele>
        <time>2018-08-18T11:50:18.479Z</time>
      </trkpt>
      <trkpt lat="48.5001860" lon="-2.0463241">
        <ele>68.097</ele>
        <time>2018-08-18T11:50:22.211Z</time>
      </trkpt>
      <trkpt lat="48.5002817" lon="-2.0462718">
        <ele>68.389</ele>
        <time>2018-08-18T11:50:25.867Z</time>
      </trkpt>
      <trkpt lat="48.5003965" lon="-2.0462418">
        <ele>68.838</ele>
        <time>2018-08-18T11:50:30.280Z</time>
      </trkpt>
      <trkpt lat="48.5004880" lon="-2.0461962">
        <ele>69.540</ele>
        <time>2018-08-18T11:50:34.024Z</time>
      </trkpt>
      <trkpt lat="48.5005925" lon="-2.0461413">
        <ele>70.323</ele>
        <time>2018-08-18T11:50:38.305Z</time>
      </trkpt>
      <trkpt lat="48.5007012" lon="-2.0460844">
        <ele>70.924</ele>
        <time>2018-08-18T11:50:42.674Z</time>
      </trkpt>
      <trkpt lat="48.5007947" lon="-2.0460425">
        <ele>71.227</ele>
        <time>2018-08-18T11:50:46.389Z</time>
      </trkpt>
      <trkpt lat="48.5009066" lon="-2.0459936">
        <ele>71.260</ele>
        <time>2018-08-18T11:50:50.879Z</time>
      </trkpt>
      <trkpt lat="48.5009923" lon="-2.0459411">
        <ele>71.169</ele>
        <time>2018-08-18T11:50:54.613Z</time>
      </trkpt>
      <trkpt lat="48.5010811" lon="-2.0458900">
        <ele>71.099</ele>
        <time>2018-08-18T11:50:58.666Z</time>
      </trkpt>
      <trkpt lat="48.5011803" lon="-2.0458409">
        <ele>71.144</ele>
        <time>2018-08-18T11:51:02.936Z</time>
      </trkpt>
      <trkpt lat="48.5012634" lon="-2.0457355">
        <ele>71.299</ele>
        <time>2018-08-18T11:51:07.394Z</time>
      </trkpt>
      <trkpt lat="48.5013544" lon="-2.0457164">
        <ele>71.483</ele>
        <time>2018-08-18T11:51:11.469Z</time>
      </trkpt>
      <trkpt lat="48.5014432" lon="-2.0456953">
        <ele>71.640</ele>
        <time>2018-08-18T11:51:15.147Z</time>
      </trkpt>
      <trkpt lat="48.5015243" lon="-2.0456309">
        <ele>71.736</ele>
        <time>2018-08-18T11:51:18.418Z</time>
      </trkpt>
      <trkpt lat="48.5016195" lon="-2.0455330">
        <ele>71.758</ele>
        <time>2018-08-18T11:51:22.574Z</time>
      </trkpt>
      <trkpt lat="48.5017022" lon="-2.0454565">
        <ele>71.786</ele>
        <time>2018-08-18T11:51:26.572Z</time>
      </trkpt>
      <trkpt lat="48.5017987" lon="-2.0453813">
        <ele>71.881</ele>
        <time>2018-08-18T11:51:31.208Z</time>
      </trkpt>
      <trkpt lat="48.5018790" lon="-2.0452992">
        <ele>72.146</ele>
        <time>2018-08-18T11:51:34.915Z</time>
      </trkpt>
      <trkpt lat="48.5019868" lon="-2.0452403">
        <ele>72.823</ele>
        <time>2018-08-18T11:51:39.509Z</time>
      </trkpt>
      <trkpt lat="48.5020918" lon="-2.0451886">
        <ele>73.811</ele>
        <time>2018-08-18T11:51:43.988Z</time>
      </trkpt>
      <trkpt lat="48.5021982" lon="-2.0451464">
        <ele>74.408</ele>
        <time>2018-08-18T11:51:48.372Z</time>
      </trkpt>
      <trkpt lat="48.5022986" lon="-2.0450803">
        <ele>74.215</ele>
        <time>2018-08-18T11:51:53.308Z</time>
      </trkpt>
      <trkpt lat="48.5023656" lon="-2.0449806">
        <ele>73.689</ele>
        <time>2018-08-18T11:51:57.844Z</time>
      </trkpt>
      <trkpt lat="48.5024485" lon="-2.0448876">
        <ele>73.576</ele>
        <time>2018-08-18T11:52:05.198Z</time>
      </trkpt>
      <trkpt lat="48.5025199" lon="-2.0448004">
        <ele>74.156</ele>
        <time>2018-08-18T11:52:11.312Z</time>
      </trkpt>
      <trkpt lat="48.5025999" lon="-2.0448674">
        <ele>75.236</ele>
        <time>2018-08-18T11:52:16.736Z</time>
      </trkpt>
      <trkpt lat="48.5030421" lon="-2.0446186">
        <ele>76.850</ele>
        <time>2018-08-18T11:52:44.240Z</time>
      </trkpt>
      <trkpt lat="48.5034650" lon="-2.0443685">
        <ele>75.797</ele>
        <time>2018-08-18T11:53:10.276Z</time>
      </trkpt>
      <trkpt lat="48.5041141" lon="-2.0441617">
        <ele>76.290</ele>
        <time>2018-08-18T11:53:36.811Z</time>
      </trkpt>
      <trkpt lat="48.5042067" lon="-2.0441320">
        <ele>77.819</ele>
        <time>2018-08-18T11:53:41.016Z</time>
      </trkpt>
      <trkpt lat="48.5043045" lon="-2.0440976">
        <ele>79.387</ele>
        <time>2018-08-18T11:53:45.488Z</time>
      </trkpt>
      <trkpt lat="48.5043987" lon="-2.0440600">
        <ele>80.692</ele>
        <time>2018-08-18T11:53:49.677Z</time>
      </trkpt>
      <trkpt lat="48.5044930" lon="-2.0440495">
        <ele>82.072</ele>
        <time>2018-08-18T11:53:53.206Z</time>
      </trkpt>
      <trkpt lat="48.5045954" lon="-2.0440537">
        <ele>82.759</ele>
        <time>2018-08-18T11:53:56.420Z</time>
      </trkpt>
      <trkpt lat="48.5046968" lon="-2.0440225">
        <ele>81.788</ele>
        <time>2018-08-18T11:53:59.607Z</time>
      </trkpt>
      <trkpt lat="48.5047812" lon="-2.0439719">
        <ele>79.940</ele>
        <time>2018-08-18T11:54:02.537Z</time>
      </trkpt>
      <trkpt lat="48.5048783" lon="-2.0439547">
        <ele>78.497</ele>
        <time>2018-08-18T11:54:06.420Z</time>
      </trkpt>
      <trkpt lat="48.5049753" lon="-2.0438975">
        <ele>77.676</ele>
        <time>2018-08-18T11:54:11.061Z</time>
      </trkpt>
      <trkpt lat="48.5050877" lon="-2.0438957">
        <ele>77.210</ele>
        <time>2018-08-18T11:54:16.243Z</time>
      </trkpt>
      <trkpt lat="48.5051893" lon="-2.0438846">
        <ele>77.092</ele>
        <time>2018-08-18T11:54:20.247Z</time>
      </trkpt>
      <trkpt lat="48.5053057" lon="-2.0438978">
        <ele>77.376</ele>
        <time>2018-08-18T11:54:24.241Z</time>
      </trkpt>
      <trkpt lat="48.5054018" lon="-2.0438915">
        <ele>77.910</ele>
        <time>2018-08-18T11:54:27.645Z</time>
      </trkpt>
      <trkpt lat="48.5054928" lon="-2.0438741">
        <ele>78.367</ele>
        <time>2018-08-18T11:54:31.005Z</time>
      </trkpt>
      <trkpt lat="48.5056008" lon="-2.0438321">
        <ele>78.548</ele>
        <time>2018-08-18T11:54:34.844Z</time>
      </trkpt>
      <trkpt lat="48.5056953" lon="-2.0437983">
        <ele>78.475</ele>
        <time>2018-08-18T11:54:38.328Z</time>
      </trkpt>
      <trkpt lat="48.5058012" lon="-2.0438624">
        <ele>78.284</ele>
        <time>2018-08-18T11:54:42.689Z</time>
      </trkpt>
      <trkpt lat="48.5058922" lon="-2.0438694">
        <ele>78.167</ele>
        <time>2018-08-18T11:54:46.174Z</time>
      </trkpt>
      <trkpt lat="48.5060015" lon="-2.0438829">
        <ele>78.226</ele>
        <time>2018-08-18T11:54:50.366Z</time>
      </trkpt>
      <trkpt lat="48.5061102" lon="-2.0438500">
        <ele>78.391</ele>
        <time>2018-08-18T11:54:54.603Z</time>
      </trkpt>
      <trkpt lat="48.5062081" lon="-2.0438337">
        <ele>78.527</ele>
        <time>2018-08-18T11:54:57.840Z</time>
      </trkpt>
      <trkpt lat="48.5062998" lon="-2.0437648">
        <ele>78.566</ele>
        <time>2018-08-18T11:55:01.138Z</time>
      </trkpt>
      <trkpt lat="48.5067852" lon="-2.0438144">
        <ele>78.485</ele>
        <time>2018-08-18T11:55:14.538Z</time>
      </trkpt>
      <trkpt lat="48.5073073" lon="-2.0438827">
        <ele>78.572</ele>
        <time>2018-08-18T11:55:26.898Z</time>
      </trkpt>
      <trkpt lat="48.5074394" lon="-2.0439180">
        <ele>79.044</ele>
        <time>2018-08-18T11:55:30.716Z</time>
      </trkpt>
      <trkpt lat="48.5075564" lon="-2.0439501">
        <ele>80.026</ele>
        <time>2018-08-18T11:55:34.017Z</time>
      </trkpt>
      <trkpt lat="48.5077076" lon="-2.0440108">
        <ele>81.203</ele>
        <time>2018-08-18T11:55:38.364Z</time>
      </trkpt>
      <trkpt lat="48.5078306" lon="-2.0440335">
        <ele>82.025</ele>
        <time>2018-08-18T11:55:41.701Z</time>
      </trkpt>
      <trkpt lat="48.5079418" lon="-2.0440582">
        <ele>82.007</ele>
        <time>2018-08-18T11:55:44.792Z</time>
      </trkpt>
      <trkpt lat="48.5080369" lon="-2.0440854">
        <ele>81.092</ele>
        <time>2018-08-18T11:55:47.106Z</time>
      </trkpt>
      <trkpt lat="48.5081563" lon="-2.0440682">
        <ele>79.724</ele>
        <time>2018-08-18T11:55:49.787Z</time>
      </trkpt>
      <trkpt lat="48.5086057" lon="-2.0441049">
        <ele>77.748</ele>
        <time>2018-08-18T11:55:59.621Z</time>
      </trkpt>
      <trkpt lat="48.5087059" lon="-2.0440880">
        <ele>77.708</ele>
        <time>2018-08-18T11:56:01.933Z</time>
      </trkpt>
      <trkpt lat="48.5088276" lon="-2.0440833">
        <ele>78.094</ele>
        <time>2018-08-18T11:56:04.784Z</time>
      </trkpt>
      <trkpt lat="48.5089619" lon="-2.0440682">
        <ele>78.261</ele>
        <time>2018-08-18T11:56:08.139Z</time>
      </trkpt>
      <trkpt lat="48.5091160" lon="-2.0440714">
        <ele>78.208</ele>
        <time>2018-08-18T11:56:12.214Z</time>
      </trkpt>
      <trkpt lat="48.5092600" lon="-2.0440658">
        <ele>78.479</ele>
        <time>2018-08-18T11:56:15.947Z</time>
      </trkpt>
      <trkpt lat="48.5093657" lon="-2.0440683">
        <ele>79.212</ele>
        <time>2018-08-18T11:56:18.602Z</time>
      </trkpt>
      <trkpt lat="48.5094856" lon="-2.0440912">
        <ele>80.087</ele>
        <time>2018-08-18T11:56:21.628Z</time>
      </trkpt>
      <trkpt lat="48.5096162" lon="-2.0441032">
        <ele>80.629</ele>
        <time>2018-08-18T11:56:24.970Z</time>
      </trkpt>
      <trkpt lat="48.5097273" lon="-2.0441172">
        <ele>80.891</ele>
        <time>2018-08-18T11:56:27.865Z</time>
      </trkpt>
      <trkpt lat="48.5098345" lon="-2.0441184">
        <ele>81.124</ele>
        <time>2018-08-18T11:56:30.715Z</time>
      </trkpt>
      <trkpt lat="48.5099282" lon="-2.0441212">
        <ele>81.204</ele>
        <time>2018-08-18T11:56:33.281Z</time>
      </trkpt>
      <trkpt lat="48.5100302" lon="-2.0441303">
        <ele>80.833</ele>
        <time>2018-08-18T11:56:36.132Z</time>
      </trkpt>
      <trkpt lat="48.5101517" lon="-2.0441837">
        <ele>79.899</ele>
        <time>2018-08-18T11:56:39.802Z</time>
      </trkpt>
      <trkpt lat="48.5102635" lon="-2.0442280">
        <ele>78.692</ele>
        <time>2018-08-18T11:56:43.059Z</time>
      </trkpt>
      <trkpt lat="48.5103686" lon="-2.0442402">
        <ele>77.909</ele>
        <time>2018-08-18T11:56:45.823Z</time>
      </trkpt>
      <trkpt lat="48.5104796" lon="-2.0442644">
        <ele>77.880</ele>
        <time>2018-08-18T11:56:48.705Z</time>
      </trkpt>
      <trkpt lat="48.5105858" lon="-2.0442546">
        <ele>78.198</ele>
        <time>2018-08-18T11:56:51.438Z</time>
      </trkpt>
      <trkpt lat="48.5106944" lon="-2.0442335">
        <ele>78.798</ele>
        <time>2018-08-18T11:56:54.252Z</time>
      </trkpt>
      <trkpt lat="48.5108076" lon="-2.0442475">
        <ele>79.813</ele>
        <time>2018-08-18T11:56:57.169Z</time>
      </trkpt>
      <trkpt lat="48.5109101" lon="-2.0443106">
        <ele>79.604</ele>
        <time>2018-08-18T11:57:00.013Z</time>
      </trkpt>
      <trkpt lat="48.5110074" lon="-2.0443422">
        <ele>77.000</ele>
        <time>2018-08-18T11:57:02.580Z</time>
      </trkpt>
      <trkpt lat="48.5111118" lon="-2.0443728">
        <ele>73.859</ele>
        <time>2018-08-18T11:57:05.367Z</time>
      </trkpt>
      <trkpt lat="48.5116607" lon="-2.0444448">
        <ele>71.649</ele>
        <time>2018-08-18T11:57:19.986Z</time>
      </trkpt>
      <trkpt lat="48.5121722" lon="-2.0445292">
        <ele>71.773</ele>
        <time>2018-08-18T11:57:37.029Z</time>
      </trkpt>
      <trkpt lat="48.5122829" lon="-2.0445425">
        <ele>71.965</ele>
        <time>2018-08-18T11:57:40.393Z</time>
      </trkpt>
      <trkpt lat="48.5123867" lon="-2.0445622">
        <ele>72.073</ele>
        <time>2018-08-18T11:57:43.540Z</time>
      </trkpt>
      <trkpt lat="48.5124851" lon="-2.0445893">
        <ele>72.135</ele>
        <time>2018-08-18T11:57:46.753Z</time>
      </trkpt>
      <trkpt lat="48.5126011" lon="-2.0446070">
        <ele>72.164</ele>
        <time>2018-08-18T11:57:50.329Z</time>
      </trkpt>
      <trkpt lat="48.5127187" lon="-2.0446128">
        <ele>72.152</ele>
        <time>2018-08-18T11:57:53.897Z</time>
      </trkpt>
      <trkpt lat="48.5128205" lon="-2.0446275">
        <ele>72.123</ele>
        <time>2018-08-18T11:57:57.297Z</time>
      </trkpt>
      <trkpt lat="48.5129176" lon="-2.0446413">
        <ele>72.102</ele>
        <time>2018-08-18T11:58:00.743Z</time>
      </trkpt>
      <trkpt lat="48.5130479" lon="-2.0446515">
        <ele>72.138</ele>
        <time>2018-08-18T11:58:05.665Z</time>
      </trkpt>
      <trkpt lat="48.5131403" lon="-2.0446790">
        <ele>72.273</ele>
        <time>2018-08-18T11:58:09.356Z</time>
      </trkpt>
      <trkpt lat="48.5132407" lon="-2.0446840">
        <ele>72.468</ele>
        <time>2018-08-18T11:58:13.290Z</time>
      </trkpt>
      <trkpt lat="48.5133297" lon="-2.0447048">
        <ele>72.661</ele>
        <time>2018-08-18T11:58:16.823Z</time>
      </trkpt>
      <trkpt lat="48.5134307" lon="-2.0447402">
        <ele>72.923</ele>
        <time>2018-08-18T11:58:20.888Z</time>
      </trkpt>
      <trkpt lat="48.5138875" lon="-2.0447090">
        <ele>73.654</ele>
        <time>2018-08-18T11:58:38.001Z</time>
      </trkpt>
      <trkpt lat="48.5139948" lon="-2.0447258">
        <ele>73.988</ele>
        <time>2018-08-18T11:58:41.427Z</time>
      </trkpt>
      <trkpt lat="48.5141110" lon="-2.0447392">
        <ele>74.250</ele>
        <time>2018-08-18T11:58:45.209Z</time>
      </trkpt>
      <trkpt lat="48.5142134" lon="-2.0447552">
        <ele>74.427</ele>
        <time>2018-08-18T11:58:48.661Z</time>
      </trkpt>
      <trkpt lat="48.5143178" lon="-2.0447884">
        <ele>74.594</ele>
        <time>2018-08-18T11:58:52.399Z</time>
      </trkpt>
      <trkpt lat="48.5144275" lon="-2.0448063">
        <ele>74.777</ele>
        <time>2018-08-18T11:58:56.622Z</time>
      </trkpt>
      <trkpt lat="48.5145377" lon="-2.0448249">
        <ele>74.992</ele>
        <time>2018-08-18T11:59:01.167Z</time>
      </trkpt>
      <trkpt lat="48.5146470" lon="-2.0448481">
        <ele>75.245</ele>
        <time>2018-08-18T11:59:05.866Z</time>
      </trkpt>
      <trkpt lat="48.5147374" lon="-2.0448778">
        <ele>75.517</ele>
        <time>2018-08-18T11:59:09.527Z</time>
      </trkpt>
      <trkpt lat="48.5148357" lon="-2.0449043">
        <ele>75.752</ele>
        <time>2018-08-18T11:59:13.277Z</time>
      </trkpt>
      <trkpt lat="48.5149271" lon="-2.0449066">
        <ele>76.022</ele>
        <time>2018-08-18T11:59:16.597Z</time>
      </trkpt>
      <trkpt lat="48.5150407" lon="-2.0449100">
        <ele>76.488</ele>
        <time>2018-08-18T11:59:21.034Z</time>
      </trkpt>
      <trkpt lat="48.5151378" lon="-2.0449129">
        <ele>77.078</ele>
        <time>2018-08-18T11:59:24.854Z</time>
      </trkpt>
      <trkpt lat="48.5152417" lon="-2.0449330">
        <ele>77.514</ele>
        <time>2018-08-18T11:59:28.926Z</time>
      </trkpt>
      <trkpt lat="48.5153494" lon="-2.0449748">
        <ele>77.710</ele>
        <time>2018-08-18T11:59:33.051Z</time>
      </trkpt>
      <trkpt lat="48.5154603" lon="-2.0449820">
        <ele>77.781</ele>
        <time>2018-08-18T11:59:37.109Z</time>
      </trkpt>
      <trkpt lat="48.5155560" lon="-2.0449752">
        <ele>77.860</ele>
        <time>2018-08-18T11:59:40.576Z</time>
      </trkpt>
      <trkpt lat="48.5156490" lon="-2.0449749">
        <ele>77.982</ele>
        <time>2018-08-18T11:59:44.328Z</time>
      </trkpt>
      <trkpt lat="48.5157506" lon="-2.0450172">
        <ele>77.998</ele>
        <time>2018-08-18T11:59:48.771Z</time>
      </trkpt>
      <trkpt lat="48.5158612" lon="-2.0450535">
        <ele>77.753</ele>
        <time>2018-08-18T11:59:53.335Z</time>
      </trkpt>
      <trkpt lat="48.5159584" lon="-2.0450850">
        <ele>77.316</ele>
        <time>2018-08-18T11:59:56.989Z</time>
      </trkpt>
      <trkpt lat="48.5160645" lon="-2.0451224">
        <ele>76.903</ele>
        <time>2018-08-18T12:00:01.023Z</time>
      </trkpt>
      <trkpt lat="48.5161642" lon="-2.0451359">
        <ele>76.649</ele>
        <time>2018-08-18T12:00:05.111Z</time>
      </trkpt>
      <trkpt lat="48.5162754" lon="-2.0451339">
        <ele>76.831</ele>
        <time>2018-08-18T12:00:10.073Z</time>
      </trkpt>
      <trkpt lat="48.5163672" lon="-2.0451436">
        <ele>77.543</ele>
        <time>2018-08-18T12:00:13.999Z</time>
      </trkpt>
      <trkpt lat="48.5168342" lon="-2.0452150">
        <ele>78.269</ele>
        <time>2018-08-18T12:00:34.867Z</time>
      </trkpt>
      <trkpt lat="48.5169309" lon="-2.0452561">
        <ele>77.916</ele>
        <time>2018-08-18T12:00:39.345Z</time>
      </trkpt>
      <trkpt lat="48.5170328" lon="-2.0452588">
        <ele>77.590</ele>
        <time>2018-08-18T12:00:44.435Z</time>
      </trkpt>
      <trkpt lat="48.5171231" lon="-2.0452518">
        <ele>77.483</ele>
        <time>2018-08-18T12:00:48.993Z</time>
      </trkpt>
      <trkpt lat="48.5172388" lon="-2.0453130">
        <ele>77.437</ele>
        <time>2018-08-18T12:00:56.259Z</time>
      </trkpt>
      <trkpt lat="48.5173412" lon="-2.0453184">
        <ele>77.284</ele>
        <time>2018-08-18T12:01:02.421Z</time>
      </trkpt>
      <trkpt lat="48.5174327" lon="-2.0453165">
        <ele>77.103</ele>
        <time>2018-08-18T12:01:07.501Z</time>
      </trkpt>
      <trkpt lat="48.5175236" lon="-2.0453251">
        <ele>77.024</ele>
        <time>2018-08-18T12:01:12.133Z</time>
      </trkpt>
      <trkpt lat="48.5176217" lon="-2.0453223">
        <ele>77.134</ele>
        <time>2018-08-18T12:01:17.446Z</time>
      </trkpt>
      <trkpt lat="48.5177284" lon="-2.0453057">
        <ele>77.539</ele>
        <time>2018-08-18T12:01:22.955Z</time>
      </trkpt>
      <trkpt lat="48.5178367" lon="-2.0453245">
        <ele>78.163</ele>
        <time>2018-08-18T12:01:28.382Z</time>
      </trkpt>
      <trkpt lat="48.5179390" lon="-2.0453620">
        <ele>78.718</ele>
        <time>2018-08-18T12:01:34.335Z</time>
      </trkpt>
      <trkpt lat="48.5180370" lon="-2.0454124">
        <ele>78.989</ele>
        <time>2018-08-18T12:01:40.163Z</time>
      </trkpt>
      <trkpt lat="48.5181534" lon="-2.0454395">
        <ele>79.004</ele>
        <time>2018-08-18T12:01:45.673Z</time>
      </trkpt>
      <trkpt lat="48.5182529" lon="-2.0454507">
        <ele>78.962</ele>
        <time>2018-08-18T12:01:50.267Z</time>
      </trkpt>
      <trkpt lat="48.5183617" lon="-2.0454435">
        <ele>79.015</ele>
        <time>2018-08-18T12:01:55.470Z</time>
      </trkpt>
      <trkpt lat="48.5184652" lon="-2.0454517">
        <ele>79.184</ele>
        <time>2018-08-18T12:02:00.044Z</time>
      </trkpt>
      <trkpt lat="48.5185567" lon="-2.0454632">
        <ele>79.444</ele>
        <time>2018-08-18T12:02:03.687Z</time>
      </trkpt>
      <trkpt lat="48.5186535" lon="-2.0454709">
        <ele>79.745</ele>
        <time>2018-08-18T12:02:07.454Z</time>
      </trkpt>
      <trkpt lat="48.5187476" lon="-2.0455046">
        <ele>79.992</ele>
        <time>2018-08-18T12:02:11.350Z</time>
      </trkpt>
      <trkpt lat="48.5188587" lon="-2.0455277">
        <ele>80.145</ele>
        <time>2018-08-18T12:02:16.195Z</time>
      </trkpt>
      <trkpt lat="48.5189527" lon="-2.0455243">
        <ele>80.276</ele>
        <time>2018-08-18T12:02:20.350Z</time>
      </trkpt>
      <trkpt lat="48.5190415" lon="-2.0455499">
        <ele>80.485</ele>
        <time>2018-08-18T12:02:24.172Z</time>
      </trkpt>
      <trkpt lat="48.5191338" lon="-2.0455375">
        <ele>80.749</ele>
        <time>2018-08-18T12:02:27.964Z</time>
      </trkpt>
      <trkpt lat="48.5192338" lon="-2.0455489">
        <ele>80.950</ele>
        <time>2018-08-18T12:02:32.092Z</time>
      </trkpt>
      <trkpt lat="48.5193364" lon="-2.0455704">
        <ele>81.032</ele>
        <time>2018-08-18T12:02:36.674Z</time>
      </trkpt>
      <trkpt lat="48.5194420" lon="-2.0455968">
        <ele>81.073</ele>
        <time>2018-08-18T12:02:41.544Z</time>
      </trkpt>
      <trkpt lat="48.5195380" lon="-2.0456255">
        <ele>81.216</ele>
        <time>2018-08-18T12:02:45.992Z</time>
      </trkpt>
      <trkpt lat="48.5196329" lon="-2.0456497">
        <ele>81.510</ele>
        <time>2018-08-18T12:02:50.988Z</time>
      </trkpt>
      <trkpt lat="48.5197251" lon="-2.0456962">
        <ele>81.900</ele>
        <time>2018-08-18T12:02:56.422Z</time>
      </trkpt>
      <trkpt lat="48.5198164" lon="-2.0457217">
        <ele>82.313</ele>
        <time>2018-08-18T12:03:01.832Z</time>
      </trkpt>
      <trkpt lat="48.5199161" lon="-2.0457067">
        <ele>82.660</ele>
        <time>2018-08-18T12:03:07.406Z</time>
      </trkpt>
      <trkpt lat="48.5200209" lon="-2.0457011">
        <ele>82.868</ele>
        <time>2018-08-18T12:03:12.782Z</time>
      </trkpt>
      <trkpt lat="48.5201218" lon="-2.0456938">
        <ele>82.947</ele>
        <time>2018-08-18T12:03:17.380Z</time>
      </trkpt>
      <trkpt lat="48.5202319" lon="-2.0457303">
        <ele>82.972</ele>
        <time>2018-08-18T12:03:22.991Z</time>
      </trkpt>
      <trkpt lat="48.5203219" lon="-2.0457288">
        <ele>83.014</ele>
        <time>2018-08-18T12:03:27.706Z</time>
      </trkpt>
      <trkpt lat="48.5204225" lon="-2.0457294">
        <ele>83.054</ele>
        <time>2018-08-18T12:03:32.439Z</time>
      </trkpt>
      <trkpt lat="48.5205249" lon="-2.0457271">
        <ele>83.056</ele>
        <time>2018-08-18T12:03:36.750Z</time>
      </trkpt>
      <trkpt lat="48.5206365" lon="-2.0457356">
        <ele>83.038</ele>
        <time>2018-08-18T12:03:41.244Z</time>
      </trkpt>
      <trkpt lat="48.5207273" lon="-2.0458040">
        <ele>83.049</ele>
        <time>2018-08-18T12:03:45.542Z</time>
      </trkpt>
      <trkpt lat="48.5208279" lon="-2.0458046">
        <ele>83.153</ele>
        <time>2018-08-18T12:03:49.860Z</time>
      </trkpt>
      <trkpt lat="48.5209193" lon="-2.0457854">
        <ele>83.351</ele>
        <time>2018-08-18T12:03:53.884Z</time>
      </trkpt>
      <trkpt lat="48.5210096" lon="-2.0457693">
        <ele>83.584</ele>
        <time>2018-08-18T12:03:57.690Z</time>
      </trkpt>
      <trkpt lat="48.5211040" lon="-2.0457906">
        <ele>83.791</ele>
        <time>2018-08-18T12:04:01.331Z</time>
      </trkpt>
      <trkpt lat="48.5212022" lon="-2.0457611">
        <ele>83.945</ele>
        <time>2018-08-18T12:04:05.062Z</time>
      </trkpt>
      <trkpt lat="48.5212975" lon="-2.0457866">
        <ele>84.125</ele>
        <time>2018-08-18T12:04:09.764Z</time>
      </trkpt>
      <trkpt lat="48.5213895" lon="-2.0457640">
        <ele>84.388</ele>
        <time>2018-08-18T12:04:15.331Z</time>
      </trkpt>
      <trkpt lat="48.5215047" lon="-2.0457785">
        <ele>84.641</ele>
        <time>2018-08-18T12:04:21.965Z</time>
      </trkpt>
      <trkpt lat="48.5216115" lon="-2.0458375">
        <ele>84.787</ele>
        <time>2018-08-18T12:04:27.862Z</time>
      </trkpt>
      <trkpt lat="48.5217212" lon="-2.0458981">
        <ele>84.836</ele>
        <time>2018-08-18T12:04:32.998Z</time>
      </trkpt>
      <trkpt lat="48.5218283" lon="-2.0459113">
        <ele>84.872</ele>
        <time>2018-08-18T12:04:36.964Z</time>
      </trkpt>
      <trkpt lat="48.5219168" lon="-2.0459996">
        <ele>84.958</ele>
        <time>2018-08-18T12:04:40.857Z</time>
      </trkpt>
      <trkpt lat="48.5220255" lon="-2.0459998">
        <ele>85.038</ele>
        <time>2018-08-18T12:04:44.727Z</time>
      </trkpt>
      <trkpt lat="48.5221167" lon="-2.0460195">
        <ele>84.982</ele>
        <time>2018-08-18T12:04:48.010Z</time>
      </trkpt>
      <trkpt lat="48.5222003" lon="-2.0460856">
        <ele>84.776</ele>
        <time>2018-08-18T12:04:51.401Z</time>
      </trkpt>
      <trkpt lat="48.5222951" lon="-2.0461061">
        <ele>84.583</ele>
        <time>2018-08-18T12:04:54.826Z</time>
      </trkpt>
      <trkpt lat="48.5224032" lon="-2.0461129">
        <ele>84.594</ele>
        <time>2018-08-18T12:04:58.604Z</time>
      </trkpt>
      <trkpt lat="48.5228878" lon="-2.0460600">
        <ele>85.055</ele>
        <time>2018-08-18T12:05:15.464Z</time>
      </trkpt>
      <trkpt lat="48.5229943" lon="-2.0460551">
        <ele>85.313</ele>
        <time>2018-08-18T12:05:19.087Z</time>
      </trkpt>
      <trkpt lat="48.5230980" lon="-2.0460332">
        <ele>85.638</ele>
        <time>2018-08-18T12:05:22.650Z</time>
      </trkpt>
      <trkpt lat="48.5231960" lon="-2.0460483">
        <ele>86.015</ele>
        <time>2018-08-18T12:05:25.999Z</time>
      </trkpt>
      <trkpt lat="48.5232854" lon="-2.0460689">
        <ele>86.341</ele>
        <time>2018-08-18T12:05:29.078Z</time>
      </trkpt>
      <trkpt lat="48.5233876" lon="-2.0460760">
        <ele>86.505</ele>
        <time>2018-08-18T12:05:32.558Z</time>
      </trkpt>
      <trkpt lat="48.5234990" lon="-2.0460852">
        <ele>86.499</ele>
        <time>2018-08-18T12:05:36.489Z</time>
      </trkpt>
      <trkpt lat="48.5236108" lon="-2.0460746">
        <ele>86.384</ele>
        <time>2018-08-18T12:05:40.887Z</time>
      </trkpt>
      <trkpt lat="48.5237085" lon="-2.0460774">
        <ele>86.219</ele>
        <time>2018-08-18T12:05:45.414Z</time>
      </trkpt>
      <trkpt lat="48.5238127" lon="-2.0460772">
        <ele>86.077</ele>
        <time>2018-08-18T12:05:51.040Z</time>
      </trkpt>
      <trkpt lat="48.5239077" lon="-2.0460734">
        <ele>86.094</ele>
        <time>2018-08-18T12:05:56.170Z</time>
      </trkpt>
      <trkpt lat="48.5240059" lon="-2.0460845">
        <ele>86.324</ele>
        <time>2018-08-18T12:06:01.037Z</time>
      </trkpt>
      <trkpt lat="48.5241072" lon="-2.0460694">
        <ele>86.594</ele>
        <time>2018-08-18T12:06:04.757Z</time>
      </trkpt>
      <trkpt lat="48.5242046" lon="-2.0460954">
        <ele>86.752</ele>
        <time>2018-08-18T12:06:07.715Z</time>
      </trkpt>
      <trkpt lat="48.5242985" lon="-2.0461375">
        <ele>86.881</ele>
        <time>2018-08-18T12:06:10.462Z</time>
      </trkpt>
      <trkpt lat="48.5244280" lon="-2.0461733">
        <ele>87.057</ele>
        <time>2018-08-18T12:06:14.408Z</time>
      </trkpt>
      <trkpt lat="48.5245341" lon="-2.0462017">
        <ele>87.203</ele>
        <time>2018-08-18T12:06:18.062Z</time>
      </trkpt>
      <trkpt lat="48.5246271" lon="-2.0462151">
        <ele>87.217</ele>
        <time>2018-08-18T12:06:21.517Z</time>
      </trkpt>
      <trkpt lat="48.5247404" lon="-2.0462302">
        <ele>87.050</ele>
        <time>2018-08-18T12:06:25.267Z</time>
      </trkpt>
      <trkpt lat="48.5248340" lon="-2.0462419">
        <ele>86.744</ele>
        <time>2018-08-18T12:06:28.459Z</time>
      </trkpt>
      <trkpt lat="48.5249283" lon="-2.0462563">
        <ele>86.440</ele>
        <time>2018-08-18T12:06:32.210Z</time>
      </trkpt>
      <trkpt lat="48.5254210" lon="-2.0462869">
        <ele>86.253</ele>
        <time>2018-08-18T12:06:50.980Z</time>
      </trkpt>
      <trkpt lat="48.5259238" lon="-2.0463379">
        <ele>86.263</ele>
        <time>2018-08-18T12:07:15.293Z</time>
      </trkpt>
      <trkpt lat="48.5260234" lon="-2.0463502">
        <ele>86.196</ele>
        <time>2018-08-18T12:07:20.455Z</time>
      </trkpt>
      <trkpt lat="48.5261087" lon="-2.0464072">
        <ele>86.091</ele>
        <time>2018-08-18T12:07:24.921Z</time>
      </trkpt>
      <trkpt lat="48.5265776" lon="-2.0465676">
        <ele>86.013</ele>
        <time>2018-08-18T12:07:43.764Z</time>
      </trkpt>
      <trkpt lat="48.5270360" lon="-2.0466514">
        <ele>85.996</ele>
        <time>2018-08-18T12:08:00.077Z</time>
      </trkpt>
      <trkpt lat="48.5271237" lon="-2.0466824">
        <ele>86.089</ele>
        <time>2018-08-18T12:08:03.510Z</time>
      </trkpt>
      <trkpt lat="48.5272093" lon="-2.0467302">
        <ele>86.387</ele>
        <time>2018-08-18T12:08:07.387Z</time>
      </trkpt>
      <trkpt lat="48.5272980" lon="-2.0467741">
        <ele>86.753</ele>
        <time>2018-08-18T12:08:11.348Z</time>
      </trkpt>
      <trkpt lat="48.5274023" lon="-2.0468338">
        <ele>86.957</ele>
        <time>2018-08-18T12:08:16.103Z</time>
      </trkpt>
      <trkpt lat="48.5274989" lon="-2.0468737">
        <ele>86.868</ele>
        <time>2018-08-18T12:08:21.355Z</time>
      </trkpt>
      <trkpt lat="48.5276003" lon="-2.0469145">
        <ele>86.539</ele>
        <time>2018-08-18T12:08:26.781Z</time>
      </trkpt>
      <trkpt lat="48.5277072" lon="-2.0469604">
        <ele>86.295</ele>
        <time>2018-08-18T12:08:31.834Z</time>
      </trkpt>
      <trkpt lat="48.5278103" lon="-2.0469805">
        <ele>86.341</ele>
        <time>2018-08-18T12:08:36.040Z</time>
      </trkpt>
      <trkpt lat="48.5279043" lon="-2.0470204">
        <ele>86.525</ele>
        <time>2018-08-18T12:08:39.879Z</time>
      </trkpt>
      <trkpt lat="48.5280026" lon="-2.0470609">
        <ele>86.664</ele>
        <time>2018-08-18T12:08:43.725Z</time>
      </trkpt>
      <trkpt lat="48.5281057" lon="-2.0470813">
        <ele>86.731</ele>
        <time>2018-08-18T12:08:47.408Z</time>
      </trkpt>
      <trkpt lat="48.5282028" lon="-2.0470781">
        <ele>86.893</ele>
        <time>2018-08-18T12:08:50.958Z</time>
      </trkpt>
      <trkpt lat="48.5286622" lon="-2.0472607">
        <ele>87.675</ele>
        <time>2018-08-18T12:09:16.252Z</time>
      </trkpt>
      <trkpt lat="48.5291605" lon="-2.0474818">
        <ele>88.034</ele>
        <time>2018-08-18T12:09:43.154Z</time>
      </trkpt>
      <trkpt lat="48.5296179" lon="-2.0477054">
        <ele>88.406</ele>
        <time>2018-08-18T12:10:00.185Z</time>
      </trkpt>
      <trkpt lat="48.5297150" lon="-2.0477334">
        <ele>88.632</ele>
        <time>2018-08-18T12:10:03.459Z</time>
      </trkpt>
      <trkpt lat="48.5298091" lon="-2.0477665">
        <ele>88.591</ele>
        <time>2018-08-18T12:10:06.791Z</time>
      </trkpt>
      <trkpt lat="48.5299177" lon="-2.0478058">
        <ele>88.434</ele>
        <time>2018-08-18T12:10:10.886Z</time>
      </trkpt>
      <trkpt lat="48.5300386" lon="-2.0478362">
        <ele>88.326</ele>
        <time>2018-08-18T12:10:15.830Z</time>
      </trkpt>
      <trkpt lat="48.5301575" lon="-2.0478709">
        <ele>88.241</ele>
        <time>2018-08-18T12:10:19.920Z</time>
      </trkpt>
      <trkpt lat="48.5302675" lon="-2.0478973">
        <ele>88.111</ele>
        <time>2018-08-18T12:10:22.964Z</time>
      </trkpt>
      <trkpt lat="48.5304369" lon="-2.0479388">
        <ele>87.967</ele>
        <time>2018-08-18T12:10:27.308Z</time>
      </trkpt>
      <trkpt lat="48.5305789" lon="-2.0479917">
        <ele>87.808</ele>
        <time>2018-08-18T12:10:30.984Z</time>
      </trkpt>
      <trkpt lat="48.5306917" lon="-2.0480767">
        <ele>87.588</ele>
        <time>2018-08-18T12:10:33.945Z</time>
      </trkpt>
      <trkpt lat="48.5307862" lon="-2.0481266">
        <ele>87.353</ele>
        <time>2018-08-18T12:10:36.087Z</time>
      </trkpt>
      <trkpt lat="48.5308837" lon="-2.0481767">
        <ele>87.184</ele>
        <time>2018-08-18T12:10:38.136Z</time>
      </trkpt>
      <trkpt lat="48.5309873" lon="-2.0482294">
        <ele>87.110</ele>
        <time>2018-08-18T12:10:40.251Z</time>
      </trkpt>
      <trkpt lat="48.5311329" lon="-2.0482972">
        <ele>87.121</ele>
        <time>2018-08-18T12:10:43.274Z</time>
      </trkpt>
      <trkpt lat="48.5312642" lon="-2.0483428">
        <ele>87.165</ele>
        <time>2018-08-18T12:10:46.541Z</time>
      </trkpt>
      <trkpt lat="48.5313559" lon="-2.0483852">
        <ele>87.201</ele>
        <time>2018-08-18T12:10:49.204Z</time>
      </trkpt>
      <trkpt lat="48.5314503" lon="-2.0484279">
        <ele>87.223</ele>
        <time>2018-08-18T12:10:51.651Z</time>
      </trkpt>
      <trkpt lat="48.5315695" lon="-2.0484725">
        <ele>87.239</ele>
        <time>2018-08-18T12:10:54.332Z</time>
      </trkpt>
      <trkpt lat="48.5316696" lon="-2.0485132">
        <ele>87.254</ele>
        <time>2018-08-18T12:10:56.456Z</time>
      </trkpt>
      <trkpt lat="48.5317780" lon="-2.0485591">
        <ele>87.166</ele>
        <time>2018-08-18T12:10:58.789Z</time>
      </trkpt>
      <trkpt lat="48.5319284" lon="-2.0486029">
        <ele>86.915</ele>
        <time>2018-08-18T12:11:02.040Z</time>
      </trkpt>
      <trkpt lat="48.5320324" lon="-2.0486265">
        <ele>86.695</ele>
        <time>2018-08-18T12:11:04.238Z</time>
      </trkpt>
      <trkpt lat="48.5321681" lon="-2.0486760">
        <ele>86.676</ele>
        <time>2018-08-18T12:11:07.092Z</time>
      </trkpt>
      <trkpt lat="48.5322881" lon="-2.0487345">
        <ele>86.676</ele>
        <time>2018-08-18T12:11:09.959Z</time>
      </trkpt>
      <trkpt lat="48.5323770" lon="-2.0487592">
        <ele>86.410</ele>
        <time>2018-08-18T12:11:12.417Z</time>
      </trkpt>
      <trkpt lat="48.5324853" lon="-2.0487928">
        <ele>85.890</ele>
        <time>2018-08-18T12:11:15.452Z</time>
      </trkpt>
      <trkpt lat="48.5329581" lon="-2.0490193">
        <ele>85.149</ele>
        <time>2018-08-18T12:11:29.331Z</time>
      </trkpt>
      <trkpt lat="48.5330565" lon="-2.0490948">
        <ele>85.161</ele>
        <time>2018-08-18T12:11:32.623Z</time>
      </trkpt>
      <trkpt lat="48.5331656" lon="-2.0491628">
        <ele>85.330</ele>
        <time>2018-08-18T12:11:35.826Z</time>
      </trkpt>
      <trkpt lat="48.5333050" lon="-2.0492340">
        <ele>85.426</ele>
        <time>2018-08-18T12:11:39.532Z</time>
      </trkpt>
      <trkpt lat="48.5334067" lon="-2.0492865">
        <ele>85.311</ele>
        <time>2018-08-18T12:11:42.592Z</time>
      </trkpt>
      <trkpt lat="48.5334968" lon="-2.0493153">
        <ele>84.990</ele>
        <time>2018-08-18T12:11:45.401Z</time>
      </trkpt>
      <trkpt lat="48.5336252" lon="-2.0493505">
        <ele>84.560</ele>
        <time>2018-08-18T12:11:49.043Z</time>
      </trkpt>
      <trkpt lat="48.5337416" lon="-2.0494056">
        <ele>84.242</ele>
        <time>2018-08-18T12:11:51.935Z</time>
      </trkpt>
      <trkpt lat="48.5338805" lon="-2.0494722">
        <ele>84.376</ele>
        <time>2018-08-18T12:11:55.363Z</time>
      </trkpt>
      <trkpt lat="48.5339986" lon="-2.0495279">
        <ele>85.014</ele>
        <time>2018-08-18T12:11:59.287Z</time>
      </trkpt>
      <trkpt lat="48.5340819" lon="-2.0495871">
        <ele>85.277</ele>
        <time>2018-08-18T12:12:02.565Z</time>
      </trkpt>
      <trkpt lat="48.5346186" lon="-2.0498155">
        <ele>83.629</ele>
        <time>2018-08-18T12:12:21.542Z</time>
      </trkpt>
      <trkpt lat="48.5347462" lon="-2.0498524">
        <ele>83.362</ele>
        <time>2018-08-18T12:12:24.890Z</time>
      </trkpt>
      <trkpt lat="48.5349044" lon="-2.0498964">
        <ele>83.538</ele>
        <time>2018-08-18T12:12:28.995Z</time>
      </trkpt>
      <trkpt lat="48.5350109" lon="-2.0499170">
        <ele>83.782</ele>
        <time>2018-08-18T12:12:31.887Z</time>
      </trkpt>
      <trkpt lat="48.5351419" lon="-2.0499699">
        <ele>84.032</ele>
        <time>2018-08-18T12:12:35.798Z</time>
      </trkpt>
      <trkpt lat="48.5352304" lon="-2.0500017">
        <ele>84.296</ele>
        <time>2018-08-18T12:12:38.472Z</time>
      </trkpt>
      <trkpt lat="48.5353319" lon="-2.0500351">
        <ele>84.515</ele>
        <time>2018-08-18T12:12:41.501Z</time>
      </trkpt>
      <trkpt lat="48.5354420" lon="-2.0500719">
        <ele>84.734</ele>
        <time>2018-08-18T12:12:44.669Z</time>
      </trkpt>
      <trkpt lat="48.5355585" lon="-2.0501116">
        <ele>85.031</ele>
        <time>2018-08-18T12:12:48.082Z</time>
      </trkpt>
      <trkpt lat="48.5356732" lon="-2.0501749">
        <ele>85.296</ele>
        <time>2018-08-18T12:12:51.766Z</time>
      </trkpt>
      <trkpt lat="48.5357666" lon="-2.0502091">
        <ele>85.376</ele>
        <time>2018-08-18T12:12:54.674Z</time>
      </trkpt>
      <trkpt lat="48.5358805" lon="-2.0502676">
        <ele>85.302</ele>
        <time>2018-08-18T12:12:58.164Z</time>
      </trkpt>
      <trkpt lat="48.5359837" lon="-2.0503111">
        <ele>85.193</ele>
        <time>2018-08-18T12:13:01.194Z</time>
      </trkpt>
      <trkpt lat="48.5360847" lon="-2.0503473">
        <ele>85.129</ele>
        <time>2018-08-18T12:13:04.239Z</time>
      </trkpt>
      <trkpt lat="48.5361804" lon="-2.0503850">
        <ele>84.917</ele>
        <time>2018-08-18T12:13:07.441Z</time>
      </trkpt>
      <trkpt lat="48.5362807" lon="-2.0504350">
        <ele>84.419</ele>
        <time>2018-08-18T12:13:11.298Z</time>
      </trkpt>
      <trkpt lat="48.5363806" lon="-2.0504297">
        <ele>83.912</ele>
        <time>2018-08-18T12:13:15.285Z</time>
      </trkpt>
      <trkpt lat="48.5364643" lon="-2.0504880">
        <ele>83.699</ele>
        <time>2018-08-18T12:13:19.290Z</time>
      </trkpt>
      <trkpt lat="48.5365548" lon="-2.0505521">
        <ele>83.736</ele>
        <time>2018-08-18T12:13:24.568Z</time>
      </trkpt>
      <trkpt lat="48.5366420" lon="-2.0505856">
        <ele>83.801</ele>
        <time>2018-08-18T12:13:30.815Z</time>
      </trkpt>
      <trkpt lat="48.5367163" lon="-2.0506672">
        <ele>83.611</ele>
        <time>2018-08-18T12:13:38.000Z</time>
      </trkpt>
      <trkpt lat="48.5367163" lon="-2.0506672">
        <ele>83.147</ele>
        <time>2018-08-18T12:13:47.000Z</time>
      </trkpt>
      <trkpt lat="48.5367135" lon="-2.0508733">
        <ele>78.184</ele>
        <time>2018-08-18T13:03:05.000Z</time>
      </trkpt>
      <trkpt lat="48.5367135" lon="-2.0508733">
        <ele>78.164</ele>
        <time>2018-08-18T13:04:10.332Z</time>
      </trkpt>
      <trkpt lat="48.5366165" lon="-2.0506375">
        <ele>78.142</ele>
        <time>2018-08-18T13:04:25.749Z</time>
      </trkpt>
      <trkpt lat="48.5365259" lon="-2.0505652">
        <ele>77.855</ele>
        <time>2018-08-18T13:04:31.158Z</time>
      </trkpt>
      <trkpt lat="48.5364279" lon="-2.0505432">
        <ele>77.075</ele>
        <time>2018-08-18T13:04:37.366Z</time>
      </trkpt>
      <trkpt lat="48.5363678" lon="-2.0504308">
        <ele>76.152</ele>
        <time>2018-08-18T13:04:42.984Z</time>
      </trkpt>
      <trkpt lat="48.5363828" lon="-2.0502685">
        <ele>75.596</ele>
        <time>2018-08-18T13:04:48.110Z</time>
      </trkpt>
      <trkpt lat="48.5363981" lon="-2.0501003">
        <ele>75.521</ele>
        <time>2018-08-18T13:04:53.014Z</time>
      </trkpt>
      <trkpt lat="48.5363911" lon="-2.0499552">
        <ele>75.832</ele>
        <time>2018-08-18T13:04:57.091Z</time>
      </trkpt>
      <trkpt lat="48.5364003" lon="-2.0498167">
        <ele>76.279</ele>
        <time>2018-08-18T13:05:01.001Z</time>
      </trkpt>
      <trkpt lat="48.5364477" lon="-2.0496703">
        <ele>76.631</ele>
        <time>2018-08-18T13:05:06.034Z</time>
      </trkpt>
      <trkpt lat="48.5364721" lon="-2.0495364">
        <ele>76.845</ele>
        <time>2018-08-18T13:05:10.696Z</time>
      </trkpt>
      <trkpt lat="48.5364603" lon="-2.0493789">
        <ele>77.003</ele>
        <time>2018-08-18T13:05:15.859Z</time>
      </trkpt>
      <trkpt lat="48.5364138" lon="-2.0492245">
        <ele>77.163</ele>
        <time>2018-08-18T13:05:21.059Z</time>
      </trkpt>
      <trkpt lat="48.5363543" lon="-2.0491132">
        <ele>77.295</ele>
        <time>2018-08-18T13:05:24.995Z</time>
      </trkpt>
      <trkpt lat="48.5362807" lon="-2.0489973">
        <ele>77.301</ele>
        <time>2018-08-18T13:05:28.921Z</time>
      </trkpt>
      <trkpt lat="48.5362063" lon="-2.0488672">
        <ele>77.083</ele>
        <time>2018-08-18T13:05:32.860Z</time>
      </trkpt>
      <trkpt lat="48.5361516" lon="-2.0487556">
        <ele>76.624</ele>
        <time>2018-08-18T13:05:36.217Z</time>
      </trkpt>
      <trkpt lat="48.5360979" lon="-2.0486195">
        <ele>76.112</ele>
        <time>2018-08-18T13:05:41.023Z</time>
      </trkpt>
      <trkpt lat="48.5360447" lon="-2.0484850">
        <ele>75.772</ele>
        <time>2018-08-18T13:05:46.071Z</time>
      </trkpt>
      <trkpt lat="48.5359976" lon="-2.0483581">
        <ele>75.829</ele>
        <time>2018-08-18T13:05:50.112Z</time>
      </trkpt>
      <trkpt lat="48.5359274" lon="-2.0482281">
        <ele>76.297</ele>
        <time>2018-08-18T13:05:54.141Z</time>
      </trkpt>
      <trkpt lat="48.5358638" lon="-2.0481231">
        <ele>76.791</ele>
        <time>2018-08-18T13:05:57.410Z</time>
      </trkpt>
      <trkpt lat="48.5357829" lon="-2.0479908">
        <ele>76.991</ele>
        <time>2018-08-18T13:06:01.277Z</time>
      </trkpt>
      <trkpt lat="48.5357224" lon="-2.0478783">
        <ele>77.020</ele>
        <time>2018-08-18T13:06:04.088Z</time>
      </trkpt>
      <trkpt lat="48.5356507" lon="-2.0477549">
        <ele>77.091</ele>
        <time>2018-08-18T13:06:07.070Z</time>
      </trkpt>
      <trkpt lat="48.5355691" lon="-2.0476295">
        <ele>77.236</ele>
        <time>2018-08-18T13:06:10.879Z</time>
      </trkpt>
      <trkpt lat="48.5354857" lon="-2.0475325">
        <ele>77.313</ele>
        <time>2018-08-18T13:06:15.240Z</time>
      </trkpt>
      <trkpt lat="48.5353938" lon="-2.0474834">
        <ele>77.175</ele>
        <time>2018-08-18T13:06:19.276Z</time>
      </trkpt>
      <trkpt lat="48.5352848" lon="-2.0475124">
        <ele>76.783</ele>
        <time>2018-08-18T13:06:24.938Z</time>
      </trkpt>
      <trkpt lat="48.5352054" lon="-2.0474124">
        <ele>76.038</ele>
        <time>2018-08-18T13:06:29.258Z</time>
      </trkpt>
      <trkpt lat="48.5351262" lon="-2.0472865">
        <ele>74.895</ele>
        <time>2018-08-18T13:06:32.713Z</time>
      </trkpt>
      <trkpt lat="48.5350357" lon="-2.0471405">
        <ele>73.728</ele>
        <time>2018-08-18T13:06:36.095Z</time>
      </trkpt>
      <trkpt lat="48.5349491" lon="-2.0470173">
        <ele>72.970</ele>
        <time>2018-08-18T13:06:39.119Z</time>
      </trkpt>
      <trkpt lat="48.5348630" lon="-2.0469151">
        <ele>72.503</ele>
        <time>2018-08-18T13:06:42.133Z</time>
      </trkpt>
      <trkpt lat="48.5347799" lon="-2.0468222">
        <ele>72.078</ele>
        <time>2018-08-18T13:06:45.209Z</time>
      </trkpt>
      <trkpt lat="48.5347052" lon="-2.0467398">
        <ele>71.779</ele>
        <time>2018-08-18T13:06:48.156Z</time>
      </trkpt>
      <trkpt lat="48.5346205" lon="-2.0466238">
        <ele>71.747</ele>
        <time>2018-08-18T13:06:52.054Z</time>
      </trkpt>
      <trkpt lat="48.5345461" lon="-2.0465134">
        <ele>71.961</ele>
        <time>2018-08-18T13:06:55.966Z</time>
      </trkpt>
      <trkpt lat="48.5344798" lon="-2.0464149">
        <ele>72.319</ele>
        <time>2018-08-18T13:06:59.728Z</time>
      </trkpt>
      <trkpt lat="48.5344214" lon="-2.0463101">
        <ele>72.642</ele>
        <time>2018-08-18T13:07:03.518Z</time>
      </trkpt>
      <trkpt lat="48.5343537" lon="-2.0461847">
        <ele>72.920</ele>
        <time>2018-08-18T13:07:08.162Z</time>
      </trkpt>
      <trkpt lat="48.5342811" lon="-2.0460906">
        <ele>73.433</ele>
        <time>2018-08-18T13:07:12.238Z</time>
      </trkpt>
      <trkpt lat="48.5341845" lon="-2.0459976">
        <ele>74.184</ele>
        <time>2018-08-18T13:07:16.510Z</time>
      </trkpt>
      <trkpt lat="48.5340804" lon="-2.0459383">
        <ele>74.587</ele>
        <time>2018-08-18T13:07:20.475Z</time>
      </trkpt>
      <trkpt lat="48.5339813" lon="-2.0458781">
        <ele>74.316</ele>
        <time>2018-08-18T13:07:24.553Z</time>
      </trkpt>
      <trkpt lat="48.5338922" lon="-2.0458087">
        <ele>73.835</ele>
        <time>2018-08-18T13:07:28.619Z</time>
      </trkpt>
      <trkpt lat="48.5338066" lon="-2.0457386">
        <ele>73.609</ele>
        <time>2018-08-18T13:07:32.630Z</time>
      </trkpt>
      <trkpt lat="48.5337094" lon="-2.0456597">
        <ele>73.606</ele>
        <time>2018-08-18T13:07:37.347Z</time>
      </trkpt>
      <trkpt lat="48.5336839" lon="-2.0454940">
        <ele>73.773</ele>
        <time>2018-08-18T13:07:42.504Z</time>
      </trkpt>
      <trkpt lat="48.5336891" lon="-2.0453533">
        <ele>74.092</ele>
        <time>2018-08-18T13:07:46.833Z</time>
      </trkpt>
      <trkpt lat="48.5336874" lon="-2.0451997">
        <ele>74.346</ele>
        <time>2018-08-18T13:07:51.230Z</time>
      </trkpt>
      <trkpt lat="48.5336922" lon="-2.0450587">
        <ele>74.172</ele>
        <time>2018-08-18T13:07:55.195Z</time>
      </trkpt>
      <trkpt lat="48.5336898" lon="-2.0449048">
        <ele>73.569</ele>
        <time>2018-08-18T13:07:59.686Z</time>
      </trkpt>
      <trkpt lat="48.5336718" lon="-2.0447544">
        <ele>73.259</ele>
        <time>2018-08-18T13:08:04.162Z</time>
      </trkpt>
      <trkpt lat="48.5336463" lon="-2.0446113">
        <ele>73.817</ele>
        <time>2018-08-18T13:08:08.391Z</time>
      </trkpt>
      <trkpt lat="48.5336279" lon="-2.0444693">
        <ele>74.872</ele>
        <time>2018-08-18T13:08:12.416Z</time>
      </trkpt>
      <trkpt lat="48.5336129" lon="-2.0443215">
        <ele>75.842</ele>
        <time>2018-08-18T13:08:16.507Z</time>
      </trkpt>
      <trkpt lat="48.5335997" lon="-2.0441766">
        <ele>76.570</ele>
        <time>2018-08-18T13:08:20.488Z</time>
      </trkpt>
      <trkpt lat="48.5335956" lon="-2.0440225">
        <ele>77.124</ele>
        <time>2018-08-18T13:08:24.665Z</time>
      </trkpt>
      <trkpt lat="48.5336115" lon="-2.0438757">
        <ele>77.650</ele>
        <time>2018-08-18T13:08:28.620Z</time>
      </trkpt>
      <trkpt lat="48.5336297" lon="-2.0437313">
        <ele>78.151</ele>
        <time>2018-08-18T13:08:32.453Z</time>
      </trkpt>
      <trkpt lat="48.5336513" lon="-2.0435823">
        <ele>78.532</ele>
        <time>2018-08-18T13:08:36.415Z</time>
      </trkpt>
      <trkpt lat="48.5336697" lon="-2.0434468">
        <ele>78.794</ele>
        <time>2018-08-18T13:08:40.100Z</time>
      </trkpt>
      <trkpt lat="48.5337033" lon="-2.0432894">
        <ele>78.987</ele>
        <time>2018-08-18T13:08:44.664Z</time>
      </trkpt>
      <trkpt lat="48.5337362" lon="-2.0431569">
        <ele>79.204</ele>
        <time>2018-08-18T13:08:48.593Z</time>
      </trkpt>
      <trkpt lat="48.5337579" lon="-2.0430063">
        <ele>79.549</ele>
        <time>2018-08-18T13:08:52.747Z</time>
      </trkpt>
      <trkpt lat="48.5337724" lon="-2.0428533">
        <ele>79.975</ele>
        <time>2018-08-18T13:08:56.880Z</time>
      </trkpt>
      <trkpt lat="48.5337997" lon="-2.0427105">
        <ele>80.381</ele>
        <time>2018-08-18T13:09:00.869Z</time>
      </trkpt>
      <trkpt lat="48.5338258" lon="-2.0425617">
        <ele>80.731</ele>
        <time>2018-08-18T13:09:04.925Z</time>
      </trkpt>
      <trkpt lat="48.5338520" lon="-2.0424168">
        <ele>80.988</ele>
        <time>2018-08-18T13:09:08.824Z</time>
      </trkpt>
      <trkpt lat="48.5338832" lon="-2.0422770">
        <ele>81.188</ele>
        <time>2018-08-18T13:09:12.694Z</time>
      </trkpt>
      <trkpt lat="48.5339102" lon="-2.0421348">
        <ele>81.403</ele>
        <time>2018-08-18T13:09:16.615Z</time>
      </trkpt>
      <trkpt lat="48.5339369" lon="-2.0419917">
        <ele>81.672</ele>
        <time>2018-08-18T13:09:20.555Z</time>
      </trkpt>
      <trkpt lat="48.5339608" lon="-2.0418438">
        <ele>81.963</ele>
        <time>2018-08-18T13:09:24.604Z</time>
      </trkpt>
      <trkpt lat="48.5339803" lon="-2.0417020">
        <ele>82.221</ele>
        <time>2018-08-18T13:09:28.528Z</time>
      </trkpt>
      <trkpt lat="48.5339960" lon="-2.0415513">
        <ele>82.414</ele>
        <time>2018-08-18T13:09:32.684Z</time>
      </trkpt>
      <trkpt lat="48.5340438" lon="-2.0414016">
        <ele>82.546</ele>
        <time>2018-08-18T13:09:36.999Z</time>
      </trkpt>
      <trkpt lat="48.5340750" lon="-2.0412314">
        <ele>82.626</ele>
        <time>2018-08-18T13:09:41.308Z</time>
      </trkpt>
      <trkpt lat="48.5340900" lon="-2.0410723">
        <ele>82.704</ele>
        <time>2018-08-18T13:09:45.150Z</time>
      </trkpt>
      <trkpt lat="48.5341086" lon="-2.0409114">
        <ele>82.829</ele>
        <time>2018-08-18T13:09:49.057Z</time>
      </trkpt>
      <trkpt lat="48.5341276" lon="-2.0407485">
        <ele>83.052</ele>
        <time>2018-08-18T13:09:52.987Z</time>
      </trkpt>
      <trkpt lat="48.5341427" lon="-2.0405863">
        <ele>83.394</ele>
        <time>2018-08-18T13:09:56.875Z</time>
      </trkpt>
      <trkpt lat="48.5341596" lon="-2.0404186">
        <ele>83.761</ele>
        <time>2018-08-18T13:10:00.900Z</time>
      </trkpt>
      <trkpt lat="48.5341698" lon="-2.0402445">
        <ele>84.110</ele>
        <time>2018-08-18T13:10:05.006Z</time>
      </trkpt>
      <trkpt lat="48.5341747" lon="-2.0400740">
        <ele>84.136</ele>
        <time>2018-08-18T13:10:08.951Z</time>
      </trkpt>
      <trkpt lat="48.5341760" lon="-2.0399353">
        <ele>84.168</ele>
        <time>2018-08-18T13:10:12.095Z</time>
      </trkpt>
      <trkpt lat="48.5341745" lon="-2.0397615">
        <ele>84.226</ele>
        <time>2018-08-18T13:10:15.995Z</time>
      </trkpt>
      <trkpt lat="48.5341690" lon="-2.0395936">
        <ele>84.337</ele>
        <time>2018-08-18T13:10:19.784Z</time>
      </trkpt>
      <trkpt lat="48.5341609" lon="-2.0394289">
        <ele>84.512</ele>
        <time>2018-08-18T13:10:23.540Z</time>
      </trkpt>
      <trkpt lat="48.5341440" lon="-2.0392469">
        <ele>84.672</ele>
        <time>2018-08-18T13:10:27.686Z</time>
      </trkpt>
      <trkpt lat="48.5341270" lon="-2.0391088">
        <ele>84.718</ele>
        <time>2018-08-18T13:10:30.783Z</time>
      </trkpt>
      <trkpt lat="48.5341143" lon="-2.0389735">
        <ele>84.757</ele>
        <time>2018-08-18T13:10:33.755Z</time>
      </trkpt>
      <trkpt lat="48.5340936" lon="-2.0388394">
        <ele>84.904</ele>
        <time>2018-08-18T13:10:36.712Z</time>
      </trkpt>
      <trkpt lat="48.5340671" lon="-2.0386885">
        <ele>85.090</ele>
        <time>2018-08-18T13:10:39.950Z</time>
      </trkpt>
      <trkpt lat="48.5340420" lon="-2.0385328">
        <ele>85.259</ele>
        <time>2018-08-18T13:10:43.131Z</time>
      </trkpt>
      <trkpt lat="48.5340185" lon="-2.0383855">
        <ele>85.350</ele>
        <time>2018-08-18T13:10:46.075Z</time>
      </trkpt>
      <trkpt lat="48.5339943" lon="-2.0382362">
        <ele>85.291</ele>
        <time>2018-08-18T13:10:49.056Z</time>
      </trkpt>
      <trkpt lat="48.5339688" lon="-2.0380936">
        <ele>85.301</ele>
        <time>2018-08-18T13:10:51.974Z</time>
      </trkpt>
      <trkpt lat="48.5339322" lon="-2.0379314">
        <ele>85.439</ele>
        <time>2018-08-18T13:10:55.488Z</time>
      </trkpt>
      <trkpt lat="48.5338864" lon="-2.0377844">
        <ele>85.605</ele>
        <time>2018-08-18T13:10:59.037Z</time>
      </trkpt>
      <trkpt lat="48.5338501" lon="-2.0376205">
        <ele>85.687</ele>
        <time>2018-08-18T13:11:03.000Z</time>
      </trkpt>
      <trkpt lat="48.5338501" lon="-2.0376205">
        <ele>85.681</ele>
        <time>2018-08-18T13:11:03.000Z</time>
      </trkpt>
      <trkpt lat="48.5338501" lon="-2.0376205">
        <ele>85.634</ele>
        <time>2018-08-18T13:11:03.223Z</time>
      </trkpt>
      <trkpt lat="48.5337998" lon="-2.0374037">
        <ele>85.594</ele>
        <time>2018-08-18T13:11:11.531Z</time>
      </trkpt>
      <trkpt lat="48.5337664" lon="-2.0372754">
        <ele>85.528</ele>
        <time>2018-08-18T13:11:14.951Z</time>
      </trkpt>
      <trkpt lat="48.5337274" lon="-2.0371227">
        <ele>85.363</ele>
        <time>2018-08-18T13:11:19.126Z</time>
      </trkpt>
      <trkpt lat="48.5337041" lon="-2.0369911">
        <ele>85.083</ele>
        <time>2018-08-18T13:11:22.614Z</time>
      </trkpt>
      <trkpt lat="48.5336737" lon="-2.0368526">
        <ele>84.682</ele>
        <time>2018-08-18T13:11:26.257Z</time>
      </trkpt>
      <trkpt lat="48.5336384" lon="-2.0367118">
        <ele>84.232</ele>
        <time>2018-08-18T13:11:29.952Z</time>
      </trkpt>
      <trkpt lat="48.5336014" lon="-2.0365575">
        <ele>83.929</ele>
        <time>2018-08-18T13:11:33.937Z</time>
      </trkpt>
      <trkpt lat="48.5335631" lon="-2.0363975">
        <ele>83.997</ele>
        <time>2018-08-18T13:11:37.920Z</time>
      </trkpt>
      <trkpt lat="48.5335363" lon="-2.0362520">
        <ele>84.448</ele>
        <time>2018-08-18T13:11:41.505Z</time>
      </trkpt>
      <trkpt lat="48.5334927" lon="-2.0361113">
        <ele>85.034</ele>
        <time>2018-08-18T13:11:45.255Z</time>
      </trkpt>
      <trkpt lat="48.5334193" lon="-2.0359736">
        <ele>85.491</ele>
        <time>2018-08-18T13:11:49.356Z</time>
      </trkpt>
      <trkpt lat="48.5333518" lon="-2.0358732">
        <ele>85.761</ele>
        <time>2018-08-18T13:11:52.475Z</time>
      </trkpt>
      <trkpt lat="48.5333154" lon="-2.0357400">
        <ele>85.913</ele>
        <time>2018-08-18T13:11:55.452Z</time>
      </trkpt>
      <trkpt lat="48.5333280" lon="-2.0355837">
        <ele>86.016</ele>
        <time>2018-08-18T13:11:58.629Z</time>
      </trkpt>
      <trkpt lat="48.5333786" lon="-2.0354312">
        <ele>86.074</ele>
        <time>2018-08-18T13:12:02.000Z</time>
      </trkpt>
      <trkpt lat="48.5333786" lon="-2.0354312">
        <ele>86.077</ele>
        <time>2018-08-18T13:12:04.000Z</time>
      </trkpt>
      <trkpt lat="48.5333786" lon="-2.0354312">
        <ele>86.038</ele>
        <time>2018-08-18T13:12:04.100Z</time>
      </trkpt>
      <trkpt lat="48.5334024" lon="-2.0350528">
        <ele>85.993</ele>
        <time>2018-08-18T13:12:11.287Z</time>
      </trkpt>
      <trkpt lat="48.5333948" lon="-2.0349092">
        <ele>85.969</ele>
        <time>2018-08-18T13:12:13.205Z</time>
      </trkpt>
      <trkpt lat="48.5333805" lon="-2.0346885">
        <ele>85.959</ele>
        <time>2018-08-18T13:12:16.120Z</time>
      </trkpt>
      <trkpt lat="48.5333635" lon="-2.0345416">
        <ele>85.952</ele>
        <time>2018-08-18T13:12:18.105Z</time>
      </trkpt>
      <trkpt lat="48.5333531" lon="-2.0344006">
        <ele>85.945</ele>
        <time>2018-08-18T13:12:20.017Z</time>
      </trkpt>
      <trkpt lat="48.5333526" lon="-2.0341907">
        <ele>85.939</ele>
        <time>2018-08-18T13:12:22.942Z</time>
      </trkpt>
      <trkpt lat="48.5333555" lon="-2.0339877">
        <ele>85.936</ele>
        <time>2018-08-18T13:12:25.884Z</time>
      </trkpt>
      <trkpt lat="48.5333553" lon="-2.0337991">
        <ele>85.936</ele>
        <time>2018-08-18T13:12:28.774Z</time>
      </trkpt>
      <trkpt lat="48.5333606" lon="-2.0336205">
        <ele>85.972</ele>
        <time>2018-08-18T13:12:31.611Z</time>
      </trkpt>
      <trkpt lat="48.5333697" lon="-2.0334441">
        <ele>86.064</ele>
        <time>2018-08-18T13:12:34.400Z</time>
      </trkpt>
      <trkpt lat="48.5333759" lon="-2.0332625">
        <ele>86.117</ele>
        <time>2018-08-18T13:12:37.255Z</time>
      </trkpt>
      <trkpt lat="48.5333802" lon="-2.0330823">
        <ele>86.055</ele>
        <time>2018-08-18T13:12:40.081Z</time>
      </trkpt>
      <trkpt lat="48.5333875" lon="-2.0328944">
        <ele>86.016</ele>
        <time>2018-08-18T13:12:43.022Z</time>
      </trkpt>
      <trkpt lat="48.5333970" lon="-2.0327083">
        <ele>86.169</ele>
        <time>2018-08-18T13:12:45.984Z</time>
      </trkpt>
      <trkpt lat="48.5334094" lon="-2.0325351">
        <ele>86.444</ele>
        <time>2018-08-18T13:12:48.867Z</time>
      </trkpt>
      <trkpt lat="48.5334173" lon="-2.0323746">
        <ele>86.657</ele>
        <time>2018-08-18T13:12:51.662Z</time>
      </trkpt>
      <trkpt lat="48.5334250" lon="-2.0322299">
        <ele>86.705</ele>
        <time>2018-08-18T13:12:54.288Z</time>
      </trkpt>
      <trkpt lat="48.5334315" lon="-2.0320908">
        <ele>86.609</ele>
        <time>2018-08-18T13:12:56.881Z</time>
      </trkpt>
      <trkpt lat="48.5334324" lon="-2.0319468">
        <ele>86.525</ele>
        <time>2018-08-18T13:12:59.611Z</time>
      </trkpt>
      <trkpt lat="48.5334361" lon="-2.0318084">
        <ele>86.580</ele>
        <time>2018-08-18T13:13:02.287Z</time>
      </trkpt>
      <trkpt lat="48.5334401" lon="-2.0316663">
        <ele>86.781</ele>
        <time>2018-08-18T13:13:05.089Z</time>
      </trkpt>
      <trkpt lat="48.5334445" lon="-2.0315149">
        <ele>87.290</ele>
        <time>2018-08-18T13:13:08.077Z</time>
      </trkpt>
      <trkpt lat="48.5334492" lon="-2.0313656">
        <ele>88.148</ele>
        <time>2018-08-18T13:13:11.000Z</time>
      </trkpt>
      <trkpt lat="48.5334492" lon="-2.0313656">
        <ele>88.941</ele>
        <time>2018-08-18T13:13:25.000Z</time>
      </trkpt>
      <trkpt lat="48.5334492" lon="-2.0313656">
        <ele>89.268</ele>
        <time>2018-08-18T13:14:47.982Z</time>
      </trkpt>
      <trkpt lat="48.5335054" lon="-2.0309836">
        <ele>89.078</ele>
        <time>2018-08-18T13:15:10.850Z</time>
      </trkpt>
      <trkpt lat="48.5335198" lon="-2.0308213">
        <ele>88.306</ele>
        <time>2018-08-18T13:15:14.739Z</time>
      </trkpt>
      <trkpt lat="48.5335218" lon="-2.0306849">
        <ele>87.145</ele>
        <time>2018-08-18T13:15:17.685Z</time>
      </trkpt>
      <trkpt lat="48.5335266" lon="-2.0305455">
        <ele>86.190</ele>
        <time>2018-08-18T13:15:20.571Z</time>
      </trkpt>
      <trkpt lat="48.5335423" lon="-2.0304098">
        <ele>85.822</ele>
        <time>2018-08-18T13:15:23.325Z</time>
      </trkpt>
      <trkpt lat="48.5335650" lon="-2.0302739">
        <ele>85.894</ele>
        <time>2018-08-18T13:15:26.059Z</time>
      </trkpt>
      <trkpt lat="48.5335841" lon="-2.0301342">
        <ele>86.128</ele>
        <time>2018-08-18T13:15:28.856Z</time>
      </trkpt>
      <trkpt lat="48.5336061" lon="-2.0300018">
        <ele>86.379</ele>
        <time>2018-08-18T13:15:31.605Z</time>
      </trkpt>
      <trkpt lat="48.5336326" lon="-2.0298429">
        <ele>86.717</ele>
        <time>2018-08-18T13:15:34.915Z</time>
      </trkpt>
      <trkpt lat="48.5336633" lon="-2.0296715">
        <ele>87.143</ele>
        <time>2018-08-18T13:15:38.394Z</time>
      </trkpt>
      <trkpt lat="48.5336892" lon="-2.0295407">
        <ele>87.473</ele>
        <time>2018-08-18T13:15:41.035Z</time>
      </trkpt>
      <trkpt lat="48.5337128" lon="-2.0294094">
        <ele>87.596</ele>
        <time>2018-08-18T13:15:43.736Z</time>
      </trkpt>
      <trkpt lat="48.5337510" lon="-2.0292495">
        <ele>87.545</ele>
        <time>2018-08-18T13:15:47.155Z</time>
      </trkpt>
      <trkpt lat="48.5337775" lon="-2.0291159">
        <ele>87.327</ele>
        <time>2018-08-18T13:15:49.980Z</time>
      </trkpt>
      <trkpt lat="48.5338025" lon="-2.0289636">
        <ele>87.004</ele>
        <time>2018-08-18T13:15:53.229Z</time>
      </trkpt>
      <trkpt lat="48.5338401" lon="-2.0287917">
        <ele>86.685</ele>
        <time>2018-08-18T13:15:57.095Z</time>
      </trkpt>
      <trkpt lat="48.5338548" lon="-2.0286458">
        <ele>86.442</ele>
        <time>2018-08-18T13:16:00.314Z</time>
      </trkpt>
      <trkpt lat="48.5338749" lon="-2.0284969">
        <ele>86.355</ele>
        <time>2018-08-18T13:16:03.715Z</time>
      </trkpt>
      <trkpt lat="48.5339163" lon="-2.0283290">
        <ele>86.441</ele>
        <time>2018-08-18T13:16:07.814Z</time>
      </trkpt>
      <trkpt lat="48.5339392" lon="-2.0281898">
        <ele>86.584</ele>
        <time>2018-08-18T13:16:11.182Z</time>
      </trkpt>
      <trkpt lat="48.5339632" lon="-2.0280239">
        <ele>86.734</ele>
        <time>2018-08-18T13:16:15.321Z</time>
      </trkpt>
      <trkpt lat="48.5339673" lon="-2.0278539">
        <ele>86.945</ele>
        <time>2018-08-18T13:16:19.582Z</time>
      </trkpt>
      <trkpt lat="48.5339907" lon="-2.0277056">
        <ele>87.179</ele>
        <time>2018-08-18T13:16:23.155Z</time>
      </trkpt>
      <trkpt lat="48.5340112" lon="-2.0275484">
        <ele>87.278</ele>
        <time>2018-08-18T13:16:27.244Z</time>
      </trkpt>
      <trkpt lat="48.5340139" lon="-2.0273821">
        <ele>87.189</ele>
        <time>2018-08-18T13:16:32.565Z</time>
      </trkpt>
      <trkpt lat="48.5340281" lon="-2.0272411">
        <ele>87.090</ele>
        <time>2018-08-18T13:16:37.304Z</time>
      </trkpt>
      <trkpt lat="48.5340458" lon="-2.0270799">
        <ele>87.144</ele>
        <time>2018-08-18T13:16:42.001Z</time>
      </trkpt>
      <trkpt lat="48.5340472" lon="-2.0269019">
        <ele>87.292</ele>
        <time>2018-08-18T13:16:46.168Z</time>
      </trkpt>
      <trkpt lat="48.5340397" lon="-2.0267306">
        <ele>87.417</ele>
        <time>2018-08-18T13:16:49.845Z</time>
      </trkpt>
      <trkpt lat="48.5340065" lon="-2.0265444">
        <ele>87.541</ele>
        <time>2018-08-18T13:16:54.066Z</time>
      </trkpt>
      <trkpt lat="48.5339879" lon="-2.0263968">
        <ele>87.721</ele>
        <time>2018-08-18T13:16:57.276Z</time>
      </trkpt>
      <trkpt lat="48.5339690" lon="-2.0262241">
        <ele>87.903</ele>
        <time>2018-08-18T13:17:00.764Z</time>
      </trkpt>
      <trkpt lat="48.5339735" lon="-2.0260620">
        <ele>87.996</ele>
        <time>2018-08-18T13:17:03.788Z</time>
      </trkpt>
      <trkpt lat="48.5339769" lon="-2.0259029">
        <ele>87.997</ele>
        <time>2018-08-18T13:17:06.649Z</time>
      </trkpt>
      <trkpt lat="48.5339623" lon="-2.0257381">
        <ele>87.950</ele>
        <time>2018-08-18T13:17:09.603Z</time>
      </trkpt>
      <trkpt lat="48.5339517" lon="-2.0255799">
        <ele>87.902</ele>
        <time>2018-08-18T13:17:12.473Z</time>
      </trkpt>
      <trkpt lat="48.5339437" lon="-2.0254277">
        <ele>87.883</ele>
        <time>2018-08-18T13:17:15.336Z</time>
      </trkpt>
      <trkpt lat="48.5339376" lon="-2.0252797">
        <ele>87.913</ele>
        <time>2018-08-18T13:17:18.102Z</time>
      </trkpt>
      <trkpt lat="48.5339328" lon="-2.0251048">
        <ele>87.979</ele>
        <time>2018-08-18T13:17:21.268Z</time>
      </trkpt>
      <trkpt lat="48.5339197" lon="-2.0249590">
        <ele>87.984</ele>
        <time>2018-08-18T13:17:23.930Z</time>
      </trkpt>
      <trkpt lat="48.5339076" lon="-2.0248161">
        <ele>87.864</ele>
        <time>2018-08-18T13:17:26.566Z</time>
      </trkpt>
      <trkpt lat="48.5338989" lon="-2.0246740">
        <ele>87.709</ele>
        <time>2018-08-18T13:17:29.197Z</time>
      </trkpt>
      <trkpt lat="48.5338900" lon="-2.0245332">
        <ele>87.651</ele>
        <time>2018-08-18T13:17:31.821Z</time>
      </trkpt>
      <trkpt lat="48.5338855" lon="-2.0243542">
        <ele>87.754</ele>
        <time>2018-08-18T13:17:35.189Z</time>
      </trkpt>
      <trkpt lat="48.5338731" lon="-2.0241747">
        <ele>88.014</ele>
        <time>2018-08-18T13:17:38.592Z</time>
      </trkpt>
      <trkpt lat="48.5338623" lon="-2.0239986">
        <ele>88.339</ele>
        <time>2018-08-18T13:17:42.071Z</time>
      </trkpt>
      <trkpt lat="48.5338617" lon="-2.0238552">
        <ele>88.605</ele>
        <time>2018-08-18T13:17:45.343Z</time>
      </trkpt>
      <trkpt lat="48.5338629" lon="-2.0237151">
        <ele>88.840</ele>
        <time>2018-08-18T13:17:49.245Z</time>
      </trkpt>
      <trkpt lat="48.5338722" lon="-2.0235731">
        <ele>89.150</ele>
        <time>2018-08-18T13:17:54.532Z</time>
      </trkpt>
      <trkpt lat="48.5338618" lon="-2.0234300">
        <ele>89.461</ele>
        <time>2018-08-18T13:17:59.942Z</time>
      </trkpt>
      <trkpt lat="48.5338357" lon="-2.0232606">
        <ele>89.568</ele>
        <time>2018-08-18T13:18:05.208Z</time>
      </trkpt>
      <trkpt lat="48.5338100" lon="-2.0231111">
        <ele>89.429</ele>
        <time>2018-08-18T13:18:08.983Z</time>
      </trkpt>
      <trkpt lat="48.5337719" lon="-2.0229674">
        <ele>89.220</ele>
        <time>2018-08-18T13:18:12.525Z</time>
      </trkpt>
      <trkpt lat="48.5337279" lon="-2.0228070">
        <ele>89.101</ele>
        <time>2018-08-18T13:18:16.423Z</time>
      </trkpt>
      <trkpt lat="48.5337252" lon="-2.0226693">
        <ele>89.013</ele>
        <time>2018-08-18T13:18:19.290Z</time>
      </trkpt>
      <trkpt lat="48.5337365" lon="-2.0225171">
        <ele>88.824</ele>
        <time>2018-08-18T13:18:22.291Z</time>
      </trkpt>
      <trkpt lat="48.5337944" lon="-2.0223941">
        <ele>88.563</ele>
        <time>2018-08-18T13:18:25.198Z</time>
      </trkpt>
      <trkpt lat="48.5337936" lon="-2.0222430">
        <ele>88.391</ele>
        <time>2018-08-18T13:18:28.054Z</time>
      </trkpt>
      <trkpt lat="48.5337882" lon="-2.0220973">
        <ele>88.374</ele>
        <time>2018-08-18T13:18:30.755Z</time>
      </trkpt>
      <trkpt lat="48.5337906" lon="-2.0219510">
        <ele>88.362</ele>
        <time>2018-08-18T13:18:33.388Z</time>
      </trkpt>
      <trkpt lat="48.5337979" lon="-2.0217879">
        <ele>88.224</ele>
        <time>2018-08-18T13:18:36.243Z</time>
      </trkpt>
      <trkpt lat="48.5338248" lon="-2.0216393">
        <ele>88.021</ele>
        <time>2018-08-18T13:18:38.857Z</time>
      </trkpt>
      <trkpt lat="48.5338512" lon="-2.0214804">
        <ele>87.849</ele>
        <time>2018-08-18T13:18:41.561Z</time>
      </trkpt>
      <trkpt lat="48.5338782" lon="-2.0213218">
        <ele>87.806</ele>
        <time>2018-08-18T13:18:44.185Z</time>
      </trkpt>
      <trkpt lat="48.5339048" lon="-2.0211447">
        <ele>87.956</ele>
        <time>2018-08-18T13:18:47.005Z</time>
      </trkpt>
      <trkpt lat="48.5339318" lon="-2.0209457">
        <ele>88.248</ele>
        <time>2018-08-18T13:18:50.000Z</time>
      </trkpt>
      <trkpt lat="48.5339318" lon="-2.0209457">
        <ele>88.567</ele>
        <time>2018-08-18T13:18:51.000Z</time>
      </trkpt>
      <trkpt lat="48.5339318" lon="-2.0209457">
        <ele>88.740</ele>
        <time>2018-08-18T13:18:51.100Z</time>
      </trkpt>
      <trkpt lat="48.5339677" lon="-2.0206509">
        <ele>88.671</ele>
        <time>2018-08-18T13:18:56.469Z</time>
      </trkpt>
      <trkpt lat="48.5339925" lon="-2.0205049">
        <ele>88.487</ele>
        <time>2018-08-18T13:18:58.363Z</time>
      </trkpt>
      <trkpt lat="48.5340151" lon="-2.0203505">
        <ele>88.310</ele>
        <time>2018-08-18T13:19:00.267Z</time>
      </trkpt>
      <trkpt lat="48.5340472" lon="-2.0201092">
        <ele>88.100</ele>
        <time>2018-08-18T13:19:03.147Z</time>
      </trkpt>
      <trkpt lat="48.5340665" lon="-2.0199453">
        <ele>87.795</ele>
        <time>2018-08-18T13:19:05.159Z</time>
      </trkpt>
      <trkpt lat="48.5341159" lon="-2.0197336">
        <ele>87.439</ele>
        <time>2018-08-18T13:19:08.085Z</time>
      </trkpt>
      <trkpt lat="48.5341655" lon="-2.0195461">
        <ele>87.146</ele>
        <time>2018-08-18T13:19:10.904Z</time>
      </trkpt>
      <trkpt lat="48.5341840" lon="-2.0193980">
        <ele>86.967</ele>
        <time>2018-08-18T13:19:12.915Z</time>
      </trkpt>
      <trkpt lat="48.5342062" lon="-2.0192298">
        <ele>86.856</ele>
        <time>2018-08-18T13:19:14.921Z</time>
      </trkpt>
      <trkpt lat="48.5342371" lon="-2.0190151">
        <ele>86.735</ele>
        <time>2018-08-18T13:19:17.179Z</time>
      </trkpt>
      <trkpt lat="48.5342630" lon="-2.0187878">
        <ele>86.549</ele>
        <time>2018-08-18T13:19:19.486Z</time>
      </trkpt>
      <trkpt lat="48.5342847" lon="-2.0185900">
        <ele>86.303</ele>
        <time>2018-08-18T13:19:21.721Z</time>
      </trkpt>
      <trkpt lat="48.5343005" lon="-2.0184169">
        <ele>86.043</ele>
        <time>2018-08-18T13:19:23.894Z</time>
      </trkpt>
      <trkpt lat="48.5343229" lon="-2.0182003">
        <ele>85.773</ele>
        <time>2018-08-18T13:19:26.899Z</time>
      </trkpt>
      <trkpt lat="48.5343719" lon="-2.0179817">
        <ele>85.490</ele>
        <time>2018-08-18T13:19:30.145Z</time>
      </trkpt>
      <trkpt lat="48.5344046" lon="-2.0178446">
        <ele>85.212</ele>
        <time>2018-08-18T13:19:32.187Z</time>
      </trkpt>
      <trkpt lat="48.5344304" lon="-2.0176860">
        <ele>84.960</ele>
        <time>2018-08-18T13:19:34.400Z</time>
      </trkpt>
      <trkpt lat="48.5344449" lon="-2.0175197">
        <ele>84.695</ele>
        <time>2018-08-18T13:19:36.572Z</time>
      </trkpt>
      <trkpt lat="48.5344601" lon="-2.0173564">
        <ele>84.384</ele>
        <time>2018-08-18T13:19:38.640Z</time>
      </trkpt>
      <trkpt lat="48.5344754" lon="-2.0171907">
        <ele>84.052</ele>
        <time>2018-08-18T13:19:40.722Z</time>
      </trkpt>
      <trkpt lat="48.5345043" lon="-2.0169454">
        <ele>83.726</ele>
        <time>2018-08-18T13:19:43.793Z</time>
      </trkpt>
      <trkpt lat="48.5345247" lon="-2.0167838">
        <ele>83.380</ele>
        <time>2018-08-18T13:19:45.782Z</time>
      </trkpt>
      <trkpt lat="48.5345509" lon="-2.0165337">
        <ele>83.052</ele>
        <time>2018-08-18T13:19:48.743Z</time>
      </trkpt>
      <trkpt lat="48.5345655" lon="-2.0163606">
        <ele>82.753</ele>
        <time>2018-08-18T13:19:50.761Z</time>
      </trkpt>
      <trkpt lat="48.5345852" lon="-2.0161976">
        <ele>82.392</ele>
        <time>2018-08-18T13:19:52.657Z</time>
      </trkpt>
      <trkpt lat="48.5346236" lon="-2.0159462">
        <ele>81.988</ele>
        <time>2018-08-18T13:19:55.492Z</time>
      </trkpt>
      <trkpt lat="48.5346534" lon="-2.0157754">
        <ele>81.682</ele>
        <time>2018-08-18T13:19:57.352Z</time>
      </trkpt>
      <trkpt lat="48.5346949" lon="-2.0156010">
        <ele>81.371</ele>
        <time>2018-08-18T13:19:59.281Z</time>
      </trkpt>
      <trkpt lat="48.5348079" lon="-2.0153720">
        <ele>80.841</ele>
        <time>2018-08-18T13:20:02.186Z</time>
      </trkpt>
      <trkpt lat="48.5348702" lon="-2.0152175">
        <ele>80.096</ele>
        <time>2018-08-18T13:20:03.998Z</time>
      </trkpt>
      <trkpt lat="48.5349855" lon="-2.0149788">
        <ele>79.280</ele>
        <time>2018-08-18T13:20:06.932Z</time>
      </trkpt>
      <trkpt lat="48.5350993" lon="-2.0147255">
        <ele>78.470</ele>
        <time>2018-08-18T13:20:10.050Z</time>
      </trkpt>
      <trkpt lat="48.5352179" lon="-2.0145358">
        <ele>77.768</ele>
        <time>2018-08-18T13:20:12.893Z</time>
      </trkpt>
      <trkpt lat="48.5353058" lon="-2.0144445">
        <ele>77.130</ele>
        <time>2018-08-18T13:20:14.636Z</time>
      </trkpt>
      <trkpt lat="48.5353930" lon="-2.0143018">
        <ele>76.373</ele>
        <time>2018-08-18T13:20:16.652Z</time>
      </trkpt>
      <trkpt lat="48.5354732" lon="-2.0141614">
        <ele>75.472</ele>
        <time>2018-08-18T13:20:18.542Z</time>
      </trkpt>
      <trkpt lat="48.5355853" lon="-2.0139251">
        <ele>74.574</ele>
        <time>2018-08-18T13:20:21.593Z</time>
      </trkpt>
      <trkpt lat="48.5356375" lon="-2.0137750">
        <ele>73.843</ele>
        <time>2018-08-18T13:20:23.663Z</time>
      </trkpt>
      <trkpt lat="48.5356736" lon="-2.0136411">
        <ele>73.446</ele>
        <time>2018-08-18T13:20:25.663Z</time>
      </trkpt>
      <trkpt lat="48.5357125" lon="-2.0134726">
        <ele>73.351</ele>
        <time>2018-08-18T13:20:28.385Z</time>
      </trkpt>
      <trkpt lat="48.5357321" lon="-2.0133147">
        <ele>73.363</ele>
        <time>2018-08-18T13:20:30.981Z</time>
      </trkpt>
      <trkpt lat="48.5357304" lon="-2.0131543">
        <ele>73.213</ele>
        <time>2018-08-18T13:20:33.719Z</time>
      </trkpt>
      <trkpt lat="48.5357095" lon="-2.0130104">
        <ele>72.631</ele>
        <time>2018-08-18T13:20:36.413Z</time>
      </trkpt>
      <trkpt lat="48.5356505" lon="-2.0129075">
        <ele>71.707</ele>
        <time>2018-08-18T13:20:39.027Z</time>
      </trkpt>
      <trkpt lat="48.5355505" lon="-2.0128739">
        <ele>70.729</ele>
        <time>2018-08-18T13:20:42.067Z</time>
      </trkpt>
      <trkpt lat="48.5354611" lon="-2.0128491">
        <ele>69.847</ele>
        <time>2018-08-18T13:20:45.060Z</time>
      </trkpt>
      <trkpt lat="48.5353611" lon="-2.0128165">
        <ele>69.195</ele>
        <time>2018-08-18T13:20:49.000Z</time>
      </trkpt>
      <trkpt lat="48.5353611" lon="-2.0128165">
        <ele>68.900</ele>
        <time>2018-08-18T13:20:52.000Z</time>
      </trkpt>
      <trkpt lat="48.5353611" lon="-2.0128165">
        <ele>68.847</ele>
        <time>2018-08-18T13:21:27.564Z</time>
      </trkpt>
      <trkpt lat="48.5353004" lon="-2.0126685">
        <ele>68.850</ele>
        <time>2018-08-18T13:21:39.000Z</time>
      </trkpt>
      <trkpt lat="48.5353004" lon="-2.0126685">
        <ele>68.828</ele>
        <time>2018-08-18T13:21:46.000Z</time>
      </trkpt>
      <trkpt lat="48.5353004" lon="-2.0126685">
        <ele>68.795</ele>
        <time>2018-08-18T13:21:49.299Z</time>
      </trkpt>
      <trkpt lat="48.5352295" lon="-2.0123760">
        <ele>68.764</ele>
        <time>2018-08-18T13:22:02.325Z</time>
      </trkpt>
      <trkpt lat="48.5352221" lon="-2.0122339">
        <ele>68.540</ele>
        <time>2018-08-18T13:22:05.949Z</time>
      </trkpt>
      <trkpt lat="48.5352304" lon="-2.0120960">
        <ele>67.997</ele>
        <time>2018-08-18T13:22:09.574Z</time>
      </trkpt>
      <trkpt lat="48.5352113" lon="-2.0119389">
        <ele>67.451</ele>
        <time>2018-08-18T13:22:13.819Z</time>
      </trkpt>
      <trkpt lat="48.5351229" lon="-2.0118366">
        <ele>67.208</ele>
        <time>2018-08-18T13:22:18.169Z</time>
      </trkpt>
      <trkpt lat="48.5350175" lon="-2.0118033">
        <ele>67.187</ele>
        <time>2018-08-18T13:22:21.937Z</time>
      </trkpt>
      <trkpt lat="48.5349050" lon="-2.0117687">
        <ele>67.175</ele>
        <time>2018-08-18T13:22:25.565Z</time>
      </trkpt>
      <trkpt lat="48.5347939" lon="-2.0117253">
        <ele>67.031</ele>
        <time>2018-08-18T13:22:29.000Z</time>
      </trkpt>
      <trkpt lat="48.5347939" lon="-2.0117253">
        <ele>66.825</ele>
        <time>2018-08-18T13:22:31.000Z</time>
      </trkpt>
      <trkpt lat="48.5347939" lon="-2.0117253">
        <ele>66.701</ele>
        <time>2018-08-18T13:22:31.100Z</time>
      </trkpt>
      <trkpt lat="48.5346002" lon="-2.0116550">
        <ele>66.682</ele>
        <time>2018-08-18T13:22:39.274Z</time>
      </trkpt>
      <trkpt lat="48.5345132" lon="-2.0117010">
        <ele>66.697</ele>
        <time>2018-08-18T13:22:42.271Z</time>
      </trkpt>
      <trkpt lat="48.5344225" lon="-2.0116856">
        <ele>66.638</ele>
        <time>2018-08-18T13:22:45.264Z</time>
      </trkpt>
      <trkpt lat="48.5343358" lon="-2.0115892">
        <ele>66.439</ele>
        <time>2018-08-18T13:22:48.680Z</time>
      </trkpt>
      <trkpt lat="48.5342426" lon="-2.0115056">
        <ele>66.087</ele>
        <time>2018-08-18T13:22:51.991Z</time>
      </trkpt>
      <trkpt lat="48.5341386" lon="-2.0114652">
        <ele>65.627</ele>
        <time>2018-08-18T13:22:55.000Z</time>
      </trkpt>
      <trkpt lat="48.5341386" lon="-2.0114652">
        <ele>65.205</ele>
        <time>2018-08-18T13:22:57.000Z</time>
      </trkpt>
      <trkpt lat="48.5341386" lon="-2.0114652">
        <ele>64.987</ele>
        <time>2018-08-18T13:22:57.100Z</time>
      </trkpt>
      <trkpt lat="48.5338561" lon="-2.0113351">
        <ele>64.981</ele>
        <time>2018-08-18T13:23:05.635Z</time>
      </trkpt>
      <trkpt lat="48.5337582" lon="-2.0112958">
        <ele>64.728</ele>
        <time>2018-08-18T13:23:07.527Z</time>
      </trkpt>
      <trkpt lat="48.5336024" lon="-2.0112345">
        <ele>63.869</ele>
        <time>2018-08-18T13:23:10.351Z</time>
      </trkpt>
      <trkpt lat="48.5334890" lon="-2.0111849">
        <ele>62.746</ele>
        <time>2018-08-18T13:23:12.376Z</time>
      </trkpt>
      <trkpt lat="48.5333768" lon="-2.0111365">
        <ele>61.837</ele>
        <time>2018-08-18T13:23:14.390Z</time>
      </trkpt>
      <trkpt lat="48.5332078" lon="-2.0110712">
        <ele>61.268</ele>
        <time>2018-08-18T13:23:17.595Z</time>
      </trkpt>
      <trkpt lat="48.5330632" lon="-2.0110421">
        <ele>60.978</ele>
        <time>2018-08-18T13:23:20.742Z</time>
      </trkpt>
      <trkpt lat="48.5329388" lon="-2.0110116">
        <ele>60.777</ele>
        <time>2018-08-18T13:23:23.756Z</time>
      </trkpt>
      <trkpt lat="48.5328461" lon="-2.0109865">
        <ele>60.580</ele>
        <time>2018-08-18T13:23:25.989Z</time>
      </trkpt>
      <trkpt lat="48.5327121" lon="-2.0109704">
        <ele>60.338</ele>
        <time>2018-08-18T13:23:29.624Z</time>
      </trkpt>
      <trkpt lat="48.5325960" lon="-2.0109426">
        <ele>59.970</ele>
        <time>2018-08-18T13:23:33.617Z</time>
      </trkpt>
      <trkpt lat="48.5324925" lon="-2.0109336">
        <ele>59.496</ele>
        <time>2018-08-18T13:23:38.038Z</time>
      </trkpt>
      <trkpt lat="48.5324019" lon="-2.0109982">
        <ele>58.964</ele>
        <time>2018-08-18T13:23:42.086Z</time>
      </trkpt>
      <trkpt lat="48.5323319" lon="-2.0111062">
        <ele>58.323</ele>
        <time>2018-08-18T13:23:46.214Z</time>
      </trkpt>
      <trkpt lat="48.5322320" lon="-2.0111028">
        <ele>57.566</ele>
        <time>2018-08-18T13:23:50.130Z</time>
      </trkpt>
      <trkpt lat="48.5321350" lon="-2.0110034">
        <ele>56.848</ele>
        <time>2018-08-18T13:23:54.219Z</time>
      </trkpt>
      <trkpt lat="48.5320929" lon="-2.0108812">
        <ele>56.360</ele>
        <time>2018-08-18T13:23:57.634Z</time>
      </trkpt>
      <trkpt lat="48.5320299" lon="-2.0107745">
        <ele>56.301</ele>
        <time>2018-08-18T13:24:01.661Z</time>
      </trkpt>
      <trkpt lat="48.5320275" lon="-2.0106262">
        <ele>56.667</ele>
        <time>2018-08-18T13:24:06.724Z</time>
      </trkpt>
      <trkpt lat="48.5321036" lon="-2.0105372">
        <ele>57.074</ele>
        <time>2018-08-18T13:24:11.736Z</time>
      </trkpt>
      <trkpt lat="48.5321967" lon="-2.0104554">
        <ele>57.051</ele>
        <time>2018-08-18T13:24:16.977Z</time>
      </trkpt>
      <trkpt lat="48.5322042" lon="-2.0103090">
        <ele>56.474</ele>
        <time>2018-08-18T13:24:21.147Z</time>
      </trkpt>
      <trkpt lat="48.5321497" lon="-2.0101442">
        <ele>55.691</ele>
        <time>2018-08-18T13:24:25.631Z</time>
      </trkpt>
      <trkpt lat="48.5320849" lon="-2.0100298">
        <ele>55.160</ele>
        <time>2018-08-18T13:24:29.116Z</time>
      </trkpt>
      <trkpt lat="48.5320283" lon="-2.0099229">
        <ele>55.020</ele>
        <time>2018-08-18T13:24:32.316Z</time>
      </trkpt>
      <trkpt lat="48.5319722" lon="-2.0097908">
        <ele>55.460</ele>
        <time>2018-08-18T13:24:36.329Z</time>
      </trkpt>
      <trkpt lat="48.5319149" lon="-2.0096493">
        <ele>56.467</ele>
        <time>2018-08-18T13:24:40.780Z</time>
      </trkpt>
      <trkpt lat="48.5318509" lon="-2.0095094">
        <ele>57.419</ele>
        <time>2018-08-18T13:24:45.387Z</time>
      </trkpt>
      <trkpt lat="48.5318141" lon="-2.0093724">
        <ele>57.845</ele>
        <time>2018-08-18T13:24:49.317Z</time>
      </trkpt>
      <trkpt lat="48.5317651" lon="-2.0092538">
        <ele>57.906</ele>
        <time>2018-08-18T13:24:52.764Z</time>
      </trkpt>
      <trkpt lat="48.5317068" lon="-2.0091037">
        <ele>57.855</ele>
        <time>2018-08-18T13:24:56.739Z</time>
      </trkpt>
      <trkpt lat="48.5316555" lon="-2.0089806">
        <ele>57.586</ele>
        <time>2018-08-18T13:24:59.921Z</time>
      </trkpt>
      <trkpt lat="48.5316091" lon="-2.0088641">
        <ele>56.864</ele>
        <time>2018-08-18T13:25:02.901Z</time>
      </trkpt>
      <trkpt lat="48.5315706" lon="-2.0087055">
        <ele>55.964</ele>
        <time>2018-08-18T13:25:06.786Z</time>
      </trkpt>
      <trkpt lat="48.5315223" lon="-2.0085638">
        <ele>55.388</ele>
        <time>2018-08-18T13:25:10.537Z</time>
      </trkpt>
      <trkpt lat="48.5314538" lon="-2.0084311">
        <ele>55.263</ele>
        <time>2018-08-18T13:25:14.333Z</time>
      </trkpt>
      <trkpt lat="48.5313885" lon="-2.0083115">
        <ele>55.412</ele>
        <time>2018-08-18T13:25:17.591Z</time>
      </trkpt>
      <trkpt lat="48.5313472" lon="-2.0081732">
        <ele>55.619</ele>
        <time>2018-08-18T13:25:20.699Z</time>
      </trkpt>
      <trkpt lat="48.5312976" lon="-2.0080114">
        <ele>55.769</ele>
        <time>2018-08-18T13:25:24.352Z</time>
      </trkpt>
      <trkpt lat="48.5312558" lon="-2.0078863">
        <ele>55.765</ele>
        <time>2018-08-18T13:25:27.218Z</time>
      </trkpt>
      <trkpt lat="48.5312085" lon="-2.0077610">
        <ele>55.578</ele>
        <time>2018-08-18T13:25:30.185Z</time>
      </trkpt>
      <trkpt lat="48.5311647" lon="-2.0076418">
        <ele>55.375</ele>
        <time>2018-08-18T13:25:33.039Z</time>
      </trkpt>
      <trkpt lat="48.5311218" lon="-2.0075198">
        <ele>55.300</ele>
        <time>2018-08-18T13:25:36.058Z</time>
      </trkpt>
      <trkpt lat="48.5310738" lon="-2.0073725">
        <ele>55.287</ele>
        <time>2018-08-18T13:25:39.833Z</time>
      </trkpt>
      <trkpt lat="48.5310306" lon="-2.0072377">
        <ele>55.247</ele>
        <time>2018-08-18T13:25:43.492Z</time>
      </trkpt>
      <trkpt lat="48.5309913" lon="-2.0071028">
        <ele>55.227</ele>
        <time>2018-08-18T13:25:47.261Z</time>
      </trkpt>
      <trkpt lat="48.5309573" lon="-2.0069669">
        <ele>55.304</ele>
        <time>2018-08-18T13:25:51.124Z</time>
      </trkpt>
      <trkpt lat="48.5309031" lon="-2.0068158">
        <ele>55.419</ele>
        <time>2018-08-18T13:25:55.821Z</time>
      </trkpt>
      <trkpt lat="48.5308523" lon="-2.0066872">
        <ele>55.466</ele>
        <time>2018-08-18T13:25:59.955Z</time>
      </trkpt>
      <trkpt lat="48.5308051" lon="-2.0065343">
        <ele>55.407</ele>
        <time>2018-08-18T13:26:04.647Z</time>
      </trkpt>
      <trkpt lat="48.5307620" lon="-2.0063804">
        <ele>55.239</ele>
        <time>2018-08-18T13:26:09.479Z</time>
      </trkpt>
      <trkpt lat="48.5307294" lon="-2.0062273">
        <ele>55.027</ele>
        <time>2018-08-18T13:26:14.424Z</time>
      </trkpt>
      <trkpt lat="48.5307421" lon="-2.0060786">
        <ele>54.916</ele>
        <time>2018-08-18T13:26:19.467Z</time>
      </trkpt>
      <trkpt lat="48.5307930" lon="-2.0059404">
        <ele>54.951</ele>
        <time>2018-08-18T13:26:24.874Z</time>
      </trkpt>
      <trkpt lat="48.5308278" lon="-2.0057989">
        <ele>55.041</ele>
        <time>2018-08-18T13:26:30.000Z</time>
      </trkpt>
      <trkpt lat="48.5308278" lon="-2.0057989">
        <ele>55.089</ele>
        <time>2018-08-18T13:26:33.000Z</time>
      </trkpt>
      <trkpt lat="48.5308278" lon="-2.0057989">
        <ele>55.081</ele>
        <time>2018-08-18T13:26:34.281Z</time>
      </trkpt>
      <trkpt lat="48.5308601" lon="-2.0056258">
        <ele>55.051</ele>
        <time>2018-08-18T13:26:43.037Z</time>
      </trkpt>
      <trkpt lat="48.5307790" lon="-2.0055309">
        <ele>55.207</ele>
        <time>2018-08-18T13:26:47.642Z</time>
      </trkpt>
      <trkpt lat="48.5306869" lon="-2.0055333">
        <ele>55.872</ele>
        <time>2018-08-18T13:26:50.980Z</time>
      </trkpt>
      <trkpt lat="48.5305748" lon="-2.0055394">
        <ele>57.610</ele>
        <time>2018-08-18T13:26:54.463Z</time>
      </trkpt>
      <trkpt lat="48.5304640" lon="-2.0055218">
        <ele>57.728</ele>
        <time>2018-08-18T13:26:57.648Z</time>
      </trkpt>
      <trkpt lat="48.5303755" lon="-2.0054980">
        <ele>57.547</ele>
        <time>2018-08-18T13:27:00.120Z</time>
      </trkpt>
      <trkpt lat="48.5302703" lon="-2.0054826">
        <ele>57.386</ele>
        <time>2018-08-18T13:27:03.000Z</time>
      </trkpt>
      <trkpt lat="48.5302703" lon="-2.0054826">
        <ele>57.316</ele>
        <time>2018-08-18T13:27:03.000Z</time>
      </trkpt>
      <trkpt lat="48.5302703" lon="-2.0054826">
        <ele>57.293</ele>
        <time>2018-08-18T13:27:03.100Z</time>
      </trkpt>
      <trkpt lat="48.5301177" lon="-2.0054709">
        <ele>57.282</ele>
        <time>2018-08-18T13:27:10.512Z</time>
      </trkpt>
      <trkpt lat="48.5300182" lon="-2.0054558">
        <ele>57.312</ele>
        <time>2018-08-18T13:27:13.749Z</time>
      </trkpt>
      <trkpt lat="48.5299253" lon="-2.0054498">
        <ele>57.454</ele>
        <time>2018-08-18T13:27:16.880Z</time>
      </trkpt>
      <trkpt lat="48.5298112" lon="-2.0054378">
        <ele>57.701</ele>
        <time>2018-08-18T13:27:20.778Z</time>
      </trkpt>
      <trkpt lat="48.5297191" lon="-2.0054298">
        <ele>57.808</ele>
        <time>2018-08-18T13:27:23.894Z</time>
      </trkpt>
      <trkpt lat="48.5296281" lon="-2.0054220">
        <ele>57.592</ele>
        <time>2018-08-18T13:27:26.866Z</time>
      </trkpt>
      <trkpt lat="48.5295296" lon="-2.0054067">
        <ele>57.205</ele>
        <time>2018-08-18T13:27:29.955Z</time>
      </trkpt>
      <trkpt lat="48.5294341" lon="-2.0053752">
        <ele>56.893</ele>
        <time>2018-08-18T13:27:32.974Z</time>
      </trkpt>
      <trkpt lat="48.5293509" lon="-2.0053199">
        <ele>56.742</ele>
        <time>2018-08-18T13:27:35.831Z</time>
      </trkpt>
      <trkpt lat="48.5292760" lon="-2.0052393">
        <ele>56.611</ele>
        <time>2018-08-18T13:27:38.767Z</time>
      </trkpt>
      <trkpt lat="48.5291764" lon="-2.0051413">
        <ele>56.361</ele>
        <time>2018-08-18T13:27:42.553Z</time>
      </trkpt>
      <trkpt lat="48.5290918" lon="-2.0050657">
        <ele>56.108</ele>
        <time>2018-08-18T13:27:45.627Z</time>
      </trkpt>
      <trkpt lat="48.5290106" lon="-2.0049843">
        <ele>56.034</ele>
        <time>2018-08-18T13:27:48.640Z</time>
      </trkpt>
      <trkpt lat="48.5289294" lon="-2.0049057">
        <ele>56.292</ele>
        <time>2018-08-18T13:27:51.640Z</time>
      </trkpt>
      <trkpt lat="48.5288558" lon="-2.0048272">
        <ele>56.893</ele>
        <time>2018-08-18T13:27:54.471Z</time>
      </trkpt>
      <trkpt lat="48.5287782" lon="-2.0047392">
        <ele>57.569</ele>
        <time>2018-08-18T13:27:57.524Z</time>
      </trkpt>
      <trkpt lat="48.5286986" lon="-2.0046536">
        <ele>58.050</ele>
        <time>2018-08-18T13:28:00.677Z</time>
      </trkpt>
      <trkpt lat="48.5286104" lon="-2.0045551">
        <ele>58.230</ele>
        <time>2018-08-18T13:28:04.398Z</time>
      </trkpt>
      <trkpt lat="48.5285386" lon="-2.0044590">
        <ele>58.148</ele>
        <time>2018-08-18T13:28:07.918Z</time>
      </trkpt>
      <trkpt lat="48.5284596" lon="-2.0043444">
        <ele>58.068</ele>
        <time>2018-08-18T13:28:12.205Z</time>
      </trkpt>
      <trkpt lat="48.5283875" lon="-2.0042491">
        <ele>58.331</ele>
        <time>2018-08-18T13:28:16.183Z</time>
      </trkpt>
      <trkpt lat="48.5283183" lon="-2.0041570">
        <ele>58.950</ele>
        <time>2018-08-18T13:28:20.114Z</time>
      </trkpt>
      <trkpt lat="48.5282354" lon="-2.0040694">
        <ele>59.549</ele>
        <time>2018-08-18T13:28:24.537Z</time>
      </trkpt>
      <trkpt lat="48.5281524" lon="-2.0039936">
        <ele>59.857</ele>
        <time>2018-08-18T13:28:28.996Z</time>
      </trkpt>
      <trkpt lat="48.5280649" lon="-2.0039279">
        <ele>59.876</ele>
        <time>2018-08-18T13:28:33.569Z</time>
      </trkpt>
      <trkpt lat="48.5279763" lon="-2.0038703">
        <ele>59.677</ele>
        <time>2018-08-18T13:28:38.000Z</time>
      </trkpt>
      <trkpt lat="48.5279763" lon="-2.0038703">
        <ele>59.420</ele>
        <time>2018-08-18T13:28:38.000Z</time>
      </trkpt>
      <trkpt lat="48.5279763" lon="-2.0038703">
        <ele>59.272</ele>
        <time>2018-08-18T13:28:38.100Z</time>
      </trkpt>
      <trkpt lat="48.5278686" lon="-2.0037335">
        <ele>59.294</ele>
        <time>2018-08-18T13:28:44.994Z</time>
      </trkpt>
      <trkpt lat="48.5277988" lon="-2.0036463">
        <ele>59.446</ele>
        <time>2018-08-18T13:28:47.775Z</time>
      </trkpt>
      <trkpt lat="48.5277088" lon="-2.0035527">
        <ele>59.633</ele>
        <time>2018-08-18T13:28:51.139Z</time>
      </trkpt>
      <trkpt lat="48.5276185" lon="-2.0034685">
        <ele>59.781</ele>
        <time>2018-08-18T13:28:54.510Z</time>
      </trkpt>
      <trkpt lat="48.5275220" lon="-2.0034036">
        <ele>59.843</ele>
        <time>2018-08-18T13:28:58.000Z</time>
      </trkpt>
      <trkpt lat="48.5275220" lon="-2.0034036">
        <ele>59.819</ele>
        <time>2018-08-18T13:29:12.000Z</time>
      </trkpt>
      <trkpt lat="48.5275220" lon="-2.0034036">
        <ele>59.770</ele>
        <time>2018-08-18T13:29:12.100Z</time>
      </trkpt>
      <trkpt lat="48.5273393" lon="-2.0032580">
        <ele>59.744</ele>
        <time>2018-08-18T13:29:25.916Z</time>
      </trkpt>
      <trkpt lat="48.5272315" lon="-2.0031842">
        <ele>59.640</ele>
        <time>2018-08-18T13:29:30.337Z</time>
      </trkpt>
      <trkpt lat="48.5271748" lon="-2.0030618">
        <ele>59.384</ele>
        <time>2018-08-18T13:29:35.120Z</time>
      </trkpt>
      <trkpt lat="48.5272596" lon="-2.0029615">
        <ele>59.118</ele>
        <time>2018-08-18T13:29:42.352Z</time>
      </trkpt>
      <trkpt lat="48.5273575" lon="-2.0029170">
        <ele>58.979</ele>
        <time>2018-08-18T13:29:48.273Z</time>
      </trkpt>
      <trkpt lat="48.5274579" lon="-2.0028572">
        <ele>58.930</ele>
        <time>2018-08-18T13:29:54.360Z</time>
      </trkpt>
      <trkpt lat="48.5275452" lon="-2.0028118">
        <ele>58.856</ele>
        <time>2018-08-18T13:29:59.668Z</time>
      </trkpt>
      <trkpt lat="48.5276448" lon="-2.0027792">
        <ele>58.699</ele>
        <time>2018-08-18T13:30:05.013Z</time>
      </trkpt>
      <trkpt lat="48.5277534" lon="-2.0028003">
        <ele>58.550</ele>
        <time>2018-08-18T13:30:09.710Z</time>
      </trkpt>
      <trkpt lat="48.5278493" lon="-2.0027517">
        <ele>58.500</ele>
        <time>2018-08-18T13:30:13.352Z</time>
      </trkpt>
      <trkpt lat="48.5279051" lon="-2.0026026">
        <ele>58.473</ele>
        <time>2018-08-18T13:30:17.119Z</time>
      </trkpt>
      <trkpt lat="48.5279465" lon="-2.0024378">
        <ele>58.389</ele>
        <time>2018-08-18T13:30:20.742Z</time>
      </trkpt>
      <trkpt lat="48.5279756" lon="-2.0022901">
        <ele>58.172</ele>
        <time>2018-08-18T13:30:23.495Z</time>
      </trkpt>
      <trkpt lat="48.5280117" lon="-2.0021485">
        <ele>57.737</ele>
        <time>2018-08-18T13:30:25.887Z</time>
      </trkpt>
      <trkpt lat="48.5280445" lon="-2.0019850">
        <ele>57.094</ele>
        <time>2018-08-18T13:30:28.345Z</time>
      </trkpt>
      <trkpt lat="48.5280797" lon="-2.0017751">
        <ele>56.392</ele>
        <time>2018-08-18T13:30:31.579Z</time>
      </trkpt>
      <trkpt lat="48.5281015" lon="-2.0016332">
        <ele>55.773</ele>
        <time>2018-08-18T13:30:34.059Z</time>
      </trkpt>
      <trkpt lat="48.5281102" lon="-2.0014876">
        <ele>55.270</ele>
        <time>2018-08-18T13:30:36.886Z</time>
      </trkpt>
      <trkpt lat="48.5280913" lon="-2.0013041">
        <ele>54.811</ele>
        <time>2018-08-18T13:30:41.046Z</time>
      </trkpt>
      <trkpt lat="48.5280937" lon="-2.0011583">
        <ele>54.269</ele>
        <time>2018-08-18T13:30:44.743Z</time>
      </trkpt>
      <trkpt lat="48.5281789" lon="-2.0010930">
        <ele>53.490</ele>
        <time>2018-08-18T13:30:48.749Z</time>
      </trkpt>
      <trkpt lat="48.5282691" lon="-2.0010775">
        <ele>52.588</ele>
        <time>2018-08-18T13:30:52.754Z</time>
      </trkpt>
      <trkpt lat="48.5283758" lon="-2.0010831">
        <ele>51.860</ele>
        <time>2018-08-18T13:30:57.607Z</time>
      </trkpt>
      <trkpt lat="48.5284704" lon="-2.0010881">
        <ele>51.358</ele>
        <time>2018-08-18T13:31:02.045Z</time>
      </trkpt>
      <trkpt lat="48.5285776" lon="-2.0010732">
        <ele>50.995</ele>
        <time>2018-08-18T13:31:07.197Z</time>
      </trkpt>
      <trkpt lat="48.5286843" lon="-2.0010506">
        <ele>50.693</ele>
        <time>2018-08-18T13:31:12.507Z</time>
      </trkpt>
      <trkpt lat="48.5287879" lon="-2.0010223">
        <ele>50.378</ele>
        <time>2018-08-18T13:31:18.286Z</time>
      </trkpt>
      <trkpt lat="48.5288851" lon="-2.0010073">
        <ele>50.302</ele>
        <time>2018-08-18T13:31:24.228Z</time>
      </trkpt>
      <trkpt lat="48.5289766" lon="-2.0009931">
        <ele>50.653</ele>
        <time>2018-08-18T13:31:29.445Z</time>
      </trkpt>
      <trkpt lat="48.5290703" lon="-2.0009870">
        <ele>50.917</ele>
        <time>2018-08-18T13:31:34.023Z</time>
      </trkpt>
      <trkpt lat="48.5291659" lon="-2.0009772">
        <ele>50.610</ele>
        <time>2018-08-18T13:31:38.437Z</time>
      </trkpt>
      <trkpt lat="48.5292711" lon="-2.0009725">
        <ele>50.028</ele>
        <time>2018-08-18T13:31:43.765Z</time>
      </trkpt>
      <trkpt lat="48.5293709" lon="-2.0009688">
        <ele>49.633</ele>
        <time>2018-08-18T13:31:49.220Z</time>
      </trkpt>
      <trkpt lat="48.5294699" lon="-2.0009717">
        <ele>49.507</ele>
        <time>2018-08-18T13:31:54.759Z</time>
      </trkpt>
      <trkpt lat="48.5295716" lon="-2.0009446">
        <ele>49.692</ele>
        <time>2018-08-18T13:31:59.739Z</time>
      </trkpt>
      <trkpt lat="48.5296278" lon="-2.0008386">
        <ele>50.192</ele>
        <time>2018-08-18T13:32:03.796Z</time>
      </trkpt>
      <trkpt lat="48.5296903" lon="-2.0007058">
        <ele>50.732</ele>
        <time>2018-08-18T13:32:08.564Z</time>
      </trkpt>
      <trkpt lat="48.5297613" lon="-2.0006025">
        <ele>51.069</ele>
        <time>2018-08-18T13:32:12.906Z</time>
      </trkpt>
      <trkpt lat="48.5298509" lon="-2.0005038">
        <ele>51.294</ele>
        <time>2018-08-18T13:32:17.905Z</time>
      </trkpt>
      <trkpt lat="48.5299506" lon="-2.0004445">
        <ele>51.543</ele>
        <time>2018-08-18T13:32:22.892Z</time>
      </trkpt>
      <trkpt lat="48.5300106" lon="-2.0003266">
        <ele>51.848</ele>
        <time>2018-08-18T13:32:27.480Z</time>
      </trkpt>
      <trkpt lat="48.5300661" lon="-2.0001901">
        <ele>52.162</ele>
        <time>2018-08-18T13:32:32.373Z</time>
      </trkpt>
      <trkpt lat="48.5301297" lon="-2.0000714">
        <ele>52.413</ele>
        <time>2018-08-18T13:32:37.000Z</time>
      </trkpt>
      <trkpt lat="48.5302083" lon="-1.9999664">
        <ele>52.566</ele>
        <time>2018-08-18T13:32:41.852Z</time>
      </trkpt>
      <trkpt lat="48.5302939" lon="-1.9998855">
        <ele>52.616</ele>
        <time>2018-08-18T13:32:46.468Z</time>
      </trkpt>
      <trkpt lat="48.5303670" lon="-1.9997813">
        <ele>52.573</ele>
        <time>2018-08-18T13:32:50.905Z</time>
      </trkpt>
      <trkpt lat="48.5304234" lon="-1.9996692">
        <ele>52.498</ele>
        <time>2018-08-18T13:32:55.026Z</time>
      </trkpt>
      <trkpt lat="48.5304968" lon="-1.9995553">
        <ele>52.462</ele>
        <time>2018-08-18T13:32:59.679Z</time>
      </trkpt>
      <trkpt lat="48.5305642" lon="-1.9994452">
        <ele>52.481</ele>
        <time>2018-08-18T13:33:03.896Z</time>
      </trkpt>
      <trkpt lat="48.5306335" lon="-1.9993400">
        <ele>52.541</ele>
        <time>2018-08-18T13:33:07.935Z</time>
      </trkpt>
      <trkpt lat="48.5306959" lon="-1.9992353">
        <ele>52.648</ele>
        <time>2018-08-18T13:33:11.754Z</time>
      </trkpt>
      <trkpt lat="48.5307564" lon="-1.9991339">
        <ele>52.822</ele>
        <time>2018-08-18T13:33:15.467Z</time>
      </trkpt>
      <trkpt lat="48.5308164" lon="-1.9990328">
        <ele>53.052</ele>
        <time>2018-08-18T13:33:19.139Z</time>
      </trkpt>
      <trkpt lat="48.5308786" lon="-1.9989309">
        <ele>53.261</ele>
        <time>2018-08-18T13:33:22.830Z</time>
      </trkpt>
      <trkpt lat="48.5309423" lon="-1.9988202">
        <ele>53.381</ele>
        <time>2018-08-18T13:33:26.693Z</time>
      </trkpt>
      <trkpt lat="48.5310090" lon="-1.9987204">
        <ele>53.437</ele>
        <time>2018-08-18T13:33:30.406Z</time>
      </trkpt>
      <trkpt lat="48.5310758" lon="-1.9986157">
        <ele>53.521</ele>
        <time>2018-08-18T13:33:34.212Z</time>
      </trkpt>
      <trkpt lat="48.5311422" lon="-1.9985124">
        <ele>53.661</ele>
        <time>2018-08-18T13:33:38.016Z</time>
      </trkpt>
      <trkpt lat="48.5312081" lon="-1.9984184">
        <ele>53.817</ele>
        <time>2018-08-18T13:33:41.662Z</time>
      </trkpt>
      <trkpt lat="48.5312776" lon="-1.9983232">
        <ele>53.942</ele>
        <time>2018-08-18T13:33:45.456Z</time>
      </trkpt>
      <trkpt lat="48.5313490" lon="-1.9982305">
        <ele>54.014</ele>
        <time>2018-08-18T13:33:49.307Z</time>
      </trkpt>
      <trkpt lat="48.5314359" lon="-1.9981334">
        <ele>54.034</ele>
        <time>2018-08-18T13:33:53.874Z</time>
      </trkpt>
      <trkpt lat="48.5315280" lon="-1.9980534">
        <ele>54.027</ele>
        <time>2018-08-18T13:33:58.767Z</time>
      </trkpt>
      <trkpt lat="48.5316082" lon="-1.9979580">
        <ele>53.998</ele>
        <time>2018-08-18T13:34:03.822Z</time>
      </trkpt>
      <trkpt lat="48.5316915" lon="-1.9978835">
        <ele>53.926</ele>
        <time>2018-08-18T13:34:08.732Z</time>
      </trkpt>
      <trkpt lat="48.5317756" lon="-1.9978105">
        <ele>53.811</ele>
        <time>2018-08-18T13:34:13.510Z</time>
      </trkpt>
      <trkpt lat="48.5318680" lon="-1.9977357">
        <ele>53.714</ele>
        <time>2018-08-18T13:34:18.488Z</time>
      </trkpt>
      <trkpt lat="48.5319547" lon="-1.9976576">
        <ele>53.700</ele>
        <time>2018-08-18T13:34:23.272Z</time>
      </trkpt>
      <trkpt lat="48.5320463" lon="-1.9975765">
        <ele>53.732</ele>
        <time>2018-08-18T13:34:28.463Z</time>
      </trkpt>
      <trkpt lat="48.5321288" lon="-1.9975229">
        <ele>53.630</ele>
        <time>2018-08-18T13:34:33.126Z</time>
      </trkpt>
      <trkpt lat="48.5322138" lon="-1.9974438">
        <ele>53.281</ele>
        <time>2018-08-18T13:34:38.476Z</time>
      </trkpt>
      <trkpt lat="48.5323056" lon="-1.9973893">
        <ele>52.848</ele>
        <time>2018-08-18T13:34:43.665Z</time>
      </trkpt>
      <trkpt lat="48.5323972" lon="-1.9973412">
        <ele>52.731</ele>
        <time>2018-08-18T13:34:48.531Z</time>
      </trkpt>
      <trkpt lat="48.5324852" lon="-1.9972836">
        <ele>53.075</ele>
        <time>2018-08-18T13:34:53.229Z</time>
      </trkpt>
      <trkpt lat="48.5325713" lon="-1.9972335">
        <ele>53.513</ele>
        <time>2018-08-18T13:34:57.761Z</time>
      </trkpt>
      <trkpt lat="48.5326567" lon="-1.9971855">
        <ele>53.706</ele>
        <time>2018-08-18T13:35:02.338Z</time>
      </trkpt>
      <trkpt lat="48.5327425" lon="-1.9971005">
        <ele>53.722</ele>
        <time>2018-08-18T13:35:07.483Z</time>
      </trkpt>
      <trkpt lat="48.5328151" lon="-1.9970199">
        <ele>53.854</ele>
        <time>2018-08-18T13:35:11.725Z</time>
      </trkpt>
      <trkpt lat="48.5328856" lon="-1.9969203">
        <ele>54.294</ele>
        <time>2018-08-18T13:35:15.915Z</time>
      </trkpt>
      <trkpt lat="48.5329788" lon="-1.9968360">
        <ele>54.844</ele>
        <time>2018-08-18T13:35:20.440Z</time>
      </trkpt>
      <trkpt lat="48.5330696" lon="-1.9967449">
        <ele>55.075</ele>
        <time>2018-08-18T13:35:25.000Z</time>
      </trkpt>
      <trkpt lat="48.5330696" lon="-1.9967449">
        <ele>54.873</ele>
        <time>2018-08-18T13:35:27.000Z</time>
      </trkpt>
      <trkpt lat="48.5330696" lon="-1.9967449">
        <ele>54.600</ele>
        <time>2018-08-18T13:35:27.100Z</time>
      </trkpt>
      <trkpt lat="48.5332509" lon="-1.9965382">
        <ele>54.598</ele>
        <time>2018-08-18T13:35:41.658Z</time>
      </trkpt>
      <trkpt lat="48.5333286" lon="-1.9964647">
        <ele>54.762</ele>
        <time>2018-08-18T13:35:45.542Z</time>
      </trkpt>
      <trkpt lat="48.5334105" lon="-1.9963895">
        <ele>54.745</ele>
        <time>2018-08-18T13:35:49.678Z</time>
      </trkpt>
      <trkpt lat="48.5334951" lon="-1.9963108">
        <ele>54.390</ele>
        <time>2018-08-18T13:35:53.831Z</time>
      </trkpt>
      <trkpt lat="48.5335629" lon="-1.9962210">
        <ele>53.917</ele>
        <time>2018-08-18T13:35:57.603Z</time>
      </trkpt>
      <trkpt lat="48.5336448" lon="-1.9961383">
        <ele>53.643</ele>
        <time>2018-08-18T13:36:01.985Z</time>
      </trkpt>
      <trkpt lat="48.5337293" lon="-1.9960275">
        <ele>53.724</ele>
        <time>2018-08-18T13:36:07.102Z</time>
      </trkpt>
      <trkpt lat="48.5338049" lon="-1.9959073">
        <ele>54.075</ele>
        <time>2018-08-18T13:36:12.104Z</time>
      </trkpt>
      <trkpt lat="48.5338468" lon="-1.9957754">
        <ele>54.489</ele>
        <time>2018-08-18T13:36:16.850Z</time>
      </trkpt>
      <trkpt lat="48.5338826" lon="-1.9956466">
        <ele>54.821</ele>
        <time>2018-08-18T13:36:22.000Z</time>
      </trkpt>
      <trkpt lat="48.5338826" lon="-1.9956466">
        <ele>54.978</ele>
        <time>2018-08-18T13:36:40.000Z</time>
      </trkpt>
      <trkpt lat="48.5338826" lon="-1.9956466">
        <ele>54.939</ele>
        <time>2018-08-18T13:37:52.191Z</time>
      </trkpt>
      <trkpt lat="48.5339393" lon="-1.9953520">
        <ele>54.832</ele>
        <time>2018-08-18T13:38:06.851Z</time>
      </trkpt>
      <trkpt lat="48.5339383" lon="-1.9952132">
        <ele>54.783</ele>
        <time>2018-08-18T13:38:11.444Z</time>
      </trkpt>
      <trkpt lat="48.5339364" lon="-1.9950732">
        <ele>54.899</ele>
        <time>2018-08-18T13:38:15.956Z</time>
      </trkpt>
      <trkpt lat="48.5339400" lon="-1.9949049">
        <ele>55.354</ele>
        <time>2018-08-18T13:38:20.934Z</time>
      </trkpt>
      <trkpt lat="48.5339455" lon="-1.9947622">
        <ele>56.083</ele>
        <time>2018-08-18T13:38:25.035Z</time>
      </trkpt>
      <trkpt lat="48.5339418" lon="-1.9946199">
        <ele>56.695</ele>
        <time>2018-08-18T13:38:29.081Z</time>
      </trkpt>
      <trkpt lat="48.5339335" lon="-1.9944720">
        <ele>57.040</ele>
        <time>2018-08-18T13:38:33.240Z</time>
      </trkpt>
      <trkpt lat="48.5339346" lon="-1.9943262">
        <ele>57.299</ele>
        <time>2018-08-18T13:38:37.270Z</time>
      </trkpt>
      <trkpt lat="48.5339296" lon="-1.9941749">
        <ele>57.561</ele>
        <time>2018-08-18T13:38:41.497Z</time>
      </trkpt>
      <trkpt lat="48.5339222" lon="-1.9940334">
        <ele>57.885</ele>
        <time>2018-08-18T13:38:45.498Z</time>
      </trkpt>
      <trkpt lat="48.5339234" lon="-1.9938931">
        <ele>58.336</ele>
        <time>2018-08-18T13:38:49.353Z</time>
      </trkpt>
      <trkpt lat="48.5339313" lon="-1.9937470">
        <ele>58.834</ele>
        <time>2018-08-18T13:38:53.349Z</time>
      </trkpt>
      <trkpt lat="48.5339288" lon="-1.9935991">
        <ele>59.330</ele>
        <time>2018-08-18T13:38:57.506Z</time>
      </trkpt>
      <trkpt lat="48.5339216" lon="-1.9934361">
        <ele>59.873</ele>
        <time>2018-08-18T13:39:02.197Z</time>
      </trkpt>
      <trkpt lat="48.5339243" lon="-1.9932978">
        <ele>60.400</ele>
        <time>2018-08-18T13:39:06.127Z</time>
      </trkpt>
      <trkpt lat="48.5339349" lon="-1.9931590">
        <ele>60.796</ele>
        <time>2018-08-18T13:39:10.105Z</time>
      </trkpt>
      <trkpt lat="48.5339372" lon="-1.9929903">
        <ele>61.082</ele>
        <time>2018-08-18T13:39:14.831Z</time>
      </trkpt>
      <trkpt lat="48.5339349" lon="-1.9928461">
        <ele>61.298</ele>
        <time>2018-08-18T13:39:18.666Z</time>
      </trkpt>
      <trkpt lat="48.5339317" lon="-1.9926845">
        <ele>61.347</ele>
        <time>2018-08-18T13:39:22.702Z</time>
      </trkpt>
      <trkpt lat="48.5339323" lon="-1.9925194">
        <ele>61.185</ele>
        <time>2018-08-18T13:39:26.687Z</time>
      </trkpt>
      <trkpt lat="48.5339344" lon="-1.9923603">
        <ele>60.953</ele>
        <time>2018-08-18T13:39:30.482Z</time>
      </trkpt>
      <trkpt lat="48.5339325" lon="-1.9921938">
        <ele>60.785</ele>
        <time>2018-08-18T13:39:34.402Z</time>
      </trkpt>
      <trkpt lat="48.5339364" lon="-1.9920264">
        <ele>60.720</ele>
        <time>2018-08-18T13:39:38.274Z</time>
      </trkpt>
      <trkpt lat="48.5339357" lon="-1.9918548">
        <ele>60.781</ele>
        <time>2018-08-18T13:39:42.209Z</time>
      </trkpt>
      <trkpt lat="48.5339470" lon="-1.9916789">
        <ele>60.920</ele>
        <time>2018-08-18T13:39:46.384Z</time>
      </trkpt>
      <trkpt lat="48.5339675" lon="-1.9915153">
        <ele>61.041</ele>
        <time>2018-08-18T13:39:50.449Z</time>
      </trkpt>
      <trkpt lat="48.5340012" lon="-1.9913578">
        <ele>61.093</ele>
        <time>2018-08-18T13:39:54.406Z</time>
      </trkpt>
      <trkpt lat="48.5340472" lon="-1.9911977">
        <ele>61.137</ele>
        <time>2018-08-18T13:39:58.472Z</time>
      </trkpt>
      <trkpt lat="48.5340960" lon="-1.9910365">
        <ele>61.223</ele>
        <time>2018-08-18T13:40:02.684Z</time>
      </trkpt>
      <trkpt lat="48.5341456" lon="-1.9908888">
        <ele>61.291</ele>
        <time>2018-08-18T13:40:06.718Z</time>
      </trkpt>
      <trkpt lat="48.5341972" lon="-1.9907526">
        <ele>61.263</ele>
        <time>2018-08-18T13:40:10.581Z</time>
      </trkpt>
      <trkpt lat="48.5342478" lon="-1.9906188">
        <ele>61.144</ele>
        <time>2018-08-18T13:40:14.471Z</time>
      </trkpt>
      <trkpt lat="48.5343017" lon="-1.9904929">
        <ele>60.949</ele>
        <time>2018-08-18T13:40:18.529Z</time>
      </trkpt>
      <trkpt lat="48.5343451" lon="-1.9903677">
        <ele>60.718</ele>
        <time>2018-08-18T13:40:23.091Z</time>
      </trkpt>
      <trkpt lat="48.5342977" lon="-1.9902319">
        <ele>60.603</ele>
        <time>2018-08-18T13:40:29.017Z</time>
      </trkpt>
      <trkpt lat="48.5342287" lon="-1.9901123">
        <ele>60.775</ele>
        <time>2018-08-18T13:40:35.161Z</time>
      </trkpt>
      <trkpt lat="48.5341701" lon="-1.9900059">
        <ele>61.231</ele>
        <time>2018-08-18T13:40:40.077Z</time>
      </trkpt>
      <trkpt lat="48.5341133" lon="-1.9898903">
        <ele>61.764</ele>
        <time>2018-08-18T13:40:44.938Z</time>
      </trkpt>
      <trkpt lat="48.5340597" lon="-1.9897612">
        <ele>62.192</ele>
        <time>2018-08-18T13:40:50.004Z</time>
      </trkpt>
      <trkpt lat="48.5340187" lon="-1.9896299">
        <ele>62.580</ele>
        <time>2018-08-18T13:40:54.830Z</time>
      </trkpt>
      <trkpt lat="48.5339903" lon="-1.9894894">
        <ele>62.990</ele>
        <time>2018-08-18T13:40:59.730Z</time>
      </trkpt>
      <trkpt lat="48.5339642" lon="-1.9893430">
        <ele>63.305</ele>
        <time>2018-08-18T13:41:04.751Z</time>
      </trkpt>
      <trkpt lat="48.5339464" lon="-1.9891929">
        <ele>63.550</ele>
        <time>2018-08-18T13:41:09.502Z</time>
      </trkpt>
      <trkpt lat="48.5339358" lon="-1.9890569">
        <ele>63.853</ele>
        <time>2018-08-18T13:41:13.319Z</time>
      </trkpt>
      <trkpt lat="48.5339299" lon="-1.9888974">
        <ele>64.149</ele>
        <time>2018-08-18T13:41:17.388Z</time>
      </trkpt>
      <trkpt lat="48.5339274" lon="-1.9887296">
        <ele>64.311</ele>
        <time>2018-08-18T13:41:21.357Z</time>
      </trkpt>
      <trkpt lat="48.5339254" lon="-1.9885534">
        <ele>64.367</ele>
        <time>2018-08-18T13:41:25.327Z</time>
      </trkpt>
      <trkpt lat="48.5339277" lon="-1.9884173">
        <ele>64.410</ele>
        <time>2018-08-18T13:41:28.258Z</time>
      </trkpt>
      <trkpt lat="48.5339278" lon="-1.9882746">
        <ele>64.461</ele>
        <time>2018-08-18T13:41:31.196Z</time>
      </trkpt>
      <trkpt lat="48.5339301" lon="-1.9881272">
        <ele>64.477</ele>
        <time>2018-08-18T13:41:34.088Z</time>
      </trkpt>
      <trkpt lat="48.5339325" lon="-1.9879682">
        <ele>64.412</ele>
        <time>2018-08-18T13:41:37.043Z</time>
      </trkpt>
      <trkpt lat="48.5339379" lon="-1.9878005">
        <ele>64.261</ele>
        <time>2018-08-18T13:41:40.042Z</time>
      </trkpt>
      <trkpt lat="48.5339457" lon="-1.9876304">
        <ele>64.119</ele>
        <time>2018-08-18T13:41:43.003Z</time>
      </trkpt>
      <trkpt lat="48.5339517" lon="-1.9874560">
        <ele>64.056</ele>
        <time>2018-08-18T13:41:45.956Z</time>
      </trkpt>
      <trkpt lat="48.5339591" lon="-1.9872736">
        <ele>64.050</ele>
        <time>2018-08-18T13:41:48.962Z</time>
      </trkpt>
      <trkpt lat="48.5339688" lon="-1.9870912">
        <ele>64.040</ele>
        <time>2018-08-18T13:41:51.923Z</time>
      </trkpt>
      <trkpt lat="48.5339778" lon="-1.9869109">
        <ele>63.954</ele>
        <time>2018-08-18T13:41:54.885Z</time>
      </trkpt>
      <trkpt lat="48.5339866" lon="-1.9867323">
        <ele>63.723</ele>
        <time>2018-08-18T13:41:57.899Z</time>
      </trkpt>
      <trkpt lat="48.5339954" lon="-1.9865587">
        <ele>63.402</ele>
        <time>2018-08-18T13:42:00.878Z</time>
      </trkpt>
      <trkpt lat="48.5340020" lon="-1.9863858">
        <ele>63.158</ele>
        <time>2018-08-18T13:42:03.842Z</time>
      </trkpt>
      <trkpt lat="48.5340064" lon="-1.9862173">
        <ele>63.039</ele>
        <time>2018-08-18T13:42:06.758Z</time>
      </trkpt>
      <trkpt lat="48.5340086" lon="-1.9860498">
        <ele>62.942</ele>
        <time>2018-08-18T13:42:09.733Z</time>
      </trkpt>
      <trkpt lat="48.5340025" lon="-1.9858889">
        <ele>62.803</ele>
        <time>2018-08-18T13:42:12.680Z</time>
      </trkpt>
      <trkpt lat="48.5339918" lon="-1.9857330">
        <ele>62.600</ele>
        <time>2018-08-18T13:42:15.571Z</time>
      </trkpt>
      <trkpt lat="48.5339762" lon="-1.9855765">
        <ele>62.260</ele>
        <time>2018-08-18T13:42:18.516Z</time>
      </trkpt>
      <trkpt lat="48.5339573" lon="-1.9854252">
        <ele>61.827</ele>
        <time>2018-08-18T13:42:21.432Z</time>
      </trkpt>
      <trkpt lat="48.5339321" lon="-1.9852767">
        <ele>61.606</ele>
        <time>2018-08-18T13:42:24.390Z</time>
      </trkpt>
      <trkpt lat="48.5339049" lon="-1.9851314">
        <ele>61.840</ele>
        <time>2018-08-18T13:42:27.336Z</time>
      </trkpt>
      <trkpt lat="48.5338776" lon="-1.9849853">
        <ele>62.397</ele>
        <time>2018-08-18T13:42:30.333Z</time>
      </trkpt>
      <trkpt lat="48.5338452" lon="-1.9848507">
        <ele>62.949</ele>
        <time>2018-08-18T13:42:33.558Z</time>
      </trkpt>
      <trkpt lat="48.5337924" lon="-1.9847088">
        <ele>63.261</ele>
        <time>2018-08-18T13:42:37.518Z</time>
      </trkpt>
      <trkpt lat="48.5337693" lon="-1.9845431">
        <ele>63.308</ele>
        <time>2018-08-18T13:42:41.747Z</time>
      </trkpt>
      <trkpt lat="48.5337405" lon="-1.9843717">
        <ele>63.217</ele>
        <time>2018-08-18T13:42:45.807Z</time>
      </trkpt>
      <trkpt lat="48.5337109" lon="-1.9842380">
        <ele>63.102</ele>
        <time>2018-08-18T13:42:48.820Z</time>
      </trkpt>
      <trkpt lat="48.5336797" lon="-1.9840945">
        <ele>62.969</ele>
        <time>2018-08-18T13:42:51.850Z</time>
      </trkpt>
      <trkpt lat="48.5336519" lon="-1.9839449">
        <ele>62.794</ele>
        <time>2018-08-18T13:42:54.816Z</time>
      </trkpt>
      <trkpt lat="48.5336255" lon="-1.9837840">
        <ele>62.620</ele>
        <time>2018-08-18T13:42:57.830Z</time>
      </trkpt>
      <trkpt lat="48.5335911" lon="-1.9836162">
        <ele>62.470</ele>
        <time>2018-08-18T13:43:00.908Z</time>
      </trkpt>
      <trkpt lat="48.5335431" lon="-1.9834616">
        <ele>62.291</ele>
        <time>2018-08-18T13:43:03.916Z</time>
      </trkpt>
      <trkpt lat="48.5334927" lon="-1.9833187">
        <ele>62.001</ele>
        <time>2018-08-18T13:43:06.834Z</time>
      </trkpt>
      <trkpt lat="48.5334458" lon="-1.9831710">
        <ele>61.650</ele>
        <time>2018-08-18T13:43:09.767Z</time>
      </trkpt>
      <trkpt lat="48.5334026" lon="-1.9830014">
        <ele>61.435</ele>
        <time>2018-08-18T13:43:12.864Z</time>
      </trkpt>
      <trkpt lat="48.5333573" lon="-1.9828245">
        <ele>61.511</ele>
        <time>2018-08-18T13:43:15.905Z</time>
      </trkpt>
      <trkpt lat="48.5332947" lon="-1.9826545">
        <ele>61.794</ele>
        <time>2018-08-18T13:43:18.921Z</time>
      </trkpt>
      <trkpt lat="48.5332175" lon="-1.9825037">
        <ele>61.971</ele>
        <time>2018-08-18T13:43:21.854Z</time>
      </trkpt>
      <trkpt lat="48.5331293" lon="-1.9823629">
        <ele>61.744</ele>
        <time>2018-08-18T13:43:24.847Z</time>
      </trkpt>
      <trkpt lat="48.5330413" lon="-1.9822245">
        <ele>61.164</ele>
        <time>2018-08-18T13:43:27.807Z</time>
      </trkpt>
      <trkpt lat="48.5329370" lon="-1.9821101">
        <ele>60.596</ele>
        <time>2018-08-18T13:43:30.749Z</time>
      </trkpt>
      <trkpt lat="48.5328681" lon="-1.9820148">
        <ele>60.316</ele>
        <time>2018-08-18T13:43:32.744Z</time>
      </trkpt>
      <trkpt lat="48.5327936" lon="-1.9819089">
        <ele>60.283</ele>
        <time>2018-08-18T13:43:34.775Z</time>
      </trkpt>
      <trkpt lat="48.5326807" lon="-1.9817316">
        <ele>60.287</ele>
        <time>2018-08-18T13:43:37.895Z</time>
      </trkpt>
      <trkpt lat="48.5325965" lon="-1.9815262">
        <ele>60.145</ele>
        <time>2018-08-18T13:43:40.833Z</time>
      </trkpt>
      <trkpt lat="48.5325310" lon="-1.9812900">
        <ele>59.745</ele>
        <time>2018-08-18T13:43:43.850Z</time>
      </trkpt>
      <trkpt lat="48.5325151" lon="-1.9811370">
        <ele>59.119</ele>
        <time>2018-08-18T13:43:45.653Z</time>
      </trkpt>
      <trkpt lat="48.5325039" lon="-1.9809690">
        <ele>58.424</ele>
        <time>2018-08-18T13:43:47.646Z</time>
      </trkpt>
      <trkpt lat="48.5324979" lon="-1.9807267">
        <ele>57.728</ele>
        <time>2018-08-18T13:43:50.528Z</time>
      </trkpt>
      <trkpt lat="48.5324874" lon="-1.9805533">
        <ele>57.065</ele>
        <time>2018-08-18T13:43:52.587Z</time>
      </trkpt>
      <trkpt lat="48.5324780" lon="-1.9803883">
        <ele>56.411</ele>
        <time>2018-08-18T13:43:54.539Z</time>
      </trkpt>
      <trkpt lat="48.5324704" lon="-1.9801395">
        <ele>55.603</ele>
        <time>2018-08-18T13:43:57.524Z</time>
      </trkpt>
      <trkpt lat="48.5324901" lon="-1.9799852">
        <ele>54.600</ele>
        <time>2018-08-18T13:43:59.516Z</time>
      </trkpt>
      <trkpt lat="48.5325720" lon="-1.9798095">
        <ele>53.607</ele>
        <time>2018-08-18T13:44:02.454Z</time>
      </trkpt>
      <trkpt lat="48.5326591" lon="-1.9797001">
        <ele>52.856</ele>
        <time>2018-08-18T13:44:05.170Z</time>
      </trkpt>
      <trkpt lat="48.5327288" lon="-1.9795963">
        <ele>52.382</ele>
        <time>2018-08-18T13:44:07.936Z</time>
      </trkpt>
      <trkpt lat="48.5328107" lon="-1.9794635">
        <ele>51.964</ele>
        <time>2018-08-18T13:44:11.649Z</time>
      </trkpt>
      <trkpt lat="48.5328662" lon="-1.9793331">
        <ele>51.477</ele>
        <time>2018-08-18T13:44:14.676Z</time>
      </trkpt>
      <trkpt lat="48.5329273" lon="-1.9791833">
        <ele>50.981</ele>
        <time>2018-08-18T13:44:17.774Z</time>
      </trkpt>
      <trkpt lat="48.5329871" lon="-1.9790227">
        <ele>50.420</ele>
        <time>2018-08-18T13:44:20.817Z</time>
      </trkpt>
      <trkpt lat="48.5330435" lon="-1.9788566">
        <ele>49.747</ele>
        <time>2018-08-18T13:44:23.820Z</time>
      </trkpt>
      <trkpt lat="48.5330965" lon="-1.9786860">
        <ele>49.096</ele>
        <time>2018-08-18T13:44:26.826Z</time>
      </trkpt>
      <trkpt lat="48.5331506" lon="-1.9785165">
        <ele>48.586</ele>
        <time>2018-08-18T13:44:29.832Z</time>
      </trkpt>
      <trkpt lat="48.5332067" lon="-1.9783571">
        <ele>48.163</ele>
        <time>2018-08-18T13:44:32.821Z</time>
      </trkpt>
      <trkpt lat="48.5332331" lon="-1.9782172">
        <ele>47.684</ele>
        <time>2018-08-18T13:44:35.435Z</time>
      </trkpt>
      <trkpt lat="48.5331550" lon="-1.9780898">
        <ele>47.003</ele>
        <time>2018-08-18T13:44:38.606Z</time>
      </trkpt>
      <trkpt lat="48.5330443" lon="-1.9780212">
        <ele>46.182</ele>
        <time>2018-08-18T13:44:41.297Z</time>
      </trkpt>
      <trkpt lat="48.5329643" lon="-1.9779175">
        <ele>45.504</ele>
        <time>2018-08-18T13:44:43.282Z</time>
      </trkpt>
      <trkpt lat="48.5328577" lon="-1.9776994">
        <ele>45.114</ele>
        <time>2018-08-18T13:44:46.345Z</time>
      </trkpt>
      <trkpt lat="48.5327915" lon="-1.9775238">
        <ele>44.713</ele>
        <time>2018-08-18T13:44:48.403Z</time>
      </trkpt>
      <trkpt lat="48.5327283" lon="-1.9772378">
        <ele>44.012</ele>
        <time>2018-08-18T13:44:51.370Z</time>
      </trkpt>
      <trkpt lat="48.5327093" lon="-1.9770350">
        <ele>43.186</ele>
        <time>2018-08-18T13:44:53.335Z</time>
      </trkpt>
      <trkpt lat="48.5327107" lon="-1.9768213">
        <ele>42.507</ele>
        <time>2018-08-18T13:44:55.375Z</time>
      </trkpt>
      <trkpt lat="48.5327368" lon="-1.9766254">
        <ele>41.972</ele>
        <time>2018-08-18T13:44:57.298Z</time>
      </trkpt>
      <trkpt lat="48.5327806" lon="-1.9764323">
        <ele>41.459</ele>
        <time>2018-08-18T13:44:59.293Z</time>
      </trkpt>
      <trkpt lat="48.5328408" lon="-1.9762537">
        <ele>40.787</ele>
        <time>2018-08-18T13:45:01.291Z</time>
      </trkpt>
      <trkpt lat="48.5329618" lon="-1.9760237">
        <ele>39.957</ele>
        <time>2018-08-18T13:45:04.284Z</time>
      </trkpt>
      <trkpt lat="48.5330948" lon="-1.9758408">
        <ele>39.167</ele>
        <time>2018-08-18T13:45:07.116Z</time>
      </trkpt>
      <trkpt lat="48.5332371" lon="-1.9756594">
        <ele>38.428</ele>
        <time>2018-08-18T13:45:10.048Z</time>
      </trkpt>
      <trkpt lat="48.5333785" lon="-1.9754745">
        <ele>37.585</ele>
        <time>2018-08-18T13:45:12.955Z</time>
      </trkpt>
      <trkpt lat="48.5335259" lon="-1.9752905">
        <ele>36.624</ele>
        <time>2018-08-18T13:45:15.917Z</time>
      </trkpt>
      <trkpt lat="48.5336242" lon="-1.9751619">
        <ele>35.665</ele>
        <time>2018-08-18T13:45:17.947Z</time>
      </trkpt>
      <trkpt lat="48.5337140" lon="-1.9750506">
        <ele>34.926</ele>
        <time>2018-08-18T13:45:19.897Z</time>
      </trkpt>
      <trkpt lat="48.5337903" lon="-1.9749670">
        <ele>34.672</ele>
        <time>2018-08-18T13:45:21.796Z</time>
      </trkpt>
      <trkpt lat="48.5338678" lon="-1.9748912">
        <ele>34.912</ele>
        <time>2018-08-18T13:45:24.000Z</time>
      </trkpt>
      <trkpt lat="48.5338678" lon="-1.9748912">
        <ele>35.300</ele>
        <time>2018-08-18T13:45:30.000Z</time>
      </trkpt>
      <trkpt lat="48.5338678" lon="-1.9748912">
        <ele>35.495</ele>
        <time>2018-08-18T13:45:48.803Z</time>
      </trkpt>
      <trkpt lat="48.5339908" lon="-1.9746494">
        <ele>35.409</ele>
        <time>2018-08-18T13:45:57.172Z</time>
      </trkpt>
      <trkpt lat="48.5340560" lon="-1.9744246">
        <ele>34.674</ele>
        <time>2018-08-18T13:46:00.006Z</time>
      </trkpt>
      <trkpt lat="48.5341617" lon="-1.9740881">
        <ele>33.046</ele>
        <time>2018-08-18T13:46:03.328Z</time>
      </trkpt>
      <trkpt lat="48.5342264" lon="-1.9738511">
        <ele>30.945</ele>
        <time>2018-08-18T13:46:05.347Z</time>
      </trkpt>
      <trkpt lat="48.5342895" lon="-1.9736375">
        <ele>28.985</ele>
        <time>2018-08-18T13:46:07.150Z</time>
      </trkpt>
      <trkpt lat="48.5344040" lon="-1.9732862">
        <ele>27.368</ele>
        <time>2018-08-18T13:46:10.304Z</time>
      </trkpt>
      <trkpt lat="48.5344980" lon="-1.9729916">
        <ele>26.041</ele>
        <time>2018-08-18T13:46:13.581Z</time>
      </trkpt>
      <trkpt lat="48.5345518" lon="-1.9728039">
        <ele>25.016</ele>
        <time>2018-08-18T13:46:16.501Z</time>
      </trkpt>
      <trkpt lat="48.5346057" lon="-1.9726621">
        <ele>24.544</ele>
        <time>2018-08-18T13:46:19.470Z</time>
      </trkpt>
      <trkpt lat="48.5346482" lon="-1.9725402">
        <ele>24.673</ele>
        <time>2018-08-18T13:46:22.487Z</time>
      </trkpt>
      <trkpt lat="48.5347064" lon="-1.9723948">
        <ele>25.271</ele>
        <time>2018-08-18T13:46:26.624Z</time>
      </trkpt>
      <trkpt lat="48.5347538" lon="-1.9722727">
        <ele>26.073</ele>
        <time>2018-08-18T13:46:30.296Z</time>
      </trkpt>
      <trkpt lat="48.5348035" lon="-1.9721472">
        <ele>26.783</ele>
        <time>2018-08-18T13:46:34.134Z</time>
      </trkpt>
      <trkpt lat="48.5348515" lon="-1.9720181">
        <ele>27.282</ele>
        <time>2018-08-18T13:46:38.053Z</time>
      </trkpt>
      <trkpt lat="48.5348979" lon="-1.9718967">
        <ele>27.615</ele>
        <time>2018-08-18T13:46:41.805Z</time>
      </trkpt>
      <trkpt lat="48.5349429" lon="-1.9717773">
        <ele>27.949</ele>
        <time>2018-08-18T13:46:45.472Z</time>
      </trkpt>
      <trkpt lat="48.5349879" lon="-1.9716556">
        <ele>28.436</ele>
        <time>2018-08-18T13:46:49.153Z</time>
      </trkpt>
      <trkpt lat="48.5350348" lon="-1.9715274">
        <ele>29.036</ele>
        <time>2018-08-18T13:46:52.993Z</time>
      </trkpt>
      <trkpt lat="48.5350817" lon="-1.9714004">
        <ele>29.612</ele>
        <time>2018-08-18T13:46:56.824Z</time>
      </trkpt>
      <trkpt lat="48.5351330" lon="-1.9712740">
        <ele>29.985</ele>
        <time>2018-08-18T13:47:00.732Z</time>
      </trkpt>
      <trkpt lat="48.5351788" lon="-1.9711452">
        <ele>30.030</ele>
        <time>2018-08-18T13:47:04.545Z</time>
      </trkpt>
      <trkpt lat="48.5352249" lon="-1.9710153">
        <ele>29.813</ele>
        <time>2018-08-18T13:47:08.353Z</time>
      </trkpt>
      <trkpt lat="48.5352755" lon="-1.9708776">
        <ele>29.533</ele>
        <time>2018-08-18T13:47:12.328Z</time>
      </trkpt>
      <trkpt lat="48.5353175" lon="-1.9707517">
        <ele>29.372</ele>
        <time>2018-08-18T13:47:16.000Z</time>
      </trkpt>
      <trkpt lat="48.5353175" lon="-1.9707517">
        <ele>29.349</ele>
        <time>2018-08-18T13:47:28.000Z</time>
      </trkpt>
      <trkpt lat="48.5353175" lon="-1.9707517">
        <ele>29.374</ele>
        <time>2018-08-18T13:49:56.504Z</time>
      </trkpt>
      <trkpt lat="48.5354074" lon="-1.9705325">
        <ele>29.372</ele>
        <time>2018-08-18T13:50:09.371Z</time>
      </trkpt>
      <trkpt lat="48.5354654" lon="-1.9703733">
        <ele>28.715</ele>
        <time>2018-08-18T13:50:13.869Z</time>
      </trkpt>
      <trkpt lat="48.5355122" lon="-1.9702425">
        <ele>27.028</ele>
        <time>2018-08-18T13:50:17.238Z</time>
      </trkpt>
      <trkpt lat="48.5355583" lon="-1.9701060">
        <ele>25.284</ele>
        <time>2018-08-18T13:50:20.550Z</time>
      </trkpt>
      <trkpt lat="48.5356076" lon="-1.9699689">
        <ele>24.437</ele>
        <time>2018-08-18T13:50:23.742Z</time>
      </trkpt>
      <trkpt lat="48.5356566" lon="-1.9698262">
        <ele>24.279</ele>
        <time>2018-08-18T13:50:26.874Z</time>
      </trkpt>
      <trkpt lat="48.5357114" lon="-1.9696667">
        <ele>24.371</ele>
        <time>2018-08-18T13:50:30.523Z</time>
      </trkpt>
      <trkpt lat="48.5357678" lon="-1.9695052">
        <ele>24.469</ele>
        <time>2018-08-18T13:50:34.578Z</time>
      </trkpt>
      <trkpt lat="48.5358235" lon="-1.9693661">
        <ele>24.534</ele>
        <time>2018-08-18T13:50:38.259Z</time>
      </trkpt>
      <trkpt lat="48.5359032" lon="-1.9692298">
        <ele>24.604</ele>
        <time>2018-08-18T13:50:42.266Z</time>
      </trkpt>
      <trkpt lat="48.5359813" lon="-1.9691362">
        <ele>24.670</ele>
        <time>2018-08-18T13:50:45.614Z</time>
      </trkpt>
      <trkpt lat="48.5360707" lon="-1.9690564">
        <ele>24.644</ele>
        <time>2018-08-18T13:50:49.263Z</time>
      </trkpt>
      <trkpt lat="48.5361607" lon="-1.9689827">
        <ele>24.489</ele>
        <time>2018-08-18T13:50:53.560Z</time>
      </trkpt>
      <trkpt lat="48.5362449" lon="-1.9689127">
        <ele>24.276</ele>
        <time>2018-08-18T13:50:58.529Z</time>
      </trkpt>
      <trkpt lat="48.5363216" lon="-1.9688400">
        <ele>24.100</ele>
        <time>2018-08-18T13:51:04.932Z</time>
      </trkpt>
      <trkpt lat="48.5364003" lon="-1.9687648">
        <ele>24.001</ele>
        <time>2018-08-18T13:51:11.956Z</time>
      </trkpt>
      <trkpt lat="48.5364697" lon="-1.9686502">
        <ele>24.020</ele>
        <time>2018-08-18T13:51:18.806Z</time>
      </trkpt>
      <trkpt lat="48.5365374" lon="-1.9685522">
        <ele>24.160</ele>
        <time>2018-08-18T13:51:24.290Z</time>
      </trkpt>
      <trkpt lat="48.5365582" lon="-1.9684054">
        <ele>24.337</ele>
        <time>2018-08-18T13:51:29.809Z</time>
      </trkpt>
      <trkpt lat="48.5366096" lon="-1.9682802">
        <ele>24.398</ele>
        <time>2018-08-18T13:51:35.565Z</time>
      </trkpt>
      <trkpt lat="48.5366576" lon="-1.9681597">
        <ele>24.260</ele>
        <time>2018-08-18T13:51:41.857Z</time>
      </trkpt>
      <trkpt lat="48.5367117" lon="-1.9680300">
        <ele>24.014</ele>
        <time>2018-08-18T13:51:48.611Z</time>
      </trkpt>
      <trkpt lat="48.5367974" lon="-1.9679399">
        <ele>23.895</ele>
        <time>2018-08-18T13:51:55.477Z</time>
      </trkpt>
      <trkpt lat="48.5368872" lon="-1.9678798">
        <ele>24.531</ele>
        <time>2018-08-18T13:52:02.139Z</time>
      </trkpt>
      <trkpt lat="48.5369672" lon="-1.9678066">
        <ele>26.533</ele>
        <time>2018-08-18T13:52:08.422Z</time>
      </trkpt>
      <trkpt lat="48.5370461" lon="-1.9677263">
        <ele>29.409</ele>
        <time>2018-08-18T13:52:14.037Z</time>
      </trkpt>
      <trkpt lat="48.5371294" lon="-1.9676431">
        <ele>31.901</ele>
        <time>2018-08-18T13:52:19.407Z</time>
      </trkpt>
      <trkpt lat="48.5371912" lon="-1.9675281">
        <ele>33.304</ele>
        <time>2018-08-18T13:52:24.702Z</time>
      </trkpt>
      <trkpt lat="48.5372642" lon="-1.9674291">
        <ele>33.726</ele>
        <time>2018-08-18T13:52:29.991Z</time>
      </trkpt>
      <trkpt lat="48.5373286" lon="-1.9673225">
        <ele>33.529</ele>
        <time>2018-08-18T13:52:34.992Z</time>
      </trkpt>
      <trkpt lat="48.5373979" lon="-1.9672232">
        <ele>32.743</ele>
        <time>2018-08-18T13:52:39.770Z</time>
      </trkpt>
      <trkpt lat="48.5374656" lon="-1.9671100">
        <ele>31.454</ele>
        <time>2018-08-18T13:52:44.358Z</time>
      </trkpt>
      <trkpt lat="48.5375343" lon="-1.9669889">
        <ele>30.167</ele>
        <time>2018-08-18T13:52:48.821Z</time>
      </trkpt>
      <trkpt lat="48.5376005" lon="-1.9668543">
        <ele>29.273</ele>
        <time>2018-08-18T13:52:53.649Z</time>
      </trkpt>
      <trkpt lat="48.5376584" lon="-1.9667106">
        <ele>28.727</ele>
        <time>2018-08-18T13:52:58.802Z</time>
      </trkpt>
      <trkpt lat="48.5377013" lon="-1.9665604">
        <ele>28.394</ele>
        <time>2018-08-18T13:53:06.874Z</time>
      </trkpt>
      <trkpt lat="48.5377366" lon="-1.9663964">
        <ele>28.221</ele>
        <time>2018-08-18T13:53:15.506Z</time>
      </trkpt>
      <trkpt lat="48.5377625" lon="-1.9662636">
        <ele>28.184</ele>
        <time>2018-08-18T13:53:22.439Z</time>
      </trkpt>
      <trkpt lat="48.5377894" lon="-1.9661002">
        <ele>28.128</ele>
        <time>2018-08-18T13:53:30.875Z</time>
      </trkpt>
      <trkpt lat="48.5377991" lon="-1.9659596">
        <ele>27.957</ele>
        <time>2018-08-18T13:53:37.951Z</time>
      </trkpt>
      <trkpt lat="48.5378577" lon="-1.9658209">
        <ele>27.804</ele>
        <time>2018-08-18T13:53:46.196Z</time>
      </trkpt>
      <trkpt lat="48.5378828" lon="-1.9656658">
        <ele>27.923</ele>
        <time>2018-08-18T13:53:54.197Z</time>
      </trkpt>
      <trkpt lat="48.5379074" lon="-1.9655067">
        <ele>28.416</ele>
        <time>2018-08-18T13:54:02.525Z</time>
      </trkpt>
      <trkpt lat="48.5379333" lon="-1.9653460">
        <ele>29.084</ele>
        <time>2018-08-18T13:54:11.152Z</time>
      </trkpt>
      <trkpt lat="48.5379555" lon="-1.9651944">
        <ele>29.719</ele>
        <time>2018-08-18T13:54:16.630Z</time>
      </trkpt>
      <trkpt lat="48.5379776" lon="-1.9650517">
        <ele>30.290</ele>
        <time>2018-08-18T13:54:21.512Z</time>
      </trkpt>
      <trkpt lat="48.5380016" lon="-1.9649118">
        <ele>30.732</ele>
        <time>2018-08-18T13:54:26.500Z</time>
      </trkpt>
      <trkpt lat="48.5380186" lon="-1.9647738">
        <ele>31.007</ele>
        <time>2018-08-18T13:54:31.633Z</time>
      </trkpt>
      <trkpt lat="48.5380434" lon="-1.9646404">
        <ele>31.239</ele>
        <time>2018-08-18T13:54:36.930Z</time>
      </trkpt>
      <trkpt lat="48.5380595" lon="-1.9645055">
        <ele>31.484</ele>
        <time>2018-08-18T13:54:42.354Z</time>
      </trkpt>
      <trkpt lat="48.5380810" lon="-1.9643622">
        <ele>31.739</ele>
        <time>2018-08-18T13:54:48.263Z</time>
      </trkpt>
      <trkpt lat="48.5381064" lon="-1.9642221">
        <ele>32.048</ele>
        <time>2018-08-18T13:54:54.018Z</time>
      </trkpt>
      <trkpt lat="48.5381343" lon="-1.9640848">
        <ele>32.515</ele>
        <time>2018-08-18T13:54:59.584Z</time>
      </trkpt>
      <trkpt lat="48.5381728" lon="-1.9639359">
        <ele>33.162</ele>
        <time>2018-08-18T13:55:05.806Z</time>
      </trkpt>
      <trkpt lat="48.5382117" lon="-1.9638031">
        <ele>33.848</ele>
        <time>2018-08-18T13:55:11.722Z</time>
      </trkpt>
      <trkpt lat="48.5382452" lon="-1.9636594">
        <ele>34.419</ele>
        <time>2018-08-18T13:55:18.506Z</time>
      </trkpt>
      <trkpt lat="48.5383151" lon="-1.9635482">
        <ele>34.927</ele>
        <time>2018-08-18T13:55:26.035Z</time>
      </trkpt>
      <trkpt lat="48.5383856" lon="-1.9634332">
        <ele>35.417</ele>
        <time>2018-08-18T13:55:34.051Z</time>
      </trkpt>
      <trkpt lat="48.5384600" lon="-1.9633218">
        <ele>35.799</ele>
        <time>2018-08-18T13:55:42.000Z</time>
      </trkpt>
      <trkpt lat="48.5384600" lon="-1.9633218">
        <ele>36.010</ele>
        <time>2018-08-18T13:55:42.000Z</time>
      </trkpt>
      <trkpt lat="48.5384600" lon="-1.9633218">
        <ele>36.082</ele>
        <time>2018-08-18T13:55:50.023Z</time>
      </trkpt>
      <trkpt lat="48.5386316" lon="-1.9631770">
        <ele>36.054</ele>
        <time>2018-08-18T13:56:04.685Z</time>
      </trkpt>
      <trkpt lat="48.5387246" lon="-1.9631061">
        <ele>36.367</ele>
        <time>2018-08-18T13:56:09.888Z</time>
      </trkpt>
      <trkpt lat="48.5388153" lon="-1.9630527">
        <ele>37.440</ele>
        <time>2018-08-18T13:56:14.815Z</time>
      </trkpt>
      <trkpt lat="48.5389092" lon="-1.9630090">
        <ele>38.811</ele>
        <time>2018-08-18T13:56:19.679Z</time>
      </trkpt>
      <trkpt lat="48.5390078" lon="-1.9629738">
        <ele>39.719</ele>
        <time>2018-08-18T13:56:24.585Z</time>
      </trkpt>
      <trkpt lat="48.5391095" lon="-1.9629474">
        <ele>40.071</ele>
        <time>2018-08-18T13:56:29.388Z</time>
      </trkpt>
      <trkpt lat="48.5392174" lon="-1.9629236">
        <ele>40.159</ele>
        <time>2018-08-18T13:56:34.231Z</time>
      </trkpt>
      <trkpt lat="48.5393091" lon="-1.9629157">
        <ele>40.194</ele>
        <time>2018-08-18T13:56:38.274Z</time>
      </trkpt>
      <trkpt lat="48.5394177" lon="-1.9629116">
        <ele>40.292</ele>
        <time>2018-08-18T13:56:43.008Z</time>
      </trkpt>
      <trkpt lat="48.5395088" lon="-1.9629033">
        <ele>40.486</ele>
        <time>2018-08-18T13:56:46.825Z</time>
      </trkpt>
      <trkpt lat="48.5396063" lon="-1.9628918">
        <ele>40.685</ele>
        <time>2018-08-18T13:56:50.802Z</time>
      </trkpt>
      <trkpt lat="48.5397076" lon="-1.9628839">
        <ele>40.872</ele>
        <time>2018-08-18T13:56:54.734Z</time>
      </trkpt>
      <trkpt lat="48.5398140" lon="-1.9628794">
        <ele>41.089</ele>
        <time>2018-08-18T13:56:58.608Z</time>
      </trkpt>
      <trkpt lat="48.5399282" lon="-1.9628670">
        <ele>41.238</ele>
        <time>2018-08-18T13:57:02.555Z</time>
      </trkpt>
      <trkpt lat="48.5400176" lon="-1.9628530">
        <ele>41.208</ele>
        <time>2018-08-18T13:57:05.603Z</time>
      </trkpt>
      <trkpt lat="48.5401298" lon="-1.9628328">
        <ele>41.060</ele>
        <time>2018-08-18T13:57:09.405Z</time>
      </trkpt>
      <trkpt lat="48.5402188" lon="-1.9628125">
        <ele>40.929</ele>
        <time>2018-08-18T13:57:12.319Z</time>
      </trkpt>
      <trkpt lat="48.5403099" lon="-1.9627857">
        <ele>40.880</ele>
        <time>2018-08-18T13:57:15.217Z</time>
      </trkpt>
      <trkpt lat="48.5404026" lon="-1.9627577">
        <ele>40.910</ele>
        <time>2018-08-18T13:57:18.109Z</time>
      </trkpt>
      <trkpt lat="48.5404939" lon="-1.9627075">
        <ele>40.969</ele>
        <time>2018-08-18T13:57:21.036Z</time>
      </trkpt>
      <trkpt lat="48.5405825" lon="-1.9626454">
        <ele>40.971</ele>
        <time>2018-08-18T13:57:23.991Z</time>
      </trkpt>
      <trkpt lat="48.5406660" lon="-1.9625764">
        <ele>40.900</ele>
        <time>2018-08-18T13:57:26.915Z</time>
      </trkpt>
      <trkpt lat="48.5407446" lon="-1.9624982">
        <ele>40.786</ele>
        <time>2018-08-18T13:57:29.854Z</time>
      </trkpt>
      <trkpt lat="48.5408163" lon="-1.9624090">
        <ele>40.597</ele>
        <time>2018-08-18T13:57:32.860Z</time>
      </trkpt>
      <trkpt lat="48.5408931" lon="-1.9622810">
        <ele>40.345</ele>
        <time>2018-08-18T13:57:36.731Z</time>
      </trkpt>
      <trkpt lat="48.5409537" lon="-1.9621489">
        <ele>40.170</ele>
        <time>2018-08-18T13:57:40.453Z</time>
      </trkpt>
      <trkpt lat="48.5410125" lon="-1.9620039">
        <ele>40.147</ele>
        <time>2018-08-18T13:57:44.360Z</time>
      </trkpt>
      <trkpt lat="48.5410667" lon="-1.9618509">
        <ele>40.200</ele>
        <time>2018-08-18T13:57:48.262Z</time>
      </trkpt>
      <trkpt lat="48.5411241" lon="-1.9616973">
        <ele>40.236</ele>
        <time>2018-08-18T13:57:52.207Z</time>
      </trkpt>
      <trkpt lat="48.5411789" lon="-1.9615458">
        <ele>40.222</ele>
        <time>2018-08-18T13:57:56.129Z</time>
      </trkpt>
      <trkpt lat="48.5412318" lon="-1.9614019">
        <ele>40.161</ele>
        <time>2018-08-18T13:57:59.996Z</time>
      </trkpt>
      <trkpt lat="48.5412787" lon="-1.9612610">
        <ele>40.067</ele>
        <time>2018-08-18T13:58:03.791Z</time>
      </trkpt>
      <trkpt lat="48.5413288" lon="-1.9611160">
        <ele>39.959</ele>
        <time>2018-08-18T13:58:07.706Z</time>
      </trkpt>
      <trkpt lat="48.5413789" lon="-1.9609701">
        <ele>39.863</ele>
        <time>2018-08-18T13:58:11.572Z</time>
      </trkpt>
      <trkpt lat="48.5414305" lon="-1.9608241">
        <ele>39.884</ele>
        <time>2018-08-18T13:58:15.422Z</time>
      </trkpt>
      <trkpt lat="48.5414822" lon="-1.9606757">
        <ele>40.081</ele>
        <time>2018-08-18T13:58:19.291Z</time>
      </trkpt>
      <trkpt lat="48.5415356" lon="-1.9605240">
        <ele>40.313</ele>
        <time>2018-08-18T13:58:23.224Z</time>
      </trkpt>
      <trkpt lat="48.5415879" lon="-1.9603732">
        <ele>40.417</ele>
        <time>2018-08-18T13:58:27.144Z</time>
      </trkpt>
      <trkpt lat="48.5416396" lon="-1.9602274">
        <ele>40.375</ele>
        <time>2018-08-18T13:58:31.032Z</time>
      </trkpt>
      <trkpt lat="48.5416873" lon="-1.9600893">
        <ele>40.262</ele>
        <time>2018-08-18T13:58:34.773Z</time>
      </trkpt>
      <trkpt lat="48.5417343" lon="-1.9599518">
        <ele>40.231</ele>
        <time>2018-08-18T13:58:38.544Z</time>
      </trkpt>
      <trkpt lat="48.5417845" lon="-1.9598161">
        <ele>40.358</ele>
        <time>2018-08-18T13:58:42.404Z</time>
      </trkpt>
      <trkpt lat="48.5418295" lon="-1.9596756">
        <ele>40.587</ele>
        <time>2018-08-18T13:58:46.335Z</time>
      </trkpt>
      <trkpt lat="48.5418710" lon="-1.9595447">
        <ele>40.909</ele>
        <time>2018-08-18T13:58:50.047Z</time>
      </trkpt>
      <trkpt lat="48.5419114" lon="-1.9594214">
        <ele>41.298</ele>
        <time>2018-08-18T13:58:53.718Z</time>
      </trkpt>
      <trkpt lat="48.5419606" lon="-1.9592835">
        <ele>41.624</ele>
        <time>2018-08-18T13:58:57.907Z</time>
      </trkpt>
      <trkpt lat="48.5420124" lon="-1.9591436">
        <ele>41.824</ele>
        <time>2018-08-18T13:59:02.000Z</time>
      </trkpt>
      <trkpt lat="48.5420124" lon="-1.9591436">
        <ele>41.898</ele>
        <time>2018-08-18T13:59:03.000Z</time>
      </trkpt>
      <trkpt lat="48.5420124" lon="-1.9591436">
        <ele>41.869</ele>
        <time>2018-08-18T13:59:03.100Z</time>
      </trkpt>
      <trkpt lat="48.5421124" lon="-1.9589362">
        <ele>41.811</ele>
        <time>2018-08-18T13:59:11.483Z</time>
      </trkpt>
      <trkpt lat="48.5421801" lon="-1.9587893">
        <ele>41.786</ele>
        <time>2018-08-18T13:59:15.464Z</time>
      </trkpt>
      <trkpt lat="48.5422320" lon="-1.9586742">
        <ele>41.798</ele>
        <time>2018-08-18T13:59:18.489Z</time>
      </trkpt>
      <trkpt lat="48.5422871" lon="-1.9585598">
        <ele>41.837</ele>
        <time>2018-08-18T13:59:21.511Z</time>
      </trkpt>
      <trkpt lat="48.5423411" lon="-1.9584453">
        <ele>41.927</ele>
        <time>2018-08-18T13:59:24.493Z</time>
      </trkpt>
      <trkpt lat="48.5423950" lon="-1.9583331">
        <ele>42.065</ele>
        <time>2018-08-18T13:59:27.428Z</time>
      </trkpt>
      <trkpt lat="48.5424514" lon="-1.9582190">
        <ele>42.235</ele>
        <time>2018-08-18T13:59:30.472Z</time>
      </trkpt>
      <trkpt lat="48.5425084" lon="-1.9581104">
        <ele>42.438</ele>
        <time>2018-08-18T13:59:33.494Z</time>
      </trkpt>
      <trkpt lat="48.5425871" lon="-1.9579785">
        <ele>42.678</ele>
        <time>2018-08-18T13:59:37.487Z</time>
      </trkpt>
      <trkpt lat="48.5426712" lon="-1.9578667">
        <ele>42.944</ele>
        <time>2018-08-18T13:59:41.521Z</time>
      </trkpt>
      <trkpt lat="48.5427533" lon="-1.9577765">
        <ele>43.235</ele>
        <time>2018-08-18T13:59:45.315Z</time>
      </trkpt>
      <trkpt lat="48.5428416" lon="-1.9576848">
        <ele>43.599</ele>
        <time>2018-08-18T13:59:49.265Z</time>
      </trkpt>
      <trkpt lat="48.5429349" lon="-1.9575926">
        <ele>44.010</ele>
        <time>2018-08-18T13:59:53.289Z</time>
      </trkpt>
      <trkpt lat="48.5430329" lon="-1.9575142">
        <ele>44.101</ele>
        <time>2018-08-18T13:59:57.232Z</time>
      </trkpt>
      <trkpt lat="48.5431307" lon="-1.9574370">
        <ele>43.654</ele>
        <time>2018-08-18T14:00:01.135Z</time>
      </trkpt>
      <trkpt lat="48.5432312" lon="-1.9573826">
        <ele>43.039</ele>
        <time>2018-08-18T14:00:04.976Z</time>
      </trkpt>
      <trkpt lat="48.5433315" lon="-1.9573433">
        <ele>42.842</ele>
        <time>2018-08-18T14:00:08.788Z</time>
      </trkpt>
      <trkpt lat="48.5434313" lon="-1.9572989">
        <ele>43.218</ele>
        <time>2018-08-18T14:00:12.688Z</time>
      </trkpt>
      <trkpt lat="48.5435339" lon="-1.9572724">
        <ele>43.868</ele>
        <time>2018-08-18T14:00:16.579Z</time>
      </trkpt>
      <trkpt lat="48.5436421" lon="-1.9572492">
        <ele>44.511</ele>
        <time>2018-08-18T14:00:20.512Z</time>
      </trkpt>
      <trkpt lat="48.5437595" lon="-1.9572149">
        <ele>45.043</ele>
        <time>2018-08-18T14:00:24.647Z</time>
      </trkpt>
      <trkpt lat="48.5438745" lon="-1.9571773">
        <ele>45.334</ele>
        <time>2018-08-18T14:00:28.660Z</time>
      </trkpt>
      <trkpt lat="48.5439875" lon="-1.9571349">
        <ele>45.377</ele>
        <time>2018-08-18T14:00:32.562Z</time>
      </trkpt>
      <trkpt lat="48.5440779" lon="-1.9570921">
        <ele>45.311</ele>
        <time>2018-08-18T14:00:35.596Z</time>
      </trkpt>
      <trkpt lat="48.5441702" lon="-1.9570461">
        <ele>45.183</ele>
        <time>2018-08-18T14:00:38.599Z</time>
      </trkpt>
      <trkpt lat="48.5442628" lon="-1.9569841">
        <ele>44.921</ele>
        <time>2018-08-18T14:00:41.557Z</time>
      </trkpt>
      <trkpt lat="48.5443593" lon="-1.9569040">
        <ele>44.459</ele>
        <time>2018-08-18T14:00:44.572Z</time>
      </trkpt>
      <trkpt lat="48.5444574" lon="-1.9568109">
        <ele>43.880</ele>
        <time>2018-08-18T14:00:47.578Z</time>
      </trkpt>
      <trkpt lat="48.5445576" lon="-1.9567044">
        <ele>43.398</ele>
        <time>2018-08-18T14:00:50.567Z</time>
      </trkpt>
      <trkpt lat="48.5446568" lon="-1.9565841">
        <ele>43.150</ele>
        <time>2018-08-18T14:00:53.514Z</time>
      </trkpt>
      <trkpt lat="48.5447568" lon="-1.9564560">
        <ele>43.062</ele>
        <time>2018-08-18T14:00:56.487Z</time>
      </trkpt>
      <trkpt lat="48.5448585" lon="-1.9563280">
        <ele>43.003</ele>
        <time>2018-08-18T14:00:59.493Z</time>
      </trkpt>
      <trkpt lat="48.5449597" lon="-1.9562010">
        <ele>42.891</ele>
        <time>2018-08-18T14:01:02.512Z</time>
      </trkpt>
      <trkpt lat="48.5450571" lon="-1.9560733">
        <ele>42.658</ele>
        <time>2018-08-18T14:01:05.488Z</time>
      </trkpt>
      <trkpt lat="48.5451533" lon="-1.9559453">
        <ele>42.337</ele>
        <time>2018-08-18T14:01:08.439Z</time>
      </trkpt>
      <trkpt lat="48.5452526" lon="-1.9558185">
        <ele>42.139</ele>
        <time>2018-08-18T14:01:11.427Z</time>
      </trkpt>
      <trkpt lat="48.5453504" lon="-1.9556926">
        <ele>42.173</ele>
        <time>2018-08-18T14:01:14.355Z</time>
      </trkpt>
      <trkpt lat="48.5454514" lon="-1.9555639">
        <ele>42.262</ele>
        <time>2018-08-18T14:01:17.355Z</time>
      </trkpt>
      <trkpt lat="48.5455490" lon="-1.9554385">
        <ele>42.236</ele>
        <time>2018-08-18T14:01:20.271Z</time>
      </trkpt>
      <trkpt lat="48.5456429" lon="-1.9553030">
        <ele>42.110</ele>
        <time>2018-08-18T14:01:23.204Z</time>
      </trkpt>
      <trkpt lat="48.5457404" lon="-1.9551681">
        <ele>41.940</ele>
        <time>2018-08-18T14:01:26.136Z</time>
      </trkpt>
      <trkpt lat="48.5458473" lon="-1.9550349">
        <ele>41.720</ele>
        <time>2018-08-18T14:01:29.150Z</time>
      </trkpt>
      <trkpt lat="48.5459187" lon="-1.9549458">
        <ele>41.419</ele>
        <time>2018-08-18T14:01:31.135Z</time>
      </trkpt>
      <trkpt lat="48.5459910" lon="-1.9548561">
        <ele>41.080</ele>
        <time>2018-08-18T14:01:33.172Z</time>
      </trkpt>
      <trkpt lat="48.5461022" lon="-1.9547424">
        <ele>40.756</ele>
        <time>2018-08-18T14:01:36.159Z</time>
      </trkpt>
      <trkpt lat="48.5462000" lon="-1.9546241">
        <ele>40.405</ele>
        <time>2018-08-18T14:01:38.934Z</time>
      </trkpt>
      <trkpt lat="48.5463054" lon="-1.9544918">
        <ele>40.038</ele>
        <time>2018-08-18T14:01:41.889Z</time>
      </trkpt>
      <trkpt lat="48.5464093" lon="-1.9543556">
        <ele>39.670</ele>
        <time>2018-08-18T14:01:44.782Z</time>
      </trkpt>
      <trkpt lat="48.5464800" lon="-1.9542509">
        <ele>39.197</ele>
        <time>2018-08-18T14:01:46.782Z</time>
      </trkpt>
      <trkpt lat="48.5465975" lon="-1.9541102">
        <ele>38.620</ele>
        <time>2018-08-18T14:01:49.735Z</time>
      </trkpt>
      <trkpt lat="48.5467082" lon="-1.9539510">
        <ele>37.991</ele>
        <time>2018-08-18T14:01:52.685Z</time>
      </trkpt>
      <trkpt lat="48.5467806" lon="-1.9538504">
        <ele>37.282</ele>
        <time>2018-08-18T14:01:54.598Z</time>
      </trkpt>
      <trkpt lat="48.5468600" lon="-1.9537739">
        <ele>36.628</ele>
        <time>2018-08-18T14:01:56.469Z</time>
      </trkpt>
      <trkpt lat="48.5469375" lon="-1.9536817">
        <ele>36.257</ele>
        <time>2018-08-18T14:01:58.456Z</time>
      </trkpt>
      <trkpt lat="48.5470136" lon="-1.9535791">
        <ele>36.134</ele>
        <time>2018-08-18T14:02:00.570Z</time>
      </trkpt>
      <trkpt lat="48.5471236" lon="-1.9534532">
        <ele>36.076</ele>
        <time>2018-08-18T14:02:03.556Z</time>
      </trkpt>
      <trkpt lat="48.5472156" lon="-1.9533365">
        <ele>35.976</ele>
        <time>2018-08-18T14:02:06.421Z</time>
      </trkpt>
      <trkpt lat="48.5472878" lon="-1.9532290">
        <ele>35.761</ele>
        <time>2018-08-18T14:02:09.309Z</time>
      </trkpt>
      <trkpt lat="48.5473368" lon="-1.9531103">
        <ele>35.275</ele>
        <time>2018-08-18T14:02:12.505Z</time>
      </trkpt>
      <trkpt lat="48.5473777" lon="-1.9529560">
        <ele>34.567</ele>
        <time>2018-08-18T14:02:17.307Z</time>
      </trkpt>
      <trkpt lat="48.5474200" lon="-1.9528083">
        <ele>34.216</ele>
        <time>2018-08-18T14:02:22.109Z</time>
      </trkpt>
      <trkpt lat="48.5474751" lon="-1.9526780">
        <ele>34.713</ele>
        <time>2018-08-18T14:02:26.964Z</time>
      </trkpt>
      <trkpt lat="48.5475261" lon="-1.9525396">
        <ele>35.835</ele>
        <time>2018-08-18T14:02:32.125Z</time>
      </trkpt>
      <trkpt lat="48.5475867" lon="-1.9524346">
        <ele>37.137</ele>
        <time>2018-08-18T14:02:36.330Z</time>
      </trkpt>
      <trkpt lat="48.5476689" lon="-1.9524972">
        <ele>38.280</ele>
        <time>2018-08-18T14:02:39.774Z</time>
      </trkpt>
      <trkpt lat="48.5477675" lon="-1.9525962">
        <ele>38.999</ele>
        <time>2018-08-18T14:02:43.181Z</time>
      </trkpt>
      <trkpt lat="48.5478836" lon="-1.9526852">
        <ele>39.323</ele>
        <time>2018-08-18T14:02:46.304Z</time>
      </trkpt>
      <trkpt lat="48.5479768" lon="-1.9527435">
        <ele>39.495</ele>
        <time>2018-08-18T14:02:48.429Z</time>
      </trkpt>
      <trkpt lat="48.5481188" lon="-1.9528291">
        <ele>39.633</ele>
        <time>2018-08-18T14:02:51.472Z</time>
      </trkpt>
      <trkpt lat="48.5482125" lon="-1.9528919">
        <ele>39.639</ele>
        <time>2018-08-18T14:02:53.414Z</time>
      </trkpt>
      <trkpt lat="48.5483588" lon="-1.9529903">
        <ele>39.402</ele>
        <time>2018-08-18T14:02:56.400Z</time>
      </trkpt>
      <trkpt lat="48.5484572" lon="-1.9530506">
        <ele>39.055</ele>
        <time>2018-08-18T14:02:58.408Z</time>
      </trkpt>
      <trkpt lat="48.5486036" lon="-1.9530921">
        <ele>38.861</ele>
        <time>2018-08-18T14:03:01.453Z</time>
      </trkpt>
      <trkpt lat="48.5487047" lon="-1.9531482">
        <ele>38.890</ele>
        <time>2018-08-18T14:03:04.203Z</time>
      </trkpt>
      <trkpt lat="48.5487978" lon="-1.9532004">
        <ele>38.954</ele>
        <time>2018-08-18T14:03:07.545Z</time>
      </trkpt>
      <trkpt lat="48.5488912" lon="-1.9532644">
        <ele>38.793</ele>
        <time>2018-08-18T14:03:12.612Z</time>
      </trkpt>
      <trkpt lat="48.5489893" lon="-1.9533157">
        <ele>38.343</ele>
        <time>2018-08-18T14:03:18.381Z</time>
      </trkpt>
      <trkpt lat="48.5490803" lon="-1.9533543">
        <ele>37.820</ele>
        <time>2018-08-18T14:03:23.900Z</time>
      </trkpt>
      <trkpt lat="48.5491804" lon="-1.9534125">
        <ele>37.541</ele>
        <time>2018-08-18T14:03:30.161Z</time>
      </trkpt>
      <trkpt lat="48.5492674" lon="-1.9534593">
        <ele>37.670</ele>
        <time>2018-08-18T14:03:35.242Z</time>
      </trkpt>
      <trkpt lat="48.5493644" lon="-1.9535295">
        <ele>38.120</ele>
        <time>2018-08-18T14:03:41.151Z</time>
      </trkpt>
      <trkpt lat="48.5494614" lon="-1.9535988">
        <ele>38.633</ele>
        <time>2018-08-18T14:03:47.106Z</time>
      </trkpt>
      <trkpt lat="48.5495446" lon="-1.9536514">
        <ele>38.973</ele>
        <time>2018-08-18T14:03:52.206Z</time>
      </trkpt>
      <trkpt lat="48.5496373" lon="-1.9537119">
        <ele>39.184</ele>
        <time>2018-08-18T14:03:58.436Z</time>
      </trkpt>
      <trkpt lat="48.5497188" lon="-1.9537711">
        <ele>39.435</ele>
        <time>2018-08-18T14:04:04.245Z</time>
      </trkpt>
      <trkpt lat="48.5498101" lon="-1.9538395">
        <ele>39.707</ele>
        <time>2018-08-18T14:04:10.658Z</time>
      </trkpt>
      <trkpt lat="48.5498981" lon="-1.9539215">
        <ele>39.891</ele>
        <time>2018-08-18T14:04:17.417Z</time>
      </trkpt>
      <trkpt lat="48.5499755" lon="-1.9540083">
        <ele>40.118</ele>
        <time>2018-08-18T14:04:24.000Z</time>
      </trkpt>
      <trkpt lat="48.5499755" lon="-1.9540083">
        <ele>40.510</ele>
        <time>2018-08-18T14:04:29.000Z</time>
      </trkpt>
      <trkpt lat="48.5499755" lon="-1.9540083">
        <ele>40.813</ele>
        <time>2018-08-18T14:04:29.100Z</time>
      </trkpt>
      <trkpt lat="48.5501847" lon="-1.9542368">
        <ele>40.788</ele>
        <time>2018-08-18T14:04:49.544Z</time>
      </trkpt>
      <trkpt lat="48.5502663" lon="-1.9543222">
        <ele>41.249</ele>
        <time>2018-08-18T14:04:54.537Z</time>
      </trkpt>
      <trkpt lat="48.5503458" lon="-1.9544096">
        <ele>42.817</ele>
        <time>2018-08-18T14:04:59.295Z</time>
      </trkpt>
      <trkpt lat="48.5504453" lon="-1.9544765">
        <ele>44.556</ele>
        <time>2018-08-18T14:05:04.056Z</time>
      </trkpt>
      <trkpt lat="48.5505437" lon="-1.9545363">
        <ele>45.395</ele>
        <time>2018-08-18T14:05:07.970Z</time>
      </trkpt>
      <trkpt lat="48.5506478" lon="-1.9546047">
        <ele>45.343</ele>
        <time>2018-08-18T14:05:11.434Z</time>
      </trkpt>
      <trkpt lat="48.5507510" lon="-1.9546667">
        <ele>44.822</ele>
        <time>2018-08-18T14:05:14.258Z</time>
      </trkpt>
      <trkpt lat="48.5508661" lon="-1.9547467">
        <ele>44.278</ele>
        <time>2018-08-18T14:05:17.111Z</time>
      </trkpt>
      <trkpt lat="48.5509520" lon="-1.9547948">
        <ele>43.796</ele>
        <time>2018-08-18T14:05:18.915Z</time>
      </trkpt>
      <trkpt lat="48.5510927" lon="-1.9548815">
        <ele>43.134</ele>
        <time>2018-08-18T14:05:21.735Z</time>
      </trkpt>
      <trkpt lat="48.5511921" lon="-1.9549479">
        <ele>42.315</ele>
        <time>2018-08-18T14:05:23.565Z</time>
      </trkpt>
      <trkpt lat="48.5512972" lon="-1.9550149">
        <ele>41.729</ele>
        <time>2018-08-18T14:05:25.383Z</time>
      </trkpt>
      <trkpt lat="48.5514037" lon="-1.9550813">
        <ele>41.561</ele>
        <time>2018-08-18T14:05:27.147Z</time>
      </trkpt>
      <trkpt lat="48.5515625" lon="-1.9551503">
        <ele>41.607</ele>
        <time>2018-08-18T14:05:29.633Z</time>
      </trkpt>
      <trkpt lat="48.5517184" lon="-1.9551967">
        <ele>41.587</ele>
        <time>2018-08-18T14:05:32.000Z</time>
      </trkpt>
      <trkpt lat="48.5517184" lon="-1.9551967">
        <ele>41.407</ele>
        <time>2018-08-18T14:05:35.000Z</time>
      </trkpt>
      <trkpt lat="48.5517184" lon="-1.9551967">
        <ele>41.238</ele>
        <time>2018-08-18T14:05:35.100Z</time>
      </trkpt>
      <trkpt lat="48.5519818" lon="-1.9552476">
        <ele>41.222</ele>
        <time>2018-08-18T14:05:54.181Z</time>
      </trkpt>
      <trkpt lat="48.5520847" lon="-1.9552609">
        <ele>41.030</ele>
        <time>2018-08-18T14:05:57.540Z</time>
      </trkpt>
      <trkpt lat="48.5521981" lon="-1.9552403">
        <ele>40.402</ele>
        <time>2018-08-18T14:06:00.684Z</time>
      </trkpt>
      <trkpt lat="48.5523015" lon="-1.9552340">
        <ele>39.712</ele>
        <time>2018-08-18T14:06:03.181Z</time>
      </trkpt>
      <trkpt lat="48.5524193" lon="-1.9551952">
        <ele>39.363</ele>
        <time>2018-08-18T14:06:05.934Z</time>
      </trkpt>
      <trkpt lat="48.5525403" lon="-1.9551165">
        <ele>39.246</ele>
        <time>2018-08-18T14:06:08.824Z</time>
      </trkpt>
      <trkpt lat="48.5526205" lon="-1.9550523">
        <ele>39.128</ele>
        <time>2018-08-18T14:06:10.806Z</time>
      </trkpt>
      <trkpt lat="48.5526998" lon="-1.9549834">
        <ele>38.919</ele>
        <time>2018-08-18T14:06:12.864Z</time>
      </trkpt>
      <trkpt lat="48.5528135" lon="-1.9548742">
        <ele>38.693</ele>
        <time>2018-08-18T14:06:16.052Z</time>
      </trkpt>
      <trkpt lat="48.5529192" lon="-1.9547701">
        <ele>38.523</ele>
        <time>2018-08-18T14:06:19.312Z</time>
      </trkpt>
      <trkpt lat="48.5530150" lon="-1.9546719">
        <ele>38.421</ele>
        <time>2018-08-18T14:06:22.630Z</time>
      </trkpt>
      <trkpt lat="48.5530997" lon="-1.9545784">
        <ele>38.363</ele>
        <time>2018-08-18T14:06:25.920Z</time>
      </trkpt>
      <trkpt lat="48.5531750" lon="-1.9544946">
        <ele>38.322</ele>
        <time>2018-08-18T14:06:28.859Z</time>
      </trkpt>
      <trkpt lat="48.5532460" lon="-1.9544101">
        <ele>38.294</ele>
        <time>2018-08-18T14:06:31.620Z</time>
      </trkpt>
      <trkpt lat="48.5533195" lon="-1.9543152">
        <ele>38.290</ele>
        <time>2018-08-18T14:06:34.517Z</time>
      </trkpt>
      <trkpt lat="48.5533925" lon="-1.9542213">
        <ele>38.303</ele>
        <time>2018-08-18T14:06:37.302Z</time>
      </trkpt>
      <trkpt lat="48.5534691" lon="-1.9541263">
        <ele>38.312</ele>
        <time>2018-08-18T14:06:40.127Z</time>
      </trkpt>
      <trkpt lat="48.5535511" lon="-1.9540277">
        <ele>38.303</ele>
        <time>2018-08-18T14:06:43.114Z</time>
      </trkpt>
      <trkpt lat="48.5536340" lon="-1.9539325">
        <ele>38.248</ele>
        <time>2018-08-18T14:06:46.048Z</time>
      </trkpt>
      <trkpt lat="48.5537191" lon="-1.9538485">
        <ele>38.114</ele>
        <time>2018-08-18T14:06:48.776Z</time>
      </trkpt>
      <trkpt lat="48.5538101" lon="-1.9537628">
        <ele>37.888</ele>
        <time>2018-08-18T14:06:51.490Z</time>
      </trkpt>
      <trkpt lat="48.5539136" lon="-1.9536824">
        <ele>37.589</ele>
        <time>2018-08-18T14:06:54.312Z</time>
      </trkpt>
      <trkpt lat="48.5540253" lon="-1.9536104">
        <ele>37.292</ele>
        <time>2018-08-18T14:06:57.166Z</time>
      </trkpt>
      <trkpt lat="48.5541422" lon="-1.9535430">
        <ele>37.095</ele>
        <time>2018-08-18T14:07:00.012Z</time>
      </trkpt>
      <trkpt lat="48.5542691" lon="-1.9534908">
        <ele>36.983</ele>
        <time>2018-08-18T14:07:02.883Z</time>
      </trkpt>
      <trkpt lat="48.5543585" lon="-1.9535132">
        <ele>36.741</ele>
        <time>2018-08-18T14:07:04.789Z</time>
      </trkpt>
      <trkpt lat="48.5544728" lon="-1.9536566">
        <ele>36.210</ele>
        <time>2018-08-18T14:07:07.806Z</time>
      </trkpt>
      <trkpt lat="48.5545618" lon="-1.9538441">
        <ele>35.446</ele>
        <time>2018-08-18T14:07:11.009Z</time>
      </trkpt>
      <trkpt lat="48.5546454" lon="-1.9540211">
        <ele>34.516</ele>
        <time>2018-08-18T14:07:14.528Z</time>
      </trkpt>
      <trkpt lat="48.5547376" lon="-1.9541209">
        <ele>33.505</ele>
        <time>2018-08-18T14:07:17.642Z</time>
      </trkpt>
      <trkpt lat="48.5548365" lon="-1.9540530">
        <ele>32.614</ele>
        <time>2018-08-18T14:07:20.546Z</time>
      </trkpt>
      <trkpt lat="48.5549268" lon="-1.9539339">
        <ele>31.933</ele>
        <time>2018-08-18T14:07:23.632Z</time>
      </trkpt>
      <trkpt lat="48.5550160" lon="-1.9538155">
        <ele>31.463</ele>
        <time>2018-08-18T14:07:26.622Z</time>
      </trkpt>
      <trkpt lat="48.5551018" lon="-1.9536967">
        <ele>31.129</ele>
        <time>2018-08-18T14:07:29.388Z</time>
      </trkpt>
      <trkpt lat="48.5551984" lon="-1.9535790">
        <ele>30.746</ele>
        <time>2018-08-18T14:07:32.130Z</time>
      </trkpt>
      <trkpt lat="48.5553162" lon="-1.9534800">
        <ele>30.255</ele>
        <time>2018-08-18T14:07:34.807Z</time>
      </trkpt>
      <trkpt lat="48.5554086" lon="-1.9534301">
        <ele>29.761</ele>
        <time>2018-08-18T14:07:36.633Z</time>
      </trkpt>
      <trkpt lat="48.5555649" lon="-1.9533917">
        <ele>29.244</ele>
        <time>2018-08-18T14:07:39.357Z</time>
      </trkpt>
      <trkpt lat="48.5557441" lon="-1.9533884">
        <ele>28.666</ele>
        <time>2018-08-18T14:07:42.084Z</time>
      </trkpt>
      <trkpt lat="48.5558780" lon="-1.9534051">
        <ele>28.010</ele>
        <time>2018-08-18T14:07:44.012Z</time>
      </trkpt>
      <trkpt lat="48.5561039" lon="-1.9534413">
        <ele>27.197</ele>
        <time>2018-08-18T14:07:46.937Z</time>
      </trkpt>
      <trkpt lat="48.5562611" lon="-1.9534594">
        <ele>26.137</ele>
        <time>2018-08-18T14:07:48.874Z</time>
      </trkpt>
      <trkpt lat="48.5565008" lon="-1.9534750">
        <ele>24.891</ele>
        <time>2018-08-18T14:07:51.719Z</time>
      </trkpt>
      <trkpt lat="48.5566748" lon="-1.9534905">
        <ele>23.555</ele>
        <time>2018-08-18T14:07:53.785Z</time>
      </trkpt>
      <trkpt lat="48.5569176" lon="-1.9534579">
        <ele>22.206</ele>
        <time>2018-08-18T14:07:56.783Z</time>
      </trkpt>
      <trkpt lat="48.5571404" lon="-1.9533940">
        <ele>20.924</ele>
        <time>2018-08-18T14:07:59.760Z</time>
      </trkpt>
      <trkpt lat="48.5572797" lon="-1.9533485">
        <ele>19.716</ele>
        <time>2018-08-18T14:08:01.708Z</time>
      </trkpt>
      <trkpt lat="48.5574838" lon="-1.9532742">
        <ele>18.633</ele>
        <time>2018-08-18T14:08:04.708Z</time>
      </trkpt>
      <trkpt lat="48.5576738" lon="-1.9531958">
        <ele>17.820</ele>
        <time>2018-08-18T14:08:07.678Z</time>
      </trkpt>
      <trkpt lat="48.5577895" lon="-1.9531454">
        <ele>17.219</ele>
        <time>2018-08-18T14:08:09.566Z</time>
      </trkpt>
      <trkpt lat="48.5579623" lon="-1.9530649">
        <ele>16.741</ele>
        <time>2018-08-18T14:08:12.486Z</time>
      </trkpt>
      <trkpt lat="48.5580756" lon="-1.9530088">
        <ele>16.363</ele>
        <time>2018-08-18T14:08:14.450Z</time>
      </trkpt>
      <trkpt lat="48.5581844" lon="-1.9529523">
        <ele>15.993</ele>
        <time>2018-08-18T14:08:16.367Z</time>
      </trkpt>
      <trkpt lat="48.5583491" lon="-1.9528623">
        <ele>15.598</ele>
        <time>2018-08-18T14:08:19.299Z</time>
      </trkpt>
      <trkpt lat="48.5585151" lon="-1.9527812">
        <ele>15.128</ele>
        <time>2018-08-18T14:08:22.241Z</time>
      </trkpt>
      <trkpt lat="48.5586770" lon="-1.9526954">
        <ele>14.569</ele>
        <time>2018-08-18T14:08:25.187Z</time>
      </trkpt>
      <trkpt lat="48.5588402" lon="-1.9526195">
        <ele>14.026</ele>
        <time>2018-08-18T14:08:28.194Z</time>
      </trkpt>
      <trkpt lat="48.5589436" lon="-1.9525708">
        <ele>13.589</ele>
        <time>2018-08-18T14:08:30.145Z</time>
      </trkpt>
      <trkpt lat="48.5590455" lon="-1.9525204">
        <ele>13.294</ele>
        <time>2018-08-18T14:08:32.108Z</time>
      </trkpt>
      <trkpt lat="48.5591454" lon="-1.9524744">
        <ele>13.142</ele>
        <time>2018-08-18T14:08:34.049Z</time>
      </trkpt>
      <trkpt lat="48.5592423" lon="-1.9524159">
        <ele>13.023</ele>
        <time>2018-08-18T14:08:36.022Z</time>
      </trkpt>
      <trkpt lat="48.5593357" lon="-1.9523668">
        <ele>12.766</ele>
        <time>2018-08-18T14:08:38.028Z</time>
      </trkpt>
      <trkpt lat="48.5594629" lon="-1.9522964">
        <ele>12.361</ele>
        <time>2018-08-18T14:08:41.213Z</time>
      </trkpt>
      <trkpt lat="48.5595587" lon="-1.9522463">
        <ele>11.990</ele>
        <time>2018-08-18T14:08:44.264Z</time>
      </trkpt>
      <trkpt lat="48.5596711" lon="-1.9522891">
        <ele>11.795</ele>
        <time>2018-08-18T14:08:48.104Z</time>
      </trkpt>
      <trkpt lat="48.5597292" lon="-1.9524435">
        <ele>11.853</ele>
        <time>2018-08-18T14:08:52.120Z</time>
      </trkpt>
      <trkpt lat="48.5597842" lon="-1.9525864">
        <ele>12.149</ele>
        <time>2018-08-18T14:08:56.008Z</time>
      </trkpt>
      <trkpt lat="48.5598370" lon="-1.9527175">
        <ele>12.545</ele>
        <time>2018-08-18T14:08:59.746Z</time>
      </trkpt>
      <trkpt lat="48.5598891" lon="-1.9528548">
        <ele>12.975</ele>
        <time>2018-08-18T14:09:03.658Z</time>
      </trkpt>
      <trkpt lat="48.5599354" lon="-1.9529871">
        <ele>13.410</ele>
        <time>2018-08-18T14:09:07.493Z</time>
      </trkpt>
      <trkpt lat="48.5599812" lon="-1.9531091">
        <ele>13.839</ele>
        <time>2018-08-18T14:09:11.265Z</time>
      </trkpt>
      <trkpt lat="48.5600498" lon="-1.9532422">
        <ele>14.264</ele>
        <time>2018-08-18T14:09:15.905Z</time>
      </trkpt>
      <trkpt lat="48.5601236" lon="-1.9533480">
        <ele>14.583</ele>
        <time>2018-08-18T14:09:20.144Z</time>
      </trkpt>
      <trkpt lat="48.5601834" lon="-1.9534550">
        <ele>14.587</ele>
        <time>2018-08-18T14:09:24.306Z</time>
      </trkpt>
      <trkpt lat="48.5602324" lon="-1.9535698">
        <ele>14.256</ele>
        <time>2018-08-18T14:09:29.000Z</time>
      </trkpt>
      <trkpt lat="48.5602324" lon="-1.9535698">
        <ele>13.866</ele>
        <time>2018-08-18T14:09:39.000Z</time>
      </trkpt>
      <trkpt lat="48.5602324" lon="-1.9535698">
        <ele>13.683</ele>
        <time>2018-08-18T14:10:52.662Z</time>
      </trkpt>
      <trkpt lat="48.5603091" lon="-1.9538504">
        <ele>13.697</ele>
        <time>2018-08-18T14:11:13.352Z</time>
      </trkpt>
      <trkpt lat="48.5603677" lon="-1.9539623">
        <ele>13.783</ele>
        <time>2018-08-18T14:11:19.183Z</time>
      </trkpt>
      <trkpt lat="48.5604251" lon="-1.9540721">
        <ele>13.979</ele>
        <time>2018-08-18T14:11:24.950Z</time>
      </trkpt>
      <trkpt lat="48.5604850" lon="-1.9541748">
        <ele>14.573</ele>
        <time>2018-08-18T14:11:30.462Z</time>
      </trkpt>
      <trkpt lat="48.5605576" lon="-1.9542926">
        <ele>15.682</ele>
        <time>2018-08-18T14:11:36.873Z</time>
      </trkpt>
      <trkpt lat="48.5606238" lon="-1.9543981">
        <ele>17.014</ele>
        <time>2018-08-18T14:11:42.648Z</time>
      </trkpt>
      <trkpt lat="48.5606910" lon="-1.9544955">
        <ele>18.162</ele>
        <time>2018-08-18T14:11:48.211Z</time>
      </trkpt>
      <trkpt lat="48.5607524" lon="-1.9545998">
        <ele>19.014</ele>
        <time>2018-08-18T14:11:53.765Z</time>
      </trkpt>
      <trkpt lat="48.5608145" lon="-1.9547078">
        <ele>19.662</ele>
        <time>2018-08-18T14:11:59.500Z</time>
      </trkpt>
      <trkpt lat="48.5608763" lon="-1.9548182">
        <ele>20.238</ele>
        <time>2018-08-18T14:12:05.316Z</time>
      </trkpt>
      <trkpt lat="48.5609319" lon="-1.9549421">
        <ele>20.796</ele>
        <time>2018-08-18T14:12:11.268Z</time>
      </trkpt>
      <trkpt lat="48.5609936" lon="-1.9550756">
        <ele>21.141</ele>
        <time>2018-08-18T14:12:17.606Z</time>
      </trkpt>
      <trkpt lat="48.5610400" lon="-1.9551932">
        <ele>20.896</ele>
        <time>2018-08-18T14:12:22.900Z</time>
      </trkpt>
      <trkpt lat="48.5610801" lon="-1.9553172">
        <ele>20.013</ele>
        <time>2018-08-18T14:12:28.208Z</time>
      </trkpt>
      <trkpt lat="48.5611194" lon="-1.9554646">
        <ele>18.965</ele>
        <time>2018-08-18T14:12:34.302Z</time>
      </trkpt>
      <trkpt lat="48.5611590" lon="-1.9556048">
        <ele>18.265</ele>
        <time>2018-08-18T14:12:40.169Z</time>
      </trkpt>
      <trkpt lat="48.5611907" lon="-1.9557423">
        <ele>17.927</ele>
        <time>2018-08-18T14:12:45.809Z</time>
      </trkpt>
      <trkpt lat="48.5612241" lon="-1.9558840">
        <ele>17.753</ele>
        <time>2018-08-18T14:12:51.674Z</time>
      </trkpt>
      <trkpt lat="48.5612589" lon="-1.9560251">
        <ele>17.702</ele>
        <time>2018-08-18T14:12:57.537Z</time>
      </trkpt>
      <trkpt lat="48.5612922" lon="-1.9561720">
        <ele>17.778</ele>
        <time>2018-08-18T14:13:03.576Z</time>
      </trkpt>
      <trkpt lat="48.5613233" lon="-1.9563118">
        <ele>17.888</ele>
        <time>2018-08-18T14:13:09.376Z</time>
      </trkpt>
      <trkpt lat="48.5613547" lon="-1.9564480">
        <ele>17.975</ele>
        <time>2018-08-18T14:13:15.104Z</time>
      </trkpt>
      <trkpt lat="48.5613848" lon="-1.9565912">
        <ele>18.091</ele>
        <time>2018-08-18T14:13:21.084Z</time>
      </trkpt>
      <trkpt lat="48.5614137" lon="-1.9567279">
        <ele>18.353</ele>
        <time>2018-08-18T14:13:26.847Z</time>
      </trkpt>
      <trkpt lat="48.5614404" lon="-1.9568596">
        <ele>18.924</ele>
        <time>2018-08-18T14:13:32.457Z</time>
      </trkpt>
      <trkpt lat="48.5614694" lon="-1.9569906">
        <ele>19.793</ele>
        <time>2018-08-18T14:13:38.124Z</time>
      </trkpt>
      <trkpt lat="48.5615003" lon="-1.9571275">
        <ele>20.671</ele>
        <time>2018-08-18T14:13:44.071Z</time>
      </trkpt>
      <trkpt lat="48.5615300" lon="-1.9572572">
        <ele>21.343</ele>
        <time>2018-08-18T14:13:49.784Z</time>
      </trkpt>
      <trkpt lat="48.5615648" lon="-1.9574042">
        <ele>21.887</ele>
        <time>2018-08-18T14:13:56.341Z</time>
      </trkpt>
      <trkpt lat="48.5616003" lon="-1.9575398">
        <ele>22.393</ele>
        <time>2018-08-18T14:14:02.426Z</time>
      </trkpt>
      <trkpt lat="48.5616315" lon="-1.9576734">
        <ele>22.828</ele>
        <time>2018-08-18T14:14:08.366Z</time>
      </trkpt>
      <trkpt lat="48.5616645" lon="-1.9578221">
        <ele>23.210</ele>
        <time>2018-08-18T14:14:15.086Z</time>
      </trkpt>
      <trkpt lat="48.5616953" lon="-1.9579521">
        <ele>23.564</ele>
        <time>2018-08-18T14:14:21.177Z</time>
      </trkpt>
      <trkpt lat="48.5617280" lon="-1.9580877">
        <ele>23.888</ele>
        <time>2018-08-18T14:14:27.811Z</time>
      </trkpt>
      <trkpt lat="48.5617602" lon="-1.9582247">
        <ele>24.252</ele>
        <time>2018-08-18T14:14:34.999Z</time>
      </trkpt>
      <trkpt lat="48.5617602" lon="-1.9582247">
        <ele>24.635</ele>
        <time>2018-08-18T14:14:48.999Z</time>
      </trkpt>
      <trkpt lat="48.5617602" lon="-1.9582247">
        <ele>24.842</ele>
        <time>2018-08-18T14:14:51.976Z</time>
      </trkpt>
      <trkpt lat="48.5617855" lon="-1.9583596">
        <ele>24.696</ele>
        <time>2018-08-18T14:15:12.293Z</time>
      </trkpt>
      <trkpt lat="48.5618181" lon="-1.9584986">
        <ele>24.933</ele>
        <time>2018-08-18T14:15:22.296Z</time>
      </trkpt>
      <trkpt lat="48.5618457" lon="-1.9586415">
        <ele>25.902</ele>
        <time>2018-08-18T14:15:31.734Z</time>
      </trkpt>
      <trkpt lat="48.5618718" lon="-1.9587714">
        <ele>27.266</ele>
        <time>2018-08-18T14:15:40.351Z</time>
      </trkpt>
      <trkpt lat="48.5619010" lon="-1.9589143">
        <ele>28.393</ele>
        <time>2018-08-18T14:15:49.848Z</time>
      </trkpt>
      <trkpt lat="48.5619282" lon="-1.9590450">
        <ele>29.119</ele>
        <time>2018-08-18T14:15:58.864Z</time>
      </trkpt>
      <trkpt lat="48.5619614" lon="-1.9591855">
        <ele>29.694</ele>
        <time>2018-08-18T14:16:09.213Z</time>
      </trkpt>
      <trkpt lat="48.5619943" lon="-1.9593236">
        <ele>30.303</ele>
        <time>2018-08-18T14:16:19.611Z</time>
      </trkpt>
      <trkpt lat="48.5620249" lon="-1.9594544">
        <ele>30.933</ele>
        <time>2018-08-18T14:16:29.283Z</time>
      </trkpt>
      <trkpt lat="48.5620582" lon="-1.9595837">
        <ele>31.628</ele>
        <time>2018-08-18T14:16:38.758Z</time>
      </trkpt>
      <trkpt lat="48.5620869" lon="-1.9597199">
        <ele>32.414</ele>
        <time>2018-08-18T14:16:48.334Z</time>
      </trkpt>
      <trkpt lat="48.5621228" lon="-1.9598515">
        <ele>33.238</ele>
        <time>2018-08-18T14:16:57.887Z</time>
      </trkpt>
      <trkpt lat="48.5621623" lon="-1.9599752">
        <ele>34.089</ele>
        <time>2018-08-18T14:17:07.260Z</time>
      </trkpt>
      <trkpt lat="48.5621944" lon="-1.9601076">
        <ele>34.818</ele>
        <time>2018-08-18T14:17:17.030Z</time>
      </trkpt>
      <trkpt lat="48.5622307" lon="-1.9602383">
        <ele>35.372</ele>
        <time>2018-08-18T14:17:27.063Z</time>
      </trkpt>
      <trkpt lat="48.5622678" lon="-1.9603723">
        <ele>35.978</ele>
        <time>2018-08-18T14:17:37.542Z</time>
      </trkpt>
      <trkpt lat="48.5623103" lon="-1.9605055">
        <ele>36.881</ele>
        <time>2018-08-18T14:17:48.146Z</time>
      </trkpt>
      <trkpt lat="48.5623442" lon="-1.9606358">
        <ele>38.002</ele>
        <time>2018-08-18T14:17:58.315Z</time>
      </trkpt>
      <trkpt lat="48.5623882" lon="-1.9607577">
        <ele>38.935</ele>
        <time>2018-08-18T14:18:08.763Z</time>
      </trkpt>
      <trkpt lat="48.5624197" lon="-1.9608938">
        <ele>39.417</ele>
        <time>2018-08-18T14:18:19.999Z</time>
      </trkpt>
      <trkpt lat="48.5624197" lon="-1.9608938">
        <ele>39.555</ele>
        <time>2018-08-18T14:18:28.999Z</time>
      </trkpt>
      <trkpt lat="48.5624197" lon="-1.9608938">
        <ele>39.551</ele>
        <time>2018-08-18T14:18:32.450Z</time>
      </trkpt>
      <trkpt lat="48.5624707" lon="-1.9610448">
        <ele>39.521</ele>
        <time>2018-08-18T14:18:54.999Z</time>
      </trkpt>
      <trkpt lat="48.5624707" lon="-1.9610448">
        <ele>39.506</ele>
        <time>2018-08-18T14:18:59.999Z</time>
      </trkpt>
      <trkpt lat="48.5624707" lon="-1.9610448">
        <ele>39.499</ele>
        <time>2018-08-18T14:19:00.726Z</time>
      </trkpt>
      <trkpt lat="48.5625110" lon="-1.9611918">
        <ele>39.472</ele>
        <time>2018-08-18T14:19:12.999Z</time>
      </trkpt>
      <trkpt lat="48.5625110" lon="-1.9611918">
        <ele>39.462</ele>
        <time>2018-08-18T14:19:22.999Z</time>
      </trkpt>
      <trkpt lat="48.5625110" lon="-1.9611918">
        <ele>39.454</ele>
        <time>2018-08-18T14:19:23.099Z</time>
      </trkpt>
      <trkpt lat="48.5625425" lon="-1.9613416">
        <ele>39.442</ele>
        <time>2018-08-18T14:19:36.597Z</time>
      </trkpt>
      <trkpt lat="48.5625633" lon="-1.9614824">
        <ele>39.940</ele>
        <time>2018-08-18T14:19:45.512Z</time>
      </trkpt>
      <trkpt lat="48.5625945" lon="-1.9616138">
        <ele>41.432</ele>
        <time>2018-08-18T14:19:54.033Z</time>
      </trkpt>
      <trkpt lat="48.5626255" lon="-1.9617557">
        <ele>43.542</ele>
        <time>2018-08-18T14:20:02.874Z</time>
      </trkpt>
      <trkpt lat="48.5626560" lon="-1.9618850">
        <ele>45.555</ele>
        <time>2018-08-18T14:20:10.999Z</time>
      </trkpt>
      <trkpt lat="48.5626560" lon="-1.9618850">
        <ele>46.986</ele>
        <time>2018-08-18T14:20:15.999Z</time>
      </trkpt>
      <trkpt lat="48.5626560" lon="-1.9618850">
        <ele>47.542</ele>
        <time>2018-08-18T14:23:40.627Z</time>
      </trkpt>
      <trkpt lat="48.5626892" lon="-1.9620243">
        <ele>47.138</ele>
        <time>2018-08-18T14:24:36.973Z</time>
      </trkpt>
      <trkpt lat="48.5627212" lon="-1.9621522">
        <ele>47.091</ele>
        <time>2018-08-18T14:24:49.102Z</time>
      </trkpt>
      <trkpt lat="48.5627620" lon="-1.9622806">
        <ele>47.508</ele>
        <time>2018-08-18T14:24:59.833Z</time>
      </trkpt>
      <trkpt lat="48.5628213" lon="-1.9623891">
        <ele>48.190</ele>
        <time>2018-08-18T14:25:09.389Z</time>
      </trkpt>
      <trkpt lat="48.5628593" lon="-1.9625122">
        <ele>48.776</ele>
        <time>2018-08-18T14:25:17.572Z</time>
      </trkpt>
      <trkpt lat="48.5629138" lon="-1.9626385">
        <ele>49.129</ele>
        <time>2018-08-18T14:25:26.208Z</time>
      </trkpt>
      <trkpt lat="48.5629688" lon="-1.9627467">
        <ele>49.269</ele>
        <time>2018-08-18T14:25:33.984Z</time>
      </trkpt>
      <trkpt lat="48.5630371" lon="-1.9628455">
        <ele>49.348</ele>
        <time>2018-08-18T14:25:42.000Z</time>
      </trkpt>
      <trkpt lat="48.5630371" lon="-1.9628455">
        <ele>49.505</ele>
        <time>2018-08-18T14:25:51.000Z</time>
      </trkpt>
      <trkpt lat="48.5630371" lon="-1.9628455">
        <ele>49.635</ele>
        <time>2018-08-18T14:25:51.100Z</time>
      </trkpt>
      <trkpt lat="48.5631363" lon="-1.9629946">
        <ele>49.612</ele>
        <time>2018-08-18T14:26:06.000Z</time>
      </trkpt>
      <trkpt lat="48.5631363" lon="-1.9629946">
        <ele>49.533</ele>
        <time>2018-08-18T14:26:10.000Z</time>
      </trkpt>
      <trkpt lat="48.5631363" lon="-1.9629946">
        <ele>49.508</ele>
        <time>2018-08-18T14:26:12.391Z</time>
      </trkpt>
      <trkpt lat="48.5632004" lon="-1.9630949">
        <ele>49.507</ele>
        <time>2018-08-18T14:26:27.162Z</time>
      </trkpt>
      <trkpt lat="48.5632652" lon="-1.9631996">
        <ele>49.706</ele>
        <time>2018-08-18T14:26:36.000Z</time>
      </trkpt>
      <trkpt lat="48.5632652" lon="-1.9631996">
        <ele>50.259</ele>
        <time>2018-08-18T14:26:46.000Z</time>
      </trkpt>
      <trkpt lat="48.5632652" lon="-1.9631996">
        <ele>50.719</ele>
        <time>2018-08-18T14:26:46.100Z</time>
      </trkpt>
      <trkpt lat="48.5633382" lon="-1.9633242">
        <ele>50.691</ele>
        <time>2018-08-18T14:27:00.499Z</time>
      </trkpt>
      <trkpt lat="48.5633930" lon="-1.9634443">
        <ele>50.906</ele>
        <time>2018-08-18T14:27:10.534Z</time>
      </trkpt>
      <trkpt lat="48.5634470" lon="-1.9635550">
        <ele>52.210</ele>
        <time>2018-08-18T14:27:21.000Z</time>
      </trkpt>
      <trkpt lat="48.5634470" lon="-1.9635550">
        <ele>54.051</ele>
        <time>2018-08-18T14:27:21.000Z</time>
      </trkpt>
      <trkpt lat="48.5634470" lon="-1.9635550">
        <ele>55.105</ele>
        <time>2018-08-18T14:27:34.645Z</time>
      </trkpt>
      <trkpt lat="48.5634966" lon="-1.9636686">
        <ele>54.437</ele>
        <time>2018-08-18T14:27:52.858Z</time>
      </trkpt>
      <trkpt lat="48.5635492" lon="-1.9637860">
        <ele>54.549</ele>
        <time>2018-08-18T14:28:02.999Z</time>
      </trkpt>
      <trkpt lat="48.5636065" lon="-1.9639013">
        <ele>55.945</ele>
        <time>2018-08-18T14:28:12.342Z</time>
      </trkpt>
      <trkpt lat="48.5636581" lon="-1.9640193">
        <ele>57.992</ele>
        <time>2018-08-18T14:28:21.472Z</time>
      </trkpt>
      <trkpt lat="48.5637072" lon="-1.9641392">
        <ele>59.695</ele>
        <time>2018-08-18T14:28:30.588Z</time>
      </trkpt>
      <trkpt lat="48.5637693" lon="-1.9642522">
        <ele>61.035</ele>
        <time>2018-08-18T14:28:39.717Z</time>
      </trkpt>
      <trkpt lat="48.5638100" lon="-1.9643764">
        <ele>62.443</ele>
        <time>2018-08-18T14:28:47.999Z</time>
      </trkpt>
      <trkpt lat="48.5638100" lon="-1.9643764">
        <ele>63.791</ele>
        <time>2018-08-18T14:28:55.999Z</time>
      </trkpt>
      <trkpt lat="48.5638100" lon="-1.9643764">
        <ele>64.469</ele>
        <time>2018-08-18T14:30:31.651Z</time>
      </trkpt>
      <trkpt lat="48.5638117" lon="-1.9645531">
        <ele>64.379</ele>
        <time>2018-08-18T14:30:48.460Z</time>
      </trkpt>
      <trkpt lat="48.5637372" lon="-1.9646404">
        <ele>64.484</ele>
        <time>2018-08-18T14:30:56.999Z</time>
      </trkpt>
      <trkpt lat="48.5637372" lon="-1.9646404">
        <ele>65.485</ele>
        <time>2018-08-18T14:31:11.999Z</time>
      </trkpt>
      <trkpt lat="48.5637372" lon="-1.9646404">
        <ele>66.442</ele>
        <time>2018-08-18T14:31:53.590Z</time>
      </trkpt>
      <trkpt lat="48.5636049" lon="-1.9647956">
        <ele>66.414</ele>
        <time>2018-08-18T14:32:10.999Z</time>
      </trkpt>
      <trkpt lat="48.5636049" lon="-1.9647956">
        <ele>65.999</ele>
        <time>2018-08-18T14:32:20.999Z</time>
      </trkpt>
      <trkpt lat="48.5636049" lon="-1.9647956">
        <ele>65.933</ele>
        <time>2018-08-18T14:35:00.230Z</time>
      </trkpt>
      <trkpt lat="48.5636514" lon="-1.9646766">
        <ele>66.090</ele>
        <time>2018-08-18T14:35:18.999Z</time>
      </trkpt>
      <trkpt lat="48.5636514" lon="-1.9646766">
        <ele>66.018</ele>
        <time>2018-08-18T14:35:21.999Z</time>
      </trkpt>
      <trkpt lat="48.5636514" lon="-1.9646766">
        <ele>65.983</ele>
        <time>2018-08-18T14:35:52.056Z</time>
      </trkpt>
      <trkpt lat="48.5635984" lon="-1.9647970">
        <ele>65.969</ele>
        <time>2018-08-18T14:36:05.000Z</time>
      </trkpt>
      <trkpt lat="48.5635984" lon="-1.9647970">
        <ele>65.952</ele>
        <time>2018-08-18T14:36:09.000Z</time>
      </trkpt>
      <trkpt lat="48.5635984" lon="-1.9647970">
        <ele>65.935</ele>
        <time>2018-08-18T14:36:19.246Z</time>
      </trkpt>
      <trkpt lat="48.5635984" lon="-1.9647970">
        <ele>65.889</ele>
        <time>2018-08-18T14:36:33.000Z</time>
      </trkpt>
      <trkpt lat="48.5635984" lon="-1.9647970">
        <ele>65.870</ele>
        <time>2018-08-18T14:37:13.000Z</time>
      </trkpt>
      <trkpt lat="48.5635984" lon="-1.9647970">
        <ele>65.849</ele>
        <time>2018-08-18T14:38:12.999Z</time>
      </trkpt>
      <trkpt lat="48.5635984" lon="-1.9647970">
        <ele>65.824</ele>
        <time>2018-08-18T14:38:36.803Z</time>
      </trkpt>
      <trkpt lat="48.5633469" lon="-1.9649397">
        <ele>65.804</ele>
        <time>2018-08-18T14:38:54.582Z</time>
      </trkpt>
      <trkpt lat="48.5632828" lon="-1.9650396">
        <ele>67.084</ele>
        <time>2018-08-18T14:38:58.036Z</time>
      </trkpt>
      <trkpt lat="48.5632037" lon="-1.9651411">
        <ele>70.465</ele>
        <time>2018-08-18T14:39:01.683Z</time>
      </trkpt>
      <trkpt lat="48.5631151" lon="-1.9652344">
        <ele>73.979</ele>
        <time>2018-08-18T14:39:05.177Z</time>
      </trkpt>
      <trkpt lat="48.5630293" lon="-1.9653519">
        <ele>75.861</ele>
        <time>2018-08-18T14:39:08.617Z</time>
      </trkpt>
      <trkpt lat="48.5629633" lon="-1.9654636">
        <ele>76.611</ele>
        <time>2018-08-18T14:39:11.460Z</time>
      </trkpt>
      <trkpt lat="48.5629073" lon="-1.9655860">
        <ele>76.837</ele>
        <time>2018-08-18T14:39:14.323Z</time>
      </trkpt>
      <trkpt lat="48.5628465" lon="-1.9656979">
        <ele>76.316</ele>
        <time>2018-08-18T14:39:17.126Z</time>
      </trkpt>
      <trkpt lat="48.5627865" lon="-1.9658036">
        <ele>74.799</ele>
        <time>2018-08-18T14:39:19.862Z</time>
      </trkpt>
      <trkpt lat="48.5627052" lon="-1.9659290">
        <ele>73.043</ele>
        <time>2018-08-18T14:39:23.351Z</time>
      </trkpt>
      <trkpt lat="48.5626435" lon="-1.9660427">
        <ele>72.008</ele>
        <time>2018-08-18T14:39:26.572Z</time>
      </trkpt>
      <trkpt lat="48.5625792" lon="-1.9661451">
        <ele>71.693</ele>
        <time>2018-08-18T14:39:29.999Z</time>
      </trkpt>
      <trkpt lat="48.5625792" lon="-1.9661451">
        <ele>71.660</ele>
        <time>2018-08-18T14:39:42.999Z</time>
      </trkpt>
      <trkpt lat="48.5625792" lon="-1.9661451">
        <ele>71.641</ele>
        <time>2018-08-18T14:44:39.513Z</time>
      </trkpt>
      <trkpt lat="48.5624521" lon="-1.9664156">
        <ele>71.607</ele>
        <time>2018-08-18T14:44:54.598Z</time>
      </trkpt>
      <trkpt lat="48.5624710" lon="-1.9665712">
        <ele>71.279</ele>
        <time>2018-08-18T14:44:59.000Z</time>
      </trkpt>
      <trkpt lat="48.5624710" lon="-1.9665712">
        <ele>70.482</ele>
        <time>2018-08-18T14:45:05.000Z</time>
      </trkpt>
      <trkpt lat="48.5624710" lon="-1.9665712">
        <ele>69.814</ele>
        <time>2018-08-18T14:46:23.000Z</time>
      </trkpt>
      <trkpt lat="48.5624710" lon="-1.9665712">
        <ele>69.797</ele>
        <time>2018-08-18T14:46:28.557Z</time>
      </trkpt>
      <trkpt lat="48.5626041" lon="-1.9667919">
        <ele>70.114</ele>
        <time>2018-08-18T14:46:39.274Z</time>
      </trkpt>
      <trkpt lat="48.5626920" lon="-1.9668762">
        <ele>70.474</ele>
        <time>2018-08-18T14:46:42.085Z</time>
      </trkpt>
      <trkpt lat="48.5627811" lon="-1.9669683">
        <ele>70.882</ele>
        <time>2018-08-18T14:46:44.625Z</time>
      </trkpt>
      <trkpt lat="48.5628665" lon="-1.9670815">
        <ele>71.214</ele>
        <time>2018-08-18T14:46:47.000Z</time>
      </trkpt>
      <trkpt lat="48.5628665" lon="-1.9670815">
        <ele>71.321</ele>
        <time>2018-08-18T14:46:48.000Z</time>
      </trkpt>
      <trkpt lat="48.5628665" lon="-1.9670815">
        <ele>71.267</ele>
        <time>2018-08-18T14:46:48.100Z</time>
      </trkpt>
      <trkpt lat="48.5630031" lon="-1.9672552">
        <ele>71.179</ele>
        <time>2018-08-18T14:46:52.000Z</time>
      </trkpt>
      <trkpt lat="48.5630031" lon="-1.9672552">
        <ele>71.125</ele>
        <time>2018-08-18T14:47:06.000Z</time>
      </trkpt>
      <trkpt lat="48.5630031" lon="-1.9672552">
        <ele>71.092</ele>
        <time>2018-08-18T14:47:59.906Z</time>
      </trkpt>
      <trkpt lat="48.5631388" lon="-1.9674543">
        <ele>71.064</ele>
        <time>2018-08-18T14:48:12.996Z</time>
      </trkpt>
      <trkpt lat="48.5632152" lon="-1.9675602">
        <ele>70.698</ele>
        <time>2018-08-18T14:48:17.214Z</time>
      </trkpt>
      <trkpt lat="48.5632996" lon="-1.9676622">
        <ele>69.581</ele>
        <time>2018-08-18T14:48:20.954Z</time>
      </trkpt>
      <trkpt lat="48.5633691" lon="-1.9677752">
        <ele>66.979</ele>
        <time>2018-08-18T14:48:23.958Z</time>
      </trkpt>
      <trkpt lat="48.5634550" lon="-1.9678992">
        <ele>66.146</ele>
        <time>2018-08-18T14:48:27.021Z</time>
      </trkpt>
      <trkpt lat="48.5635526" lon="-1.9680201">
        <ele>65.329</ele>
        <time>2018-08-18T14:48:29.952Z</time>
      </trkpt>
      <trkpt lat="48.5636702" lon="-1.9681347">
        <ele>64.488</ele>
        <time>2018-08-18T14:48:32.959Z</time>
      </trkpt>
      <trkpt lat="48.5638030" lon="-1.9682363">
        <ele>63.461</ele>
        <time>2018-08-18T14:48:36.021Z</time>
      </trkpt>
      <trkpt lat="48.5638901" lon="-1.9682864">
        <ele>62.111</ele>
        <time>2018-08-18T14:48:37.919Z</time>
      </trkpt>
      <trkpt lat="48.5640231" lon="-1.9683394">
        <ele>60.725</ele>
        <time>2018-08-18T14:48:40.699Z</time>
      </trkpt>
      <trkpt lat="48.5641699" lon="-1.9683722">
        <ele>59.534</ele>
        <time>2018-08-18T14:48:43.649Z</time>
      </trkpt>
      <trkpt lat="48.5643203" lon="-1.9683828">
        <ele>58.268</ele>
        <time>2018-08-18T14:48:46.633Z</time>
      </trkpt>
      <trkpt lat="48.5644185" lon="-1.9683797">
        <ele>56.742</ele>
        <time>2018-08-18T14:48:48.656Z</time>
      </trkpt>
      <trkpt lat="48.5645415" lon="-1.9683885">
        <ele>55.191</ele>
        <time>2018-08-18T14:48:51.435Z</time>
      </trkpt>
      <trkpt lat="48.5646231" lon="-1.9684461">
        <ele>53.868</ele>
        <time>2018-08-18T14:48:53.754Z</time>
      </trkpt>
      <trkpt lat="48.5646946" lon="-1.9685603">
        <ele>52.767</ele>
        <time>2018-08-18T14:48:56.596Z</time>
      </trkpt>
      <trkpt lat="48.5647690" lon="-1.9686958">
        <ele>51.735</ele>
        <time>2018-08-18T14:48:59.689Z</time>
      </trkpt>
      <trkpt lat="48.5648528" lon="-1.9688267">
        <ele>50.574</ele>
        <time>2018-08-18T14:49:02.684Z</time>
      </trkpt>
      <trkpt lat="48.5649483" lon="-1.9689547">
        <ele>49.238</ele>
        <time>2018-08-18T14:49:05.756Z</time>
      </trkpt>
      <trkpt lat="48.5650442" lon="-1.9690479">
        <ele>47.814</ele>
        <time>2018-08-18T14:49:08.509Z</time>
      </trkpt>
      <trkpt lat="48.5651523" lon="-1.9691230">
        <ele>46.477</ele>
        <time>2018-08-18T14:49:11.391Z</time>
      </trkpt>
      <trkpt lat="48.5652667" lon="-1.9691729">
        <ele>45.449</ele>
        <time>2018-08-18T14:49:14.253Z</time>
      </trkpt>
      <trkpt lat="48.5653898" lon="-1.9692030">
        <ele>44.423</ele>
        <time>2018-08-18T14:49:17.228Z</time>
      </trkpt>
      <trkpt lat="48.5655108" lon="-1.9692194">
        <ele>43.104</ele>
        <time>2018-08-18T14:49:20.117Z</time>
      </trkpt>
      <trkpt lat="48.5656321" lon="-1.9692378">
        <ele>42.001</ele>
        <time>2018-08-18T14:49:23.029Z</time>
      </trkpt>
      <trkpt lat="48.5657444" lon="-1.9692714">
        <ele>41.536</ele>
        <time>2018-08-18T14:49:25.811Z</time>
      </trkpt>
      <trkpt lat="48.5658483" lon="-1.9693220">
        <ele>41.449</ele>
        <time>2018-08-18T14:49:28.545Z</time>
      </trkpt>
      <trkpt lat="48.5659414" lon="-1.9693860">
        <ele>41.428</ele>
        <time>2018-08-18T14:49:31.209Z</time>
      </trkpt>
      <trkpt lat="48.5660343" lon="-1.9694519">
        <ele>41.365</ele>
        <time>2018-08-18T14:49:33.968Z</time>
      </trkpt>
      <trkpt lat="48.5661374" lon="-1.9695193">
        <ele>41.364</ele>
        <time>2018-08-18T14:49:37.000Z</time>
      </trkpt>
      <trkpt lat="48.5662404" lon="-1.9695877">
        <ele>41.317</ele>
        <time>2018-08-18T14:49:39.974Z</time>
      </trkpt>
      <trkpt lat="48.5663444" lon="-1.9696544">
        <ele>41.178</ele>
        <time>2018-08-18T14:49:42.899Z</time>
      </trkpt>
      <trkpt lat="48.5664525" lon="-1.9697208">
        <ele>41.032</ele>
        <time>2018-08-18T14:49:45.874Z</time>
      </trkpt>
      <trkpt lat="48.5665575" lon="-1.9697824">
        <ele>40.960</ele>
        <time>2018-08-18T14:49:48.719Z</time>
      </trkpt>
      <trkpt lat="48.5666644" lon="-1.9698372">
        <ele>40.946</ele>
        <time>2018-08-18T14:49:51.574Z</time>
      </trkpt>
      <trkpt lat="48.5667722" lon="-1.9698963">
        <ele>40.890</ele>
        <time>2018-08-18T14:49:54.485Z</time>
      </trkpt>
      <trkpt lat="48.5668846" lon="-1.9699400">
        <ele>40.609</ele>
        <time>2018-08-18T14:49:57.423Z</time>
      </trkpt>
      <trkpt lat="48.5669990" lon="-1.9699694">
        <ele>40.048</ele>
        <time>2018-08-18T14:50:00.318Z</time>
      </trkpt>
      <trkpt lat="48.5671195" lon="-1.9699749">
        <ele>39.447</ele>
        <time>2018-08-18T14:50:03.282Z</time>
      </trkpt>
      <trkpt lat="48.5672382" lon="-1.9699244">
        <ele>39.158</ele>
        <time>2018-08-18T14:50:06.288Z</time>
      </trkpt>
      <trkpt lat="48.5673454" lon="-1.9698815">
        <ele>39.257</ele>
        <time>2018-08-18T14:50:09.000Z</time>
      </trkpt>
      <trkpt lat="48.5673454" lon="-1.9698815">
        <ele>39.424</ele>
        <time>2018-08-18T14:50:15.000Z</time>
      </trkpt>
      <trkpt lat="48.5673454" lon="-1.9698815">
        <ele>39.332</ele>
        <time>2018-08-18T14:50:16.455Z</time>
      </trkpt>
      <trkpt lat="48.5675688" lon="-1.9699914">
        <ele>39.307</ele>
        <time>2018-08-18T14:50:28.112Z</time>
      </trkpt>
      <trkpt lat="48.5676310" lon="-1.9701272">
        <ele>38.977</ele>
        <time>2018-08-18T14:50:30.863Z</time>
      </trkpt>
      <trkpt lat="48.5676961" lon="-1.9702593">
        <ele>38.041</ele>
        <time>2018-08-18T14:50:33.377Z</time>
      </trkpt>
      <trkpt lat="48.5678000" lon="-1.9704054">
        <ele>37.050</ele>
        <time>2018-08-18T14:50:36.363Z</time>
      </trkpt>
      <trkpt lat="48.5679062" lon="-1.9705688">
        <ele>36.611</ele>
        <time>2018-08-18T14:50:39.285Z</time>
      </trkpt>
      <trkpt lat="48.5680144" lon="-1.9707282">
        <ele>36.692</ele>
        <time>2018-08-18T14:50:42.093Z</time>
      </trkpt>
      <trkpt lat="48.5681054" lon="-1.9708874">
        <ele>37.027</ele>
        <time>2018-08-18T14:50:44.682Z</time>
      </trkpt>
      <trkpt lat="48.5682069" lon="-1.9710324">
        <ele>37.141</ele>
        <time>2018-08-18T14:50:47.300Z</time>
      </trkpt>
      <trkpt lat="48.5682804" lon="-1.9711365">
        <ele>36.568</ele>
        <time>2018-08-18T14:50:49.199Z</time>
      </trkpt>
      <trkpt lat="48.5683873" lon="-1.9712875">
        <ele>35.383</ele>
        <time>2018-08-18T14:50:51.965Z</time>
      </trkpt>
      <trkpt lat="48.5684583" lon="-1.9713888">
        <ele>34.195</ele>
        <time>2018-08-18T14:50:53.834Z</time>
      </trkpt>
      <trkpt lat="48.5685570" lon="-1.9715271">
        <ele>33.510</ele>
        <time>2018-08-18T14:50:56.450Z</time>
      </trkpt>
      <trkpt lat="48.5686335" lon="-1.9716219">
        <ele>33.295</ele>
        <time>2018-08-18T14:50:58.404Z</time>
      </trkpt>
      <trkpt lat="48.5687284" lon="-1.9717561">
        <ele>33.257</ele>
        <time>2018-08-18T14:51:01.000Z</time>
      </trkpt>
      <trkpt lat="48.5687284" lon="-1.9717561">
        <ele>33.250</ele>
        <time>2018-08-18T14:51:03.000Z</time>
      </trkpt>
      <trkpt lat="48.5687284" lon="-1.9717561">
        <ele>33.250</ele>
        <time>2018-08-18T14:51:03.100Z</time>
      </trkpt>
      <trkpt lat="48.5689215" lon="-1.9720599">
        <ele>33.239</ele>
        <time>2018-08-18T14:51:10.995Z</time>
      </trkpt>
      <trkpt lat="48.5689983" lon="-1.9721512">
        <ele>33.016</ele>
        <time>2018-08-18T14:51:13.251Z</time>
      </trkpt>
      <trkpt lat="48.5690903" lon="-1.9722450">
        <ele>32.110</ele>
        <time>2018-08-18T14:51:15.994Z</time>
      </trkpt>
      <trkpt lat="48.5691908" lon="-1.9722993">
        <ele>30.551</ele>
        <time>2018-08-18T14:51:19.000Z</time>
      </trkpt>
      <trkpt lat="48.5691908" lon="-1.9722993">
        <ele>29.218</ele>
        <time>2018-08-18T14:51:22.000Z</time>
      </trkpt>
      <trkpt lat="48.5691908" lon="-1.9722993">
        <ele>28.728</ele>
        <time>2018-08-18T14:52:14.311Z</time>
      </trkpt>
      <trkpt lat="48.5693002" lon="-1.9725380">
        <ele>28.823</ele>
        <time>2018-08-18T14:52:35.621Z</time>
      </trkpt>
      <trkpt lat="48.5693106" lon="-1.9726750">
        <ele>28.704</ele>
        <time>2018-08-18T14:52:40.889Z</time>
      </trkpt>
      <trkpt lat="48.5693438" lon="-1.9728294">
        <ele>27.928</ele>
        <time>2018-08-18T14:52:46.606Z</time>
      </trkpt>
      <trkpt lat="48.5693861" lon="-1.9729704">
        <ele>26.590</ele>
        <time>2018-08-18T14:52:52.538Z</time>
      </trkpt>
      <trkpt lat="48.5693979" lon="-1.9731252">
        <ele>24.956</ele>
        <time>2018-08-18T14:52:58.506Z</time>
      </trkpt>
      <trkpt lat="48.5694636" lon="-1.9732293">
        <ele>23.512</ele>
        <time>2018-08-18T14:53:05.630Z</time>
      </trkpt>
      <trkpt lat="48.5695379" lon="-1.9733261">
        <ele>22.743</ele>
        <time>2018-08-18T14:53:13.852Z</time>
      </trkpt>
      <trkpt lat="48.5696126" lon="-1.9734481">
        <ele>22.501</ele>
        <time>2018-08-18T14:53:22.000Z</time>
      </trkpt>
      <trkpt lat="48.5696126" lon="-1.9734481">
        <ele>22.452</ele>
        <time>2018-08-18T14:53:42.000Z</time>
      </trkpt>
      <trkpt lat="48.5696126" lon="-1.9734481">
        <ele>22.437</ele>
        <time>2018-08-18T14:54:33.055Z</time>
      </trkpt>
      <trkpt lat="48.5698280" lon="-1.9737060">
        <ele>22.437</ele>
        <time>2018-08-18T14:54:50.314Z</time>
      </trkpt>
      <trkpt lat="48.5699274" lon="-1.9737802">
        <ele>21.918</ele>
        <time>2018-08-18T14:54:54.152Z</time>
      </trkpt>
      <trkpt lat="48.5699997" lon="-1.9738685">
        <ele>20.445</ele>
        <time>2018-08-18T14:54:57.000Z</time>
      </trkpt>
      <trkpt lat="48.5699997" lon="-1.9738685">
        <ele>18.740</ele>
        <time>2018-08-18T14:55:11.000Z</time>
      </trkpt>
      <trkpt lat="48.5699997" lon="-1.9738685">
        <ele>17.881</ele>
        <time>2018-08-18T14:55:52.784Z</time>
      </trkpt>
      <trkpt lat="48.5699221" lon="-1.9742072">
        <ele>17.956</ele>
        <time>2018-08-18T14:56:09.121Z</time>
      </trkpt>
      <trkpt lat="48.5698746" lon="-1.9743430">
        <ele>17.309</ele>
        <time>2018-08-18T14:56:13.514Z</time>
      </trkpt>
      <trkpt lat="48.5698360" lon="-1.9744836">
        <ele>14.810</ele>
        <time>2018-08-18T14:56:17.695Z</time>
      </trkpt>
      <trkpt lat="48.5697729" lon="-1.9746252">
        <ele>12.143</ele>
        <time>2018-08-18T14:56:21.970Z</time>
      </trkpt>
      <trkpt lat="48.5697034" lon="-1.9747561">
        <ele>11.038</ele>
        <time>2018-08-18T14:56:25.758Z</time>
      </trkpt>
      <trkpt lat="48.5696462" lon="-1.9748807">
        <ele>10.482</ele>
        <time>2018-08-18T14:56:29.198Z</time>
      </trkpt>
      <trkpt lat="48.5695907" lon="-1.9750118">
        <ele>9.159</ele>
        <time>2018-08-18T14:56:33.000Z</time>
      </trkpt>
      <trkpt lat="48.5695907" lon="-1.9750118">
        <ele>7.623</ele>
        <time>2018-08-18T14:56:46.000Z</time>
      </trkpt>
      <trkpt lat="48.5695907" lon="-1.9750118">
        <ele>6.981</ele>
        <time>2018-08-18T15:00:00.314Z</time>
      </trkpt>
      <trkpt lat="48.5696967" lon="-1.9748519">
        <ele>7.112</ele>
        <time>2018-08-18T15:00:11.610Z</time>
      </trkpt>
      <trkpt lat="48.5697399" lon="-1.9747115">
        <ele>7.351</ele>
        <time>2018-08-18T15:00:16.676Z</time>
      </trkpt>
      <trkpt lat="48.5697865" lon="-1.9745676">
        <ele>7.370</ele>
        <time>2018-08-18T15:00:22.111Z</time>
      </trkpt>
      <trkpt lat="48.5698261" lon="-1.9744122">
        <ele>7.377</ele>
        <time>2018-08-18T15:00:28.138Z</time>
      </trkpt>
      <trkpt lat="48.5698777" lon="-1.9742973">
        <ele>7.634</ele>
        <time>2018-08-18T15:00:33.639Z</time>
      </trkpt>
      <trkpt lat="48.5699188" lon="-1.9741747">
        <ele>8.029</ele>
        <time>2018-08-18T15:00:39.510Z</time>
      </trkpt>
      <trkpt lat="48.5699998" lon="-1.9740792">
        <ele>8.562</ele>
        <time>2018-08-18T15:00:46.604Z</time>
      </trkpt>
      <trkpt lat="48.5700757" lon="-1.9739845">
        <ele>9.667</ele>
        <time>2018-08-18T15:00:54.049Z</time>
      </trkpt>
      <trkpt lat="48.5701234" lon="-1.9738497">
        <ele>11.292</ele>
        <time>2018-08-18T15:01:01.988Z</time>
      </trkpt>
      <trkpt lat="48.5701764" lon="-1.9737392">
        <ele>12.636</ele>
        <time>2018-08-18T15:01:09.036Z</time>
      </trkpt>
      <trkpt lat="48.5702204" lon="-1.9736178">
        <ele>13.501</ele>
        <time>2018-08-18T15:01:16.617Z</time>
      </trkpt>
      <trkpt lat="48.5702551" lon="-1.9734889">
        <ele>14.447</ele>
        <time>2018-08-18T15:01:23.922Z</time>
      </trkpt>
      <trkpt lat="48.5702936" lon="-1.9733588">
        <ele>15.556</ele>
        <time>2018-08-18T15:01:30.846Z</time>
      </trkpt>
      <trkpt lat="48.5703259" lon="-1.9732221">
        <ele>16.544</ele>
        <time>2018-08-18T15:01:38.367Z</time>
      </trkpt>
      <trkpt lat="48.5703653" lon="-1.9730956">
        <ele>17.351</ele>
        <time>2018-08-18T15:01:46.309Z</time>
      </trkpt>
      <trkpt lat="48.5704184" lon="-1.9729770">
        <ele>18.027</ele>
        <time>2018-08-18T15:01:53.318Z</time>
      </trkpt>
      <trkpt lat="48.5704833" lon="-1.9728632">
        <ele>18.769</ele>
        <time>2018-08-18T15:02:00.402Z</time>
      </trkpt>
      <trkpt lat="48.5705316" lon="-1.9727279">
        <ele>19.735</ele>
        <time>2018-08-18T15:02:08.261Z</time>
      </trkpt>
      <trkpt lat="48.5705736" lon="-1.9725916">
        <ele>20.697</ele>
        <time>2018-08-18T15:02:15.531Z</time>
      </trkpt>
      <trkpt lat="48.5706352" lon="-1.9724738">
        <ele>21.362</ele>
        <time>2018-08-18T15:02:21.065Z</time>
      </trkpt>
      <trkpt lat="48.5707021" lon="-1.9723618">
        <ele>21.809</ele>
        <time>2018-08-18T15:02:26.312Z</time>
      </trkpt>
      <trkpt lat="48.5707689" lon="-1.9722654">
        <ele>22.335</ele>
        <time>2018-08-18T15:02:31.348Z</time>
      </trkpt>
      <trkpt lat="48.5708405" lon="-1.9721509">
        <ele>22.965</ele>
        <time>2018-08-18T15:02:36.817Z</time>
      </trkpt>
      <trkpt lat="48.5709087" lon="-1.9720378">
        <ele>23.373</ele>
        <time>2018-08-18T15:02:41.922Z</time>
      </trkpt>
      <trkpt lat="48.5709856" lon="-1.9719314">
        <ele>23.392</ele>
        <time>2018-08-18T15:02:47.043Z</time>
      </trkpt>
      <trkpt lat="48.5710655" lon="-1.9718402">
        <ele>23.217</ele>
        <time>2018-08-18T15:02:51.790Z</time>
      </trkpt>
      <trkpt lat="48.5711450" lon="-1.9717424">
        <ele>22.900</ele>
        <time>2018-08-18T15:02:56.769Z</time>
      </trkpt>
      <trkpt lat="48.5712216" lon="-1.9716414">
        <ele>22.400</ele>
        <time>2018-08-18T15:03:01.948Z</time>
      </trkpt>
      <trkpt lat="48.5712992" lon="-1.9715478">
        <ele>22.136</ele>
        <time>2018-08-18T15:03:07.119Z</time>
      </trkpt>
      <trkpt lat="48.5713724" lon="-1.9714541">
        <ele>22.661</ele>
        <time>2018-08-18T15:03:12.255Z</time>
      </trkpt>
      <trkpt lat="48.5714444" lon="-1.9713523">
        <ele>23.742</ele>
        <time>2018-08-18T15:03:17.944Z</time>
      </trkpt>
      <trkpt lat="48.5715084" lon="-1.9712520">
        <ele>24.676</ele>
        <time>2018-08-18T15:03:23.726Z</time>
      </trkpt>
      <trkpt lat="48.5715810" lon="-1.9711593">
        <ele>25.159</ele>
        <time>2018-08-18T15:03:29.751Z</time>
      </trkpt>
      <trkpt lat="48.5716549" lon="-1.9710576">
        <ele>25.793</ele>
        <time>2018-08-18T15:03:35.921Z</time>
      </trkpt>
      <trkpt lat="48.5717276" lon="-1.9709511">
        <ele>27.086</ele>
        <time>2018-08-18T15:03:42.154Z</time>
      </trkpt>
      <trkpt lat="48.5718067" lon="-1.9708665">
        <ele>28.553</ele>
        <time>2018-08-18T15:03:47.893Z</time>
      </trkpt>
      <trkpt lat="48.5718700" lon="-1.9707647">
        <ele>29.570</ele>
        <time>2018-08-18T15:03:53.150Z</time>
      </trkpt>
      <trkpt lat="48.5719234" lon="-1.9706408">
        <ele>30.109</ele>
        <time>2018-08-18T15:03:57.933Z</time>
      </trkpt>
      <trkpt lat="48.5719920" lon="-1.9705444">
        <ele>30.292</ele>
        <time>2018-08-18T15:04:01.372Z</time>
      </trkpt>
      <trkpt lat="48.5720604" lon="-1.9703913">
        <ele>30.327</ele>
        <time>2018-08-18T15:04:04.727Z</time>
      </trkpt>
      <trkpt lat="48.5721133" lon="-1.9702191">
        <ele>30.366</ele>
        <time>2018-08-18T15:04:07.537Z</time>
      </trkpt>
      <trkpt lat="48.5721402" lon="-1.9700405">
        <ele>29.776</ele>
        <time>2018-08-18T15:04:10.296Z</time>
      </trkpt>
      <trkpt lat="48.5721883" lon="-1.9698355">
        <ele>27.752</ele>
        <time>2018-08-18T15:04:14.010Z</time>
      </trkpt>
      <trkpt lat="48.5722038" lon="-1.9696447">
        <ele>24.598</ele>
        <time>2018-08-18T15:04:17.533Z</time>
      </trkpt>
      <trkpt lat="48.5722219" lon="-1.9694567">
        <ele>21.525</ele>
        <time>2018-08-18T15:04:20.514Z</time>
      </trkpt>
      <trkpt lat="48.5722523" lon="-1.9692949">
        <ele>19.439</ele>
        <time>2018-08-18T15:04:22.626Z</time>
      </trkpt>
      <trkpt lat="48.5722857" lon="-1.9691291">
        <ele>18.075</ele>
        <time>2018-08-18T15:04:24.611Z</time>
      </trkpt>
      <trkpt lat="48.5723259" lon="-1.9689761">
        <ele>16.626</ele>
        <time>2018-08-18T15:04:26.340Z</time>
      </trkpt>
      <trkpt lat="48.5723756" lon="-1.9686962">
        <ele>15.205</ele>
        <time>2018-08-18T15:04:29.200Z</time>
      </trkpt>
      <trkpt lat="48.5724312" lon="-1.9684034">
        <ele>14.356</ele>
        <time>2018-08-18T15:04:31.977Z</time>
      </trkpt>
      <trkpt lat="48.5724937" lon="-1.9680897">
        <ele>14.068</ele>
        <time>2018-08-18T15:04:34.744Z</time>
      </trkpt>
      <trkpt lat="48.5725477" lon="-1.9678668">
        <ele>13.901</ele>
        <time>2018-08-18T15:04:36.695Z</time>
      </trkpt>
      <trkpt lat="48.5726040" lon="-1.9675141">
        <ele>13.444</ele>
        <time>2018-08-18T15:04:39.605Z</time>
      </trkpt>
      <trkpt lat="48.5726558" lon="-1.9672862">
        <ele>12.618</ele>
        <time>2018-08-18T15:04:41.545Z</time>
      </trkpt>
      <trkpt lat="48.5727038" lon="-1.9670498">
        <ele>11.537</ele>
        <time>2018-08-18T15:04:43.595Z</time>
      </trkpt>
      <trkpt lat="48.5727442" lon="-1.9668200">
        <ele>10.425</ele>
        <time>2018-08-18T15:04:45.608Z</time>
      </trkpt>
      <trkpt lat="48.5727676" lon="-1.9664843">
        <ele>9.642</ele>
        <time>2018-08-18T15:04:48.586Z</time>
      </trkpt>
      <trkpt lat="48.5728006" lon="-1.9661481">
        <ele>9.237</ele>
        <time>2018-08-18T15:04:51.778Z</time>
      </trkpt>
      <trkpt lat="48.5728494" lon="-1.9659573">
        <ele>8.871</ele>
        <time>2018-08-18T15:04:53.776Z</time>
      </trkpt>
      <trkpt lat="48.5729534" lon="-1.9656874">
        <ele>8.359</ele>
        <time>2018-08-18T15:04:57.021Z</time>
      </trkpt>
      <trkpt lat="48.5730252" lon="-1.9655191">
        <ele>7.829</ele>
        <time>2018-08-18T15:04:59.259Z</time>
      </trkpt>
      <trkpt lat="48.5730879" lon="-1.9653621">
        <ele>7.529</ele>
        <time>2018-08-18T15:05:01.415Z</time>
      </trkpt>
      <trkpt lat="48.5731396" lon="-1.9652134">
        <ele>7.601</ele>
        <time>2018-08-18T15:05:03.488Z</time>
      </trkpt>
      <trkpt lat="48.5732204" lon="-1.9649877">
        <ele>7.906</ele>
        <time>2018-08-18T15:05:06.830Z</time>
      </trkpt>
      <trkpt lat="48.5732914" lon="-1.9647768">
        <ele>8.165</ele>
        <time>2018-08-18T15:05:10.152Z</time>
      </trkpt>
      <trkpt lat="48.5733497" lon="-1.9645904">
        <ele>7.910</ele>
        <time>2018-08-18T15:05:13.201Z</time>
      </trkpt>
      <trkpt lat="48.5734157" lon="-1.9644298">
        <ele>6.934</ele>
        <time>2018-08-18T15:05:16.021Z</time>
      </trkpt>
      <trkpt lat="48.5734867" lon="-1.9642413">
        <ele>5.706</ele>
        <time>2018-08-18T15:05:19.206Z</time>
      </trkpt>
      <trkpt lat="48.5735473" lon="-1.9640696">
        <ele>4.649</ele>
        <time>2018-08-18T15:05:22.008Z</time>
      </trkpt>
      <trkpt lat="48.5736057" lon="-1.9639398">
        <ele>3.628</ele>
        <time>2018-08-18T15:05:24.272Z</time>
      </trkpt>
      <trkpt lat="48.5736805" lon="-1.9637708">
        <ele>2.670</ele>
        <time>2018-08-18T15:05:27.200Z</time>
      </trkpt>
      <trkpt lat="48.5737519" lon="-1.9635798">
        <ele>2.101</ele>
        <time>2018-08-18T15:05:30.373Z</time>
      </trkpt>
      <trkpt lat="48.5738141" lon="-1.9634118">
        <ele>2.024</ele>
        <time>2018-08-18T15:05:33.183Z</time>
      </trkpt>
      <trkpt lat="48.5738771" lon="-1.9632177">
        <ele>2.177</ele>
        <time>2018-08-18T15:05:36.332Z</time>
      </trkpt>
      <trkpt lat="48.5739177" lon="-1.9630945">
        <ele>2.399</ele>
        <time>2018-08-18T15:05:38.308Z</time>
      </trkpt>
      <trkpt lat="48.5739774" lon="-1.9629055">
        <ele>2.602</ele>
        <time>2018-08-18T15:05:41.232Z</time>
      </trkpt>
      <trkpt lat="48.5740259" lon="-1.9627862">
        <ele>2.717</ele>
        <time>2018-08-18T15:05:43.156Z</time>
      </trkpt>
      <trkpt lat="48.5740718" lon="-1.9626463">
        <ele>2.846</ele>
        <time>2018-08-18T15:05:45.305Z</time>
      </trkpt>
      <trkpt lat="48.5741366" lon="-1.9624614">
        <ele>3.042</ele>
        <time>2018-08-18T15:05:48.218Z</time>
      </trkpt>
      <trkpt lat="48.5741905" lon="-1.9622530">
        <ele>3.098</ele>
        <time>2018-08-18T15:05:51.399Z</time>
      </trkpt>
      <trkpt lat="48.5742211" lon="-1.9620639">
        <ele>2.943</ele>
        <time>2018-08-18T15:05:54.271Z</time>
      </trkpt>
      <trkpt lat="48.5742341" lon="-1.9618727">
        <ele>3.020</ele>
        <time>2018-08-18T15:05:57.252Z</time>
      </trkpt>
      <trkpt lat="48.5742443" lon="-1.9616890">
        <ele>3.855</ele>
        <time>2018-08-18T15:06:00.321Z</time>
      </trkpt>
      <trkpt lat="48.5742457" lon="-1.9615246">
        <ele>5.241</ele>
        <time>2018-08-18T15:06:03.147Z</time>
      </trkpt>
      <trkpt lat="48.5742633" lon="-1.9613625">
        <ele>6.703</ele>
        <time>2018-08-18T15:06:05.867Z</time>
      </trkpt>
      <trkpt lat="48.5742764" lon="-1.9611862">
        <ele>7.958</ele>
        <time>2018-08-18T15:06:08.610Z</time>
      </trkpt>
      <trkpt lat="48.5742945" lon="-1.9610027">
        <ele>8.651</ele>
        <time>2018-08-18T15:06:11.299Z</time>
      </trkpt>
      <trkpt lat="48.5743055" lon="-1.9607990">
        <ele>8.620</ele>
        <time>2018-08-18T15:06:14.144Z</time>
      </trkpt>
      <trkpt lat="48.5743156" lon="-1.9605817">
        <ele>8.133</ele>
        <time>2018-08-18T15:06:17.140Z</time>
      </trkpt>
      <trkpt lat="48.5743210" lon="-1.9604396">
        <ele>7.446</ele>
        <time>2018-08-18T15:06:19.133Z</time>
      </trkpt>
      <trkpt lat="48.5743327" lon="-1.9602957">
        <ele>6.758</ele>
        <time>2018-08-18T15:06:21.191Z</time>
      </trkpt>
      <trkpt lat="48.5743326" lon="-1.9601007">
        <ele>6.427</ele>
        <time>2018-08-18T15:06:23.995Z</time>
      </trkpt>
      <trkpt lat="48.5743420" lon="-1.9598957">
        <ele>6.650</ele>
        <time>2018-08-18T15:06:26.990Z</time>
      </trkpt>
      <trkpt lat="48.5743532" lon="-1.9597605">
        <ele>7.148</ele>
        <time>2018-08-18T15:06:29.002Z</time>
      </trkpt>
      <trkpt lat="48.5743643" lon="-1.9595714">
        <ele>7.550</ele>
        <time>2018-08-18T15:06:31.838Z</time>
      </trkpt>
      <trkpt lat="48.5743750" lon="-1.9593728">
        <ele>7.661</ele>
        <time>2018-08-18T15:06:34.851Z</time>
      </trkpt>
      <trkpt lat="48.5743919" lon="-1.9591861">
        <ele>7.501</ele>
        <time>2018-08-18T15:06:37.714Z</time>
      </trkpt>
      <trkpt lat="48.5743932" lon="-1.9589987">
        <ele>7.325</ele>
        <time>2018-08-18T15:06:40.543Z</time>
      </trkpt>
      <trkpt lat="48.5744061" lon="-1.9588056">
        <ele>7.327</ele>
        <time>2018-08-18T15:06:43.468Z</time>
      </trkpt>
      <trkpt lat="48.5744189" lon="-1.9586052">
        <ele>7.427</ele>
        <time>2018-08-18T15:06:46.521Z</time>
      </trkpt>
      <trkpt lat="48.5744352" lon="-1.9584035">
        <ele>7.435</ele>
        <time>2018-08-18T15:06:49.599Z</time>
      </trkpt>
      <trkpt lat="48.5744487" lon="-1.9582080">
        <ele>7.289</ele>
        <time>2018-08-18T15:06:52.545Z</time>
      </trkpt>
      <trkpt lat="48.5744561" lon="-1.9580725">
        <ele>7.125</ele>
        <time>2018-08-18T15:06:54.581Z</time>
      </trkpt>
      <trkpt lat="48.5744640" lon="-1.9578786">
        <ele>7.092</ele>
        <time>2018-08-18T15:06:57.510Z</time>
      </trkpt>
      <trkpt lat="48.5744743" lon="-1.9576909">
        <ele>7.297</ele>
        <time>2018-08-18T15:07:00.424Z</time>
      </trkpt>
      <trkpt lat="48.5744859" lon="-1.9575104">
        <ele>7.716</ele>
        <time>2018-08-18T15:07:03.393Z</time>
      </trkpt>
      <trkpt lat="48.5744990" lon="-1.9573329">
        <ele>8.028</ele>
        <time>2018-08-18T15:07:06.482Z</time>
      </trkpt>
      <trkpt lat="48.5745133" lon="-1.9571675">
        <ele>7.969</ele>
        <time>2018-08-18T15:07:09.512Z</time>
      </trkpt>
      <trkpt lat="48.5745252" lon="-1.9570125">
        <ele>7.530</ele>
        <time>2018-08-18T15:07:12.536Z</time>
      </trkpt>
      <trkpt lat="48.5745372" lon="-1.9568643">
        <ele>6.835</ele>
        <time>2018-08-18T15:07:15.657Z</time>
      </trkpt>
      <trkpt lat="48.5745512" lon="-1.9567281">
        <ele>6.111</ele>
        <time>2018-08-18T15:07:18.727Z</time>
      </trkpt>
      <trkpt lat="48.5745652" lon="-1.9565533">
        <ele>5.524</ele>
        <time>2018-08-18T15:07:22.926Z</time>
      </trkpt>
      <trkpt lat="48.5745878" lon="-1.9563945">
        <ele>5.126</ele>
        <time>2018-08-18T15:07:27.316Z</time>
      </trkpt>
      <trkpt lat="48.5746031" lon="-1.9562420">
        <ele>5.187</ele>
        <time>2018-08-18T15:07:31.824Z</time>
      </trkpt>
      <trkpt lat="48.5746168" lon="-1.9560803">
        <ele>5.792</ele>
        <time>2018-08-18T15:07:36.415Z</time>
      </trkpt>
      <trkpt lat="48.5746252" lon="-1.9559359">
        <ele>6.471</ele>
        <time>2018-08-18T15:07:40.122Z</time>
      </trkpt>
      <trkpt lat="48.5746261" lon="-1.9557817">
        <ele>7.053</ele>
        <time>2018-08-18T15:07:43.830Z</time>
      </trkpt>
      <trkpt lat="48.5746371" lon="-1.9556286">
        <ele>7.751</ele>
        <time>2018-08-18T15:07:47.537Z</time>
      </trkpt>
      <trkpt lat="48.5746427" lon="-1.9554719">
        <ele>8.194</ele>
        <time>2018-08-18T15:07:51.238Z</time>
      </trkpt>
      <trkpt lat="48.5746493" lon="-1.9553054">
        <ele>7.967</ele>
        <time>2018-08-18T15:07:55.043Z</time>
      </trkpt>
      <trkpt lat="48.5746582" lon="-1.9551317">
        <ele>7.323</ele>
        <time>2018-08-18T15:07:58.897Z</time>
      </trkpt>
      <trkpt lat="48.5746788" lon="-1.9549978">
        <ele>6.678</ele>
        <time>2018-08-18T15:08:01.884Z</time>
      </trkpt>
      <trkpt lat="48.5747202" lon="-1.9548746">
        <ele>6.242</ele>
        <time>2018-08-18T15:08:04.921Z</time>
      </trkpt>
      <trkpt lat="48.5747740" lon="-1.9547648">
        <ele>6.149</ele>
        <time>2018-08-18T15:08:07.985Z</time>
      </trkpt>
      <trkpt lat="48.5748403" lon="-1.9546721">
        <ele>6.443</ele>
        <time>2018-08-18T15:08:11.002Z</time>
      </trkpt>
      <trkpt lat="48.5749170" lon="-1.9545925">
        <ele>7.030</ele>
        <time>2018-08-18T15:08:14.011Z</time>
      </trkpt>
      <trkpt lat="48.5749993" lon="-1.9545305">
        <ele>7.682</ele>
        <time>2018-08-18T15:08:16.899Z</time>
      </trkpt>
      <trkpt lat="48.5750901" lon="-1.9544819">
        <ele>8.150</ele>
        <time>2018-08-18T15:08:19.770Z</time>
      </trkpt>
      <trkpt lat="48.5751911" lon="-1.9544486">
        <ele>8.272</ele>
        <time>2018-08-18T15:08:22.675Z</time>
      </trkpt>
      <trkpt lat="48.5752999" lon="-1.9544224">
        <ele>8.109</ele>
        <time>2018-08-18T15:08:25.610Z</time>
      </trkpt>
      <trkpt lat="48.5754124" lon="-1.9543955">
        <ele>7.931</ele>
        <time>2018-08-18T15:08:28.542Z</time>
      </trkpt>
      <trkpt lat="48.5755268" lon="-1.9543710">
        <ele>7.925</ele>
        <time>2018-08-18T15:08:31.459Z</time>
      </trkpt>
      <trkpt lat="48.5756469" lon="-1.9543406">
        <ele>7.986</ele>
        <time>2018-08-18T15:08:34.516Z</time>
      </trkpt>
      <trkpt lat="48.5757646" lon="-1.9543063">
        <ele>7.979</ele>
        <time>2018-08-18T15:08:37.561Z</time>
      </trkpt>
      <trkpt lat="48.5758763" lon="-1.9542830">
        <ele>7.998</ele>
        <time>2018-08-18T15:08:40.383Z</time>
      </trkpt>
      <trkpt lat="48.5759958" lon="-1.9542534">
        <ele>8.148</ele>
        <time>2018-08-18T15:08:43.318Z</time>
      </trkpt>
      <trkpt lat="48.5761148" lon="-1.9542183">
        <ele>8.292</ele>
        <time>2018-08-18T15:08:46.238Z</time>
      </trkpt>
      <trkpt lat="48.5762344" lon="-1.9541860">
        <ele>8.180</ele>
        <time>2018-08-18T15:08:49.168Z</time>
      </trkpt>
      <trkpt lat="48.5763560" lon="-1.9541522">
        <ele>7.833</ele>
        <time>2018-08-18T15:08:52.103Z</time>
      </trkpt>
      <trkpt lat="48.5764720" lon="-1.9541134">
        <ele>7.531</ele>
        <time>2018-08-18T15:08:54.974Z</time>
      </trkpt>
      <trkpt lat="48.5765814" lon="-1.9540733">
        <ele>7.427</ele>
        <time>2018-08-18T15:08:57.842Z</time>
      </trkpt>
      <trkpt lat="48.5766859" lon="-1.9540285">
        <ele>7.434</ele>
        <time>2018-08-18T15:09:00.765Z</time>
      </trkpt>
      <trkpt lat="48.5767760" lon="-1.9539880">
        <ele>7.438</ele>
        <time>2018-08-18T15:09:03.511Z</time>
      </trkpt>
      <trkpt lat="48.5768872" lon="-1.9539366">
        <ele>7.385</ele>
        <time>2018-08-18T15:09:07.233Z</time>
      </trkpt>
      <trkpt lat="48.5769948" lon="-1.9538946">
        <ele>7.355</ele>
        <time>2018-08-18T15:09:11.100Z</time>
      </trkpt>
      <trkpt lat="48.5771116" lon="-1.9538504">
        <ele>7.420</ele>
        <time>2018-08-18T15:09:15.188Z</time>
      </trkpt>
      <trkpt lat="48.5772149" lon="-1.9538307">
        <ele>7.456</ele>
        <time>2018-08-18T15:09:18.412Z</time>
      </trkpt>
      <trkpt lat="48.5773190" lon="-1.9538157">
        <ele>7.349</ele>
        <time>2018-08-18T15:09:21.488Z</time>
      </trkpt>
      <trkpt lat="48.5774295" lon="-1.9538071">
        <ele>7.261</ele>
        <time>2018-08-18T15:09:24.635Z</time>
      </trkpt>
      <trkpt lat="48.5775400" lon="-1.9537983">
        <ele>7.352</ele>
        <time>2018-08-18T15:09:27.697Z</time>
      </trkpt>
      <trkpt lat="48.5776499" lon="-1.9537881">
        <ele>7.576</ele>
        <time>2018-08-18T15:09:30.680Z</time>
      </trkpt>
      <trkpt lat="48.5777616" lon="-1.9537745">
        <ele>7.832</ele>
        <time>2018-08-18T15:09:33.666Z</time>
      </trkpt>
      <trkpt lat="48.5778810" lon="-1.9537613">
        <ele>8.135</ele>
        <time>2018-08-18T15:09:36.809Z</time>
      </trkpt>
      <trkpt lat="48.5779924" lon="-1.9537468">
        <ele>8.584</ele>
        <time>2018-08-18T15:09:39.700Z</time>
      </trkpt>
      <trkpt lat="48.5781120" lon="-1.9537288">
        <ele>9.098</ele>
        <time>2018-08-18T15:09:42.801Z</time>
      </trkpt>
      <trkpt lat="48.5782216" lon="-1.9537108">
        <ele>9.515</ele>
        <time>2018-08-18T15:09:45.738Z</time>
      </trkpt>
      <trkpt lat="48.5783229" lon="-1.9537003">
        <ele>9.821</ele>
        <time>2018-08-18T15:09:48.510Z</time>
      </trkpt>
      <trkpt lat="48.5784296" lon="-1.9536899">
        <ele>9.994</ele>
        <time>2018-08-18T15:09:51.415Z</time>
      </trkpt>
      <trkpt lat="48.5785419" lon="-1.9536757">
        <ele>9.902</ele>
        <time>2018-08-18T15:09:54.446Z</time>
      </trkpt>
      <trkpt lat="48.5786523" lon="-1.9536623">
        <ele>9.449</ele>
        <time>2018-08-18T15:09:57.423Z</time>
      </trkpt>
      <trkpt lat="48.5787568" lon="-1.9536453">
        <ele>8.761</ele>
        <time>2018-08-18T15:10:00.296Z</time>
      </trkpt>
      <trkpt lat="48.5788606" lon="-1.9536245">
        <ele>8.219</ele>
        <time>2018-08-18T15:10:03.218Z</time>
      </trkpt>
      <trkpt lat="48.5789574" lon="-1.9535997">
        <ele>8.294</ele>
        <time>2018-08-18T15:10:06.067Z</time>
      </trkpt>
      <trkpt lat="48.5790440" lon="-1.9535628">
        <ele>8.998</ele>
        <time>2018-08-18T15:10:08.842Z</time>
      </trkpt>
      <trkpt lat="48.5791652" lon="-1.9535382">
        <ele>9.676</ele>
        <time>2018-08-18T15:10:12.763Z</time>
      </trkpt>
      <trkpt lat="48.5792529" lon="-1.9535691">
        <ele>9.621</ele>
        <time>2018-08-18T15:10:15.679Z</time>
      </trkpt>
      <trkpt lat="48.5793611" lon="-1.9536422">
        <ele>8.846</ele>
        <time>2018-08-18T15:10:19.682Z</time>
      </trkpt>
      <trkpt lat="48.5794560" lon="-1.9537117">
        <ele>8.014</ele>
        <time>2018-08-18T15:10:23.701Z</time>
      </trkpt>
      <trkpt lat="48.5795545" lon="-1.9537623">
        <ele>7.643</ele>
        <time>2018-08-18T15:10:28.082Z</time>
      </trkpt>
      <trkpt lat="48.5796430" lon="-1.9538158">
        <ele>7.839</ele>
        <time>2018-08-18T15:10:32.007Z</time>
      </trkpt>
      <trkpt lat="48.5797421" lon="-1.9538833">
        <ele>8.463</ele>
        <time>2018-08-18T15:10:36.682Z</time>
      </trkpt>
      <trkpt lat="48.5798225" lon="-1.9539461">
        <ele>9.090</ele>
        <time>2018-08-18T15:10:40.738Z</time>
      </trkpt>
      <trkpt lat="48.5799058" lon="-1.9540177">
        <ele>9.419</ele>
        <time>2018-08-18T15:10:45.344Z</time>
      </trkpt>
      <trkpt lat="48.5799830" lon="-1.9541035">
        <ele>9.426</ele>
        <time>2018-08-18T15:10:50.226Z</time>
      </trkpt>
      <trkpt lat="48.5800566" lon="-1.9541950">
        <ele>9.172</ele>
        <time>2018-08-18T15:10:55.118Z</time>
      </trkpt>
      <trkpt lat="48.5801170" lon="-1.9543004">
        <ele>8.842</ele>
        <time>2018-08-18T15:10:59.941Z</time>
      </trkpt>
      <trkpt lat="48.5801726" lon="-1.9544098">
        <ele>8.590</ele>
        <time>2018-08-18T15:11:04.828Z</time>
      </trkpt>
      <trkpt lat="48.5802326" lon="-1.9545214">
        <ele>8.438</ele>
        <time>2018-08-18T15:11:09.919Z</time>
      </trkpt>
      <trkpt lat="48.5802848" lon="-1.9546525">
        <ele>8.428</ele>
        <time>2018-08-18T15:11:15.180Z</time>
      </trkpt>
      <trkpt lat="48.5803307" lon="-1.9548023">
        <ele>8.596</ele>
        <time>2018-08-18T15:11:20.544Z</time>
      </trkpt>
      <trkpt lat="48.5803643" lon="-1.9549319">
        <ele>8.852</ele>
        <time>2018-08-18T15:11:24.786Z</time>
      </trkpt>
      <trkpt lat="48.5803964" lon="-1.9550642">
        <ele>9.069</ele>
        <time>2018-08-18T15:11:28.901Z</time>
      </trkpt>
      <trkpt lat="48.5804278" lon="-1.9552036">
        <ele>9.229</ele>
        <time>2018-08-18T15:11:33.044Z</time>
      </trkpt>
      <trkpt lat="48.5804612" lon="-1.9553564">
        <ele>9.363</ele>
        <time>2018-08-18T15:11:37.275Z</time>
      </trkpt>
      <trkpt lat="48.5805005" lon="-1.9555148">
        <ele>9.492</ele>
        <time>2018-08-18T15:11:41.377Z</time>
      </trkpt>
      <trkpt lat="48.5805348" lon="-1.9556597">
        <ele>9.679</ele>
        <time>2018-08-18T15:11:45.000Z</time>
      </trkpt>
      <trkpt lat="48.5805348" lon="-1.9556597">
        <ele>9.923</ele>
        <time>2018-08-18T15:11:46.000Z</time>
      </trkpt>
      <trkpt lat="48.5805348" lon="-1.9556597">
        <ele>10.077</ele>
        <time>2018-08-18T15:11:46.100Z</time>
      </trkpt>
      <trkpt lat="48.5806001" lon="-1.9559272">
        <ele>10.064</ele>
        <time>2018-08-18T15:11:54.788Z</time>
      </trkpt>
      <trkpt lat="48.5806291" lon="-1.9560584">
        <ele>10.060</ele>
        <time>2018-08-18T15:11:57.454Z</time>
      </trkpt>
      <trkpt lat="48.5806547" lon="-1.9561921">
        <ele>10.209</ele>
        <time>2018-08-18T15:12:00.090Z</time>
      </trkpt>
      <trkpt lat="48.5806855" lon="-1.9563241">
        <ele>10.387</ele>
        <time>2018-08-18T15:12:02.739Z</time>
      </trkpt>
      <trkpt lat="48.5807366" lon="-1.9564899">
        <ele>10.404</ele>
        <time>2018-08-18T15:12:06.184Z</time>
      </trkpt>
      <trkpt lat="48.5807671" lon="-1.9566277">
        <ele>10.269</ele>
        <time>2018-08-18T15:12:08.892Z</time>
      </trkpt>
      <trkpt lat="48.5807952" lon="-1.9567891">
        <ele>10.171</ele>
        <time>2018-08-18T15:12:12.000Z</time>
      </trkpt>
      <trkpt lat="48.5807952" lon="-1.9567891">
        <ele>10.231</ele>
        <time>2018-08-18T15:12:13.000Z</time>
      </trkpt>
      <trkpt lat="48.5807952" lon="-1.9567891">
        <ele>10.327</ele>
        <time>2018-08-18T15:12:13.100Z</time>
      </trkpt>
      <trkpt lat="48.5808586" lon="-1.9570418">
        <ele>10.327</ele>
        <time>2018-08-18T15:12:21.297Z</time>
      </trkpt>
      <trkpt lat="48.5808920" lon="-1.9572055">
        <ele>10.355</ele>
        <time>2018-08-18T15:12:25.166Z</time>
      </trkpt>
      <trkpt lat="48.5809300" lon="-1.9573571">
        <ele>10.622</ele>
        <time>2018-08-18T15:12:28.969Z</time>
      </trkpt>
      <trkpt lat="48.5809698" lon="-1.9575142">
        <ele>11.111</ele>
        <time>2018-08-18T15:12:32.902Z</time>
      </trkpt>
      <trkpt lat="48.5810025" lon="-1.9576793">
        <ele>11.588</ele>
        <time>2018-08-18T15:12:36.882Z</time>
      </trkpt>
      <trkpt lat="48.5810306" lon="-1.9578511">
        <ele>11.939</ele>
        <time>2018-08-18T15:12:40.953Z</time>
      </trkpt>
      <trkpt lat="48.5810642" lon="-1.9580131">
        <ele>12.207</ele>
        <time>2018-08-18T15:12:44.891Z</time>
      </trkpt>
      <trkpt lat="48.5810994" lon="-1.9581650">
        <ele>12.382</ele>
        <time>2018-08-18T15:12:48.677Z</time>
      </trkpt>
      <trkpt lat="48.5811388" lon="-1.9583199">
        <ele>12.497</ele>
        <time>2018-08-18T15:12:52.679Z</time>
      </trkpt>
      <trkpt lat="48.5811855" lon="-1.9584541">
        <ele>12.700</ele>
        <time>2018-08-18T15:12:56.396Z</time>
      </trkpt>
      <trkpt lat="48.5812239" lon="-1.9586007">
        <ele>13.055</ele>
        <time>2018-08-18T15:13:00.184Z</time>
      </trkpt>
      <trkpt lat="48.5812603" lon="-1.9587663">
        <ele>13.457</ele>
        <time>2018-08-18T15:13:04.260Z</time>
      </trkpt>
      <trkpt lat="48.5812931" lon="-1.9589209">
        <ele>13.628</ele>
        <time>2018-08-18T15:13:08.113Z</time>
      </trkpt>
      <trkpt lat="48.5813279" lon="-1.9590554">
        <ele>13.447</ele>
        <time>2018-08-18T15:13:11.686Z</time>
      </trkpt>
      <trkpt lat="48.5813599" lon="-1.9591906">
        <ele>13.318</ele>
        <time>2018-08-18T15:13:15.278Z</time>
      </trkpt>
      <trkpt lat="48.5813897" lon="-1.9593484">
        <ele>13.636</ele>
        <time>2018-08-18T15:13:19.245Z</time>
      </trkpt>
      <trkpt lat="48.5814268" lon="-1.9595073">
        <ele>14.253</ele>
        <time>2018-08-18T15:13:23.174Z</time>
      </trkpt>
      <trkpt lat="48.5814689" lon="-1.9596695">
        <ele>14.803</ele>
        <time>2018-08-18T15:13:27.147Z</time>
      </trkpt>
      <trkpt lat="48.5815121" lon="-1.9598274">
        <ele>15.026</ele>
        <time>2018-08-18T15:13:30.971Z</time>
      </trkpt>
      <trkpt lat="48.5815434" lon="-1.9599933">
        <ele>14.900</ele>
        <time>2018-08-18T15:13:34.782Z</time>
      </trkpt>
      <trkpt lat="48.5815846" lon="-1.9601441">
        <ele>14.666</ele>
        <time>2018-08-18T15:13:38.392Z</time>
      </trkpt>
      <trkpt lat="48.5816335" lon="-1.9602848">
        <ele>14.450</ele>
        <time>2018-08-18T15:13:42.000Z</time>
      </trkpt>
      <trkpt lat="48.5816335" lon="-1.9602848">
        <ele>14.211</ele>
        <time>2018-08-18T15:13:42.000Z</time>
      </trkpt>
      <trkpt lat="48.5816335" lon="-1.9602848">
        <ele>14.047</ele>
        <time>2018-08-18T15:13:42.100Z</time>
      </trkpt>
      <trkpt lat="48.5816748" lon="-1.9604804">
        <ele>14.049</ele>
        <time>2018-08-18T15:13:48.927Z</time>
      </trkpt>
      <trkpt lat="48.5817255" lon="-1.9606363">
        <ele>13.698</ele>
        <time>2018-08-18T15:13:52.551Z</time>
      </trkpt>
      <trkpt lat="48.5817777" lon="-1.9607801">
        <ele>12.640</ele>
        <time>2018-08-18T15:13:55.955Z</time>
      </trkpt>
      <trkpt lat="48.5818089" lon="-1.9609167">
        <ele>11.516</ele>
        <time>2018-08-18T15:13:59.000Z</time>
      </trkpt>
      <trkpt lat="48.5818089" lon="-1.9609167">
        <ele>10.972</ele>
        <time>2018-08-18T15:14:01.000Z</time>
      </trkpt>
      <trkpt lat="48.5818089" lon="-1.9609167">
        <ele>10.865</ele>
        <time>2018-08-18T15:14:01.100Z</time>
      </trkpt>
      <trkpt lat="48.5819286" lon="-1.9611761">
        <ele>10.980</ele>
        <time>2018-08-18T15:14:12.930Z</time>
      </trkpt>
      <trkpt lat="48.5819964" lon="-1.9613203">
        <ele>11.390</ele>
        <time>2018-08-18T15:14:16.734Z</time>
      </trkpt>
      <trkpt lat="48.5820545" lon="-1.9614280">
        <ele>12.203</ele>
        <time>2018-08-18T15:14:19.629Z</time>
      </trkpt>
      <trkpt lat="48.5821193" lon="-1.9615341">
        <ele>13.130</ele>
        <time>2018-08-18T15:14:22.720Z</time>
      </trkpt>
      <trkpt lat="48.5821970" lon="-1.9616468">
        <ele>13.728</ele>
        <time>2018-08-18T15:14:26.572Z</time>
      </trkpt>
      <trkpt lat="48.5822705" lon="-1.9617481">
        <ele>13.849</ele>
        <time>2018-08-18T15:14:30.442Z</time>
      </trkpt>
      <trkpt lat="48.5823372" lon="-1.9618393">
        <ele>13.663</ele>
        <time>2018-08-18T15:14:34.157Z</time>
      </trkpt>
      <trkpt lat="48.5824301" lon="-1.9619030">
        <ele>13.792</ele>
        <time>2018-08-18T15:14:38.606Z</time>
      </trkpt>
      <trkpt lat="48.5825102" lon="-1.9619767">
        <ele>14.633</ele>
        <time>2018-08-18T15:14:42.761Z</time>
      </trkpt>
      <trkpt lat="48.5825926" lon="-1.9620443">
        <ele>15.613</ele>
        <time>2018-08-18T15:14:46.627Z</time>
      </trkpt>
      <trkpt lat="48.5826878" lon="-1.9620830">
        <ele>15.735</ele>
        <time>2018-08-18T15:14:50.414Z</time>
      </trkpt>
      <trkpt lat="48.5827624" lon="-1.9621700">
        <ele>14.520</ele>
        <time>2018-08-18T15:14:54.000Z</time>
      </trkpt>
      <trkpt lat="48.5827624" lon="-1.9621700">
        <ele>12.571</ele>
        <time>2018-08-18T15:14:54.000Z</time>
      </trkpt>
      <trkpt lat="48.5827624" lon="-1.9621700">
        <ele>11.334</ele>
        <time>2018-08-18T15:14:54.100Z</time>
      </trkpt>
      <trkpt lat="48.5828865" lon="-1.9623738">
        <ele>11.667</ele>
        <time>2018-08-18T15:15:07.383Z</time>
      </trkpt>
      <trkpt lat="48.5829591" lon="-1.9624790">
        <ele>13.262</ele>
        <time>2018-08-18T15:15:12.269Z</time>
      </trkpt>
      <trkpt lat="48.5830293" lon="-1.9625813">
        <ele>15.127</ele>
        <time>2018-08-18T15:15:17.275Z</time>
      </trkpt>
      <trkpt lat="48.5831037" lon="-1.9626671">
        <ele>16.698</ele>
        <time>2018-08-18T15:15:22.213Z</time>
      </trkpt>
      <trkpt lat="48.5831784" lon="-1.9627652">
        <ele>17.998</ele>
        <time>2018-08-18T15:15:27.548Z</time>
      </trkpt>
      <trkpt lat="48.5832572" lon="-1.9628344">
        <ele>18.985</ele>
        <time>2018-08-18T15:15:32.304Z</time>
      </trkpt>
      <trkpt lat="48.5833395" lon="-1.9628959">
        <ele>19.604</ele>
        <time>2018-08-18T15:15:36.989Z</time>
      </trkpt>
      <trkpt lat="48.5834251" lon="-1.9629904">
        <ele>20.116</ele>
        <time>2018-08-18T15:15:42.453Z</time>
      </trkpt>
      <trkpt lat="48.5835077" lon="-1.9630961">
        <ele>20.856</ele>
        <time>2018-08-18T15:15:48.407Z</time>
      </trkpt>
      <trkpt lat="48.5835856" lon="-1.9631830">
        <ele>21.851</ele>
        <time>2018-08-18T15:15:54.466Z</time>
      </trkpt>
      <trkpt lat="48.5836555" lon="-1.9632837">
        <ele>22.648</ele>
        <time>2018-08-18T15:16:00.845Z</time>
      </trkpt>
      <trkpt lat="48.5837492" lon="-1.9633558">
        <ele>22.976</ele>
        <time>2018-08-18T15:16:07.568Z</time>
      </trkpt>
      <trkpt lat="48.5838331" lon="-1.9634419">
        <ele>23.242</ele>
        <time>2018-08-18T15:16:14.147Z</time>
      </trkpt>
      <trkpt lat="48.5839190" lon="-1.9634900">
        <ele>23.805</ele>
        <time>2018-08-18T15:16:20.067Z</time>
      </trkpt>
      <trkpt lat="48.5839951" lon="-1.9635900">
        <ele>24.463</ele>
        <time>2018-08-18T15:16:26.343Z</time>
      </trkpt>
      <trkpt lat="48.5840746" lon="-1.9637038">
        <ele>24.954</ele>
        <time>2018-08-18T15:16:32.746Z</time>
      </trkpt>
      <trkpt lat="48.5841567" lon="-1.9638134">
        <ele>25.410</ele>
        <time>2018-08-18T15:16:39.081Z</time>
      </trkpt>
      <trkpt lat="48.5842343" lon="-1.9638860">
        <ele>25.907</ele>
        <time>2018-08-18T15:16:44.079Z</time>
      </trkpt>
      <trkpt lat="48.5843140" lon="-1.9639532">
        <ele>26.287</ele>
        <time>2018-08-18T15:16:48.971Z</time>
      </trkpt>
      <trkpt lat="48.5843972" lon="-1.9640107">
        <ele>26.283</ele>
        <time>2018-08-18T15:16:53.917Z</time>
      </trkpt>
      <trkpt lat="48.5844957" lon="-1.9640705">
        <ele>25.815</ele>
        <time>2018-08-18T15:16:59.135Z</time>
      </trkpt>
      <trkpt lat="48.5845984" lon="-1.9641111">
        <ele>25.135</ele>
        <time>2018-08-18T15:17:03.512Z</time>
      </trkpt>
      <trkpt lat="48.5846969" lon="-1.9641305">
        <ele>24.413</ele>
        <time>2018-08-18T15:17:07.171Z</time>
      </trkpt>
      <trkpt lat="48.5848066" lon="-1.9641532">
        <ele>23.564</ele>
        <time>2018-08-18T15:17:11.040Z</time>
      </trkpt>
      <trkpt lat="48.5849132" lon="-1.9641488">
        <ele>22.850</ele>
        <time>2018-08-18T15:17:14.611Z</time>
      </trkpt>
      <trkpt lat="48.5850034" lon="-1.9641315">
        <ele>22.535</ele>
        <time>2018-08-18T15:17:17.434Z</time>
      </trkpt>
      <trkpt lat="48.5851026" lon="-1.9640895">
        <ele>22.406</ele>
        <time>2018-08-18T15:17:20.355Z</time>
      </trkpt>
      <trkpt lat="48.5852112" lon="-1.9640440">
        <ele>22.240</ele>
        <time>2018-08-18T15:17:23.242Z</time>
      </trkpt>
      <trkpt lat="48.5853261" lon="-1.9639645">
        <ele>22.024</ele>
        <time>2018-08-18T15:17:26.175Z</time>
      </trkpt>
      <trkpt lat="48.5854523" lon="-1.9638404">
        <ele>21.708</ele>
        <time>2018-08-18T15:17:29.378Z</time>
      </trkpt>
      <trkpt lat="48.5855358" lon="-1.9637488">
        <ele>21.273</ele>
        <time>2018-08-18T15:17:31.504Z</time>
      </trkpt>
      <trkpt lat="48.5856363" lon="-1.9636181">
        <ele>20.822</ele>
        <time>2018-08-18T15:17:34.167Z</time>
      </trkpt>
      <trkpt lat="48.5856969" lon="-1.9634945">
        <ele>20.402</ele>
        <time>2018-08-18T15:17:36.131Z</time>
      </trkpt>
      <trkpt lat="48.5857550" lon="-1.9633636">
        <ele>19.953</ele>
        <time>2018-08-18T15:17:38.092Z</time>
      </trkpt>
      <trkpt lat="48.5858441" lon="-1.9631603">
        <ele>19.455</ele>
        <time>2018-08-18T15:17:41.030Z</time>
      </trkpt>
      <trkpt lat="48.5859464" lon="-1.9629567">
        <ele>18.944</ele>
        <time>2018-08-18T15:17:44.017Z</time>
      </trkpt>
      <trkpt lat="48.5860432" lon="-1.9627443">
        <ele>18.403</ele>
        <time>2018-08-18T15:17:46.936Z</time>
      </trkpt>
      <trkpt lat="48.5861125" lon="-1.9626037">
        <ele>17.788</ele>
        <time>2018-08-18T15:17:48.885Z</time>
      </trkpt>
      <trkpt lat="48.5862030" lon="-1.9623919">
        <ele>17.190</ele>
        <time>2018-08-18T15:17:51.642Z</time>
      </trkpt>
      <trkpt lat="48.5862993" lon="-1.9621613">
        <ele>16.744</ele>
        <time>2018-08-18T15:17:54.570Z</time>
      </trkpt>
      <trkpt lat="48.5864032" lon="-1.9619248">
        <ele>16.235</ele>
        <time>2018-08-18T15:17:57.494Z</time>
      </trkpt>
      <trkpt lat="48.5864746" lon="-1.9617502">
        <ele>15.431</ele>
        <time>2018-08-18T15:17:59.548Z</time>
      </trkpt>
      <trkpt lat="48.5865831" lon="-1.9615068">
        <ele>14.583</ele>
        <time>2018-08-18T15:18:02.420Z</time>
      </trkpt>
      <trkpt lat="48.5866522" lon="-1.9613408">
        <ele>13.974</ele>
        <time>2018-08-18T15:18:04.346Z</time>
      </trkpt>
      <trkpt lat="48.5867611" lon="-1.9610973">
        <ele>13.335</ele>
        <time>2018-08-18T15:18:07.376Z</time>
      </trkpt>
      <trkpt lat="48.5868338" lon="-1.9609451">
        <ele>12.501</ele>
        <time>2018-08-18T15:18:09.452Z</time>
      </trkpt>
      <trkpt lat="48.5869556" lon="-1.9607675">
        <ele>11.812</ele>
        <time>2018-08-18T15:18:12.668Z</time>
      </trkpt>
      <trkpt lat="48.5870551" lon="-1.9605869">
        <ele>11.464</ele>
        <time>2018-08-18T15:18:16.129Z</time>
      </trkpt>
      <trkpt lat="48.5871603" lon="-1.9604532">
        <ele>11.249</ele>
        <time>2018-08-18T15:18:19.965Z</time>
      </trkpt>
      <trkpt lat="48.5872503" lon="-1.9603641">
        <ele>11.035</ele>
        <time>2018-08-18T15:18:23.780Z</time>
      </trkpt>
      <trkpt lat="48.5873311" lon="-1.9602428">
        <ele>10.882</ele>
        <time>2018-08-18T15:18:28.133Z</time>
      </trkpt>
      <trkpt lat="48.5874028" lon="-1.9601447">
        <ele>10.792</ele>
        <time>2018-08-18T15:18:31.911Z</time>
      </trkpt>
      <trkpt lat="48.5874815" lon="-1.9600600">
        <ele>10.701</ele>
        <time>2018-08-18T15:18:35.717Z</time>
      </trkpt>
      <trkpt lat="48.5875635" lon="-1.9599866">
        <ele>10.936</ele>
        <time>2018-08-18T15:18:39.560Z</time>
      </trkpt>
      <trkpt lat="48.5876391" lon="-1.9599076">
        <ele>11.901</ele>
        <time>2018-08-18T15:18:43.381Z</time>
      </trkpt>
      <trkpt lat="48.5877317" lon="-1.9598184">
        <ele>13.234</ele>
        <time>2018-08-18T15:18:48.005Z</time>
      </trkpt>
      <trkpt lat="48.5878179" lon="-1.9597153">
        <ele>14.331</ele>
        <time>2018-08-18T15:18:52.617Z</time>
      </trkpt>
      <trkpt lat="48.5878893" lon="-1.9596305">
        <ele>15.061</ele>
        <time>2018-08-18T15:18:56.393Z</time>
      </trkpt>
      <trkpt lat="48.5879638" lon="-1.9595496">
        <ele>15.440</ele>
        <time>2018-08-18T15:19:00.065Z</time>
      </trkpt>
      <trkpt lat="48.5880456" lon="-1.9594564">
        <ele>15.544</ele>
        <time>2018-08-18T15:19:03.920Z</time>
      </trkpt>
      <trkpt lat="48.5881291" lon="-1.9593530">
        <ele>15.750</ele>
        <time>2018-08-18T15:19:07.770Z</time>
      </trkpt>
      <trkpt lat="48.5882175" lon="-1.9592472">
        <ele>16.255</ele>
        <time>2018-08-18T15:19:11.607Z</time>
      </trkpt>
      <trkpt lat="48.5882879" lon="-1.9591575">
        <ele>16.761</ele>
        <time>2018-08-18T15:19:14.583Z</time>
      </trkpt>
      <trkpt lat="48.5883629" lon="-1.9590647">
        <ele>16.973</ele>
        <time>2018-08-18T15:19:17.627Z</time>
      </trkpt>
      <trkpt lat="48.5884382" lon="-1.9589805">
        <ele>16.962</ele>
        <time>2018-08-18T15:19:20.494Z</time>
      </trkpt>
      <trkpt lat="48.5885173" lon="-1.9588928">
        <ele>17.150</ele>
        <time>2018-08-18T15:19:23.436Z</time>
      </trkpt>
      <trkpt lat="48.5885890" lon="-1.9588032">
        <ele>17.799</ele>
        <time>2018-08-18T15:19:26.282Z</time>
      </trkpt>
      <trkpt lat="48.5886807" lon="-1.9586955">
        <ele>18.590</ele>
        <time>2018-08-18T15:19:29.965Z</time>
      </trkpt>
      <trkpt lat="48.5887777" lon="-1.9586030">
        <ele>19.135</ele>
        <time>2018-08-18T15:19:33.754Z</time>
      </trkpt>
      <trkpt lat="48.5888756" lon="-1.9585269">
        <ele>19.110</ele>
        <time>2018-08-18T15:19:37.495Z</time>
      </trkpt>
      <trkpt lat="48.5889716" lon="-1.9584743">
        <ele>18.431</ele>
        <time>2018-08-18T15:19:41.086Z</time>
      </trkpt>
      <trkpt lat="48.5890723" lon="-1.9584246">
        <ele>17.759</ele>
        <time>2018-08-18T15:19:44.924Z</time>
      </trkpt>
      <trkpt lat="48.5891774" lon="-1.9583903">
        <ele>17.679</ele>
        <time>2018-08-18T15:19:48.773Z</time>
      </trkpt>
      <trkpt lat="48.5892832" lon="-1.9583699">
        <ele>17.981</ele>
        <time>2018-08-18T15:19:52.524Z</time>
      </trkpt>
      <trkpt lat="48.5893933" lon="-1.9583674">
        <ele>18.267</ele>
        <time>2018-08-18T15:19:56.435Z</time>
      </trkpt>
      <trkpt lat="48.5894842" lon="-1.9583800">
        <ele>18.419</ele>
        <time>2018-08-18T15:19:59.622Z</time>
      </trkpt>
      <trkpt lat="48.5895775" lon="-1.9583923">
        <ele>18.496</ele>
        <time>2018-08-18T15:20:02.777Z</time>
      </trkpt>
      <trkpt lat="48.5896629" lon="-1.9584363">
        <ele>18.665</ele>
        <time>2018-08-18T15:20:05.778Z</time>
      </trkpt>
      <trkpt lat="48.5897641" lon="-1.9584962">
        <ele>19.011</ele>
        <time>2018-08-18T15:20:09.490Z</time>
      </trkpt>
      <trkpt lat="48.5898563" lon="-1.9585245">
        <ele>19.350</ele>
        <time>2018-08-18T15:20:13.000Z</time>
      </trkpt>
      <trkpt lat="48.5898563" lon="-1.9585245">
        <ele>19.486</ele>
        <time>2018-08-18T15:20:26.000Z</time>
      </trkpt>
      <trkpt lat="48.5898563" lon="-1.9585245">
        <ele>19.459</ele>
        <time>2018-08-18T15:20:28.573Z</time>
      </trkpt>
      <trkpt lat="48.5900643" lon="-1.9586628">
        <ele>19.381</ele>
        <time>2018-08-18T15:20:44.443Z</time>
      </trkpt>
      <trkpt lat="48.5901392" lon="-1.9587381">
        <ele>19.210</ele>
        <time>2018-08-18T15:20:47.472Z</time>
      </trkpt>
      <trkpt lat="48.5902195" lon="-1.9588160">
        <ele>18.786</ele>
        <time>2018-08-18T15:20:50.493Z</time>
      </trkpt>
      <trkpt lat="48.5903018" lon="-1.9588880">
        <ele>18.221</ele>
        <time>2018-08-18T15:20:53.474Z</time>
      </trkpt>
      <trkpt lat="48.5903825" lon="-1.9589611">
        <ele>17.981</ele>
        <time>2018-08-18T15:20:56.441Z</time>
      </trkpt>
      <trkpt lat="48.5904811" lon="-1.9590536">
        <ele>18.276</ele>
        <time>2018-08-18T15:21:00.073Z</time>
      </trkpt>
      <trkpt lat="48.5905604" lon="-1.9591282">
        <ele>18.808</ele>
        <time>2018-08-18T15:21:02.890Z</time>
      </trkpt>
      <trkpt lat="48.5906412" lon="-1.9592046">
        <ele>19.229</ele>
        <time>2018-08-18T15:21:05.639Z</time>
      </trkpt>
      <trkpt lat="48.5907332" lon="-1.9592914">
        <ele>19.481</ele>
        <time>2018-08-18T15:21:08.665Z</time>
      </trkpt>
      <trkpt lat="48.5908238" lon="-1.9593798">
        <ele>19.612</ele>
        <time>2018-08-18T15:21:11.580Z</time>
      </trkpt>
      <trkpt lat="48.5909235" lon="-1.9594528">
        <ele>19.653</ele>
        <time>2018-08-18T15:21:14.318Z</time>
      </trkpt>
      <trkpt lat="48.5910586" lon="-1.9594773">
        <ele>19.542</ele>
        <time>2018-08-18T15:21:17.415Z</time>
      </trkpt>
      <trkpt lat="48.5911830" lon="-1.9595440">
        <ele>19.200</ele>
        <time>2018-08-18T15:21:20.382Z</time>
      </trkpt>
      <trkpt lat="48.5912985" lon="-1.9596321">
        <ele>18.701</ele>
        <time>2018-08-18T15:21:23.292Z</time>
      </trkpt>
      <trkpt lat="48.5914136" lon="-1.9597331">
        <ele>18.275</ele>
        <time>2018-08-18T15:21:26.295Z</time>
      </trkpt>
      <trkpt lat="48.5915234" lon="-1.9598403">
        <ele>18.058</ele>
        <time>2018-08-18T15:21:29.273Z</time>
      </trkpt>
      <trkpt lat="48.5916334" lon="-1.9599438">
        <ele>18.002</ele>
        <time>2018-08-18T15:21:32.288Z</time>
      </trkpt>
      <trkpt lat="48.5917387" lon="-1.9600467">
        <ele>17.990</ele>
        <time>2018-08-18T15:21:35.375Z</time>
      </trkpt>
      <trkpt lat="48.5918342" lon="-1.9601441">
        <ele>17.977</ele>
        <time>2018-08-18T15:21:38.413Z</time>
      </trkpt>
      <trkpt lat="48.5919250" lon="-1.9602374">
        <ele>18.028</ele>
        <time>2018-08-18T15:21:41.389Z</time>
      </trkpt>
      <trkpt lat="48.5920147" lon="-1.9603322">
        <ele>18.183</ele>
        <time>2018-08-18T15:21:44.322Z</time>
      </trkpt>
      <trkpt lat="48.5921124" lon="-1.9604209">
        <ele>18.234</ele>
        <time>2018-08-18T15:21:47.337Z</time>
      </trkpt>
      <trkpt lat="48.5922082" lon="-1.9605100">
        <ele>17.857</ele>
        <time>2018-08-18T15:21:50.297Z</time>
      </trkpt>
      <trkpt lat="48.5923001" lon="-1.9606067">
        <ele>17.030</ele>
        <time>2018-08-18T15:21:53.238Z</time>
      </trkpt>
      <trkpt lat="48.5923840" lon="-1.9607168">
        <ele>16.033</ele>
        <time>2018-08-18T15:21:56.125Z</time>
      </trkpt>
      <trkpt lat="48.5924601" lon="-1.9608441">
        <ele>15.154</ele>
        <time>2018-08-18T15:21:59.048Z</time>
      </trkpt>
      <trkpt lat="48.5925287" lon="-1.9609796">
        <ele>14.484</ele>
        <time>2018-08-18T15:22:01.966Z</time>
      </trkpt>
      <trkpt lat="48.5925879" lon="-1.9611230">
        <ele>13.969</ele>
        <time>2018-08-18T15:22:04.789Z</time>
      </trkpt>
      <trkpt lat="48.5926477" lon="-1.9612782">
        <ele>13.535</ele>
        <time>2018-08-18T15:22:07.615Z</time>
      </trkpt>
      <trkpt lat="48.5927043" lon="-1.9614557">
        <ele>13.044</ele>
        <time>2018-08-18T15:22:10.425Z</time>
      </trkpt>
      <trkpt lat="48.5927697" lon="-1.9616533">
        <ele>12.398</ele>
        <time>2018-08-18T15:22:13.288Z</time>
      </trkpt>
      <trkpt lat="48.5928239" lon="-1.9617943">
        <ele>11.691</ele>
        <time>2018-08-18T15:22:15.247Z</time>
      </trkpt>
      <trkpt lat="48.5928797" lon="-1.9619434">
        <ele>11.074</ele>
        <time>2018-08-18T15:22:17.252Z</time>
      </trkpt>
      <trkpt lat="48.5929429" lon="-1.9620775">
        <ele>10.629</ele>
        <time>2018-08-18T15:22:19.312Z</time>
      </trkpt>
      <trkpt lat="48.5929957" lon="-1.9621938">
        <ele>10.384</ele>
        <time>2018-08-18T15:22:21.327Z</time>
      </trkpt>
      <trkpt lat="48.5930604" lon="-1.9623298">
        <ele>10.297</ele>
        <time>2018-08-18T15:22:24.299Z</time>
      </trkpt>
      <trkpt lat="48.5931164" lon="-1.9624573">
        <ele>10.350</ele>
        <time>2018-08-18T15:22:27.717Z</time>
      </trkpt>
      <trkpt lat="48.5931777" lon="-1.9625988">
        <ele>10.517</ele>
        <time>2018-08-18T15:22:32.470Z</time>
      </trkpt>
      <trkpt lat="48.5932330" lon="-1.9627260">
        <ele>10.826</ele>
        <time>2018-08-18T15:22:37.311Z</time>
      </trkpt>
      <trkpt lat="48.5932881" lon="-1.9628400">
        <ele>11.410</ele>
        <time>2018-08-18T15:22:41.920Z</time>
      </trkpt>
      <trkpt lat="48.5933465" lon="-1.9629672">
        <ele>12.170</ele>
        <time>2018-08-18T15:22:47.227Z</time>
      </trkpt>
      <trkpt lat="48.5934106" lon="-1.9630891">
        <ele>12.730</ele>
        <time>2018-08-18T15:22:52.768Z</time>
      </trkpt>
      <trkpt lat="48.5934656" lon="-1.9632109">
        <ele>13.106</ele>
        <time>2018-08-18T15:22:58.036Z</time>
      </trkpt>
      <trkpt lat="48.5935218" lon="-1.9633359">
        <ele>13.715</ele>
        <time>2018-08-18T15:23:03.452Z</time>
      </trkpt>
      <trkpt lat="48.5935787" lon="-1.9634584">
        <ele>14.948</ele>
        <time>2018-08-18T15:23:08.929Z</time>
      </trkpt>
      <trkpt lat="48.5936293" lon="-1.9635708">
        <ele>16.709</ele>
        <time>2018-08-18T15:23:14.065Z</time>
      </trkpt>
      <trkpt lat="48.5936837" lon="-1.9636855">
        <ele>18.393</ele>
        <time>2018-08-18T15:23:19.129Z</time>
      </trkpt>
      <trkpt lat="48.5937401" lon="-1.9638184">
        <ele>19.629</ele>
        <time>2018-08-18T15:23:24.611Z</time>
      </trkpt>
      <trkpt lat="48.5937924" lon="-1.9639397">
        <ele>20.571</ele>
        <time>2018-08-18T15:23:30.000Z</time>
      </trkpt>
      <trkpt lat="48.5937924" lon="-1.9639397">
        <ele>21.273</ele>
        <time>2018-08-18T15:23:32.000Z</time>
      </trkpt>
      <trkpt lat="48.5937924" lon="-1.9639397">
        <ele>21.598</ele>
        <time>2018-08-18T15:23:32.100Z</time>
      </trkpt>
      <trkpt lat="48.5938632" lon="-1.9640893">
        <ele>21.552</ele>
        <time>2018-08-18T15:23:41.782Z</time>
      </trkpt>
      <trkpt lat="48.5939170" lon="-1.9642203">
        <ele>21.514</ele>
        <time>2018-08-18T15:23:47.352Z</time>
      </trkpt>
      <trkpt lat="48.5939717" lon="-1.9643284">
        <ele>21.768</ele>
        <time>2018-08-18T15:23:52.083Z</time>
      </trkpt>
      <trkpt lat="48.5940357" lon="-1.9644522">
        <ele>22.218</ele>
        <time>2018-08-18T15:23:57.422Z</time>
      </trkpt>
      <trkpt lat="48.5940975" lon="-1.9645838">
        <ele>22.650</ele>
        <time>2018-08-18T15:24:02.871Z</time>
      </trkpt>
      <trkpt lat="48.5941543" lon="-1.9647032">
        <ele>22.928</ele>
        <time>2018-08-18T15:24:07.925Z</time>
      </trkpt>
      <trkpt lat="48.5942047" lon="-1.9648234">
        <ele>23.075</ele>
        <time>2018-08-18T15:24:13.000Z</time>
      </trkpt>
      <trkpt lat="48.5942047" lon="-1.9648234">
        <ele>23.220</ele>
        <time>2018-08-18T15:24:14.000Z</time>
      </trkpt>
      <trkpt lat="48.5942047" lon="-1.9648234">
        <ele>23.321</ele>
        <time>2018-08-18T15:24:14.100Z</time>
      </trkpt>
      <trkpt lat="48.5943224" lon="-1.9650661">
        <ele>23.307</ele>
        <time>2018-08-18T15:24:32.333Z</time>
      </trkpt>
      <trkpt lat="48.5943789" lon="-1.9651753">
        <ele>23.297</ele>
        <time>2018-08-18T15:24:38.058Z</time>
      </trkpt>
      <trkpt lat="48.5944339" lon="-1.9652850">
        <ele>23.397</ele>
        <time>2018-08-18T15:24:43.868Z</time>
      </trkpt>
      <trkpt lat="48.5944929" lon="-1.9654151">
        <ele>23.534</ele>
        <time>2018-08-18T15:24:50.648Z</time>
      </trkpt>
      <trkpt lat="48.5945517" lon="-1.9655291">
        <ele>23.585</ele>
        <time>2018-08-18T15:24:58.271Z</time>
      </trkpt>
      <trkpt lat="48.5946056" lon="-1.9656445">
        <ele>23.537</ele>
        <time>2018-08-18T15:25:06.096Z</time>
      </trkpt>
      <trkpt lat="48.5945801" lon="-1.9657753">
        <ele>23.476</ele>
        <time>2018-08-18T15:25:16.183Z</time>
      </trkpt>
      <trkpt lat="48.5946311" lon="-1.9658922">
        <ele>23.565</ele>
        <time>2018-08-18T15:25:27.198Z</time>
      </trkpt>
      <trkpt lat="48.5946913" lon="-1.9659967">
        <ele>23.905</ele>
        <time>2018-08-18T15:25:37.914Z</time>
      </trkpt>
      <trkpt lat="48.5947516" lon="-1.9661090">
        <ele>24.426</ele>
        <time>2018-08-18T15:25:48.725Z</time>
      </trkpt>
      <trkpt lat="48.5948076" lon="-1.9662206">
        <ele>25.040</ele>
        <time>2018-08-18T15:25:58.806Z</time>
      </trkpt>
      <trkpt lat="48.5948562" lon="-1.9663477">
        <ele>25.705</ele>
        <time>2018-08-18T15:26:08.833Z</time>
      </trkpt>
      <trkpt lat="48.5949103" lon="-1.9664667">
        <ele>26.271</ele>
        <time>2018-08-18T15:26:18.222Z</time>
      </trkpt>
      <trkpt lat="48.5949600" lon="-1.9665917">
        <ele>26.673</ele>
        <time>2018-08-18T15:26:27.657Z</time>
      </trkpt>
      <trkpt lat="48.5950175" lon="-1.9667081">
        <ele>26.932</ele>
        <time>2018-08-18T15:26:37.006Z</time>
      </trkpt>
      <trkpt lat="48.5950646" lon="-1.9668268">
        <ele>27.009</ele>
        <time>2018-08-18T15:26:45.847Z</time>
      </trkpt>
      <trkpt lat="48.5951209" lon="-1.9669474">
        <ele>26.963</ele>
        <time>2018-08-18T15:26:55.621Z</time>
      </trkpt>
      <trkpt lat="48.5951776" lon="-1.9670550">
        <ele>26.983</ele>
        <time>2018-08-18T15:27:05.551Z</time>
      </trkpt>
      <trkpt lat="48.5952343" lon="-1.9671618">
        <ele>27.293</ele>
        <time>2018-08-18T15:27:16.888Z</time>
      </trkpt>
      <trkpt lat="48.5952934" lon="-1.9672795">
        <ele>27.943</ele>
        <time>2018-08-18T15:27:29.224Z</time>
      </trkpt>
      <trkpt lat="48.5953416" lon="-1.9673960">
        <ele>28.717</ele>
        <time>2018-08-18T15:27:39.182Z</time>
      </trkpt>
      <trkpt lat="48.5953931" lon="-1.9675094">
        <ele>29.382</ele>
        <time>2018-08-18T15:27:48.549Z</time>
      </trkpt>
      <trkpt lat="48.5954447" lon="-1.9676315">
        <ele>29.867</ele>
        <time>2018-08-18T15:27:58.372Z</time>
      </trkpt>
      <trkpt lat="48.5954994" lon="-1.9677458">
        <ele>30.282</ele>
        <time>2018-08-18T15:28:08.685Z</time>
      </trkpt>
      <trkpt lat="48.5955651" lon="-1.9678469">
        <ele>30.693</ele>
        <time>2018-08-18T15:28:20.314Z</time>
      </trkpt>
      <trkpt lat="48.5956151" lon="-1.9679709">
        <ele>31.058</ele>
        <time>2018-08-18T15:28:32.002Z</time>
      </trkpt>
      <trkpt lat="48.5956690" lon="-1.9680881">
        <ele>31.413</ele>
        <time>2018-08-18T15:28:41.240Z</time>
      </trkpt>
      <trkpt lat="48.5957165" lon="-1.9682082">
        <ele>31.692</ele>
        <time>2018-08-18T15:28:49.642Z</time>
      </trkpt>
      <trkpt lat="48.5957759" lon="-1.9683210">
        <ele>31.752</ele>
        <time>2018-08-18T15:28:58.939Z</time>
      </trkpt>
      <trkpt lat="48.5958304" lon="-1.9684407">
        <ele>31.610</ele>
        <time>2018-08-18T15:29:08.853Z</time>
      </trkpt>
      <trkpt lat="48.5958893" lon="-1.9685617">
        <ele>31.394</ele>
        <time>2018-08-18T15:29:18.405Z</time>
      </trkpt>
      <trkpt lat="48.5959502" lon="-1.9686622">
        <ele>31.268</ele>
        <time>2018-08-18T15:29:26.497Z</time>
      </trkpt>
      <trkpt lat="48.5960142" lon="-1.9687694">
        <ele>31.310</ele>
        <time>2018-08-18T15:29:35.147Z</time>
      </trkpt>
      <trkpt lat="48.5960717" lon="-1.9688898">
        <ele>31.597</ele>
        <time>2018-08-18T15:29:44.592Z</time>
      </trkpt>
      <trkpt lat="48.5961267" lon="-1.9690042">
        <ele>32.176</ele>
        <time>2018-08-18T15:29:53.751Z</time>
      </trkpt>
      <trkpt lat="48.5961427" lon="-1.9691500">
        <ele>32.815</ele>
        <time>2018-08-18T15:30:03.053Z</time>
      </trkpt>
      <trkpt lat="48.5961974" lon="-1.9692639">
        <ele>33.155</ele>
        <time>2018-08-18T15:30:11.893Z</time>
      </trkpt>
      <trkpt lat="48.5962533" lon="-1.9693730">
        <ele>33.138</ele>
        <time>2018-08-18T15:30:20.718Z</time>
      </trkpt>
      <trkpt lat="48.5963115" lon="-1.9694836">
        <ele>33.130</ele>
        <time>2018-08-18T15:30:30.103Z</time>
      </trkpt>
      <trkpt lat="48.5963643" lon="-1.9696059">
        <ele>33.596</ele>
        <time>2018-08-18T15:30:40.167Z</time>
      </trkpt>
      <trkpt lat="48.5964144" lon="-1.9697262">
        <ele>34.470</ele>
        <time>2018-08-18T15:30:49.959Z</time>
      </trkpt>
      <trkpt lat="48.5964739" lon="-1.9698327">
        <ele>35.222</ele>
        <time>2018-08-18T15:30:59.701Z</time>
      </trkpt>
      <trkpt lat="48.5965250" lon="-1.9699463">
        <ele>35.664</ele>
        <time>2018-08-18T15:31:09.483Z</time>
      </trkpt>
      <trkpt lat="48.5965834" lon="-1.9700555">
        <ele>36.007</ele>
        <time>2018-08-18T15:31:19.079Z</time>
      </trkpt>
      <trkpt lat="48.5966322" lon="-1.9701796">
        <ele>36.348</ele>
        <time>2018-08-18T15:31:28.201Z</time>
      </trkpt>
      <trkpt lat="48.5966944" lon="-1.9702848">
        <ele>36.665</ele>
        <time>2018-08-18T15:31:37.043Z</time>
      </trkpt>
      <trkpt lat="48.5967337" lon="-1.9704118">
        <ele>37.257</ele>
        <time>2018-08-18T15:31:45.987Z</time>
      </trkpt>
      <trkpt lat="48.5967910" lon="-1.9705250">
        <ele>38.470</ele>
        <time>2018-08-18T15:31:55.000Z</time>
      </trkpt>
      <trkpt lat="48.5967910" lon="-1.9705250">
        <ele>39.923</ele>
        <time>2018-08-18T15:31:58.000Z</time>
      </trkpt>
      <trkpt lat="48.5967910" lon="-1.9705250">
        <ele>40.728</ele>
        <time>2018-08-18T15:32:03.066Z</time>
      </trkpt>
      <trkpt lat="48.5969261" lon="-1.9707667">
        <ele>40.650</ele>
        <time>2018-08-18T15:32:19.278Z</time>
      </trkpt>
      <trkpt lat="48.5969790" lon="-1.9708848">
        <ele>40.906</ele>
        <time>2018-08-18T15:32:23.656Z</time>
      </trkpt>
      <trkpt lat="48.5970405" lon="-1.9710032">
        <ele>42.462</ele>
        <time>2018-08-18T15:32:27.870Z</time>
      </trkpt>
      <trkpt lat="48.5970953" lon="-1.9711246">
        <ele>44.409</ele>
        <time>2018-08-18T15:32:31.961Z</time>
      </trkpt>
      <trkpt lat="48.5971649" lon="-1.9712502">
        <ele>45.608</ele>
        <time>2018-08-18T15:32:36.467Z</time>
      </trkpt>
      <trkpt lat="48.5972279" lon="-1.9713952">
        <ele>46.122</ele>
        <time>2018-08-18T15:32:40.675Z</time>
      </trkpt>
      <trkpt lat="48.5972881" lon="-1.9715375">
        <ele>46.318</ele>
        <time>2018-08-18T15:32:44.492Z</time>
      </trkpt>
      <trkpt lat="48.5973545" lon="-1.9716427">
        <ele>46.385</ele>
        <time>2018-08-18T15:32:48.000Z</time>
      </trkpt>
      <trkpt lat="48.5973545" lon="-1.9716427">
        <ele>46.379</ele>
        <time>2018-08-18T15:32:52.000Z</time>
      </trkpt>
      <trkpt lat="48.5973545" lon="-1.9716427">
        <ele>46.353</ele>
        <time>2018-08-18T15:32:57.917Z</time>
      </trkpt>
      <trkpt lat="48.5974485" lon="-1.9719389">
        <ele>46.333</ele>
        <time>2018-08-18T15:33:13.858Z</time>
      </trkpt>
      <trkpt lat="48.5975437" lon="-1.9719964">
        <ele>46.185</ele>
        <time>2018-08-18T15:33:18.893Z</time>
      </trkpt>
      <trkpt lat="48.5975768" lon="-1.9721377">
        <ele>45.785</ele>
        <time>2018-08-18T15:33:23.760Z</time>
      </trkpt>
      <trkpt lat="48.5975579" lon="-1.9722715">
        <ele>45.153</ele>
        <time>2018-08-18T15:33:27.866Z</time>
      </trkpt>
      <trkpt lat="48.5975265" lon="-1.9724087">
        <ele>44.384</ele>
        <time>2018-08-18T15:33:32.021Z</time>
      </trkpt>
      <trkpt lat="48.5974886" lon="-1.9725707">
        <ele>43.696</ele>
        <time>2018-08-18T15:33:36.898Z</time>
      </trkpt>
      <trkpt lat="48.5974535" lon="-1.9727062">
        <ele>43.366</ele>
        <time>2018-08-18T15:33:41.045Z</time>
      </trkpt>
      <trkpt lat="48.5974132" lon="-1.9728299">
        <ele>43.399</ele>
        <time>2018-08-18T15:33:45.031Z</time>
      </trkpt>
      <trkpt lat="48.5973750" lon="-1.9729557">
        <ele>43.681</ele>
        <time>2018-08-18T15:33:49.218Z</time>
      </trkpt>
      <trkpt lat="48.5974439" lon="-1.9730635">
        <ele>44.071</ele>
        <time>2018-08-18T15:33:53.685Z</time>
      </trkpt>
      <trkpt lat="48.5975493" lon="-1.9730817">
        <ele>44.263</ele>
        <time>2018-08-18T15:33:58.071Z</time>
      </trkpt>
      <trkpt lat="48.5976396" lon="-1.9731256">
        <ele>44.063</ele>
        <time>2018-08-18T15:34:01.962Z</time>
      </trkpt>
      <trkpt lat="48.5977273" lon="-1.9731739">
        <ele>43.693</ele>
        <time>2018-08-18T15:34:05.742Z</time>
      </trkpt>
      <trkpt lat="48.5978149" lon="-1.9732238">
        <ele>43.562</ele>
        <time>2018-08-18T15:34:09.713Z</time>
      </trkpt>
      <trkpt lat="48.5979152" lon="-1.9732687">
        <ele>43.845</ele>
        <time>2018-08-18T15:34:14.220Z</time>
      </trkpt>
      <trkpt lat="48.5980016" lon="-1.9733198">
        <ele>44.323</ele>
        <time>2018-08-18T15:34:18.300Z</time>
      </trkpt>
      <trkpt lat="48.5980816" lon="-1.9734324">
        <ele>44.688</ele>
        <time>2018-08-18T15:34:23.102Z</time>
      </trkpt>
      <trkpt lat="48.5980760" lon="-1.9735844">
        <ele>44.884</ele>
        <time>2018-08-18T15:34:27.180Z</time>
      </trkpt>
      <trkpt lat="48.5980432" lon="-1.9737467">
        <ele>44.976</ele>
        <time>2018-08-18T15:34:31.449Z</time>
      </trkpt>
      <trkpt lat="48.5980162" lon="-1.9738973">
        <ele>45.009</ele>
        <time>2018-08-18T15:34:35.233Z</time>
      </trkpt>
      <trkpt lat="48.5979803" lon="-1.9740459">
        <ele>45.113</ele>
        <time>2018-08-18T15:34:39.055Z</time>
      </trkpt>
      <trkpt lat="48.5979591" lon="-1.9741988">
        <ele>45.420</ele>
        <time>2018-08-18T15:34:42.925Z</time>
      </trkpt>
      <trkpt lat="48.5979410" lon="-1.9743489">
        <ele>45.903</ele>
        <time>2018-08-18T15:34:46.730Z</time>
      </trkpt>
      <trkpt lat="48.5979179" lon="-1.9745084">
        <ele>46.404</ele>
        <time>2018-08-18T15:34:50.764Z</time>
      </trkpt>
      <trkpt lat="48.5979155" lon="-1.9746571">
        <ele>46.741</ele>
        <time>2018-08-18T15:34:54.505Z</time>
      </trkpt>
      <trkpt lat="48.5979000" lon="-1.9747966">
        <ele>46.922</ele>
        <time>2018-08-18T15:34:58.180Z</time>
      </trkpt>
      <trkpt lat="48.5978877" lon="-1.9749448">
        <ele>47.090</ele>
        <time>2018-08-18T15:35:02.227Z</time>
      </trkpt>
      <trkpt lat="48.5978599" lon="-1.9750809">
        <ele>46.915</ele>
        <time>2018-08-18T15:35:06.200Z</time>
      </trkpt>
      <trkpt lat="48.5979254" lon="-1.9751830">
        <ele>46.111</ele>
        <time>2018-08-18T15:35:10.000Z</time>
      </trkpt>
      <trkpt lat="48.5980298" lon="-1.9752063">
        <ele>45.171</ele>
        <time>2018-08-18T15:35:13.901Z</time>
      </trkpt>
      <trkpt lat="48.5981386" lon="-1.9752413">
        <ele>44.696</ele>
        <time>2018-08-18T15:35:17.737Z</time>
      </trkpt>
      <trkpt lat="48.5982453" lon="-1.9752586">
        <ele>44.817</ele>
        <time>2018-08-18T15:35:21.368Z</time>
      </trkpt>
      <trkpt lat="48.5983517" lon="-1.9752945">
        <ele>45.415</ele>
        <time>2018-08-18T15:35:25.170Z</time>
      </trkpt>
      <trkpt lat="48.5984275" lon="-1.9754039">
        <ele>46.197</ele>
        <time>2018-08-18T15:35:29.000Z</time>
      </trkpt>
      <trkpt lat="48.5984275" lon="-1.9754039">
        <ele>46.852</ele>
        <time>2018-08-18T15:35:33.000Z</time>
      </trkpt>
      <trkpt lat="48.5984275" lon="-1.9754039">
        <ele>47.158</ele>
        <time>2018-08-18T15:35:33.100Z</time>
      </trkpt>
      <trkpt lat="48.5983873" lon="-1.9757585">
        <ele>47.105</ele>
        <time>2018-08-18T15:35:45.075Z</time>
      </trkpt>
      <trkpt lat="48.5983454" lon="-1.9758936">
        <ele>47.186</ele>
        <time>2018-08-18T15:35:48.743Z</time>
      </trkpt>
      <trkpt lat="48.5983082" lon="-1.9760365">
        <ele>47.788</ele>
        <time>2018-08-18T15:35:52.434Z</time>
      </trkpt>
      <trkpt lat="48.5982688" lon="-1.9761840">
        <ele>48.607</ele>
        <time>2018-08-18T15:35:56.150Z</time>
      </trkpt>
      <trkpt lat="48.5982292" lon="-1.9763429">
        <ele>49.157</ele>
        <time>2018-08-18T15:36:00.075Z</time>
      </trkpt>
      <trkpt lat="48.5981925" lon="-1.9764995">
        <ele>49.342</ele>
        <time>2018-08-18T15:36:03.972Z</time>
      </trkpt>
      <trkpt lat="48.5981645" lon="-1.9766431">
        <ele>49.227</ele>
        <time>2018-08-18T15:36:07.495Z</time>
      </trkpt>
      <trkpt lat="48.5981603" lon="-1.9767988">
        <ele>48.913</ele>
        <time>2018-08-18T15:36:11.084Z</time>
      </trkpt>
      <trkpt lat="48.5981459" lon="-1.9769696">
        <ele>48.479</ele>
        <time>2018-08-18T15:36:14.879Z</time>
      </trkpt>
      <trkpt lat="48.5981411" lon="-1.9771175">
        <ele>47.947</ele>
        <time>2018-08-18T15:36:18.042Z</time>
      </trkpt>
      <trkpt lat="48.5981336" lon="-1.9772596">
        <ele>47.326</ele>
        <time>2018-08-18T15:36:21.073Z</time>
      </trkpt>
      <trkpt lat="48.5981433" lon="-1.9774351">
        <ele>46.772</ele>
        <time>2018-08-18T15:36:24.783Z</time>
      </trkpt>
      <trkpt lat="48.5981387" lon="-1.9775793">
        <ele>46.554</ele>
        <time>2018-08-18T15:36:27.701Z</time>
      </trkpt>
      <trkpt lat="48.5981284" lon="-1.9777283">
        <ele>46.728</ele>
        <time>2018-08-18T15:36:30.659Z</time>
      </trkpt>
      <trkpt lat="48.5981214" lon="-1.9778825">
        <ele>46.917</ele>
        <time>2018-08-18T15:36:33.688Z</time>
      </trkpt>
      <trkpt lat="48.5981013" lon="-1.9780248">
        <ele>46.799</ele>
        <time>2018-08-18T15:36:36.487Z</time>
      </trkpt>
      <trkpt lat="48.5980676" lon="-1.9781750">
        <ele>46.491</ele>
        <time>2018-08-18T15:36:39.466Z</time>
      </trkpt>
      <trkpt lat="48.5980336" lon="-1.9783069">
        <ele>46.225</ele>
        <time>2018-08-18T15:36:42.123Z</time>
      </trkpt>
      <trkpt lat="48.5979892" lon="-1.9784431">
        <ele>46.171</ele>
        <time>2018-08-18T15:36:45.060Z</time>
      </trkpt>
      <trkpt lat="48.5979424" lon="-1.9785706">
        <ele>46.453</ele>
        <time>2018-08-18T15:36:47.870Z</time>
      </trkpt>
      <trkpt lat="48.5978970" lon="-1.9787048">
        <ele>46.932</ele>
        <time>2018-08-18T15:36:50.633Z</time>
      </trkpt>
      <trkpt lat="48.5978485" lon="-1.9788458">
        <ele>47.320</ele>
        <time>2018-08-18T15:36:53.468Z</time>
      </trkpt>
      <trkpt lat="48.5978029" lon="-1.9789924">
        <ele>47.509</ele>
        <time>2018-08-18T15:36:56.408Z</time>
      </trkpt>
      <trkpt lat="48.5977620" lon="-1.9791232">
        <ele>47.448</ele>
        <time>2018-08-18T15:36:59.128Z</time>
      </trkpt>
      <trkpt lat="48.5977264" lon="-1.9792526">
        <ele>47.143</ele>
        <time>2018-08-18T15:37:01.824Z</time>
      </trkpt>
      <trkpt lat="48.5976966" lon="-1.9793844">
        <ele>46.820</ele>
        <time>2018-08-18T15:37:04.557Z</time>
      </trkpt>
      <trkpt lat="48.5976657" lon="-1.9795208">
        <ele>46.644</ele>
        <time>2018-08-18T15:37:07.468Z</time>
      </trkpt>
      <trkpt lat="48.5976382" lon="-1.9796800">
        <ele>46.567</ele>
        <time>2018-08-18T15:37:10.901Z</time>
      </trkpt>
      <trkpt lat="48.5976112" lon="-1.9798412">
        <ele>46.539</ele>
        <time>2018-08-18T15:37:14.520Z</time>
      </trkpt>
      <trkpt lat="48.5975803" lon="-1.9799985">
        <ele>46.537</ele>
        <time>2018-08-18T15:37:18.180Z</time>
      </trkpt>
      <trkpt lat="48.5975462" lon="-1.9801614">
        <ele>46.440</ele>
        <time>2018-08-18T15:37:22.000Z</time>
      </trkpt>
      <trkpt lat="48.5975462" lon="-1.9801614">
        <ele>46.182</ele>
        <time>2018-08-18T15:37:25.000Z</time>
      </trkpt>
      <trkpt lat="48.5975462" lon="-1.9801614">
        <ele>45.960</ele>
        <time>2018-08-18T15:37:25.100Z</time>
      </trkpt>
      <trkpt lat="48.5974647" lon="-1.9804602">
        <ele>45.980</ele>
        <time>2018-08-18T15:37:35.375Z</time>
      </trkpt>
      <trkpt lat="48.5974420" lon="-1.9806081">
        <ele>46.139</ele>
        <time>2018-08-18T15:37:39.367Z</time>
      </trkpt>
      <trkpt lat="48.5974238" lon="-1.9807437">
        <ele>46.466</ele>
        <time>2018-08-18T15:37:43.480Z</time>
      </trkpt>
      <trkpt lat="48.5974045" lon="-1.9808826">
        <ele>47.218</ele>
        <time>2018-08-18T15:37:47.621Z</time>
      </trkpt>
      <trkpt lat="48.5973902" lon="-1.9810590">
        <ele>47.587</ele>
        <time>2018-08-18T15:37:51.946Z</time>
      </trkpt>
      <trkpt lat="48.5973889" lon="-1.9812059">
        <ele>47.856</ele>
        <time>2018-08-18T15:37:54.935Z</time>
      </trkpt>
      <trkpt lat="48.5973813" lon="-1.9813772">
        <ele>47.820</ele>
        <time>2018-08-18T15:37:57.981Z</time>
      </trkpt>
      <trkpt lat="48.5973701" lon="-1.9815667">
        <ele>47.589</ele>
        <time>2018-08-18T15:38:00.910Z</time>
      </trkpt>
      <trkpt lat="48.5973466" lon="-1.9817310">
        <ele>47.177</ele>
        <time>2018-08-18T15:38:03.322Z</time>
      </trkpt>
      <trkpt lat="48.5973495" lon="-1.9819337">
        <ele>46.701</ele>
        <time>2018-08-18T15:38:05.987Z</time>
      </trkpt>
      <trkpt lat="48.5973455" lon="-1.9820802">
        <ele>46.398</ele>
        <time>2018-08-18T15:38:07.830Z</time>
      </trkpt>
      <trkpt lat="48.5973341" lon="-1.9823286">
        <ele>46.482</ele>
        <time>2018-08-18T15:38:10.793Z</time>
      </trkpt>
      <trkpt lat="48.5973384" lon="-1.9824985">
        <ele>46.969</ele>
        <time>2018-08-18T15:38:12.768Z</time>
      </trkpt>
      <trkpt lat="48.5973424" lon="-1.9827789">
        <ele>47.712</ele>
        <time>2018-08-18T15:38:16.064Z</time>
      </trkpt>
      <trkpt lat="48.5973434" lon="-1.9829373">
        <ele>48.321</ele>
        <time>2018-08-18T15:38:18.068Z</time>
      </trkpt>
      <trkpt lat="48.5973496" lon="-1.9831383">
        <ele>48.374</ele>
        <time>2018-08-18T15:38:20.896Z</time>
      </trkpt>
      <trkpt lat="48.5973515" lon="-1.9832870">
        <ele>47.962</ele>
        <time>2018-08-18T15:38:23.247Z</time>
      </trkpt>
      <trkpt lat="48.5973596" lon="-1.9834692">
        <ele>47.623</ele>
        <time>2018-08-18T15:38:26.362Z</time>
      </trkpt>
      <trkpt lat="48.5973735" lon="-1.9836544">
        <ele>47.594</ele>
        <time>2018-08-18T15:38:29.585Z</time>
      </trkpt>
      <trkpt lat="48.5973813" lon="-1.9838429">
        <ele>47.723</ele>
        <time>2018-08-18T15:38:32.699Z</time>
      </trkpt>
      <trkpt lat="48.5973918" lon="-1.9840370">
        <ele>47.818</ele>
        <time>2018-08-18T15:38:35.740Z</time>
      </trkpt>
      <trkpt lat="48.5974141" lon="-1.9842366">
        <ele>47.847</ele>
        <time>2018-08-18T15:38:38.920Z</time>
      </trkpt>
      <trkpt lat="48.5974771" lon="-1.9843626">
        <ele>47.877</ele>
        <time>2018-08-18T15:38:41.951Z</time>
      </trkpt>
      <trkpt lat="48.5975855" lon="-1.9843569">
        <ele>47.877</ele>
        <time>2018-08-18T15:38:45.724Z</time>
      </trkpt>
      <trkpt lat="48.5976824" lon="-1.9843047">
        <ele>47.719</ele>
        <time>2018-08-18T15:38:49.695Z</time>
      </trkpt>
      <trkpt lat="48.5977576" lon="-1.9842159">
        <ele>47.455</ele>
        <time>2018-08-18T15:38:53.386Z</time>
      </trkpt>
      <trkpt lat="48.5978231" lon="-1.9841122">
        <ele>47.498</ele>
        <time>2018-08-18T15:38:57.028Z</time>
      </trkpt>
      <trkpt lat="48.5978907" lon="-1.9840114">
        <ele>48.088</ele>
        <time>2018-08-18T15:39:00.638Z</time>
      </trkpt>
      <trkpt lat="48.5979623" lon="-1.9838868">
        <ele>48.901</ele>
        <time>2018-08-18T15:39:04.709Z</time>
      </trkpt>
      <trkpt lat="48.5980347" lon="-1.9837807">
        <ele>49.491</ele>
        <time>2018-08-18T15:39:08.435Z</time>
      </trkpt>
      <trkpt lat="48.5981101" lon="-1.9836849">
        <ele>49.751</ele>
        <time>2018-08-18T15:39:12.121Z</time>
      </trkpt>
      <trkpt lat="48.5981860" lon="-1.9835797">
        <ele>49.892</ele>
        <time>2018-08-18T15:39:16.060Z</time>
      </trkpt>
      <trkpt lat="48.5982525" lon="-1.9834860">
        <ele>50.131</ele>
        <time>2018-08-18T15:39:19.618Z</time>
      </trkpt>
      <trkpt lat="48.5983410" lon="-1.9833919">
        <ele>50.392</ele>
        <time>2018-08-18T15:39:24.003Z</time>
      </trkpt>
      <trkpt lat="48.5984375" lon="-1.9833106">
        <ele>50.542</ele>
        <time>2018-08-18T15:39:28.762Z</time>
      </trkpt>
      <trkpt lat="48.5985348" lon="-1.9832432">
        <ele>50.593</ele>
        <time>2018-08-18T15:39:33.488Z</time>
      </trkpt>
      <trkpt lat="48.5986278" lon="-1.9832082">
        <ele>50.372</ele>
        <time>2018-08-18T15:39:37.851Z</time>
      </trkpt>
      <trkpt lat="48.5987381" lon="-1.9832176">
        <ele>49.734</ele>
        <time>2018-08-18T15:39:43.017Z</time>
      </trkpt>
      <trkpt lat="48.5988274" lon="-1.9832451">
        <ele>48.871</ele>
        <time>2018-08-18T15:39:47.217Z</time>
      </trkpt>
      <trkpt lat="48.5989145" lon="-1.9832814">
        <ele>48.077</ele>
        <time>2018-08-18T15:39:51.210Z</time>
      </trkpt>
      <trkpt lat="48.5990050" lon="-1.9833266">
        <ele>47.389</ele>
        <time>2018-08-18T15:39:55.238Z</time>
      </trkpt>
      <trkpt lat="48.5991140" lon="-1.9833590">
        <ele>46.673</ele>
        <time>2018-08-18T15:39:59.800Z</time>
      </trkpt>
      <trkpt lat="48.5992138" lon="-1.9833864">
        <ele>45.875</ele>
        <time>2018-08-18T15:40:03.946Z</time>
      </trkpt>
      <trkpt lat="48.5993140" lon="-1.9834028">
        <ele>45.283</ele>
        <time>2018-08-18T15:40:07.991Z</time>
      </trkpt>
      <trkpt lat="48.5994069" lon="-1.9834286">
        <ele>45.276</ele>
        <time>2018-08-18T15:40:11.715Z</time>
      </trkpt>
      <trkpt lat="48.5995150" lon="-1.9834356">
        <ele>46.097</ele>
        <time>2018-08-18T15:40:15.868Z</time>
      </trkpt>
      <trkpt lat="48.5996115" lon="-1.9834225">
        <ele>47.442</ele>
        <time>2018-08-18T15:40:19.394Z</time>
      </trkpt>
      <trkpt lat="48.5997193" lon="-1.9834004">
        <ele>48.327</ele>
        <time>2018-08-18T15:40:22.974Z</time>
      </trkpt>
      <trkpt lat="48.5998198" lon="-1.9834160">
        <ele>48.220</ele>
        <time>2018-08-18T15:40:26.112Z</time>
      </trkpt>
      <trkpt lat="48.5999088" lon="-1.9835098">
        <ele>47.675</ele>
        <time>2018-08-18T15:40:29.675Z</time>
      </trkpt>
      <trkpt lat="48.5999613" lon="-1.9836484">
        <ele>47.256</ele>
        <time>2018-08-18T15:40:33.309Z</time>
      </trkpt>
      <trkpt lat="48.6000170" lon="-1.9837846">
        <ele>47.019</ele>
        <time>2018-08-18T15:40:36.783Z</time>
      </trkpt>
      <trkpt lat="48.6000776" lon="-1.9839212">
        <ele>46.918</ele>
        <time>2018-08-18T15:40:39.999Z</time>
      </trkpt>
      <trkpt lat="48.6000776" lon="-1.9839212">
        <ele>46.898</ele>
        <time>2018-08-18T15:40:41.999Z</time>
      </trkpt>
      <trkpt lat="48.6000776" lon="-1.9839212">
        <ele>46.890</ele>
        <time>2018-08-18T15:40:42.099Z</time>
      </trkpt>
      <trkpt lat="48.6002020" lon="-1.9841850">
        <ele>46.875</ele>
        <time>2018-08-18T15:40:51.892Z</time>
      </trkpt>
      <trkpt lat="48.6002577" lon="-1.9843239">
        <ele>46.880</ele>
        <time>2018-08-18T15:40:55.302Z</time>
      </trkpt>
      <trkpt lat="48.6002966" lon="-1.9844600">
        <ele>47.070</ele>
        <time>2018-08-18T15:40:58.114Z</time>
      </trkpt>
      <trkpt lat="48.6003233" lon="-1.9846164">
        <ele>47.540</ele>
        <time>2018-08-18T15:41:00.913Z</time>
      </trkpt>
      <trkpt lat="48.6003509" lon="-1.9847904">
        <ele>48.016</ele>
        <time>2018-08-18T15:41:03.712Z</time>
      </trkpt>
      <trkpt lat="48.6003761" lon="-1.9849907">
        <ele>48.187</ele>
        <time>2018-08-18T15:41:06.558Z</time>
      </trkpt>
      <trkpt lat="48.6003993" lon="-1.9851500">
        <ele>47.995</ele>
        <time>2018-08-18T15:41:08.691Z</time>
      </trkpt>
      <trkpt lat="48.6004254" lon="-1.9853705">
        <ele>47.547</ele>
        <time>2018-08-18T15:41:11.439Z</time>
      </trkpt>
      <trkpt lat="48.6004607" lon="-1.9856169">
        <ele>47.001</ele>
        <time>2018-08-18T15:41:14.363Z</time>
      </trkpt>
      <trkpt lat="48.6004852" lon="-1.9857843">
        <ele>46.265</ele>
        <time>2018-08-18T15:41:16.305Z</time>
      </trkpt>
      <trkpt lat="48.6005177" lon="-1.9859713">
        <ele>45.322</ele>
        <time>2018-08-18T15:41:18.534Z</time>
      </trkpt>
      <trkpt lat="48.6005432" lon="-1.9861255">
        <ele>44.494</ele>
        <time>2018-08-18T15:41:20.397Z</time>
      </trkpt>
      <trkpt lat="48.6006052" lon="-1.9863526">
        <ele>43.872</ele>
        <time>2018-08-18T15:41:23.360Z</time>
      </trkpt>
      <trkpt lat="48.6006867" lon="-1.9865631">
        <ele>43.297</ele>
        <time>2018-08-18T15:41:26.264Z</time>
      </trkpt>
      <trkpt lat="48.6007646" lon="-1.9867897">
        <ele>42.839</ele>
        <time>2018-08-18T15:41:29.351Z</time>
      </trkpt>
      <trkpt lat="48.6008116" lon="-1.9869270">
        <ele>42.550</ele>
        <time>2018-08-18T15:41:31.295Z</time>
      </trkpt>
      <trkpt lat="48.6008801" lon="-1.9871107">
        <ele>42.352</ele>
        <time>2018-08-18T15:41:34.098Z</time>
      </trkpt>
      <trkpt lat="48.6009475" lon="-1.9873050">
        <ele>42.202</ele>
        <time>2018-08-18T15:41:37.114Z</time>
      </trkpt>
      <trkpt lat="48.6009851" lon="-1.9874394">
        <ele>41.952</ele>
        <time>2018-08-18T15:41:39.152Z</time>
      </trkpt>
      <trkpt lat="48.6010503" lon="-1.9876170">
        <ele>41.365</ele>
        <time>2018-08-18T15:41:42.013Z</time>
      </trkpt>
      <trkpt lat="48.6011254" lon="-1.9877933">
        <ele>40.583</ele>
        <time>2018-08-18T15:41:44.918Z</time>
      </trkpt>
      <trkpt lat="48.6011683" lon="-1.9879209">
        <ele>40.019</ele>
        <time>2018-08-18T15:41:46.905Z</time>
      </trkpt>
      <trkpt lat="48.6012067" lon="-1.9880549">
        <ele>39.797</ele>
        <time>2018-08-18T15:41:48.957Z</time>
      </trkpt>
      <trkpt lat="48.6012708" lon="-1.9882437">
        <ele>39.777</ele>
        <time>2018-08-18T15:41:51.996Z</time>
      </trkpt>
      <trkpt lat="48.6013444" lon="-1.9884076">
        <ele>39.853</ele>
        <time>2018-08-18T15:41:54.792Z</time>
      </trkpt>
      <trkpt lat="48.6013971" lon="-1.9885568">
        <ele>39.947</ele>
        <time>2018-08-18T15:41:57.156Z</time>
      </trkpt>
      <trkpt lat="48.6014594" lon="-1.9887313">
        <ele>40.027</ele>
        <time>2018-08-18T15:41:59.891Z</time>
      </trkpt>
      <trkpt lat="48.6015018" lon="-1.9888622">
        <ele>40.119</ele>
        <time>2018-08-18T15:42:01.884Z</time>
      </trkpt>
      <trkpt lat="48.6015606" lon="-1.9890336">
        <ele>40.271</ele>
        <time>2018-08-18T15:42:04.515Z</time>
      </trkpt>
      <trkpt lat="48.6016110" lon="-1.9892373">
        <ele>40.575</ele>
        <time>2018-08-18T15:42:07.434Z</time>
      </trkpt>
      <trkpt lat="48.6016418" lon="-1.9893974">
        <ele>40.975</ele>
        <time>2018-08-18T15:42:09.591Z</time>
      </trkpt>
      <trkpt lat="48.6016836" lon="-1.9895507">
        <ele>41.265</ele>
        <time>2018-08-18T15:42:11.648Z</time>
      </trkpt>
      <trkpt lat="48.6017152" lon="-1.9897097">
        <ele>41.525</ele>
        <time>2018-08-18T15:42:13.633Z</time>
      </trkpt>
      <trkpt lat="48.6017777" lon="-1.9899418">
        <ele>41.926</ele>
        <time>2018-08-18T15:42:16.457Z</time>
      </trkpt>
      <trkpt lat="48.6018205" lon="-1.9901015">
        <ele>42.060</ele>
        <time>2018-08-18T15:42:18.304Z</time>
      </trkpt>
      <trkpt lat="48.6018840" lon="-1.9903645">
        <ele>41.516</ele>
        <time>2018-08-18T15:42:21.171Z</time>
      </trkpt>
      <trkpt lat="48.6019348" lon="-1.9905331">
        <ele>40.606</ele>
        <time>2018-08-18T15:42:22.920Z</time>
      </trkpt>
      <trkpt lat="48.6020211" lon="-1.9908365">
        <ele>39.692</ele>
        <time>2018-08-18T15:42:25.901Z</time>
      </trkpt>
      <trkpt lat="48.6021272" lon="-1.9911318">
        <ele>38.587</ele>
        <time>2018-08-18T15:42:28.780Z</time>
      </trkpt>
      <trkpt lat="48.6022618" lon="-1.9914144">
        <ele>37.104</ele>
        <time>2018-08-18T15:42:31.665Z</time>
      </trkpt>
      <trkpt lat="48.6024075" lon="-1.9916946">
        <ele>35.637</ele>
        <time>2018-08-18T15:42:34.608Z</time>
      </trkpt>
      <trkpt lat="48.6025591" lon="-1.9919501">
        <ele>34.759</ele>
        <time>2018-08-18T15:42:37.556Z</time>
      </trkpt>
      <trkpt lat="48.6026571" lon="-1.9921079">
        <ele>34.566</ele>
        <time>2018-08-18T15:42:39.512Z</time>
      </trkpt>
      <trkpt lat="48.6028389" lon="-1.9923213">
        <ele>34.692</ele>
        <time>2018-08-18T15:42:42.686Z</time>
      </trkpt>
      <trkpt lat="48.6029900" lon="-1.9925382">
        <ele>34.432</ele>
        <time>2018-08-18T15:42:45.599Z</time>
      </trkpt>
      <trkpt lat="48.6031413" lon="-1.9927631">
        <ele>33.341</ele>
        <time>2018-08-18T15:42:48.629Z</time>
      </trkpt>
      <trkpt lat="48.6032879" lon="-1.9929701">
        <ele>31.705</ele>
        <time>2018-08-18T15:42:51.554Z</time>
      </trkpt>
      <trkpt lat="48.6033821" lon="-1.9931065">
        <ele>29.968</ele>
        <time>2018-08-18T15:42:53.508Z</time>
      </trkpt>
      <trkpt lat="48.6035246" lon="-1.9933094">
        <ele>28.409</ele>
        <time>2018-08-18T15:42:56.510Z</time>
      </trkpt>
      <trkpt lat="48.6036167" lon="-1.9934359">
        <ele>27.151</ele>
        <time>2018-08-18T15:42:58.515Z</time>
      </trkpt>
      <trkpt lat="48.6037457" lon="-1.9936189">
        <ele>26.127</ele>
        <time>2018-08-18T15:43:01.465Z</time>
      </trkpt>
      <trkpt lat="48.6038608" lon="-1.9937969">
        <ele>25.275</ele>
        <time>2018-08-18T15:43:04.363Z</time>
      </trkpt>
      <trkpt lat="48.6039395" lon="-1.9938935">
        <ele>24.636</ele>
        <time>2018-08-18T15:43:06.234Z</time>
      </trkpt>
      <trkpt lat="48.6040254" lon="-1.9939882">
        <ele>24.230</ele>
        <time>2018-08-18T15:43:08.228Z</time>
      </trkpt>
      <trkpt lat="48.6040952" lon="-1.9940994">
        <ele>24.037</ele>
        <time>2018-08-18T15:43:10.132Z</time>
      </trkpt>
      <trkpt lat="48.6042108" lon="-1.9942463">
        <ele>23.993</ele>
        <time>2018-08-18T15:43:12.934Z</time>
      </trkpt>
      <trkpt lat="48.6042995" lon="-1.9943413">
        <ele>24.126</ele>
        <time>2018-08-18T15:43:14.861Z</time>
      </trkpt>
      <trkpt lat="48.6043879" lon="-1.9944725">
        <ele>24.469</ele>
        <time>2018-08-18T15:43:16.938Z</time>
      </trkpt>
      <trkpt lat="48.6045414" lon="-1.9946254">
        <ele>24.830</ele>
        <time>2018-08-18T15:43:19.869Z</time>
      </trkpt>
      <trkpt lat="48.6046735" lon="-1.9946998">
        <ele>24.925</ele>
        <time>2018-08-18T15:43:21.900Z</time>
      </trkpt>
      <trkpt lat="48.6049015" lon="-1.9948008">
        <ele>24.563</ele>
        <time>2018-08-18T15:43:25.039Z</time>
      </trkpt>
      <trkpt lat="48.6051151" lon="-1.9949464">
        <ele>23.524</ele>
        <time>2018-08-18T15:43:28.059Z</time>
      </trkpt>
      <trkpt lat="48.6052359" lon="-1.9950536">
        <ele>22.066</ele>
        <time>2018-08-18T15:43:30.050Z</time>
      </trkpt>
      <trkpt lat="48.6053069" lon="-1.9951755">
        <ele>21.074</ele>
        <time>2018-08-18T15:43:31.911Z</time>
      </trkpt>
      <trkpt lat="48.6053954" lon="-1.9952934">
        <ele>20.999</ele>
        <time>2018-08-18T15:43:34.542Z</time>
      </trkpt>
      <trkpt lat="48.6054600" lon="-1.9954250">
        <ele>21.519</ele>
        <time>2018-08-18T15:43:38.275Z</time>
      </trkpt>
      <trkpt lat="48.6055285" lon="-1.9955431">
        <ele>22.264</ele>
        <time>2018-08-18T15:43:43.111Z</time>
      </trkpt>
      <trkpt lat="48.6055987" lon="-1.9956419">
        <ele>23.077</ele>
        <time>2018-08-18T15:43:47.922Z</time>
      </trkpt>
      <trkpt lat="48.6056739" lon="-1.9957315">
        <ele>23.913</ele>
        <time>2018-08-18T15:43:53.129Z</time>
      </trkpt>
      <trkpt lat="48.6057603" lon="-1.9958136">
        <ele>24.861</ele>
        <time>2018-08-18T15:43:59.232Z</time>
      </trkpt>
      <trkpt lat="48.6058586" lon="-1.9958726">
        <ele>25.820</ele>
        <time>2018-08-18T15:44:05.522Z</time>
      </trkpt>
      <trkpt lat="48.6059510" lon="-1.9959128">
        <ele>26.388</ele>
        <time>2018-08-18T15:44:11.305Z</time>
      </trkpt>
      <trkpt lat="48.6060355" lon="-1.9959756">
        <ele>26.306</ele>
        <time>2018-08-18T15:44:17.190Z</time>
      </trkpt>
      <trkpt lat="48.6061228" lon="-1.9960388">
        <ele>25.807</ele>
        <time>2018-08-18T15:44:23.559Z</time>
      </trkpt>
      <trkpt lat="48.6062096" lon="-1.9960939">
        <ele>25.508</ele>
        <time>2018-08-18T15:44:30.403Z</time>
      </trkpt>
      <trkpt lat="48.6063052" lon="-1.9961527">
        <ele>25.791</ele>
        <time>2018-08-18T15:44:38.591Z</time>
      </trkpt>
      <trkpt lat="48.6063876" lon="-1.9962086">
        <ele>26.566</ele>
        <time>2018-08-18T15:44:46.063Z</time>
      </trkpt>
      <trkpt lat="48.6064729" lon="-1.9962674">
        <ele>27.710</ele>
        <time>2018-08-18T15:44:54.085Z</time>
      </trkpt>
      <trkpt lat="48.6065593" lon="-1.9963175">
        <ele>28.988</ele>
        <time>2018-08-18T15:45:01.954Z</time>
      </trkpt>
      <trkpt lat="48.6066432" lon="-1.9963705">
        <ele>29.976</ele>
        <time>2018-08-18T15:45:09.615Z</time>
      </trkpt>
      <trkpt lat="48.6067266" lon="-1.9964408">
        <ele>30.661</ele>
        <time>2018-08-18T15:45:17.896Z</time>
      </trkpt>
      <trkpt lat="48.6068147" lon="-1.9965057">
        <ele>31.386</ele>
        <time>2018-08-18T15:45:26.999Z</time>
      </trkpt>
      <trkpt lat="48.6068147" lon="-1.9965057">
        <ele>32.159</ele>
        <time>2018-08-18T15:45:41.999Z</time>
      </trkpt>
      <trkpt lat="48.6068147" lon="-1.9965057">
        <ele>32.593</ele>
        <time>2018-08-18T15:48:34.995Z</time>
      </trkpt>
      <trkpt lat="48.6068935" lon="-1.9966187">
        <ele>32.548</ele>
        <time>2018-08-18T15:48:49.055Z</time>
      </trkpt>
      <trkpt lat="48.6069432" lon="-1.9967376">
        <ele>32.958</ele>
        <time>2018-08-18T15:48:56.392Z</time>
      </trkpt>
      <trkpt lat="48.6069972" lon="-1.9968624">
        <ele>34.562</ele>
        <time>2018-08-18T15:49:03.999Z</time>
      </trkpt>
      <trkpt lat="48.6069972" lon="-1.9968624">
        <ele>36.445</ele>
        <time>2018-08-18T15:49:11.999Z</time>
      </trkpt>
      <trkpt lat="48.6069972" lon="-1.9968624">
        <ele>37.345</ele>
        <time>2018-08-18T15:49:12.099Z</time>
      </trkpt>
      <trkpt lat="48.6071204" lon="-1.9972050">
        <ele>37.234</ele>
        <time>2018-08-18T15:49:35.105Z</time>
      </trkpt>
      <trkpt lat="48.6071698" lon="-1.9973418">
        <ele>37.394</ele>
        <time>2018-08-18T15:49:40.180Z</time>
      </trkpt>
      <trkpt lat="48.6072132" lon="-1.9974875">
        <ele>38.726</ele>
        <time>2018-08-18T15:49:45.240Z</time>
      </trkpt>
      <trkpt lat="48.6072533" lon="-1.9976286">
        <ele>40.331</ele>
        <time>2018-08-18T15:49:49.943Z</time>
      </trkpt>
      <trkpt lat="48.6072926" lon="-1.9977789">
        <ele>41.243</ele>
        <time>2018-08-18T15:49:54.772Z</time>
      </trkpt>
      <trkpt lat="48.6073278" lon="-1.9979304">
        <ele>41.605</ele>
        <time>2018-08-18T15:49:59.485Z</time>
      </trkpt>
      <trkpt lat="48.6073631" lon="-1.9980844">
        <ele>41.667</ele>
        <time>2018-08-18T15:50:04.081Z</time>
      </trkpt>
      <trkpt lat="48.6073954" lon="-1.9982154">
        <ele>41.579</ele>
        <time>2018-08-18T15:50:07.960Z</time>
      </trkpt>
      <trkpt lat="48.6074332" lon="-1.9983424">
        <ele>41.478</ele>
        <time>2018-08-18T15:50:11.840Z</time>
      </trkpt>
      <trkpt lat="48.6074740" lon="-1.9984674">
        <ele>41.380</ele>
        <time>2018-08-18T15:50:15.681Z</time>
      </trkpt>
      <trkpt lat="48.6075168" lon="-1.9985938">
        <ele>41.173</ele>
        <time>2018-08-18T15:50:19.533Z</time>
      </trkpt>
      <trkpt lat="48.6075662" lon="-1.9987224">
        <ele>40.853</ele>
        <time>2018-08-18T15:50:23.704Z</time>
      </trkpt>
      <trkpt lat="48.6076181" lon="-1.9988391">
        <ele>40.589</ele>
        <time>2018-08-18T15:50:27.874Z</time>
      </trkpt>
      <trkpt lat="48.6076827" lon="-1.9989696">
        <ele>40.567</ele>
        <time>2018-08-18T15:50:32.553Z</time>
      </trkpt>
      <trkpt lat="48.6077465" lon="-1.9990711">
        <ele>40.779</ele>
        <time>2018-08-18T15:50:35.995Z</time>
      </trkpt>
      <trkpt lat="48.6078297" lon="-1.9991626">
        <ele>40.927</ele>
        <time>2018-08-18T15:50:39.202Z</time>
      </trkpt>
      <trkpt lat="48.6079203" lon="-1.9992189">
        <ele>40.794</ele>
        <time>2018-08-18T15:50:41.956Z</time>
      </trkpt>
      <trkpt lat="48.6080217" lon="-1.9992798">
        <ele>40.476</ele>
        <time>2018-08-18T15:50:44.891Z</time>
      </trkpt>
      <trkpt lat="48.6081172" lon="-1.9993381">
        <ele>40.147</ele>
        <time>2018-08-18T15:50:47.645Z</time>
      </trkpt>
      <trkpt lat="48.6082174" lon="-1.9993908">
        <ele>39.861</ele>
        <time>2018-08-18T15:50:50.442Z</time>
      </trkpt>
      <trkpt lat="48.6083203" lon="-1.9994400">
        <ele>39.607</ele>
        <time>2018-08-18T15:50:53.190Z</time>
      </trkpt>
      <trkpt lat="48.6084362" lon="-1.9994835">
        <ele>39.402</ele>
        <time>2018-08-18T15:50:56.137Z</time>
      </trkpt>
      <trkpt lat="48.6085559" lon="-1.9995166">
        <ele>39.180</ele>
        <time>2018-08-18T15:50:59.011Z</time>
      </trkpt>
      <trkpt lat="48.6086761" lon="-1.9995598">
        <ele>38.528</ele>
        <time>2018-08-18T15:51:01.800Z</time>
      </trkpt>
      <trkpt lat="48.6087957" lon="-1.9996058">
        <ele>37.353</ele>
        <time>2018-08-18T15:51:04.536Z</time>
      </trkpt>
      <trkpt lat="48.6089227" lon="-1.9996509">
        <ele>36.171</ele>
        <time>2018-08-18T15:51:07.420Z</time>
      </trkpt>
      <trkpt lat="48.6090529" lon="-1.9996849">
        <ele>35.419</ele>
        <time>2018-08-18T15:51:10.339Z</time>
      </trkpt>
      <trkpt lat="48.6091819" lon="-1.9997096">
        <ele>35.109</ele>
        <time>2018-08-18T15:51:13.197Z</time>
      </trkpt>
      <trkpt lat="48.6092734" lon="-1.9997177">
        <ele>35.027</ele>
        <time>2018-08-18T15:51:15.206Z</time>
      </trkpt>
      <trkpt lat="48.6094029" lon="-1.9997120">
        <ele>34.928</ele>
        <time>2018-08-18T15:51:18.039Z</time>
      </trkpt>
      <trkpt lat="48.6094918" lon="-1.9996914">
        <ele>34.796</ele>
        <time>2018-08-18T15:51:20.004Z</time>
      </trkpt>
      <trkpt lat="48.6096201" lon="-1.9996576">
        <ele>34.696</ele>
        <time>2018-08-18T15:51:22.913Z</time>
      </trkpt>
      <trkpt lat="48.6097377" lon="-1.9996248">
        <ele>34.636</ele>
        <time>2018-08-18T15:51:25.684Z</time>
      </trkpt>
      <trkpt lat="48.6098490" lon="-1.9995934">
        <ele>34.606</ele>
        <time>2018-08-18T15:51:28.372Z</time>
      </trkpt>
      <trkpt lat="48.6099627" lon="-1.9995612">
        <ele>34.494</ele>
        <time>2018-08-18T15:51:31.157Z</time>
      </trkpt>
      <trkpt lat="48.6100680" lon="-1.9995144">
        <ele>34.219</ele>
        <time>2018-08-18T15:51:33.835Z</time>
      </trkpt>
      <trkpt lat="48.6101762" lon="-1.9994594">
        <ele>33.970</ele>
        <time>2018-08-18T15:51:36.622Z</time>
      </trkpt>
      <trkpt lat="48.6102893" lon="-1.9993937">
        <ele>34.007</ele>
        <time>2018-08-18T15:51:39.493Z</time>
      </trkpt>
      <trkpt lat="48.6104054" lon="-1.9993053">
        <ele>34.302</ele>
        <time>2018-08-18T15:51:42.445Z</time>
      </trkpt>
      <trkpt lat="48.6105192" lon="-1.9992017">
        <ele>34.620</ele>
        <time>2018-08-18T15:51:45.380Z</time>
      </trkpt>
      <trkpt lat="48.6106312" lon="-1.9991075">
        <ele>34.883</ele>
        <time>2018-08-18T15:51:48.235Z</time>
      </trkpt>
      <trkpt lat="48.6107534" lon="-1.9990359">
        <ele>35.210</ele>
        <time>2018-08-18T15:51:51.153Z</time>
      </trkpt>
      <trkpt lat="48.6108400" lon="-1.9989892">
        <ele>35.567</ele>
        <time>2018-08-18T15:51:53.191Z</time>
      </trkpt>
      <trkpt lat="48.6109547" lon="-1.9989291">
        <ele>35.675</ele>
        <time>2018-08-18T15:51:56.000Z</time>
      </trkpt>
      <trkpt lat="48.6109547" lon="-1.9989291">
        <ele>35.432</ele>
        <time>2018-08-18T15:52:01.000Z</time>
      </trkpt>
      <trkpt lat="48.6109547" lon="-1.9989291">
        <ele>35.161</ele>
        <time>2018-08-18T15:52:49.342Z</time>
      </trkpt>
      <trkpt lat="48.6111758" lon="-1.9988635">
        <ele>35.143</ele>
        <time>2018-08-18T15:53:04.185Z</time>
      </trkpt>
      <trkpt lat="48.6112941" lon="-1.9988273">
        <ele>34.501</ele>
        <time>2018-08-18T15:53:07.907Z</time>
      </trkpt>
      <trkpt lat="48.6113909" lon="-1.9988117">
        <ele>32.599</ele>
        <time>2018-08-18T15:53:10.572Z</time>
      </trkpt>
      <trkpt lat="48.6115024" lon="-1.9988069">
        <ele>30.700</ele>
        <time>2018-08-18T15:53:13.287Z</time>
      </trkpt>
      <trkpt lat="48.6116297" lon="-1.9988132">
        <ele>30.059</ele>
        <time>2018-08-18T15:53:16.042Z</time>
      </trkpt>
      <trkpt lat="48.6117366" lon="-1.9988039">
        <ele>30.286</ele>
        <time>2018-08-18T15:53:18.235Z</time>
      </trkpt>
      <trkpt lat="48.6118353" lon="-1.9987984">
        <ele>30.548</ele>
        <time>2018-08-18T15:53:20.249Z</time>
      </trkpt>
      <trkpt lat="48.6119614" lon="-1.9987960">
        <ele>30.461</ele>
        <time>2018-08-18T15:53:22.907Z</time>
      </trkpt>
      <trkpt lat="48.6120954" lon="-1.9987848">
        <ele>30.312</ele>
        <time>2018-08-18T15:53:25.867Z</time>
      </trkpt>
      <trkpt lat="48.6122308" lon="-1.9987656">
        <ele>30.426</ele>
        <time>2018-08-18T15:53:28.960Z</time>
      </trkpt>
      <trkpt lat="48.6123473" lon="-1.9987250">
        <ele>30.663</ele>
        <time>2018-08-18T15:53:31.711Z</time>
      </trkpt>
      <trkpt lat="48.6124751" lon="-1.9987023">
        <ele>30.648</ele>
        <time>2018-08-18T15:53:34.711Z</time>
      </trkpt>
      <trkpt lat="48.6126027" lon="-1.9986803">
        <ele>30.273</ele>
        <time>2018-08-18T15:53:37.744Z</time>
      </trkpt>
      <trkpt lat="48.6127267" lon="-1.9986744">
        <ele>29.451</ele>
        <time>2018-08-18T15:53:40.586Z</time>
      </trkpt>
      <trkpt lat="48.6128600" lon="-1.9986648">
        <ele>27.917</ele>
        <time>2018-08-18T15:53:43.383Z</time>
      </trkpt>
      <trkpt lat="48.6129501" lon="-1.9986708">
        <ele>26.032</ele>
        <time>2018-08-18T15:53:45.059Z</time>
      </trkpt>
      <trkpt lat="48.6131085" lon="-1.9986833">
        <ele>24.737</ele>
        <time>2018-08-18T15:53:47.789Z</time>
      </trkpt>
      <trkpt lat="48.6133002" lon="-1.9986506">
        <ele>24.278</ele>
        <time>2018-08-18T15:53:50.863Z</time>
      </trkpt>
      <trkpt lat="48.6134323" lon="-1.9986308">
        <ele>24.171</ele>
        <time>2018-08-18T15:53:52.840Z</time>
      </trkpt>
      <trkpt lat="48.6135715" lon="-1.9986040">
        <ele>23.883</ele>
        <time>2018-08-18T15:53:54.913Z</time>
      </trkpt>
      <trkpt lat="48.6137896" lon="-1.9985496">
        <ele>23.019</ele>
        <time>2018-08-18T15:53:58.170Z</time>
      </trkpt>
      <trkpt lat="48.6139246" lon="-1.9985306">
        <ele>21.489</ele>
        <time>2018-08-18T15:54:00.103Z</time>
      </trkpt>
      <trkpt lat="48.6141304" lon="-1.9985114">
        <ele>19.670</ele>
        <time>2018-08-18T15:54:03.049Z</time>
      </trkpt>
      <trkpt lat="48.6142654" lon="-1.9984762">
        <ele>18.194</ele>
        <time>2018-08-18T15:54:05.027Z</time>
      </trkpt>
      <trkpt lat="48.6144018" lon="-1.9984400">
        <ele>17.510</ele>
        <time>2018-08-18T15:54:07.025Z</time>
      </trkpt>
      <trkpt lat="48.6145255" lon="-1.9984349">
        <ele>17.551</ele>
        <time>2018-08-18T15:54:08.822Z</time>
      </trkpt>
      <trkpt lat="48.6146601" lon="-1.9984444">
        <ele>17.794</ele>
        <time>2018-08-18T15:54:10.846Z</time>
      </trkpt>
      <trkpt lat="48.6148437" lon="-1.9985620">
        <ele>17.765</ele>
        <time>2018-08-18T15:54:13.981Z</time>
      </trkpt>
      <trkpt lat="48.6149351" lon="-1.9986677">
        <ele>17.212</ele>
        <time>2018-08-18T15:54:15.978Z</time>
      </trkpt>
      <trkpt lat="48.6150246" lon="-1.9987538">
        <ele>16.269</ele>
        <time>2018-08-18T15:54:17.992Z</time>
      </trkpt>
      <trkpt lat="48.6151073" lon="-1.9988506">
        <ele>15.260</ele>
        <time>2018-08-18T15:54:20.106Z</time>
      </trkpt>
      <trkpt lat="48.6151722" lon="-1.9989482">
        <ele>14.382</ele>
        <time>2018-08-18T15:54:22.189Z</time>
      </trkpt>
      <trkpt lat="48.6152586" lon="-1.9990468">
        <ele>13.775</ele>
        <time>2018-08-18T15:54:24.927Z</time>
      </trkpt>
      <trkpt lat="48.6153267" lon="-1.9991878">
        <ele>13.524</ele>
        <time>2018-08-18T15:54:28.023Z</time>
      </trkpt>
      <trkpt lat="48.6154072" lon="-1.9993126">
        <ele>13.502</ele>
        <time>2018-08-18T15:54:31.062Z</time>
      </trkpt>
      <trkpt lat="48.6154897" lon="-1.9994308">
        <ele>13.592</ele>
        <time>2018-08-18T15:54:34.020Z</time>
      </trkpt>
      <trkpt lat="48.6155701" lon="-1.9995493">
        <ele>13.741</ele>
        <time>2018-08-18T15:54:36.954Z</time>
      </trkpt>
      <trkpt lat="48.6156505" lon="-1.9996636">
        <ele>14.050</ele>
        <time>2018-08-18T15:54:39.919Z</time>
      </trkpt>
      <trkpt lat="48.6157263" lon="-1.9997641">
        <ele>14.615</ele>
        <time>2018-08-18T15:54:42.907Z</time>
      </trkpt>
      <trkpt lat="48.6158095" lon="-1.9998773">
        <ele>15.293</ele>
        <time>2018-08-18T15:54:46.864Z</time>
      </trkpt>
      <trkpt lat="48.6158882" lon="-1.9999800">
        <ele>15.870</ele>
        <time>2018-08-18T15:54:51.416Z</time>
      </trkpt>
      <trkpt lat="48.6159634" lon="-2.0000860">
        <ele>16.526</ele>
        <time>2018-08-18T15:54:56.500Z</time>
      </trkpt>
      <trkpt lat="48.6160415" lon="-2.0002041">
        <ele>17.441</ele>
        <time>2018-08-18T15:55:01.810Z</time>
      </trkpt>
      <trkpt lat="48.6161042" lon="-2.0003083">
        <ele>18.428</ele>
        <time>2018-08-18T15:55:06.526Z</time>
      </trkpt>
      <trkpt lat="48.6161772" lon="-2.0004095">
        <ele>19.362</ele>
        <time>2018-08-18T15:55:11.988Z</time>
      </trkpt>
      <trkpt lat="48.6162568" lon="-2.0005182">
        <ele>20.220</ele>
        <time>2018-08-18T15:55:18.054Z</time>
      </trkpt>
      <trkpt lat="48.6163319" lon="-2.0006218">
        <ele>20.768</ele>
        <time>2018-08-18T15:55:23.807Z</time>
      </trkpt>
      <trkpt lat="48.6163982" lon="-2.0007180">
        <ele>20.846</ele>
        <time>2018-08-18T15:55:29.060Z</time>
      </trkpt>
      <trkpt lat="48.6164681" lon="-2.0008146">
        <ele>20.603</ele>
        <time>2018-08-18T15:55:34.683Z</time>
      </trkpt>
      <trkpt lat="48.6165343" lon="-2.0009151">
        <ele>20.356</ele>
        <time>2018-08-18T15:55:40.460Z</time>
      </trkpt>
      <trkpt lat="48.6166010" lon="-2.0010125">
        <ele>20.317</ele>
        <time>2018-08-18T15:55:46.219Z</time>
      </trkpt>
      <trkpt lat="48.6166711" lon="-2.0011219">
        <ele>20.465</ele>
        <time>2018-08-18T15:55:52.843Z</time>
      </trkpt>
      <trkpt lat="48.6167424" lon="-2.0012308">
        <ele>20.742</ele>
        <time>2018-08-18T15:55:59.955Z</time>
      </trkpt>
      <trkpt lat="48.6168186" lon="-2.0013287">
        <ele>21.119</ele>
        <time>2018-08-18T15:56:07.000Z</time>
      </trkpt>
      <trkpt lat="48.6168186" lon="-2.0013287">
        <ele>21.481</ele>
        <time>2018-08-18T15:56:26.000Z</time>
      </trkpt>
      <trkpt lat="48.6168186" lon="-2.0013287">
        <ele>21.656</ele>
        <time>2018-08-18T15:56:27.617Z</time>
      </trkpt>
      <trkpt lat="48.6169134" lon="-2.0014194">
        <ele>21.629</ele>
        <time>2018-08-18T15:56:45.087Z</time>
      </trkpt>
      <trkpt lat="48.6169876" lon="-2.0015019">
        <ele>21.931</ele>
        <time>2018-08-18T15:56:53.935Z</time>
      </trkpt>
      <trkpt lat="48.6170571" lon="-2.0016051">
        <ele>23.090</ele>
        <time>2018-08-18T15:57:02.529Z</time>
      </trkpt>
      <trkpt lat="48.6171301" lon="-2.0017016">
        <ele>24.710</ele>
        <time>2018-08-18T15:57:10.729Z</time>
      </trkpt>
      <trkpt lat="48.6172011" lon="-2.0017953">
        <ele>26.025</ele>
        <time>2018-08-18T15:57:18.880Z</time>
      </trkpt>
      <trkpt lat="48.6172642" lon="-2.0019027">
        <ele>26.861</ele>
        <time>2018-08-18T15:57:27.444Z</time>
      </trkpt>
      <trkpt lat="48.6173217" lon="-2.0020098">
        <ele>27.537</ele>
        <time>2018-08-18T15:57:35.712Z</time>
      </trkpt>
      <trkpt lat="48.6173882" lon="-2.0021045">
        <ele>28.304</ele>
        <time>2018-08-18T15:57:44.420Z</time>
      </trkpt>
      <trkpt lat="48.6174359" lon="-2.0022198">
        <ele>29.091</ele>
        <time>2018-08-18T15:57:53.000Z</time>
      </trkpt>
      <trkpt lat="48.6174359" lon="-2.0022198">
        <ele>29.723</ele>
        <time>2018-08-18T15:57:59.000Z</time>
      </trkpt>
      <trkpt lat="48.6174359" lon="-2.0022198">
        <ele>30.030</ele>
        <time>2018-08-18T15:58:05.080Z</time>
      </trkpt>
      <trkpt lat="48.6174918" lon="-2.0025595">
        <ele>29.987</ele>
        <time>2018-08-18T15:58:25.613Z</time>
      </trkpt>
      <trkpt lat="48.6174942" lon="-2.0027044">
        <ele>30.481</ele>
        <time>2018-08-18T15:58:30.941Z</time>
      </trkpt>
      <trkpt lat="48.6174989" lon="-2.0028421">
        <ele>32.298</ele>
        <time>2018-08-18T15:58:35.763Z</time>
      </trkpt>
      <trkpt lat="48.6174918" lon="-2.0029889">
        <ele>34.570</ele>
        <time>2018-08-18T15:58:40.777Z</time>
      </trkpt>
      <trkpt lat="48.6174875" lon="-2.0031275">
        <ele>36.139</ele>
        <time>2018-08-18T15:58:45.386Z</time>
      </trkpt>
      <trkpt lat="48.6174816" lon="-2.0032840">
        <ele>36.883</ele>
        <time>2018-08-18T15:58:50.405Z</time>
      </trkpt>
      <trkpt lat="48.6174761" lon="-2.0034379">
        <ele>36.991</ele>
        <time>2018-08-18T15:58:55.245Z</time>
      </trkpt>
      <trkpt lat="48.6174797" lon="-2.0035949">
        <ele>36.690</ele>
        <time>2018-08-18T15:59:00.164Z</time>
      </trkpt>
      <trkpt lat="48.6174846" lon="-2.0037409">
        <ele>36.275</ele>
        <time>2018-08-18T15:59:04.972Z</time>
      </trkpt>
      <trkpt lat="48.6174858" lon="-2.0038905">
        <ele>36.013</ele>
        <time>2018-08-18T15:59:09.996Z</time>
      </trkpt>
      <trkpt lat="48.6174876" lon="-2.0040484">
        <ele>36.044</ele>
        <time>2018-08-18T15:59:15.313Z</time>
      </trkpt>
      <trkpt lat="48.6174922" lon="-2.0042047">
        <ele>36.359</ele>
        <time>2018-08-18T15:59:20.598Z</time>
      </trkpt>
      <trkpt lat="48.6174926" lon="-2.0043565">
        <ele>36.978</ele>
        <time>2018-08-18T15:59:25.898Z</time>
      </trkpt>
      <trkpt lat="48.6174857" lon="-2.0045112">
        <ele>37.808</ele>
        <time>2018-08-18T15:59:31.447Z</time>
      </trkpt>
      <trkpt lat="48.6174858" lon="-2.0046486">
        <ele>38.457</ele>
        <time>2018-08-18T15:59:36.174Z</time>
      </trkpt>
      <trkpt lat="48.6174913" lon="-2.0048020">
        <ele>38.573</ele>
        <time>2018-08-18T15:59:40.969Z</time>
      </trkpt>
      <trkpt lat="48.6174987" lon="-2.0049641">
        <ele>38.274</ele>
        <time>2018-08-18T15:59:45.574Z</time>
      </trkpt>
      <trkpt lat="48.6174984" lon="-2.0051313">
        <ele>37.777</ele>
        <time>2018-08-18T15:59:50.000Z</time>
      </trkpt>
      <trkpt lat="48.6174984" lon="-2.0051313">
        <ele>37.161</ele>
        <time>2018-08-18T15:59:50.000Z</time>
      </trkpt>
      <trkpt lat="48.6174984" lon="-2.0051313">
        <ele>36.745</ele>
        <time>2018-08-18T15:59:50.166Z</time>
      </trkpt>
      <trkpt lat="48.6174938" lon="-2.0053635">
        <ele>36.749</ele>
        <time>2018-08-18T15:59:59.919Z</time>
      </trkpt>
      <trkpt lat="48.6174605" lon="-2.0055199">
        <ele>36.947</ele>
        <time>2018-08-18T16:00:04.216Z</time>
      </trkpt>
      <trkpt lat="48.6173874" lon="-2.0056500">
        <ele>36.985</ele>
        <time>2018-08-18T16:00:08.217Z</time>
      </trkpt>
      <trkpt lat="48.6173077" lon="-2.0057315">
        <ele>36.751</ele>
        <time>2018-08-18T16:00:11.370Z</time>
      </trkpt>
      <trkpt lat="48.6172241" lon="-2.0058489">
        <ele>36.400</ele>
        <time>2018-08-18T16:00:15.214Z</time>
      </trkpt>
      <trkpt lat="48.6172597" lon="-2.0060121">
        <ele>36.021</ele>
        <time>2018-08-18T16:00:19.199Z</time>
      </trkpt>
      <trkpt lat="48.6173655" lon="-2.0060517">
        <ele>35.494</ele>
        <time>2018-08-18T16:00:22.894Z</time>
      </trkpt>
      <trkpt lat="48.6174639" lon="-2.0059774">
        <ele>34.826</ele>
        <time>2018-08-18T16:00:26.387Z</time>
      </trkpt>
      <trkpt lat="48.6175448" lon="-2.0058929">
        <ele>34.192</ele>
        <time>2018-08-18T16:00:30.175Z</time>
      </trkpt>
      <trkpt lat="48.6175909" lon="-2.0057476">
        <ele>33.724</ele>
        <time>2018-08-18T16:00:34.273Z</time>
      </trkpt>
      <trkpt lat="48.6176677" lon="-2.0056748">
        <ele>33.436</ele>
        <time>2018-08-18T16:00:38.423Z</time>
      </trkpt>
      <trkpt lat="48.6177607" lon="-2.0056210">
        <ele>33.289</ele>
        <time>2018-08-18T16:00:42.812Z</time>
      </trkpt>
      <trkpt lat="48.6178661" lon="-2.0055562">
        <ele>33.859</ele>
        <time>2018-08-18T16:00:47.757Z</time>
      </trkpt>
      <trkpt lat="48.6179569" lon="-2.0054735">
        <ele>35.719</ele>
        <time>2018-08-18T16:00:52.291Z</time>
      </trkpt>
      <trkpt lat="48.6180386" lon="-2.0053913">
        <ele>38.029</ele>
        <time>2018-08-18T16:00:56.720Z</time>
      </trkpt>
      <trkpt lat="48.6181222" lon="-2.0053085">
        <ele>39.586</ele>
        <time>2018-08-18T16:01:01.447Z</time>
      </trkpt>
      <trkpt lat="48.6181999" lon="-2.0052112">
        <ele>40.298</ele>
        <time>2018-08-18T16:01:06.229Z</time>
      </trkpt>
      <trkpt lat="48.6182746" lon="-2.0051107">
        <ele>41.101</ele>
        <time>2018-08-18T16:01:11.143Z</time>
      </trkpt>
      <trkpt lat="48.6183416" lon="-2.0050015">
        <ele>42.604</ele>
        <time>2018-08-18T16:01:16.170Z</time>
      </trkpt>
      <trkpt lat="48.6184112" lon="-2.0049048">
        <ele>44.134</ele>
        <time>2018-08-18T16:01:20.860Z</time>
      </trkpt>
      <trkpt lat="48.6184936" lon="-2.0048056">
        <ele>44.937</ele>
        <time>2018-08-18T16:01:25.578Z</time>
      </trkpt>
      <trkpt lat="48.6185817" lon="-2.0047226">
        <ele>45.109</ele>
        <time>2018-08-18T16:01:29.934Z</time>
      </trkpt>
      <trkpt lat="48.6186600" lon="-2.0046318">
        <ele>44.895</ele>
        <time>2018-08-18T16:01:33.868Z</time>
      </trkpt>
      <trkpt lat="48.6187431" lon="-2.0045309">
        <ele>44.473</ele>
        <time>2018-08-18T16:01:37.894Z</time>
      </trkpt>
      <trkpt lat="48.6188229" lon="-2.0044650">
        <ele>43.877</ele>
        <time>2018-08-18T16:01:41.391Z</time>
      </trkpt>
      <trkpt lat="48.6189112" lon="-2.0043948">
        <ele>43.227</ele>
        <time>2018-08-18T16:01:45.440Z</time>
      </trkpt>
      <trkpt lat="48.6189982" lon="-2.0043269">
        <ele>42.674</ele>
        <time>2018-08-18T16:01:49.388Z</time>
      </trkpt>
      <trkpt lat="48.6190875" lon="-2.0042574">
        <ele>42.241</ele>
        <time>2018-08-18T16:01:53.333Z</time>
      </trkpt>
      <trkpt lat="48.6191933" lon="-2.0041949">
        <ele>41.967</ele>
        <time>2018-08-18T16:01:57.563Z</time>
      </trkpt>
      <trkpt lat="48.6192912" lon="-2.0041372">
        <ele>41.917</ele>
        <time>2018-08-18T16:02:01.352Z</time>
      </trkpt>
      <trkpt lat="48.6193855" lon="-2.0040805">
        <ele>42.055</ele>
        <time>2018-08-18T16:02:05.111Z</time>
      </trkpt>
      <trkpt lat="48.6194704" lon="-2.0040178">
        <ele>42.337</ele>
        <time>2018-08-18T16:02:08.583Z</time>
      </trkpt>
      <trkpt lat="48.6195296" lon="-2.0038992">
        <ele>42.659</ele>
        <time>2018-08-18T16:02:11.932Z</time>
      </trkpt>
      <trkpt lat="48.6196456" lon="-2.0038701">
        <ele>42.765</ele>
        <time>2018-08-18T16:02:15.853Z</time>
      </trkpt>
      <trkpt lat="48.6197509" lon="-2.0038619">
        <ele>42.538</ele>
        <time>2018-08-18T16:02:19.481Z</time>
      </trkpt>
      <trkpt lat="48.6198450" lon="-2.0039048">
        <ele>42.263</ele>
        <time>2018-08-18T16:02:23.000Z</time>
      </trkpt>
      <trkpt lat="48.6198450" lon="-2.0039048">
        <ele>42.195</ele>
        <time>2018-08-18T16:02:26.000Z</time>
      </trkpt>
      <trkpt lat="48.6198450" lon="-2.0039048">
        <ele>42.243</ele>
        <time>2018-08-18T16:02:26.100Z</time>
      </trkpt>
      <trkpt lat="48.6200693" lon="-2.0038707">
        <ele>42.262</ele>
        <time>2018-08-18T16:02:36.846Z</time>
      </trkpt>
      <trkpt lat="48.6201814" lon="-2.0038681">
        <ele>42.838</ele>
        <time>2018-08-18T16:02:40.360Z</time>
      </trkpt>
      <trkpt lat="48.6203021" lon="-2.0038799">
        <ele>44.498</ele>
        <time>2018-08-18T16:02:43.928Z</time>
      </trkpt>
      <trkpt lat="48.6203966" lon="-2.0038922">
        <ele>46.673</ele>
        <time>2018-08-18T16:02:46.597Z</time>
      </trkpt>
      <trkpt lat="48.6205005" lon="-2.0038792">
        <ele>48.440</ele>
        <time>2018-08-18T16:02:49.470Z</time>
      </trkpt>
      <trkpt lat="48.6206137" lon="-2.0038628">
        <ele>49.183</ele>
        <time>2018-08-18T16:02:52.771Z</time>
      </trkpt>
      <trkpt lat="48.6207080" lon="-2.0038661">
        <ele>48.822</ele>
        <time>2018-08-18T16:02:55.664Z</time>
      </trkpt>
      <trkpt lat="48.6208251" lon="-2.0038627">
        <ele>48.057</ele>
        <time>2018-08-18T16:02:59.270Z</time>
      </trkpt>
      <trkpt lat="48.6209169" lon="-2.0038741">
        <ele>47.582</ele>
        <time>2018-08-18T16:03:02.084Z</time>
      </trkpt>
      <trkpt lat="48.6210315" lon="-2.0038792">
        <ele>47.603</ele>
        <time>2018-08-18T16:03:05.623Z</time>
      </trkpt>
      <trkpt lat="48.6211499" lon="-2.0038789">
        <ele>47.902</ele>
        <time>2018-08-18T16:03:09.312Z</time>
      </trkpt>
      <trkpt lat="48.6212636" lon="-2.0038986">
        <ele>48.154</ele>
        <time>2018-08-18T16:03:12.962Z</time>
      </trkpt>
      <trkpt lat="48.6213679" lon="-2.0039044">
        <ele>48.381</ele>
        <time>2018-08-18T16:03:16.349Z</time>
      </trkpt>
      <trkpt lat="48.6214715" lon="-2.0039302">
        <ele>48.767</ele>
        <time>2018-08-18T16:03:19.742Z</time>
      </trkpt>
      <trkpt lat="48.6215713" lon="-2.0039515">
        <ele>49.388</ele>
        <time>2018-08-18T16:03:23.000Z</time>
      </trkpt>
      <trkpt lat="48.6215713" lon="-2.0039515">
        <ele>50.084</ele>
        <time>2018-08-18T16:03:34.000Z</time>
      </trkpt>
      <trkpt lat="48.6215713" lon="-2.0039515">
        <ele>50.488</ele>
        <time>2018-08-18T16:03:34.100Z</time>
      </trkpt>
      <trkpt lat="48.6217850" lon="-2.0037983">
        <ele>50.344</ele>
        <time>2018-08-18T16:03:46.672Z</time>
      </trkpt>
      <trkpt lat="48.6218587" lon="-2.0038960">
        <ele>49.115</ele>
        <time>2018-08-18T16:03:49.586Z</time>
      </trkpt>
      <trkpt lat="48.6219554" lon="-2.0039618">
        <ele>46.704</ele>
        <time>2018-08-18T16:03:52.427Z</time>
      </trkpt>
      <trkpt lat="48.6220614" lon="-2.0040171">
        <ele>44.400</ele>
        <time>2018-08-18T16:03:55.276Z</time>
      </trkpt>
      <trkpt lat="48.6221623" lon="-2.0040295">
        <ele>43.351</ele>
        <time>2018-08-18T16:03:57.675Z</time>
      </trkpt>
      <trkpt lat="48.6222662" lon="-2.0040280">
        <ele>43.316</ele>
        <time>2018-08-18T16:04:00.000Z</time>
      </trkpt>
      <trkpt lat="48.6222662" lon="-2.0040280">
        <ele>43.644</ele>
        <time>2018-08-18T16:04:00.000Z</time>
      </trkpt>
      <trkpt lat="48.6222662" lon="-2.0040280">
        <ele>43.848</ele>
        <time>2018-08-18T16:04:00.100Z</time>
      </trkpt>
      <trkpt lat="48.6224595" lon="-2.0040664">
        <ele>43.771</ele>
        <time>2018-08-18T16:04:07.357Z</time>
      </trkpt>
      <trkpt lat="48.6225497" lon="-2.0040728">
        <ele>43.453</ele>
        <time>2018-08-18T16:04:09.422Z</time>
      </trkpt>
      <trkpt lat="48.6226405" lon="-2.0040782">
        <ele>43.025</ele>
        <time>2018-08-18T16:04:11.535Z</time>
      </trkpt>
      <trkpt lat="48.6227643" lon="-2.0040942">
        <ele>42.601</ele>
        <time>2018-08-18T16:04:14.581Z</time>
      </trkpt>
      <trkpt lat="48.6228803" lon="-2.0041155">
        <ele>42.261</ele>
        <time>2018-08-18T16:04:17.610Z</time>
      </trkpt>
      <trkpt lat="48.6229912" lon="-2.0041260">
        <ele>41.994</ele>
        <time>2018-08-18T16:04:20.548Z</time>
      </trkpt>
      <trkpt lat="48.6231038" lon="-2.0041382">
        <ele>41.759</ele>
        <time>2018-08-18T16:04:23.494Z</time>
      </trkpt>
      <trkpt lat="48.6232189" lon="-2.0041503">
        <ele>41.586</ele>
        <time>2018-08-18T16:04:26.326Z</time>
      </trkpt>
      <trkpt lat="48.6233491" lon="-2.0041597">
        <ele>41.532</ele>
        <time>2018-08-18T16:04:29.364Z</time>
      </trkpt>
      <trkpt lat="48.6234752" lon="-2.0041676">
        <ele>41.573</ele>
        <time>2018-08-18T16:04:32.363Z</time>
      </trkpt>
      <trkpt lat="48.6235915" lon="-2.0041871">
        <ele>41.715</ele>
        <time>2018-08-18T16:04:35.290Z</time>
      </trkpt>
      <trkpt lat="48.6237037" lon="-2.0041933">
        <ele>41.762</ele>
        <time>2018-08-18T16:04:38.221Z</time>
      </trkpt>
      <trkpt lat="48.6238139" lon="-2.0041980">
        <ele>41.662</ele>
        <time>2018-08-18T16:04:41.469Z</time>
      </trkpt>
      <trkpt lat="48.6239261" lon="-2.0042072">
        <ele>41.421</ele>
        <time>2018-08-18T16:04:45.295Z</time>
      </trkpt>
      <trkpt lat="48.6240278" lon="-2.0042037">
        <ele>41.343</ele>
        <time>2018-08-18T16:04:48.925Z</time>
      </trkpt>
      <trkpt lat="48.6241496" lon="-2.0042128">
        <ele>41.579</ele>
        <time>2018-08-18T16:04:53.020Z</time>
      </trkpt>
      <trkpt lat="48.6242432" lon="-2.0042181">
        <ele>41.936</ele>
        <time>2018-08-18T16:04:56.209Z</time>
      </trkpt>
      <trkpt lat="48.6243556" lon="-2.0042331">
        <ele>42.162</ele>
        <time>2018-08-18T16:05:00.245Z</time>
      </trkpt>
      <trkpt lat="48.6244601" lon="-2.0042379">
        <ele>42.232</ele>
        <time>2018-08-18T16:05:04.177Z</time>
      </trkpt>
      <trkpt lat="48.6245583" lon="-2.0042337">
        <ele>42.251</ele>
        <time>2018-08-18T16:05:08.301Z</time>
      </trkpt>
      <trkpt lat="48.6246589" lon="-2.0042417">
        <ele>42.290</ele>
        <time>2018-08-18T16:05:13.107Z</time>
      </trkpt>
      <trkpt lat="48.6247610" lon="-2.0042509">
        <ele>42.528</ele>
        <time>2018-08-18T16:05:18.280Z</time>
      </trkpt>
      <trkpt lat="48.6248731" lon="-2.0042462">
        <ele>43.066</ele>
        <time>2018-08-18T16:05:23.666Z</time>
      </trkpt>
      <trkpt lat="48.6249789" lon="-2.0042500">
        <ele>43.344</ele>
        <time>2018-08-18T16:05:28.500Z</time>
      </trkpt>
      <trkpt lat="48.6250699" lon="-2.0042418">
        <ele>42.172</ele>
        <time>2018-08-18T16:05:32.493Z</time>
      </trkpt>
      <trkpt lat="48.6251664" lon="-2.0042244">
        <ele>39.322</ele>
        <time>2018-08-18T16:05:36.662Z</time>
      </trkpt>
      <trkpt lat="48.6252649" lon="-2.0042190">
        <ele>36.045</ele>
        <time>2018-08-18T16:05:41.124Z</time>
      </trkpt>
      <trkpt lat="48.6253560" lon="-2.0042301">
        <ele>33.642</ele>
        <time>2018-08-18T16:05:45.628Z</time>
      </trkpt>
      <trkpt lat="48.6254553" lon="-2.0042457">
        <ele>32.762</ele>
        <time>2018-08-18T16:05:51.328Z</time>
      </trkpt>
      <trkpt lat="48.6255628" lon="-2.0042534">
        <ele>33.876</ele>
        <time>2018-08-18T16:05:57.674Z</time>
      </trkpt>
      <trkpt lat="48.6256571" lon="-2.0042595">
        <ele>36.476</ele>
        <time>2018-08-18T16:06:03.163Z</time>
      </trkpt>
      <trkpt lat="48.6257554" lon="-2.0042520">
        <ele>39.256</ele>
        <time>2018-08-18T16:06:09.000Z</time>
      </trkpt>
      <trkpt lat="48.6257554" lon="-2.0042520">
        <ele>41.255</ele>
        <time>2018-08-18T16:06:10.000Z</time>
      </trkpt>
      <trkpt lat="48.6257554" lon="-2.0042520">
        <ele>42.121</ele>
        <time>2018-08-18T16:06:10.100Z</time>
      </trkpt>
      <trkpt lat="48.6258850" lon="-2.0042389">
        <ele>41.993</ele>
        <time>2018-08-18T16:06:21.902Z</time>
      </trkpt>
      <trkpt lat="48.6259925" lon="-2.0042263">
        <ele>41.903</ele>
        <time>2018-08-18T16:06:27.936Z</time>
      </trkpt>
      <trkpt lat="48.6260823" lon="-2.0042152">
        <ele>42.557</ele>
        <time>2018-08-18T16:06:32.896Z</time>
      </trkpt>
      <trkpt lat="48.6261717" lon="-2.0042379">
        <ele>43.789</ele>
        <time>2018-08-18T16:06:37.910Z</time>
      </trkpt>
      <trkpt lat="48.6262660" lon="-2.0042458">
        <ele>45.294</ele>
        <time>2018-08-18T16:06:42.976Z</time>
      </trkpt>
      <trkpt lat="48.6263686" lon="-2.0042446">
        <ele>46.723</ele>
        <time>2018-08-18T16:06:48.214Z</time>
      </trkpt>
      <trkpt lat="48.6264601" lon="-2.0042280">
        <ele>47.768</ele>
        <time>2018-08-18T16:06:52.770Z</time>
      </trkpt>
      <trkpt lat="48.6265594" lon="-2.0042030">
        <ele>48.667</ele>
        <time>2018-08-18T16:06:57.532Z</time>
      </trkpt>
      <trkpt lat="48.6266631" lon="-2.0041901">
        <ele>49.523</ele>
        <time>2018-08-18T16:07:02.202Z</time>
      </trkpt>
      <trkpt lat="48.6267703" lon="-2.0042011">
        <ele>50.084</ele>
        <time>2018-08-18T16:07:06.842Z</time>
      </trkpt>
      <trkpt lat="48.6268683" lon="-2.0041988">
        <ele>50.257</ele>
        <time>2018-08-18T16:07:10.882Z</time>
      </trkpt>
      <trkpt lat="48.6269757" lon="-2.0041762">
        <ele>50.175</ele>
        <time>2018-08-18T16:07:15.000Z</time>
      </trkpt>
      <trkpt lat="48.6269757" lon="-2.0041762">
        <ele>49.984</ele>
        <time>2018-08-18T16:07:16.000Z</time>
      </trkpt>
      <trkpt lat="48.6269757" lon="-2.0041762">
        <ele>49.842</ele>
        <time>2018-08-18T16:07:16.100Z</time>
      </trkpt>
      <trkpt lat="48.6271446" lon="-2.0041034">
        <ele>49.827</ele>
        <time>2018-08-18T16:07:24.371Z</time>
      </trkpt>
      <trkpt lat="48.6272407" lon="-2.0040516">
        <ele>49.789</ele>
        <time>2018-08-18T16:07:27.777Z</time>
      </trkpt>
      <trkpt lat="48.6273362" lon="-2.0039883">
        <ele>49.512</ele>
        <time>2018-08-18T16:07:31.209Z</time>
      </trkpt>
      <trkpt lat="48.6274284" lon="-2.0039112">
        <ele>49.054</ele>
        <time>2018-08-18T16:07:34.700Z</time>
      </trkpt>
      <trkpt lat="48.6275149" lon="-2.0038484">
        <ele>48.595</ele>
        <time>2018-08-18T16:07:38.043Z</time>
      </trkpt>
      <trkpt lat="48.6275891" lon="-2.0037359">
        <ele>48.195</ele>
        <time>2018-08-18T16:07:42.000Z</time>
      </trkpt>
      <trkpt lat="48.6275891" lon="-2.0037359">
        <ele>47.959</ele>
        <time>2018-08-18T16:07:55.000Z</time>
      </trkpt>
      <trkpt lat="48.6275891" lon="-2.0037359">
        <ele>47.955</ele>
        <time>2018-08-18T16:08:28.432Z</time>
      </trkpt>
      <trkpt lat="48.6277877" lon="-2.0037305">
        <ele>48.053</ele>
        <time>2018-08-18T16:08:41.990Z</time>
      </trkpt>
      <trkpt lat="48.6278472" lon="-2.0038458">
        <ele>48.311</ele>
        <time>2018-08-18T16:08:46.109Z</time>
      </trkpt>
      <trkpt lat="48.6279352" lon="-2.0039069">
        <ele>49.032</ele>
        <time>2018-08-18T16:08:49.932Z</time>
      </trkpt>
      <trkpt lat="48.6280109" lon="-2.0039862">
        <ele>50.083</ele>
        <time>2018-08-18T16:08:53.005Z</time>
      </trkpt>
      <trkpt lat="48.6281002" lon="-2.0041056">
        <ele>50.964</ele>
        <time>2018-08-18T16:08:56.768Z</time>
      </trkpt>
      <trkpt lat="48.6281733" lon="-2.0042140">
        <ele>51.475</ele>
        <time>2018-08-18T16:08:59.793Z</time>
      </trkpt>
      <trkpt lat="48.6282479" lon="-2.0043212">
        <ele>51.661</ele>
        <time>2018-08-18T16:09:02.709Z</time>
      </trkpt>
      <trkpt lat="48.6283154" lon="-2.0044476">
        <ele>51.604</ele>
        <time>2018-08-18T16:09:05.619Z</time>
      </trkpt>
      <trkpt lat="48.6283885" lon="-2.0045759">
        <ele>51.491</ele>
        <time>2018-08-18T16:09:08.543Z</time>
      </trkpt>
      <trkpt lat="48.6284737" lon="-2.0046895">
        <ele>51.442</ele>
        <time>2018-08-18T16:09:11.426Z</time>
      </trkpt>
      <trkpt lat="48.6285653" lon="-2.0048025">
        <ele>51.247</ele>
        <time>2018-08-18T16:09:14.330Z</time>
      </trkpt>
      <trkpt lat="48.6286540" lon="-2.0049305">
        <ele>50.742</ele>
        <time>2018-08-18T16:09:17.236Z</time>
      </trkpt>
      <trkpt lat="48.6287488" lon="-2.0050517">
        <ele>50.269</ele>
        <time>2018-08-18T16:09:20.076Z</time>
      </trkpt>
      <trkpt lat="48.6288467" lon="-2.0051856">
        <ele>50.169</ele>
        <time>2018-08-18T16:09:23.000Z</time>
      </trkpt>
      <trkpt lat="48.6289501" lon="-2.0053183">
        <ele>50.307</ele>
        <time>2018-08-18T16:09:25.920Z</time>
      </trkpt>
      <trkpt lat="48.6290603" lon="-2.0054530">
        <ele>50.253</ele>
        <time>2018-08-18T16:09:28.904Z</time>
      </trkpt>
      <trkpt lat="48.6291620" lon="-2.0055832">
        <ele>49.729</ele>
        <time>2018-08-18T16:09:31.683Z</time>
      </trkpt>
      <trkpt lat="48.6292571" lon="-2.0057148">
        <ele>48.972</ele>
        <time>2018-08-18T16:09:34.374Z</time>
      </trkpt>
      <trkpt lat="48.6293556" lon="-2.0058547">
        <ele>48.217</ele>
        <time>2018-08-18T16:09:37.206Z</time>
      </trkpt>
      <trkpt lat="48.6294261" lon="-2.0059417">
        <ele>47.346</ele>
        <time>2018-08-18T16:09:39.160Z</time>
      </trkpt>
      <trkpt lat="48.6295258" lon="-2.0060195">
        <ele>46.081</ele>
        <time>2018-08-18T16:09:41.660Z</time>
      </trkpt>
      <trkpt lat="48.6296413" lon="-2.0060382">
        <ele>44.146</ele>
        <time>2018-08-18T16:09:44.451Z</time>
      </trkpt>
      <trkpt lat="48.6297363" lon="-2.0060841">
        <ele>41.714</ele>
        <time>2018-08-18T16:09:47.000Z</time>
      </trkpt>
      <trkpt lat="48.6297363" lon="-2.0060841">
        <ele>39.597</ele>
        <time>2018-08-18T16:09:49.000Z</time>
      </trkpt>
      <trkpt lat="48.6297363" lon="-2.0060841">
        <ele>38.585</ele>
        <time>2018-08-18T16:10:10.027Z</time>
      </trkpt>
      <trkpt lat="48.6299431" lon="-2.0062488">
        <ele>38.677</ele>
        <time>2018-08-18T16:10:34.053Z</time>
      </trkpt>
      <trkpt lat="48.6300241" lon="-2.0063720">
        <ele>39.111</ele>
        <time>2018-08-18T16:10:37.930Z</time>
      </trkpt>
      <trkpt lat="48.6301239" lon="-2.0064525">
        <ele>39.304</ele>
        <time>2018-08-18T16:10:41.180Z</time>
      </trkpt>
      <trkpt lat="48.6302281" lon="-2.0065285">
        <ele>39.266</ele>
        <time>2018-08-18T16:10:44.240Z</time>
      </trkpt>
      <trkpt lat="48.6303403" lon="-2.0065801">
        <ele>39.159</ele>
        <time>2018-08-18T16:10:47.254Z</time>
      </trkpt>
      <trkpt lat="48.6304562" lon="-2.0066259">
        <ele>38.883</ele>
        <time>2018-08-18T16:10:50.338Z</time>
      </trkpt>
      <trkpt lat="48.6305646" lon="-2.0066641">
        <ele>38.253</ele>
        <time>2018-08-18T16:10:53.212Z</time>
      </trkpt>
      <trkpt lat="48.6306709" lon="-2.0066949">
        <ele>37.437</ele>
        <time>2018-08-18T16:10:56.024Z</time>
      </trkpt>
      <trkpt lat="48.6307706" lon="-2.0067269">
        <ele>36.839</ele>
        <time>2018-08-18T16:10:58.688Z</time>
      </trkpt>
      <trkpt lat="48.6308763" lon="-2.0067673">
        <ele>36.776</ele>
        <time>2018-08-18T16:11:01.524Z</time>
      </trkpt>
      <trkpt lat="48.6309833" lon="-2.0067987">
        <ele>37.318</ele>
        <time>2018-08-18T16:11:04.405Z</time>
      </trkpt>
      <trkpt lat="48.6310871" lon="-2.0068249">
        <ele>38.181</ele>
        <time>2018-08-18T16:11:07.509Z</time>
      </trkpt>
      <trkpt lat="48.6311858" lon="-2.0068410">
        <ele>38.991</ele>
        <time>2018-08-18T16:11:11.381Z</time>
      </trkpt>
      <trkpt lat="48.6312733" lon="-2.0067709">
        <ele>39.623</ele>
        <time>2018-08-18T16:11:15.710Z</time>
      </trkpt>
      <trkpt lat="48.6313627" lon="-2.0067409">
        <ele>40.053</ele>
        <time>2018-08-18T16:11:19.995Z</time>
      </trkpt>
      <trkpt lat="48.6314537" lon="-2.0067846">
        <ele>40.194</ele>
        <time>2018-08-18T16:11:23.932Z</time>
      </trkpt>
      <trkpt lat="48.6315673" lon="-2.0068388">
        <ele>39.808</ele>
        <time>2018-08-18T16:11:28.344Z</time>
      </trkpt>
      <trkpt lat="48.6316626" lon="-2.0068979">
        <ele>38.929</ele>
        <time>2018-08-18T16:11:32.069Z</time>
      </trkpt>
      <trkpt lat="48.6317708" lon="-2.0069342">
        <ele>37.923</ele>
        <time>2018-08-18T16:11:35.918Z</time>
      </trkpt>
      <trkpt lat="48.6318657" lon="-2.0069409">
        <ele>37.060</ele>
        <time>2018-08-18T16:11:38.976Z</time>
      </trkpt>
      <trkpt lat="48.6319742" lon="-2.0069617">
        <ele>36.382</ele>
        <time>2018-08-18T16:11:42.400Z</time>
      </trkpt>
      <trkpt lat="48.6320698" lon="-2.0069683">
        <ele>35.897</ele>
        <time>2018-08-18T16:11:45.250Z</time>
      </trkpt>
      <trkpt lat="48.6321814" lon="-2.0069789">
        <ele>35.614</ele>
        <time>2018-08-18T16:11:48.352Z</time>
      </trkpt>
      <trkpt lat="48.6323000" lon="-2.0070003">
        <ele>35.404</ele>
        <time>2018-08-18T16:11:51.520Z</time>
      </trkpt>
      <trkpt lat="48.6323975" lon="-2.0070313">
        <ele>35.077</ele>
        <time>2018-08-18T16:11:54.231Z</time>
      </trkpt>
      <trkpt lat="48.6324923" lon="-2.0070688">
        <ele>34.849</ele>
        <time>2018-08-18T16:11:57.000Z</time>
      </trkpt>
      <trkpt lat="48.6324923" lon="-2.0070688">
        <ele>34.947</ele>
        <time>2018-08-18T16:11:59.000Z</time>
      </trkpt>
      <trkpt lat="48.6324923" lon="-2.0070688">
        <ele>35.121</ele>
        <time>2018-08-18T16:11:59.100Z</time>
      </trkpt>
      <trkpt lat="48.6327232" lon="-2.0071128">
        <ele>35.115</ele>
        <time>2018-08-18T16:12:20.410Z</time>
      </trkpt>
      <trkpt lat="48.6328262" lon="-2.0070892">
        <ele>35.159</ele>
        <time>2018-08-18T16:12:24.552Z</time>
      </trkpt>
      <trkpt lat="48.6329256" lon="-2.0071209">
        <ele>35.483</ele>
        <time>2018-08-18T16:12:28.193Z</time>
      </trkpt>
      <trkpt lat="48.6330066" lon="-2.0071993">
        <ele>35.712</ele>
        <time>2018-08-18T16:12:31.364Z</time>
      </trkpt>
      <trkpt lat="48.6331019" lon="-2.0072844">
        <ele>35.480</ele>
        <time>2018-08-18T16:12:34.781Z</time>
      </trkpt>
      <trkpt lat="48.6332116" lon="-2.0073372">
        <ele>35.051</ele>
        <time>2018-08-18T16:12:38.139Z</time>
      </trkpt>
      <trkpt lat="48.6333001" lon="-2.0073806">
        <ele>34.866</ele>
        <time>2018-08-18T16:12:40.732Z</time>
      </trkpt>
      <trkpt lat="48.6334118" lon="-2.0074467">
        <ele>35.235</ele>
        <time>2018-08-18T16:12:44.000Z</time>
      </trkpt>
      <trkpt lat="48.6334118" lon="-2.0074467">
        <ele>36.065</ele>
        <time>2018-08-18T16:12:44.000Z</time>
      </trkpt>
      <trkpt lat="48.6334118" lon="-2.0074467">
        <ele>36.670</ele>
        <time>2018-08-18T16:12:44.100Z</time>
      </trkpt>
      <trkpt lat="48.6335678" lon="-2.0075107">
        <ele>36.635</ele>
        <time>2018-08-18T16:12:51.193Z</time>
      </trkpt>
      <trkpt lat="48.6336556" lon="-2.0075578">
        <ele>36.647</ele>
        <time>2018-08-18T16:12:53.824Z</time>
      </trkpt>
      <trkpt lat="48.6337440" lon="-2.0076135">
        <ele>37.550</ele>
        <time>2018-08-18T16:12:56.463Z</time>
      </trkpt>
      <trkpt lat="48.6338465" lon="-2.0076694">
        <ele>39.015</ele>
        <time>2018-08-18T16:12:59.366Z</time>
      </trkpt>
      <trkpt lat="48.6339502" lon="-2.0077074">
        <ele>39.525</ele>
        <time>2018-08-18T16:13:02.115Z</time>
      </trkpt>
      <trkpt lat="48.6340556" lon="-2.0077504">
        <ele>38.369</ele>
        <time>2018-08-18T16:13:04.843Z</time>
      </trkpt>
      <trkpt lat="48.6341623" lon="-2.0077945">
        <ele>36.443</ele>
        <time>2018-08-18T16:13:07.525Z</time>
      </trkpt>
      <trkpt lat="48.6342727" lon="-2.0078489">
        <ele>34.833</ele>
        <time>2018-08-18T16:13:10.275Z</time>
      </trkpt>
      <trkpt lat="48.6343816" lon="-2.0079135">
        <ele>33.926</ele>
        <time>2018-08-18T16:13:13.000Z</time>
      </trkpt>
      <trkpt lat="48.6343816" lon="-2.0079135">
        <ele>33.686</ele>
        <time>2018-08-18T16:13:14.000Z</time>
      </trkpt>
      <trkpt lat="48.6343816" lon="-2.0079135">
        <ele>33.742</ele>
        <time>2018-08-18T16:13:14.100Z</time>
      </trkpt>
      <trkpt lat="48.6345614" lon="-2.0079989">
        <ele>33.802</ele>
        <time>2018-08-18T16:13:20.933Z</time>
      </trkpt>
      <trkpt lat="48.6346840" lon="-2.0080470">
        <ele>33.420</ele>
        <time>2018-08-18T16:13:24.079Z</time>
      </trkpt>
      <trkpt lat="48.6347924" lon="-2.0080923">
        <ele>32.172</ele>
        <time>2018-08-18T16:13:27.014Z</time>
      </trkpt>
      <trkpt lat="48.6348904" lon="-2.0081419">
        <ele>30.448</ele>
        <time>2018-08-18T16:13:29.980Z</time>
      </trkpt>
      <trkpt lat="48.6349892" lon="-2.0081709">
        <ele>29.061</ele>
        <time>2018-08-18T16:13:33.141Z</time>
      </trkpt>
      <trkpt lat="48.6350878" lon="-2.0082609">
        <ele>28.309</ele>
        <time>2018-08-18T16:13:36.989Z</time>
      </trkpt>
      <trkpt lat="48.6351856" lon="-2.0083239">
        <ele>28.060</ele>
        <time>2018-08-18T16:13:40.257Z</time>
      </trkpt>
      <trkpt lat="48.6352917" lon="-2.0084124">
        <ele>28.086</ele>
        <time>2018-08-18T16:13:43.563Z</time>
      </trkpt>
      <trkpt lat="48.6353925" lon="-2.0084994">
        <ele>28.137</ele>
        <time>2018-08-18T16:13:46.535Z</time>
      </trkpt>
      <trkpt lat="48.6354912" lon="-2.0085556">
        <ele>28.084</ele>
        <time>2018-08-18T16:13:49.240Z</time>
      </trkpt>
      <trkpt lat="48.6355845" lon="-2.0086075">
        <ele>27.843</ele>
        <time>2018-08-18T16:13:51.857Z</time>
      </trkpt>
      <trkpt lat="48.6356782" lon="-2.0086571">
        <ele>27.320</ele>
        <time>2018-08-18T16:13:54.579Z</time>
      </trkpt>
      <trkpt lat="48.6357798" lon="-2.0087265">
        <ele>26.675</ele>
        <time>2018-08-18T16:13:57.824Z</time>
      </trkpt>
      <trkpt lat="48.6358655" lon="-2.0087892">
        <ele>26.223</ele>
        <time>2018-08-18T16:14:00.781Z</time>
      </trkpt>
      <trkpt lat="48.6359747" lon="-2.0088548">
        <ele>25.951</ele>
        <time>2018-08-18T16:14:04.284Z</time>
      </trkpt>
      <trkpt lat="48.6360986" lon="-2.0089370">
        <ele>25.539</ele>
        <time>2018-08-18T16:14:07.818Z</time>
      </trkpt>
      <trkpt lat="48.6361816" lon="-2.0089935">
        <ele>24.649</ele>
        <time>2018-08-18T16:14:09.969Z</time>
      </trkpt>
      <trkpt lat="48.6362704" lon="-2.0090471">
        <ele>23.399</ele>
        <time>2018-08-18T16:14:12.111Z</time>
      </trkpt>
      <trkpt lat="48.6363895" lon="-2.0091196">
        <ele>22.397</ele>
        <time>2018-08-18T16:14:14.910Z</time>
      </trkpt>
      <trkpt lat="48.6365150" lon="-2.0091931">
        <ele>22.000</ele>
        <time>2018-08-18T16:14:17.779Z</time>
      </trkpt>
      <trkpt lat="48.6366376" lon="-2.0092728">
        <ele>22.035</ele>
        <time>2018-08-18T16:14:20.580Z</time>
      </trkpt>
      <trkpt lat="48.6367671" lon="-2.0093636">
        <ele>22.207</ele>
        <time>2018-08-18T16:14:23.526Z</time>
      </trkpt>
      <trkpt lat="48.6368481" lon="-2.0094263">
        <ele>22.302</ele>
        <time>2018-08-18T16:14:25.379Z</time>
      </trkpt>
      <trkpt lat="48.6369853" lon="-2.0095040">
        <ele>22.292</ele>
        <time>2018-08-18T16:14:28.337Z</time>
      </trkpt>
      <trkpt lat="48.6370839" lon="-2.0095281">
        <ele>22.341</ele>
        <time>2018-08-18T16:14:30.344Z</time>
      </trkpt>
      <trkpt lat="48.6371804" lon="-2.0095335">
        <ele>22.553</ele>
        <time>2018-08-18T16:14:32.298Z</time>
      </trkpt>
      <trkpt lat="48.6372707" lon="-2.0095252">
        <ele>22.755</ele>
        <time>2018-08-18T16:14:34.152Z</time>
      </trkpt>
      <trkpt lat="48.6373658" lon="-2.0095029">
        <ele>22.755</ele>
        <time>2018-08-18T16:14:36.153Z</time>
      </trkpt>
      <trkpt lat="48.6374987" lon="-2.0094553">
        <ele>22.617</ele>
        <time>2018-08-18T16:14:39.000Z</time>
      </trkpt>
      <trkpt lat="48.6374987" lon="-2.0094553">
        <ele>22.499</ele>
        <time>2018-08-18T16:14:39.000Z</time>
      </trkpt>
      <trkpt lat="48.6374987" lon="-2.0094553">
        <ele>22.470</ele>
        <time>2018-08-18T16:14:39.029Z</time>
      </trkpt>
      <trkpt lat="48.6376635" lon="-2.0093806">
        <ele>22.484</ele>
        <time>2018-08-18T16:14:44.840Z</time>
      </trkpt>
      <trkpt lat="48.6377876" lon="-2.0093486">
        <ele>22.282</ele>
        <time>2018-08-18T16:14:47.830Z</time>
      </trkpt>
      <trkpt lat="48.6379109" lon="-2.0093371">
        <ele>21.570</ele>
        <time>2018-08-18T16:14:50.924Z</time>
      </trkpt>
      <trkpt lat="48.6380186" lon="-2.0093029">
        <ele>20.578</ele>
        <time>2018-08-18T16:14:53.709Z</time>
      </trkpt>
      <trkpt lat="48.6381394" lon="-2.0092611">
        <ele>19.776</ele>
        <time>2018-08-18T16:14:56.747Z</time>
      </trkpt>
      <trkpt lat="48.6382620" lon="-2.0092041">
        <ele>18.843</ele>
        <time>2018-08-18T16:14:59.862Z</time>
      </trkpt>
      <trkpt lat="48.6383646" lon="-2.0091659">
        <ele>17.434</ele>
        <time>2018-08-18T16:15:02.620Z</time>
      </trkpt>
      <trkpt lat="48.6384643" lon="-2.0091354">
        <ele>16.149</ele>
        <time>2018-08-18T16:15:05.567Z</time>
      </trkpt>
      <trkpt lat="48.6385585" lon="-2.0090902">
        <ele>15.659</ele>
        <time>2018-08-18T16:15:08.481Z</time>
      </trkpt>
      <trkpt lat="48.6386813" lon="-2.0090485">
        <ele>15.844</ele>
        <time>2018-08-18T16:15:11.948Z</time>
      </trkpt>
      <trkpt lat="48.6388016" lon="-2.0090187">
        <ele>16.099</ele>
        <time>2018-08-18T16:15:15.229Z</time>
      </trkpt>
      <trkpt lat="48.6389049" lon="-2.0089779">
        <ele>15.837</ele>
        <time>2018-08-18T16:15:18.047Z</time>
      </trkpt>
      <trkpt lat="48.6390149" lon="-2.0089240">
        <ele>15.054</ele>
        <time>2018-08-18T16:15:21.029Z</time>
      </trkpt>
      <trkpt lat="48.6391136" lon="-2.0088706">
        <ele>14.216</ele>
        <time>2018-08-18T16:15:23.737Z</time>
      </trkpt>
      <trkpt lat="48.6392227" lon="-2.0088078">
        <ele>13.705</ele>
        <time>2018-08-18T16:15:26.767Z</time>
      </trkpt>
      <trkpt lat="48.6393343" lon="-2.0087643">
        <ele>13.694</ele>
        <time>2018-08-18T16:15:29.749Z</time>
      </trkpt>
      <trkpt lat="48.6394440" lon="-2.0087188">
        <ele>14.110</ele>
        <time>2018-08-18T16:15:32.754Z</time>
      </trkpt>
      <trkpt lat="48.6395430" lon="-2.0086814">
        <ele>14.344</ele>
        <time>2018-08-18T16:15:35.584Z</time>
      </trkpt>
      <trkpt lat="48.6396381" lon="-2.0086517">
        <ele>13.939</ele>
        <time>2018-08-18T16:15:38.654Z</time>
      </trkpt>
      <trkpt lat="48.6397336" lon="-2.0086369">
        <ele>13.266</ele>
        <time>2018-08-18T16:15:42.000Z</time>
      </trkpt>
      <trkpt lat="48.6397336" lon="-2.0086369">
        <ele>12.823</ele>
        <time>2018-08-18T16:15:52.000Z</time>
      </trkpt>
      <trkpt lat="48.6397336" lon="-2.0086369">
        <ele>12.675</ele>
        <time>2018-08-18T16:15:54.770Z</time>
      </trkpt>
      <trkpt lat="48.6398792" lon="-2.0084362">
        <ele>12.699</ele>
        <time>2018-08-18T16:16:11.426Z</time>
      </trkpt>
      <trkpt lat="48.6399799" lon="-2.0084222">
        <ele>12.614</ele>
        <time>2018-08-18T16:16:15.901Z</time>
      </trkpt>
      <trkpt lat="48.6400755" lon="-2.0085036">
        <ele>12.157</ele>
        <time>2018-08-18T16:16:20.110Z</time>
      </trkpt>
      <trkpt lat="48.6401514" lon="-2.0085803">
        <ele>11.293</ele>
        <time>2018-08-18T16:16:23.467Z</time>
      </trkpt>
      <trkpt lat="48.6402594" lon="-2.0085819">
        <ele>10.312</ele>
        <time>2018-08-18T16:16:27.289Z</time>
      </trkpt>
      <trkpt lat="48.6403623" lon="-2.0085762">
        <ele>9.640</ele>
        <time>2018-08-18T16:16:30.832Z</time>
      </trkpt>
      <trkpt lat="48.6404618" lon="-2.0085676">
        <ele>9.488</ele>
        <time>2018-08-18T16:16:34.239Z</time>
      </trkpt>
      <trkpt lat="48.6405596" lon="-2.0085626">
        <ele>9.695</ele>
        <time>2018-08-18T16:16:37.600Z</time>
      </trkpt>
      <trkpt lat="48.6406574" lon="-2.0085687">
        <ele>9.986</ele>
        <time>2018-08-18T16:16:40.992Z</time>
      </trkpt>
      <trkpt lat="48.6407530" lon="-2.0085810">
        <ele>10.218</ele>
        <time>2018-08-18T16:16:44.372Z</time>
      </trkpt>
      <trkpt lat="48.6408529" lon="-2.0085737">
        <ele>10.475</ele>
        <time>2018-08-18T16:16:48.000Z</time>
      </trkpt>
      <trkpt lat="48.6408529" lon="-2.0085737">
        <ele>10.781</ele>
        <time>2018-08-18T16:16:51.000Z</time>
      </trkpt>
      <trkpt lat="48.6408529" lon="-2.0085737">
        <ele>10.968</ele>
        <time>2018-08-18T16:16:51.100Z</time>
      </trkpt>
      <trkpt lat="48.6410792" lon="-2.0085475">
        <ele>10.940</ele>
        <time>2018-08-18T16:17:03.206Z</time>
      </trkpt>
      <trkpt lat="48.6411744" lon="-2.0085412">
        <ele>10.818</ele>
        <time>2018-08-18T16:17:07.125Z</time>
      </trkpt>
      <trkpt lat="48.6412696" lon="-2.0085358">
        <ele>10.759</ele>
        <time>2018-08-18T16:17:11.063Z</time>
      </trkpt>
      <trkpt lat="48.6413614" lon="-2.0085366">
        <ele>10.801</ele>
        <time>2018-08-18T16:17:14.870Z</time>
      </trkpt>
      <trkpt lat="48.6414705" lon="-2.0085465">
        <ele>10.924</ele>
        <time>2018-08-18T16:17:19.410Z</time>
      </trkpt>
      <trkpt lat="48.6415612" lon="-2.0085368">
        <ele>11.084</ele>
        <time>2018-08-18T16:17:23.212Z</time>
      </trkpt>
      <trkpt lat="48.6416601" lon="-2.0085047">
        <ele>11.207</ele>
        <time>2018-08-18T16:17:27.287Z</time>
      </trkpt>
      <trkpt lat="48.6417737" lon="-2.0084808">
        <ele>11.230</ele>
        <time>2018-08-18T16:17:31.470Z</time>
      </trkpt>
      <trkpt lat="48.6418920" lon="-2.0084933">
        <ele>11.228</ele>
        <time>2018-08-18T16:17:35.580Z</time>
      </trkpt>
      <trkpt lat="48.6420034" lon="-2.0085093">
        <ele>11.307</ele>
        <time>2018-08-18T16:17:39.488Z</time>
      </trkpt>
      <trkpt lat="48.6421176" lon="-2.0085104">
        <ele>11.550</ele>
        <time>2018-08-18T16:17:43.449Z</time>
      </trkpt>
      <trkpt lat="48.6422296" lon="-2.0085267">
        <ele>12.038</ele>
        <time>2018-08-18T16:17:47.298Z</time>
      </trkpt>
      <trkpt lat="48.6423188" lon="-2.0085108">
        <ele>12.965</ele>
        <time>2018-08-18T16:17:50.370Z</time>
      </trkpt>
      <trkpt lat="48.6424237" lon="-2.0085056">
        <ele>14.388</ele>
        <time>2018-08-18T16:17:53.927Z</time>
      </trkpt>
      <trkpt lat="48.6425184" lon="-2.0085062">
        <ele>15.932</ele>
        <time>2018-08-18T16:17:57.009Z</time>
      </trkpt>
      <trkpt lat="48.6426094" lon="-2.0085001">
        <ele>17.081</ele>
        <time>2018-08-18T16:17:59.950Z</time>
      </trkpt>
      <trkpt lat="48.6427253" lon="-2.0084930">
        <ele>17.675</ele>
        <time>2018-08-18T16:18:03.719Z</time>
      </trkpt>
      <trkpt lat="48.6428367" lon="-2.0085120">
        <ele>17.888</ele>
        <time>2018-08-18T16:18:07.462Z</time>
      </trkpt>
      <trkpt lat="48.6429286" lon="-2.0085142">
        <ele>18.275</ele>
        <time>2018-08-18T16:18:10.699Z</time>
      </trkpt>
      <trkpt lat="48.6430202" lon="-2.0084972">
        <ele>19.893</ele>
        <time>2018-08-18T16:18:14.142Z</time>
      </trkpt>
      <trkpt lat="48.6431277" lon="-2.0084846">
        <ele>20.226</ele>
        <time>2018-08-18T16:18:18.356Z</time>
      </trkpt>
      <trkpt lat="48.6432248" lon="-2.0084922">
        <ele>20.254</ele>
        <time>2018-08-18T16:18:22.268Z</time>
      </trkpt>
      <trkpt lat="48.6433298" lon="-2.0085392">
        <ele>20.201</ele>
        <time>2018-08-18T16:18:27.000Z</time>
      </trkpt>
      <trkpt lat="48.6433298" lon="-2.0085392">
        <ele>20.136</ele>
        <time>2018-08-18T16:18:27.000Z</time>
      </trkpt>
      <trkpt lat="48.6433298" lon="-2.0085392">
        <ele>20.096</ele>
        <time>2018-08-18T16:18:27.100Z</time>
      </trkpt>
      <trkpt lat="48.6434660" lon="-2.0085377">
        <ele>20.102</ele>
        <time>2018-08-18T16:18:35.502Z</time>
      </trkpt>
      <trkpt lat="48.6435628" lon="-2.0085142">
        <ele>20.110</ele>
        <time>2018-08-18T16:18:39.600Z</time>
      </trkpt>
      <trkpt lat="48.6436659" lon="-2.0084830">
        <ele>20.097</ele>
        <time>2018-08-18T16:18:44.256Z</time>
      </trkpt>
      <trkpt lat="48.6437667" lon="-2.0084486">
        <ele>20.227</ele>
        <time>2018-08-18T16:18:49.135Z</time>
      </trkpt>
      <trkpt lat="48.6438543" lon="-2.0083528">
        <ele>20.438</ele>
        <time>2018-08-18T16:18:54.178Z</time>
      </trkpt>
      <trkpt lat="48.6439497" lon="-2.0082475">
        <ele>20.268</ele>
        <time>2018-08-18T16:18:58.543Z</time>
      </trkpt>
      <trkpt lat="48.6440284" lon="-2.0081705">
        <ele>19.332</ele>
        <time>2018-08-18T16:19:01.644Z</time>
      </trkpt>
      <trkpt lat="48.6441386" lon="-2.0081706">
        <ele>17.428</ele>
        <time>2018-08-18T16:19:05.444Z</time>
      </trkpt>
      <trkpt lat="48.6442328" lon="-2.0082613">
        <ele>14.969</ele>
        <time>2018-08-18T16:19:09.529Z</time>
      </trkpt>
      <trkpt lat="48.6442770" lon="-2.0083927">
        <ele>13.088</ele>
        <time>2018-08-18T16:19:13.584Z</time>
      </trkpt>
      <trkpt lat="48.6443669" lon="-2.0084326">
        <ele>12.614</ele>
        <time>2018-08-18T16:19:17.949Z</time>
      </trkpt>
      <trkpt lat="48.6444608" lon="-2.0084596">
        <ele>13.331</ele>
        <time>2018-08-18T16:19:22.000Z</time>
      </trkpt>
      <trkpt lat="48.6444608" lon="-2.0084596">
        <ele>14.132</ele>
        <time>2018-08-18T16:19:23.000Z</time>
      </trkpt>
      <trkpt lat="48.6444608" lon="-2.0084596">
        <ele>14.227</ele>
        <time>2018-08-18T16:19:23.100Z</time>
      </trkpt>
      <trkpt lat="48.6446782" lon="-2.0084665">
        <ele>13.870</ele>
        <time>2018-08-18T16:19:37.567Z</time>
      </trkpt>
      <trkpt lat="48.6447833" lon="-2.0084378">
        <ele>13.620</ele>
        <time>2018-08-18T16:19:43.405Z</time>
      </trkpt>
      <trkpt lat="48.6448844" lon="-2.0084327">
        <ele>14.177</ele>
        <time>2018-08-18T16:19:49.289Z</time>
      </trkpt>
      <trkpt lat="48.6448880" lon="-2.0085967">
        <ele>15.840</ele>
        <time>2018-08-18T16:19:54.629Z</time>
      </trkpt>
      <trkpt lat="48.6448558" lon="-2.0087442">
        <ele>17.745</ele>
        <time>2018-08-18T16:19:59.037Z</time>
      </trkpt>
      <trkpt lat="48.6448799" lon="-2.0088783">
        <ele>18.628</ele>
        <time>2018-08-18T16:20:02.562Z</time>
      </trkpt>
      <trkpt lat="48.6449027" lon="-2.0090147">
        <ele>18.246</ele>
        <time>2018-08-18T16:20:06.148Z</time>
      </trkpt>
      <trkpt lat="48.6448945" lon="-2.0091656">
        <ele>17.405</ele>
        <time>2018-08-18T16:20:09.999Z</time>
      </trkpt>
      <trkpt lat="48.6448991" lon="-2.0093048">
        <ele>16.856</ele>
        <time>2018-08-18T16:20:14.113Z</time>
      </trkpt>
      <trkpt lat="48.6449489" lon="-2.0094207">
        <ele>16.680</ele>
        <time>2018-08-18T16:20:18.555Z</time>
      </trkpt>
      <trkpt lat="48.6450467" lon="-2.0093976">
        <ele>16.997</ele>
        <time>2018-08-18T16:20:23.735Z</time>
      </trkpt>
      <trkpt lat="48.6451464" lon="-2.0093748">
        <ele>17.833</ele>
        <time>2018-08-18T16:20:29.019Z</time>
      </trkpt>
      <trkpt lat="48.6452422" lon="-2.0093618">
        <ele>18.894</ele>
        <time>2018-08-18T16:20:33.854Z</time>
      </trkpt>
      <trkpt lat="48.6453456" lon="-2.0093321">
        <ele>19.943</ele>
        <time>2018-08-18T16:20:38.831Z</time>
      </trkpt>
      <trkpt lat="48.6454487" lon="-2.0093000">
        <ele>20.812</ele>
        <time>2018-08-18T16:20:43.895Z</time>
      </trkpt>
      <trkpt lat="48.6455402" lon="-2.0092789">
        <ele>21.602</ele>
        <time>2018-08-18T16:20:49.000Z</time>
      </trkpt>
      <trkpt lat="48.6455402" lon="-2.0092789">
        <ele>22.552</ele>
        <time>2018-08-18T16:21:04.000Z</time>
      </trkpt>
      <trkpt lat="48.6455402" lon="-2.0092789">
        <ele>23.209</ele>
        <time>2018-08-18T16:24:08.267Z</time>
      </trkpt>
      <trkpt lat="48.6453769" lon="-2.0093788">
        <ele>23.042</ele>
        <time>2018-08-18T16:24:33.679Z</time>
      </trkpt>
      <trkpt lat="48.6452860" lon="-2.0094050">
        <ele>20.861</ele>
        <time>2018-08-18T16:24:43.459Z</time>
      </trkpt>
      <trkpt lat="48.6451938" lon="-2.0093929">
        <ele>16.378</ele>
        <time>2018-08-18T16:24:54.000Z</time>
      </trkpt>
      <trkpt lat="48.6451938" lon="-2.0093929">
        <ele>12.135</ele>
        <time>2018-08-18T16:24:57.000Z</time>
      </trkpt>
      <trkpt lat="48.6448084" lon="-2.0093422">
        <ele>11.710</ele>
        <time>2018-08-21T08:42:04.000Z</time>
      </trkpt>
      <trkpt lat="48.6448084" lon="-2.0093422">
        <ele>11.707</ele>
        <time>2018-08-21T08:42:22.941Z</time>
      </trkpt>
      <trkpt lat="48.6447706" lon="-2.0090960">
        <ele>11.704</ele>
        <time>2018-08-21T08:42:34.036Z</time>
      </trkpt>
      <trkpt lat="48.6447558" lon="-2.0089254">
        <ele>14.249</ele>
        <time>2018-08-21T08:42:38.606Z</time>
      </trkpt>
      <trkpt lat="48.6447529" lon="-2.0087660">
        <ele>20.883</ele>
        <time>2018-08-21T08:42:42.988Z</time>
      </trkpt>
      <trkpt lat="48.6448052" lon="-2.0086518">
        <ele>27.237</ele>
        <time>2018-08-21T08:42:47.022Z</time>
      </trkpt>
      <trkpt lat="48.6448790" lon="-2.0085391">
        <ele>29.190</ele>
        <time>2018-08-21T08:42:51.043Z</time>
      </trkpt>
      <trkpt lat="48.6449769" lon="-2.0085353">
        <ele>28.143</ele>
        <time>2018-08-21T08:42:54.291Z</time>
      </trkpt>
      <trkpt lat="48.6450852" lon="-2.0085566">
        <ele>26.564</ele>
        <time>2018-08-21T08:42:57.600Z</time>
      </trkpt>
      <trkpt lat="48.6451899" lon="-2.0085780">
        <ele>25.432</ele>
        <time>2018-08-21T08:43:00.717Z</time>
      </trkpt>
      <trkpt lat="48.6453029" lon="-2.0085809">
        <ele>24.684</ele>
        <time>2018-08-21T08:43:04.039Z</time>
      </trkpt>
      <trkpt lat="48.6454113" lon="-2.0085837">
        <ele>24.197</ele>
        <time>2018-08-21T08:43:07.223Z</time>
      </trkpt>
      <trkpt lat="48.6455192" lon="-2.0085932">
        <ele>24.000</ele>
        <time>2018-08-21T08:43:10.441Z</time>
      </trkpt>
      <trkpt lat="48.6456245" lon="-2.0086023">
        <ele>23.786</ele>
        <time>2018-08-21T08:43:13.655Z</time>
      </trkpt>
      <trkpt lat="48.6457203" lon="-2.0086192">
        <ele>23.204</ele>
        <time>2018-08-21T08:43:16.561Z</time>
      </trkpt>
      <trkpt lat="48.6458343" lon="-2.0086075">
        <ele>22.440</ele>
        <time>2018-08-21T08:43:19.893Z</time>
      </trkpt>
      <trkpt lat="48.6459360" lon="-2.0086041">
        <ele>22.011</ele>
        <time>2018-08-21T08:43:22.825Z</time>
      </trkpt>
      <trkpt lat="48.6460292" lon="-2.0086081">
        <ele>22.050</ele>
        <time>2018-08-21T08:43:25.537Z</time>
      </trkpt>
      <trkpt lat="48.6461203" lon="-2.0085989">
        <ele>20.845</ele>
        <time>2018-08-21T08:43:28.141Z</time>
      </trkpt>
      <trkpt lat="48.6462135" lon="-2.0086045">
        <ele>17.223</ele>
        <time>2018-08-21T08:43:30.679Z</time>
      </trkpt>
      <trkpt lat="48.6463242" lon="-2.0086074">
        <ele>13.047</ele>
        <time>2018-08-21T08:43:33.578Z</time>
      </trkpt>
      <trkpt lat="48.6464339" lon="-2.0086123">
        <ele>10.336</ele>
        <time>2018-08-21T08:43:36.551Z</time>
      </trkpt>
      <trkpt lat="48.6465366" lon="-2.0086063">
        <ele>9.127</ele>
        <time>2018-08-21T08:43:39.678Z</time>
      </trkpt>
      <trkpt lat="48.6466411" lon="-2.0086101">
        <ele>8.943</ele>
        <time>2018-08-21T08:43:43.846Z</time>
      </trkpt>
      <trkpt lat="48.6467417" lon="-2.0085907">
        <ele>9.160</ele>
        <time>2018-08-21T08:43:48.000Z</time>
      </trkpt>
      <trkpt lat="48.6467417" lon="-2.0085907">
        <ele>9.354</ele>
        <time>2018-08-21T08:43:56.000Z</time>
      </trkpt>
      <trkpt lat="48.6467417" lon="-2.0085907">
        <ele>9.390</ele>
        <time>2018-08-21T08:44:15.000Z</time>
      </trkpt>
      <trkpt lat="48.6467417" lon="-2.0085907">
        <ele>9.356</ele>
        <time>2018-08-21T08:44:27.022Z</time>
      </trkpt>
      <trkpt lat="48.6469134" lon="-2.0084607">
        <ele>9.339</ele>
        <time>2018-08-21T08:44:45.118Z</time>
      </trkpt>
      <trkpt lat="48.6470253" lon="-2.0084086">
        <ele>8.866</ele>
        <time>2018-08-21T08:44:48.824Z</time>
      </trkpt>
      <trkpt lat="48.6476062" lon="-2.0085977">
        <ele>6.339</ele>
        <time>2018-08-21T08:45:03.447Z</time>
      </trkpt>
      <trkpt lat="48.6475306" lon="-2.0093048">
        <ele>5.658</ele>
        <time>2018-08-21T08:45:14.414Z</time>
      </trkpt>
      <trkpt lat="48.6475798" lon="-2.0094188">
        <ele>5.535</ele>
        <time>2018-08-21T08:45:16.532Z</time>
      </trkpt>
      <trkpt lat="48.6476442" lon="-2.0095698">
        <ele>5.694</ele>
        <time>2018-08-21T08:45:19.461Z</time>
      </trkpt>
      <trkpt lat="48.6477025" lon="-2.0096977">
        <ele>5.999</ele>
        <time>2018-08-21T08:45:22.115Z</time>
      </trkpt>
      <trkpt lat="48.6477414" lon="-2.0098321">
        <ele>6.405</ele>
        <time>2018-08-21T08:45:24.909Z</time>
      </trkpt>
      <trkpt lat="48.6477639" lon="-2.0100056">
        <ele>6.731</ele>
        <time>2018-08-21T08:45:28.653Z</time>
      </trkpt>
      <trkpt lat="48.6477647" lon="-2.0101518">
        <ele>6.835</ele>
        <time>2018-08-21T08:45:31.828Z</time>
      </trkpt>
      <trkpt lat="48.6477699" lon="-2.0103419">
        <ele>6.752</ele>
        <time>2018-08-21T08:45:35.887Z</time>
      </trkpt>
      <trkpt lat="48.6477897" lon="-2.0105179">
        <ele>6.599</ele>
        <time>2018-08-21T08:45:39.497Z</time>
      </trkpt>
      <trkpt lat="48.6478123" lon="-2.0106896">
        <ele>6.487</ele>
        <time>2018-08-21T08:45:42.829Z</time>
      </trkpt>
      <trkpt lat="48.6478337" lon="-2.0108542">
        <ele>6.444</ele>
        <time>2018-08-21T08:45:45.974Z</time>
      </trkpt>
      <trkpt lat="48.6478779" lon="-2.0110254">
        <ele>6.413</ele>
        <time>2018-08-21T08:45:49.340Z</time>
      </trkpt>
      <trkpt lat="48.6479387" lon="-2.0111943">
        <ele>6.354</ele>
        <time>2018-08-21T08:45:52.730Z</time>
      </trkpt>
      <trkpt lat="48.6479776" lon="-2.0113581">
        <ele>6.334</ele>
        <time>2018-08-21T08:45:55.817Z</time>
      </trkpt>
      <trkpt lat="48.6480107" lon="-2.0115127">
        <ele>6.420</ele>
        <time>2018-08-21T08:45:58.825Z</time>
      </trkpt>
      <trkpt lat="48.6480373" lon="-2.0116727">
        <ele>6.588</ele>
        <time>2018-08-21T08:46:02.215Z</time>
      </trkpt>
      <trkpt lat="48.6480699" lon="-2.0118496">
        <ele>6.806</ele>
        <time>2018-08-21T08:46:06.298Z</time>
      </trkpt>
      <trkpt lat="48.6480773" lon="-2.0120225">
        <ele>7.038</ele>
        <time>2018-08-21T08:46:09.983Z</time>
      </trkpt>
      <trkpt lat="48.6480859" lon="-2.0121836">
        <ele>7.253</ele>
        <time>2018-08-21T08:46:13.125Z</time>
      </trkpt>
      <trkpt lat="48.6481010" lon="-2.0123302">
        <ele>7.437</ele>
        <time>2018-08-21T08:46:16.000Z</time>
      </trkpt>
      <trkpt lat="48.6481010" lon="-2.0123302">
        <ele>7.553</ele>
        <time>2018-08-21T08:46:18.000Z</time>
      </trkpt>
      <trkpt lat="48.6481010" lon="-2.0123302">
        <ele>7.586</ele>
        <time>2018-08-21T08:46:18.100Z</time>
      </trkpt>
      <trkpt lat="48.6481759" lon="-2.0126581">
        <ele>7.559</ele>
        <time>2018-08-21T08:46:25.859Z</time>
      </trkpt>
      <trkpt lat="48.6482241" lon="-2.0128272">
        <ele>7.385</ele>
        <time>2018-08-21T08:46:28.989Z</time>
      </trkpt>
      <trkpt lat="48.6482429" lon="-2.0129834">
        <ele>7.031</ele>
        <time>2018-08-21T08:46:31.689Z</time>
      </trkpt>
      <trkpt lat="48.6482653" lon="-2.0131522">
        <ele>6.631</ele>
        <time>2018-08-21T08:46:34.570Z</time>
      </trkpt>
      <trkpt lat="48.6482993" lon="-2.0133244">
        <ele>6.361</ele>
        <time>2018-08-21T08:46:37.464Z</time>
      </trkpt>
      <trkpt lat="48.6483359" lon="-2.0134539">
        <ele>6.277</ele>
        <time>2018-08-21T08:46:39.669Z</time>
      </trkpt>
      <trkpt lat="48.6483850" lon="-2.0136412">
        <ele>6.311</ele>
        <time>2018-08-21T08:46:42.735Z</time>
      </trkpt>
      <trkpt lat="48.6484303" lon="-2.0138282">
        <ele>6.374</ele>
        <time>2018-08-21T08:46:45.796Z</time>
      </trkpt>
      <trkpt lat="48.6484629" lon="-2.0139556">
        <ele>6.453</ele>
        <time>2018-08-21T08:46:47.932Z</time>
      </trkpt>
      <trkpt lat="48.6484814" lon="-2.0141237">
        <ele>6.534</ele>
        <time>2018-08-21T08:46:50.509Z</time>
      </trkpt>
      <trkpt lat="48.6485679" lon="-2.0142816">
        <ele>6.596</ele>
        <time>2018-08-21T08:46:53.637Z</time>
      </trkpt>
      <trkpt lat="48.6485412" lon="-2.0144194">
        <ele>6.616</ele>
        <time>2018-08-21T08:46:55.888Z</time>
      </trkpt>
      <trkpt lat="48.6485883" lon="-2.0145989">
        <ele>6.575</ele>
        <time>2018-08-21T08:46:58.865Z</time>
      </trkpt>
      <trkpt lat="48.6486923" lon="-2.0148316">
        <ele>6.476</ele>
        <time>2018-08-21T08:47:03.164Z</time>
      </trkpt>
      <trkpt lat="48.6487223" lon="-2.0149803">
        <ele>6.389</ele>
        <time>2018-08-21T08:47:05.703Z</time>
      </trkpt>
      <trkpt lat="48.6487367" lon="-2.0151264">
        <ele>6.365</ele>
        <time>2018-08-21T08:47:08.166Z</time>
      </trkpt>
      <trkpt lat="48.6487620" lon="-2.0152714">
        <ele>6.378</ele>
        <time>2018-08-21T08:47:10.673Z</time>
      </trkpt>
      <trkpt lat="48.6487751" lon="-2.0154218">
        <ele>6.436</ele>
        <time>2018-08-21T08:47:13.220Z</time>
      </trkpt>
      <trkpt lat="48.6487685" lon="-2.0155856">
        <ele>6.686</ele>
        <time>2018-08-21T08:47:15.969Z</time>
      </trkpt>
      <trkpt lat="48.6487655" lon="-2.0157553">
        <ele>7.147</ele>
        <time>2018-08-21T08:47:18.668Z</time>
      </trkpt>
      <trkpt lat="48.6487879" lon="-2.0159465">
        <ele>7.474</ele>
        <time>2018-08-21T08:47:21.530Z</time>
      </trkpt>
      <trkpt lat="48.6488480" lon="-2.0161152">
        <ele>7.417</ele>
        <time>2018-08-21T08:47:24.210Z</time>
      </trkpt>
      <trkpt lat="48.6488545" lon="-2.0162952">
        <ele>7.115</ele>
        <time>2018-08-21T08:47:26.681Z</time>
      </trkpt>
      <trkpt lat="48.6489135" lon="-2.0165173">
        <ele>6.810</ele>
        <time>2018-08-21T08:47:30.103Z</time>
      </trkpt>
      <trkpt lat="48.6489483" lon="-2.0166814">
        <ele>6.652</ele>
        <time>2018-08-21T08:47:32.588Z</time>
      </trkpt>
      <trkpt lat="48.6490101" lon="-2.0168587">
        <ele>6.659</ele>
        <time>2018-08-21T08:47:35.370Z</time>
      </trkpt>
      <trkpt lat="48.6490442" lon="-2.0169974">
        <ele>6.744</ele>
        <time>2018-08-21T08:47:37.469Z</time>
      </trkpt>
      <trkpt lat="48.6490556" lon="-2.0171814">
        <ele>6.818</ele>
        <time>2018-08-21T08:47:40.099Z</time>
      </trkpt>
      <trkpt lat="48.6490760" lon="-2.0174377">
        <ele>6.786</ele>
        <time>2018-08-21T08:47:43.470Z</time>
      </trkpt>
      <trkpt lat="48.6491325" lon="-2.0176549">
        <ele>6.640</ele>
        <time>2018-08-21T08:47:46.493Z</time>
      </trkpt>
      <trkpt lat="48.6491536" lon="-2.0178225">
        <ele>6.581</ele>
        <time>2018-08-21T08:47:48.963Z</time>
      </trkpt>
      <trkpt lat="48.6492087" lon="-2.0179807">
        <ele>6.750</ele>
        <time>2018-08-21T08:47:51.668Z</time>
      </trkpt>
      <trkpt lat="48.6492364" lon="-2.0181672">
        <ele>6.947</ele>
        <time>2018-08-21T08:47:54.630Z</time>
      </trkpt>
      <trkpt lat="48.6492460" lon="-2.0183256">
        <ele>6.959</ele>
        <time>2018-08-21T08:47:57.210Z</time>
      </trkpt>
      <trkpt lat="48.6492974" lon="-2.0184726">
        <ele>6.841</ele>
        <time>2018-08-21T08:48:00.057Z</time>
      </trkpt>
      <trkpt lat="48.6493957" lon="-2.0185563">
        <ele>6.688</ele>
        <time>2018-08-21T08:48:03.112Z</time>
      </trkpt>
      <trkpt lat="48.6494786" lon="-2.0186291">
        <ele>6.583</ele>
        <time>2018-08-21T08:48:05.945Z</time>
      </trkpt>
      <trkpt lat="48.6495360" lon="-2.0187380">
        <ele>6.601</ele>
        <time>2018-08-21T08:48:09.000Z</time>
      </trkpt>
      <trkpt lat="48.6495360" lon="-2.0187380">
        <ele>6.687</ele>
        <time>2018-08-21T08:48:12.000Z</time>
      </trkpt>
      <trkpt lat="48.6495360" lon="-2.0187380">
        <ele>6.732</ele>
        <time>2018-08-21T08:48:28.505Z</time>
      </trkpt>
      <trkpt lat="48.6494267" lon="-2.0189738">
        <ele>6.725</ele>
        <time>2018-08-21T08:48:42.040Z</time>
      </trkpt>
      <trkpt lat="48.6493947" lon="-2.0191164">
        <ele>6.714</ele>
        <time>2018-08-21T08:48:46.055Z</time>
      </trkpt>
      <trkpt lat="48.6494218" lon="-2.0192848">
        <ele>6.737</ele>
        <time>2018-08-21T08:48:50.295Z</time>
      </trkpt>
      <trkpt lat="48.6494556" lon="-2.0194433">
        <ele>6.772</ele>
        <time>2018-08-21T08:48:54.415Z</time>
      </trkpt>
      <trkpt lat="48.6495010" lon="-2.0195858">
        <ele>6.856</ele>
        <time>2018-08-21T08:48:58.415Z</time>
      </trkpt>
      <trkpt lat="48.6495281" lon="-2.0197342">
        <ele>7.064</ele>
        <time>2018-08-21T08:49:02.135Z</time>
      </trkpt>
      <trkpt lat="48.6495628" lon="-2.0198849">
        <ele>7.329</ele>
        <time>2018-08-21T08:49:06.163Z</time>
      </trkpt>
      <trkpt lat="48.6496091" lon="-2.0200145">
        <ele>7.329</ele>
        <time>2018-08-21T08:49:10.303Z</time>
      </trkpt>
      <trkpt lat="48.6496365" lon="-2.0201486">
        <ele>6.925</ele>
        <time>2018-08-21T08:49:14.721Z</time>
      </trkpt>
      <trkpt lat="48.6496710" lon="-2.0202897">
        <ele>6.515</ele>
        <time>2018-08-21T08:49:19.286Z</time>
      </trkpt>
      <trkpt lat="48.6497159" lon="-2.0204324">
        <ele>6.654</ele>
        <time>2018-08-21T08:49:23.466Z</time>
      </trkpt>
      <trkpt lat="48.6497647" lon="-2.0205877">
        <ele>7.426</ele>
        <time>2018-08-21T08:49:27.574Z</time>
      </trkpt>
      <trkpt lat="48.6498078" lon="-2.0207101">
        <ele>8.410</ele>
        <time>2018-08-21T08:49:30.622Z</time>
      </trkpt>
      <trkpt lat="48.6498530" lon="-2.0208351">
        <ele>9.210</ele>
        <time>2018-08-21T08:49:33.613Z</time>
      </trkpt>
      <trkpt lat="48.6499089" lon="-2.0209502">
        <ele>9.744</ele>
        <time>2018-08-21T08:49:36.545Z</time>
      </trkpt>
      <trkpt lat="48.6499813" lon="-2.0210307">
        <ele>9.996</ele>
        <time>2018-08-21T08:49:39.515Z</time>
      </trkpt>
      <trkpt lat="48.6500940" lon="-2.0210609">
        <ele>10.006</ele>
        <time>2018-08-21T08:49:43.502Z</time>
      </trkpt>
      <trkpt lat="48.6501785" lon="-2.0211129">
        <ele>9.627</ele>
        <time>2018-08-21T08:49:47.079Z</time>
      </trkpt>
      <trkpt lat="48.6502436" lon="-2.0212175">
        <ele>8.655</ele>
        <time>2018-08-21T08:49:51.253Z</time>
      </trkpt>
      <trkpt lat="48.6502805" lon="-2.0213427">
        <ele>7.486</ele>
        <time>2018-08-21T08:49:55.830Z</time>
      </trkpt>
      <trkpt lat="48.6503228" lon="-2.0214642">
        <ele>6.804</ele>
        <time>2018-08-21T08:50:00.351Z</time>
      </trkpt>
      <trkpt lat="48.6503592" lon="-2.0216040">
        <ele>6.729</ele>
        <time>2018-08-21T08:50:04.684Z</time>
      </trkpt>
      <trkpt lat="48.6503977" lon="-2.0217440">
        <ele>6.923</ele>
        <time>2018-08-21T08:50:08.650Z</time>
      </trkpt>
      <trkpt lat="48.6504377" lon="-2.0218968">
        <ele>7.276</ele>
        <time>2018-08-21T08:50:12.728Z</time>
      </trkpt>
      <trkpt lat="48.6504660" lon="-2.0220502">
        <ele>7.830</ele>
        <time>2018-08-21T08:50:16.594Z</time>
      </trkpt>
      <trkpt lat="48.6505078" lon="-2.0221953">
        <ele>8.331</ele>
        <time>2018-08-21T08:50:20.499Z</time>
      </trkpt>
      <trkpt lat="48.6505655" lon="-2.0223002">
        <ele>8.687</ele>
        <time>2018-08-21T08:50:24.095Z</time>
      </trkpt>
      <trkpt lat="48.6506331" lon="-2.0224262">
        <ele>9.066</ele>
        <time>2018-08-21T08:50:28.648Z</time>
      </trkpt>
      <trkpt lat="48.6506864" lon="-2.0225696">
        <ele>9.522</ele>
        <time>2018-08-21T08:50:33.377Z</time>
      </trkpt>
      <trkpt lat="48.6506470" lon="-2.0227060">
        <ele>10.006</ele>
        <time>2018-08-21T08:50:39.019Z</time>
      </trkpt>
      <trkpt lat="48.6505525" lon="-2.0227608">
        <ele>10.293</ele>
        <time>2018-08-21T08:50:45.661Z</time>
      </trkpt>
      <trkpt lat="48.6504506" lon="-2.0227681">
        <ele>10.155</ele>
        <time>2018-08-21T08:50:53.868Z</time>
      </trkpt>
      <trkpt lat="48.6504179" lon="-2.0226410">
        <ele>10.108</ele>
        <time>2018-08-21T08:50:59.035Z</time>
      </trkpt>
      <trkpt lat="48.6503256" lon="-2.0226430">
        <ele>10.101</ele>
        <time>2018-08-21T08:51:04.199Z</time>
      </trkpt>
      <trkpt lat="48.6502540" lon="-2.0227657">
        <ele>10.038</ele>
        <time>2018-08-21T08:51:10.487Z</time>
      </trkpt>
      <trkpt lat="48.6501525" lon="-2.0228579">
        <ele>9.954</ele>
        <time>2018-08-21T08:51:16.000Z</time>
      </trkpt>
      <trkpt lat="48.6501525" lon="-2.0228579">
        <ele>9.913</ele>
        <time>2018-08-21T08:51:18.000Z</time>
      </trkpt>
      <trkpt lat="48.6501525" lon="-2.0228579">
        <ele>9.907</ele>
        <time>2018-08-21T08:51:18.100Z</time>
      </trkpt>
      <trkpt lat="48.6499685" lon="-2.0230415">
        <ele>9.908</ele>
        <time>2018-08-21T08:51:25.460Z</time>
      </trkpt>
      <trkpt lat="48.6498597" lon="-2.0231530">
        <ele>9.537</ele>
        <time>2018-08-21T08:51:28.290Z</time>
      </trkpt>
      <trkpt lat="48.6497342" lon="-2.0232491">
        <ele>8.576</ele>
        <time>2018-08-21T08:51:31.257Z</time>
      </trkpt>
      <trkpt lat="48.6496104" lon="-2.0233285">
        <ele>7.637</ele>
        <time>2018-08-21T08:51:34.174Z</time>
      </trkpt>
      <trkpt lat="48.6494851" lon="-2.0233916">
        <ele>7.291</ele>
        <time>2018-08-21T08:51:37.150Z</time>
      </trkpt>
      <trkpt lat="48.6493718" lon="-2.0234837">
        <ele>7.321</ele>
        <time>2018-08-21T08:51:40.431Z</time>
      </trkpt>
      <trkpt lat="48.6492770" lon="-2.0235466">
        <ele>7.326</ele>
        <time>2018-08-21T08:51:43.455Z</time>
      </trkpt>
      <trkpt lat="48.6491877" lon="-2.0236032">
        <ele>7.094</ele>
        <time>2018-08-21T08:51:46.423Z</time>
      </trkpt>
      <trkpt lat="48.6490710" lon="-2.0236546">
        <ele>6.526</ele>
        <time>2018-08-21T08:51:50.189Z</time>
      </trkpt>
      <trkpt lat="48.6489753" lon="-2.0236816">
        <ele>5.672</ele>
        <time>2018-08-21T08:51:53.259Z</time>
      </trkpt>
      <trkpt lat="48.6488798" lon="-2.0236627">
        <ele>4.864</ele>
        <time>2018-08-21T08:51:56.135Z</time>
      </trkpt>
      <trkpt lat="48.6487652" lon="-2.0236493">
        <ele>4.426</ele>
        <time>2018-08-21T08:51:59.220Z</time>
      </trkpt>
      <trkpt lat="48.6486491" lon="-2.0236243">
        <ele>4.498</ele>
        <time>2018-08-21T08:52:02.216Z</time>
      </trkpt>
      <trkpt lat="48.6485343" lon="-2.0236299">
        <ele>5.049</ele>
        <time>2018-08-21T08:52:05.020Z</time>
      </trkpt>
      <trkpt lat="48.6484107" lon="-2.0236315">
        <ele>5.712</ele>
        <time>2018-08-21T08:52:08.039Z</time>
      </trkpt>
      <trkpt lat="48.6483018" lon="-2.0236316">
        <ele>6.082</ele>
        <time>2018-08-21T08:52:10.604Z</time>
      </trkpt>
      <trkpt lat="48.6481732" lon="-2.0236436">
        <ele>6.120</ele>
        <time>2018-08-21T08:52:13.560Z</time>
      </trkpt>
      <trkpt lat="48.6480589" lon="-2.0236555">
        <ele>6.003</ele>
        <time>2018-08-21T08:52:16.339Z</time>
      </trkpt>
      <trkpt lat="48.6479506" lon="-2.0236573">
        <ele>5.944</ele>
        <time>2018-08-21T08:52:19.188Z</time>
      </trkpt>
      <trkpt lat="48.6478517" lon="-2.0236601">
        <ele>6.023</ele>
        <time>2018-08-21T08:52:21.964Z</time>
      </trkpt>
      <trkpt lat="48.6477560" lon="-2.0236657">
        <ele>6.107</ele>
        <time>2018-08-21T08:52:24.657Z</time>
      </trkpt>
      <trkpt lat="48.6476461" lon="-2.0236576">
        <ele>6.073</ele>
        <time>2018-08-21T08:52:27.622Z</time>
      </trkpt>
      <trkpt lat="48.6475300" lon="-2.0236462">
        <ele>5.995</ele>
        <time>2018-08-21T08:52:30.683Z</time>
      </trkpt>
      <trkpt lat="48.6474172" lon="-2.0236325">
        <ele>6.040</ele>
        <time>2018-08-21T08:52:33.624Z</time>
      </trkpt>
      <trkpt lat="48.6472904" lon="-2.0236183">
        <ele>6.302</ele>
        <time>2018-08-21T08:52:36.813Z</time>
      </trkpt>
      <trkpt lat="48.6471628" lon="-2.0236034">
        <ele>6.683</ele>
        <time>2018-08-21T08:52:40.024Z</time>
      </trkpt>
      <trkpt lat="48.6470506" lon="-2.0235937">
        <ele>7.041</ele>
        <time>2018-08-21T08:52:42.992Z</time>
      </trkpt>
      <trkpt lat="48.6469395" lon="-2.0235870">
        <ele>7.548</ele>
        <time>2018-08-21T08:52:46.002Z</time>
      </trkpt>
      <trkpt lat="48.6468275" lon="-2.0235714">
        <ele>8.398</ele>
        <time>2018-08-21T08:52:48.970Z</time>
      </trkpt>
      <trkpt lat="48.6467152" lon="-2.0235595">
        <ele>9.381</ele>
        <time>2018-08-21T08:52:51.833Z</time>
      </trkpt>
      <trkpt lat="48.6465997" lon="-2.0235449">
        <ele>10.118</ele>
        <time>2018-08-21T08:52:54.737Z</time>
      </trkpt>
      <trkpt lat="48.6464906" lon="-2.0235302">
        <ele>10.450</ele>
        <time>2018-08-21T08:52:57.604Z</time>
      </trkpt>
      <trkpt lat="48.6464006" lon="-2.0235264">
        <ele>10.392</ele>
        <time>2018-08-21T08:53:00.399Z</time>
      </trkpt>
      <trkpt lat="48.6463753" lon="-2.0236720">
        <ele>10.006</ele>
        <time>2018-08-21T08:53:04.000Z</time>
      </trkpt>
      <trkpt lat="48.6463753" lon="-2.0236720">
        <ele>9.468</ele>
        <time>2018-08-21T08:53:06.000Z</time>
      </trkpt>
      <trkpt lat="48.6463753" lon="-2.0236720">
        <ele>9.131</ele>
        <time>2018-08-21T08:53:06.100Z</time>
      </trkpt>
      <trkpt lat="48.6463741" lon="-2.0239976">
        <ele>9.146</ele>
        <time>2018-08-21T08:53:14.587Z</time>
      </trkpt>
      <trkpt lat="48.6463621" lon="-2.0241361">
        <ele>9.232</ele>
        <time>2018-08-21T08:53:16.982Z</time>
      </trkpt>
      <trkpt lat="48.6463509" lon="-2.0243053">
        <ele>9.121</ele>
        <time>2018-08-21T08:53:19.719Z</time>
      </trkpt>
      <trkpt lat="48.6463427" lon="-2.0244724">
        <ele>8.813</ele>
        <time>2018-08-21T08:53:22.330Z</time>
      </trkpt>
      <trkpt lat="48.6463354" lon="-2.0246443">
        <ele>8.394</ele>
        <time>2018-08-21T08:53:24.966Z</time>
      </trkpt>
      <trkpt lat="48.6463207" lon="-2.0247982">
        <ele>7.938</ele>
        <time>2018-08-21T08:53:27.404Z</time>
      </trkpt>
      <trkpt lat="48.6462855" lon="-2.0249512">
        <ele>7.554</ele>
        <time>2018-08-21T08:53:30.000Z</time>
      </trkpt>
      <trkpt lat="48.6462855" lon="-2.0249512">
        <ele>7.330</ele>
        <time>2018-08-21T08:53:31.000Z</time>
      </trkpt>
      <trkpt lat="48.6462855" lon="-2.0249512">
        <ele>7.270</ele>
        <time>2018-08-21T08:53:31.100Z</time>
      </trkpt>
      <trkpt lat="48.6462289" lon="-2.0251908">
        <ele>7.285</ele>
        <time>2018-08-21T08:53:38.845Z</time>
      </trkpt>
      <trkpt lat="48.6462112" lon="-2.0253644">
        <ele>7.240</ele>
        <time>2018-08-21T08:53:42.412Z</time>
      </trkpt>
      <trkpt lat="48.6461733" lon="-2.0255089">
        <ele>7.061</ele>
        <time>2018-08-21T08:53:45.717Z</time>
      </trkpt>
      <trkpt lat="48.6461461" lon="-2.0256650">
        <ele>6.814</ele>
        <time>2018-08-21T08:53:49.427Z</time>
      </trkpt>
      <trkpt lat="48.6461134" lon="-2.0257945">
        <ele>6.549</ele>
        <time>2018-08-21T08:53:53.000Z</time>
      </trkpt>
      <trkpt lat="48.6461134" lon="-2.0257945">
        <ele>6.271</ele>
        <time>2018-08-21T08:54:03.000Z</time>
      </trkpt>
      <trkpt lat="48.6368226" lon="-2.0464702">
        <ele>4.491</ele>
        <time>2018-08-21T09:30:54.000Z</time>
      </trkpt>
      <trkpt lat="48.6368226" lon="-2.0464702">
        <ele>4.489</ele>
        <time>2018-08-21T09:31:19.000Z</time>
      </trkpt>
      <trkpt lat="48.6368226" lon="-2.0464702">
        <ele>4.488</ele>
        <time>2018-08-21T09:31:19.100Z</time>
      </trkpt>
      <trkpt lat="48.6367868" lon="-2.0466355">
        <ele>4.485</ele>
        <time>2018-08-21T09:31:31.599Z</time>
      </trkpt>
      <trkpt lat="48.6367351" lon="-2.0467653">
        <ele>4.068</ele>
        <time>2018-08-21T09:31:39.184Z</time>
      </trkpt>
      <trkpt lat="48.6366715" lon="-2.0468794">
        <ele>2.965</ele>
        <time>2018-08-21T09:31:46.044Z</time>
      </trkpt>
      <trkpt lat="48.6366029" lon="-2.0469699">
        <ele>1.728</ele>
        <time>2018-08-21T09:31:52.000Z</time>
      </trkpt>
      <trkpt lat="48.6366029" lon="-2.0469699">
        <ele>0.954</ele>
        <time>2018-08-21T09:31:54.000Z</time>
      </trkpt>
      <trkpt lat="48.6366029" lon="-2.0469699">
        <ele>0.671</ele>
        <time>2018-08-21T09:31:59.630Z</time>
      </trkpt>
      <trkpt lat="48.6366732" lon="-2.0468834">
        <ele>0.857</ele>
        <time>2018-08-21T09:32:22.433Z</time>
      </trkpt>
      <trkpt lat="48.6367251" lon="-2.0467522">
        <ele>0.774</ele>
        <time>2018-08-21T09:32:39.000Z</time>
      </trkpt>
      <trkpt lat="48.6367251" lon="-2.0467522">
        <ele>0.352</ele>
        <time>2018-08-21T09:32:48.000Z</time>
      </trkpt>
      <trkpt lat="48.6367251" lon="-2.0467522">
        <ele>0.000</ele>
        <time>2018-08-21T09:35:30.254Z</time>
      </trkpt>
      <trkpt lat="48.6367037" lon="-2.0468856">
        <ele>0.178</ele>
        <time>2018-08-21T09:35:50.581Z</time>
      </trkpt>
      <trkpt lat="48.6366482" lon="-2.0470012">
        <ele>0.278</ele>
        <time>2018-08-21T09:36:00.740Z</time>
      </trkpt>
      <trkpt lat="48.6365741" lon="-2.0470809">
        <ele>0.164</ele>
        <time>2018-08-21T09:36:10.000Z</time>
      </trkpt>
      <trkpt lat="48.6365741" lon="-2.0470809">
        <ele>0.000</ele>
        <time>2018-08-21T09:36:11.000Z</time>
      </trkpt>
      <trkpt lat="48.6365741" lon="-2.0470809">
        <ele>0.000</ele>
        <time>2018-08-21T09:36:43.139Z</time>
      </trkpt>
      <trkpt lat="48.6364867" lon="-2.0471175">
        <ele>0.000</ele>
        <time>2018-08-21T09:36:57.128Z</time>
      </trkpt>
      <trkpt lat="48.6363993" lon="-2.0471512">
        <ele>0.000</ele>
        <time>2018-08-21T09:37:05.779Z</time>
      </trkpt>
      <trkpt lat="48.6363032" lon="-2.0471595">
        <ele>0.036</ele>
        <time>2018-08-21T09:37:14.320Z</time>
      </trkpt>
      <trkpt lat="48.6362153" lon="-2.0472227">
        <ele>0.009</ele>
        <time>2018-08-21T09:37:22.544Z</time>
      </trkpt>
      <trkpt lat="48.6361314" lon="-2.0472725">
        <ele>0.000</ele>
        <time>2018-08-21T09:37:29.980Z</time>
      </trkpt>
      <trkpt lat="48.6360486" lon="-2.0473525">
        <ele>0.000</ele>
        <time>2018-08-21T09:37:38.147Z</time>
      </trkpt>
      <trkpt lat="48.6359827" lon="-2.0474488">
        <ele>0.000</ele>
        <time>2018-08-21T09:37:46.352Z</time>
      </trkpt>
      <trkpt lat="48.6359803" lon="-2.0475963">
        <ele>0.000</ele>
        <time>2018-08-21T09:37:57.012Z</time>
      </trkpt>
      <trkpt lat="48.6360768" lon="-2.0476191">
        <ele>0.000</ele>
        <time>2018-08-21T09:38:07.000Z</time>
      </trkpt>
      <trkpt lat="48.6360768" lon="-2.0476191">
        <ele>0.000</ele>
        <time>2018-08-21T09:38:11.000Z</time>
      </trkpt>
      <trkpt lat="48.6360768" lon="-2.0476191">
        <ele>0.000</ele>
        <time>2018-08-21T09:38:13.985Z</time>
      </trkpt>
      <trkpt lat="48.6361685" lon="-2.0476212">
        <ele>0.000</ele>
        <time>2018-08-21T09:38:44.771Z</time>
      </trkpt>
      <trkpt lat="48.6362576" lon="-2.0475798">
        <ele>0.283</ele>
        <time>2018-08-21T09:38:57.529Z</time>
      </trkpt>
      <trkpt lat="48.6363477" lon="-2.0475539">
        <ele>0.770</ele>
        <time>2018-08-21T09:39:07.632Z</time>
      </trkpt>
      <trkpt lat="48.6364065" lon="-2.0474387">
        <ele>1.406</ele>
        <time>2018-08-21T09:39:17.805Z</time>
      </trkpt>
      <trkpt lat="48.6364927" lon="-2.0473794">
        <ele>2.306</ele>
        <time>2018-08-21T09:39:28.000Z</time>
      </trkpt>
      <trkpt lat="48.6364927" lon="-2.0473794">
        <ele>3.689</ele>
        <time>2018-08-21T09:39:40.000Z</time>
      </trkpt>
      <trkpt lat="48.6364927" lon="-2.0473794">
        <ele>4.724</ele>
        <time>2018-08-21T09:39:43.250Z</time>
      </trkpt>
      <trkpt lat="48.6363347" lon="-2.0475329">
        <ele>4.691</ele>
        <time>2018-08-21T09:39:56.558Z</time>
      </trkpt>
      <trkpt lat="48.6362522" lon="-2.0475954">
        <ele>4.377</ele>
        <time>2018-08-21T09:40:00.005Z</time>
      </trkpt>
      <trkpt lat="48.6361631" lon="-2.0476761">
        <ele>4.580</ele>
        <time>2018-08-21T09:40:03.673Z</time>
      </trkpt>
      <trkpt lat="48.6360698" lon="-2.0477337">
        <ele>5.042</ele>
        <time>2018-08-21T09:40:07.000Z</time>
      </trkpt>
      <trkpt lat="48.6360698" lon="-2.0477337">
        <ele>5.286</ele>
        <time>2018-08-21T09:40:11.000Z</time>
      </trkpt>
      <trkpt lat="48.6360698" lon="-2.0477337">
        <ele>5.278</ele>
        <time>2018-08-21T09:40:11.100Z</time>
      </trkpt>
      <trkpt lat="48.6359526" lon="-2.0478971">
        <ele>5.168</ele>
        <time>2018-08-21T09:40:23.512Z</time>
      </trkpt>
      <trkpt lat="48.6359962" lon="-2.0480336">
        <ele>4.880</ele>
        <time>2018-08-21T09:40:28.784Z</time>
      </trkpt>
      <trkpt lat="48.6360808" lon="-2.0481567">
        <ele>4.328</ele>
        <time>2018-08-21T09:40:33.664Z</time>
      </trkpt>
      <trkpt lat="48.6361352" lon="-2.0482874">
        <ele>3.813</ele>
        <time>2018-08-21T09:40:38.083Z</time>
      </trkpt>
      <trkpt lat="48.6361683" lon="-2.0484366">
        <ele>3.620</ele>
        <time>2018-08-21T09:40:43.935Z</time>
      </trkpt>
      <trkpt lat="48.6362278" lon="-2.0485504">
        <ele>3.821</ele>
        <time>2018-08-21T09:40:53.205Z</time>
      </trkpt>
      <trkpt lat="48.6362716" lon="-2.0486726">
        <ele>4.442</ele>
        <time>2018-08-21T09:41:02.887Z</time>
      </trkpt>
      <trkpt lat="48.6362046" lon="-2.0487811">
        <ele>5.355</ele>
        <time>2018-08-21T09:41:13.231Z</time>
      </trkpt>
      <trkpt lat="48.6361753" lon="-2.0489147">
        <ele>6.333</ele>
        <time>2018-08-21T09:41:26.000Z</time>
      </trkpt>
      <trkpt lat="48.6361753" lon="-2.0489147">
        <ele>7.121</ele>
        <time>2018-08-21T09:41:31.000Z</time>
      </trkpt>
      <trkpt lat="48.6361753" lon="-2.0489147">
        <ele>7.474</ele>
        <time>2018-08-21T09:41:31.100Z</time>
      </trkpt>
      <trkpt lat="48.6362520" lon="-2.0490095">
        <ele>7.320</ele>
        <time>2018-08-21T09:41:51.565Z</time>
      </trkpt>
      <trkpt lat="48.6362213" lon="-2.0491409">
        <ele>6.908</ele>
        <time>2018-08-21T09:42:04.487Z</time>
      </trkpt>
      <trkpt lat="48.6361214" lon="-2.0491613">
        <ele>6.630</ele>
        <time>2018-08-21T09:42:16.434Z</time>
      </trkpt>
      <trkpt lat="48.6360315" lon="-2.0491616">
        <ele>6.855</ele>
        <time>2018-08-21T09:42:26.186Z</time>
      </trkpt>
      <trkpt lat="48.6359339" lon="-2.0491740">
        <ele>7.727</ele>
        <time>2018-08-21T09:42:36.506Z</time>
      </trkpt>
      <trkpt lat="48.6358458" lon="-2.0491473">
        <ele>8.936</ele>
        <time>2018-08-21T09:42:45.132Z</time>
      </trkpt>
      <trkpt lat="48.6357548" lon="-2.0490762">
        <ele>9.926</ele>
        <time>2018-08-21T09:42:55.154Z</time>
      </trkpt>
      <trkpt lat="48.6356733" lon="-2.0490026">
        <ele>10.422</ele>
        <time>2018-08-21T09:43:04.645Z</time>
      </trkpt>
      <trkpt lat="48.6355808" lon="-2.0490245">
        <ele>10.452</ele>
        <time>2018-08-21T09:43:14.252Z</time>
      </trkpt>
      <trkpt lat="48.6354802" lon="-2.0490386">
        <ele>10.238</ele>
        <time>2018-08-21T09:43:27.191Z</time>
      </trkpt>
      <trkpt lat="48.6353893" lon="-2.0489821">
        <ele>10.014</ele>
        <time>2018-08-21T09:43:37.122Z</time>
      </trkpt>
      <trkpt lat="48.6353120" lon="-2.0489036">
        <ele>9.939</ele>
        <time>2018-08-21T09:43:45.169Z</time>
      </trkpt>
      <trkpt lat="48.6352180" lon="-2.0489505">
        <ele>10.056</ele>
        <time>2018-08-21T09:43:54.471Z</time>
      </trkpt>
      <trkpt lat="48.6351427" lon="-2.0490271">
        <ele>10.451</ele>
        <time>2018-08-21T09:44:03.046Z</time>
      </trkpt>
      <trkpt lat="48.6350645" lon="-2.0490975">
        <ele>11.174</ele>
        <time>2018-08-21T09:44:11.000Z</time>
      </trkpt>
      <trkpt lat="48.6349759" lon="-2.0491207">
        <ele>12.141</ele>
        <time>2018-08-21T09:44:20.000Z</time>
      </trkpt>
      <trkpt lat="48.6349759" lon="-2.0491207">
        <ele>13.097</ele>
        <time>2018-08-21T09:44:24.000Z</time>
      </trkpt>
      <trkpt lat="48.6349759" lon="-2.0491207">
        <ele>13.628</ele>
        <time>2018-08-21T09:44:28.957Z</time>
      </trkpt>
      <trkpt lat="48.6349017" lon="-2.0492147">
        <ele>13.302</ele>
        <time>2018-08-21T09:44:40.000Z</time>
      </trkpt>
      <trkpt lat="48.6349017" lon="-2.0492147">
        <ele>13.133</ele>
        <time>2018-08-21T09:44:47.000Z</time>
      </trkpt>
      <trkpt lat="48.6349017" lon="-2.0492147">
        <ele>13.139</ele>
        <time>2018-08-21T09:44:47.100Z</time>
      </trkpt>
      <trkpt lat="48.6346608" lon="-2.0493412">
        <ele>13.219</ele>
        <time>2018-08-21T09:45:08.509Z</time>
      </trkpt>
      <trkpt lat="48.6345828" lon="-2.0494366">
        <ele>13.611</ele>
        <time>2018-08-21T09:45:14.018Z</time>
      </trkpt>
      <trkpt lat="48.6345261" lon="-2.0495721">
        <ele>14.498</ele>
        <time>2018-08-21T09:45:20.193Z</time>
      </trkpt>
      <trkpt lat="48.6345197" lon="-2.0497102">
        <ele>15.303</ele>
        <time>2018-08-21T09:45:24.810Z</time>
      </trkpt>
      <trkpt lat="48.6344865" lon="-2.0498610">
        <ele>15.478</ele>
        <time>2018-08-21T09:45:29.617Z</time>
      </trkpt>
      <trkpt lat="48.6344501" lon="-2.0500163">
        <ele>15.254</ele>
        <time>2018-08-21T09:45:34.300Z</time>
      </trkpt>
      <trkpt lat="48.6343832" lon="-2.0501551">
        <ele>15.131</ele>
        <time>2018-08-21T09:45:38.280Z</time>
      </trkpt>
      <trkpt lat="48.6343301" lon="-2.0502892">
        <ele>15.326</ele>
        <time>2018-08-21T09:45:41.407Z</time>
      </trkpt>
      <trkpt lat="48.6342753" lon="-2.0504015">
        <ele>15.608</ele>
        <time>2018-08-21T09:45:44.180Z</time>
      </trkpt>
      <trkpt lat="48.6342457" lon="-2.0505421">
        <ele>15.674</ele>
        <time>2018-08-21T09:45:47.850Z</time>
      </trkpt>
      <trkpt lat="48.6341525" lon="-2.0506314">
        <ele>15.575</ele>
        <time>2018-08-21T09:45:52.000Z</time>
      </trkpt>
      <trkpt lat="48.6341525" lon="-2.0506314">
        <ele>15.518</ele>
        <time>2018-08-21T09:45:52.000Z</time>
      </trkpt>
      <trkpt lat="48.6341525" lon="-2.0506314">
        <ele>15.535</ele>
        <time>2018-08-21T09:45:52.100Z</time>
      </trkpt>
      <trkpt lat="48.6339700" lon="-2.0507472">
        <ele>15.552</ele>
        <time>2018-08-21T09:46:05.364Z</time>
      </trkpt>
      <trkpt lat="48.6338942" lon="-2.0508354">
        <ele>15.846</ele>
        <time>2018-08-21T09:46:08.728Z</time>
      </trkpt>
      <trkpt lat="48.6337953" lon="-2.0509406">
        <ele>16.592</ele>
        <time>2018-08-21T09:46:12.499Z</time>
      </trkpt>
      <trkpt lat="48.6336888" lon="-2.0510449">
        <ele>17.320</ele>
        <time>2018-08-21T09:46:16.411Z</time>
      </trkpt>
      <trkpt lat="48.6335875" lon="-2.0511337">
        <ele>17.570</ele>
        <time>2018-08-21T09:46:19.485Z</time>
      </trkpt>
      <trkpt lat="48.6334874" lon="-2.0512104">
        <ele>17.480</ele>
        <time>2018-08-21T09:46:21.828Z</time>
      </trkpt>
      <trkpt lat="48.6333617" lon="-2.0513069">
        <ele>17.399</ele>
        <time>2018-08-21T09:46:24.789Z</time>
      </trkpt>
      <trkpt lat="48.6332067" lon="-2.0513999">
        <ele>17.558</ele>
        <time>2018-08-21T09:46:28.940Z</time>
      </trkpt>
      <trkpt lat="48.6331222" lon="-2.0514938">
        <ele>17.899</ele>
        <time>2018-08-21T09:46:31.841Z</time>
      </trkpt>
      <trkpt lat="48.6330136" lon="-2.0515106">
        <ele>18.247</ele>
        <time>2018-08-21T09:46:34.839Z</time>
      </trkpt>
      <trkpt lat="48.6329191" lon="-2.0515141">
        <ele>18.543</ele>
        <time>2018-08-21T09:46:37.468Z</time>
      </trkpt>
      <trkpt lat="48.6328149" lon="-2.0515171">
        <ele>18.788</ele>
        <time>2018-08-21T09:46:40.407Z</time>
      </trkpt>
      <trkpt lat="48.6327124" lon="-2.0514975">
        <ele>18.969</ele>
        <time>2018-08-21T09:46:43.178Z</time>
      </trkpt>
      <trkpt lat="48.6326213" lon="-2.0514795">
        <ele>19.077</ele>
        <time>2018-08-21T09:46:45.495Z</time>
      </trkpt>
      <trkpt lat="48.6325204" lon="-2.0514725">
        <ele>19.070</ele>
        <time>2018-08-21T09:46:48.079Z</time>
      </trkpt>
      <trkpt lat="48.6324079" lon="-2.0514814">
        <ele>18.795</ele>
        <time>2018-08-21T09:46:51.128Z</time>
      </trkpt>
      <trkpt lat="48.6323101" lon="-2.0515130">
        <ele>18.136</ele>
        <time>2018-08-21T09:46:53.851Z</time>
      </trkpt>
      <trkpt lat="48.6322134" lon="-2.0515845">
        <ele>17.150</ele>
        <time>2018-08-21T09:46:56.571Z</time>
      </trkpt>
      <trkpt lat="48.6321069" lon="-2.0516973">
        <ele>15.975</ele>
        <time>2018-08-21T09:46:59.368Z</time>
      </trkpt>
      <trkpt lat="48.6320420" lon="-2.0518094">
        <ele>14.891</ele>
        <time>2018-08-21T09:47:01.345Z</time>
      </trkpt>
      <trkpt lat="48.6318995" lon="-2.0520567">
        <ele>14.307</ele>
        <time>2018-08-21T09:47:05.418Z</time>
      </trkpt>
      <trkpt lat="48.6317533" lon="-2.0522302">
        <ele>14.347</ele>
        <time>2018-08-21T09:47:09.193Z</time>
      </trkpt>
      <trkpt lat="48.6316773" lon="-2.0523644">
        <ele>14.697</ele>
        <time>2018-08-21T09:47:11.708Z</time>
      </trkpt>
      <trkpt lat="48.6315665" lon="-2.0524102">
        <ele>14.891</ele>
        <time>2018-08-21T09:47:14.073Z</time>
      </trkpt>
      <trkpt lat="48.6314026" lon="-2.0524083">
        <ele>14.710</ele>
        <time>2018-08-21T09:47:17.009Z</time>
      </trkpt>
      <trkpt lat="48.6312552" lon="-2.0525404">
        <ele>14.139</ele>
        <time>2018-08-21T09:47:19.823Z</time>
      </trkpt>
      <trkpt lat="48.6310742" lon="-2.0526210">
        <ele>13.119</ele>
        <time>2018-08-21T09:47:23.119Z</time>
      </trkpt>
      <trkpt lat="48.6309380" lon="-2.0527054">
        <ele>11.840</ele>
        <time>2018-08-21T09:47:25.829Z</time>
      </trkpt>
      <trkpt lat="48.6308233" lon="-2.0527481">
        <ele>10.816</ele>
        <time>2018-08-21T09:47:28.775Z</time>
      </trkpt>
      <trkpt lat="48.6307221" lon="-2.0528399">
        <ele>10.188</ele>
        <time>2018-08-21T09:47:32.256Z</time>
      </trkpt>
      <trkpt lat="48.6306147" lon="-2.0529479">
        <ele>9.763</ele>
        <time>2018-08-21T09:47:37.213Z</time>
      </trkpt>
      <trkpt lat="48.6305286" lon="-2.0530292">
        <ele>9.535</ele>
        <time>2018-08-21T09:47:41.810Z</time>
      </trkpt>
      <trkpt lat="48.6304423" lon="-2.0530836">
        <ele>9.639</ele>
        <time>2018-08-21T09:47:45.896Z</time>
      </trkpt>
      <trkpt lat="48.6303421" lon="-2.0531487">
        <ele>10.031</ele>
        <time>2018-08-21T09:47:50.213Z</time>
      </trkpt>
      <trkpt lat="48.6302672" lon="-2.0532498">
        <ele>10.536</ele>
        <time>2018-08-21T09:47:53.778Z</time>
      </trkpt>
      <trkpt lat="48.6301832" lon="-2.0533682">
        <ele>11.465</ele>
        <time>2018-08-21T09:47:57.505Z</time>
      </trkpt>
      <trkpt lat="48.6301312" lon="-2.0534841">
        <ele>12.223</ele>
        <time>2018-08-21T09:48:00.419Z</time>
      </trkpt>
      <trkpt lat="48.6300815" lon="-2.0536049">
        <ele>13.004</ele>
        <time>2018-08-21T09:48:03.342Z</time>
      </trkpt>
      <trkpt lat="48.6300337" lon="-2.0537754">
        <ele>13.569</ele>
        <time>2018-08-21T09:48:06.936Z</time>
      </trkpt>
      <trkpt lat="48.6299601" lon="-2.0539076">
        <ele>13.575</ele>
        <time>2018-08-21T09:48:10.234Z</time>
      </trkpt>
      <trkpt lat="48.6298900" lon="-2.0540544">
        <ele>13.561</ele>
        <time>2018-08-21T09:48:13.883Z</time>
      </trkpt>
      <trkpt lat="48.6298015" lon="-2.0541321">
        <ele>13.612</ele>
        <time>2018-08-21T09:48:17.104Z</time>
      </trkpt>
      <trkpt lat="48.6297043" lon="-2.0541452">
        <ele>13.737</ele>
        <time>2018-08-21T09:48:20.287Z</time>
      </trkpt>
      <trkpt lat="48.6296190" lon="-2.0541942">
        <ele>13.843</ele>
        <time>2018-08-21T09:48:23.410Z</time>
      </trkpt>
      <trkpt lat="48.6295281" lon="-2.0542491">
        <ele>13.882</ele>
        <time>2018-08-21T09:48:26.989Z</time>
      </trkpt>
      <trkpt lat="48.6294295" lon="-2.0543012">
        <ele>13.902</ele>
        <time>2018-08-21T09:48:31.015Z</time>
      </trkpt>
      <trkpt lat="48.6293336" lon="-2.0543653">
        <ele>13.976</ele>
        <time>2018-08-21T09:48:34.977Z</time>
      </trkpt>
      <trkpt lat="48.6292428" lon="-2.0544500">
        <ele>14.176</ele>
        <time>2018-08-21T09:48:38.522Z</time>
      </trkpt>
      <trkpt lat="48.6291609" lon="-2.0545386">
        <ele>14.429</ele>
        <time>2018-08-21T09:48:41.779Z</time>
      </trkpt>
      <trkpt lat="48.6290714" lon="-2.0545973">
        <ele>14.601</ele>
        <time>2018-08-21T09:48:45.011Z</time>
      </trkpt>
      <trkpt lat="48.6289656" lon="-2.0546413">
        <ele>14.888</ele>
        <time>2018-08-21T09:48:48.742Z</time>
      </trkpt>
      <trkpt lat="48.6288622" lon="-2.0547107">
        <ele>15.485</ele>
        <time>2018-08-21T09:48:52.606Z</time>
      </trkpt>
      <trkpt lat="48.6287722" lon="-2.0547536">
        <ele>16.209</ele>
        <time>2018-08-21T09:48:55.728Z</time>
      </trkpt>
      <trkpt lat="48.6286741" lon="-2.0548257">
        <ele>16.836</ele>
        <time>2018-08-21T09:48:59.289Z</time>
      </trkpt>
      <trkpt lat="48.6285661" lon="-2.0549000">
        <ele>17.259</ele>
        <time>2018-08-21T09:49:03.119Z</time>
      </trkpt>
      <trkpt lat="48.6284862" lon="-2.0549647">
        <ele>17.435</ele>
        <time>2018-08-21T09:49:05.974Z</time>
      </trkpt>
      <trkpt lat="48.6283954" lon="-2.0550041">
        <ele>17.457</ele>
        <time>2018-08-21T09:49:08.950Z</time>
      </trkpt>
      <trkpt lat="48.6282920" lon="-2.0550547">
        <ele>17.446</ele>
        <time>2018-08-21T09:49:12.603Z</time>
      </trkpt>
      <trkpt lat="48.6281984" lon="-2.0551391">
        <ele>17.465</ele>
        <time>2018-08-21T09:49:16.575Z</time>
      </trkpt>
      <trkpt lat="48.6281119" lon="-2.0552202">
        <ele>17.476</ele>
        <time>2018-08-21T09:49:20.697Z</time>
      </trkpt>
      <trkpt lat="48.6280133" lon="-2.0552993">
        <ele>17.438</ele>
        <time>2018-08-21T09:49:25.100Z</time>
      </trkpt>
      <trkpt lat="48.6279197" lon="-2.0554089">
        <ele>17.398</ele>
        <time>2018-08-21T09:49:29.433Z</time>
      </trkpt>
      <trkpt lat="48.6278839" lon="-2.0555508">
        <ele>17.465</ele>
        <time>2018-08-21T09:49:33.000Z</time>
      </trkpt>
      <trkpt lat="48.6278839" lon="-2.0555508">
        <ele>17.591</ele>
        <time>2018-08-21T09:49:37.000Z</time>
      </trkpt>
      <trkpt lat="48.6278839" lon="-2.0555508">
        <ele>17.632</ele>
        <time>2018-08-21T09:49:59.571Z</time>
      </trkpt>
      <trkpt lat="48.6278464" lon="-2.0558781">
        <ele>17.595</ele>
        <time>2018-08-21T09:50:14.739Z</time>
      </trkpt>
      <trkpt lat="48.6277469" lon="-2.0558747">
        <ele>18.293</ele>
        <time>2018-08-21T09:50:18.025Z</time>
      </trkpt>
      <trkpt lat="48.6276462" lon="-2.0558434">
        <ele>20.162</ele>
        <time>2018-08-21T09:50:20.805Z</time>
      </trkpt>
      <trkpt lat="48.6275496" lon="-2.0558517">
        <ele>22.062</ele>
        <time>2018-08-21T09:50:22.998Z</time>
      </trkpt>
      <trkpt lat="48.6275496" lon="-2.0558517">
        <ele>22.832</ele>
        <time>2018-08-21T09:50:22.998Z</time>
      </trkpt>
      <trkpt lat="48.6275496" lon="-2.0558517">
        <ele>22.703</ele>
        <time>2018-08-21T09:50:23.098Z</time>
      </trkpt>
      <trkpt lat="48.6273874" lon="-2.0558864">
        <ele>22.311</ele>
        <time>2018-08-21T09:50:29.929Z</time>
      </trkpt>
      <trkpt lat="48.6272795" lon="-2.0559011">
        <ele>21.906</ele>
        <time>2018-08-21T09:50:32.590Z</time>
      </trkpt>
      <trkpt lat="48.6271687" lon="-2.0559251">
        <ele>21.386</ele>
        <time>2018-08-21T09:50:35.162Z</time>
      </trkpt>
      <trkpt lat="48.6270544" lon="-2.0559302">
        <ele>20.860</ele>
        <time>2018-08-21T09:50:37.698Z</time>
      </trkpt>
      <trkpt lat="48.6269507" lon="-2.0559425">
        <ele>20.476</ele>
        <time>2018-08-21T09:50:39.998Z</time>
      </trkpt>
      <trkpt lat="48.6269507" lon="-2.0559425">
        <ele>20.188</ele>
        <time>2018-08-21T09:50:42.998Z</time>
      </trkpt>
      <trkpt lat="48.6269507" lon="-2.0559425">
        <ele>20.024</ele>
        <time>2018-08-21T09:50:46.457Z</time>
      </trkpt>
      <trkpt lat="48.6267301" lon="-2.0559809">
        <ele>20.028</ele>
        <time>2018-08-21T09:51:01.133Z</time>
      </trkpt>
      <trkpt lat="48.6266338" lon="-2.0559952">
        <ele>19.856</ele>
        <time>2018-08-21T09:51:04.265Z</time>
      </trkpt>
      <trkpt lat="48.6265291" lon="-2.0559983">
        <ele>19.268</ele>
        <time>2018-08-21T09:51:07.340Z</time>
      </trkpt>
      <trkpt lat="48.6264194" lon="-2.0560048">
        <ele>18.656</ele>
        <time>2018-08-21T09:51:10.369Z</time>
      </trkpt>
      <trkpt lat="48.6263070" lon="-2.0560118">
        <ele>18.411</ele>
        <time>2018-08-21T09:51:13.406Z</time>
      </trkpt>
      <trkpt lat="48.6262010" lon="-2.0560125">
        <ele>18.438</ele>
        <time>2018-08-21T09:51:16.288Z</time>
      </trkpt>
      <trkpt lat="48.6260961" lon="-2.0560150">
        <ele>18.570</ele>
        <time>2018-08-21T09:51:19.153Z</time>
      </trkpt>
      <trkpt lat="48.6259877" lon="-2.0560232">
        <ele>18.871</ele>
        <time>2018-08-21T09:51:22.094Z</time>
      </trkpt>
      <trkpt lat="48.6258758" lon="-2.0560310">
        <ele>19.485</ele>
        <time>2018-08-21T09:51:25.089Z</time>
      </trkpt>
      <trkpt lat="48.6257647" lon="-2.0560446">
        <ele>20.221</ele>
        <time>2018-08-21T09:51:28.006Z</time>
      </trkpt>
      <trkpt lat="48.6256465" lon="-2.0560603">
        <ele>20.620</ele>
        <time>2018-08-21T09:51:31.079Z</time>
      </trkpt>
      <trkpt lat="48.6255365" lon="-2.0560694">
        <ele>20.543</ele>
        <time>2018-08-21T09:51:33.973Z</time>
      </trkpt>
      <trkpt lat="48.6254274" lon="-2.0560709">
        <ele>20.254</ele>
        <time>2018-08-21T09:51:36.926Z</time>
      </trkpt>
      <trkpt lat="48.6253282" lon="-2.0560677">
        <ele>20.038</ele>
        <time>2018-08-21T09:51:39.673Z</time>
      </trkpt>
      <trkpt lat="48.6252189" lon="-2.0560622">
        <ele>20.027</ele>
        <time>2018-08-21T09:51:42.746Z</time>
      </trkpt>
      <trkpt lat="48.6251137" lon="-2.0560644">
        <ele>20.268</ele>
        <time>2018-08-21T09:51:45.799Z</time>
      </trkpt>
      <trkpt lat="48.6249984" lon="-2.0560591">
        <ele>20.693</ele>
        <time>2018-08-21T09:51:49.452Z</time>
      </trkpt>
      <trkpt lat="48.6249034" lon="-2.0560931">
        <ele>21.232</ele>
        <time>2018-08-21T09:51:52.921Z</time>
      </trkpt>
      <trkpt lat="48.6247953" lon="-2.0561188">
        <ele>21.971</ele>
        <time>2018-08-21T09:51:57.190Z</time>
      </trkpt>
      <trkpt lat="48.6246907" lon="-2.0561410">
        <ele>22.947</ele>
        <time>2018-08-21T09:52:01.789Z</time>
      </trkpt>
      <trkpt lat="48.6245947" lon="-2.0561791">
        <ele>23.862</ele>
        <time>2018-08-21T09:52:06.442Z</time>
      </trkpt>
      <trkpt lat="48.6244972" lon="-2.0562177">
        <ele>24.383</ele>
        <time>2018-08-21T09:52:11.332Z</time>
      </trkpt>
      <trkpt lat="48.6244045" lon="-2.0562646">
        <ele>24.429</ele>
        <time>2018-08-21T09:52:16.127Z</time>
      </trkpt>
      <trkpt lat="48.6243164" lon="-2.0563357">
        <ele>24.165</ele>
        <time>2018-08-21T09:52:21.056Z</time>
      </trkpt>
      <trkpt lat="48.6242345" lon="-2.0564221">
        <ele>24.289</ele>
        <time>2018-08-21T09:52:25.948Z</time>
      </trkpt>
      <trkpt lat="48.6241318" lon="-2.0564900">
        <ele>25.351</ele>
        <time>2018-08-21T09:52:31.260Z</time>
      </trkpt>
      <trkpt lat="48.6240438" lon="-2.0565745">
        <ele>26.868</ele>
        <time>2018-08-21T09:52:36.048Z</time>
      </trkpt>
      <trkpt lat="48.6239544" lon="-2.0566494">
        <ele>28.099</ele>
        <time>2018-08-21T09:52:40.751Z</time>
      </trkpt>
      <trkpt lat="48.6238636" lon="-2.0567112">
        <ele>28.833</ele>
        <time>2018-08-21T09:52:45.581Z</time>
      </trkpt>
      <trkpt lat="48.6237663" lon="-2.0567822">
        <ele>29.047</ele>
        <time>2018-08-21T09:52:51.133Z</time>
      </trkpt>
      <trkpt lat="48.6236778" lon="-2.0568694">
        <ele>28.879</ele>
        <time>2018-08-21T09:52:56.087Z</time>
      </trkpt>
      <trkpt lat="48.6236257" lon="-2.0569811">
        <ele>28.704</ele>
        <time>2018-08-21T09:52:59.966Z</time>
      </trkpt>
      <trkpt lat="48.6236247" lon="-2.0571350">
        <ele>28.799</ele>
        <time>2018-08-21T09:53:04.332Z</time>
      </trkpt>
      <trkpt lat="48.6236255" lon="-2.0572865">
        <ele>29.180</ele>
        <time>2018-08-21T09:53:08.725Z</time>
      </trkpt>
      <trkpt lat="48.6236200" lon="-2.0574289">
        <ele>29.693</ele>
        <time>2018-08-21T09:53:12.999Z</time>
      </trkpt>
      <trkpt lat="48.6236200" lon="-2.0574289">
        <ele>30.089</ele>
        <time>2018-08-21T09:53:12.999Z</time>
      </trkpt>
      <trkpt lat="48.6236200" lon="-2.0574289">
        <ele>30.224</ele>
        <time>2018-08-21T09:54:49.037Z</time>
      </trkpt>
      <trkpt lat="48.6236439" lon="-2.0577186">
        <ele>30.186</ele>
        <time>2018-08-21T09:55:02.736Z</time>
      </trkpt>
      <trkpt lat="48.6236415" lon="-2.0578842">
        <ele>30.528</ele>
        <time>2018-08-21T09:55:07.283Z</time>
      </trkpt>
      <trkpt lat="48.6236403" lon="-2.0580533">
        <ele>31.606</ele>
        <time>2018-08-21T09:55:11.808Z</time>
      </trkpt>
      <trkpt lat="48.6236371" lon="-2.0582147">
        <ele>32.787</ele>
        <time>2018-08-21T09:55:16.219Z</time>
      </trkpt>
      <trkpt lat="48.6236349" lon="-2.0583697">
        <ele>33.384</ele>
        <time>2018-08-21T09:55:20.575Z</time>
      </trkpt>
      <trkpt lat="48.6236305" lon="-2.0585079">
        <ele>33.480</ele>
        <time>2018-08-21T09:55:24.414Z</time>
      </trkpt>
      <trkpt lat="48.6236233" lon="-2.0586529">
        <ele>33.401</ele>
        <time>2018-08-21T09:55:28.379Z</time>
      </trkpt>
      <trkpt lat="48.6236156" lon="-2.0588162">
        <ele>33.367</ele>
        <time>2018-08-21T09:55:33.050Z</time>
      </trkpt>
      <trkpt lat="48.6236139" lon="-2.0589546">
        <ele>33.391</ele>
        <time>2018-08-21T09:55:37.274Z</time>
      </trkpt>
      <trkpt lat="48.6236602" lon="-2.0590782">
        <ele>33.418</ele>
        <time>2018-08-21T09:55:41.999Z</time>
      </trkpt>
      <trkpt lat="48.6236602" lon="-2.0590782">
        <ele>33.427</ele>
        <time>2018-08-21T09:55:51.999Z</time>
      </trkpt>
      <trkpt lat="48.6236602" lon="-2.0590782">
        <ele>33.417</ele>
        <time>2018-08-21T09:56:00.191Z</time>
      </trkpt>
      <trkpt lat="48.6235279" lon="-2.0592772">
        <ele>33.400</ele>
        <time>2018-08-21T09:56:13.617Z</time>
      </trkpt>
      <trkpt lat="48.6234597" lon="-2.0594185">
        <ele>33.714</ele>
        <time>2018-08-21T09:56:17.889Z</time>
      </trkpt>
      <trkpt lat="48.6234322" lon="-2.0595926">
        <ele>34.557</ele>
        <time>2018-08-21T09:56:21.676Z</time>
      </trkpt>
      <trkpt lat="48.6234157" lon="-2.0597452">
        <ele>35.371</ele>
        <time>2018-08-21T09:56:24.569Z</time>
      </trkpt>
      <trkpt lat="48.6233943" lon="-2.0599134">
        <ele>35.639</ele>
        <time>2018-08-21T09:56:27.457Z</time>
      </trkpt>
      <trkpt lat="48.6233732" lon="-2.0600959">
        <ele>35.552</ele>
        <time>2018-08-21T09:56:30.327Z</time>
      </trkpt>
      <trkpt lat="48.6233530" lon="-2.0602795">
        <ele>35.377</ele>
        <time>2018-08-21T09:56:33.040Z</time>
      </trkpt>
      <trkpt lat="48.6233335" lon="-2.0604768">
        <ele>35.206</ele>
        <time>2018-08-21T09:56:35.866Z</time>
      </trkpt>
      <trkpt lat="48.6233172" lon="-2.0606756">
        <ele>35.105</ele>
        <time>2018-08-21T09:56:38.717Z</time>
      </trkpt>
      <trkpt lat="48.6232997" lon="-2.0608637">
        <ele>35.099</ele>
        <time>2018-08-21T09:56:41.430Z</time>
      </trkpt>
      <trkpt lat="48.6232811" lon="-2.0610556">
        <ele>35.127</ele>
        <time>2018-08-21T09:56:44.243Z</time>
      </trkpt>
      <trkpt lat="48.6232756" lon="-2.0612321">
        <ele>35.124</ele>
        <time>2018-08-21T09:56:46.906Z</time>
      </trkpt>
      <trkpt lat="48.6232766" lon="-2.0614064">
        <ele>35.064</ele>
        <time>2018-08-21T09:56:49.675Z</time>
      </trkpt>
      <trkpt lat="48.6232806" lon="-2.0615623">
        <ele>34.927</ele>
        <time>2018-08-21T09:56:52.428Z</time>
      </trkpt>
      <trkpt lat="48.6232971" lon="-2.0617268">
        <ele>34.728</ele>
        <time>2018-08-21T09:56:55.838Z</time>
      </trkpt>
      <trkpt lat="48.6232024" lon="-2.0617948">
        <ele>34.542</ele>
        <time>2018-08-21T09:56:59.999Z</time>
      </trkpt>
      <trkpt lat="48.6232024" lon="-2.0617948">
        <ele>34.434</ele>
        <time>2018-08-21T09:57:04.999Z</time>
      </trkpt>
      <trkpt lat="48.6232024" lon="-2.0617948">
        <ele>34.403</ele>
        <time>2018-08-21T09:57:09.759Z</time>
      </trkpt>
      <trkpt lat="48.6230210" lon="-2.0618154">
        <ele>34.420</ele>
        <time>2018-08-21T09:57:20.976Z</time>
      </trkpt>
      <trkpt lat="48.6229112" lon="-2.0618763">
        <ele>34.509</ele>
        <time>2018-08-21T09:57:25.149Z</time>
      </trkpt>
      <trkpt lat="48.6228020" lon="-2.0619192">
        <ele>34.704</ele>
        <time>2018-08-21T09:57:29.136Z</time>
      </trkpt>
      <trkpt lat="48.6226974" lon="-2.0619567">
        <ele>34.933</ele>
        <time>2018-08-21T09:57:32.835Z</time>
      </trkpt>
      <trkpt lat="48.6225827" lon="-2.0619989">
        <ele>35.119</ele>
        <time>2018-08-21T09:57:36.733Z</time>
      </trkpt>
      <trkpt lat="48.6224690" lon="-2.0620509">
        <ele>35.279</ele>
        <time>2018-08-21T09:57:40.583Z</time>
      </trkpt>
      <trkpt lat="48.6223573" lon="-2.0621039">
        <ele>35.409</ele>
        <time>2018-08-21T09:57:44.380Z</time>
      </trkpt>
      <trkpt lat="48.6222511" lon="-2.0621474">
        <ele>35.503</ele>
        <time>2018-08-21T09:57:48.122Z</time>
      </trkpt>
      <trkpt lat="48.6221631" lon="-2.0621939">
        <ele>35.593</ele>
        <time>2018-08-21T09:57:51.738Z</time>
      </trkpt>
      <trkpt lat="48.6220628" lon="-2.0622262">
        <ele>35.718</ele>
        <time>2018-08-21T09:57:56.212Z</time>
      </trkpt>
      <trkpt lat="48.6219764" lon="-2.0622783">
        <ele>36.007</ele>
        <time>2018-08-21T09:58:00.453Z</time>
      </trkpt>
      <trkpt lat="48.6218846" lon="-2.0623143">
        <ele>36.559</ele>
        <time>2018-08-21T09:58:04.307Z</time>
      </trkpt>
      <trkpt lat="48.6217911" lon="-2.0623415">
        <ele>37.200</ele>
        <time>2018-08-21T09:58:07.965Z</time>
      </trkpt>
      <trkpt lat="48.6216961" lon="-2.0623646">
        <ele>37.643</ele>
        <time>2018-08-21T09:58:11.540Z</time>
      </trkpt>
      <trkpt lat="48.6216029" lon="-2.0623964">
        <ele>37.798</ele>
        <time>2018-08-21T09:58:15.108Z</time>
      </trkpt>
      <trkpt lat="48.6215056" lon="-2.0624358">
        <ele>37.771</ele>
        <time>2018-08-21T09:58:18.873Z</time>
      </trkpt>
      <trkpt lat="48.6214048" lon="-2.0624736">
        <ele>37.702</ele>
        <time>2018-08-21T09:58:22.640Z</time>
      </trkpt>
      <trkpt lat="48.6213073" lon="-2.0625187">
        <ele>37.670</ele>
        <time>2018-08-21T09:58:26.250Z</time>
      </trkpt>
      <trkpt lat="48.6212100" lon="-2.0625573">
        <ele>37.693</ele>
        <time>2018-08-21T09:58:29.808Z</time>
      </trkpt>
      <trkpt lat="48.6211148" lon="-2.0625906">
        <ele>37.781</ele>
        <time>2018-08-21T09:58:33.314Z</time>
      </trkpt>
      <trkpt lat="48.6210133" lon="-2.0626193">
        <ele>37.911</ele>
        <time>2018-08-21T09:58:37.091Z</time>
      </trkpt>
      <trkpt lat="48.6209181" lon="-2.0626597">
        <ele>38.032</ele>
        <time>2018-08-21T09:58:40.749Z</time>
      </trkpt>
      <trkpt lat="48.6208279" lon="-2.0626910">
        <ele>38.137</ele>
        <time>2018-08-21T09:58:44.147Z</time>
      </trkpt>
      <trkpt lat="48.6207260" lon="-2.0627185">
        <ele>38.283</ele>
        <time>2018-08-21T09:58:48.006Z</time>
      </trkpt>
      <trkpt lat="48.6206165" lon="-2.0627668">
        <ele>38.489</ele>
        <time>2018-08-21T09:58:52.709Z</time>
      </trkpt>
      <trkpt lat="48.6205182" lon="-2.0628144">
        <ele>38.755</ele>
        <time>2018-08-21T09:58:57.200Z</time>
      </trkpt>
      <trkpt lat="48.6204215" lon="-2.0628758">
        <ele>39.082</ele>
        <time>2018-08-21T09:59:01.479Z</time>
      </trkpt>
      <trkpt lat="48.6203133" lon="-2.0629177">
        <ele>39.398</ele>
        <time>2018-08-21T09:59:05.980Z</time>
      </trkpt>
      <trkpt lat="48.6202194" lon="-2.0629651">
        <ele>39.596</ele>
        <time>2018-08-21T09:59:10.056Z</time>
      </trkpt>
      <trkpt lat="48.6201269" lon="-2.0630163">
        <ele>39.704</ele>
        <time>2018-08-21T09:59:14.203Z</time>
      </trkpt>
      <trkpt lat="48.6200411" lon="-2.0630661">
        <ele>39.796</ele>
        <time>2018-08-21T09:59:18.310Z</time>
      </trkpt>
      <trkpt lat="48.6199353" lon="-2.0630946">
        <ele>39.920</ele>
        <time>2018-08-21T09:59:23.753Z</time>
      </trkpt>
      <trkpt lat="48.6198468" lon="-2.0631181">
        <ele>40.083</ele>
        <time>2018-08-21T09:59:28.192Z</time>
      </trkpt>
      <trkpt lat="48.6197493" lon="-2.0631459">
        <ele>40.309</ele>
        <time>2018-08-21T09:59:32.563Z</time>
      </trkpt>
      <trkpt lat="48.6196476" lon="-2.0631650">
        <ele>40.656</ele>
        <time>2018-08-21T09:59:36.965Z</time>
      </trkpt>
      <trkpt lat="48.6195507" lon="-2.0631966">
        <ele>41.075</ele>
        <time>2018-08-21T09:59:41.237Z</time>
      </trkpt>
      <trkpt lat="48.6194544" lon="-2.0632445">
        <ele>41.412</ele>
        <time>2018-08-21T09:59:45.490Z</time>
      </trkpt>
      <trkpt lat="48.6193670" lon="-2.0632788">
        <ele>41.633</ele>
        <time>2018-08-21T09:59:49.993Z</time>
      </trkpt>
      <trkpt lat="48.6192731" lon="-2.0632994">
        <ele>41.830</ele>
        <time>2018-08-21T09:59:55.545Z</time>
      </trkpt>
      <trkpt lat="48.6191754" lon="-2.0633393">
        <ele>42.100</ele>
        <time>2018-08-21T10:00:01.555Z</time>
      </trkpt>
      <trkpt lat="48.6190812" lon="-2.0633760">
        <ele>42.515</ele>
        <time>2018-08-21T10:00:07.426Z</time>
      </trkpt>
      <trkpt lat="48.6189795" lon="-2.0633998">
        <ele>43.043</ele>
        <time>2018-08-21T10:00:12.822Z</time>
      </trkpt>
      <trkpt lat="48.6188760" lon="-2.0634516">
        <ele>43.572</ele>
        <time>2018-08-21T10:00:18.093Z</time>
      </trkpt>
      <trkpt lat="48.6187721" lon="-2.0635152">
        <ele>43.999</ele>
        <time>2018-08-21T10:00:23.218Z</time>
      </trkpt>
      <trkpt lat="48.6186794" lon="-2.0635540">
        <ele>44.332</ele>
        <time>2018-08-21T10:00:27.607Z</time>
      </trkpt>
      <trkpt lat="48.6185826" lon="-2.0636045">
        <ele>44.665</ele>
        <time>2018-08-21T10:00:32.710Z</time>
      </trkpt>
      <trkpt lat="48.6184931" lon="-2.0636327">
        <ele>44.999</ele>
        <time>2018-08-21T10:00:37.000Z</time>
      </trkpt>
      <trkpt lat="48.6183976" lon="-2.0636609">
        <ele>45.216</ele>
        <time>2018-08-21T10:00:41.301Z</time>
      </trkpt>
      <trkpt lat="48.6182840" lon="-2.0636994">
        <ele>45.293</ele>
        <time>2018-08-21T10:00:46.260Z</time>
      </trkpt>
      <trkpt lat="48.6181801" lon="-2.0637576">
        <ele>45.336</ele>
        <time>2018-08-21T10:00:50.410Z</time>
      </trkpt>
      <trkpt lat="48.6180560" lon="-2.0638009">
        <ele>45.436</ele>
        <time>2018-08-21T10:00:54.599Z</time>
      </trkpt>
      <trkpt lat="48.6179397" lon="-2.0638282">
        <ele>45.628</ele>
        <time>2018-08-21T10:00:58.506Z</time>
      </trkpt>
      <trkpt lat="48.6178258" lon="-2.0638562">
        <ele>45.872</ele>
        <time>2018-08-21T10:01:02.592Z</time>
      </trkpt>
      <trkpt lat="48.6177307" lon="-2.0638862">
        <ele>46.078</ele>
        <time>2018-08-21T10:01:06.074Z</time>
      </trkpt>
      <trkpt lat="48.6176246" lon="-2.0639303">
        <ele>46.182</ele>
        <time>2018-08-21T10:01:09.857Z</time>
      </trkpt>
      <trkpt lat="48.6175280" lon="-2.0639630">
        <ele>46.225</ele>
        <time>2018-08-21T10:01:13.247Z</time>
      </trkpt>
      <trkpt lat="48.6174399" lon="-2.0639987">
        <ele>46.282</ele>
        <time>2018-08-21T10:01:16.438Z</time>
      </trkpt>
      <trkpt lat="48.6173466" lon="-2.0640233">
        <ele>46.370</ele>
        <time>2018-08-21T10:01:19.996Z</time>
      </trkpt>
      <trkpt lat="48.6172550" lon="-2.0640620">
        <ele>46.443</ele>
        <time>2018-08-21T10:01:23.797Z</time>
      </trkpt>
      <trkpt lat="48.6171727" lon="-2.0641173">
        <ele>46.521</ele>
        <time>2018-08-21T10:01:27.290Z</time>
      </trkpt>
      <trkpt lat="48.6170708" lon="-2.0641627">
        <ele>46.666</ele>
        <time>2018-08-21T10:01:31.539Z</time>
      </trkpt>
      <trkpt lat="48.6169787" lon="-2.0641789">
        <ele>46.899</ele>
        <time>2018-08-21T10:01:35.230Z</time>
      </trkpt>
      <trkpt lat="48.6168880" lon="-2.0641977">
        <ele>47.176</ele>
        <time>2018-08-21T10:01:38.476Z</time>
      </trkpt>
      <trkpt lat="48.6167738" lon="-2.0642291">
        <ele>47.444</ele>
        <time>2018-08-21T10:01:42.314Z</time>
      </trkpt>
      <trkpt lat="48.6166840" lon="-2.0642709">
        <ele>47.663</ele>
        <time>2018-08-21T10:01:45.487Z</time>
      </trkpt>
      <trkpt lat="48.6165930" lon="-2.0643056">
        <ele>47.753</ele>
        <time>2018-08-21T10:01:48.752Z</time>
      </trkpt>
      <trkpt lat="48.6164944" lon="-2.0643286">
        <ele>47.681</ele>
        <time>2018-08-21T10:01:52.249Z</time>
      </trkpt>
      <trkpt lat="48.6163814" lon="-2.0643821">
        <ele>47.573</ele>
        <time>2018-08-21T10:01:56.744Z</time>
      </trkpt>
      <trkpt lat="48.6162926" lon="-2.0644070">
        <ele>47.552</ele>
        <time>2018-08-21T10:02:00.315Z</time>
      </trkpt>
      <trkpt lat="48.6161981" lon="-2.0644379">
        <ele>47.604</ele>
        <time>2018-08-21T10:02:03.839Z</time>
      </trkpt>
      <trkpt lat="48.6160946" lon="-2.0644819">
        <ele>47.688</ele>
        <time>2018-08-21T10:02:07.481Z</time>
      </trkpt>
      <trkpt lat="48.6159925" lon="-2.0645223">
        <ele>47.799</ele>
        <time>2018-08-21T10:02:10.961Z</time>
      </trkpt>
      <trkpt lat="48.6159037" lon="-2.0645652">
        <ele>47.913</ele>
        <time>2018-08-21T10:02:14.038Z</time>
      </trkpt>
      <trkpt lat="48.6158063" lon="-2.0645940">
        <ele>47.983</ele>
        <time>2018-08-21T10:02:17.551Z</time>
      </trkpt>
      <trkpt lat="48.6157170" lon="-2.0646304">
        <ele>47.959</ele>
        <time>2018-08-21T10:02:20.820Z</time>
      </trkpt>
      <trkpt lat="48.6156224" lon="-2.0646601">
        <ele>47.833</ele>
        <time>2018-08-21T10:02:23.926Z</time>
      </trkpt>
      <trkpt lat="48.6155150" lon="-2.0647141">
        <ele>47.688</ele>
        <time>2018-08-21T10:02:27.499Z</time>
      </trkpt>
      <trkpt lat="48.6154131" lon="-2.0647641">
        <ele>47.608</ele>
        <time>2018-08-21T10:02:31.015Z</time>
      </trkpt>
      <trkpt lat="48.6153210" lon="-2.0648081">
        <ele>47.625</ele>
        <time>2018-08-21T10:02:34.181Z</time>
      </trkpt>
      <trkpt lat="48.6152239" lon="-2.0648480">
        <ele>47.739</ele>
        <time>2018-08-21T10:02:37.374Z</time>
      </trkpt>
      <trkpt lat="48.6151420" lon="-2.0649107">
        <ele>47.937</ele>
        <time>2018-08-21T10:02:40.224Z</time>
      </trkpt>
      <trkpt lat="48.6150357" lon="-2.0649576">
        <ele>48.265</ele>
        <time>2018-08-21T10:02:43.687Z</time>
      </trkpt>
      <trkpt lat="48.6149210" lon="-2.0649981">
        <ele>48.731</ele>
        <time>2018-08-21T10:02:47.510Z</time>
      </trkpt>
      <trkpt lat="48.6148188" lon="-2.0650307">
        <ele>49.180</ele>
        <time>2018-08-21T10:02:51.001Z</time>
      </trkpt>
      <trkpt lat="48.6147245" lon="-2.0650688">
        <ele>49.493</ele>
        <time>2018-08-21T10:02:54.122Z</time>
      </trkpt>
      <trkpt lat="48.6146275" lon="-2.0650987">
        <ele>49.765</ele>
        <time>2018-08-21T10:02:56.989Z</time>
      </trkpt>
      <trkpt lat="48.6145113" lon="-2.0651232">
        <ele>50.068</ele>
        <time>2018-08-21T10:03:00.165Z</time>
      </trkpt>
      <trkpt lat="48.6144176" lon="-2.0651451">
        <ele>50.290</ele>
        <time>2018-08-21T10:03:02.729Z</time>
      </trkpt>
      <trkpt lat="48.6143186" lon="-2.0651824">
        <ele>50.347</ele>
        <time>2018-08-21T10:03:05.487Z</time>
      </trkpt>
      <trkpt lat="48.6142140" lon="-2.0652319">
        <ele>50.311</ele>
        <time>2018-08-21T10:03:08.448Z</time>
      </trkpt>
      <trkpt lat="48.6141091" lon="-2.0652693">
        <ele>50.282</ele>
        <time>2018-08-21T10:03:11.321Z</time>
      </trkpt>
      <trkpt lat="48.6140101" lon="-2.0653066">
        <ele>50.294</ele>
        <time>2018-08-21T10:03:13.868Z</time>
      </trkpt>
      <trkpt lat="48.6139068" lon="-2.0653355">
        <ele>50.244</ele>
        <time>2018-08-21T10:03:16.247Z</time>
      </trkpt>
      <trkpt lat="48.6138075" lon="-2.0653746">
        <ele>50.023</ele>
        <time>2018-08-21T10:03:18.365Z</time>
      </trkpt>
      <trkpt lat="48.6136967" lon="-2.0654168">
        <ele>49.701</ele>
        <time>2018-08-21T10:03:20.424Z</time>
      </trkpt>
      <trkpt lat="48.6135699" lon="-2.0654763">
        <ele>49.466</ele>
        <time>2018-08-21T10:03:22.662Z</time>
      </trkpt>
      <trkpt lat="48.6134252" lon="-2.0655523">
        <ele>49.380</ele>
        <time>2018-08-21T10:03:25.261Z</time>
      </trkpt>
      <trkpt lat="48.6133204" lon="-2.0655991">
        <ele>49.363</ele>
        <time>2018-08-21T10:03:27.133Z</time>
      </trkpt>
      <trkpt lat="48.6131485" lon="-2.0656560">
        <ele>49.331</ele>
        <time>2018-08-21T10:03:30.171Z</time>
      </trkpt>
      <trkpt lat="48.6129834" lon="-2.0656319">
        <ele>49.236</ele>
        <time>2018-08-21T10:03:33.336Z</time>
      </trkpt>
      <trkpt lat="48.6128137" lon="-2.0655615">
        <ele>49.053</ele>
        <time>2018-08-21T10:03:37.740Z</time>
      </trkpt>
      <trkpt lat="48.6127341" lon="-2.0654667">
        <ele>48.700</ele>
        <time>2018-08-21T10:03:40.658Z</time>
      </trkpt>
      <trkpt lat="48.6126902" lon="-2.0653374">
        <ele>48.109</ele>
        <time>2018-08-21T10:03:43.676Z</time>
      </trkpt>
      <trkpt lat="48.6126327" lon="-2.0651982">
        <ele>47.463</ele>
        <time>2018-08-21T10:03:47.620Z</time>
      </trkpt>
      <trkpt lat="48.6125553" lon="-2.0651023">
        <ele>47.071</ele>
        <time>2018-08-21T10:03:51.231Z</time>
      </trkpt>
      <trkpt lat="48.6124665" lon="-2.0650212">
        <ele>46.995</ele>
        <time>2018-08-21T10:03:54.721Z</time>
      </trkpt>
      <trkpt lat="48.6123805" lon="-2.0649488">
        <ele>47.069</ele>
        <time>2018-08-21T10:03:57.835Z</time>
      </trkpt>
      <trkpt lat="48.6122796" lon="-2.0648692">
        <ele>47.023</ele>
        <time>2018-08-21T10:04:01.235Z</time>
      </trkpt>
      <trkpt lat="48.6121950" lon="-2.0648088">
        <ele>46.654</ele>
        <time>2018-08-21T10:04:04.008Z</time>
      </trkpt>
      <trkpt lat="48.6121238" lon="-2.0647248">
        <ele>46.103</ele>
        <time>2018-08-21T10:04:06.732Z</time>
      </trkpt>
      <trkpt lat="48.6120458" lon="-2.0646337">
        <ele>45.647</ele>
        <time>2018-08-21T10:04:09.605Z</time>
      </trkpt>
      <trkpt lat="48.6119689" lon="-2.0645521">
        <ele>45.369</ele>
        <time>2018-08-21T10:04:12.146Z</time>
      </trkpt>
      <trkpt lat="48.6118640" lon="-2.0644658">
        <ele>45.283</ele>
        <time>2018-08-21T10:04:15.362Z</time>
      </trkpt>
      <trkpt lat="48.6117690" lon="-2.0643911">
        <ele>45.426</ele>
        <time>2018-08-21T10:04:18.564Z</time>
      </trkpt>
      <trkpt lat="48.6116566" lon="-2.0643621">
        <ele>45.760</ele>
        <time>2018-08-21T10:04:22.351Z</time>
      </trkpt>
      <trkpt lat="48.6115485" lon="-2.0643846">
        <ele>46.194</ele>
        <time>2018-08-21T10:04:26.266Z</time>
      </trkpt>
      <trkpt lat="48.6114421" lon="-2.0644382">
        <ele>46.597</ele>
        <time>2018-08-21T10:04:30.396Z</time>
      </trkpt>
      <trkpt lat="48.6113395" lon="-2.0644738">
        <ele>46.837</ele>
        <time>2018-08-21T10:04:34.194Z</time>
      </trkpt>
      <trkpt lat="48.6112391" lon="-2.0644903">
        <ele>46.926</ele>
        <time>2018-08-21T10:04:37.692Z</time>
      </trkpt>
      <trkpt lat="48.6111440" lon="-2.0644924">
        <ele>46.974</ele>
        <time>2018-08-21T10:04:40.900Z</time>
      </trkpt>
      <trkpt lat="48.6110355" lon="-2.0645120">
        <ele>47.030</ele>
        <time>2018-08-21T10:04:44.553Z</time>
      </trkpt>
      <trkpt lat="48.6109286" lon="-2.0645466">
        <ele>47.163</ele>
        <time>2018-08-21T10:04:48.180Z</time>
      </trkpt>
      <trkpt lat="48.6108254" lon="-2.0645839">
        <ele>47.469</ele>
        <time>2018-08-21T10:04:51.955Z</time>
      </trkpt>
      <trkpt lat="48.6107177" lon="-2.0646068">
        <ele>47.951</ele>
        <time>2018-08-21T10:04:55.943Z</time>
      </trkpt>
      <trkpt lat="48.6106290" lon="-2.0646335">
        <ele>48.574</ele>
        <time>2018-08-21T10:04:59.462Z</time>
      </trkpt>
      <trkpt lat="48.6105199" lon="-2.0646477">
        <ele>49.258</ele>
        <time>2018-08-21T10:05:03.865Z</time>
      </trkpt>
      <trkpt lat="48.6104211" lon="-2.0646544">
        <ele>49.826</ele>
        <time>2018-08-21T10:05:07.749Z</time>
      </trkpt>
      <trkpt lat="48.6103112" lon="-2.0646907">
        <ele>50.151</ele>
        <time>2018-08-21T10:05:12.173Z</time>
      </trkpt>
      <trkpt lat="48.6102185" lon="-2.0647338">
        <ele>50.288</ele>
        <time>2018-08-21T10:05:15.907Z</time>
      </trkpt>
      <trkpt lat="48.6101255" lon="-2.0647663">
        <ele>50.399</ele>
        <time>2018-08-21T10:05:19.419Z</time>
      </trkpt>
      <trkpt lat="48.6100235" lon="-2.0647891">
        <ele>50.621</ele>
        <time>2018-08-21T10:05:23.037Z</time>
      </trkpt>
      <trkpt lat="48.6099209" lon="-2.0647987">
        <ele>50.963</ele>
        <time>2018-08-21T10:05:26.550Z</time>
      </trkpt>
      <trkpt lat="48.6098073" lon="-2.0648148">
        <ele>51.355</ele>
        <time>2018-08-21T10:05:30.625Z</time>
      </trkpt>
      <trkpt lat="48.6097054" lon="-2.0648352">
        <ele>51.840</ele>
        <time>2018-08-21T10:05:34.649Z</time>
      </trkpt>
      <trkpt lat="48.6096083" lon="-2.0648701">
        <ele>52.511</ele>
        <time>2018-08-21T10:05:38.881Z</time>
      </trkpt>
      <trkpt lat="48.6095201" lon="-2.0649002">
        <ele>53.229</ele>
        <time>2018-08-21T10:05:42.564Z</time>
      </trkpt>
      <trkpt lat="48.6094217" lon="-2.0649245">
        <ele>53.730</ele>
        <time>2018-08-21T10:05:46.452Z</time>
      </trkpt>
      <trkpt lat="48.6093249" lon="-2.0649535">
        <ele>53.870</ele>
        <time>2018-08-21T10:05:50.042Z</time>
      </trkpt>
      <trkpt lat="48.6092318" lon="-2.0649632">
        <ele>53.729</ele>
        <time>2018-08-21T10:05:53.211Z</time>
      </trkpt>
      <trkpt lat="48.6091417" lon="-2.0649643">
        <ele>53.597</ele>
        <time>2018-08-21T10:05:56.198Z</time>
      </trkpt>
      <trkpt lat="48.6090502" lon="-2.0649737">
        <ele>53.767</ele>
        <time>2018-08-21T10:05:59.277Z</time>
      </trkpt>
      <trkpt lat="48.6089462" lon="-2.0649900">
        <ele>54.198</ele>
        <time>2018-08-21T10:06:03.122Z</time>
      </trkpt>
      <trkpt lat="48.6088439" lon="-2.0650253">
        <ele>54.741</ele>
        <time>2018-08-21T10:06:07.620Z</time>
      </trkpt>
      <trkpt lat="48.6087613" lon="-2.0651046">
        <ele>55.454</ele>
        <time>2018-08-21T10:06:12.360Z</time>
      </trkpt>
      <trkpt lat="48.6086777" lon="-2.0651626">
        <ele>56.252</ele>
        <time>2018-08-21T10:06:17.165Z</time>
      </trkpt>
      <trkpt lat="48.6085836" lon="-2.0651767">
        <ele>56.672</ele>
        <time>2018-08-21T10:06:21.831Z</time>
      </trkpt>
      <trkpt lat="48.6085237" lon="-2.0650388">
        <ele>56.521</ele>
        <time>2018-08-21T10:06:26.898Z</time>
      </trkpt>
      <trkpt lat="48.6084406" lon="-2.0649727">
        <ele>56.056</ele>
        <time>2018-08-21T10:06:31.399Z</time>
      </trkpt>
      <trkpt lat="48.6083564" lon="-2.0650543">
        <ele>55.566</ele>
        <time>2018-08-21T10:06:35.967Z</time>
      </trkpt>
      <trkpt lat="48.6082835" lon="-2.0651588">
        <ele>55.165</ele>
        <time>2018-08-21T10:06:39.957Z</time>
      </trkpt>
      <trkpt lat="48.6081886" lon="-2.0652527">
        <ele>54.851</ele>
        <time>2018-08-21T10:06:43.987Z</time>
      </trkpt>
      <trkpt lat="48.6081109" lon="-2.0653211">
        <ele>54.588</ele>
        <time>2018-08-21T10:06:46.919Z</time>
      </trkpt>
      <trkpt lat="48.6080100" lon="-2.0653875">
        <ele>54.391</ele>
        <time>2018-08-21T10:06:50.471Z</time>
      </trkpt>
      <trkpt lat="48.6079100" lon="-2.0654330">
        <ele>54.224</ele>
        <time>2018-08-21T10:06:53.959Z</time>
      </trkpt>
      <trkpt lat="48.6077984" lon="-2.0654520">
        <ele>54.031</ele>
        <time>2018-08-21T10:06:57.730Z</time>
      </trkpt>
      <trkpt lat="48.6076850" lon="-2.0654555">
        <ele>53.824</ele>
        <time>2018-08-21T10:07:01.455Z</time>
      </trkpt>
      <trkpt lat="48.6075819" lon="-2.0655055">
        <ele>53.667</ele>
        <time>2018-08-21T10:07:04.965Z</time>
      </trkpt>
      <trkpt lat="48.6074932" lon="-2.0656171">
        <ele>53.606</ele>
        <time>2018-08-21T10:07:08.677Z</time>
      </trkpt>
      <trkpt lat="48.6074433" lon="-2.0657304">
        <ele>53.639</ele>
        <time>2018-08-21T10:07:11.543Z</time>
      </trkpt>
      <trkpt lat="48.6074130" lon="-2.0658663">
        <ele>53.708</ele>
        <time>2018-08-21T10:07:14.483Z</time>
      </trkpt>
      <trkpt lat="48.6073656" lon="-2.0660236">
        <ele>53.753</ele>
        <time>2018-08-21T10:07:17.932Z</time>
      </trkpt>
      <trkpt lat="48.6072862" lon="-2.0661499">
        <ele>53.763</ele>
        <time>2018-08-21T10:07:21.420Z</time>
      </trkpt>
      <trkpt lat="48.6071814" lon="-2.0662292">
        <ele>53.801</ele>
        <time>2018-08-21T10:07:25.056Z</time>
      </trkpt>
      <trkpt lat="48.6070908" lon="-2.0662725">
        <ele>53.908</ele>
        <time>2018-08-21T10:07:28.019Z</time>
      </trkpt>
      <trkpt lat="48.6069869" lon="-2.0663074">
        <ele>54.003</ele>
        <time>2018-08-21T10:07:31.265Z</time>
      </trkpt>
      <trkpt lat="48.6068785" lon="-2.0663566">
        <ele>53.963</ele>
        <time>2018-08-21T10:07:34.476Z</time>
      </trkpt>
      <trkpt lat="48.6067762" lon="-2.0664400">
        <ele>53.789</ele>
        <time>2018-08-21T10:07:37.468Z</time>
      </trkpt>
      <trkpt lat="48.6066795" lon="-2.0665294">
        <ele>53.591</ele>
        <time>2018-08-21T10:07:40.200Z</time>
      </trkpt>
      <trkpt lat="48.6065663" lon="-2.0665861">
        <ele>53.413</ele>
        <time>2018-08-21T10:07:42.999Z</time>
      </trkpt>
      <trkpt lat="48.6064441" lon="-2.0666074">
        <ele>53.234</ele>
        <time>2018-08-21T10:07:45.839Z</time>
      </trkpt>
      <trkpt lat="48.6063272" lon="-2.0666561">
        <ele>53.078</ele>
        <time>2018-08-21T10:07:48.575Z</time>
      </trkpt>
      <trkpt lat="48.6062153" lon="-2.0667301">
        <ele>52.948</ele>
        <time>2018-08-21T10:07:51.287Z</time>
      </trkpt>
      <trkpt lat="48.6061141" lon="-2.0668303">
        <ele>52.830</ele>
        <time>2018-08-21T10:07:53.967Z</time>
      </trkpt>
      <trkpt lat="48.6060237" lon="-2.0669419">
        <ele>52.783</ele>
        <time>2018-08-21T10:07:56.559Z</time>
      </trkpt>
      <trkpt lat="48.6059403" lon="-2.0670714">
        <ele>52.854</ele>
        <time>2018-08-21T10:07:59.224Z</time>
      </trkpt>
      <trkpt lat="48.6058664" lon="-2.0672235">
        <ele>52.984</ele>
        <time>2018-08-21T10:08:02.068Z</time>
      </trkpt>
      <trkpt lat="48.6058076" lon="-2.0673927">
        <ele>53.070</ele>
        <time>2018-08-21T10:08:04.956Z</time>
      </trkpt>
      <trkpt lat="48.6057725" lon="-2.0675513">
        <ele>53.078</ele>
        <time>2018-08-21T10:08:07.390Z</time>
      </trkpt>
      <trkpt lat="48.6057327" lon="-2.0676857">
        <ele>53.036</ele>
        <time>2018-08-21T10:08:09.486Z</time>
      </trkpt>
      <trkpt lat="48.6056692" lon="-2.0678007">
        <ele>52.947</ele>
        <time>2018-08-21T10:08:11.634Z</time>
      </trkpt>
      <trkpt lat="48.6055957" lon="-2.0679107">
        <ele>52.789</ele>
        <time>2018-08-21T10:08:13.958Z</time>
      </trkpt>
      <trkpt lat="48.6056113" lon="-2.0680802">
        <ele>52.596</ele>
        <time>2018-08-21T10:08:16.810Z</time>
      </trkpt>
      <trkpt lat="48.6056700" lon="-2.0682150">
        <ele>52.455</ele>
        <time>2018-08-21T10:08:19.651Z</time>
      </trkpt>
      <trkpt lat="48.6057094" lon="-2.0683706">
        <ele>52.409</ele>
        <time>2018-08-21T10:08:22.566Z</time>
      </trkpt>
      <trkpt lat="48.6056343" lon="-2.0684851">
        <ele>52.492</ele>
        <time>2018-08-21T10:08:25.590Z</time>
      </trkpt>
      <trkpt lat="48.6055257" lon="-2.0685263">
        <ele>52.773</ele>
        <time>2018-08-21T10:08:29.082Z</time>
      </trkpt>
      <trkpt lat="48.6054333" lon="-2.0685579">
        <ele>53.182</ele>
        <time>2018-08-21T10:08:32.348Z</time>
      </trkpt>
      <trkpt lat="48.6053293" lon="-2.0686048">
        <ele>53.514</ele>
        <time>2018-08-21T10:08:36.367Z</time>
      </trkpt>
      <trkpt lat="48.6052418" lon="-2.0686462">
        <ele>53.651</ele>
        <time>2018-08-21T10:08:40.131Z</time>
      </trkpt>
      <trkpt lat="48.6051496" lon="-2.0687066">
        <ele>53.635</ele>
        <time>2018-08-21T10:08:44.369Z</time>
      </trkpt>
      <trkpt lat="48.6050515" lon="-2.0687491">
        <ele>53.586</ele>
        <time>2018-08-21T10:08:48.583Z</time>
      </trkpt>
      <trkpt lat="48.6049491" lon="-2.0687812">
        <ele>53.603</ele>
        <time>2018-08-21T10:08:52.805Z</time>
      </trkpt>
      <trkpt lat="48.6048354" lon="-2.0688204">
        <ele>53.758</ele>
        <time>2018-08-21T10:08:57.581Z</time>
      </trkpt>
      <trkpt lat="48.6047394" lon="-2.0688456">
        <ele>54.073</ele>
        <time>2018-08-21T10:09:01.627Z</time>
      </trkpt>
      <trkpt lat="48.6046414" lon="-2.0688847">
        <ele>54.434</ele>
        <time>2018-08-21T10:09:05.725Z</time>
      </trkpt>
      <trkpt lat="48.6045272" lon="-2.0689351">
        <ele>54.681</ele>
        <time>2018-08-21T10:09:10.192Z</time>
      </trkpt>
      <trkpt lat="48.6044309" lon="-2.0689709">
        <ele>54.746</ele>
        <time>2018-08-21T10:09:13.648Z</time>
      </trkpt>
      <trkpt lat="48.6043311" lon="-2.0690154">
        <ele>54.677</ele>
        <time>2018-08-21T10:09:17.070Z</time>
      </trkpt>
      <trkpt lat="48.6042170" lon="-2.0690606">
        <ele>54.581</ele>
        <time>2018-08-21T10:09:20.637Z</time>
      </trkpt>
      <trkpt lat="48.6041074" lon="-2.0691015">
        <ele>54.530</ele>
        <time>2018-08-21T10:09:23.910Z</time>
      </trkpt>
      <trkpt lat="48.6039999" lon="-2.0691428">
        <ele>54.514</ele>
        <time>2018-08-21T10:09:27.107Z</time>
      </trkpt>
      <trkpt lat="48.6038987" lon="-2.0691792">
        <ele>54.512</ele>
        <time>2018-08-21T10:09:30.079Z</time>
      </trkpt>
      <trkpt lat="48.6037946" lon="-2.0692206">
        <ele>54.556</ele>
        <time>2018-08-21T10:09:33.072Z</time>
      </trkpt>
      <trkpt lat="48.6036899" lon="-2.0692612">
        <ele>54.677</ele>
        <time>2018-08-21T10:09:35.927Z</time>
      </trkpt>
      <trkpt lat="48.6035830" lon="-2.0692978">
        <ele>54.834</ele>
        <time>2018-08-21T10:09:38.697Z</time>
      </trkpt>
      <trkpt lat="48.6034724" lon="-2.0693306">
        <ele>54.962</ele>
        <time>2018-08-21T10:09:41.514Z</time>
      </trkpt>
      <trkpt lat="48.6033672" lon="-2.0693657">
        <ele>54.906</ele>
        <time>2018-08-21T10:09:44.208Z</time>
      </trkpt>
      <trkpt lat="48.6032570" lon="-2.0694244">
        <ele>54.596</ele>
        <time>2018-08-21T10:09:47.135Z</time>
      </trkpt>
      <trkpt lat="48.6031597" lon="-2.0694679">
        <ele>54.254</ele>
        <time>2018-08-21T10:09:49.667Z</time>
      </trkpt>
      <trkpt lat="48.6030600" lon="-2.0695062">
        <ele>54.109</ele>
        <time>2018-08-21T10:09:52.233Z</time>
      </trkpt>
      <trkpt lat="48.6029499" lon="-2.0695300">
        <ele>54.142</ele>
        <time>2018-08-21T10:09:55.150Z</time>
      </trkpt>
      <trkpt lat="48.6028392" lon="-2.0695682">
        <ele>54.277</ele>
        <time>2018-08-21T10:09:58.247Z</time>
      </trkpt>
      <trkpt lat="48.6027273" lon="-2.0696126">
        <ele>54.470</ele>
        <time>2018-08-21T10:10:01.410Z</time>
      </trkpt>
      <trkpt lat="48.6026085" lon="-2.0696581">
        <ele>54.658</ele>
        <time>2018-08-21T10:10:04.613Z</time>
      </trkpt>
      <trkpt lat="48.6024828" lon="-2.0696770">
        <ele>54.767</ele>
        <time>2018-08-21T10:10:07.928Z</time>
      </trkpt>
      <trkpt lat="48.6023724" lon="-2.0697283">
        <ele>54.707</ele>
        <time>2018-08-21T10:10:10.952Z</time>
      </trkpt>
      <trkpt lat="48.6022536" lon="-2.0697865">
        <ele>54.471</ele>
        <time>2018-08-21T10:10:14.130Z</time>
      </trkpt>
      <trkpt lat="48.6021383" lon="-2.0698370">
        <ele>54.238</ele>
        <time>2018-08-21T10:10:17.100Z</time>
      </trkpt>
      <trkpt lat="48.6020168" lon="-2.0698933">
        <ele>54.165</ele>
        <time>2018-08-21T10:10:20.101Z</time>
      </trkpt>
      <trkpt lat="48.6019112" lon="-2.0699490">
        <ele>54.240</ele>
        <time>2018-08-21T10:10:22.628Z</time>
      </trkpt>
      <trkpt lat="48.6017901" lon="-2.0699869">
        <ele>54.384</ele>
        <time>2018-08-21T10:10:25.390Z</time>
      </trkpt>
      <trkpt lat="48.6016818" lon="-2.0700180">
        <ele>54.512</ele>
        <time>2018-08-21T10:10:27.864Z</time>
      </trkpt>
      <trkpt lat="48.6015904" lon="-2.0700590">
        <ele>54.601</ele>
        <time>2018-08-21T10:10:30.006Z</time>
      </trkpt>
      <trkpt lat="48.6014614" lon="-2.0701088">
        <ele>54.671</ele>
        <time>2018-08-21T10:10:32.942Z</time>
      </trkpt>
      <trkpt lat="48.6013479" lon="-2.0701637">
        <ele>54.682</ele>
        <time>2018-08-21T10:10:35.543Z</time>
      </trkpt>
      <trkpt lat="48.6012570" lon="-2.0702081">
        <ele>54.600</ele>
        <time>2018-08-21T10:10:37.702Z</time>
      </trkpt>
      <trkpt lat="48.6011490" lon="-2.0702572">
        <ele>54.490</ele>
        <time>2018-08-21T10:10:40.298Z</time>
      </trkpt>
      <trkpt lat="48.6010383" lon="-2.0702866">
        <ele>54.421</ele>
        <time>2018-08-21T10:10:42.917Z</time>
      </trkpt>
      <trkpt lat="48.6009175" lon="-2.0703248">
        <ele>54.338</ele>
        <time>2018-08-21T10:10:45.923Z</time>
      </trkpt>
      <trkpt lat="48.6007959" lon="-2.0703568">
        <ele>54.132</ele>
        <time>2018-08-21T10:10:49.124Z</time>
      </trkpt>
      <trkpt lat="48.6006808" lon="-2.0703850">
        <ele>53.821</ele>
        <time>2018-08-21T10:10:51.929Z</time>
      </trkpt>
      <trkpt lat="48.6005573" lon="-2.0704254">
        <ele>53.562</ele>
        <time>2018-08-21T10:10:54.896Z</time>
      </trkpt>
      <trkpt lat="48.6004404" lon="-2.0704863">
        <ele>53.457</ele>
        <time>2018-08-21T10:10:58.193Z</time>
      </trkpt>
      <trkpt lat="48.6003117" lon="-2.0705339">
        <ele>53.532</ele>
        <time>2018-08-21T10:11:01.836Z</time>
      </trkpt>
      <trkpt lat="48.6001860" lon="-2.0705853">
        <ele>53.749</ele>
        <time>2018-08-21T10:11:05.086Z</time>
      </trkpt>
      <trkpt lat="48.6000630" lon="-2.0706390">
        <ele>53.986</ele>
        <time>2018-08-21T10:11:08.092Z</time>
      </trkpt>
      <trkpt lat="48.5999535" lon="-2.0706685">
        <ele>54.174</ele>
        <time>2018-08-21T10:11:10.756Z</time>
      </trkpt>
      <trkpt lat="48.5998156" lon="-2.0707068">
        <ele>54.327</ele>
        <time>2018-08-21T10:11:14.183Z</time>
      </trkpt>
      <trkpt lat="48.5997271" lon="-2.0707400">
        <ele>54.419</ele>
        <time>2018-08-21T10:11:16.387Z</time>
      </trkpt>
      <trkpt lat="48.5996163" lon="-2.0707909">
        <ele>54.433</ele>
        <time>2018-08-21T10:11:19.156Z</time>
      </trkpt>
      <trkpt lat="48.5995038" lon="-2.0708342">
        <ele>54.410</ele>
        <time>2018-08-21T10:11:21.895Z</time>
      </trkpt>
      <trkpt lat="48.5993969" lon="-2.0708815">
        <ele>54.352</ele>
        <time>2018-08-21T10:11:24.504Z</time>
      </trkpt>
      <trkpt lat="48.5993007" lon="-2.0709224">
        <ele>54.242</ele>
        <time>2018-08-21T10:11:26.894Z</time>
      </trkpt>
      <trkpt lat="48.5991835" lon="-2.0709757">
        <ele>54.130</ele>
        <time>2018-08-21T10:11:30.005Z</time>
      </trkpt>
      <trkpt lat="48.5990617" lon="-2.0710159">
        <ele>54.073</ele>
        <time>2018-08-21T10:11:32.987Z</time>
      </trkpt>
      <trkpt lat="48.5989272" lon="-2.0710617">
        <ele>54.042</ele>
        <time>2018-08-21T10:11:35.982Z</time>
      </trkpt>
      <trkpt lat="48.5988121" lon="-2.0711055">
        <ele>53.987</ele>
        <time>2018-08-21T10:11:38.662Z</time>
      </trkpt>
      <trkpt lat="48.5987191" lon="-2.0711415">
        <ele>53.925</ele>
        <time>2018-08-21T10:11:40.881Z</time>
      </trkpt>
      <trkpt lat="48.5986045" lon="-2.0711782">
        <ele>53.923</ele>
        <time>2018-08-21T10:11:43.682Z</time>
      </trkpt>
      <trkpt lat="48.5984803" lon="-2.0712072">
        <ele>53.986</ele>
        <time>2018-08-21T10:11:46.947Z</time>
      </trkpt>
      <trkpt lat="48.5983504" lon="-2.0712615">
        <ele>54.012</ele>
        <time>2018-08-21T10:11:50.325Z</time>
      </trkpt>
      <trkpt lat="48.5982178" lon="-2.0713196">
        <ele>53.884</ele>
        <time>2018-08-21T10:11:53.568Z</time>
      </trkpt>
      <trkpt lat="48.5980918" lon="-2.0713784">
        <ele>53.597</ele>
        <time>2018-08-21T10:11:56.540Z</time>
      </trkpt>
      <trkpt lat="48.5979697" lon="-2.0714335">
        <ele>53.277</ele>
        <time>2018-08-21T10:11:59.446Z</time>
      </trkpt>
      <trkpt lat="48.5978653" lon="-2.0714875">
        <ele>52.984</ele>
        <time>2018-08-21T10:12:02.226Z</time>
      </trkpt>
      <trkpt lat="48.5977462" lon="-2.0715512">
        <ele>52.696</ele>
        <time>2018-08-21T10:12:05.584Z</time>
      </trkpt>
      <trkpt lat="48.5976395" lon="-2.0715989">
        <ele>52.461</ele>
        <time>2018-08-21T10:12:08.332Z</time>
      </trkpt>
      <trkpt lat="48.5975495" lon="-2.0716400">
        <ele>52.324</ele>
        <time>2018-08-21T10:12:10.456Z</time>
      </trkpt>
      <trkpt lat="48.5974563" lon="-2.0716865">
        <ele>52.232</ele>
        <time>2018-08-21T10:12:12.620Z</time>
      </trkpt>
      <trkpt lat="48.5973457" lon="-2.0717253">
        <ele>52.192</ele>
        <time>2018-08-21T10:12:15.115Z</time>
      </trkpt>
      <trkpt lat="48.5972302" lon="-2.0717634">
        <ele>52.265</ele>
        <time>2018-08-21T10:12:17.738Z</time>
      </trkpt>
      <trkpt lat="48.5971245" lon="-2.0718081">
        <ele>52.485</ele>
        <time>2018-08-21T10:12:20.206Z</time>
      </trkpt>
      <trkpt lat="48.5970194" lon="-2.0718521">
        <ele>52.843</ele>
        <time>2018-08-21T10:12:22.757Z</time>
      </trkpt>
      <trkpt lat="48.5969165" lon="-2.0718928">
        <ele>53.228</ele>
        <time>2018-08-21T10:12:25.249Z</time>
      </trkpt>
      <trkpt lat="48.5968027" lon="-2.0719273">
        <ele>53.375</ele>
        <time>2018-08-21T10:12:27.969Z</time>
      </trkpt>
      <trkpt lat="48.5966808" lon="-2.0719537">
        <ele>53.149</ele>
        <time>2018-08-21T10:12:31.152Z</time>
      </trkpt>
      <trkpt lat="48.5965637" lon="-2.0719832">
        <ele>52.634</ele>
        <time>2018-08-21T10:12:34.592Z</time>
      </trkpt>
      <trkpt lat="48.5964486" lon="-2.0720197">
        <ele>51.961</ele>
        <time>2018-08-21T10:12:37.887Z</time>
      </trkpt>
      <trkpt lat="48.5963481" lon="-2.0720449">
        <ele>51.217</ele>
        <time>2018-08-21T10:12:40.526Z</time>
      </trkpt>
      <trkpt lat="48.5962421" lon="-2.0720701">
        <ele>50.531</ele>
        <time>2018-08-21T10:12:43.174Z</time>
      </trkpt>
      <trkpt lat="48.5961469" lon="-2.0720852">
        <ele>50.080</ele>
        <time>2018-08-21T10:12:45.571Z</time>
      </trkpt>
      <trkpt lat="48.5960437" lon="-2.0720972">
        <ele>49.932</ele>
        <time>2018-08-21T10:12:48.245Z</time>
      </trkpt>
      <trkpt lat="48.5959440" lon="-2.0720905">
        <ele>49.949</ele>
        <time>2018-08-21T10:12:50.842Z</time>
      </trkpt>
      <trkpt lat="48.5958498" lon="-2.0721032">
        <ele>50.060</ele>
        <time>2018-08-21T10:12:53.226Z</time>
      </trkpt>
      <trkpt lat="48.5957583" lon="-2.0720967">
        <ele>50.330</ele>
        <time>2018-08-21T10:12:55.423Z</time>
      </trkpt>
      <trkpt lat="48.5956643" lon="-2.0720949">
        <ele>50.878</ele>
        <time>2018-08-21T10:12:57.648Z</time>
      </trkpt>
      <trkpt lat="48.5955721" lon="-2.0720991">
        <ele>51.586</ele>
        <time>2018-08-21T10:12:59.817Z</time>
      </trkpt>
      <trkpt lat="48.5954612" lon="-2.0721263">
        <ele>52.110</ele>
        <time>2018-08-21T10:13:02.471Z</time>
      </trkpt>
      <trkpt lat="48.5953572" lon="-2.0720685">
        <ele>52.356</ele>
        <time>2018-08-21T10:13:05.179Z</time>
      </trkpt>
      <trkpt lat="48.5952611" lon="-2.0720697">
        <ele>52.686</ele>
        <time>2018-08-21T10:13:07.658Z</time>
      </trkpt>
      <trkpt lat="48.5951709" lon="-2.0720666">
        <ele>53.285</ele>
        <time>2018-08-21T10:13:10.053Z</time>
      </trkpt>
      <trkpt lat="48.5950776" lon="-2.0720606">
        <ele>53.790</ele>
        <time>2018-08-21T10:13:12.725Z</time>
      </trkpt>
      <trkpt lat="48.5949840" lon="-2.0720381">
        <ele>53.907</ele>
        <time>2018-08-21T10:13:15.677Z</time>
      </trkpt>
      <trkpt lat="48.5948879" lon="-2.0719887">
        <ele>53.790</ele>
        <time>2018-08-21T10:13:19.436Z</time>
      </trkpt>
      <trkpt lat="48.5947999" lon="-2.0719589">
        <ele>53.648</ele>
        <time>2018-08-21T10:13:23.295Z</time>
      </trkpt>
      <trkpt lat="48.5947090" lon="-2.0719232">
        <ele>53.547</ele>
        <time>2018-08-21T10:13:27.629Z</time>
      </trkpt>
      <trkpt lat="48.5946176" lon="-2.0718802">
        <ele>53.482</ele>
        <time>2018-08-21T10:13:32.066Z</time>
      </trkpt>
      <trkpt lat="48.5945369" lon="-2.0718174">
        <ele>53.427</ele>
        <time>2018-08-21T10:13:36.047Z</time>
      </trkpt>
      <trkpt lat="48.5944356" lon="-2.0717668">
        <ele>53.365</ele>
        <time>2018-08-21T10:13:40.759Z</time>
      </trkpt>
      <trkpt lat="48.5943337" lon="-2.0717189">
        <ele>53.300</ele>
        <time>2018-08-21T10:13:45.602Z</time>
      </trkpt>
      <trkpt lat="48.5942323" lon="-2.0716672">
        <ele>53.260</ele>
        <time>2018-08-21T10:13:50.768Z</time>
      </trkpt>
      <trkpt lat="48.5941397" lon="-2.0716071">
        <ele>53.457</ele>
        <time>2018-08-21T10:13:56.634Z</time>
      </trkpt>
      <trkpt lat="48.5940300" lon="-2.0715570">
        <ele>54.075</ele>
        <time>2018-08-21T10:14:03.835Z</time>
      </trkpt>
      <trkpt lat="48.5939378" lon="-2.0715145">
        <ele>54.828</ele>
        <time>2018-08-21T10:14:09.060Z</time>
      </trkpt>
      <trkpt lat="48.5938497" lon="-2.0714679">
        <ele>55.239</ele>
        <time>2018-08-21T10:14:13.559Z</time>
      </trkpt>
      <trkpt lat="48.5937601" lon="-2.0714166">
        <ele>55.236</ele>
        <time>2018-08-21T10:14:17.858Z</time>
      </trkpt>
      <trkpt lat="48.5936575" lon="-2.0713708">
        <ele>55.152</ele>
        <time>2018-08-21T10:14:22.604Z</time>
      </trkpt>
      <trkpt lat="48.5935695" lon="-2.0713388">
        <ele>55.332</ele>
        <time>2018-08-21T10:14:27.197Z</time>
      </trkpt>
      <trkpt lat="48.5934696" lon="-2.0712979">
        <ele>55.723</ele>
        <time>2018-08-21T10:14:32.994Z</time>
      </trkpt>
      <trkpt lat="48.5933780" lon="-2.0712497">
        <ele>56.042</ele>
        <time>2018-08-21T10:14:38.898Z</time>
      </trkpt>
      <trkpt lat="48.5932811" lon="-2.0711916">
        <ele>56.170</ele>
        <time>2018-08-21T10:14:45.981Z</time>
      </trkpt>
      <trkpt lat="48.5931988" lon="-2.0711178">
        <ele>56.177</ele>
        <time>2018-08-21T10:14:51.445Z</time>
      </trkpt>
      <trkpt lat="48.5930962" lon="-2.0710437">
        <ele>56.192</ele>
        <time>2018-08-21T10:14:57.282Z</time>
      </trkpt>
      <trkpt lat="48.5929985" lon="-2.0709956">
        <ele>56.358</ele>
        <time>2018-08-21T10:15:01.841Z</time>
      </trkpt>
      <trkpt lat="48.5928977" lon="-2.0709552">
        <ele>56.721</ele>
        <time>2018-08-21T10:15:07.481Z</time>
      </trkpt>
      <trkpt lat="48.5927986" lon="-2.0709121">
        <ele>57.120</ele>
        <time>2018-08-21T10:15:13.860Z</time>
      </trkpt>
      <trkpt lat="48.5927120" lon="-2.0708616">
        <ele>57.366</ele>
        <time>2018-08-21T10:15:17.840Z</time>
      </trkpt>
      <trkpt lat="48.5926216" lon="-2.0708253">
        <ele>57.543</ele>
        <time>2018-08-21T10:15:21.645Z</time>
      </trkpt>
      <trkpt lat="48.5925259" lon="-2.0707703">
        <ele>57.800</ele>
        <time>2018-08-21T10:15:26.770Z</time>
      </trkpt>
      <trkpt lat="48.5924295" lon="-2.0707072">
        <ele>58.038</ele>
        <time>2018-08-21T10:15:33.743Z</time>
      </trkpt>
      <trkpt lat="48.5923356" lon="-2.0706441">
        <ele>58.136</ele>
        <time>2018-08-21T10:15:40.006Z</time>
      </trkpt>
      <trkpt lat="48.5922437" lon="-2.0706041">
        <ele>58.162</ele>
        <time>2018-08-21T10:15:44.912Z</time>
      </trkpt>
      <trkpt lat="48.5921584" lon="-2.0705574">
        <ele>58.210</ele>
        <time>2018-08-21T10:15:49.495Z</time>
      </trkpt>
      <trkpt lat="48.5920714" lon="-2.0704951">
        <ele>58.384</ele>
        <time>2018-08-21T10:15:53.635Z</time>
      </trkpt>
      <trkpt lat="48.5919785" lon="-2.0704535">
        <ele>58.711</ele>
        <time>2018-08-21T10:15:58.459Z</time>
      </trkpt>
      <trkpt lat="48.5918645" lon="-2.0704071">
        <ele>59.029</ele>
        <time>2018-08-21T10:16:05.005Z</time>
      </trkpt>
      <trkpt lat="48.5917657" lon="-2.0703793">
        <ele>59.109</ele>
        <time>2018-08-21T10:16:10.433Z</time>
      </trkpt>
      <trkpt lat="48.5916560" lon="-2.0703643">
        <ele>58.937</ele>
        <time>2018-08-21T10:16:15.838Z</time>
      </trkpt>
      <trkpt lat="48.5915472" lon="-2.0703116">
        <ele>58.695</ele>
        <time>2018-08-21T10:16:22.043Z</time>
      </trkpt>
      <trkpt lat="48.5914552" lon="-2.0702563">
        <ele>58.557</ele>
        <time>2018-08-21T10:16:28.222Z</time>
      </trkpt>
      <trkpt lat="48.5913608" lon="-2.0701920">
        <ele>58.545</ele>
        <time>2018-08-21T10:16:34.020Z</time>
      </trkpt>
      <trkpt lat="48.5912779" lon="-2.0701143">
        <ele>58.603</ele>
        <time>2018-08-21T10:16:39.494Z</time>
      </trkpt>
      <trkpt lat="48.5911728" lon="-2.0700461">
        <ele>58.714</ele>
        <time>2018-08-21T10:16:45.314Z</time>
      </trkpt>
      <trkpt lat="48.5910713" lon="-2.0699635">
        <ele>58.905</ele>
        <time>2018-08-21T10:16:51.419Z</time>
      </trkpt>
      <trkpt lat="48.5909853" lon="-2.0699095">
        <ele>59.280</ele>
        <time>2018-08-21T10:16:56.507Z</time>
      </trkpt>
      <trkpt lat="48.5908966" lon="-2.0698577">
        <ele>59.878</ele>
        <time>2018-08-21T10:17:01.871Z</time>
      </trkpt>
      <trkpt lat="48.5907973" lon="-2.0697865">
        <ele>60.446</ele>
        <time>2018-08-21T10:17:07.818Z</time>
      </trkpt>
      <trkpt lat="48.5907159" lon="-2.0697193">
        <ele>60.756</ele>
        <time>2018-08-21T10:17:13.160Z</time>
      </trkpt>
      <trkpt lat="48.5906207" lon="-2.0696662">
        <ele>60.892</ele>
        <time>2018-08-21T10:17:19.012Z</time>
      </trkpt>
      <trkpt lat="48.5905228" lon="-2.0696191">
        <ele>60.971</ele>
        <time>2018-08-21T10:17:25.166Z</time>
      </trkpt>
      <trkpt lat="48.5904309" lon="-2.0695648">
        <ele>61.015</ele>
        <time>2018-08-21T10:17:31.209Z</time>
      </trkpt>
      <trkpt lat="48.5903396" lon="-2.0695165">
        <ele>61.019</ele>
        <time>2018-08-21T10:17:36.983Z</time>
      </trkpt>
      <trkpt lat="48.5902518" lon="-2.0694828">
        <ele>60.991</ele>
        <time>2018-08-21T10:17:42.078Z</time>
      </trkpt>
      <trkpt lat="48.5901752" lon="-2.0694118">
        <ele>60.950</ele>
        <time>2018-08-21T10:17:47.159Z</time>
      </trkpt>
      <trkpt lat="48.5900903" lon="-2.0693308">
        <ele>60.926</ele>
        <time>2018-08-21T10:17:52.804Z</time>
      </trkpt>
      <trkpt lat="48.5899962" lon="-2.0692773">
        <ele>60.927</ele>
        <time>2018-08-21T10:17:58.748Z</time>
      </trkpt>
      <trkpt lat="48.5899033" lon="-2.0692397">
        <ele>60.881</ele>
        <time>2018-08-21T10:18:04.964Z</time>
      </trkpt>
      <trkpt lat="48.5898421" lon="-2.0691059">
        <ele>60.738</ele>
        <time>2018-08-21T10:18:12.460Z</time>
      </trkpt>
      <trkpt lat="48.5898045" lon="-2.0689557">
        <ele>60.681</ele>
        <time>2018-08-21T10:18:19.279Z</time>
      </trkpt>
      <trkpt lat="48.5897863" lon="-2.0688223">
        <ele>60.949</ele>
        <time>2018-08-21T10:18:24.389Z</time>
      </trkpt>
      <trkpt lat="48.5897722" lon="-2.0686350">
        <ele>61.435</ele>
        <time>2018-08-21T10:18:29.896Z</time>
      </trkpt>
      <trkpt lat="48.5897225" lon="-2.0685012">
        <ele>61.752</ele>
        <time>2018-08-21T10:18:33.418Z</time>
      </trkpt>
      <trkpt lat="48.5896051" lon="-2.0685060">
        <ele>61.730</ele>
        <time>2018-08-21T10:18:37.093Z</time>
      </trkpt>
      <trkpt lat="48.5894792" lon="-2.0685484">
        <ele>61.611</ele>
        <time>2018-08-21T10:18:40.690Z</time>
      </trkpt>
      <trkpt lat="48.5893659" lon="-2.0685753">
        <ele>61.649</ele>
        <time>2018-08-21T10:18:43.566Z</time>
      </trkpt>
      <trkpt lat="48.5892531" lon="-2.0685939">
        <ele>61.890</ele>
        <time>2018-08-21T10:18:46.297Z</time>
      </trkpt>
      <trkpt lat="48.5891305" lon="-2.0686059">
        <ele>62.271</ele>
        <time>2018-08-21T10:18:49.111Z</time>
      </trkpt>
      <trkpt lat="48.5890050" lon="-2.0686230">
        <ele>62.633</ele>
        <time>2018-08-21T10:18:51.846Z</time>
      </trkpt>
      <trkpt lat="48.5888896" lon="-2.0686320">
        <ele>62.852</ele>
        <time>2018-08-21T10:18:54.415Z</time>
      </trkpt>
      <trkpt lat="48.5887803" lon="-2.0686413">
        <ele>63.008</ele>
        <time>2018-08-21T10:18:56.979Z</time>
      </trkpt>
      <trkpt lat="48.5886783" lon="-2.0686521">
        <ele>63.236</ele>
        <time>2018-08-21T10:18:59.495Z</time>
      </trkpt>
      <trkpt lat="48.5885844" lon="-2.0686389">
        <ele>63.769</ele>
        <time>2018-08-21T10:19:01.930Z</time>
      </trkpt>
      <trkpt lat="48.5884849" lon="-2.0685796">
        <ele>64.719</ele>
        <time>2018-08-21T10:19:04.900Z</time>
      </trkpt>
      <trkpt lat="48.5883945" lon="-2.0685050">
        <ele>65.787</ele>
        <time>2018-08-21T10:19:07.991Z</time>
      </trkpt>
      <trkpt lat="48.5882989" lon="-2.0684646">
        <ele>66.581</ele>
        <time>2018-08-21T10:19:11.754Z</time>
      </trkpt>
      <trkpt lat="48.5882131" lon="-2.0684026">
        <ele>66.973</ele>
        <time>2018-08-21T10:19:15.871Z</time>
      </trkpt>
      <trkpt lat="48.5881123" lon="-2.0683584">
        <ele>67.031</ele>
        <time>2018-08-21T10:19:20.848Z</time>
      </trkpt>
      <trkpt lat="48.5880062" lon="-2.0683184">
        <ele>66.947</ele>
        <time>2018-08-21T10:19:25.793Z</time>
      </trkpt>
      <trkpt lat="48.5879142" lon="-2.0682559">
        <ele>66.850</ele>
        <time>2018-08-21T10:19:30.471Z</time>
      </trkpt>
      <trkpt lat="48.5878097" lon="-2.0682028">
        <ele>66.770</ele>
        <time>2018-08-21T10:19:35.997Z</time>
      </trkpt>
      <trkpt lat="48.5877132" lon="-2.0681463">
        <ele>66.723</ele>
        <time>2018-08-21T10:19:41.180Z</time>
      </trkpt>
      <trkpt lat="48.5876123" lon="-2.0680864">
        <ele>66.624</ele>
        <time>2018-08-21T10:19:47.234Z</time>
      </trkpt>
      <trkpt lat="48.5875143" lon="-2.0680513">
        <ele>66.330</ele>
        <time>2018-08-21T10:19:52.327Z</time>
      </trkpt>
      <trkpt lat="48.5874232" lon="-2.0679945">
        <ele>65.957</ele>
        <time>2018-08-21T10:19:57.205Z</time>
      </trkpt>
      <trkpt lat="48.5873120" lon="-2.0679272">
        <ele>65.721</ele>
        <time>2018-08-21T10:20:02.853Z</time>
      </trkpt>
      <trkpt lat="48.5872164" lon="-2.0678905">
        <ele>65.653</ele>
        <time>2018-08-21T10:20:06.746Z</time>
      </trkpt>
      <trkpt lat="48.5871148" lon="-2.0678342">
        <ele>65.731</ele>
        <time>2018-08-21T10:20:11.750Z</time>
      </trkpt>
      <trkpt lat="48.5870080" lon="-2.0677757">
        <ele>66.040</ele>
        <time>2018-08-21T10:20:17.996Z</time>
      </trkpt>
      <trkpt lat="48.5869222" lon="-2.0677196">
        <ele>66.754</ele>
        <time>2018-08-21T10:20:22.678Z</time>
      </trkpt>
      <trkpt lat="48.5868261" lon="-2.0676600">
        <ele>67.743</ele>
        <time>2018-08-21T10:20:26.868Z</time>
      </trkpt>
      <trkpt lat="48.5867115" lon="-2.0676194">
        <ele>68.496</ele>
        <time>2018-08-21T10:20:32.059Z</time>
      </trkpt>
      <trkpt lat="48.5866167" lon="-2.0675336">
        <ele>68.691</ele>
        <time>2018-08-21T10:20:37.166Z</time>
      </trkpt>
      <trkpt lat="48.5865196" lon="-2.0674686">
        <ele>68.453</ele>
        <time>2018-08-21T10:20:41.942Z</time>
      </trkpt>
      <trkpt lat="48.5864212" lon="-2.0674264">
        <ele>68.167</ele>
        <time>2018-08-21T10:20:46.439Z</time>
      </trkpt>
      <trkpt lat="48.5863181" lon="-2.0673819">
        <ele>68.099</ele>
        <time>2018-08-21T10:20:50.993Z</time>
      </trkpt>
      <trkpt lat="48.5862329" lon="-2.0673032">
        <ele>68.173</ele>
        <time>2018-08-21T10:20:55.282Z</time>
      </trkpt>
      <trkpt lat="48.5861324" lon="-2.0672343">
        <ele>68.113</ele>
        <time>2018-08-21T10:20:59.826Z</time>
      </trkpt>
      <trkpt lat="48.5860397" lon="-2.0671947">
        <ele>67.798</ele>
        <time>2018-08-21T10:21:03.461Z</time>
      </trkpt>
      <trkpt lat="48.5859516" lon="-2.0671440">
        <ele>67.573</ele>
        <time>2018-08-21T10:21:06.846Z</time>
      </trkpt>
      <trkpt lat="48.5858555" lon="-2.0670873">
        <ele>67.763</ele>
        <time>2018-08-21T10:21:10.637Z</time>
      </trkpt>
      <trkpt lat="48.5857450" lon="-2.0670300">
        <ele>68.243</ele>
        <time>2018-08-21T10:21:15.085Z</time>
      </trkpt>
      <trkpt lat="48.5856527" lon="-2.0669884">
        <ele>68.826</ele>
        <time>2018-08-21T10:21:18.662Z</time>
      </trkpt>
      <trkpt lat="48.5855545" lon="-2.0669386">
        <ele>69.498</ele>
        <time>2018-08-21T10:21:22.368Z</time>
      </trkpt>
      <trkpt lat="48.5854593" lon="-2.0668871">
        <ele>70.168</ele>
        <time>2018-08-21T10:21:26.011Z</time>
      </trkpt>
      <trkpt lat="48.5853616" lon="-2.0668426">
        <ele>70.731</ele>
        <time>2018-08-21T10:21:29.751Z</time>
      </trkpt>
      <trkpt lat="48.5852580" lon="-2.0667875">
        <ele>71.181</ele>
        <time>2018-08-21T10:21:33.788Z</time>
      </trkpt>
      <trkpt lat="48.5851619" lon="-2.0667270">
        <ele>71.478</ele>
        <time>2018-08-21T10:21:37.965Z</time>
      </trkpt>
      <trkpt lat="48.5850671" lon="-2.0666698">
        <ele>71.654</ele>
        <time>2018-08-21T10:21:42.334Z</time>
      </trkpt>
      <trkpt lat="48.5849770" lon="-2.0666248">
        <ele>71.834</ele>
        <time>2018-08-21T10:21:46.282Z</time>
      </trkpt>
      <trkpt lat="48.5848872" lon="-2.0665683">
        <ele>71.949</ele>
        <time>2018-08-21T10:21:50.117Z</time>
      </trkpt>
      <trkpt lat="48.5847824" lon="-2.0665296">
        <ele>71.763</ele>
        <time>2018-08-21T10:21:54.211Z</time>
      </trkpt>
      <trkpt lat="48.5846860" lon="-2.0664664">
        <ele>71.116</ele>
        <time>2018-08-21T10:21:58.053Z</time>
      </trkpt>
      <trkpt lat="48.5845987" lon="-2.0664094">
        <ele>70.239</ele>
        <time>2018-08-21T10:22:01.435Z</time>
      </trkpt>
      <trkpt lat="48.5845055" lon="-2.0663587">
        <ele>69.608</ele>
        <time>2018-08-21T10:22:04.885Z</time>
      </trkpt>
      <trkpt lat="48.5844140" lon="-2.0662997">
        <ele>69.534</ele>
        <time>2018-08-21T10:22:08.269Z</time>
      </trkpt>
      <trkpt lat="48.5843095" lon="-2.0662531">
        <ele>70.017</ele>
        <time>2018-08-21T10:22:11.877Z</time>
      </trkpt>
      <trkpt lat="48.5842022" lon="-2.0661986">
        <ele>70.716</ele>
        <time>2018-08-21T10:22:15.560Z</time>
      </trkpt>
      <trkpt lat="48.5840937" lon="-2.0661442">
        <ele>71.197</ele>
        <time>2018-08-21T10:22:19.259Z</time>
      </trkpt>
      <trkpt lat="48.5839925" lon="-2.0660817">
        <ele>71.351</ele>
        <time>2018-08-21T10:22:22.816Z</time>
      </trkpt>
      <trkpt lat="48.5838889" lon="-2.0660209">
        <ele>71.320</ele>
        <time>2018-08-21T10:22:26.812Z</time>
      </trkpt>
      <trkpt lat="48.5837923" lon="-2.0659579">
        <ele>71.249</ele>
        <time>2018-08-21T10:22:30.878Z</time>
      </trkpt>
      <trkpt lat="48.5836985" lon="-2.0659032">
        <ele>71.161</ele>
        <time>2018-08-21T10:22:34.971Z</time>
      </trkpt>
      <trkpt lat="48.5836018" lon="-2.0658435">
        <ele>71.010</ele>
        <time>2018-08-21T10:22:39.418Z</time>
      </trkpt>
      <trkpt lat="48.5835066" lon="-2.0657853">
        <ele>70.859</ele>
        <time>2018-08-21T10:22:43.862Z</time>
      </trkpt>
      <trkpt lat="48.5834157" lon="-2.0657132">
        <ele>70.749</ele>
        <time>2018-08-21T10:22:47.758Z</time>
      </trkpt>
      <trkpt lat="48.5833255" lon="-2.0656619">
        <ele>70.680</ele>
        <time>2018-08-21T10:22:50.932Z</time>
      </trkpt>
      <trkpt lat="48.5832293" lon="-2.0656134">
        <ele>70.683</ele>
        <time>2018-08-21T10:22:54.062Z</time>
      </trkpt>
      <trkpt lat="48.5831105" lon="-2.0655775">
        <ele>70.733</ele>
        <time>2018-08-21T10:22:58.170Z</time>
      </trkpt>
      <trkpt lat="48.5830190" lon="-2.0655293">
        <ele>70.767</ele>
        <time>2018-08-21T10:23:01.795Z</time>
      </trkpt>
      <trkpt lat="48.5829312" lon="-2.0654570">
        <ele>70.842</ele>
        <time>2018-08-21T10:23:05.449Z</time>
      </trkpt>
      <trkpt lat="48.5828305" lon="-2.0653917">
        <ele>71.037</ele>
        <time>2018-08-21T10:23:09.394Z</time>
      </trkpt>
      <trkpt lat="48.5827377" lon="-2.0653582">
        <ele>71.305</ele>
        <time>2018-08-21T10:23:12.791Z</time>
      </trkpt>
      <trkpt lat="48.5826367" lon="-2.0653030">
        <ele>71.435</ele>
        <time>2018-08-21T10:23:17.169Z</time>
      </trkpt>
      <trkpt lat="48.5825303" lon="-2.0652413">
        <ele>71.338</ele>
        <time>2018-08-21T10:23:22.155Z</time>
      </trkpt>
      <trkpt lat="48.5824487" lon="-2.0651678">
        <ele>71.164</ele>
        <time>2018-08-21T10:23:26.502Z</time>
      </trkpt>
      <trkpt lat="48.5823571" lon="-2.0651205">
        <ele>71.028</ele>
        <time>2018-08-21T10:23:30.842Z</time>
      </trkpt>
      <trkpt lat="48.5822534" lon="-2.0650669">
        <ele>70.893</ele>
        <time>2018-08-21T10:23:34.978Z</time>
      </trkpt>
      <trkpt lat="48.5821583" lon="-2.0650312">
        <ele>70.748</ele>
        <time>2018-08-21T10:23:38.078Z</time>
      </trkpt>
      <trkpt lat="48.5820726" lon="-2.0649873">
        <ele>70.635</ele>
        <time>2018-08-21T10:23:40.917Z</time>
      </trkpt>
      <trkpt lat="48.5819884" lon="-2.0649191">
        <ele>70.580</ele>
        <time>2018-08-21T10:23:43.944Z</time>
      </trkpt>
      <trkpt lat="48.5818906" lon="-2.0648552">
        <ele>70.474</ele>
        <time>2018-08-21T10:23:47.176Z</time>
      </trkpt>
      <trkpt lat="48.5817806" lon="-2.0647848">
        <ele>70.205</ele>
        <time>2018-08-21T10:23:50.893Z</time>
      </trkpt>
      <trkpt lat="48.5816622" lon="-2.0647529">
        <ele>69.875</ele>
        <time>2018-08-21T10:23:54.848Z</time>
      </trkpt>
      <trkpt lat="48.5815559" lon="-2.0647137">
        <ele>69.622</ele>
        <time>2018-08-21T10:23:58.346Z</time>
      </trkpt>
      <trkpt lat="48.5814549" lon="-2.0646534">
        <ele>69.454</ele>
        <time>2018-08-21T10:24:01.622Z</time>
      </trkpt>
      <trkpt lat="48.5813509" lon="-2.0645809">
        <ele>69.436</ele>
        <time>2018-08-21T10:24:05.216Z</time>
      </trkpt>
      <trkpt lat="48.5812630" lon="-2.0645290">
        <ele>69.638</ele>
        <time>2018-08-21T10:24:08.425Z</time>
      </trkpt>
      <trkpt lat="48.5811759" lon="-2.0644696">
        <ele>69.982</ele>
        <time>2018-08-21T10:24:11.581Z</time>
      </trkpt>
      <trkpt lat="48.5810893" lon="-2.0644068">
        <ele>70.360</ele>
        <time>2018-08-21T10:24:14.605Z</time>
      </trkpt>
      <trkpt lat="48.5809739" lon="-2.0643376">
        <ele>70.707</ele>
        <time>2018-08-21T10:24:18.504Z</time>
      </trkpt>
      <trkpt lat="48.5808814" lon="-2.0642882">
        <ele>70.953</ele>
        <time>2018-08-21T10:24:21.590Z</time>
      </trkpt>
      <trkpt lat="48.5807786" lon="-2.0642299">
        <ele>71.092</ele>
        <time>2018-08-21T10:24:24.961Z</time>
      </trkpt>
      <trkpt lat="48.5806753" lon="-2.0641561">
        <ele>71.241</ele>
        <time>2018-08-21T10:24:28.433Z</time>
      </trkpt>
      <trkpt lat="48.5805782" lon="-2.0641143">
        <ele>71.449</ele>
        <time>2018-08-21T10:24:31.679Z</time>
      </trkpt>
      <trkpt lat="48.5804705" lon="-2.0640406">
        <ele>71.503</ele>
        <time>2018-08-21T10:24:35.751Z</time>
      </trkpt>
      <trkpt lat="48.5803894" lon="-2.0639713">
        <ele>71.132</ele>
        <time>2018-08-21T10:24:39.159Z</time>
      </trkpt>
      <trkpt lat="48.5802824" lon="-2.0639199">
        <ele>70.471</ele>
        <time>2018-08-21T10:24:43.198Z</time>
      </trkpt>
      <trkpt lat="48.5801806" lon="-2.0638731">
        <ele>69.906</ele>
        <time>2018-08-21T10:24:46.835Z</time>
      </trkpt>
      <trkpt lat="48.5800774" lon="-2.0638006">
        <ele>69.599</ele>
        <time>2018-08-21T10:24:50.600Z</time>
      </trkpt>
      <trkpt lat="48.5799673" lon="-2.0637407">
        <ele>69.490</ele>
        <time>2018-08-21T10:24:54.324Z</time>
      </trkpt>
      <trkpt lat="48.5798709" lon="-2.0637085">
        <ele>69.494</ele>
        <time>2018-08-21T10:24:57.519Z</time>
      </trkpt>
      <trkpt lat="48.5797695" lon="-2.0636653">
        <ele>69.528</ele>
        <time>2018-08-21T10:25:01.209Z</time>
      </trkpt>
      <trkpt lat="48.5796718" lon="-2.0636186">
        <ele>69.522</ele>
        <time>2018-08-21T10:25:05.865Z</time>
      </trkpt>
      <trkpt lat="48.5795813" lon="-2.0635779">
        <ele>69.453</ele>
        <time>2018-08-21T10:25:10.614Z</time>
      </trkpt>
      <trkpt lat="48.5794869" lon="-2.0635286">
        <ele>69.356</ele>
        <time>2018-08-21T10:25:15.882Z</time>
      </trkpt>
      <trkpt lat="48.5794102" lon="-2.0634418">
        <ele>69.288</ele>
        <time>2018-08-21T10:25:20.630Z</time>
      </trkpt>
      <trkpt lat="48.5793181" lon="-2.0634247">
        <ele>69.323</ele>
        <time>2018-08-21T10:25:24.919Z</time>
      </trkpt>
      <trkpt lat="48.5792371" lon="-2.0633496">
        <ele>69.639</ele>
        <time>2018-08-21T10:25:28.387Z</time>
      </trkpt>
      <trkpt lat="48.5791321" lon="-2.0632921">
        <ele>70.294</ele>
        <time>2018-08-21T10:25:32.086Z</time>
      </trkpt>
      <trkpt lat="48.5790433" lon="-2.0632641">
        <ele>70.975</ele>
        <time>2018-08-21T10:25:35.142Z</time>
      </trkpt>
      <trkpt lat="48.5789364" lon="-2.0632102">
        <ele>71.341</ele>
        <time>2018-08-21T10:25:39.123Z</time>
      </trkpt>
      <trkpt lat="48.5788416" lon="-2.0631640">
        <ele>71.409</ele>
        <time>2018-08-21T10:25:42.732Z</time>
      </trkpt>
      <trkpt lat="48.5787507" lon="-2.0631201">
        <ele>71.383</ele>
        <time>2018-08-21T10:25:46.139Z</time>
      </trkpt>
      <trkpt lat="48.5786584" lon="-2.0630845">
        <ele>71.534</ele>
        <time>2018-08-21T10:25:49.436Z</time>
      </trkpt>
      <trkpt lat="48.5785717" lon="-2.0630254">
        <ele>71.966</ele>
        <time>2018-08-21T10:25:52.635Z</time>
      </trkpt>
      <trkpt lat="48.5784601" lon="-2.0629670">
        <ele>72.430</ele>
        <time>2018-08-21T10:25:56.549Z</time>
      </trkpt>
      <trkpt lat="48.5783614" lon="-2.0629060">
        <ele>72.593</ele>
        <time>2018-08-21T10:26:00.117Z</time>
      </trkpt>
      <trkpt lat="48.5782592" lon="-2.0628527">
        <ele>72.422</ele>
        <time>2018-08-21T10:26:03.781Z</time>
      </trkpt>
      <trkpt lat="48.5781667" lon="-2.0628036">
        <ele>72.182</ele>
        <time>2018-08-21T10:26:07.473Z</time>
      </trkpt>
      <trkpt lat="48.5780877" lon="-2.0627310">
        <ele>72.187</ele>
        <time>2018-08-21T10:26:11.539Z</time>
      </trkpt>
      <trkpt lat="48.5780065" lon="-2.0626641">
        <ele>72.457</ele>
        <time>2018-08-21T10:26:16.582Z</time>
      </trkpt>
      <trkpt lat="48.5778996" lon="-2.0626135">
        <ele>72.624</ele>
        <time>2018-08-21T10:26:22.338Z</time>
      </trkpt>
      <trkpt lat="48.5777912" lon="-2.0625969">
        <ele>72.387</ele>
        <time>2018-08-21T10:26:26.627Z</time>
      </trkpt>
      <trkpt lat="48.5776889" lon="-2.0625712">
        <ele>71.949</ele>
        <time>2018-08-21T10:26:30.609Z</time>
      </trkpt>
      <trkpt lat="48.5775854" lon="-2.0625005">
        <ele>71.597</ele>
        <time>2018-08-21T10:26:35.114Z</time>
      </trkpt>
      <trkpt lat="48.5774970" lon="-2.0624532">
        <ele>71.396</ele>
        <time>2018-08-21T10:26:38.881Z</time>
      </trkpt>
      <trkpt lat="48.5774021" lon="-2.0623745">
        <ele>71.334</ele>
        <time>2018-08-21T10:26:43.042Z</time>
      </trkpt>
      <trkpt lat="48.5773070" lon="-2.0623225">
        <ele>71.469</ele>
        <time>2018-08-21T10:26:46.758Z</time>
      </trkpt>
      <trkpt lat="48.5771968" lon="-2.0622561">
        <ele>71.784</ele>
        <time>2018-08-21T10:26:50.872Z</time>
      </trkpt>
      <trkpt lat="48.5771058" lon="-2.0622082">
        <ele>72.070</ele>
        <time>2018-08-21T10:26:54.177Z</time>
      </trkpt>
      <trkpt lat="48.5770006" lon="-2.0621252">
        <ele>72.159</ele>
        <time>2018-08-21T10:26:58.498Z</time>
      </trkpt>
      <trkpt lat="48.5769136" lon="-2.0620902">
        <ele>72.050</ele>
        <time>2018-08-21T10:27:02.004Z</time>
      </trkpt>
      <trkpt lat="48.5768116" lon="-2.0620535">
        <ele>71.810</ele>
        <time>2018-08-21T10:27:06.151Z</time>
      </trkpt>
      <trkpt lat="48.5767221" lon="-2.0620171">
        <ele>71.655</ele>
        <time>2018-08-21T10:27:09.468Z</time>
      </trkpt>
      <trkpt lat="48.5766361" lon="-2.0619710">
        <ele>71.734</ele>
        <time>2018-08-21T10:27:12.524Z</time>
      </trkpt>
      <trkpt lat="48.5765540" lon="-2.0619084">
        <ele>71.922</ele>
        <time>2018-08-21T10:27:15.624Z</time>
      </trkpt>
      <trkpt lat="48.5764487" lon="-2.0618387">
        <ele>72.064</ele>
        <time>2018-08-21T10:27:19.590Z</time>
      </trkpt>
      <trkpt lat="48.5763380" lon="-2.0617883">
        <ele>72.262</ele>
        <time>2018-08-21T10:27:23.612Z</time>
      </trkpt>
      <trkpt lat="48.5762386" lon="-2.0617250">
        <ele>72.619</ele>
        <time>2018-08-21T10:27:27.377Z</time>
      </trkpt>
      <trkpt lat="48.5761391" lon="-2.0616674">
        <ele>72.898</ele>
        <time>2018-08-21T10:27:31.264Z</time>
      </trkpt>
      <trkpt lat="48.5760549" lon="-2.0616097">
        <ele>72.879</ele>
        <time>2018-08-21T10:27:34.743Z</time>
      </trkpt>
      <trkpt lat="48.5759653" lon="-2.0615464">
        <ele>72.750</ele>
        <time>2018-08-21T10:27:38.482Z</time>
      </trkpt>
      <trkpt lat="48.5758830" lon="-2.0614889">
        <ele>72.801</ele>
        <time>2018-08-21T10:27:41.947Z</time>
      </trkpt>
      <trkpt lat="48.5757865" lon="-2.0614478">
        <ele>73.076</ele>
        <time>2018-08-21T10:27:46.347Z</time>
      </trkpt>
      <trkpt lat="48.5756973" lon="-2.0613703">
        <ele>73.428</ele>
        <time>2018-08-21T10:27:51.401Z</time>
      </trkpt>
      <trkpt lat="48.5755952" lon="-2.0613533">
        <ele>73.828</ele>
        <time>2018-08-21T10:27:56.648Z</time>
      </trkpt>
      <trkpt lat="48.5755045" lon="-2.0612589">
        <ele>74.358</ele>
        <time>2018-08-21T10:28:02.056Z</time>
      </trkpt>
      <trkpt lat="48.5754137" lon="-2.0612372">
        <ele>74.939</ele>
        <time>2018-08-21T10:28:05.892Z</time>
      </trkpt>
      <trkpt lat="48.5753225" lon="-2.0611921">
        <ele>75.387</ele>
        <time>2018-08-21T10:28:09.558Z</time>
      </trkpt>
      <trkpt lat="48.5752213" lon="-2.0611359">
        <ele>75.517</ele>
        <time>2018-08-21T10:28:13.534Z</time>
      </trkpt>
      <trkpt lat="48.5751289" lon="-2.0611024">
        <ele>75.312</ele>
        <time>2018-08-21T10:28:16.868Z</time>
      </trkpt>
      <trkpt lat="48.5750358" lon="-2.0610617">
        <ele>74.814</ele>
        <time>2018-08-21T10:28:20.148Z</time>
      </trkpt>
      <trkpt lat="48.5749502" lon="-2.0610160">
        <ele>74.112</ele>
        <time>2018-08-21T10:28:23.189Z</time>
      </trkpt>
      <trkpt lat="48.5748496" lon="-2.0609592">
        <ele>73.533</ele>
        <time>2018-08-21T10:28:26.786Z</time>
      </trkpt>
      <trkpt lat="48.5747517" lon="-2.0609020">
        <ele>73.317</ele>
        <time>2018-08-21T10:28:30.304Z</time>
      </trkpt>
      <trkpt lat="48.5746647" lon="-2.0608490">
        <ele>73.345</ele>
        <time>2018-08-21T10:28:33.486Z</time>
      </trkpt>
      <trkpt lat="48.5745767" lon="-2.0607820">
        <ele>73.455</ele>
        <time>2018-08-21T10:28:36.974Z</time>
      </trkpt>
      <trkpt lat="48.5744681" lon="-2.0607264">
        <ele>73.681</ele>
        <time>2018-08-21T10:28:41.110Z</time>
      </trkpt>
      <trkpt lat="48.5743655" lon="-2.0606808">
        <ele>74.071</ele>
        <time>2018-08-21T10:28:44.962Z</time>
      </trkpt>
      <trkpt lat="48.5742579" lon="-2.0606364">
        <ele>74.435</ele>
        <time>2018-08-21T10:28:48.899Z</time>
      </trkpt>
      <trkpt lat="48.5741523" lon="-2.0605808">
        <ele>74.623</ele>
        <time>2018-08-21T10:28:52.715Z</time>
      </trkpt>
      <trkpt lat="48.5740645" lon="-2.0605274">
        <ele>74.718</ele>
        <time>2018-08-21T10:28:55.900Z</time>
      </trkpt>
      <trkpt lat="48.5739611" lon="-2.0604659">
        <ele>74.783</ele>
        <time>2018-08-21T10:28:59.799Z</time>
      </trkpt>
      <trkpt lat="48.5738616" lon="-2.0604168">
        <ele>74.768</ele>
        <time>2018-08-21T10:29:03.778Z</time>
      </trkpt>
      <trkpt lat="48.5737542" lon="-2.0603674">
        <ele>74.648</ele>
        <time>2018-08-21T10:29:08.344Z</time>
      </trkpt>
      <trkpt lat="48.5736526" lon="-2.0603279">
        <ele>74.513</ele>
        <time>2018-08-21T10:29:12.600Z</time>
      </trkpt>
      <trkpt lat="48.5735651" lon="-2.0602769">
        <ele>74.373</ele>
        <time>2018-08-21T10:29:16.059Z</time>
      </trkpt>
      <trkpt lat="48.5734583" lon="-2.0602176">
        <ele>74.132</ele>
        <time>2018-08-21T10:29:20.163Z</time>
      </trkpt>
      <trkpt lat="48.5733636" lon="-2.0601505">
        <ele>73.883</ele>
        <time>2018-08-21T10:29:24.046Z</time>
      </trkpt>
      <trkpt lat="48.5732654" lon="-2.0600897">
        <ele>73.800</ele>
        <time>2018-08-21T10:29:28.241Z</time>
      </trkpt>
      <trkpt lat="48.5731653" lon="-2.0600202">
        <ele>73.907</ele>
        <time>2018-08-21T10:29:32.585Z</time>
      </trkpt>
      <trkpt lat="48.5730638" lon="-2.0599694">
        <ele>74.118</ele>
        <time>2018-08-21T10:29:36.520Z</time>
      </trkpt>
      <trkpt lat="48.5729758" lon="-2.0599107">
        <ele>74.251</ele>
        <time>2018-08-21T10:29:39.747Z</time>
      </trkpt>
      <trkpt lat="48.5728774" lon="-2.0598704">
        <ele>74.186</ele>
        <time>2018-08-21T10:29:42.902Z</time>
      </trkpt>
      <trkpt lat="48.5727793" lon="-2.0598260">
        <ele>73.978</ele>
        <time>2018-08-21T10:29:45.994Z</time>
      </trkpt>
      <trkpt lat="48.5726866" lon="-2.0597812">
        <ele>73.736</ele>
        <time>2018-08-21T10:29:48.890Z</time>
      </trkpt>
      <trkpt lat="48.5725776" lon="-2.0597198">
        <ele>73.597</ele>
        <time>2018-08-21T10:29:52.289Z</time>
      </trkpt>
      <trkpt lat="48.5724678" lon="-2.0596665">
        <ele>73.668</ele>
        <time>2018-08-21T10:29:55.643Z</time>
      </trkpt>
      <trkpt lat="48.5723709" lon="-2.0596338">
        <ele>73.954</ele>
        <time>2018-08-21T10:29:58.544Z</time>
      </trkpt>
      <trkpt lat="48.5722883" lon="-2.0595787">
        <ele>74.335</ele>
        <time>2018-08-21T10:30:01.227Z</time>
      </trkpt>
      <trkpt lat="48.5721929" lon="-2.0595235">
        <ele>74.647</ele>
        <time>2018-08-21T10:30:04.333Z</time>
      </trkpt>
      <trkpt lat="48.5721013" lon="-2.0594688">
        <ele>74.821</ele>
        <time>2018-08-21T10:30:07.451Z</time>
      </trkpt>
      <trkpt lat="48.5719920" lon="-2.0594218">
        <ele>74.901</ele>
        <time>2018-08-21T10:30:11.067Z</time>
      </trkpt>
      <trkpt lat="48.5718832" lon="-2.0593838">
        <ele>74.939</ele>
        <time>2018-08-21T10:30:14.559Z</time>
      </trkpt>
      <trkpt lat="48.5717885" lon="-2.0593233">
        <ele>74.971</ele>
        <time>2018-08-21T10:30:17.776Z</time>
      </trkpt>
      <trkpt lat="48.5716924" lon="-2.0593471">
        <ele>75.183</ele>
        <time>2018-08-21T10:30:20.950Z</time>
      </trkpt>
      <trkpt lat="48.5716136" lon="-2.0594199">
        <ele>75.677</ele>
        <time>2018-08-21T10:30:24.233Z</time>
      </trkpt>
      <trkpt lat="48.5715196" lon="-2.0594883">
        <ele>76.259</ele>
        <time>2018-08-21T10:30:28.584Z</time>
      </trkpt>
      <trkpt lat="48.5714270" lon="-2.0595553">
        <ele>76.712</ele>
        <time>2018-08-21T10:30:33.167Z</time>
      </trkpt>
      <trkpt lat="48.5713315" lon="-2.0595564">
        <ele>76.965</ele>
        <time>2018-08-21T10:30:37.541Z</time>
      </trkpt>
      <trkpt lat="48.5712814" lon="-2.0594116">
        <ele>76.979</ele>
        <time>2018-08-21T10:30:42.381Z</time>
      </trkpt>
      <trkpt lat="48.5712396" lon="-2.0592558">
        <ele>76.838</ele>
        <time>2018-08-21T10:30:46.992Z</time>
      </trkpt>
      <trkpt lat="48.5711908" lon="-2.0591330">
        <ele>76.795</ele>
        <time>2018-08-21T10:30:51.106Z</time>
      </trkpt>
      <trkpt lat="48.5711026" lon="-2.0591003">
        <ele>77.049</ele>
        <time>2018-08-21T10:30:55.760Z</time>
      </trkpt>
      <trkpt lat="48.5710091" lon="-2.0590879">
        <ele>77.482</ele>
        <time>2018-08-21T10:31:00.151Z</time>
      </trkpt>
      <trkpt lat="48.5709000" lon="-2.0590599">
        <ele>77.854</ele>
        <time>2018-08-21T10:31:04.701Z</time>
      </trkpt>
      <trkpt lat="48.5707910" lon="-2.0590268">
        <ele>78.041</ele>
        <time>2018-08-21T10:31:08.838Z</time>
      </trkpt>
      <trkpt lat="48.5706810" lon="-2.0590111">
        <ele>78.042</ele>
        <time>2018-08-21T10:31:12.539Z</time>
      </trkpt>
      <trkpt lat="48.5705833" lon="-2.0590115">
        <ele>77.833</ele>
        <time>2018-08-21T10:31:15.689Z</time>
      </trkpt>
      <trkpt lat="48.5704809" lon="-2.0589972">
        <ele>77.434</ele>
        <time>2018-08-21T10:31:18.939Z</time>
      </trkpt>
      <trkpt lat="48.5703801" lon="-2.0589870">
        <ele>76.969</ele>
        <time>2018-08-21T10:31:22.102Z</time>
      </trkpt>
      <trkpt lat="48.5702785" lon="-2.0589789">
        <ele>76.454</ele>
        <time>2018-08-21T10:31:25.255Z</time>
      </trkpt>
      <trkpt lat="48.5701645" lon="-2.0589900">
        <ele>75.910</ele>
        <time>2018-08-21T10:31:28.799Z</time>
      </trkpt>
      <trkpt lat="48.5700705" lon="-2.0589969">
        <ele>75.652</ele>
        <time>2018-08-21T10:31:31.844Z</time>
      </trkpt>
      <trkpt lat="48.5699591" lon="-2.0590325">
        <ele>75.866</ele>
        <time>2018-08-21T10:31:35.814Z</time>
      </trkpt>
      <trkpt lat="48.5698440" lon="-2.0590420">
        <ele>76.683</ele>
        <time>2018-08-21T10:31:39.741Z</time>
      </trkpt>
      <trkpt lat="48.5697327" lon="-2.0590257">
        <ele>78.073</ele>
        <time>2018-08-21T10:31:43.497Z</time>
      </trkpt>
      <trkpt lat="48.5696206" lon="-2.0590236">
        <ele>79.404</ele>
        <time>2018-08-21T10:31:47.445Z</time>
      </trkpt>
      <trkpt lat="48.5695144" lon="-2.0589822">
        <ele>79.756</ele>
        <time>2018-08-21T10:31:51.429Z</time>
      </trkpt>
      <trkpt lat="48.5694233" lon="-2.0589443">
        <ele>78.891</ele>
        <time>2018-08-21T10:31:54.838Z</time>
      </trkpt>
      <trkpt lat="48.5693248" lon="-2.0589216">
        <ele>77.521</ele>
        <time>2018-08-21T10:31:58.330Z</time>
      </trkpt>
      <trkpt lat="48.5692333" lon="-2.0588936">
        <ele>76.573</ele>
        <time>2018-08-21T10:32:01.804Z</time>
      </trkpt>
      <trkpt lat="48.5691430" lon="-2.0588955">
        <ele>76.252</ele>
        <time>2018-08-21T10:32:05.202Z</time>
      </trkpt>
      <trkpt lat="48.5690432" lon="-2.0588954">
        <ele>76.279</ele>
        <time>2018-08-21T10:32:08.512Z</time>
      </trkpt>
      <trkpt lat="48.5689450" lon="-2.0588987">
        <ele>76.412</ele>
        <time>2018-08-21T10:32:11.395Z</time>
      </trkpt>
      <trkpt lat="48.5688418" lon="-2.0588998">
        <ele>76.620</ele>
        <time>2018-08-21T10:32:14.479Z</time>
      </trkpt>
      <trkpt lat="48.5687381" lon="-2.0588963">
        <ele>76.923</ele>
        <time>2018-08-21T10:32:18.027Z</time>
      </trkpt>
      <trkpt lat="48.5686332" lon="-2.0589076">
        <ele>77.236</ele>
        <time>2018-08-21T10:32:21.680Z</time>
      </trkpt>
      <trkpt lat="48.5685160" lon="-2.0588869">
        <ele>77.484</ele>
        <time>2018-08-21T10:32:25.489Z</time>
      </trkpt>
      <trkpt lat="48.5684138" lon="-2.0588837">
        <ele>77.724</ele>
        <time>2018-08-21T10:32:28.674Z</time>
      </trkpt>
      <trkpt lat="48.5682939" lon="-2.0588810">
        <ele>78.072</ele>
        <time>2018-08-21T10:32:32.554Z</time>
      </trkpt>
      <trkpt lat="48.5682041" lon="-2.0588698">
        <ele>78.652</ele>
        <time>2018-08-21T10:32:35.871Z</time>
      </trkpt>
      <trkpt lat="48.5681141" lon="-2.0588586">
        <ele>79.362</ele>
        <time>2018-08-21T10:32:39.588Z</time>
      </trkpt>
      <trkpt lat="48.5680007" lon="-2.0588449">
        <ele>79.757</ele>
        <time>2018-08-21T10:32:44.999Z</time>
      </trkpt>
      <trkpt lat="48.5679042" lon="-2.0588372">
        <ele>79.606</ele>
        <time>2018-08-21T10:32:49.628Z</time>
      </trkpt>
      <trkpt lat="48.5677987" lon="-2.0588320">
        <ele>79.297</ele>
        <time>2018-08-21T10:32:54.006Z</time>
      </trkpt>
      <trkpt lat="48.5676945" lon="-2.0588389">
        <ele>79.196</ele>
        <time>2018-08-21T10:32:57.885Z</time>
      </trkpt>
      <trkpt lat="48.5676002" lon="-2.0588457">
        <ele>79.310</ele>
        <time>2018-08-21T10:33:00.935Z</time>
      </trkpt>
      <trkpt lat="48.5674962" lon="-2.0588526">
        <ele>79.503</ele>
        <time>2018-08-21T10:33:04.258Z</time>
      </trkpt>
      <trkpt lat="48.5673810" lon="-2.0588513">
        <ele>79.625</ele>
        <time>2018-08-21T10:33:07.860Z</time>
      </trkpt>
      <trkpt lat="48.5672869" lon="-2.0588442">
        <ele>79.453</ele>
        <time>2018-08-21T10:33:10.806Z</time>
      </trkpt>
      <trkpt lat="48.5671686" lon="-2.0588263">
        <ele>78.838</ele>
        <time>2018-08-21T10:33:14.699Z</time>
      </trkpt>
      <trkpt lat="48.5670545" lon="-2.0588066">
        <ele>78.043</ele>
        <time>2018-08-21T10:33:18.604Z</time>
      </trkpt>
      <trkpt lat="48.5669642" lon="-2.0588168">
        <ele>77.670</ele>
        <time>2018-08-21T10:33:21.832Z</time>
      </trkpt>
      <trkpt lat="48.5668738" lon="-2.0588486">
        <ele>78.086</ele>
        <time>2018-08-21T10:33:25.171Z</time>
      </trkpt>
      <trkpt lat="48.5667750" lon="-2.0588602">
        <ele>79.169</ele>
        <time>2018-08-21T10:33:28.613Z</time>
      </trkpt>
      <trkpt lat="48.5666754" lon="-2.0588566">
        <ele>80.362</ele>
        <time>2018-08-21T10:33:32.002Z</time>
      </trkpt>
      <trkpt lat="48.5665736" lon="-2.0588415">
        <ele>81.061</ele>
        <time>2018-08-21T10:33:35.515Z</time>
      </trkpt>
      <trkpt lat="48.5664450" lon="-2.0587942">
        <ele>81.099</ele>
        <time>2018-08-21T10:33:39.900Z</time>
      </trkpt>
      <trkpt lat="48.5663027" lon="-2.0587774">
        <ele>80.784</ele>
        <time>2018-08-21T10:33:44.148Z</time>
      </trkpt>
      <trkpt lat="48.5661726" lon="-2.0587478">
        <ele>80.250</ele>
        <time>2018-08-21T10:33:46.958Z</time>
      </trkpt>
      <trkpt lat="48.5660591" lon="-2.0587550">
        <ele>79.449</ele>
        <time>2018-08-21T10:33:49.136Z</time>
      </trkpt>
      <trkpt lat="48.5659560" lon="-2.0587167">
        <ele>78.725</ele>
        <time>2018-08-21T10:33:51.117Z</time>
      </trkpt>
      <trkpt lat="48.5658564" lon="-2.0586908">
        <ele>78.472</ele>
        <time>2018-08-21T10:33:53.150Z</time>
      </trkpt>
      <trkpt lat="48.5657544" lon="-2.0586953">
        <ele>78.605</ele>
        <time>2018-08-21T10:33:55.837Z</time>
      </trkpt>
      <trkpt lat="48.5656365" lon="-2.0586916">
        <ele>78.853</ele>
        <time>2018-08-21T10:33:59.451Z</time>
      </trkpt>
      <trkpt lat="48.5655273" lon="-2.0586952">
        <ele>79.146</ele>
        <time>2018-08-21T10:34:03.869Z</time>
      </trkpt>
      <trkpt lat="48.5654121" lon="-2.0586816">
        <ele>79.501</ele>
        <time>2018-08-21T10:34:08.310Z</time>
      </trkpt>
      <trkpt lat="48.5653224" lon="-2.0586905">
        <ele>79.747</ele>
        <time>2018-08-21T10:34:11.383Z</time>
      </trkpt>
      <trkpt lat="48.5652126" lon="-2.0586958">
        <ele>79.680</ele>
        <time>2018-08-21T10:34:14.970Z</time>
      </trkpt>
      <trkpt lat="48.5651033" lon="-2.0586709">
        <ele>79.399</ele>
        <time>2018-08-21T10:34:18.551Z</time>
      </trkpt>
      <trkpt lat="48.5650051" lon="-2.0586693">
        <ele>79.049</ele>
        <time>2018-08-21T10:34:21.634Z</time>
      </trkpt>
      <trkpt lat="48.5649152" lon="-2.0586542">
        <ele>78.612</ele>
        <time>2018-08-21T10:34:24.578Z</time>
      </trkpt>
      <trkpt lat="48.5648120" lon="-2.0586291">
        <ele>78.147</ele>
        <time>2018-08-21T10:34:28.034Z</time>
      </trkpt>
      <trkpt lat="48.5647028" lon="-2.0586349">
        <ele>77.787</ele>
        <time>2018-08-21T10:34:31.619Z</time>
      </trkpt>
      <trkpt lat="48.5645876" lon="-2.0586356">
        <ele>77.533</ele>
        <time>2018-08-21T10:34:35.186Z</time>
      </trkpt>
      <trkpt lat="48.5644827" lon="-2.0586420">
        <ele>77.106</ele>
        <time>2018-08-21T10:34:38.551Z</time>
      </trkpt>
      <trkpt lat="48.5643801" lon="-2.0586384">
        <ele>76.343</ele>
        <time>2018-08-21T10:34:42.031Z</time>
      </trkpt>
      <trkpt lat="48.5642768" lon="-2.0586101">
        <ele>75.511</ele>
        <time>2018-08-21T10:34:45.735Z</time>
      </trkpt>
      <trkpt lat="48.5641644" lon="-2.0585919">
        <ele>74.904</ele>
        <time>2018-08-21T10:34:49.673Z</time>
      </trkpt>
      <trkpt lat="48.5640664" lon="-2.0585668">
        <ele>74.550</ele>
        <time>2018-08-21T10:34:52.800Z</time>
      </trkpt>
      <trkpt lat="48.5639639" lon="-2.0585598">
        <ele>74.495</ele>
        <time>2018-08-21T10:34:55.906Z</time>
      </trkpt>
      <trkpt lat="48.5638585" lon="-2.0585590">
        <ele>74.677</ele>
        <time>2018-08-21T10:34:59.135Z</time>
      </trkpt>
      <trkpt lat="48.5637515" lon="-2.0585668">
        <ele>74.920</ele>
        <time>2018-08-21T10:35:02.580Z</time>
      </trkpt>
      <trkpt lat="48.5636493" lon="-2.0585358">
        <ele>75.126</ele>
        <time>2018-08-21T10:35:06.205Z</time>
      </trkpt>
      <trkpt lat="48.5635541" lon="-2.0585191">
        <ele>75.371</ele>
        <time>2018-08-21T10:35:09.647Z</time>
      </trkpt>
      <trkpt lat="48.5634472" lon="-2.0585227">
        <ele>75.674</ele>
        <time>2018-08-21T10:35:13.052Z</time>
      </trkpt>
      <trkpt lat="48.5633446" lon="-2.0585216">
        <ele>75.776</ele>
        <time>2018-08-21T10:35:16.230Z</time>
      </trkpt>
      <trkpt lat="48.5632411" lon="-2.0585186">
        <ele>75.512</ele>
        <time>2018-08-21T10:35:19.896Z</time>
      </trkpt>
      <trkpt lat="48.5631479" lon="-2.0585195">
        <ele>75.313</ele>
        <time>2018-08-21T10:35:23.465Z</time>
      </trkpt>
      <trkpt lat="48.5630506" lon="-2.0585121">
        <ele>75.610</ele>
        <time>2018-08-21T10:35:27.183Z</time>
      </trkpt>
      <trkpt lat="48.5629469" lon="-2.0585165">
        <ele>76.261</ele>
        <time>2018-08-21T10:35:30.709Z</time>
      </trkpt>
      <trkpt lat="48.5628294" lon="-2.0585072">
        <ele>76.887</ele>
        <time>2018-08-21T10:35:34.961Z</time>
      </trkpt>
      <trkpt lat="48.5627291" lon="-2.0585030">
        <ele>77.380</ele>
        <time>2018-08-21T10:35:39.177Z</time>
      </trkpt>
      <trkpt lat="48.5626273" lon="-2.0585057">
        <ele>77.796</ele>
        <time>2018-08-21T10:35:43.499Z</time>
      </trkpt>
      <trkpt lat="48.5625281" lon="-2.0585253">
        <ele>78.188</ele>
        <time>2018-08-21T10:35:47.555Z</time>
      </trkpt>
      <trkpt lat="48.5624229" lon="-2.0585233">
        <ele>78.551</ele>
        <time>2018-08-21T10:35:51.708Z</time>
      </trkpt>
      <trkpt lat="48.5622975" lon="-2.0585232">
        <ele>78.814</ele>
        <time>2018-08-21T10:35:56.352Z</time>
      </trkpt>
      <trkpt lat="48.5621920" lon="-2.0585199">
        <ele>78.828</ele>
        <time>2018-08-21T10:36:00.695Z</time>
      </trkpt>
      <trkpt lat="48.5620740" lon="-2.0585144">
        <ele>78.607</ele>
        <time>2018-08-21T10:36:05.487Z</time>
      </trkpt>
      <trkpt lat="48.5619622" lon="-2.0585015">
        <ele>78.339</ele>
        <time>2018-08-21T10:36:09.177Z</time>
      </trkpt>
      <trkpt lat="48.5618551" lon="-2.0584829">
        <ele>78.147</ele>
        <time>2018-08-21T10:36:12.491Z</time>
      </trkpt>
      <trkpt lat="48.5617564" lon="-2.0584769">
        <ele>78.022</ele>
        <time>2018-08-21T10:36:15.483Z</time>
      </trkpt>
      <trkpt lat="48.5616548" lon="-2.0584716">
        <ele>77.938</ele>
        <time>2018-08-21T10:36:18.635Z</time>
      </trkpt>
      <trkpt lat="48.5615540" lon="-2.0584685">
        <ele>77.804</ele>
        <time>2018-08-21T10:36:21.883Z</time>
      </trkpt>
      <trkpt lat="48.5614495" lon="-2.0584746">
        <ele>77.500</ele>
        <time>2018-08-21T10:36:25.225Z</time>
      </trkpt>
      <trkpt lat="48.5613540" lon="-2.0584715">
        <ele>76.957</ele>
        <time>2018-08-21T10:36:28.163Z</time>
      </trkpt>
      <trkpt lat="48.5612621" lon="-2.0584682">
        <ele>76.258</ele>
        <time>2018-08-21T10:36:30.968Z</time>
      </trkpt>
      <trkpt lat="48.5611616" lon="-2.0584393">
        <ele>75.674</ele>
        <time>2018-08-21T10:36:34.114Z</time>
      </trkpt>
      <trkpt lat="48.5610440" lon="-2.0584119">
        <ele>75.459</ele>
        <time>2018-08-21T10:36:37.820Z</time>
      </trkpt>
      <trkpt lat="48.5609411" lon="-2.0584119">
        <ele>75.658</ele>
        <time>2018-08-21T10:36:41.047Z</time>
      </trkpt>
      <trkpt lat="48.5608381" lon="-2.0584165">
        <ele>76.112</ele>
        <time>2018-08-21T10:36:44.341Z</time>
      </trkpt>
      <trkpt lat="48.5607360" lon="-2.0584187">
        <ele>76.620</ele>
        <time>2018-08-21T10:36:47.690Z</time>
      </trkpt>
      <trkpt lat="48.5606415" lon="-2.0583992">
        <ele>77.141</ele>
        <time>2018-08-21T10:36:50.809Z</time>
      </trkpt>
      <trkpt lat="48.5605488" lon="-2.0583801">
        <ele>77.647</ele>
        <time>2018-08-21T10:36:53.769Z</time>
      </trkpt>
      <trkpt lat="48.5604471" lon="-2.0583764">
        <ele>77.937</ele>
        <time>2018-08-21T10:36:56.852Z</time>
      </trkpt>
      <trkpt lat="48.5603241" lon="-2.0583736">
        <ele>77.874</ele>
        <time>2018-08-21T10:37:00.548Z</time>
      </trkpt>
      <trkpt lat="48.5602255" lon="-2.0583791">
        <ele>77.558</ele>
        <time>2018-08-21T10:37:03.520Z</time>
      </trkpt>
      <trkpt lat="48.5601325" lon="-2.0583764">
        <ele>77.182</ele>
        <time>2018-08-21T10:37:06.334Z</time>
      </trkpt>
      <trkpt lat="48.5600410" lon="-2.0583848">
        <ele>76.972</ele>
        <time>2018-08-21T10:37:09.131Z</time>
      </trkpt>
      <trkpt lat="48.5599456" lon="-2.0583711">
        <ele>77.193</ele>
        <time>2018-08-21T10:37:12.142Z</time>
      </trkpt>
      <trkpt lat="48.5598452" lon="-2.0583467">
        <ele>77.883</ele>
        <time>2018-08-21T10:37:15.647Z</time>
      </trkpt>
      <trkpt lat="48.5597538" lon="-2.0583324">
        <ele>78.661</ele>
        <time>2018-08-21T10:37:19.744Z</time>
      </trkpt>
      <trkpt lat="48.5596456" lon="-2.0583195">
        <ele>79.134</ele>
        <time>2018-08-21T10:37:24.906Z</time>
      </trkpt>
      <trkpt lat="48.5595460" lon="-2.0583133">
        <ele>79.259</ele>
        <time>2018-08-21T10:37:29.137Z</time>
      </trkpt>
      <trkpt lat="48.5594557" lon="-2.0583331">
        <ele>79.170</ele>
        <time>2018-08-21T10:37:32.665Z</time>
      </trkpt>
      <trkpt lat="48.5593627" lon="-2.0583352">
        <ele>78.822</ele>
        <time>2018-08-21T10:37:36.175Z</time>
      </trkpt>
      <trkpt lat="48.5592627" lon="-2.0583256">
        <ele>78.171</ele>
        <time>2018-08-21T10:37:40.457Z</time>
      </trkpt>
      <trkpt lat="48.5591662" lon="-2.0583160">
        <ele>77.532</ele>
        <time>2018-08-21T10:37:44.881Z</time>
      </trkpt>
      <trkpt lat="48.5590693" lon="-2.0583172">
        <ele>77.258</ele>
        <time>2018-08-21T10:37:48.590Z</time>
      </trkpt>
      <trkpt lat="48.5589507" lon="-2.0582837">
        <ele>77.326</ele>
        <time>2018-08-21T10:37:52.652Z</time>
      </trkpt>
      <trkpt lat="48.5588424" lon="-2.0582782">
        <ele>77.529</ele>
        <time>2018-08-21T10:37:56.079Z</time>
      </trkpt>
      <trkpt lat="48.5587465" lon="-2.0582503">
        <ele>77.735</ele>
        <time>2018-08-21T10:37:59.131Z</time>
      </trkpt>
      <trkpt lat="48.5586355" lon="-2.0582362">
        <ele>77.946</ele>
        <time>2018-08-21T10:38:02.707Z</time>
      </trkpt>
      <trkpt lat="48.5585305" lon="-2.0582363">
        <ele>78.143</ele>
        <time>2018-08-21T10:38:06.225Z</time>
      </trkpt>
      <trkpt lat="48.5584211" lon="-2.0582399">
        <ele>78.289</ele>
        <time>2018-08-21T10:38:09.895Z</time>
      </trkpt>
      <trkpt lat="48.5583298" lon="-2.0582419">
        <ele>78.395</ele>
        <time>2018-08-21T10:38:12.847Z</time>
      </trkpt>
      <trkpt lat="48.5582334" lon="-2.0582373">
        <ele>78.507</ele>
        <time>2018-08-21T10:38:16.064Z</time>
      </trkpt>
      <trkpt lat="48.5581372" lon="-2.0582361">
        <ele>78.643</ele>
        <time>2018-08-21T10:38:19.380Z</time>
      </trkpt>
      <trkpt lat="48.5580402" lon="-2.0582306">
        <ele>78.750</ele>
        <time>2018-08-21T10:38:22.622Z</time>
      </trkpt>
      <trkpt lat="48.5579296" lon="-2.0582055">
        <ele>78.794</ele>
        <time>2018-08-21T10:38:26.122Z</time>
      </trkpt>
      <trkpt lat="48.5578189" lon="-2.0581939">
        <ele>78.864</ele>
        <time>2018-08-21T10:38:29.508Z</time>
      </trkpt>
      <trkpt lat="48.5577090" lon="-2.0581751">
        <ele>79.061</ele>
        <time>2018-08-21T10:38:33.054Z</time>
      </trkpt>
      <trkpt lat="48.5576072" lon="-2.0581633">
        <ele>79.370</ele>
        <time>2018-08-21T10:38:36.552Z</time>
      </trkpt>
      <trkpt lat="48.5575084" lon="-2.0581559">
        <ele>79.689</ele>
        <time>2018-08-21T10:38:40.062Z</time>
      </trkpt>
      <trkpt lat="48.5574024" lon="-2.0581241">
        <ele>79.913</ele>
        <time>2018-08-21T10:38:43.777Z</time>
      </trkpt>
      <trkpt lat="48.5573011" lon="-2.0581249">
        <ele>79.977</ele>
        <time>2018-08-21T10:38:46.920Z</time>
      </trkpt>
      <trkpt lat="48.5571865" lon="-2.0581468">
        <ele>79.792</ele>
        <time>2018-08-21T10:38:50.488Z</time>
      </trkpt>
      <trkpt lat="48.5570945" lon="-2.0581684">
        <ele>79.239</ele>
        <time>2018-08-21T10:38:53.483Z</time>
      </trkpt>
      <trkpt lat="48.5569891" lon="-2.0581772">
        <ele>78.426</ele>
        <time>2018-08-21T10:38:56.963Z</time>
      </trkpt>
      <trkpt lat="48.5568664" lon="-2.0581823">
        <ele>77.724</ele>
        <time>2018-08-21T10:39:01.111Z</time>
      </trkpt>
      <trkpt lat="48.5567608" lon="-2.0581834">
        <ele>77.409</ele>
        <time>2018-08-21T10:39:04.688Z</time>
      </trkpt>
      <trkpt lat="48.5566511" lon="-2.0581840">
        <ele>77.479</ele>
        <time>2018-08-21T10:39:07.694Z</time>
      </trkpt>
      <trkpt lat="48.5565441" lon="-2.0581637">
        <ele>77.769</ele>
        <time>2018-08-21T10:39:10.386Z</time>
      </trkpt>
      <trkpt lat="48.5564421" lon="-2.0581395">
        <ele>78.061</ele>
        <time>2018-08-21T10:39:13.104Z</time>
      </trkpt>
      <trkpt lat="48.5563483" lon="-2.0581332">
        <ele>78.220</ele>
        <time>2018-08-21T10:39:15.643Z</time>
      </trkpt>
      <trkpt lat="48.5562352" lon="-2.0581379">
        <ele>78.262</ele>
        <time>2018-08-21T10:39:18.701Z</time>
      </trkpt>
      <trkpt lat="48.5561374" lon="-2.0581394">
        <ele>78.339</ele>
        <time>2018-08-21T10:39:21.383Z</time>
      </trkpt>
      <trkpt lat="48.5560363" lon="-2.0581301">
        <ele>78.536</ele>
        <time>2018-08-21T10:39:24.250Z</time>
      </trkpt>
      <trkpt lat="48.5559258" lon="-2.0581303">
        <ele>78.767</ele>
        <time>2018-08-21T10:39:27.418Z</time>
      </trkpt>
      <trkpt lat="48.5558192" lon="-2.0581245">
        <ele>78.911</ele>
        <time>2018-08-21T10:39:30.409Z</time>
      </trkpt>
      <trkpt lat="48.5557076" lon="-2.0581070">
        <ele>78.963</ele>
        <time>2018-08-21T10:39:33.453Z</time>
      </trkpt>
      <trkpt lat="48.5555944" lon="-2.0581064">
        <ele>78.961</ele>
        <time>2018-08-21T10:39:36.425Z</time>
      </trkpt>
      <trkpt lat="48.5554897" lon="-2.0580943">
        <ele>78.920</ele>
        <time>2018-08-21T10:39:39.153Z</time>
      </trkpt>
      <trkpt lat="48.5553780" lon="-2.0580767">
        <ele>78.774</ele>
        <time>2018-08-21T10:39:42.025Z</time>
      </trkpt>
      <trkpt lat="48.5552686" lon="-2.0580617">
        <ele>78.495</ele>
        <time>2018-08-21T10:39:44.812Z</time>
      </trkpt>
      <trkpt lat="48.5551597" lon="-2.0580495">
        <ele>78.209</ele>
        <time>2018-08-21T10:39:47.585Z</time>
      </trkpt>
      <trkpt lat="48.5550655" lon="-2.0580327">
        <ele>78.084</ele>
        <time>2018-08-21T10:39:49.920Z</time>
      </trkpt>
      <trkpt lat="48.5549616" lon="-2.0580184">
        <ele>78.123</ele>
        <time>2018-08-21T10:39:52.446Z</time>
      </trkpt>
      <trkpt lat="48.5548544" lon="-2.0579981">
        <ele>78.176</ele>
        <time>2018-08-21T10:39:55.065Z</time>
      </trkpt>
      <trkpt lat="48.5547521" lon="-2.0579680">
        <ele>78.122</ele>
        <time>2018-08-21T10:39:57.659Z</time>
      </trkpt>
      <trkpt lat="48.5546589" lon="-2.0579573">
        <ele>78.017</ele>
        <time>2018-08-21T10:40:00.069Z</time>
      </trkpt>
      <trkpt lat="48.5545488" lon="-2.0579393">
        <ele>77.939</ele>
        <time>2018-08-21T10:40:02.983Z</time>
      </trkpt>
      <trkpt lat="48.5544280" lon="-2.0579192">
        <ele>77.802</ele>
        <time>2018-08-21T10:40:06.163Z</time>
      </trkpt>
      <trkpt lat="48.5543203" lon="-2.0579068">
        <ele>77.555</ele>
        <time>2018-08-21T10:40:08.963Z</time>
      </trkpt>
      <trkpt lat="48.5542218" lon="-2.0578845">
        <ele>77.482</ele>
        <time>2018-08-21T10:40:11.631Z</time>
      </trkpt>
      <trkpt lat="48.5541247" lon="-2.0578399">
        <ele>77.772</ele>
        <time>2018-08-21T10:40:14.424Z</time>
      </trkpt>
      <trkpt lat="48.5540352" lon="-2.0577995">
        <ele>78.098</ele>
        <time>2018-08-21T10:40:16.889Z</time>
      </trkpt>
      <trkpt lat="48.5539381" lon="-2.0577499">
        <ele>78.146</ele>
        <time>2018-08-21T10:40:19.524Z</time>
      </trkpt>
      <trkpt lat="48.5538332" lon="-2.0577101">
        <ele>78.319</ele>
        <time>2018-08-21T10:40:22.347Z</time>
      </trkpt>
      <trkpt lat="48.5537327" lon="-2.0576864">
        <ele>78.975</ele>
        <time>2018-08-21T10:40:25.231Z</time>
      </trkpt>
      <trkpt lat="48.5536402" lon="-2.0576722">
        <ele>79.710</ele>
        <time>2018-08-21T10:40:28.098Z</time>
      </trkpt>
      <trkpt lat="48.5535252" lon="-2.0576427">
        <ele>80.076</ele>
        <time>2018-08-21T10:40:32.518Z</time>
      </trkpt>
      <trkpt lat="48.5534069" lon="-2.0576180">
        <ele>80.142</ele>
        <time>2018-08-21T10:40:37.958Z</time>
      </trkpt>
      <trkpt lat="48.5533041" lon="-2.0575898">
        <ele>80.017</ele>
        <time>2018-08-21T10:40:42.928Z</time>
      </trkpt>
      <trkpt lat="48.5532022" lon="-2.0575484">
        <ele>79.773</ele>
        <time>2018-08-21T10:40:47.527Z</time>
      </trkpt>
      <trkpt lat="48.5531016" lon="-2.0574947">
        <ele>79.590</ele>
        <time>2018-08-21T10:40:51.319Z</time>
      </trkpt>
      <trkpt lat="48.5530021" lon="-2.0574468">
        <ele>79.624</ele>
        <time>2018-08-21T10:40:54.536Z</time>
      </trkpt>
      <trkpt lat="48.5529018" lon="-2.0574000">
        <ele>79.769</ele>
        <time>2018-08-21T10:40:57.791Z</time>
      </trkpt>
      <trkpt lat="48.5528057" lon="-2.0573540">
        <ele>79.811</ele>
        <time>2018-08-21T10:41:00.813Z</time>
      </trkpt>
      <trkpt lat="48.5527132" lon="-2.0573129">
        <ele>79.715</ele>
        <time>2018-08-21T10:41:03.550Z</time>
      </trkpt>
      <trkpt lat="48.5526194" lon="-2.0572711">
        <ele>79.777</ele>
        <time>2018-08-21T10:41:06.309Z</time>
      </trkpt>
      <trkpt lat="48.5525242" lon="-2.0572309">
        <ele>80.227</ele>
        <time>2018-08-21T10:41:09.195Z</time>
      </trkpt>
      <trkpt lat="48.5524359" lon="-2.0571909">
        <ele>80.853</ele>
        <time>2018-08-21T10:41:11.966Z</time>
      </trkpt>
      <trkpt lat="48.5523324" lon="-2.0571505">
        <ele>81.330</ele>
        <time>2018-08-21T10:41:15.166Z</time>
      </trkpt>
      <trkpt lat="48.5522266" lon="-2.0571051">
        <ele>81.786</ele>
        <time>2018-08-21T10:41:18.380Z</time>
      </trkpt>
      <trkpt lat="48.5521127" lon="-2.0570645">
        <ele>82.503</ele>
        <time>2018-08-21T10:41:21.790Z</time>
      </trkpt>
      <trkpt lat="48.5520004" lon="-2.0570226">
        <ele>83.320</ele>
        <time>2018-08-21T10:41:25.696Z</time>
      </trkpt>
      <trkpt lat="48.5519079" lon="-2.0569858">
        <ele>83.687</ele>
        <time>2018-08-21T10:41:29.274Z</time>
      </trkpt>
      <trkpt lat="48.5518192" lon="-2.0569572">
        <ele>83.302</ele>
        <time>2018-08-21T10:41:32.763Z</time>
      </trkpt>
      <trkpt lat="48.5517291" lon="-2.0569255">
        <ele>82.471</ele>
        <time>2018-08-21T10:41:35.957Z</time>
      </trkpt>
      <trkpt lat="48.5516409" lon="-2.0568946">
        <ele>81.781</ele>
        <time>2018-08-21T10:41:39.015Z</time>
      </trkpt>
      <trkpt lat="48.5515523" lon="-2.0568561">
        <ele>81.523</ele>
        <time>2018-08-21T10:41:42.129Z</time>
      </trkpt>
      <trkpt lat="48.5514460" lon="-2.0568131">
        <ele>81.632</ele>
        <time>2018-08-21T10:41:45.833Z</time>
      </trkpt>
      <trkpt lat="48.5513573" lon="-2.0567566">
        <ele>81.932</ele>
        <time>2018-08-21T10:41:49.064Z</time>
      </trkpt>
      <trkpt lat="48.5512536" lon="-2.0567154">
        <ele>82.353</ele>
        <time>2018-08-21T10:41:52.566Z</time>
      </trkpt>
      <trkpt lat="48.5511481" lon="-2.0566729">
        <ele>82.721</ele>
        <time>2018-08-21T10:41:56.095Z</time>
      </trkpt>
      <trkpt lat="48.5510364" lon="-2.0566299">
        <ele>82.755</ele>
        <time>2018-08-21T10:41:59.828Z</time>
      </trkpt>
      <trkpt lat="48.5509539" lon="-2.0565623">
        <ele>82.501</ele>
        <time>2018-08-21T10:42:02.908Z</time>
      </trkpt>
      <trkpt lat="48.5508533" lon="-2.0565255">
        <ele>82.392</ele>
        <time>2018-08-21T10:42:06.362Z</time>
      </trkpt>
      <trkpt lat="48.5507607" lon="-2.0564904">
        <ele>82.814</ele>
        <time>2018-08-21T10:42:09.614Z</time>
      </trkpt>
      <trkpt lat="48.5506505" lon="-2.0564362">
        <ele>83.636</ele>
        <time>2018-08-21T10:42:13.602Z</time>
      </trkpt>
      <trkpt lat="48.5505471" lon="-2.0564001">
        <ele>84.272</ele>
        <time>2018-08-21T10:42:17.282Z</time>
      </trkpt>
      <trkpt lat="48.5504584" lon="-2.0563668">
        <ele>84.381</ele>
        <time>2018-08-21T10:42:20.570Z</time>
      </trkpt>
      <trkpt lat="48.5503635" lon="-2.0563245">
        <ele>84.073</ele>
        <time>2018-08-21T10:42:24.265Z</time>
      </trkpt>
      <trkpt lat="48.5502563" lon="-2.0562912">
        <ele>83.627</ele>
        <time>2018-08-21T10:42:28.479Z</time>
      </trkpt>
      <trkpt lat="48.5501448" lon="-2.0562436">
        <ele>83.247</ele>
        <time>2018-08-21T10:42:32.617Z</time>
      </trkpt>
      <trkpt lat="48.5500421" lon="-2.0561857">
        <ele>82.958</ele>
        <time>2018-08-21T10:42:36.586Z</time>
      </trkpt>
      <trkpt lat="48.5499308" lon="-2.0561457">
        <ele>82.718</ele>
        <time>2018-08-21T10:42:40.859Z</time>
      </trkpt>
      <trkpt lat="48.5498341" lon="-2.0561100">
        <ele>82.495</ele>
        <time>2018-08-21T10:42:44.412Z</time>
      </trkpt>
      <trkpt lat="48.5497468" lon="-2.0560658">
        <ele>82.280</ele>
        <time>2018-08-21T10:42:47.764Z</time>
      </trkpt>
      <trkpt lat="48.5496411" lon="-2.0560161">
        <ele>82.133</ele>
        <time>2018-08-21T10:42:52.004Z</time>
      </trkpt>
      <trkpt lat="48.5495432" lon="-2.0559778">
        <ele>82.078</ele>
        <time>2018-08-21T10:42:55.979Z</time>
      </trkpt>
      <trkpt lat="48.5494350" lon="-2.0559461">
        <ele>81.837</ele>
        <time>2018-08-21T10:43:00.057Z</time>
      </trkpt>
      <trkpt lat="48.5493286" lon="-2.0559062">
        <ele>81.196</ele>
        <time>2018-08-21T10:43:03.685Z</time>
      </trkpt>
      <trkpt lat="48.5492419" lon="-2.0558690">
        <ele>80.136</ele>
        <time>2018-08-21T10:43:06.658Z</time>
      </trkpt>
      <trkpt lat="48.5491343" lon="-2.0558163">
        <ele>78.842</ele>
        <time>2018-08-21T10:43:10.550Z</time>
      </trkpt>
      <trkpt lat="48.5490386" lon="-2.0557570">
        <ele>77.888</ele>
        <time>2018-08-21T10:43:14.253Z</time>
      </trkpt>
      <trkpt lat="48.5489377" lon="-2.0557088">
        <ele>77.664</ele>
        <time>2018-08-21T10:43:17.997Z</time>
      </trkpt>
      <trkpt lat="48.5488504" lon="-2.0556747">
        <ele>77.810</ele>
        <time>2018-08-21T10:43:21.124Z</time>
      </trkpt>
      <trkpt lat="48.5487610" lon="-2.0556408">
        <ele>77.932</ele>
        <time>2018-08-21T10:43:24.255Z</time>
      </trkpt>
      <trkpt lat="48.5486704" lon="-2.0556013">
        <ele>78.130</ele>
        <time>2018-08-21T10:43:27.391Z</time>
      </trkpt>
      <trkpt lat="48.5485770" lon="-2.0555563">
        <ele>78.622</ele>
        <time>2018-08-21T10:43:30.745Z</time>
      </trkpt>
      <trkpt lat="48.5484655" lon="-2.0555056">
        <ele>79.366</ele>
        <time>2018-08-21T10:43:34.858Z</time>
      </trkpt>
      <trkpt lat="48.5483490" lon="-2.0554606">
        <ele>80.121</ele>
        <time>2018-08-21T10:43:39.221Z</time>
      </trkpt>
      <trkpt lat="48.5482376" lon="-2.0554302">
        <ele>80.589</ele>
        <time>2018-08-21T10:43:43.602Z</time>
      </trkpt>
      <trkpt lat="48.5481220" lon="-2.0553934">
        <ele>80.574</ele>
        <time>2018-08-21T10:43:48.741Z</time>
      </trkpt>
      <trkpt lat="48.5480192" lon="-2.0553567">
        <ele>80.237</ele>
        <time>2018-08-21T10:43:53.488Z</time>
      </trkpt>
      <trkpt lat="48.5479274" lon="-2.0553288">
        <ele>79.898</ele>
        <time>2018-08-21T10:43:57.683Z</time>
      </trkpt>
      <trkpt lat="48.5478097" lon="-2.0552821">
        <ele>79.891</ele>
        <time>2018-08-21T10:44:02.870Z</time>
      </trkpt>
      <trkpt lat="48.5477153" lon="-2.0552453">
        <ele>80.418</ele>
        <time>2018-08-21T10:44:06.392Z</time>
      </trkpt>
      <trkpt lat="48.5476206" lon="-2.0552088">
        <ele>81.261</ele>
        <time>2018-08-21T10:44:09.604Z</time>
      </trkpt>
      <trkpt lat="48.5475218" lon="-2.0551665">
        <ele>81.973</ele>
        <time>2018-08-21T10:44:13.040Z</time>
      </trkpt>
      <trkpt lat="48.5474252" lon="-2.0551224">
        <ele>82.382</ele>
        <time>2018-08-21T10:44:16.652Z</time>
      </trkpt>
      <trkpt lat="48.5473198" lon="-2.0550633">
        <ele>82.595</ele>
        <time>2018-08-21T10:44:20.647Z</time>
      </trkpt>
      <trkpt lat="48.5472205" lon="-2.0550205">
        <ele>82.781</ele>
        <time>2018-08-21T10:44:24.055Z</time>
      </trkpt>
      <trkpt lat="48.5471105" lon="-2.0549777">
        <ele>82.991</ele>
        <time>2018-08-21T10:44:27.738Z</time>
      </trkpt>
      <trkpt lat="48.5470040" lon="-2.0549676">
        <ele>83.320</ele>
        <time>2018-08-21T10:44:31.403Z</time>
      </trkpt>
      <trkpt lat="48.5469142" lon="-2.0549408">
        <ele>83.842</ele>
        <time>2018-08-21T10:44:34.618Z</time>
      </trkpt>
      <trkpt lat="48.5468266" lon="-2.0548935">
        <ele>84.292</ele>
        <time>2018-08-21T10:44:37.609Z</time>
      </trkpt>
      <trkpt lat="48.5467248" lon="-2.0548430">
        <ele>84.432</ele>
        <time>2018-08-21T10:44:40.980Z</time>
      </trkpt>
      <trkpt lat="48.5466377" lon="-2.0547956">
        <ele>84.490</ele>
        <time>2018-08-21T10:44:44.137Z</time>
      </trkpt>
      <trkpt lat="48.5465365" lon="-2.0547431">
        <ele>84.694</ele>
        <time>2018-08-21T10:44:47.756Z</time>
      </trkpt>
      <trkpt lat="48.5464311" lon="-2.0546979">
        <ele>84.908</ele>
        <time>2018-08-21T10:44:51.224Z</time>
      </trkpt>
      <trkpt lat="48.5463282" lon="-2.0546395">
        <ele>84.889</ele>
        <time>2018-08-21T10:44:54.680Z</time>
      </trkpt>
      <trkpt lat="48.5462200" lon="-2.0545806">
        <ele>84.670</ele>
        <time>2018-08-21T10:44:58.144Z</time>
      </trkpt>
      <trkpt lat="48.5461267" lon="-2.0545319">
        <ele>84.446</ele>
        <time>2018-08-21T10:45:00.850Z</time>
      </trkpt>
      <trkpt lat="48.5460366" lon="-2.0544683">
        <ele>84.265</ele>
        <time>2018-08-21T10:45:03.383Z</time>
      </trkpt>
      <trkpt lat="48.5459541" lon="-2.0544075">
        <ele>84.065</ele>
        <time>2018-08-21T10:45:05.656Z</time>
      </trkpt>
      <trkpt lat="48.5458481" lon="-2.0543606">
        <ele>83.870</ele>
        <time>2018-08-21T10:45:08.343Z</time>
      </trkpt>
      <trkpt lat="48.5457424" lon="-2.0543315">
        <ele>83.676</ele>
        <time>2018-08-21T10:45:11.011Z</time>
      </trkpt>
      <trkpt lat="48.5456144" lon="-2.0542984">
        <ele>83.452</ele>
        <time>2018-08-21T10:45:14.492Z</time>
      </trkpt>
      <trkpt lat="48.5455216" lon="-2.0542671">
        <ele>83.220</ele>
        <time>2018-08-21T10:45:17.148Z</time>
      </trkpt>
      <trkpt lat="48.5454324" lon="-2.0542347">
        <ele>82.965</ele>
        <time>2018-08-21T10:45:19.725Z</time>
      </trkpt>
      <trkpt lat="48.5453144" lon="-2.0541915">
        <ele>82.700</ele>
        <time>2018-08-21T10:45:23.264Z</time>
      </trkpt>
      <trkpt lat="48.5452126" lon="-2.0541347">
        <ele>82.552</ele>
        <time>2018-08-21T10:45:26.485Z</time>
      </trkpt>
      <trkpt lat="48.5450726" lon="-2.0540833">
        <ele>82.574</ele>
        <time>2018-08-21T10:45:30.265Z</time>
      </trkpt>
      <trkpt lat="48.5449263" lon="-2.0540360">
        <ele>82.671</ele>
        <time>2018-08-21T10:45:33.801Z</time>
      </trkpt>
      <trkpt lat="48.5448377" lon="-2.0540028">
        <ele>82.718</ele>
        <time>2018-08-21T10:45:36.209Z</time>
      </trkpt>
      <trkpt lat="48.5447452" lon="-2.0539737">
        <ele>82.718</ele>
        <time>2018-08-21T10:45:38.867Z</time>
      </trkpt>
      <trkpt lat="48.5446424" lon="-2.0539445">
        <ele>82.694</ele>
        <time>2018-08-21T10:45:41.604Z</time>
      </trkpt>
      <trkpt lat="48.5444999" lon="-2.0538990">
        <ele>82.519</ele>
        <time>2018-08-21T10:45:44.859Z</time>
      </trkpt>
      <trkpt lat="48.5444087" lon="-2.0538617">
        <ele>82.173</ele>
        <time>2018-08-21T10:45:46.858Z</time>
      </trkpt>
      <trkpt lat="48.5442821" lon="-2.0538041">
        <ele>81.870</ele>
        <time>2018-08-21T10:45:49.648Z</time>
      </trkpt>
      <trkpt lat="48.5441622" lon="-2.0537467">
        <ele>81.697</ele>
        <time>2018-08-21T10:45:52.237Z</time>
      </trkpt>
      <trkpt lat="48.5440344" lon="-2.0536939">
        <ele>81.512</ele>
        <time>2018-08-21T10:45:54.971Z</time>
      </trkpt>
      <trkpt lat="48.5439146" lon="-2.0536441">
        <ele>81.230</ele>
        <time>2018-08-21T10:45:57.610Z</time>
      </trkpt>
      <trkpt lat="48.5438059" lon="-2.0535882">
        <ele>80.934</ele>
        <time>2018-08-21T10:46:00.151Z</time>
      </trkpt>
      <trkpt lat="48.5436908" lon="-2.0535421">
        <ele>80.686</ele>
        <time>2018-08-21T10:46:02.836Z</time>
      </trkpt>
      <trkpt lat="48.5435758" lon="-2.0534850">
        <ele>80.302</ele>
        <time>2018-08-21T10:46:05.571Z</time>
      </trkpt>
      <trkpt lat="48.5434851" lon="-2.0534416">
        <ele>79.685</ele>
        <time>2018-08-21T10:46:07.723Z</time>
      </trkpt>
      <trkpt lat="48.5433825" lon="-2.0533795">
        <ele>79.075</ele>
        <time>2018-08-21T10:46:10.255Z</time>
      </trkpt>
      <trkpt lat="48.5432867" lon="-2.0533343">
        <ele>78.714</ele>
        <time>2018-08-21T10:46:12.670Z</time>
      </trkpt>
      <trkpt lat="48.5431936" lon="-2.0532799">
        <ele>78.636</ele>
        <time>2018-08-21T10:46:15.072Z</time>
      </trkpt>
      <trkpt lat="48.5430905" lon="-2.0532416">
        <ele>78.778</ele>
        <time>2018-08-21T10:46:17.699Z</time>
      </trkpt>
      <trkpt lat="48.5430034" lon="-2.0531921">
        <ele>78.911</ele>
        <time>2018-08-21T10:46:20.354Z</time>
      </trkpt>
      <trkpt lat="48.5428737" lon="-2.0531652">
        <ele>78.795</ele>
        <time>2018-08-21T10:46:24.760Z</time>
      </trkpt>
      <trkpt lat="48.5427514" lon="-2.0531365">
        <ele>78.301</ele>
        <time>2018-08-21T10:46:28.853Z</time>
      </trkpt>
      <trkpt lat="48.5426338" lon="-2.0531030">
        <ele>77.583</ele>
        <time>2018-08-21T10:46:32.596Z</time>
      </trkpt>
      <trkpt lat="48.5425386" lon="-2.0530850">
        <ele>76.971</ele>
        <time>2018-08-21T10:46:35.897Z</time>
      </trkpt>
      <trkpt lat="48.5424510" lon="-2.0530493">
        <ele>76.618</ele>
        <time>2018-08-21T10:46:38.879Z</time>
      </trkpt>
      <trkpt lat="48.5423462" lon="-2.0530102">
        <ele>76.451</ele>
        <time>2018-08-21T10:46:42.088Z</time>
      </trkpt>
      <trkpt lat="48.5422506" lon="-2.0529731">
        <ele>76.333</ele>
        <time>2018-08-21T10:46:45.037Z</time>
      </trkpt>
      <trkpt lat="48.5421305" lon="-2.0529424">
        <ele>76.183</ele>
        <time>2018-08-21T10:46:49.087Z</time>
      </trkpt>
      <trkpt lat="48.5420266" lon="-2.0529220">
        <ele>76.114</ele>
        <time>2018-08-21T10:46:52.809Z</time>
      </trkpt>
      <trkpt lat="48.5419354" lon="-2.0528744">
        <ele>76.234</ele>
        <time>2018-08-21T10:46:56.044Z</time>
      </trkpt>
      <trkpt lat="48.5418332" lon="-2.0527979">
        <ele>76.539</ele>
        <time>2018-08-21T10:46:59.891Z</time>
      </trkpt>
      <trkpt lat="48.5417371" lon="-2.0527387">
        <ele>77.034</ele>
        <time>2018-08-21T10:47:03.524Z</time>
      </trkpt>
      <trkpt lat="48.5416321" lon="-2.0526787">
        <ele>77.640</ele>
        <time>2018-08-21T10:47:07.582Z</time>
      </trkpt>
      <trkpt lat="48.5415438" lon="-2.0526195">
        <ele>78.119</ele>
        <time>2018-08-21T10:47:11.354Z</time>
      </trkpt>
      <trkpt lat="48.5414371" lon="-2.0525736">
        <ele>78.336</ele>
        <time>2018-08-21T10:47:16.357Z</time>
      </trkpt>
      <trkpt lat="48.5413258" lon="-2.0525138">
        <ele>78.270</ele>
        <time>2018-08-21T10:47:22.430Z</time>
      </trkpt>
      <trkpt lat="48.5412339" lon="-2.0524656">
        <ele>77.987</ele>
        <time>2018-08-21T10:47:26.885Z</time>
      </trkpt>
      <trkpt lat="48.5411291" lon="-2.0524109">
        <ele>77.753</ele>
        <time>2018-08-21T10:47:31.659Z</time>
      </trkpt>
      <trkpt lat="48.5410148" lon="-2.0523646">
        <ele>77.797</ele>
        <time>2018-08-21T10:47:35.901Z</time>
      </trkpt>
      <trkpt lat="48.5408993" lon="-2.0523219">
        <ele>78.027</ele>
        <time>2018-08-21T10:47:39.643Z</time>
      </trkpt>
      <trkpt lat="48.5408080" lon="-2.0522945">
        <ele>78.235</ele>
        <time>2018-08-21T10:47:42.494Z</time>
      </trkpt>
      <trkpt lat="48.5406941" lon="-2.0522543">
        <ele>78.332</ele>
        <time>2018-08-21T10:47:46.250Z</time>
      </trkpt>
      <trkpt lat="48.5405918" lon="-2.0522041">
        <ele>78.424</ele>
        <time>2018-08-21T10:47:50.056Z</time>
      </trkpt>
      <trkpt lat="48.5404811" lon="-2.0521647">
        <ele>78.612</ele>
        <time>2018-08-21T10:47:54.370Z</time>
      </trkpt>
      <trkpt lat="48.5403897" lon="-2.0521287">
        <ele>78.816</ele>
        <time>2018-08-21T10:47:57.759Z</time>
      </trkpt>
      <trkpt lat="48.5402990" lon="-2.0520974">
        <ele>78.938</ele>
        <time>2018-08-21T10:48:00.946Z</time>
      </trkpt>
      <trkpt lat="48.5401917" lon="-2.0520709">
        <ele>79.102</ele>
        <time>2018-08-21T10:48:04.822Z</time>
      </trkpt>
      <trkpt lat="48.5400794" lon="-2.0520387">
        <ele>79.403</ele>
        <time>2018-08-21T10:48:09.361Z</time>
      </trkpt>
      <trkpt lat="48.5399793" lon="-2.0520032">
        <ele>79.708</ele>
        <time>2018-08-21T10:48:13.849Z</time>
      </trkpt>
      <trkpt lat="48.5398835" lon="-2.0519723">
        <ele>79.879</ele>
        <time>2018-08-21T10:48:18.171Z</time>
      </trkpt>
      <trkpt lat="48.5397662" lon="-2.0519377">
        <ele>80.006</ele>
        <time>2018-08-21T10:48:22.760Z</time>
      </trkpt>
      <trkpt lat="48.5396562" lon="-2.0518966">
        <ele>80.201</ele>
        <time>2018-08-21T10:48:26.526Z</time>
      </trkpt>
      <trkpt lat="48.5395634" lon="-2.0518516">
        <ele>80.412</ele>
        <time>2018-08-21T10:48:29.542Z</time>
      </trkpt>
      <trkpt lat="48.5394592" lon="-2.0518092">
        <ele>80.575</ele>
        <time>2018-08-21T10:48:32.716Z</time>
      </trkpt>
      <trkpt lat="48.5393577" lon="-2.0517677">
        <ele>80.760</ele>
        <time>2018-08-21T10:48:35.816Z</time>
      </trkpt>
      <trkpt lat="48.5392559" lon="-2.0517270">
        <ele>80.998</ele>
        <time>2018-08-21T10:48:38.994Z</time>
      </trkpt>
      <trkpt lat="48.5391413" lon="-2.0516531">
        <ele>81.209</ele>
        <time>2018-08-21T10:48:42.799Z</time>
      </trkpt>
      <trkpt lat="48.5390498" lon="-2.0516065">
        <ele>81.323</ele>
        <time>2018-08-21T10:48:45.801Z</time>
      </trkpt>
      <trkpt lat="48.5389601" lon="-2.0515773">
        <ele>81.350</ele>
        <time>2018-08-21T10:48:48.874Z</time>
      </trkpt>
      <trkpt lat="48.5388648" lon="-2.0515465">
        <ele>81.359</ele>
        <time>2018-08-21T10:48:52.281Z</time>
      </trkpt>
      <trkpt lat="48.5387766" lon="-2.0515143">
        <ele>81.451</ele>
        <time>2018-08-21T10:48:55.397Z</time>
      </trkpt>
      <trkpt lat="48.5386716" lon="-2.0514481">
        <ele>81.661</ele>
        <time>2018-08-21T10:48:59.214Z</time>
      </trkpt>
      <trkpt lat="48.5385854" lon="-2.0513983">
        <ele>81.899</ele>
        <time>2018-08-21T10:49:02.059Z</time>
      </trkpt>
      <trkpt lat="48.5384635" lon="-2.0513858">
        <ele>82.060</ele>
        <time>2018-08-21T10:49:05.778Z</time>
      </trkpt>
      <trkpt lat="48.5383679" lon="-2.0513351">
        <ele>82.086</ele>
        <time>2018-08-21T10:49:08.816Z</time>
      </trkpt>
      <trkpt lat="48.5382681" lon="-2.0512853">
        <ele>81.989</ele>
        <time>2018-08-21T10:49:11.763Z</time>
      </trkpt>
      <trkpt lat="48.5381606" lon="-2.0512501">
        <ele>81.823</ele>
        <time>2018-08-21T10:49:14.631Z</time>
      </trkpt>
      <trkpt lat="48.5380256" lon="-2.0512240">
        <ele>81.637</ele>
        <time>2018-08-21T10:49:18.123Z</time>
      </trkpt>
      <trkpt lat="48.5379082" lon="-2.0512272">
        <ele>81.467</ele>
        <time>2018-08-21T10:49:21.274Z</time>
      </trkpt>
      <trkpt lat="48.5378099" lon="-2.0512162">
        <ele>81.334</ele>
        <time>2018-08-21T10:49:23.999Z</time>
      </trkpt>
      <trkpt lat="48.5376929" lon="-2.0511623">
        <ele>81.244</ele>
        <time>2018-08-21T10:49:27.371Z</time>
      </trkpt>
      <trkpt lat="48.5375949" lon="-2.0511046">
        <ele>81.269</ele>
        <time>2018-08-21T10:49:30.272Z</time>
      </trkpt>
      <trkpt lat="48.5374814" lon="-2.0510382">
        <ele>81.435</ele>
        <time>2018-08-21T10:49:33.757Z</time>
      </trkpt>
      <trkpt lat="48.5373943" lon="-2.0509975">
        <ele>81.713</ele>
        <time>2018-08-21T10:49:36.504Z</time>
      </trkpt>
      <trkpt lat="48.5373020" lon="-2.0509517">
        <ele>82.083</ele>
        <time>2018-08-21T10:49:39.501Z</time>
      </trkpt>
      <trkpt lat="48.5372072" lon="-2.0508935">
        <ele>82.453</ele>
        <time>2018-08-21T10:49:42.684Z</time>
      </trkpt>
      <trkpt lat="48.5371193" lon="-2.0508396">
        <ele>82.650</ele>
        <time>2018-08-21T10:49:45.855Z</time>
      </trkpt>
      <trkpt lat="48.5370259" lon="-2.0507976">
        <ele>82.589</ele>
        <time>2018-08-21T10:49:49.784Z</time>
      </trkpt>
      <trkpt lat="48.5369190" lon="-2.0507557">
        <ele>82.354</ele>
        <time>2018-08-21T10:49:54.912Z</time>
      </trkpt>
      <trkpt lat="48.5368292" lon="-2.0507135">
        <ele>82.132</ele>
        <time>2018-08-21T10:50:00.998Z</time>
      </trkpt>
      <trkpt lat="48.5368292" lon="-2.0507135">
        <ele>82.023</ele>
        <time>2018-08-21T10:50:15.998Z</time>
      </trkpt>
      <trkpt lat="48.5367663" lon="-2.0507106">
        <ele>85.798</ele>
        <time>2018-08-21T11:34:54.014Z</time>
      </trkpt>
      <trkpt lat="48.5367663" lon="-2.0507106">
        <ele>85.759</ele>
        <time>2018-08-21T11:35:32.000Z</time>
      </trkpt>
      <trkpt lat="48.5367663" lon="-2.0507106">
        <ele>85.737</ele>
        <time>2018-08-21T11:35:39.317Z</time>
      </trkpt>
      <trkpt lat="48.5365939" lon="-2.0505784">
        <ele>85.713</ele>
        <time>2018-08-21T11:35:54.532Z</time>
      </trkpt>
      <trkpt lat="48.5365040" lon="-2.0505304">
        <ele>85.349</ele>
        <time>2018-08-21T11:35:58.929Z</time>
      </trkpt>
      <trkpt lat="48.5364143" lon="-2.0504846">
        <ele>84.432</ele>
        <time>2018-08-21T11:36:03.531Z</time>
      </trkpt>
      <trkpt lat="48.5363123" lon="-2.0504407">
        <ele>83.461</ele>
        <time>2018-08-21T11:36:09.795Z</time>
      </trkpt>
      <trkpt lat="48.5362227" lon="-2.0504266">
        <ele>82.917</ele>
        <time>2018-08-21T11:36:15.090Z</time>
      </trkpt>
      <trkpt lat="48.5361334" lon="-2.0503933">
        <ele>82.673</ele>
        <time>2018-08-21T11:36:19.332Z</time>
      </trkpt>
      <trkpt lat="48.5360413" lon="-2.0503594">
        <ele>82.538</ele>
        <time>2018-08-21T11:36:23.192Z</time>
      </trkpt>
      <trkpt lat="48.5359429" lon="-2.0503062">
        <ele>82.414</ele>
        <time>2018-08-21T11:36:27.181Z</time>
      </trkpt>
      <trkpt lat="48.5358422" lon="-2.0502501">
        <ele>82.258</ele>
        <time>2018-08-21T11:36:31.176Z</time>
      </trkpt>
      <trkpt lat="48.5357416" lon="-2.0502102">
        <ele>82.027</ele>
        <time>2018-08-21T11:36:34.934Z</time>
      </trkpt>
      <trkpt lat="48.5356370" lon="-2.0501693">
        <ele>81.680</ele>
        <time>2018-08-21T11:36:38.638Z</time>
      </trkpt>
      <trkpt lat="48.5355240" lon="-2.0501227">
        <ele>81.262</ele>
        <time>2018-08-21T11:36:42.571Z</time>
      </trkpt>
      <trkpt lat="48.5354115" lon="-2.0500697">
        <ele>80.885</ele>
        <time>2018-08-21T11:36:46.583Z</time>
      </trkpt>
      <trkpt lat="48.5353035" lon="-2.0500169">
        <ele>80.613</ele>
        <time>2018-08-21T11:36:50.325Z</time>
      </trkpt>
      <trkpt lat="48.5352169" lon="-2.0499805">
        <ele>80.395</ele>
        <time>2018-08-21T11:36:53.214Z</time>
      </trkpt>
      <trkpt lat="48.5351105" lon="-2.0499305">
        <ele>80.152</ele>
        <time>2018-08-21T11:36:56.780Z</time>
      </trkpt>
      <trkpt lat="48.5350194" lon="-2.0498860">
        <ele>79.811</ele>
        <time>2018-08-21T11:36:59.773Z</time>
      </trkpt>
      <trkpt lat="48.5349210" lon="-2.0498449">
        <ele>79.369</ele>
        <time>2018-08-21T11:37:02.926Z</time>
      </trkpt>
      <trkpt lat="48.5348185" lon="-2.0498110">
        <ele>78.934</ele>
        <time>2018-08-21T11:37:06.142Z</time>
      </trkpt>
      <trkpt lat="48.5347223" lon="-2.0497723">
        <ele>78.624</ele>
        <time>2018-08-21T11:37:09.171Z</time>
      </trkpt>
      <trkpt lat="48.5346265" lon="-2.0497378">
        <ele>78.468</ele>
        <time>2018-08-21T11:37:12.187Z</time>
      </trkpt>
      <trkpt lat="48.5345390" lon="-2.0497021">
        <ele>78.456</ele>
        <time>2018-08-21T11:37:15.036Z</time>
      </trkpt>
      <trkpt lat="48.5344248" lon="-2.0496510">
        <ele>78.430</ele>
        <time>2018-08-21T11:37:18.987Z</time>
      </trkpt>
      <trkpt lat="48.5343280" lon="-2.0496173">
        <ele>78.265</ele>
        <time>2018-08-21T11:37:22.359Z</time>
      </trkpt>
      <trkpt lat="48.5342115" lon="-2.0495742">
        <ele>78.040</ele>
        <time>2018-08-21T11:37:26.320Z</time>
      </trkpt>
      <trkpt lat="48.5341148" lon="-2.0495348">
        <ele>77.897</ele>
        <time>2018-08-21T11:37:29.505Z</time>
      </trkpt>
      <trkpt lat="48.5340239" lon="-2.0494971">
        <ele>77.854</ele>
        <time>2018-08-21T11:37:32.572Z</time>
      </trkpt>
      <trkpt lat="48.5339363" lon="-2.0494606">
        <ele>77.965</ele>
        <time>2018-08-21T11:37:35.718Z</time>
      </trkpt>
      <trkpt lat="48.5338291" lon="-2.0494034">
        <ele>78.337</ele>
        <time>2018-08-21T11:37:39.776Z</time>
      </trkpt>
      <trkpt lat="48.5337184" lon="-2.0493467">
        <ele>78.887</ele>
        <time>2018-08-21T11:37:43.935Z</time>
      </trkpt>
      <trkpt lat="48.5336051" lon="-2.0493027">
        <ele>79.385</ele>
        <time>2018-08-21T11:37:47.957Z</time>
      </trkpt>
      <trkpt lat="48.5334957" lon="-2.0492538">
        <ele>79.781</ele>
        <time>2018-08-21T11:37:51.810Z</time>
      </trkpt>
      <trkpt lat="48.5333850" lon="-2.0492198">
        <ele>80.116</ele>
        <time>2018-08-21T11:37:55.624Z</time>
      </trkpt>
      <trkpt lat="48.5332779" lon="-2.0491690">
        <ele>80.331</ele>
        <time>2018-08-21T11:37:59.455Z</time>
      </trkpt>
      <trkpt lat="48.5331703" lon="-2.0491223">
        <ele>80.408</ele>
        <time>2018-08-21T11:38:03.301Z</time>
      </trkpt>
      <trkpt lat="48.5330674" lon="-2.0490845">
        <ele>80.505</ele>
        <time>2018-08-21T11:38:06.970Z</time>
      </trkpt>
      <trkpt lat="48.5329632" lon="-2.0490343">
        <ele>80.714</ele>
        <time>2018-08-21T11:38:10.943Z</time>
      </trkpt>
      <trkpt lat="48.5328659" lon="-2.0489995">
        <ele>80.940</ele>
        <time>2018-08-21T11:38:14.766Z</time>
      </trkpt>
      <trkpt lat="48.5327553" lon="-2.0489664">
        <ele>81.105</ele>
        <time>2018-08-21T11:38:19.060Z</time>
      </trkpt>
      <trkpt lat="48.5326535" lon="-2.0489334">
        <ele>81.252</ele>
        <time>2018-08-21T11:38:23.092Z</time>
      </trkpt>
      <trkpt lat="48.5325426" lon="-2.0489012">
        <ele>81.393</ele>
        <time>2018-08-21T11:38:27.632Z</time>
      </trkpt>
      <trkpt lat="48.5324318" lon="-2.0488434">
        <ele>81.520</ele>
        <time>2018-08-21T11:38:32.259Z</time>
      </trkpt>
      <trkpt lat="48.5323267" lon="-2.0488009">
        <ele>81.641</ele>
        <time>2018-08-21T11:38:36.481Z</time>
      </trkpt>
      <trkpt lat="48.5322165" lon="-2.0487574">
        <ele>81.732</ele>
        <time>2018-08-21T11:38:40.958Z</time>
      </trkpt>
      <trkpt lat="48.5321184" lon="-2.0487062">
        <ele>81.777</ele>
        <time>2018-08-21T11:38:45.085Z</time>
      </trkpt>
      <trkpt lat="48.5320252" lon="-2.0486723">
        <ele>81.916</ele>
        <time>2018-08-21T11:38:48.875Z</time>
      </trkpt>
      <trkpt lat="48.5319287" lon="-2.0486260">
        <ele>82.282</ele>
        <time>2018-08-21T11:38:53.041Z</time>
      </trkpt>
      <trkpt lat="48.5318264" lon="-2.0485805">
        <ele>82.755</ele>
        <time>2018-08-21T11:38:57.636Z</time>
      </trkpt>
      <trkpt lat="48.5317341" lon="-2.0485401">
        <ele>83.107</ele>
        <time>2018-08-21T11:39:01.695Z</time>
      </trkpt>
      <trkpt lat="48.5316349" lon="-2.0485037">
        <ele>83.294</ele>
        <time>2018-08-21T11:39:05.787Z</time>
      </trkpt>
      <trkpt lat="48.5315331" lon="-2.0484684">
        <ele>83.442</ele>
        <time>2018-08-21T11:39:09.889Z</time>
      </trkpt>
      <trkpt lat="48.5314303" lon="-2.0484266">
        <ele>83.666</ele>
        <time>2018-08-21T11:39:14.083Z</time>
      </trkpt>
      <trkpt lat="48.5313331" lon="-2.0483891">
        <ele>83.984</ele>
        <time>2018-08-21T11:39:17.970Z</time>
      </trkpt>
      <trkpt lat="48.5312275" lon="-2.0483468">
        <ele>84.349</ele>
        <time>2018-08-21T11:39:22.081Z</time>
      </trkpt>
      <trkpt lat="48.5311251" lon="-2.0483041">
        <ele>84.657</ele>
        <time>2018-08-21T11:39:26.081Z</time>
      </trkpt>
      <trkpt lat="48.5310294" lon="-2.0482630">
        <ele>84.830</ele>
        <time>2018-08-21T11:39:29.904Z</time>
      </trkpt>
      <trkpt lat="48.5309353" lon="-2.0482187">
        <ele>84.904</ele>
        <time>2018-08-21T11:39:33.717Z</time>
      </trkpt>
      <trkpt lat="48.5308338" lon="-2.0481781">
        <ele>84.971</ele>
        <time>2018-08-21T11:39:37.713Z</time>
      </trkpt>
      <trkpt lat="48.5307355" lon="-2.0481326">
        <ele>85.080</ele>
        <time>2018-08-21T11:39:41.614Z</time>
      </trkpt>
      <trkpt lat="48.5306417" lon="-2.0480922">
        <ele>85.229</ele>
        <time>2018-08-21T11:39:45.316Z</time>
      </trkpt>
      <trkpt lat="48.5305446" lon="-2.0480455">
        <ele>85.384</ele>
        <time>2018-08-21T11:39:49.119Z</time>
      </trkpt>
      <trkpt lat="48.5304396" lon="-2.0479964">
        <ele>85.510</ele>
        <time>2018-08-21T11:39:53.177Z</time>
      </trkpt>
      <trkpt lat="48.5303393" lon="-2.0479643">
        <ele>85.617</ele>
        <time>2018-08-21T11:39:57.041Z</time>
      </trkpt>
      <trkpt lat="48.5302515" lon="-2.0479310">
        <ele>85.770</ele>
        <time>2018-08-21T11:40:00.563Z</time>
      </trkpt>
      <trkpt lat="48.5301470" lon="-2.0478932">
        <ele>86.086</ele>
        <time>2018-08-21T11:40:04.981Z</time>
      </trkpt>
      <trkpt lat="48.5300383" lon="-2.0478586">
        <ele>86.554</ele>
        <time>2018-08-21T11:40:09.805Z</time>
      </trkpt>
      <trkpt lat="48.5299367" lon="-2.0478194">
        <ele>86.967</ele>
        <time>2018-08-21T11:40:14.211Z</time>
      </trkpt>
      <trkpt lat="48.5298415" lon="-2.0477904">
        <ele>87.169</ele>
        <time>2018-08-21T11:40:18.013Z</time>
      </trkpt>
      <trkpt lat="48.5297351" lon="-2.0477314">
        <ele>87.155</ele>
        <time>2018-08-21T11:40:22.290Z</time>
      </trkpt>
      <trkpt lat="48.5296370" lon="-2.0476948">
        <ele>86.997</ele>
        <time>2018-08-21T11:40:26.125Z</time>
      </trkpt>
      <trkpt lat="48.5295367" lon="-2.0476505">
        <ele>86.833</ele>
        <time>2018-08-21T11:40:30.095Z</time>
      </trkpt>
      <trkpt lat="48.5294291" lon="-2.0476020">
        <ele>86.790</ele>
        <time>2018-08-21T11:40:34.189Z</time>
      </trkpt>
      <trkpt lat="48.5293384" lon="-2.0475570">
        <ele>86.875</ele>
        <time>2018-08-21T11:40:37.491Z</time>
      </trkpt>
      <trkpt lat="48.5292318" lon="-2.0475064">
        <ele>87.013</ele>
        <time>2018-08-21T11:40:41.343Z</time>
      </trkpt>
      <trkpt lat="48.5291435" lon="-2.0474632">
        <ele>87.143</ele>
        <time>2018-08-21T11:40:44.586Z</time>
      </trkpt>
      <trkpt lat="48.5290254" lon="-2.0474109">
        <ele>87.241</ele>
        <time>2018-08-21T11:40:48.806Z</time>
      </trkpt>
      <trkpt lat="48.5289319" lon="-2.0473741">
        <ele>87.326</ele>
        <time>2018-08-21T11:40:51.985Z</time>
      </trkpt>
      <trkpt lat="48.5288441" lon="-2.0473358">
        <ele>87.426</ele>
        <time>2018-08-21T11:40:55.049Z</time>
      </trkpt>
      <trkpt lat="48.5287348" lon="-2.0472850">
        <ele>87.513</ele>
        <time>2018-08-21T11:40:58.802Z</time>
      </trkpt>
      <trkpt lat="48.5286456" lon="-2.0472424">
        <ele>87.551</ele>
        <time>2018-08-21T11:41:01.674Z</time>
      </trkpt>
      <trkpt lat="48.5285494" lon="-2.0471975">
        <ele>87.514</ele>
        <time>2018-08-21T11:41:04.676Z</time>
      </trkpt>
      <trkpt lat="48.5284525" lon="-2.0471681">
        <ele>87.341</ele>
        <time>2018-08-21T11:41:07.609Z</time>
      </trkpt>
      <trkpt lat="48.5283321" lon="-2.0471273">
        <ele>87.066</ele>
        <time>2018-08-21T11:41:11.278Z</time>
      </trkpt>
      <trkpt lat="48.5282388" lon="-2.0470934">
        <ele>86.820</ele>
        <time>2018-08-21T11:41:14.185Z</time>
      </trkpt>
      <trkpt lat="48.5281518" lon="-2.0470557">
        <ele>86.629</ele>
        <time>2018-08-21T11:41:16.978Z</time>
      </trkpt>
      <trkpt lat="48.5280541" lon="-2.0470248">
        <ele>86.458</ele>
        <time>2018-08-21T11:41:19.938Z</time>
      </trkpt>
      <trkpt lat="48.5279450" lon="-2.0469781">
        <ele>86.324</ele>
        <time>2018-08-21T11:41:23.043Z</time>
      </trkpt>
      <trkpt lat="48.5278342" lon="-2.0469361">
        <ele>86.223</ele>
        <time>2018-08-21T11:41:25.950Z</time>
      </trkpt>
      <trkpt lat="48.5277194" lon="-2.0468938">
        <ele>86.053</ele>
        <time>2018-08-21T11:41:28.821Z</time>
      </trkpt>
      <trkpt lat="48.5276070" lon="-2.0468535">
        <ele>85.738</ele>
        <time>2018-08-21T11:41:31.567Z</time>
      </trkpt>
      <trkpt lat="48.5274856" lon="-2.0468152">
        <ele>85.346</ele>
        <time>2018-08-21T11:41:34.470Z</time>
      </trkpt>
      <trkpt lat="48.5273660" lon="-2.0467806">
        <ele>84.962</ele>
        <time>2018-08-21T11:41:37.289Z</time>
      </trkpt>
      <trkpt lat="48.5272481" lon="-2.0467491">
        <ele>84.599</ele>
        <time>2018-08-21T11:41:40.095Z</time>
      </trkpt>
      <trkpt lat="48.5271414" lon="-2.0467189">
        <ele>84.293</ele>
        <time>2018-08-21T11:41:42.738Z</time>
      </trkpt>
      <trkpt lat="48.5270332" lon="-2.0466992">
        <ele>83.991</ele>
        <time>2018-08-21T11:41:45.538Z</time>
      </trkpt>
      <trkpt lat="48.5269174" lon="-2.0466751">
        <ele>83.627</ele>
        <time>2018-08-21T11:41:48.619Z</time>
      </trkpt>
      <trkpt lat="48.5268048" lon="-2.0466465">
        <ele>83.325</ele>
        <time>2018-08-21T11:41:51.639Z</time>
      </trkpt>
      <trkpt lat="48.5267023" lon="-2.0466220">
        <ele>83.209</ele>
        <time>2018-08-21T11:41:54.453Z</time>
      </trkpt>
      <trkpt lat="48.5265967" lon="-2.0466103">
        <ele>83.219</ele>
        <time>2018-08-21T11:41:57.375Z</time>
      </trkpt>
      <trkpt lat="48.5264845" lon="-2.0465903">
        <ele>83.309</ele>
        <time>2018-08-21T11:42:00.448Z</time>
      </trkpt>
      <trkpt lat="48.5263665" lon="-2.0465697">
        <ele>83.465</ele>
        <time>2018-08-21T11:42:03.632Z</time>
      </trkpt>
      <trkpt lat="48.5262528" lon="-2.0465477">
        <ele>83.656</ele>
        <time>2018-08-21T11:42:06.686Z</time>
      </trkpt>
      <trkpt lat="48.5261419" lon="-2.0465153">
        <ele>83.835</ele>
        <time>2018-08-21T11:42:09.851Z</time>
      </trkpt>
      <trkpt lat="48.5260488" lon="-2.0464968">
        <ele>83.965</ele>
        <time>2018-08-21T11:42:13.000Z</time>
      </trkpt>
      <trkpt lat="48.5260488" lon="-2.0464968">
        <ele>84.037</ele>
        <time>2018-08-21T11:42:16.000Z</time>
      </trkpt>
      <trkpt lat="48.5260488" lon="-2.0464968">
        <ele>84.050</ele>
        <time>2018-08-21T11:43:59.170Z</time>
      </trkpt>
      <trkpt lat="48.5258238" lon="-2.0464475">
        <ele>84.001</ele>
        <time>2018-08-21T11:44:14.873Z</time>
      </trkpt>
      <trkpt lat="48.5257213" lon="-2.0464433">
        <ele>83.936</ele>
        <time>2018-08-21T11:44:19.075Z</time>
      </trkpt>
      <trkpt lat="48.5256221" lon="-2.0464215">
        <ele>83.855</ele>
        <time>2018-08-21T11:44:22.742Z</time>
      </trkpt>
      <trkpt lat="48.5255337" lon="-2.0463939">
        <ele>83.668</ele>
        <time>2018-08-21T11:44:26.023Z</time>
      </trkpt>
      <trkpt lat="48.5254284" lon="-2.0463650">
        <ele>83.397</ele>
        <time>2018-08-21T11:44:29.953Z</time>
      </trkpt>
      <trkpt lat="48.5253315" lon="-2.0463522">
        <ele>83.300</ele>
        <time>2018-08-21T11:44:33.320Z</time>
      </trkpt>
      <trkpt lat="48.5252357" lon="-2.0463454">
        <ele>83.594</ele>
        <time>2018-08-21T11:44:36.462Z</time>
      </trkpt>
      <trkpt lat="48.5251408" lon="-2.0463302">
        <ele>84.129</ele>
        <time>2018-08-21T11:44:39.503Z</time>
      </trkpt>
      <trkpt lat="48.5250444" lon="-2.0463178">
        <ele>84.708</ele>
        <time>2018-08-21T11:44:42.579Z</time>
      </trkpt>
      <trkpt lat="48.5249515" lon="-2.0463021">
        <ele>85.276</ele>
        <time>2018-08-21T11:44:45.502Z</time>
      </trkpt>
      <trkpt lat="48.5248502" lon="-2.0462981">
        <ele>85.705</ele>
        <time>2018-08-21T11:44:48.602Z</time>
      </trkpt>
      <trkpt lat="48.5247399" lon="-2.0462931">
        <ele>85.928</ele>
        <time>2018-08-21T11:44:51.928Z</time>
      </trkpt>
      <trkpt lat="48.5246400" lon="-2.0462789">
        <ele>86.110</ele>
        <time>2018-08-21T11:44:54.847Z</time>
      </trkpt>
      <trkpt lat="48.5245338" lon="-2.0462655">
        <ele>86.345</ele>
        <time>2018-08-21T11:44:57.854Z</time>
      </trkpt>
      <trkpt lat="48.5244226" lon="-2.0462535">
        <ele>86.481</ele>
        <time>2018-08-21T11:45:01.010Z</time>
      </trkpt>
      <trkpt lat="48.5243135" lon="-2.0462275">
        <ele>86.332</ele>
        <time>2018-08-21T11:45:04.233Z</time>
      </trkpt>
      <trkpt lat="48.5242143" lon="-2.0462094">
        <ele>85.988</ele>
        <time>2018-08-21T11:45:07.158Z</time>
      </trkpt>
      <trkpt lat="48.5241176" lon="-2.0461975">
        <ele>85.743</ele>
        <time>2018-08-21T11:45:09.942Z</time>
      </trkpt>
      <trkpt lat="48.5240143" lon="-2.0461741">
        <ele>85.730</ele>
        <time>2018-08-21T11:45:12.869Z</time>
      </trkpt>
      <trkpt lat="48.5239010" lon="-2.0461532">
        <ele>85.789</ele>
        <time>2018-08-21T11:45:15.986Z</time>
      </trkpt>
      <trkpt lat="48.5237912" lon="-2.0461325">
        <ele>85.661</ele>
        <time>2018-08-21T11:45:19.006Z</time>
      </trkpt>
      <trkpt lat="48.5236781" lon="-2.0461143">
        <ele>85.310</ele>
        <time>2018-08-21T11:45:22.168Z</time>
      </trkpt>
      <trkpt lat="48.5235743" lon="-2.0460928">
        <ele>84.909</ele>
        <time>2018-08-21T11:45:25.089Z</time>
      </trkpt>
      <trkpt lat="48.5234698" lon="-2.0460735">
        <ele>84.578</ele>
        <time>2018-08-21T11:45:28.008Z</time>
      </trkpt>
      <trkpt lat="48.5233695" lon="-2.0460534">
        <ele>84.347</ele>
        <time>2018-08-21T11:45:30.904Z</time>
      </trkpt>
      <trkpt lat="48.5232642" lon="-2.0460290">
        <ele>84.239</ele>
        <time>2018-08-21T11:45:34.298Z</time>
      </trkpt>
      <trkpt lat="48.5231552" lon="-2.0459593">
        <ele>84.228</ele>
        <time>2018-08-21T11:45:38.780Z</time>
      </trkpt>
      <trkpt lat="48.5230689" lon="-2.0459139">
        <ele>84.331</ele>
        <time>2018-08-21T11:45:42.320Z</time>
      </trkpt>
      <trkpt lat="48.5229893" lon="-2.0460417">
        <ele>84.749</ele>
        <time>2018-08-21T11:45:45.854Z</time>
      </trkpt>
      <trkpt lat="48.5228819" lon="-2.0460468">
        <ele>85.478</ele>
        <time>2018-08-21T11:45:48.813Z</time>
      </trkpt>
      <trkpt lat="48.5227699" lon="-2.0460264">
        <ele>86.089</ele>
        <time>2018-08-21T11:45:51.772Z</time>
      </trkpt>
      <trkpt lat="48.5226552" lon="-2.0460102">
        <ele>86.238</ele>
        <time>2018-08-21T11:45:54.746Z</time>
      </trkpt>
      <trkpt lat="48.5225448" lon="-2.0459973">
        <ele>86.032</ele>
        <time>2018-08-21T11:45:57.634Z</time>
      </trkpt>
      <trkpt lat="48.5224374" lon="-2.0459935">
        <ele>85.825</ele>
        <time>2018-08-21T11:46:00.390Z</time>
      </trkpt>
      <trkpt lat="48.5223269" lon="-2.0459874">
        <ele>85.876</ele>
        <time>2018-08-21T11:46:03.105Z</time>
      </trkpt>
      <trkpt lat="48.5222084" lon="-2.0459729">
        <ele>86.163</ele>
        <time>2018-08-21T11:46:05.956Z</time>
      </trkpt>
      <trkpt lat="48.5220885" lon="-2.0459567">
        <ele>86.511</ele>
        <time>2018-08-21T11:46:08.771Z</time>
      </trkpt>
      <trkpt lat="48.5219663" lon="-2.0459310">
        <ele>86.772</ele>
        <time>2018-08-21T11:46:11.645Z</time>
      </trkpt>
      <trkpt lat="48.5218378" lon="-2.0459123">
        <ele>86.906</ele>
        <time>2018-08-21T11:46:14.741Z</time>
      </trkpt>
      <trkpt lat="48.5217256" lon="-2.0458907">
        <ele>86.882</ele>
        <time>2018-08-21T11:46:17.603Z</time>
      </trkpt>
      <trkpt lat="48.5216141" lon="-2.0458766">
        <ele>86.639</ele>
        <time>2018-08-21T11:46:20.499Z</time>
      </trkpt>
      <trkpt lat="48.5214948" lon="-2.0458509">
        <ele>86.273</ele>
        <time>2018-08-21T11:46:23.444Z</time>
      </trkpt>
      <trkpt lat="48.5213645" lon="-2.0458337">
        <ele>85.947</ele>
        <time>2018-08-21T11:46:26.567Z</time>
      </trkpt>
      <trkpt lat="48.5212407" lon="-2.0458077">
        <ele>85.703</ele>
        <time>2018-08-21T11:46:29.605Z</time>
      </trkpt>
      <trkpt lat="48.5211229" lon="-2.0457819">
        <ele>85.550</ele>
        <time>2018-08-21T11:46:32.398Z</time>
      </trkpt>
      <trkpt lat="48.5209965" lon="-2.0457631">
        <ele>85.502</ele>
        <time>2018-08-21T11:46:35.232Z</time>
      </trkpt>
      <trkpt lat="48.5209019" lon="-2.0457458">
        <ele>85.518</ele>
        <time>2018-08-21T11:46:37.295Z</time>
      </trkpt>
      <trkpt lat="48.5207740" lon="-2.0457420">
        <ele>85.525</ele>
        <time>2018-08-21T11:46:40.047Z</time>
      </trkpt>
      <trkpt lat="48.5206451" lon="-2.0457292">
        <ele>85.492</ele>
        <time>2018-08-21T11:46:42.778Z</time>
      </trkpt>
      <trkpt lat="48.5205444" lon="-2.0457242">
        <ele>85.463</ele>
        <time>2018-08-21T11:46:44.854Z</time>
      </trkpt>
      <trkpt lat="48.5204469" lon="-2.0457045">
        <ele>85.481</ele>
        <time>2018-08-21T11:46:46.879Z</time>
      </trkpt>
      <trkpt lat="48.5203143" lon="-2.0456839">
        <ele>85.461</ele>
        <time>2018-08-21T11:46:49.683Z</time>
      </trkpt>
      <trkpt lat="48.5202157" lon="-2.0456678">
        <ele>85.229</ele>
        <time>2018-08-21T11:46:51.894Z</time>
      </trkpt>
      <trkpt lat="48.5200976" lon="-2.0456481">
        <ele>84.801</ele>
        <time>2018-08-21T11:46:54.577Z</time>
      </trkpt>
      <trkpt lat="48.5199995" lon="-2.0456378">
        <ele>84.384</ele>
        <time>2018-08-21T11:46:56.702Z</time>
      </trkpt>
      <trkpt lat="48.5198522" lon="-2.0456160">
        <ele>84.114</ele>
        <time>2018-08-21T11:46:59.808Z</time>
      </trkpt>
      <trkpt lat="48.5197254" lon="-2.0455912">
        <ele>83.989</ele>
        <time>2018-08-21T11:47:02.474Z</time>
      </trkpt>
      <trkpt lat="48.5195722" lon="-2.0455715">
        <ele>83.969</ele>
        <time>2018-08-21T11:47:05.699Z</time>
      </trkpt>
      <trkpt lat="48.5194262" lon="-2.0455605">
        <ele>83.841</ele>
        <time>2018-08-21T11:47:08.715Z</time>
      </trkpt>
      <trkpt lat="48.5192802" lon="-2.0455395">
        <ele>83.414</ele>
        <time>2018-08-21T11:47:11.699Z</time>
      </trkpt>
      <trkpt lat="48.5191782" lon="-2.0455218">
        <ele>82.842</ele>
        <time>2018-08-21T11:47:13.783Z</time>
      </trkpt>
      <trkpt lat="48.5190817" lon="-2.0455122">
        <ele>82.395</ele>
        <time>2018-08-21T11:47:15.759Z</time>
      </trkpt>
      <trkpt lat="48.5189915" lon="-2.0454892">
        <ele>82.143</ele>
        <time>2018-08-21T11:47:17.650Z</time>
      </trkpt>
      <trkpt lat="48.5189001" lon="-2.0454749">
        <ele>82.072</ele>
        <time>2018-08-21T11:47:19.548Z</time>
      </trkpt>
      <trkpt lat="48.5187574" lon="-2.0454505">
        <ele>82.128</ele>
        <time>2018-08-21T11:47:22.491Z</time>
      </trkpt>
      <trkpt lat="48.5186583" lon="-2.0454440">
        <ele>82.114</ele>
        <time>2018-08-21T11:47:24.493Z</time>
      </trkpt>
      <trkpt lat="48.5185134" lon="-2.0454155">
        <ele>81.855</ele>
        <time>2018-08-21T11:47:27.420Z</time>
      </trkpt>
      <trkpt lat="48.5183635" lon="-2.0453960">
        <ele>81.424</ele>
        <time>2018-08-21T11:47:30.418Z</time>
      </trkpt>
      <trkpt lat="48.5182687" lon="-2.0453860">
        <ele>81.002</ele>
        <time>2018-08-21T11:47:32.350Z</time>
      </trkpt>
      <trkpt lat="48.5181306" lon="-2.0453725">
        <ele>80.665</ele>
        <time>2018-08-21T11:47:35.239Z</time>
      </trkpt>
      <trkpt lat="48.5180024" lon="-2.0453680">
        <ele>80.394</ele>
        <time>2018-08-21T11:47:37.980Z</time>
      </trkpt>
      <trkpt lat="48.5179129" lon="-2.0453437">
        <ele>80.167</ele>
        <time>2018-08-21T11:47:39.905Z</time>
      </trkpt>
      <trkpt lat="48.5178211" lon="-2.0453213">
        <ele>79.919</ele>
        <time>2018-08-21T11:47:41.827Z</time>
      </trkpt>
      <trkpt lat="48.5177145" lon="-2.0453116">
        <ele>79.555</ele>
        <time>2018-08-21T11:47:44.056Z</time>
      </trkpt>
      <trkpt lat="48.5176028" lon="-2.0452872">
        <ele>79.091</ele>
        <time>2018-08-21T11:47:46.497Z</time>
      </trkpt>
      <trkpt lat="48.5174551" lon="-2.0452615">
        <ele>78.653</ele>
        <time>2018-08-21T11:47:49.747Z</time>
      </trkpt>
      <trkpt lat="48.5173355" lon="-2.0452282">
        <ele>78.272</ele>
        <time>2018-08-21T11:47:52.371Z</time>
      </trkpt>
      <trkpt lat="48.5171878" lon="-2.0452309">
        <ele>77.874</ele>
        <time>2018-08-21T11:47:55.802Z</time>
      </trkpt>
      <trkpt lat="48.5170613" lon="-2.0452120">
        <ele>77.459</ele>
        <time>2018-08-21T11:47:58.998Z</time>
      </trkpt>
      <trkpt lat="48.5169028" lon="-2.0451800">
        <ele>77.126</ele>
        <time>2018-08-21T11:48:02.972Z</time>
      </trkpt>
      <trkpt lat="48.5167988" lon="-2.0451576">
        <ele>76.795</ele>
        <time>2018-08-21T11:48:05.546Z</time>
      </trkpt>
      <trkpt lat="48.5166845" lon="-2.0451343">
        <ele>76.321</ele>
        <time>2018-08-21T11:48:08.517Z</time>
      </trkpt>
      <trkpt lat="48.5165639" lon="-2.0451144">
        <ele>75.798</ele>
        <time>2018-08-21T11:48:11.650Z</time>
      </trkpt>
      <trkpt lat="48.5164398" lon="-2.0450892">
        <ele>75.413</ele>
        <time>2018-08-21T11:48:14.855Z</time>
      </trkpt>
      <trkpt lat="48.5163307" lon="-2.0450929">
        <ele>75.226</ele>
        <time>2018-08-21T11:48:17.803Z</time>
      </trkpt>
      <trkpt lat="48.5162241" lon="-2.0450898">
        <ele>75.270</ele>
        <time>2018-08-21T11:48:20.724Z</time>
      </trkpt>
      <trkpt lat="48.5161039" lon="-2.0450753">
        <ele>75.487</ele>
        <time>2018-08-21T11:48:23.718Z</time>
      </trkpt>
      <trkpt lat="48.5159574" lon="-2.0450677">
        <ele>75.748</ele>
        <time>2018-08-21T11:48:26.861Z</time>
      </trkpt>
      <trkpt lat="48.5158567" lon="-2.0450582">
        <ele>76.011</ele>
        <time>2018-08-21T11:48:28.844Z</time>
      </trkpt>
      <trkpt lat="48.5157147" lon="-2.0450507">
        <ele>76.300</ele>
        <time>2018-08-21T11:48:31.641Z</time>
      </trkpt>
      <trkpt lat="48.5156185" lon="-2.0450353">
        <ele>76.589</ele>
        <time>2018-08-21T11:48:33.632Z</time>
      </trkpt>
      <trkpt lat="48.5154921" lon="-2.0450164">
        <ele>76.816</ele>
        <time>2018-08-21T11:48:36.295Z</time>
      </trkpt>
      <trkpt lat="48.5154004" lon="-2.0450020">
        <ele>76.859</ele>
        <time>2018-08-21T11:48:38.203Z</time>
      </trkpt>
      <trkpt lat="48.5152393" lon="-2.0449852">
        <ele>76.682</ele>
        <time>2018-08-21T11:48:41.493Z</time>
      </trkpt>
      <trkpt lat="48.5151355" lon="-2.0449544">
        <ele>76.402</ele>
        <time>2018-08-21T11:48:43.630Z</time>
      </trkpt>
      <trkpt lat="48.5150129" lon="-2.0449187">
        <ele>75.962</ele>
        <time>2018-08-21T11:48:46.151Z</time>
      </trkpt>
      <trkpt lat="48.5149105" lon="-2.0449039">
        <ele>75.201</ele>
        <time>2018-08-21T11:48:48.193Z</time>
      </trkpt>
      <trkpt lat="48.5148042" lon="-2.0449035">
        <ele>74.338</ele>
        <time>2018-08-21T11:48:50.250Z</time>
      </trkpt>
      <trkpt lat="48.5146488" lon="-2.0448692">
        <ele>73.772</ele>
        <time>2018-08-21T11:48:53.262Z</time>
      </trkpt>
      <trkpt lat="48.5145540" lon="-2.0448598">
        <ele>73.510</ele>
        <time>2018-08-21T11:48:55.141Z</time>
      </trkpt>
      <trkpt lat="48.5144193" lon="-2.0448317">
        <ele>73.311</ele>
        <time>2018-08-21T11:48:57.939Z</time>
      </trkpt>
      <trkpt lat="48.5142998" lon="-2.0448084">
        <ele>73.110</ele>
        <time>2018-08-21T11:49:00.449Z</time>
      </trkpt>
      <trkpt lat="48.5141703" lon="-2.0447804">
        <ele>72.979</ele>
        <time>2018-08-21T11:49:03.346Z</time>
      </trkpt>
      <trkpt lat="48.5140534" lon="-2.0447672">
        <ele>72.906</ele>
        <time>2018-08-21T11:49:06.263Z</time>
      </trkpt>
      <trkpt lat="48.5139404" lon="-2.0447683">
        <ele>72.720</ele>
        <time>2018-08-21T11:49:09.208Z</time>
      </trkpt>
      <trkpt lat="48.5138156" lon="-2.0447525">
        <ele>72.354</ele>
        <time>2018-08-21T11:49:12.361Z</time>
      </trkpt>
      <trkpt lat="48.5136885" lon="-2.0447283">
        <ele>72.099</ele>
        <time>2018-08-21T11:49:15.381Z</time>
      </trkpt>
      <trkpt lat="48.5135717" lon="-2.0447202">
        <ele>72.266</ele>
        <time>2018-08-21T11:49:18.155Z</time>
      </trkpt>
      <trkpt lat="48.5134647" lon="-2.0447163">
        <ele>72.721</ele>
        <time>2018-08-21T11:49:20.808Z</time>
      </trkpt>
      <trkpt lat="48.5133631" lon="-2.0446939">
        <ele>73.068</ele>
        <time>2018-08-21T11:49:23.530Z</time>
      </trkpt>
      <trkpt lat="48.5132553" lon="-2.0446842">
        <ele>73.125</ele>
        <time>2018-08-21T11:49:26.549Z</time>
      </trkpt>
      <trkpt lat="48.5131259" lon="-2.0446614">
        <ele>73.029</ele>
        <time>2018-08-21T11:49:29.975Z</time>
      </trkpt>
      <trkpt lat="48.5130337" lon="-2.0446504">
        <ele>72.886</ele>
        <time>2018-08-21T11:49:32.135Z</time>
      </trkpt>
      <trkpt lat="48.5129353" lon="-2.0446232">
        <ele>72.690</ele>
        <time>2018-08-21T11:49:34.268Z</time>
      </trkpt>
      <trkpt lat="48.5127952" lon="-2.0446394">
        <ele>72.515</ele>
        <time>2018-08-21T11:49:37.095Z</time>
      </trkpt>
      <trkpt lat="48.5126823" lon="-2.0446209">
        <ele>72.496</ele>
        <time>2018-08-21T11:49:39.377Z</time>
      </trkpt>
      <trkpt lat="48.5125781" lon="-2.0445896">
        <ele>72.742</ele>
        <time>2018-08-21T11:49:41.570Z</time>
      </trkpt>
      <trkpt lat="48.5124814" lon="-2.0445732">
        <ele>73.189</ele>
        <time>2018-08-21T11:49:43.698Z</time>
      </trkpt>
      <trkpt lat="48.5123528" lon="-2.0445685">
        <ele>73.579</ele>
        <time>2018-08-21T11:49:46.712Z</time>
      </trkpt>
      <trkpt lat="48.5122297" lon="-2.0445603">
        <ele>73.761</ele>
        <time>2018-08-21T11:49:49.652Z</time>
      </trkpt>
      <trkpt lat="48.5120977" lon="-2.0445532">
        <ele>73.863</ele>
        <time>2018-08-21T11:49:52.658Z</time>
      </trkpt>
      <trkpt lat="48.5119655" lon="-2.0445239">
        <ele>74.084</ele>
        <time>2018-08-21T11:49:55.578Z</time>
      </trkpt>
      <trkpt lat="48.5118730" lon="-2.0445041">
        <ele>74.421</ele>
        <time>2018-08-21T11:49:57.607Z</time>
      </trkpt>
      <trkpt lat="48.5117717" lon="-2.0444978">
        <ele>74.688</ele>
        <time>2018-08-21T11:49:59.788Z</time>
      </trkpt>
      <trkpt lat="48.5116651" lon="-2.0444822">
        <ele>74.802</ele>
        <time>2018-08-21T11:50:02.043Z</time>
      </trkpt>
      <trkpt lat="48.5115428" lon="-2.0444649">
        <ele>74.817</ele>
        <time>2018-08-21T11:50:04.520Z</time>
      </trkpt>
      <trkpt lat="48.5114361" lon="-2.0444494">
        <ele>74.764</ele>
        <time>2018-08-21T11:50:06.644Z</time>
      </trkpt>
      <trkpt lat="48.5112771" lon="-2.0444242">
        <ele>74.623</ele>
        <time>2018-08-21T11:50:09.846Z</time>
      </trkpt>
      <trkpt lat="48.5111376" lon="-2.0444002">
        <ele>74.387</ele>
        <time>2018-08-21T11:50:12.733Z</time>
      </trkpt>
      <trkpt lat="48.5110208" lon="-2.0443846">
        <ele>74.047</ele>
        <time>2018-08-21T11:50:15.255Z</time>
      </trkpt>
      <trkpt lat="48.5109174" lon="-2.0443789">
        <ele>73.653</ele>
        <time>2018-08-21T11:50:17.620Z</time>
      </trkpt>
      <trkpt lat="48.5107984" lon="-2.0443488">
        <ele>73.358</ele>
        <time>2018-08-21T11:50:20.631Z</time>
      </trkpt>
      <trkpt lat="48.5106836" lon="-2.0443310">
        <ele>73.211</ele>
        <time>2018-08-21T11:50:23.629Z</time>
      </trkpt>
      <trkpt lat="48.5105577" lon="-2.0443192">
        <ele>73.073</ele>
        <time>2018-08-21T11:50:26.755Z</time>
      </trkpt>
      <trkpt lat="48.5104345" lon="-2.0443061">
        <ele>72.889</ele>
        <time>2018-08-21T11:50:29.675Z</time>
      </trkpt>
      <trkpt lat="48.5103073" lon="-2.0443021">
        <ele>72.777</ele>
        <time>2018-08-21T11:50:32.622Z</time>
      </trkpt>
      <trkpt lat="48.5101525" lon="-2.0442662">
        <ele>72.807</ele>
        <time>2018-08-21T11:50:36.121Z</time>
      </trkpt>
      <trkpt lat="48.5100252" lon="-2.0442406">
        <ele>72.820</ele>
        <time>2018-08-21T11:50:38.793Z</time>
      </trkpt>
      <trkpt lat="48.5098799" lon="-2.0442241">
        <ele>72.675</ele>
        <time>2018-08-21T11:50:41.904Z</time>
      </trkpt>
      <trkpt lat="48.5097513" lon="-2.0441935">
        <ele>72.353</ele>
        <time>2018-08-21T11:50:44.829Z</time>
      </trkpt>
      <trkpt lat="48.5096405" lon="-2.0441733">
        <ele>71.872</ele>
        <time>2018-08-21T11:50:47.331Z</time>
      </trkpt>
      <trkpt lat="48.5095466" lon="-2.0441596">
        <ele>71.405</ele>
        <time>2018-08-21T11:50:49.554Z</time>
      </trkpt>
      <trkpt lat="48.5094535" lon="-2.0441516">
        <ele>71.207</ele>
        <time>2018-08-21T11:50:51.932Z</time>
      </trkpt>
      <trkpt lat="48.5093568" lon="-2.0441431">
        <ele>71.317</ele>
        <time>2018-08-21T11:50:54.717Z</time>
      </trkpt>
      <trkpt lat="48.5092532" lon="-2.0441345">
        <ele>71.623</ele>
        <time>2018-08-21T11:50:57.916Z</time>
      </trkpt>
      <trkpt lat="48.5091537" lon="-2.0441316">
        <ele>72.018</ele>
        <time>2018-08-21T11:51:01.005Z</time>
      </trkpt>
      <trkpt lat="48.5090504" lon="-2.0441267">
        <ele>72.412</ele>
        <time>2018-08-21T11:51:04.258Z</time>
      </trkpt>
      <trkpt lat="48.5089567" lon="-2.0441137">
        <ele>72.700</ele>
        <time>2018-08-21T11:51:07.111Z</time>
      </trkpt>
      <trkpt lat="48.5088528" lon="-2.0440877">
        <ele>72.965</ele>
        <time>2018-08-21T11:51:10.165Z</time>
      </trkpt>
      <trkpt lat="48.5087460" lon="-2.0440685">
        <ele>73.441</ele>
        <time>2018-08-21T11:51:13.315Z</time>
      </trkpt>
      <trkpt lat="48.5086565" lon="-2.0440559">
        <ele>74.090</ele>
        <time>2018-08-21T11:51:15.899Z</time>
      </trkpt>
      <trkpt lat="48.5085483" lon="-2.0440461">
        <ele>74.576</ele>
        <time>2018-08-21T11:51:18.934Z</time>
      </trkpt>
      <trkpt lat="48.5084375" lon="-2.0440384">
        <ele>74.727</ele>
        <time>2018-08-21T11:51:22.180Z</time>
      </trkpt>
      <trkpt lat="48.5083347" lon="-2.0440182">
        <ele>74.573</ele>
        <time>2018-08-21T11:51:25.245Z</time>
      </trkpt>
      <trkpt lat="48.5082294" lon="-2.0440033">
        <ele>74.132</ele>
        <time>2018-08-21T11:51:28.330Z</time>
      </trkpt>
      <trkpt lat="48.5081200" lon="-2.0440031">
        <ele>73.552</ele>
        <time>2018-08-21T11:51:31.625Z</time>
      </trkpt>
      <trkpt lat="48.5080209" lon="-2.0439936">
        <ele>73.219</ele>
        <time>2018-08-21T11:51:34.723Z</time>
      </trkpt>
      <trkpt lat="48.5079223" lon="-2.0439778">
        <ele>73.313</ele>
        <time>2018-08-21T11:51:37.864Z</time>
      </trkpt>
      <trkpt lat="48.5078191" lon="-2.0439630">
        <ele>73.583</ele>
        <time>2018-08-21T11:51:41.128Z</time>
      </trkpt>
      <trkpt lat="48.5077018" lon="-2.0439530">
        <ele>73.701</ele>
        <time>2018-08-21T11:51:44.820Z</time>
      </trkpt>
      <trkpt lat="48.5076062" lon="-2.0439413">
        <ele>73.567</ele>
        <time>2018-08-21T11:51:47.893Z</time>
      </trkpt>
      <trkpt lat="48.5075047" lon="-2.0439176">
        <ele>73.278</ele>
        <time>2018-08-21T11:51:51.293Z</time>
      </trkpt>
      <trkpt lat="48.5073972" lon="-2.0438951">
        <ele>72.999</ele>
        <time>2018-08-21T11:51:54.892Z</time>
      </trkpt>
      <trkpt lat="48.5072858" lon="-2.0438698">
        <ele>72.834</ele>
        <time>2018-08-21T11:51:58.486Z</time>
      </trkpt>
      <trkpt lat="48.5071860" lon="-2.0438418">
        <ele>72.862</ele>
        <time>2018-08-21T11:52:01.718Z</time>
      </trkpt>
      <trkpt lat="48.5070964" lon="-2.0438278">
        <ele>73.089</ele>
        <time>2018-08-21T11:52:04.700Z</time>
      </trkpt>
      <trkpt lat="48.5069931" lon="-2.0438096">
        <ele>73.403</ele>
        <time>2018-08-21T11:52:08.405Z</time>
      </trkpt>
      <trkpt lat="48.5069024" lon="-2.0438048">
        <ele>73.734</ele>
        <time>2018-08-21T11:52:11.916Z</time>
      </trkpt>
      <trkpt lat="48.5067944" lon="-2.0437959">
        <ele>74.077</ele>
        <time>2018-08-21T11:52:15.923Z</time>
      </trkpt>
      <trkpt lat="48.5066972" lon="-2.0437873">
        <ele>74.498</ele>
        <time>2018-08-21T11:52:19.129Z</time>
      </trkpt>
      <trkpt lat="48.5066040" lon="-2.0437792">
        <ele>75.019</ele>
        <time>2018-08-21T11:52:22.457Z</time>
      </trkpt>
      <trkpt lat="48.5065127" lon="-2.0437685">
        <ele>75.426</ele>
        <time>2018-08-21T11:52:25.890Z</time>
      </trkpt>
      <trkpt lat="48.5064086" lon="-2.0437821">
        <ele>75.542</ele>
        <time>2018-08-21T11:52:29.890Z</time>
      </trkpt>
      <trkpt lat="48.5063102" lon="-2.0437873">
        <ele>75.500</ele>
        <time>2018-08-21T11:52:33.319Z</time>
      </trkpt>
      <trkpt lat="48.5062031" lon="-2.0437961">
        <ele>75.527</ele>
        <time>2018-08-21T11:52:37.057Z</time>
      </trkpt>
      <trkpt lat="48.5061136" lon="-2.0438112">
        <ele>75.709</ele>
        <time>2018-08-21T11:52:40.415Z</time>
      </trkpt>
      <trkpt lat="48.5060000" lon="-2.0438140">
        <ele>75.939</ele>
        <time>2018-08-21T11:52:44.827Z</time>
      </trkpt>
      <trkpt lat="48.5058952" lon="-2.0438159">
        <ele>76.109</ele>
        <time>2018-08-21T11:52:48.712Z</time>
      </trkpt>
      <trkpt lat="48.5057963" lon="-2.0438257">
        <ele>76.302</ele>
        <time>2018-08-21T11:52:52.082Z</time>
      </trkpt>
      <trkpt lat="48.5056789" lon="-2.0438416">
        <ele>76.681</ele>
        <time>2018-08-21T11:52:56.116Z</time>
      </trkpt>
      <trkpt lat="48.5055837" lon="-2.0438535">
        <ele>77.214</ele>
        <time>2018-08-21T11:52:59.490Z</time>
      </trkpt>
      <trkpt lat="48.5054832" lon="-2.0438496">
        <ele>77.660</ele>
        <time>2018-08-21T11:53:03.015Z</time>
      </trkpt>
      <trkpt lat="48.5053821" lon="-2.0438530">
        <ele>77.835</ele>
        <time>2018-08-21T11:53:06.436Z</time>
      </trkpt>
      <trkpt lat="48.5052845" lon="-2.0438620">
        <ele>77.669</ele>
        <time>2018-08-21T11:53:09.642Z</time>
      </trkpt>
      <trkpt lat="48.5051853" lon="-2.0438722">
        <ele>77.267</ele>
        <time>2018-08-21T11:53:12.866Z</time>
      </trkpt>
      <trkpt lat="48.5050723" lon="-2.0438722">
        <ele>76.722</ele>
        <time>2018-08-21T11:53:16.521Z</time>
      </trkpt>
      <trkpt lat="48.5049589" lon="-2.0438851">
        <ele>75.997</ele>
        <time>2018-08-21T11:53:20.189Z</time>
      </trkpt>
      <trkpt lat="48.5048681" lon="-2.0439035">
        <ele>75.246</ele>
        <time>2018-08-21T11:53:23.098Z</time>
      </trkpt>
      <trkpt lat="48.5047616" lon="-2.0439200">
        <ele>74.781</ele>
        <time>2018-08-21T11:53:26.497Z</time>
      </trkpt>
      <trkpt lat="48.5046616" lon="-2.0439305">
        <ele>74.640</ele>
        <time>2018-08-21T11:53:29.692Z</time>
      </trkpt>
      <trkpt lat="48.5045683" lon="-2.0439588">
        <ele>74.659</ele>
        <time>2018-08-21T11:53:32.704Z</time>
      </trkpt>
      <trkpt lat="48.5044703" lon="-2.0439771">
        <ele>74.705</ele>
        <time>2018-08-21T11:53:35.760Z</time>
      </trkpt>
      <trkpt lat="48.5043774" lon="-2.0440064">
        <ele>74.730</ele>
        <time>2018-08-21T11:53:38.685Z</time>
      </trkpt>
      <trkpt lat="48.5042821" lon="-2.0440351">
        <ele>74.646</ele>
        <time>2018-08-21T11:53:41.736Z</time>
      </trkpt>
      <trkpt lat="48.5041925" lon="-2.0440699">
        <ele>74.405</ele>
        <time>2018-08-21T11:53:44.636Z</time>
      </trkpt>
      <trkpt lat="48.5040945" lon="-2.0440973">
        <ele>74.118</ele>
        <time>2018-08-21T11:53:47.702Z</time>
      </trkpt>
      <trkpt lat="48.5039984" lon="-2.0441289">
        <ele>73.840</ele>
        <time>2018-08-21T11:53:50.656Z</time>
      </trkpt>
      <trkpt lat="48.5039079" lon="-2.0441591">
        <ele>73.552</ele>
        <time>2018-08-21T11:53:53.351Z</time>
      </trkpt>
      <trkpt lat="48.5038017" lon="-2.0442031">
        <ele>73.364</ele>
        <time>2018-08-21T11:53:56.420Z</time>
      </trkpt>
      <trkpt lat="48.5037020" lon="-2.0442637">
        <ele>73.493</ele>
        <time>2018-08-21T11:53:59.417Z</time>
      </trkpt>
      <trkpt lat="48.5035931" lon="-2.0443140">
        <ele>73.985</ele>
        <time>2018-08-21T11:54:02.772Z</time>
      </trkpt>
      <trkpt lat="48.5034992" lon="-2.0443667">
        <ele>74.545</ele>
        <time>2018-08-21T11:54:05.938Z</time>
      </trkpt>
      <trkpt lat="48.5034002" lon="-2.0444164">
        <ele>74.866</ele>
        <time>2018-08-21T11:54:10.049Z</time>
      </trkpt>
      <trkpt lat="48.5033053" lon="-2.0444563">
        <ele>74.944</ele>
        <time>2018-08-21T11:54:14.445Z</time>
      </trkpt>
      <trkpt lat="48.5032135" lon="-2.0445040">
        <ele>74.766</ele>
        <time>2018-08-21T11:54:18.774Z</time>
      </trkpt>
      <trkpt lat="48.5031181" lon="-2.0445624">
        <ele>74.187</ele>
        <time>2018-08-21T11:54:23.147Z</time>
      </trkpt>
      <trkpt lat="48.5030309" lon="-2.0445976">
        <ele>73.260</ele>
        <time>2018-08-21T11:54:27.171Z</time>
      </trkpt>
      <trkpt lat="48.5029365" lon="-2.0446581">
        <ele>72.384</ele>
        <time>2018-08-21T11:54:32.049Z</time>
      </trkpt>
      <trkpt lat="48.5028329" lon="-2.0447133">
        <ele>71.864</ele>
        <time>2018-08-21T11:54:37.195Z</time>
      </trkpt>
      <trkpt lat="48.5027428" lon="-2.0447797">
        <ele>71.570</ele>
        <time>2018-08-21T11:54:41.935Z</time>
      </trkpt>
      <trkpt lat="48.5026064" lon="-2.0448667">
        <ele>71.293</ele>
        <time>2018-08-21T11:54:49.007Z</time>
      </trkpt>
      <trkpt lat="48.5025074" lon="-2.0449248">
        <ele>71.147</ele>
        <time>2018-08-21T11:54:53.321Z</time>
      </trkpt>
      <trkpt lat="48.5023289" lon="-2.0450360">
        <ele>71.252</ele>
        <time>2018-08-21T11:54:58.891Z</time>
      </trkpt>
      <trkpt lat="48.5022343" lon="-2.0450897">
        <ele>71.426</ele>
        <time>2018-08-21T11:55:01.314Z</time>
      </trkpt>
      <trkpt lat="48.5021049" lon="-2.0451710">
        <ele>71.492</ele>
        <time>2018-08-21T11:55:04.423Z</time>
      </trkpt>
      <trkpt lat="48.5019786" lon="-2.0452529">
        <ele>71.526</ele>
        <time>2018-08-21T11:55:07.449Z</time>
      </trkpt>
      <trkpt lat="48.5018830" lon="-2.0452891">
        <ele>71.634</ele>
        <time>2018-08-21T11:55:09.610Z</time>
      </trkpt>
      <trkpt lat="48.5017710" lon="-2.0453751">
        <ele>71.771</ele>
        <time>2018-08-21T11:55:12.290Z</time>
      </trkpt>
      <trkpt lat="48.5016760" lon="-2.0454113">
        <ele>71.829</ele>
        <time>2018-08-21T11:55:14.376Z</time>
      </trkpt>
      <trkpt lat="48.5015888" lon="-2.0454640">
        <ele>71.740</ele>
        <time>2018-08-21T11:55:16.415Z</time>
      </trkpt>
      <trkpt lat="48.5014678" lon="-2.0455359">
        <ele>71.554</ele>
        <time>2018-08-21T11:55:19.250Z</time>
      </trkpt>
      <trkpt lat="48.5013520" lon="-2.0456128">
        <ele>71.486</ele>
        <time>2018-08-21T11:55:22.043Z</time>
      </trkpt>
      <trkpt lat="48.5012228" lon="-2.0456864">
        <ele>71.658</ele>
        <time>2018-08-21T11:55:25.145Z</time>
      </trkpt>
      <trkpt lat="48.5011066" lon="-2.0457797">
        <ele>71.932</ele>
        <time>2018-08-21T11:55:28.111Z</time>
      </trkpt>
      <trkpt lat="48.5010082" lon="-2.0458336">
        <ele>72.127</ele>
        <time>2018-08-21T11:55:30.462Z</time>
      </trkpt>
      <trkpt lat="48.5008691" lon="-2.0459054">
        <ele>72.209</ele>
        <time>2018-08-21T11:55:33.663Z</time>
      </trkpt>
      <trkpt lat="48.5007289" lon="-2.0459881">
        <ele>72.210</ele>
        <time>2018-08-21T11:55:36.762Z</time>
      </trkpt>
      <trkpt lat="48.5006336" lon="-2.0460459">
        <ele>72.086</ele>
        <time>2018-08-21T11:55:38.810Z</time>
      </trkpt>
      <trkpt lat="48.5005340" lon="-2.0461430">
        <ele>71.820</ele>
        <time>2018-08-21T11:55:41.212Z</time>
      </trkpt>
      <trkpt lat="48.5004024" lon="-2.0462242">
        <ele>71.778</ele>
        <time>2018-08-21T11:55:44.264Z</time>
      </trkpt>
      <trkpt lat="48.5003087" lon="-2.0462709">
        <ele>72.215</ele>
        <time>2018-08-21T11:55:46.451Z</time>
      </trkpt>
      <trkpt lat="48.5001880" lon="-2.0463503">
        <ele>72.768</ele>
        <time>2018-08-21T11:55:49.257Z</time>
      </trkpt>
      <trkpt lat="48.5000585" lon="-2.0464267">
        <ele>73.140</ele>
        <time>2018-08-21T11:55:52.165Z</time>
      </trkpt>
      <trkpt lat="48.4999704" lon="-2.0464883">
        <ele>73.413</ele>
        <time>2018-08-21T11:55:54.143Z</time>
      </trkpt>
      <trkpt lat="48.4998412" lon="-2.0465591">
        <ele>73.490</ele>
        <time>2018-08-21T11:55:56.902Z</time>
      </trkpt>
      <trkpt lat="48.4997173" lon="-2.0466196">
        <ele>73.057</ele>
        <time>2018-08-21T11:55:59.605Z</time>
      </trkpt>
      <trkpt lat="48.4995970" lon="-2.0466913">
        <ele>72.171</ele>
        <time>2018-08-21T11:56:02.398Z</time>
      </trkpt>
      <trkpt lat="48.4995081" lon="-2.0467375">
        <ele>71.356</ele>
        <time>2018-08-21T11:56:04.483Z</time>
      </trkpt>
      <trkpt lat="48.4994184" lon="-2.0467898">
        <ele>70.841</ele>
        <time>2018-08-21T11:56:06.583Z</time>
      </trkpt>
      <trkpt lat="48.4993347" lon="-2.0468455">
        <ele>70.428</ele>
        <time>2018-08-21T11:56:08.492Z</time>
      </trkpt>
      <trkpt lat="48.4992352" lon="-2.0469393">
        <ele>70.082</ele>
        <time>2018-08-21T11:56:10.872Z</time>
      </trkpt>
      <trkpt lat="48.4991247" lon="-2.0470188">
        <ele>70.035</ele>
        <time>2018-08-21T11:56:13.417Z</time>
      </trkpt>
      <trkpt lat="48.4990190" lon="-2.0470893">
        <ele>70.577</ele>
        <time>2018-08-21T11:56:15.924Z</time>
      </trkpt>
      <trkpt lat="48.4988510" lon="-2.0471352">
        <ele>71.558</ele>
        <time>2018-08-21T11:56:19.870Z</time>
      </trkpt>
      <trkpt lat="48.4987207" lon="-2.0472047">
        <ele>71.878</ele>
        <time>2018-08-21T11:56:22.998Z</time>
      </trkpt>
      <trkpt lat="48.4985916" lon="-2.0472462">
        <ele>70.850</ele>
        <time>2018-08-21T11:56:25.737Z</time>
      </trkpt>
      <trkpt lat="48.4984953" lon="-2.0472656">
        <ele>69.358</ele>
        <time>2018-08-21T11:56:27.810Z</time>
      </trkpt>
      <trkpt lat="48.4983848" lon="-2.0473126">
        <ele>68.310</ele>
        <time>2018-08-21T11:56:30.321Z</time>
      </trkpt>
      <trkpt lat="48.4982711" lon="-2.0473380">
        <ele>67.534</ele>
        <time>2018-08-21T11:56:32.960Z</time>
      </trkpt>
      <trkpt lat="48.4981554" lon="-2.0473617">
        <ele>66.738</ele>
        <time>2018-08-21T11:56:35.786Z</time>
      </trkpt>
      <trkpt lat="48.4980241" lon="-2.0473832">
        <ele>65.918</ele>
        <time>2018-08-21T11:56:39.146Z</time>
      </trkpt>
      <trkpt lat="48.4978986" lon="-2.0474047">
        <ele>65.163</ele>
        <time>2018-08-21T11:56:42.260Z</time>
      </trkpt>
      <trkpt lat="48.4977788" lon="-2.0474063">
        <ele>64.610</ele>
        <time>2018-08-21T11:56:45.161Z</time>
      </trkpt>
      <trkpt lat="48.4976804" lon="-2.0473904">
        <ele>64.288</ele>
        <time>2018-08-21T11:56:47.591Z</time>
      </trkpt>
      <trkpt lat="48.4975796" lon="-2.0473866">
        <ele>63.899</ele>
        <time>2018-08-21T11:56:50.118Z</time>
      </trkpt>
      <trkpt lat="48.4974808" lon="-2.0473921">
        <ele>63.192</ele>
        <time>2018-08-21T11:56:52.701Z</time>
      </trkpt>
      <trkpt lat="48.4973659" lon="-2.0473891">
        <ele>62.367</ele>
        <time>2018-08-21T11:56:55.823Z</time>
      </trkpt>
      <trkpt lat="48.4972743" lon="-2.0473836">
        <ele>61.781</ele>
        <time>2018-08-21T11:56:58.056Z</time>
      </trkpt>
      <trkpt lat="48.4971379" lon="-2.0473664">
        <ele>61.556</ele>
        <time>2018-08-21T11:57:01.572Z</time>
      </trkpt>
      <trkpt lat="48.4970152" lon="-2.0473200">
        <ele>61.713</ele>
        <time>2018-08-21T11:57:05.270Z</time>
      </trkpt>
      <trkpt lat="48.4968844" lon="-2.0473006">
        <ele>62.141</ele>
        <time>2018-08-21T11:57:08.669Z</time>
      </trkpt>
      <trkpt lat="48.4967707" lon="-2.0472841">
        <ele>62.553</ele>
        <time>2018-08-21T11:57:11.318Z</time>
      </trkpt>
      <trkpt lat="48.4966723" lon="-2.0472688">
        <ele>62.824</ele>
        <time>2018-08-21T11:57:13.689Z</time>
      </trkpt>
      <trkpt lat="48.4965472" lon="-2.0472065">
        <ele>63.042</ele>
        <time>2018-08-21T11:57:17.203Z</time>
      </trkpt>
      <trkpt lat="48.4964215" lon="-2.0471680">
        <ele>63.200</ele>
        <time>2018-08-21T11:57:20.949Z</time>
      </trkpt>
      <trkpt lat="48.4962804" lon="-2.0471232">
        <ele>63.177</ele>
        <time>2018-08-21T11:57:24.983Z</time>
      </trkpt>
      <trkpt lat="48.4961591" lon="-2.0470695">
        <ele>62.837</ele>
        <time>2018-08-21T11:57:28.268Z</time>
      </trkpt>
      <trkpt lat="48.4960696" lon="-2.0470235">
        <ele>62.109</ele>
        <time>2018-08-21T11:57:30.634Z</time>
      </trkpt>
      <trkpt lat="48.4959412" lon="-2.0469587">
        <ele>61.237</ele>
        <time>2018-08-21T11:57:33.933Z</time>
      </trkpt>
      <trkpt lat="48.4958553" lon="-2.0469065">
        <ele>60.665</ele>
        <time>2018-08-21T11:57:36.081Z</time>
      </trkpt>
      <trkpt lat="48.4957496" lon="-2.0468400">
        <ele>60.564</ele>
        <time>2018-08-21T11:57:38.691Z</time>
      </trkpt>
      <trkpt lat="48.4956378" lon="-2.0467651">
        <ele>60.714</ele>
        <time>2018-08-21T11:57:41.611Z</time>
      </trkpt>
      <trkpt lat="48.4955237" lon="-2.0466801">
        <ele>60.800</ele>
        <time>2018-08-21T11:57:44.805Z</time>
      </trkpt>
      <trkpt lat="48.4954088" lon="-2.0465944">
        <ele>60.687</ele>
        <time>2018-08-21T11:57:47.956Z</time>
      </trkpt>
      <trkpt lat="48.4952957" lon="-2.0465156">
        <ele>60.643</ele>
        <time>2018-08-21T11:57:51.019Z</time>
      </trkpt>
      <trkpt lat="48.4951921" lon="-2.0464362">
        <ele>60.897</ele>
        <time>2018-08-21T11:57:53.827Z</time>
      </trkpt>
      <trkpt lat="48.4950845" lon="-2.0463439">
        <ele>61.250</ele>
        <time>2018-08-21T11:57:56.841Z</time>
      </trkpt>
      <trkpt lat="48.4949759" lon="-2.0462454">
        <ele>61.433</ele>
        <time>2018-08-21T11:58:00.053Z</time>
      </trkpt>
      <trkpt lat="48.4948829" lon="-2.0461524">
        <ele>61.479</ele>
        <time>2018-08-21T11:58:02.871Z</time>
      </trkpt>
      <trkpt lat="48.4947889" lon="-2.0460573">
        <ele>61.573</ele>
        <time>2018-08-21T11:58:05.764Z</time>
      </trkpt>
      <trkpt lat="48.4946829" lon="-2.0459703">
        <ele>61.872</ele>
        <time>2018-08-21T11:58:08.972Z</time>
      </trkpt>
      <trkpt lat="48.4945861" lon="-2.0458538">
        <ele>62.311</ele>
        <time>2018-08-21T11:58:12.210Z</time>
      </trkpt>
      <trkpt lat="48.4945031" lon="-2.0457527">
        <ele>62.665</ele>
        <time>2018-08-21T11:58:14.888Z</time>
      </trkpt>
      <trkpt lat="48.4944246" lon="-2.0456401">
        <ele>62.778</ele>
        <time>2018-08-21T11:58:17.641Z</time>
      </trkpt>
      <trkpt lat="48.4943413" lon="-2.0455059">
        <ele>62.705</ele>
        <time>2018-08-21T11:58:20.865Z</time>
      </trkpt>
      <trkpt lat="48.4942683" lon="-2.0453933">
        <ele>62.530</ele>
        <time>2018-08-21T11:58:23.591Z</time>
      </trkpt>
      <trkpt lat="48.4941901" lon="-2.0452801">
        <ele>62.315</ele>
        <time>2018-08-21T11:58:26.460Z</time>
      </trkpt>
      <trkpt lat="48.4941104" lon="-2.0451317">
        <ele>62.219</ele>
        <time>2018-08-21T11:58:29.916Z</time>
      </trkpt>
      <trkpt lat="48.4940237" lon="-2.0450076">
        <ele>62.341</ele>
        <time>2018-08-21T11:58:33.353Z</time>
      </trkpt>
      <trkpt lat="48.4939690" lon="-2.0448735">
        <ele>62.502</ele>
        <time>2018-08-21T11:58:36.326Z</time>
      </trkpt>
      <trkpt lat="48.4939185" lon="-2.0447440">
        <ele>62.534</ele>
        <time>2018-08-21T11:58:39.074Z</time>
      </trkpt>
      <trkpt lat="48.4938582" lon="-2.0446108">
        <ele>62.498</ele>
        <time>2018-08-21T11:58:42.169Z</time>
      </trkpt>
      <trkpt lat="48.4937936" lon="-2.0444849">
        <ele>62.569</ele>
        <time>2018-08-21T11:58:45.311Z</time>
      </trkpt>
      <trkpt lat="48.4937311" lon="-2.0443474">
        <ele>62.891</ele>
        <time>2018-08-21T11:58:48.439Z</time>
      </trkpt>
      <trkpt lat="48.4936708" lon="-2.0442055">
        <ele>63.395</ele>
        <time>2018-08-21T11:58:51.425Z</time>
      </trkpt>
      <trkpt lat="48.4936187" lon="-2.0440826">
        <ele>63.824</ele>
        <time>2018-08-21T11:58:53.972Z</time>
      </trkpt>
      <trkpt lat="48.4935844" lon="-2.0439482">
        <ele>64.163</ele>
        <time>2018-08-21T11:58:56.551Z</time>
      </trkpt>
      <trkpt lat="48.4935492" lon="-2.0437984">
        <ele>64.551</ele>
        <time>2018-08-21T11:58:59.511Z</time>
      </trkpt>
      <trkpt lat="48.4935021" lon="-2.0436449">
        <ele>64.877</ele>
        <time>2018-08-21T11:59:02.740Z</time>
      </trkpt>
      <trkpt lat="48.4934586" lon="-2.0435161">
        <ele>64.913</ele>
        <time>2018-08-21T11:59:05.642Z</time>
      </trkpt>
      <trkpt lat="48.4933904" lon="-2.0433764">
        <ele>64.543</ele>
        <time>2018-08-21T11:59:09.379Z</time>
      </trkpt>
      <trkpt lat="48.4933156" lon="-2.0432536">
        <ele>63.912</ele>
        <time>2018-08-21T11:59:13.099Z</time>
      </trkpt>
      <trkpt lat="48.4932638" lon="-2.0431235">
        <ele>63.404</ele>
        <time>2018-08-21T11:59:16.294Z</time>
      </trkpt>
      <trkpt lat="48.4932184" lon="-2.0430051">
        <ele>63.236</ele>
        <time>2018-08-21T11:59:19.112Z</time>
      </trkpt>
      <trkpt lat="48.4931480" lon="-2.0428631">
        <ele>63.385</ele>
        <time>2018-08-21T11:59:22.888Z</time>
      </trkpt>
      <trkpt lat="48.4930802" lon="-2.0427496">
        <ele>63.788</ele>
        <time>2018-08-21T11:59:26.332Z</time>
      </trkpt>
      <trkpt lat="48.4929979" lon="-2.0426306">
        <ele>64.296</ele>
        <time>2018-08-21T11:59:30.114Z</time>
      </trkpt>
      <trkpt lat="48.4929294" lon="-2.0425145">
        <ele>64.697</ele>
        <time>2018-08-21T11:59:33.246Z</time>
      </trkpt>
      <trkpt lat="48.4928838" lon="-2.0423810">
        <ele>64.959</ele>
        <time>2018-08-21T11:59:36.174Z</time>
      </trkpt>
      <trkpt lat="48.4928651" lon="-2.0422389">
        <ele>65.175</ele>
        <time>2018-08-21T11:59:39.051Z</time>
      </trkpt>
      <trkpt lat="48.4928555" lon="-2.0420987">
        <ele>65.333</ele>
        <time>2018-08-21T11:59:41.955Z</time>
      </trkpt>
      <trkpt lat="48.4928328" lon="-2.0419285">
        <ele>65.467</ele>
        <time>2018-08-21T11:59:45.674Z</time>
      </trkpt>
      <trkpt lat="48.4928076" lon="-2.0417864">
        <ele>65.794</ele>
        <time>2018-08-21T11:59:48.948Z</time>
      </trkpt>
      <trkpt lat="48.4927750" lon="-2.0416470">
        <ele>66.389</ele>
        <time>2018-08-21T11:59:52.547Z</time>
      </trkpt>
      <trkpt lat="48.4927367" lon="-2.0414999">
        <ele>67.059</ele>
        <time>2018-08-21T11:59:56.627Z</time>
      </trkpt>
      <trkpt lat="48.4926825" lon="-2.0413675">
        <ele>67.564</ele>
        <time>2018-08-21T12:00:00.609Z</time>
      </trkpt>
      <trkpt lat="48.4925907" lon="-2.0412880">
        <ele>67.929</ele>
        <time>2018-08-21T12:00:04.934Z</time>
      </trkpt>
      <trkpt lat="48.4925652" lon="-2.0411432">
        <ele>68.287</ele>
        <time>2018-08-21T12:00:09.405Z</time>
      </trkpt>
      <trkpt lat="48.4925488" lon="-2.0409995">
        <ele>68.474</ele>
        <time>2018-08-21T12:00:13.983Z</time>
      </trkpt>
      <trkpt lat="48.4925093" lon="-2.0408357">
        <ele>68.204</ele>
        <time>2018-08-21T12:00:19.026Z</time>
      </trkpt>
      <trkpt lat="48.4924659" lon="-2.0406833">
        <ele>67.611</ele>
        <time>2018-08-21T12:00:23.319Z</time>
      </trkpt>
      <trkpt lat="48.4924162" lon="-2.0405471">
        <ele>67.057</ele>
        <time>2018-08-21T12:00:27.253Z</time>
      </trkpt>
      <trkpt lat="48.4923755" lon="-2.0404199">
        <ele>66.690</ele>
        <time>2018-08-21T12:00:30.893Z</time>
      </trkpt>
      <trkpt lat="48.4923198" lon="-2.0402705">
        <ele>66.489</ele>
        <time>2018-08-21T12:00:35.650Z</time>
      </trkpt>
      <trkpt lat="48.4922627" lon="-2.0401290">
        <ele>66.394</ele>
        <time>2018-08-21T12:00:40.398Z</time>
      </trkpt>
      <trkpt lat="48.4922094" lon="-2.0400006">
        <ele>66.320</ele>
        <time>2018-08-21T12:00:44.500Z</time>
      </trkpt>
      <trkpt lat="48.4921752" lon="-2.0398577">
        <ele>66.261</ele>
        <time>2018-08-21T12:00:48.642Z</time>
      </trkpt>
      <trkpt lat="48.4921384" lon="-2.0397189">
        <ele>66.138</ele>
        <time>2018-08-21T12:00:53.019Z</time>
      </trkpt>
      <trkpt lat="48.4920887" lon="-2.0395901">
        <ele>65.867</ele>
        <time>2018-08-21T12:00:57.509Z</time>
      </trkpt>
      <trkpt lat="48.4920559" lon="-2.0394583">
        <ele>65.552</ele>
        <time>2018-08-21T12:01:01.533Z</time>
      </trkpt>
      <trkpt lat="48.4920247" lon="-2.0393289">
        <ele>65.322</ele>
        <time>2018-08-21T12:01:05.048Z</time>
      </trkpt>
      <trkpt lat="48.4919958" lon="-2.0391966">
        <ele>65.164</ele>
        <time>2018-08-21T12:01:08.309Z</time>
      </trkpt>
      <trkpt lat="48.4919425" lon="-2.0390441">
        <ele>65.041</ele>
        <time>2018-08-21T12:01:12.254Z</time>
      </trkpt>
      <trkpt lat="48.4918988" lon="-2.0389066">
        <ele>64.970</ele>
        <time>2018-08-21T12:01:15.860Z</time>
      </trkpt>
      <trkpt lat="48.4918470" lon="-2.0387531">
        <ele>65.001</ele>
        <time>2018-08-21T12:01:20.126Z</time>
      </trkpt>
      <trkpt lat="48.4918064" lon="-2.0386296">
        <ele>65.123</ele>
        <time>2018-08-21T12:01:23.537Z</time>
      </trkpt>
      <trkpt lat="48.4917658" lon="-2.0384763">
        <ele>65.261</ele>
        <time>2018-08-21T12:01:27.406Z</time>
      </trkpt>
      <trkpt lat="48.4917278" lon="-2.0383405">
        <ele>65.206</ele>
        <time>2018-08-21T12:01:30.852Z</time>
      </trkpt>
      <trkpt lat="48.4916762" lon="-2.0382157">
        <ele>64.876</ele>
        <time>2018-08-21T12:01:34.468Z</time>
      </trkpt>
      <trkpt lat="48.4916150" lon="-2.0380803">
        <ele>64.559</ele>
        <time>2018-08-21T12:01:38.726Z</time>
      </trkpt>
      <trkpt lat="48.4915599" lon="-2.0379301">
        <ele>64.695</ele>
        <time>2018-08-21T12:01:43.205Z</time>
      </trkpt>
      <trkpt lat="48.4915121" lon="-2.0377890">
        <ele>65.359</ele>
        <time>2018-08-21T12:01:47.243Z</time>
      </trkpt>
      <trkpt lat="48.4914722" lon="-2.0376642">
        <ele>66.213</ele>
        <time>2018-08-21T12:01:50.882Z</time>
      </trkpt>
      <trkpt lat="48.4914304" lon="-2.0375433">
        <ele>67.104</ele>
        <time>2018-08-21T12:01:54.755Z</time>
      </trkpt>
      <trkpt lat="48.4913744" lon="-2.0374320">
        <ele>68.105</ele>
        <time>2018-08-21T12:01:58.794Z</time>
      </trkpt>
      <trkpt lat="48.4913272" lon="-2.0373123">
        <ele>68.982</ele>
        <time>2018-08-21T12:02:02.395Z</time>
      </trkpt>
      <trkpt lat="48.4912874" lon="-2.0371574">
        <ele>69.539</ele>
        <time>2018-08-21T12:02:06.623Z</time>
      </trkpt>
      <trkpt lat="48.4912487" lon="-2.0370006">
        <ele>69.898</ele>
        <time>2018-08-21T12:02:11.074Z</time>
      </trkpt>
      <trkpt lat="48.4911884" lon="-2.0368943">
        <ele>70.157</ele>
        <time>2018-08-21T12:02:14.651Z</time>
      </trkpt>
      <trkpt lat="48.4911248" lon="-2.0367739">
        <ele>70.391</ele>
        <time>2018-08-21T12:02:18.323Z</time>
      </trkpt>
      <trkpt lat="48.4910694" lon="-2.0366291">
        <ele>70.693</ele>
        <time>2018-08-21T12:02:22.247Z</time>
      </trkpt>
      <trkpt lat="48.4910102" lon="-2.0364718">
        <ele>71.006</ele>
        <time>2018-08-21T12:02:26.458Z</time>
      </trkpt>
      <trkpt lat="48.4909406" lon="-2.0363295">
        <ele>71.265</ele>
        <time>2018-08-21T12:02:30.413Z</time>
      </trkpt>
      <trkpt lat="48.4908808" lon="-2.0362110">
        <ele>71.546</ele>
        <time>2018-08-21T12:02:33.612Z</time>
      </trkpt>
      <trkpt lat="48.4908410" lon="-2.0360623">
        <ele>71.860</ele>
        <time>2018-08-21T12:02:37.119Z</time>
      </trkpt>
      <trkpt lat="48.4908081" lon="-2.0359349">
        <ele>72.083</ele>
        <time>2018-08-21T12:02:40.247Z</time>
      </trkpt>
      <trkpt lat="48.4907520" lon="-2.0357857">
        <ele>72.172</ele>
        <time>2018-08-21T12:02:44.199Z</time>
      </trkpt>
      <trkpt lat="48.4906986" lon="-2.0356328">
        <ele>72.204</ele>
        <time>2018-08-21T12:02:48.146Z</time>
      </trkpt>
      <trkpt lat="48.4906545" lon="-2.0355139">
        <ele>72.252</ele>
        <time>2018-08-21T12:02:51.205Z</time>
      </trkpt>
      <trkpt lat="48.4906052" lon="-2.0353954">
        <ele>72.329</ele>
        <time>2018-08-21T12:02:54.354Z</time>
      </trkpt>
      <trkpt lat="48.4905597" lon="-2.0352744">
        <ele>72.443</ele>
        <time>2018-08-21T12:02:57.479Z</time>
      </trkpt>
      <trkpt lat="48.4905009" lon="-2.0351292">
        <ele>72.697</ele>
        <time>2018-08-21T12:03:01.290Z</time>
      </trkpt>
      <trkpt lat="48.4904414" lon="-2.0349746">
        <ele>73.113</ele>
        <time>2018-08-21T12:03:05.253Z</time>
      </trkpt>
      <trkpt lat="48.4903876" lon="-2.0348239">
        <ele>73.498</ele>
        <time>2018-08-21T12:03:09.030Z</time>
      </trkpt>
      <trkpt lat="48.4903343" lon="-2.0346701">
        <ele>73.653</ele>
        <time>2018-08-21T12:03:12.882Z</time>
      </trkpt>
      <trkpt lat="48.4902694" lon="-2.0345213">
        <ele>73.588</ele>
        <time>2018-08-21T12:03:16.863Z</time>
      </trkpt>
      <trkpt lat="48.4902083" lon="-2.0343675">
        <ele>73.494</ele>
        <time>2018-08-21T12:03:20.860Z</time>
      </trkpt>
      <trkpt lat="48.4901453" lon="-2.0342215">
        <ele>73.511</ele>
        <time>2018-08-21T12:03:24.758Z</time>
      </trkpt>
      <trkpt lat="48.4900791" lon="-2.0340825">
        <ele>73.436</ele>
        <time>2018-08-21T12:03:28.621Z</time>
      </trkpt>
      <trkpt lat="48.4900095" lon="-2.0339440">
        <ele>73.012</ele>
        <time>2018-08-21T12:03:32.519Z</time>
      </trkpt>
      <trkpt lat="48.4899361" lon="-2.0338168">
        <ele>72.411</ele>
        <time>2018-08-21T12:03:36.264Z</time>
      </trkpt>
      <trkpt lat="48.4898681" lon="-2.0337028">
        <ele>72.015</ele>
        <time>2018-08-21T12:03:39.827Z</time>
      </trkpt>
      <trkpt lat="48.4897923" lon="-2.0335858">
        <ele>72.015</ele>
        <time>2018-08-21T12:03:43.837Z</time>
      </trkpt>
      <trkpt lat="48.4897341" lon="-2.0334820">
        <ele>72.328</ele>
        <time>2018-08-21T12:03:47.065Z</time>
      </trkpt>
      <trkpt lat="48.4896669" lon="-2.0333881">
        <ele>72.565</ele>
        <time>2018-08-21T12:03:50.253Z</time>
      </trkpt>
      <trkpt lat="48.4895976" lon="-2.0332604">
        <ele>72.430</ele>
        <time>2018-08-21T12:03:54.151Z</time>
      </trkpt>
      <trkpt lat="48.4895815" lon="-2.0331134">
        <ele>72.082</ele>
        <time>2018-08-21T12:03:57.978Z</time>
      </trkpt>
      <trkpt lat="48.4896157" lon="-2.0329639">
        <ele>71.780</ele>
        <time>2018-08-21T12:04:03.000Z</time>
      </trkpt>
      <trkpt lat="48.4896157" lon="-2.0329639">
        <ele>71.616</ele>
        <time>2018-08-21T12:04:17.000Z</time>
      </trkpt>
      <trkpt lat="48.4896157" lon="-2.0329639">
        <ele>71.566</ele>
        <time>2018-08-21T12:04:21.667Z</time>
      </trkpt>
      <trkpt lat="48.4894878" lon="-2.0329458">
        <ele>71.557</ele>
        <time>2018-08-21T12:04:30.732Z</time>
      </trkpt>
      <trkpt lat="48.4893914" lon="-2.0329588">
        <ele>71.294</ele>
        <time>2018-08-21T12:04:34.688Z</time>
      </trkpt>
      <trkpt lat="48.4893114" lon="-2.0328450">
        <ele>70.637</ele>
        <time>2018-08-21T12:04:38.907Z</time>
      </trkpt>
      <trkpt lat="48.4892267" lon="-2.0327611">
        <ele>69.850</ele>
        <time>2018-08-21T12:04:42.686Z</time>
      </trkpt>
      <trkpt lat="48.4891501" lon="-2.0326842">
        <ele>69.178</ele>
        <time>2018-08-21T12:04:45.925Z</time>
      </trkpt>
      <trkpt lat="48.4890509" lon="-2.0325910">
        <ele>68.686</ele>
        <time>2018-08-21T12:04:49.942Z</time>
      </trkpt>
      <trkpt lat="48.4889606" lon="-2.0324969">
        <ele>68.469</ele>
        <time>2018-08-21T12:04:53.803Z</time>
      </trkpt>
      <trkpt lat="48.4888710" lon="-2.0323958">
        <ele>68.540</ele>
        <time>2018-08-21T12:04:57.822Z</time>
      </trkpt>
      <trkpt lat="48.4887841" lon="-2.0323444">
        <ele>68.883</ele>
        <time>2018-08-21T12:05:01.044Z</time>
      </trkpt>
      <trkpt lat="48.4886956" lon="-2.0323103">
        <ele>69.380</ele>
        <time>2018-08-21T12:05:04.005Z</time>
      </trkpt>
      <trkpt lat="48.4885934" lon="-2.0322539">
        <ele>69.850</ele>
        <time>2018-08-21T12:05:07.853Z</time>
      </trkpt>
      <trkpt lat="48.4884979" lon="-2.0321895">
        <ele>70.198</ele>
        <time>2018-08-21T12:05:11.586Z</time>
      </trkpt>
      <trkpt lat="48.4883988" lon="-2.0321141">
        <ele>70.525</ele>
        <time>2018-08-21T12:05:15.245Z</time>
      </trkpt>
      <trkpt lat="48.4883142" lon="-2.0320678">
        <ele>70.954</ele>
        <time>2018-08-21T12:05:18.090Z</time>
      </trkpt>
      <trkpt lat="48.4882109" lon="-2.0319812">
        <ele>71.404</ele>
        <time>2018-08-21T12:05:21.922Z</time>
      </trkpt>
      <trkpt lat="48.4880923" lon="-2.0319205">
        <ele>71.725</ele>
        <time>2018-08-21T12:05:26.124Z</time>
      </trkpt>
      <trkpt lat="48.4879957" lon="-2.0318708">
        <ele>71.880</ele>
        <time>2018-08-21T12:05:29.592Z</time>
      </trkpt>
      <trkpt lat="48.4878797" lon="-2.0318219">
        <ele>71.905</ele>
        <time>2018-08-21T12:05:33.618Z</time>
      </trkpt>
      <trkpt lat="48.4877818" lon="-2.0317867">
        <ele>71.948</ele>
        <time>2018-08-21T12:05:37.008Z</time>
      </trkpt>
      <trkpt lat="48.4876639" lon="-2.0317473">
        <ele>72.180</ele>
        <time>2018-08-21T12:05:41.165Z</time>
      </trkpt>
      <trkpt lat="48.4875665" lon="-2.0317012">
        <ele>72.561</ele>
        <time>2018-08-21T12:05:44.639Z</time>
      </trkpt>
      <trkpt lat="48.4874746" lon="-2.0316681">
        <ele>72.655</ele>
        <time>2018-08-21T12:05:47.855Z</time>
      </trkpt>
      <trkpt lat="48.4873605" lon="-2.0316380">
        <ele>72.210</ele>
        <time>2018-08-21T12:05:51.766Z</time>
      </trkpt>
      <trkpt lat="48.4872457" lon="-2.0316275">
        <ele>71.608</ele>
        <time>2018-08-21T12:05:55.564Z</time>
      </trkpt>
      <trkpt lat="48.4871373" lon="-2.0316121">
        <ele>71.342</ele>
        <time>2018-08-21T12:05:59.044Z</time>
      </trkpt>
      <trkpt lat="48.4870248" lon="-2.0315966">
        <ele>71.484</ele>
        <time>2018-08-21T12:06:02.592Z</time>
      </trkpt>
      <trkpt lat="48.4869182" lon="-2.0315968">
        <ele>71.771</ele>
        <time>2018-08-21T12:06:05.902Z</time>
      </trkpt>
      <trkpt lat="48.4868257" lon="-2.0315924">
        <ele>71.932</ele>
        <time>2018-08-21T12:06:08.752Z</time>
      </trkpt>
      <trkpt lat="48.4867272" lon="-2.0315813">
        <ele>71.779</ele>
        <time>2018-08-21T12:06:11.772Z</time>
      </trkpt>
      <trkpt lat="48.4866272" lon="-2.0315671">
        <ele>71.228</ele>
        <time>2018-08-21T12:06:14.851Z</time>
      </trkpt>
      <trkpt lat="48.4865305" lon="-2.0315586">
        <ele>70.519</ele>
        <time>2018-08-21T12:06:17.846Z</time>
      </trkpt>
      <trkpt lat="48.4864324" lon="-2.0315614">
        <ele>70.027</ele>
        <time>2018-08-21T12:06:20.884Z</time>
      </trkpt>
      <trkpt lat="48.4863396" lon="-2.0315803">
        <ele>69.854</ele>
        <time>2018-08-21T12:06:23.801Z</time>
      </trkpt>
      <trkpt lat="48.4862412" lon="-2.0316007">
        <ele>69.987</ele>
        <time>2018-08-21T12:06:26.961Z</time>
      </trkpt>
      <trkpt lat="48.4861242" lon="-2.0316187">
        <ele>70.343</ele>
        <time>2018-08-21T12:06:30.685Z</time>
      </trkpt>
      <trkpt lat="48.4860148" lon="-2.0316287">
        <ele>70.673</ele>
        <time>2018-08-21T12:06:33.952Z</time>
      </trkpt>
      <trkpt lat="48.4859073" lon="-2.0316572">
        <ele>70.612</ele>
        <time>2018-08-21T12:06:37.072Z</time>
      </trkpt>
      <trkpt lat="48.4858050" lon="-2.0317038">
        <ele>70.120</ele>
        <time>2018-08-21T12:06:40.132Z</time>
      </trkpt>
      <trkpt lat="48.4857117" lon="-2.0317534">
        <ele>69.644</ele>
        <time>2018-08-21T12:06:43.099Z</time>
      </trkpt>
      <trkpt lat="48.4856010" lon="-2.0318035">
        <ele>69.540</ele>
        <time>2018-08-21T12:06:46.734Z</time>
      </trkpt>
      <trkpt lat="48.4855490" lon="-2.0319188">
        <ele>69.554</ele>
        <time>2018-08-21T12:06:49.498Z</time>
      </trkpt>
      <trkpt lat="48.4855574" lon="-2.0321213">
        <ele>69.289</ele>
        <time>2018-08-21T12:06:53.053Z</time>
      </trkpt>
      <trkpt lat="48.4854929" lon="-2.0322534">
        <ele>68.770</ele>
        <time>2018-08-21T12:06:55.840Z</time>
      </trkpt>
      <trkpt lat="48.4853740" lon="-2.0322795">
        <ele>68.403</ele>
        <time>2018-08-21T12:06:58.929Z</time>
      </trkpt>
      <trkpt lat="48.4852588" lon="-2.0322933">
        <ele>68.396</ele>
        <time>2018-08-21T12:07:02.055Z</time>
      </trkpt>
      <trkpt lat="48.4851634" lon="-2.0323113">
        <ele>68.559</ele>
        <time>2018-08-21T12:07:05.152Z</time>
      </trkpt>
      <trkpt lat="48.4850661" lon="-2.0323270">
        <ele>68.718</ele>
        <time>2018-08-21T12:07:08.857Z</time>
      </trkpt>
      <trkpt lat="48.4849646" lon="-2.0322480">
        <ele>68.855</ele>
        <time>2018-08-21T12:07:13.694Z</time>
      </trkpt>
      <trkpt lat="48.4849288" lon="-2.0321084">
        <ele>68.783</ele>
        <time>2018-08-21T12:07:17.641Z</time>
      </trkpt>
      <trkpt lat="48.4848950" lon="-2.0319540">
        <ele>68.381</ele>
        <time>2018-08-21T12:07:21.355Z</time>
      </trkpt>
      <trkpt lat="48.4848520" lon="-2.0318258">
        <ele>67.926</ele>
        <time>2018-08-21T12:07:24.300Z</time>
      </trkpt>
      <trkpt lat="48.4847897" lon="-2.0317146">
        <ele>67.521</ele>
        <time>2018-08-21T12:07:27.173Z</time>
      </trkpt>
      <trkpt lat="48.4847068" lon="-2.0316289">
        <ele>67.024</ele>
        <time>2018-08-21T12:07:30.172Z</time>
      </trkpt>
      <trkpt lat="48.4846196" lon="-2.0315679">
        <ele>66.623</ele>
        <time>2018-08-21T12:07:33.148Z</time>
      </trkpt>
      <trkpt lat="48.4845332" lon="-2.0315078">
        <ele>66.550</ele>
        <time>2018-08-21T12:07:36.152Z</time>
      </trkpt>
      <trkpt lat="48.4844337" lon="-2.0314088">
        <ele>66.702</ele>
        <time>2018-08-21T12:07:39.956Z</time>
      </trkpt>
      <trkpt lat="48.4843629" lon="-2.0313142">
        <ele>66.833</ele>
        <time>2018-08-21T12:07:43.058Z</time>
      </trkpt>
      <trkpt lat="48.4843029" lon="-2.0311738">
        <ele>66.814</ele>
        <time>2018-08-21T12:07:46.821Z</time>
      </trkpt>
      <trkpt lat="48.4842454" lon="-2.0310340">
        <ele>66.689</ele>
        <time>2018-08-21T12:07:50.706Z</time>
      </trkpt>
      <trkpt lat="48.4842004" lon="-2.0308955">
        <ele>66.601</ele>
        <time>2018-08-21T12:07:54.493Z</time>
      </trkpt>
      <trkpt lat="48.4841647" lon="-2.0307393">
        <ele>66.733</ele>
        <time>2018-08-21T12:07:58.587Z</time>
      </trkpt>
      <trkpt lat="48.4841347" lon="-2.0305856">
        <ele>67.086</ele>
        <time>2018-08-21T12:08:02.436Z</time>
      </trkpt>
      <trkpt lat="48.4840995" lon="-2.0304169">
        <ele>67.453</ele>
        <time>2018-08-21T12:08:06.487Z</time>
      </trkpt>
      <trkpt lat="48.4840594" lon="-2.0302539">
        <ele>67.690</ele>
        <time>2018-08-21T12:08:10.362Z</time>
      </trkpt>
      <trkpt lat="48.4840260" lon="-2.0301089">
        <ele>67.780</ele>
        <time>2018-08-21T12:08:13.856Z</time>
      </trkpt>
      <trkpt lat="48.4839938" lon="-2.0299602">
        <ele>67.767</ele>
        <time>2018-08-21T12:08:17.577Z</time>
      </trkpt>
      <trkpt lat="48.4839496" lon="-2.0298141">
        <ele>67.758</ele>
        <time>2018-08-21T12:08:21.463Z</time>
      </trkpt>
      <trkpt lat="48.4839022" lon="-2.0296615">
        <ele>68.063</ele>
        <time>2018-08-21T12:08:25.517Z</time>
      </trkpt>
      <trkpt lat="48.4838505" lon="-2.0295072">
        <ele>68.817</ele>
        <time>2018-08-21T12:08:29.586Z</time>
      </trkpt>
      <trkpt lat="48.4837924" lon="-2.0293552">
        <ele>69.736</ele>
        <time>2018-08-21T12:08:33.567Z</time>
      </trkpt>
      <trkpt lat="48.4837393" lon="-2.0292076">
        <ele>70.523</ele>
        <time>2018-08-21T12:08:37.307Z</time>
      </trkpt>
      <trkpt lat="48.4836842" lon="-2.0290593">
        <ele>71.092</ele>
        <time>2018-08-21T12:08:41.098Z</time>
      </trkpt>
      <trkpt lat="48.4836323" lon="-2.0289071">
        <ele>71.522</ele>
        <time>2018-08-21T12:08:44.914Z</time>
      </trkpt>
      <trkpt lat="48.4835397" lon="-2.0288297">
        <ele>71.951</ele>
        <time>2018-08-21T12:08:48.617Z</time>
      </trkpt>
      <trkpt lat="48.4834441" lon="-2.0288398">
        <ele>72.324</ele>
        <time>2018-08-21T12:08:52.032Z</time>
      </trkpt>
      <trkpt lat="48.4833276" lon="-2.0288558">
        <ele>72.552</ele>
        <time>2018-08-21T12:08:56.000Z</time>
      </trkpt>
      <trkpt lat="48.4833276" lon="-2.0288558">
        <ele>72.626</ele>
        <time>2018-08-21T12:08:57.000Z</time>
      </trkpt>
      <trkpt lat="48.4833276" lon="-2.0288558">
        <ele>72.582</ele>
        <time>2018-08-21T12:08:57.100Z</time>
      </trkpt>
      <trkpt lat="48.4831558" lon="-2.0288807">
        <ele>72.509</ele>
        <time>2018-08-21T12:09:04.955Z</time>
      </trkpt>
      <trkpt lat="48.4830587" lon="-2.0288967">
        <ele>72.227</ele>
        <time>2018-08-21T12:09:07.839Z</time>
      </trkpt>
      <trkpt lat="48.4829603" lon="-2.0289128">
        <ele>71.589</ele>
        <time>2018-08-21T12:09:10.748Z</time>
      </trkpt>
      <trkpt lat="48.4828615" lon="-2.0289443">
        <ele>70.995</ele>
        <time>2018-08-21T12:09:13.680Z</time>
      </trkpt>
      <trkpt lat="48.4827645" lon="-2.0289748">
        <ele>70.811</ele>
        <time>2018-08-21T12:09:16.487Z</time>
      </trkpt>
      <trkpt lat="48.4826619" lon="-2.0290009">
        <ele>70.876</ele>
        <time>2018-08-21T12:09:19.289Z</time>
      </trkpt>
      <trkpt lat="48.4825521" lon="-2.0290195">
        <ele>70.873</ele>
        <time>2018-08-21T12:09:22.034Z</time>
      </trkpt>
      <trkpt lat="48.4824273" lon="-2.0290438">
        <ele>70.689</ele>
        <time>2018-08-21T12:09:24.910Z</time>
      </trkpt>
      <trkpt lat="48.4822894" lon="-2.0290736">
        <ele>70.437</ele>
        <time>2018-08-21T12:09:27.899Z</time>
      </trkpt>
      <trkpt lat="48.4821570" lon="-2.0290988">
        <ele>70.205</ele>
        <time>2018-08-21T12:09:30.622Z</time>
      </trkpt>
      <trkpt lat="48.4820571" lon="-2.0291255">
        <ele>69.968</ele>
        <time>2018-08-21T12:09:32.544Z</time>
      </trkpt>
      <trkpt lat="48.4819493" lon="-2.0291401">
        <ele>69.723</ele>
        <time>2018-08-21T12:09:34.477Z</time>
      </trkpt>
      <trkpt lat="48.4818359" lon="-2.0291673">
        <ele>69.408</ele>
        <time>2018-08-21T12:09:36.413Z</time>
      </trkpt>
      <trkpt lat="48.4816455" lon="-2.0292127">
        <ele>68.951</ele>
        <time>2018-08-21T12:09:39.519Z</time>
      </trkpt>
      <trkpt lat="48.4815157" lon="-2.0292317">
        <ele>68.431</ele>
        <time>2018-08-21T12:09:41.505Z</time>
      </trkpt>
      <trkpt lat="48.4813832" lon="-2.0292667">
        <ele>67.911</ele>
        <time>2018-08-21T12:09:43.521Z</time>
      </trkpt>
      <trkpt lat="48.4811925" lon="-2.0293230">
        <ele>67.379</ele>
        <time>2018-08-21T12:09:46.421Z</time>
      </trkpt>
      <trkpt lat="48.4809977" lon="-2.0293742">
        <ele>66.907</ele>
        <time>2018-08-21T12:09:49.367Z</time>
      </trkpt>
      <trkpt lat="48.4808727" lon="-2.0293880">
        <ele>66.383</ele>
        <time>2018-08-21T12:09:51.256Z</time>
      </trkpt>
      <trkpt lat="48.4807603" lon="-2.0294211">
        <ele>65.607</ele>
        <time>2018-08-21T12:09:53.030Z</time>
      </trkpt>
      <trkpt lat="48.4805708" lon="-2.0294711">
        <ele>64.792</ele>
        <time>2018-08-21T12:09:56.070Z</time>
      </trkpt>
      <trkpt lat="48.4804560" lon="-2.0295074">
        <ele>64.310</ele>
        <time>2018-08-21T12:09:57.997Z</time>
      </trkpt>
      <trkpt lat="48.4802940" lon="-2.0295531">
        <ele>64.192</ele>
        <time>2018-08-21T12:10:00.831Z</time>
      </trkpt>
      <trkpt lat="48.4801815" lon="-2.0295846">
        <ele>64.249</ele>
        <time>2018-08-21T12:10:02.916Z</time>
      </trkpt>
      <trkpt lat="48.4800314" lon="-2.0296224">
        <ele>64.376</ele>
        <time>2018-08-21T12:10:05.826Z</time>
      </trkpt>
      <trkpt lat="48.4799402" lon="-2.0296280">
        <ele>64.577</ele>
        <time>2018-08-21T12:10:07.785Z</time>
      </trkpt>
      <trkpt lat="48.4798224" lon="-2.0296442">
        <ele>64.787</ele>
        <time>2018-08-21T12:10:10.609Z</time>
      </trkpt>
      <trkpt lat="48.4796966" lon="-2.0296799">
        <ele>64.739</ele>
        <time>2018-08-21T12:10:14.051Z</time>
      </trkpt>
      <trkpt lat="48.4795932" lon="-2.0297193">
        <ele>64.256</ele>
        <time>2018-08-21T12:10:17.093Z</time>
      </trkpt>
      <trkpt lat="48.4794825" lon="-2.0297756">
        <ele>63.514</ele>
        <time>2018-08-21T12:10:20.508Z</time>
      </trkpt>
      <trkpt lat="48.4793849" lon="-2.0298281">
        <ele>62.821</ele>
        <time>2018-08-21T12:10:23.579Z</time>
      </trkpt>
      <trkpt lat="48.4792902" lon="-2.0298871">
        <ele>62.364</ele>
        <time>2018-08-21T12:10:26.657Z</time>
      </trkpt>
      <trkpt lat="48.4792014" lon="-2.0299442">
        <ele>62.192</ele>
        <time>2018-08-21T12:10:29.598Z</time>
      </trkpt>
      <trkpt lat="48.4791101" lon="-2.0299939">
        <ele>62.194</ele>
        <time>2018-08-21T12:10:32.588Z</time>
      </trkpt>
      <trkpt lat="48.4790187" lon="-2.0300522">
        <ele>62.245</ele>
        <time>2018-08-21T12:10:35.659Z</time>
      </trkpt>
      <trkpt lat="48.4789237" lon="-2.0301023">
        <ele>62.297</ele>
        <time>2018-08-21T12:10:38.774Z</time>
      </trkpt>
      <trkpt lat="48.4788404" lon="-2.0301634">
        <ele>62.359</ele>
        <time>2018-08-21T12:10:41.651Z</time>
      </trkpt>
      <trkpt lat="48.4787523" lon="-2.0302156">
        <ele>62.455</ele>
        <time>2018-08-21T12:10:44.601Z</time>
      </trkpt>
      <trkpt lat="48.4786384" lon="-2.0302710">
        <ele>62.643</ele>
        <time>2018-08-21T12:10:48.332Z</time>
      </trkpt>
      <trkpt lat="48.4785249" lon="-2.0303224">
        <ele>62.912</ele>
        <time>2018-08-21T12:10:52.042Z</time>
      </trkpt>
      <trkpt lat="48.4784129" lon="-2.0303744">
        <ele>63.181</ele>
        <time>2018-08-21T12:10:55.735Z</time>
      </trkpt>
      <trkpt lat="48.4783221" lon="-2.0304030">
        <ele>63.403</ele>
        <time>2018-08-21T12:10:58.640Z</time>
      </trkpt>
      <trkpt lat="48.4782317" lon="-2.0304248">
        <ele>63.576</ele>
        <time>2018-08-21T12:11:01.447Z</time>
      </trkpt>
      <trkpt lat="48.4781258" lon="-2.0304269">
        <ele>63.701</ele>
        <time>2018-08-21T12:11:04.671Z</time>
      </trkpt>
      <trkpt lat="48.4780232" lon="-2.0304271">
        <ele>63.712</ele>
        <time>2018-08-21T12:11:07.789Z</time>
      </trkpt>
      <trkpt lat="48.4779208" lon="-2.0304254">
        <ele>63.426</ele>
        <time>2018-08-21T12:11:10.908Z</time>
      </trkpt>
      <trkpt lat="48.4778179" lon="-2.0304202">
        <ele>62.880</ele>
        <time>2018-08-21T12:11:14.064Z</time>
      </trkpt>
      <trkpt lat="48.4777152" lon="-2.0304196">
        <ele>62.452</ele>
        <time>2018-08-21T12:11:17.303Z</time>
      </trkpt>
      <trkpt lat="48.4776160" lon="-2.0304479">
        <ele>62.433</ele>
        <time>2018-08-21T12:11:20.735Z</time>
      </trkpt>
      <trkpt lat="48.4775104" lon="-2.0304537">
        <ele>62.724</ele>
        <time>2018-08-21T12:11:24.760Z</time>
      </trkpt>
      <trkpt lat="48.4774441" lon="-2.0303352">
        <ele>63.183</ele>
        <time>2018-08-21T12:11:29.000Z</time>
      </trkpt>
      <trkpt lat="48.4774441" lon="-2.0303352">
        <ele>63.711</ele>
        <time>2018-08-21T12:11:43.000Z</time>
      </trkpt>
      <trkpt lat="48.4774441" lon="-2.0303352">
        <ele>64.037</ele>
        <time>2018-08-21T12:14:43.691Z</time>
      </trkpt>
      <trkpt lat="48.4773012" lon="-2.0300864">
        <ele>63.992</ele>
        <time>2018-08-21T12:14:55.449Z</time>
      </trkpt>
      <trkpt lat="48.4772262" lon="-2.0299508">
        <ele>64.043</ele>
        <time>2018-08-21T12:14:58.457Z</time>
      </trkpt>
      <trkpt lat="48.4771412" lon="-2.0298063">
        <ele>64.590</ele>
        <time>2018-08-21T12:15:01.271Z</time>
      </trkpt>
      <trkpt lat="48.4770760" lon="-2.0297003">
        <ele>65.293</ele>
        <time>2018-08-21T12:15:03.264Z</time>
      </trkpt>
      <trkpt lat="48.4769834" lon="-2.0295157">
        <ele>65.696</ele>
        <time>2018-08-21T12:15:06.151Z</time>
      </trkpt>
      <trkpt lat="48.4769126" lon="-2.0293977">
        <ele>65.730</ele>
        <time>2018-08-21T12:15:08.013Z</time>
      </trkpt>
      <trkpt lat="48.4768235" lon="-2.0292698">
        <ele>65.433</ele>
        <time>2018-08-21T12:15:10.046Z</time>
      </trkpt>
      <trkpt lat="48.4767539" lon="-2.0291407">
        <ele>64.984</ele>
        <time>2018-08-21T12:15:11.798Z</time>
      </trkpt>
      <trkpt lat="48.4766266" lon="-2.0289254">
        <ele>64.650</ele>
        <time>2018-08-21T12:15:14.555Z</time>
      </trkpt>
      <trkpt lat="48.4764730" lon="-2.0286656">
        <ele>64.470</ele>
        <time>2018-08-21T12:15:17.657Z</time>
      </trkpt>
      <trkpt lat="48.4763766" lon="-2.0284743">
        <ele>64.171</ele>
        <time>2018-08-21T12:15:19.728Z</time>
      </trkpt>
      <trkpt lat="48.4762249" lon="-2.0282394">
        <ele>63.584</ele>
        <time>2018-08-21T12:15:22.493Z</time>
      </trkpt>
      <trkpt lat="48.4761206" lon="-2.0280565">
        <ele>62.833</ele>
        <time>2018-08-21T12:15:24.488Z</time>
      </trkpt>
      <trkpt lat="48.4760076" lon="-2.0278968">
        <ele>62.112</ele>
        <time>2018-08-21T12:15:26.393Z</time>
      </trkpt>
      <trkpt lat="48.4758464" lon="-2.0276293">
        <ele>61.501</ele>
        <time>2018-08-21T12:15:29.319Z</time>
      </trkpt>
      <trkpt lat="48.4756942" lon="-2.0273559">
        <ele>61.028</ele>
        <time>2018-08-21T12:15:32.251Z</time>
      </trkpt>
      <trkpt lat="48.4755577" lon="-2.0270696">
        <ele>60.621</ele>
        <time>2018-08-21T12:15:35.242Z</time>
      </trkpt>
      <trkpt lat="48.4754906" lon="-2.0268604">
        <ele>60.126</ele>
        <time>2018-08-21T12:15:37.297Z</time>
      </trkpt>
      <trkpt lat="48.4754534" lon="-2.0266581">
        <ele>59.500</ele>
        <time>2018-08-21T12:15:39.203Z</time>
      </trkpt>
      <trkpt lat="48.4753882" lon="-2.0263488">
        <ele>58.810</ele>
        <time>2018-08-21T12:15:42.226Z</time>
      </trkpt>
      <trkpt lat="48.4753568" lon="-2.0261421">
        <ele>58.088</ele>
        <time>2018-08-21T12:15:44.277Z</time>
      </trkpt>
      <trkpt lat="48.4753205" lon="-2.0259503">
        <ele>57.376</ele>
        <time>2018-08-21T12:15:46.235Z</time>
      </trkpt>
      <trkpt lat="48.4752895" lon="-2.0256527">
        <ele>56.713</ele>
        <time>2018-08-21T12:15:49.202Z</time>
      </trkpt>
      <trkpt lat="48.4752673" lon="-2.0254558">
        <ele>55.987</ele>
        <time>2018-08-21T12:15:51.212Z</time>
      </trkpt>
      <trkpt lat="48.4752026" lon="-2.0252067">
        <ele>55.156</ele>
        <time>2018-08-21T12:15:54.030Z</time>
      </trkpt>
      <trkpt lat="48.4751630" lon="-2.0250445">
        <ele>54.404</ele>
        <time>2018-08-21T12:15:56.003Z</time>
      </trkpt>
      <trkpt lat="48.4751213" lon="-2.0249110">
        <ele>53.824</ele>
        <time>2018-08-21T12:15:57.822Z</time>
      </trkpt>
      <trkpt lat="48.4750205" lon="-2.0247222">
        <ele>53.346</ele>
        <time>2018-08-21T12:16:01.132Z</time>
      </trkpt>
      <trkpt lat="48.4749384" lon="-2.0245671">
        <ele>53.005</ele>
        <time>2018-08-21T12:16:04.305Z</time>
      </trkpt>
      <trkpt lat="48.4748121" lon="-2.0245689">
        <ele>52.669</ele>
        <time>2018-08-21T12:16:07.384Z</time>
      </trkpt>
      <trkpt lat="48.4746780" lon="-2.0246791">
        <ele>52.053</ele>
        <time>2018-08-21T12:16:10.877Z</time>
      </trkpt>
      <trkpt lat="48.4745765" lon="-2.0247913">
        <ele>51.273</ele>
        <time>2018-08-21T12:16:13.815Z</time>
      </trkpt>
      <trkpt lat="48.4744608" lon="-2.0248771">
        <ele>50.728</ele>
        <time>2018-08-21T12:16:16.968Z</time>
      </trkpt>
      <trkpt lat="48.4743379" lon="-2.0249233">
        <ele>50.541</ele>
        <time>2018-08-21T12:16:20.213Z</time>
      </trkpt>
      <trkpt lat="48.4742213" lon="-2.0249262">
        <ele>50.507</ele>
        <time>2018-08-21T12:16:23.556Z</time>
      </trkpt>
      <trkpt lat="48.4741245" lon="-2.0249256">
        <ele>50.448</ele>
        <time>2018-08-21T12:16:26.623Z</time>
      </trkpt>
      <trkpt lat="48.4740115" lon="-2.0249216">
        <ele>50.458</ele>
        <time>2018-08-21T12:16:30.324Z</time>
      </trkpt>
      <trkpt lat="48.4739171" lon="-2.0249128">
        <ele>50.767</ele>
        <time>2018-08-21T12:16:33.311Z</time>
      </trkpt>
      <trkpt lat="48.4738139" lon="-2.0249111">
        <ele>51.300</ele>
        <time>2018-08-21T12:16:36.362Z</time>
      </trkpt>
      <trkpt lat="48.4737053" lon="-2.0249146">
        <ele>51.597</ele>
        <time>2018-08-21T12:16:39.436Z</time>
      </trkpt>
      <trkpt lat="48.4735792" lon="-2.0249256">
        <ele>51.277</ele>
        <time>2018-08-21T12:16:42.945Z</time>
      </trkpt>
      <trkpt lat="48.4734733" lon="-2.0249653">
        <ele>50.445</ele>
        <time>2018-08-21T12:16:45.769Z</time>
      </trkpt>
      <trkpt lat="48.4733519" lon="-2.0250339">
        <ele>49.581</ele>
        <time>2018-08-21T12:16:48.978Z</time>
      </trkpt>
      <trkpt lat="48.4732476" lon="-2.0251199">
        <ele>49.272</ele>
        <time>2018-08-21T12:16:52.062Z</time>
      </trkpt>
      <trkpt lat="48.4731621" lon="-2.0252186">
        <ele>49.787</ele>
        <time>2018-08-21T12:16:54.970Z</time>
      </trkpt>
      <trkpt lat="48.4730646" lon="-2.0253284">
        <ele>50.721</ele>
        <time>2018-08-21T12:16:58.130Z</time>
      </trkpt>
      <trkpt lat="48.4729672" lon="-2.0254316">
        <ele>51.444</ele>
        <time>2018-08-21T12:17:01.184Z</time>
      </trkpt>
      <trkpt lat="48.4728629" lon="-2.0255353">
        <ele>51.687</ele>
        <time>2018-08-21T12:17:04.445Z</time>
      </trkpt>
      <trkpt lat="48.4727571" lon="-2.0256253">
        <ele>51.558</ele>
        <time>2018-08-21T12:17:07.620Z</time>
      </trkpt>
      <trkpt lat="48.4726465" lon="-2.0256977">
        <ele>51.318</ele>
        <time>2018-08-21T12:17:10.743Z</time>
      </trkpt>
      <trkpt lat="48.4725359" lon="-2.0257636">
        <ele>51.115</ele>
        <time>2018-08-21T12:17:13.797Z</time>
      </trkpt>
      <trkpt lat="48.4724262" lon="-2.0258021">
        <ele>50.874</ele>
        <time>2018-08-21T12:17:16.563Z</time>
      </trkpt>
      <trkpt lat="48.4723128" lon="-2.0258115">
        <ele>50.560</ele>
        <time>2018-08-21T12:17:19.046Z</time>
      </trkpt>
      <trkpt lat="48.4721389" lon="-2.0258762">
        <ele>50.423</ele>
        <time>2018-08-21T12:17:22.276Z</time>
      </trkpt>
      <trkpt lat="48.4719552" lon="-2.0259316">
        <ele>50.630</ele>
        <time>2018-08-21T12:17:25.471Z</time>
      </trkpt>
      <trkpt lat="48.4718354" lon="-2.0259579">
        <ele>50.880</ele>
        <time>2018-08-21T12:17:27.572Z</time>
      </trkpt>
      <trkpt lat="48.4717172" lon="-2.0260254">
        <ele>50.767</ele>
        <time>2018-08-21T12:17:29.915Z</time>
      </trkpt>
      <trkpt lat="48.4715755" lon="-2.0261275">
        <ele>50.263</ele>
        <time>2018-08-21T12:17:33.354Z</time>
      </trkpt>
      <trkpt lat="48.4714687" lon="-2.0262568">
        <ele>49.539</ele>
        <time>2018-08-21T12:17:36.980Z</time>
      </trkpt>
      <trkpt lat="48.4713618" lon="-2.0263429">
        <ele>48.805</ele>
        <time>2018-08-21T12:17:40.616Z</time>
      </trkpt>
      <trkpt lat="48.4712813" lon="-2.0264507">
        <ele>48.379</ele>
        <time>2018-08-21T12:17:44.028Z</time>
      </trkpt>
      <trkpt lat="48.4712069" lon="-2.0265501">
        <ele>48.499</ele>
        <time>2018-08-21T12:17:47.316Z</time>
      </trkpt>
      <trkpt lat="48.4711378" lon="-2.0266439">
        <ele>48.978</ele>
        <time>2018-08-21T12:17:50.464Z</time>
      </trkpt>
      <trkpt lat="48.4710503" lon="-2.0267506">
        <ele>49.470</ele>
        <time>2018-08-21T12:17:54.379Z</time>
      </trkpt>
      <trkpt lat="48.4709658" lon="-2.0268736">
        <ele>49.801</ele>
        <time>2018-08-21T12:17:58.447Z</time>
      </trkpt>
      <trkpt lat="48.4708789" lon="-2.0269786">
        <ele>50.182</ele>
        <time>2018-08-21T12:18:02.141Z</time>
      </trkpt>
      <trkpt lat="48.4707865" lon="-2.0270859">
        <ele>50.986</ele>
        <time>2018-08-21T12:18:06.019Z</time>
      </trkpt>
      <trkpt lat="48.4707170" lon="-2.0271772">
        <ele>52.228</ele>
        <time>2018-08-21T12:18:09.129Z</time>
      </trkpt>
      <trkpt lat="48.4706197" lon="-2.0272720">
        <ele>53.420</ele>
        <time>2018-08-21T12:18:12.985Z</time>
      </trkpt>
      <trkpt lat="48.4705150" lon="-2.0273573">
        <ele>54.120</ele>
        <time>2018-08-21T12:18:16.849Z</time>
      </trkpt>
      <trkpt lat="48.4704107" lon="-2.0274499">
        <ele>54.345</ele>
        <time>2018-08-21T12:18:20.685Z</time>
      </trkpt>
      <trkpt lat="48.4703426" lon="-2.0275403">
        <ele>54.440</ele>
        <time>2018-08-21T12:18:23.541Z</time>
      </trkpt>
      <trkpt lat="48.4702677" lon="-2.0276359">
        <ele>54.765</ele>
        <time>2018-08-21T12:18:26.671Z</time>
      </trkpt>
      <trkpt lat="48.4701980" lon="-2.0277378">
        <ele>55.434</ele>
        <time>2018-08-21T12:18:29.754Z</time>
      </trkpt>
      <trkpt lat="48.4701329" lon="-2.0278382">
        <ele>56.150</ele>
        <time>2018-08-21T12:18:32.703Z</time>
      </trkpt>
      <trkpt lat="48.4700460" lon="-2.0279642">
        <ele>56.560</ele>
        <time>2018-08-21T12:18:36.478Z</time>
      </trkpt>
      <trkpt lat="48.4699807" lon="-2.0280600">
        <ele>56.515</ele>
        <time>2018-08-21T12:18:39.306Z</time>
      </trkpt>
      <trkpt lat="48.4699106" lon="-2.0281549">
        <ele>56.066</ele>
        <time>2018-08-21T12:18:42.250Z</time>
      </trkpt>
      <trkpt lat="48.4698332" lon="-2.0282463">
        <ele>55.520</ele>
        <time>2018-08-21T12:18:45.329Z</time>
      </trkpt>
      <trkpt lat="48.4697564" lon="-2.0283226">
        <ele>55.317</ele>
        <time>2018-08-21T12:18:48.181Z</time>
      </trkpt>
      <trkpt lat="48.4696666" lon="-2.0283825">
        <ele>55.630</ele>
        <time>2018-08-21T12:18:51.191Z</time>
      </trkpt>
      <trkpt lat="48.4695650" lon="-2.0284165">
        <ele>56.183</ele>
        <time>2018-08-21T12:18:54.359Z</time>
      </trkpt>
      <trkpt lat="48.4694706" lon="-2.0284419">
        <ele>56.563</ele>
        <time>2018-08-21T12:18:57.245Z</time>
      </trkpt>
      <trkpt lat="48.4693736" lon="-2.0284605">
        <ele>56.662</ele>
        <time>2018-08-21T12:19:00.149Z</time>
      </trkpt>
      <trkpt lat="48.4692747" lon="-2.0284799">
        <ele>56.621</ele>
        <time>2018-08-21T12:19:03.098Z</time>
      </trkpt>
      <trkpt lat="48.4691765" lon="-2.0285020">
        <ele>56.639</ele>
        <time>2018-08-21T12:19:06.038Z</time>
      </trkpt>
      <trkpt lat="48.4690776" lon="-2.0285291">
        <ele>56.783</ele>
        <time>2018-08-21T12:19:09.037Z</time>
      </trkpt>
      <trkpt lat="48.4689806" lon="-2.0285615">
        <ele>56.984</ele>
        <time>2018-08-21T12:19:12.108Z</time>
      </trkpt>
      <trkpt lat="48.4688821" lon="-2.0285881">
        <ele>57.249</ele>
        <time>2018-08-21T12:19:16.026Z</time>
      </trkpt>
      <trkpt lat="48.4687947" lon="-2.0286251">
        <ele>57.601</ele>
        <time>2018-08-21T12:19:20.954Z</time>
      </trkpt>
      <trkpt lat="48.4687116" lon="-2.0286826">
        <ele>57.947</ele>
        <time>2018-08-21T12:19:27.099Z</time>
      </trkpt>
      <trkpt lat="48.4687062" lon="-2.0288221">
        <ele>58.241</ele>
        <time>2018-08-21T12:19:33.322Z</time>
      </trkpt>
      <trkpt lat="48.4687301" lon="-2.0289740">
        <ele>58.474</ele>
        <time>2018-08-21T12:19:40.000Z</time>
      </trkpt>
      <trkpt lat="48.4687301" lon="-2.0289740">
        <ele>58.600</ele>
        <time>2018-08-21T12:19:46.000Z</time>
      </trkpt>
      <trkpt lat="48.4687301" lon="-2.0289740">
        <ele>58.621</ele>
        <time>2018-08-21T12:19:46.100Z</time>
      </trkpt>
      <trkpt lat="48.4686673" lon="-2.0288027">
        <ele>58.587</ele>
        <time>2018-08-21T12:20:00.715Z</time>
      </trkpt>
      <trkpt lat="48.4686013" lon="-2.0286931">
        <ele>58.645</ele>
        <time>2018-08-21T12:20:06.215Z</time>
      </trkpt>
      <trkpt lat="48.4685034" lon="-2.0287517">
        <ele>58.878</ele>
        <time>2018-08-21T12:20:10.490Z</time>
      </trkpt>
      <trkpt lat="48.4683967" lon="-2.0288210">
        <ele>59.012</ele>
        <time>2018-08-21T12:20:14.390Z</time>
      </trkpt>
      <trkpt lat="48.4683110" lon="-2.0288839">
        <ele>58.720</ele>
        <time>2018-08-21T12:20:17.241Z</time>
      </trkpt>
      <trkpt lat="48.4682170" lon="-2.0289523">
        <ele>57.980</ele>
        <time>2018-08-21T12:20:20.149Z</time>
      </trkpt>
      <trkpt lat="48.4681210" lon="-2.0290340">
        <ele>57.076</ele>
        <time>2018-08-21T12:20:23.062Z</time>
      </trkpt>
      <trkpt lat="48.4680235" lon="-2.0291196">
        <ele>56.317</ele>
        <time>2018-08-21T12:20:25.926Z</time>
      </trkpt>
      <trkpt lat="48.4679214" lon="-2.0292106">
        <ele>55.820</ele>
        <time>2018-08-21T12:20:28.880Z</time>
      </trkpt>
      <trkpt lat="48.4678261" lon="-2.0292961">
        <ele>55.546</ele>
        <time>2018-08-21T12:20:31.587Z</time>
      </trkpt>
      <trkpt lat="48.4677194" lon="-2.0293915">
        <ele>55.461</ele>
        <time>2018-08-21T12:20:34.571Z</time>
      </trkpt>
      <trkpt lat="48.4676118" lon="-2.0294801">
        <ele>55.496</ele>
        <time>2018-08-21T12:20:37.605Z</time>
      </trkpt>
      <trkpt lat="48.4675086" lon="-2.0295645">
        <ele>55.587</ele>
        <time>2018-08-21T12:20:40.606Z</time>
      </trkpt>
      <trkpt lat="48.4673995" lon="-2.0296327">
        <ele>55.681</ele>
        <time>2018-08-21T12:20:43.707Z</time>
      </trkpt>
      <trkpt lat="48.4672929" lon="-2.0296981">
        <ele>55.779</ele>
        <time>2018-08-21T12:20:46.941Z</time>
      </trkpt>
      <trkpt lat="48.4671938" lon="-2.0297385">
        <ele>55.989</ele>
        <time>2018-08-21T12:20:50.088Z</time>
      </trkpt>
      <trkpt lat="48.4671015" lon="-2.0297580">
        <ele>56.339</ele>
        <time>2018-08-21T12:20:53.001Z</time>
      </trkpt>
      <trkpt lat="48.4670056" lon="-2.0297561">
        <ele>56.581</ele>
        <time>2018-08-21T12:20:55.788Z</time>
      </trkpt>
      <trkpt lat="48.4669011" lon="-2.0297477">
        <ele>56.458</ele>
        <time>2018-08-21T12:20:58.486Z</time>
      </trkpt>
      <trkpt lat="48.4667788" lon="-2.0297210">
        <ele>56.013</ele>
        <time>2018-08-21T12:21:01.311Z</time>
      </trkpt>
      <trkpt lat="48.4666894" lon="-2.0296852">
        <ele>55.466</ele>
        <time>2018-08-21T12:21:03.167Z</time>
      </trkpt>
      <trkpt lat="48.4665325" lon="-2.0296209">
        <ele>54.910</ele>
        <time>2018-08-21T12:21:06.184Z</time>
      </trkpt>
      <trkpt lat="48.4664253" lon="-2.0295790">
        <ele>54.288</ele>
        <time>2018-08-21T12:21:08.068Z</time>
      </trkpt>
      <trkpt lat="48.4662488" lon="-2.0295074">
        <ele>53.662</ele>
        <time>2018-08-21T12:21:11.062Z</time>
      </trkpt>
      <trkpt lat="48.4661296" lon="-2.0294696">
        <ele>53.144</ele>
        <time>2018-08-21T12:21:12.962Z</time>
      </trkpt>
      <trkpt lat="48.4660068" lon="-2.0294189">
        <ele>52.695</ele>
        <time>2018-08-21T12:21:14.918Z</time>
      </trkpt>
      <trkpt lat="48.4658191" lon="-2.0293475">
        <ele>52.241</ele>
        <time>2018-08-21T12:21:17.857Z</time>
      </trkpt>
      <trkpt lat="48.4656270" lon="-2.0292793">
        <ele>51.754</ele>
        <time>2018-08-21T12:21:20.741Z</time>
      </trkpt>
      <trkpt lat="48.4654967" lon="-2.0292194">
        <ele>51.042</ele>
        <time>2018-08-21T12:21:22.585Z</time>
      </trkpt>
      <trkpt lat="48.4653471" lon="-2.0291595">
        <ele>50.033</ele>
        <time>2018-08-21T12:21:24.605Z</time>
      </trkpt>
      <trkpt lat="48.4651938" lon="-2.0290945">
        <ele>49.073</ele>
        <time>2018-08-21T12:21:26.684Z</time>
      </trkpt>
      <trkpt lat="48.4649702" lon="-2.0290232">
        <ele>48.486</ele>
        <time>2018-08-21T12:21:29.693Z</time>
      </trkpt>
      <trkpt lat="48.4647592" lon="-2.0289506">
        <ele>47.967</ele>
        <time>2018-08-21T12:21:32.505Z</time>
      </trkpt>
      <trkpt lat="48.4645226" lon="-2.0289786">
        <ele>47.099</ele>
        <time>2018-08-21T12:21:35.418Z</time>
      </trkpt>
      <trkpt lat="48.4643198" lon="-2.0291770">
        <ele>45.946</ele>
        <time>2018-08-21T12:21:38.191Z</time>
      </trkpt>
      <trkpt lat="48.4641677" lon="-2.0293329">
        <ele>44.211</ele>
        <time>2018-08-21T12:21:40.203Z</time>
      </trkpt>
      <trkpt lat="48.4639540" lon="-2.0296194">
        <ele>41.455</ele>
        <time>2018-08-21T12:21:43.287Z</time>
      </trkpt>
      <trkpt lat="48.4638059" lon="-2.0297806">
        <ele>37.905</ele>
        <time>2018-08-21T12:21:45.245Z</time>
      </trkpt>
      <trkpt lat="48.4635952" lon="-2.0300265">
        <ele>34.286</ele>
        <time>2018-08-21T12:21:48.072Z</time>
      </trkpt>
      <trkpt lat="48.4633710" lon="-2.0302924">
        <ele>31.164</ele>
        <time>2018-08-21T12:21:51.012Z</time>
      </trkpt>
      <trkpt lat="48.4632104" lon="-2.0304658">
        <ele>28.711</ele>
        <time>2018-08-21T12:21:53.004Z</time>
      </trkpt>
      <trkpt lat="48.4630607" lon="-2.0306473">
        <ele>26.990</ele>
        <time>2018-08-21T12:21:54.982Z</time>
      </trkpt>
      <trkpt lat="48.4629060" lon="-2.0308249">
        <ele>26.044</ele>
        <time>2018-08-21T12:21:57.062Z</time>
      </trkpt>
      <trkpt lat="48.4626777" lon="-2.0310296">
        <ele>25.452</ele>
        <time>2018-08-21T12:22:00.001Z</time>
      </trkpt>
      <trkpt lat="48.4624987" lon="-2.0313050">
        <ele>24.708</ele>
        <time>2018-08-21T12:22:02.910Z</time>
      </trkpt>
      <trkpt lat="48.4622668" lon="-2.0315531">
        <ele>23.670</ele>
        <time>2018-08-21T12:22:06.087Z</time>
      </trkpt>
      <trkpt lat="48.4620933" lon="-2.0317716">
        <ele>22.598</ele>
        <time>2018-08-21T12:22:08.617Z</time>
      </trkpt>
      <trkpt lat="48.4619174" lon="-2.0320002">
        <ele>21.204</ele>
        <time>2018-08-21T12:22:11.551Z</time>
      </trkpt>
      <trkpt lat="48.4617905" lon="-2.0321847">
        <ele>18.855</ele>
        <time>2018-08-21T12:22:14.287Z</time>
      </trkpt>
      <trkpt lat="48.4617191" lon="-2.0322954">
        <ele>15.519</ele>
        <time>2018-08-21T12:22:16.357Z</time>
      </trkpt>
      <trkpt lat="48.4616488" lon="-2.0324289">
        <ele>11.873</ele>
        <time>2018-08-21T12:22:19.109Z</time>
      </trkpt>
      <trkpt lat="48.4617449" lon="-2.0323808">
        <ele>8.857</ele>
        <time>2018-08-21T12:22:22.081Z</time>
      </trkpt>
      <trkpt lat="48.4618200" lon="-2.0323011">
        <ele>7.036</ele>
        <time>2018-08-21T12:22:24.773Z</time>
      </trkpt>
      <trkpt lat="48.4619306" lon="-2.0322639">
        <ele>6.265</ele>
        <time>2018-08-21T12:22:28.345Z</time>
      </trkpt>
      <trkpt lat="48.4620442" lon="-2.0323350">
        <ele>6.254</ele>
        <time>2018-08-21T12:22:32.038Z</time>
      </trkpt>
      <trkpt lat="48.4621416" lon="-2.0324439">
        <ele>6.631</ele>
        <time>2018-08-21T12:22:35.370Z</time>
      </trkpt>
      <trkpt lat="48.4622250" lon="-2.0325308">
        <ele>7.007</ele>
        <time>2018-08-21T12:22:38.012Z</time>
      </trkpt>
      <trkpt lat="48.4623458" lon="-2.0325609">
        <ele>7.480</ele>
        <time>2018-08-21T12:22:41.238Z</time>
      </trkpt>
      <trkpt lat="48.4624632" lon="-2.0325169">
        <ele>8.392</ele>
        <time>2018-08-21T12:22:44.439Z</time>
      </trkpt>
      <trkpt lat="48.4625574" lon="-2.0324220">
        <ele>9.453</ele>
        <time>2018-08-21T12:22:47.250Z</time>
      </trkpt>
      <trkpt lat="48.4626640" lon="-2.0323699">
        <ele>10.269</ele>
        <time>2018-08-21T12:22:49.808Z</time>
      </trkpt>
      <trkpt lat="48.4627602" lon="-2.0323586">
        <ele>10.898</ele>
        <time>2018-08-21T12:22:52.039Z</time>
      </trkpt>
      <trkpt lat="48.4628663" lon="-2.0323633">
        <ele>11.330</ele>
        <time>2018-08-21T12:22:54.847Z</time>
      </trkpt>
      <trkpt lat="48.4630009" lon="-2.0323694">
        <ele>11.477</ele>
        <time>2018-08-21T12:22:58.386Z</time>
      </trkpt>
      <trkpt lat="48.4631062" lon="-2.0324244">
        <ele>11.416</ele>
        <time>2018-08-21T12:23:00.996Z</time>
      </trkpt>
      <trkpt lat="48.4631985" lon="-2.0324715">
        <ele>10.770</ele>
        <time>2018-08-21T12:23:03.307Z</time>
      </trkpt>
      <trkpt lat="48.4633006" lon="-2.0325307">
        <ele>9.262</ele>
        <time>2018-08-21T12:23:06.030Z</time>
      </trkpt>
      <trkpt lat="48.4633971" lon="-2.0325973">
        <ele>7.565</ele>
        <time>2018-08-21T12:23:08.803Z</time>
      </trkpt>
      <trkpt lat="48.4635065" lon="-2.0326616">
        <ele>6.358</ele>
        <time>2018-08-21T12:23:12.060Z</time>
      </trkpt>
      <trkpt lat="48.4636207" lon="-2.0327505">
        <ele>5.563</ele>
        <time>2018-08-21T12:23:15.487Z</time>
      </trkpt>
      <trkpt lat="48.4637224" lon="-2.0328569">
        <ele>4.887</ele>
        <time>2018-08-21T12:23:18.570Z</time>
      </trkpt>
      <trkpt lat="48.4638316" lon="-2.0329464">
        <ele>4.169</ele>
        <time>2018-08-21T12:23:21.609Z</time>
      </trkpt>
      <trkpt lat="48.4639347" lon="-2.0330228">
        <ele>3.431</ele>
        <time>2018-08-21T12:23:24.476Z</time>
      </trkpt>
      <trkpt lat="48.4640285" lon="-2.0331105">
        <ele>2.783</ele>
        <time>2018-08-21T12:23:27.310Z</time>
      </trkpt>
      <trkpt lat="48.4641263" lon="-2.0331994">
        <ele>2.327</ele>
        <time>2018-08-21T12:23:30.331Z</time>
      </trkpt>
      <trkpt lat="48.4642271" lon="-2.0332780">
        <ele>2.169</ele>
        <time>2018-08-21T12:23:33.317Z</time>
      </trkpt>
      <trkpt lat="48.4643333" lon="-2.0333691">
        <ele>2.275</ele>
        <time>2018-08-21T12:23:36.612Z</time>
      </trkpt>
      <trkpt lat="48.4644272" lon="-2.0334858">
        <ele>2.472</ele>
        <time>2018-08-21T12:23:39.854Z</time>
      </trkpt>
      <trkpt lat="48.4645022" lon="-2.0336204">
        <ele>2.637</ele>
        <time>2018-08-21T12:23:42.948Z</time>
      </trkpt>
      <trkpt lat="48.4645864" lon="-2.0337510">
        <ele>2.973</ele>
        <time>2018-08-21T12:23:46.120Z</time>
      </trkpt>
      <trkpt lat="48.4646814" lon="-2.0338413">
        <ele>3.560</ele>
        <time>2018-08-21T12:23:49.100Z</time>
      </trkpt>
      <trkpt lat="48.4647716" lon="-2.0339016">
        <ele>4.085</ele>
        <time>2018-08-21T12:23:51.859Z</time>
      </trkpt>
      <trkpt lat="48.4648797" lon="-2.0339498">
        <ele>5.034</ele>
        <time>2018-08-21T12:23:55.298Z</time>
      </trkpt>
      <trkpt lat="48.4649899" lon="-2.0339632">
        <ele>7.029</ele>
        <time>2018-08-21T12:23:58.917Z</time>
      </trkpt>
      <trkpt lat="48.4650917" lon="-2.0339638">
        <ele>9.521</ele>
        <time>2018-08-21T12:24:02.276Z</time>
      </trkpt>
      <trkpt lat="48.4651904" lon="-2.0338883">
        <ele>11.591</ele>
        <time>2018-08-21T12:24:06.818Z</time>
      </trkpt>
      <trkpt lat="48.4652967" lon="-2.0338711">
        <ele>12.783</ele>
        <time>2018-08-21T12:24:12.913Z</time>
      </trkpt>
      <trkpt lat="48.4654083" lon="-2.0338608">
        <ele>12.921</ele>
        <time>2018-08-21T12:24:18.667Z</time>
      </trkpt>
      <trkpt lat="48.4655023" lon="-2.0338577">
        <ele>12.255</ele>
        <time>2018-08-21T12:24:22.326Z</time>
      </trkpt>
      <trkpt lat="48.4656044" lon="-2.0338537">
        <ele>11.282</ele>
        <time>2018-08-21T12:24:26.383Z</time>
      </trkpt>
      <trkpt lat="48.4657054" lon="-2.0338459">
        <ele>10.625</ele>
        <time>2018-08-21T12:24:30.452Z</time>
      </trkpt>
      <trkpt lat="48.4658088" lon="-2.0338684">
        <ele>10.748</ele>
        <time>2018-08-21T12:24:34.856Z</time>
      </trkpt>
      <trkpt lat="48.4659144" lon="-2.0338667">
        <ele>11.796</ele>
        <time>2018-08-21T12:24:38.911Z</time>
      </trkpt>
      <trkpt lat="48.4660210" lon="-2.0338292">
        <ele>13.268</ele>
        <time>2018-08-21T12:24:42.964Z</time>
      </trkpt>
      <trkpt lat="48.4661330" lon="-2.0338297">
        <ele>14.344</ele>
        <time>2018-08-21T12:24:46.920Z</time>
      </trkpt>
      <trkpt lat="48.4662252" lon="-2.0338397">
        <ele>14.842</ele>
        <time>2018-08-21T12:24:50.095Z</time>
      </trkpt>
      <trkpt lat="48.4663416" lon="-2.0338195">
        <ele>14.992</ele>
        <time>2018-08-21T12:24:54.005Z</time>
      </trkpt>
      <trkpt lat="48.4664444" lon="-2.0337999">
        <ele>14.858</ele>
        <time>2018-08-21T12:24:57.270Z</time>
      </trkpt>
      <trkpt lat="48.4665567" lon="-2.0337906">
        <ele>14.566</ele>
        <time>2018-08-21T12:25:00.767Z</time>
      </trkpt>
      <trkpt lat="48.4666637" lon="-2.0337903">
        <ele>14.478</ele>
        <time>2018-08-21T12:25:04.211Z</time>
      </trkpt>
      <trkpt lat="48.4667330" lon="-2.0338841">
        <ele>14.745</ele>
        <time>2018-08-21T12:25:07.765Z</time>
      </trkpt>
      <trkpt lat="48.4666838" lon="-2.0340082">
        <ele>15.109</ele>
        <time>2018-08-21T12:25:12.079Z</time>
      </trkpt>
      <trkpt lat="48.4666342" lon="-2.0341416">
        <ele>15.200</ele>
        <time>2018-08-21T12:25:17.999Z</time>
      </trkpt>
      <trkpt lat="48.4666342" lon="-2.0341416">
        <ele>14.974</ele>
        <time>2018-08-21T12:25:25.999Z</time>
      </trkpt>
      <trkpt lat="48.4667694" lon="-2.0339455">
        <ele>19.533</ele>
        <time>2018-08-22T07:26:36.999Z</time>
      </trkpt>
      <trkpt lat="48.4667694" lon="-2.0339455">
        <ele>19.524</ele>
        <time>2018-08-22T07:26:57.999Z</time>
      </trkpt>
      <trkpt lat="48.4667694" lon="-2.0339455">
        <ele>19.519</ele>
        <time>2018-08-22T07:26:58.099Z</time>
      </trkpt>
      <trkpt lat="48.4665858" lon="-2.0338528">
        <ele>19.514</ele>
        <time>2018-08-22T07:27:09.637Z</time>
      </trkpt>
      <trkpt lat="48.4664527" lon="-2.0338442">
        <ele>18.764</ele>
        <time>2018-08-22T07:27:12.826Z</time>
      </trkpt>
      <trkpt lat="48.4663116" lon="-2.0338304">
        <ele>16.653</ele>
        <time>2018-08-22T07:27:15.769Z</time>
      </trkpt>
      <trkpt lat="48.4661643" lon="-2.0338167">
        <ele>14.213</ele>
        <time>2018-08-22T07:27:18.574Z</time>
      </trkpt>
      <trkpt lat="48.4659740" lon="-2.0338131">
        <ele>12.803</ele>
        <time>2018-08-22T07:27:22.331Z</time>
      </trkpt>
      <trkpt lat="48.4658503" lon="-2.0337955">
        <ele>12.524</ele>
        <time>2018-08-22T07:27:24.993Z</time>
      </trkpt>
      <trkpt lat="48.4656995" lon="-2.0337852">
        <ele>12.882</ele>
        <time>2018-08-22T07:27:28.008Z</time>
      </trkpt>
      <trkpt lat="48.4655422" lon="-2.0338485">
        <ele>13.319</ele>
        <time>2018-08-22T07:27:30.975Z</time>
      </trkpt>
      <trkpt lat="48.4653587" lon="-2.0338727">
        <ele>13.588</ele>
        <time>2018-08-22T07:27:34.242Z</time>
      </trkpt>
      <trkpt lat="48.4651790" lon="-2.0339039">
        <ele>13.780</ele>
        <time>2018-08-22T07:27:37.328Z</time>
      </trkpt>
      <trkpt lat="48.4649975" lon="-2.0339400">
        <ele>13.923</ele>
        <time>2018-08-22T07:27:40.406Z</time>
      </trkpt>
      <trkpt lat="48.4648127" lon="-2.0339600">
        <ele>13.986</ele>
        <time>2018-08-22T07:27:43.650Z</time>
      </trkpt>
      <trkpt lat="48.4646373" lon="-2.0339083">
        <ele>14.021</ele>
        <time>2018-08-22T07:27:46.938Z</time>
      </trkpt>
      <trkpt lat="48.4645090" lon="-2.0337519">
        <ele>14.049</ele>
        <time>2018-08-22T07:27:50.122Z</time>
      </trkpt>
      <trkpt lat="48.4643824" lon="-2.0336153">
        <ele>13.878</ele>
        <time>2018-08-22T07:27:53.231Z</time>
      </trkpt>
      <trkpt lat="48.4642823" lon="-2.0334787">
        <ele>13.421</ele>
        <time>2018-08-22T07:27:55.916Z</time>
      </trkpt>
      <trkpt lat="48.4641586" lon="-2.0333333">
        <ele>13.029</ele>
        <time>2018-08-22T07:27:59.053Z</time>
      </trkpt>
      <trkpt lat="48.4640251" lon="-2.0332274">
        <ele>13.061</ele>
        <time>2018-08-22T07:28:02.133Z</time>
      </trkpt>
      <trkpt lat="48.4639004" lon="-2.0331309">
        <ele>13.376</ele>
        <time>2018-08-22T07:28:05.067Z</time>
      </trkpt>
      <trkpt lat="48.4637697" lon="-2.0330520">
        <ele>13.636</ele>
        <time>2018-08-22T07:28:08.101Z</time>
      </trkpt>
      <trkpt lat="48.4636572" lon="-2.0329469">
        <ele>13.403</ele>
        <time>2018-08-22T07:28:11.025Z</time>
      </trkpt>
      <trkpt lat="48.4635431" lon="-2.0328359">
        <ele>12.475</ele>
        <time>2018-08-22T07:28:14.119Z</time>
      </trkpt>
      <trkpt lat="48.4634132" lon="-2.0327868">
        <ele>11.352</ele>
        <time>2018-08-22T07:28:17.254Z</time>
      </trkpt>
      <trkpt lat="48.4633055" lon="-2.0327033">
        <ele>10.745</ele>
        <time>2018-08-22T07:28:20.127Z</time>
      </trkpt>
      <trkpt lat="48.4631907" lon="-2.0326089">
        <ele>10.750</ele>
        <time>2018-08-22T07:28:23.224Z</time>
      </trkpt>
      <trkpt lat="48.4630950" lon="-2.0325075">
        <ele>11.004</ele>
        <time>2018-08-22T07:28:25.912Z</time>
      </trkpt>
      <trkpt lat="48.4629820" lon="-2.0324275">
        <ele>11.266</ele>
        <time>2018-08-22T07:28:28.676Z</time>
      </trkpt>
      <trkpt lat="48.4628592" lon="-2.0323781">
        <ele>11.593</ele>
        <time>2018-08-22T07:28:31.428Z</time>
      </trkpt>
      <trkpt lat="48.4627232" lon="-2.0324055">
        <ele>11.962</ele>
        <time>2018-08-22T07:28:34.380Z</time>
      </trkpt>
      <trkpt lat="48.4625966" lon="-2.0324641">
        <ele>12.209</ele>
        <time>2018-08-22T07:28:37.222Z</time>
      </trkpt>
      <trkpt lat="48.4624635" lon="-2.0325103">
        <ele>12.195</ele>
        <time>2018-08-22T07:28:40.233Z</time>
      </trkpt>
      <trkpt lat="48.4623431" lon="-2.0325741">
        <ele>11.784</ele>
        <time>2018-08-22T07:28:43.289Z</time>
      </trkpt>
      <trkpt lat="48.4622225" lon="-2.0325912">
        <ele>11.005</ele>
        <time>2018-08-22T07:28:46.469Z</time>
      </trkpt>
      <trkpt lat="48.4621151" lon="-2.0325601">
        <ele>10.115</ele>
        <time>2018-08-22T07:28:49.485Z</time>
      </trkpt>
      <trkpt lat="48.4620290" lon="-2.0324687">
        <ele>9.198</ele>
        <time>2018-08-22T07:28:52.356Z</time>
      </trkpt>
      <trkpt lat="48.4619414" lon="-2.0323787">
        <ele>8.299</ele>
        <time>2018-08-22T07:28:55.177Z</time>
      </trkpt>
      <trkpt lat="48.4618317" lon="-2.0323244">
        <ele>7.687</ele>
        <time>2018-08-22T07:28:58.609Z</time>
      </trkpt>
      <trkpt lat="48.4617279" lon="-2.0323694">
        <ele>7.420</ele>
        <time>2018-08-22T07:29:02.900Z</time>
      </trkpt>
      <trkpt lat="48.4616621" lon="-2.0324715">
        <ele>7.092</ele>
        <time>2018-08-22T07:29:07.561Z</time>
      </trkpt>
      <trkpt lat="48.4616000" lon="-2.0325813">
        <ele>6.503</ele>
        <time>2018-08-22T07:29:12.040Z</time>
      </trkpt>
      <trkpt lat="48.4615206" lon="-2.0326660">
        <ele>6.168</ele>
        <time>2018-08-22T07:29:15.407Z</time>
      </trkpt>
      <trkpt lat="48.4614577" lon="-2.0327684">
        <ele>6.569</ele>
        <time>2018-08-22T07:29:17.852Z</time>
      </trkpt>
      <trkpt lat="48.4613776" lon="-2.0329199">
        <ele>7.361</ele>
        <time>2018-08-22T07:29:20.686Z</time>
      </trkpt>
      <trkpt lat="48.4612866" lon="-2.0330937">
        <ele>7.983</ele>
        <time>2018-08-22T07:29:23.665Z</time>
      </trkpt>
      <trkpt lat="48.4612160" lon="-2.0332795">
        <ele>8.365</ele>
        <time>2018-08-22T07:29:26.500Z</time>
      </trkpt>
      <trkpt lat="48.4611313" lon="-2.0334832">
        <ele>8.697</ele>
        <time>2018-08-22T07:29:29.889Z</time>
      </trkpt>
      <trkpt lat="48.4610418" lon="-2.0336474">
        <ele>8.955</ele>
        <time>2018-08-22T07:29:33.110Z</time>
      </trkpt>
      <trkpt lat="48.4609653" lon="-2.0337800">
        <ele>8.993</ele>
        <time>2018-08-22T07:29:35.848Z</time>
      </trkpt>
      <trkpt lat="48.4608890" lon="-2.0339240">
        <ele>8.868</ele>
        <time>2018-08-22T07:29:38.754Z</time>
      </trkpt>
      <trkpt lat="48.4608073" lon="-2.0340561">
        <ele>8.842</ele>
        <time>2018-08-22T07:29:41.593Z</time>
      </trkpt>
      <trkpt lat="48.4607253" lon="-2.0341938">
        <ele>9.073</ele>
        <time>2018-08-22T07:29:44.443Z</time>
      </trkpt>
      <trkpt lat="48.4606345" lon="-2.0343406">
        <ele>9.602</ele>
        <time>2018-08-22T07:29:47.466Z</time>
      </trkpt>
      <trkpt lat="48.4605417" lon="-2.0345100">
        <ele>10.286</ele>
        <time>2018-08-22T07:29:50.849Z</time>
      </trkpt>
      <trkpt lat="48.4604543" lon="-2.0346153">
        <ele>10.813</ele>
        <time>2018-08-22T07:29:53.555Z</time>
      </trkpt>
      <trkpt lat="48.4603735" lon="-2.0347279">
        <ele>11.144</ele>
        <time>2018-08-22T07:29:56.244Z</time>
      </trkpt>
      <trkpt lat="48.4602787" lon="-2.0348526">
        <ele>11.484</ele>
        <time>2018-08-22T07:29:59.298Z</time>
      </trkpt>
      <trkpt lat="48.4601873" lon="-2.0349772">
        <ele>11.772</ele>
        <time>2018-08-22T07:30:02.252Z</time>
      </trkpt>
      <trkpt lat="48.4600866" lon="-2.0350901">
        <ele>11.868</ele>
        <time>2018-08-22T07:30:05.260Z</time>
      </trkpt>
      <trkpt lat="48.4599853" lon="-2.0352127">
        <ele>11.745</ele>
        <time>2018-08-22T07:30:08.369Z</time>
      </trkpt>
      <trkpt lat="48.4598874" lon="-2.0353324">
        <ele>11.441</ele>
        <time>2018-08-22T07:30:11.337Z</time>
      </trkpt>
      <trkpt lat="48.4597865" lon="-2.0354491">
        <ele>11.131</ele>
        <time>2018-08-22T07:30:14.389Z</time>
      </trkpt>
      <trkpt lat="48.4596948" lon="-2.0355526">
        <ele>10.965</ele>
        <time>2018-08-22T07:30:17.209Z</time>
      </trkpt>
      <trkpt lat="48.4596046" lon="-2.0356658">
        <ele>10.764</ele>
        <time>2018-08-22T07:30:20.062Z</time>
      </trkpt>
      <trkpt lat="48.4595142" lon="-2.0357906">
        <ele>10.239</ele>
        <time>2018-08-22T07:30:22.962Z</time>
      </trkpt>
      <trkpt lat="48.4594178" lon="-2.0359151">
        <ele>9.341</ele>
        <time>2018-08-22T07:30:25.927Z</time>
      </trkpt>
      <trkpt lat="48.4593209" lon="-2.0360385">
        <ele>8.213</ele>
        <time>2018-08-22T07:30:28.907Z</time>
      </trkpt>
      <trkpt lat="48.4592295" lon="-2.0361636">
        <ele>7.060</ele>
        <time>2018-08-22T07:30:31.803Z</time>
      </trkpt>
      <trkpt lat="48.4591367" lon="-2.0362846">
        <ele>6.168</ele>
        <time>2018-08-22T07:30:34.714Z</time>
      </trkpt>
      <trkpt lat="48.4590517" lon="-2.0364096">
        <ele>5.587</ele>
        <time>2018-08-22T07:30:37.598Z</time>
      </trkpt>
      <trkpt lat="48.4589699" lon="-2.0365341">
        <ele>5.167</ele>
        <time>2018-08-22T07:30:40.398Z</time>
      </trkpt>
      <trkpt lat="48.4588834" lon="-2.0366609">
        <ele>4.908</ele>
        <time>2018-08-22T07:30:43.230Z</time>
      </trkpt>
      <trkpt lat="48.4587903" lon="-2.0367888">
        <ele>5.163</ele>
        <time>2018-08-22T07:30:46.134Z</time>
      </trkpt>
      <trkpt lat="48.4586941" lon="-2.0369209">
        <ele>6.003</ele>
        <time>2018-08-22T07:30:49.169Z</time>
      </trkpt>
      <trkpt lat="48.4585979" lon="-2.0370320">
        <ele>6.865</ele>
        <time>2018-08-22T07:30:52.050Z</time>
      </trkpt>
      <trkpt lat="48.4584968" lon="-2.0371407">
        <ele>7.272</ele>
        <time>2018-08-22T07:30:54.973Z</time>
      </trkpt>
      <trkpt lat="48.4583902" lon="-2.0372365">
        <ele>7.390</ele>
        <time>2018-08-22T07:30:57.885Z</time>
      </trkpt>
      <trkpt lat="48.4582940" lon="-2.0373377">
        <ele>7.381</ele>
        <time>2018-08-22T07:31:00.662Z</time>
      </trkpt>
      <trkpt lat="48.4581869" lon="-2.0374379">
        <ele>7.322</ele>
        <time>2018-08-22T07:31:03.659Z</time>
      </trkpt>
      <trkpt lat="48.4580768" lon="-2.0375267">
        <ele>7.324</ele>
        <time>2018-08-22T07:31:06.616Z</time>
      </trkpt>
      <trkpt lat="48.4579650" lon="-2.0376293">
        <ele>7.407</ele>
        <time>2018-08-22T07:31:09.683Z</time>
      </trkpt>
      <trkpt lat="48.4578512" lon="-2.0377153">
        <ele>7.595</ele>
        <time>2018-08-22T07:31:12.660Z</time>
      </trkpt>
      <trkpt lat="48.4577388" lon="-2.0377906">
        <ele>8.083</ele>
        <time>2018-08-22T07:31:15.591Z</time>
      </trkpt>
      <trkpt lat="48.4576242" lon="-2.0378403">
        <ele>8.829</ele>
        <time>2018-08-22T07:31:18.484Z</time>
      </trkpt>
      <trkpt lat="48.4575021" lon="-2.0378852">
        <ele>9.482</ele>
        <time>2018-08-22T07:31:21.574Z</time>
      </trkpt>
      <trkpt lat="48.4573884" lon="-2.0379053">
        <ele>9.781</ele>
        <time>2018-08-22T07:31:24.438Z</time>
      </trkpt>
      <trkpt lat="48.4572748" lon="-2.0378978">
        <ele>9.697</ele>
        <time>2018-08-22T07:31:27.318Z</time>
      </trkpt>
      <trkpt lat="48.4571605" lon="-2.0378828">
        <ele>9.265</ele>
        <time>2018-08-22T07:31:30.230Z</time>
      </trkpt>
      <trkpt lat="48.4570469" lon="-2.0378538">
        <ele>8.687</ele>
        <time>2018-08-22T07:31:33.186Z</time>
      </trkpt>
      <trkpt lat="48.4569421" lon="-2.0378839">
        <ele>8.264</ele>
        <time>2018-08-22T07:31:36.017Z</time>
      </trkpt>
      <trkpt lat="48.4568459" lon="-2.0379412">
        <ele>8.032</ele>
        <time>2018-08-22T07:31:38.883Z</time>
      </trkpt>
      <trkpt lat="48.4567464" lon="-2.0380170">
        <ele>7.734</ele>
        <time>2018-08-22T07:31:42.046Z</time>
      </trkpt>
      <trkpt lat="48.4566489" lon="-2.0380751">
        <ele>7.214</ele>
        <time>2018-08-22T07:31:45.081Z</time>
      </trkpt>
      <trkpt lat="48.4565509" lon="-2.0381472">
        <ele>6.625</ele>
        <time>2018-08-22T07:31:48.352Z</time>
      </trkpt>
      <trkpt lat="48.4564727" lon="-2.0382810">
        <ele>6.216</ele>
        <time>2018-08-22T07:31:52.203Z</time>
      </trkpt>
      <trkpt lat="48.4564097" lon="-2.0384036">
        <ele>6.211</ele>
        <time>2018-08-22T07:31:56.219Z</time>
      </trkpt>
      <trkpt lat="48.4563322" lon="-2.0385047">
        <ele>6.632</ele>
        <time>2018-08-22T07:32:00.991Z</time>
      </trkpt>
      <trkpt lat="48.4563322" lon="-2.0385047">
        <ele>7.122</ele>
        <time>2018-08-22T07:32:12.991Z</time>
      </trkpt>
      <trkpt lat="48.4563322" lon="-2.0385047">
        <ele>7.334</ele>
        <time>2018-08-22T07:35:14.135Z</time>
      </trkpt>
      <trkpt lat="48.4562489" lon="-2.0382749">
        <ele>7.296</ele>
        <time>2018-08-22T07:35:29.230Z</time>
      </trkpt>
      <trkpt lat="48.4561614" lon="-2.0381658">
        <ele>7.188</ele>
        <time>2018-08-22T07:35:34.018Z</time>
      </trkpt>
      <trkpt lat="48.4560880" lon="-2.0380412">
        <ele>7.065</ele>
        <time>2018-08-22T07:35:38.841Z</time>
      </trkpt>
      <trkpt lat="48.4560405" lon="-2.0379149">
        <ele>6.864</ele>
        <time>2018-08-22T07:35:43.660Z</time>
      </trkpt>
      <trkpt lat="48.4559395" lon="-2.0379252">
        <ele>6.551</ele>
        <time>2018-08-22T07:35:48.676Z</time>
      </trkpt>
      <trkpt lat="48.4558540" lon="-2.0380245">
        <ele>6.182</ele>
        <time>2018-08-22T07:35:53.325Z</time>
      </trkpt>
      <trkpt lat="48.4557838" lon="-2.0381182">
        <ele>5.846</ele>
        <time>2018-08-22T07:35:56.461Z</time>
      </trkpt>
      <trkpt lat="48.4556958" lon="-2.0382147">
        <ele>5.616</ele>
        <time>2018-08-22T07:35:59.567Z</time>
      </trkpt>
      <trkpt lat="48.4556037" lon="-2.0383467">
        <ele>5.524</ele>
        <time>2018-08-22T07:36:02.776Z</time>
      </trkpt>
      <trkpt lat="48.4555036" lon="-2.0384726">
        <ele>5.575</ele>
        <time>2018-08-22T07:36:05.924Z</time>
      </trkpt>
      <trkpt lat="48.4553960" lon="-2.0385435">
        <ele>5.723</ele>
        <time>2018-08-22T07:36:08.891Z</time>
      </trkpt>
      <trkpt lat="48.4552845" lon="-2.0385431">
        <ele>5.891</ele>
        <time>2018-08-22T07:36:11.942Z</time>
      </trkpt>
      <trkpt lat="48.4551869" lon="-2.0385172">
        <ele>6.109</ele>
        <time>2018-08-22T07:36:15.002Z</time>
      </trkpt>
      <trkpt lat="48.4550743" lon="-2.0384891">
        <ele>6.444</ele>
        <time>2018-08-22T07:36:18.997Z</time>
      </trkpt>
      <trkpt lat="48.4550743" lon="-2.0384891">
        <ele>6.783</ele>
        <time>2018-08-22T07:36:20.997Z</time>
      </trkpt>
      <trkpt lat="48.4550743" lon="-2.0384891">
        <ele>6.947</ele>
        <time>2018-08-22T07:36:21.097Z</time>
      </trkpt>
      <trkpt lat="48.4548824" lon="-2.0383453">
        <ele>6.927</ele>
        <time>2018-08-22T07:36:31.260Z</time>
      </trkpt>
      <trkpt lat="48.4548005" lon="-2.0382750">
        <ele>6.906</ele>
        <time>2018-08-22T07:36:33.962Z</time>
      </trkpt>
      <trkpt lat="48.4546987" lon="-2.0381745">
        <ele>7.059</ele>
        <time>2018-08-22T07:36:37.506Z</time>
      </trkpt>
      <trkpt lat="48.4546314" lon="-2.0380716">
        <ele>7.345</ele>
        <time>2018-08-22T07:36:40.270Z</time>
      </trkpt>
      <trkpt lat="48.4545015" lon="-2.0379754">
        <ele>7.602</ele>
        <time>2018-08-22T07:36:43.963Z</time>
      </trkpt>
      <trkpt lat="48.4544761" lon="-2.0377940">
        <ele>7.628</ele>
        <time>2018-08-22T07:36:47.039Z</time>
      </trkpt>
      <trkpt lat="48.4544628" lon="-2.0376391">
        <ele>7.275</ele>
        <time>2018-08-22T07:36:49.623Z</time>
      </trkpt>
      <trkpt lat="48.4544590" lon="-2.0374715">
        <ele>6.353</ele>
        <time>2018-08-22T07:36:52.414Z</time>
      </trkpt>
      <trkpt lat="48.4544555" lon="-2.0373010">
        <ele>4.934</ele>
        <time>2018-08-22T07:36:55.259Z</time>
      </trkpt>
      <trkpt lat="48.4544464" lon="-2.0371363">
        <ele>3.635</ele>
        <time>2018-08-22T07:36:57.886Z</time>
      </trkpt>
      <trkpt lat="48.4544365" lon="-2.0369419">
        <ele>2.982</ele>
        <time>2018-08-22T07:37:00.918Z</time>
      </trkpt>
      <trkpt lat="48.4544267" lon="-2.0367601">
        <ele>3.312</ele>
        <time>2018-08-22T07:37:03.958Z</time>
      </trkpt>
      <trkpt lat="48.4544238" lon="-2.0365886">
        <ele>4.675</ele>
        <time>2018-08-22T07:37:06.878Z</time>
      </trkpt>
      <trkpt lat="48.4543967" lon="-2.0364136">
        <ele>6.355</ele>
        <time>2018-08-22T07:37:09.907Z</time>
      </trkpt>
      <trkpt lat="48.4543618" lon="-2.0362462">
        <ele>7.799</ele>
        <time>2018-08-22T07:37:12.886Z</time>
      </trkpt>
      <trkpt lat="48.4543231" lon="-2.0360897">
        <ele>8.975</ele>
        <time>2018-08-22T07:37:15.878Z</time>
      </trkpt>
      <trkpt lat="48.4542659" lon="-2.0359466">
        <ele>9.596</ele>
        <time>2018-08-22T07:37:19.240Z</time>
      </trkpt>
      <trkpt lat="48.4542033" lon="-2.0357943">
        <ele>9.494</ele>
        <time>2018-08-22T07:37:22.893Z</time>
      </trkpt>
      <trkpt lat="48.4541471" lon="-2.0356718">
        <ele>8.689</ele>
        <time>2018-08-22T07:37:25.692Z</time>
      </trkpt>
      <trkpt lat="48.4540837" lon="-2.0355461">
        <ele>7.198</ele>
        <time>2018-08-22T07:37:28.563Z</time>
      </trkpt>
      <trkpt lat="48.4540248" lon="-2.0354125">
        <ele>5.420</ele>
        <time>2018-08-22T07:37:31.485Z</time>
      </trkpt>
      <trkpt lat="48.4539686" lon="-2.0352837">
        <ele>4.024</ele>
        <time>2018-08-22T07:37:34.434Z</time>
      </trkpt>
      <trkpt lat="48.4539168" lon="-2.0351626">
        <ele>3.414</ele>
        <time>2018-08-22T07:37:37.391Z</time>
      </trkpt>
      <trkpt lat="48.4538301" lon="-2.0350971">
        <ele>3.835</ele>
        <time>2018-08-22T07:37:40.445Z</time>
      </trkpt>
      <trkpt lat="48.4537416" lon="-2.0350289">
        <ele>5.020</ele>
        <time>2018-08-22T07:37:43.509Z</time>
      </trkpt>
      <trkpt lat="48.4536549" lon="-2.0349706">
        <ele>6.095</ele>
        <time>2018-08-22T07:37:46.610Z</time>
      </trkpt>
      <trkpt lat="48.4535680" lon="-2.0348993">
        <ele>6.349</ele>
        <time>2018-08-22T07:37:50.066Z</time>
      </trkpt>
      <trkpt lat="48.4534783" lon="-2.0348453">
        <ele>5.897</ele>
        <time>2018-08-22T07:37:53.509Z</time>
      </trkpt>
      <trkpt lat="48.4533882" lon="-2.0348040">
        <ele>5.410</ele>
        <time>2018-08-22T07:37:56.649Z</time>
      </trkpt>
      <trkpt lat="48.4533047" lon="-2.0347375">
        <ele>5.462</ele>
        <time>2018-08-22T07:37:59.583Z</time>
      </trkpt>
      <trkpt lat="48.4532162" lon="-2.0346796">
        <ele>5.954</ele>
        <time>2018-08-22T07:38:02.481Z</time>
      </trkpt>
      <trkpt lat="48.4531180" lon="-2.0346257">
        <ele>6.398</ele>
        <time>2018-08-22T07:38:05.549Z</time>
      </trkpt>
      <trkpt lat="48.4530185" lon="-2.0345914">
        <ele>6.533</ele>
        <time>2018-08-22T07:38:08.457Z</time>
      </trkpt>
      <trkpt lat="48.4529051" lon="-2.0345794">
        <ele>6.662</ele>
        <time>2018-08-22T07:38:11.650Z</time>
      </trkpt>
      <trkpt lat="48.4528057" lon="-2.0345667">
        <ele>7.209</ele>
        <time>2018-08-22T07:38:14.541Z</time>
      </trkpt>
      <trkpt lat="48.4527104" lon="-2.0345782">
        <ele>8.035</ele>
        <time>2018-08-22T07:38:17.423Z</time>
      </trkpt>
      <trkpt lat="48.4526118" lon="-2.0345846">
        <ele>8.836</ele>
        <time>2018-08-22T07:38:20.318Z</time>
      </trkpt>
      <trkpt lat="48.4525041" lon="-2.0346035">
        <ele>9.556</ele>
        <time>2018-08-22T07:38:23.283Z</time>
      </trkpt>
      <trkpt lat="48.4523935" lon="-2.0346405">
        <ele>9.833</ele>
        <time>2018-08-22T07:38:26.228Z</time>
      </trkpt>
      <trkpt lat="48.4522848" lon="-2.0347216">
        <ele>9.044</ele>
        <time>2018-08-22T07:38:29.288Z</time>
      </trkpt>
      <trkpt lat="48.4521861" lon="-2.0348300">
        <ele>7.458</ele>
        <time>2018-08-22T07:38:32.451Z</time>
      </trkpt>
      <trkpt lat="48.4520908" lon="-2.0349039">
        <ele>6.235</ele>
        <time>2018-08-22T07:38:35.460Z</time>
      </trkpt>
      <trkpt lat="48.4520122" lon="-2.0349886">
        <ele>5.985</ele>
        <time>2018-08-22T07:38:38.257Z</time>
      </trkpt>
      <trkpt lat="48.4519186" lon="-2.0351199">
        <ele>6.233</ele>
        <time>2018-08-22T07:38:41.822Z</time>
      </trkpt>
      <trkpt lat="48.4518288" lon="-2.0352554">
        <ele>6.435</ele>
        <time>2018-08-22T07:38:45.023Z</time>
      </trkpt>
      <trkpt lat="48.4517404" lon="-2.0354366">
        <ele>6.548</ele>
        <time>2018-08-22T07:38:48.524Z</time>
      </trkpt>
      <trkpt lat="48.4516631" lon="-2.0356205">
        <ele>6.692</ele>
        <time>2018-08-22T07:38:51.920Z</time>
      </trkpt>
      <trkpt lat="48.4516041" lon="-2.0357763">
        <ele>6.777</ele>
        <time>2018-08-22T07:38:54.839Z</time>
      </trkpt>
      <trkpt lat="48.4515593" lon="-2.0359478">
        <ele>6.586</ele>
        <time>2018-08-22T07:38:57.869Z</time>
      </trkpt>
      <trkpt lat="48.4515189" lon="-2.0361119">
        <ele>6.147</ele>
        <time>2018-08-22T07:39:00.740Z</time>
      </trkpt>
      <trkpt lat="48.4514858" lon="-2.0362788">
        <ele>5.892</ele>
        <time>2018-08-22T07:39:03.572Z</time>
      </trkpt>
      <trkpt lat="48.4514512" lon="-2.0364404">
        <ele>6.144</ele>
        <time>2018-08-22T07:39:06.322Z</time>
      </trkpt>
      <trkpt lat="48.4514345" lon="-2.0366035">
        <ele>6.670</ele>
        <time>2018-08-22T07:39:09.105Z</time>
      </trkpt>
      <trkpt lat="48.4514218" lon="-2.0367531">
        <ele>7.080</ele>
        <time>2018-08-22T07:39:11.819Z</time>
      </trkpt>
      <trkpt lat="48.4514043" lon="-2.0369165">
        <ele>7.239</ele>
        <time>2018-08-22T07:39:14.896Z</time>
      </trkpt>
      <trkpt lat="48.4513790" lon="-2.0370515">
        <ele>7.215</ele>
        <time>2018-08-22T07:39:17.764Z</time>
      </trkpt>
      <trkpt lat="48.4513425" lon="-2.0371851">
        <ele>7.252</ele>
        <time>2018-08-22T07:39:21.408Z</time>
      </trkpt>
      <trkpt lat="48.4512990" lon="-2.0373431">
        <ele>7.521</ele>
        <time>2018-08-22T07:39:25.993Z</time>
      </trkpt>
      <trkpt lat="48.4512990" lon="-2.0373431">
        <ele>7.867</ele>
        <time>2018-08-22T07:39:31.993Z</time>
      </trkpt>
      <trkpt lat="48.4512990" lon="-2.0373431">
        <ele>8.044</ele>
        <time>2018-08-22T07:39:35.015Z</time>
      </trkpt>
      <trkpt lat="48.4512014" lon="-2.0377195">
        <ele>8.024</ele>
        <time>2018-08-22T07:40:01.694Z</time>
      </trkpt>
      <trkpt lat="48.4511296" lon="-2.0378271">
        <ele>8.199</ele>
        <time>2018-08-22T07:40:06.964Z</time>
      </trkpt>
      <trkpt lat="48.4510908" lon="-2.0379756">
        <ele>8.836</ele>
        <time>2018-08-22T07:40:12.185Z</time>
      </trkpt>
      <trkpt lat="48.4510512" lon="-2.0381453">
        <ele>9.537</ele>
        <time>2018-08-22T07:40:16.768Z</time>
      </trkpt>
      <trkpt lat="48.4509821" lon="-2.0382970">
        <ele>9.882</ele>
        <time>2018-08-22T07:40:20.500Z</time>
      </trkpt>
      <trkpt lat="48.4509107" lon="-2.0384384">
        <ele>9.931</ele>
        <time>2018-08-22T07:40:23.991Z</time>
      </trkpt>
      <trkpt lat="48.4508445" lon="-2.0385800">
        <ele>9.825</ele>
        <time>2018-08-22T07:40:27.380Z</time>
      </trkpt>
      <trkpt lat="48.4507902" lon="-2.0387180">
        <ele>9.651</ele>
        <time>2018-08-22T07:40:30.396Z</time>
      </trkpt>
      <trkpt lat="48.4507405" lon="-2.0388683">
        <ele>9.485</ele>
        <time>2018-08-22T07:40:33.416Z</time>
      </trkpt>
      <trkpt lat="48.4506875" lon="-2.0390365">
        <ele>9.397</ele>
        <time>2018-08-22T07:40:36.686Z</time>
      </trkpt>
      <trkpt lat="48.4506301" lon="-2.0392214">
        <ele>9.388</ele>
        <time>2018-08-22T07:40:40.275Z</time>
      </trkpt>
      <trkpt lat="48.4505604" lon="-2.0393944">
        <ele>9.392</ele>
        <time>2018-08-22T07:40:43.849Z</time>
      </trkpt>
      <trkpt lat="48.4505067" lon="-2.0395529">
        <ele>9.319</ele>
        <time>2018-08-22T07:40:46.984Z</time>
      </trkpt>
      <trkpt lat="48.4504429" lon="-2.0396927">
        <ele>9.162</ele>
        <time>2018-08-22T07:40:50.090Z</time>
      </trkpt>
      <trkpt lat="48.4503775" lon="-2.0398319">
        <ele>8.969</ele>
        <time>2018-08-22T07:40:53.372Z</time>
      </trkpt>
      <trkpt lat="48.4503143" lon="-2.0399737">
        <ele>8.781</ele>
        <time>2018-08-22T07:40:56.632Z</time>
      </trkpt>
      <trkpt lat="48.4502313" lon="-2.0400821">
        <ele>8.643</ele>
        <time>2018-08-22T07:40:59.653Z</time>
      </trkpt>
      <trkpt lat="48.4501355" lon="-2.0401629">
        <ele>8.474</ele>
        <time>2018-08-22T07:41:02.595Z</time>
      </trkpt>
      <trkpt lat="48.4500478" lon="-2.0402454">
        <ele>8.179</ele>
        <time>2018-08-22T07:41:05.375Z</time>
      </trkpt>
      <trkpt lat="48.4499498" lon="-2.0403333">
        <ele>7.921</ele>
        <time>2018-08-22T07:41:08.478Z</time>
      </trkpt>
      <trkpt lat="48.4498484" lon="-2.0404069">
        <ele>7.906</ele>
        <time>2018-08-22T07:41:11.527Z</time>
      </trkpt>
      <trkpt lat="48.4497425" lon="-2.0404335">
        <ele>8.084</ele>
        <time>2018-08-22T07:41:14.422Z</time>
      </trkpt>
      <trkpt lat="48.4496290" lon="-2.0404027">
        <ele>8.275</ele>
        <time>2018-08-22T07:41:17.540Z</time>
      </trkpt>
      <trkpt lat="48.4495308" lon="-2.0403159">
        <ele>8.235</ele>
        <time>2018-08-22T07:41:20.786Z</time>
      </trkpt>
      <trkpt lat="48.4494575" lon="-2.0401940">
        <ele>7.902</ele>
        <time>2018-08-22T07:41:24.064Z</time>
      </trkpt>
      <trkpt lat="48.4494040" lon="-2.0400571">
        <ele>7.566</ele>
        <time>2018-08-22T07:41:27.141Z</time>
      </trkpt>
      <trkpt lat="48.4493762" lon="-2.0399252">
        <ele>7.523</ele>
        <time>2018-08-22T07:41:29.688Z</time>
      </trkpt>
      <trkpt lat="48.4493478" lon="-2.0397946">
        <ele>7.738</ele>
        <time>2018-08-22T07:41:32.154Z</time>
      </trkpt>
      <trkpt lat="48.4493020" lon="-2.0396615">
        <ele>8.030</ele>
        <time>2018-08-22T07:41:34.902Z</time>
      </trkpt>
      <trkpt lat="48.4492407" lon="-2.0395242">
        <ele>8.252</ele>
        <time>2018-08-22T07:41:38.074Z</time>
      </trkpt>
      <trkpt lat="48.4491897" lon="-2.0393917">
        <ele>8.307</ele>
        <time>2018-08-22T07:41:41.014Z</time>
      </trkpt>
      <trkpt lat="48.4491485" lon="-2.0392587">
        <ele>8.116</ele>
        <time>2018-08-22T07:41:43.751Z</time>
      </trkpt>
      <trkpt lat="48.4491045" lon="-2.0391220">
        <ele>7.761</ele>
        <time>2018-08-22T07:41:46.600Z</time>
      </trkpt>
      <trkpt lat="48.4490651" lon="-2.0389638">
        <ele>7.555</ele>
        <time>2018-08-22T07:41:49.844Z</time>
      </trkpt>
      <trkpt lat="48.4490233" lon="-2.0388044">
        <ele>7.900</ele>
        <time>2018-08-22T07:41:53.080Z</time>
      </trkpt>
      <trkpt lat="48.4489834" lon="-2.0386554">
        <ele>8.747</ele>
        <time>2018-08-22T07:41:55.927Z</time>
      </trkpt>
      <trkpt lat="48.4489284" lon="-2.0385320">
        <ele>9.476</ele>
        <time>2018-08-22T07:41:58.435Z</time>
      </trkpt>
      <trkpt lat="48.4488843" lon="-2.0383859">
        <ele>9.688</ele>
        <time>2018-08-22T07:42:01.167Z</time>
      </trkpt>
      <trkpt lat="48.4488327" lon="-2.0382262">
        <ele>9.431</ele>
        <time>2018-08-22T07:42:04.200Z</time>
      </trkpt>
      <trkpt lat="48.4487663" lon="-2.0380823">
        <ele>8.897</ele>
        <time>2018-08-22T07:42:07.168Z</time>
      </trkpt>
      <trkpt lat="48.4486660" lon="-2.0379980">
        <ele>8.427</ele>
        <time>2018-08-22T07:42:10.123Z</time>
      </trkpt>
      <trkpt lat="48.4485428" lon="-2.0379414">
        <ele>8.237</ele>
        <time>2018-08-22T07:42:13.439Z</time>
      </trkpt>
      <trkpt lat="48.4484288" lon="-2.0378973">
        <ele>8.118</ele>
        <time>2018-08-22T07:42:16.483Z</time>
      </trkpt>
      <trkpt lat="48.4483235" lon="-2.0378354">
        <ele>7.726</ele>
        <time>2018-08-22T07:42:19.441Z</time>
      </trkpt>
      <trkpt lat="48.4482220" lon="-2.0377928">
        <ele>7.084</ele>
        <time>2018-08-22T07:42:22.173Z</time>
      </trkpt>
      <trkpt lat="48.4481143" lon="-2.0377785">
        <ele>6.689</ele>
        <time>2018-08-22T07:42:24.995Z</time>
      </trkpt>
      <trkpt lat="48.4480035" lon="-2.0377940">
        <ele>6.795</ele>
        <time>2018-08-22T07:42:28.037Z</time>
      </trkpt>
      <trkpt lat="48.4478914" lon="-2.0378132">
        <ele>7.107</ele>
        <time>2018-08-22T07:42:31.202Z</time>
      </trkpt>
      <trkpt lat="48.4477917" lon="-2.0378599">
        <ele>7.305</ele>
        <time>2018-08-22T07:42:34.070Z</time>
      </trkpt>
      <trkpt lat="48.4476971" lon="-2.0379055">
        <ele>7.363</ele>
        <time>2018-08-22T07:42:36.710Z</time>
      </trkpt>
      <trkpt lat="48.4475957" lon="-2.0379706">
        <ele>7.416</ele>
        <time>2018-08-22T07:42:39.549Z</time>
      </trkpt>
      <trkpt lat="48.4474999" lon="-2.0380318">
        <ele>7.550</ele>
        <time>2018-08-22T07:42:42.205Z</time>
      </trkpt>
      <trkpt lat="48.4474002" lon="-2.0381129">
        <ele>7.677</ele>
        <time>2018-08-22T07:42:45.128Z</time>
      </trkpt>
      <trkpt lat="48.4472999" lon="-2.0381834">
        <ele>7.587</ele>
        <time>2018-08-22T07:42:48.003Z</time>
      </trkpt>
      <trkpt lat="48.4472046" lon="-2.0382600">
        <ele>7.225</ele>
        <time>2018-08-22T07:42:50.807Z</time>
      </trkpt>
      <trkpt lat="48.4471135" lon="-2.0383339">
        <ele>6.818</ele>
        <time>2018-08-22T07:42:53.488Z</time>
      </trkpt>
      <trkpt lat="48.4470118" lon="-2.0384214">
        <ele>6.590</ele>
        <time>2018-08-22T07:42:56.504Z</time>
      </trkpt>
      <trkpt lat="48.4469151" lon="-2.0385094">
        <ele>6.551</ele>
        <time>2018-08-22T07:42:59.397Z</time>
      </trkpt>
      <trkpt lat="48.4468127" lon="-2.0385969">
        <ele>6.664</ele>
        <time>2018-08-22T07:43:02.402Z</time>
      </trkpt>
      <trkpt lat="48.4467162" lon="-2.0386928">
        <ele>6.904</ele>
        <time>2018-08-22T07:43:05.344Z</time>
      </trkpt>
      <trkpt lat="48.4466186" lon="-2.0387793">
        <ele>7.213</ele>
        <time>2018-08-22T07:43:08.246Z</time>
      </trkpt>
      <trkpt lat="48.4465138" lon="-2.0388611">
        <ele>7.450</ele>
        <time>2018-08-22T07:43:11.296Z</time>
      </trkpt>
      <trkpt lat="48.4464137" lon="-2.0389398">
        <ele>7.507</ele>
        <time>2018-08-22T07:43:14.161Z</time>
      </trkpt>
      <trkpt lat="48.4463140" lon="-2.0390331">
        <ele>7.435</ele>
        <time>2018-08-22T07:43:17.077Z</time>
      </trkpt>
      <trkpt lat="48.4462105" lon="-2.0391124">
        <ele>7.365</ele>
        <time>2018-08-22T07:43:19.952Z</time>
      </trkpt>
      <trkpt lat="48.4461027" lon="-2.0391866">
        <ele>7.358</ele>
        <time>2018-08-22T07:43:22.890Z</time>
      </trkpt>
      <trkpt lat="48.4459899" lon="-2.0392395">
        <ele>7.394</ele>
        <time>2018-08-22T07:43:25.843Z</time>
      </trkpt>
      <trkpt lat="48.4458762" lon="-2.0392903">
        <ele>7.436</ele>
        <time>2018-08-22T07:43:28.809Z</time>
      </trkpt>
      <trkpt lat="48.4457610" lon="-2.0393186">
        <ele>7.571</ele>
        <time>2018-08-22T07:43:31.779Z</time>
      </trkpt>
      <trkpt lat="48.4456504" lon="-2.0393590">
        <ele>7.879</ele>
        <time>2018-08-22T07:43:34.642Z</time>
      </trkpt>
      <trkpt lat="48.4455459" lon="-2.0394012">
        <ele>8.197</ele>
        <time>2018-08-22T07:43:37.246Z</time>
      </trkpt>
      <trkpt lat="48.4454335" lon="-2.0394517">
        <ele>8.292</ele>
        <time>2018-08-22T07:43:40.073Z</time>
      </trkpt>
      <trkpt lat="48.4453185" lon="-2.0395027">
        <ele>8.177</ele>
        <time>2018-08-22T07:43:43.035Z</time>
      </trkpt>
      <trkpt lat="48.4452080" lon="-2.0395366">
        <ele>7.975</ele>
        <time>2018-08-22T07:43:45.910Z</time>
      </trkpt>
      <trkpt lat="48.4450951" lon="-2.0395366">
        <ele>7.680</ele>
        <time>2018-08-22T07:43:48.970Z</time>
      </trkpt>
      <trkpt lat="48.4449888" lon="-2.0395113">
        <ele>7.294</ele>
        <time>2018-08-22T07:43:52.964Z</time>
      </trkpt>
      <trkpt lat="48.4448961" lon="-2.0394821">
        <ele>6.912</ele>
        <time>2018-08-22T07:43:57.172Z</time>
      </trkpt>
      <trkpt lat="48.4448193" lon="-2.0394030">
        <ele>6.529</ele>
        <time>2018-08-22T07:44:00.795Z</time>
      </trkpt>
      <trkpt lat="48.4447164" lon="-2.0393983">
        <ele>6.083</ele>
        <time>2018-08-22T07:44:04.005Z</time>
      </trkpt>
      <trkpt lat="48.4446281" lon="-2.0393513">
        <ele>5.653</ele>
        <time>2018-08-22T07:44:06.754Z</time>
      </trkpt>
      <trkpt lat="48.4445359" lon="-2.0392948">
        <ele>5.142</ele>
        <time>2018-08-22T07:44:09.557Z</time>
      </trkpt>
      <trkpt lat="48.4444496" lon="-2.0392275">
        <ele>4.248</ele>
        <time>2018-08-22T07:44:12.180Z</time>
      </trkpt>
      <trkpt lat="48.4443490" lon="-2.0391645">
        <ele>3.119</ele>
        <time>2018-08-22T07:44:15.032Z</time>
      </trkpt>
      <trkpt lat="48.4442505" lon="-2.0391045">
        <ele>2.315</ele>
        <time>2018-08-22T07:44:17.829Z</time>
      </trkpt>
      <trkpt lat="48.4441552" lon="-2.0390290">
        <ele>2.045</ele>
        <time>2018-08-22T07:44:20.786Z</time>
      </trkpt>
      <trkpt lat="48.4440788" lon="-2.0389254">
        <ele>2.095</ele>
        <time>2018-08-22T07:44:23.650Z</time>
      </trkpt>
      <trkpt lat="48.4440077" lon="-2.0388002">
        <ele>2.257</ele>
        <time>2018-08-22T07:44:26.560Z</time>
      </trkpt>
      <trkpt lat="48.4439298" lon="-2.0386655">
        <ele>2.559</ele>
        <time>2018-08-22T07:44:29.536Z</time>
      </trkpt>
      <trkpt lat="48.4438447" lon="-2.0385250">
        <ele>3.078</ele>
        <time>2018-08-22T07:44:32.717Z</time>
      </trkpt>
      <trkpt lat="48.4437699" lon="-2.0383890">
        <ele>3.622</ele>
        <time>2018-08-22T07:44:35.775Z</time>
      </trkpt>
      <trkpt lat="48.4437013" lon="-2.0382890">
        <ele>3.941</ele>
        <time>2018-08-22T07:44:38.192Z</time>
      </trkpt>
      <trkpt lat="48.4436281" lon="-2.0381730">
        <ele>4.208</ele>
        <time>2018-08-22T07:44:40.751Z</time>
      </trkpt>
      <trkpt lat="48.4435458" lon="-2.0380463">
        <ele>4.797</ele>
        <time>2018-08-22T07:44:43.665Z</time>
      </trkpt>
      <trkpt lat="48.4434752" lon="-2.0379214">
        <ele>5.638</ele>
        <time>2018-08-22T07:44:46.530Z</time>
      </trkpt>
      <trkpt lat="48.4434187" lon="-2.0377924">
        <ele>6.301</ele>
        <time>2018-08-22T07:44:49.370Z</time>
      </trkpt>
      <trkpt lat="48.4433484" lon="-2.0376907">
        <ele>6.508</ele>
        <time>2018-08-22T07:44:52.100Z</time>
      </trkpt>
      <trkpt lat="48.4432857" lon="-2.0375777">
        <ele>6.287</ele>
        <time>2018-08-22T07:44:54.813Z</time>
      </trkpt>
      <trkpt lat="48.4432354" lon="-2.0374358">
        <ele>5.859</ele>
        <time>2018-08-22T07:44:57.676Z</time>
      </trkpt>
      <trkpt lat="48.4431838" lon="-2.0372739">
        <ele>5.352</ele>
        <time>2018-08-22T07:45:00.716Z</time>
      </trkpt>
      <trkpt lat="48.4431156" lon="-2.0371049">
        <ele>4.831</ele>
        <time>2018-08-22T07:45:03.951Z</time>
      </trkpt>
      <trkpt lat="48.4430426" lon="-2.0369334">
        <ele>4.595</ele>
        <time>2018-08-22T07:45:07.218Z</time>
      </trkpt>
      <trkpt lat="48.4429637" lon="-2.0367839">
        <ele>4.804</ele>
        <time>2018-08-22T07:45:10.321Z</time>
      </trkpt>
      <trkpt lat="48.4428622" lon="-2.0366882">
        <ele>5.163</ele>
        <time>2018-08-22T07:45:13.313Z</time>
      </trkpt>
      <trkpt lat="48.4427628" lon="-2.0366078">
        <ele>5.379</ele>
        <time>2018-08-22T07:45:16.177Z</time>
      </trkpt>
      <trkpt lat="48.4426567" lon="-2.0365562">
        <ele>5.271</ele>
        <time>2018-08-22T07:45:19.104Z</time>
      </trkpt>
      <trkpt lat="48.4425610" lon="-2.0365006">
        <ele>4.813</ele>
        <time>2018-08-22T07:45:21.847Z</time>
      </trkpt>
      <trkpt lat="48.4424597" lon="-2.0364630">
        <ele>4.380</ele>
        <time>2018-08-22T07:45:24.612Z</time>
      </trkpt>
      <trkpt lat="48.4423369" lon="-2.0365144">
        <ele>4.510</ele>
        <time>2018-08-22T07:45:27.896Z</time>
      </trkpt>
      <trkpt lat="48.4422157" lon="-2.0365922">
        <ele>4.980</ele>
        <time>2018-08-22T07:45:31.186Z</time>
      </trkpt>
      <trkpt lat="48.4421025" lon="-2.0366645">
        <ele>4.999</ele>
        <time>2018-08-22T07:45:34.261Z</time>
      </trkpt>
      <trkpt lat="48.4419941" lon="-2.0367119">
        <ele>4.404</ele>
        <time>2018-08-22T07:45:37.226Z</time>
      </trkpt>
      <trkpt lat="48.4418909" lon="-2.0367249">
        <ele>3.743</ele>
        <time>2018-08-22T07:45:40.049Z</time>
      </trkpt>
      <trkpt lat="48.4417871" lon="-2.0367493">
        <ele>3.114</ele>
        <time>2018-08-22T07:45:42.958Z</time>
      </trkpt>
      <trkpt lat="48.4416889" lon="-2.0367852">
        <ele>2.386</ele>
        <time>2018-08-22T07:45:45.843Z</time>
      </trkpt>
      <trkpt lat="48.4415984" lon="-2.0368186">
        <ele>1.809</ele>
        <time>2018-08-22T07:45:48.910Z</time>
      </trkpt>
      <trkpt lat="48.4415076" lon="-2.0368414">
        <ele>1.639</ele>
        <time>2018-08-22T07:45:52.284Z</time>
      </trkpt>
      <trkpt lat="48.4414178" lon="-2.0368720">
        <ele>1.493</ele>
        <time>2018-08-22T07:45:56.713Z</time>
      </trkpt>
      <trkpt lat="48.4413283" lon="-2.0369000">
        <ele>0.855</ele>
        <time>2018-08-22T07:46:00.995Z</time>
      </trkpt>
      <trkpt lat="48.4413283" lon="-2.0369000">
        <ele>0.000</ele>
        <time>2018-08-22T07:46:11.995Z</time>
      </trkpt>
      <trkpt lat="48.4413283" lon="-2.0369000">
        <ele>0.000</ele>
        <time>2018-08-22T07:47:29.203Z</time>
      </trkpt>
      <trkpt lat="48.4411604" lon="-2.0369507">
        <ele>0.000</ele>
        <time>2018-08-22T07:47:46.913Z</time>
      </trkpt>
      <trkpt lat="48.4412128" lon="-2.0370937">
        <ele>0.206</ele>
        <time>2018-08-22T07:47:52.050Z</time>
      </trkpt>
      <trkpt lat="48.4412986" lon="-2.0371709">
        <ele>0.939</ele>
        <time>2018-08-22T07:47:55.995Z</time>
      </trkpt>
      <trkpt lat="48.4413817" lon="-2.0372455">
        <ele>1.341</ele>
        <time>2018-08-22T07:47:59.326Z</time>
      </trkpt>
      <trkpt lat="48.4414568" lon="-2.0373404">
        <ele>1.449</ele>
        <time>2018-08-22T07:48:02.124Z</time>
      </trkpt>
      <trkpt lat="48.4415327" lon="-2.0374589">
        <ele>1.487</ele>
        <time>2018-08-22T07:48:05.082Z</time>
      </trkpt>
      <trkpt lat="48.4414863" lon="-2.0376212">
        <ele>1.824</ele>
        <time>2018-08-22T07:48:08.282Z</time>
      </trkpt>
      <trkpt lat="48.4413580" lon="-2.0377302">
        <ele>2.671</ele>
        <time>2018-08-22T07:48:12.300Z</time>
      </trkpt>
      <trkpt lat="48.4412555" lon="-2.0378127">
        <ele>3.999</ele>
        <time>2018-08-22T07:48:15.822Z</time>
      </trkpt>
      <trkpt lat="48.4411543" lon="-2.0378907">
        <ele>5.493</ele>
        <time>2018-08-22T07:48:20.284Z</time>
      </trkpt>
      <trkpt lat="48.4410590" lon="-2.0378919">
        <ele>6.429</ele>
        <time>2018-08-22T07:48:24.389Z</time>
      </trkpt>
      <trkpt lat="48.4409639" lon="-2.0378888">
        <ele>6.265</ele>
        <time>2018-08-22T07:48:28.412Z</time>
      </trkpt>
      <trkpt lat="48.4408917" lon="-2.0380111">
        <ele>5.410</ele>
        <time>2018-08-22T07:48:32.860Z</time>
      </trkpt>
      <trkpt lat="48.4408218" lon="-2.0381192">
        <ele>4.855</ele>
        <time>2018-08-22T07:48:36.763Z</time>
      </trkpt>
      <trkpt lat="48.4407652" lon="-2.0382431">
        <ele>5.091</ele>
        <time>2018-08-22T07:48:40.419Z</time>
      </trkpt>
      <trkpt lat="48.4407195" lon="-2.0383773">
        <ele>5.755</ele>
        <time>2018-08-22T07:48:43.992Z</time>
      </trkpt>
      <trkpt lat="48.4407195" lon="-2.0383773">
        <ele>6.361</ele>
        <time>2018-08-22T07:48:48.991Z</time>
      </trkpt>
      <trkpt lat="48.4407195" lon="-2.0383773">
        <ele>6.667</ele>
        <time>2018-08-22T07:50:20.214Z</time>
      </trkpt>
      <trkpt lat="48.4405769" lon="-2.0387576">
        <ele>6.552</ele>
        <time>2018-08-22T07:50:41.779Z</time>
      </trkpt>
      <trkpt lat="48.4405211" lon="-2.0388685">
        <ele>5.798</ele>
        <time>2018-08-22T07:50:44.606Z</time>
      </trkpt>
      <trkpt lat="48.4404449" lon="-2.0389823">
        <ele>4.443</ele>
        <time>2018-08-22T07:50:47.594Z</time>
      </trkpt>
      <trkpt lat="48.4403574" lon="-2.0390962">
        <ele>3.192</ele>
        <time>2018-08-22T07:50:50.681Z</time>
      </trkpt>
      <trkpt lat="48.4402608" lon="-2.0391856">
        <ele>2.672</ele>
        <time>2018-08-22T07:50:53.645Z</time>
      </trkpt>
      <trkpt lat="48.4401553" lon="-2.0392403">
        <ele>2.807</ele>
        <time>2018-08-22T07:50:56.504Z</time>
      </trkpt>
      <trkpt lat="48.4400469" lon="-2.0392931">
        <ele>3.274</ele>
        <time>2018-08-22T07:50:59.432Z</time>
      </trkpt>
      <trkpt lat="48.4399369" lon="-2.0393408">
        <ele>3.769</ele>
        <time>2018-08-22T07:51:02.397Z</time>
      </trkpt>
      <trkpt lat="48.4398299" lon="-2.0393818">
        <ele>4.093</ele>
        <time>2018-08-22T07:51:05.262Z</time>
      </trkpt>
      <trkpt lat="48.4397217" lon="-2.0394340">
        <ele>4.198</ele>
        <time>2018-08-22T07:51:08.221Z</time>
      </trkpt>
      <trkpt lat="48.4396135" lon="-2.0394806">
        <ele>4.182</ele>
        <time>2018-08-22T07:51:11.158Z</time>
      </trkpt>
      <trkpt lat="48.4395066" lon="-2.0395278">
        <ele>4.149</ele>
        <time>2018-08-22T07:51:14.063Z</time>
      </trkpt>
      <trkpt lat="48.4394006" lon="-2.0395807">
        <ele>4.196</ele>
        <time>2018-08-22T07:51:16.980Z</time>
      </trkpt>
      <trkpt lat="48.4392919" lon="-2.0396247">
        <ele>4.337</ele>
        <time>2018-08-22T07:51:19.909Z</time>
      </trkpt>
      <trkpt lat="48.4391858" lon="-2.0396855">
        <ele>4.479</ele>
        <time>2018-08-22T07:51:22.819Z</time>
      </trkpt>
      <trkpt lat="48.4390739" lon="-2.0397342">
        <ele>4.572</ele>
        <time>2018-08-22T07:51:25.771Z</time>
      </trkpt>
      <trkpt lat="48.4389602" lon="-2.0397879">
        <ele>4.641</ele>
        <time>2018-08-22T07:51:28.790Z</time>
      </trkpt>
      <trkpt lat="48.4388466" lon="-2.0398237">
        <ele>4.748</ele>
        <time>2018-08-22T07:51:31.733Z</time>
      </trkpt>
      <trkpt lat="48.4387345" lon="-2.0398726">
        <ele>4.941</ele>
        <time>2018-08-22T07:51:34.674Z</time>
      </trkpt>
      <trkpt lat="48.4386239" lon="-2.0399343">
        <ele>5.156</ele>
        <time>2018-08-22T07:51:37.617Z</time>
      </trkpt>
      <trkpt lat="48.4385113" lon="-2.0399904">
        <ele>5.291</ele>
        <time>2018-08-22T07:51:40.533Z</time>
      </trkpt>
      <trkpt lat="48.4383966" lon="-2.0400581">
        <ele>5.277</ele>
        <time>2018-08-22T07:51:43.525Z</time>
      </trkpt>
      <trkpt lat="48.4382815" lon="-2.0401264">
        <ele>5.120</ele>
        <time>2018-08-22T07:51:46.515Z</time>
      </trkpt>
      <trkpt lat="48.4381639" lon="-2.0401722">
        <ele>5.010</ele>
        <time>2018-08-22T07:51:49.465Z</time>
      </trkpt>
      <trkpt lat="48.4380488" lon="-2.0402271">
        <ele>5.091</ele>
        <time>2018-08-22T07:51:52.399Z</time>
      </trkpt>
      <trkpt lat="48.4379342" lon="-2.0402786">
        <ele>5.247</ele>
        <time>2018-08-22T07:51:55.287Z</time>
      </trkpt>
      <trkpt lat="48.4378136" lon="-2.0403183">
        <ele>5.383</ele>
        <time>2018-08-22T07:51:58.267Z</time>
      </trkpt>
      <trkpt lat="48.4376897" lon="-2.0403471">
        <ele>5.519</ele>
        <time>2018-08-22T07:52:01.308Z</time>
      </trkpt>
      <trkpt lat="48.4375663" lon="-2.0403609">
        <ele>5.583</ele>
        <time>2018-08-22T07:52:04.327Z</time>
      </trkpt>
      <trkpt lat="48.4374440" lon="-2.0403515">
        <ele>5.508</ele>
        <time>2018-08-22T07:52:07.358Z</time>
      </trkpt>
      <trkpt lat="48.4373282" lon="-2.0403229">
        <ele>5.386</ele>
        <time>2018-08-22T07:52:10.316Z</time>
      </trkpt>
      <trkpt lat="48.4372141" lon="-2.0402784">
        <ele>5.314</ele>
        <time>2018-08-22T07:52:13.400Z</time>
      </trkpt>
      <trkpt lat="48.4371067" lon="-2.0402282">
        <ele>5.301</ele>
        <time>2018-08-22T07:52:16.483Z</time>
      </trkpt>
      <trkpt lat="48.4370106" lon="-2.0401730">
        <ele>5.318</ele>
        <time>2018-08-22T07:52:19.326Z</time>
      </trkpt>
      <trkpt lat="48.4369129" lon="-2.0401056">
        <ele>5.334</ele>
        <time>2018-08-22T07:52:22.235Z</time>
      </trkpt>
      <trkpt lat="48.4368232" lon="-2.0400246">
        <ele>5.334</ele>
        <time>2018-08-22T07:52:24.983Z</time>
      </trkpt>
      <trkpt lat="48.4367250" lon="-2.0399348">
        <ele>5.373</ele>
        <time>2018-08-22T07:52:27.965Z</time>
      </trkpt>
      <trkpt lat="48.4366338" lon="-2.0398219">
        <ele>5.512</ele>
        <time>2018-08-22T07:52:31.197Z</time>
      </trkpt>
      <trkpt lat="48.4365552" lon="-2.0397282">
        <ele>5.793</ele>
        <time>2018-08-22T07:52:34.098Z</time>
      </trkpt>
      <trkpt lat="48.4364565" lon="-2.0396066">
        <ele>6.166</ele>
        <time>2018-08-22T07:52:37.822Z</time>
      </trkpt>
      <trkpt lat="48.4363613" lon="-2.0395095">
        <ele>6.507</ele>
        <time>2018-08-22T07:52:40.995Z</time>
      </trkpt>
      <trkpt lat="48.4362658" lon="-2.0394256">
        <ele>6.743</ele>
        <time>2018-08-22T07:52:43.894Z</time>
      </trkpt>
      <trkpt lat="48.4361660" lon="-2.0393300">
        <ele>6.842</ele>
        <time>2018-08-22T07:52:46.920Z</time>
      </trkpt>
      <trkpt lat="48.4360654" lon="-2.0392226">
        <ele>6.796</ele>
        <time>2018-08-22T07:52:50.075Z</time>
      </trkpt>
      <trkpt lat="48.4359702" lon="-2.0391145">
        <ele>6.774</ele>
        <time>2018-08-22T07:52:53.088Z</time>
      </trkpt>
      <trkpt lat="48.4358712" lon="-2.0390187">
        <ele>6.972</ele>
        <time>2018-08-22T07:52:56.085Z</time>
      </trkpt>
      <trkpt lat="48.4357649" lon="-2.0389274">
        <ele>7.360</ele>
        <time>2018-08-22T07:52:59.374Z</time>
      </trkpt>
      <trkpt lat="48.4356775" lon="-2.0388233">
        <ele>7.775</ele>
        <time>2018-08-22T07:53:02.601Z</time>
      </trkpt>
      <trkpt lat="48.4356359" lon="-2.0386861">
        <ele>8.173</ele>
        <time>2018-08-22T07:53:05.713Z</time>
      </trkpt>
      <trkpt lat="48.4356264" lon="-2.0385351">
        <ele>8.529</ele>
        <time>2018-08-22T07:53:08.948Z</time>
      </trkpt>
      <trkpt lat="48.4355735" lon="-2.0383884">
        <ele>8.665</ele>
        <time>2018-08-22T07:53:12.427Z</time>
      </trkpt>
      <trkpt lat="48.4355084" lon="-2.0382856">
        <ele>8.508</ele>
        <time>2018-08-22T07:53:15.197Z</time>
      </trkpt>
      <trkpt lat="48.4354497" lon="-2.0381607">
        <ele>8.245</ele>
        <time>2018-08-22T07:53:18.040Z</time>
      </trkpt>
      <trkpt lat="48.4353839" lon="-2.0380266">
        <ele>8.059</ele>
        <time>2018-08-22T07:53:21.008Z</time>
      </trkpt>
      <trkpt lat="48.4353278" lon="-2.0378718">
        <ele>7.978</ele>
        <time>2018-08-22T07:53:24.063Z</time>
      </trkpt>
      <trkpt lat="48.4352691" lon="-2.0377220">
        <ele>7.900</ele>
        <time>2018-08-22T07:53:27.045Z</time>
      </trkpt>
      <trkpt lat="48.4351939" lon="-2.0375953">
        <ele>7.643</ele>
        <time>2018-08-22T07:53:29.881Z</time>
      </trkpt>
      <trkpt lat="48.4350974" lon="-2.0374848">
        <ele>7.130</ele>
        <time>2018-08-22T07:53:32.818Z</time>
      </trkpt>
      <trkpt lat="48.4350125" lon="-2.0373667">
        <ele>6.328</ele>
        <time>2018-08-22T07:53:35.540Z</time>
      </trkpt>
      <trkpt lat="48.4349344" lon="-2.0372147">
        <ele>5.318</ele>
        <time>2018-08-22T07:53:38.444Z</time>
      </trkpt>
      <trkpt lat="48.4348643" lon="-2.0370483">
        <ele>4.458</ele>
        <time>2018-08-22T07:53:41.417Z</time>
      </trkpt>
      <trkpt lat="48.4347983" lon="-2.0368913">
        <ele>4.034</ele>
        <time>2018-08-22T07:53:44.253Z</time>
      </trkpt>
      <trkpt lat="48.4347133" lon="-2.0367533">
        <ele>3.948</ele>
        <time>2018-08-22T07:53:47.123Z</time>
      </trkpt>
      <trkpt lat="48.4346376" lon="-2.0366119">
        <ele>3.981</ele>
        <time>2018-08-22T07:53:49.829Z</time>
      </trkpt>
      <trkpt lat="48.4345545" lon="-2.0364304">
        <ele>4.075</ele>
        <time>2018-08-22T07:53:53.137Z</time>
      </trkpt>
      <trkpt lat="48.4344412" lon="-2.0363280">
        <ele>4.238</ele>
        <time>2018-08-22T07:53:56.506Z</time>
      </trkpt>
      <trkpt lat="48.4343275" lon="-2.0362215">
        <ele>4.373</ele>
        <time>2018-08-22T07:54:00.009Z</time>
      </trkpt>
      <trkpt lat="48.4342140" lon="-2.0361467">
        <ele>4.363</ele>
        <time>2018-08-22T07:54:02.915Z</time>
      </trkpt>
      <trkpt lat="48.4340968" lon="-2.0360381">
        <ele>4.273</ele>
        <time>2018-08-22T07:54:05.873Z</time>
      </trkpt>
      <trkpt lat="48.4339748" lon="-2.0359348">
        <ele>4.315</ele>
        <time>2018-08-22T07:54:08.720Z</time>
      </trkpt>
      <trkpt lat="48.4338320" lon="-2.0357942">
        <ele>4.616</ele>
        <time>2018-08-22T07:54:12.242Z</time>
      </trkpt>
      <trkpt lat="48.4337072" lon="-2.0357686">
        <ele>5.069</ele>
        <time>2018-08-22T07:54:14.935Z</time>
      </trkpt>
      <trkpt lat="48.4335699" lon="-2.0357331">
        <ele>5.652</ele>
        <time>2018-08-22T07:54:17.943Z</time>
      </trkpt>
      <trkpt lat="48.4334398" lon="-2.0357035">
        <ele>6.398</ele>
        <time>2018-08-22T07:54:20.849Z</time>
      </trkpt>
      <trkpt lat="48.4333045" lon="-2.0356530">
        <ele>7.096</ele>
        <time>2018-08-22T07:54:23.955Z</time>
      </trkpt>
      <trkpt lat="48.4331821" lon="-2.0356252">
        <ele>7.504</ele>
        <time>2018-08-22T07:54:26.731Z</time>
      </trkpt>
      <trkpt lat="48.4330541" lon="-2.0355824">
        <ele>7.708</ele>
        <time>2018-08-22T07:54:29.673Z</time>
      </trkpt>
      <trkpt lat="48.4329178" lon="-2.0355414">
        <ele>7.876</ele>
        <time>2018-08-22T07:54:32.798Z</time>
      </trkpt>
      <trkpt lat="48.4327959" lon="-2.0354984">
        <ele>8.026</ele>
        <time>2018-08-22T07:54:35.624Z</time>
      </trkpt>
      <trkpt lat="48.4326550" lon="-2.0354250">
        <ele>8.110</ele>
        <time>2018-08-22T07:54:39.013Z</time>
      </trkpt>
      <trkpt lat="48.4325429" lon="-2.0353739">
        <ele>8.100</ele>
        <time>2018-08-22T07:54:41.660Z</time>
      </trkpt>
      <trkpt lat="48.4324162" lon="-2.0352936">
        <ele>7.929</ele>
        <time>2018-08-22T07:54:44.640Z</time>
      </trkpt>
      <trkpt lat="48.4322760" lon="-2.0351955">
        <ele>7.645</ele>
        <time>2018-08-22T07:54:47.806Z</time>
      </trkpt>
      <trkpt lat="48.4321426" lon="-2.0350778">
        <ele>7.415</ele>
        <time>2018-08-22T07:54:50.900Z</time>
      </trkpt>
      <trkpt lat="48.4319964" lon="-2.0350044">
        <ele>7.372</ele>
        <time>2018-08-22T07:54:54.058Z</time>
      </trkpt>
      <trkpt lat="48.4318669" lon="-2.0350419">
        <ele>7.493</ele>
        <time>2018-08-22T07:54:56.821Z</time>
      </trkpt>
      <trkpt lat="48.4317377" lon="-2.0350358">
        <ele>7.561</ele>
        <time>2018-08-22T07:54:59.540Z</time>
      </trkpt>
      <trkpt lat="48.4315977" lon="-2.0350450">
        <ele>7.409</ele>
        <time>2018-08-22T07:55:02.550Z</time>
      </trkpt>
      <trkpt lat="48.4314709" lon="-2.0350666">
        <ele>7.091</ele>
        <time>2018-08-22T07:55:05.383Z</time>
      </trkpt>
      <trkpt lat="48.4313528" lon="-2.0351240">
        <ele>6.744</ele>
        <time>2018-08-22T07:55:08.170Z</time>
      </trkpt>
      <trkpt lat="48.4312262" lon="-2.0351607">
        <ele>6.594</ele>
        <time>2018-08-22T07:55:11.110Z</time>
      </trkpt>
      <trkpt lat="48.4310972" lon="-2.0351677">
        <ele>6.755</ele>
        <time>2018-08-22T07:55:14.091Z</time>
      </trkpt>
      <trkpt lat="48.4309675" lon="-2.0351748">
        <ele>7.051</ele>
        <time>2018-08-22T07:55:17.221Z</time>
      </trkpt>
      <trkpt lat="48.4308528" lon="-2.0352024">
        <ele>7.345</ele>
        <time>2018-08-22T07:55:20.077Z</time>
      </trkpt>
      <trkpt lat="48.4307283" lon="-2.0352255">
        <ele>7.632</ele>
        <time>2018-08-22T07:55:22.942Z</time>
      </trkpt>
      <trkpt lat="48.4305729" lon="-2.0351716">
        <ele>7.856</ele>
        <time>2018-08-22T07:55:26.479Z</time>
      </trkpt>
      <trkpt lat="48.4304381" lon="-2.0351623">
        <ele>7.991</ele>
        <time>2018-08-22T07:55:29.485Z</time>
      </trkpt>
      <trkpt lat="48.4303170" lon="-2.0350827">
        <ele>8.019</ele>
        <time>2018-08-22T07:55:32.426Z</time>
      </trkpt>
      <trkpt lat="48.4301965" lon="-2.0349960">
        <ele>7.954</ele>
        <time>2018-08-22T07:55:35.392Z</time>
      </trkpt>
      <trkpt lat="48.4300845" lon="-2.0349476">
        <ele>7.886</ele>
        <time>2018-08-22T07:55:37.986Z</time>
      </trkpt>
      <trkpt lat="48.4299625" lon="-2.0348497">
        <ele>7.873</ele>
        <time>2018-08-22T07:55:41.275Z</time>
      </trkpt>
      <trkpt lat="48.4298792" lon="-2.0347608">
        <ele>7.985</ele>
        <time>2018-08-22T07:55:43.783Z</time>
      </trkpt>
      <trkpt lat="48.4297644" lon="-2.0347277">
        <ele>8.255</ele>
        <time>2018-08-22T07:55:46.526Z</time>
      </trkpt>
      <trkpt lat="48.4296349" lon="-2.0346332">
        <ele>8.542</ele>
        <time>2018-08-22T07:55:49.724Z</time>
      </trkpt>
      <trkpt lat="48.4295049" lon="-2.0344963">
        <ele>8.698</ele>
        <time>2018-08-22T07:55:53.097Z</time>
      </trkpt>
      <trkpt lat="48.4293814" lon="-2.0344373">
        <ele>8.710</ele>
        <time>2018-08-22T07:55:55.887Z</time>
      </trkpt>
      <trkpt lat="48.4292639" lon="-2.0343815">
        <ele>8.575</ele>
        <time>2018-08-22T07:55:58.669Z</time>
      </trkpt>
      <trkpt lat="48.4291363" lon="-2.0343106">
        <ele>8.330</ele>
        <time>2018-08-22T07:56:01.691Z</time>
      </trkpt>
      <trkpt lat="48.4290227" lon="-2.0341830">
        <ele>8.292</ele>
        <time>2018-08-22T07:56:04.792Z</time>
      </trkpt>
      <trkpt lat="48.4289099" lon="-2.0341278">
        <ele>8.671</ele>
        <time>2018-08-22T07:56:07.491Z</time>
      </trkpt>
      <trkpt lat="48.4288102" lon="-2.0339816">
        <ele>9.228</ele>
        <time>2018-08-22T07:56:10.550Z</time>
      </trkpt>
      <trkpt lat="48.4286832" lon="-2.0338616">
        <ele>9.603</ele>
        <time>2018-08-22T07:56:13.677Z</time>
      </trkpt>
      <trkpt lat="48.4285778" lon="-2.0336997">
        <ele>9.666</ele>
        <time>2018-08-22T07:56:16.924Z</time>
      </trkpt>
      <trkpt lat="48.4284778" lon="-2.0335792">
        <ele>9.548</ele>
        <time>2018-08-22T07:56:19.741Z</time>
      </trkpt>
      <trkpt lat="48.4283714" lon="-2.0334585">
        <ele>9.454</ele>
        <time>2018-08-22T07:56:22.710Z</time>
      </trkpt>
      <trkpt lat="48.4282674" lon="-2.0333598">
        <ele>9.384</ele>
        <time>2018-08-22T07:56:25.416Z</time>
      </trkpt>
      <trkpt lat="48.4281504" lon="-2.0331815">
        <ele>9.089</ele>
        <time>2018-08-22T07:56:28.947Z</time>
      </trkpt>
      <trkpt lat="48.4280517" lon="-2.0330627">
        <ele>8.375</ele>
        <time>2018-08-22T07:56:31.648Z</time>
      </trkpt>
      <trkpt lat="48.4279464" lon="-2.0329062">
        <ele>7.634</ele>
        <time>2018-08-22T07:56:34.758Z</time>
      </trkpt>
      <trkpt lat="48.4278447" lon="-2.0327025">
        <ele>7.353</ele>
        <time>2018-08-22T07:56:38.196Z</time>
      </trkpt>
      <trkpt lat="48.4277667" lon="-2.0325712">
        <ele>7.434</ele>
        <time>2018-08-22T07:56:40.671Z</time>
      </trkpt>
      <trkpt lat="48.4276708" lon="-2.0323975">
        <ele>7.495</ele>
        <time>2018-08-22T07:56:44.033Z</time>
      </trkpt>
      <trkpt lat="48.4275907" lon="-2.0322452">
        <ele>7.377</ele>
        <time>2018-08-22T07:56:46.917Z</time>
      </trkpt>
      <trkpt lat="48.4274957" lon="-2.0320922">
        <ele>7.403</ele>
        <time>2018-08-22T07:56:49.958Z</time>
      </trkpt>
      <trkpt lat="48.4274114" lon="-2.0319131">
        <ele>7.892</ele>
        <time>2018-08-22T07:56:53.062Z</time>
      </trkpt>
      <trkpt lat="48.4273247" lon="-2.0317208">
        <ele>8.592</ele>
        <time>2018-08-22T07:56:56.323Z</time>
      </trkpt>
      <trkpt lat="48.4272429" lon="-2.0315586">
        <ele>9.363</ele>
        <time>2018-08-22T07:56:59.208Z</time>
      </trkpt>
      <trkpt lat="48.4271764" lon="-2.0313869">
        <ele>10.276</ele>
        <time>2018-08-22T07:57:02.001Z</time>
      </trkpt>
      <trkpt lat="48.4271117" lon="-2.0312166">
        <ele>11.013</ele>
        <time>2018-08-22T07:57:04.826Z</time>
      </trkpt>
      <trkpt lat="48.4270432" lon="-2.0310558">
        <ele>11.256</ele>
        <time>2018-08-22T07:57:07.632Z</time>
      </trkpt>
      <trkpt lat="48.4270002" lon="-2.0308601">
        <ele>11.134</ele>
        <time>2018-08-22T07:57:10.607Z</time>
      </trkpt>
      <trkpt lat="48.4269622" lon="-2.0306695">
        <ele>10.917</ele>
        <time>2018-08-22T07:57:13.491Z</time>
      </trkpt>
      <trkpt lat="48.4269350" lon="-2.0305375">
        <ele>10.667</ele>
        <time>2018-08-22T07:57:15.549Z</time>
      </trkpt>
      <trkpt lat="48.4269053" lon="-2.0303498">
        <ele>10.331</ele>
        <time>2018-08-22T07:57:18.487Z</time>
      </trkpt>
      <trkpt lat="48.4268938" lon="-2.0302080">
        <ele>9.971</ele>
        <time>2018-08-22T07:57:20.636Z</time>
      </trkpt>
      <trkpt lat="48.4268772" lon="-2.0300173">
        <ele>9.684</ele>
        <time>2018-08-22T07:57:23.401Z</time>
      </trkpt>
      <trkpt lat="48.4268633" lon="-2.0298172">
        <ele>9.320</ele>
        <time>2018-08-22T07:57:26.224Z</time>
      </trkpt>
      <trkpt lat="48.4268464" lon="-2.0296695">
        <ele>8.695</ele>
        <time>2018-08-22T07:57:28.361Z</time>
      </trkpt>
      <trkpt lat="48.4268326" lon="-2.0295356">
        <ele>7.974</ele>
        <time>2018-08-22T07:57:30.366Z</time>
      </trkpt>
      <trkpt lat="48.4268458" lon="-2.0293610">
        <ele>7.403</ele>
        <time>2018-08-22T07:57:33.122Z</time>
      </trkpt>
      <trkpt lat="48.4268664" lon="-2.0291920">
        <ele>6.956</ele>
        <time>2018-08-22T07:57:35.941Z</time>
      </trkpt>
      <trkpt lat="48.4268940" lon="-2.0290205">
        <ele>6.641</ele>
        <time>2018-08-22T07:57:38.808Z</time>
      </trkpt>
      <trkpt lat="48.4269157" lon="-2.0288356">
        <ele>6.469</ele>
        <time>2018-08-22T07:57:41.727Z</time>
      </trkpt>
      <trkpt lat="48.4269443" lon="-2.0286441">
        <ele>6.308</ele>
        <time>2018-08-22T07:57:44.670Z</time>
      </trkpt>
      <trkpt lat="48.4269767" lon="-2.0284524">
        <ele>6.024</ele>
        <time>2018-08-22T07:57:47.595Z</time>
      </trkpt>
      <trkpt lat="48.4270116" lon="-2.0282601">
        <ele>5.648</ele>
        <time>2018-08-22T07:57:50.537Z</time>
      </trkpt>
      <trkpt lat="48.4270401" lon="-2.0280657">
        <ele>5.376</ele>
        <time>2018-08-22T07:57:53.497Z</time>
      </trkpt>
      <trkpt lat="48.4270717" lon="-2.0278736">
        <ele>5.364</ele>
        <time>2018-08-22T07:57:56.498Z</time>
      </trkpt>
      <trkpt lat="48.4270994" lon="-2.0276918">
        <ele>5.625</ele>
        <time>2018-08-22T07:57:59.463Z</time>
      </trkpt>
      <trkpt lat="48.4271227" lon="-2.0275276">
        <ele>6.024</ele>
        <time>2018-08-22T07:58:02.414Z</time>
      </trkpt>
      <trkpt lat="48.4271390" lon="-2.0273914">
        <ele>6.398</ele>
        <time>2018-08-22T07:58:05.693Z</time>
      </trkpt>
      <trkpt lat="48.4271550" lon="-2.0272544">
        <ele>6.688</ele>
        <time>2018-08-22T07:58:09.998Z</time>
      </trkpt>
      <trkpt lat="48.4271550" lon="-2.0272544">
        <ele>6.835</ele>
        <time>2018-08-22T07:58:14.998Z</time>
      </trkpt>
      <trkpt lat="48.4271550" lon="-2.0272544">
        <ele>6.819</ele>
        <time>2018-08-22T07:58:15.098Z</time>
      </trkpt>
      <trkpt lat="48.4271346" lon="-2.0274100">
        <ele>6.740</ele>
        <time>2018-08-22T07:58:21.248Z</time>
      </trkpt>
      <trkpt lat="48.4271070" lon="-2.0275662">
        <ele>6.706</ele>
        <time>2018-08-22T07:58:24.542Z</time>
      </trkpt>
      <trkpt lat="48.4270750" lon="-2.0277611">
        <ele>6.782</ele>
        <time>2018-08-22T07:58:28.013Z</time>
      </trkpt>
      <trkpt lat="48.4270490" lon="-2.0279441">
        <ele>6.944</ele>
        <time>2018-08-22T07:58:31.106Z</time>
      </trkpt>
      <trkpt lat="48.4270226" lon="-2.0281098">
        <ele>7.086</ele>
        <time>2018-08-22T07:58:33.968Z</time>
      </trkpt>
      <trkpt lat="48.4270054" lon="-2.0282791">
        <ele>7.218</ele>
        <time>2018-08-22T07:58:36.874Z</time>
      </trkpt>
      <trkpt lat="48.4269774" lon="-2.0284529">
        <ele>7.471</ele>
        <time>2018-08-22T07:58:39.886Z</time>
      </trkpt>
      <trkpt lat="48.4269497" lon="-2.0286342">
        <ele>7.815</ele>
        <time>2018-08-22T07:58:42.988Z</time>
      </trkpt>
      <trkpt lat="48.4269181" lon="-2.0288072">
        <ele>8.099</ele>
        <time>2018-08-22T07:58:46.061Z</time>
      </trkpt>
      <trkpt lat="48.4268962" lon="-2.0289598">
        <ele>8.241</ele>
        <time>2018-08-22T07:58:48.931Z</time>
      </trkpt>
      <trkpt lat="48.4268744" lon="-2.0290942">
        <ele>8.290</ele>
        <time>2018-08-22T07:58:51.774Z</time>
      </trkpt>
      <trkpt lat="48.4268560" lon="-2.0292374">
        <ele>8.372</ele>
        <time>2018-08-22T07:58:55.859Z</time>
      </trkpt>
      <trkpt lat="48.4268824" lon="-2.0290700">
        <ele>8.533</ele>
        <time>2018-08-22T07:59:01.558Z</time>
      </trkpt>
      <trkpt lat="48.4269015" lon="-2.0289263">
        <ele>8.735</ele>
        <time>2018-08-22T07:59:06.997Z</time>
      </trkpt>
      <trkpt lat="48.4269015" lon="-2.0289263">
        <ele>8.934</ele>
        <time>2018-08-22T07:59:08.997Z</time>
      </trkpt>
      <trkpt lat="48.4269015" lon="-2.0289263">
        <ele>9.046</ele>
        <time>2018-08-22T07:59:09.097Z</time>
      </trkpt>
      <trkpt lat="48.4269500" lon="-2.0285969">
        <ele>9.034</ele>
        <time>2018-08-22T07:59:16.538Z</time>
      </trkpt>
      <trkpt lat="48.4269775" lon="-2.0284235">
        <ele>9.089</ele>
        <time>2018-08-22T07:59:19.327Z</time>
      </trkpt>
      <trkpt lat="48.4270083" lon="-2.0282458">
        <ele>9.381</ele>
        <time>2018-08-22T07:59:22.180Z</time>
      </trkpt>
      <trkpt lat="48.4270355" lon="-2.0280654">
        <ele>9.784</ele>
        <time>2018-08-22T07:59:25.101Z</time>
      </trkpt>
      <trkpt lat="48.4270659" lon="-2.0278896">
        <ele>10.100</ele>
        <time>2018-08-22T07:59:28.068Z</time>
      </trkpt>
      <trkpt lat="48.4270954" lon="-2.0277199">
        <ele>10.275</ele>
        <time>2018-08-22T07:59:31.051Z</time>
      </trkpt>
      <trkpt lat="48.4271214" lon="-2.0275599">
        <ele>10.338</ele>
        <time>2018-08-22T07:59:34.018Z</time>
      </trkpt>
      <trkpt lat="48.4271407" lon="-2.0274083">
        <ele>10.366</ele>
        <time>2018-08-22T07:59:36.956Z</time>
      </trkpt>
      <trkpt lat="48.4271653" lon="-2.0272696">
        <ele>10.489</ele>
        <time>2018-08-22T07:59:39.651Z</time>
      </trkpt>
      <trkpt lat="48.4272029" lon="-2.0271298">
        <ele>10.734</ele>
        <time>2018-08-22T07:59:42.256Z</time>
      </trkpt>
      <trkpt lat="48.4272413" lon="-2.0269554">
        <ele>10.974</ele>
        <time>2018-08-22T07:59:45.236Z</time>
      </trkpt>
      <trkpt lat="48.4272683" lon="-2.0267835">
        <ele>11.148</ele>
        <time>2018-08-22T07:59:48.198Z</time>
      </trkpt>
      <trkpt lat="48.4272872" lon="-2.0266351">
        <ele>11.297</ele>
        <time>2018-08-22T07:59:50.985Z</time>
      </trkpt>
      <trkpt lat="48.4273118" lon="-2.0265004">
        <ele>11.541</ele>
        <time>2018-08-22T07:59:53.760Z</time>
      </trkpt>
      <trkpt lat="48.4273393" lon="-2.0263248">
        <ele>11.949</ele>
        <time>2018-08-22T07:59:57.467Z</time>
      </trkpt>
      <trkpt lat="48.4273619" lon="-2.0261908">
        <ele>12.240</ele>
        <time>2018-08-22T08:00:00.331Z</time>
      </trkpt>
      <trkpt lat="48.4273800" lon="-2.0260553">
        <ele>12.046</ele>
        <time>2018-08-22T08:00:03.145Z</time>
      </trkpt>
      <trkpt lat="48.4274030" lon="-2.0259131">
        <ele>11.486</ele>
        <time>2018-08-22T08:00:06.056Z</time>
      </trkpt>
      <trkpt lat="48.4274240" lon="-2.0257757">
        <ele>10.951</ele>
        <time>2018-08-22T08:00:08.810Z</time>
      </trkpt>
      <trkpt lat="48.4274486" lon="-2.0256294">
        <ele>10.638</ele>
        <time>2018-08-22T08:00:11.670Z</time>
      </trkpt>
      <trkpt lat="48.4274776" lon="-2.0254742">
        <ele>10.358</ele>
        <time>2018-08-22T08:00:14.610Z</time>
      </trkpt>
      <trkpt lat="48.4274981" lon="-2.0253183">
        <ele>9.829</ele>
        <time>2018-08-22T08:00:17.482Z</time>
      </trkpt>
      <trkpt lat="48.4275258" lon="-2.0251589">
        <ele>9.145</ele>
        <time>2018-08-22T08:00:20.458Z</time>
      </trkpt>
      <trkpt lat="48.4275607" lon="-2.0249980">
        <ele>8.668</ele>
        <time>2018-08-22T08:00:23.466Z</time>
      </trkpt>
      <trkpt lat="48.4275881" lon="-2.0248345">
        <ele>8.488</ele>
        <time>2018-08-22T08:00:26.424Z</time>
      </trkpt>
      <trkpt lat="48.4276100" lon="-2.0246703">
        <ele>8.428</ele>
        <time>2018-08-22T08:00:29.343Z</time>
      </trkpt>
      <trkpt lat="48.4276348" lon="-2.0245019">
        <ele>8.342</ele>
        <time>2018-08-22T08:00:32.319Z</time>
      </trkpt>
      <trkpt lat="48.4276357" lon="-2.0243491">
        <ele>8.133</ele>
        <time>2018-08-22T08:00:35.053Z</time>
      </trkpt>
      <trkpt lat="48.4276443" lon="-2.0242109">
        <ele>7.788</ele>
        <time>2018-08-22T08:00:37.703Z</time>
      </trkpt>
      <trkpt lat="48.4276791" lon="-2.0240479">
        <ele>7.383</ele>
        <time>2018-08-22T08:00:40.934Z</time>
      </trkpt>
      <trkpt lat="48.4277128" lon="-2.0238859">
        <ele>6.984</ele>
        <time>2018-08-22T08:00:43.995Z</time>
      </trkpt>
      <trkpt lat="48.4277128" lon="-2.0238859">
        <ele>6.695</ele>
        <time>2018-08-22T08:00:43.995Z</time>
      </trkpt>
      <trkpt lat="48.4277128" lon="-2.0238859">
        <ele>6.609</ele>
        <time>2018-08-22T08:00:44.095Z</time>
      </trkpt>
      <trkpt lat="48.4277573" lon="-2.0236741">
        <ele>6.657</ele>
        <time>2018-08-22T08:00:49.987Z</time>
      </trkpt>
      <trkpt lat="48.4277850" lon="-2.0235177">
        <ele>6.720</ele>
        <time>2018-08-22T08:00:52.886Z</time>
      </trkpt>
      <trkpt lat="48.4278117" lon="-2.0233705">
        <ele>6.756</ele>
        <time>2018-08-22T08:00:55.704Z</time>
      </trkpt>
      <trkpt lat="48.4278259" lon="-2.0232307">
        <ele>6.917</ele>
        <time>2018-08-22T08:00:58.571Z</time>
      </trkpt>
      <trkpt lat="48.4278886" lon="-2.0230834">
        <ele>7.300</ele>
        <time>2018-08-22T08:01:02.383Z</time>
      </trkpt>
      <trkpt lat="48.4279239" lon="-2.0229417">
        <ele>7.691</ele>
        <time>2018-08-22T08:01:05.811Z</time>
      </trkpt>
      <trkpt lat="48.4279526" lon="-2.0227957">
        <ele>7.917</ele>
        <time>2018-08-22T08:01:08.994Z</time>
      </trkpt>
      <trkpt lat="48.4279833" lon="-2.0226413">
        <ele>8.025</ele>
        <time>2018-08-22T08:01:12.148Z</time>
      </trkpt>
      <trkpt lat="48.4280093" lon="-2.0224770">
        <ele>8.110</ele>
        <time>2018-08-22T08:01:15.361Z</time>
      </trkpt>
      <trkpt lat="48.4280166" lon="-2.0223393">
        <ele>8.271</ele>
        <time>2018-08-22T08:01:18.013Z</time>
      </trkpt>
      <trkpt lat="48.4280330" lon="-2.0221767">
        <ele>8.497</ele>
        <time>2018-08-22T08:01:21.132Z</time>
      </trkpt>
      <trkpt lat="48.4280596" lon="-2.0220152">
        <ele>8.685</ele>
        <time>2018-08-22T08:01:24.156Z</time>
      </trkpt>
      <trkpt lat="48.4280961" lon="-2.0218467">
        <ele>8.749</ele>
        <time>2018-08-22T08:01:27.278Z</time>
      </trkpt>
      <trkpt lat="48.4281267" lon="-2.0216757">
        <ele>8.716</ele>
        <time>2018-08-22T08:01:30.355Z</time>
      </trkpt>
      <trkpt lat="48.4281572" lon="-2.0215073">
        <ele>8.695</ele>
        <time>2018-08-22T08:01:33.384Z</time>
      </trkpt>
      <trkpt lat="48.4281861" lon="-2.0213458">
        <ele>8.730</ele>
        <time>2018-08-22T08:01:36.300Z</time>
      </trkpt>
      <trkpt lat="48.4282079" lon="-2.0211804">
        <ele>8.847</ele>
        <time>2018-08-22T08:01:39.259Z</time>
      </trkpt>
      <trkpt lat="48.4282223" lon="-2.0210163">
        <ele>9.116</ele>
        <time>2018-08-22T08:01:42.178Z</time>
      </trkpt>
      <trkpt lat="48.4282461" lon="-2.0208502">
        <ele>9.447</ele>
        <time>2018-08-22T08:01:45.161Z</time>
      </trkpt>
      <trkpt lat="48.4282762" lon="-2.0206764">
        <ele>9.544</ele>
        <time>2018-08-22T08:01:48.268Z</time>
      </trkpt>
      <trkpt lat="48.4282999" lon="-2.0205070">
        <ele>9.270</ele>
        <time>2018-08-22T08:01:51.221Z</time>
      </trkpt>
      <trkpt lat="48.4283249" lon="-2.0203353">
        <ele>8.865</ele>
        <time>2018-08-22T08:01:54.198Z</time>
      </trkpt>
      <trkpt lat="48.4283489" lon="-2.0201670">
        <ele>8.573</ele>
        <time>2018-08-22T08:01:57.119Z</time>
      </trkpt>
      <trkpt lat="48.4283754" lon="-2.0200040">
        <ele>8.393</ele>
        <time>2018-08-22T08:02:00.003Z</time>
      </trkpt>
      <trkpt lat="48.4283993" lon="-2.0198460">
        <ele>8.294</ele>
        <time>2018-08-22T08:02:02.831Z</time>
      </trkpt>
      <trkpt lat="48.4284238" lon="-2.0196790">
        <ele>8.165</ele>
        <time>2018-08-22T08:02:05.837Z</time>
      </trkpt>
      <trkpt lat="48.4284501" lon="-2.0195094">
        <ele>7.810</ele>
        <time>2018-08-22T08:02:08.872Z</time>
      </trkpt>
      <trkpt lat="48.4284781" lon="-2.0193379">
        <ele>7.290</ele>
        <time>2018-08-22T08:02:11.913Z</time>
      </trkpt>
      <trkpt lat="48.4285077" lon="-2.0191594">
        <ele>6.961</ele>
        <time>2018-08-22T08:02:15.035Z</time>
      </trkpt>
      <trkpt lat="48.4285480" lon="-2.0190031">
        <ele>7.018</ele>
        <time>2018-08-22T08:02:17.847Z</time>
      </trkpt>
      <trkpt lat="48.4285860" lon="-2.0188267">
        <ele>7.320</ele>
        <time>2018-08-22T08:02:20.914Z</time>
      </trkpt>
      <trkpt lat="48.4286180" lon="-2.0186479">
        <ele>7.697</ele>
        <time>2018-08-22T08:02:23.937Z</time>
      </trkpt>
      <trkpt lat="48.4286429" lon="-2.0184712">
        <ele>8.095</ele>
        <time>2018-08-22T08:02:26.882Z</time>
      </trkpt>
      <trkpt lat="48.4286674" lon="-2.0183019">
        <ele>8.518</ele>
        <time>2018-08-22T08:02:29.734Z</time>
      </trkpt>
      <trkpt lat="48.4286938" lon="-2.0181383">
        <ele>8.934</ele>
        <time>2018-08-22T08:02:32.553Z</time>
      </trkpt>
      <trkpt lat="48.4287235" lon="-2.0179704">
        <ele>9.255</ele>
        <time>2018-08-22T08:02:35.499Z</time>
      </trkpt>
      <trkpt lat="48.4287553" lon="-2.0177952">
        <ele>9.451</ele>
        <time>2018-08-22T08:02:38.575Z</time>
      </trkpt>
      <trkpt lat="48.4287847" lon="-2.0176233">
        <ele>9.681</ele>
        <time>2018-08-22T08:02:41.569Z</time>
      </trkpt>
      <trkpt lat="48.4288042" lon="-2.0174534">
        <ele>10.035</ele>
        <time>2018-08-22T08:02:44.472Z</time>
      </trkpt>
      <trkpt lat="48.4288186" lon="-2.0172896">
        <ele>10.268</ele>
        <time>2018-08-22T08:02:47.269Z</time>
      </trkpt>
      <trkpt lat="48.4288332" lon="-2.0171368">
        <ele>10.182</ele>
        <time>2018-08-22T08:02:49.937Z</time>
      </trkpt>
      <trkpt lat="48.4288598" lon="-2.0169721">
        <ele>10.022</ele>
        <time>2018-08-22T08:02:52.951Z</time>
      </trkpt>
      <trkpt lat="48.4288908" lon="-2.0167977">
        <ele>10.037</ele>
        <time>2018-08-22T08:02:56.131Z</time>
      </trkpt>
      <trkpt lat="48.4289195" lon="-2.0166282">
        <ele>10.155</ele>
        <time>2018-08-22T08:02:59.149Z</time>
      </trkpt>
      <trkpt lat="48.4289503" lon="-2.0164657">
        <ele>10.114</ele>
        <time>2018-08-22T08:03:02.045Z</time>
      </trkpt>
      <trkpt lat="48.4289757" lon="-2.0163063">
        <ele>9.817</ele>
        <time>2018-08-22T08:03:04.878Z</time>
      </trkpt>
      <trkpt lat="48.4290100" lon="-2.0161374">
        <ele>9.537</ele>
        <time>2018-08-22T08:03:07.950Z</time>
      </trkpt>
      <trkpt lat="48.4290371" lon="-2.0159658">
        <ele>9.514</ele>
        <time>2018-08-22T08:03:11.003Z</time>
      </trkpt>
      <trkpt lat="48.4290742" lon="-2.0157953">
        <ele>9.575</ele>
        <time>2018-08-22T08:03:14.080Z</time>
      </trkpt>
      <trkpt lat="48.4291059" lon="-2.0156176">
        <ele>9.519</ele>
        <time>2018-08-22T08:03:17.175Z</time>
      </trkpt>
      <trkpt lat="48.4291357" lon="-2.0154494">
        <ele>9.517</ele>
        <time>2018-08-22T08:03:20.067Z</time>
      </trkpt>
      <trkpt lat="48.4291567" lon="-2.0152784">
        <ele>9.745</ele>
        <time>2018-08-22T08:03:22.958Z</time>
      </trkpt>
      <trkpt lat="48.4291718" lon="-2.0151098">
        <ele>9.973</ele>
        <time>2018-08-22T08:03:25.813Z</time>
      </trkpt>
      <trkpt lat="48.4291814" lon="-2.0149487">
        <ele>9.968</ele>
        <time>2018-08-22T08:03:28.583Z</time>
      </trkpt>
      <trkpt lat="48.4291599" lon="-2.0147928">
        <ele>9.840</ele>
        <time>2018-08-22T08:03:31.388Z</time>
      </trkpt>
      <trkpt lat="48.4291251" lon="-2.0146541">
        <ele>9.783</ele>
        <time>2018-08-22T08:03:34.089Z</time>
      </trkpt>
      <trkpt lat="48.4290649" lon="-2.0145000">
        <ele>9.813</ele>
        <time>2018-08-22T08:03:37.424Z</time>
      </trkpt>
      <trkpt lat="48.4290144" lon="-2.0143107">
        <ele>9.826</ele>
        <time>2018-08-22T08:03:41.080Z</time>
      </trkpt>
      <trkpt lat="48.4289627" lon="-2.0141442">
        <ele>9.710</ele>
        <time>2018-08-22T08:03:44.150Z</time>
      </trkpt>
      <trkpt lat="48.4288932" lon="-2.0140145">
        <ele>9.408</ele>
        <time>2018-08-22T08:03:46.918Z</time>
      </trkpt>
      <trkpt lat="48.4287993" lon="-2.0138960">
        <ele>9.024</ele>
        <time>2018-08-22T08:03:50.055Z</time>
      </trkpt>
      <trkpt lat="48.4287112" lon="-2.0137699">
        <ele>8.869</ele>
        <time>2018-08-22T08:03:53.240Z</time>
      </trkpt>
      <trkpt lat="48.4286023" lon="-2.0136529">
        <ele>9.063</ele>
        <time>2018-08-22T08:03:56.711Z</time>
      </trkpt>
      <trkpt lat="48.4284897" lon="-2.0135745">
        <ele>9.531</ele>
        <time>2018-08-22T08:03:59.841Z</time>
      </trkpt>
      <trkpt lat="48.4283703" lon="-2.0135293">
        <ele>10.128</ele>
        <time>2018-08-22T08:04:02.900Z</time>
      </trkpt>
      <trkpt lat="48.4282535" lon="-2.0135070">
        <ele>10.573</ele>
        <time>2018-08-22T08:04:05.825Z</time>
      </trkpt>
      <trkpt lat="48.4281343" lon="-2.0135465">
        <ele>10.624</ele>
        <time>2018-08-22T08:04:08.922Z</time>
      </trkpt>
      <trkpt lat="48.4280388" lon="-2.0136060">
        <ele>10.302</ele>
        <time>2018-08-22T08:04:11.632Z</time>
      </trkpt>
      <trkpt lat="48.4279147" lon="-2.0136718">
        <ele>9.738</ele>
        <time>2018-08-22T08:04:15.057Z</time>
      </trkpt>
      <trkpt lat="48.4277923" lon="-2.0137190">
        <ele>9.125</ele>
        <time>2018-08-22T08:04:18.191Z</time>
      </trkpt>
      <trkpt lat="48.4276740" lon="-2.0137420">
        <ele>8.642</ele>
        <time>2018-08-22T08:04:21.079Z</time>
      </trkpt>
      <trkpt lat="48.4275510" lon="-2.0137463">
        <ele>8.331</ele>
        <time>2018-08-22T08:04:24.030Z</time>
      </trkpt>
      <trkpt lat="48.4274300" lon="-2.0137478">
        <ele>8.117</ele>
        <time>2018-08-22T08:04:26.928Z</time>
      </trkpt>
      <trkpt lat="48.4273172" lon="-2.0137742">
        <ele>7.779</ele>
        <time>2018-08-22T08:04:29.677Z</time>
      </trkpt>
      <trkpt lat="48.4271937" lon="-2.0137869">
        <ele>7.171</ele>
        <time>2018-08-22T08:04:32.661Z</time>
      </trkpt>
      <trkpt lat="48.4271014" lon="-2.0138287">
        <ele>6.525</ele>
        <time>2018-08-22T08:04:34.997Z</time>
      </trkpt>
      <trkpt lat="48.4271014" lon="-2.0138287">
        <ele>6.203</ele>
        <time>2018-08-22T08:04:35.997Z</time>
      </trkpt>
      <trkpt lat="48.4271014" lon="-2.0138287">
        <ele>6.232</ele>
        <time>2018-08-22T08:04:36.097Z</time>
      </trkpt>
      <trkpt lat="48.4269262" lon="-2.0139007">
        <ele>6.392</ele>
        <time>2018-08-22T08:04:43.041Z</time>
      </trkpt>
      <trkpt lat="48.4268188" lon="-2.0139523">
        <ele>6.569</ele>
        <time>2018-08-22T08:04:45.961Z</time>
      </trkpt>
      <trkpt lat="48.4267085" lon="-2.0140096">
        <ele>6.868</ele>
        <time>2018-08-22T08:04:48.870Z</time>
      </trkpt>
      <trkpt lat="48.4266027" lon="-2.0140765">
        <ele>7.323</ele>
        <time>2018-08-22T08:04:51.829Z</time>
      </trkpt>
      <trkpt lat="48.4265190" lon="-2.0141764">
        <ele>7.773</ele>
        <time>2018-08-22T08:04:54.610Z</time>
      </trkpt>
      <trkpt lat="48.4264383" lon="-2.0143033">
        <ele>8.062</ele>
        <time>2018-08-22T08:04:57.584Z</time>
      </trkpt>
      <trkpt lat="48.4263421" lon="-2.0144031">
        <ele>8.239</ele>
        <time>2018-08-22T08:05:00.481Z</time>
      </trkpt>
      <trkpt lat="48.4262372" lon="-2.0145061">
        <ele>8.571</ele>
        <time>2018-08-22T08:05:03.519Z</time>
      </trkpt>
      <trkpt lat="48.4261318" lon="-2.0146048">
        <ele>9.151</ele>
        <time>2018-08-22T08:05:06.557Z</time>
      </trkpt>
      <trkpt lat="48.4260329" lon="-2.0147091">
        <ele>9.691</ele>
        <time>2018-08-22T08:05:09.502Z</time>
      </trkpt>
      <trkpt lat="48.4259295" lon="-2.0148109">
        <ele>9.928</ele>
        <time>2018-08-22T08:05:12.550Z</time>
      </trkpt>
      <trkpt lat="48.4258388" lon="-2.0148998">
        <ele>9.905</ele>
        <time>2018-08-22T08:05:15.319Z</time>
      </trkpt>
      <trkpt lat="48.4257564" lon="-2.0150079">
        <ele>9.824</ele>
        <time>2018-08-22T08:05:18.074Z</time>
      </trkpt>
      <trkpt lat="48.4256618" lon="-2.0151061">
        <ele>9.841</ele>
        <time>2018-08-22T08:05:20.935Z</time>
      </trkpt>
      <trkpt lat="48.4255604" lon="-2.0151873">
        <ele>9.937</ele>
        <time>2018-08-22T08:05:23.833Z</time>
      </trkpt>
      <trkpt lat="48.4254475" lon="-2.0152587">
        <ele>10.019</ele>
        <time>2018-08-22T08:05:26.910Z</time>
      </trkpt>
      <trkpt lat="48.4253227" lon="-2.0153203">
        <ele>9.999</ele>
        <time>2018-08-22T08:05:30.181Z</time>
      </trkpt>
      <trkpt lat="48.4252112" lon="-2.0153803">
        <ele>9.859</ele>
        <time>2018-08-22T08:05:33.112Z</time>
      </trkpt>
      <trkpt lat="48.4251009" lon="-2.0154559">
        <ele>9.697</ele>
        <time>2018-08-22T08:05:36.070Z</time>
      </trkpt>
      <trkpt lat="48.4249837" lon="-2.0155109">
        <ele>9.604</ele>
        <time>2018-08-22T08:05:39.169Z</time>
      </trkpt>
      <trkpt lat="48.4248848" lon="-2.0155497">
        <ele>9.577</ele>
        <time>2018-08-22T08:05:41.835Z</time>
      </trkpt>
      <trkpt lat="48.4247801" lon="-2.0155984">
        <ele>9.583</ele>
        <time>2018-08-22T08:05:44.613Z</time>
      </trkpt>
      <trkpt lat="48.4246526" lon="-2.0156414">
        <ele>9.526</ele>
        <time>2018-08-22T08:05:47.778Z</time>
      </trkpt>
      <trkpt lat="48.4245222" lon="-2.0156822">
        <ele>9.263</ele>
        <time>2018-08-22T08:05:50.904Z</time>
      </trkpt>
      <trkpt lat="48.4243903" lon="-2.0157177">
        <ele>8.834</ele>
        <time>2018-08-22T08:05:54.006Z</time>
      </trkpt>
      <trkpt lat="48.4242610" lon="-2.0157457">
        <ele>8.453</ele>
        <time>2018-08-22T08:05:57.251Z</time>
      </trkpt>
      <trkpt lat="48.4241683" lon="-2.0157663">
        <ele>8.239</ele>
        <time>2018-08-22T08:05:59.821Z</time>
      </trkpt>
      <trkpt lat="48.4240473" lon="-2.0158098">
        <ele>8.240</ele>
        <time>2018-08-22T08:06:03.179Z</time>
      </trkpt>
      <trkpt lat="48.4239249" lon="-2.0158512">
        <ele>8.444</ele>
        <time>2018-08-22T08:06:06.265Z</time>
      </trkpt>
      <trkpt lat="48.4238139" lon="-2.0158663">
        <ele>8.674</ele>
        <time>2018-08-22T08:06:08.990Z</time>
      </trkpt>
      <trkpt lat="48.4237062" lon="-2.0158633">
        <ele>8.832</ele>
        <time>2018-08-22T08:06:11.765Z</time>
      </trkpt>
      <trkpt lat="48.4235995" lon="-2.0158625">
        <ele>8.965</ele>
        <time>2018-08-22T08:06:14.592Z</time>
      </trkpt>
      <trkpt lat="48.4234919" lon="-2.0158775">
        <ele>9.015</ele>
        <time>2018-08-22T08:06:17.454Z</time>
      </trkpt>
      <trkpt lat="48.4233847" lon="-2.0158853">
        <ele>8.915</ele>
        <time>2018-08-22T08:06:20.281Z</time>
      </trkpt>
      <trkpt lat="48.4232770" lon="-2.0158777">
        <ele>8.768</ele>
        <time>2018-08-22T08:06:23.166Z</time>
      </trkpt>
      <trkpt lat="48.4231494" lon="-2.0158079">
        <ele>8.743</ele>
        <time>2018-08-22T08:06:26.538Z</time>
      </trkpt>
      <trkpt lat="48.4230306" lon="-2.0156930">
        <ele>8.868</ele>
        <time>2018-08-22T08:06:29.828Z</time>
      </trkpt>
      <trkpt lat="48.4229155" lon="-2.0155932">
        <ele>8.948</ele>
        <time>2018-08-22T08:06:32.934Z</time>
      </trkpt>
      <trkpt lat="48.4227959" lon="-2.0155362">
        <ele>8.817</ele>
        <time>2018-08-22T08:06:35.890Z</time>
      </trkpt>
      <trkpt lat="48.4226748" lon="-2.0154510">
        <ele>8.365</ele>
        <time>2018-08-22T08:06:38.975Z</time>
      </trkpt>
      <trkpt lat="48.4225551" lon="-2.0153660">
        <ele>7.652</ele>
        <time>2018-08-22T08:06:41.964Z</time>
      </trkpt>
      <trkpt lat="48.4224461" lon="-2.0153039">
        <ele>7.040</ele>
        <time>2018-08-22T08:06:44.706Z</time>
      </trkpt>
      <trkpt lat="48.4223430" lon="-2.0152339">
        <ele>6.810</ele>
        <time>2018-08-22T08:06:47.567Z</time>
      </trkpt>
      <trkpt lat="48.4222515" lon="-2.0151671">
        <ele>6.861</ele>
        <time>2018-08-22T08:06:49.994Z</time>
      </trkpt>
      <trkpt lat="48.4221690" lon="-2.0150774">
        <ele>7.008</ele>
        <time>2018-08-22T08:06:52.232Z</time>
      </trkpt>
      <trkpt lat="48.4220846" lon="-2.0150121">
        <ele>7.143</ele>
        <time>2018-08-22T08:06:54.297Z</time>
      </trkpt>
      <trkpt lat="48.4220102" lon="-2.0149276">
        <ele>7.246</ele>
        <time>2018-08-22T08:06:56.373Z</time>
      </trkpt>
      <trkpt lat="48.4219331" lon="-2.0148467">
        <ele>7.380</ele>
        <time>2018-08-22T08:06:58.424Z</time>
      </trkpt>
      <trkpt lat="48.4217833" lon="-2.0147843">
        <ele>7.624</ele>
        <time>2018-08-22T08:07:01.703Z</time>
      </trkpt>
      <trkpt lat="48.4216491" lon="-2.0147325">
        <ele>7.902</ele>
        <time>2018-08-22T08:07:04.576Z</time>
      </trkpt>
      <trkpt lat="48.4215002" lon="-2.0147476">
        <ele>8.057</ele>
        <time>2018-08-22T08:07:07.749Z</time>
      </trkpt>
      <trkpt lat="48.4213810" lon="-2.0147895">
        <ele>8.040</ele>
        <time>2018-08-22T08:07:10.450Z</time>
      </trkpt>
      <trkpt lat="48.4212583" lon="-2.0148477">
        <ele>7.949</ele>
        <time>2018-08-22T08:07:13.294Z</time>
      </trkpt>
      <trkpt lat="48.4211155" lon="-2.0149030">
        <ele>7.947</ele>
        <time>2018-08-22T08:07:16.548Z</time>
      </trkpt>
      <trkpt lat="48.4210068" lon="-2.0149580">
        <ele>8.075</ele>
        <time>2018-08-22T08:07:19.246Z</time>
      </trkpt>
      <trkpt lat="48.4208971" lon="-2.0150042">
        <ele>8.232</ele>
        <time>2018-08-22T08:07:22.067Z</time>
      </trkpt>
      <trkpt lat="48.4207709" lon="-2.0150263">
        <ele>8.355</ele>
        <time>2018-08-22T08:07:25.100Z</time>
      </trkpt>
      <trkpt lat="48.4206365" lon="-2.0150280">
        <ele>8.463</ele>
        <time>2018-08-22T08:07:28.152Z</time>
      </trkpt>
      <trkpt lat="48.4205002" lon="-2.0150151">
        <ele>8.557</ele>
        <time>2018-08-22T08:07:31.196Z</time>
      </trkpt>
      <trkpt lat="48.4203547" lon="-2.0149857">
        <ele>8.614</ele>
        <time>2018-08-22T08:07:34.384Z</time>
      </trkpt>
      <trkpt lat="48.4202132" lon="-2.0149586">
        <ele>8.619</ele>
        <time>2018-08-22T08:07:37.450Z</time>
      </trkpt>
      <trkpt lat="48.4200760" lon="-2.0149417">
        <ele>8.482</ele>
        <time>2018-08-22T08:07:40.424Z</time>
      </trkpt>
      <trkpt lat="48.4199374" lon="-2.0148992">
        <ele>8.113</ele>
        <time>2018-08-22T08:07:43.492Z</time>
      </trkpt>
      <trkpt lat="48.4198042" lon="-2.0148483">
        <ele>7.659</ele>
        <time>2018-08-22T08:07:46.487Z</time>
      </trkpt>
      <trkpt lat="48.4196731" lon="-2.0147656">
        <ele>7.351</ele>
        <time>2018-08-22T08:07:49.584Z</time>
      </trkpt>
      <trkpt lat="48.4195583" lon="-2.0146762">
        <ele>7.230</ele>
        <time>2018-08-22T08:07:52.405Z</time>
      </trkpt>
      <trkpt lat="48.4194388" lon="-2.0146154">
        <ele>7.122</ele>
        <time>2018-08-22T08:07:55.206Z</time>
      </trkpt>
      <trkpt lat="48.4193058" lon="-2.0145865">
        <ele>6.897</ele>
        <time>2018-08-22T08:07:58.207Z</time>
      </trkpt>
      <trkpt lat="48.4191733" lon="-2.0145215">
        <ele>6.744</ele>
        <time>2018-08-22T08:08:01.316Z</time>
      </trkpt>
      <trkpt lat="48.4190568" lon="-2.0145349">
        <ele>6.977</ele>
        <time>2018-08-22T08:08:04.105Z</time>
      </trkpt>
      <trkpt lat="48.4189516" lon="-2.0145828">
        <ele>7.542</ele>
        <time>2018-08-22T08:08:06.917Z</time>
      </trkpt>
      <trkpt lat="48.4188285" lon="-2.0146092">
        <ele>8.157</ele>
        <time>2018-08-22T08:08:10.041Z</time>
      </trkpt>
      <trkpt lat="48.4186839" lon="-2.0146073">
        <ele>8.645</ele>
        <time>2018-08-22T08:08:13.737Z</time>
      </trkpt>
      <trkpt lat="48.4185932" lon="-2.0146106">
        <ele>8.682</ele>
        <time>2018-08-22T08:08:16.520Z</time>
      </trkpt>
      <trkpt lat="48.4185043" lon="-2.0145578">
        <ele>8.117</ele>
        <time>2018-08-22T08:08:20.046Z</time>
      </trkpt>
      <trkpt lat="48.4184164" lon="-2.0145163">
        <ele>7.425</ele>
        <time>2018-08-22T08:08:24.336Z</time>
      </trkpt>
      <trkpt lat="48.4183164" lon="-2.0144971">
        <ele>7.076</ele>
        <time>2018-08-22T08:08:29.996Z</time>
      </trkpt>
      <trkpt lat="48.4183164" lon="-2.0144971">
        <ele>7.029</ele>
        <time>2018-08-22T08:08:34.996Z</time>
      </trkpt>
      <trkpt lat="48.4183164" lon="-2.0144971">
        <ele>7.067</ele>
        <time>2018-08-22T08:08:35.609Z</time>
      </trkpt>
      <trkpt lat="48.4184371" lon="-2.0145230">
        <ele>7.078</ele>
        <time>2018-08-22T08:08:42.710Z</time>
      </trkpt>
      <trkpt lat="48.4185299" lon="-2.0145677">
        <ele>7.306</ele>
        <time>2018-08-22T08:08:45.623Z</time>
      </trkpt>
      <trkpt lat="48.4186323" lon="-2.0145804">
        <ele>7.919</ele>
        <time>2018-08-22T08:08:48.463Z</time>
      </trkpt>
      <trkpt lat="48.4187189" lon="-2.0145320">
        <ele>8.583</ele>
        <time>2018-08-22T08:08:50.953Z</time>
      </trkpt>
      <trkpt lat="48.4188239" lon="-2.0144617">
        <ele>8.933</ele>
        <time>2018-08-22T08:08:53.897Z</time>
      </trkpt>
      <trkpt lat="48.4189369" lon="-2.0144442">
        <ele>9.000</ele>
        <time>2018-08-22T08:08:56.616Z</time>
      </trkpt>
      <trkpt lat="48.4190680" lon="-2.0144359">
        <ele>8.870</ele>
        <time>2018-08-22T08:08:59.652Z</time>
      </trkpt>
      <trkpt lat="48.4191644" lon="-2.0144354">
        <ele>8.602</ele>
        <time>2018-08-22T08:09:01.995Z</time>
      </trkpt>
      <trkpt lat="48.4191644" lon="-2.0144354">
        <ele>8.325</ele>
        <time>2018-08-22T08:09:04.995Z</time>
      </trkpt>
      <trkpt lat="48.4191644" lon="-2.0144354">
        <ele>8.187</ele>
        <time>2018-08-22T08:09:05.095Z</time>
      </trkpt>
      <trkpt lat="48.4191644" lon="-2.0144354">
        <ele>8.263</ele>
        <time>2018-08-22T08:09:07.995Z</time>
      </trkpt>
      <trkpt lat="48.4191644" lon="-2.0144354">
        <ele>8.302</ele>
        <time>2018-08-22T08:09:09.515Z</time>
      </trkpt>
      <trkpt lat="48.4190682" lon="-2.0145504">
        <ele>8.296</ele>
        <time>2018-08-22T08:09:16.090Z</time>
      </trkpt>
      <trkpt lat="48.4189576" lon="-2.0146001">
        <ele>8.526</ele>
        <time>2018-08-22T08:09:19.909Z</time>
      </trkpt>
      <trkpt lat="48.4188460" lon="-2.0146162">
        <ele>9.171</ele>
        <time>2018-08-22T08:09:23.128Z</time>
      </trkpt>
      <trkpt lat="48.4187154" lon="-2.0146491">
        <ele>9.834</ele>
        <time>2018-08-22T08:09:26.634Z</time>
      </trkpt>
      <trkpt lat="48.4185908" lon="-2.0146630">
        <ele>10.025</ele>
        <time>2018-08-22T08:09:29.821Z</time>
      </trkpt>
      <trkpt lat="48.4184719" lon="-2.0146335">
        <ele>9.775</ele>
        <time>2018-08-22T08:09:32.913Z</time>
      </trkpt>
      <trkpt lat="48.4183720" lon="-2.0146041">
        <ele>9.428</ele>
        <time>2018-08-22T08:09:35.640Z</time>
      </trkpt>
      <trkpt lat="48.4182651" lon="-2.0145636">
        <ele>9.232</ele>
        <time>2018-08-22T08:09:38.562Z</time>
      </trkpt>
      <trkpt lat="48.4181557" lon="-2.0145097">
        <ele>9.145</ele>
        <time>2018-08-22T08:09:41.917Z</time>
      </trkpt>
      <trkpt lat="48.4180488" lon="-2.0144653">
        <ele>9.001</ele>
        <time>2018-08-22T08:09:45.390Z</time>
      </trkpt>
      <trkpt lat="48.4179581" lon="-2.0144503">
        <ele>8.581</ele>
        <time>2018-08-22T08:09:48.039Z</time>
      </trkpt>
      <trkpt lat="48.4178505" lon="-2.0144518">
        <ele>7.861</ele>
        <time>2018-08-22T08:09:50.907Z</time>
      </trkpt>
      <trkpt lat="48.4177319" lon="-2.0144426">
        <ele>6.933</ele>
        <time>2018-08-22T08:09:53.983Z</time>
      </trkpt>
      <trkpt lat="48.4176172" lon="-2.0144223">
        <ele>5.890</ele>
        <time>2018-08-22T08:09:57.545Z</time>
      </trkpt>
      <trkpt lat="48.4175288" lon="-2.0143885">
        <ele>5.022</ele>
        <time>2018-08-22T08:10:01.327Z</time>
      </trkpt>
      <trkpt lat="48.4174326" lon="-2.0143538">
        <ele>4.750</ele>
        <time>2018-08-22T08:10:06.074Z</time>
      </trkpt>
      <trkpt lat="48.4173470" lon="-2.0142983">
        <ele>5.092</ele>
        <time>2018-08-22T08:10:10.022Z</time>
      </trkpt>
      <trkpt lat="48.4172573" lon="-2.0142500">
        <ele>5.598</ele>
        <time>2018-08-22T08:10:13.217Z</time>
      </trkpt>
      <trkpt lat="48.4171691" lon="-2.0141953">
        <ele>5.787</ele>
        <time>2018-08-22T08:10:16.208Z</time>
      </trkpt>
      <trkpt lat="48.4170735" lon="-2.0141405">
        <ele>5.629</ele>
        <time>2018-08-22T08:10:19.372Z</time>
      </trkpt>
      <trkpt lat="48.4169832" lon="-2.0140960">
        <ele>5.343</ele>
        <time>2018-08-22T08:10:22.319Z</time>
      </trkpt>
      <trkpt lat="48.4168895" lon="-2.0140621">
        <ele>5.118</ele>
        <time>2018-08-22T08:10:25.345Z</time>
      </trkpt>
      <trkpt lat="48.4167987" lon="-2.0140378">
        <ele>5.041</ele>
        <time>2018-08-22T08:10:28.206Z</time>
      </trkpt>
      <trkpt lat="48.4167014" lon="-2.0140169">
        <ele>5.123</ele>
        <time>2018-08-22T08:10:31.197Z</time>
      </trkpt>
      <trkpt lat="48.4165997" lon="-2.0140122">
        <ele>5.293</ele>
        <time>2018-08-22T08:10:34.250Z</time>
      </trkpt>
      <trkpt lat="48.4164980" lon="-2.0140055">
        <ele>5.443</ele>
        <time>2018-08-22T08:10:37.255Z</time>
      </trkpt>
      <trkpt lat="48.4163828" lon="-2.0139991">
        <ele>5.556</ele>
        <time>2018-08-22T08:10:40.575Z</time>
      </trkpt>
      <trkpt lat="48.4162757" lon="-2.0140030">
        <ele>5.781</ele>
        <time>2018-08-22T08:10:43.704Z</time>
      </trkpt>
      <trkpt lat="48.4161816" lon="-2.0140212">
        <ele>6.248</ele>
        <time>2018-08-22T08:10:46.617Z</time>
      </trkpt>
      <trkpt lat="48.4160897" lon="-2.0140401">
        <ele>6.926</ele>
        <time>2018-08-22T08:10:49.581Z</time>
      </trkpt>
      <trkpt lat="48.4159965" lon="-2.0140524">
        <ele>7.599</ele>
        <time>2018-08-22T08:10:52.711Z</time>
      </trkpt>
      <trkpt lat="48.4158900" lon="-2.0140629">
        <ele>8.206</ele>
        <time>2018-08-22T08:10:56.684Z</time>
      </trkpt>
      <trkpt lat="48.4157984" lon="-2.0140909">
        <ele>8.829</ele>
        <time>2018-08-22T08:11:00.741Z</time>
      </trkpt>
      <trkpt lat="48.4157032" lon="-2.0141236">
        <ele>9.369</ele>
        <time>2018-08-22T08:11:05.835Z</time>
      </trkpt>
      <trkpt lat="48.4155972" lon="-2.0141469">
        <ele>9.736</ele>
        <time>2018-08-22T08:11:12.029Z</time>
      </trkpt>
      <trkpt lat="48.4154969" lon="-2.0141790">
        <ele>10.203</ele>
        <time>2018-08-22T08:11:16.881Z</time>
      </trkpt>
      <trkpt lat="48.4153644" lon="-2.0141921">
        <ele>10.887</ele>
        <time>2018-08-22T08:11:20.700Z</time>
      </trkpt>
      <trkpt lat="48.4152361" lon="-2.0141676">
        <ele>11.245</ele>
        <time>2018-08-22T08:11:23.883Z</time>
      </trkpt>
      <trkpt lat="48.4151381" lon="-2.0141531">
        <ele>10.871</ele>
        <time>2018-08-22T08:11:26.466Z</time>
      </trkpt>
      <trkpt lat="48.4150368" lon="-2.0141427">
        <ele>10.166</ele>
        <time>2018-08-22T08:11:29.400Z</time>
      </trkpt>
      <trkpt lat="48.4149398" lon="-2.0140953">
        <ele>9.630</ele>
        <time>2018-08-22T08:11:32.370Z</time>
      </trkpt>
      <trkpt lat="48.4148304" lon="-2.0140679">
        <ele>9.367</ele>
        <time>2018-08-22T08:11:35.516Z</time>
      </trkpt>
      <trkpt lat="48.4147246" lon="-2.0140318">
        <ele>9.360</ele>
        <time>2018-08-22T08:11:38.487Z</time>
      </trkpt>
      <trkpt lat="48.4146211" lon="-2.0139947">
        <ele>9.557</ele>
        <time>2018-08-22T08:11:41.403Z</time>
      </trkpt>
      <trkpt lat="48.4145221" lon="-2.0139688">
        <ele>9.807</ele>
        <time>2018-08-22T08:11:44.191Z</time>
      </trkpt>
      <trkpt lat="48.4144207" lon="-2.0139506">
        <ele>9.953</ele>
        <time>2018-08-22T08:11:47.080Z</time>
      </trkpt>
      <trkpt lat="48.4143107" lon="-2.0139203">
        <ele>9.866</ele>
        <time>2018-08-22T08:11:50.225Z</time>
      </trkpt>
      <trkpt lat="48.4142059" lon="-2.0138770">
        <ele>9.526</ele>
        <time>2018-08-22T08:11:53.233Z</time>
      </trkpt>
      <trkpt lat="48.4141050" lon="-2.0138204">
        <ele>9.142</ele>
        <time>2018-08-22T08:11:56.148Z</time>
      </trkpt>
      <trkpt lat="48.4140092" lon="-2.0137513">
        <ele>8.934</ele>
        <time>2018-08-22T08:11:58.951Z</time>
      </trkpt>
      <trkpt lat="48.4139155" lon="-2.0136506">
        <ele>8.947</ele>
        <time>2018-08-22T08:12:01.894Z</time>
      </trkpt>
      <trkpt lat="48.4138320" lon="-2.0135655">
        <ele>9.104</ele>
        <time>2018-08-22T08:12:04.537Z</time>
      </trkpt>
      <trkpt lat="48.4137252" lon="-2.0134781">
        <ele>9.226</ele>
        <time>2018-08-22T08:12:07.778Z</time>
      </trkpt>
      <trkpt lat="48.4136234" lon="-2.0133844">
        <ele>9.151</ele>
        <time>2018-08-22T08:12:10.828Z</time>
      </trkpt>
      <trkpt lat="48.4135222" lon="-2.0132868">
        <ele>8.832</ele>
        <time>2018-08-22T08:12:13.853Z</time>
      </trkpt>
      <trkpt lat="48.4134269" lon="-2.0131926">
        <ele>8.390</ele>
        <time>2018-08-22T08:12:16.721Z</time>
      </trkpt>
      <trkpt lat="48.4133337" lon="-2.0130927">
        <ele>8.092</ele>
        <time>2018-08-22T08:12:19.613Z</time>
      </trkpt>
      <trkpt lat="48.4132371" lon="-2.0129824">
        <ele>8.077</ele>
        <time>2018-08-22T08:12:22.603Z</time>
      </trkpt>
      <trkpt lat="48.4131408" lon="-2.0128698">
        <ele>8.286</ele>
        <time>2018-08-22T08:12:25.542Z</time>
      </trkpt>
      <trkpt lat="48.4130204" lon="-2.0127726">
        <ele>8.607</ele>
        <time>2018-08-22T08:12:28.772Z</time>
      </trkpt>
      <trkpt lat="48.4128969" lon="-2.0127109">
        <ele>8.871</ele>
        <time>2018-08-22T08:12:31.801Z</time>
      </trkpt>
      <trkpt lat="48.4127763" lon="-2.0126515">
        <ele>8.939</ele>
        <time>2018-08-22T08:12:34.744Z</time>
      </trkpt>
      <trkpt lat="48.4126482" lon="-2.0126257">
        <ele>8.837</ele>
        <time>2018-08-22T08:12:37.693Z</time>
      </trkpt>
      <trkpt lat="48.4125322" lon="-2.0126052">
        <ele>8.700</ele>
        <time>2018-08-22T08:12:40.353Z</time>
      </trkpt>
      <trkpt lat="48.4124002" lon="-2.0126031">
        <ele>8.717</ele>
        <time>2018-08-22T08:12:43.355Z</time>
      </trkpt>
      <trkpt lat="48.4122684" lon="-2.0126155">
        <ele>8.941</ele>
        <time>2018-08-22T08:12:46.320Z</time>
      </trkpt>
      <trkpt lat="48.4121335" lon="-2.0126111">
        <ele>9.234</ele>
        <time>2018-08-22T08:12:49.274Z</time>
      </trkpt>
      <trkpt lat="48.4120012" lon="-2.0125991">
        <ele>9.500</ele>
        <time>2018-08-22T08:12:52.136Z</time>
      </trkpt>
      <trkpt lat="48.4118491" lon="-2.0125805">
        <ele>9.739</ele>
        <time>2018-08-22T08:12:55.467Z</time>
      </trkpt>
      <trkpt lat="48.4117378" lon="-2.0126085">
        <ele>9.719</ele>
        <time>2018-08-22T08:12:58.020Z</time>
      </trkpt>
      <trkpt lat="48.4116166" lon="-2.0126160">
        <ele>9.197</ele>
        <time>2018-08-22T08:13:00.846Z</time>
      </trkpt>
      <trkpt lat="48.4115045" lon="-2.0126273">
        <ele>8.410</ele>
        <time>2018-08-22T08:13:03.475Z</time>
      </trkpt>
      <trkpt lat="48.4113699" lon="-2.0126212">
        <ele>7.843</ele>
        <time>2018-08-22T08:13:06.544Z</time>
      </trkpt>
      <trkpt lat="48.4112233" lon="-2.0125847">
        <ele>7.687</ele>
        <time>2018-08-22T08:13:09.781Z</time>
      </trkpt>
      <trkpt lat="48.4111000" lon="-2.0125400">
        <ele>7.822</ele>
        <time>2018-08-22T08:13:12.502Z</time>
      </trkpt>
      <trkpt lat="48.4109840" lon="-2.0125269">
        <ele>8.030</ele>
        <time>2018-08-22T08:13:15.077Z</time>
      </trkpt>
      <trkpt lat="48.4108631" lon="-2.0124986">
        <ele>8.132</ele>
        <time>2018-08-22T08:13:17.934Z</time>
      </trkpt>
      <trkpt lat="48.4107479" lon="-2.0124872">
        <ele>8.016</ele>
        <time>2018-08-22T08:13:20.751Z</time>
      </trkpt>
      <trkpt lat="48.4106306" lon="-2.0124912">
        <ele>7.731</ele>
        <time>2018-08-22T08:13:23.701Z</time>
      </trkpt>
      <trkpt lat="48.4105128" lon="-2.0124458">
        <ele>7.546</ele>
        <time>2018-08-22T08:13:26.778Z</time>
      </trkpt>
      <trkpt lat="48.4103965" lon="-2.0123903">
        <ele>7.621</ele>
        <time>2018-08-22T08:13:29.787Z</time>
      </trkpt>
      <trkpt lat="48.4102836" lon="-2.0123296">
        <ele>7.802</ele>
        <time>2018-08-22T08:13:32.662Z</time>
      </trkpt>
      <trkpt lat="48.4101719" lon="-2.0122311">
        <ele>7.965</ele>
        <time>2018-08-22T08:13:35.754Z</time>
      </trkpt>
      <trkpt lat="48.4100612" lon="-2.0121075">
        <ele>8.148</ele>
        <time>2018-08-22T08:13:39.076Z</time>
      </trkpt>
      <trkpt lat="48.4099878" lon="-2.0119454">
        <ele>8.324</ele>
        <time>2018-08-22T08:13:42.319Z</time>
      </trkpt>
      <trkpt lat="48.4098950" lon="-2.0118258">
        <ele>8.393</ele>
        <time>2018-08-22T08:13:45.550Z</time>
      </trkpt>
      <trkpt lat="48.4098478" lon="-2.0116739">
        <ele>8.339</ele>
        <time>2018-08-22T08:13:48.766Z</time>
      </trkpt>
      <trkpt lat="48.4098075" lon="-2.0115115">
        <ele>8.164</ele>
        <time>2018-08-22T08:13:52.775Z</time>
      </trkpt>
      <trkpt lat="48.4097526" lon="-2.0113215">
        <ele>7.893</ele>
        <time>2018-08-22T08:13:57.011Z</time>
      </trkpt>
      <trkpt lat="48.4097163" lon="-2.0111600">
        <ele>7.656</ele>
        <time>2018-08-22T08:14:00.152Z</time>
      </trkpt>
      <trkpt lat="48.4096857" lon="-2.0110165">
        <ele>7.637</ele>
        <time>2018-08-22T08:14:03.066Z</time>
      </trkpt>
      <trkpt lat="48.4096233" lon="-2.0108580">
        <ele>7.944</ele>
        <time>2018-08-22T08:14:06.663Z</time>
      </trkpt>
      <trkpt lat="48.4095498" lon="-2.0107280">
        <ele>8.486</ele>
        <time>2018-08-22T08:14:09.724Z</time>
      </trkpt>
      <trkpt lat="48.4094670" lon="-2.0106176">
        <ele>9.052</ele>
        <time>2018-08-22T08:14:12.578Z</time>
      </trkpt>
      <trkpt lat="48.4093788" lon="-2.0104973">
        <ele>9.540</ele>
        <time>2018-08-22T08:14:15.641Z</time>
      </trkpt>
      <trkpt lat="48.4092922" lon="-2.0103768">
        <ele>9.959</ele>
        <time>2018-08-22T08:14:18.672Z</time>
      </trkpt>
      <trkpt lat="48.4091984" lon="-2.0102829">
        <ele>10.298</ele>
        <time>2018-08-22T08:14:21.573Z</time>
      </trkpt>
      <trkpt lat="48.4090957" lon="-2.0101958">
        <ele>10.487</ele>
        <time>2018-08-22T08:14:24.594Z</time>
      </trkpt>
      <trkpt lat="48.4089813" lon="-2.0101166">
        <ele>10.403</ele>
        <time>2018-08-22T08:14:27.727Z</time>
      </trkpt>
      <trkpt lat="48.4088710" lon="-2.0100597">
        <ele>10.082</ele>
        <time>2018-08-22T08:14:30.562Z</time>
      </trkpt>
      <trkpt lat="48.4087502" lon="-2.0100405">
        <ele>9.867</ele>
        <time>2018-08-22T08:14:33.536Z</time>
      </trkpt>
      <trkpt lat="48.4086357" lon="-2.0100209">
        <ele>9.990</ele>
        <time>2018-08-22T08:14:36.429Z</time>
      </trkpt>
      <trkpt lat="48.4085425" lon="-2.0099844">
        <ele>10.248</ele>
        <time>2018-08-22T08:14:38.970Z</time>
      </trkpt>
      <trkpt lat="48.4084347" lon="-2.0099531">
        <ele>10.525</ele>
        <time>2018-08-22T08:14:42.246Z</time>
      </trkpt>
      <trkpt lat="48.4083462" lon="-2.0099232">
        <ele>10.901</ele>
        <time>2018-08-22T08:14:45.288Z</time>
      </trkpt>
      <trkpt lat="48.4082358" lon="-2.0098402">
        <ele>11.281</ele>
        <time>2018-08-22T08:14:49.492Z</time>
      </trkpt>
      <trkpt lat="48.4081356" lon="-2.0097515">
        <ele>11.525</ele>
        <time>2018-08-22T08:14:52.959Z</time>
      </trkpt>
      <trkpt lat="48.4080486" lon="-2.0096907">
        <ele>11.651</ele>
        <time>2018-08-22T08:14:55.752Z</time>
      </trkpt>
      <trkpt lat="48.4079543" lon="-2.0096176">
        <ele>11.712</ele>
        <time>2018-08-22T08:14:58.894Z</time>
      </trkpt>
      <trkpt lat="48.4078644" lon="-2.0095257">
        <ele>11.744</ele>
        <time>2018-08-22T08:15:02.029Z</time>
      </trkpt>
      <trkpt lat="48.4077799" lon="-2.0094378">
        <ele>11.733</ele>
        <time>2018-08-22T08:15:04.970Z</time>
      </trkpt>
      <trkpt lat="48.4076800" lon="-2.0093605">
        <ele>11.617</ele>
        <time>2018-08-22T08:15:08.168Z</time>
      </trkpt>
      <trkpt lat="48.4075747" lon="-2.0093055">
        <ele>11.353</ele>
        <time>2018-08-22T08:15:11.255Z</time>
      </trkpt>
      <trkpt lat="48.4074724" lon="-2.0092457">
        <ele>10.918</ele>
        <time>2018-08-22T08:15:14.360Z</time>
      </trkpt>
      <trkpt lat="48.4073721" lon="-2.0092004">
        <ele>10.407</ele>
        <time>2018-08-22T08:15:17.486Z</time>
      </trkpt>
      <trkpt lat="48.4072590" lon="-2.0091491">
        <ele>9.990</ele>
        <time>2018-08-22T08:15:20.990Z</time>
      </trkpt>
      <trkpt lat="48.4071310" lon="-2.0090878">
        <ele>9.723</ele>
        <time>2018-08-22T08:15:24.625Z</time>
      </trkpt>
      <trkpt lat="48.4070080" lon="-2.0090556">
        <ele>9.551</ele>
        <time>2018-08-22T08:15:27.793Z</time>
      </trkpt>
      <trkpt lat="48.4068728" lon="-2.0089920">
        <ele>9.414</ele>
        <time>2018-08-22T08:15:31.179Z</time>
      </trkpt>
      <trkpt lat="48.4067341" lon="-2.0089253">
        <ele>9.249</ele>
        <time>2018-08-22T08:15:34.430Z</time>
      </trkpt>
      <trkpt lat="48.4065921" lon="-2.0088616">
        <ele>9.070</ele>
        <time>2018-08-22T08:15:37.572Z</time>
      </trkpt>
      <trkpt lat="48.4064519" lon="-2.0087744">
        <ele>8.951</ele>
        <time>2018-08-22T08:15:40.703Z</time>
      </trkpt>
      <trkpt lat="48.4063355" lon="-2.0087502">
        <ele>8.949</ele>
        <time>2018-08-22T08:15:43.146Z</time>
      </trkpt>
      <trkpt lat="48.4062119" lon="-2.0086653">
        <ele>9.049</ele>
        <time>2018-08-22T08:15:46.040Z</time>
      </trkpt>
      <trkpt lat="48.4060900" lon="-2.0086485">
        <ele>9.143</ele>
        <time>2018-08-22T08:15:48.708Z</time>
      </trkpt>
      <trkpt lat="48.4059518" lon="-2.0085509">
        <ele>9.150</ele>
        <time>2018-08-22T08:15:52.031Z</time>
      </trkpt>
      <trkpt lat="48.4058373" lon="-2.0084820">
        <ele>9.157</ele>
        <time>2018-08-22T08:15:54.681Z</time>
      </trkpt>
      <trkpt lat="48.4056940" lon="-2.0084065">
        <ele>9.247</ele>
        <time>2018-08-22T08:15:57.911Z</time>
      </trkpt>
      <trkpt lat="48.4055867" lon="-2.0083571">
        <ele>9.360</ele>
        <time>2018-08-22T08:16:00.309Z</time>
      </trkpt>
      <trkpt lat="48.4054641" lon="-2.0082874">
        <ele>9.420</ele>
        <time>2018-08-22T08:16:03.188Z</time>
      </trkpt>
      <trkpt lat="48.4053249" lon="-2.0082620">
        <ele>9.434</ele>
        <time>2018-08-22T08:16:06.331Z</time>
      </trkpt>
      <trkpt lat="48.4051933" lon="-2.0082564">
        <ele>9.426</ele>
        <time>2018-08-22T08:16:09.306Z</time>
      </trkpt>
      <trkpt lat="48.4050854" lon="-2.0081937">
        <ele>9.412</ele>
        <time>2018-08-22T08:16:12.002Z</time>
      </trkpt>
      <trkpt lat="48.4049485" lon="-2.0081284">
        <ele>9.400</ele>
        <time>2018-08-22T08:16:15.394Z</time>
      </trkpt>
      <trkpt lat="48.4048284" lon="-2.0080516">
        <ele>9.381</ele>
        <time>2018-08-22T08:16:18.381Z</time>
      </trkpt>
      <trkpt lat="48.4046878" lon="-2.0079703">
        <ele>9.332</ele>
        <time>2018-08-22T08:16:21.721Z</time>
      </trkpt>
      <trkpt lat="48.4045627" lon="-2.0079290">
        <ele>9.186</ele>
        <time>2018-08-22T08:16:24.515Z</time>
      </trkpt>
      <trkpt lat="48.4044392" lon="-2.0078782">
        <ele>9.019</ele>
        <time>2018-08-22T08:16:27.311Z</time>
      </trkpt>
      <trkpt lat="48.4043084" lon="-2.0078147">
        <ele>8.742</ele>
        <time>2018-08-22T08:16:30.316Z</time>
      </trkpt>
      <trkpt lat="48.4041829" lon="-2.0077563">
        <ele>8.574</ele>
        <time>2018-08-22T08:16:33.180Z</time>
      </trkpt>
      <trkpt lat="48.4040597" lon="-2.0077018">
        <ele>8.698</ele>
        <time>2018-08-22T08:16:35.993Z</time>
      </trkpt>
      <trkpt lat="48.4040597" lon="-2.0077018">
        <ele>8.986</ele>
        <time>2018-08-22T08:16:35.993Z</time>
      </trkpt>
      <trkpt lat="48.4040597" lon="-2.0077018">
        <ele>9.170</ele>
        <time>2018-08-22T08:16:36.093Z</time>
      </trkpt>
      <trkpt lat="48.4039141" lon="-2.0076455">
        <ele>9.117</ele>
        <time>2018-08-22T08:16:42.039Z</time>
      </trkpt>
      <trkpt lat="48.4038047" lon="-2.0076017">
        <ele>8.950</ele>
        <time>2018-08-22T08:16:45.017Z</time>
      </trkpt>
      <trkpt lat="48.4037013" lon="-2.0075455">
        <ele>8.779</ele>
        <time>2018-08-22T08:16:47.832Z</time>
      </trkpt>
      <trkpt lat="48.4035880" lon="-2.0075008">
        <ele>8.528</ele>
        <time>2018-08-22T08:16:50.736Z</time>
      </trkpt>
      <trkpt lat="48.4034681" lon="-2.0074479">
        <ele>8.225</ele>
        <time>2018-08-22T08:16:53.739Z</time>
      </trkpt>
      <trkpt lat="48.4033481" lon="-2.0073983">
        <ele>8.029</ele>
        <time>2018-08-22T08:16:56.704Z</time>
      </trkpt>
      <trkpt lat="48.4032293" lon="-2.0073458">
        <ele>7.996</ele>
        <time>2018-08-22T08:16:59.679Z</time>
      </trkpt>
      <trkpt lat="48.4031121" lon="-2.0072904">
        <ele>8.074</ele>
        <time>2018-08-22T08:17:02.665Z</time>
      </trkpt>
      <trkpt lat="48.4029939" lon="-2.0072511">
        <ele>8.163</ele>
        <time>2018-08-22T08:17:05.700Z</time>
      </trkpt>
      <trkpt lat="48.4028859" lon="-2.0072091">
        <ele>8.200</ele>
        <time>2018-08-22T08:17:08.767Z</time>
      </trkpt>
      <trkpt lat="48.4027943" lon="-2.0071648">
        <ele>8.209</ele>
        <time>2018-08-22T08:17:11.862Z</time>
      </trkpt>
      <trkpt lat="48.4026979" lon="-2.0071145">
        <ele>8.225</ele>
        <time>2018-08-22T08:17:15.728Z</time>
      </trkpt>
      <trkpt lat="48.4026106" lon="-2.0070737">
        <ele>8.244</ele>
        <time>2018-08-22T08:17:19.729Z</time>
      </trkpt>
      <trkpt lat="48.4025141" lon="-2.0070219">
        <ele>8.275</ele>
        <time>2018-08-22T08:17:24.628Z</time>
      </trkpt>
      <trkpt lat="48.4024101" lon="-2.0069713">
        <ele>8.445</ele>
        <time>2018-08-22T08:17:28.466Z</time>
      </trkpt>
      <trkpt lat="48.4022932" lon="-2.0069290">
        <ele>8.799</ele>
        <time>2018-08-22T08:17:31.918Z</time>
      </trkpt>
      <trkpt lat="48.4022021" lon="-2.0069071">
        <ele>9.164</ele>
        <time>2018-08-22T08:17:34.991Z</time>
      </trkpt>
      <trkpt lat="48.4022021" lon="-2.0069071">
        <ele>9.394</ele>
        <time>2018-08-22T08:17:40.991Z</time>
      </trkpt>
      <trkpt lat="48.4022021" lon="-2.0069071">
        <ele>9.483</ele>
        <time>2018-08-22T08:17:40.991Z</time>
      </trkpt>
      <trkpt lat="48.4022021" lon="-2.0069071">
        <ele>9.466</ele>
        <time>2018-08-22T08:17:42.061Z</time>
      </trkpt>
      <trkpt lat="48.4023633" lon="-2.0069383">
        <ele>9.429</ele>
        <time>2018-08-22T08:17:54.991Z</time>
      </trkpt>
      <trkpt lat="48.4023633" lon="-2.0069383">
        <ele>9.429</ele>
        <time>2018-08-22T08:18:05.991Z</time>
      </trkpt>
      <trkpt lat="48.4023633" lon="-2.0069383">
        <ele>9.445</ele>
        <time>2018-08-22T08:22:37.028Z</time>
      </trkpt>
      <trkpt lat="48.4022081" lon="-2.0068803">
        <ele>9.443</ele>
        <time>2018-08-22T08:22:48.994Z</time>
      </trkpt>
      <trkpt lat="48.4022081" lon="-2.0068803">
        <ele>9.431</ele>
        <time>2018-08-22T08:23:03.994Z</time>
      </trkpt>
      <trkpt lat="48.4022081" lon="-2.0068803">
        <ele>9.426</ele>
        <time>2018-08-22T08:30:18.443Z</time>
      </trkpt>
      <trkpt lat="48.4020489" lon="-2.0067746">
        <ele>9.428</ele>
        <time>2018-08-22T08:30:30.265Z</time>
      </trkpt>
      <trkpt lat="48.4019514" lon="-2.0068016">
        <ele>9.973</ele>
        <time>2018-08-22T08:30:34.466Z</time>
      </trkpt>
      <trkpt lat="48.4018994" lon="-2.0069364">
        <ele>11.387</ele>
        <time>2018-08-22T08:30:39.077Z</time>
      </trkpt>
      <trkpt lat="48.4018897" lon="-2.0070849">
        <ele>12.796</ele>
        <time>2018-08-22T08:30:43.720Z</time>
      </trkpt>
      <trkpt lat="48.4018774" lon="-2.0072408">
        <ele>13.379</ele>
        <time>2018-08-22T08:30:48.759Z</time>
      </trkpt>
      <trkpt lat="48.4018446" lon="-2.0073800">
        <ele>13.408</ele>
        <time>2018-08-22T08:30:53.313Z</time>
      </trkpt>
      <trkpt lat="48.4018310" lon="-2.0075364">
        <ele>13.428</ele>
        <time>2018-08-22T08:30:58.025Z</time>
      </trkpt>
      <trkpt lat="48.4018084" lon="-2.0076900">
        <ele>13.734</ele>
        <time>2018-08-22T08:31:02.569Z</time>
      </trkpt>
      <trkpt lat="48.4017775" lon="-2.0078184">
        <ele>14.345</ele>
        <time>2018-08-22T08:31:06.230Z</time>
      </trkpt>
      <trkpt lat="48.4017496" lon="-2.0079557">
        <ele>15.223</ele>
        <time>2018-08-22T08:31:09.866Z</time>
      </trkpt>
      <trkpt lat="48.4017287" lon="-2.0080972">
        <ele>16.197</ele>
        <time>2018-08-22T08:31:13.361Z</time>
      </trkpt>
      <trkpt lat="48.4017232" lon="-2.0082626">
        <ele>16.957</ele>
        <time>2018-08-22T08:31:17.193Z</time>
      </trkpt>
      <trkpt lat="48.4017170" lon="-2.0084274">
        <ele>17.408</ele>
        <time>2018-08-22T08:31:20.928Z</time>
      </trkpt>
      <trkpt lat="48.4017026" lon="-2.0085883">
        <ele>17.708</ele>
        <time>2018-08-22T08:31:24.571Z</time>
      </trkpt>
      <trkpt lat="48.4016885" lon="-2.0087531">
        <ele>18.080</ele>
        <time>2018-08-22T08:31:28.277Z</time>
      </trkpt>
      <trkpt lat="48.4016708" lon="-2.0089168">
        <ele>18.597</ele>
        <time>2018-08-22T08:31:32.012Z</time>
      </trkpt>
      <trkpt lat="48.4016561" lon="-2.0090662">
        <ele>19.066</ele>
        <time>2018-08-22T08:31:35.486Z</time>
      </trkpt>
      <trkpt lat="48.4016348" lon="-2.0092358">
        <ele>19.306</ele>
        <time>2018-08-22T08:31:39.404Z</time>
      </trkpt>
      <trkpt lat="48.4016079" lon="-2.0094025">
        <ele>19.330</ele>
        <time>2018-08-22T08:31:43.216Z</time>
      </trkpt>
      <trkpt lat="48.4015747" lon="-2.0095288">
        <ele>19.231</ele>
        <time>2018-08-22T08:31:46.194Z</time>
      </trkpt>
      <trkpt lat="48.4015465" lon="-2.0096763">
        <ele>19.059</ele>
        <time>2018-08-22T08:31:49.390Z</time>
      </trkpt>
      <trkpt lat="48.4015076" lon="-2.0098271">
        <ele>18.743</ele>
        <time>2018-08-22T08:31:52.477Z</time>
      </trkpt>
      <trkpt lat="48.4014676" lon="-2.0099903">
        <ele>18.231</ele>
        <time>2018-08-22T08:31:55.465Z</time>
      </trkpt>
      <trkpt lat="48.4014491" lon="-2.0101687">
        <ele>17.678</ele>
        <time>2018-08-22T08:31:58.344Z</time>
      </trkpt>
      <trkpt lat="48.4014459" lon="-2.0103385">
        <ele>17.279</ele>
        <time>2018-08-22T08:32:00.992Z</time>
      </trkpt>
      <trkpt lat="48.4014459" lon="-2.0103385">
        <ele>17.102</ele>
        <time>2018-08-22T08:32:02.992Z</time>
      </trkpt>
      <trkpt lat="48.4014459" lon="-2.0103385">
        <ele>17.079</ele>
        <time>2018-08-22T08:32:03.092Z</time>
      </trkpt>
      <trkpt lat="48.4014605" lon="-2.0106438">
        <ele>17.119</ele>
        <time>2018-08-22T08:32:12.636Z</time>
      </trkpt>
      <trkpt lat="48.4014832" lon="-2.0108047">
        <ele>17.156</ele>
        <time>2018-08-22T08:32:16.483Z</time>
      </trkpt>
      <trkpt lat="48.4015148" lon="-2.0109571">
        <ele>17.170</ele>
        <time>2018-08-22T08:32:20.266Z</time>
      </trkpt>
      <trkpt lat="48.4015426" lon="-2.0111110">
        <ele>17.177</ele>
        <time>2018-08-22T08:32:24.075Z</time>
      </trkpt>
      <trkpt lat="48.4015773" lon="-2.0112652">
        <ele>17.247</ele>
        <time>2018-08-22T08:32:28.028Z</time>
      </trkpt>
      <trkpt lat="48.4016094" lon="-2.0114149">
        <ele>17.454</ele>
        <time>2018-08-22T08:32:31.904Z</time>
      </trkpt>
      <trkpt lat="48.4016406" lon="-2.0115641">
        <ele>17.779</ele>
        <time>2018-08-22T08:32:35.751Z</time>
      </trkpt>
      <trkpt lat="48.4016750" lon="-2.0117170">
        <ele>18.139</ele>
        <time>2018-08-22T08:32:39.674Z</time>
      </trkpt>
      <trkpt lat="48.4017112" lon="-2.0118729">
        <ele>18.489</ele>
        <time>2018-08-22T08:32:43.628Z</time>
      </trkpt>
      <trkpt lat="48.4017362" lon="-2.0120355">
        <ele>18.803</ele>
        <time>2018-08-22T08:32:47.594Z</time>
      </trkpt>
      <trkpt lat="48.4017547" lon="-2.0121965">
        <ele>19.159</ele>
        <time>2018-08-22T08:32:51.630Z</time>
      </trkpt>
      <trkpt lat="48.4017544" lon="-2.0123442">
        <ele>19.770</ele>
        <time>2018-08-22T08:32:55.433Z</time>
      </trkpt>
      <trkpt lat="48.4017569" lon="-2.0124991">
        <ele>20.628</ele>
        <time>2018-08-22T08:32:59.319Z</time>
      </trkpt>
      <trkpt lat="48.4017418" lon="-2.0126335">
        <ele>21.556</ele>
        <time>2018-08-22T08:33:02.570Z</time>
      </trkpt>
      <trkpt lat="48.4017301" lon="-2.0127716">
        <ele>22.379</ele>
        <time>2018-08-22T08:33:05.874Z</time>
      </trkpt>
      <trkpt lat="48.4017046" lon="-2.0129346">
        <ele>22.900</ele>
        <time>2018-08-22T08:33:09.976Z</time>
      </trkpt>
      <trkpt lat="48.4016902" lon="-2.0130936">
        <ele>23.135</ele>
        <time>2018-08-22T08:33:13.955Z</time>
      </trkpt>
      <trkpt lat="48.4016606" lon="-2.0132493">
        <ele>23.389</ele>
        <time>2018-08-22T08:33:18.075Z</time>
      </trkpt>
      <trkpt lat="48.4016358" lon="-2.0133984">
        <ele>23.793</ele>
        <time>2018-08-22T08:33:22.175Z</time>
      </trkpt>
      <trkpt lat="48.4016298" lon="-2.0135518">
        <ele>24.225</ele>
        <time>2018-08-22T08:33:26.274Z</time>
      </trkpt>
      <trkpt lat="48.4016117" lon="-2.0137009">
        <ele>24.572</ele>
        <time>2018-08-22T08:33:30.271Z</time>
      </trkpt>
      <trkpt lat="48.4016003" lon="-2.0138514">
        <ele>24.838</ele>
        <time>2018-08-22T08:33:34.316Z</time>
      </trkpt>
      <trkpt lat="48.4015789" lon="-2.0139983">
        <ele>25.118</ele>
        <time>2018-08-22T08:33:38.412Z</time>
      </trkpt>
      <trkpt lat="48.4015626" lon="-2.0141461">
        <ele>25.548</ele>
        <time>2018-08-22T08:33:42.533Z</time>
      </trkpt>
      <trkpt lat="48.4015489" lon="-2.0142801">
        <ele>26.122</ele>
        <time>2018-08-22T08:33:46.206Z</time>
      </trkpt>
      <trkpt lat="48.4015313" lon="-2.0144313">
        <ele>26.653</ele>
        <time>2018-08-22T08:33:50.317Z</time>
      </trkpt>
      <trkpt lat="48.4015181" lon="-2.0145698">
        <ele>27.039</ele>
        <time>2018-08-22T08:33:54.164Z</time>
      </trkpt>
      <trkpt lat="48.4014990" lon="-2.0147095">
        <ele>27.334</ele>
        <time>2018-08-22T08:33:58.170Z</time>
      </trkpt>
      <trkpt lat="48.4014769" lon="-2.0148502">
        <ele>27.630</ele>
        <time>2018-08-22T08:34:02.304Z</time>
      </trkpt>
      <trkpt lat="48.4014579" lon="-2.0149837">
        <ele>28.119</ele>
        <time>2018-08-22T08:34:06.325Z</time>
      </trkpt>
      <trkpt lat="48.4014457" lon="-2.0151492">
        <ele>28.906</ele>
        <time>2018-08-22T08:34:11.310Z</time>
      </trkpt>
      <trkpt lat="48.4014291" lon="-2.0152829">
        <ele>29.716</ele>
        <time>2018-08-22T08:34:15.411Z</time>
      </trkpt>
      <trkpt lat="48.4014067" lon="-2.0154423">
        <ele>30.315</ele>
        <time>2018-08-22T08:34:20.400Z</time>
      </trkpt>
      <trkpt lat="48.4013859" lon="-2.0156003">
        <ele>30.809</ele>
        <time>2018-08-22T08:34:25.323Z</time>
      </trkpt>
      <trkpt lat="48.4013646" lon="-2.0157587">
        <ele>31.387</ele>
        <time>2018-08-22T08:34:30.190Z</time>
      </trkpt>
      <trkpt lat="48.4013506" lon="-2.0159189">
        <ele>32.076</ele>
        <time>2018-08-22T08:34:34.988Z</time>
      </trkpt>
      <trkpt lat="48.4013379" lon="-2.0160823">
        <ele>32.770</ele>
        <time>2018-08-22T08:34:39.903Z</time>
      </trkpt>
      <trkpt lat="48.4013352" lon="-2.0162415">
        <ele>33.382</ele>
        <time>2018-08-22T08:34:44.682Z</time>
      </trkpt>
      <trkpt lat="48.4013299" lon="-2.0164101">
        <ele>33.947</ele>
        <time>2018-08-22T08:34:49.605Z</time>
      </trkpt>
      <trkpt lat="48.4013222" lon="-2.0165587">
        <ele>34.497</ele>
        <time>2018-08-22T08:34:53.997Z</time>
      </trkpt>
      <trkpt lat="48.4013126" lon="-2.0166939">
        <ele>34.978</ele>
        <time>2018-08-22T08:34:58.954Z</time>
      </trkpt>
      <trkpt lat="48.4012892" lon="-2.0165577">
        <ele>35.313</ele>
        <time>2018-08-22T08:35:04.083Z</time>
      </trkpt>
      <trkpt lat="48.4013073" lon="-2.0164147">
        <ele>35.509</ele>
        <time>2018-08-22T08:35:09.641Z</time>
      </trkpt>
      <trkpt lat="48.4013147" lon="-2.0162545">
        <ele>35.647</ele>
        <time>2018-08-22T08:35:14.997Z</time>
      </trkpt>
      <trkpt lat="48.4013147" lon="-2.0162545">
        <ele>35.742</ele>
        <time>2018-08-22T08:35:15.997Z</time>
      </trkpt>
      <trkpt lat="48.4013147" lon="-2.0162545">
        <ele>35.754</ele>
        <time>2018-08-22T08:35:16.097Z</time>
      </trkpt>
      <trkpt lat="48.4013262" lon="-2.0159677">
        <ele>35.703</ele>
        <time>2018-08-22T08:35:23.783Z</time>
      </trkpt>
      <trkpt lat="48.4013365" lon="-2.0158188">
        <ele>35.638</ele>
        <time>2018-08-22T08:35:26.616Z</time>
      </trkpt>
      <trkpt lat="48.4013519" lon="-2.0156556">
        <ele>35.434</ele>
        <time>2018-08-22T08:35:30.774Z</time>
      </trkpt>
      <trkpt lat="48.4013773" lon="-2.0155207">
        <ele>34.980</ele>
        <time>2018-08-22T08:35:34.997Z</time>
      </trkpt>
      <trkpt lat="48.4013773" lon="-2.0155207">
        <ele>34.455</ele>
        <time>2018-08-22T08:35:36.997Z</time>
      </trkpt>
      <trkpt lat="48.4013773" lon="-2.0155207">
        <ele>34.170</ele>
        <time>2018-08-22T08:35:37.097Z</time>
      </trkpt>
      <trkpt lat="48.4013642" lon="-2.0158435">
        <ele>34.253</ele>
        <time>2018-08-22T08:35:52.941Z</time>
      </trkpt>
      <trkpt lat="48.4013539" lon="-2.0159895">
        <ele>34.615</ele>
        <time>2018-08-22T08:35:58.481Z</time>
      </trkpt>
      <trkpt lat="48.4013484" lon="-2.0161351">
        <ele>35.059</ele>
        <time>2018-08-22T08:36:04.200Z</time>
      </trkpt>
      <trkpt lat="48.4013285" lon="-2.0162864">
        <ele>35.503</ele>
        <time>2018-08-22T08:36:09.727Z</time>
      </trkpt>
      <trkpt lat="48.4013224" lon="-2.0164245">
        <ele>35.929</ele>
        <time>2018-08-22T08:36:14.361Z</time>
      </trkpt>
      <trkpt lat="48.4013200" lon="-2.0165733">
        <ele>36.439</ele>
        <time>2018-08-22T08:36:19.123Z</time>
      </trkpt>
      <trkpt lat="48.4013185" lon="-2.0167137">
        <ele>37.102</ele>
        <time>2018-08-22T08:36:23.591Z</time>
      </trkpt>
      <trkpt lat="48.4013150" lon="-2.0168527">
        <ele>37.705</ele>
        <time>2018-08-22T08:36:27.941Z</time>
      </trkpt>
      <trkpt lat="48.4013127" lon="-2.0170062">
        <ele>38.018</ele>
        <time>2018-08-22T08:36:32.547Z</time>
      </trkpt>
      <trkpt lat="48.4013073" lon="-2.0171739">
        <ele>38.105</ele>
        <time>2018-08-22T08:36:37.366Z</time>
      </trkpt>
      <trkpt lat="48.4013020" lon="-2.0173119">
        <ele>38.127</ele>
        <time>2018-08-22T08:36:41.186Z</time>
      </trkpt>
      <trkpt lat="48.4012986" lon="-2.0174554">
        <ele>38.234</ele>
        <time>2018-08-22T08:36:45.207Z</time>
      </trkpt>
      <trkpt lat="48.4012861" lon="-2.0176212">
        <ele>38.412</ele>
        <time>2018-08-22T08:36:49.891Z</time>
      </trkpt>
      <trkpt lat="48.4012898" lon="-2.0177635">
        <ele>38.522</ele>
        <time>2018-08-22T08:36:53.777Z</time>
      </trkpt>
      <trkpt lat="48.4012855" lon="-2.0179058">
        <ele>38.497</ele>
        <time>2018-08-22T08:36:57.399Z</time>
      </trkpt>
      <trkpt lat="48.4012833" lon="-2.0180852">
        <ele>38.490</ele>
        <time>2018-08-22T08:37:01.545Z</time>
      </trkpt>
      <trkpt lat="48.4012790" lon="-2.0182280">
        <ele>38.736</ele>
        <time>2018-08-22T08:37:04.591Z</time>
      </trkpt>
      <trkpt lat="48.4012730" lon="-2.0183766">
        <ele>39.196</ele>
        <time>2018-08-22T08:37:07.657Z</time>
      </trkpt>
      <trkpt lat="48.4012721" lon="-2.0185246">
        <ele>39.569</ele>
        <time>2018-08-22T08:37:10.660Z</time>
      </trkpt>
      <trkpt lat="48.4012691" lon="-2.0186682">
        <ele>39.682</ele>
        <time>2018-08-22T08:37:13.537Z</time>
      </trkpt>
      <trkpt lat="48.4012717" lon="-2.0188144">
        <ele>39.619</ele>
        <time>2018-08-22T08:37:16.455Z</time>
      </trkpt>
      <trkpt lat="48.4012820" lon="-2.0189531">
        <ele>39.556</ele>
        <time>2018-08-22T08:37:19.266Z</time>
      </trkpt>
      <trkpt lat="48.4013005" lon="-2.0190866">
        <ele>39.615</ele>
        <time>2018-08-22T08:37:22.034Z</time>
      </trkpt>
      <trkpt lat="48.4013247" lon="-2.0192189">
        <ele>39.813</ele>
        <time>2018-08-22T08:37:24.893Z</time>
      </trkpt>
      <trkpt lat="48.4013650" lon="-2.0193759">
        <ele>40.158</ele>
        <time>2018-08-22T08:37:28.480Z</time>
      </trkpt>
      <trkpt lat="48.4014225" lon="-2.0195284">
        <ele>40.605</ele>
        <time>2018-08-22T08:37:32.298Z</time>
      </trkpt>
      <trkpt lat="48.4014713" lon="-2.0196706">
        <ele>41.151</ele>
        <time>2018-08-22T08:37:35.899Z</time>
      </trkpt>
      <trkpt lat="48.4015166" lon="-2.0198020">
        <ele>41.932</ele>
        <time>2018-08-22T08:37:39.433Z</time>
      </trkpt>
      <trkpt lat="48.4015459" lon="-2.0199384">
        <ele>42.912</ele>
        <time>2018-08-22T08:37:43.054Z</time>
      </trkpt>
      <trkpt lat="48.4015787" lon="-2.0200823">
        <ele>43.745</ele>
        <time>2018-08-22T08:37:46.994Z</time>
      </trkpt>
      <trkpt lat="48.4015787" lon="-2.0200823">
        <ele>44.160</ele>
        <time>2018-08-22T08:37:48.994Z</time>
      </trkpt>
      <trkpt lat="48.4015787" lon="-2.0200823">
        <ele>44.200</ele>
        <time>2018-08-22T08:37:49.094Z</time>
      </trkpt>
      <trkpt lat="48.4016343" lon="-2.0203717">
        <ele>44.111</ele>
        <time>2018-08-22T08:38:00.002Z</time>
      </trkpt>
      <trkpt lat="48.4016512" lon="-2.0205111">
        <ele>44.104</ele>
        <time>2018-08-22T08:38:04.929Z</time>
      </trkpt>
      <trkpt lat="48.4016092" lon="-2.0203837">
        <ele>44.213</ele>
        <time>2018-08-22T08:38:10.000Z</time>
      </trkpt>
      <trkpt lat="48.4016058" lon="-2.0202484">
        <ele>44.231</ele>
        <time>2018-08-22T08:38:14.313Z</time>
      </trkpt>
      <trkpt lat="48.4015413" lon="-2.0201366">
        <ele>43.984</ele>
        <time>2018-08-22T08:38:18.993Z</time>
      </trkpt>
      <trkpt lat="48.4015413" lon="-2.0201366">
        <ele>43.616</ele>
        <time>2018-08-22T08:38:30.993Z</time>
      </trkpt>
      <trkpt lat="48.4015413" lon="-2.0201366">
        <ele>43.400</ele>
        <time>2018-08-22T08:38:31.093Z</time>
      </trkpt>
      <trkpt lat="48.4016286" lon="-2.0204028">
        <ele>43.397</ele>
        <time>2018-08-22T08:38:40.699Z</time>
      </trkpt>
      <trkpt lat="48.4016462" lon="-2.0205692">
        <ele>43.472</ele>
        <time>2018-08-22T08:38:44.180Z</time>
      </trkpt>
      <trkpt lat="48.4016576" lon="-2.0207167">
        <ele>43.504</ele>
        <time>2018-08-22T08:38:47.198Z</time>
      </trkpt>
      <trkpt lat="48.4016762" lon="-2.0208818">
        <ele>43.546</ele>
        <time>2018-08-22T08:38:50.476Z</time>
      </trkpt>
      <trkpt lat="48.4016717" lon="-2.0210290">
        <ele>43.801</ele>
        <time>2018-08-22T08:38:53.159Z</time>
      </trkpt>
      <trkpt lat="48.4016737" lon="-2.0211738">
        <ele>44.401</ele>
        <time>2018-08-22T08:38:55.671Z</time>
      </trkpt>
      <trkpt lat="48.4016814" lon="-2.0213104">
        <ele>45.220</ele>
        <time>2018-08-22T08:38:57.993Z</time>
      </trkpt>
      <trkpt lat="48.4016814" lon="-2.0213104">
        <ele>45.941</ele>
        <time>2018-08-22T08:39:00.992Z</time>
      </trkpt>
      <trkpt lat="48.4016814" lon="-2.0213104">
        <ele>46.278</ele>
        <time>2018-08-22T08:39:01.092Z</time>
      </trkpt>
      <trkpt lat="48.4016969" lon="-2.0216513">
        <ele>46.223</ele>
        <time>2018-08-22T08:39:11.717Z</time>
      </trkpt>
      <trkpt lat="48.4017065" lon="-2.0218084">
        <ele>46.095</ele>
        <time>2018-08-22T08:39:15.768Z</time>
      </trkpt>
      <trkpt lat="48.4017160" lon="-2.0219507">
        <ele>46.139</ele>
        <time>2018-08-22T08:39:19.583Z</time>
      </trkpt>
      <trkpt lat="48.4017285" lon="-2.0221176">
        <ele>46.275</ele>
        <time>2018-08-22T08:39:24.136Z</time>
      </trkpt>
      <trkpt lat="48.4017423" lon="-2.0222641">
        <ele>46.371</ele>
        <time>2018-08-22T08:39:28.029Z</time>
      </trkpt>
      <trkpt lat="48.4017527" lon="-2.0224173">
        <ele>46.499</ele>
        <time>2018-08-22T08:39:31.940Z</time>
      </trkpt>
      <trkpt lat="48.4017639" lon="-2.0225769">
        <ele>46.782</ele>
        <time>2018-08-22T08:39:35.855Z</time>
      </trkpt>
      <trkpt lat="48.4017767" lon="-2.0227444">
        <ele>47.148</ele>
        <time>2018-08-22T08:39:39.936Z</time>
      </trkpt>
      <trkpt lat="48.4017863" lon="-2.0229012">
        <ele>47.447</ele>
        <time>2018-08-22T08:39:43.821Z</time>
      </trkpt>
      <trkpt lat="48.4017972" lon="-2.0230503">
        <ele>47.677</ele>
        <time>2018-08-22T08:39:47.558Z</time>
      </trkpt>
      <trkpt lat="48.4018050" lon="-2.0232000">
        <ele>47.928</ele>
        <time>2018-08-22T08:39:51.257Z</time>
      </trkpt>
      <trkpt lat="48.4018182" lon="-2.0233572">
        <ele>48.295</ele>
        <time>2018-08-22T08:39:55.053Z</time>
      </trkpt>
      <trkpt lat="48.4018251" lon="-2.0235248">
        <ele>48.785</ele>
        <time>2018-08-22T08:39:59.060Z</time>
      </trkpt>
      <trkpt lat="48.4018260" lon="-2.0236837">
        <ele>49.245</ele>
        <time>2018-08-22T08:40:02.904Z</time>
      </trkpt>
      <trkpt lat="48.4018369" lon="-2.0238420">
        <ele>49.668</ele>
        <time>2018-08-22T08:40:06.762Z</time>
      </trkpt>
      <trkpt lat="48.4018428" lon="-2.0240020">
        <ele>50.156</ele>
        <time>2018-08-22T08:40:10.587Z</time>
      </trkpt>
      <trkpt lat="48.4018572" lon="-2.0241672">
        <ele>50.595</ele>
        <time>2018-08-22T08:40:14.454Z</time>
      </trkpt>
      <trkpt lat="48.4018702" lon="-2.0243381">
        <ele>50.841</ele>
        <time>2018-08-22T08:40:18.352Z</time>
      </trkpt>
      <trkpt lat="48.4018784" lon="-2.0245107">
        <ele>50.985</ele>
        <time>2018-08-22T08:40:22.251Z</time>
      </trkpt>
      <trkpt lat="48.4018894" lon="-2.0246739">
        <ele>51.163</ele>
        <time>2018-08-22T08:40:25.909Z</time>
      </trkpt>
      <trkpt lat="48.4018959" lon="-2.0248450">
        <ele>51.392</ele>
        <time>2018-08-22T08:40:29.733Z</time>
      </trkpt>
      <trkpt lat="48.4019106" lon="-2.0250124">
        <ele>51.697</ele>
        <time>2018-08-22T08:40:33.551Z</time>
      </trkpt>
      <trkpt lat="48.4019301" lon="-2.0251765">
        <ele>52.148</ele>
        <time>2018-08-22T08:40:37.343Z</time>
      </trkpt>
      <trkpt lat="48.4019565" lon="-2.0253403">
        <ele>52.672</ele>
        <time>2018-08-22T08:40:41.180Z</time>
      </trkpt>
      <trkpt lat="48.4019897" lon="-2.0254971">
        <ele>53.173</ele>
        <time>2018-08-22T08:40:44.920Z</time>
      </trkpt>
      <trkpt lat="48.4020285" lon="-2.0256583">
        <ele>53.638</ele>
        <time>2018-08-22T08:40:48.669Z</time>
      </trkpt>
      <trkpt lat="48.4020707" lon="-2.0257894">
        <ele>54.177</ele>
        <time>2018-08-22T08:40:51.706Z</time>
      </trkpt>
      <trkpt lat="48.4021084" lon="-2.0259458">
        <ele>54.858</ele>
        <time>2018-08-22T08:40:55.228Z</time>
      </trkpt>
      <trkpt lat="48.4021476" lon="-2.0261101">
        <ele>55.448</ele>
        <time>2018-08-22T08:40:59.101Z</time>
      </trkpt>
      <trkpt lat="48.4021847" lon="-2.0262704">
        <ele>55.588</ele>
        <time>2018-08-22T08:41:02.966Z</time>
      </trkpt>
      <trkpt lat="48.4022142" lon="-2.0264277">
        <ele>55.258</ele>
        <time>2018-08-22T08:41:06.769Z</time>
      </trkpt>
      <trkpt lat="48.4022541" lon="-2.0265846">
        <ele>54.728</ele>
        <time>2018-08-22T08:41:10.659Z</time>
      </trkpt>
      <trkpt lat="48.4022951" lon="-2.0267441">
        <ele>54.304</ele>
        <time>2018-08-22T08:41:14.556Z</time>
      </trkpt>
      <trkpt lat="48.4023471" lon="-2.0268876">
        <ele>54.331</ele>
        <time>2018-08-22T08:41:18.311Z</time>
      </trkpt>
      <trkpt lat="48.4023734" lon="-2.0270182">
        <ele>55.155</ele>
        <time>2018-08-22T08:41:21.657Z</time>
      </trkpt>
      <trkpt lat="48.4024332" lon="-2.0271552">
        <ele>56.512</ele>
        <time>2018-08-22T08:41:25.749Z</time>
      </trkpt>
      <trkpt lat="48.4025113" lon="-2.0272290">
        <ele>57.660</ele>
        <time>2018-08-22T08:41:29.039Z</time>
      </trkpt>
      <trkpt lat="48.4026173" lon="-2.0272994">
        <ele>58.361</ele>
        <time>2018-08-22T08:41:33.143Z</time>
      </trkpt>
      <trkpt lat="48.4027229" lon="-2.0273576">
        <ele>58.897</ele>
        <time>2018-08-22T08:41:37.176Z</time>
      </trkpt>
      <trkpt lat="48.4028077" lon="-2.0274529">
        <ele>59.432</ele>
        <time>2018-08-22T08:41:40.998Z</time>
      </trkpt>
      <trkpt lat="48.4028077" lon="-2.0274529">
        <ele>59.882</ele>
        <time>2018-08-22T08:41:42.998Z</time>
      </trkpt>
      <trkpt lat="48.4028077" lon="-2.0274529">
        <ele>60.099</ele>
        <time>2018-08-22T08:41:43.098Z</time>
      </trkpt>
      <trkpt lat="48.4029053" lon="-2.0277248">
        <ele>60.053</ele>
        <time>2018-08-22T08:41:54.685Z</time>
      </trkpt>
      <trkpt lat="48.4029328" lon="-2.0278792">
        <ele>60.205</ele>
        <time>2018-08-22T08:41:59.089Z</time>
      </trkpt>
      <trkpt lat="48.4029597" lon="-2.0280315">
        <ele>60.927</ele>
        <time>2018-08-22T08:42:03.515Z</time>
      </trkpt>
      <trkpt lat="48.4029987" lon="-2.0281813">
        <ele>61.828</ele>
        <time>2018-08-22T08:42:08.750Z</time>
      </trkpt>
      <trkpt lat="48.4030264" lon="-2.0283256">
        <ele>62.377</ele>
        <time>2018-08-22T08:42:14.332Z</time>
      </trkpt>
      <trkpt lat="48.4030560" lon="-2.0284696">
        <ele>62.548</ele>
        <time>2018-08-22T08:42:20.261Z</time>
      </trkpt>
      <trkpt lat="48.4030019" lon="-2.0283487">
        <ele>62.589</ele>
        <time>2018-08-22T08:42:25.886Z</time>
      </trkpt>
      <trkpt lat="48.4029776" lon="-2.0282058">
        <ele>62.797</ele>
        <time>2018-08-22T08:42:30.735Z</time>
      </trkpt>
      <trkpt lat="48.4029477" lon="-2.0280595">
        <ele>63.194</ele>
        <time>2018-08-22T08:42:34.726Z</time>
      </trkpt>
      <trkpt lat="48.4029168" lon="-2.0279089">
        <ele>63.429</ele>
        <time>2018-08-22T08:42:38.103Z</time>
      </trkpt>
      <trkpt lat="48.4028810" lon="-2.0277468">
        <ele>63.174</ele>
        <time>2018-08-22T08:42:41.540Z</time>
      </trkpt>
      <trkpt lat="48.4028400" lon="-2.0275862">
        <ele>62.509</ele>
        <time>2018-08-22T08:42:45.526Z</time>
      </trkpt>
      <trkpt lat="48.4027861" lon="-2.0274541">
        <ele>61.772</ele>
        <time>2018-08-22T08:42:50.416Z</time>
      </trkpt>
      <trkpt lat="48.4028618" lon="-2.0275580">
        <ele>61.233</ele>
        <time>2018-08-22T08:42:55.280Z</time>
      </trkpt>
      <trkpt lat="48.4029040" lon="-2.0277164">
        <ele>61.027</ele>
        <time>2018-08-22T08:43:00.998Z</time>
      </trkpt>
      <trkpt lat="48.4029040" lon="-2.0277164">
        <ele>61.109</ele>
        <time>2018-08-22T08:43:02.998Z</time>
      </trkpt>
      <trkpt lat="48.4029040" lon="-2.0277164">
        <ele>61.229</ele>
        <time>2018-08-22T08:43:03.098Z</time>
      </trkpt>
      <trkpt lat="48.4029567" lon="-2.0279944">
        <ele>61.209</ele>
        <time>2018-08-22T08:43:14.352Z</time>
      </trkpt>
      <trkpt lat="48.4029758" lon="-2.0281280">
        <ele>61.288</ele>
        <time>2018-08-22T08:43:18.366Z</time>
      </trkpt>
      <trkpt lat="48.4030176" lon="-2.0282818">
        <ele>61.679</ele>
        <time>2018-08-22T08:43:23.059Z</time>
      </trkpt>
      <trkpt lat="48.4030467" lon="-2.0284272">
        <ele>62.104</ele>
        <time>2018-08-22T08:43:27.183Z</time>
      </trkpt>
      <trkpt lat="48.4030881" lon="-2.0285680">
        <ele>62.272</ele>
        <time>2018-08-22T08:43:31.307Z</time>
      </trkpt>
      <trkpt lat="48.4031284" lon="-2.0287056">
        <ele>62.282</ele>
        <time>2018-08-22T08:43:35.232Z</time>
      </trkpt>
      <trkpt lat="48.4031755" lon="-2.0288566">
        <ele>62.300</ele>
        <time>2018-08-22T08:43:39.593Z</time>
      </trkpt>
      <trkpt lat="48.4032238" lon="-2.0289894">
        <ele>62.386</ele>
        <time>2018-08-22T08:43:43.675Z</time>
      </trkpt>
      <trkpt lat="48.4032664" lon="-2.0291174">
        <ele>62.564</ele>
        <time>2018-08-22T08:43:47.606Z</time>
      </trkpt>
      <trkpt lat="48.4033031" lon="-2.0292462">
        <ele>62.876</ele>
        <time>2018-08-22T08:43:51.468Z</time>
      </trkpt>
      <trkpt lat="48.4033347" lon="-2.0293756">
        <ele>63.380</ele>
        <time>2018-08-22T08:43:55.233Z</time>
      </trkpt>
      <trkpt lat="48.4033717" lon="-2.0295093">
        <ele>64.058</ele>
        <time>2018-08-22T08:43:59.166Z</time>
      </trkpt>
      <trkpt lat="48.4034050" lon="-2.0296513">
        <ele>64.700</ele>
        <time>2018-08-22T08:44:03.207Z</time>
      </trkpt>
      <trkpt lat="48.4034524" lon="-2.0297886">
        <ele>65.072</ele>
        <time>2018-08-22T08:44:07.305Z</time>
      </trkpt>
      <trkpt lat="48.4034986" lon="-2.0299252">
        <ele>65.170</ele>
        <time>2018-08-22T08:44:11.347Z</time>
      </trkpt>
      <trkpt lat="48.4035406" lon="-2.0300679">
        <ele>65.227</ele>
        <time>2018-08-22T08:44:15.464Z</time>
      </trkpt>
      <trkpt lat="48.4035830" lon="-2.0302107">
        <ele>65.428</ele>
        <time>2018-08-22T08:44:19.560Z</time>
      </trkpt>
      <trkpt lat="48.4036251" lon="-2.0303515">
        <ele>65.735</ele>
        <time>2018-08-22T08:44:23.457Z</time>
      </trkpt>
      <trkpt lat="48.4036736" lon="-2.0304958">
        <ele>66.002</ele>
        <time>2018-08-22T08:44:27.134Z</time>
      </trkpt>
      <trkpt lat="48.4037082" lon="-2.0306280">
        <ele>66.184</ele>
        <time>2018-08-22T08:44:30.292Z</time>
      </trkpt>
      <trkpt lat="48.4037380" lon="-2.0307673">
        <ele>66.314</ele>
        <time>2018-08-22T08:44:33.777Z</time>
      </trkpt>
      <trkpt lat="48.4037518" lon="-2.0309268">
        <ele>66.415</ele>
        <time>2018-08-22T08:44:37.989Z</time>
      </trkpt>
      <trkpt lat="48.4037857" lon="-2.0310531">
        <ele>66.508</ele>
        <time>2018-08-22T08:44:41.696Z</time>
      </trkpt>
      <trkpt lat="48.4038199" lon="-2.0311833">
        <ele>66.633</ele>
        <time>2018-08-22T08:44:45.506Z</time>
      </trkpt>
      <trkpt lat="48.4038478" lon="-2.0313201">
        <ele>66.784</ele>
        <time>2018-08-22T08:44:49.373Z</time>
      </trkpt>
      <trkpt lat="48.4038706" lon="-2.0314614">
        <ele>67.000</ele>
        <time>2018-08-22T08:44:53.281Z</time>
      </trkpt>
      <trkpt lat="48.4039035" lon="-2.0315966">
        <ele>67.404</ele>
        <time>2018-08-22T08:44:57.134Z</time>
      </trkpt>
      <trkpt lat="48.4039355" lon="-2.0317373">
        <ele>67.957</ele>
        <time>2018-08-22T08:45:01.089Z</time>
      </trkpt>
      <trkpt lat="48.4039760" lon="-2.0318732">
        <ele>68.437</ele>
        <time>2018-08-22T08:45:05.006Z</time>
      </trkpt>
      <trkpt lat="48.4040098" lon="-2.0320170">
        <ele>68.707</ele>
        <time>2018-08-22T08:45:08.962Z</time>
      </trkpt>
      <trkpt lat="48.4040536" lon="-2.0321589">
        <ele>68.854</ele>
        <time>2018-08-22T08:45:12.948Z</time>
      </trkpt>
      <trkpt lat="48.4040887" lon="-2.0323048">
        <ele>69.060</ele>
        <time>2018-08-22T08:45:16.824Z</time>
      </trkpt>
      <trkpt lat="48.4041295" lon="-2.0324550">
        <ele>69.365</ele>
        <time>2018-08-22T08:45:20.882Z</time>
      </trkpt>
      <trkpt lat="48.4041582" lon="-2.0326070">
        <ele>69.667</ele>
        <time>2018-08-22T08:45:24.904Z</time>
      </trkpt>
      <trkpt lat="48.4041781" lon="-2.0327610">
        <ele>69.994</ele>
        <time>2018-08-22T08:45:28.932Z</time>
      </trkpt>
      <trkpt lat="48.4042032" lon="-2.0329133">
        <ele>70.530</ele>
        <time>2018-08-22T08:45:32.992Z</time>
      </trkpt>
      <trkpt lat="48.4042257" lon="-2.0330654">
        <ele>71.318</ele>
        <time>2018-08-22T08:45:37.026Z</time>
      </trkpt>
      <trkpt lat="48.4042492" lon="-2.0332163">
        <ele>72.113</ele>
        <time>2018-08-22T08:45:41.030Z</time>
      </trkpt>
      <trkpt lat="48.4042712" lon="-2.0333689">
        <ele>72.769</ele>
        <time>2018-08-22T08:45:45.110Z</time>
      </trkpt>
      <trkpt lat="48.4042927" lon="-2.0335148">
        <ele>73.347</ele>
        <time>2018-08-22T08:45:49.036Z</time>
      </trkpt>
      <trkpt lat="48.4043111" lon="-2.0336638">
        <ele>73.875</ele>
        <time>2018-08-22T08:45:52.988Z</time>
      </trkpt>
      <trkpt lat="48.4043413" lon="-2.0338114">
        <ele>74.380</ele>
        <time>2018-08-22T08:45:56.996Z</time>
      </trkpt>
      <trkpt lat="48.4043741" lon="-2.0339562">
        <ele>74.903</ele>
        <time>2018-08-22T08:46:00.994Z</time>
      </trkpt>
      <trkpt lat="48.4044014" lon="-2.0341008">
        <ele>75.424</ele>
        <time>2018-08-22T08:46:04.893Z</time>
      </trkpt>
      <trkpt lat="48.4044331" lon="-2.0342496">
        <ele>75.927</ele>
        <time>2018-08-22T08:46:08.818Z</time>
      </trkpt>
      <trkpt lat="48.4044659" lon="-2.0344094">
        <ele>76.333</ele>
        <time>2018-08-22T08:46:12.977Z</time>
      </trkpt>
      <trkpt lat="48.4044962" lon="-2.0345709">
        <ele>76.560</ele>
        <time>2018-08-22T08:46:17.243Z</time>
      </trkpt>
      <trkpt lat="48.4045178" lon="-2.0347233">
        <ele>76.644</ele>
        <time>2018-08-22T08:46:21.213Z</time>
      </trkpt>
      <trkpt lat="48.4045518" lon="-2.0348766">
        <ele>76.735</ele>
        <time>2018-08-22T08:46:25.311Z</time>
      </trkpt>
      <trkpt lat="48.4045815" lon="-2.0350278">
        <ele>76.963</ele>
        <time>2018-08-22T08:46:29.376Z</time>
      </trkpt>
      <trkpt lat="48.4046115" lon="-2.0351736">
        <ele>77.354</ele>
        <time>2018-08-22T08:46:33.595Z</time>
      </trkpt>
      <trkpt lat="48.4046415" lon="-2.0353205">
        <ele>77.831</ele>
        <time>2018-08-22T08:46:38.583Z</time>
      </trkpt>
      <trkpt lat="48.4046654" lon="-2.0354692">
        <ele>78.277</ele>
        <time>2018-08-22T08:46:44.161Z</time>
      </trkpt>
      <trkpt lat="48.4046001" lon="-2.0353651">
        <ele>78.601</ele>
        <time>2018-08-22T08:46:47.919Z</time>
      </trkpt>
      <trkpt lat="48.4045805" lon="-2.0352159">
        <ele>78.773</ele>
        <time>2018-08-22T08:46:50.834Z</time>
      </trkpt>
      <trkpt lat="48.4045502" lon="-2.0350479">
        <ele>78.817</ele>
        <time>2018-08-22T08:46:53.631Z</time>
      </trkpt>
      <trkpt lat="48.4045126" lon="-2.0348603">
        <ele>78.778</ele>
        <time>2018-08-22T08:46:56.535Z</time>
      </trkpt>
      <trkpt lat="48.4044699" lon="-2.0346482">
        <ele>78.675</ele>
        <time>2018-08-22T08:46:59.902Z</time>
      </trkpt>
      <trkpt lat="48.4044344" lon="-2.0344623">
        <ele>78.467</ele>
        <time>2018-08-22T08:47:03.259Z</time>
      </trkpt>
      <trkpt lat="48.4044025" lon="-2.0342962">
        <ele>78.094</ele>
        <time>2018-08-22T08:47:07.212Z</time>
      </trkpt>
      <trkpt lat="48.4043729" lon="-2.0341675">
        <ele>77.623</ele>
        <time>2018-08-22T08:47:10.513Z</time>
      </trkpt>
      <trkpt lat="48.4044450" lon="-2.0342763">
        <ele>77.206</ele>
        <time>2018-08-22T08:47:14.242Z</time>
      </trkpt>
      <trkpt lat="48.4044744" lon="-2.0344206">
        <ele>76.930</ele>
        <time>2018-08-22T08:47:18.256Z</time>
      </trkpt>
      <trkpt lat="48.4044941" lon="-2.0345534">
        <ele>76.812</ele>
        <time>2018-08-22T08:47:22.156Z</time>
      </trkpt>
      <trkpt lat="48.4045159" lon="-2.0346992">
        <ele>76.979</ele>
        <time>2018-08-22T08:47:26.688Z</time>
      </trkpt>
      <trkpt lat="48.4045438" lon="-2.0348398">
        <ele>77.476</ele>
        <time>2018-08-22T08:47:31.502Z</time>
      </trkpt>
      <trkpt lat="48.4045780" lon="-2.0349940">
        <ele>78.135</ele>
        <time>2018-08-22T08:47:36.877Z</time>
      </trkpt>
      <trkpt lat="48.4046051" lon="-2.0351245">
        <ele>78.765</ele>
        <time>2018-08-22T08:47:41.156Z</time>
      </trkpt>
      <trkpt lat="48.4046406" lon="-2.0352767">
        <ele>79.272</ele>
        <time>2018-08-22T08:47:46.077Z</time>
      </trkpt>
      <trkpt lat="48.4046619" lon="-2.0354107">
        <ele>79.619</ele>
        <time>2018-08-22T08:47:50.269Z</time>
      </trkpt>
      <trkpt lat="48.4046825" lon="-2.0355521">
        <ele>79.881</ele>
        <time>2018-08-22T08:47:54.532Z</time>
      </trkpt>
      <trkpt lat="48.4047019" lon="-2.0356996">
        <ele>80.153</ele>
        <time>2018-08-22T08:47:58.779Z</time>
      </trkpt>
      <trkpt lat="48.4047194" lon="-2.0358426">
        <ele>80.462</ele>
        <time>2018-08-22T08:48:02.787Z</time>
      </trkpt>
      <trkpt lat="48.4047307" lon="-2.0360113">
        <ele>80.730</ele>
        <time>2018-08-22T08:48:07.524Z</time>
      </trkpt>
      <trkpt lat="48.4047343" lon="-2.0361698">
        <ele>80.906</ele>
        <time>2018-08-22T08:48:11.880Z</time>
      </trkpt>
      <trkpt lat="48.4047257" lon="-2.0363253">
        <ele>81.056</ele>
        <time>2018-08-22T08:48:15.990Z</time>
      </trkpt>
      <trkpt lat="48.4047136" lon="-2.0364852">
        <ele>81.214</ele>
        <time>2018-08-22T08:48:20.175Z</time>
      </trkpt>
      <trkpt lat="48.4047023" lon="-2.0366196">
        <ele>81.326</ele>
        <time>2018-08-22T08:48:23.533Z</time>
      </trkpt>
      <trkpt lat="48.4046882" lon="-2.0367689">
        <ele>81.283</ele>
        <time>2018-08-22T08:48:26.925Z</time>
      </trkpt>
      <trkpt lat="48.4046749" lon="-2.0369157">
        <ele>81.065</ele>
        <time>2018-08-22T08:48:30.014Z</time>
      </trkpt>
      <trkpt lat="48.4046580" lon="-2.0370606">
        <ele>80.908</ele>
        <time>2018-08-22T08:48:33.013Z</time>
      </trkpt>
      <trkpt lat="48.4046506" lon="-2.0372075">
        <ele>81.081</ele>
        <time>2018-08-22T08:48:35.998Z</time>
      </trkpt>
      <trkpt lat="48.4046506" lon="-2.0372075">
        <ele>81.496</ele>
        <time>2018-08-22T08:48:35.998Z</time>
      </trkpt>
      <trkpt lat="48.4046506" lon="-2.0372075">
        <ele>81.772</ele>
        <time>2018-08-22T08:48:36.060Z</time>
      </trkpt>
      <trkpt lat="48.4046403" lon="-2.0374575">
        <ele>81.727</ele>
        <time>2018-08-22T08:48:43.479Z</time>
      </trkpt>
      <trkpt lat="48.4046328" lon="-2.0376120">
        <ele>81.607</ele>
        <time>2018-08-22T08:48:46.559Z</time>
      </trkpt>
      <trkpt lat="48.4046506" lon="-2.0377588">
        <ele>81.655</ele>
        <time>2018-08-22T08:48:49.623Z</time>
      </trkpt>
      <trkpt lat="48.4046702" lon="-2.0378947">
        <ele>81.769</ele>
        <time>2018-08-22T08:48:52.636Z</time>
      </trkpt>
      <trkpt lat="48.4047088" lon="-2.0380571">
        <ele>81.784</ele>
        <time>2018-08-22T08:48:56.506Z</time>
      </trkpt>
      <trkpt lat="48.4047351" lon="-2.0382282">
        <ele>81.702</ele>
        <time>2018-08-22T08:49:00.580Z</time>
      </trkpt>
      <trkpt lat="48.4047506" lon="-2.0383919">
        <ele>81.606</ele>
        <time>2018-08-22T08:49:04.505Z</time>
      </trkpt>
      <trkpt lat="48.4047762" lon="-2.0385545">
        <ele>81.632</ele>
        <time>2018-08-22T08:49:08.567Z</time>
      </trkpt>
      <trkpt lat="48.4047950" lon="-2.0387128">
        <ele>82.060</ele>
        <time>2018-08-22T08:49:12.608Z</time>
      </trkpt>
      <trkpt lat="48.4047891" lon="-2.0388699">
        <ele>82.933</ele>
        <time>2018-08-22T08:49:16.600Z</time>
      </trkpt>
      <trkpt lat="48.4047703" lon="-2.0390308">
        <ele>83.794</ele>
        <time>2018-08-22T08:49:20.606Z</time>
      </trkpt>
      <trkpt lat="48.4047609" lon="-2.0391660">
        <ele>84.184</ele>
        <time>2018-08-22T08:49:23.777Z</time>
      </trkpt>
      <trkpt lat="48.4047538" lon="-2.0393396">
        <ele>84.088</ele>
        <time>2018-08-22T08:49:27.784Z</time>
      </trkpt>
      <trkpt lat="48.4047493" lon="-2.0394757">
        <ele>83.793</ele>
        <time>2018-08-22T08:49:30.893Z</time>
      </trkpt>
      <trkpt lat="48.4047538" lon="-2.0396554">
        <ele>83.568</ele>
        <time>2018-08-22T08:49:34.964Z</time>
      </trkpt>
      <trkpt lat="48.4047485" lon="-2.0398341">
        <ele>83.502</ele>
        <time>2018-08-22T08:49:38.945Z</time>
      </trkpt>
      <trkpt lat="48.4047427" lon="-2.0399720">
        <ele>83.555</ele>
        <time>2018-08-22T08:49:41.969Z</time>
      </trkpt>
      <trkpt lat="48.4047421" lon="-2.0401077">
        <ele>83.633</ele>
        <time>2018-08-22T08:49:44.965Z</time>
      </trkpt>
      <trkpt lat="48.4047433" lon="-2.0402860">
        <ele>83.662</ele>
        <time>2018-08-22T08:49:48.938Z</time>
      </trkpt>
      <trkpt lat="48.4047351" lon="-2.0404225">
        <ele>83.640</ele>
        <time>2018-08-22T08:49:52.050Z</time>
      </trkpt>
      <trkpt lat="48.4047315" lon="-2.0405949">
        <ele>83.622</ele>
        <time>2018-08-22T08:49:56.058Z</time>
      </trkpt>
      <trkpt lat="48.4047388" lon="-2.0407641">
        <ele>83.687</ele>
        <time>2018-08-22T08:50:00.085Z</time>
      </trkpt>
      <trkpt lat="48.4047459" lon="-2.0409331">
        <ele>83.834</ele>
        <time>2018-08-22T08:50:04.188Z</time>
      </trkpt>
      <trkpt lat="48.4047557" lon="-2.0410936">
        <ele>83.966</ele>
        <time>2018-08-22T08:50:08.262Z</time>
      </trkpt>
      <trkpt lat="48.4047597" lon="-2.0412437">
        <ele>84.054</ele>
        <time>2018-08-22T08:50:12.287Z</time>
      </trkpt>
      <trkpt lat="48.4047683" lon="-2.0413852">
        <ele>84.158</ele>
        <time>2018-08-22T08:50:16.439Z</time>
      </trkpt>
      <trkpt lat="48.4047900" lon="-2.0415357">
        <ele>84.281</ele>
        <time>2018-08-22T08:50:21.191Z</time>
      </trkpt>
      <trkpt lat="48.4048127" lon="-2.0416918">
        <ele>84.552</ele>
        <time>2018-08-22T08:50:26.757Z</time>
      </trkpt>
      <trkpt lat="48.4048040" lon="-2.0418315">
        <ele>85.088</ele>
        <time>2018-08-22T08:50:33.091Z</time>
      </trkpt>
      <trkpt lat="48.4047375" lon="-2.0417382">
        <ele>85.746</ele>
        <time>2018-08-22T08:50:40.044Z</time>
      </trkpt>
      <trkpt lat="48.4047932" lon="-2.0418629">
        <ele>86.360</ele>
        <time>2018-08-22T08:50:47.064Z</time>
      </trkpt>
      <trkpt lat="48.4047905" lon="-2.0420206">
        <ele>86.899</ele>
        <time>2018-08-22T08:50:53.623Z</time>
      </trkpt>
      <trkpt lat="48.4047986" lon="-2.0421799">
        <ele>87.303</ele>
        <time>2018-08-22T08:50:59.051Z</time>
      </trkpt>
      <trkpt lat="48.4047886" lon="-2.0423293">
        <ele>87.643</ele>
        <time>2018-08-22T08:51:04.137Z</time>
      </trkpt>
      <trkpt lat="48.4047781" lon="-2.0424852">
        <ele>88.066</ele>
        <time>2018-08-22T08:51:09.568Z</time>
      </trkpt>
      <trkpt lat="48.4047692" lon="-2.0426214">
        <ele>88.519</ele>
        <time>2018-08-22T08:51:14.059Z</time>
      </trkpt>
      <trkpt lat="48.4047652" lon="-2.0427621">
        <ele>88.711</ele>
        <time>2018-08-22T08:51:18.303Z</time>
      </trkpt>
      <trkpt lat="48.4047571" lon="-2.0429040">
        <ele>88.488</ele>
        <time>2018-08-22T08:51:22.428Z</time>
      </trkpt>
      <trkpt lat="48.4047443" lon="-2.0430454">
        <ele>88.006</ele>
        <time>2018-08-22T08:51:26.443Z</time>
      </trkpt>
      <trkpt lat="48.4047398" lon="-2.0431969">
        <ele>87.559</ele>
        <time>2018-08-22T08:51:30.587Z</time>
      </trkpt>
      <trkpt lat="48.4047430" lon="-2.0433564">
        <ele>87.340</ele>
        <time>2018-08-22T08:51:34.765Z</time>
      </trkpt>
      <trkpt lat="48.4047470" lon="-2.0435259">
        <ele>87.343</ele>
        <time>2018-08-22T08:51:39.003Z</time>
      </trkpt>
      <trkpt lat="48.4047615" lon="-2.0437005">
        <ele>87.430</ele>
        <time>2018-08-22T08:51:43.189Z</time>
      </trkpt>
      <trkpt lat="48.4047691" lon="-2.0438354">
        <ele>87.512</ele>
        <time>2018-08-22T08:51:46.300Z</time>
      </trkpt>
      <trkpt lat="48.4047798" lon="-2.0439750">
        <ele>87.583</ele>
        <time>2018-08-22T08:51:49.459Z</time>
      </trkpt>
      <trkpt lat="48.4047920" lon="-2.0441151">
        <ele>87.650</ele>
        <time>2018-08-22T08:51:52.570Z</time>
      </trkpt>
      <trkpt lat="48.4047953" lon="-2.0442947">
        <ele>87.683</ele>
        <time>2018-08-22T08:51:56.492Z</time>
      </trkpt>
      <trkpt lat="48.4048019" lon="-2.0444340">
        <ele>87.673</ele>
        <time>2018-08-22T08:51:59.541Z</time>
      </trkpt>
      <trkpt lat="48.4048084" lon="-2.0445754">
        <ele>87.655</ele>
        <time>2018-08-22T08:52:02.616Z</time>
      </trkpt>
      <trkpt lat="48.4048135" lon="-2.0447244">
        <ele>87.629</ele>
        <time>2018-08-22T08:52:05.795Z</time>
      </trkpt>
      <trkpt lat="48.4048151" lon="-2.0448775">
        <ele>87.705</ele>
        <time>2018-08-22T08:52:08.966Z</time>
      </trkpt>
      <trkpt lat="48.4048116" lon="-2.0450213">
        <ele>87.922</ele>
        <time>2018-08-22T08:52:11.893Z</time>
      </trkpt>
      <trkpt lat="48.4048132" lon="-2.0451697">
        <ele>88.107</ele>
        <time>2018-08-22T08:52:14.914Z</time>
      </trkpt>
      <trkpt lat="48.4048081" lon="-2.0453241">
        <ele>88.071</ele>
        <time>2018-08-22T08:52:18.032Z</time>
      </trkpt>
      <trkpt lat="48.4047977" lon="-2.0454870">
        <ele>87.834</ele>
        <time>2018-08-22T08:52:21.245Z</time>
      </trkpt>
      <trkpt lat="48.4047846" lon="-2.0456597">
        <ele>87.530</ele>
        <time>2018-08-22T08:52:24.520Z</time>
      </trkpt>
      <trkpt lat="48.4047726" lon="-2.0458297">
        <ele>87.264</ele>
        <time>2018-08-22T08:52:27.635Z</time>
      </trkpt>
      <trkpt lat="48.4047558" lon="-2.0459939">
        <ele>87.073</ele>
        <time>2018-08-22T08:52:30.617Z</time>
      </trkpt>
      <trkpt lat="48.4047358" lon="-2.0461588">
        <ele>86.970</ele>
        <time>2018-08-22T08:52:33.617Z</time>
      </trkpt>
      <trkpt lat="48.4047163" lon="-2.0463196">
        <ele>86.946</ele>
        <time>2018-08-22T08:52:36.559Z</time>
      </trkpt>
      <trkpt lat="48.4046932" lon="-2.0464733">
        <ele>86.992</ele>
        <time>2018-08-22T08:52:39.426Z</time>
      </trkpt>
      <trkpt lat="48.4046704" lon="-2.0466350">
        <ele>87.102</ele>
        <time>2018-08-22T08:52:42.444Z</time>
      </trkpt>
      <trkpt lat="48.4046385" lon="-2.0468173">
        <ele>87.258</ele>
        <time>2018-08-22T08:52:45.766Z</time>
      </trkpt>
      <trkpt lat="48.4046058" lon="-2.0470157">
        <ele>87.467</ele>
        <time>2018-08-22T08:52:49.129Z</time>
      </trkpt>
      <trkpt lat="48.4045844" lon="-2.0472118">
        <ele>87.692</ele>
        <time>2018-08-22T08:52:52.223Z</time>
      </trkpt>
      <trkpt lat="48.4045661" lon="-2.0474226">
        <ele>87.843</ele>
        <time>2018-08-22T08:52:55.415Z</time>
      </trkpt>
      <trkpt lat="48.4045475" lon="-2.0476194">
        <ele>87.858</ele>
        <time>2018-08-22T08:52:58.337Z</time>
      </trkpt>
      <trkpt lat="48.4045202" lon="-2.0478300">
        <ele>87.634</ele>
        <time>2018-08-22T08:53:01.440Z</time>
      </trkpt>
      <trkpt lat="48.4044859" lon="-2.0480402">
        <ele>87.076</ele>
        <time>2018-08-22T08:53:04.505Z</time>
      </trkpt>
      <trkpt lat="48.4044443" lon="-2.0482553">
        <ele>86.350</ele>
        <time>2018-08-22T08:53:07.608Z</time>
      </trkpt>
      <trkpt lat="48.4043917" lon="-2.0484661">
        <ele>85.786</ele>
        <time>2018-08-22T08:53:10.681Z</time>
      </trkpt>
      <trkpt lat="48.4043310" lon="-2.0486687">
        <ele>85.429</ele>
        <time>2018-08-22T08:53:13.691Z</time>
      </trkpt>
      <trkpt lat="48.4042690" lon="-2.0488759">
        <ele>85.136</ele>
        <time>2018-08-22T08:53:16.758Z</time>
      </trkpt>
      <trkpt lat="48.4041995" lon="-2.0490755">
        <ele>84.831</ele>
        <time>2018-08-22T08:53:19.815Z</time>
      </trkpt>
      <trkpt lat="48.4041397" lon="-2.0492662">
        <ele>84.432</ele>
        <time>2018-08-22T08:53:22.720Z</time>
      </trkpt>
      <trkpt lat="48.4040823" lon="-2.0494486">
        <ele>83.948</ele>
        <time>2018-08-22T08:53:25.555Z</time>
      </trkpt>
      <trkpt lat="48.4040362" lon="-2.0496482">
        <ele>83.550</ele>
        <time>2018-08-22T08:53:28.566Z</time>
      </trkpt>
      <trkpt lat="48.4039837" lon="-2.0498503">
        <ele>83.344</ele>
        <time>2018-08-22T08:53:31.648Z</time>
      </trkpt>
      <trkpt lat="48.4039326" lon="-2.0500505">
        <ele>83.282</ele>
        <time>2018-08-22T08:53:34.652Z</time>
      </trkpt>
      <trkpt lat="48.4038823" lon="-2.0502649">
        <ele>83.240</ele>
        <time>2018-08-22T08:53:37.773Z</time>
      </trkpt>
      <trkpt lat="48.4038285" lon="-2.0504763">
        <ele>83.098</ele>
        <time>2018-08-22T08:53:40.826Z</time>
      </trkpt>
      <trkpt lat="48.4037751" lon="-2.0506975">
        <ele>82.857</ele>
        <time>2018-08-22T08:53:43.978Z</time>
      </trkpt>
      <trkpt lat="48.4037354" lon="-2.0509087">
        <ele>82.638</ele>
        <time>2018-08-22T08:53:46.949Z</time>
      </trkpt>
      <trkpt lat="48.4036970" lon="-2.0511039">
        <ele>82.531</ele>
        <time>2018-08-22T08:53:49.769Z</time>
      </trkpt>
      <trkpt lat="48.4036658" lon="-2.0513048">
        <ele>82.474</ele>
        <time>2018-08-22T08:53:52.717Z</time>
      </trkpt>
      <trkpt lat="48.4036419" lon="-2.0514953">
        <ele>82.376</ele>
        <time>2018-08-22T08:53:55.593Z</time>
      </trkpt>
      <trkpt lat="48.4036307" lon="-2.0516797">
        <ele>82.233</ele>
        <time>2018-08-22T08:53:58.438Z</time>
      </trkpt>
      <trkpt lat="48.4036063" lon="-2.0518633">
        <ele>82.119</ele>
        <time>2018-08-22T08:54:01.409Z</time>
      </trkpt>
      <trkpt lat="48.4035890" lon="-2.0520388">
        <ele>82.068</ele>
        <time>2018-08-22T08:54:04.303Z</time>
      </trkpt>
      <trkpt lat="48.4035790" lon="-2.0522116">
        <ele>82.019</ele>
        <time>2018-08-22T08:54:07.201Z</time>
      </trkpt>
      <trkpt lat="48.4035683" lon="-2.0523837">
        <ele>81.917</ele>
        <time>2018-08-22T08:54:10.147Z</time>
      </trkpt>
      <trkpt lat="48.4035589" lon="-2.0525474">
        <ele>81.810</ele>
        <time>2018-08-22T08:54:13.010Z</time>
      </trkpt>
      <trkpt lat="48.4035598" lon="-2.0527174">
        <ele>81.821</ele>
        <time>2018-08-22T08:54:16.034Z</time>
      </trkpt>
      <trkpt lat="48.4035654" lon="-2.0528828">
        <ele>81.979</ele>
        <time>2018-08-22T08:54:19.046Z</time>
      </trkpt>
      <trkpt lat="48.4035598" lon="-2.0530194">
        <ele>82.157</ele>
        <time>2018-08-22T08:54:21.654Z</time>
      </trkpt>
      <trkpt lat="48.4035631" lon="-2.0531827">
        <ele>82.123</ele>
        <time>2018-08-22T08:54:24.990Z</time>
      </trkpt>
      <trkpt lat="48.4035631" lon="-2.0531827">
        <ele>81.826</ele>
        <time>2018-08-22T08:54:26.990Z</time>
      </trkpt>
      <trkpt lat="48.4035631" lon="-2.0531827">
        <ele>81.545</ele>
        <time>2018-08-22T08:54:44.517Z</time>
      </trkpt>
      <trkpt lat="48.4035679" lon="-2.0534598">
        <ele>81.514</ele>
        <time>2018-08-22T08:54:56.294Z</time>
      </trkpt>
      <trkpt lat="48.4035840" lon="-2.0536012">
        <ele>81.557</ele>
        <time>2018-08-22T08:54:59.377Z</time>
      </trkpt>
      <trkpt lat="48.4035984" lon="-2.0537462">
        <ele>81.480</ele>
        <time>2018-08-22T08:55:02.290Z</time>
      </trkpt>
      <trkpt lat="48.4036167" lon="-2.0538990">
        <ele>81.377</ele>
        <time>2018-08-22T08:55:05.233Z</time>
      </trkpt>
      <trkpt lat="48.4036325" lon="-2.0540547">
        <ele>81.385</ele>
        <time>2018-08-22T08:55:08.211Z</time>
      </trkpt>
      <trkpt lat="48.4036477" lon="-2.0542001">
        <ele>81.479</ele>
        <time>2018-08-22T08:55:11.080Z</time>
      </trkpt>
      <trkpt lat="48.4036672" lon="-2.0543356">
        <ele>81.613</ele>
        <time>2018-08-22T08:55:13.858Z</time>
      </trkpt>
      <trkpt lat="48.4036838" lon="-2.0544722">
        <ele>81.815</ele>
        <time>2018-08-22T08:55:16.671Z</time>
      </trkpt>
      <trkpt lat="48.4037011" lon="-2.0546063">
        <ele>82.143</ele>
        <time>2018-08-22T08:55:19.454Z</time>
      </trkpt>
      <trkpt lat="48.4037223" lon="-2.0547433">
        <ele>82.561</ele>
        <time>2018-08-22T08:55:22.315Z</time>
      </trkpt>
      <trkpt lat="48.4037416" lon="-2.0548839">
        <ele>82.897</ele>
        <time>2018-08-22T08:55:25.219Z</time>
      </trkpt>
      <trkpt lat="48.4037587" lon="-2.0550246">
        <ele>83.144</ele>
        <time>2018-08-22T08:55:28.113Z</time>
      </trkpt>
      <trkpt lat="48.4037686" lon="-2.0551613">
        <ele>83.464</ele>
        <time>2018-08-22T08:55:30.914Z</time>
      </trkpt>
      <trkpt lat="48.4037719" lon="-2.0552974">
        <ele>83.899</ele>
        <time>2018-08-22T08:55:33.713Z</time>
      </trkpt>
      <trkpt lat="48.4037737" lon="-2.0554333">
        <ele>84.417</ele>
        <time>2018-08-22T08:55:36.523Z</time>
      </trkpt>
      <trkpt lat="48.4037683" lon="-2.0555706">
        <ele>84.943</ele>
        <time>2018-08-22T08:55:39.370Z</time>
      </trkpt>
      <trkpt lat="48.4037586" lon="-2.0557110">
        <ele>85.314</ele>
        <time>2018-08-22T08:55:42.269Z</time>
      </trkpt>
      <trkpt lat="48.4037453" lon="-2.0558525">
        <ele>85.511</ele>
        <time>2018-08-22T08:55:45.171Z</time>
      </trkpt>
      <trkpt lat="48.4037327" lon="-2.0559980">
        <ele>85.647</ele>
        <time>2018-08-22T08:55:48.113Z</time>
      </trkpt>
      <trkpt lat="48.4037268" lon="-2.0561394">
        <ele>85.774</ele>
        <time>2018-08-22T08:55:50.961Z</time>
      </trkpt>
      <trkpt lat="48.4037216" lon="-2.0563170">
        <ele>85.909</ele>
        <time>2018-08-22T08:55:54.578Z</time>
      </trkpt>
      <trkpt lat="48.4037235" lon="-2.0564567">
        <ele>86.104</ele>
        <time>2018-08-22T08:55:57.459Z</time>
      </trkpt>
      <trkpt lat="48.4037234" lon="-2.0565967">
        <ele>86.370</ele>
        <time>2018-08-22T08:56:00.340Z</time>
      </trkpt>
      <trkpt lat="48.4037230" lon="-2.0567390">
        <ele>86.711</ele>
        <time>2018-08-22T08:56:03.246Z</time>
      </trkpt>
      <trkpt lat="48.4037207" lon="-2.0568828">
        <ele>87.180</ele>
        <time>2018-08-22T08:56:06.158Z</time>
      </trkpt>
      <trkpt lat="48.4037188" lon="-2.0570241">
        <ele>87.760</ele>
        <time>2018-08-22T08:56:08.998Z</time>
      </trkpt>
      <trkpt lat="48.4037188" lon="-2.0570241">
        <ele>88.268</ele>
        <time>2018-08-22T08:56:08.998Z</time>
      </trkpt>
      <trkpt lat="48.4037188" lon="-2.0570241">
        <ele>88.493</ele>
        <time>2018-08-22T08:56:09.025Z</time>
      </trkpt>
      <trkpt lat="48.4037211" lon="-2.0572589">
        <ele>88.430</ele>
        <time>2018-08-22T08:56:16.394Z</time>
      </trkpt>
      <trkpt lat="48.4037315" lon="-2.0574048">
        <ele>88.374</ele>
        <time>2018-08-22T08:56:19.425Z</time>
      </trkpt>
      <trkpt lat="48.4037396" lon="-2.0575475">
        <ele>88.540</ele>
        <time>2018-08-22T08:56:22.409Z</time>
      </trkpt>
      <trkpt lat="48.4037420" lon="-2.0576884">
        <ele>88.777</ele>
        <time>2018-08-22T08:56:25.334Z</time>
      </trkpt>
      <trkpt lat="48.4037487" lon="-2.0578295">
        <ele>88.810</ele>
        <time>2018-08-22T08:56:28.216Z</time>
      </trkpt>
      <trkpt lat="48.4037570" lon="-2.0579712">
        <ele>88.603</ele>
        <time>2018-08-22T08:56:31.071Z</time>
      </trkpt>
      <trkpt lat="48.4037691" lon="-2.0581149">
        <ele>88.403</ele>
        <time>2018-08-22T08:56:33.942Z</time>
      </trkpt>
      <trkpt lat="48.4037838" lon="-2.0582597">
        <ele>88.490</ele>
        <time>2018-08-22T08:56:36.810Z</time>
      </trkpt>
      <trkpt lat="48.4038015" lon="-2.0584078">
        <ele>88.881</ele>
        <time>2018-08-22T08:56:39.711Z</time>
      </trkpt>
      <trkpt lat="48.4038233" lon="-2.0585582">
        <ele>89.359</ele>
        <time>2018-08-22T08:56:42.602Z</time>
      </trkpt>
      <trkpt lat="48.4038609" lon="-2.0587192">
        <ele>89.691</ele>
        <time>2018-08-22T08:56:45.702Z</time>
      </trkpt>
      <trkpt lat="48.4039110" lon="-2.0588755">
        <ele>89.800</ele>
        <time>2018-08-22T08:56:48.776Z</time>
      </trkpt>
      <trkpt lat="48.4039627" lon="-2.0590262">
        <ele>89.757</ele>
        <time>2018-08-22T08:56:51.755Z</time>
      </trkpt>
      <trkpt lat="48.4040071" lon="-2.0591792">
        <ele>89.682</ele>
        <time>2018-08-22T08:56:54.669Z</time>
      </trkpt>
      <trkpt lat="48.4040342" lon="-2.0593430">
        <ele>89.658</ele>
        <time>2018-08-22T08:56:57.584Z</time>
      </trkpt>
      <trkpt lat="48.4040358" lon="-2.0595201">
        <ele>89.682</ele>
        <time>2018-08-22T08:57:00.602Z</time>
      </trkpt>
      <trkpt lat="48.4040205" lon="-2.0597047">
        <ele>89.713</ele>
        <time>2018-08-22T08:57:03.717Z</time>
      </trkpt>
      <trkpt lat="48.4039916" lon="-2.0598857">
        <ele>89.704</ele>
        <time>2018-08-22T08:57:06.816Z</time>
      </trkpt>
      <trkpt lat="48.4039545" lon="-2.0600524">
        <ele>89.648</ele>
        <time>2018-08-22T08:57:09.771Z</time>
      </trkpt>
      <trkpt lat="48.4039163" lon="-2.0602146">
        <ele>89.631</ele>
        <time>2018-08-22T08:57:12.683Z</time>
      </trkpt>
      <trkpt lat="48.4038779" lon="-2.0603824">
        <ele>89.718</ele>
        <time>2018-08-22T08:57:15.647Z</time>
      </trkpt>
      <trkpt lat="48.4038298" lon="-2.0605500">
        <ele>89.846</ele>
        <time>2018-08-22T08:57:18.649Z</time>
      </trkpt>
      <trkpt lat="48.4037846" lon="-2.0607146">
        <ele>89.877</ele>
        <time>2018-08-22T08:57:21.584Z</time>
      </trkpt>
      <trkpt lat="48.4037415" lon="-2.0608771">
        <ele>89.754</ele>
        <time>2018-08-22T08:57:24.492Z</time>
      </trkpt>
      <trkpt lat="48.4037003" lon="-2.0610387">
        <ele>89.564</ele>
        <time>2018-08-22T08:57:27.367Z</time>
      </trkpt>
      <trkpt lat="48.4036618" lon="-2.0612112">
        <ele>89.416</ele>
        <time>2018-08-22T08:57:30.376Z</time>
      </trkpt>
      <trkpt lat="48.4036274" lon="-2.0613786">
        <ele>89.322</ele>
        <time>2018-08-22T08:57:33.353Z</time>
      </trkpt>
      <trkpt lat="48.4036017" lon="-2.0615242">
        <ele>89.238</ele>
        <time>2018-08-22T08:57:36.098Z</time>
      </trkpt>
      <trkpt lat="48.4035961" lon="-2.0616698">
        <ele>89.114</ele>
        <time>2018-08-22T08:57:39.213Z</time>
      </trkpt>
      <trkpt lat="48.4036046" lon="-2.0618122">
        <ele>88.906</ele>
        <time>2018-08-22T08:57:42.906Z</time>
      </trkpt>
      <trkpt lat="48.4035937" lon="-2.0619490">
        <ele>88.649</ele>
        <time>2018-08-22T08:57:48.148Z</time>
      </trkpt>
      <trkpt lat="48.4035085" lon="-2.0619975">
        <ele>88.525</ele>
        <time>2018-08-22T08:57:52.972Z</time>
      </trkpt>
      <trkpt lat="48.4034194" lon="-2.0619425">
        <ele>88.668</ele>
        <time>2018-08-22T08:57:57.995Z</time>
      </trkpt>
      <trkpt lat="48.4034194" lon="-2.0619425">
        <ele>88.908</ele>
        <time>2018-08-22T08:58:00.995Z</time>
      </trkpt>
      <trkpt lat="48.4034194" lon="-2.0619425">
        <ele>89.004</ele>
        <time>2018-08-22T08:58:26.606Z</time>
      </trkpt>
      <trkpt lat="48.4032193" lon="-2.0618028">
        <ele>88.943</ele>
        <time>2018-08-22T08:58:43.136Z</time>
      </trkpt>
      <trkpt lat="48.4031223" lon="-2.0617328">
        <ele>88.948</ele>
        <time>2018-08-22T08:58:47.813Z</time>
      </trkpt>
      <trkpt lat="48.4030351" lon="-2.0616742">
        <ele>89.165</ele>
        <time>2018-08-22T08:58:51.602Z</time>
      </trkpt>
      <trkpt lat="48.4029365" lon="-2.0616147">
        <ele>89.526</ele>
        <time>2018-08-22T08:58:55.463Z</time>
      </trkpt>
      <trkpt lat="48.4028308" lon="-2.0615495">
        <ele>89.882</ele>
        <time>2018-08-22T08:58:59.284Z</time>
      </trkpt>
      <trkpt lat="48.4027459" lon="-2.0614913">
        <ele>90.222</ele>
        <time>2018-08-22T08:59:02.264Z</time>
      </trkpt>
      <trkpt lat="48.4026571" lon="-2.0614403">
        <ele>90.648</ele>
        <time>2018-08-22T08:59:05.221Z</time>
      </trkpt>
      <trkpt lat="48.4025653" lon="-2.0613809">
        <ele>91.124</ele>
        <time>2018-08-22T08:59:08.279Z</time>
      </trkpt>
      <trkpt lat="48.4024766" lon="-2.0613217">
        <ele>91.437</ele>
        <time>2018-08-22T08:59:11.212Z</time>
      </trkpt>
      <trkpt lat="48.4023892" lon="-2.0612620">
        <ele>91.517</ele>
        <time>2018-08-22T08:59:14.060Z</time>
      </trkpt>
      <trkpt lat="48.4022969" lon="-2.0612003">
        <ele>91.465</ele>
        <time>2018-08-22T08:59:17.024Z</time>
      </trkpt>
      <trkpt lat="48.4022058" lon="-2.0611425">
        <ele>91.413</ele>
        <time>2018-08-22T08:59:19.895Z</time>
      </trkpt>
      <trkpt lat="48.4021112" lon="-2.0610825">
        <ele>91.447</ele>
        <time>2018-08-22T08:59:22.824Z</time>
      </trkpt>
      <trkpt lat="48.4020133" lon="-2.0610315">
        <ele>91.553</ele>
        <time>2018-08-22T08:59:25.722Z</time>
      </trkpt>
      <trkpt lat="48.4019143" lon="-2.0609886">
        <ele>91.674</ele>
        <time>2018-08-22T08:59:28.531Z</time>
      </trkpt>
      <trkpt lat="48.4018029" lon="-2.0609548">
        <ele>91.781</ele>
        <time>2018-08-22T08:59:31.549Z</time>
      </trkpt>
      <trkpt lat="48.4016879" lon="-2.0609314">
        <ele>91.949</ele>
        <time>2018-08-22T08:59:34.565Z</time>
      </trkpt>
      <trkpt lat="48.4015717" lon="-2.0609166">
        <ele>92.245</ele>
        <time>2018-08-22T08:59:37.569Z</time>
      </trkpt>
      <trkpt lat="48.4014565" lon="-2.0609128">
        <ele>92.584</ele>
        <time>2018-08-22T08:59:40.526Z</time>
      </trkpt>
      <trkpt lat="48.4013427" lon="-2.0609206">
        <ele>92.853</ele>
        <time>2018-08-22T08:59:43.445Z</time>
      </trkpt>
      <trkpt lat="48.4012276" lon="-2.0609297">
        <ele>93.066</ele>
        <time>2018-08-22T08:59:46.406Z</time>
      </trkpt>
      <trkpt lat="48.4011174" lon="-2.0609370">
        <ele>93.281</ele>
        <time>2018-08-22T08:59:49.278Z</time>
      </trkpt>
      <trkpt lat="48.4010113" lon="-2.0609538">
        <ele>93.497</ele>
        <time>2018-08-22T08:59:52.092Z</time>
      </trkpt>
      <trkpt lat="48.4009009" lon="-2.0609626">
        <ele>93.629</ele>
        <time>2018-08-22T08:59:55.039Z</time>
      </trkpt>
      <trkpt lat="48.4007955" lon="-2.0609680">
        <ele>93.641</ele>
        <time>2018-08-22T08:59:57.922Z</time>
      </trkpt>
      <trkpt lat="48.4006973" lon="-2.0609681">
        <ele>93.655</ele>
        <time>2018-08-22T09:00:00.721Z</time>
      </trkpt>
      <trkpt lat="48.4006053" lon="-2.0609601">
        <ele>93.764</ele>
        <time>2018-08-22T09:00:04.545Z</time>
      </trkpt>
      <trkpt lat="48.4007129" lon="-2.0609126">
        <ele>93.898</ele>
        <time>2018-08-22T09:00:09.363Z</time>
      </trkpt>
      <trkpt lat="48.4008191" lon="-2.0609041">
        <ele>93.826</ele>
        <time>2018-08-22T09:00:14.162Z</time>
      </trkpt>
      <trkpt lat="48.4007349" lon="-2.0609886">
        <ele>93.451</ele>
        <time>2018-08-22T09:00:20.149Z</time>
      </trkpt>
      <trkpt lat="48.4006126" lon="-2.0609838">
        <ele>93.006</ele>
        <time>2018-08-22T09:00:28.238Z</time>
      </trkpt>
      <trkpt lat="48.4004918" lon="-2.0609817">
        <ele>92.784</ele>
        <time>2018-08-22T09:00:32.214Z</time>
      </trkpt>
      <trkpt lat="48.4003705" lon="-2.0609850">
        <ele>92.798</ele>
        <time>2018-08-22T09:00:35.409Z</time>
      </trkpt>
      <trkpt lat="48.4002512" lon="-2.0609941">
        <ele>92.845</ele>
        <time>2018-08-22T09:00:38.322Z</time>
      </trkpt>
      <trkpt lat="48.4001342" lon="-2.0610110">
        <ele>92.742</ele>
        <time>2018-08-22T09:00:41.136Z</time>
      </trkpt>
      <trkpt lat="48.4000189" lon="-2.0610423">
        <ele>92.486</ele>
        <time>2018-08-22T09:00:43.964Z</time>
      </trkpt>
      <trkpt lat="48.3999079" lon="-2.0610826">
        <ele>92.189</ele>
        <time>2018-08-22T09:00:46.772Z</time>
      </trkpt>
      <trkpt lat="48.3998032" lon="-2.0611376">
        <ele>91.964</ele>
        <time>2018-08-22T09:00:49.574Z</time>
      </trkpt>
      <trkpt lat="48.3997028" lon="-2.0611817">
        <ele>91.859</ele>
        <time>2018-08-22T09:00:52.295Z</time>
      </trkpt>
      <trkpt lat="48.3995907" lon="-2.0612157">
        <ele>91.840</ele>
        <time>2018-08-22T09:00:55.320Z</time>
      </trkpt>
      <trkpt lat="48.3994786" lon="-2.0612562">
        <ele>91.880</ele>
        <time>2018-08-22T09:00:58.345Z</time>
      </trkpt>
      <trkpt lat="48.3993674" lon="-2.0612901">
        <ele>91.961</ele>
        <time>2018-08-22T09:01:01.288Z</time>
      </trkpt>
      <trkpt lat="48.3992531" lon="-2.0613269">
        <ele>92.018</ele>
        <time>2018-08-22T09:01:04.287Z</time>
      </trkpt>
      <trkpt lat="48.3991315" lon="-2.0613634">
        <ele>91.942</ele>
        <time>2018-08-22T09:01:07.388Z</time>
      </trkpt>
      <trkpt lat="48.3990085" lon="-2.0613960">
        <ele>91.699</ele>
        <time>2018-08-22T09:01:10.407Z</time>
      </trkpt>
      <trkpt lat="48.3988805" lon="-2.0614334">
        <ele>91.355</ele>
        <time>2018-08-22T09:01:13.475Z</time>
      </trkpt>
      <trkpt lat="48.3987641" lon="-2.0614685">
        <ele>91.020</ele>
        <time>2018-08-22T09:01:16.259Z</time>
      </trkpt>
      <trkpt lat="48.3986593" lon="-2.0615026">
        <ele>90.682</ele>
        <time>2018-08-22T09:01:18.850Z</time>
      </trkpt>
      <trkpt lat="48.3985534" lon="-2.0615389">
        <ele>90.256</ele>
        <time>2018-08-22T09:01:21.591Z</time>
      </trkpt>
      <trkpt lat="48.3984359" lon="-2.0615780">
        <ele>89.773</ele>
        <time>2018-08-22T09:01:24.663Z</time>
      </trkpt>
      <trkpt lat="48.3983071" lon="-2.0616163">
        <ele>89.265</ele>
        <time>2018-08-22T09:01:27.911Z</time>
      </trkpt>
      <trkpt lat="48.3981679" lon="-2.0616588">
        <ele>88.656</ele>
        <time>2018-08-22T09:01:31.193Z</time>
      </trkpt>
      <trkpt lat="48.3980228" lon="-2.0617042">
        <ele>87.975</ele>
        <time>2018-08-22T09:01:34.378Z</time>
      </trkpt>
      <trkpt lat="48.3979029" lon="-2.0617455">
        <ele>87.263</ele>
        <time>2018-08-22T09:01:36.974Z</time>
      </trkpt>
      <trkpt lat="48.3977657" lon="-2.0617909">
        <ele>86.507</ele>
        <time>2018-08-22T09:01:39.990Z</time>
      </trkpt>
      <trkpt lat="48.3977657" lon="-2.0617909">
        <ele>85.854</ele>
        <time>2018-08-22T09:01:41.990Z</time>
      </trkpt>
      <trkpt lat="48.3977657" lon="-2.0617909">
        <ele>85.530</ele>
        <time>2018-08-22T09:01:42.090Z</time>
      </trkpt>
      <trkpt lat="48.3974656" lon="-2.0618966">
        <ele>85.528</ele>
        <time>2018-08-22T09:01:49.609Z</time>
      </trkpt>
      <trkpt lat="48.3972947" lon="-2.0619637">
        <ele>85.248</ele>
        <time>2018-08-22T09:01:52.520Z</time>
      </trkpt>
      <trkpt lat="48.3971717" lon="-2.0620168">
        <ele>84.139</ele>
        <time>2018-08-22T09:01:54.669Z</time>
      </trkpt>
      <trkpt lat="48.3970533" lon="-2.0620561">
        <ele>82.592</ele>
        <time>2018-08-22T09:01:56.756Z</time>
      </trkpt>
      <trkpt lat="48.3969420" lon="-2.0620922">
        <ele>81.251</ele>
        <time>2018-08-22T09:01:58.686Z</time>
      </trkpt>
      <trkpt lat="48.3968257" lon="-2.0621366">
        <ele>80.213</ele>
        <time>2018-08-22T09:02:00.690Z</time>
      </trkpt>
      <trkpt lat="48.3967052" lon="-2.0621702">
        <ele>79.398</ele>
        <time>2018-08-22T09:02:02.748Z</time>
      </trkpt>
      <trkpt lat="48.3965834" lon="-2.0621962">
        <ele>78.688</ele>
        <time>2018-08-22T09:02:04.923Z</time>
      </trkpt>
      <trkpt lat="48.3964721" lon="-2.0622052">
        <ele>77.976</ele>
        <time>2018-08-22T09:02:06.996Z</time>
      </trkpt>
      <trkpt lat="48.3963668" lon="-2.0622045">
        <ele>77.262</ele>
        <time>2018-08-22T09:02:08.922Z</time>
      </trkpt>
      <trkpt lat="48.3962576" lon="-2.0622046">
        <ele>76.545</ele>
        <time>2018-08-22T09:02:10.862Z</time>
      </trkpt>
      <trkpt lat="48.3961441" lon="-2.0621954">
        <ele>75.807</ele>
        <time>2018-08-22T09:02:12.852Z</time>
      </trkpt>
      <trkpt lat="48.3960318" lon="-2.0621783">
        <ele>75.093</ele>
        <time>2018-08-22T09:02:14.815Z</time>
      </trkpt>
      <trkpt lat="48.3959211" lon="-2.0621542">
        <ele>74.425</ele>
        <time>2018-08-22T09:02:16.702Z</time>
      </trkpt>
      <trkpt lat="48.3958040" lon="-2.0621400">
        <ele>73.808</ele>
        <time>2018-08-22T09:02:18.567Z</time>
      </trkpt>
      <trkpt lat="48.3956759" lon="-2.0621304">
        <ele>73.313</ele>
        <time>2018-08-22T09:02:20.483Z</time>
      </trkpt>
      <trkpt lat="48.3955375" lon="-2.0621175">
        <ele>72.934</ele>
        <time>2018-08-22T09:02:22.485Z</time>
      </trkpt>
      <trkpt lat="48.3953931" lon="-2.0621119">
        <ele>72.575</ele>
        <time>2018-08-22T09:02:24.591Z</time>
      </trkpt>
      <trkpt lat="48.3952615" lon="-2.0621205">
        <ele>72.224</ele>
        <time>2018-08-22T09:02:26.660Z</time>
      </trkpt>
      <trkpt lat="48.3951278" lon="-2.0621052">
        <ele>71.794</ele>
        <time>2018-08-22T09:02:29.449Z</time>
      </trkpt>
      <trkpt lat="48.3950136" lon="-2.0620804">
        <ele>71.191</ele>
        <time>2018-08-22T09:02:33.084Z</time>
      </trkpt>
      <trkpt lat="48.3949173" lon="-2.0620504">
        <ele>70.589</ele>
        <time>2018-08-22T09:02:36.451Z</time>
      </trkpt>
      <trkpt lat="48.3950354" lon="-2.0620393">
        <ele>70.141</ele>
        <time>2018-08-22T09:02:40.819Z</time>
      </trkpt>
      <trkpt lat="48.3951257" lon="-2.0620614">
        <ele>69.793</ele>
        <time>2018-08-22T09:02:44.421Z</time>
      </trkpt>
      <trkpt lat="48.3950178" lon="-2.0621015">
        <ele>69.550</ele>
        <time>2018-08-22T09:02:48.797Z</time>
      </trkpt>
      <trkpt lat="48.3948984" lon="-2.0620561">
        <ele>69.435</ele>
        <time>2018-08-22T09:02:53.618Z</time>
      </trkpt>
      <trkpt lat="48.3947933" lon="-2.0620101">
        <ele>69.449</ele>
        <time>2018-08-22T09:02:57.604Z</time>
      </trkpt>
      <trkpt lat="48.3946802" lon="-2.0619468">
        <ele>69.569</ele>
        <time>2018-08-22T09:03:01.050Z</time>
      </trkpt>
      <trkpt lat="48.3945625" lon="-2.0618906">
        <ele>69.692</ele>
        <time>2018-08-22T09:03:04.239Z</time>
      </trkpt>
      <trkpt lat="48.3944633" lon="-2.0618357">
        <ele>69.623</ele>
        <time>2018-08-22T09:03:06.952Z</time>
      </trkpt>
      <trkpt lat="48.3943752" lon="-2.0617769">
        <ele>69.316</ele>
        <time>2018-08-22T09:03:09.567Z</time>
      </trkpt>
      <trkpt lat="48.3942570" lon="-2.0617499">
        <ele>68.985</ele>
        <time>2018-08-22T09:03:13.007Z</time>
      </trkpt>
      <trkpt lat="48.3941413" lon="-2.0617606">
        <ele>68.868</ele>
        <time>2018-08-22T09:03:16.197Z</time>
      </trkpt>
      <trkpt lat="48.3940361" lon="-2.0617705">
        <ele>68.987</ele>
        <time>2018-08-22T09:03:19.016Z</time>
      </trkpt>
      <trkpt lat="48.3939343" lon="-2.0617268">
        <ele>69.211</ele>
        <time>2018-08-22T09:03:21.934Z</time>
      </trkpt>
      <trkpt lat="48.3938322" lon="-2.0616383">
        <ele>69.390</ele>
        <time>2018-08-22T09:03:25.311Z</time>
      </trkpt>
      <trkpt lat="48.3937261" lon="-2.0615529">
        <ele>69.483</ele>
        <time>2018-08-22T09:03:28.716Z</time>
      </trkpt>
      <trkpt lat="48.3936102" lon="-2.0614697">
        <ele>69.586</ele>
        <time>2018-08-22T09:03:32.142Z</time>
      </trkpt>
      <trkpt lat="48.3935163" lon="-2.0613909">
        <ele>69.842</ele>
        <time>2018-08-22T09:03:34.906Z</time>
      </trkpt>
      <trkpt lat="48.3933882" lon="-2.0613195">
        <ele>70.211</ele>
        <time>2018-08-22T09:03:38.379Z</time>
      </trkpt>
      <trkpt lat="48.3933119" lon="-2.0612062">
        <ele>70.390</ele>
        <time>2018-08-22T09:03:41.087Z</time>
      </trkpt>
      <trkpt lat="48.3932188" lon="-2.0611425">
        <ele>70.240</ele>
        <time>2018-08-22T09:03:43.729Z</time>
      </trkpt>
      <trkpt lat="48.3931200" lon="-2.0610571">
        <ele>70.034</ele>
        <time>2018-08-22T09:03:46.773Z</time>
      </trkpt>
      <trkpt lat="48.3930228" lon="-2.0609340">
        <ele>70.052</ele>
        <time>2018-08-22T09:03:50.218Z</time>
      </trkpt>
      <trkpt lat="48.3929339" lon="-2.0608216">
        <ele>70.397</ele>
        <time>2018-08-22T09:03:53.345Z</time>
      </trkpt>
      <trkpt lat="48.3928569" lon="-2.0607274">
        <ele>71.096</ele>
        <time>2018-08-22T09:03:56.060Z</time>
      </trkpt>
      <trkpt lat="48.3927962" lon="-2.0605930">
        <ele>71.891</ele>
        <time>2018-08-22T09:03:59.111Z</time>
      </trkpt>
      <trkpt lat="48.3927349" lon="-2.0604528">
        <ele>72.261</ele>
        <time>2018-08-22T09:04:02.329Z</time>
      </trkpt>
      <trkpt lat="48.3926642" lon="-2.0603271">
        <ele>72.026</ele>
        <time>2018-08-22T09:04:05.479Z</time>
      </trkpt>
      <trkpt lat="48.3925940" lon="-2.0602150">
        <ele>71.579</ele>
        <time>2018-08-22T09:04:08.420Z</time>
      </trkpt>
      <trkpt lat="48.3925236" lon="-2.0600815">
        <ele>71.303</ele>
        <time>2018-08-22T09:04:11.643Z</time>
      </trkpt>
      <trkpt lat="48.3924589" lon="-2.0599590">
        <ele>71.078</ele>
        <time>2018-08-22T09:04:14.553Z</time>
      </trkpt>
      <trkpt lat="48.3924024" lon="-2.0598064">
        <ele>70.654</ele>
        <time>2018-08-22T09:04:17.766Z</time>
      </trkpt>
      <trkpt lat="48.3923267" lon="-2.0596663">
        <ele>70.069</ele>
        <time>2018-08-22T09:04:21.003Z</time>
      </trkpt>
      <trkpt lat="48.3922402" lon="-2.0595289">
        <ele>69.453</ele>
        <time>2018-08-22T09:04:24.263Z</time>
      </trkpt>
      <trkpt lat="48.3921495" lon="-2.0593904">
        <ele>68.786</ele>
        <time>2018-08-22T09:04:27.493Z</time>
      </trkpt>
      <trkpt lat="48.3920659" lon="-2.0592565">
        <ele>68.028</ele>
        <time>2018-08-22T09:04:30.496Z</time>
      </trkpt>
      <trkpt lat="48.3919867" lon="-2.0591133">
        <ele>67.329</ele>
        <time>2018-08-22T09:04:33.517Z</time>
      </trkpt>
      <trkpt lat="48.3918981" lon="-2.0589738">
        <ele>66.905</ele>
        <time>2018-08-22T09:04:36.596Z</time>
      </trkpt>
      <trkpt lat="48.3918150" lon="-2.0588324">
        <ele>66.732</ele>
        <time>2018-08-22T09:04:39.585Z</time>
      </trkpt>
      <trkpt lat="48.3917501" lon="-2.0586814">
        <ele>66.620</ele>
        <time>2018-08-22T09:04:42.452Z</time>
      </trkpt>
      <trkpt lat="48.3916480" lon="-2.0585403">
        <ele>66.389</ele>
        <time>2018-08-22T09:04:45.755Z</time>
      </trkpt>
      <trkpt lat="48.3915542" lon="-2.0583922">
        <ele>65.991</ele>
        <time>2018-08-22T09:04:48.936Z</time>
      </trkpt>
      <trkpt lat="48.3914717" lon="-2.0582568">
        <ele>65.574</ele>
        <time>2018-08-22T09:04:51.810Z</time>
      </trkpt>
      <trkpt lat="48.3913982" lon="-2.0581322">
        <ele>65.293</ele>
        <time>2018-08-22T09:04:54.510Z</time>
      </trkpt>
      <trkpt lat="48.3913297" lon="-2.0580037">
        <ele>65.065</ele>
        <time>2018-08-22T09:04:57.313Z</time>
      </trkpt>
      <trkpt lat="48.3912539" lon="-2.0578718">
        <ele>64.763</ele>
        <time>2018-08-22T09:05:00.364Z</time>
      </trkpt>
      <trkpt lat="48.3911830" lon="-2.0577316">
        <ele>64.414</ele>
        <time>2018-08-22T09:05:03.453Z</time>
      </trkpt>
      <trkpt lat="48.3911058" lon="-2.0575948">
        <ele>64.027</ele>
        <time>2018-08-22T09:05:06.563Z</time>
      </trkpt>
      <trkpt lat="48.3910289" lon="-2.0574520">
        <ele>63.482</ele>
        <time>2018-08-22T09:05:09.687Z</time>
      </trkpt>
      <trkpt lat="48.3909491" lon="-2.0573138">
        <ele>62.855</ele>
        <time>2018-08-22T09:05:12.753Z</time>
      </trkpt>
      <trkpt lat="48.3908586" lon="-2.0571804">
        <ele>62.397</ele>
        <time>2018-08-22T09:05:15.934Z</time>
      </trkpt>
      <trkpt lat="48.3907990" lon="-2.0570661">
        <ele>62.211</ele>
        <time>2018-08-22T09:05:18.446Z</time>
      </trkpt>
      <trkpt lat="48.3907244" lon="-2.0569371">
        <ele>62.203</ele>
        <time>2018-08-22T09:05:21.683Z</time>
      </trkpt>
      <trkpt lat="48.3906622" lon="-2.0568057">
        <ele>62.220</ele>
        <time>2018-08-22T09:05:25.136Z</time>
      </trkpt>
      <trkpt lat="48.3905789" lon="-2.0566819">
        <ele>62.177</ele>
        <time>2018-08-22T09:05:29.213Z</time>
      </trkpt>
      <trkpt lat="48.3905010" lon="-2.0565631">
        <ele>61.967</ele>
        <time>2018-08-22T09:05:33.072Z</time>
      </trkpt>
      <trkpt lat="48.3904293" lon="-2.0564356">
        <ele>61.507</ele>
        <time>2018-08-22T09:05:36.540Z</time>
      </trkpt>
      <trkpt lat="48.3903543" lon="-2.0563043">
        <ele>60.844</ele>
        <time>2018-08-22T09:05:39.840Z</time>
      </trkpt>
      <trkpt lat="48.3902661" lon="-2.0561663">
        <ele>60.097</ele>
        <time>2018-08-22T09:05:43.181Z</time>
      </trkpt>
      <trkpt lat="48.3901884" lon="-2.0559988">
        <ele>59.419</ele>
        <time>2018-08-22T09:05:46.467Z</time>
      </trkpt>
      <trkpt lat="48.3900821" lon="-2.0558525">
        <ele>58.902</ele>
        <time>2018-08-22T09:05:49.775Z</time>
      </trkpt>
      <trkpt lat="48.3899975" lon="-2.0557076">
        <ele>58.413</ele>
        <time>2018-08-22T09:05:52.690Z</time>
      </trkpt>
      <trkpt lat="48.3899273" lon="-2.0555535">
        <ele>57.890</ele>
        <time>2018-08-22T09:05:55.537Z</time>
      </trkpt>
      <trkpt lat="48.3898380" lon="-2.0554011">
        <ele>57.494</ele>
        <time>2018-08-22T09:05:58.644Z</time>
      </trkpt>
      <trkpt lat="48.3897754" lon="-2.0552437">
        <ele>57.437</ele>
        <time>2018-08-22T09:06:01.451Z</time>
      </trkpt>
      <trkpt lat="48.3897019" lon="-2.0550644">
        <ele>57.707</ele>
        <time>2018-08-22T09:06:04.644Z</time>
      </trkpt>
      <trkpt lat="48.3896364" lon="-2.0548775">
        <ele>58.038</ele>
        <time>2018-08-22T09:06:07.791Z</time>
      </trkpt>
      <trkpt lat="48.3895877" lon="-2.0546993">
        <ele>58.270</ele>
        <time>2018-08-22T09:06:10.639Z</time>
      </trkpt>
      <trkpt lat="48.3895121" lon="-2.0545046">
        <ele>58.460</ele>
        <time>2018-08-22T09:06:13.973Z</time>
      </trkpt>
      <trkpt lat="48.3894626" lon="-2.0543417">
        <ele>58.572</ele>
        <time>2018-08-22T09:06:16.708Z</time>
      </trkpt>
      <trkpt lat="48.3894168" lon="-2.0541964">
        <ele>58.560</ele>
        <time>2018-08-22T09:06:19.313Z</time>
      </trkpt>
      <trkpt lat="48.3893847" lon="-2.0540363">
        <ele>58.497</ele>
        <time>2018-08-22T09:06:22.226Z</time>
      </trkpt>
      <trkpt lat="48.3893648" lon="-2.0538878">
        <ele>58.311</ele>
        <time>2018-08-22T09:06:25.055Z</time>
      </trkpt>
      <trkpt lat="48.3893540" lon="-2.0537524">
        <ele>57.925</ele>
        <time>2018-08-22T09:06:27.796Z</time>
      </trkpt>
      <trkpt lat="48.3893688" lon="-2.0536053">
        <ele>57.679</ele>
        <time>2018-08-22T09:06:30.993Z</time>
      </trkpt>
      <trkpt lat="48.3893688" lon="-2.0536053">
        <ele>57.849</ele>
        <time>2018-08-22T09:06:31.993Z</time>
      </trkpt>
      <trkpt lat="48.3893688" lon="-2.0536053">
        <ele>58.097</ele>
        <time>2018-08-22T09:06:32.093Z</time>
      </trkpt>
      <trkpt lat="48.3893280" lon="-2.0533403">
        <ele>58.082</ele>
        <time>2018-08-22T09:06:39.053Z</time>
      </trkpt>
      <trkpt lat="48.3892956" lon="-2.0531750">
        <ele>57.942</ele>
        <time>2018-08-22T09:06:42.296Z</time>
      </trkpt>
      <trkpt lat="48.3892615" lon="-2.0530218">
        <ele>57.933</ele>
        <time>2018-08-22T09:06:45.507Z</time>
      </trkpt>
      <trkpt lat="48.3892356" lon="-2.0528795">
        <ele>58.080</ele>
        <time>2018-08-22T09:06:48.380Z</time>
      </trkpt>
      <trkpt lat="48.3892174" lon="-2.0527149">
        <ele>58.242</ele>
        <time>2018-08-22T09:06:51.431Z</time>
      </trkpt>
      <trkpt lat="48.3891980" lon="-2.0525518">
        <ele>58.145</ele>
        <time>2018-08-22T09:06:54.426Z</time>
      </trkpt>
      <trkpt lat="48.3891741" lon="-2.0523984">
        <ele>57.476</ele>
        <time>2018-08-22T09:06:57.151Z</time>
      </trkpt>
      <trkpt lat="48.3891348" lon="-2.0522129">
        <ele>56.262</ele>
        <time>2018-08-22T09:07:00.278Z</time>
      </trkpt>
      <trkpt lat="48.3890883" lon="-2.0520248">
        <ele>54.829</ele>
        <time>2018-08-22T09:07:03.495Z</time>
      </trkpt>
      <trkpt lat="48.3890547" lon="-2.0518423">
        <ele>53.542</ele>
        <time>2018-08-22T09:07:06.566Z</time>
      </trkpt>
      <trkpt lat="48.3890140" lon="-2.0516710">
        <ele>52.687</ele>
        <time>2018-08-22T09:07:09.551Z</time>
      </trkpt>
      <trkpt lat="48.3889876" lon="-2.0514972">
        <ele>52.151</ele>
        <time>2018-08-22T09:07:12.472Z</time>
      </trkpt>
      <trkpt lat="48.3889429" lon="-2.0513240">
        <ele>51.624</ele>
        <time>2018-08-22T09:07:15.395Z</time>
      </trkpt>
      <trkpt lat="48.3888706" lon="-2.0511552">
        <ele>51.067</ele>
        <time>2018-08-22T09:07:18.464Z</time>
      </trkpt>
      <trkpt lat="48.3887975" lon="-2.0509829">
        <ele>50.611</ele>
        <time>2018-08-22T09:07:21.588Z</time>
      </trkpt>
      <trkpt lat="48.3887220" lon="-2.0508176">
        <ele>50.358</ele>
        <time>2018-08-22T09:07:24.601Z</time>
      </trkpt>
      <trkpt lat="48.3886294" lon="-2.0506607">
        <ele>50.305</ele>
        <time>2018-08-22T09:07:27.612Z</time>
      </trkpt>
      <trkpt lat="48.3885473" lon="-2.0505037">
        <ele>50.337</ele>
        <time>2018-08-22T09:07:30.397Z</time>
      </trkpt>
      <trkpt lat="48.3884747" lon="-2.0503321">
        <ele>50.305</ele>
        <time>2018-08-22T09:07:33.263Z</time>
      </trkpt>
      <trkpt lat="48.3883688" lon="-2.0501913">
        <ele>50.082</ele>
        <time>2018-08-22T09:07:36.301Z</time>
      </trkpt>
      <trkpt lat="48.3882713" lon="-2.0500522">
        <ele>49.741</ele>
        <time>2018-08-22T09:07:39.178Z</time>
      </trkpt>
      <trkpt lat="48.3881612" lon="-2.0499156">
        <ele>49.485</ele>
        <time>2018-08-22T09:07:42.135Z</time>
      </trkpt>
      <trkpt lat="48.3880526" lon="-2.0497751">
        <ele>49.354</ele>
        <time>2018-08-22T09:07:45.071Z</time>
      </trkpt>
      <trkpt lat="48.3879467" lon="-2.0496420">
        <ele>49.262</ele>
        <time>2018-08-22T09:07:47.978Z</time>
      </trkpt>
      <trkpt lat="48.3878441" lon="-2.0495161">
        <ele>49.234</ele>
        <time>2018-08-22T09:07:50.806Z</time>
      </trkpt>
      <trkpt lat="48.3877424" lon="-2.0493751">
        <ele>49.312</ele>
        <time>2018-08-22T09:07:53.730Z</time>
      </trkpt>
      <trkpt lat="48.3876205" lon="-2.0492597">
        <ele>49.395</ele>
        <time>2018-08-22T09:07:56.757Z</time>
      </trkpt>
      <trkpt lat="48.3875163" lon="-2.0491211">
        <ele>49.393</ele>
        <time>2018-08-22T09:07:59.667Z</time>
      </trkpt>
      <trkpt lat="48.3874248" lon="-2.0489692">
        <ele>49.343</ele>
        <time>2018-08-22T09:08:02.407Z</time>
      </trkpt>
      <trkpt lat="48.3873222" lon="-2.0487764">
        <ele>49.233</ele>
        <time>2018-08-22T09:08:05.614Z</time>
      </trkpt>
      <trkpt lat="48.3872188" lon="-2.0486227">
        <ele>49.007</ele>
        <time>2018-08-22T09:08:08.420Z</time>
      </trkpt>
      <trkpt lat="48.3871215" lon="-2.0484460">
        <ele>48.666</ele>
        <time>2018-08-22T09:08:11.341Z</time>
      </trkpt>
      <trkpt lat="48.3870458" lon="-2.0482648">
        <ele>48.269</ele>
        <time>2018-08-22T09:08:14.159Z</time>
      </trkpt>
      <trkpt lat="48.3869612" lon="-2.0481017">
        <ele>47.878</ele>
        <time>2018-08-22T09:08:17.108Z</time>
      </trkpt>
      <trkpt lat="48.3868866" lon="-2.0479502">
        <ele>47.510</ele>
        <time>2018-08-22T09:08:20.062Z</time>
      </trkpt>
      <trkpt lat="48.3868149" lon="-2.0478192">
        <ele>47.201</ele>
        <time>2018-08-22T09:08:22.893Z</time>
      </trkpt>
      <trkpt lat="48.3867378" lon="-2.0476984">
        <ele>47.073</ele>
        <time>2018-08-22T09:08:25.768Z</time>
      </trkpt>
      <trkpt lat="48.3866658" lon="-2.0475684">
        <ele>47.166</ele>
        <time>2018-08-22T09:08:28.758Z</time>
      </trkpt>
      <trkpt lat="48.3865991" lon="-2.0474504">
        <ele>47.371</ele>
        <time>2018-08-22T09:08:31.596Z</time>
      </trkpt>
      <trkpt lat="48.3865178" lon="-2.0473421">
        <ele>47.523</ele>
        <time>2018-08-22T09:08:34.595Z</time>
      </trkpt>
      <trkpt lat="48.3864194" lon="-2.0472538">
        <ele>47.548</ele>
        <time>2018-08-22T09:08:37.762Z</time>
      </trkpt>
      <trkpt lat="48.3863226" lon="-2.0471882">
        <ele>47.483</ele>
        <time>2018-08-22T09:08:40.924Z</time>
      </trkpt>
      <trkpt lat="48.3862396" lon="-2.0471334">
        <ele>47.382</ele>
        <time>2018-08-22T09:08:44.211Z</time>
      </trkpt>
      <trkpt lat="48.3861451" lon="-2.0470807">
        <ele>47.272</ele>
        <time>2018-08-22T09:08:48.541Z</time>
      </trkpt>
      <trkpt lat="48.3860454" lon="-2.0470809">
        <ele>47.184</ele>
        <time>2018-08-22T09:08:53.665Z</time>
      </trkpt>
      <trkpt lat="48.3859531" lon="-2.0471463">
        <ele>47.059</ele>
        <time>2018-08-22T09:08:58.417Z</time>
      </trkpt>
      <trkpt lat="48.3858498" lon="-2.0471117">
        <ele>46.843</ele>
        <time>2018-08-22T09:09:02.115Z</time>
      </trkpt>
      <trkpt lat="48.3857469" lon="-2.0469994">
        <ele>46.641</ele>
        <time>2018-08-22T09:09:05.578Z</time>
      </trkpt>
      <trkpt lat="48.3856519" lon="-2.0468777">
        <ele>46.586</ele>
        <time>2018-08-22T09:09:08.684Z</time>
      </trkpt>
      <trkpt lat="48.3855641" lon="-2.0467732">
        <ele>46.632</ele>
        <time>2018-08-22T09:09:11.521Z</time>
      </trkpt>
      <trkpt lat="48.3854814" lon="-2.0466694">
        <ele>46.717</ele>
        <time>2018-08-22T09:09:14.387Z</time>
      </trkpt>
      <trkpt lat="48.3853935" lon="-2.0465655">
        <ele>46.788</ele>
        <time>2018-08-22T09:09:17.406Z</time>
      </trkpt>
      <trkpt lat="48.3853185" lon="-2.0464619">
        <ele>46.657</ele>
        <time>2018-08-22T09:09:20.327Z</time>
      </trkpt>
      <trkpt lat="48.3852358" lon="-2.0463692">
        <ele>46.200</ele>
        <time>2018-08-22T09:09:23.998Z</time>
      </trkpt>
      <trkpt lat="48.3852358" lon="-2.0463692">
        <ele>45.644</ele>
        <time>2018-08-22T09:09:26.998Z</time>
      </trkpt>
      <trkpt lat="48.3852358" lon="-2.0463692">
        <ele>45.324</ele>
        <time>2018-08-22T09:09:26.998Z</time>
      </trkpt>
      <trkpt lat="48.3852358" lon="-2.0463692">
        <ele>45.329</ele>
        <time>2018-08-22T09:10:25.060Z</time>
      </trkpt>
      <trkpt lat="48.3853101" lon="-2.0464645">
        <ele>45.416</ele>
        <time>2018-08-22T09:10:36.998Z</time>
      </trkpt>
      <trkpt lat="48.3853101" lon="-2.0464645">
        <ele>45.349</ele>
        <time>2018-08-22T09:10:37.998Z</time>
      </trkpt>
      <trkpt lat="48.3853101" lon="-2.0464645">
        <ele>45.325</ele>
        <time>2018-08-22T09:13:06.612Z</time>
      </trkpt>
      <trkpt lat="48.3851458" lon="-2.0462584">
        <ele>45.339</ele>
        <time>2018-08-22T09:13:20.668Z</time>
      </trkpt>
      <trkpt lat="48.3850568" lon="-2.0461442">
        <ele>45.404</ele>
        <time>2018-08-22T09:13:23.715Z</time>
      </trkpt>
      <trkpt lat="48.3849475" lon="-2.0460318">
        <ele>45.537</ele>
        <time>2018-08-22T09:13:26.599Z</time>
      </trkpt>
      <trkpt lat="48.3848119" lon="-2.0459190">
        <ele>45.661</ele>
        <time>2018-08-22T09:13:29.679Z</time>
      </trkpt>
      <trkpt lat="48.3846770" lon="-2.0457993">
        <ele>45.705</ele>
        <time>2018-08-22T09:13:32.687Z</time>
      </trkpt>
      <trkpt lat="48.3845434" lon="-2.0456571">
        <ele>45.696</ele>
        <time>2018-08-22T09:13:35.845Z</time>
      </trkpt>
      <trkpt lat="48.3844294" lon="-2.0455544">
        <ele>45.608</ele>
        <time>2018-08-22T09:13:38.418Z</time>
      </trkpt>
      <trkpt lat="48.3842948" lon="-2.0454035">
        <ele>45.411</ele>
        <time>2018-08-22T09:13:41.609Z</time>
      </trkpt>
      <trkpt lat="48.3841289" lon="-2.0452655">
        <ele>45.210</ele>
        <time>2018-08-22T09:13:45.074Z</time>
      </trkpt>
      <trkpt lat="48.3839953" lon="-2.0451221">
        <ele>45.182</ele>
        <time>2018-08-22T09:13:47.904Z</time>
      </trkpt>
      <trkpt lat="48.3838632" lon="-2.0449422">
        <ele>45.365</ele>
        <time>2018-08-22T09:13:50.859Z</time>
      </trkpt>
      <trkpt lat="48.3836805" lon="-2.0448136">
        <ele>45.614</ele>
        <time>2018-08-22T09:13:54.139Z</time>
      </trkpt>
      <trkpt lat="48.3835192" lon="-2.0446843">
        <ele>45.785</ele>
        <time>2018-08-22T09:13:57.095Z</time>
      </trkpt>
      <trkpt lat="48.3833455" lon="-2.0445677">
        <ele>45.876</ele>
        <time>2018-08-22T09:14:00.089Z</time>
      </trkpt>
      <trkpt lat="48.3831939" lon="-2.0444160">
        <ele>45.809</ele>
        <time>2018-08-22T09:14:02.887Z</time>
      </trkpt>
      <trkpt lat="48.3830065" lon="-2.0442898">
        <ele>45.362</ele>
        <time>2018-08-22T09:14:06.110Z</time>
      </trkpt>
      <trkpt lat="48.3828811" lon="-2.0441013">
        <ele>44.600</ele>
        <time>2018-08-22T09:14:08.929Z</time>
      </trkpt>
      <trkpt lat="48.3827238" lon="-2.0439507">
        <ele>43.901</ele>
        <time>2018-08-22T09:14:11.825Z</time>
      </trkpt>
      <trkpt lat="48.3825968" lon="-2.0437501">
        <ele>43.476</ele>
        <time>2018-08-22T09:14:14.626Z</time>
      </trkpt>
      <trkpt lat="48.3824767" lon="-2.0435241">
        <ele>43.435</ele>
        <time>2018-08-22T09:14:17.577Z</time>
      </trkpt>
      <trkpt lat="48.3823879" lon="-2.0432740">
        <ele>43.776</ele>
        <time>2018-08-22T09:14:20.565Z</time>
      </trkpt>
      <trkpt lat="48.3822780" lon="-2.0430643">
        <ele>44.119</ele>
        <time>2018-08-22T09:14:23.502Z</time>
      </trkpt>
      <trkpt lat="48.3821880" lon="-2.0428277">
        <ele>44.135</ele>
        <time>2018-08-22T09:14:26.501Z</time>
      </trkpt>
      <trkpt lat="48.3820950" lon="-2.0425782">
        <ele>43.961</ele>
        <time>2018-08-22T09:14:29.717Z</time>
      </trkpt>
      <trkpt lat="48.3820115" lon="-2.0423381">
        <ele>43.818</ele>
        <time>2018-08-22T09:14:33.192Z</time>
      </trkpt>
      <trkpt lat="48.3819657" lon="-2.0421361">
        <ele>43.631</ele>
        <time>2018-08-22T09:14:36.601Z</time>
      </trkpt>
      <trkpt lat="48.3819195" lon="-2.0419675">
        <ele>43.148</ele>
        <time>2018-08-22T09:14:40.078Z</time>
      </trkpt>
      <trkpt lat="48.3818465" lon="-2.0418562">
        <ele>42.254</ele>
        <time>2018-08-22T09:14:43.135Z</time>
      </trkpt>
      <trkpt lat="48.3817722" lon="-2.0417364">
        <ele>41.042</ele>
        <time>2018-08-22T09:14:46.502Z</time>
      </trkpt>
      <trkpt lat="48.3817252" lon="-2.0416032">
        <ele>39.696</ele>
        <time>2018-08-22T09:14:49.670Z</time>
      </trkpt>
      <trkpt lat="48.3816775" lon="-2.0414455">
        <ele>38.453</ele>
        <time>2018-08-22T09:14:53.158Z</time>
      </trkpt>
      <trkpt lat="48.3816205" lon="-2.0413224">
        <ele>37.580</ele>
        <time>2018-08-22T09:14:56.037Z</time>
      </trkpt>
      <trkpt lat="48.3815672" lon="-2.0411811">
        <ele>37.254</ele>
        <time>2018-08-22T09:14:59.078Z</time>
      </trkpt>
      <trkpt lat="48.3815239" lon="-2.0410524">
        <ele>37.408</ele>
        <time>2018-08-22T09:15:01.669Z</time>
      </trkpt>
      <trkpt lat="48.3814925" lon="-2.0409140">
        <ele>37.744</ele>
        <time>2018-08-22T09:15:04.137Z</time>
      </trkpt>
      <trkpt lat="48.3814487" lon="-2.0407447">
        <ele>37.928</ele>
        <time>2018-08-22T09:15:06.984Z</time>
      </trkpt>
      <trkpt lat="48.3813839" lon="-2.0405633">
        <ele>37.689</ele>
        <time>2018-08-22T09:15:09.986Z</time>
      </trkpt>
      <trkpt lat="48.3813189" lon="-2.0403792">
        <ele>36.755</ele>
        <time>2018-08-22T09:15:12.825Z</time>
      </trkpt>
      <trkpt lat="48.3812476" lon="-2.0401250">
        <ele>35.315</ele>
        <time>2018-08-22T09:15:16.443Z</time>
      </trkpt>
      <trkpt lat="48.3811778" lon="-2.0399197">
        <ele>34.079</ele>
        <time>2018-08-22T09:15:19.577Z</time>
      </trkpt>
      <trkpt lat="48.3811136" lon="-2.0397257">
        <ele>33.401</ele>
        <time>2018-08-22T09:15:22.687Z</time>
      </trkpt>
      <trkpt lat="48.3810461" lon="-2.0395448">
        <ele>32.896</ele>
        <time>2018-08-22T09:15:25.698Z</time>
      </trkpt>
      <trkpt lat="48.3809830" lon="-2.0393625">
        <ele>32.279</ele>
        <time>2018-08-22T09:15:28.589Z</time>
      </trkpt>
      <trkpt lat="48.3809144" lon="-2.0391791">
        <ele>31.761</ele>
        <time>2018-08-22T09:15:31.514Z</time>
      </trkpt>
      <trkpt lat="48.3808428" lon="-2.0389882">
        <ele>31.610</ele>
        <time>2018-08-22T09:15:34.583Z</time>
      </trkpt>
      <trkpt lat="48.3807913" lon="-2.0388021">
        <ele>31.755</ele>
        <time>2018-08-22T09:15:37.394Z</time>
      </trkpt>
      <trkpt lat="48.3807121" lon="-2.0386269">
        <ele>31.968</ele>
        <time>2018-08-22T09:15:40.315Z</time>
      </trkpt>
      <trkpt lat="48.3806396" lon="-2.0384389">
        <ele>31.900</ele>
        <time>2018-08-22T09:15:43.301Z</time>
      </trkpt>
      <trkpt lat="48.3805785" lon="-2.0382474">
        <ele>31.805</ele>
        <time>2018-08-22T09:15:46.214Z</time>
      </trkpt>
      <trkpt lat="48.3805087" lon="-2.0380626">
        <ele>31.623</ele>
        <time>2018-08-22T09:15:49.120Z</time>
      </trkpt>
      <trkpt lat="48.3804451" lon="-2.0378730">
        <ele>31.226</ele>
        <time>2018-08-22T09:15:52.011Z</time>
      </trkpt>
      <trkpt lat="48.3803715" lon="-2.0376770">
        <ele>30.669</ele>
        <time>2018-08-22T09:15:55.085Z</time>
      </trkpt>
      <trkpt lat="48.3803119" lon="-2.0374955">
        <ele>30.190</ele>
        <time>2018-08-22T09:15:57.782Z</time>
      </trkpt>
      <trkpt lat="48.3802387" lon="-2.0373077">
        <ele>29.931</ele>
        <time>2018-08-22T09:16:00.483Z</time>
      </trkpt>
      <trkpt lat="48.3801472" lon="-2.0370861">
        <ele>29.823</ele>
        <time>2018-08-22T09:16:03.599Z</time>
      </trkpt>
      <trkpt lat="48.3800643" lon="-2.0368941">
        <ele>29.653</ele>
        <time>2018-08-22T09:16:06.366Z</time>
      </trkpt>
      <trkpt lat="48.3799701" lon="-2.0366933">
        <ele>29.323</ele>
        <time>2018-08-22T09:16:09.257Z</time>
      </trkpt>
      <trkpt lat="48.3798711" lon="-2.0364985">
        <ele>28.958</ele>
        <time>2018-08-22T09:16:12.041Z</time>
      </trkpt>
      <trkpt lat="48.3797955" lon="-2.0363689">
        <ele>28.652</ele>
        <time>2018-08-22T09:16:13.966Z</time>
      </trkpt>
      <trkpt lat="48.3797161" lon="-2.0362344">
        <ele>28.385</ele>
        <time>2018-08-22T09:16:15.985Z</time>
      </trkpt>
      <trkpt lat="48.3796349" lon="-2.0361173">
        <ele>28.200</ele>
        <time>2018-08-22T09:16:17.942Z</time>
      </trkpt>
      <trkpt lat="48.3795664" lon="-2.0359835">
        <ele>28.127</ele>
        <time>2018-08-22T09:16:19.967Z</time>
      </trkpt>
      <trkpt lat="48.3795107" lon="-2.0358588">
        <ele>28.070</ele>
        <time>2018-08-22T09:16:21.807Z</time>
      </trkpt>
      <trkpt lat="48.3794422" lon="-2.0357451">
        <ele>27.859</ele>
        <time>2018-08-22T09:16:23.688Z</time>
      </trkpt>
      <trkpt lat="48.3793669" lon="-2.0356345">
        <ele>27.222</ele>
        <time>2018-08-22T09:16:25.616Z</time>
      </trkpt>
      <trkpt lat="48.3792984" lon="-2.0355205">
        <ele>26.213</ele>
        <time>2018-08-22T09:16:27.490Z</time>
      </trkpt>
      <trkpt lat="48.3792289" lon="-2.0354102">
        <ele>25.250</ele>
        <time>2018-08-22T09:16:29.382Z</time>
      </trkpt>
      <trkpt lat="48.3791581" lon="-2.0353092">
        <ele>24.582</ele>
        <time>2018-08-22T09:16:31.259Z</time>
      </trkpt>
      <trkpt lat="48.3790866" lon="-2.0352015">
        <ele>24.173</ele>
        <time>2018-08-22T09:16:33.306Z</time>
      </trkpt>
      <trkpt lat="48.3790072" lon="-2.0351170">
        <ele>23.901</ele>
        <time>2018-08-22T09:16:35.446Z</time>
      </trkpt>
      <trkpt lat="48.3789290" lon="-2.0349922">
        <ele>23.665</ele>
        <time>2018-08-22T09:16:38.258Z</time>
      </trkpt>
      <trkpt lat="48.3788388" lon="-2.0348854">
        <ele>23.546</ele>
        <time>2018-08-22T09:16:41.263Z</time>
      </trkpt>
      <trkpt lat="48.3787486" lon="-2.0347656">
        <ele>23.728</ele>
        <time>2018-08-22T09:16:44.346Z</time>
      </trkpt>
      <trkpt lat="48.3786650" lon="-2.0346364">
        <ele>24.329</ele>
        <time>2018-08-22T09:16:47.400Z</time>
      </trkpt>
      <trkpt lat="48.3786003" lon="-2.0345064">
        <ele>25.454</ele>
        <time>2018-08-22T09:16:50.223Z</time>
      </trkpt>
      <trkpt lat="48.3785597" lon="-2.0343553">
        <ele>26.895</ele>
        <time>2018-08-22T09:16:53.096Z</time>
      </trkpt>
      <trkpt lat="48.3784952" lon="-2.0341960">
        <ele>28.004</ele>
        <time>2018-08-22T09:16:56.306Z</time>
      </trkpt>
      <trkpt lat="48.3784368" lon="-2.0340483">
        <ele>28.425</ele>
        <time>2018-08-22T09:16:59.129Z</time>
      </trkpt>
      <trkpt lat="48.3783809" lon="-2.0338814">
        <ele>28.418</ele>
        <time>2018-08-22T09:17:02.221Z</time>
      </trkpt>
      <trkpt lat="48.3783451" lon="-2.0337291">
        <ele>28.255</ele>
        <time>2018-08-22T09:17:05.082Z</time>
      </trkpt>
      <trkpt lat="48.3783297" lon="-2.0335762">
        <ele>27.923</ele>
        <time>2018-08-22T09:17:08.215Z</time>
      </trkpt>
      <trkpt lat="48.3783010" lon="-2.0334250">
        <ele>27.308</ele>
        <time>2018-08-22T09:17:12.076Z</time>
      </trkpt>
      <trkpt lat="48.3782647" lon="-2.0332960">
        <ele>26.474</ele>
        <time>2018-08-22T09:17:16.183Z</time>
      </trkpt>
      <trkpt lat="48.3782229" lon="-2.0331504">
        <ele>25.649</ele>
        <time>2018-08-22T09:17:21.299Z</time>
      </trkpt>
      <trkpt lat="48.3781721" lon="-2.0330185">
        <ele>25.108</ele>
        <time>2018-08-22T09:17:26.143Z</time>
      </trkpt>
      <trkpt lat="48.3781347" lon="-2.0328793">
        <ele>25.147</ele>
        <time>2018-08-22T09:17:30.604Z</time>
      </trkpt>
      <trkpt lat="48.3780989" lon="-2.0327217">
        <ele>25.919</ele>
        <time>2018-08-22T09:17:34.755Z</time>
      </trkpt>
      <trkpt lat="48.3780643" lon="-2.0325891">
        <ele>27.094</ele>
        <time>2018-08-22T09:17:38.196Z</time>
      </trkpt>
      <trkpt lat="48.3780201" lon="-2.0324710">
        <ele>28.017</ele>
        <time>2018-08-22T09:17:42.014Z</time>
      </trkpt>
      <trkpt lat="48.3779737" lon="-2.0323377">
        <ele>28.352</ele>
        <time>2018-08-22T09:17:46.627Z</time>
      </trkpt>
      <trkpt lat="48.3779393" lon="-2.0321816">
        <ele>28.239</ele>
        <time>2018-08-22T09:17:51.888Z</time>
      </trkpt>
      <trkpt lat="48.3779048" lon="-2.0320455">
        <ele>27.997</ele>
        <time>2018-08-22T09:17:56.616Z</time>
      </trkpt>
      <trkpt lat="48.3778638" lon="-2.0319021">
        <ele>27.960</ele>
        <time>2018-08-22T09:18:01.386Z</time>
      </trkpt>
      <trkpt lat="48.3778315" lon="-2.0317471">
        <ele>28.278</ele>
        <time>2018-08-22T09:18:06.128Z</time>
      </trkpt>
      <trkpt lat="48.3777939" lon="-2.0316237">
        <ele>28.806</ele>
        <time>2018-08-22T09:18:10.130Z</time>
      </trkpt>
      <trkpt lat="48.3777565" lon="-2.0314892">
        <ele>29.262</ele>
        <time>2018-08-22T09:18:14.399Z</time>
      </trkpt>
      <trkpt lat="48.3777188" lon="-2.0313388">
        <ele>29.581</ele>
        <time>2018-08-22T09:18:19.336Z</time>
      </trkpt>
      <trkpt lat="48.3776819" lon="-2.0311865">
        <ele>29.845</ele>
        <time>2018-08-22T09:18:24.778Z</time>
      </trkpt>
      <trkpt lat="48.3776496" lon="-2.0310505">
        <ele>30.038</ele>
        <time>2018-08-22T09:18:29.195Z</time>
      </trkpt>
      <trkpt lat="48.3776117" lon="-2.0309100">
        <ele>30.116</ele>
        <time>2018-08-22T09:18:33.388Z</time>
      </trkpt>
      <trkpt lat="48.3775689" lon="-2.0307683">
        <ele>30.146</ele>
        <time>2018-08-22T09:18:37.661Z</time>
      </trkpt>
      <trkpt lat="48.3775271" lon="-2.0306274">
        <ele>30.224</ele>
        <time>2018-08-22T09:18:41.890Z</time>
      </trkpt>
      <trkpt lat="48.3774857" lon="-2.0304808">
        <ele>30.403</ele>
        <time>2018-08-22T09:18:46.149Z</time>
      </trkpt>
      <trkpt lat="48.3774484" lon="-2.0303473">
        <ele>30.624</ele>
        <time>2018-08-22T09:18:50.014Z</time>
      </trkpt>
      <trkpt lat="48.3774083" lon="-2.0302091">
        <ele>30.784</ele>
        <time>2018-08-22T09:18:54.096Z</time>
      </trkpt>
      <trkpt lat="48.3773677" lon="-2.0300803">
        <ele>30.878</ele>
        <time>2018-08-22T09:18:58.603Z</time>
      </trkpt>
      <trkpt lat="48.3773572" lon="-2.0299345">
        <ele>30.978</ele>
        <time>2018-08-22T09:19:04.101Z</time>
      </trkpt>
      <trkpt lat="48.3773950" lon="-2.0300804">
        <ele>31.111</ele>
        <time>2018-08-22T09:19:11.242Z</time>
      </trkpt>
      <trkpt lat="48.3774335" lon="-2.0302384">
        <ele>31.247</ele>
        <time>2018-08-22T09:19:16.284Z</time>
      </trkpt>
      <trkpt lat="48.3774657" lon="-2.0303650">
        <ele>31.342</ele>
        <time>2018-08-22T09:19:19.528Z</time>
      </trkpt>
      <trkpt lat="48.3775063" lon="-2.0305305">
        <ele>31.377</ele>
        <time>2018-08-22T09:19:23.580Z</time>
      </trkpt>
      <trkpt lat="48.3775536" lon="-2.0306840">
        <ele>31.281</ele>
        <time>2018-08-22T09:19:27.392Z</time>
      </trkpt>
      <trkpt lat="48.3775922" lon="-2.0308424">
        <ele>30.959</ele>
        <time>2018-08-22T09:19:31.139Z</time>
      </trkpt>
      <trkpt lat="48.3776300" lon="-2.0309963">
        <ele>30.529</ele>
        <time>2018-08-22T09:19:34.819Z</time>
      </trkpt>
      <trkpt lat="48.3776581" lon="-2.0311343">
        <ele>30.209</ele>
        <time>2018-08-22T09:19:38.238Z</time>
      </trkpt>
      <trkpt lat="48.3776973" lon="-2.0312764">
        <ele>30.063</ele>
        <time>2018-08-22T09:19:42.130Z</time>
      </trkpt>
      <trkpt lat="48.3777435" lon="-2.0314048">
        <ele>30.032</ele>
        <time>2018-08-22T09:19:45.995Z</time>
      </trkpt>
      <trkpt lat="48.3777435" lon="-2.0314048">
        <ele>30.035</ele>
        <time>2018-08-22T09:19:54.995Z</time>
      </trkpt>
      <trkpt lat="48.3777435" lon="-2.0314048">
        <ele>30.021</ele>
        <time>2018-08-22T09:19:55.240Z</time>
      </trkpt>
      <trkpt lat="48.3776880" lon="-2.0311960">
        <ele>30.005</ele>
        <time>2018-08-22T09:20:04.029Z</time>
      </trkpt>
      <trkpt lat="48.3776474" lon="-2.0310269">
        <ele>29.859</ele>
        <time>2018-08-22T09:20:07.677Z</time>
      </trkpt>
      <trkpt lat="48.3776090" lon="-2.0308889">
        <ele>29.501</ele>
        <time>2018-08-22T09:20:10.307Z</time>
      </trkpt>
      <trkpt lat="48.3775668" lon="-2.0307423">
        <ele>29.261</ele>
        <time>2018-08-22T09:20:12.954Z</time>
      </trkpt>
      <trkpt lat="48.3775325" lon="-2.0305919">
        <ele>29.417</ele>
        <time>2018-08-22T09:20:15.515Z</time>
      </trkpt>
      <trkpt lat="48.3774961" lon="-2.0304456">
        <ele>29.633</ele>
        <time>2018-08-22T09:20:17.994Z</time>
      </trkpt>
      <trkpt lat="48.3774961" lon="-2.0304456">
        <ele>29.577</ele>
        <time>2018-08-22T09:20:18.994Z</time>
      </trkpt>
      <trkpt lat="48.3774961" lon="-2.0304456">
        <ele>29.421</ele>
        <time>2018-08-22T09:20:19.094Z</time>
      </trkpt>
      <trkpt lat="48.3774322" lon="-2.0302099">
        <ele>29.407</ele>
        <time>2018-08-22T09:20:25.630Z</time>
      </trkpt>
      <trkpt lat="48.3774080" lon="-2.0300769">
        <ele>29.593</ele>
        <time>2018-08-22T09:20:28.485Z</time>
      </trkpt>
      <trkpt lat="48.3773795" lon="-2.0299255">
        <ele>30.030</ele>
        <time>2018-08-22T09:20:31.941Z</time>
      </trkpt>
      <trkpt lat="48.3773327" lon="-2.0297611">
        <ele>30.652</ele>
        <time>2018-08-22T09:20:35.931Z</time>
      </trkpt>
      <trkpt lat="48.3772847" lon="-2.0296012">
        <ele>31.199</ele>
        <time>2018-08-22T09:20:39.769Z</time>
      </trkpt>
      <trkpt lat="48.3772310" lon="-2.0294445">
        <ele>31.487</ele>
        <time>2018-08-22T09:20:43.634Z</time>
      </trkpt>
      <trkpt lat="48.3771921" lon="-2.0292909">
        <ele>31.607</ele>
        <time>2018-08-22T09:20:47.380Z</time>
      </trkpt>
      <trkpt lat="48.3771581" lon="-2.0291643">
        <ele>31.720</ele>
        <time>2018-08-22T09:20:50.753Z</time>
      </trkpt>
      <trkpt lat="48.3771128" lon="-2.0290127">
        <ele>31.827</ele>
        <time>2018-08-22T09:20:55.275Z</time>
      </trkpt>
      <trkpt lat="48.3770856" lon="-2.0288814">
        <ele>31.855</ele>
        <time>2018-08-22T09:20:59.104Z</time>
      </trkpt>
      <trkpt lat="48.3770573" lon="-2.0287392">
        <ele>31.813</ele>
        <time>2018-08-22T09:21:02.993Z</time>
      </trkpt>
      <trkpt lat="48.3770573" lon="-2.0287392">
        <ele>31.764</ele>
        <time>2018-08-22T09:21:13.993Z</time>
      </trkpt>
      <trkpt lat="48.3770573" lon="-2.0287392">
        <ele>31.744</ele>
        <time>2018-08-22T09:22:29.194Z</time>
      </trkpt>
      <trkpt lat="48.3769528" lon="-2.0284899">
        <ele>31.747</ele>
        <time>2018-08-22T09:22:41.529Z</time>
      </trkpt>
      <trkpt lat="48.3769125" lon="-2.0283606">
        <ele>31.964</ele>
        <time>2018-08-22T09:22:44.502Z</time>
      </trkpt>
      <trkpt lat="48.3768771" lon="-2.0282188">
        <ele>32.552</ele>
        <time>2018-08-22T09:22:47.328Z</time>
      </trkpt>
      <trkpt lat="48.3768437" lon="-2.0280565">
        <ele>33.243</ele>
        <time>2018-08-22T09:22:50.276Z</time>
      </trkpt>
      <trkpt lat="48.3767991" lon="-2.0278946">
        <ele>33.683</ele>
        <time>2018-08-22T09:22:53.203Z</time>
      </trkpt>
      <trkpt lat="48.3767562" lon="-2.0277325">
        <ele>33.777</ele>
        <time>2018-08-22T09:22:56.058Z</time>
      </trkpt>
      <trkpt lat="48.3767038" lon="-2.0275670">
        <ele>33.603</ele>
        <time>2018-08-22T09:22:58.983Z</time>
      </trkpt>
      <trkpt lat="48.3766492" lon="-2.0273989">
        <ele>33.381</ele>
        <time>2018-08-22T09:23:01.851Z</time>
      </trkpt>
      <trkpt lat="48.3766072" lon="-2.0272156">
        <ele>33.122</ele>
        <time>2018-08-22T09:23:04.740Z</time>
      </trkpt>
      <trkpt lat="48.3765598" lon="-2.0270365">
        <ele>32.662</ele>
        <time>2018-08-22T09:23:07.550Z</time>
      </trkpt>
      <trkpt lat="48.3765197" lon="-2.0268566">
        <ele>32.118</ele>
        <time>2018-08-22T09:23:10.274Z</time>
      </trkpt>
      <trkpt lat="48.3764529" lon="-2.0266672">
        <ele>31.708</ele>
        <time>2018-08-22T09:23:13.346Z</time>
      </trkpt>
      <trkpt lat="48.3764094" lon="-2.0264635">
        <ele>31.439</ele>
        <time>2018-08-22T09:23:16.354Z</time>
      </trkpt>
      <trkpt lat="48.3763549" lon="-2.0262592">
        <ele>31.215</ele>
        <time>2018-08-22T09:23:19.334Z</time>
      </trkpt>
      <trkpt lat="48.3762530" lon="-2.0260857">
        <ele>30.955</ele>
        <time>2018-08-22T09:23:22.335Z</time>
      </trkpt>
      <trkpt lat="48.3761651" lon="-2.0259212">
        <ele>30.643</ele>
        <time>2018-08-22T09:23:24.966Z</time>
      </trkpt>
      <trkpt lat="48.3760800" lon="-2.0257150">
        <ele>30.247</ele>
        <time>2018-08-22T09:23:27.952Z</time>
      </trkpt>
      <trkpt lat="48.3759941" lon="-2.0255122">
        <ele>29.783</ele>
        <time>2018-08-22T09:23:31.016Z</time>
      </trkpt>
      <trkpt lat="48.3759270" lon="-2.0253607">
        <ele>29.433</ele>
        <time>2018-08-22T09:23:33.398Z</time>
      </trkpt>
      <trkpt lat="48.3758491" lon="-2.0251920">
        <ele>29.457</ele>
        <time>2018-08-22T09:23:36.047Z</time>
      </trkpt>
      <trkpt lat="48.3757395" lon="-2.0249732">
        <ele>29.865</ele>
        <time>2018-08-22T09:23:39.474Z</time>
      </trkpt>
      <trkpt lat="48.3756360" lon="-2.0248252">
        <ele>30.322</ele>
        <time>2018-08-22T09:23:42.147Z</time>
      </trkpt>
      <trkpt lat="48.3755381" lon="-2.0246057">
        <ele>30.512</ele>
        <time>2018-08-22T09:23:45.313Z</time>
      </trkpt>
      <trkpt lat="48.3753914" lon="-2.0244492">
        <ele>30.334</ele>
        <time>2018-08-22T09:23:48.320Z</time>
      </trkpt>
      <trkpt lat="48.3752158" lon="-2.0243154">
        <ele>29.747</ele>
        <time>2018-08-22T09:23:51.409Z</time>
      </trkpt>
      <trkpt lat="48.3750140" lon="-2.0241409">
        <ele>28.968</ele>
        <time>2018-08-22T09:23:54.787Z</time>
      </trkpt>
      <trkpt lat="48.3748141" lon="-2.0239249">
        <ele>28.352</ele>
        <time>2018-08-22T09:23:58.253Z</time>
      </trkpt>
      <trkpt lat="48.3746607" lon="-2.0237552">
        <ele>28.001</ele>
        <time>2018-08-22T09:24:01.114Z</time>
      </trkpt>
      <trkpt lat="48.3745400" lon="-2.0236041">
        <ele>27.750</ele>
        <time>2018-08-22T09:24:03.618Z</time>
      </trkpt>
      <trkpt lat="48.3744116" lon="-2.0234789">
        <ele>27.448</ele>
        <time>2018-08-22T09:24:06.189Z</time>
      </trkpt>
      <trkpt lat="48.3742783" lon="-2.0233675">
        <ele>27.114</ele>
        <time>2018-08-22T09:24:08.835Z</time>
      </trkpt>
      <trkpt lat="48.3740674" lon="-2.0232736">
        <ele>26.840</ele>
        <time>2018-08-22T09:24:12.683Z</time>
      </trkpt>
      <trkpt lat="48.3739299" lon="-2.0231833">
        <ele>26.475</ele>
        <time>2018-08-22T09:24:15.497Z</time>
      </trkpt>
      <trkpt lat="48.3737567" lon="-2.0231363">
        <ele>25.815</ele>
        <time>2018-08-22T09:24:19.116Z</time>
      </trkpt>
      <trkpt lat="48.3736502" lon="-2.0230494">
        <ele>25.047</ele>
        <time>2018-08-22T09:24:21.830Z</time>
      </trkpt>
      <trkpt lat="48.3735260" lon="-2.0229808">
        <ele>24.540</ele>
        <time>2018-08-22T09:24:24.834Z</time>
      </trkpt>
      <trkpt lat="48.3734115" lon="-2.0229045">
        <ele>24.376</ele>
        <time>2018-08-22T09:24:27.759Z</time>
      </trkpt>
      <trkpt lat="48.3732948" lon="-2.0228879">
        <ele>24.577</ele>
        <time>2018-08-22T09:24:30.526Z</time>
      </trkpt>
      <trkpt lat="48.3731532" lon="-2.0228839">
        <ele>25.097</ele>
        <time>2018-08-22T09:24:33.596Z</time>
      </trkpt>
      <trkpt lat="48.3729876" lon="-2.0228501">
        <ele>25.602</ele>
        <time>2018-08-22T09:24:36.879Z</time>
      </trkpt>
      <trkpt lat="48.3728312" lon="-2.0227763">
        <ele>25.888</ele>
        <time>2018-08-22T09:24:40.026Z</time>
      </trkpt>
      <trkpt lat="48.3726728" lon="-2.0227528">
        <ele>26.156</ele>
        <time>2018-08-22T09:24:42.971Z</time>
      </trkpt>
      <trkpt lat="48.3724990" lon="-2.0227317">
        <ele>26.507</ele>
        <time>2018-08-22T09:24:46.149Z</time>
      </trkpt>
      <trkpt lat="48.3723661" lon="-2.0227312">
        <ele>26.718</ele>
        <time>2018-08-22T09:24:48.669Z</time>
      </trkpt>
      <trkpt lat="48.3722061" lon="-2.0227252">
        <ele>26.600</ele>
        <time>2018-08-22T09:24:51.808Z</time>
      </trkpt>
      <trkpt lat="48.3720652" lon="-2.0226701">
        <ele>26.289</ele>
        <time>2018-08-22T09:24:54.753Z</time>
      </trkpt>
      <trkpt lat="48.3719679" lon="-2.0226340">
        <ele>25.988</ele>
        <time>2018-08-22T09:24:56.948Z</time>
      </trkpt>
      <trkpt lat="48.3718519" lon="-2.0225973">
        <ele>25.754</ele>
        <time>2018-08-22T09:24:59.639Z</time>
      </trkpt>
      <trkpt lat="48.3717236" lon="-2.0225725">
        <ele>25.588</ele>
        <time>2018-08-22T09:25:02.641Z</time>
      </trkpt>
      <trkpt lat="48.3716296" lon="-2.0225760">
        <ele>25.463</ele>
        <time>2018-08-22T09:25:04.788Z</time>
      </trkpt>
      <trkpt lat="48.3715383" lon="-2.0225635">
        <ele>25.322</ele>
        <time>2018-08-22T09:25:06.781Z</time>
      </trkpt>
      <trkpt lat="48.3714363" lon="-2.0225527">
        <ele>25.162</ele>
        <time>2018-08-22T09:25:08.844Z</time>
      </trkpt>
      <trkpt lat="48.3713373" lon="-2.0225517">
        <ele>25.010</ele>
        <time>2018-08-22T09:25:10.702Z</time>
      </trkpt>
      <trkpt lat="48.3712330" lon="-2.0225392">
        <ele>24.735</ele>
        <time>2018-08-22T09:25:12.568Z</time>
      </trkpt>
      <trkpt lat="48.3711080" lon="-2.0225117">
        <ele>24.368</ele>
        <time>2018-08-22T09:25:14.733Z</time>
      </trkpt>
      <trkpt lat="48.3710030" lon="-2.0224868">
        <ele>23.870</ele>
        <time>2018-08-22T09:25:16.594Z</time>
      </trkpt>
      <trkpt lat="48.3708961" lon="-2.0224686">
        <ele>23.600</ele>
        <time>2018-08-22T09:25:18.465Z</time>
      </trkpt>
      <trkpt lat="48.3707752" lon="-2.0224659">
        <ele>23.704</ele>
        <time>2018-08-22T09:25:20.505Z</time>
      </trkpt>
      <trkpt lat="48.3706803" lon="-2.0224260">
        <ele>24.114</ele>
        <time>2018-08-22T09:25:22.128Z</time>
      </trkpt>
      <trkpt lat="48.3705422" lon="-2.0223965">
        <ele>24.350</ele>
        <time>2018-08-22T09:25:24.388Z</time>
      </trkpt>
      <trkpt lat="48.3704192" lon="-2.0223824">
        <ele>24.829</ele>
        <time>2018-08-22T09:25:26.390Z</time>
      </trkpt>
      <trkpt lat="48.3703009" lon="-2.0223589">
        <ele>25.251</ele>
        <time>2018-08-22T09:25:28.388Z</time>
      </trkpt>
      <trkpt lat="48.3702108" lon="-2.0223390">
        <ele>25.321</ele>
        <time>2018-08-22T09:25:29.996Z</time>
      </trkpt>
      <trkpt lat="48.3700871" lon="-2.0223211">
        <ele>25.148</ele>
        <time>2018-08-22T09:25:32.365Z</time>
      </trkpt>
      <trkpt lat="48.3699767" lon="-2.0223199">
        <ele>24.782</ele>
        <time>2018-08-22T09:25:34.886Z</time>
      </trkpt>
      <trkpt lat="48.3698626" lon="-2.0222894">
        <ele>24.262</ele>
        <time>2018-08-22T09:25:37.802Z</time>
      </trkpt>
      <trkpt lat="48.3697660" lon="-2.0222626">
        <ele>23.853</ele>
        <time>2018-08-22T09:25:40.663Z</time>
      </trkpt>
      <trkpt lat="48.3696495" lon="-2.0222297">
        <ele>23.729</ele>
        <time>2018-08-22T09:25:44.315Z</time>
      </trkpt>
      <trkpt lat="48.3695578" lon="-2.0221934">
        <ele>23.770</ele>
        <time>2018-08-22T09:25:47.406Z</time>
      </trkpt>
      <trkpt lat="48.3694617" lon="-2.0221951">
        <ele>23.832</ele>
        <time>2018-08-22T09:25:50.541Z</time>
      </trkpt>
      <trkpt lat="48.3693582" lon="-2.0222000">
        <ele>23.760</ele>
        <time>2018-08-22T09:25:53.692Z</time>
      </trkpt>
      <trkpt lat="48.3692486" lon="-2.0221843">
        <ele>23.502</ele>
        <time>2018-08-22T09:25:56.728Z</time>
      </trkpt>
      <trkpt lat="48.3691342" lon="-2.0221641">
        <ele>23.231</ele>
        <time>2018-08-22T09:25:59.728Z</time>
      </trkpt>
      <trkpt lat="48.3690211" lon="-2.0221573">
        <ele>23.146</ele>
        <time>2018-08-22T09:26:02.618Z</time>
      </trkpt>
      <trkpt lat="48.3689095" lon="-2.0221171">
        <ele>23.243</ele>
        <time>2018-08-22T09:26:05.452Z</time>
      </trkpt>
      <trkpt lat="48.3687941" lon="-2.0220716">
        <ele>23.330</ele>
        <time>2018-08-22T09:26:08.264Z</time>
      </trkpt>
      <trkpt lat="48.3686666" lon="-2.0220490">
        <ele>23.216</ele>
        <time>2018-08-22T09:26:11.328Z</time>
      </trkpt>
      <trkpt lat="48.3685709" lon="-2.0220232">
        <ele>22.919</ele>
        <time>2018-08-22T09:26:13.854Z</time>
      </trkpt>
      <trkpt lat="48.3684595" lon="-2.0219950">
        <ele>22.603</ele>
        <time>2018-08-22T09:26:16.845Z</time>
      </trkpt>
      <trkpt lat="48.3683492" lon="-2.0219597">
        <ele>22.451</ele>
        <time>2018-08-22T09:26:19.783Z</time>
      </trkpt>
      <trkpt lat="48.3682371" lon="-2.0219222">
        <ele>22.505</ele>
        <time>2018-08-22T09:26:22.827Z</time>
      </trkpt>
      <trkpt lat="48.3681346" lon="-2.0219069">
        <ele>22.496</ele>
        <time>2018-08-22T09:26:25.544Z</time>
      </trkpt>
      <trkpt lat="48.3680056" lon="-2.0218932">
        <ele>22.183</ele>
        <time>2018-08-22T09:26:28.807Z</time>
      </trkpt>
      <trkpt lat="48.3678731" lon="-2.0218762">
        <ele>21.763</ele>
        <time>2018-08-22T09:26:31.882Z</time>
      </trkpt>
      <trkpt lat="48.3677418" lon="-2.0218630">
        <ele>21.513</ele>
        <time>2018-08-22T09:26:34.794Z</time>
      </trkpt>
      <trkpt lat="48.3676113" lon="-2.0218625">
        <ele>21.431</ele>
        <time>2018-08-22T09:26:37.743Z</time>
      </trkpt>
      <trkpt lat="48.3674676" lon="-2.0218467">
        <ele>21.306</ele>
        <time>2018-08-22T09:26:40.932Z</time>
      </trkpt>
      <trkpt lat="48.3673349" lon="-2.0218386">
        <ele>20.908</ele>
        <time>2018-08-22T09:26:43.744Z</time>
      </trkpt>
      <trkpt lat="48.3671760" lon="-2.0218185">
        <ele>20.307</ele>
        <time>2018-08-22T09:26:47.165Z</time>
      </trkpt>
      <trkpt lat="48.3670306" lon="-2.0217853">
        <ele>19.757</ele>
        <time>2018-08-22T09:26:50.222Z</time>
      </trkpt>
      <trkpt lat="48.3668754" lon="-2.0217590">
        <ele>19.312</ele>
        <time>2018-08-22T09:26:53.378Z</time>
      </trkpt>
      <trkpt lat="48.3667357" lon="-2.0217200">
        <ele>18.864</ele>
        <time>2018-08-22T09:26:56.273Z</time>
      </trkpt>
      <trkpt lat="48.3665776" lon="-2.0216775">
        <ele>18.417</ele>
        <time>2018-08-22T09:26:59.498Z</time>
      </trkpt>
      <trkpt lat="48.3664335" lon="-2.0216599">
        <ele>18.136</ele>
        <time>2018-08-22T09:27:02.373Z</time>
      </trkpt>
      <trkpt lat="48.3662778" lon="-2.0216349">
        <ele>18.292</ele>
        <time>2018-08-22T09:27:05.389Z</time>
      </trkpt>
      <trkpt lat="48.3660977" lon="-2.0215939">
        <ele>18.869</ele>
        <time>2018-08-22T09:27:08.800Z</time>
      </trkpt>
      <trkpt lat="48.3659702" lon="-2.0215637">
        <ele>19.218</ele>
        <time>2018-08-22T09:27:11.402Z</time>
      </trkpt>
      <trkpt lat="48.3658284" lon="-2.0215393">
        <ele>18.867</ele>
        <time>2018-08-22T09:27:14.483Z</time>
      </trkpt>
      <trkpt lat="48.3656651" lon="-2.0215112">
        <ele>18.198</ele>
        <time>2018-08-22T09:27:17.843Z</time>
      </trkpt>
      <trkpt lat="48.3655383" lon="-2.0214603">
        <ele>17.710</ele>
        <time>2018-08-22T09:27:20.426Z</time>
      </trkpt>
      <trkpt lat="48.3653902" lon="-2.0214358">
        <ele>17.588</ele>
        <time>2018-08-22T09:27:23.356Z</time>
      </trkpt>
      <trkpt lat="48.3652565" lon="-2.0213989">
        <ele>17.800</ele>
        <time>2018-08-22T09:27:26.150Z</time>
      </trkpt>
      <trkpt lat="48.3651220" lon="-2.0213050">
        <ele>18.102</ele>
        <time>2018-08-22T09:27:29.371Z</time>
      </trkpt>
      <trkpt lat="48.3649668" lon="-2.0212995">
        <ele>18.262</ele>
        <time>2018-08-22T09:27:32.586Z</time>
      </trkpt>
      <trkpt lat="48.3647965" lon="-2.0212894">
        <ele>18.198</ele>
        <time>2018-08-22T09:27:35.921Z</time>
      </trkpt>
      <trkpt lat="48.3646596" lon="-2.0212677">
        <ele>17.860</ele>
        <time>2018-08-22T09:27:38.700Z</time>
      </trkpt>
      <trkpt lat="48.3645181" lon="-2.0212279">
        <ele>17.263</ele>
        <time>2018-08-22T09:27:41.802Z</time>
      </trkpt>
      <trkpt lat="48.3643690" lon="-2.0211863">
        <ele>16.623</ele>
        <time>2018-08-22T09:27:44.981Z</time>
      </trkpt>
      <trkpt lat="48.3641939" lon="-2.0211543">
        <ele>16.243</ele>
        <time>2018-08-22T09:27:48.455Z</time>
      </trkpt>
      <trkpt lat="48.3640282" lon="-2.0211603">
        <ele>16.300</ele>
        <time>2018-08-22T09:27:51.669Z</time>
      </trkpt>
      <trkpt lat="48.3638775" lon="-2.0210912">
        <ele>16.813</ele>
        <time>2018-08-22T09:27:54.814Z</time>
      </trkpt>
      <trkpt lat="48.3637538" lon="-2.0210763">
        <ele>17.534</ele>
        <time>2018-08-22T09:27:57.470Z</time>
      </trkpt>
      <trkpt lat="48.3636271" lon="-2.0210651">
        <ele>18.057</ele>
        <time>2018-08-22T09:28:00.293Z</time>
      </trkpt>
      <trkpt lat="48.3635018" lon="-2.0210266">
        <ele>18.105</ele>
        <time>2018-08-22T09:28:03.081Z</time>
      </trkpt>
      <trkpt lat="48.3633612" lon="-2.0210197">
        <ele>17.741</ele>
        <time>2018-08-22T09:28:06.030Z</time>
      </trkpt>
      <trkpt lat="48.3632084" lon="-2.0210017">
        <ele>17.378</ele>
        <time>2018-08-22T09:28:09.205Z</time>
      </trkpt>
      <trkpt lat="48.3630515" lon="-2.0209779">
        <ele>17.351</ele>
        <time>2018-08-22T09:28:12.447Z</time>
      </trkpt>
      <trkpt lat="48.3629002" lon="-2.0209840">
        <ele>17.575</ele>
        <time>2018-08-22T09:28:15.539Z</time>
      </trkpt>
      <trkpt lat="48.3627289" lon="-2.0209502">
        <ele>17.800</ele>
        <time>2018-08-22T09:28:19.176Z</time>
      </trkpt>
      <trkpt lat="48.3626330" lon="-2.0209372">
        <ele>17.940</ele>
        <time>2018-08-22T09:28:21.412Z</time>
      </trkpt>
      <trkpt lat="48.3625227" lon="-2.0209148">
        <ele>18.044</ele>
        <time>2018-08-22T09:28:24.117Z</time>
      </trkpt>
      <trkpt lat="48.3623864" lon="-2.0208912">
        <ele>18.159</ele>
        <time>2018-08-22T09:28:27.320Z</time>
      </trkpt>
      <trkpt lat="48.3622454" lon="-2.0208769">
        <ele>18.184</ele>
        <time>2018-08-22T09:28:30.454Z</time>
      </trkpt>
      <trkpt lat="48.3621349" lon="-2.0208144">
        <ele>18.144</ele>
        <time>2018-08-22T09:28:33.077Z</time>
      </trkpt>
      <trkpt lat="48.3620041" lon="-2.0207963">
        <ele>18.316</ele>
        <time>2018-08-22T09:28:36.119Z</time>
      </trkpt>
      <trkpt lat="48.3618237" lon="-2.0207687">
        <ele>18.715</ele>
        <time>2018-08-22T09:28:39.899Z</time>
      </trkpt>
      <trkpt lat="48.3616683" lon="-2.0207361">
        <ele>19.030</ele>
        <time>2018-08-22T09:28:43.106Z</time>
      </trkpt>
      <trkpt lat="48.3615637" lon="-2.0207065">
        <ele>19.092</ele>
        <time>2018-08-22T09:28:45.391Z</time>
      </trkpt>
      <trkpt lat="48.3614124" lon="-2.0206659">
        <ele>18.879</ele>
        <time>2018-08-22T09:28:48.619Z</time>
      </trkpt>
      <trkpt lat="48.3612584" lon="-2.0206526">
        <ele>18.497</ele>
        <time>2018-08-22T09:28:51.552Z</time>
      </trkpt>
      <trkpt lat="48.3611149" lon="-2.0206073">
        <ele>17.930</ele>
        <time>2018-08-22T09:28:54.336Z</time>
      </trkpt>
      <trkpt lat="48.3610213" lon="-2.0206062">
        <ele>17.174</ele>
        <time>2018-08-22T09:28:56.362Z</time>
      </trkpt>
      <trkpt lat="48.3608759" lon="-2.0206018">
        <ele>16.550</ele>
        <time>2018-08-22T09:29:00.168Z</time>
      </trkpt>
      <trkpt lat="48.3607595" lon="-2.0205631">
        <ele>16.255</ele>
        <time>2018-08-22T09:29:03.763Z</time>
      </trkpt>
      <trkpt lat="48.3606618" lon="-2.0205334">
        <ele>16.131</ele>
        <time>2018-08-22T09:29:06.776Z</time>
      </trkpt>
      <trkpt lat="48.3605496" lon="-2.0204934">
        <ele>16.204</ele>
        <time>2018-08-22T09:29:09.954Z</time>
      </trkpt>
      <trkpt lat="48.3604608" lon="-2.0204671">
        <ele>16.526</ele>
        <time>2018-08-22T09:29:12.348Z</time>
      </trkpt>
      <trkpt lat="48.3603513" lon="-2.0204360">
        <ele>16.872</ele>
        <time>2018-08-22T09:29:15.331Z</time>
      </trkpt>
      <trkpt lat="48.3602396" lon="-2.0203959">
        <ele>17.054</ele>
        <time>2018-08-22T09:29:18.407Z</time>
      </trkpt>
      <trkpt lat="48.3601266" lon="-2.0203444">
        <ele>17.186</ele>
        <time>2018-08-22T09:29:21.481Z</time>
      </trkpt>
      <trkpt lat="48.3600064" lon="-2.0202853">
        <ele>17.414</ele>
        <time>2018-08-22T09:29:24.636Z</time>
      </trkpt>
      <trkpt lat="48.3598863" lon="-2.0202310">
        <ele>17.781</ele>
        <time>2018-08-22T09:29:27.615Z</time>
      </trkpt>
      <trkpt lat="48.3597678" lon="-2.0201724">
        <ele>18.198</ele>
        <time>2018-08-22T09:29:30.514Z</time>
      </trkpt>
      <trkpt lat="48.3596467" lon="-2.0201182">
        <ele>18.493</ele>
        <time>2018-08-22T09:29:33.448Z</time>
      </trkpt>
      <trkpt lat="48.3595136" lon="-2.0200472">
        <ele>18.593</ele>
        <time>2018-08-22T09:29:36.700Z</time>
      </trkpt>
      <trkpt lat="48.3593871" lon="-2.0199832">
        <ele>18.583</ele>
        <time>2018-08-22T09:29:39.687Z</time>
      </trkpt>
      <trkpt lat="48.3592838" lon="-2.0199000">
        <ele>18.551</ele>
        <time>2018-08-22T09:29:42.304Z</time>
      </trkpt>
      <trkpt lat="48.3591585" lon="-2.0198395">
        <ele>18.526</ele>
        <time>2018-08-22T09:29:45.302Z</time>
      </trkpt>
      <trkpt lat="48.3590306" lon="-2.0197859">
        <ele>18.491</ele>
        <time>2018-08-22T09:29:48.326Z</time>
      </trkpt>
      <trkpt lat="48.3589126" lon="-2.0197244">
        <ele>18.344</ele>
        <time>2018-08-22T09:29:51.134Z</time>
      </trkpt>
      <trkpt lat="48.3587861" lon="-2.0196596">
        <ele>18.048</ele>
        <time>2018-08-22T09:29:54.127Z</time>
      </trkpt>
      <trkpt lat="48.3586686" lon="-2.0195899">
        <ele>17.757</ele>
        <time>2018-08-22T09:29:56.961Z</time>
      </trkpt>
      <trkpt lat="48.3585630" lon="-2.0195099">
        <ele>17.614</ele>
        <time>2018-08-22T09:29:59.641Z</time>
      </trkpt>
      <trkpt lat="48.3584442" lon="-2.0194308">
        <ele>17.559</ele>
        <time>2018-08-22T09:30:02.679Z</time>
      </trkpt>
      <trkpt lat="48.3583427" lon="-2.0193451">
        <ele>17.536</ele>
        <time>2018-08-22T09:30:05.422Z</time>
      </trkpt>
      <trkpt lat="48.3582462" lon="-2.0192623">
        <ele>17.617</ele>
        <time>2018-08-22T09:30:08.037Z</time>
      </trkpt>
      <trkpt lat="48.3581544" lon="-2.0191996">
        <ele>17.812</ele>
        <time>2018-08-22T09:30:10.501Z</time>
      </trkpt>
      <trkpt lat="48.3580318" lon="-2.0191374">
        <ele>17.896</ele>
        <time>2018-08-22T09:30:13.789Z</time>
      </trkpt>
      <trkpt lat="48.3579203" lon="-2.0190523">
        <ele>17.670</ele>
        <time>2018-08-22T09:30:16.947Z</time>
      </trkpt>
      <trkpt lat="48.3577794" lon="-2.0189483">
        <ele>17.240</ele>
        <time>2018-08-22T09:30:20.702Z</time>
      </trkpt>
      <trkpt lat="48.3576246" lon="-2.0188556">
        <ele>16.809</ele>
        <time>2018-08-22T09:30:24.498Z</time>
      </trkpt>
      <trkpt lat="48.3575025" lon="-2.0187592">
        <ele>16.372</ele>
        <time>2018-08-22T09:30:27.563Z</time>
      </trkpt>
      <trkpt lat="48.3574141" lon="-2.0186588">
        <ele>15.930</ele>
        <time>2018-08-22T09:30:30.099Z</time>
      </trkpt>
      <trkpt lat="48.3573115" lon="-2.0185649">
        <ele>15.568</ele>
        <time>2018-08-22T09:30:33.018Z</time>
      </trkpt>
      <trkpt lat="48.3572156" lon="-2.0184929">
        <ele>15.285</ele>
        <time>2018-08-22T09:30:35.674Z</time>
      </trkpt>
      <trkpt lat="48.3571071" lon="-2.0184049">
        <ele>15.102</ele>
        <time>2018-08-22T09:30:38.650Z</time>
      </trkpt>
      <trkpt lat="48.3569989" lon="-2.0183293">
        <ele>15.070</ele>
        <time>2018-08-22T09:30:41.481Z</time>
      </trkpt>
      <trkpt lat="48.3568907" lon="-2.0182572">
        <ele>15.174</ele>
        <time>2018-08-22T09:30:44.282Z</time>
      </trkpt>
      <trkpt lat="48.3567546" lon="-2.0181562">
        <ele>15.378</ele>
        <time>2018-08-22T09:30:47.993Z</time>
      </trkpt>
      <trkpt lat="48.3566052" lon="-2.0180811">
        <ele>15.730</ele>
        <time>2018-08-22T09:30:51.774Z</time>
      </trkpt>
      <trkpt lat="48.3564704" lon="-2.0180070">
        <ele>16.245</ele>
        <time>2018-08-22T09:30:54.993Z</time>
      </trkpt>
      <trkpt lat="48.3563633" lon="-2.0179358">
        <ele>16.784</ele>
        <time>2018-08-22T09:30:57.647Z</time>
      </trkpt>
      <trkpt lat="48.3562688" lon="-2.0178479">
        <ele>17.228</ele>
        <time>2018-08-22T09:31:00.308Z</time>
      </trkpt>
      <trkpt lat="48.3561502" lon="-2.0177727">
        <ele>17.566</ele>
        <time>2018-08-22T09:31:03.451Z</time>
      </trkpt>
      <trkpt lat="48.3560433" lon="-2.0176868">
        <ele>17.757</ele>
        <time>2018-08-22T09:31:06.383Z</time>
      </trkpt>
      <trkpt lat="48.3559234" lon="-2.0175868">
        <ele>17.944</ele>
        <time>2018-08-22T09:31:09.621Z</time>
      </trkpt>
      <trkpt lat="48.3558093" lon="-2.0174996">
        <ele>18.303</ele>
        <time>2018-08-22T09:31:12.537Z</time>
      </trkpt>
      <trkpt lat="48.3557049" lon="-2.0174210">
        <ele>18.783</ele>
        <time>2018-08-22T09:31:15.191Z</time>
      </trkpt>
      <trkpt lat="48.3555744" lon="-2.0173410">
        <ele>19.243</ele>
        <time>2018-08-22T09:31:18.412Z</time>
      </trkpt>
      <trkpt lat="48.3554402" lon="-2.0172372">
        <ele>19.540</ele>
        <time>2018-08-22T09:31:21.816Z</time>
      </trkpt>
      <trkpt lat="48.3553085" lon="-2.0171602">
        <ele>19.521</ele>
        <time>2018-08-22T09:31:24.873Z</time>
      </trkpt>
      <trkpt lat="48.3551803" lon="-2.0170871">
        <ele>19.215</ele>
        <time>2018-08-22T09:31:27.769Z</time>
      </trkpt>
      <trkpt lat="48.3550893" lon="-2.0170224">
        <ele>18.696</ele>
        <time>2018-08-22T09:31:29.958Z</time>
      </trkpt>
      <trkpt lat="48.3549692" lon="-2.0169304">
        <ele>18.087</ele>
        <time>2018-08-22T09:31:33.089Z</time>
      </trkpt>
      <trkpt lat="48.3548428" lon="-2.0168474">
        <ele>17.674</ele>
        <time>2018-08-22T09:31:36.445Z</time>
      </trkpt>
      <trkpt lat="48.3547463" lon="-2.0167649">
        <ele>17.640</ele>
        <time>2018-08-22T09:31:39.095Z</time>
      </trkpt>
      <trkpt lat="48.3545948" lon="-2.0166542">
        <ele>17.815</ele>
        <time>2018-08-22T09:31:42.928Z</time>
      </trkpt>
      <trkpt lat="48.3544472" lon="-2.0165562">
        <ele>17.979</ele>
        <time>2018-08-22T09:31:46.325Z</time>
      </trkpt>
      <trkpt lat="48.3543279" lon="-2.0164669">
        <ele>17.968</ele>
        <time>2018-08-22T09:31:49.083Z</time>
      </trkpt>
      <trkpt lat="48.3542119" lon="-2.0163883">
        <ele>17.611</ele>
        <time>2018-08-22T09:31:51.840Z</time>
      </trkpt>
      <trkpt lat="48.3540949" lon="-2.0162922">
        <ele>16.993</ele>
        <time>2018-08-22T09:31:54.855Z</time>
      </trkpt>
      <trkpt lat="48.3539582" lon="-2.0162231">
        <ele>16.604</ele>
        <time>2018-08-22T09:31:58.146Z</time>
      </trkpt>
      <trkpt lat="48.3538329" lon="-2.0161314">
        <ele>16.737</ele>
        <time>2018-08-22T09:32:01.175Z</time>
      </trkpt>
      <trkpt lat="48.3537135" lon="-2.0160413">
        <ele>17.194</ele>
        <time>2018-08-22T09:32:04.040Z</time>
      </trkpt>
      <trkpt lat="48.3536009" lon="-2.0159523">
        <ele>17.704</ele>
        <time>2018-08-22T09:32:06.852Z</time>
      </trkpt>
      <trkpt lat="48.3534943" lon="-2.0158728">
        <ele>18.133</ele>
        <time>2018-08-22T09:32:09.584Z</time>
      </trkpt>
      <trkpt lat="48.3533943" lon="-2.0157880">
        <ele>18.376</ele>
        <time>2018-08-22T09:32:12.314Z</time>
      </trkpt>
      <trkpt lat="48.3532878" lon="-2.0157003">
        <ele>18.438</ele>
        <time>2018-08-22T09:32:15.317Z</time>
      </trkpt>
      <trkpt lat="48.3531797" lon="-2.0156147">
        <ele>18.434</ele>
        <time>2018-08-22T09:32:18.387Z</time>
      </trkpt>
      <trkpt lat="48.3530740" lon="-2.0155433">
        <ele>18.492</ele>
        <time>2018-08-22T09:32:21.240Z</time>
      </trkpt>
      <trkpt lat="48.3529594" lon="-2.0154704">
        <ele>18.645</ele>
        <time>2018-08-22T09:32:24.243Z</time>
      </trkpt>
      <trkpt lat="48.3528478" lon="-2.0153865">
        <ele>18.787</ele>
        <time>2018-08-22T09:32:27.196Z</time>
      </trkpt>
      <trkpt lat="48.3527602" lon="-2.0153194">
        <ele>18.815</ele>
        <time>2018-08-22T09:32:29.466Z</time>
      </trkpt>
      <trkpt lat="48.3526604" lon="-2.0152226">
        <ele>18.742</ele>
        <time>2018-08-22T09:32:32.269Z</time>
      </trkpt>
      <trkpt lat="48.3525361" lon="-2.0151549">
        <ele>18.623</ele>
        <time>2018-08-22T09:32:35.685Z</time>
      </trkpt>
      <trkpt lat="48.3524284" lon="-2.0150951">
        <ele>18.529</ele>
        <time>2018-08-22T09:32:38.736Z</time>
      </trkpt>
      <trkpt lat="48.3523398" lon="-2.0150371">
        <ele>18.494</ele>
        <time>2018-08-22T09:32:41.379Z</time>
      </trkpt>
      <trkpt lat="48.3522330" lon="-2.0149734">
        <ele>18.496</ele>
        <time>2018-08-22T09:32:44.644Z</time>
      </trkpt>
      <trkpt lat="48.3521311" lon="-2.0149060">
        <ele>18.595</ele>
        <time>2018-08-22T09:32:47.794Z</time>
      </trkpt>
      <trkpt lat="48.3520399" lon="-2.0148198">
        <ele>18.832</ele>
        <time>2018-08-22T09:32:51.153Z</time>
      </trkpt>
      <trkpt lat="48.3519590" lon="-2.0147374">
        <ele>19.012</ele>
        <time>2018-08-22T09:32:54.979Z</time>
      </trkpt>
      <trkpt lat="48.3520604" lon="-2.0147788">
        <ele>18.970</ele>
        <time>2018-08-22T09:33:00.127Z</time>
      </trkpt>
      <trkpt lat="48.3521481" lon="-2.0148623">
        <ele>18.857</ele>
        <time>2018-08-22T09:33:04.901Z</time>
      </trkpt>
      <trkpt lat="48.3522507" lon="-2.0149318">
        <ele>18.931</ele>
        <time>2018-08-22T09:33:08.490Z</time>
      </trkpt>
      <trkpt lat="48.3523611" lon="-2.0150177">
        <ele>19.273</ele>
        <time>2018-08-22T09:33:11.789Z</time>
      </trkpt>
      <trkpt lat="48.3524728" lon="-2.0151166">
        <ele>19.704</ele>
        <time>2018-08-22T09:33:15.112Z</time>
      </trkpt>
      <trkpt lat="48.3526288" lon="-2.0152112">
        <ele>19.989</ele>
        <time>2018-08-22T09:33:19.099Z</time>
      </trkpt>
      <trkpt lat="48.3527210" lon="-2.0152630">
        <ele>20.084</ele>
        <time>2018-08-22T09:33:21.340Z</time>
      </trkpt>
      <trkpt lat="48.3528514" lon="-2.0152654">
        <ele>20.077</ele>
        <time>2018-08-22T09:33:24.442Z</time>
      </trkpt>
      <trkpt lat="48.3529730" lon="-2.0153355">
        <ele>20.033</ele>
        <time>2018-08-22T09:33:27.576Z</time>
      </trkpt>
      <trkpt lat="48.3530760" lon="-2.0154160">
        <ele>19.977</ele>
        <time>2018-08-22T09:33:30.398Z</time>
      </trkpt>
      <trkpt lat="48.3531600" lon="-2.0154876">
        <ele>19.857</ele>
        <time>2018-08-22T09:33:32.998Z</time>
      </trkpt>
      <trkpt lat="48.3531600" lon="-2.0154876">
        <ele>19.652</ele>
        <time>2018-08-22T09:33:40.998Z</time>
      </trkpt>
      <trkpt lat="48.3531600" lon="-2.0154876">
        <ele>19.494</ele>
        <time>2018-08-22T09:33:42.245Z</time>
      </trkpt>
      <trkpt lat="48.3530281" lon="-2.0154929">
        <ele>19.491</ele>
        <time>2018-08-22T09:33:49.048Z</time>
      </trkpt>
      <trkpt lat="48.3529400" lon="-2.0154237">
        <ele>19.422</ele>
        <time>2018-08-22T09:33:52.113Z</time>
      </trkpt>
      <trkpt lat="48.3528587" lon="-2.0153441">
        <ele>19.110</ele>
        <time>2018-08-22T09:33:55.023Z</time>
      </trkpt>
      <trkpt lat="48.3527764" lon="-2.0152607">
        <ele>18.846</ele>
        <time>2018-08-22T09:33:57.804Z</time>
      </trkpt>
      <trkpt lat="48.3526599" lon="-2.0151505">
        <ele>18.909</ele>
        <time>2018-08-22T09:34:01.202Z</time>
      </trkpt>
      <trkpt lat="48.3524823" lon="-2.0150826">
        <ele>19.081</ele>
        <time>2018-08-22T09:34:05.303Z</time>
      </trkpt>
      <trkpt lat="48.3523734" lon="-2.0149938">
        <ele>19.110</ele>
        <time>2018-08-22T09:34:07.905Z</time>
      </trkpt>
      <trkpt lat="48.3522388" lon="-2.0149091">
        <ele>19.116</ele>
        <time>2018-08-22T09:34:10.963Z</time>
      </trkpt>
      <trkpt lat="48.3521289" lon="-2.0148256">
        <ele>19.265</ele>
        <time>2018-08-22T09:34:13.787Z</time>
      </trkpt>
      <trkpt lat="48.3520129" lon="-2.0147544">
        <ele>19.517</ele>
        <time>2018-08-22T09:34:16.807Z</time>
      </trkpt>
      <trkpt lat="48.3518889" lon="-2.0146896">
        <ele>19.821</ele>
        <time>2018-08-22T09:34:19.747Z</time>
      </trkpt>
      <trkpt lat="48.3517601" lon="-2.0146177">
        <ele>20.144</ele>
        <time>2018-08-22T09:34:22.868Z</time>
      </trkpt>
      <trkpt lat="48.3516575" lon="-2.0145489">
        <ele>20.267</ele>
        <time>2018-08-22T09:34:25.640Z</time>
      </trkpt>
      <trkpt lat="48.3515596" lon="-2.0144746">
        <ele>20.009</ele>
        <time>2018-08-22T09:34:28.802Z</time>
      </trkpt>
      <trkpt lat="48.3514568" lon="-2.0144103">
        <ele>19.541</ele>
        <time>2018-08-22T09:34:32.445Z</time>
      </trkpt>
      <trkpt lat="48.3513594" lon="-2.0143319">
        <ele>19.206</ele>
        <time>2018-08-22T09:34:36.150Z</time>
      </trkpt>
      <trkpt lat="48.3512806" lon="-2.0142509">
        <ele>19.140</ele>
        <time>2018-08-22T09:34:39.143Z</time>
      </trkpt>
      <trkpt lat="48.3511917" lon="-2.0141979">
        <ele>19.268</ele>
        <time>2018-08-22T09:34:42.000Z</time>
      </trkpt>
      <trkpt lat="48.3510923" lon="-2.0141391">
        <ele>19.453</ele>
        <time>2018-08-22T09:34:45.176Z</time>
      </trkpt>
      <trkpt lat="48.3510052" lon="-2.0140741">
        <ele>19.584</ele>
        <time>2018-08-22T09:34:48.389Z</time>
      </trkpt>
      <trkpt lat="48.3509064" lon="-2.0139987">
        <ele>19.574</ele>
        <time>2018-08-22T09:34:52.213Z</time>
      </trkpt>
      <trkpt lat="48.3508111" lon="-2.0139442">
        <ele>19.400</ele>
        <time>2018-08-22T09:34:55.506Z</time>
      </trkpt>
      <trkpt lat="48.3507253" lon="-2.0138972">
        <ele>19.189</ele>
        <time>2018-08-22T09:34:58.302Z</time>
      </trkpt>
      <trkpt lat="48.3506261" lon="-2.0138346">
        <ele>19.069</ele>
        <time>2018-08-22T09:35:01.529Z</time>
      </trkpt>
      <trkpt lat="48.3505372" lon="-2.0137782">
        <ele>18.991</ele>
        <time>2018-08-22T09:35:04.336Z</time>
      </trkpt>
      <trkpt lat="48.3504364" lon="-2.0137074">
        <ele>18.825</ele>
        <time>2018-08-22T09:35:07.478Z</time>
      </trkpt>
      <trkpt lat="48.3503421" lon="-2.0136470">
        <ele>18.484</ele>
        <time>2018-08-22T09:35:10.309Z</time>
      </trkpt>
      <trkpt lat="48.3502174" lon="-2.0135957">
        <ele>18.022</ele>
        <time>2018-08-22T09:35:13.741Z</time>
      </trkpt>
      <trkpt lat="48.3501041" lon="-2.0135362">
        <ele>17.646</ele>
        <time>2018-08-22T09:35:16.907Z</time>
      </trkpt>
      <trkpt lat="48.3500124" lon="-2.0134492">
        <ele>17.476</ele>
        <time>2018-08-22T09:35:19.728Z</time>
      </trkpt>
      <trkpt lat="48.3499188" lon="-2.0133652">
        <ele>17.289</ele>
        <time>2018-08-22T09:35:22.504Z</time>
      </trkpt>
      <trkpt lat="48.3498164" lon="-2.0132848">
        <ele>16.887</ele>
        <time>2018-08-22T09:35:25.379Z</time>
      </trkpt>
      <trkpt lat="48.3497098" lon="-2.0132062">
        <ele>16.634</ele>
        <time>2018-08-22T09:35:28.270Z</time>
      </trkpt>
      <trkpt lat="48.3496081" lon="-2.0131177">
        <ele>16.870</ele>
        <time>2018-08-22T09:35:31.099Z</time>
      </trkpt>
      <trkpt lat="48.3495024" lon="-2.0130350">
        <ele>17.303</ele>
        <time>2018-08-22T09:35:34.022Z</time>
      </trkpt>
      <trkpt lat="48.3494144" lon="-2.0129689">
        <ele>17.597</ele>
        <time>2018-08-22T09:35:36.535Z</time>
      </trkpt>
      <trkpt lat="48.3493147" lon="-2.0128951">
        <ele>17.751</ele>
        <time>2018-08-22T09:35:39.521Z</time>
      </trkpt>
      <trkpt lat="48.3492064" lon="-2.0128197">
        <ele>17.826</ele>
        <time>2018-08-22T09:35:42.861Z</time>
      </trkpt>
      <trkpt lat="48.3491227" lon="-2.0127522">
        <ele>17.844</ele>
        <time>2018-08-22T09:35:45.623Z</time>
      </trkpt>
      <trkpt lat="48.3490394" lon="-2.0126844">
        <ele>17.752</ele>
        <time>2018-08-22T09:35:48.433Z</time>
      </trkpt>
      <trkpt lat="48.3489331" lon="-2.0126168">
        <ele>17.539</ele>
        <time>2018-08-22T09:35:51.995Z</time>
      </trkpt>
      <trkpt lat="48.3489331" lon="-2.0126168">
        <ele>17.332</ele>
        <time>2018-08-22T09:35:53.995Z</time>
      </trkpt>
      <trkpt lat="48.3489331" lon="-2.0126168">
        <ele>17.242</ele>
        <time>2018-08-22T09:35:54.095Z</time>
      </trkpt>
      <trkpt lat="48.3487322" lon="-2.0124597">
        <ele>17.275</ele>
        <time>2018-08-22T09:36:01.515Z</time>
      </trkpt>
      <trkpt lat="48.3486305" lon="-2.0123769">
        <ele>17.436</ele>
        <time>2018-08-22T09:36:04.288Z</time>
      </trkpt>
      <trkpt lat="48.3485319" lon="-2.0123240">
        <ele>17.669</ele>
        <time>2018-08-22T09:36:06.865Z</time>
      </trkpt>
      <trkpt lat="48.3484404" lon="-2.0122666">
        <ele>17.786</ele>
        <time>2018-08-22T09:36:09.443Z</time>
      </trkpt>
      <trkpt lat="48.3483580" lon="-2.0122108">
        <ele>17.508</ele>
        <time>2018-08-22T09:36:11.887Z</time>
      </trkpt>
      <trkpt lat="48.3482674" lon="-2.0121467">
        <ele>16.866</ele>
        <time>2018-08-22T09:36:14.619Z</time>
      </trkpt>
      <trkpt lat="48.3481677" lon="-2.0120811">
        <ele>16.281</ele>
        <time>2018-08-22T09:36:17.539Z</time>
      </trkpt>
      <trkpt lat="48.3480671" lon="-2.0120233">
        <ele>16.053</ele>
        <time>2018-08-22T09:36:20.428Z</time>
      </trkpt>
      <trkpt lat="48.3479692" lon="-2.0119292">
        <ele>16.191</ele>
        <time>2018-08-22T09:36:23.625Z</time>
      </trkpt>
      <trkpt lat="48.3478672" lon="-2.0118458">
        <ele>16.566</ele>
        <time>2018-08-22T09:36:26.994Z</time>
      </trkpt>
      <trkpt lat="48.3478672" lon="-2.0118458">
        <ele>16.910</ele>
        <time>2018-08-22T09:36:31.994Z</time>
      </trkpt>
      <trkpt lat="48.3478672" lon="-2.0118458">
        <ele>17.039</ele>
        <time>2018-08-22T09:38:23.471Z</time>
      </trkpt>
      <trkpt lat="48.3476637" lon="-2.0117729">
        <ele>17.007</ele>
        <time>2018-08-22T09:38:40.618Z</time>
      </trkpt>
      <trkpt lat="48.3475749" lon="-2.0116811">
        <ele>17.058</ele>
        <time>2018-08-22T09:38:44.774Z</time>
      </trkpt>
      <trkpt lat="48.3474843" lon="-2.0115915">
        <ele>17.333</ele>
        <time>2018-08-22T09:38:48.470Z</time>
      </trkpt>
      <trkpt lat="48.3473862" lon="-2.0115174">
        <ele>17.554</ele>
        <time>2018-08-22T09:38:52.250Z</time>
      </trkpt>
      <trkpt lat="48.3473118" lon="-2.0114174">
        <ele>17.377</ele>
        <time>2018-08-22T09:38:55.933Z</time>
      </trkpt>
      <trkpt lat="48.3472140" lon="-2.0113555">
        <ele>16.874</ele>
        <time>2018-08-22T09:38:59.964Z</time>
      </trkpt>
      <trkpt lat="48.3471161" lon="-2.0113220">
        <ele>16.369</ele>
        <time>2018-08-22T09:39:03.932Z</time>
      </trkpt>
      <trkpt lat="48.3470153" lon="-2.0112551">
        <ele>16.164</ele>
        <time>2018-08-22T09:39:08.502Z</time>
      </trkpt>
      <trkpt lat="48.3469319" lon="-2.0111934">
        <ele>16.346</ele>
        <time>2018-08-22T09:39:12.432Z</time>
      </trkpt>
      <trkpt lat="48.3468501" lon="-2.0111230">
        <ele>16.735</ele>
        <time>2018-08-22T09:39:16.282Z</time>
      </trkpt>
      <trkpt lat="48.3467650" lon="-2.0110731">
        <ele>17.077</ele>
        <time>2018-08-22T09:39:19.995Z</time>
      </trkpt>
      <trkpt lat="48.3466717" lon="-2.0110167">
        <ele>17.138</ele>
        <time>2018-08-22T09:39:24.036Z</time>
      </trkpt>
      <trkpt lat="48.3465820" lon="-2.0109589">
        <ele>16.845</ele>
        <time>2018-08-22T09:39:27.783Z</time>
      </trkpt>
      <trkpt lat="48.3464914" lon="-2.0108859">
        <ele>16.376</ele>
        <time>2018-08-22T09:39:31.530Z</time>
      </trkpt>
      <trkpt lat="48.3463912" lon="-2.0108126">
        <ele>15.833</ele>
        <time>2018-08-22T09:39:35.399Z</time>
      </trkpt>
      <trkpt lat="48.3462864" lon="-2.0107356">
        <ele>15.267</ele>
        <time>2018-08-22T09:39:39.366Z</time>
      </trkpt>
      <trkpt lat="48.3461858" lon="-2.0106632">
        <ele>14.934</ele>
        <time>2018-08-22T09:39:43.168Z</time>
      </trkpt>
      <trkpt lat="48.3460842" lon="-2.0105964">
        <ele>14.958</ele>
        <time>2018-08-22T09:39:47.028Z</time>
      </trkpt>
      <trkpt lat="48.3459796" lon="-2.0105183">
        <ele>15.139</ele>
        <time>2018-08-22T09:39:51.089Z</time>
      </trkpt>
      <trkpt lat="48.3458739" lon="-2.0104514">
        <ele>15.389</ele>
        <time>2018-08-22T09:39:55.017Z</time>
      </trkpt>
      <trkpt lat="48.3457905" lon="-2.0103966">
        <ele>15.797</ele>
        <time>2018-08-22T09:39:58.098Z</time>
      </trkpt>
      <trkpt lat="48.3457003" lon="-2.0103382">
        <ele>16.268</ele>
        <time>2018-08-22T09:40:01.277Z</time>
      </trkpt>
      <trkpt lat="48.3455942" lon="-2.0102641">
        <ele>16.605</ele>
        <time>2018-08-22T09:40:04.980Z</time>
      </trkpt>
      <trkpt lat="48.3455022" lon="-2.0102159">
        <ele>16.756</ele>
        <time>2018-08-22T09:40:08.012Z</time>
      </trkpt>
      <trkpt lat="48.3454128" lon="-2.0101392">
        <ele>16.782</ele>
        <time>2018-08-22T09:40:11.125Z</time>
      </trkpt>
      <trkpt lat="48.3453227" lon="-2.0100625">
        <ele>16.753</ele>
        <time>2018-08-22T09:40:14.185Z</time>
      </trkpt>
      <trkpt lat="48.3452426" lon="-2.0099979">
        <ele>16.714</ele>
        <time>2018-08-22T09:40:16.881Z</time>
      </trkpt>
      <trkpt lat="48.3451519" lon="-2.0099310">
        <ele>16.688</ele>
        <time>2018-08-22T09:40:19.946Z</time>
      </trkpt>
      <trkpt lat="48.3450692" lon="-2.0098574">
        <ele>16.683</ele>
        <time>2018-08-22T09:40:22.928Z</time>
      </trkpt>
      <trkpt lat="48.3449817" lon="-2.0097881">
        <ele>16.712</ele>
        <time>2018-08-22T09:40:26.038Z</time>
      </trkpt>
      <trkpt lat="48.3448928" lon="-2.0097202">
        <ele>16.773</ele>
        <time>2018-08-22T09:40:29.116Z</time>
      </trkpt>
      <trkpt lat="48.3448018" lon="-2.0096539">
        <ele>16.816</ele>
        <time>2018-08-22T09:40:32.107Z</time>
      </trkpt>
      <trkpt lat="48.3447121" lon="-2.0095814">
        <ele>16.700</ele>
        <time>2018-08-22T09:40:34.996Z</time>
      </trkpt>
      <trkpt lat="48.3447121" lon="-2.0095814">
        <ele>16.394</ele>
        <time>2018-08-22T09:40:36.996Z</time>
      </trkpt>
      <trkpt lat="48.3447121" lon="-2.0095814">
        <ele>16.146</ele>
        <time>2018-08-22T09:40:37.096Z</time>
      </trkpt>
      <trkpt lat="48.3445113" lon="-2.0094414">
        <ele>16.158</ele>
        <time>2018-08-22T09:40:44.971Z</time>
      </trkpt>
      <trkpt lat="48.3444225" lon="-2.0093919">
        <ele>16.314</ele>
        <time>2018-08-22T09:40:47.251Z</time>
      </trkpt>
      <trkpt lat="48.3443261" lon="-2.0093272">
        <ele>16.528</ele>
        <time>2018-08-22T09:40:49.694Z</time>
      </trkpt>
      <trkpt lat="48.3442243" lon="-2.0092508">
        <ele>16.804</ele>
        <time>2018-08-22T09:40:52.211Z</time>
      </trkpt>
      <trkpt lat="48.3441178" lon="-2.0091878">
        <ele>17.070</ele>
        <time>2018-08-22T09:40:54.643Z</time>
      </trkpt>
      <trkpt lat="48.3440120" lon="-2.0091246">
        <ele>17.249</ele>
        <time>2018-08-22T09:40:56.996Z</time>
      </trkpt>
      <trkpt lat="48.3440120" lon="-2.0091246">
        <ele>17.341</ele>
        <time>2018-08-22T09:40:58.996Z</time>
      </trkpt>
      <trkpt lat="48.3440120" lon="-2.0091246">
        <ele>17.357</ele>
        <time>2018-08-22T09:40:59.096Z</time>
      </trkpt>
      <trkpt lat="48.3438111" lon="-2.0089792">
        <ele>17.343</ele>
        <time>2018-08-22T09:41:06.129Z</time>
      </trkpt>
      <trkpt lat="48.3437104" lon="-2.0089082">
        <ele>17.398</ele>
        <time>2018-08-22T09:41:08.624Z</time>
      </trkpt>
      <trkpt lat="48.3436095" lon="-2.0088378">
        <ele>17.665</ele>
        <time>2018-08-22T09:41:11.163Z</time>
      </trkpt>
      <trkpt lat="48.3435242" lon="-2.0087820">
        <ele>18.135</ele>
        <time>2018-08-22T09:41:13.370Z</time>
      </trkpt>
      <trkpt lat="48.3434419" lon="-2.0087125">
        <ele>18.656</ele>
        <time>2018-08-22T09:41:15.672Z</time>
      </trkpt>
      <trkpt lat="48.3433391" lon="-2.0086606">
        <ele>19.176</ele>
        <time>2018-08-22T09:41:18.359Z</time>
      </trkpt>
      <trkpt lat="48.3432380" lon="-2.0085929">
        <ele>19.748</ele>
        <time>2018-08-22T09:41:21.070Z</time>
      </trkpt>
      <trkpt lat="48.3431206" lon="-2.0085327">
        <ele>20.294</ele>
        <time>2018-08-22T09:41:23.995Z</time>
      </trkpt>
      <trkpt lat="48.3431206" lon="-2.0085327">
        <ele>20.584</ele>
        <time>2018-08-22T09:41:25.995Z</time>
      </trkpt>
      <trkpt lat="48.3431206" lon="-2.0085327">
        <ele>20.552</ele>
        <time>2018-08-22T09:41:26.095Z</time>
      </trkpt>
      <trkpt lat="48.3429083" lon="-2.0083720">
        <ele>20.433</ele>
        <time>2018-08-22T09:41:34.840Z</time>
      </trkpt>
      <trkpt lat="48.3428170" lon="-2.0083080">
        <ele>20.567</ele>
        <time>2018-08-22T09:41:37.498Z</time>
      </trkpt>
      <trkpt lat="48.3427166" lon="-2.0082229">
        <ele>21.066</ele>
        <time>2018-08-22T09:41:40.364Z</time>
      </trkpt>
      <trkpt lat="48.3426045" lon="-2.0081268">
        <ele>21.662</ele>
        <time>2018-08-22T09:41:43.485Z</time>
      </trkpt>
      <trkpt lat="48.3424901" lon="-2.0080404">
        <ele>22.034</ele>
        <time>2018-08-22T09:41:46.679Z</time>
      </trkpt>
      <trkpt lat="48.3423872" lon="-2.0079710">
        <ele>22.146</ele>
        <time>2018-08-22T09:41:49.562Z</time>
      </trkpt>
      <trkpt lat="48.3422960" lon="-2.0078894">
        <ele>22.227</ele>
        <time>2018-08-22T09:41:52.291Z</time>
      </trkpt>
      <trkpt lat="48.3422108" lon="-2.0078301">
        <ele>22.484</ele>
        <time>2018-08-22T09:41:54.702Z</time>
      </trkpt>
      <trkpt lat="48.3421005" lon="-2.0077544">
        <ele>22.934</ele>
        <time>2018-08-22T09:41:57.696Z</time>
      </trkpt>
      <trkpt lat="48.3419865" lon="-2.0076926">
        <ele>23.444</ele>
        <time>2018-08-22T09:42:00.596Z</time>
      </trkpt>
      <trkpt lat="48.3418845" lon="-2.0076257">
        <ele>23.820</ele>
        <time>2018-08-22T09:42:03.202Z</time>
      </trkpt>
      <trkpt lat="48.3417773" lon="-2.0075381">
        <ele>23.864</ele>
        <time>2018-08-22T09:42:05.994Z</time>
      </trkpt>
      <trkpt lat="48.3416707" lon="-2.0074448">
        <ele>23.540</ele>
        <time>2018-08-22T09:42:08.758Z</time>
      </trkpt>
      <trkpt lat="48.3415545" lon="-2.0073739">
        <ele>23.028</ele>
        <time>2018-08-22T09:42:11.580Z</time>
      </trkpt>
      <trkpt lat="48.3414553" lon="-2.0073092">
        <ele>22.640</ele>
        <time>2018-08-22T09:42:14.090Z</time>
      </trkpt>
      <trkpt lat="48.3413625" lon="-2.0072377">
        <ele>22.524</ele>
        <time>2018-08-22T09:42:16.610Z</time>
      </trkpt>
      <trkpt lat="48.3412783" lon="-2.0071719">
        <ele>22.656</ele>
        <time>2018-08-22T09:42:18.994Z</time>
      </trkpt>
      <trkpt lat="48.3412783" lon="-2.0071719">
        <ele>22.924</ele>
        <time>2018-08-22T09:42:21.994Z</time>
      </trkpt>
      <trkpt lat="48.3412783" lon="-2.0071719">
        <ele>23.115</ele>
        <time>2018-08-22T09:42:22.094Z</time>
      </trkpt>
      <trkpt lat="48.3410584" lon="-2.0069880">
        <ele>23.062</ele>
        <time>2018-08-22T09:42:46.387Z</time>
      </trkpt>
      <trkpt lat="48.3409695" lon="-2.0069051">
        <ele>22.790</ele>
        <time>2018-08-22T09:42:52.288Z</time>
      </trkpt>
      <trkpt lat="48.3408787" lon="-2.0068574">
        <ele>22.436</ele>
        <time>2018-08-22T09:42:56.932Z</time>
      </trkpt>
      <trkpt lat="48.3407906" lon="-2.0067796">
        <ele>22.164</ele>
        <time>2018-08-22T09:43:01.816Z</time>
      </trkpt>
      <trkpt lat="48.3406992" lon="-2.0067285">
        <ele>21.987</ele>
        <time>2018-08-22T09:43:06.961Z</time>
      </trkpt>
      <trkpt lat="48.3406156" lon="-2.0066745">
        <ele>21.818</ele>
        <time>2018-08-22T09:43:12.330Z</time>
      </trkpt>
      <trkpt lat="48.3405174" lon="-2.0066205">
        <ele>21.859</ele>
        <time>2018-08-22T09:43:18.608Z</time>
      </trkpt>
      <trkpt lat="48.3404358" lon="-2.0065381">
        <ele>22.270</ele>
        <time>2018-08-22T09:43:24.507Z</time>
      </trkpt>
      <trkpt lat="48.3403432" lon="-2.0064665">
        <ele>22.642</ele>
        <time>2018-08-22T09:43:30.578Z</time>
      </trkpt>
      <trkpt lat="48.3402472" lon="-2.0064070">
        <ele>22.606</ele>
        <time>2018-08-22T09:43:35.682Z</time>
      </trkpt>
      <trkpt lat="48.3401528" lon="-2.0063410">
        <ele>22.269</ele>
        <time>2018-08-22T09:43:40.308Z</time>
      </trkpt>
      <trkpt lat="48.3400620" lon="-2.0062717">
        <ele>21.813</ele>
        <time>2018-08-22T09:43:44.934Z</time>
      </trkpt>
      <trkpt lat="48.3399730" lon="-2.0062012">
        <ele>21.219</ele>
        <time>2018-08-22T09:43:50.149Z</time>
      </trkpt>
      <trkpt lat="48.3398763" lon="-2.0061443">
        <ele>20.522</ele>
        <time>2018-08-22T09:43:55.635Z</time>
      </trkpt>
      <trkpt lat="48.3397819" lon="-2.0060917">
        <ele>20.146</ele>
        <time>2018-08-22T09:44:00.138Z</time>
      </trkpt>
      <trkpt lat="48.3396884" lon="-2.0060286">
        <ele>20.370</ele>
        <time>2018-08-22T09:44:03.793Z</time>
      </trkpt>
      <trkpt lat="48.3395832" lon="-2.0059656">
        <ele>20.838</ele>
        <time>2018-08-22T09:44:07.390Z</time>
      </trkpt>
      <trkpt lat="48.3395032" lon="-2.0058974">
        <ele>21.246</ele>
        <time>2018-08-22T09:44:10.226Z</time>
      </trkpt>
      <trkpt lat="48.3393967" lon="-2.0058409">
        <ele>21.666</ele>
        <time>2018-08-22T09:44:13.806Z</time>
      </trkpt>
      <trkpt lat="48.3392928" lon="-2.0057641">
        <ele>22.097</ele>
        <time>2018-08-22T09:44:17.498Z</time>
      </trkpt>
      <trkpt lat="48.3392171" lon="-2.0056764">
        <ele>22.427</ele>
        <time>2018-08-22T09:44:20.477Z</time>
      </trkpt>
      <trkpt lat="48.3391380" lon="-2.0055996">
        <ele>22.638</ele>
        <time>2018-08-22T09:44:23.434Z</time>
      </trkpt>
      <trkpt lat="48.3390463" lon="-2.0055496">
        <ele>22.749</ele>
        <time>2018-08-22T09:44:26.555Z</time>
      </trkpt>
      <trkpt lat="48.3389441" lon="-2.0054806">
        <ele>22.736</ele>
        <time>2018-08-22T09:44:29.996Z</time>
      </trkpt>
      <trkpt lat="48.3388573" lon="-2.0054070">
        <ele>22.396</ele>
        <time>2018-08-22T09:44:32.886Z</time>
      </trkpt>
      <trkpt lat="48.3387754" lon="-2.0053482">
        <ele>21.635</ele>
        <time>2018-08-22T09:44:35.380Z</time>
      </trkpt>
      <trkpt lat="48.3386852" lon="-2.0052761">
        <ele>20.890</ele>
        <time>2018-08-22T09:44:38.066Z</time>
      </trkpt>
      <trkpt lat="48.3386017" lon="-2.0052007">
        <ele>20.645</ele>
        <time>2018-08-22T09:44:40.660Z</time>
      </trkpt>
      <trkpt lat="48.3384980" lon="-2.0051179">
        <ele>20.934</ele>
        <time>2018-08-22T09:44:43.734Z</time>
      </trkpt>
      <trkpt lat="48.3383833" lon="-2.0050464">
        <ele>21.472</ele>
        <time>2018-08-22T09:44:46.845Z</time>
      </trkpt>
      <trkpt lat="48.3382821" lon="-2.0049689">
        <ele>21.918</ele>
        <time>2018-08-22T09:44:49.706Z</time>
      </trkpt>
      <trkpt lat="48.3381701" lon="-2.0048994">
        <ele>22.149</ele>
        <time>2018-08-22T09:44:52.605Z</time>
      </trkpt>
      <trkpt lat="48.3380641" lon="-2.0048105">
        <ele>22.220</ele>
        <time>2018-08-22T09:44:55.447Z</time>
      </trkpt>
      <trkpt lat="48.3379614" lon="-2.0047252">
        <ele>22.254</ele>
        <time>2018-08-22T09:44:58.320Z</time>
      </trkpt>
      <trkpt lat="48.3378353" lon="-2.0046342">
        <ele>22.330</ele>
        <time>2018-08-22T09:45:01.730Z</time>
      </trkpt>
      <trkpt lat="48.3377324" lon="-2.0045456">
        <ele>22.396</ele>
        <time>2018-08-22T09:45:04.578Z</time>
      </trkpt>
      <trkpt lat="48.3376281" lon="-2.0044606">
        <ele>22.380</ele>
        <time>2018-08-22T09:45:07.422Z</time>
      </trkpt>
      <trkpt lat="48.3375264" lon="-2.0043773">
        <ele>22.223</ele>
        <time>2018-08-22T09:45:10.214Z</time>
      </trkpt>
      <trkpt lat="48.3374318" lon="-2.0042811">
        <ele>21.950</ele>
        <time>2018-08-22T09:45:13.037Z</time>
      </trkpt>
      <trkpt lat="48.3373301" lon="-2.0041887">
        <ele>21.773</ele>
        <time>2018-08-22T09:45:16.107Z</time>
      </trkpt>
      <trkpt lat="48.3372288" lon="-2.0040998">
        <ele>21.820</ele>
        <time>2018-08-22T09:45:19.558Z</time>
      </trkpt>
      <trkpt lat="48.3371263" lon="-2.0040134">
        <ele>21.961</ele>
        <time>2018-08-22T09:45:23.632Z</time>
      </trkpt>
      <trkpt lat="48.3370345" lon="-2.0039271">
        <ele>21.923</ele>
        <time>2018-08-22T09:45:27.823Z</time>
      </trkpt>
      <trkpt lat="48.3369408" lon="-2.0038287">
        <ele>21.524</ele>
        <time>2018-08-22T09:45:32.076Z</time>
      </trkpt>
      <trkpt lat="48.3368516" lon="-2.0037795">
        <ele>20.939</ele>
        <time>2018-08-22T09:45:35.413Z</time>
      </trkpt>
      <trkpt lat="48.3367733" lon="-2.0036934">
        <ele>20.672</ele>
        <time>2018-08-22T09:45:38.774Z</time>
      </trkpt>
      <trkpt lat="48.3366874" lon="-2.0036040">
        <ele>20.923</ele>
        <time>2018-08-22T09:45:42.423Z</time>
      </trkpt>
      <trkpt lat="48.3366036" lon="-2.0035054">
        <ele>21.423</ele>
        <time>2018-08-22T09:45:46.166Z</time>
      </trkpt>
      <trkpt lat="48.3365185" lon="-2.0034163">
        <ele>21.946</ele>
        <time>2018-08-22T09:45:49.761Z</time>
      </trkpt>
      <trkpt lat="48.3364331" lon="-2.0033277">
        <ele>22.443</ele>
        <time>2018-08-22T09:45:53.304Z</time>
      </trkpt>
      <trkpt lat="48.3363476" lon="-2.0032449">
        <ele>22.952</ele>
        <time>2018-08-22T09:45:56.734Z</time>
      </trkpt>
      <trkpt lat="48.3362660" lon="-2.0031466">
        <ele>23.659</ele>
        <time>2018-08-22T09:46:00.271Z</time>
      </trkpt>
      <trkpt lat="48.3361822" lon="-2.0030391">
        <ele>24.530</ele>
        <time>2018-08-22T09:46:04.297Z</time>
      </trkpt>
      <trkpt lat="48.3360970" lon="-2.0029401">
        <ele>25.348</ele>
        <time>2018-08-22T09:46:08.552Z</time>
      </trkpt>
      <trkpt lat="48.3360185" lon="-2.0028243">
        <ele>26.078</ele>
        <time>2018-08-22T09:46:13.084Z</time>
      </trkpt>
      <trkpt lat="48.3359323" lon="-2.0027320">
        <ele>26.670</ele>
        <time>2018-08-22T09:46:17.333Z</time>
      </trkpt>
      <trkpt lat="48.3358594" lon="-2.0026466">
        <ele>27.088</ele>
        <time>2018-08-22T09:46:20.839Z</time>
      </trkpt>
      <trkpt lat="48.3357841" lon="-2.0025508">
        <ele>27.445</ele>
        <time>2018-08-22T09:46:24.368Z</time>
      </trkpt>
      <trkpt lat="48.3356894" lon="-2.0024688">
        <ele>27.720</ele>
        <time>2018-08-22T09:46:28.084Z</time>
      </trkpt>
      <trkpt lat="48.3356002" lon="-2.0023659">
        <ele>27.808</ele>
        <time>2018-08-22T09:46:31.763Z</time>
      </trkpt>
      <trkpt lat="48.3355076" lon="-2.0022586">
        <ele>27.781</ele>
        <time>2018-08-22T09:46:35.468Z</time>
      </trkpt>
      <trkpt lat="48.3354391" lon="-2.0021694">
        <ele>27.795</ele>
        <time>2018-08-22T09:46:38.319Z</time>
      </trkpt>
      <trkpt lat="48.3353746" lon="-2.0020706">
        <ele>27.901</ele>
        <time>2018-08-22T09:46:41.220Z</time>
      </trkpt>
      <trkpt lat="48.3352847" lon="-2.0019506">
        <ele>28.025</ele>
        <time>2018-08-22T09:46:44.969Z</time>
      </trkpt>
      <trkpt lat="48.3352200" lon="-2.0018542">
        <ele>28.076</ele>
        <time>2018-08-22T09:46:47.706Z</time>
      </trkpt>
      <trkpt lat="48.3351508" lon="-2.0017507">
        <ele>28.010</ele>
        <time>2018-08-22T09:46:50.528Z</time>
      </trkpt>
      <trkpt lat="48.3350736" lon="-2.0016499">
        <ele>27.821</ele>
        <time>2018-08-22T09:46:53.421Z</time>
      </trkpt>
      <trkpt lat="48.3350014" lon="-2.0015458">
        <ele>27.553</ele>
        <time>2018-08-22T09:46:56.183Z</time>
      </trkpt>
      <trkpt lat="48.3349302" lon="-2.0014296">
        <ele>27.272</ele>
        <time>2018-08-22T09:46:59.107Z</time>
      </trkpt>
      <trkpt lat="48.3348631" lon="-2.0013343">
        <ele>26.977</ele>
        <time>2018-08-22T09:47:01.836Z</time>
      </trkpt>
      <trkpt lat="48.3347802" lon="-2.0012038">
        <ele>26.664</ele>
        <time>2018-08-22T09:47:05.512Z</time>
      </trkpt>
      <trkpt lat="48.3347132" lon="-2.0011071">
        <ele>26.696</ele>
        <time>2018-08-22T09:47:08.358Z</time>
      </trkpt>
      <trkpt lat="48.3346436" lon="-2.0009964">
        <ele>27.305</ele>
        <time>2018-08-22T09:47:11.357Z</time>
      </trkpt>
      <trkpt lat="48.3345831" lon="-2.0008757">
        <ele>28.029</ele>
        <time>2018-08-22T09:47:14.256Z</time>
      </trkpt>
      <trkpt lat="48.3345043" lon="-2.0007559">
        <ele>28.538</ele>
        <time>2018-08-22T09:47:17.401Z</time>
      </trkpt>
      <trkpt lat="48.3344227" lon="-2.0006515">
        <ele>29.003</ele>
        <time>2018-08-22T09:47:20.336Z</time>
      </trkpt>
      <trkpt lat="48.3343319" lon="-2.0005626">
        <ele>29.374</ele>
        <time>2018-08-22T09:47:23.286Z</time>
      </trkpt>
      <trkpt lat="48.3342589" lon="-2.0004662">
        <ele>29.529</ele>
        <time>2018-08-22T09:47:25.934Z</time>
      </trkpt>
      <trkpt lat="48.3341908" lon="-2.0003336">
        <ele>29.678</ele>
        <time>2018-08-22T09:47:29.005Z</time>
      </trkpt>
      <trkpt lat="48.3341206" lon="-2.0002421">
        <ele>30.016</ele>
        <time>2018-08-22T09:47:31.649Z</time>
      </trkpt>
      <trkpt lat="48.3340710" lon="-2.0001227">
        <ele>30.405</ele>
        <time>2018-08-22T09:47:34.443Z</time>
      </trkpt>
      <trkpt lat="48.3340243" lon="-1.9999872">
        <ele>30.643</ele>
        <time>2018-08-22T09:47:37.596Z</time>
      </trkpt>
      <trkpt lat="48.3339554" lon="-1.9998671">
        <ele>30.947</ele>
        <time>2018-08-22T09:47:41.058Z</time>
      </trkpt>
      <trkpt lat="48.3338525" lon="-1.9997667">
        <ele>31.579</ele>
        <time>2018-08-22T09:47:45.188Z</time>
      </trkpt>
      <trkpt lat="48.3337744" lon="-1.9996703">
        <ele>32.265</ele>
        <time>2018-08-22T09:47:48.487Z</time>
      </trkpt>
      <trkpt lat="48.3336871" lon="-1.9995642">
        <ele>32.577</ele>
        <time>2018-08-22T09:47:51.901Z</time>
      </trkpt>
      <trkpt lat="48.3336137" lon="-1.9994779">
        <ele>32.428</ele>
        <time>2018-08-22T09:47:54.658Z</time>
      </trkpt>
      <trkpt lat="48.3335272" lon="-1.9993738">
        <ele>32.003</ele>
        <time>2018-08-22T09:47:57.998Z</time>
      </trkpt>
      <trkpt lat="48.3335272" lon="-1.9993738">
        <ele>31.614</ele>
        <time>2018-08-22T09:48:01.998Z</time>
      </trkpt>
      <trkpt lat="48.3335272" lon="-1.9993738">
        <ele>31.441</ele>
        <time>2018-08-22T09:51:17.701Z</time>
      </trkpt>
      <trkpt lat="48.3333719" lon="-1.9991224">
        <ele>31.450</ele>
        <time>2018-08-22T09:51:33.656Z</time>
      </trkpt>
      <trkpt lat="48.3332971" lon="-1.9990027">
        <ele>31.375</ele>
        <time>2018-08-22T09:51:37.694Z</time>
      </trkpt>
      <trkpt lat="48.3332086" lon="-1.9988833">
        <ele>31.048</ele>
        <time>2018-08-22T09:51:41.670Z</time>
      </trkpt>
      <trkpt lat="48.3331303" lon="-1.9987471">
        <ele>30.732</ele>
        <time>2018-08-22T09:51:45.439Z</time>
      </trkpt>
      <trkpt lat="48.3330616" lon="-1.9986513">
        <ele>30.809</ele>
        <time>2018-08-22T09:51:48.294Z</time>
      </trkpt>
      <trkpt lat="48.3329931" lon="-1.9985531">
        <ele>31.262</ele>
        <time>2018-08-22T09:51:51.104Z</time>
      </trkpt>
      <trkpt lat="48.3329260" lon="-1.9984406">
        <ele>31.821</ele>
        <time>2018-08-22T09:51:54.066Z</time>
      </trkpt>
      <trkpt lat="48.3328586" lon="-1.9983345">
        <ele>32.290</ele>
        <time>2018-08-22T09:51:56.974Z</time>
      </trkpt>
      <trkpt lat="48.3327910" lon="-1.9982336">
        <ele>32.573</ele>
        <time>2018-08-22T09:51:59.836Z</time>
      </trkpt>
      <trkpt lat="48.3327221" lon="-1.9981344">
        <ele>32.654</ele>
        <time>2018-08-22T09:52:02.749Z</time>
      </trkpt>
      <trkpt lat="48.3326487" lon="-1.9980435">
        <ele>32.685</ele>
        <time>2018-08-22T09:52:05.710Z</time>
      </trkpt>
      <trkpt lat="48.3325653" lon="-1.9979299">
        <ele>32.810</ele>
        <time>2018-08-22T09:52:09.307Z</time>
      </trkpt>
      <trkpt lat="48.3324788" lon="-1.9978060">
        <ele>33.032</ele>
        <time>2018-08-22T09:52:13.072Z</time>
      </trkpt>
      <trkpt lat="48.3324025" lon="-1.9977224">
        <ele>33.257</ele>
        <time>2018-08-22T09:52:15.938Z</time>
      </trkpt>
      <trkpt lat="48.3323238" lon="-1.9976427">
        <ele>33.458</ele>
        <time>2018-08-22T09:52:18.817Z</time>
      </trkpt>
      <trkpt lat="48.3322428" lon="-1.9975742">
        <ele>33.668</ele>
        <time>2018-08-22T09:52:21.698Z</time>
      </trkpt>
      <trkpt lat="48.3321641" lon="-1.9975069">
        <ele>33.817</ele>
        <time>2018-08-22T09:52:24.566Z</time>
      </trkpt>
      <trkpt lat="48.3320820" lon="-1.9974488">
        <ele>33.812</ele>
        <time>2018-08-22T09:52:27.421Z</time>
      </trkpt>
      <trkpt lat="48.3319889" lon="-1.9973859">
        <ele>33.695</ele>
        <time>2018-08-22T09:52:30.553Z</time>
      </trkpt>
      <trkpt lat="48.3319011" lon="-1.9973241">
        <ele>33.601</ele>
        <time>2018-08-22T09:52:33.438Z</time>
      </trkpt>
      <trkpt lat="48.3318045" lon="-1.9972759">
        <ele>33.602</ele>
        <time>2018-08-22T09:52:36.388Z</time>
      </trkpt>
      <trkpt lat="48.3317029" lon="-1.9972470">
        <ele>33.585</ele>
        <time>2018-08-22T09:52:39.370Z</time>
      </trkpt>
      <trkpt lat="48.3316164" lon="-1.9972033">
        <ele>33.443</ele>
        <time>2018-08-22T09:52:42.123Z</time>
      </trkpt>
      <trkpt lat="48.3315207" lon="-1.9971568">
        <ele>33.272</ele>
        <time>2018-08-22T09:52:45.276Z</time>
      </trkpt>
      <trkpt lat="48.3314102" lon="-1.9971007">
        <ele>33.215</ele>
        <time>2018-08-22T09:52:49.122Z</time>
      </trkpt>
      <trkpt lat="48.3312955" lon="-1.9970580">
        <ele>33.277</ele>
        <time>2018-08-22T09:52:53.083Z</time>
      </trkpt>
      <trkpt lat="48.3312026" lon="-1.9970333">
        <ele>33.269</ele>
        <time>2018-08-22T09:52:56.182Z</time>
      </trkpt>
      <trkpt lat="48.3310930" lon="-1.9969807">
        <ele>32.979</ele>
        <time>2018-08-22T09:52:59.879Z</time>
      </trkpt>
      <trkpt lat="48.3310016" lon="-1.9969689">
        <ele>32.512</ele>
        <time>2018-08-22T09:53:02.820Z</time>
      </trkpt>
      <trkpt lat="48.3308940" lon="-1.9969581">
        <ele>32.161</ele>
        <time>2018-08-22T09:53:06.359Z</time>
      </trkpt>
      <trkpt lat="48.3307873" lon="-1.9969556">
        <ele>32.118</ele>
        <time>2018-08-22T09:53:09.820Z</time>
      </trkpt>
      <trkpt lat="48.3306821" lon="-1.9969624">
        <ele>32.351</ele>
        <time>2018-08-22T09:53:13.074Z</time>
      </trkpt>
      <trkpt lat="48.3305895" lon="-1.9969832">
        <ele>32.741</ele>
        <time>2018-08-22T09:53:15.926Z</time>
      </trkpt>
      <trkpt lat="48.3304865" lon="-1.9970093">
        <ele>33.180</ele>
        <time>2018-08-22T09:53:19.085Z</time>
      </trkpt>
      <trkpt lat="48.3303851" lon="-1.9970226">
        <ele>33.769</ele>
        <time>2018-08-22T09:53:22.113Z</time>
      </trkpt>
      <trkpt lat="48.3302928" lon="-1.9970143">
        <ele>34.852</ele>
        <time>2018-08-22T09:53:24.846Z</time>
      </trkpt>
      <trkpt lat="48.3301980" lon="-1.9970193">
        <ele>36.432</ele>
        <time>2018-08-22T09:53:27.645Z</time>
      </trkpt>
      <trkpt lat="48.3300910" lon="-1.9970244">
        <ele>38.527</ele>
        <time>2018-08-22T09:53:30.720Z</time>
      </trkpt>
      <trkpt lat="48.3299936" lon="-1.9970531">
        <ele>38.519</ele>
        <time>2018-08-22T09:53:33.549Z</time>
      </trkpt>
      <trkpt lat="48.3299011" lon="-1.9971015">
        <ele>38.302</ele>
        <time>2018-08-22T09:53:36.399Z</time>
      </trkpt>
      <trkpt lat="48.3298046" lon="-1.9971285">
        <ele>38.257</ele>
        <time>2018-08-22T09:53:39.286Z</time>
      </trkpt>
      <trkpt lat="48.3297128" lon="-1.9971445">
        <ele>38.388</ele>
        <time>2018-08-22T09:53:42.038Z</time>
      </trkpt>
      <trkpt lat="48.3296191" lon="-1.9971618">
        <ele>38.530</ele>
        <time>2018-08-22T09:53:44.900Z</time>
      </trkpt>
      <trkpt lat="48.3295133" lon="-1.9971822">
        <ele>38.633</ele>
        <time>2018-08-22T09:53:48.099Z</time>
      </trkpt>
      <trkpt lat="48.3294150" lon="-1.9971932">
        <ele>38.732</ele>
        <time>2018-08-22T09:53:50.990Z</time>
      </trkpt>
      <trkpt lat="48.3294150" lon="-1.9971932">
        <ele>38.797</ele>
        <time>2018-08-22T09:53:52.990Z</time>
      </trkpt>
      <trkpt lat="48.3294150" lon="-1.9971932">
        <ele>38.794</ele>
        <time>2018-08-22T09:53:53.090Z</time>
      </trkpt>
      <trkpt lat="48.3292054" lon="-1.9972237">
        <ele>38.763</ele>
        <time>2018-08-22T09:54:01.667Z</time>
      </trkpt>
      <trkpt lat="48.3291127" lon="-1.9972334">
        <ele>38.999</ele>
        <time>2018-08-22T09:54:04.283Z</time>
      </trkpt>
      <trkpt lat="48.3290099" lon="-1.9972540">
        <ele>39.667</ele>
        <time>2018-08-22T09:54:07.186Z</time>
      </trkpt>
      <trkpt lat="48.3289200" lon="-1.9972742">
        <ele>40.386</ele>
        <time>2018-08-22T09:54:09.769Z</time>
      </trkpt>
      <trkpt lat="48.3288252" lon="-1.9973026">
        <ele>40.803</ele>
        <time>2018-08-22T09:54:12.468Z</time>
      </trkpt>
      <trkpt lat="48.3287221" lon="-1.9973357">
        <ele>40.994</ele>
        <time>2018-08-22T09:54:15.372Z</time>
      </trkpt>
      <trkpt lat="48.3286190" lon="-1.9973654">
        <ele>41.100</ele>
        <time>2018-08-22T09:54:18.271Z</time>
      </trkpt>
      <trkpt lat="48.3285166" lon="-1.9973936">
        <ele>41.189</ele>
        <time>2018-08-22T09:54:21.328Z</time>
      </trkpt>
      <trkpt lat="48.3284102" lon="-1.9974323">
        <ele>41.305</ele>
        <time>2018-08-22T09:54:24.692Z</time>
      </trkpt>
      <trkpt lat="48.3283036" lon="-1.9974656">
        <ele>41.584</ele>
        <time>2018-08-22T09:54:28.097Z</time>
      </trkpt>
      <trkpt lat="48.3281893" lon="-1.9974747">
        <ele>42.209</ele>
        <time>2018-08-22T09:54:31.576Z</time>
      </trkpt>
      <trkpt lat="48.3280983" lon="-1.9974991">
        <ele>43.169</ele>
        <time>2018-08-22T09:54:34.291Z</time>
      </trkpt>
      <trkpt lat="48.3280076" lon="-1.9975320">
        <ele>44.292</ele>
        <time>2018-08-22T09:54:36.989Z</time>
      </trkpt>
      <trkpt lat="48.3280076" lon="-1.9975320">
        <ele>45.304</ele>
        <time>2018-08-22T09:54:36.989Z</time>
      </trkpt>
      <trkpt lat="48.3280076" lon="-1.9975320">
        <ele>45.823</ele>
        <time>2018-08-22T09:54:36.991Z</time>
      </trkpt>
      <trkpt lat="48.3278554" lon="-1.9975835">
        <ele>45.757</ele>
        <time>2018-08-22T09:54:44.203Z</time>
      </trkpt>
      <trkpt lat="48.3277606" lon="-1.9976203">
        <ele>45.474</ele>
        <time>2018-08-22T09:54:47.143Z</time>
      </trkpt>
      <trkpt lat="48.3276683" lon="-1.9976617">
        <ele>45.288</ele>
        <time>2018-08-22T09:54:50.042Z</time>
      </trkpt>
      <trkpt lat="48.3275752" lon="-1.9977016">
        <ele>45.194</ele>
        <time>2018-08-22T09:54:52.983Z</time>
      </trkpt>
      <trkpt lat="48.3274839" lon="-1.9977436">
        <ele>45.062</ele>
        <time>2018-08-22T09:54:55.916Z</time>
      </trkpt>
      <trkpt lat="48.3273944" lon="-1.9977955">
        <ele>44.868</ele>
        <time>2018-08-22T09:54:58.853Z</time>
      </trkpt>
      <trkpt lat="48.3272978" lon="-1.9978457">
        <ele>44.653</ele>
        <time>2018-08-22T09:55:01.939Z</time>
      </trkpt>
      <trkpt lat="48.3272125" lon="-1.9979044">
        <ele>44.334</ele>
        <time>2018-08-22T09:55:04.759Z</time>
      </trkpt>
      <trkpt lat="48.3271264" lon="-1.9979567">
        <ele>43.786</ele>
        <time>2018-08-22T09:55:07.557Z</time>
      </trkpt>
      <trkpt lat="48.3270398" lon="-1.9980209">
        <ele>43.115</ele>
        <time>2018-08-22T09:55:10.503Z</time>
      </trkpt>
      <trkpt lat="48.3269506" lon="-1.9980847">
        <ele>42.549</ele>
        <time>2018-08-22T09:55:13.572Z</time>
      </trkpt>
      <trkpt lat="48.3268686" lon="-1.9981547">
        <ele>42.011</ele>
        <time>2018-08-22T09:55:16.518Z</time>
      </trkpt>
      <trkpt lat="48.3267844" lon="-1.9982213">
        <ele>40.902</ele>
        <time>2018-08-22T09:55:19.622Z</time>
      </trkpt>
      <trkpt lat="48.3266944" lon="-1.9982995">
        <ele>38.948</ele>
        <time>2018-08-22T09:55:23.520Z</time>
      </trkpt>
      <trkpt lat="48.3266095" lon="-1.9983805">
        <ele>36.803</ele>
        <time>2018-08-22T09:55:27.999Z</time>
      </trkpt>
      <trkpt lat="48.3266095" lon="-1.9983805">
        <ele>35.431</ele>
        <time>2018-08-22T09:55:35.999Z</time>
      </trkpt>
      <trkpt lat="48.3266095" lon="-1.9983805">
        <ele>35.061</ele>
        <time>2018-08-22T09:55:38.125Z</time>
      </trkpt>
      <trkpt lat="48.3267142" lon="-1.9982609">
        <ele>35.190</ele>
        <time>2018-08-22T09:55:45.868Z</time>
      </trkpt>
      <trkpt lat="48.3267995" lon="-1.9981618">
        <ele>34.101</ele>
        <time>2018-08-22T09:55:49.010Z</time>
      </trkpt>
      <trkpt lat="48.3268869" lon="-1.9980854">
        <ele>30.961</ele>
        <time>2018-08-22T09:55:51.619Z</time>
      </trkpt>
      <trkpt lat="48.3269924" lon="-1.9979868">
        <ele>27.793</ele>
        <time>2018-08-22T09:55:54.587Z</time>
      </trkpt>
      <trkpt lat="48.3271119" lon="-1.9978973">
        <ele>26.927</ele>
        <time>2018-08-22T09:55:57.651Z</time>
      </trkpt>
      <trkpt lat="48.3272303" lon="-1.9978387">
        <ele>28.203</ele>
        <time>2018-08-22T09:56:00.511Z</time>
      </trkpt>
      <trkpt lat="48.3273476" lon="-1.9977784">
        <ele>30.582</ele>
        <time>2018-08-22T09:56:03.399Z</time>
      </trkpt>
      <trkpt lat="48.3274575" lon="-1.9977143">
        <ele>34.543</ele>
        <time>2018-08-22T09:56:06.196Z</time>
      </trkpt>
      <trkpt lat="48.3275699" lon="-1.9976623">
        <ele>40.092</ele>
        <time>2018-08-22T09:56:09.009Z</time>
      </trkpt>
      <trkpt lat="48.3276900" lon="-1.9976013">
        <ele>44.590</ele>
        <time>2018-08-22T09:56:11.975Z</time>
      </trkpt>
      <trkpt lat="48.3278153" lon="-1.9975494">
        <ele>46.283</ele>
        <time>2018-08-22T09:56:14.935Z</time>
      </trkpt>
      <trkpt lat="48.3279286" lon="-1.9974967">
        <ele>46.148</ele>
        <time>2018-08-22T09:56:17.718Z</time>
      </trkpt>
      <trkpt lat="48.3280162" lon="-1.9974612">
        <ele>45.328</ele>
        <time>2018-08-22T09:56:19.998Z</time>
      </trkpt>
      <trkpt lat="48.3280162" lon="-1.9974612">
        <ele>44.435</ele>
        <time>2018-08-22T09:56:27.998Z</time>
      </trkpt>
      <trkpt lat="48.3280162" lon="-1.9974612">
        <ele>43.924</ele>
        <time>2018-08-22T09:56:28.171Z</time>
      </trkpt>
      <trkpt lat="48.3278706" lon="-1.9975711">
        <ele>44.066</ele>
        <time>2018-08-22T09:56:36.549Z</time>
      </trkpt>
      <trkpt lat="48.3277865" lon="-1.9976209">
        <ele>44.658</ele>
        <time>2018-08-22T09:56:39.410Z</time>
      </trkpt>
      <trkpt lat="48.3276908" lon="-1.9976622">
        <ele>45.339</ele>
        <time>2018-08-22T09:56:42.460Z</time>
      </trkpt>
      <trkpt lat="48.3275984" lon="-1.9976996">
        <ele>45.916</ele>
        <time>2018-08-22T09:56:45.655Z</time>
      </trkpt>
      <trkpt lat="48.3275030" lon="-1.9977536">
        <ele>46.298</ele>
        <time>2018-08-22T09:56:49.465Z</time>
      </trkpt>
      <trkpt lat="48.3273983" lon="-1.9978032">
        <ele>46.427</ele>
        <time>2018-08-22T09:56:53.881Z</time>
      </trkpt>
      <trkpt lat="48.3272929" lon="-1.9978565">
        <ele>46.382</ele>
        <time>2018-08-22T09:56:58.412Z</time>
      </trkpt>
      <trkpt lat="48.3271931" lon="-1.9979306">
        <ele>46.254</ele>
        <time>2018-08-22T09:57:02.862Z</time>
      </trkpt>
      <trkpt lat="48.3271043" lon="-1.9979793">
        <ele>46.064</ele>
        <time>2018-08-22T09:57:06.604Z</time>
      </trkpt>
      <trkpt lat="48.3270189" lon="-1.9980497">
        <ele>45.802</ele>
        <time>2018-08-22T09:57:10.229Z</time>
      </trkpt>
      <trkpt lat="48.3269419" lon="-1.9981253">
        <ele>45.383</ele>
        <time>2018-08-22T09:57:13.219Z</time>
      </trkpt>
      <trkpt lat="48.3268469" lon="-1.9981880">
        <ele>44.653</ele>
        <time>2018-08-22T09:57:16.372Z</time>
      </trkpt>
      <trkpt lat="48.3267420" lon="-1.9982592">
        <ele>43.319</ele>
        <time>2018-08-22T09:57:19.916Z</time>
      </trkpt>
      <trkpt lat="48.3266665" lon="-1.9983620">
        <ele>41.069</ele>
        <time>2018-08-22T09:57:23.087Z</time>
      </trkpt>
      <trkpt lat="48.3265888" lon="-1.9984775">
        <ele>38.462</ele>
        <time>2018-08-22T09:57:26.269Z</time>
      </trkpt>
      <trkpt lat="48.3265175" lon="-1.9985648">
        <ele>38.213</ele>
        <time>2018-08-22T09:57:28.840Z</time>
      </trkpt>
      <trkpt lat="48.3264438" lon="-1.9986453">
        <ele>41.663</ele>
        <time>2018-08-22T09:57:31.435Z</time>
      </trkpt>
      <trkpt lat="48.3263747" lon="-1.9987429">
        <ele>46.009</ele>
        <time>2018-08-22T09:57:34.274Z</time>
      </trkpt>
      <trkpt lat="48.3263075" lon="-1.9988567">
        <ele>48.549</ele>
        <time>2018-08-22T09:57:37.301Z</time>
      </trkpt>
      <trkpt lat="48.3262330" lon="-1.9989501">
        <ele>49.647</ele>
        <time>2018-08-22T09:57:40.142Z</time>
      </trkpt>
      <trkpt lat="48.3261381" lon="-1.9990464">
        <ele>50.222</ele>
        <time>2018-08-22T09:57:43.372Z</time>
      </trkpt>
      <trkpt lat="48.3260099" lon="-1.9991937">
        <ele>50.678</ele>
        <time>2018-08-22T09:57:47.409Z</time>
      </trkpt>
      <trkpt lat="48.3259511" lon="-1.9993170">
        <ele>51.147</ele>
        <time>2018-08-22T09:57:49.822Z</time>
      </trkpt>
      <trkpt lat="48.3258672" lon="-1.9994733">
        <ele>51.791</ele>
        <time>2018-08-22T09:57:53.079Z</time>
      </trkpt>
      <trkpt lat="48.3257968" lon="-1.9995670">
        <ele>52.801</ele>
        <time>2018-08-22T09:57:55.454Z</time>
      </trkpt>
      <trkpt lat="48.3257228" lon="-1.9997082">
        <ele>54.006</ele>
        <time>2018-08-22T09:57:58.512Z</time>
      </trkpt>
      <trkpt lat="48.3256748" lon="-1.9998595">
        <ele>54.950</ele>
        <time>2018-08-22T09:58:01.339Z</time>
      </trkpt>
      <trkpt lat="48.3255975" lon="-1.9999920">
        <ele>55.521</ele>
        <time>2018-08-22T09:58:04.482Z</time>
      </trkpt>
      <trkpt lat="48.3255456" lon="-2.0001238">
        <ele>55.953</ele>
        <time>2018-08-22T09:58:07.359Z</time>
      </trkpt>
      <trkpt lat="48.3254980" lon="-2.0002541">
        <ele>56.332</ele>
        <time>2018-08-22T09:58:10.203Z</time>
      </trkpt>
      <trkpt lat="48.3254256" lon="-2.0004218">
        <ele>56.599</ele>
        <time>2018-08-22T09:58:13.946Z</time>
      </trkpt>
      <trkpt lat="48.3253711" lon="-2.0005705">
        <ele>56.841</ele>
        <time>2018-08-22T09:58:16.995Z</time>
      </trkpt>
      <trkpt lat="48.3253711" lon="-2.0005705">
        <ele>57.178</ele>
        <time>2018-08-22T09:58:18.995Z</time>
      </trkpt>
      <trkpt lat="48.3253711" lon="-2.0005705">
        <ele>57.416</ele>
        <time>2018-08-22T09:58:19.095Z</time>
      </trkpt>
      <trkpt lat="48.3252576" lon="-2.0008701">
        <ele>57.384</ele>
        <time>2018-08-22T09:58:27.274Z</time>
      </trkpt>
      <trkpt lat="48.3251978" lon="-2.0010007">
        <ele>57.535</ele>
        <time>2018-08-22T09:58:30.374Z</time>
      </trkpt>
      <trkpt lat="48.3251511" lon="-2.0011526">
        <ele>58.297</ele>
        <time>2018-08-22T09:58:33.966Z</time>
      </trkpt>
      <trkpt lat="48.3251204" lon="-2.0012854">
        <ele>59.307</ele>
        <time>2018-08-22T09:58:36.783Z</time>
      </trkpt>
      <trkpt lat="48.3250788" lon="-2.0014120">
        <ele>60.034</ele>
        <time>2018-08-22T09:58:39.433Z</time>
      </trkpt>
      <trkpt lat="48.3250328" lon="-2.0015599">
        <ele>60.395</ele>
        <time>2018-08-22T09:58:42.587Z</time>
      </trkpt>
      <trkpt lat="48.3249717" lon="-2.0016762">
        <ele>60.447</ele>
        <time>2018-08-22T09:58:45.559Z</time>
      </trkpt>
      <trkpt lat="48.3249025" lon="-2.0017856">
        <ele>60.300</ele>
        <time>2018-08-22T09:58:48.504Z</time>
      </trkpt>
      <trkpt lat="48.3248458" lon="-2.0019281">
        <ele>60.184</ele>
        <time>2018-08-22T09:58:51.673Z</time>
      </trkpt>
      <trkpt lat="48.3247836" lon="-2.0020674">
        <ele>60.311</ele>
        <time>2018-08-22T09:58:54.958Z</time>
      </trkpt>
      <trkpt lat="48.3247252" lon="-2.0021929">
        <ele>60.649</ele>
        <time>2018-08-22T09:58:58.037Z</time>
      </trkpt>
      <trkpt lat="48.3246919" lon="-2.0023361">
        <ele>61.123</ele>
        <time>2018-08-22T09:59:01.104Z</time>
      </trkpt>
      <trkpt lat="48.3246505" lon="-2.0024886">
        <ele>61.663</ele>
        <time>2018-08-22T09:59:04.394Z</time>
      </trkpt>
      <trkpt lat="48.3246046" lon="-2.0026324">
        <ele>61.931</ele>
        <time>2018-08-22T09:59:07.627Z</time>
      </trkpt>
      <trkpt lat="48.3245550" lon="-2.0027786">
        <ele>61.612</ele>
        <time>2018-08-22T09:59:11.071Z</time>
      </trkpt>
      <trkpt lat="48.3245060" lon="-2.0029180">
        <ele>60.905</ele>
        <time>2018-08-22T09:59:14.420Z</time>
      </trkpt>
      <trkpt lat="48.3244805" lon="-2.0030704">
        <ele>60.193</ele>
        <time>2018-08-22T09:59:17.784Z</time>
      </trkpt>
      <trkpt lat="48.3244431" lon="-2.0032021">
        <ele>59.716</ele>
        <time>2018-08-22T09:59:20.727Z</time>
      </trkpt>
      <trkpt lat="48.3243744" lon="-2.0033481">
        <ele>59.498</ele>
        <time>2018-08-22T09:59:24.096Z</time>
      </trkpt>
      <trkpt lat="48.3243097" lon="-2.0035099">
        <ele>59.443</ele>
        <time>2018-08-22T09:59:27.453Z</time>
      </trkpt>
      <trkpt lat="48.3242579" lon="-2.0036695">
        <ele>59.417</ele>
        <time>2018-08-22T09:59:30.575Z</time>
      </trkpt>
      <trkpt lat="48.3241986" lon="-2.0038107">
        <ele>59.237</ele>
        <time>2018-08-22T09:59:33.633Z</time>
      </trkpt>
      <trkpt lat="48.3241453" lon="-2.0039250">
        <ele>58.882</ele>
        <time>2018-08-22T09:59:36.306Z</time>
      </trkpt>
      <trkpt lat="48.3240869" lon="-2.0040767">
        <ele>58.822</ele>
        <time>2018-08-22T09:59:40.018Z</time>
      </trkpt>
      <trkpt lat="48.3240491" lon="-2.0041995">
        <ele>59.490</ele>
        <time>2018-08-22T09:59:43.177Z</time>
      </trkpt>
      <trkpt lat="48.3240092" lon="-2.0043689">
        <ele>60.601</ele>
        <time>2018-08-22T09:59:47.395Z</time>
      </trkpt>
      <trkpt lat="48.3239660" lon="-2.0044940">
        <ele>61.647</ele>
        <time>2018-08-22T09:59:50.700Z</time>
      </trkpt>
      <trkpt lat="48.3239213" lon="-2.0046214">
        <ele>62.493</ele>
        <time>2018-08-22T09:59:54.156Z</time>
      </trkpt>
      <trkpt lat="48.3238576" lon="-2.0047582">
        <ele>63.066</ele>
        <time>2018-08-22T09:59:58.156Z</time>
      </trkpt>
      <trkpt lat="48.3237997" lon="-2.0049152">
        <ele>63.348</ele>
        <time>2018-08-22T10:00:02.173Z</time>
      </trkpt>
      <trkpt lat="48.3237236" lon="-2.0050501">
        <ele>63.588</ele>
        <time>2018-08-22T10:00:05.809Z</time>
      </trkpt>
      <trkpt lat="48.3236651" lon="-2.0051566">
        <ele>63.972</ele>
        <time>2018-08-22T10:00:08.666Z</time>
      </trkpt>
      <trkpt lat="48.3236014" lon="-2.0052574">
        <ele>64.438</ele>
        <time>2018-08-22T10:00:11.589Z</time>
      </trkpt>
      <trkpt lat="48.3235321" lon="-2.0053692">
        <ele>64.809</ele>
        <time>2018-08-22T10:00:14.842Z</time>
      </trkpt>
      <trkpt lat="48.3234543" lon="-2.0054784">
        <ele>64.948</ele>
        <time>2018-08-22T10:00:18.322Z</time>
      </trkpt>
      <trkpt lat="48.3233913" lon="-2.0055749">
        <ele>64.788</ele>
        <time>2018-08-22T10:00:23.044Z</time>
      </trkpt>
      <trkpt lat="48.3234866" lon="-2.0054885">
        <ele>64.396</ele>
        <time>2018-08-22T10:00:29.970Z</time>
      </trkpt>
      <trkpt lat="48.3235515" lon="-2.0053865">
        <ele>64.003</ele>
        <time>2018-08-22T10:00:33.441Z</time>
      </trkpt>
      <trkpt lat="48.3236247" lon="-2.0052981">
        <ele>63.792</ele>
        <time>2018-08-22T10:00:36.269Z</time>
      </trkpt>
      <trkpt lat="48.3237098" lon="-2.0051759">
        <ele>63.804</ele>
        <time>2018-08-22T10:00:39.486Z</time>
      </trkpt>
      <trkpt lat="48.3237774" lon="-2.0050488">
        <ele>64.051</ele>
        <time>2018-08-22T10:00:42.384Z</time>
      </trkpt>
      <trkpt lat="48.3238369" lon="-2.0049239">
        <ele>64.456</ele>
        <time>2018-08-22T10:00:45.182Z</time>
      </trkpt>
      <trkpt lat="48.3238890" lon="-2.0047897">
        <ele>64.808</ele>
        <time>2018-08-22T10:00:48.095Z</time>
      </trkpt>
      <trkpt lat="48.3239180" lon="-2.0046549">
        <ele>64.839</ele>
        <time>2018-08-22T10:00:50.754Z</time>
      </trkpt>
      <trkpt lat="48.3239672" lon="-2.0045060">
        <ele>64.508</ele>
        <time>2018-08-22T10:00:53.768Z</time>
      </trkpt>
      <trkpt lat="48.3240145" lon="-2.0043472">
        <ele>64.046</ele>
        <time>2018-08-22T10:00:56.800Z</time>
      </trkpt>
      <trkpt lat="48.3240792" lon="-2.0041960">
        <ele>63.674</ele>
        <time>2018-08-22T10:00:59.798Z</time>
      </trkpt>
      <trkpt lat="48.3241474" lon="-2.0040157">
        <ele>63.379</ele>
        <time>2018-08-22T10:01:03.094Z</time>
      </trkpt>
      <trkpt lat="48.3242142" lon="-2.0038557">
        <ele>63.021</ele>
        <time>2018-08-22T10:01:06.003Z</time>
      </trkpt>
      <trkpt lat="48.3243029" lon="-2.0036852">
        <ele>62.507</ele>
        <time>2018-08-22T10:01:10.277Z</time>
      </trkpt>
      <trkpt lat="48.3243619" lon="-2.0035582">
        <ele>61.878</ele>
        <time>2018-08-22T10:01:14.315Z</time>
      </trkpt>
      <trkpt lat="48.3242926" lon="-2.0036766">
        <ele>61.107</ele>
        <time>2018-08-22T10:01:18.676Z</time>
      </trkpt>
      <trkpt lat="48.3242458" lon="-2.0038085">
        <ele>60.291</ele>
        <time>2018-08-22T10:01:23.934Z</time>
      </trkpt>
      <trkpt lat="48.3242080" lon="-2.0039405">
        <ele>59.852</ele>
        <time>2018-08-22T10:01:27.991Z</time>
      </trkpt>
      <trkpt lat="48.3242080" lon="-2.0039405">
        <ele>59.972</ele>
        <time>2018-08-22T10:01:31.991Z</time>
      </trkpt>
      <trkpt lat="48.3242080" lon="-2.0039405">
        <ele>60.217</ele>
        <time>2018-08-22T10:01:32.091Z</time>
      </trkpt>
      <trkpt lat="48.3240882" lon="-2.0043182">
        <ele>60.190</ele>
        <time>2018-08-22T10:01:54.943Z</time>
      </trkpt>
      <trkpt lat="48.3240452" lon="-2.0044368">
        <ele>59.865</ele>
        <time>2018-08-22T10:02:00.046Z</time>
      </trkpt>
      <trkpt lat="48.3239863" lon="-2.0045567">
        <ele>59.396</ele>
        <time>2018-08-22T10:02:06.067Z</time>
      </trkpt>
      <trkpt lat="48.3239384" lon="-2.0047051">
        <ele>59.019</ele>
        <time>2018-08-22T10:02:12.851Z</time>
      </trkpt>
      <trkpt lat="48.3238877" lon="-2.0048505">
        <ele>58.993</ele>
        <time>2018-08-22T10:02:19.402Z</time>
      </trkpt>
      <trkpt lat="48.3238330" lon="-2.0049681">
        <ele>59.311</ele>
        <time>2018-08-22T10:02:24.259Z</time>
      </trkpt>
      <trkpt lat="48.3237724" lon="-2.0050874">
        <ele>59.710</ele>
        <time>2018-08-22T10:02:28.436Z</time>
      </trkpt>
      <trkpt lat="48.3237212" lon="-2.0051985">
        <ele>59.968</ele>
        <time>2018-08-22T10:02:32.122Z</time>
      </trkpt>
      <trkpt lat="48.3236379" lon="-2.0053003">
        <ele>60.074</ele>
        <time>2018-08-22T10:02:36.931Z</time>
      </trkpt>
      <trkpt lat="48.3235677" lon="-2.0053884">
        <ele>60.122</ele>
        <time>2018-08-22T10:02:41.743Z</time>
      </trkpt>
      <trkpt lat="48.3234914" lon="-2.0054976">
        <ele>60.346</ele>
        <time>2018-08-22T10:02:47.152Z</time>
      </trkpt>
      <trkpt lat="48.3234165" lon="-2.0055800">
        <ele>60.849</ele>
        <time>2018-08-22T10:02:51.170Z</time>
      </trkpt>
      <trkpt lat="48.3233427" lon="-2.0056670">
        <ele>61.431</ele>
        <time>2018-08-22T10:02:54.745Z</time>
      </trkpt>
      <trkpt lat="48.3232734" lon="-2.0057559">
        <ele>61.988</ele>
        <time>2018-08-22T10:02:58.188Z</time>
      </trkpt>
      <trkpt lat="48.3231792" lon="-2.0058645">
        <ele>62.535</ele>
        <time>2018-08-22T10:03:02.387Z</time>
      </trkpt>
      <trkpt lat="48.3230930" lon="-2.0059423">
        <ele>62.864</ele>
        <time>2018-08-22T10:03:05.585Z</time>
      </trkpt>
      <trkpt lat="48.3230113" lon="-2.0059986">
        <ele>62.845</ele>
        <time>2018-08-22T10:03:08.432Z</time>
      </trkpt>
      <trkpt lat="48.3229134" lon="-2.0060602">
        <ele>62.611</ele>
        <time>2018-08-22T10:03:11.976Z</time>
      </trkpt>
      <trkpt lat="48.3228351" lon="-2.0061445">
        <ele>62.307</ele>
        <time>2018-08-22T10:03:15.231Z</time>
      </trkpt>
      <trkpt lat="48.3227532" lon="-2.0062317">
        <ele>62.055</ele>
        <time>2018-08-22T10:03:18.639Z</time>
      </trkpt>
      <trkpt lat="48.3226542" lon="-2.0062975">
        <ele>61.579</ele>
        <time>2018-08-22T10:03:22.388Z</time>
      </trkpt>
      <trkpt lat="48.3225684" lon="-2.0063686">
        <ele>60.572</ele>
        <time>2018-08-22T10:03:25.917Z</time>
      </trkpt>
      <trkpt lat="48.3224745" lon="-2.0064503">
        <ele>59.472</ele>
        <time>2018-08-22T10:03:29.914Z</time>
      </trkpt>
      <trkpt lat="48.3223664" lon="-2.0065175">
        <ele>58.665</ele>
        <time>2018-08-22T10:03:33.929Z</time>
      </trkpt>
      <trkpt lat="48.3222704" lon="-2.0065697">
        <ele>57.884</ele>
        <time>2018-08-22T10:03:37.204Z</time>
      </trkpt>
      <trkpt lat="48.3221540" lon="-2.0065840">
        <ele>57.045</ele>
        <time>2018-08-22T10:03:40.670Z</time>
      </trkpt>
      <trkpt lat="48.3220622" lon="-2.0066098">
        <ele>56.355</ele>
        <time>2018-08-22T10:03:43.310Z</time>
      </trkpt>
      <trkpt lat="48.3219692" lon="-2.0066117">
        <ele>55.826</ele>
        <time>2018-08-22T10:03:45.978Z</time>
      </trkpt>
      <trkpt lat="48.3218614" lon="-2.0066173">
        <ele>55.393</ele>
        <time>2018-08-22T10:03:49.106Z</time>
      </trkpt>
      <trkpt lat="48.3217527" lon="-2.0066176">
        <ele>55.127</ele>
        <time>2018-08-22T10:03:52.461Z</time>
      </trkpt>
      <trkpt lat="48.3216478" lon="-2.0066187">
        <ele>55.055</ele>
        <time>2018-08-22T10:03:56.007Z</time>
      </trkpt>
      <trkpt lat="48.3215432" lon="-2.0066282">
        <ele>55.074</ele>
        <time>2018-08-22T10:03:59.841Z</time>
      </trkpt>
      <trkpt lat="48.3214519" lon="-2.0066399">
        <ele>55.101</ele>
        <time>2018-08-22T10:04:03.291Z</time>
      </trkpt>
      <trkpt lat="48.3213402" lon="-2.0066568">
        <ele>55.085</ele>
        <time>2018-08-22T10:04:07.572Z</time>
      </trkpt>
      <trkpt lat="48.3212432" lon="-2.0066445">
        <ele>55.030</ele>
        <time>2018-08-22T10:04:10.972Z</time>
      </trkpt>
      <trkpt lat="48.3211320" lon="-2.0066073">
        <ele>54.990</ele>
        <time>2018-08-22T10:04:14.718Z</time>
      </trkpt>
      <trkpt lat="48.3210274" lon="-2.0065722">
        <ele>55.365</ele>
        <time>2018-08-22T10:04:18.238Z</time>
      </trkpt>
      <trkpt lat="48.3209355" lon="-2.0065470">
        <ele>56.450</ele>
        <time>2018-08-22T10:04:21.134Z</time>
      </trkpt>
      <trkpt lat="48.3208455" lon="-2.0065170">
        <ele>57.709</ele>
        <time>2018-08-22T10:04:23.785Z</time>
      </trkpt>
      <trkpt lat="48.3207498" lon="-2.0064459">
        <ele>58.566</ele>
        <time>2018-08-22T10:04:26.762Z</time>
      </trkpt>
      <trkpt lat="48.3206510" lon="-2.0064024">
        <ele>59.247</ele>
        <time>2018-08-22T10:04:29.593Z</time>
      </trkpt>
      <trkpt lat="48.3205528" lon="-2.0063513">
        <ele>59.954</ele>
        <time>2018-08-22T10:04:32.432Z</time>
      </trkpt>
      <trkpt lat="48.3204603" lon="-2.0062749">
        <ele>60.467</ele>
        <time>2018-08-22T10:04:35.123Z</time>
      </trkpt>
      <trkpt lat="48.3203624" lon="-2.0062020">
        <ele>60.600</ele>
        <time>2018-08-22T10:04:37.655Z</time>
      </trkpt>
      <trkpt lat="48.3202761" lon="-2.0061382">
        <ele>60.465</ele>
        <time>2018-08-22T10:04:39.847Z</time>
      </trkpt>
      <trkpt lat="48.3201613" lon="-2.0060633">
        <ele>60.319</ele>
        <time>2018-08-22T10:04:42.707Z</time>
      </trkpt>
      <trkpt lat="48.3200537" lon="-2.0059828">
        <ele>60.342</ele>
        <time>2018-08-22T10:04:45.491Z</time>
      </trkpt>
      <trkpt lat="48.3199484" lon="-2.0059012">
        <ele>60.535</ele>
        <time>2018-08-22T10:04:48.261Z</time>
      </trkpt>
      <trkpt lat="48.3198496" lon="-2.0058235">
        <ele>60.903</ele>
        <time>2018-08-22T10:04:50.869Z</time>
      </trkpt>
      <trkpt lat="48.3197425" lon="-2.0057383">
        <ele>61.386</ele>
        <time>2018-08-22T10:04:53.666Z</time>
      </trkpt>
      <trkpt lat="48.3196450" lon="-2.0056372">
        <ele>61.702</ele>
        <time>2018-08-22T10:04:56.323Z</time>
      </trkpt>
      <trkpt lat="48.3195257" lon="-2.0055451">
        <ele>61.615</ele>
        <time>2018-08-22T10:04:59.325Z</time>
      </trkpt>
      <trkpt lat="48.3193949" lon="-2.0054820">
        <ele>61.176</ele>
        <time>2018-08-22T10:05:02.607Z</time>
      </trkpt>
      <trkpt lat="48.3192786" lon="-2.0054013">
        <ele>60.620</ele>
        <time>2018-08-22T10:05:05.958Z</time>
      </trkpt>
      <trkpt lat="48.3191814" lon="-2.0053297">
        <ele>60.173</ele>
        <time>2018-08-22T10:05:08.751Z</time>
      </trkpt>
      <trkpt lat="48.3190992" lon="-2.0052458">
        <ele>59.638</ele>
        <time>2018-08-22T10:05:11.082Z</time>
      </trkpt>
      <trkpt lat="48.3189781" lon="-2.0051991">
        <ele>58.794</ele>
        <time>2018-08-22T10:05:13.752Z</time>
      </trkpt>
      <trkpt lat="48.3188481" lon="-2.0051557">
        <ele>57.953</ele>
        <time>2018-08-22T10:05:16.705Z</time>
      </trkpt>
      <trkpt lat="48.3187052" lon="-2.0051242">
        <ele>57.372</ele>
        <time>2018-08-22T10:05:20.111Z</time>
      </trkpt>
      <trkpt lat="48.3185761" lon="-2.0050895">
        <ele>56.822</ele>
        <time>2018-08-22T10:05:23.157Z</time>
      </trkpt>
      <trkpt lat="48.3184528" lon="-2.0050646">
        <ele>56.221</ele>
        <time>2018-08-22T10:05:25.773Z</time>
      </trkpt>
      <trkpt lat="48.3183261" lon="-2.0050465">
        <ele>55.752</ele>
        <time>2018-08-22T10:05:28.341Z</time>
      </trkpt>
      <trkpt lat="48.3181694" lon="-2.0049921">
        <ele>55.379</ele>
        <time>2018-08-22T10:05:31.743Z</time>
      </trkpt>
      <trkpt lat="48.3180544" lon="-2.0050082">
        <ele>54.813</ele>
        <time>2018-08-22T10:05:34.311Z</time>
      </trkpt>
      <trkpt lat="48.3179304" lon="-2.0050097">
        <ele>54.080</ele>
        <time>2018-08-22T10:05:36.978Z</time>
      </trkpt>
      <trkpt lat="48.3178019" lon="-2.0050228">
        <ele>53.365</ele>
        <time>2018-08-22T10:05:39.704Z</time>
      </trkpt>
      <trkpt lat="48.3176694" lon="-2.0050657">
        <ele>52.640</ele>
        <time>2018-08-22T10:05:42.853Z</time>
      </trkpt>
      <trkpt lat="48.3175477" lon="-2.0051437">
        <ele>51.856</ele>
        <time>2018-08-22T10:05:47.088Z</time>
      </trkpt>
      <trkpt lat="48.3174561" lon="-2.0052001">
        <ele>51.184</ele>
        <time>2018-08-22T10:05:50.946Z</time>
      </trkpt>
      <trkpt lat="48.3173659" lon="-2.0052586">
        <ele>50.947</ele>
        <time>2018-08-22T10:05:55.004Z</time>
      </trkpt>
      <trkpt lat="48.3172586" lon="-2.0053192">
        <ele>51.412</ele>
        <time>2018-08-22T10:05:59.289Z</time>
      </trkpt>
      <trkpt lat="48.3171568" lon="-2.0053994">
        <ele>52.320</ele>
        <time>2018-08-22T10:06:03.558Z</time>
      </trkpt>
      <trkpt lat="48.3170749" lon="-2.0054616">
        <ele>53.082</ele>
        <time>2018-08-22T10:06:06.940Z</time>
      </trkpt>
      <trkpt lat="48.3169849" lon="-2.0055433">
        <ele>53.443</ele>
        <time>2018-08-22T10:06:10.747Z</time>
      </trkpt>
      <trkpt lat="48.3169016" lon="-2.0056218">
        <ele>53.528</ele>
        <time>2018-08-22T10:06:14.075Z</time>
      </trkpt>
      <trkpt lat="48.3168101" lon="-2.0057220">
        <ele>53.537</ele>
        <time>2018-08-22T10:06:17.570Z</time>
      </trkpt>
      <trkpt lat="48.3167362" lon="-2.0058129">
        <ele>53.612</ele>
        <time>2018-08-22T10:06:20.279Z</time>
      </trkpt>
      <trkpt lat="48.3166613" lon="-2.0059084">
        <ele>53.730</ele>
        <time>2018-08-22T10:06:23.088Z</time>
      </trkpt>
      <trkpt lat="48.3165858" lon="-2.0060292">
        <ele>53.810</ele>
        <time>2018-08-22T10:06:26.251Z</time>
      </trkpt>
      <trkpt lat="48.3165131" lon="-2.0061469">
        <ele>53.861</ele>
        <time>2018-08-22T10:06:29.282Z</time>
      </trkpt>
      <trkpt lat="48.3164487" lon="-2.0062462">
        <ele>53.939</ele>
        <time>2018-08-22T10:06:31.921Z</time>
      </trkpt>
      <trkpt lat="48.3163711" lon="-2.0063491">
        <ele>54.126</ele>
        <time>2018-08-22T10:06:34.978Z</time>
      </trkpt>
      <trkpt lat="48.3162872" lon="-2.0064668">
        <ele>54.474</ele>
        <time>2018-08-22T10:06:38.397Z</time>
      </trkpt>
      <trkpt lat="48.3162321" lon="-2.0066004">
        <ele>54.871</ele>
        <time>2018-08-22T10:06:41.723Z</time>
      </trkpt>
      <trkpt lat="48.3161638" lon="-2.0067210">
        <ele>55.190</ele>
        <time>2018-08-22T10:06:45.052Z</time>
      </trkpt>
      <trkpt lat="48.3160805" lon="-2.0068521">
        <ele>55.370</ele>
        <time>2018-08-22T10:06:48.342Z</time>
      </trkpt>
      <trkpt lat="48.3159827" lon="-2.0069811">
        <ele>55.352</ele>
        <time>2018-08-22T10:06:51.614Z</time>
      </trkpt>
      <trkpt lat="48.3159082" lon="-2.0070824">
        <ele>55.196</ele>
        <time>2018-08-22T10:06:54.245Z</time>
      </trkpt>
      <trkpt lat="48.3158366" lon="-2.0071791">
        <ele>55.044</ele>
        <time>2018-08-22T10:06:57.100Z</time>
      </trkpt>
      <trkpt lat="48.3157524" lon="-2.0072704">
        <ele>54.920</ele>
        <time>2018-08-22T10:07:00.158Z</time>
      </trkpt>
      <trkpt lat="48.3156642" lon="-2.0073869">
        <ele>54.812</ele>
        <time>2018-08-22T10:07:03.332Z</time>
      </trkpt>
      <trkpt lat="48.3155783" lon="-2.0074927">
        <ele>54.672</ele>
        <time>2018-08-22T10:07:06.309Z</time>
      </trkpt>
      <trkpt lat="48.3154811" lon="-2.0076039">
        <ele>54.442</ele>
        <time>2018-08-22T10:07:09.684Z</time>
      </trkpt>
      <trkpt lat="48.3153784" lon="-2.0076986">
        <ele>54.115</ele>
        <time>2018-08-22T10:07:13.085Z</time>
      </trkpt>
      <trkpt lat="48.3153004" lon="-2.0078108">
        <ele>53.777</ele>
        <time>2018-08-22T10:07:16.332Z</time>
      </trkpt>
      <trkpt lat="48.3152019" lon="-2.0078978">
        <ele>53.516</ele>
        <time>2018-08-22T10:07:19.626Z</time>
      </trkpt>
      <trkpt lat="48.3150855" lon="-2.0079909">
        <ele>53.332</ele>
        <time>2018-08-22T10:07:22.917Z</time>
      </trkpt>
      <trkpt lat="48.3150018" lon="-2.0080439">
        <ele>53.135</ele>
        <time>2018-08-22T10:07:25.162Z</time>
      </trkpt>
      <trkpt lat="48.3149050" lon="-2.0081331">
        <ele>52.910</ele>
        <time>2018-08-22T10:07:28.114Z</time>
      </trkpt>
      <trkpt lat="48.3148008" lon="-2.0082115">
        <ele>52.741</ele>
        <time>2018-08-22T10:07:31.106Z</time>
      </trkpt>
      <trkpt lat="48.3146920" lon="-2.0082687">
        <ele>52.566</ele>
        <time>2018-08-22T10:07:33.978Z</time>
      </trkpt>
      <trkpt lat="48.3145830" lon="-2.0083591">
        <ele>52.343</ele>
        <time>2018-08-22T10:07:37.009Z</time>
      </trkpt>
      <trkpt lat="48.3144611" lon="-2.0084265">
        <ele>52.053</ele>
        <time>2018-08-22T10:07:40.080Z</time>
      </trkpt>
      <trkpt lat="48.3143390" lon="-2.0084706">
        <ele>51.736</ele>
        <time>2018-08-22T10:07:42.992Z</time>
      </trkpt>
      <trkpt lat="48.3143390" lon="-2.0084706">
        <ele>51.431</ele>
        <time>2018-08-22T10:07:44.992Z</time>
      </trkpt>
      <trkpt lat="48.3143390" lon="-2.0084706">
        <ele>51.261</ele>
        <time>2018-08-22T10:07:45.092Z</time>
      </trkpt>
      <trkpt lat="48.3141134" lon="-2.0085346">
        <ele>51.254</ele>
        <time>2018-08-22T10:07:52.683Z</time>
      </trkpt>
      <trkpt lat="48.3140065" lon="-2.0085795">
        <ele>51.314</ele>
        <time>2018-08-22T10:07:55.233Z</time>
      </trkpt>
      <trkpt lat="48.3138956" lon="-2.0086188">
        <ele>51.389</ele>
        <time>2018-08-22T10:07:57.732Z</time>
      </trkpt>
      <trkpt lat="48.3137670" lon="-2.0086299">
        <ele>51.484</ele>
        <time>2018-08-22T10:08:00.600Z</time>
      </trkpt>
      <trkpt lat="48.3136504" lon="-2.0086378">
        <ele>51.662</ele>
        <time>2018-08-22T10:08:03.304Z</time>
      </trkpt>
      <trkpt lat="48.3135318" lon="-2.0086516">
        <ele>51.939</ele>
        <time>2018-08-22T10:08:06.256Z</time>
      </trkpt>
      <trkpt lat="48.3134334" lon="-2.0086509">
        <ele>52.205</ele>
        <time>2018-08-22T10:08:09.258Z</time>
      </trkpt>
      <trkpt lat="48.3133371" lon="-2.0086834">
        <ele>52.355</ele>
        <time>2018-08-22T10:08:13.101Z</time>
      </trkpt>
      <trkpt lat="48.3132363" lon="-2.0087048">
        <ele>52.404</ele>
        <time>2018-08-22T10:08:17.829Z</time>
      </trkpt>
      <trkpt lat="48.3131326" lon="-2.0086558">
        <ele>52.361</ele>
        <time>2018-08-22T10:08:22.545Z</time>
      </trkpt>
      <trkpt lat="48.3130406" lon="-2.0086042">
        <ele>52.239</ele>
        <time>2018-08-22T10:08:25.807Z</time>
      </trkpt>
      <trkpt lat="48.3129220" lon="-2.0085841">
        <ele>52.107</ele>
        <time>2018-08-22T10:08:29.065Z</time>
      </trkpt>
      <trkpt lat="48.3127982" lon="-2.0085559">
        <ele>52.079</ele>
        <time>2018-08-22T10:08:32.184Z</time>
      </trkpt>
      <trkpt lat="48.3126827" lon="-2.0085125">
        <ele>52.196</ele>
        <time>2018-08-22T10:08:35.103Z</time>
      </trkpt>
      <trkpt lat="48.3125644" lon="-2.0084685">
        <ele>52.364</ele>
        <time>2018-08-22T10:08:38.111Z</time>
      </trkpt>
      <trkpt lat="48.3124415" lon="-2.0084573">
        <ele>52.461</ele>
        <time>2018-08-22T10:08:41.299Z</time>
      </trkpt>
      <trkpt lat="48.3123428" lon="-2.0084560">
        <ele>52.447</ele>
        <time>2018-08-22T10:08:43.876Z</time>
      </trkpt>
      <trkpt lat="48.3122236" lon="-2.0084485">
        <ele>52.297</ele>
        <time>2018-08-22T10:08:46.914Z</time>
      </trkpt>
      <trkpt lat="48.3121058" lon="-2.0084436">
        <ele>52.023</ele>
        <time>2018-08-22T10:08:49.869Z</time>
      </trkpt>
      <trkpt lat="48.3119861" lon="-2.0084206">
        <ele>51.738</ele>
        <time>2018-08-22T10:08:52.905Z</time>
      </trkpt>
      <trkpt lat="48.3118814" lon="-2.0083996">
        <ele>51.570</ele>
        <time>2018-08-22T10:08:55.520Z</time>
      </trkpt>
      <trkpt lat="48.3117513" lon="-2.0083840">
        <ele>51.537</ele>
        <time>2018-08-22T10:08:58.588Z</time>
      </trkpt>
      <trkpt lat="48.3116234" lon="-2.0083797">
        <ele>51.407</ele>
        <time>2018-08-22T10:09:01.426Z</time>
      </trkpt>
      <trkpt lat="48.3114915" lon="-2.0083712">
        <ele>50.923</ele>
        <time>2018-08-22T10:09:04.268Z</time>
      </trkpt>
      <trkpt lat="48.3113709" lon="-2.0083800">
        <ele>50.198</ele>
        <time>2018-08-22T10:09:06.854Z</time>
      </trkpt>
      <trkpt lat="48.3112583" lon="-2.0084225">
        <ele>49.485</ele>
        <time>2018-08-22T10:09:09.384Z</time>
      </trkpt>
      <trkpt lat="48.3111380" lon="-2.0084662">
        <ele>48.827</ele>
        <time>2018-08-22T10:09:12.132Z</time>
      </trkpt>
      <trkpt lat="48.3110388" lon="-2.0084762">
        <ele>48.035</ele>
        <time>2018-08-22T10:09:14.416Z</time>
      </trkpt>
      <trkpt lat="48.3109098" lon="-2.0085341">
        <ele>48.090</ele>
        <time>2018-08-22T10:09:17.573Z</time>
      </trkpt>
      <trkpt lat="48.3107451" lon="-2.0086173">
        <ele>48.270</ele>
        <time>2018-08-22T10:09:21.366Z</time>
      </trkpt>
      <trkpt lat="48.3106262" lon="-2.0087005">
        <ele>48.349</ele>
        <time>2018-08-22T10:09:23.993Z</time>
      </trkpt>
      <trkpt lat="48.3106262" lon="-2.0087005">
        <ele>48.308</ele>
        <time>2018-08-22T10:09:23.993Z</time>
      </trkpt>
      <trkpt lat="48.3106262" lon="-2.0087005">
        <ele>48.255</ele>
        <time>2018-08-22T10:09:24.083Z</time>
      </trkpt>
      <trkpt lat="48.3105047" lon="-2.0087912">
        <ele>48.234</ele>
        <time>2018-08-22T10:09:28.469Z</time>
      </trkpt>
      <trkpt lat="48.3103986" lon="-2.0088930">
        <ele>48.082</ele>
        <time>2018-08-22T10:09:31.226Z</time>
      </trkpt>
      <trkpt lat="48.3103221" lon="-2.0089726">
        <ele>47.684</ele>
        <time>2018-08-22T10:09:33.265Z</time>
      </trkpt>
      <trkpt lat="48.3102100" lon="-2.0090802">
        <ele>47.294</ele>
        <time>2018-08-22T10:09:36.205Z</time>
      </trkpt>
      <trkpt lat="48.3101123" lon="-2.0092104">
        <ele>47.291</ele>
        <time>2018-08-22T10:09:39.105Z</time>
      </trkpt>
      <trkpt lat="48.3100398" lon="-2.0092983">
        <ele>47.761</ele>
        <time>2018-08-22T10:09:41.141Z</time>
      </trkpt>
      <trkpt lat="48.3099610" lon="-2.0093904">
        <ele>48.483</ele>
        <time>2018-08-22T10:09:43.330Z</time>
      </trkpt>
      <trkpt lat="48.3098871" lon="-2.0094684">
        <ele>49.101</ele>
        <time>2018-08-22T10:09:45.331Z</time>
      </trkpt>
      <trkpt lat="48.3098113" lon="-2.0095530">
        <ele>49.372</ele>
        <time>2018-08-22T10:09:47.443Z</time>
      </trkpt>
      <trkpt lat="48.3097051" lon="-2.0096789">
        <ele>49.261</ele>
        <time>2018-08-22T10:09:50.486Z</time>
      </trkpt>
      <trkpt lat="48.3096324" lon="-2.0097704">
        <ele>48.920</ele>
        <time>2018-08-22T10:09:52.625Z</time>
      </trkpt>
      <trkpt lat="48.3095366" lon="-2.0098908">
        <ele>48.560</ele>
        <time>2018-08-22T10:09:55.462Z</time>
      </trkpt>
      <trkpt lat="48.3094367" lon="-2.0100115">
        <ele>48.362</ele>
        <time>2018-08-22T10:09:58.439Z</time>
      </trkpt>
      <trkpt lat="48.3093372" lon="-2.0101295">
        <ele>48.401</ele>
        <time>2018-08-22T10:10:01.515Z</time>
      </trkpt>
      <trkpt lat="48.3092544" lon="-2.0102279">
        <ele>48.583</ele>
        <time>2018-08-22T10:10:04.186Z</time>
      </trkpt>
      <trkpt lat="48.3091517" lon="-2.0103381">
        <ele>48.729</ele>
        <time>2018-08-22T10:10:07.383Z</time>
      </trkpt>
      <trkpt lat="48.3090576" lon="-2.0104452">
        <ele>48.741</ele>
        <time>2018-08-22T10:10:10.308Z</time>
      </trkpt>
      <trkpt lat="48.3089674" lon="-2.0105364">
        <ele>48.663</ele>
        <time>2018-08-22T10:10:12.991Z</time>
      </trkpt>
      <trkpt lat="48.3088742" lon="-2.0106298">
        <ele>48.533</ele>
        <time>2018-08-22T10:10:15.751Z</time>
      </trkpt>
      <trkpt lat="48.3087648" lon="-2.0107348">
        <ele>48.376</ele>
        <time>2018-08-22T10:10:18.877Z</time>
      </trkpt>
      <trkpt lat="48.3086557" lon="-2.0108182">
        <ele>48.265</ele>
        <time>2018-08-22T10:10:21.815Z</time>
      </trkpt>
      <trkpt lat="48.3085398" lon="-2.0109021">
        <ele>48.310</ele>
        <time>2018-08-22T10:10:24.911Z</time>
      </trkpt>
      <trkpt lat="48.3084215" lon="-2.0109701">
        <ele>48.763</ele>
        <time>2018-08-22T10:10:27.931Z</time>
      </trkpt>
      <trkpt lat="48.3082913" lon="-2.0110249">
        <ele>48.975</ele>
        <time>2018-08-22T10:10:31.095Z</time>
      </trkpt>
      <trkpt lat="48.3081619" lon="-2.0110836">
        <ele>49.200</ele>
        <time>2018-08-22T10:10:34.218Z</time>
      </trkpt>
      <trkpt lat="48.3080452" lon="-2.0111383">
        <ele>49.368</ele>
        <time>2018-08-22T10:10:37.184Z</time>
      </trkpt>
      <trkpt lat="48.3079349" lon="-2.0112009">
        <ele>49.294</ele>
        <time>2018-08-22T10:10:40.147Z</time>
      </trkpt>
      <trkpt lat="48.3078093" lon="-2.0112413">
        <ele>48.889</ele>
        <time>2018-08-22T10:10:43.203Z</time>
      </trkpt>
      <trkpt lat="48.3076722" lon="-2.0112800">
        <ele>48.132</ele>
        <time>2018-08-22T10:10:46.348Z</time>
      </trkpt>
      <trkpt lat="48.3075283" lon="-2.0113031">
        <ele>48.324</ele>
        <time>2018-08-22T10:10:49.537Z</time>
      </trkpt>
      <trkpt lat="48.3073759" lon="-2.0113248">
        <ele>48.512</ele>
        <time>2018-08-22T10:10:52.872Z</time>
      </trkpt>
      <trkpt lat="48.3072572" lon="-2.0113507">
        <ele>48.274</ele>
        <time>2018-08-22T10:10:55.480Z</time>
      </trkpt>
      <trkpt lat="48.3071122" lon="-2.0113797">
        <ele>47.774</ele>
        <time>2018-08-22T10:10:58.836Z</time>
      </trkpt>
      <trkpt lat="48.3069932" lon="-2.0114166">
        <ele>47.594</ele>
        <time>2018-08-22T10:11:01.814Z</time>
      </trkpt>
      <trkpt lat="48.3068513" lon="-2.0114638">
        <ele>47.965</ele>
        <time>2018-08-22T10:11:05.477Z</time>
      </trkpt>
      <trkpt lat="48.3067534" lon="-2.0115184">
        <ele>48.547</ele>
        <time>2018-08-22T10:11:08.015Z</time>
      </trkpt>
      <trkpt lat="48.3066450" lon="-2.0115884">
        <ele>48.917</ele>
        <time>2018-08-22T10:11:10.869Z</time>
      </trkpt>
      <trkpt lat="48.3065306" lon="-2.0116710">
        <ele>49.031</ele>
        <time>2018-08-22T10:11:13.925Z</time>
      </trkpt>
      <trkpt lat="48.3064241" lon="-2.0117366">
        <ele>49.130</ele>
        <time>2018-08-22T10:11:16.750Z</time>
      </trkpt>
      <trkpt lat="48.3063078" lon="-2.0117796">
        <ele>49.356</ele>
        <time>2018-08-22T10:11:19.733Z</time>
      </trkpt>
      <trkpt lat="48.3061902" lon="-2.0118161">
        <ele>49.544</ele>
        <time>2018-08-22T10:11:22.782Z</time>
      </trkpt>
      <trkpt lat="48.3060806" lon="-2.0118479">
        <ele>49.584</ele>
        <time>2018-08-22T10:11:25.717Z</time>
      </trkpt>
      <trkpt lat="48.3059641" lon="-2.0118752">
        <ele>49.480</ele>
        <time>2018-08-22T10:11:28.930Z</time>
      </trkpt>
      <trkpt lat="48.3058603" lon="-2.0118959">
        <ele>49.184</ele>
        <time>2018-08-22T10:11:32.058Z</time>
      </trkpt>
      <trkpt lat="48.3057448" lon="-2.0119253">
        <ele>48.714</ele>
        <time>2018-08-22T10:11:35.928Z</time>
      </trkpt>
      <trkpt lat="48.3056524" lon="-2.0119380">
        <ele>48.221</ele>
        <time>2018-08-22T10:11:38.977Z</time>
      </trkpt>
      <trkpt lat="48.3055572" lon="-2.0119636">
        <ele>47.763</ele>
        <time>2018-08-22T10:11:42.001Z</time>
      </trkpt>
      <trkpt lat="48.3054453" lon="-2.0119819">
        <ele>47.289</ele>
        <time>2018-08-22T10:11:45.617Z</time>
      </trkpt>
      <trkpt lat="48.3053605" lon="-2.0119127">
        <ele>46.871</ele>
        <time>2018-08-22T10:11:48.997Z</time>
      </trkpt>
      <trkpt lat="48.3053605" lon="-2.0119127">
        <ele>46.660</ele>
        <time>2018-08-22T10:11:53.996Z</time>
      </trkpt>
      <trkpt lat="48.3053605" lon="-2.0119127">
        <ele>46.661</ele>
        <time>2018-08-22T10:14:49.784Z</time>
      </trkpt>
      <trkpt lat="48.3051627" lon="-2.0117470">
        <ele>46.716</ele>
        <time>2018-08-22T10:15:11.368Z</time>
      </trkpt>
      <trkpt lat="48.3050676" lon="-2.0117959">
        <ele>46.702</ele>
        <time>2018-08-22T10:15:14.991Z</time>
      </trkpt>
      <trkpt lat="48.3049854" lon="-2.0118552">
        <ele>46.665</ele>
        <time>2018-08-22T10:15:17.992Z</time>
      </trkpt>
      <trkpt lat="48.3049854" lon="-2.0118552">
        <ele>46.674</ele>
        <time>2018-08-22T10:15:21.992Z</time>
      </trkpt>
      <trkpt lat="48.3049854" lon="-2.0118552">
        <ele>46.693</ele>
        <time>2018-08-22T10:15:22.092Z</time>
      </trkpt>
      <trkpt lat="48.3047726" lon="-2.0119672">
        <ele>46.676</ele>
        <time>2018-08-22T10:15:34.212Z</time>
      </trkpt>
      <trkpt lat="48.3046680" lon="-2.0119987">
        <ele>46.765</ele>
        <time>2018-08-22T10:15:38.854Z</time>
      </trkpt>
      <trkpt lat="48.3045727" lon="-2.0120298">
        <ele>47.066</ele>
        <time>2018-08-22T10:15:43.167Z</time>
      </trkpt>
      <trkpt lat="48.3044841" lon="-2.0120675">
        <ele>47.392</ele>
        <time>2018-08-22T10:15:46.879Z</time>
      </trkpt>
      <trkpt lat="48.3043952" lon="-2.0121089">
        <ele>47.721</ele>
        <time>2018-08-22T10:15:50.506Z</time>
      </trkpt>
      <trkpt lat="48.3042943" lon="-2.0121664">
        <ele>48.401</ele>
        <time>2018-08-22T10:15:54.707Z</time>
      </trkpt>
      <trkpt lat="48.3041986" lon="-2.0122332">
        <ele>49.381</ele>
        <time>2018-08-22T10:15:58.838Z</time>
      </trkpt>
      <trkpt lat="48.3041166" lon="-2.0122887">
        <ele>50.135</ele>
        <time>2018-08-22T10:16:02.492Z</time>
      </trkpt>
      <trkpt lat="48.3040220" lon="-2.0123542">
        <ele>50.417</ele>
        <time>2018-08-22T10:16:06.934Z</time>
      </trkpt>
      <trkpt lat="48.3039018" lon="-2.0124482">
        <ele>50.404</ele>
        <time>2018-08-22T10:16:12.624Z</time>
      </trkpt>
      <trkpt lat="48.3038067" lon="-2.0125183">
        <ele>50.296</ele>
        <time>2018-08-22T10:16:16.683Z</time>
      </trkpt>
      <trkpt lat="48.3037084" lon="-2.0125882">
        <ele>50.209</ele>
        <time>2018-08-22T10:16:20.770Z</time>
      </trkpt>
      <trkpt lat="48.3036225" lon="-2.0126758">
        <ele>50.393</ele>
        <time>2018-08-22T10:16:24.863Z</time>
      </trkpt>
      <trkpt lat="48.3035250" lon="-2.0127964">
        <ele>50.990</ele>
        <time>2018-08-22T10:16:29.580Z</time>
      </trkpt>
      <trkpt lat="48.3034473" lon="-2.0129057">
        <ele>51.773</ele>
        <time>2018-08-22T10:16:33.035Z</time>
      </trkpt>
      <trkpt lat="48.3033760" lon="-2.0129957">
        <ele>52.442</ele>
        <time>2018-08-22T10:16:35.813Z</time>
      </trkpt>
      <trkpt lat="48.3032904" lon="-2.0131116">
        <ele>52.894</ele>
        <time>2018-08-22T10:16:38.942Z</time>
      </trkpt>
      <trkpt lat="48.3032199" lon="-2.0132062">
        <ele>53.190</ele>
        <time>2018-08-22T10:16:41.378Z</time>
      </trkpt>
      <trkpt lat="48.3031489" lon="-2.0133332">
        <ele>53.473</ele>
        <time>2018-08-22T10:16:44.228Z</time>
      </trkpt>
      <trkpt lat="48.3030782" lon="-2.0134753">
        <ele>53.754</ele>
        <time>2018-08-22T10:16:47.209Z</time>
      </trkpt>
      <trkpt lat="48.3030013" lon="-2.0135965">
        <ele>53.973</ele>
        <time>2018-08-22T10:16:49.990Z</time>
      </trkpt>
      <trkpt lat="48.3030013" lon="-2.0135965">
        <ele>54.088</ele>
        <time>2018-08-22T10:16:51.989Z</time>
      </trkpt>
      <trkpt lat="48.3030013" lon="-2.0135965">
        <ele>54.102</ele>
        <time>2018-08-22T10:16:52.089Z</time>
      </trkpt>
      <trkpt lat="48.3028554" lon="-2.0138937">
        <ele>54.066</ele>
        <time>2018-08-22T10:16:59.855Z</time>
      </trkpt>
      <trkpt lat="48.3028016" lon="-2.0140317">
        <ele>54.212</ele>
        <time>2018-08-22T10:17:02.231Z</time>
      </trkpt>
      <trkpt lat="48.3027520" lon="-2.0141728">
        <ele>54.766</ele>
        <time>2018-08-22T10:17:04.570Z</time>
      </trkpt>
      <trkpt lat="48.3026977" lon="-2.0143117">
        <ele>55.466</ele>
        <time>2018-08-22T10:17:06.911Z</time>
      </trkpt>
      <trkpt lat="48.3026478" lon="-2.0144340">
        <ele>55.853</ele>
        <time>2018-08-22T10:17:08.989Z</time>
      </trkpt>
      <trkpt lat="48.3026478" lon="-2.0144340">
        <ele>55.902</ele>
        <time>2018-08-22T10:17:11.989Z</time>
      </trkpt>
      <trkpt lat="48.3026478" lon="-2.0144340">
        <ele>55.838</ele>
        <time>2018-08-22T10:17:12.089Z</time>
      </trkpt>
      <trkpt lat="48.3025524" lon="-2.0147236">
        <ele>55.787</ele>
        <time>2018-08-22T10:17:20.036Z</time>
      </trkpt>
      <trkpt lat="48.3025028" lon="-2.0148567">
        <ele>55.756</ele>
        <time>2018-08-22T10:17:22.793Z</time>
      </trkpt>
      <trkpt lat="48.3024589" lon="-2.0149912">
        <ele>55.715</ele>
        <time>2018-08-22T10:17:25.463Z</time>
      </trkpt>
      <trkpt lat="48.3024191" lon="-2.0151293">
        <ele>55.672</ele>
        <time>2018-08-22T10:17:28.128Z</time>
      </trkpt>
      <trkpt lat="48.3023792" lon="-2.0152551">
        <ele>55.605</ele>
        <time>2018-08-22T10:17:30.620Z</time>
      </trkpt>
      <trkpt lat="48.3023442" lon="-2.0153823">
        <ele>55.428</ele>
        <time>2018-08-22T10:17:33.075Z</time>
      </trkpt>
      <trkpt lat="48.3022907" lon="-2.0155231">
        <ele>55.057</ele>
        <time>2018-08-22T10:17:35.946Z</time>
      </trkpt>
      <trkpt lat="48.3022424" lon="-2.0156573">
        <ele>54.566</ele>
        <time>2018-08-22T10:17:38.640Z</time>
      </trkpt>
      <trkpt lat="48.3021996" lon="-2.0157935">
        <ele>54.143</ele>
        <time>2018-08-22T10:17:41.347Z</time>
      </trkpt>
      <trkpt lat="48.3021676" lon="-2.0159200">
        <ele>53.892</ele>
        <time>2018-08-22T10:17:43.837Z</time>
      </trkpt>
      <trkpt lat="48.3021097" lon="-2.0160486">
        <ele>53.831</ele>
        <time>2018-08-22T10:17:46.705Z</time>
      </trkpt>
      <trkpt lat="48.3020505" lon="-2.0161961">
        <ele>53.989</ele>
        <time>2018-08-22T10:17:49.760Z</time>
      </trkpt>
      <trkpt lat="48.3019953" lon="-2.0163367">
        <ele>54.264</ele>
        <time>2018-08-22T10:17:52.546Z</time>
      </trkpt>
      <trkpt lat="48.3019374" lon="-2.0164832">
        <ele>54.487</ele>
        <time>2018-08-22T10:17:55.387Z</time>
      </trkpt>
      <trkpt lat="48.3018937" lon="-2.0166263">
        <ele>54.596</ele>
        <time>2018-08-22T10:17:57.988Z</time>
      </trkpt>
      <trkpt lat="48.3018937" lon="-2.0166263">
        <ele>54.625</ele>
        <time>2018-08-22T10:17:57.988Z</time>
      </trkpt>
      <trkpt lat="48.3018937" lon="-2.0166263">
        <ele>54.611</ele>
        <time>2018-08-22T10:17:58.088Z</time>
      </trkpt>
      <trkpt lat="48.3018204" lon="-2.0168044">
        <ele>54.585</ele>
        <time>2018-08-22T10:18:03.974Z</time>
      </trkpt>
      <trkpt lat="48.3017639" lon="-2.0169483">
        <ele>54.566</ele>
        <time>2018-08-22T10:18:07.087Z</time>
      </trkpt>
      <trkpt lat="48.3017221" lon="-2.0170781">
        <ele>54.611</ele>
        <time>2018-08-22T10:18:09.765Z</time>
      </trkpt>
      <trkpt lat="48.3016766" lon="-2.0172150">
        <ele>54.913</ele>
        <time>2018-08-22T10:18:12.579Z</time>
      </trkpt>
      <trkpt lat="48.3016183" lon="-2.0173629">
        <ele>55.602</ele>
        <time>2018-08-22T10:18:15.692Z</time>
      </trkpt>
      <trkpt lat="48.3015713" lon="-2.0175069">
        <ele>56.417</ele>
        <time>2018-08-22T10:18:18.575Z</time>
      </trkpt>
      <trkpt lat="48.3015224" lon="-2.0176537">
        <ele>56.912</ele>
        <time>2018-08-22T10:18:21.524Z</time>
      </trkpt>
      <trkpt lat="48.3014693" lon="-2.0178001">
        <ele>56.957</ele>
        <time>2018-08-22T10:18:24.502Z</time>
      </trkpt>
      <trkpt lat="48.3014142" lon="-2.0179574">
        <ele>56.790</ele>
        <time>2018-08-22T10:18:27.612Z</time>
      </trkpt>
      <trkpt lat="48.3013457" lon="-2.0181262">
        <ele>56.714</ele>
        <time>2018-08-22T10:18:30.954Z</time>
      </trkpt>
      <trkpt lat="48.3012740" lon="-2.0182802">
        <ele>56.978</ele>
        <time>2018-08-22T10:18:34.071Z</time>
      </trkpt>
      <trkpt lat="48.3012137" lon="-2.0184082">
        <ele>57.201</ele>
        <time>2018-08-22T10:18:36.764Z</time>
      </trkpt>
      <trkpt lat="48.3011771" lon="-2.0185755">
        <ele>57.491</ele>
        <time>2018-08-22T10:18:39.908Z</time>
      </trkpt>
      <trkpt lat="48.3011109" lon="-2.0187083">
        <ele>57.908</ele>
        <time>2018-08-22T10:18:43.038Z</time>
      </trkpt>
      <trkpt lat="48.3010559" lon="-2.0188314">
        <ele>58.469</ele>
        <time>2018-08-22T10:18:45.910Z</time>
      </trkpt>
      <trkpt lat="48.3010028" lon="-2.0189554">
        <ele>59.139</ele>
        <time>2018-08-22T10:18:48.806Z</time>
      </trkpt>
      <trkpt lat="48.3009412" lon="-2.0190985">
        <ele>59.254</ele>
        <time>2018-08-22T10:18:52.058Z</time>
      </trkpt>
      <trkpt lat="48.3008698" lon="-2.0192402">
        <ele>59.502</ele>
        <time>2018-08-22T10:18:55.270Z</time>
      </trkpt>
      <trkpt lat="48.3008030" lon="-2.0193778">
        <ele>59.827</ele>
        <time>2018-08-22T10:18:58.245Z</time>
      </trkpt>
      <trkpt lat="48.3007248" lon="-2.0195078">
        <ele>60.015</ele>
        <time>2018-08-22T10:19:01.257Z</time>
      </trkpt>
      <trkpt lat="48.3006430" lon="-2.0196307">
        <ele>59.979</ele>
        <time>2018-08-22T10:19:04.208Z</time>
      </trkpt>
      <trkpt lat="48.3005532" lon="-2.0197529">
        <ele>59.930</ele>
        <time>2018-08-22T10:19:07.254Z</time>
      </trkpt>
      <trkpt lat="48.3004670" lon="-2.0198807">
        <ele>60.042</ele>
        <time>2018-08-22T10:19:10.250Z</time>
      </trkpt>
      <trkpt lat="48.3003754" lon="-2.0200012">
        <ele>60.170</ele>
        <time>2018-08-22T10:19:13.233Z</time>
      </trkpt>
      <trkpt lat="48.3002903" lon="-2.0201131">
        <ele>60.036</ele>
        <time>2018-08-22T10:19:15.983Z</time>
      </trkpt>
      <trkpt lat="48.3001822" lon="-2.0202543">
        <ele>59.591</ele>
        <time>2018-08-22T10:19:19.381Z</time>
      </trkpt>
      <trkpt lat="48.3000960" lon="-2.0203588">
        <ele>59.053</ele>
        <time>2018-08-22T10:19:22.004Z</time>
      </trkpt>
      <trkpt lat="48.3000139" lon="-2.0204406">
        <ele>58.696</ele>
        <time>2018-08-22T10:19:24.392Z</time>
      </trkpt>
      <trkpt lat="48.2999192" lon="-2.0205288">
        <ele>58.715</ele>
        <time>2018-08-22T10:19:27.171Z</time>
      </trkpt>
      <trkpt lat="48.2998208" lon="-2.0206253">
        <ele>59.072</ele>
        <time>2018-08-22T10:19:30.140Z</time>
      </trkpt>
      <trkpt lat="48.2997190" lon="-2.0207051">
        <ele>59.472</ele>
        <time>2018-08-22T10:19:33.034Z</time>
      </trkpt>
      <trkpt lat="48.2996102" lon="-2.0207746">
        <ele>59.806</ele>
        <time>2018-08-22T10:19:35.985Z</time>
      </trkpt>
      <trkpt lat="48.2995035" lon="-2.0208348">
        <ele>60.146</ele>
        <time>2018-08-22T10:19:38.840Z</time>
      </trkpt>
      <trkpt lat="48.2993915" lon="-2.0208933">
        <ele>60.361</ele>
        <time>2018-08-22T10:19:41.839Z</time>
      </trkpt>
      <trkpt lat="48.2992727" lon="-2.0209564">
        <ele>60.187</ele>
        <time>2018-08-22T10:19:44.970Z</time>
      </trkpt>
      <trkpt lat="48.2991536" lon="-2.0210122">
        <ele>59.557</ele>
        <time>2018-08-22T10:19:47.985Z</time>
      </trkpt>
      <trkpt lat="48.2991536" lon="-2.0210122">
        <ele>58.775</ele>
        <time>2018-08-22T10:19:49.985Z</time>
      </trkpt>
      <trkpt lat="48.2991536" lon="-2.0210122">
        <ele>58.322</ele>
        <time>2018-08-22T10:19:50.085Z</time>
      </trkpt>
      <trkpt lat="48.2989136" lon="-2.0211176">
        <ele>58.331</ele>
        <time>2018-08-22T10:19:57.235Z</time>
      </trkpt>
      <trkpt lat="48.2987949" lon="-2.0211623">
        <ele>58.262</ele>
        <time>2018-08-22T10:19:59.833Z</time>
      </trkpt>
      <trkpt lat="48.2986871" lon="-2.0211975">
        <ele>57.703</ele>
        <time>2018-08-22T10:20:02.260Z</time>
      </trkpt>
      <trkpt lat="48.2985817" lon="-2.0212388">
        <ele>57.245</ele>
        <time>2018-08-22T10:20:04.649Z</time>
      </trkpt>
      <trkpt lat="48.2984658" lon="-2.0212826">
        <ele>57.498</ele>
        <time>2018-08-22T10:20:07.244Z</time>
      </trkpt>
      <trkpt lat="48.2983470" lon="-2.0213326">
        <ele>58.114</ele>
        <time>2018-08-22T10:20:09.969Z</time>
      </trkpt>
      <trkpt lat="48.2982446" lon="-2.0213925">
        <ele>58.470</ele>
        <time>2018-08-22T10:20:12.689Z</time>
      </trkpt>
      <trkpt lat="48.2981437" lon="-2.0214466">
        <ele>58.213</ele>
        <time>2018-08-22T10:20:15.978Z</time>
      </trkpt>
      <trkpt lat="48.2980436" lon="-2.0214768">
        <ele>57.417</ele>
        <time>2018-08-22T10:20:20.066Z</time>
      </trkpt>
      <trkpt lat="48.2979416" lon="-2.0215505">
        <ele>56.651</ele>
        <time>2018-08-22T10:20:24.465Z</time>
      </trkpt>
      <trkpt lat="48.2978347" lon="-2.0216021">
        <ele>56.378</ele>
        <time>2018-08-22T10:20:28.626Z</time>
      </trkpt>
      <trkpt lat="48.2977455" lon="-2.0216475">
        <ele>56.623</ele>
        <time>2018-08-22T10:20:32.368Z</time>
      </trkpt>
      <trkpt lat="48.2976490" lon="-2.0217138">
        <ele>57.139</ele>
        <time>2018-08-22T10:20:36.617Z</time>
      </trkpt>
      <trkpt lat="48.2975574" lon="-2.0217815">
        <ele>57.524</ele>
        <time>2018-08-22T10:20:40.782Z</time>
      </trkpt>
      <trkpt lat="48.2974553" lon="-2.0218547">
        <ele>57.578</ele>
        <time>2018-08-22T10:20:45.510Z</time>
      </trkpt>
      <trkpt lat="48.2973760" lon="-2.0219284">
        <ele>57.486</ele>
        <time>2018-08-22T10:20:48.920Z</time>
      </trkpt>
      <trkpt lat="48.2972914" lon="-2.0220029">
        <ele>57.461</ele>
        <time>2018-08-22T10:20:52.603Z</time>
      </trkpt>
      <trkpt lat="48.2971895" lon="-2.0220978">
        <ele>57.560</ele>
        <time>2018-08-22T10:20:57.180Z</time>
      </trkpt>
      <trkpt lat="48.2971198" lon="-2.0221882">
        <ele>57.774</ele>
        <time>2018-08-22T10:21:00.419Z</time>
      </trkpt>
      <trkpt lat="48.2970418" lon="-2.0223034">
        <ele>58.080</ele>
        <time>2018-08-22T10:21:04.274Z</time>
      </trkpt>
      <trkpt lat="48.2969497" lon="-2.0224002">
        <ele>58.436</ele>
        <time>2018-08-22T10:21:08.237Z</time>
      </trkpt>
      <trkpt lat="48.2968695" lon="-2.0224926">
        <ele>58.754</ele>
        <time>2018-08-22T10:21:11.411Z</time>
      </trkpt>
      <trkpt lat="48.2967963" lon="-2.0226008">
        <ele>58.938</ele>
        <time>2018-08-22T10:21:14.347Z</time>
      </trkpt>
      <trkpt lat="48.2967100" lon="-2.0227143">
        <ele>59.135</ele>
        <time>2018-08-22T10:21:17.540Z</time>
      </trkpt>
      <trkpt lat="48.2966324" lon="-2.0228187">
        <ele>59.697</ele>
        <time>2018-08-22T10:21:20.402Z</time>
      </trkpt>
      <trkpt lat="48.2965710" lon="-2.0229287">
        <ele>60.625</ele>
        <time>2018-08-22T10:21:22.999Z</time>
      </trkpt>
      <trkpt lat="48.2965710" lon="-2.0229287">
        <ele>61.467</ele>
        <time>2018-08-22T10:21:23.999Z</time>
      </trkpt>
      <trkpt lat="48.2965710" lon="-2.0229287">
        <ele>61.838</ele>
        <time>2018-08-22T10:21:24.099Z</time>
      </trkpt>
      <trkpt lat="48.2964487" lon="-2.0231292">
        <ele>61.768</ele>
        <time>2018-08-22T10:21:31.659Z</time>
      </trkpt>
      <trkpt lat="48.2963752" lon="-2.0232296">
        <ele>61.893</ele>
        <time>2018-08-22T10:21:34.366Z</time>
      </trkpt>
      <trkpt lat="48.2963027" lon="-2.0233395">
        <ele>62.765</ele>
        <time>2018-08-22T10:21:37.130Z</time>
      </trkpt>
      <trkpt lat="48.2962310" lon="-2.0234302">
        <ele>64.019</ele>
        <time>2018-08-22T10:21:39.609Z</time>
      </trkpt>
      <trkpt lat="48.2961532" lon="-2.0235431">
        <ele>64.986</ele>
        <time>2018-08-22T10:21:42.404Z</time>
      </trkpt>
      <trkpt lat="48.2960715" lon="-2.0236290">
        <ele>65.479</ele>
        <time>2018-08-22T10:21:44.933Z</time>
      </trkpt>
      <trkpt lat="48.2959964" lon="-2.0237290">
        <ele>65.632</ele>
        <time>2018-08-22T10:21:47.463Z</time>
      </trkpt>
      <trkpt lat="48.2959218" lon="-2.0238317">
        <ele>65.687</ele>
        <time>2018-08-22T10:21:49.999Z</time>
      </trkpt>
      <trkpt lat="48.2959218" lon="-2.0238317">
        <ele>65.740</ele>
        <time>2018-08-22T10:21:51.999Z</time>
      </trkpt>
      <trkpt lat="48.2959218" lon="-2.0238317">
        <ele>65.737</ele>
        <time>2018-08-22T10:21:52.099Z</time>
      </trkpt>
      <trkpt lat="48.2957744" lon="-2.0240145">
        <ele>65.692</ele>
        <time>2018-08-22T10:22:01.313Z</time>
      </trkpt>
      <trkpt lat="48.2956877" lon="-2.0241262">
        <ele>65.897</ele>
        <time>2018-08-22T10:22:05.093Z</time>
      </trkpt>
      <trkpt lat="48.2956007" lon="-2.0241932">
        <ele>66.493</ele>
        <time>2018-08-22T10:22:08.169Z</time>
      </trkpt>
      <trkpt lat="48.2955204" lon="-2.0242627">
        <ele>67.052</ele>
        <time>2018-08-22T10:22:11.008Z</time>
      </trkpt>
      <trkpt lat="48.2954405" lon="-2.0243255">
        <ele>67.114</ele>
        <time>2018-08-22T10:22:13.694Z</time>
      </trkpt>
      <trkpt lat="48.2953529" lon="-2.0244012">
        <ele>66.730</ele>
        <time>2018-08-22T10:22:16.590Z</time>
      </trkpt>
      <trkpt lat="48.2952564" lon="-2.0244829">
        <ele>66.153</ele>
        <time>2018-08-22T10:22:19.720Z</time>
      </trkpt>
      <trkpt lat="48.2951671" lon="-2.0245467">
        <ele>65.608</ele>
        <time>2018-08-22T10:22:22.578Z</time>
      </trkpt>
      <trkpt lat="48.2950590" lon="-2.0246270">
        <ele>65.228</ele>
        <time>2018-08-22T10:22:26.235Z</time>
      </trkpt>
      <trkpt lat="48.2949742" lon="-2.0246780">
        <ele>65.281</ele>
        <time>2018-08-22T10:22:29.087Z</time>
      </trkpt>
      <trkpt lat="48.2948626" lon="-2.0247446">
        <ele>65.988</ele>
        <time>2018-08-22T10:22:32.827Z</time>
      </trkpt>
      <trkpt lat="48.2947703" lon="-2.0247856">
        <ele>67.003</ele>
        <time>2018-08-22T10:22:35.747Z</time>
      </trkpt>
      <trkpt lat="48.2946743" lon="-2.0247951">
        <ele>67.873</ele>
        <time>2018-08-22T10:22:38.662Z</time>
      </trkpt>
      <trkpt lat="48.2945648" lon="-2.0248105">
        <ele>68.567</ele>
        <time>2018-08-22T10:22:42.143Z</time>
      </trkpt>
      <trkpt lat="48.2944746" lon="-2.0248248">
        <ele>69.101</ele>
        <time>2018-08-22T10:22:45.266Z</time>
      </trkpt>
      <trkpt lat="48.2943754" lon="-2.0248395">
        <ele>69.395</ele>
        <time>2018-08-22T10:22:48.997Z</time>
      </trkpt>
      <trkpt lat="48.2943754" lon="-2.0248395">
        <ele>69.468</ele>
        <time>2018-08-22T10:22:48.997Z</time>
      </trkpt>
      <trkpt lat="48.2943754" lon="-2.0248395">
        <ele>69.419</ele>
        <time>2018-08-22T10:22:49.763Z</time>
      </trkpt>
      <trkpt lat="48.2945284" lon="-2.0248152">
        <ele>69.349</ele>
        <time>2018-08-22T10:22:59.612Z</time>
      </trkpt>
      <trkpt lat="48.2946378" lon="-2.0247923">
        <ele>69.250</ele>
        <time>2018-08-22T10:23:02.734Z</time>
      </trkpt>
      <trkpt lat="48.2947484" lon="-2.0247544">
        <ele>68.984</ele>
        <time>2018-08-22T10:23:05.612Z</time>
      </trkpt>
      <trkpt lat="48.2948657" lon="-2.0247181">
        <ele>68.572</ele>
        <time>2018-08-22T10:23:08.517Z</time>
      </trkpt>
      <trkpt lat="48.2949844" lon="-2.0246900">
        <ele>68.268</ele>
        <time>2018-08-22T10:23:11.369Z</time>
      </trkpt>
      <trkpt lat="48.2951060" lon="-2.0246329">
        <ele>68.207</ele>
        <time>2018-08-22T10:23:14.335Z</time>
      </trkpt>
      <trkpt lat="48.2952310" lon="-2.0245652">
        <ele>68.257</ele>
        <time>2018-08-22T10:23:17.356Z</time>
      </trkpt>
      <trkpt lat="48.2953555" lon="-2.0244786">
        <ele>68.197</ele>
        <time>2018-08-22T10:23:20.425Z</time>
      </trkpt>
      <trkpt lat="48.2954694" lon="-2.0244063">
        <ele>67.921</ele>
        <time>2018-08-22T10:23:23.175Z</time>
      </trkpt>
      <trkpt lat="48.2955850" lon="-2.0242983">
        <ele>67.391</ele>
        <time>2018-08-22T10:23:26.202Z</time>
      </trkpt>
      <trkpt lat="48.2956844" lon="-2.0241863">
        <ele>66.608</ele>
        <time>2018-08-22T10:23:28.977Z</time>
      </trkpt>
      <trkpt lat="48.2957816" lon="-2.0240445">
        <ele>65.356</ele>
        <time>2018-08-22T10:23:32.056Z</time>
      </trkpt>
      <trkpt lat="48.2958730" lon="-2.0239663">
        <ele>65.247</ele>
        <time>2018-08-22T10:23:34.616Z</time>
      </trkpt>
      <trkpt lat="48.2959474" lon="-2.0238793">
        <ele>65.200</ele>
        <time>2018-08-22T10:23:36.996Z</time>
      </trkpt>
      <trkpt lat="48.2959474" lon="-2.0238793">
        <ele>65.005</ele>
        <time>2018-08-22T10:23:36.996Z</time>
      </trkpt>
      <trkpt lat="48.2959474" lon="-2.0238793">
        <ele>64.806</ele>
        <time>2018-08-22T10:23:52.905Z</time>
      </trkpt>
      <trkpt lat="48.2958187" lon="-2.0240129">
        <ele>64.779</ele>
        <time>2018-08-22T10:24:01.487Z</time>
      </trkpt>
      <trkpt lat="48.2957305" lon="-2.0240987">
        <ele>64.755</ele>
        <time>2018-08-22T10:24:04.648Z</time>
      </trkpt>
      <trkpt lat="48.2956433" lon="-2.0241830">
        <ele>64.549</ele>
        <time>2018-08-22T10:24:07.638Z</time>
      </trkpt>
      <trkpt lat="48.2955579" lon="-2.0242641">
        <ele>64.275</ele>
        <time>2018-08-22T10:24:10.765Z</time>
      </trkpt>
      <trkpt lat="48.2954766" lon="-2.0243306">
        <ele>64.111</ele>
        <time>2018-08-22T10:24:14.246Z</time>
      </trkpt>
      <trkpt lat="48.2953993" lon="-2.0244029">
        <ele>64.196</ele>
        <time>2018-08-22T10:24:18.129Z</time>
      </trkpt>
      <trkpt lat="48.2952984" lon="-2.0244676">
        <ele>64.677</ele>
        <time>2018-08-22T10:24:22.911Z</time>
      </trkpt>
      <trkpt lat="48.2952079" lon="-2.0245263">
        <ele>65.391</ele>
        <time>2018-08-22T10:24:27.147Z</time>
      </trkpt>
      <trkpt lat="48.2951077" lon="-2.0245962">
        <ele>65.961</ele>
        <time>2018-08-22T10:24:31.923Z</time>
      </trkpt>
      <trkpt lat="48.2950187" lon="-2.0246486">
        <ele>66.429</ele>
        <time>2018-08-22T10:24:36.180Z</time>
      </trkpt>
      <trkpt lat="48.2949154" lon="-2.0246807">
        <ele>66.980</ele>
        <time>2018-08-22T10:24:40.975Z</time>
      </trkpt>
      <trkpt lat="48.2948123" lon="-2.0247102">
        <ele>67.448</ele>
        <time>2018-08-22T10:24:45.671Z</time>
      </trkpt>
      <trkpt lat="48.2947033" lon="-2.0247440">
        <ele>67.679</ele>
        <time>2018-08-22T10:24:50.211Z</time>
      </trkpt>
      <trkpt lat="48.2946030" lon="-2.0247873">
        <ele>67.781</ele>
        <time>2018-08-22T10:24:54.262Z</time>
      </trkpt>
      <trkpt lat="48.2945009" lon="-2.0248227">
        <ele>67.825</ele>
        <time>2018-08-22T10:24:58.400Z</time>
      </trkpt>
      <trkpt lat="48.2944003" lon="-2.0248253">
        <ele>67.817</ele>
        <time>2018-08-22T10:25:02.385Z</time>
      </trkpt>
      <trkpt lat="48.2942858" lon="-2.0248373">
        <ele>67.786</ele>
        <time>2018-08-22T10:25:06.557Z</time>
      </trkpt>
      <trkpt lat="48.2941939" lon="-2.0248427">
        <ele>67.940</ele>
        <time>2018-08-22T10:25:09.576Z</time>
      </trkpt>
      <trkpt lat="48.2940778" lon="-2.0248298">
        <ele>68.380</ele>
        <time>2018-08-22T10:25:13.404Z</time>
      </trkpt>
      <trkpt lat="48.2939777" lon="-2.0247965">
        <ele>68.878</ele>
        <time>2018-08-22T10:25:16.900Z</time>
      </trkpt>
      <trkpt lat="48.2938784" lon="-2.0247634">
        <ele>69.348</ele>
        <time>2018-08-22T10:25:20.397Z</time>
      </trkpt>
      <trkpt lat="48.2937729" lon="-2.0247361">
        <ele>70.026</ele>
        <time>2018-08-22T10:25:24.003Z</time>
      </trkpt>
      <trkpt lat="48.2936642" lon="-2.0247139">
        <ele>70.862</ele>
        <time>2018-08-22T10:25:27.676Z</time>
      </trkpt>
      <trkpt lat="48.2935507" lon="-2.0246669">
        <ele>71.497</ele>
        <time>2018-08-22T10:25:31.577Z</time>
      </trkpt>
      <trkpt lat="48.2934576" lon="-2.0246531">
        <ele>71.783</ele>
        <time>2018-08-22T10:25:34.618Z</time>
      </trkpt>
      <trkpt lat="48.2933603" lon="-2.0246179">
        <ele>71.894</ele>
        <time>2018-08-22T10:25:37.786Z</time>
      </trkpt>
      <trkpt lat="48.2932692" lon="-2.0245699">
        <ele>72.104</ele>
        <time>2018-08-22T10:25:40.737Z</time>
      </trkpt>
      <trkpt lat="48.2931784" lon="-2.0245213">
        <ele>72.518</ele>
        <time>2018-08-22T10:25:43.664Z</time>
      </trkpt>
      <trkpt lat="48.2930853" lon="-2.0244609">
        <ele>72.943</ele>
        <time>2018-08-22T10:25:46.708Z</time>
      </trkpt>
      <trkpt lat="48.2929969" lon="-2.0243965">
        <ele>73.171</ele>
        <time>2018-08-22T10:25:49.627Z</time>
      </trkpt>
      <trkpt lat="48.2929049" lon="-2.0243244">
        <ele>73.388</ele>
        <time>2018-08-22T10:25:52.690Z</time>
      </trkpt>
      <trkpt lat="48.2927979" lon="-2.0242565">
        <ele>73.883</ele>
        <time>2018-08-22T10:25:55.993Z</time>
      </trkpt>
      <trkpt lat="48.2927979" lon="-2.0242565">
        <ele>74.526</ele>
        <time>2018-08-22T10:25:55.993Z</time>
      </trkpt>
      <trkpt lat="48.2927979" lon="-2.0242565">
        <ele>74.880</ele>
        <time>2018-08-22T10:25:56.093Z</time>
      </trkpt>
      <trkpt lat="48.2926827" lon="-2.0241494">
        <ele>74.821</ele>
        <time>2018-08-22T10:26:01.810Z</time>
      </trkpt>
      <trkpt lat="48.2925870" lon="-2.0240836">
        <ele>74.598</ele>
        <time>2018-08-22T10:26:04.668Z</time>
      </trkpt>
      <trkpt lat="48.2924881" lon="-2.0240155">
        <ele>74.383</ele>
        <time>2018-08-22T10:26:07.591Z</time>
      </trkpt>
      <trkpt lat="48.2923869" lon="-2.0239581">
        <ele>74.119</ele>
        <time>2018-08-22T10:26:10.520Z</time>
      </trkpt>
      <trkpt lat="48.2922770" lon="-2.0238860">
        <ele>73.649</ele>
        <time>2018-08-22T10:26:13.855Z</time>
      </trkpt>
      <trkpt lat="48.2921835" lon="-2.0237884">
        <ele>72.909</ele>
        <time>2018-08-22T10:26:17.176Z</time>
      </trkpt>
      <trkpt lat="48.2921014" lon="-2.0237229">
        <ele>72.108</ele>
        <time>2018-08-22T10:26:19.992Z</time>
      </trkpt>
      <trkpt lat="48.2921014" lon="-2.0237229">
        <ele>71.552</ele>
        <time>2018-08-22T10:26:20.992Z</time>
      </trkpt>
      <trkpt lat="48.2921014" lon="-2.0237229">
        <ele>71.329</ele>
        <time>2018-08-22T10:26:21.092Z</time>
      </trkpt>
      <trkpt lat="48.2919506" lon="-2.0236344">
        <ele>71.333</ele>
        <time>2018-08-22T10:26:27.335Z</time>
      </trkpt>
      <trkpt lat="48.2918517" lon="-2.0235767">
        <ele>71.328</ele>
        <time>2018-08-22T10:26:30.014Z</time>
      </trkpt>
      <trkpt lat="48.2917604" lon="-2.0235321">
        <ele>71.170</ele>
        <time>2018-08-22T10:26:32.427Z</time>
      </trkpt>
      <trkpt lat="48.2916653" lon="-2.0234932">
        <ele>70.962</ele>
        <time>2018-08-22T10:26:34.900Z</time>
      </trkpt>
      <trkpt lat="48.2915617" lon="-2.0234648">
        <ele>70.872</ele>
        <time>2018-08-22T10:26:37.504Z</time>
      </trkpt>
      <trkpt lat="48.2914615" lon="-2.0234325">
        <ele>70.942</ele>
        <time>2018-08-22T10:26:39.992Z</time>
      </trkpt>
      <trkpt lat="48.2914615" lon="-2.0234325">
        <ele>71.096</ele>
        <time>2018-08-22T10:26:39.992Z</time>
      </trkpt>
      <trkpt lat="48.2914615" lon="-2.0234325">
        <ele>71.185</ele>
        <time>2018-08-22T10:26:40.092Z</time>
      </trkpt>
      <trkpt lat="48.2913287" lon="-2.0233791">
        <ele>71.151</ele>
        <time>2018-08-22T10:26:46.007Z</time>
      </trkpt>
      <trkpt lat="48.2912259" lon="-2.0233423">
        <ele>71.085</ele>
        <time>2018-08-22T10:26:49.001Z</time>
      </trkpt>
      <trkpt lat="48.2911254" lon="-2.0233045">
        <ele>71.099</ele>
        <time>2018-08-22T10:26:51.932Z</time>
      </trkpt>
      <trkpt lat="48.2910281" lon="-2.0232687">
        <ele>71.509</ele>
        <time>2018-08-22T10:26:54.792Z</time>
      </trkpt>
      <trkpt lat="48.2909317" lon="-2.0232349">
        <ele>72.488</ele>
        <time>2018-08-22T10:26:57.651Z</time>
      </trkpt>
      <trkpt lat="48.2908351" lon="-2.0231937">
        <ele>73.529</ele>
        <time>2018-08-22T10:27:00.570Z</time>
      </trkpt>
      <trkpt lat="48.2907370" lon="-2.0231593">
        <ele>74.089</ele>
        <time>2018-08-22T10:27:03.491Z</time>
      </trkpt>
      <trkpt lat="48.2906347" lon="-2.0231288">
        <ele>74.199</ele>
        <time>2018-08-22T10:27:06.483Z</time>
      </trkpt>
      <trkpt lat="48.2905375" lon="-2.0230898">
        <ele>74.089</ele>
        <time>2018-08-22T10:27:09.355Z</time>
      </trkpt>
      <trkpt lat="48.2904380" lon="-2.0230560">
        <ele>73.963</ele>
        <time>2018-08-22T10:27:12.262Z</time>
      </trkpt>
      <trkpt lat="48.2903386" lon="-2.0230232">
        <ele>73.931</ele>
        <time>2018-08-22T10:27:15.146Z</time>
      </trkpt>
      <trkpt lat="48.2902363" lon="-2.0229911">
        <ele>74.082</ele>
        <time>2018-08-22T10:27:18.063Z</time>
      </trkpt>
      <trkpt lat="48.2901294" lon="-2.0229597">
        <ele>74.557</ele>
        <time>2018-08-22T10:27:21.041Z</time>
      </trkpt>
      <trkpt lat="48.2900235" lon="-2.0229320">
        <ele>75.352</ele>
        <time>2018-08-22T10:27:23.945Z</time>
      </trkpt>
      <trkpt lat="48.2899221" lon="-2.0229093">
        <ele>76.201</ele>
        <time>2018-08-22T10:27:26.731Z</time>
      </trkpt>
      <trkpt lat="48.2898240" lon="-2.0228816">
        <ele>76.831</ele>
        <time>2018-08-22T10:27:29.485Z</time>
      </trkpt>
      <trkpt lat="48.2897229" lon="-2.0228531">
        <ele>77.175</ele>
        <time>2018-08-22T10:27:32.348Z</time>
      </trkpt>
      <trkpt lat="48.2896310" lon="-2.0228122">
        <ele>77.340</ele>
        <time>2018-08-22T10:27:35.043Z</time>
      </trkpt>
      <trkpt lat="48.2895237" lon="-2.0227852">
        <ele>77.442</ele>
        <time>2018-08-22T10:27:38.109Z</time>
      </trkpt>
      <trkpt lat="48.2894214" lon="-2.0227636">
        <ele>77.512</ele>
        <time>2018-08-22T10:27:40.991Z</time>
      </trkpt>
      <trkpt lat="48.2894214" lon="-2.0227636">
        <ele>77.534</ele>
        <time>2018-08-22T10:27:42.991Z</time>
      </trkpt>
      <trkpt lat="48.2894214" lon="-2.0227636">
        <ele>77.520</ele>
        <time>2018-08-22T10:27:43.091Z</time>
      </trkpt>
      <trkpt lat="48.2892179" lon="-2.0227237">
        <ele>77.483</ele>
        <time>2018-08-22T10:27:50.801Z</time>
      </trkpt>
      <trkpt lat="48.2891166" lon="-2.0226898">
        <ele>77.462</ele>
        <time>2018-08-22T10:27:53.784Z</time>
      </trkpt>
      <trkpt lat="48.2890169" lon="-2.0226775">
        <ele>77.474</ele>
        <time>2018-08-22T10:27:56.690Z</time>
      </trkpt>
      <trkpt lat="48.2889240" lon="-2.0226625">
        <ele>77.499</ele>
        <time>2018-08-22T10:27:59.397Z</time>
      </trkpt>
      <trkpt lat="48.2888222" lon="-2.0226618">
        <ele>77.585</ele>
        <time>2018-08-22T10:28:02.286Z</time>
      </trkpt>
      <trkpt lat="48.2887107" lon="-2.0226634">
        <ele>77.781</ele>
        <time>2018-08-22T10:28:05.371Z</time>
      </trkpt>
      <trkpt lat="48.2885980" lon="-2.0226728">
        <ele>77.988</ele>
        <time>2018-08-22T10:28:08.437Z</time>
      </trkpt>
      <trkpt lat="48.2884906" lon="-2.0226968">
        <ele>78.178</ele>
        <time>2018-08-22T10:28:11.394Z</time>
      </trkpt>
      <trkpt lat="48.2883899" lon="-2.0227128">
        <ele>78.492</ele>
        <time>2018-08-22T10:28:14.187Z</time>
      </trkpt>
      <trkpt lat="48.2882895" lon="-2.0227255">
        <ele>78.921</ele>
        <time>2018-08-22T10:28:17.041Z</time>
      </trkpt>
      <trkpt lat="48.2881899" lon="-2.0227409">
        <ele>79.336</ele>
        <time>2018-08-22T10:28:19.937Z</time>
      </trkpt>
      <trkpt lat="48.2880886" lon="-2.0227593">
        <ele>79.660</ele>
        <time>2018-08-22T10:28:22.865Z</time>
      </trkpt>
      <trkpt lat="48.2879833" lon="-2.0227666">
        <ele>79.840</ele>
        <time>2018-08-22T10:28:25.834Z</time>
      </trkpt>
      <trkpt lat="48.2878787" lon="-2.0227720">
        <ele>79.762</ele>
        <time>2018-08-22T10:28:28.738Z</time>
      </trkpt>
      <trkpt lat="48.2877760" lon="-2.0227766">
        <ele>79.438</ele>
        <time>2018-08-22T10:28:31.721Z</time>
      </trkpt>
      <trkpt lat="48.2876744" lon="-2.0228038">
        <ele>79.209</ele>
        <time>2018-08-22T10:28:35.780Z</time>
      </trkpt>
      <trkpt lat="48.2877651" lon="-2.0227571">
        <ele>79.514</ele>
        <time>2018-08-22T10:28:40.256Z</time>
      </trkpt>
      <trkpt lat="48.2878806" lon="-2.0227602">
        <ele>80.254</ele>
        <time>2018-08-22T10:28:46.124Z</time>
      </trkpt>
      <trkpt lat="48.2880013" lon="-2.0227388">
        <ele>80.868</ele>
        <time>2018-08-22T10:28:49.946Z</time>
      </trkpt>
      <trkpt lat="48.2881259" lon="-2.0227294">
        <ele>80.996</ele>
        <time>2018-08-22T10:28:53.158Z</time>
      </trkpt>
      <trkpt lat="48.2882452" lon="-2.0227260">
        <ele>80.782</ele>
        <time>2018-08-22T10:28:56.049Z</time>
      </trkpt>
      <trkpt lat="48.2883558" lon="-2.0227126">
        <ele>80.532</ele>
        <time>2018-08-22T10:28:58.738Z</time>
      </trkpt>
      <trkpt lat="48.2884629" lon="-2.0227014">
        <ele>80.435</ele>
        <time>2018-08-22T10:29:01.409Z</time>
      </trkpt>
      <trkpt lat="48.2885656" lon="-2.0226924">
        <ele>80.529</ele>
        <time>2018-08-22T10:29:04.064Z</time>
      </trkpt>
      <trkpt lat="48.2886839" lon="-2.0226879">
        <ele>80.733</ele>
        <time>2018-08-22T10:29:07.151Z</time>
      </trkpt>
      <trkpt lat="48.2888011" lon="-2.0226832">
        <ele>80.874</ele>
        <time>2018-08-22T10:29:10.156Z</time>
      </trkpt>
      <trkpt lat="48.2889129" lon="-2.0226819">
        <ele>80.801</ele>
        <time>2018-08-22T10:29:12.988Z</time>
      </trkpt>
      <trkpt lat="48.2889129" lon="-2.0226819">
        <ele>80.547</ele>
        <time>2018-08-22T10:29:14.992Z</time>
      </trkpt>
      <trkpt lat="48.2889129" lon="-2.0226819">
        <ele>80.336</ele>
        <time>2018-08-22T10:29:15.092Z</time>
      </trkpt>
      <trkpt lat="48.2891223" lon="-2.0227020">
        <ele>80.308</ele>
        <time>2018-08-22T10:29:21.727Z</time>
      </trkpt>
      <trkpt lat="48.2892135" lon="-2.0227228">
        <ele>80.165</ele>
        <time>2018-08-22T10:29:23.854Z</time>
      </trkpt>
      <trkpt lat="48.2893114" lon="-2.0227471">
        <ele>79.606</ele>
        <time>2018-08-22T10:29:26.239Z</time>
      </trkpt>
      <trkpt lat="48.2894220" lon="-2.0227521">
        <ele>78.868</ele>
        <time>2018-08-22T10:29:28.997Z</time>
      </trkpt>
      <trkpt lat="48.2894220" lon="-2.0227521">
        <ele>78.363</ele>
        <time>2018-08-22T10:29:34.997Z</time>
      </trkpt>
      <trkpt lat="48.2894220" lon="-2.0227521">
        <ele>78.170</ele>
        <time>2018-08-22T10:29:37.015Z</time>
      </trkpt>
      <trkpt lat="48.2892660" lon="-2.0227440">
        <ele>78.170</ele>
        <time>2018-08-22T10:29:45.691Z</time>
      </trkpt>
      <trkpt lat="48.2891457" lon="-2.0227205">
        <ele>78.198</ele>
        <time>2018-08-22T10:29:49.616Z</time>
      </trkpt>
      <trkpt lat="48.2890472" lon="-2.0227057">
        <ele>78.171</ele>
        <time>2018-08-22T10:29:52.609Z</time>
      </trkpt>
      <trkpt lat="48.2889481" lon="-2.0227007">
        <ele>78.157</ele>
        <time>2018-08-22T10:29:55.900Z</time>
      </trkpt>
      <trkpt lat="48.2888474" lon="-2.0226904">
        <ele>78.252</ele>
        <time>2018-08-22T10:30:00.011Z</time>
      </trkpt>
      <trkpt lat="48.2887408" lon="-2.0226988">
        <ele>78.421</ele>
        <time>2018-08-22T10:30:04.923Z</time>
      </trkpt>
      <trkpt lat="48.2886356" lon="-2.0227146">
        <ele>78.834</ele>
        <time>2018-08-22T10:30:10.003Z</time>
      </trkpt>
      <trkpt lat="48.2885256" lon="-2.0227159">
        <ele>79.657</ele>
        <time>2018-08-22T10:30:14.981Z</time>
      </trkpt>
      <trkpt lat="48.2884297" lon="-2.0227209">
        <ele>80.565</ele>
        <time>2018-08-22T10:30:19.079Z</time>
      </trkpt>
      <trkpt lat="48.2883320" lon="-2.0227324">
        <ele>81.203</ele>
        <time>2018-08-22T10:30:23.132Z</time>
      </trkpt>
      <trkpt lat="48.2882342" lon="-2.0227333">
        <ele>81.589</ele>
        <time>2018-08-22T10:30:27.117Z</time>
      </trkpt>
      <trkpt lat="48.2881308" lon="-2.0227393">
        <ele>81.765</ele>
        <time>2018-08-22T10:30:31.250Z</time>
      </trkpt>
      <trkpt lat="48.2880267" lon="-2.0227466">
        <ele>81.776</ele>
        <time>2018-08-22T10:30:35.312Z</time>
      </trkpt>
      <trkpt lat="48.2879250" lon="-2.0227741">
        <ele>81.731</ele>
        <time>2018-08-22T10:30:39.240Z</time>
      </trkpt>
      <trkpt lat="48.2878166" lon="-2.0227960">
        <ele>81.703</ele>
        <time>2018-08-22T10:30:43.388Z</time>
      </trkpt>
      <trkpt lat="48.2877142" lon="-2.0228103">
        <ele>81.718</ele>
        <time>2018-08-22T10:30:47.339Z</time>
      </trkpt>
      <trkpt lat="48.2876087" lon="-2.0228047">
        <ele>81.773</ele>
        <time>2018-08-22T10:30:51.257Z</time>
      </trkpt>
      <trkpt lat="48.2874895" lon="-2.0228127">
        <ele>81.896</ele>
        <time>2018-08-22T10:30:55.360Z</time>
      </trkpt>
      <trkpt lat="48.2873966" lon="-2.0228147">
        <ele>82.095</ele>
        <time>2018-08-22T10:30:58.379Z</time>
      </trkpt>
      <trkpt lat="48.2872771" lon="-2.0228361">
        <ele>82.278</ele>
        <time>2018-08-22T10:31:02.199Z</time>
      </trkpt>
      <trkpt lat="48.2871819" lon="-2.0228526">
        <ele>82.404</ele>
        <time>2018-08-22T10:31:05.107Z</time>
      </trkpt>
      <trkpt lat="48.2870833" lon="-2.0228717">
        <ele>82.530</ele>
        <time>2018-08-22T10:31:08.018Z</time>
      </trkpt>
      <trkpt lat="48.2869812" lon="-2.0228780">
        <ele>82.468</ele>
        <time>2018-08-22T10:31:10.945Z</time>
      </trkpt>
      <trkpt lat="48.2868813" lon="-2.0228843">
        <ele>82.004</ele>
        <time>2018-08-22T10:31:13.764Z</time>
      </trkpt>
      <trkpt lat="48.2867757" lon="-2.0228987">
        <ele>81.331</ele>
        <time>2018-08-22T10:31:16.732Z</time>
      </trkpt>
      <trkpt lat="48.2866728" lon="-2.0229126">
        <ele>80.814</ele>
        <time>2018-08-22T10:31:19.636Z</time>
      </trkpt>
      <trkpt lat="48.2865663" lon="-2.0229178">
        <ele>80.752</ele>
        <time>2018-08-22T10:31:22.628Z</time>
      </trkpt>
      <trkpt lat="48.2864602" lon="-2.0229328">
        <ele>81.170</ele>
        <time>2018-08-22T10:31:25.590Z</time>
      </trkpt>
      <trkpt lat="48.2863523" lon="-2.0229655">
        <ele>81.663</ele>
        <time>2018-08-22T10:31:28.587Z</time>
      </trkpt>
      <trkpt lat="48.2862315" lon="-2.0229951">
        <ele>81.801</ele>
        <time>2018-08-22T10:31:31.837Z</time>
      </trkpt>
      <trkpt lat="48.2861129" lon="-2.0230266">
        <ele>81.572</ele>
        <time>2018-08-22T10:31:35.101Z</time>
      </trkpt>
      <trkpt lat="48.2860121" lon="-2.0230612">
        <ele>81.402</ele>
        <time>2018-08-22T10:31:39.006Z</time>
      </trkpt>
      <trkpt lat="48.2859215" lon="-2.0230815">
        <ele>81.720</ele>
        <time>2018-08-22T10:31:42.902Z</time>
      </trkpt>
      <trkpt lat="48.2858272" lon="-2.0231000">
        <ele>82.481</ele>
        <time>2018-08-22T10:31:48.365Z</time>
      </trkpt>
      <trkpt lat="48.2857187" lon="-2.0231722">
        <ele>83.278</ele>
        <time>2018-08-22T10:31:53.542Z</time>
      </trkpt>
      <trkpt lat="48.2856306" lon="-2.0232412">
        <ele>83.764</ele>
        <time>2018-08-22T10:31:56.932Z</time>
      </trkpt>
      <trkpt lat="48.2855498" lon="-2.0233046">
        <ele>84.030</ele>
        <time>2018-08-22T10:32:00.107Z</time>
      </trkpt>
      <trkpt lat="48.2854666" lon="-2.0233787">
        <ele>84.372</ele>
        <time>2018-08-22T10:32:03.996Z</time>
      </trkpt>
      <trkpt lat="48.2854666" lon="-2.0233787">
        <ele>84.763</ele>
        <time>2018-08-22T10:32:07.996Z</time>
      </trkpt>
      <trkpt lat="48.2854666" lon="-2.0233787">
        <ele>84.958</ele>
        <time>2018-08-22T10:32:08.096Z</time>
      </trkpt>
      <trkpt lat="48.2856184" lon="-2.0232406">
        <ele>84.905</ele>
        <time>2018-08-22T10:32:16.277Z</time>
      </trkpt>
      <trkpt lat="48.2857183" lon="-2.0231738">
        <ele>84.762</ele>
        <time>2018-08-22T10:32:19.200Z</time>
      </trkpt>
      <trkpt lat="48.2858099" lon="-2.0231073">
        <ele>84.625</ele>
        <time>2018-08-22T10:32:21.891Z</time>
      </trkpt>
      <trkpt lat="48.2858956" lon="-2.0230629">
        <ele>84.430</ele>
        <time>2018-08-22T10:32:24.856Z</time>
      </trkpt>
      <trkpt lat="48.2859878" lon="-2.0230274">
        <ele>84.092</ele>
        <time>2018-08-22T10:32:27.995Z</time>
      </trkpt>
      <trkpt lat="48.2859878" lon="-2.0230274">
        <ele>83.671</ele>
        <time>2018-08-22T10:32:37.995Z</time>
      </trkpt>
      <trkpt lat="48.2859878" lon="-2.0230274">
        <ele>83.394</ele>
        <time>2018-08-22T10:32:43.361Z</time>
      </trkpt>
      <trkpt lat="48.2858202" lon="-2.0231043">
        <ele>83.375</ele>
        <time>2018-08-22T10:32:55.124Z</time>
      </trkpt>
      <trkpt lat="48.2857200" lon="-2.0231698">
        <ele>83.430</ele>
        <time>2018-08-22T10:32:59.109Z</time>
      </trkpt>
      <trkpt lat="48.2856197" lon="-2.0232161">
        <ele>83.394</ele>
        <time>2018-08-22T10:33:02.878Z</time>
      </trkpt>
      <trkpt lat="48.2855330" lon="-2.0232926">
        <ele>83.378</ele>
        <time>2018-08-22T10:33:06.335Z</time>
      </trkpt>
      <trkpt lat="48.2854288" lon="-2.0233701">
        <ele>83.571</ele>
        <time>2018-08-22T10:33:10.110Z</time>
      </trkpt>
      <trkpt lat="48.2853333" lon="-2.0234579">
        <ele>83.916</ele>
        <time>2018-08-22T10:33:13.598Z</time>
      </trkpt>
      <trkpt lat="48.2852622" lon="-2.0235409">
        <ele>84.210</ele>
        <time>2018-08-22T10:33:16.358Z</time>
      </trkpt>
      <trkpt lat="48.2851920" lon="-2.0236258">
        <ele>84.352</ele>
        <time>2018-08-22T10:33:19.130Z</time>
      </trkpt>
      <trkpt lat="48.2850937" lon="-2.0237230">
        <ele>84.344</ele>
        <time>2018-08-22T10:33:22.808Z</time>
      </trkpt>
      <trkpt lat="48.2850252" lon="-2.0238305">
        <ele>84.245</ele>
        <time>2018-08-22T10:33:25.994Z</time>
      </trkpt>
      <trkpt lat="48.2850252" lon="-2.0238305">
        <ele>84.154</ele>
        <time>2018-08-22T10:33:38.994Z</time>
      </trkpt>
      <trkpt lat="48.2850252" lon="-2.0238305">
        <ele>84.121</ele>
        <time>2018-08-22T10:34:00.679Z</time>
      </trkpt>
      <trkpt lat="48.2848619" lon="-2.0240306">
        <ele>84.126</ele>
        <time>2018-08-22T10:34:12.129Z</time>
      </trkpt>
      <trkpt lat="48.2847742" lon="-2.0241383">
        <ele>84.283</ele>
        <time>2018-08-22T10:34:15.263Z</time>
      </trkpt>
      <trkpt lat="48.2846981" lon="-2.0242383">
        <ele>84.731</ele>
        <time>2018-08-22T10:34:17.772Z</time>
      </trkpt>
      <trkpt lat="48.2846273" lon="-2.0243293">
        <ele>85.287</ele>
        <time>2018-08-22T10:34:19.993Z</time>
      </trkpt>
      <trkpt lat="48.2846273" lon="-2.0243293">
        <ele>85.578</ele>
        <time>2018-08-22T10:34:20.993Z</time>
      </trkpt>
      <trkpt lat="48.2846273" lon="-2.0243293">
        <ele>85.518</ele>
        <time>2018-08-22T10:34:21.093Z</time>
      </trkpt>
      <trkpt lat="48.2844985" lon="-2.0245032">
        <ele>85.366</ele>
        <time>2018-08-22T10:34:27.931Z</time>
      </trkpt>
      <trkpt lat="48.2844157" lon="-2.0245938">
        <ele>85.343</ele>
        <time>2018-08-22T10:34:30.908Z</time>
      </trkpt>
      <trkpt lat="48.2843462" lon="-2.0246812">
        <ele>85.420</ele>
        <time>2018-08-22T10:34:33.628Z</time>
      </trkpt>
      <trkpt lat="48.2842766" lon="-2.0247676">
        <ele>85.480</ele>
        <time>2018-08-22T10:34:36.337Z</time>
      </trkpt>
      <trkpt lat="48.2842023" lon="-2.0248754">
        <ele>85.471</ele>
        <time>2018-08-22T10:34:39.447Z</time>
      </trkpt>
      <trkpt lat="48.2841295" lon="-2.0249693">
        <ele>85.423</ele>
        <time>2018-08-22T10:34:42.627Z</time>
      </trkpt>
      <trkpt lat="48.2840428" lon="-2.0250579">
        <ele>85.479</ele>
        <time>2018-08-22T10:34:46.504Z</time>
      </trkpt>
      <trkpt lat="48.2839702" lon="-2.0251430">
        <ele>85.767</ele>
        <time>2018-08-22T10:34:50.056Z</time>
      </trkpt>
      <trkpt lat="48.2838979" lon="-2.0252396">
        <ele>86.182</ele>
        <time>2018-08-22T10:34:53.805Z</time>
      </trkpt>
      <trkpt lat="48.2838221" lon="-2.0253473">
        <ele>86.479</ele>
        <time>2018-08-22T10:34:58.010Z</time>
      </trkpt>
      <trkpt lat="48.2837405" lon="-2.0254444">
        <ele>86.613</ele>
        <time>2018-08-22T10:35:02.560Z</time>
      </trkpt>
      <trkpt lat="48.2836783" lon="-2.0255419">
        <ele>86.736</ele>
        <time>2018-08-22T10:35:06.454Z</time>
      </trkpt>
      <trkpt lat="48.2836076" lon="-2.0256291">
        <ele>87.032</ele>
        <time>2018-08-22T10:35:10.353Z</time>
      </trkpt>
      <trkpt lat="48.2835232" lon="-2.0257227">
        <ele>87.581</ele>
        <time>2018-08-22T10:35:14.536Z</time>
      </trkpt>
      <trkpt lat="48.2834339" lon="-2.0258322">
        <ele>88.205</ele>
        <time>2018-08-22T10:35:18.742Z</time>
      </trkpt>
      <trkpt lat="48.2833406" lon="-2.0259472">
        <ele>88.628</ele>
        <time>2018-08-22T10:35:22.897Z</time>
      </trkpt>
      <trkpt lat="48.2832701" lon="-2.0260383">
        <ele>88.763</ele>
        <time>2018-08-22T10:35:25.978Z</time>
      </trkpt>
      <trkpt lat="48.2831896" lon="-2.0261419">
        <ele>88.718</ele>
        <time>2018-08-22T10:35:29.421Z</time>
      </trkpt>
      <trkpt lat="48.2831142" lon="-2.0262371">
        <ele>88.688</ele>
        <time>2018-08-22T10:35:32.556Z</time>
      </trkpt>
      <trkpt lat="48.2830367" lon="-2.0263191">
        <ele>88.783</ele>
        <time>2018-08-22T10:35:35.487Z</time>
      </trkpt>
      <trkpt lat="48.2829634" lon="-2.0264112">
        <ele>88.920</ele>
        <time>2018-08-22T10:35:38.331Z</time>
      </trkpt>
      <trkpt lat="48.2828889" lon="-2.0265013">
        <ele>89.046</ele>
        <time>2018-08-22T10:35:41.076Z</time>
      </trkpt>
      <trkpt lat="48.2828128" lon="-2.0266007">
        <ele>89.211</ele>
        <time>2018-08-22T10:35:43.946Z</time>
      </trkpt>
      <trkpt lat="48.2827363" lon="-2.0267067">
        <ele>89.414</ele>
        <time>2018-08-22T10:35:46.991Z</time>
      </trkpt>
      <trkpt lat="48.2827363" lon="-2.0267067">
        <ele>89.568</ele>
        <time>2018-08-22T10:35:56.990Z</time>
      </trkpt>
      <trkpt lat="48.2827363" lon="-2.0267067">
        <ele>89.594</ele>
        <time>2018-08-22T10:36:18.886Z</time>
      </trkpt>
      <trkpt lat="48.2826197" lon="-2.0268467">
        <ele>89.511</ele>
        <time>2018-08-22T10:36:30.555Z</time>
      </trkpt>
      <trkpt lat="48.2825333" lon="-2.0269302">
        <ele>89.265</ele>
        <time>2018-08-22T10:36:34.815Z</time>
      </trkpt>
      <trkpt lat="48.2824558" lon="-2.0270215">
        <ele>88.826</ele>
        <time>2018-08-22T10:36:38.721Z</time>
      </trkpt>
      <trkpt lat="48.2823622" lon="-2.0271162">
        <ele>88.604</ele>
        <time>2018-08-22T10:36:42.667Z</time>
      </trkpt>
      <trkpt lat="48.2822820" lon="-2.0272191">
        <ele>89.017</ele>
        <time>2018-08-22T10:36:45.883Z</time>
      </trkpt>
      <trkpt lat="48.2822011" lon="-2.0273128">
        <ele>89.809</ele>
        <time>2018-08-22T10:36:48.954Z</time>
      </trkpt>
      <trkpt lat="48.2821280" lon="-2.0274191">
        <ele>90.281</ele>
        <time>2018-08-22T10:36:51.994Z</time>
      </trkpt>
      <trkpt lat="48.2821280" lon="-2.0274191">
        <ele>90.159</ele>
        <time>2018-08-22T10:37:03.997Z</time>
      </trkpt>
      <trkpt lat="48.2821280" lon="-2.0274191">
        <ele>89.866</ele>
        <time>2018-08-22T10:37:04.097Z</time>
      </trkpt>
      <trkpt lat="48.2823028" lon="-2.0272413">
        <ele>89.830</ele>
        <time>2018-08-22T10:37:12.664Z</time>
      </trkpt>
      <trkpt lat="48.2823825" lon="-2.0271420">
        <ele>90.038</ele>
        <time>2018-08-22T10:37:15.454Z</time>
      </trkpt>
      <trkpt lat="48.2824615" lon="-2.0270504">
        <ele>90.388</ele>
        <time>2018-08-22T10:37:18.839Z</time>
      </trkpt>
      <trkpt lat="48.2825319" lon="-2.0269588">
        <ele>90.723</ele>
        <time>2018-08-22T10:37:21.998Z</time>
      </trkpt>
      <trkpt lat="48.2825319" lon="-2.0269588">
        <ele>90.854</ele>
        <time>2018-08-22T10:37:30.998Z</time>
      </trkpt>
      <trkpt lat="48.2825319" lon="-2.0269588">
        <ele>90.807</ele>
        <time>2018-08-22T10:37:38.328Z</time>
      </trkpt>
      <trkpt lat="48.2824011" lon="-2.0271388">
        <ele>90.742</ele>
        <time>2018-08-22T10:37:51.816Z</time>
      </trkpt>
      <trkpt lat="48.2823303" lon="-2.0272514">
        <ele>90.720</ele>
        <time>2018-08-22T10:37:56.291Z</time>
      </trkpt>
      <trkpt lat="48.2822515" lon="-2.0273400">
        <ele>90.603</ele>
        <time>2018-08-22T10:38:00.250Z</time>
      </trkpt>
      <trkpt lat="48.2821774" lon="-2.0274178">
        <ele>90.286</ele>
        <time>2018-08-22T10:38:03.891Z</time>
      </trkpt>
      <trkpt lat="48.2820895" lon="-2.0275128">
        <ele>89.973</ele>
        <time>2018-08-22T10:38:08.626Z</time>
      </trkpt>
      <trkpt lat="48.2819915" lon="-2.0276090">
        <ele>89.860</ele>
        <time>2018-08-22T10:38:13.337Z</time>
      </trkpt>
      <trkpt lat="48.2819085" lon="-2.0276706">
        <ele>89.698</ele>
        <time>2018-08-22T10:38:16.626Z</time>
      </trkpt>
      <trkpt lat="48.2818162" lon="-2.0277438">
        <ele>89.265</ele>
        <time>2018-08-22T10:38:20.165Z</time>
      </trkpt>
      <trkpt lat="48.2817183" lon="-2.0278176">
        <ele>88.801</ele>
        <time>2018-08-22T10:38:23.832Z</time>
      </trkpt>
      <trkpt lat="48.2816253" lon="-2.0278964">
        <ele>88.613</ele>
        <time>2018-08-22T10:38:27.411Z</time>
      </trkpt>
      <trkpt lat="48.2815267" lon="-2.0279750">
        <ele>88.714</ele>
        <time>2018-08-22T10:38:31.112Z</time>
      </trkpt>
      <trkpt lat="48.2814411" lon="-2.0280354">
        <ele>89.085</ele>
        <time>2018-08-22T10:38:34.114Z</time>
      </trkpt>
      <trkpt lat="48.2813524" lon="-2.0280886">
        <ele>89.692</ele>
        <time>2018-08-22T10:38:37.044Z</time>
      </trkpt>
      <trkpt lat="48.2812703" lon="-2.0281473">
        <ele>90.324</ele>
        <time>2018-08-22T10:38:39.786Z</time>
      </trkpt>
      <trkpt lat="48.2811791" lon="-2.0281860">
        <ele>90.931</ele>
        <time>2018-08-22T10:38:42.632Z</time>
      </trkpt>
      <trkpt lat="48.2810939" lon="-2.0282305">
        <ele>91.300</ele>
        <time>2018-08-22T10:38:45.331Z</time>
      </trkpt>
      <trkpt lat="48.2809976" lon="-2.0282566">
        <ele>92.076</ele>
        <time>2018-08-22T10:38:48.197Z</time>
      </trkpt>
      <trkpt lat="48.2808987" lon="-2.0282812">
        <ele>93.145</ele>
        <time>2018-08-22T10:38:51.040Z</time>
      </trkpt>
      <trkpt lat="48.2808004" lon="-2.0283267">
        <ele>94.037</ele>
        <time>2018-08-22T10:38:53.863Z</time>
      </trkpt>
      <trkpt lat="48.2806960" lon="-2.0283717">
        <ele>94.544</ele>
        <time>2018-08-22T10:38:56.759Z</time>
      </trkpt>
      <trkpt lat="48.2805908" lon="-2.0284175">
        <ele>94.906</ele>
        <time>2018-08-22T10:38:59.630Z</time>
      </trkpt>
      <trkpt lat="48.2804904" lon="-2.0284608">
        <ele>95.227</ele>
        <time>2018-08-22T10:39:02.342Z</time>
      </trkpt>
      <trkpt lat="48.2803803" lon="-2.0285017">
        <ele>95.415</ele>
        <time>2018-08-22T10:39:05.245Z</time>
      </trkpt>
      <trkpt lat="48.2802738" lon="-2.0285272">
        <ele>95.445</ele>
        <time>2018-08-22T10:39:07.970Z</time>
      </trkpt>
      <trkpt lat="48.2801683" lon="-2.0285621">
        <ele>95.377</ele>
        <time>2018-08-22T10:39:10.686Z</time>
      </trkpt>
      <trkpt lat="48.2800528" lon="-2.0285932">
        <ele>95.248</ele>
        <time>2018-08-22T10:39:13.599Z</time>
      </trkpt>
      <trkpt lat="48.2799364" lon="-2.0286379">
        <ele>95.040</ele>
        <time>2018-08-22T10:39:16.508Z</time>
      </trkpt>
      <trkpt lat="48.2798141" lon="-2.0286787">
        <ele>94.770</ele>
        <time>2018-08-22T10:39:19.472Z</time>
      </trkpt>
      <trkpt lat="48.2796949" lon="-2.0287164">
        <ele>94.393</ele>
        <time>2018-08-22T10:39:22.283Z</time>
      </trkpt>
      <trkpt lat="48.2795763" lon="-2.0287492">
        <ele>93.883</ele>
        <time>2018-08-22T10:39:24.996Z</time>
      </trkpt>
      <trkpt lat="48.2795763" lon="-2.0287492">
        <ele>93.421</ele>
        <time>2018-08-22T10:39:24.996Z</time>
      </trkpt>
      <trkpt lat="48.2795763" lon="-2.0287492">
        <ele>93.198</ele>
        <time>2018-08-22T10:39:25.096Z</time>
      </trkpt>
      <trkpt lat="48.2794357" lon="-2.0287985">
        <ele>93.247</ele>
        <time>2018-08-22T10:39:30.901Z</time>
      </trkpt>
      <trkpt lat="48.2793258" lon="-2.0288138">
        <ele>93.540</ele>
        <time>2018-08-22T10:39:33.780Z</time>
      </trkpt>
      <trkpt lat="48.2792222" lon="-2.0288480">
        <ele>94.023</ele>
        <time>2018-08-22T10:39:36.490Z</time>
      </trkpt>
      <trkpt lat="48.2791107" lon="-2.0288886">
        <ele>94.566</ele>
        <time>2018-08-22T10:39:39.284Z</time>
      </trkpt>
      <trkpt lat="48.2789865" lon="-2.0289361">
        <ele>94.965</ele>
        <time>2018-08-22T10:39:42.234Z</time>
      </trkpt>
      <trkpt lat="48.2788498" lon="-2.0289815">
        <ele>95.119</ele>
        <time>2018-08-22T10:39:45.348Z</time>
      </trkpt>
      <trkpt lat="48.2787179" lon="-2.0290189">
        <ele>95.086</ele>
        <time>2018-08-22T10:39:48.299Z</time>
      </trkpt>
      <trkpt lat="48.2785794" lon="-2.0290563">
        <ele>94.939</ele>
        <time>2018-08-22T10:39:51.405Z</time>
      </trkpt>
      <trkpt lat="48.2784583" lon="-2.0291025">
        <ele>94.728</ele>
        <time>2018-08-22T10:39:54.172Z</time>
      </trkpt>
      <trkpt lat="48.2783334" lon="-2.0291455">
        <ele>94.517</ele>
        <time>2018-08-22T10:39:57.030Z</time>
      </trkpt>
      <trkpt lat="48.2782103" lon="-2.0292028">
        <ele>94.400</ele>
        <time>2018-08-22T10:39:59.867Z</time>
      </trkpt>
      <trkpt lat="48.2780679" lon="-2.0292427">
        <ele>94.406</ele>
        <time>2018-08-22T10:40:02.906Z</time>
      </trkpt>
      <trkpt lat="48.2779160" lon="-2.0292646">
        <ele>94.378</ele>
        <time>2018-08-22T10:40:05.988Z</time>
      </trkpt>
      <trkpt lat="48.2777569" lon="-2.0293124">
        <ele>94.098</ele>
        <time>2018-08-22T10:40:09.083Z</time>
      </trkpt>
      <trkpt lat="48.2776022" lon="-2.0293767">
        <ele>93.628</ele>
        <time>2018-08-22T10:40:11.959Z</time>
      </trkpt>
      <trkpt lat="48.2774319" lon="-2.0294474">
        <ele>93.378</ele>
        <time>2018-08-22T10:40:15.016Z</time>
      </trkpt>
      <trkpt lat="48.2772771" lon="-2.0295024">
        <ele>93.560</ele>
        <time>2018-08-22T10:40:17.714Z</time>
      </trkpt>
      <trkpt lat="48.2770974" lon="-2.0295657">
        <ele>93.989</ele>
        <time>2018-08-22T10:40:20.848Z</time>
      </trkpt>
      <trkpt lat="48.2769362" lon="-2.0295744">
        <ele>94.442</ele>
        <time>2018-08-22T10:40:23.648Z</time>
      </trkpt>
      <trkpt lat="48.2767558" lon="-2.0296293">
        <ele>94.764</ele>
        <time>2018-08-22T10:40:26.862Z</time>
      </trkpt>
      <trkpt lat="48.2765871" lon="-2.0296871">
        <ele>94.680</ele>
        <time>2018-08-22T10:40:29.897Z</time>
      </trkpt>
      <trkpt lat="48.2764288" lon="-2.0297465">
        <ele>94.142</ele>
        <time>2018-08-22T10:40:32.982Z</time>
      </trkpt>
      <trkpt lat="48.2763269" lon="-2.0297939">
        <ele>93.345</ele>
        <time>2018-08-22T10:40:35.355Z</time>
      </trkpt>
      <trkpt lat="48.2762298" lon="-2.0298380">
        <ele>92.430</ele>
        <time>2018-08-22T10:40:38.264Z</time>
      </trkpt>
      <trkpt lat="48.2761311" lon="-2.0298609">
        <ele>91.555</ele>
        <time>2018-08-22T10:40:41.413Z</time>
      </trkpt>
      <trkpt lat="48.2760363" lon="-2.0298907">
        <ele>90.974</ele>
        <time>2018-08-22T10:40:44.528Z</time>
      </trkpt>
      <trkpt lat="48.2759460" lon="-2.0299310">
        <ele>90.601</ele>
        <time>2018-08-22T10:40:47.994Z</time>
      </trkpt>
      <trkpt lat="48.2759460" lon="-2.0299310">
        <ele>90.224</ele>
        <time>2018-08-22T10:40:52.994Z</time>
      </trkpt>
      <trkpt lat="48.2759460" lon="-2.0299310">
        <ele>89.946</ele>
        <time>2018-08-22T10:40:54.994Z</time>
      </trkpt>
      <trkpt lat="48.2759460" lon="-2.0299310">
        <ele>89.920</ele>
        <time>2018-08-22T10:40:55.601Z</time>
      </trkpt>
      <trkpt lat="48.2760754" lon="-2.0299160">
        <ele>89.981</ele>
        <time>2018-08-22T10:41:02.776Z</time>
      </trkpt>
      <trkpt lat="48.2761779" lon="-2.0298590">
        <ele>89.963</ele>
        <time>2018-08-22T10:41:06.361Z</time>
      </trkpt>
      <trkpt lat="48.2762759" lon="-2.0298094">
        <ele>89.907</ele>
        <time>2018-08-22T10:41:09.341Z</time>
      </trkpt>
      <trkpt lat="48.2763781" lon="-2.0297633">
        <ele>89.957</ele>
        <time>2018-08-22T10:41:12.197Z</time>
      </trkpt>
      <trkpt lat="48.2764908" lon="-2.0297322">
        <ele>90.292</ele>
        <time>2018-08-22T10:41:15.298Z</time>
      </trkpt>
      <trkpt lat="48.2765997" lon="-2.0296900">
        <ele>90.873</ele>
        <time>2018-08-22T10:41:18.394Z</time>
      </trkpt>
      <trkpt lat="48.2767002" lon="-2.0296461">
        <ele>91.389</ele>
        <time>2018-08-22T10:41:21.325Z</time>
      </trkpt>
      <trkpt lat="48.2767910" lon="-2.0295958">
        <ele>91.722</ele>
        <time>2018-08-22T10:41:24.196Z</time>
      </trkpt>
      <trkpt lat="48.2768898" lon="-2.0295488">
        <ele>92.022</ele>
        <time>2018-08-22T10:41:27.342Z</time>
      </trkpt>
      <trkpt lat="48.2769884" lon="-2.0295281">
        <ele>92.367</ele>
        <time>2018-08-22T10:41:30.168Z</time>
      </trkpt>
      <trkpt lat="48.2771053" lon="-2.0294821">
        <ele>92.784</ele>
        <time>2018-08-22T10:41:33.263Z</time>
      </trkpt>
      <trkpt lat="48.2772171" lon="-2.0294507">
        <ele>93.221</ele>
        <time>2018-08-22T10:41:35.986Z</time>
      </trkpt>
      <trkpt lat="48.2773192" lon="-2.0294253">
        <ele>93.521</ele>
        <time>2018-08-22T10:41:38.439Z</time>
      </trkpt>
      <trkpt lat="48.2774178" lon="-2.0293665">
        <ele>93.503</ele>
        <time>2018-08-22T10:41:40.993Z</time>
      </trkpt>
      <trkpt lat="48.2774178" lon="-2.0293665">
        <ele>93.187</ele>
        <time>2018-08-22T10:41:40.993Z</time>
      </trkpt>
      <trkpt lat="48.2774178" lon="-2.0293665">
        <ele>92.891</ele>
        <time>2018-08-22T10:41:41.093Z</time>
      </trkpt>
      <trkpt lat="48.2775690" lon="-2.0293122">
        <ele>92.855</ele>
        <time>2018-08-22T10:41:46.993Z</time>
      </trkpt>
      <trkpt lat="48.2775690" lon="-2.0293122">
        <ele>92.919</ele>
        <time>2018-08-22T10:41:56.993Z</time>
      </trkpt>
      <trkpt lat="48.2775690" lon="-2.0293122">
        <ele>92.892</ele>
        <time>2018-08-22T10:41:57.105Z</time>
      </trkpt>
      <trkpt lat="48.2774178" lon="-2.0294131">
        <ele>92.816</ele>
        <time>2018-08-22T10:42:05.175Z</time>
      </trkpt>
      <trkpt lat="48.2772990" lon="-2.0294426">
        <ele>92.984</ele>
        <time>2018-08-22T10:42:08.133Z</time>
      </trkpt>
      <trkpt lat="48.2771635" lon="-2.0294958">
        <ele>93.566</ele>
        <time>2018-08-22T10:42:11.066Z</time>
      </trkpt>
      <trkpt lat="48.2770270" lon="-2.0295595">
        <ele>94.200</ele>
        <time>2018-08-22T10:42:13.861Z</time>
      </trkpt>
      <trkpt lat="48.2768725" lon="-2.0295884">
        <ele>94.274</ele>
        <time>2018-08-22T10:42:16.812Z</time>
      </trkpt>
      <trkpt lat="48.2767382" lon="-2.0296538">
        <ele>93.718</ele>
        <time>2018-08-22T10:42:19.492Z</time>
      </trkpt>
      <trkpt lat="48.2765959" lon="-2.0297115">
        <ele>92.867</ele>
        <time>2018-08-22T10:42:22.343Z</time>
      </trkpt>
      <trkpt lat="48.2764582" lon="-2.0297425">
        <ele>92.028</ele>
        <time>2018-08-22T10:42:25.053Z</time>
      </trkpt>
      <trkpt lat="48.2763212" lon="-2.0297777">
        <ele>91.471</ele>
        <time>2018-08-22T10:42:27.749Z</time>
      </trkpt>
      <trkpt lat="48.2761981" lon="-2.0298257">
        <ele>91.313</ele>
        <time>2018-08-22T10:42:30.241Z</time>
      </trkpt>
      <trkpt lat="48.2760426" lon="-2.0298852">
        <ele>91.315</ele>
        <time>2018-08-22T10:42:33.344Z</time>
      </trkpt>
      <trkpt lat="48.2759022" lon="-2.0299804">
        <ele>91.086</ele>
        <time>2018-08-22T10:42:36.221Z</time>
      </trkpt>
      <trkpt lat="48.2757752" lon="-2.0300602">
        <ele>90.484</ele>
        <time>2018-08-22T10:42:38.821Z</time>
      </trkpt>
      <trkpt lat="48.2756406" lon="-2.0301137">
        <ele>89.781</ele>
        <time>2018-08-22T10:42:41.648Z</time>
      </trkpt>
      <trkpt lat="48.2755030" lon="-2.0301916">
        <ele>89.278</ele>
        <time>2018-08-22T10:42:44.746Z</time>
      </trkpt>
      <trkpt lat="48.2753974" lon="-2.0303342">
        <ele>89.045</ele>
        <time>2018-08-22T10:42:47.767Z</time>
      </trkpt>
      <trkpt lat="48.2752859" lon="-2.0304131">
        <ele>88.958</ele>
        <time>2018-08-22T10:42:50.450Z</time>
      </trkpt>
      <trkpt lat="48.2751611" lon="-2.0304937">
        <ele>88.860</ele>
        <time>2018-08-22T10:42:53.991Z</time>
      </trkpt>
      <trkpt lat="48.2751611" lon="-2.0304937">
        <ele>88.759</ele>
        <time>2018-08-22T10:42:57.991Z</time>
      </trkpt>
      <trkpt lat="48.2751611" lon="-2.0304937">
        <ele>88.702</ele>
        <time>2018-08-22T10:43:31.634Z</time>
      </trkpt>
      <trkpt lat="48.2750539" lon="-2.0303611">
        <ele>88.670</ele>
        <time>2018-08-22T10:43:39.402Z</time>
      </trkpt>
      <trkpt lat="48.2750806" lon="-2.0301897">
        <ele>88.169</ele>
        <time>2018-08-22T10:43:42.993Z</time>
      </trkpt>
      <trkpt lat="48.2750961" lon="-2.0300208">
        <ele>86.900</ele>
        <time>2018-08-22T10:43:46.236Z</time>
      </trkpt>
      <trkpt lat="48.2751115" lon="-2.0298566">
        <ele>85.636</ele>
        <time>2018-08-22T10:43:49.417Z</time>
      </trkpt>
      <trkpt lat="48.2751247" lon="-2.0296923">
        <ele>85.105</ele>
        <time>2018-08-22T10:43:52.986Z</time>
      </trkpt>
      <trkpt lat="48.2751469" lon="-2.0295331">
        <ele>85.104</ele>
        <time>2018-08-22T10:43:57.409Z</time>
      </trkpt>
      <trkpt lat="48.2751594" lon="-2.0293861">
        <ele>85.410</ele>
        <time>2018-08-22T10:44:01.810Z</time>
      </trkpt>
      <trkpt lat="48.2751763" lon="-2.0292458">
        <ele>85.916</ele>
        <time>2018-08-22T10:44:06.048Z</time>
      </trkpt>
      <trkpt lat="48.2751969" lon="-2.0291073">
        <ele>86.356</ele>
        <time>2018-08-22T10:44:10.121Z</time>
      </trkpt>
      <trkpt lat="48.2752039" lon="-2.0289621">
        <ele>86.606</ele>
        <time>2018-08-22T10:44:14.164Z</time>
      </trkpt>
      <trkpt lat="48.2752190" lon="-2.0288174">
        <ele>86.788</ele>
        <time>2018-08-22T10:44:17.909Z</time>
      </trkpt>
      <trkpt lat="48.2752325" lon="-2.0286813">
        <ele>86.923</ele>
        <time>2018-08-22T10:44:21.025Z</time>
      </trkpt>
      <trkpt lat="48.2752495" lon="-2.0285388">
        <ele>87.094</ele>
        <time>2018-08-22T10:44:24.084Z</time>
      </trkpt>
      <trkpt lat="48.2752589" lon="-2.0283846">
        <ele>87.508</ele>
        <time>2018-08-22T10:44:27.193Z</time>
      </trkpt>
      <trkpt lat="48.2752742" lon="-2.0282267">
        <ele>88.093</ele>
        <time>2018-08-22T10:44:30.257Z</time>
      </trkpt>
      <trkpt lat="48.2752884" lon="-2.0280576">
        <ele>88.623</ele>
        <time>2018-08-22T10:44:33.385Z</time>
      </trkpt>
      <trkpt lat="48.2752923" lon="-2.0278832">
        <ele>89.025</ele>
        <time>2018-08-22T10:44:36.504Z</time>
      </trkpt>
      <trkpt lat="48.2753021" lon="-2.0277043">
        <ele>89.181</ele>
        <time>2018-08-22T10:44:39.641Z</time>
      </trkpt>
      <trkpt lat="48.2753179" lon="-2.0275342">
        <ele>89.022</ele>
        <time>2018-08-22T10:44:42.596Z</time>
      </trkpt>
      <trkpt lat="48.2753336" lon="-2.0273648">
        <ele>88.710</ele>
        <time>2018-08-22T10:44:45.518Z</time>
      </trkpt>
      <trkpt lat="48.2753537" lon="-2.0271908">
        <ele>88.411</ele>
        <time>2018-08-22T10:44:48.489Z</time>
      </trkpt>
      <trkpt lat="48.2753788" lon="-2.0270044">
        <ele>88.215</ele>
        <time>2018-08-22T10:44:51.671Z</time>
      </trkpt>
      <trkpt lat="48.2753986" lon="-2.0268256">
        <ele>88.175</ele>
        <time>2018-08-22T10:44:54.726Z</time>
      </trkpt>
      <trkpt lat="48.2754174" lon="-2.0266477">
        <ele>88.254</ele>
        <time>2018-08-22T10:44:57.763Z</time>
      </trkpt>
      <trkpt lat="48.2754383" lon="-2.0264714">
        <ele>88.386</ele>
        <time>2018-08-22T10:45:00.768Z</time>
      </trkpt>
      <trkpt lat="48.2754577" lon="-2.0262964">
        <ele>88.577</ele>
        <time>2018-08-22T10:45:03.711Z</time>
      </trkpt>
      <trkpt lat="48.2754881" lon="-2.0261182">
        <ele>88.868</ele>
        <time>2018-08-22T10:45:06.744Z</time>
      </trkpt>
      <trkpt lat="48.2755292" lon="-2.0259469">
        <ele>89.252</ele>
        <time>2018-08-22T10:45:09.792Z</time>
      </trkpt>
      <trkpt lat="48.2755756" lon="-2.0257829">
        <ele>89.653</ele>
        <time>2018-08-22T10:45:12.832Z</time>
      </trkpt>
      <trkpt lat="48.2756245" lon="-2.0256332">
        <ele>89.965</ele>
        <time>2018-08-22T10:45:15.683Z</time>
      </trkpt>
      <trkpt lat="48.2756773" lon="-2.0254770">
        <ele>90.180</ele>
        <time>2018-08-22T10:45:18.737Z</time>
      </trkpt>
      <trkpt lat="48.2757250" lon="-2.0253245">
        <ele>90.388</ele>
        <time>2018-08-22T10:45:21.837Z</time>
      </trkpt>
      <trkpt lat="48.2757750" lon="-2.0251756">
        <ele>90.594</ele>
        <time>2018-08-22T10:45:24.960Z</time>
      </trkpt>
      <trkpt lat="48.2758125" lon="-2.0250316">
        <ele>90.736</ele>
        <time>2018-08-22T10:45:27.882Z</time>
      </trkpt>
      <trkpt lat="48.2758537" lon="-2.0248842">
        <ele>90.790</ele>
        <time>2018-08-22T10:45:31.182Z</time>
      </trkpt>
      <trkpt lat="48.2758906" lon="-2.0247497">
        <ele>90.802</ele>
        <time>2018-08-22T10:45:34.538Z</time>
      </trkpt>
      <trkpt lat="48.2758801" lon="-2.0245846">
        <ele>90.859</ele>
        <time>2018-08-22T10:45:39.000Z</time>
      </trkpt>
      <trkpt lat="48.2757726" lon="-2.0245334">
        <ele>91.027</ele>
        <time>2018-08-22T10:45:44.565Z</time>
      </trkpt>
      <trkpt lat="48.2756774" lon="-2.0245214">
        <ele>91.295</ele>
        <time>2018-08-22T10:45:49.833Z</time>
      </trkpt>
      <trkpt lat="48.2757773" lon="-2.0245281">
        <ele>91.586</ele>
        <time>2018-08-22T10:45:56.222Z</time>
      </trkpt>
      <trkpt lat="48.2758717" lon="-2.0245434">
        <ele>91.816</ele>
        <time>2018-08-22T10:46:02.050Z</time>
      </trkpt>
      <trkpt lat="48.2757586" lon="-2.0245526">
        <ele>92.063</ele>
        <time>2018-08-22T10:46:08.329Z</time>
      </trkpt>
      <trkpt lat="48.2756475" lon="-2.0244983">
        <ele>92.466</ele>
        <time>2018-08-22T10:46:13.935Z</time>
      </trkpt>
      <trkpt lat="48.2755530" lon="-2.0244795">
        <ele>92.936</ele>
        <time>2018-08-22T10:46:17.409Z</time>
      </trkpt>
      <trkpt lat="48.2754559" lon="-2.0244450">
        <ele>93.318</ele>
        <time>2018-08-22T10:46:20.710Z</time>
      </trkpt>
      <trkpt lat="48.2753541" lon="-2.0244228">
        <ele>93.942</ele>
        <time>2018-08-22T10:46:23.907Z</time>
      </trkpt>
      <trkpt lat="48.2752470" lon="-2.0244063">
        <ele>95.032</ele>
        <time>2018-08-22T10:46:27.059Z</time>
      </trkpt>
      <trkpt lat="48.2751409" lon="-2.0243777">
        <ele>96.068</ele>
        <time>2018-08-22T10:46:30.149Z</time>
      </trkpt>
      <trkpt lat="48.2750185" lon="-2.0243587">
        <ele>96.333</ele>
        <time>2018-08-22T10:46:33.598Z</time>
      </trkpt>
      <trkpt lat="48.2748990" lon="-2.0243413">
        <ele>95.819</ele>
        <time>2018-08-22T10:46:36.795Z</time>
      </trkpt>
      <trkpt lat="48.2747833" lon="-2.0243280">
        <ele>95.051</ele>
        <time>2018-08-22T10:46:39.815Z</time>
      </trkpt>
      <trkpt lat="48.2746704" lon="-2.0243195">
        <ele>94.402</ele>
        <time>2018-08-22T10:46:42.765Z</time>
      </trkpt>
      <trkpt lat="48.2745604" lon="-2.0243048">
        <ele>93.815</ele>
        <time>2018-08-22T10:46:45.675Z</time>
      </trkpt>
      <trkpt lat="48.2744450" lon="-2.0243020">
        <ele>93.229</ele>
        <time>2018-08-22T10:46:48.714Z</time>
      </trkpt>
      <trkpt lat="48.2743174" lon="-2.0242847">
        <ele>92.657</ele>
        <time>2018-08-22T10:46:51.948Z</time>
      </trkpt>
      <trkpt lat="48.2741883" lon="-2.0242272">
        <ele>92.185</ele>
        <time>2018-08-22T10:46:55.076Z</time>
      </trkpt>
      <trkpt lat="48.2740650" lon="-2.0241827">
        <ele>91.827</ele>
        <time>2018-08-22T10:46:57.935Z</time>
      </trkpt>
      <trkpt lat="48.2739336" lon="-2.0241055">
        <ele>91.413</ele>
        <time>2018-08-22T10:47:01.070Z</time>
      </trkpt>
      <trkpt lat="48.2738161" lon="-2.0240293">
        <ele>90.811</ele>
        <time>2018-08-22T10:47:03.857Z</time>
      </trkpt>
      <trkpt lat="48.2737002" lon="-2.0239114">
        <ele>90.159</ele>
        <time>2018-08-22T10:47:06.915Z</time>
      </trkpt>
      <trkpt lat="48.2735729" lon="-2.0237958">
        <ele>89.566</ele>
        <time>2018-08-22T10:47:10.127Z</time>
      </trkpt>
      <trkpt lat="48.2734476" lon="-2.0237028">
        <ele>88.954</ele>
        <time>2018-08-22T10:47:13.151Z</time>
      </trkpt>
      <trkpt lat="48.2733224" lon="-2.0235882">
        <ele>88.372</ele>
        <time>2018-08-22T10:47:16.297Z</time>
      </trkpt>
      <trkpt lat="48.2731867" lon="-2.0235193">
        <ele>87.785</ele>
        <time>2018-08-22T10:47:19.294Z</time>
      </trkpt>
      <trkpt lat="48.2730521" lon="-2.0234607">
        <ele>87.069</ele>
        <time>2018-08-22T10:47:22.255Z</time>
      </trkpt>
      <trkpt lat="48.2729159" lon="-2.0234486">
        <ele>86.474</ele>
        <time>2018-08-22T10:47:25.223Z</time>
      </trkpt>
      <trkpt lat="48.2727793" lon="-2.0234415">
        <ele>86.346</ele>
        <time>2018-08-22T10:47:28.234Z</time>
      </trkpt>
      <trkpt lat="48.2726467" lon="-2.0234327">
        <ele>86.632</ele>
        <time>2018-08-22T10:47:31.180Z</time>
      </trkpt>
      <trkpt lat="48.2725120" lon="-2.0234180">
        <ele>87.050</ele>
        <time>2018-08-22T10:47:34.192Z</time>
      </trkpt>
      <trkpt lat="48.2723796" lon="-2.0234107">
        <ele>87.342</ele>
        <time>2018-08-22T10:47:37.144Z</time>
      </trkpt>
      <trkpt lat="48.2722330" lon="-2.0234075">
        <ele>87.446</ele>
        <time>2018-08-22T10:47:40.295Z</time>
      </trkpt>
      <trkpt lat="48.2720790" lon="-2.0234049">
        <ele>87.381</ele>
        <time>2018-08-22T10:47:43.432Z</time>
      </trkpt>
      <trkpt lat="48.2719353" lon="-2.0234113">
        <ele>87.217</ele>
        <time>2018-08-22T10:47:46.328Z</time>
      </trkpt>
      <trkpt lat="48.2717929" lon="-2.0234051">
        <ele>87.127</ele>
        <time>2018-08-22T10:47:49.276Z</time>
      </trkpt>
      <trkpt lat="48.2716560" lon="-2.0234358">
        <ele>87.205</ele>
        <time>2018-08-22T10:47:52.238Z</time>
      </trkpt>
      <trkpt lat="48.2715347" lon="-2.0234638">
        <ele>87.344</ele>
        <time>2018-08-22T10:47:54.964Z</time>
      </trkpt>
      <trkpt lat="48.2714122" lon="-2.0235364">
        <ele>87.447</ele>
        <time>2018-08-22T10:47:58.069Z</time>
      </trkpt>
      <trkpt lat="48.2712976" lon="-2.0236146">
        <ele>87.556</ele>
        <time>2018-08-22T10:48:01.117Z</time>
      </trkpt>
      <trkpt lat="48.2711664" lon="-2.0236853">
        <ele>87.707</ele>
        <time>2018-08-22T10:48:04.419Z</time>
      </trkpt>
      <trkpt lat="48.2710518" lon="-2.0237675">
        <ele>87.854</ele>
        <time>2018-08-22T10:48:07.374Z</time>
      </trkpt>
      <trkpt lat="48.2709284" lon="-2.0238449">
        <ele>87.912</ele>
        <time>2018-08-22T10:48:10.441Z</time>
      </trkpt>
      <trkpt lat="48.2707956" lon="-2.0238918">
        <ele>87.855</ele>
        <time>2018-08-22T10:48:13.510Z</time>
      </trkpt>
      <trkpt lat="48.2706737" lon="-2.0239629">
        <ele>87.717</ele>
        <time>2018-08-22T10:48:16.433Z</time>
      </trkpt>
      <trkpt lat="48.2705508" lon="-2.0240431">
        <ele>87.589</ele>
        <time>2018-08-22T10:48:19.393Z</time>
      </trkpt>
      <trkpt lat="48.2704096" lon="-2.0241181">
        <ele>87.789</ele>
        <time>2018-08-22T10:48:22.624Z</time>
      </trkpt>
      <trkpt lat="48.2702820" lon="-2.0242027">
        <ele>88.428</ele>
        <time>2018-08-22T10:48:25.598Z</time>
      </trkpt>
      <trkpt lat="48.2701488" lon="-2.0242578">
        <ele>89.044</ele>
        <time>2018-08-22T10:48:28.533Z</time>
      </trkpt>
      <trkpt lat="48.2700285" lon="-2.0243246">
        <ele>89.267</ele>
        <time>2018-08-22T10:48:31.305Z</time>
      </trkpt>
      <trkpt lat="48.2698843" lon="-2.0243867">
        <ele>89.080</ele>
        <time>2018-08-22T10:48:34.600Z</time>
      </trkpt>
      <trkpt lat="48.2697503" lon="-2.0244340">
        <ele>88.602</ele>
        <time>2018-08-22T10:48:37.563Z</time>
      </trkpt>
      <trkpt lat="48.2696190" lon="-2.0244427">
        <ele>88.129</ele>
        <time>2018-08-22T10:48:40.356Z</time>
      </trkpt>
      <trkpt lat="48.2694683" lon="-2.0244535">
        <ele>87.736</ele>
        <time>2018-08-22T10:48:43.541Z</time>
      </trkpt>
      <trkpt lat="48.2693195" lon="-2.0244374">
        <ele>87.612</ele>
        <time>2018-08-22T10:48:46.673Z</time>
      </trkpt>
      <trkpt lat="48.2691764" lon="-2.0244071">
        <ele>87.534</ele>
        <time>2018-08-22T10:48:49.656Z</time>
      </trkpt>
      <trkpt lat="48.2690193" lon="-2.0243868">
        <ele>87.530</ele>
        <time>2018-08-22T10:48:52.819Z</time>
      </trkpt>
      <trkpt lat="48.2688619" lon="-2.0243632">
        <ele>87.481</ele>
        <time>2018-08-22T10:48:55.948Z</time>
      </trkpt>
      <trkpt lat="48.2687109" lon="-2.0243315">
        <ele>87.317</ele>
        <time>2018-08-22T10:48:58.971Z</time>
      </trkpt>
      <trkpt lat="48.2685663" lon="-2.0243087">
        <ele>87.166</ele>
        <time>2018-08-22T10:49:01.843Z</time>
      </trkpt>
      <trkpt lat="48.2684097" lon="-2.0242744">
        <ele>87.148</ele>
        <time>2018-08-22T10:49:04.948Z</time>
      </trkpt>
      <trkpt lat="48.2682599" lon="-2.0242561">
        <ele>87.025</ele>
        <time>2018-08-22T10:49:07.850Z</time>
      </trkpt>
      <trkpt lat="48.2680976" lon="-2.0241840">
        <ele>86.504</ele>
        <time>2018-08-22T10:49:10.885Z</time>
      </trkpt>
      <trkpt lat="48.2679025" lon="-2.0241506">
        <ele>85.522</ele>
        <time>2018-08-22T10:49:13.994Z</time>
      </trkpt>
      <trkpt lat="48.2676868" lon="-2.0240977">
        <ele>84.260</ele>
        <time>2018-08-22T10:49:17.087Z</time>
      </trkpt>
      <trkpt lat="48.2674579" lon="-2.0240300">
        <ele>83.064</ele>
        <time>2018-08-22T10:49:20.113Z</time>
      </trkpt>
      <trkpt lat="48.2672085" lon="-2.0239652">
        <ele>82.026</ele>
        <time>2018-08-22T10:49:23.203Z</time>
      </trkpt>
      <trkpt lat="48.2669575" lon="-2.0238786">
        <ele>80.935</ele>
        <time>2018-08-22T10:49:26.225Z</time>
      </trkpt>
      <trkpt lat="48.2667081" lon="-2.0237703">
        <ele>79.850</ele>
        <time>2018-08-22T10:49:29.162Z</time>
      </trkpt>
      <trkpt lat="48.2664433" lon="-2.0236513">
        <ele>79.045</ele>
        <time>2018-08-22T10:49:32.166Z</time>
      </trkpt>
      <trkpt lat="48.2662658" lon="-2.0235586">
        <ele>78.312</ele>
        <time>2018-08-22T10:49:34.132Z</time>
      </trkpt>
      <trkpt lat="48.2660783" lon="-2.0234769">
        <ele>77.149</ele>
        <time>2018-08-22T10:49:36.109Z</time>
      </trkpt>
      <trkpt lat="48.2658753" lon="-2.0234009">
        <ele>75.650</ele>
        <time>2018-08-22T10:49:38.146Z</time>
      </trkpt>
      <trkpt lat="48.2656676" lon="-2.0233027">
        <ele>74.191</ele>
        <time>2018-08-22T10:49:40.188Z</time>
      </trkpt>
      <trkpt lat="48.2654449" lon="-2.0232074">
        <ele>72.757</ele>
        <time>2018-08-22T10:49:42.318Z</time>
      </trkpt>
      <trkpt lat="48.2652319" lon="-2.0231370">
        <ele>71.400</ele>
        <time>2018-08-22T10:49:44.302Z</time>
      </trkpt>
      <trkpt lat="48.2650087" lon="-2.0230918">
        <ele>70.163</ele>
        <time>2018-08-22T10:49:46.348Z</time>
      </trkpt>
      <trkpt lat="48.2648005" lon="-2.0230681">
        <ele>68.813</ele>
        <time>2018-08-22T10:49:48.309Z</time>
      </trkpt>
      <trkpt lat="48.2645868" lon="-2.0230542">
        <ele>67.348</ele>
        <time>2018-08-22T10:49:50.485Z</time>
      </trkpt>
      <trkpt lat="48.2644213" lon="-2.0230660">
        <ele>66.183</ele>
        <time>2018-08-22T10:49:52.372Z</time>
      </trkpt>
      <trkpt lat="48.2642650" lon="-2.0230698">
        <ele>65.738</ele>
        <time>2018-08-22T10:49:54.348Z</time>
      </trkpt>
      <trkpt lat="48.2641292" lon="-2.0230801">
        <ele>66.230</ele>
        <time>2018-08-22T10:49:56.286Z</time>
      </trkpt>
      <trkpt lat="48.2640143" lon="-2.0231032">
        <ele>67.421</ele>
        <time>2018-08-22T10:49:58.178Z</time>
      </trkpt>
      <trkpt lat="48.2639129" lon="-2.0231594">
        <ele>68.676</ele>
        <time>2018-08-22T10:50:00.299Z</time>
      </trkpt>
      <trkpt lat="48.2638039" lon="-2.0232382">
        <ele>69.485</ele>
        <time>2018-08-22T10:50:03.198Z</time>
      </trkpt>
      <trkpt lat="48.2637357" lon="-2.0233283">
        <ele>69.785</ele>
        <time>2018-08-22T10:50:06.091Z</time>
      </trkpt>
      <trkpt lat="48.2636618" lon="-2.0234182">
        <ele>69.844</ele>
        <time>2018-08-22T10:50:09.891Z</time>
      </trkpt>
      <trkpt lat="48.2635963" lon="-2.0235424">
        <ele>70.079</ele>
        <time>2018-08-22T10:50:14.800Z</time>
      </trkpt>
      <trkpt lat="48.2635486" lon="-2.0236924">
        <ele>70.597</ele>
        <time>2018-08-22T10:50:20.288Z</time>
      </trkpt>
      <trkpt lat="48.2635150" lon="-2.0238186">
        <ele>70.989</ele>
        <time>2018-08-22T10:50:24.830Z</time>
      </trkpt>
      <trkpt lat="48.2634963" lon="-2.0239624">
        <ele>70.974</ele>
        <time>2018-08-22T10:50:29.688Z</time>
      </trkpt>
      <trkpt lat="48.2634747" lon="-2.0241144">
        <ele>70.877</ele>
        <time>2018-08-22T10:50:34.780Z</time>
      </trkpt>
      <trkpt lat="48.2634567" lon="-2.0242666">
        <ele>71.249</ele>
        <time>2018-08-22T10:50:39.826Z</time>
      </trkpt>
      <trkpt lat="48.2634322" lon="-2.0244084">
        <ele>72.152</ele>
        <time>2018-08-22T10:50:44.706Z</time>
      </trkpt>
      <trkpt lat="48.2634202" lon="-2.0245699">
        <ele>73.192</ele>
        <time>2018-08-22T10:50:50.314Z</time>
      </trkpt>
      <trkpt lat="48.2633863" lon="-2.0247090">
        <ele>74.148</ele>
        <time>2018-08-22T10:50:55.629Z</time>
      </trkpt>
      <trkpt lat="48.2633576" lon="-2.0248620">
        <ele>75.048</ele>
        <time>2018-08-22T10:51:01.550Z</time>
      </trkpt>
      <trkpt lat="48.2633595" lon="-2.0250090">
        <ele>75.937</ele>
        <time>2018-08-22T10:51:06.922Z</time>
      </trkpt>
      <trkpt lat="48.2633435" lon="-2.0251524">
        <ele>76.877</ele>
        <time>2018-08-22T10:51:12.127Z</time>
      </trkpt>
      <trkpt lat="48.2633370" lon="-2.0252905">
        <ele>77.809</ele>
        <time>2018-08-22T10:51:17.139Z</time>
      </trkpt>
      <trkpt lat="48.2633314" lon="-2.0254345">
        <ele>78.677</ele>
        <time>2018-08-22T10:51:22.336Z</time>
      </trkpt>
      <trkpt lat="48.2633223" lon="-2.0255732">
        <ele>79.486</ele>
        <time>2018-08-22T10:51:27.368Z</time>
      </trkpt>
      <trkpt lat="48.2633168" lon="-2.0257231">
        <ele>80.242</ele>
        <time>2018-08-22T10:51:32.812Z</time>
      </trkpt>
      <trkpt lat="48.2632913" lon="-2.0258570">
        <ele>81.031</ele>
        <time>2018-08-22T10:51:37.863Z</time>
      </trkpt>
      <trkpt lat="48.2633009" lon="-2.0259997">
        <ele>81.905</ele>
        <time>2018-08-22T10:51:42.987Z</time>
      </trkpt>
      <trkpt lat="48.2632907" lon="-2.0261497">
        <ele>82.739</ele>
        <time>2018-08-22T10:51:48.191Z</time>
      </trkpt>
      <trkpt lat="48.2632782" lon="-2.0263051">
        <ele>83.452</ele>
        <time>2018-08-22T10:51:53.406Z</time>
      </trkpt>
      <trkpt lat="48.2632808" lon="-2.0264575">
        <ele>84.116</ele>
        <time>2018-08-22T10:51:58.474Z</time>
      </trkpt>
      <trkpt lat="48.2632673" lon="-2.0266043">
        <ele>84.835</ele>
        <time>2018-08-22T10:52:03.551Z</time>
      </trkpt>
      <trkpt lat="48.2632701" lon="-2.0267484">
        <ele>85.656</ele>
        <time>2018-08-22T10:52:08.573Z</time>
      </trkpt>
      <trkpt lat="48.2632451" lon="-2.0265895">
        <ele>86.545</ele>
        <time>2018-08-22T10:52:14.274Z</time>
      </trkpt>
      <trkpt lat="48.2632563" lon="-2.0264525">
        <ele>87.308</ele>
        <time>2018-08-22T10:52:18.378Z</time>
      </trkpt>
      <trkpt lat="48.2632633" lon="-2.0263098">
        <ele>87.674</ele>
        <time>2018-08-22T10:52:21.764Z</time>
      </trkpt>
      <trkpt lat="48.2632764" lon="-2.0261696">
        <ele>87.528</ele>
        <time>2018-08-22T10:52:24.866Z</time>
      </trkpt>
      <trkpt lat="48.2632827" lon="-2.0260254">
        <ele>87.012</ele>
        <time>2018-08-22T10:52:27.948Z</time>
      </trkpt>
      <trkpt lat="48.2632863" lon="-2.0258845">
        <ele>86.350</ele>
        <time>2018-08-22T10:52:30.919Z</time>
      </trkpt>
      <trkpt lat="48.2632934" lon="-2.0257363">
        <ele>85.647</ele>
        <time>2018-08-22T10:52:34.044Z</time>
      </trkpt>
      <trkpt lat="48.2633011" lon="-2.0255676">
        <ele>84.911</ele>
        <time>2018-08-22T10:52:37.800Z</time>
      </trkpt>
      <trkpt lat="48.2633102" lon="-2.0254265">
        <ele>84.178</ele>
        <time>2018-08-22T10:52:41.381Z</time>
      </trkpt>
      <trkpt lat="48.2633162" lon="-2.0252810">
        <ele>83.502</ele>
        <time>2018-08-22T10:52:45.442Z</time>
      </trkpt>
      <trkpt lat="48.2633326" lon="-2.0251292">
        <ele>82.933</ele>
        <time>2018-08-22T10:52:49.998Z</time>
      </trkpt>
      <trkpt lat="48.2633326" lon="-2.0251292">
        <ele>82.537</ele>
        <time>2018-08-22T10:52:54.998Z</time>
      </trkpt>
      <trkpt lat="48.2633326" lon="-2.0251292">
        <ele>82.358</ele>
        <time>2018-08-22T10:53:01.295Z</time>
      </trkpt>
      <trkpt lat="48.2633571" lon="-2.0253811">
        <ele>82.402</ele>
        <time>2018-08-22T10:53:16.488Z</time>
      </trkpt>
      <trkpt lat="48.2633552" lon="-2.0255281">
        <ele>82.681</ele>
        <time>2018-08-22T10:53:21.854Z</time>
      </trkpt>
      <trkpt lat="48.2633413" lon="-2.0256644">
        <ele>83.101</ele>
        <time>2018-08-22T10:53:26.636Z</time>
      </trkpt>
      <trkpt lat="48.2633245" lon="-2.0258217">
        <ele>83.415</ele>
        <time>2018-08-22T10:53:32.087Z</time>
      </trkpt>
      <trkpt lat="48.2633141" lon="-2.0259829">
        <ele>83.511</ele>
        <time>2018-08-22T10:53:37.685Z</time>
      </trkpt>
      <trkpt lat="48.2632972" lon="-2.0261190">
        <ele>83.544</ele>
        <time>2018-08-22T10:53:42.665Z</time>
      </trkpt>
      <trkpt lat="48.2632863" lon="-2.0262635">
        <ele>83.658</ele>
        <time>2018-08-22T10:53:48.179Z</time>
      </trkpt>
      <trkpt lat="48.2632764" lon="-2.0264134">
        <ele>83.797</ele>
        <time>2018-08-22T10:53:53.961Z</time>
      </trkpt>
      <trkpt lat="48.2632565" lon="-2.0265685">
        <ele>84.058</ele>
        <time>2018-08-22T10:53:59.501Z</time>
      </trkpt>
      <trkpt lat="48.2632637" lon="-2.0267208">
        <ele>84.736</ele>
        <time>2018-08-22T10:54:04.314Z</time>
      </trkpt>
      <trkpt lat="48.2632667" lon="-2.0268578">
        <ele>85.770</ele>
        <time>2018-08-22T10:54:08.285Z</time>
      </trkpt>
      <trkpt lat="48.2632602" lon="-2.0270039">
        <ele>86.750</ele>
        <time>2018-08-22T10:54:12.291Z</time>
      </trkpt>
      <trkpt lat="48.2632472" lon="-2.0271423">
        <ele>87.436</ele>
        <time>2018-08-22T10:54:16.053Z</time>
      </trkpt>
      <trkpt lat="48.2632453" lon="-2.0272884">
        <ele>87.934</ele>
        <time>2018-08-22T10:54:19.894Z</time>
      </trkpt>
      <trkpt lat="48.2632371" lon="-2.0274469">
        <ele>88.357</ele>
        <time>2018-08-22T10:54:23.839Z</time>
      </trkpt>
      <trkpt lat="48.2632238" lon="-2.0276126">
        <ele>88.620</ele>
        <time>2018-08-22T10:54:27.747Z</time>
      </trkpt>
      <trkpt lat="48.2632144" lon="-2.0277846">
        <ele>88.599</ele>
        <time>2018-08-22T10:54:31.642Z</time>
      </trkpt>
      <trkpt lat="48.2632065" lon="-2.0279611">
        <ele>88.349</ele>
        <time>2018-08-22T10:54:35.507Z</time>
      </trkpt>
      <trkpt lat="48.2631981" lon="-2.0280954">
        <ele>88.124</ele>
        <time>2018-08-22T10:54:38.370Z</time>
      </trkpt>
      <trkpt lat="48.2631906" lon="-2.0282684">
        <ele>88.134</ele>
        <time>2018-08-22T10:54:41.997Z</time>
      </trkpt>
      <trkpt lat="48.2631906" lon="-2.0282684">
        <ele>88.313</ele>
        <time>2018-08-22T10:54:44.997Z</time>
      </trkpt>
      <trkpt lat="48.2631906" lon="-2.0282684">
        <ele>88.438</ele>
        <time>2018-08-22T10:54:45.097Z</time>
      </trkpt>
      <trkpt lat="48.2631757" lon="-2.0286131">
        <ele>88.398</ele>
        <time>2018-08-22T10:54:55.362Z</time>
      </trkpt>
      <trkpt lat="48.2631640" lon="-2.0287926">
        <ele>88.367</ele>
        <time>2018-08-22T10:54:59.509Z</time>
      </trkpt>
      <trkpt lat="48.2631443" lon="-2.0289588">
        <ele>88.503</ele>
        <time>2018-08-22T10:55:03.408Z</time>
      </trkpt>
      <trkpt lat="48.2631247" lon="-2.0291253">
        <ele>88.693</ele>
        <time>2018-08-22T10:55:07.346Z</time>
      </trkpt>
      <trkpt lat="48.2630977" lon="-2.0292852">
        <ele>88.828</ele>
        <time>2018-08-22T10:55:11.368Z</time>
      </trkpt>
      <trkpt lat="48.2630669" lon="-2.0294245">
        <ele>88.996</ele>
        <time>2018-08-22T10:55:15.060Z</time>
      </trkpt>
      <trkpt lat="48.2630211" lon="-2.0295630">
        <ele>89.239</ele>
        <time>2018-08-22T10:55:18.925Z</time>
      </trkpt>
      <trkpt lat="48.2629773" lon="-2.0296973">
        <ele>89.447</ele>
        <time>2018-08-22T10:55:22.616Z</time>
      </trkpt>
      <trkpt lat="48.2629267" lon="-2.0298317">
        <ele>89.610</ele>
        <time>2018-08-22T10:55:26.397Z</time>
      </trkpt>
      <trkpt lat="48.2628662" lon="-2.0299696">
        <ele>89.809</ele>
        <time>2018-08-22T10:55:30.465Z</time>
      </trkpt>
      <trkpt lat="48.2628134" lon="-2.0300985">
        <ele>89.964</ele>
        <time>2018-08-22T10:55:34.199Z</time>
      </trkpt>
      <trkpt lat="48.2627536" lon="-2.0302213">
        <ele>89.983</ele>
        <time>2018-08-22T10:55:37.953Z</time>
      </trkpt>
      <trkpt lat="48.2626894" lon="-2.0303496">
        <ele>89.962</ele>
        <time>2018-08-22T10:55:41.867Z</time>
      </trkpt>
      <trkpt lat="48.2626220" lon="-2.0304877">
        <ele>90.057</ele>
        <time>2018-08-22T10:55:45.995Z</time>
      </trkpt>
      <trkpt lat="48.2625616" lon="-2.0306160">
        <ele>90.417</ele>
        <time>2018-08-22T10:55:49.833Z</time>
      </trkpt>
      <trkpt lat="48.2625127" lon="-2.0307408">
        <ele>90.982</ele>
        <time>2018-08-22T10:55:53.245Z</time>
      </trkpt>
      <trkpt lat="48.2624454" lon="-2.0308812">
        <ele>91.643</ele>
        <time>2018-08-22T10:55:57.258Z</time>
      </trkpt>
      <trkpt lat="48.2623649" lon="-2.0309916">
        <ele>92.345</ele>
        <time>2018-08-22T10:56:01.152Z</time>
      </trkpt>
      <trkpt lat="48.2622831" lon="-2.0311042">
        <ele>92.939</ele>
        <time>2018-08-22T10:56:05.124Z</time>
      </trkpt>
      <trkpt lat="48.2622078" lon="-2.0311864">
        <ele>93.292</ele>
        <time>2018-08-22T10:56:08.331Z</time>
      </trkpt>
      <trkpt lat="48.2621350" lon="-2.0312711">
        <ele>93.445</ele>
        <time>2018-08-22T10:56:11.427Z</time>
      </trkpt>
      <trkpt lat="48.2620324" lon="-2.0313615">
        <ele>93.425</ele>
        <time>2018-08-22T10:56:15.396Z</time>
      </trkpt>
      <trkpt lat="48.2619411" lon="-2.0314758">
        <ele>93.283</ele>
        <time>2018-08-22T10:56:19.341Z</time>
      </trkpt>
      <trkpt lat="48.2618480" lon="-2.0315915">
        <ele>93.109</ele>
        <time>2018-08-22T10:56:23.339Z</time>
      </trkpt>
      <trkpt lat="48.2617745" lon="-2.0316727">
        <ele>93.010</ele>
        <time>2018-08-22T10:56:26.370Z</time>
      </trkpt>
      <trkpt lat="48.2616806" lon="-2.0317714">
        <ele>93.013</ele>
        <time>2018-08-22T10:56:30.243Z</time>
      </trkpt>
      <trkpt lat="48.2616014" lon="-2.0318919">
        <ele>93.256</ele>
        <time>2018-08-22T10:56:34.126Z</time>
      </trkpt>
      <trkpt lat="48.2615170" lon="-2.0319923">
        <ele>94.004</ele>
        <time>2018-08-22T10:56:37.984Z</time>
      </trkpt>
      <trkpt lat="48.2614518" lon="-2.0320984">
        <ele>95.074</ele>
        <time>2018-08-22T10:56:41.845Z</time>
      </trkpt>
      <trkpt lat="48.2613831" lon="-2.0322011">
        <ele>95.982</ele>
        <time>2018-08-22T10:56:46.241Z</time>
      </trkpt>
      <trkpt lat="48.2612984" lon="-2.0322847">
        <ele>96.634</ele>
        <time>2018-08-22T10:56:52.106Z</time>
      </trkpt>
      <trkpt lat="48.2613757" lon="-2.0321726">
        <ele>97.114</ele>
        <time>2018-08-22T10:56:59.965Z</time>
      </trkpt>
      <trkpt lat="48.2614279" lon="-2.0320553">
        <ele>97.376</ele>
        <time>2018-08-22T10:57:06.009Z</time>
      </trkpt>
      <trkpt lat="48.2614979" lon="-2.0319654">
        <ele>97.442</ele>
        <time>2018-08-22T10:57:09.571Z</time>
      </trkpt>
      <trkpt lat="48.2615722" lon="-2.0318763">
        <ele>97.401</ele>
        <time>2018-08-22T10:57:12.761Z</time>
      </trkpt>
      <trkpt lat="48.2616433" lon="-2.0317899">
        <ele>97.323</ele>
        <time>2018-08-22T10:57:15.637Z</time>
      </trkpt>
      <trkpt lat="48.2617266" lon="-2.0316998">
        <ele>97.260</ele>
        <time>2018-08-22T10:57:18.724Z</time>
      </trkpt>
      <trkpt lat="48.2618179" lon="-2.0316014">
        <ele>97.254</ele>
        <time>2018-08-22T10:57:21.924Z</time>
      </trkpt>
      <trkpt lat="48.2619144" lon="-2.0314996">
        <ele>97.301</ele>
        <time>2018-08-22T10:57:25.108Z</time>
      </trkpt>
      <trkpt lat="48.2620108" lon="-2.0313897">
        <ele>97.329</ele>
        <time>2018-08-22T10:57:28.221Z</time>
      </trkpt>
      <trkpt lat="48.2621125" lon="-2.0312873">
        <ele>97.263</ele>
        <time>2018-08-22T10:57:31.259Z</time>
      </trkpt>
      <trkpt lat="48.2622122" lon="-2.0311721">
        <ele>96.952</ele>
        <time>2018-08-22T10:57:34.304Z</time>
      </trkpt>
      <trkpt lat="48.2623087" lon="-2.0310468">
        <ele>96.342</ele>
        <time>2018-08-22T10:57:37.339Z</time>
      </trkpt>
      <trkpt lat="48.2623985" lon="-2.0309181">
        <ele>95.709</ele>
        <time>2018-08-22T10:57:40.270Z</time>
      </trkpt>
      <trkpt lat="48.2624807" lon="-2.0307726">
        <ele>95.336</ele>
        <time>2018-08-22T10:57:43.258Z</time>
      </trkpt>
      <trkpt lat="48.2625481" lon="-2.0306099">
        <ele>95.216</ele>
        <time>2018-08-22T10:57:46.253Z</time>
      </trkpt>
      <trkpt lat="48.2626145" lon="-2.0304565">
        <ele>95.212</ele>
        <time>2018-08-22T10:57:49.159Z</time>
      </trkpt>
      <trkpt lat="48.2626727" lon="-2.0303245">
        <ele>95.128</ele>
        <time>2018-08-22T10:57:51.837Z</time>
      </trkpt>
      <trkpt lat="48.2627298" lon="-2.0302126">
        <ele>94.876</ele>
        <time>2018-08-22T10:57:54.470Z</time>
      </trkpt>
      <trkpt lat="48.2626872" lon="-2.0303575">
        <ele>94.430</ele>
        <time>2018-08-22T10:57:58.933Z</time>
      </trkpt>
      <trkpt lat="48.2626240" lon="-2.0304891">
        <ele>93.717</ele>
        <time>2018-08-22T10:58:06.426Z</time>
      </trkpt>
      <trkpt lat="48.2625593" lon="-2.0306227">
        <ele>92.877</ele>
        <time>2018-08-22T10:58:10.986Z</time>
      </trkpt>
      <trkpt lat="48.2624955" lon="-2.0307343">
        <ele>92.278</ele>
        <time>2018-08-22T10:58:14.551Z</time>
      </trkpt>
      <trkpt lat="48.2624321" lon="-2.0308418">
        <ele>92.102</ele>
        <time>2018-08-22T10:58:18.057Z</time>
      </trkpt>
      <trkpt lat="48.2623642" lon="-2.0309767">
        <ele>92.298</ele>
        <time>2018-08-22T10:58:22.415Z</time>
      </trkpt>
      <trkpt lat="48.2622994" lon="-2.0310765">
        <ele>92.671</ele>
        <time>2018-08-22T10:58:26.180Z</time>
      </trkpt>
      <trkpt lat="48.2622239" lon="-2.0311734">
        <ele>93.061</ele>
        <time>2018-08-22T10:58:30.259Z</time>
      </trkpt>
      <trkpt lat="48.2621407" lon="-2.0312714">
        <ele>93.430</ele>
        <time>2018-08-22T10:58:34.469Z</time>
      </trkpt>
      <trkpt lat="48.2620568" lon="-2.0313703">
        <ele>93.745</ele>
        <time>2018-08-22T10:58:38.549Z</time>
      </trkpt>
      <trkpt lat="48.2619690" lon="-2.0314692">
        <ele>94.084</ele>
        <time>2018-08-22T10:58:42.625Z</time>
      </trkpt>
      <trkpt lat="48.2618747" lon="-2.0315645">
        <ele>94.529</ele>
        <time>2018-08-22T10:58:46.721Z</time>
      </trkpt>
      <trkpt lat="48.2617770" lon="-2.0316650">
        <ele>94.979</ele>
        <time>2018-08-22T10:58:50.854Z</time>
      </trkpt>
      <trkpt lat="48.2616878" lon="-2.0317806">
        <ele>95.427</ele>
        <time>2018-08-22T10:58:54.843Z</time>
      </trkpt>
      <trkpt lat="48.2616049" lon="-2.0319030">
        <ele>95.901</ele>
        <time>2018-08-22T10:58:58.739Z</time>
      </trkpt>
      <trkpt lat="48.2615294" lon="-2.0319954">
        <ele>96.245</ele>
        <time>2018-08-22T10:59:01.961Z</time>
      </trkpt>
      <trkpt lat="48.2614590" lon="-2.0320941">
        <ele>96.334</ele>
        <time>2018-08-22T10:59:05.056Z</time>
      </trkpt>
      <trkpt lat="48.2613921" lon="-2.0321863">
        <ele>96.239</ele>
        <time>2018-08-22T10:59:07.920Z</time>
      </trkpt>
      <trkpt lat="48.2613263" lon="-2.0322791">
        <ele>96.177</ele>
        <time>2018-08-22T10:59:10.763Z</time>
      </trkpt>
      <trkpt lat="48.2612616" lon="-2.0323782">
        <ele>96.291</ele>
        <time>2018-08-22T10:59:13.690Z</time>
      </trkpt>
      <trkpt lat="48.2611944" lon="-2.0324779">
        <ele>96.467</ele>
        <time>2018-08-22T10:59:16.679Z</time>
      </trkpt>
      <trkpt lat="48.2611226" lon="-2.0325780">
        <ele>96.570</ele>
        <time>2018-08-22T10:59:19.743Z</time>
      </trkpt>
      <trkpt lat="48.2610456" lon="-2.0326812">
        <ele>96.592</ele>
        <time>2018-08-22T10:59:22.892Z</time>
      </trkpt>
      <trkpt lat="48.2609760" lon="-2.0327896">
        <ele>96.565</ele>
        <time>2018-08-22T10:59:25.878Z</time>
      </trkpt>
      <trkpt lat="48.2609073" lon="-2.0329035">
        <ele>96.526</ele>
        <time>2018-08-22T10:59:28.886Z</time>
      </trkpt>
      <trkpt lat="48.2608397" lon="-2.0330273">
        <ele>96.534</ele>
        <time>2018-08-22T10:59:31.974Z</time>
      </trkpt>
      <trkpt lat="48.2607621" lon="-2.0331319">
        <ele>96.684</ele>
        <time>2018-08-22T10:59:34.947Z</time>
      </trkpt>
      <trkpt lat="48.2606788" lon="-2.0332138">
        <ele>96.970</ele>
        <time>2018-08-22T10:59:37.803Z</time>
      </trkpt>
      <trkpt lat="48.2605975" lon="-2.0332771">
        <ele>97.233</ele>
        <time>2018-08-22T10:59:40.511Z</time>
      </trkpt>
      <trkpt lat="48.2605036" lon="-2.0333241">
        <ele>97.367</ele>
        <time>2018-08-22T10:59:43.512Z</time>
      </trkpt>
      <trkpt lat="48.2604036" lon="-2.0333587">
        <ele>97.526</ele>
        <time>2018-08-22T10:59:46.619Z</time>
      </trkpt>
      <trkpt lat="48.2602981" lon="-2.0333671">
        <ele>97.895</ele>
        <time>2018-08-22T10:59:49.741Z</time>
      </trkpt>
      <trkpt lat="48.2601887" lon="-2.0333506">
        <ele>98.372</ele>
        <time>2018-08-22T10:59:52.874Z</time>
      </trkpt>
      <trkpt lat="48.2600801" lon="-2.0333072">
        <ele>98.761</ele>
        <time>2018-08-22T10:59:55.963Z</time>
      </trkpt>
      <trkpt lat="48.2599681" lon="-2.0332475">
        <ele>99.075</ele>
        <time>2018-08-22T10:59:59.125Z</time>
      </trkpt>
      <trkpt lat="48.2598615" lon="-2.0331863">
        <ele>99.363</ele>
        <time>2018-08-22T11:00:02.103Z</time>
      </trkpt>
      <trkpt lat="48.2597566" lon="-2.0331311">
        <ele>99.719</ele>
        <time>2018-08-22T11:00:04.983Z</time>
      </trkpt>
      <trkpt lat="48.2596512" lon="-2.0330852">
        <ele>100.240</ele>
        <time>2018-08-22T11:00:07.829Z</time>
      </trkpt>
      <trkpt lat="48.2595464" lon="-2.0330329">
        <ele>100.767</ele>
        <time>2018-08-22T11:00:10.720Z</time>
      </trkpt>
      <trkpt lat="48.2594426" lon="-2.0329780">
        <ele>101.065</ele>
        <time>2018-08-22T11:00:13.620Z</time>
      </trkpt>
      <trkpt lat="48.2593407" lon="-2.0329284">
        <ele>101.104</ele>
        <time>2018-08-22T11:00:16.461Z</time>
      </trkpt>
      <trkpt lat="48.2592364" lon="-2.0328864">
        <ele>101.092</ele>
        <time>2018-08-22T11:00:19.353Z</time>
      </trkpt>
      <trkpt lat="48.2591317" lon="-2.0328476">
        <ele>101.327</ele>
        <time>2018-08-22T11:00:22.284Z</time>
      </trkpt>
      <trkpt lat="48.2590234" lon="-2.0328240">
        <ele>101.783</ele>
        <time>2018-08-22T11:00:25.277Z</time>
      </trkpt>
      <trkpt lat="48.2589044" lon="-2.0328108">
        <ele>102.177</ele>
        <time>2018-08-22T11:00:28.494Z</time>
      </trkpt>
      <trkpt lat="48.2587916" lon="-2.0328144">
        <ele>102.393</ele>
        <time>2018-08-22T11:00:31.474Z</time>
      </trkpt>
      <trkpt lat="48.2586837" lon="-2.0328010">
        <ele>102.459</ele>
        <time>2018-08-22T11:00:34.333Z</time>
      </trkpt>
      <trkpt lat="48.2585872" lon="-2.0327969">
        <ele>102.375</ele>
        <time>2018-08-22T11:00:36.938Z</time>
      </trkpt>
      <trkpt lat="48.2584901" lon="-2.0327810">
        <ele>102.188</ele>
        <time>2018-08-22T11:00:39.666Z</time>
      </trkpt>
      <trkpt lat="48.2583905" lon="-2.0327731">
        <ele>102.022</ele>
        <time>2018-08-22T11:00:42.562Z</time>
      </trkpt>
      <trkpt lat="48.2582809" lon="-2.0327644">
        <ele>101.936</ele>
        <time>2018-08-22T11:00:45.792Z</time>
      </trkpt>
      <trkpt lat="48.2581670" lon="-2.0327539">
        <ele>101.838</ele>
        <time>2018-08-22T11:00:49.041Z</time>
      </trkpt>
      <trkpt lat="48.2580509" lon="-2.0327518">
        <ele>101.668</ele>
        <time>2018-08-22T11:00:52.201Z</time>
      </trkpt>
      <trkpt lat="48.2579448" lon="-2.0327460">
        <ele>101.501</ele>
        <time>2018-08-22T11:00:55.005Z</time>
      </trkpt>
      <trkpt lat="48.2578368" lon="-2.0327244">
        <ele>101.398</ele>
        <time>2018-08-22T11:00:57.862Z</time>
      </trkpt>
      <trkpt lat="48.2577187" lon="-2.0327140">
        <ele>101.347</ele>
        <time>2018-08-22T11:01:00.943Z</time>
      </trkpt>
      <trkpt lat="48.2575971" lon="-2.0327129">
        <ele>101.341</ele>
        <time>2018-08-22T11:01:04.059Z</time>
      </trkpt>
      <trkpt lat="48.2574794" lon="-2.0327355">
        <ele>101.358</ele>
        <time>2018-08-22T11:01:07.061Z</time>
      </trkpt>
      <trkpt lat="48.2573727" lon="-2.0327802">
        <ele>101.371</ele>
        <time>2018-08-22T11:01:09.880Z</time>
      </trkpt>
      <trkpt lat="48.2572748" lon="-2.0328365">
        <ele>101.297</ele>
        <time>2018-08-22T11:01:12.616Z</time>
      </trkpt>
      <trkpt lat="48.2571760" lon="-2.0329063">
        <ele>101.030</ele>
        <time>2018-08-22T11:01:15.537Z</time>
      </trkpt>
      <trkpt lat="48.2570851" lon="-2.0329902">
        <ele>100.607</ele>
        <time>2018-08-22T11:01:18.424Z</time>
      </trkpt>
      <trkpt lat="48.2570101" lon="-2.0330943">
        <ele>100.212</ele>
        <time>2018-08-22T11:01:21.207Z</time>
      </trkpt>
      <trkpt lat="48.2569365" lon="-2.0331958">
        <ele>100.006</ele>
        <time>2018-08-22T11:01:23.980Z</time>
      </trkpt>
      <trkpt lat="48.2568766" lon="-2.0333014">
        <ele>100.026</ele>
        <time>2018-08-22T11:01:26.612Z</time>
      </trkpt>
      <trkpt lat="48.2568311" lon="-2.0334381">
        <ele>100.177</ele>
        <time>2018-08-22T11:01:29.644Z</time>
      </trkpt>
      <trkpt lat="48.2568607" lon="-2.0335913">
        <ele>100.193</ele>
        <time>2018-08-22T11:01:33.011Z</time>
      </trkpt>
      <trkpt lat="48.2569169" lon="-2.0337262">
        <ele>99.929</ele>
        <time>2018-08-22T11:01:36.958Z</time>
      </trkpt>
      <trkpt lat="48.2569572" lon="-2.0338512">
        <ele>99.635</ele>
        <time>2018-08-22T11:01:40.864Z</time>
      </trkpt>
      <trkpt lat="48.2569933" lon="-2.0339836">
        <ele>99.641</ele>
        <time>2018-08-22T11:01:45.165Z</time>
      </trkpt>
      <trkpt lat="48.2570475" lon="-2.0341424">
        <ele>99.929</ele>
        <time>2018-08-22T11:01:50.387Z</time>
      </trkpt>
      <trkpt lat="48.2570901" lon="-2.0342703">
        <ele>100.233</ele>
        <time>2018-08-22T11:01:54.173Z</time>
      </trkpt>
      <trkpt lat="48.2571295" lon="-2.0344071">
        <ele>100.313</ele>
        <time>2018-08-22T11:01:57.772Z</time>
      </trkpt>
      <trkpt lat="48.2571712" lon="-2.0345522">
        <ele>100.118</ele>
        <time>2018-08-22T11:02:01.214Z</time>
      </trkpt>
      <trkpt lat="48.2572118" lon="-2.0347113">
        <ele>99.695</ele>
        <time>2018-08-22T11:02:04.654Z</time>
      </trkpt>
      <trkpt lat="48.2572561" lon="-2.0348742">
        <ele>99.070</ele>
        <time>2018-08-22T11:02:07.994Z</time>
      </trkpt>
      <trkpt lat="48.2573060" lon="-2.0350362">
        <ele>98.384</ele>
        <time>2018-08-22T11:02:11.187Z</time>
      </trkpt>
      <trkpt lat="48.2573514" lon="-2.0351991">
        <ele>97.916</ele>
        <time>2018-08-22T11:02:14.207Z</time>
      </trkpt>
      <trkpt lat="48.2574088" lon="-2.0353663">
        <ele>97.777</ele>
        <time>2018-08-22T11:02:17.330Z</time>
      </trkpt>
      <trkpt lat="48.2574620" lon="-2.0355437">
        <ele>97.828</ele>
        <time>2018-08-22T11:02:20.478Z</time>
      </trkpt>
      <trkpt lat="48.2575149" lon="-2.0357157">
        <ele>97.885</ele>
        <time>2018-08-22T11:02:23.460Z</time>
      </trkpt>
      <trkpt lat="48.2575724" lon="-2.0358846">
        <ele>97.859</ele>
        <time>2018-08-22T11:02:26.394Z</time>
      </trkpt>
      <trkpt lat="48.2576323" lon="-2.0360613">
        <ele>97.699</ele>
        <time>2018-08-22T11:02:29.439Z</time>
      </trkpt>
      <trkpt lat="48.2576873" lon="-2.0362323">
        <ele>97.493</ele>
        <time>2018-08-22T11:02:32.328Z</time>
      </trkpt>
      <trkpt lat="48.2577518" lon="-2.0364226">
        <ele>97.438</ele>
        <time>2018-08-22T11:02:35.530Z</time>
      </trkpt>
      <trkpt lat="48.2578081" lon="-2.0365941">
        <ele>97.534</ele>
        <time>2018-08-22T11:02:38.361Z</time>
      </trkpt>
      <trkpt lat="48.2578747" lon="-2.0367649">
        <ele>97.688</ele>
        <time>2018-08-22T11:02:41.277Z</time>
      </trkpt>
      <trkpt lat="48.2579405" lon="-2.0369175">
        <ele>97.925</ele>
        <time>2018-08-22T11:02:43.968Z</time>
      </trkpt>
      <trkpt lat="48.2579958" lon="-2.0371273">
        <ele>98.155</ele>
        <time>2018-08-22T11:02:47.322Z</time>
      </trkpt>
      <trkpt lat="48.2580562" lon="-2.0373071">
        <ele>98.229</ele>
        <time>2018-08-22T11:02:50.293Z</time>
      </trkpt>
      <trkpt lat="48.2581021" lon="-2.0374270">
        <ele>98.169</ele>
        <time>2018-08-22T11:02:52.322Z</time>
      </trkpt>
      <trkpt lat="48.2581335" lon="-2.0375822">
        <ele>98.093</ele>
        <time>2018-08-22T11:02:54.709Z</time>
      </trkpt>
      <trkpt lat="48.2581875" lon="-2.0377491">
        <ele>98.041</ele>
        <time>2018-08-22T11:02:57.418Z</time>
      </trkpt>
      <trkpt lat="48.2582127" lon="-2.0378884">
        <ele>98.034</ele>
        <time>2018-08-22T11:02:59.524Z</time>
      </trkpt>
      <trkpt lat="48.2582875" lon="-2.0380663">
        <ele>98.069</ele>
        <time>2018-08-22T11:03:02.611Z</time>
      </trkpt>
      <trkpt lat="48.2583420" lon="-2.0381756">
        <ele>97.996</ele>
        <time>2018-08-22T11:03:04.610Z</time>
      </trkpt>
      <trkpt lat="48.2583869" lon="-2.0383180">
        <ele>97.715</ele>
        <time>2018-08-22T11:03:06.910Z</time>
      </trkpt>
      <trkpt lat="48.2584240" lon="-2.0384665">
        <ele>97.421</ele>
        <time>2018-08-22T11:03:09.202Z</time>
      </trkpt>
      <trkpt lat="48.2584833" lon="-2.0386306">
        <ele>97.407</ele>
        <time>2018-08-22T11:03:11.869Z</time>
      </trkpt>
      <trkpt lat="48.2585105" lon="-2.0387798">
        <ele>97.690</ele>
        <time>2018-08-22T11:03:14.078Z</time>
      </trkpt>
      <trkpt lat="48.2585464" lon="-2.0389285">
        <ele>98.027</ele>
        <time>2018-08-22T11:03:16.331Z</time>
      </trkpt>
      <trkpt lat="48.2585971" lon="-2.0390466">
        <ele>98.222</ele>
        <time>2018-08-22T11:03:18.314Z</time>
      </trkpt>
      <trkpt lat="48.2586503" lon="-2.0392083">
        <ele>98.250</ele>
        <time>2018-08-22T11:03:20.796Z</time>
      </trkpt>
      <trkpt lat="48.2586990" lon="-2.0393475">
        <ele>98.145</ele>
        <time>2018-08-22T11:03:22.869Z</time>
      </trkpt>
      <trkpt lat="48.2587384" lon="-2.0395045">
        <ele>97.917</ele>
        <time>2018-08-22T11:03:25.033Z</time>
      </trkpt>
      <trkpt lat="48.2587708" lon="-2.0396529">
        <ele>97.568</ele>
        <time>2018-08-22T11:03:27.012Z</time>
      </trkpt>
      <trkpt lat="48.2588049" lon="-2.0398111">
        <ele>97.222</ele>
        <time>2018-08-22T11:03:29.101Z</time>
      </trkpt>
      <trkpt lat="48.2588426" lon="-2.0399728">
        <ele>96.922</ele>
        <time>2018-08-22T11:03:31.242Z</time>
      </trkpt>
      <trkpt lat="48.2588961" lon="-2.0400877">
        <ele>96.551</ele>
        <time>2018-08-22T11:03:32.991Z</time>
      </trkpt>
      <trkpt lat="48.2589388" lon="-2.0402213">
        <ele>95.991</ele>
        <time>2018-08-22T11:03:34.843Z</time>
      </trkpt>
      <trkpt lat="48.2589772" lon="-2.0403616">
        <ele>95.299</ele>
        <time>2018-08-22T11:03:36.746Z</time>
      </trkpt>
      <trkpt lat="48.2590257" lon="-2.0405167">
        <ele>94.756</ele>
        <time>2018-08-22T11:03:38.885Z</time>
      </trkpt>
      <trkpt lat="48.2590640" lon="-2.0406781">
        <ele>94.530</ele>
        <time>2018-08-22T11:03:40.974Z</time>
      </trkpt>
      <trkpt lat="48.2591100" lon="-2.0408433">
        <ele>94.482</ele>
        <time>2018-08-22T11:03:43.106Z</time>
      </trkpt>
      <trkpt lat="48.2591522" lon="-2.0410088">
        <ele>94.398</ele>
        <time>2018-08-22T11:03:45.181Z</time>
      </trkpt>
      <trkpt lat="48.2592046" lon="-2.0411482">
        <ele>94.173</ele>
        <time>2018-08-22T11:03:47.035Z</time>
      </trkpt>
      <trkpt lat="48.2592784" lon="-2.0413779">
        <ele>93.864</ele>
        <time>2018-08-22T11:03:49.969Z</time>
      </trkpt>
      <trkpt lat="48.2593588" lon="-2.0416086">
        <ele>93.547</ele>
        <time>2018-08-22T11:03:52.959Z</time>
      </trkpt>
      <trkpt lat="48.2594208" lon="-2.0418578">
        <ele>93.218</ele>
        <time>2018-08-22T11:03:55.999Z</time>
      </trkpt>
      <trkpt lat="48.2594208" lon="-2.0418578">
        <ele>92.925</ele>
        <time>2018-08-22T11:03:55.999Z</time>
      </trkpt>
      <trkpt lat="48.2594208" lon="-2.0418578">
        <ele>92.755</ele>
        <time>2018-08-22T11:03:56.099Z</time>
      </trkpt>
      <trkpt lat="48.2595145" lon="-2.0421953">
        <ele>92.770</ele>
        <time>2018-08-22T11:04:02.108Z</time>
      </trkpt>
      <trkpt lat="48.2595949" lon="-2.0424468">
        <ele>92.875</ele>
        <time>2018-08-22T11:04:05.139Z</time>
      </trkpt>
      <trkpt lat="48.2596787" lon="-2.0427041">
        <ele>92.818</ele>
        <time>2018-08-22T11:04:08.171Z</time>
      </trkpt>
      <trkpt lat="48.2597531" lon="-2.0429750">
        <ele>92.436</ele>
        <time>2018-08-22T11:04:11.200Z</time>
      </trkpt>
      <trkpt lat="48.2598400" lon="-2.0432475">
        <ele>91.763</ele>
        <time>2018-08-22T11:04:14.269Z</time>
      </trkpt>
      <trkpt lat="48.2599192" lon="-2.0435073">
        <ele>90.867</ele>
        <time>2018-08-22T11:04:17.144Z</time>
      </trkpt>
      <trkpt lat="48.2599998" lon="-2.0437993">
        <ele>89.954</ele>
        <time>2018-08-22T11:04:20.333Z</time>
      </trkpt>
      <trkpt lat="48.2600924" lon="-2.0440623">
        <ele>89.308</ele>
        <time>2018-08-22T11:04:23.377Z</time>
      </trkpt>
      <trkpt lat="48.2601776" lon="-2.0443180">
        <ele>88.986</ele>
        <time>2018-08-22T11:04:26.307Z</time>
      </trkpt>
      <trkpt lat="48.2602464" lon="-2.0446102">
        <ele>88.748</ele>
        <time>2018-08-22T11:04:29.432Z</time>
      </trkpt>
      <trkpt lat="48.2602681" lon="-2.0448895">
        <ele>88.380</ele>
        <time>2018-08-22T11:04:32.214Z</time>
      </trkpt>
      <trkpt lat="48.2602943" lon="-2.0452017">
        <ele>87.894</ele>
        <time>2018-08-22T11:04:35.275Z</time>
      </trkpt>
      <trkpt lat="48.2603038" lon="-2.0455128">
        <ele>87.378</ele>
        <time>2018-08-22T11:04:38.297Z</time>
      </trkpt>
      <trkpt lat="48.2603249" lon="-2.0457926">
        <ele>86.873</ele>
        <time>2018-08-22T11:04:41.051Z</time>
      </trkpt>
      <trkpt lat="48.2603507" lon="-2.0459958">
        <ele>86.225</ele>
        <time>2018-08-22T11:04:43.069Z</time>
      </trkpt>
      <trkpt lat="48.2603515" lon="-2.0461984">
        <ele>85.234</ele>
        <time>2018-08-22T11:04:45.063Z</time>
      </trkpt>
      <trkpt lat="48.2603627" lon="-2.0463915">
        <ele>84.047</ele>
        <time>2018-08-22T11:04:46.992Z</time>
      </trkpt>
      <trkpt lat="48.2603694" lon="-2.0465816">
        <ele>82.970</ele>
        <time>2018-08-22T11:04:48.891Z</time>
      </trkpt>
      <trkpt lat="48.2603762" lon="-2.0467870">
        <ele>82.112</ele>
        <time>2018-08-22T11:04:50.953Z</time>
      </trkpt>
      <trkpt lat="48.2603800" lon="-2.0469783">
        <ele>81.496</ele>
        <time>2018-08-22T11:04:52.904Z</time>
      </trkpt>
      <trkpt lat="48.2603809" lon="-2.0471768">
        <ele>81.101</ele>
        <time>2018-08-22T11:04:54.972Z</time>
      </trkpt>
      <trkpt lat="48.2603899" lon="-2.0473591">
        <ele>80.887</ele>
        <time>2018-08-22T11:04:56.881Z</time>
      </trkpt>
      <trkpt lat="48.2603878" lon="-2.0475480">
        <ele>80.798</ele>
        <time>2018-08-22T11:04:58.814Z</time>
      </trkpt>
      <trkpt lat="48.2604107" lon="-2.0478460">
        <ele>80.768</ele>
        <time>2018-08-22T11:05:01.823Z</time>
      </trkpt>
      <trkpt lat="48.2604069" lon="-2.0481408">
        <ele>80.632</ele>
        <time>2018-08-22T11:05:04.641Z</time>
      </trkpt>
      <trkpt lat="48.2604212" lon="-2.0484785">
        <ele>80.236</ele>
        <time>2018-08-22T11:05:07.682Z</time>
      </trkpt>
      <trkpt lat="48.2604467" lon="-2.0488186">
        <ele>79.484</ele>
        <time>2018-08-22T11:05:10.616Z</time>
      </trkpt>
      <trkpt lat="48.2604508" lon="-2.0491826">
        <ele>78.252</ele>
        <time>2018-08-22T11:05:13.670Z</time>
      </trkpt>
      <trkpt lat="48.2604611" lon="-2.0495483">
        <ele>76.553</ele>
        <time>2018-08-22T11:05:16.681Z</time>
      </trkpt>
      <trkpt lat="48.2604822" lon="-2.0499253">
        <ele>74.679</ele>
        <time>2018-08-22T11:05:19.701Z</time>
      </trkpt>
      <trkpt lat="48.2605103" lon="-2.0503150">
        <ele>72.980</ele>
        <time>2018-08-22T11:05:22.751Z</time>
      </trkpt>
      <trkpt lat="48.2605632" lon="-2.0506904">
        <ele>71.675</ele>
        <time>2018-08-22T11:05:25.712Z</time>
      </trkpt>
      <trkpt lat="48.2606533" lon="-2.0510350">
        <ele>70.794</ele>
        <time>2018-08-22T11:05:28.649Z</time>
      </trkpt>
      <trkpt lat="48.2607693" lon="-2.0513328">
        <ele>70.131</ele>
        <time>2018-08-22T11:05:31.631Z</time>
      </trkpt>
      <trkpt lat="48.2608829" lon="-2.0515891">
        <ele>69.451</ele>
        <time>2018-08-22T11:05:34.696Z</time>
      </trkpt>
      <trkpt lat="48.2609752" lon="-2.0518150">
        <ele>68.733</ele>
        <time>2018-08-22T11:05:37.878Z</time>
      </trkpt>
      <trkpt lat="48.2610339" lon="-2.0519897">
        <ele>67.966</ele>
        <time>2018-08-22T11:05:40.755Z</time>
      </trkpt>
      <trkpt lat="48.2610891" lon="-2.0521509">
        <ele>67.203</ele>
        <time>2018-08-22T11:05:43.937Z</time>
      </trkpt>
      <trkpt lat="48.2611487" lon="-2.0522765">
        <ele>66.871</ele>
        <time>2018-08-22T11:05:47.192Z</time>
      </trkpt>
      <trkpt lat="48.2612086" lon="-2.0524257">
        <ele>67.371</ele>
        <time>2018-08-22T11:05:51.230Z</time>
      </trkpt>
      <trkpt lat="48.2612723" lon="-2.0525737">
        <ele>68.456</ele>
        <time>2018-08-22T11:05:55.271Z</time>
      </trkpt>
      <trkpt lat="48.2613208" lon="-2.0526902">
        <ele>69.439</ele>
        <time>2018-08-22T11:05:58.446Z</time>
      </trkpt>
      <trkpt lat="48.2613694" lon="-2.0528231">
        <ele>69.916</ele>
        <time>2018-08-22T11:06:02.083Z</time>
      </trkpt>
      <trkpt lat="48.2614280" lon="-2.0529561">
        <ele>69.884</ele>
        <time>2018-08-22T11:06:06.033Z</time>
      </trkpt>
      <trkpt lat="48.2614859" lon="-2.0530686">
        <ele>69.541</ele>
        <time>2018-08-22T11:06:09.643Z</time>
      </trkpt>
      <trkpt lat="48.2615421" lon="-2.0532005">
        <ele>69.197</ele>
        <time>2018-08-22T11:06:13.636Z</time>
      </trkpt>
      <trkpt lat="48.2616037" lon="-2.0533412">
        <ele>69.144</ele>
        <time>2018-08-22T11:06:17.855Z</time>
      </trkpt>
      <trkpt lat="48.2616578" lon="-2.0534758">
        <ele>69.546</ele>
        <time>2018-08-22T11:06:21.914Z</time>
      </trkpt>
      <trkpt lat="48.2617143" lon="-2.0536170">
        <ele>70.238</ele>
        <time>2018-08-22T11:06:26.386Z</time>
      </trkpt>
      <trkpt lat="48.2617639" lon="-2.0537318">
        <ele>70.801</ele>
        <time>2018-08-22T11:06:30.228Z</time>
      </trkpt>
      <trkpt lat="48.2618190" lon="-2.0538773">
        <ele>71.126</ele>
        <time>2018-08-22T11:06:34.906Z</time>
      </trkpt>
      <trkpt lat="48.2618632" lon="-2.0539954">
        <ele>71.478</ele>
        <time>2018-08-22T11:06:38.691Z</time>
      </trkpt>
      <trkpt lat="48.2619076" lon="-2.0541227">
        <ele>72.069</ele>
        <time>2018-08-22T11:06:42.724Z</time>
      </trkpt>
      <trkpt lat="48.2619509" lon="-2.0542500">
        <ele>72.828</ele>
        <time>2018-08-22T11:06:46.783Z</time>
      </trkpt>
      <trkpt lat="48.2620008" lon="-2.0543644">
        <ele>73.585</ele>
        <time>2018-08-22T11:06:50.665Z</time>
      </trkpt>
      <trkpt lat="48.2620620" lon="-2.0544982">
        <ele>74.234</ele>
        <time>2018-08-22T11:06:55.270Z</time>
      </trkpt>
      <trkpt lat="48.2621201" lon="-2.0546123">
        <ele>74.745</ele>
        <time>2018-08-22T11:06:59.322Z</time>
      </trkpt>
      <trkpt lat="48.2621746" lon="-2.0547286">
        <ele>75.187</ele>
        <time>2018-08-22T11:07:03.320Z</time>
      </trkpt>
      <trkpt lat="48.2622271" lon="-2.0548419">
        <ele>75.714</ele>
        <time>2018-08-22T11:07:07.247Z</time>
      </trkpt>
      <trkpt lat="48.2622754" lon="-2.0549632">
        <ele>76.362</ele>
        <time>2018-08-22T11:07:11.259Z</time>
      </trkpt>
      <trkpt lat="48.2623298" lon="-2.0550785">
        <ele>76.986</ele>
        <time>2018-08-22T11:07:15.254Z</time>
      </trkpt>
      <trkpt lat="48.2623848" lon="-2.0551939">
        <ele>77.455</ele>
        <time>2018-08-22T11:07:19.231Z</time>
      </trkpt>
      <trkpt lat="48.2624287" lon="-2.0553241">
        <ele>77.792</ele>
        <time>2018-08-22T11:07:23.252Z</time>
      </trkpt>
      <trkpt lat="48.2624777" lon="-2.0554529">
        <ele>78.008</ele>
        <time>2018-08-22T11:07:27.245Z</time>
      </trkpt>
      <trkpt lat="48.2625250" lon="-2.0555769">
        <ele>78.170</ele>
        <time>2018-08-22T11:07:31.106Z</time>
      </trkpt>
      <trkpt lat="48.2625725" lon="-2.0557039">
        <ele>78.478</ele>
        <time>2018-08-22T11:07:35.126Z</time>
      </trkpt>
      <trkpt lat="48.2626237" lon="-2.0558301">
        <ele>79.011</ele>
        <time>2018-08-22T11:07:39.249Z</time>
      </trkpt>
      <trkpt lat="48.2626819" lon="-2.0559481">
        <ele>79.705</ele>
        <time>2018-08-22T11:07:43.374Z</time>
      </trkpt>
      <trkpt lat="48.2627282" lon="-2.0560691">
        <ele>80.505</ele>
        <time>2018-08-22T11:07:47.326Z</time>
      </trkpt>
      <trkpt lat="48.2627773" lon="-2.0561861">
        <ele>81.250</ele>
        <time>2018-08-22T11:07:51.292Z</time>
      </trkpt>
      <trkpt lat="48.2628323" lon="-2.0562988">
        <ele>81.793</ele>
        <time>2018-08-22T11:07:55.291Z</time>
      </trkpt>
      <trkpt lat="48.2628982" lon="-2.0564347">
        <ele>82.243</ele>
        <time>2018-08-22T11:08:00.137Z</time>
      </trkpt>
      <trkpt lat="48.2629378" lon="-2.0565652">
        <ele>82.731</ele>
        <time>2018-08-22T11:08:04.277Z</time>
      </trkpt>
      <trkpt lat="48.2629888" lon="-2.0566822">
        <ele>83.233</ele>
        <time>2018-08-22T11:08:08.231Z</time>
      </trkpt>
      <trkpt lat="48.2630426" lon="-2.0568028">
        <ele>83.754</ele>
        <time>2018-08-22T11:08:12.268Z</time>
      </trkpt>
      <trkpt lat="48.2630958" lon="-2.0569232">
        <ele>84.288</ele>
        <time>2018-08-22T11:08:16.262Z</time>
      </trkpt>
      <trkpt lat="48.2631495" lon="-2.0570335">
        <ele>84.737</ele>
        <time>2018-08-22T11:08:20.103Z</time>
      </trkpt>
      <trkpt lat="48.2632091" lon="-2.0571760">
        <ele>85.006</ele>
        <time>2018-08-22T11:08:24.846Z</time>
      </trkpt>
      <trkpt lat="48.2632622" lon="-2.0573042">
        <ele>85.293</ele>
        <time>2018-08-22T11:08:29.043Z</time>
      </trkpt>
      <trkpt lat="48.2633158" lon="-2.0574377">
        <ele>85.881</ele>
        <time>2018-08-22T11:08:33.303Z</time>
      </trkpt>
      <trkpt lat="48.2633651" lon="-2.0575625">
        <ele>86.609</ele>
        <time>2018-08-22T11:08:37.256Z</time>
      </trkpt>
      <trkpt lat="48.2634159" lon="-2.0576809">
        <ele>86.990</ele>
        <time>2018-08-22T11:08:41.196Z</time>
      </trkpt>
      <trkpt lat="48.2634722" lon="-2.0578006">
        <ele>86.895</ele>
        <time>2018-08-22T11:08:45.361Z</time>
      </trkpt>
      <trkpt lat="48.2635117" lon="-2.0579384">
        <ele>86.681</ele>
        <time>2018-08-22T11:08:49.642Z</time>
      </trkpt>
      <trkpt lat="48.2635580" lon="-2.0580605">
        <ele>86.662</ele>
        <time>2018-08-22T11:08:53.511Z</time>
      </trkpt>
      <trkpt lat="48.2636294" lon="-2.0581855">
        <ele>86.848</ele>
        <time>2018-08-22T11:08:57.630Z</time>
      </trkpt>
      <trkpt lat="48.2636783" lon="-2.0582990">
        <ele>87.206</ele>
        <time>2018-08-22T11:09:00.755Z</time>
      </trkpt>
      <trkpt lat="48.2637282" lon="-2.0584129">
        <ele>87.630</ele>
        <time>2018-08-22T11:09:03.810Z</time>
      </trkpt>
      <trkpt lat="48.2637812" lon="-2.0585330">
        <ele>87.890</ele>
        <time>2018-08-22T11:09:06.957Z</time>
      </trkpt>
      <trkpt lat="48.2638363" lon="-2.0586486">
        <ele>87.908</ele>
        <time>2018-08-22T11:09:09.958Z</time>
      </trkpt>
      <trkpt lat="48.2638968" lon="-2.0587700">
        <ele>87.867</ele>
        <time>2018-08-22T11:09:13.031Z</time>
      </trkpt>
      <trkpt lat="48.2639543" lon="-2.0589092">
        <ele>87.924</ele>
        <time>2018-08-22T11:09:16.197Z</time>
      </trkpt>
      <trkpt lat="48.2640086" lon="-2.0590558">
        <ele>87.996</ele>
        <time>2018-08-22T11:09:19.310Z</time>
      </trkpt>
      <trkpt lat="48.2640635" lon="-2.0592030">
        <ele>87.976</ele>
        <time>2018-08-22T11:09:22.386Z</time>
      </trkpt>
      <trkpt lat="48.2641182" lon="-2.0593457">
        <ele>87.908</ele>
        <time>2018-08-22T11:09:25.369Z</time>
      </trkpt>
      <trkpt lat="48.2641649" lon="-2.0594868">
        <ele>87.860</ele>
        <time>2018-08-22T11:09:28.250Z</time>
      </trkpt>
      <trkpt lat="48.2642073" lon="-2.0596243">
        <ele>87.842</ele>
        <time>2018-08-22T11:09:31.077Z</time>
      </trkpt>
      <trkpt lat="48.2642534" lon="-2.0597568">
        <ele>87.872</ele>
        <time>2018-08-22T11:09:33.883Z</time>
      </trkpt>
      <trkpt lat="48.2642893" lon="-2.0599084">
        <ele>87.977</ele>
        <time>2018-08-22T11:09:36.826Z</time>
      </trkpt>
      <trkpt lat="48.2643164" lon="-2.0600821">
        <ele>88.195</ele>
        <time>2018-08-22T11:09:39.897Z</time>
      </trkpt>
      <trkpt lat="48.2643446" lon="-2.0602583">
        <ele>88.499</ele>
        <time>2018-08-22T11:09:42.879Z</time>
      </trkpt>
      <trkpt lat="48.2643670" lon="-2.0604387">
        <ele>88.715</ele>
        <time>2018-08-22T11:09:45.845Z</time>
      </trkpt>
      <trkpt lat="48.2643938" lon="-2.0606281">
        <ele>88.633</ele>
        <time>2018-08-22T11:09:48.878Z</time>
      </trkpt>
      <trkpt lat="48.2644218" lon="-2.0608248">
        <ele>88.188</ele>
        <time>2018-08-22T11:09:51.908Z</time>
      </trkpt>
      <trkpt lat="48.2644476" lon="-2.0610263">
        <ele>87.539</ele>
        <time>2018-08-22T11:09:54.927Z</time>
      </trkpt>
      <trkpt lat="48.2644835" lon="-2.0612240">
        <ele>86.970</ele>
        <time>2018-08-22T11:09:57.893Z</time>
      </trkpt>
      <trkpt lat="48.2645227" lon="-2.0614360">
        <ele>86.550</ele>
        <time>2018-08-22T11:10:01.051Z</time>
      </trkpt>
      <trkpt lat="48.2645556" lon="-2.0616187">
        <ele>86.093</ele>
        <time>2018-08-22T11:10:03.803Z</time>
      </trkpt>
      <trkpt lat="48.2645867" lon="-2.0618168">
        <ele>85.361</ele>
        <time>2018-08-22T11:10:06.867Z</time>
      </trkpt>
      <trkpt lat="48.2646064" lon="-2.0620012">
        <ele>84.427</ele>
        <time>2018-08-22T11:10:09.850Z</time>
      </trkpt>
      <trkpt lat="48.2646271" lon="-2.0621692">
        <ele>83.688</ele>
        <time>2018-08-22T11:10:12.835Z</time>
      </trkpt>
      <trkpt lat="48.2646470" lon="-2.0623226">
        <ele>83.378</ele>
        <time>2018-08-22T11:10:15.761Z</time>
      </trkpt>
      <trkpt lat="48.2646712" lon="-2.0624684">
        <ele>83.367</ele>
        <time>2018-08-22T11:10:18.695Z</time>
      </trkpt>
      <trkpt lat="48.2646913" lon="-2.0626084">
        <ele>83.554</ele>
        <time>2018-08-22T11:10:21.622Z</time>
      </trkpt>
      <trkpt lat="48.2647160" lon="-2.0627691">
        <ele>83.871</ele>
        <time>2018-08-22T11:10:25.309Z</time>
      </trkpt>
      <trkpt lat="48.2647343" lon="-2.0629074">
        <ele>84.197</ele>
        <time>2018-08-22T11:10:28.953Z</time>
      </trkpt>
      <trkpt lat="48.2647543" lon="-2.0630638">
        <ele>84.444</ele>
        <time>2018-08-22T11:10:33.098Z</time>
      </trkpt>
      <trkpt lat="48.2647819" lon="-2.0632330">
        <ele>84.600</ele>
        <time>2018-08-22T11:10:37.302Z</time>
      </trkpt>
      <trkpt lat="48.2648079" lon="-2.0633972">
        <ele>84.673</ele>
        <time>2018-08-22T11:10:41.420Z</time>
      </trkpt>
      <trkpt lat="48.2648372" lon="-2.0635303">
        <ele>84.696</ele>
        <time>2018-08-22T11:10:45.257Z</time>
      </trkpt>
      <trkpt lat="48.2648555" lon="-2.0636798">
        <ele>84.834</ele>
        <time>2018-08-22T11:10:49.991Z</time>
      </trkpt>
      <trkpt lat="48.2648555" lon="-2.0636798">
        <ele>85.192</ele>
        <time>2018-08-22T11:11:01.990Z</time>
      </trkpt>
      <trkpt lat="48.2648555" lon="-2.0636798">
        <ele>85.480</ele>
        <time>2018-08-22T11:13:29.152Z</time>
      </trkpt>
      <trkpt lat="48.2647391" lon="-2.0639153">
        <ele>85.440</ele>
        <time>2018-08-22T11:13:41.522Z</time>
      </trkpt>
      <trkpt lat="48.2646818" lon="-2.0640535">
        <ele>85.462</ele>
        <time>2018-08-22T11:13:45.704Z</time>
      </trkpt>
      <trkpt lat="48.2646547" lon="-2.0641877">
        <ele>85.933</ele>
        <time>2018-08-22T11:13:49.533Z</time>
      </trkpt>
      <trkpt lat="48.2646233" lon="-2.0643188">
        <ele>86.582</ele>
        <time>2018-08-22T11:13:53.479Z</time>
      </trkpt>
      <trkpt lat="48.2646065" lon="-2.0644519">
        <ele>87.048</ele>
        <time>2018-08-22T11:13:57.228Z</time>
      </trkpt>
      <trkpt lat="48.2645800" lon="-2.0645944">
        <ele>87.383</ele>
        <time>2018-08-22T11:14:01.153Z</time>
      </trkpt>
      <trkpt lat="48.2645448" lon="-2.0647333">
        <ele>87.731</ele>
        <time>2018-08-22T11:14:05.055Z</time>
      </trkpt>
      <trkpt lat="48.2645263" lon="-2.0648736">
        <ele>88.102</ele>
        <time>2018-08-22T11:14:08.817Z</time>
      </trkpt>
      <trkpt lat="48.2645042" lon="-2.0650113">
        <ele>88.397</ele>
        <time>2018-08-22T11:14:12.558Z</time>
      </trkpt>
      <trkpt lat="48.2644782" lon="-2.0651523">
        <ele>88.605</ele>
        <time>2018-08-22T11:14:16.495Z</time>
      </trkpt>
      <trkpt lat="48.2644646" lon="-2.0652901">
        <ele>88.890</ele>
        <time>2018-08-22T11:14:20.770Z</time>
      </trkpt>
      <trkpt lat="48.2645072" lon="-2.0654135">
        <ele>89.312</ele>
        <time>2018-08-22T11:14:25.618Z</time>
      </trkpt>
      <trkpt lat="48.2646007" lon="-2.0654236">
        <ele>89.696</ele>
        <time>2018-08-22T11:14:31.006Z</time>
      </trkpt>
      <trkpt lat="48.2646909" lon="-2.0654439">
        <ele>89.771</ele>
        <time>2018-08-22T11:14:35.945Z</time>
      </trkpt>
      <trkpt lat="48.2647416" lon="-2.0655828">
        <ele>89.468</ele>
        <time>2018-08-22T11:14:41.398Z</time>
      </trkpt>
      <trkpt lat="48.2647358" lon="-2.0657447">
        <ele>89.026</ele>
        <time>2018-08-22T11:14:46.556Z</time>
      </trkpt>
      <trkpt lat="48.2647587" lon="-2.0659088">
        <ele>88.705</ele>
        <time>2018-08-22T11:14:51.519Z</time>
      </trkpt>
      <trkpt lat="48.2647347" lon="-2.0660478">
        <ele>88.511</ele>
        <time>2018-08-22T11:14:55.804Z</time>
      </trkpt>
      <trkpt lat="48.2646340" lon="-2.0660742">
        <ele>88.367</ele>
        <time>2018-08-22T11:15:00.998Z</time>
      </trkpt>
      <trkpt lat="48.2646340" lon="-2.0660742">
        <ele>88.270</ele>
        <time>2018-08-22T11:15:05.997Z</time>
      </trkpt>
      <trkpt lat="48.2646340" lon="-2.0660742">
        <ele>88.239</ele>
        <time>2018-08-22T11:15:26.762Z</time>
      </trkpt>
      <trkpt lat="48.2644698" lon="-2.0662854">
        <ele>88.244</ele>
        <time>2018-08-22T11:15:49.023Z</time>
      </trkpt>
      <trkpt lat="48.2644292" lon="-2.0664110">
        <ele>88.511</ele>
        <time>2018-08-22T11:15:55.150Z</time>
      </trkpt>
      <trkpt lat="48.2644291" lon="-2.0665569">
        <ele>89.179</ele>
        <time>2018-08-22T11:16:01.996Z</time>
      </trkpt>
      <trkpt lat="48.2644291" lon="-2.0665569">
        <ele>89.717</ele>
        <time>2018-08-22T11:16:19.996Z</time>
      </trkpt>
      <trkpt lat="48.2644291" lon="-2.0665569">
        <ele>89.670</ele>
        <time>2018-08-22T11:16:38.314Z</time>
      </trkpt>
      <trkpt lat="48.2643008" lon="-2.0666968">
        <ele>89.340</ele>
        <time>2018-08-22T11:17:00.995Z</time>
      </trkpt>
      <trkpt lat="48.2643008" lon="-2.0666968">
        <ele>89.128</ele>
        <time>2018-08-22T11:17:02.995Z</time>
      </trkpt>
      <trkpt lat="48.2643008" lon="-2.0666968">
        <ele>89.074</ele>
        <time>2018-08-22T11:17:10.374Z</time>
      </trkpt>
      <trkpt lat="48.2643619" lon="-2.0665754">
        <ele>89.091</ele>
        <time>2018-08-22T11:17:24.571Z</time>
      </trkpt>
      <trkpt lat="48.2644308" lon="-2.0664816">
        <ele>89.187</ele>
        <time>2018-08-22T11:17:33.994Z</time>
      </trkpt>
      <trkpt lat="48.2644308" lon="-2.0664816">
        <ele>89.362</ele>
        <time>2018-08-22T11:17:35.994Z</time>
      </trkpt>
      <trkpt lat="48.2644308" lon="-2.0664816">
        <ele>89.469</ele>
        <time>2018-08-22T11:17:57.994Z</time>
      </trkpt>
      <trkpt lat="48.2644308" lon="-2.0664816">
        <ele>89.427</ele>
        <time>2018-08-22T11:18:38.407Z</time>
      </trkpt>
      <trkpt lat="48.2645691" lon="-2.0665457">
        <ele>89.325</ele>
        <time>2018-08-22T11:19:56.840Z</time>
      </trkpt>
      <trkpt lat="48.2644754" lon="-2.0665749">
        <ele>89.276</ele>
        <time>2018-08-22T11:20:18.995Z</time>
      </trkpt>
      <trkpt lat="48.2644754" lon="-2.0665749">
        <ele>89.270</ele>
        <time>2018-08-22T11:20:23.996Z</time>
      </trkpt>
      <trkpt lat="48.2644754" lon="-2.0665749">
        <ele>89.248</ele>
        <time>2018-08-22T11:21:41.915Z</time>
      </trkpt>
      <trkpt lat="48.2643324" lon="-2.0665738">
        <ele>89.204</ele>
        <time>2018-08-22T11:22:34.997Z</time>
      </trkpt>
      <trkpt lat="48.2643324" lon="-2.0665738">
        <ele>89.174</ele>
        <time>2018-08-22T11:22:37.997Z</time>
      </trkpt>
      <trkpt lat="48.2643324" lon="-2.0665738">
        <ele>89.154</ele>
        <time>2018-08-22T11:22:57.997Z</time>
      </trkpt>
      <trkpt lat="48.2643324" lon="-2.0665738">
        <ele>89.125</ele>
        <time>2018-08-22T11:23:07.996Z</time>
      </trkpt>
      <trkpt lat="48.2643324" lon="-2.0665738">
        <ele>89.090</ele>
        <time>2018-08-22T11:23:38.996Z</time>
      </trkpt>
      <trkpt lat="48.2643324" lon="-2.0665738">
        <ele>89.058</ele>
        <time>2018-08-22T11:23:44.570Z</time>
      </trkpt>
      <trkpt lat="48.2643324" lon="-2.0665738">
        <ele>89.003</ele>
        <time>2018-08-22T11:24:07.995Z</time>
      </trkpt>
      <trkpt lat="48.2643324" lon="-2.0665738">
        <ele>88.979</ele>
        <time>2018-08-22T12:09:39.997Z</time>
      </trkpt>
      <trkpt lat="48.2643324" lon="-2.0665738">
        <ele>88.949</ele>
        <time>2018-08-22T12:09:56.997Z</time>
      </trkpt>
      <trkpt lat="48.2643324" lon="-2.0665738">
        <ele>88.915</ele>
        <time>2018-08-22T12:18:15.986Z</time>
      </trkpt>
      <trkpt lat="48.2643324" lon="-2.0665738">
        <ele>88.884</ele>
        <time>2018-08-22T12:18:16.086Z</time>
      </trkpt>
      <trkpt lat="48.2643324" lon="-2.0665738">
        <ele>88.829</ele>
        <time>2018-08-22T12:19:10.998Z</time>
      </trkpt>
      <trkpt lat="48.2643324" lon="-2.0665738">
        <ele>88.804</ele>
        <time>2018-08-22T12:19:11.098Z</time>
      </trkpt>
      <trkpt lat="48.2643324" lon="-2.0665738">
        <ele>88.744</ele>
        <time>2018-08-22T12:19:12.998Z</time>
      </trkpt>
      <trkpt lat="48.2643324" lon="-2.0665738">
        <ele>88.718</ele>
        <time>2018-08-22T12:20:05.736Z</time>
      </trkpt>
      <trkpt lat="48.2643324" lon="-2.0665738">
        <ele>88.660</ele>
        <time>2018-08-22T12:20:23.998Z</time>
      </trkpt>
      <trkpt lat="48.2643324" lon="-2.0665738">
        <ele>88.635</ele>
        <time>2018-08-22T12:24:30.992Z</time>
      </trkpt>
      <trkpt lat="48.2643324" lon="-2.0665738">
        <ele>88.606</ele>
        <time>2018-08-22T12:26:32.862Z</time>
      </trkpt>
      <trkpt lat="48.2643425" lon="-2.0663841">
        <ele>88.573</ele>
        <time>2018-08-22T12:26:54.731Z</time>
      </trkpt>
      <trkpt lat="48.2643771" lon="-2.0662593">
        <ele>88.145</ele>
        <time>2018-08-22T12:27:03.490Z</time>
      </trkpt>
      <trkpt lat="48.2644276" lon="-2.0661390">
        <ele>87.004</ele>
        <time>2018-08-22T12:27:11.694Z</time>
      </trkpt>
      <trkpt lat="48.2644600" lon="-2.0660013">
        <ele>85.713</ele>
        <time>2018-08-22T12:27:19.569Z</time>
      </trkpt>
      <trkpt lat="48.2644751" lon="-2.0658525">
        <ele>85.012</ele>
        <time>2018-08-22T12:27:27.482Z</time>
      </trkpt>
      <trkpt lat="48.2644876" lon="-2.0657154">
        <ele>84.908</ele>
        <time>2018-08-22T12:27:35.094Z</time>
      </trkpt>
      <trkpt lat="48.2645117" lon="-2.0655798">
        <ele>85.032</ele>
        <time>2018-08-22T12:27:44.174Z</time>
      </trkpt>
      <trkpt lat="48.2645239" lon="-2.0654434">
        <ele>85.020</ele>
        <time>2018-08-22T12:27:55.456Z</time>
      </trkpt>
      <trkpt lat="48.2644330" lon="-2.0654541">
        <ele>84.788</ele>
        <time>2018-08-22T12:28:19.775Z</time>
      </trkpt>
      <trkpt lat="48.2643893" lon="-2.0655802">
        <ele>84.701</ele>
        <time>2018-08-22T12:28:45.029Z</time>
      </trkpt>
      <trkpt lat="48.2643311" lon="-2.0657210">
        <ele>85.015</ele>
        <time>2018-08-22T12:29:14.481Z</time>
      </trkpt>
      <trkpt lat="48.2642503" lon="-2.0658243">
        <ele>85.361</ele>
        <time>2018-08-22T12:29:37.189Z</time>
      </trkpt>
      <trkpt lat="48.2641489" lon="-2.0659241">
        <ele>85.377</ele>
        <time>2018-08-22T12:30:02.790Z</time>
      </trkpt>
      <trkpt lat="48.2640684" lon="-2.0659975">
        <ele>85.318</ele>
        <time>2018-08-22T12:30:22.679Z</time>
      </trkpt>
      <trkpt lat="48.2639658" lon="-2.0660748">
        <ele>85.578</ele>
        <time>2018-08-22T12:30:46.933Z</time>
      </trkpt>
      <trkpt lat="48.2638881" lon="-2.0662038">
        <ele>86.260</ele>
        <time>2018-08-22T12:31:11.396Z</time>
      </trkpt>
      <trkpt lat="48.2638113" lon="-2.0663387">
        <ele>87.158</ele>
        <time>2018-08-22T12:31:36.352Z</time>
      </trkpt>
      <trkpt lat="48.2637325" lon="-2.0664632">
        <ele>87.980</ele>
        <time>2018-08-22T12:31:52.112Z</time>
      </trkpt>
      <trkpt lat="48.2636579" lon="-2.0665905">
        <ele>88.641</ele>
        <time>2018-08-22T12:31:57.059Z</time>
      </trkpt>
      <trkpt lat="48.2635861" lon="-2.0667161">
        <ele>89.156</ele>
        <time>2018-08-22T12:32:01.204Z</time>
      </trkpt>
      <trkpt lat="48.2635054" lon="-2.0668437">
        <ele>89.377</ele>
        <time>2018-08-22T12:32:05.539Z</time>
      </trkpt>
      <trkpt lat="48.2634252" lon="-2.0669689">
        <ele>89.281</ele>
        <time>2018-08-22T12:32:09.851Z</time>
      </trkpt>
      <trkpt lat="48.2633492" lon="-2.0670845">
        <ele>89.082</ele>
        <time>2018-08-22T12:32:13.904Z</time>
      </trkpt>
      <trkpt lat="48.2632784" lon="-2.0671923">
        <ele>88.944</ele>
        <time>2018-08-22T12:32:17.727Z</time>
      </trkpt>
      <trkpt lat="48.2631899" lon="-2.0672945">
        <ele>88.866</ele>
        <time>2018-08-22T12:32:22.026Z</time>
      </trkpt>
      <trkpt lat="48.2631013" lon="-2.0673896">
        <ele>88.831</ele>
        <time>2018-08-22T12:32:26.266Z</time>
      </trkpt>
      <trkpt lat="48.2630051" lon="-2.0674558">
        <ele>88.813</ele>
        <time>2018-08-22T12:32:30.363Z</time>
      </trkpt>
      <trkpt lat="48.2629107" lon="-2.0675175">
        <ele>88.786</ele>
        <time>2018-08-22T12:32:34.306Z</time>
      </trkpt>
      <trkpt lat="48.2628141" lon="-2.0675757">
        <ele>88.876</ele>
        <time>2018-08-22T12:32:38.363Z</time>
      </trkpt>
      <trkpt lat="48.2627202" lon="-2.0676285">
        <ele>89.328</ele>
        <time>2018-08-22T12:32:42.386Z</time>
      </trkpt>
      <trkpt lat="48.2626383" lon="-2.0676849">
        <ele>90.163</ele>
        <time>2018-08-22T12:32:46.038Z</time>
      </trkpt>
      <trkpt lat="48.2625405" lon="-2.0677365">
        <ele>91.066</ele>
        <time>2018-08-22T12:32:50.263Z</time>
      </trkpt>
      <trkpt lat="48.2624349" lon="-2.0678058">
        <ele>91.812</ele>
        <time>2018-08-22T12:32:55.013Z</time>
      </trkpt>
      <trkpt lat="48.2623331" lon="-2.0678827">
        <ele>92.450</ele>
        <time>2018-08-22T12:32:59.765Z</time>
      </trkpt>
      <trkpt lat="48.2622250" lon="-2.0679586">
        <ele>93.010</ele>
        <time>2018-08-22T12:33:04.827Z</time>
      </trkpt>
      <trkpt lat="48.2621398" lon="-2.0680089">
        <ele>93.420</ele>
        <time>2018-08-22T12:33:08.827Z</time>
      </trkpt>
      <trkpt lat="48.2620556" lon="-2.0680619">
        <ele>93.657</ele>
        <time>2018-08-22T12:33:12.791Z</time>
      </trkpt>
      <trkpt lat="48.2619606" lon="-2.0681106">
        <ele>93.750</ele>
        <time>2018-08-22T12:33:16.931Z</time>
      </trkpt>
      <trkpt lat="48.2618765" lon="-2.0681593">
        <ele>93.742</ele>
        <time>2018-08-22T12:33:20.464Z</time>
      </trkpt>
      <trkpt lat="48.2617871" lon="-2.0682174">
        <ele>93.655</ele>
        <time>2018-08-22T12:33:24.149Z</time>
      </trkpt>
      <trkpt lat="48.2617022" lon="-2.0682796">
        <ele>93.524</ele>
        <time>2018-08-22T12:33:27.650Z</time>
      </trkpt>
      <trkpt lat="48.2616140" lon="-2.0683386">
        <ele>93.471</ele>
        <time>2018-08-22T12:33:31.164Z</time>
      </trkpt>
      <trkpt lat="48.2615222" lon="-2.0684036">
        <ele>93.562</ele>
        <time>2018-08-22T12:33:34.789Z</time>
      </trkpt>
      <trkpt lat="48.2614301" lon="-2.0684594">
        <ele>93.722</ele>
        <time>2018-08-22T12:33:38.336Z</time>
      </trkpt>
      <trkpt lat="48.2613471" lon="-2.0685233">
        <ele>93.897</ele>
        <time>2018-08-22T12:33:41.635Z</time>
      </trkpt>
      <trkpt lat="48.2612742" lon="-2.0686110">
        <ele>94.178</ele>
        <time>2018-08-22T12:33:44.879Z</time>
      </trkpt>
      <trkpt lat="48.2613069" lon="-2.0684724">
        <ele>94.613</ele>
        <time>2018-08-22T12:33:48.197Z</time>
      </trkpt>
      <trkpt lat="48.2614007" lon="-2.0684250">
        <ele>95.084</ele>
        <time>2018-08-22T12:33:51.522Z</time>
      </trkpt>
      <trkpt lat="48.2614994" lon="-2.0683796">
        <ele>95.388</ele>
        <time>2018-08-22T12:33:55.182Z</time>
      </trkpt>
      <trkpt lat="48.2615887" lon="-2.0683346">
        <ele>95.530</ele>
        <time>2018-08-22T12:33:59.044Z</time>
      </trkpt>
      <trkpt lat="48.2616838" lon="-2.0682778">
        <ele>95.661</ele>
        <time>2018-08-22T12:34:06.729Z</time>
      </trkpt>
      <trkpt lat="48.2616253" lon="-2.0683912">
        <ele>95.938</ele>
        <time>2018-08-22T12:34:12.858Z</time>
      </trkpt>
      <trkpt lat="48.2615346" lon="-2.0684374">
        <ele>96.435</ele>
        <time>2018-08-22T12:34:17.803Z</time>
      </trkpt>
      <trkpt lat="48.2614247" lon="-2.0684866">
        <ele>97.067</ele>
        <time>2018-08-22T12:34:24.568Z</time>
      </trkpt>
      <trkpt lat="48.2613420" lon="-2.0685400">
        <ele>97.868</ele>
        <time>2018-08-22T12:34:33.197Z</time>
      </trkpt>
      <trkpt lat="48.2612562" lon="-2.0685909">
        <ele>98.862</ele>
        <time>2018-08-22T12:34:38.893Z</time>
      </trkpt>
      <trkpt lat="48.2611692" lon="-2.0686377">
        <ele>99.519</ele>
        <time>2018-08-22T12:34:42.709Z</time>
      </trkpt>
      <trkpt lat="48.2610847" lon="-2.0686940">
        <ele>99.423</ele>
        <time>2018-08-22T12:34:46.093Z</time>
      </trkpt>
      <trkpt lat="48.2609965" lon="-2.0687486">
        <ele>98.787</ele>
        <time>2018-08-22T12:34:49.434Z</time>
      </trkpt>
      <trkpt lat="48.2609081" lon="-2.0687962">
        <ele>98.026</ele>
        <time>2018-08-22T12:34:52.702Z</time>
      </trkpt>
      <trkpt lat="48.2608239" lon="-2.0688455">
        <ele>97.510</ele>
        <time>2018-08-22T12:34:55.831Z</time>
      </trkpt>
      <trkpt lat="48.2607201" lon="-2.0689207">
        <ele>97.496</ele>
        <time>2018-08-22T12:34:59.838Z</time>
      </trkpt>
      <trkpt lat="48.2606141" lon="-2.0690022">
        <ele>97.909</ele>
        <time>2018-08-22T12:35:04.064Z</time>
      </trkpt>
      <trkpt lat="48.2605253" lon="-2.0690618">
        <ele>98.383</ele>
        <time>2018-08-22T12:35:07.577Z</time>
      </trkpt>
      <trkpt lat="48.2604364" lon="-2.0691122">
        <ele>98.708</ele>
        <time>2018-08-22T12:35:11.010Z</time>
      </trkpt>
      <trkpt lat="48.2603466" lon="-2.0691667">
        <ele>98.987</ele>
        <time>2018-08-22T12:35:14.444Z</time>
      </trkpt>
      <trkpt lat="48.2602520" lon="-2.0692313">
        <ele>99.349</ele>
        <time>2018-08-22T12:35:18.036Z</time>
      </trkpt>
      <trkpt lat="48.2601586" lon="-2.0693067">
        <ele>99.771</ele>
        <time>2018-08-22T12:35:21.581Z</time>
      </trkpt>
      <trkpt lat="48.2600554" lon="-2.0693836">
        <ele>100.179</ele>
        <time>2018-08-22T12:35:25.279Z</time>
      </trkpt>
      <trkpt lat="48.2599616" lon="-2.0694495">
        <ele>100.528</ele>
        <time>2018-08-22T12:35:28.473Z</time>
      </trkpt>
      <trkpt lat="48.2598708" lon="-2.0695113">
        <ele>100.756</ele>
        <time>2018-08-22T12:35:31.525Z</time>
      </trkpt>
      <trkpt lat="48.2597866" lon="-2.0695798">
        <ele>100.819</ele>
        <time>2018-08-22T12:35:34.510Z</time>
      </trkpt>
      <trkpt lat="48.2596991" lon="-2.0696310">
        <ele>100.650</ele>
        <time>2018-08-22T12:35:37.499Z</time>
      </trkpt>
      <trkpt lat="48.2596019" lon="-2.0696936">
        <ele>100.195</ele>
        <time>2018-08-22T12:35:40.914Z</time>
      </trkpt>
      <trkpt lat="48.2595019" lon="-2.0697685">
        <ele>99.723</ele>
        <time>2018-08-22T12:35:44.492Z</time>
      </trkpt>
      <trkpt lat="48.2594022" lon="-2.0698475">
        <ele>99.564</ele>
        <time>2018-08-22T12:35:47.993Z</time>
      </trkpt>
      <trkpt lat="48.2594022" lon="-2.0698475">
        <ele>99.680</ele>
        <time>2018-08-22T12:35:48.993Z</time>
      </trkpt>
      <trkpt lat="48.2594022" lon="-2.0698475">
        <ele>99.797</ele>
        <time>2018-08-22T12:35:49.093Z</time>
      </trkpt>
      <trkpt lat="48.2592255" lon="-2.0699775">
        <ele>99.757</ele>
        <time>2018-08-22T12:35:56.105Z</time>
      </trkpt>
      <trkpt lat="48.2591150" lon="-2.0700465">
        <ele>99.777</ele>
        <time>2018-08-22T12:35:59.144Z</time>
      </trkpt>
      <trkpt lat="48.2590039" lon="-2.0701111">
        <ele>100.050</ele>
        <time>2018-08-22T12:36:02.163Z</time>
      </trkpt>
      <trkpt lat="48.2588956" lon="-2.0701807">
        <ele>100.363</ele>
        <time>2018-08-22T12:36:05.150Z</time>
      </trkpt>
      <trkpt lat="48.2587878" lon="-2.0702469">
        <ele>100.396</ele>
        <time>2018-08-22T12:36:08.148Z</time>
      </trkpt>
      <trkpt lat="48.2586861" lon="-2.0703121">
        <ele>100.147</ele>
        <time>2018-08-22T12:36:11.040Z</time>
      </trkpt>
      <trkpt lat="48.2585838" lon="-2.0703718">
        <ele>99.914</ele>
        <time>2018-08-22T12:36:13.890Z</time>
      </trkpt>
      <trkpt lat="48.2584758" lon="-2.0704306">
        <ele>99.906</ele>
        <time>2018-08-22T12:36:16.840Z</time>
      </trkpt>
      <trkpt lat="48.2583715" lon="-2.0704799">
        <ele>100.019</ele>
        <time>2018-08-22T12:36:19.649Z</time>
      </trkpt>
      <trkpt lat="48.2582632" lon="-2.0705239">
        <ele>100.147</ele>
        <time>2018-08-22T12:36:22.563Z</time>
      </trkpt>
      <trkpt lat="48.2581541" lon="-2.0705597">
        <ele>100.411</ele>
        <time>2018-08-22T12:36:25.512Z</time>
      </trkpt>
      <trkpt lat="48.2580485" lon="-2.0705932">
        <ele>100.894</ele>
        <time>2018-08-22T12:36:28.407Z</time>
      </trkpt>
      <trkpt lat="48.2579444" lon="-2.0706265">
        <ele>101.429</ele>
        <time>2018-08-22T12:36:31.309Z</time>
      </trkpt>
      <trkpt lat="48.2578417" lon="-2.0706566">
        <ele>101.982</ele>
        <time>2018-08-22T12:36:34.228Z</time>
      </trkpt>
      <trkpt lat="48.2577459" lon="-2.0706763">
        <ele>102.618</ele>
        <time>2018-08-22T12:36:36.990Z</time>
      </trkpt>
      <trkpt lat="48.2576452" lon="-2.0706911">
        <ele>103.132</ele>
        <time>2018-08-22T12:36:39.841Z</time>
      </trkpt>
      <trkpt lat="48.2575328" lon="-2.0707071">
        <ele>103.345</ele>
        <time>2018-08-22T12:36:42.860Z</time>
      </trkpt>
      <trkpt lat="48.2574149" lon="-2.0707265">
        <ele>103.357</ele>
        <time>2018-08-22T12:36:45.811Z</time>
      </trkpt>
      <trkpt lat="48.2572901" lon="-2.0707493">
        <ele>103.290</ele>
        <time>2018-08-22T12:36:48.735Z</time>
      </trkpt>
      <trkpt lat="48.2571613" lon="-2.0707857">
        <ele>103.205</ele>
        <time>2018-08-22T12:36:51.653Z</time>
      </trkpt>
      <trkpt lat="48.2570231" lon="-2.0708003">
        <ele>103.144</ele>
        <time>2018-08-22T12:36:54.684Z</time>
      </trkpt>
      <trkpt lat="48.2568819" lon="-2.0708338">
        <ele>103.102</ele>
        <time>2018-08-22T12:36:57.947Z</time>
      </trkpt>
      <trkpt lat="48.2567661" lon="-2.0708669">
        <ele>103.008</ele>
        <time>2018-08-22T12:37:00.994Z</time>
      </trkpt>
      <trkpt lat="48.2566734" lon="-2.0709064">
        <ele>102.848</ele>
        <time>2018-08-22T12:37:03.857Z</time>
      </trkpt>
      <trkpt lat="48.2565576" lon="-2.0709291">
        <ele>102.753</ele>
        <time>2018-08-22T12:37:07.651Z</time>
      </trkpt>
      <trkpt lat="48.2564483" lon="-2.0709374">
        <ele>102.842</ele>
        <time>2018-08-22T12:37:11.461Z</time>
      </trkpt>
      <trkpt lat="48.2563481" lon="-2.0709554">
        <ele>103.043</ele>
        <time>2018-08-22T12:37:15.275Z</time>
      </trkpt>
      <trkpt lat="48.2562560" lon="-2.0709886">
        <ele>103.164</ele>
        <time>2018-08-22T12:37:19.348Z</time>
      </trkpt>
      <trkpt lat="48.2561610" lon="-2.0710170">
        <ele>103.122</ele>
        <time>2018-08-22T12:37:24.082Z</time>
      </trkpt>
      <trkpt lat="48.2560667" lon="-2.0710493">
        <ele>103.006</ele>
        <time>2018-08-22T12:37:28.990Z</time>
      </trkpt>
      <trkpt lat="48.2560667" lon="-2.0710493">
        <ele>102.921</ele>
        <time>2018-08-22T12:37:33.990Z</time>
      </trkpt>
      <trkpt lat="48.2560667" lon="-2.0710493">
        <ele>102.871</ele>
        <time>2018-08-22T12:37:55.272Z</time>
      </trkpt>
      <trkpt lat="48.2558814" lon="-2.0710816">
        <ele>102.832</ele>
        <time>2018-08-22T12:38:06.636Z</time>
      </trkpt>
      <trkpt lat="48.2557679" lon="-2.0710924">
        <ele>102.616</ele>
        <time>2018-08-22T12:38:09.631Z</time>
      </trkpt>
      <trkpt lat="48.2556519" lon="-2.0711284">
        <ele>102.114</ele>
        <time>2018-08-22T12:38:12.333Z</time>
      </trkpt>
      <trkpt lat="48.2555301" lon="-2.0711604">
        <ele>101.609</ele>
        <time>2018-08-22T12:38:14.994Z</time>
      </trkpt>
      <trkpt lat="48.2554073" lon="-2.0711860">
        <ele>101.348</ele>
        <time>2018-08-22T12:38:17.606Z</time>
      </trkpt>
      <trkpt lat="48.2552802" lon="-2.0712114">
        <ele>101.157</ele>
        <time>2018-08-22T12:38:20.304Z</time>
      </trkpt>
      <trkpt lat="48.2551571" lon="-2.0712313">
        <ele>100.883</ele>
        <time>2018-08-22T12:38:22.954Z</time>
      </trkpt>
      <trkpt lat="48.2550506" lon="-2.0712647">
        <ele>100.624</ele>
        <time>2018-08-22T12:38:25.362Z</time>
      </trkpt>
      <trkpt lat="48.2549378" lon="-2.0712863">
        <ele>100.495</ele>
        <time>2018-08-22T12:38:27.989Z</time>
      </trkpt>
      <trkpt lat="48.2549378" lon="-2.0712863">
        <ele>100.448</ele>
        <time>2018-08-22T12:38:28.989Z</time>
      </trkpt>
      <trkpt lat="48.2549378" lon="-2.0712863">
        <ele>100.416</ele>
        <time>2018-08-22T12:38:29.089Z</time>
      </trkpt>
      <trkpt lat="48.2547635" lon="-2.0713299">
        <ele>100.387</ele>
        <time>2018-08-22T12:38:36.110Z</time>
      </trkpt>
      <trkpt lat="48.2546545" lon="-2.0713580">
        <ele>100.375</ele>
        <time>2018-08-22T12:38:39.152Z</time>
      </trkpt>
      <trkpt lat="48.2545471" lon="-2.0714160">
        <ele>100.375</ele>
        <time>2018-08-22T12:38:42.223Z</time>
      </trkpt>
      <trkpt lat="48.2544419" lon="-2.0714862">
        <ele>100.328</ele>
        <time>2018-08-22T12:38:45.373Z</time>
      </trkpt>
      <trkpt lat="48.2543497" lon="-2.0715671">
        <ele>100.102</ele>
        <time>2018-08-22T12:38:48.384Z</time>
      </trkpt>
      <trkpt lat="48.2542605" lon="-2.0716495">
        <ele>99.718</ele>
        <time>2018-08-22T12:38:51.461Z</time>
      </trkpt>
      <trkpt lat="48.2541795" lon="-2.0717295">
        <ele>99.428</ele>
        <time>2018-08-22T12:38:54.412Z</time>
      </trkpt>
      <trkpt lat="48.2540981" lon="-2.0718045">
        <ele>99.412</ele>
        <time>2018-08-22T12:38:57.360Z</time>
      </trkpt>
      <trkpt lat="48.2540207" lon="-2.0718858">
        <ele>99.576</ele>
        <time>2018-08-22T12:39:00.314Z</time>
      </trkpt>
      <trkpt lat="48.2539467" lon="-2.0719703">
        <ele>99.738</ele>
        <time>2018-08-22T12:39:03.236Z</time>
      </trkpt>
      <trkpt lat="48.2538724" lon="-2.0720547">
        <ele>99.813</ele>
        <time>2018-08-22T12:39:06.166Z</time>
      </trkpt>
      <trkpt lat="48.2537989" lon="-2.0721461">
        <ele>99.882</ele>
        <time>2018-08-22T12:39:09.115Z</time>
      </trkpt>
      <trkpt lat="48.2537151" lon="-2.0722371">
        <ele>100.024</ele>
        <time>2018-08-22T12:39:12.279Z</time>
      </trkpt>
      <trkpt lat="48.2536349" lon="-2.0723175">
        <ele>100.174</ele>
        <time>2018-08-22T12:39:15.221Z</time>
      </trkpt>
      <trkpt lat="48.2535522" lon="-2.0724049">
        <ele>100.283</ele>
        <time>2018-08-22T12:39:18.269Z</time>
      </trkpt>
      <trkpt lat="48.2534675" lon="-2.0724924">
        <ele>100.434</ele>
        <time>2018-08-22T12:39:21.336Z</time>
      </trkpt>
      <trkpt lat="48.2533843" lon="-2.0725797">
        <ele>100.638</ele>
        <time>2018-08-22T12:39:24.310Z</time>
      </trkpt>
      <trkpt lat="48.2533019" lon="-2.0726712">
        <ele>100.690</ele>
        <time>2018-08-22T12:39:27.197Z</time>
      </trkpt>
      <trkpt lat="48.2532122" lon="-2.0727696">
        <ele>100.478</ele>
        <time>2018-08-22T12:39:30.204Z</time>
      </trkpt>
      <trkpt lat="48.2531183" lon="-2.0728649">
        <ele>100.239</ele>
        <time>2018-08-22T12:39:33.221Z</time>
      </trkpt>
      <trkpt lat="48.2530199" lon="-2.0729614">
        <ele>100.313</ele>
        <time>2018-08-22T12:39:36.311Z</time>
      </trkpt>
      <trkpt lat="48.2529186" lon="-2.0730550">
        <ele>100.742</ele>
        <time>2018-08-22T12:39:39.411Z</time>
      </trkpt>
      <trkpt lat="48.2528246" lon="-2.0731524">
        <ele>101.244</ele>
        <time>2018-08-22T12:39:42.312Z</time>
      </trkpt>
      <trkpt lat="48.2527270" lon="-2.0732599">
        <ele>101.543</ele>
        <time>2018-08-22T12:39:45.259Z</time>
      </trkpt>
      <trkpt lat="48.2526259" lon="-2.0733691">
        <ele>101.770</ele>
        <time>2018-08-22T12:39:48.228Z</time>
      </trkpt>
      <trkpt lat="48.2525171" lon="-2.0734704">
        <ele>102.177</ele>
        <time>2018-08-22T12:39:51.192Z</time>
      </trkpt>
      <trkpt lat="48.2524022" lon="-2.0735834">
        <ele>102.681</ele>
        <time>2018-08-22T12:39:54.265Z</time>
      </trkpt>
      <trkpt lat="48.2522794" lon="-2.0736462">
        <ele>103.012</ele>
        <time>2018-08-22T12:39:57.129Z</time>
      </trkpt>
      <trkpt lat="48.2521538" lon="-2.0736775">
        <ele>103.050</ele>
        <time>2018-08-22T12:39:59.825Z</time>
      </trkpt>
      <trkpt lat="48.2520015" lon="-2.0737000">
        <ele>102.861</ele>
        <time>2018-08-22T12:40:02.855Z</time>
      </trkpt>
      <trkpt lat="48.2518356" lon="-2.0737142">
        <ele>102.590</ele>
        <time>2018-08-22T12:40:05.954Z</time>
      </trkpt>
      <trkpt lat="48.2516742" lon="-2.0737183">
        <ele>102.308</ele>
        <time>2018-08-22T12:40:08.814Z</time>
      </trkpt>
      <trkpt lat="48.2514928" lon="-2.0737127">
        <ele>102.006</ele>
        <time>2018-08-22T12:40:11.884Z</time>
      </trkpt>
      <trkpt lat="48.2513719" lon="-2.0737072">
        <ele>101.631</ele>
        <time>2018-08-22T12:40:13.887Z</time>
      </trkpt>
      <trkpt lat="48.2511848" lon="-2.0737087">
        <ele>101.212</ele>
        <time>2018-08-22T12:40:16.871Z</time>
      </trkpt>
      <trkpt lat="48.2509987" lon="-2.0737439">
        <ele>100.914</ele>
        <time>2018-08-22T12:40:19.764Z</time>
      </trkpt>
      <trkpt lat="48.2507984" lon="-2.0738040">
        <ele>100.593</ele>
        <time>2018-08-22T12:40:22.902Z</time>
      </trkpt>
      <trkpt lat="48.2506166" lon="-2.0739227">
        <ele>99.993</ele>
        <time>2018-08-22T12:40:26.038Z</time>
      </trkpt>
      <trkpt lat="48.2504669" lon="-2.0740783">
        <ele>99.260</ele>
        <time>2018-08-22T12:40:29.010Z</time>
      </trkpt>
      <trkpt lat="48.2503153" lon="-2.0742337">
        <ele>98.666</ele>
        <time>2018-08-22T12:40:32.053Z</time>
      </trkpt>
      <trkpt lat="48.2502158" lon="-2.0743365">
        <ele>98.292</ele>
        <time>2018-08-22T12:40:34.080Z</time>
      </trkpt>
      <trkpt lat="48.2501124" lon="-2.0744319">
        <ele>98.114</ele>
        <time>2018-08-22T12:40:36.148Z</time>
      </trkpt>
      <trkpt lat="48.2500135" lon="-2.0745360">
        <ele>98.007</ele>
        <time>2018-08-22T12:40:38.239Z</time>
      </trkpt>
      <trkpt lat="48.2499165" lon="-2.0746276">
        <ele>97.854</ele>
        <time>2018-08-22T12:40:40.245Z</time>
      </trkpt>
      <trkpt lat="48.2498247" lon="-2.0747247">
        <ele>97.633</ele>
        <time>2018-08-22T12:40:42.244Z</time>
      </trkpt>
      <trkpt lat="48.2497298" lon="-2.0748214">
        <ele>97.418</ele>
        <time>2018-08-22T12:40:44.331Z</time>
      </trkpt>
      <trkpt lat="48.2496396" lon="-2.0749110">
        <ele>97.199</ele>
        <time>2018-08-22T12:40:46.319Z</time>
      </trkpt>
      <trkpt lat="48.2495467" lon="-2.0750054">
        <ele>96.922</ele>
        <time>2018-08-22T12:40:48.370Z</time>
      </trkpt>
      <trkpt lat="48.2494553" lon="-2.0751004">
        <ele>96.658</ele>
        <time>2018-08-22T12:40:50.372Z</time>
      </trkpt>
      <trkpt lat="48.2493643" lon="-2.0751978">
        <ele>96.494</ele>
        <time>2018-08-22T12:40:52.352Z</time>
      </trkpt>
      <trkpt lat="48.2492747" lon="-2.0753059">
        <ele>96.419</ele>
        <time>2018-08-22T12:40:54.373Z</time>
      </trkpt>
      <trkpt lat="48.2491873" lon="-2.0754214">
        <ele>96.386</ele>
        <time>2018-08-22T12:40:56.428Z</time>
      </trkpt>
      <trkpt lat="48.2491151" lon="-2.0755456">
        <ele>96.364</ele>
        <time>2018-08-22T12:40:58.396Z</time>
      </trkpt>
      <trkpt lat="48.2490511" lon="-2.0756853">
        <ele>96.378</ele>
        <time>2018-08-22T12:41:00.455Z</time>
      </trkpt>
      <trkpt lat="48.2490001" lon="-2.0758266">
        <ele>96.479</ele>
        <time>2018-08-22T12:41:02.434Z</time>
      </trkpt>
      <trkpt lat="48.2489407" lon="-2.0759762">
        <ele>96.672</ele>
        <time>2018-08-22T12:41:04.606Z</time>
      </trkpt>
      <trkpt lat="48.2488960" lon="-2.0761216">
        <ele>96.882</ele>
        <time>2018-08-22T12:41:06.656Z</time>
      </trkpt>
      <trkpt lat="48.2488508" lon="-2.0762707">
        <ele>97.031</ele>
        <time>2018-08-22T12:41:08.855Z</time>
      </trkpt>
      <trkpt lat="48.2488158" lon="-2.0764189">
        <ele>97.096</ele>
        <time>2018-08-22T12:41:11.125Z</time>
      </trkpt>
      <trkpt lat="48.2487749" lon="-2.0765450">
        <ele>97.044</ele>
        <time>2018-08-22T12:41:13.202Z</time>
      </trkpt>
      <trkpt lat="48.2487263" lon="-2.0767251">
        <ele>96.815</ele>
        <time>2018-08-22T12:41:16.157Z</time>
      </trkpt>
      <trkpt lat="48.2486902" lon="-2.0768514">
        <ele>96.546</ele>
        <time>2018-08-22T12:41:18.296Z</time>
      </trkpt>
      <trkpt lat="48.2486248" lon="-2.0770136">
        <ele>96.486</ele>
        <time>2018-08-22T12:41:21.365Z</time>
      </trkpt>
      <trkpt lat="48.2485669" lon="-2.0771793">
        <ele>96.677</ele>
        <time>2018-08-22T12:41:24.665Z</time>
      </trkpt>
      <trkpt lat="48.2485090" lon="-2.0773100">
        <ele>96.974</ele>
        <time>2018-08-22T12:41:27.720Z</time>
      </trkpt>
      <trkpt lat="48.2484499" lon="-2.0774260">
        <ele>97.458</ele>
        <time>2018-08-22T12:41:30.740Z</time>
      </trkpt>
      <trkpt lat="48.2483969" lon="-2.0775434">
        <ele>98.307</ele>
        <time>2018-08-22T12:41:33.720Z</time>
      </trkpt>
      <trkpt lat="48.2483450" lon="-2.0776597">
        <ele>99.296</ele>
        <time>2018-08-22T12:41:36.623Z</time>
      </trkpt>
      <trkpt lat="48.2482782" lon="-2.0777700">
        <ele>99.946</ele>
        <time>2018-08-22T12:41:39.702Z</time>
      </trkpt>
      <trkpt lat="48.2482102" lon="-2.0778771">
        <ele>100.141</ele>
        <time>2018-08-22T12:41:42.808Z</time>
      </trkpt>
      <trkpt lat="48.2481386" lon="-2.0779766">
        <ele>100.089</ele>
        <time>2018-08-22T12:41:46.002Z</time>
      </trkpt>
      <trkpt lat="48.2480693" lon="-2.0780763">
        <ele>100.047</ele>
        <time>2018-08-22T12:41:49.229Z</time>
      </trkpt>
      <trkpt lat="48.2479888" lon="-2.0781883">
        <ele>100.141</ele>
        <time>2018-08-22T12:41:52.814Z</time>
      </trkpt>
      <trkpt lat="48.2479205" lon="-2.0782790">
        <ele>100.323</ele>
        <time>2018-08-22T12:41:55.584Z</time>
      </trkpt>
      <trkpt lat="48.2478386" lon="-2.0783739">
        <ele>100.521</ele>
        <time>2018-08-22T12:41:58.631Z</time>
      </trkpt>
      <trkpt lat="48.2477512" lon="-2.0784580">
        <ele>100.709</ele>
        <time>2018-08-22T12:42:01.644Z</time>
      </trkpt>
      <trkpt lat="48.2476552" lon="-2.0785331">
        <ele>100.838</ele>
        <time>2018-08-22T12:42:04.748Z</time>
      </trkpt>
      <trkpt lat="48.2475566" lon="-2.0786107">
        <ele>100.890</ele>
        <time>2018-08-22T12:42:07.889Z</time>
      </trkpt>
      <trkpt lat="48.2474635" lon="-2.0786829">
        <ele>100.908</ele>
        <time>2018-08-22T12:42:10.773Z</time>
      </trkpt>
      <trkpt lat="48.2473674" lon="-2.0787610">
        <ele>100.948</ele>
        <time>2018-08-22T12:42:13.706Z</time>
      </trkpt>
      <trkpt lat="48.2472718" lon="-2.0788416">
        <ele>101.128</ele>
        <time>2018-08-22T12:42:16.578Z</time>
      </trkpt>
      <trkpt lat="48.2471736" lon="-2.0789255">
        <ele>101.443</ele>
        <time>2018-08-22T12:42:19.480Z</time>
      </trkpt>
      <trkpt lat="48.2470739" lon="-2.0790150">
        <ele>101.811</ele>
        <time>2018-08-22T12:42:22.404Z</time>
      </trkpt>
      <trkpt lat="48.2469698" lon="-2.0791109">
        <ele>102.247</ele>
        <time>2018-08-22T12:42:25.405Z</time>
      </trkpt>
      <trkpt lat="48.2468619" lon="-2.0792065">
        <ele>102.690</ele>
        <time>2018-08-22T12:42:28.423Z</time>
      </trkpt>
      <trkpt lat="48.2467491" lon="-2.0793006">
        <ele>102.969</ele>
        <time>2018-08-22T12:42:31.502Z</time>
      </trkpt>
      <trkpt lat="48.2466374" lon="-2.0794011">
        <ele>103.068</ele>
        <time>2018-08-22T12:42:34.639Z</time>
      </trkpt>
      <trkpt lat="48.2465262" lon="-2.0794980">
        <ele>103.138</ele>
        <time>2018-08-22T12:42:37.855Z</time>
      </trkpt>
      <trkpt lat="48.2464217" lon="-2.0795841">
        <ele>103.311</ele>
        <time>2018-08-22T12:42:40.951Z</time>
      </trkpt>
      <trkpt lat="48.2463159" lon="-2.0796559">
        <ele>103.547</ele>
        <time>2018-08-22T12:42:44.038Z</time>
      </trkpt>
      <trkpt lat="48.2462025" lon="-2.0797166">
        <ele>103.722</ele>
        <time>2018-08-22T12:42:47.227Z</time>
      </trkpt>
      <trkpt lat="48.2460985" lon="-2.0797617">
        <ele>103.855</ele>
        <time>2018-08-22T12:42:50.037Z</time>
      </trkpt>
      <trkpt lat="48.2459871" lon="-2.0797881">
        <ele>104.070</ele>
        <time>2018-08-22T12:42:52.945Z</time>
      </trkpt>
      <trkpt lat="48.2458744" lon="-2.0798093">
        <ele>104.330</ele>
        <time>2018-08-22T12:42:55.860Z</time>
      </trkpt>
      <trkpt lat="48.2457586" lon="-2.0798373">
        <ele>104.500</ele>
        <time>2018-08-22T12:42:58.851Z</time>
      </trkpt>
      <trkpt lat="48.2456418" lon="-2.0798586">
        <ele>104.459</ele>
        <time>2018-08-22T12:43:01.797Z</time>
      </trkpt>
      <trkpt lat="48.2455198" lon="-2.0798823">
        <ele>104.209</ele>
        <time>2018-08-22T12:43:04.825Z</time>
      </trkpt>
      <trkpt lat="48.2453970" lon="-2.0799162">
        <ele>103.942</ele>
        <time>2018-08-22T12:43:07.880Z</time>
      </trkpt>
      <trkpt lat="48.2452696" lon="-2.0799451">
        <ele>103.811</ele>
        <time>2018-08-22T12:43:11.044Z</time>
      </trkpt>
      <trkpt lat="48.2451462" lon="-2.0799793">
        <ele>103.701</ele>
        <time>2018-08-22T12:43:14.152Z</time>
      </trkpt>
      <trkpt lat="48.2450304" lon="-2.0800364">
        <ele>103.492</ele>
        <time>2018-08-22T12:43:17.225Z</time>
      </trkpt>
      <trkpt lat="48.2449242" lon="-2.0801280">
        <ele>103.309</ele>
        <time>2018-08-22T12:43:20.450Z</time>
      </trkpt>
      <trkpt lat="48.2448441" lon="-2.0802484">
        <ele>103.288</ele>
        <time>2018-08-22T12:43:23.643Z</time>
      </trkpt>
      <trkpt lat="48.2447776" lon="-2.0803817">
        <ele>103.357</ele>
        <time>2018-08-22T12:43:27.078Z</time>
      </trkpt>
      <trkpt lat="48.2447198" lon="-2.0805037">
        <ele>103.452</ele>
        <time>2018-08-22T12:43:30.197Z</time>
      </trkpt>
      <trkpt lat="48.2447648" lon="-2.0803763">
        <ele>103.567</ele>
        <time>2018-08-22T12:43:33.200Z</time>
      </trkpt>
      <trkpt lat="48.2448350" lon="-2.0802704">
        <ele>103.569</ele>
        <time>2018-08-22T12:43:36.297Z</time>
      </trkpt>
      <trkpt lat="48.2449191" lon="-2.0801268">
        <ele>103.370</ele>
        <time>2018-08-22T12:43:39.868Z</time>
      </trkpt>
      <trkpt lat="48.2450369" lon="-2.0800199">
        <ele>103.147</ele>
        <time>2018-08-22T12:43:43.245Z</time>
      </trkpt>
      <trkpt lat="48.2451593" lon="-2.0799548">
        <ele>103.068</ele>
        <time>2018-08-22T12:43:46.350Z</time>
      </trkpt>
      <trkpt lat="48.2452892" lon="-2.0799177">
        <ele>103.090</ele>
        <time>2018-08-22T12:43:49.550Z</time>
      </trkpt>
      <trkpt lat="48.2454166" lon="-2.0798898">
        <ele>103.247</ele>
        <time>2018-08-22T12:43:52.634Z</time>
      </trkpt>
      <trkpt lat="48.2455419" lon="-2.0798514">
        <ele>103.605</ele>
        <time>2018-08-22T12:43:55.695Z</time>
      </trkpt>
      <trkpt lat="48.2456614" lon="-2.0798121">
        <ele>103.995</ele>
        <time>2018-08-22T12:43:58.711Z</time>
      </trkpt>
      <trkpt lat="48.2457677" lon="-2.0797739">
        <ele>104.192</ele>
        <time>2018-08-22T12:44:01.723Z</time>
      </trkpt>
      <trkpt lat="48.2458641" lon="-2.0797554">
        <ele>104.189</ele>
        <time>2018-08-22T12:44:04.996Z</time>
      </trkpt>
      <trkpt lat="48.2458641" lon="-2.0797554">
        <ele>104.114</ele>
        <time>2018-08-22T12:44:07.996Z</time>
      </trkpt>
      <trkpt lat="48.2458641" lon="-2.0797554">
        <ele>104.065</ele>
        <time>2018-08-22T12:44:08.096Z</time>
      </trkpt>
      <trkpt lat="48.2457420" lon="-2.0798088">
        <ele>104.053</ele>
        <time>2018-08-22T12:44:14.023Z</time>
      </trkpt>
      <trkpt lat="48.2456217" lon="-2.0798295">
        <ele>104.050</ele>
        <time>2018-08-22T12:44:17.186Z</time>
      </trkpt>
      <trkpt lat="48.2454918" lon="-2.0798745">
        <ele>104.036</ele>
        <time>2018-08-22T12:44:20.285Z</time>
      </trkpt>
      <trkpt lat="48.2453600" lon="-2.0799230">
        <ele>104.018</ele>
        <time>2018-08-22T12:44:23.268Z</time>
      </trkpt>
      <trkpt lat="48.2452260" lon="-2.0799547">
        <ele>103.980</ele>
        <time>2018-08-22T12:44:26.226Z</time>
      </trkpt>
      <trkpt lat="48.2451179" lon="-2.0800053">
        <ele>103.790</ele>
        <time>2018-08-22T12:44:28.792Z</time>
      </trkpt>
      <trkpt lat="48.2450241" lon="-2.0800841">
        <ele>103.399</ele>
        <time>2018-08-22T12:44:31.344Z</time>
      </trkpt>
      <trkpt lat="48.2449343" lon="-2.0801743">
        <ele>103.003</ele>
        <time>2018-08-22T12:44:34.057Z</time>
      </trkpt>
      <trkpt lat="48.2448642" lon="-2.0802784">
        <ele>102.787</ele>
        <time>2018-08-22T12:44:36.684Z</time>
      </trkpt>
      <trkpt lat="48.2448076" lon="-2.0803948">
        <ele>102.782</ele>
        <time>2018-08-22T12:44:39.412Z</time>
      </trkpt>
      <trkpt lat="48.2447506" lon="-2.0805028">
        <ele>102.987</ele>
        <time>2018-08-22T12:44:42.131Z</time>
      </trkpt>
      <trkpt lat="48.2446939" lon="-2.0806226">
        <ele>103.497</ele>
        <time>2018-08-22T12:44:45.049Z</time>
      </trkpt>
      <trkpt lat="48.2446408" lon="-2.0807362">
        <ele>104.249</ele>
        <time>2018-08-22T12:44:47.815Z</time>
      </trkpt>
      <trkpt lat="48.2445766" lon="-2.0808590">
        <ele>104.969</ele>
        <time>2018-08-22T12:44:50.937Z</time>
      </trkpt>
      <trkpt lat="48.2445129" lon="-2.0809896">
        <ele>105.476</ele>
        <time>2018-08-22T12:44:54.107Z</time>
      </trkpt>
      <trkpt lat="48.2444509" lon="-2.0811121">
        <ele>105.735</ele>
        <time>2018-08-22T12:44:57.040Z</time>
      </trkpt>
      <trkpt lat="48.2443844" lon="-2.0812318">
        <ele>105.745</ele>
        <time>2018-08-22T12:44:59.973Z</time>
      </trkpt>
      <trkpt lat="48.2443175" lon="-2.0813572">
        <ele>105.628</ele>
        <time>2018-08-22T12:45:02.972Z</time>
      </trkpt>
      <trkpt lat="48.2442444" lon="-2.0814877">
        <ele>105.483</ele>
        <time>2018-08-22T12:45:06.088Z</time>
      </trkpt>
      <trkpt lat="48.2441745" lon="-2.0816181">
        <ele>105.353</ele>
        <time>2018-08-22T12:45:09.070Z</time>
      </trkpt>
      <trkpt lat="48.2441035" lon="-2.0817526">
        <ele>105.270</ele>
        <time>2018-08-22T12:45:12.064Z</time>
      </trkpt>
      <trkpt lat="48.2440398" lon="-2.0818874">
        <ele>105.245</ele>
        <time>2018-08-22T12:45:14.916Z</time>
      </trkpt>
      <trkpt lat="48.2439781" lon="-2.0820333">
        <ele>105.328</ele>
        <time>2018-08-22T12:45:17.861Z</time>
      </trkpt>
      <trkpt lat="48.2439177" lon="-2.0821993">
        <ele>105.510</ele>
        <time>2018-08-22T12:45:20.994Z</time>
      </trkpt>
      <trkpt lat="48.2439177" lon="-2.0821993">
        <ele>105.639</ele>
        <time>2018-08-22T12:45:21.994Z</time>
      </trkpt>
      <trkpt lat="48.2439177" lon="-2.0821993">
        <ele>105.641</ele>
        <time>2018-08-22T12:45:22.094Z</time>
      </trkpt>
      <trkpt lat="48.2438293" lon="-2.0824797">
        <ele>105.587</ele>
        <time>2018-08-22T12:45:28.950Z</time>
      </trkpt>
      <trkpt lat="48.2437679" lon="-2.0826522">
        <ele>105.534</ele>
        <time>2018-08-22T12:45:31.818Z</time>
      </trkpt>
      <trkpt lat="48.2437118" lon="-2.0828474">
        <ele>105.459</ele>
        <time>2018-08-22T12:45:34.786Z</time>
      </trkpt>
      <trkpt lat="48.2436064" lon="-2.0829844">
        <ele>105.318</ele>
        <time>2018-08-22T12:45:37.507Z</time>
      </trkpt>
      <trkpt lat="48.2434680" lon="-2.0830634">
        <ele>105.141</ele>
        <time>2018-08-22T12:45:40.109Z</time>
      </trkpt>
      <trkpt lat="48.2432850" lon="-2.0830851">
        <ele>104.914</ele>
        <time>2018-08-22T12:45:43.064Z</time>
      </trkpt>
      <trkpt lat="48.2430766" lon="-2.0831177">
        <ele>104.633</ele>
        <time>2018-08-22T12:45:46.189Z</time>
      </trkpt>
      <trkpt lat="48.2428573" lon="-2.0831650">
        <ele>104.415</ele>
        <time>2018-08-22T12:45:49.254Z</time>
      </trkpt>
      <trkpt lat="48.2426268" lon="-2.0831758">
        <ele>104.244</ele>
        <time>2018-08-22T12:45:52.206Z</time>
      </trkpt>
      <trkpt lat="48.2423908" lon="-2.0831487">
        <ele>103.789</ele>
        <time>2018-08-22T12:45:55.102Z</time>
      </trkpt>
      <trkpt lat="48.2421380" lon="-2.0832208">
        <ele>102.883</ele>
        <time>2018-08-22T12:45:58.260Z</time>
      </trkpt>
      <trkpt lat="48.2419587" lon="-2.0834472">
        <ele>101.630</ele>
        <time>2018-08-22T12:46:01.245Z</time>
      </trkpt>
      <trkpt lat="48.2417999" lon="-2.0836877">
        <ele>100.246</ele>
        <time>2018-08-22T12:46:04.237Z</time>
      </trkpt>
      <trkpt lat="48.2416597" lon="-2.0839366">
        <ele>99.021</ele>
        <time>2018-08-22T12:46:07.190Z</time>
      </trkpt>
      <trkpt lat="48.2415294" lon="-2.0842040">
        <ele>98.142</ele>
        <time>2018-08-22T12:46:10.312Z</time>
      </trkpt>
      <trkpt lat="48.2413876" lon="-2.0844144">
        <ele>97.609</ele>
        <time>2018-08-22T12:46:13.310Z</time>
      </trkpt>
      <trkpt lat="48.2412501" lon="-2.0845994">
        <ele>97.435</ele>
        <time>2018-08-22T12:46:16.287Z</time>
      </trkpt>
      <trkpt lat="48.2411349" lon="-2.0847467">
        <ele>97.506</ele>
        <time>2018-08-22T12:46:18.951Z</time>
      </trkpt>
      <trkpt lat="48.2410112" lon="-2.0849024">
        <ele>97.577</ele>
        <time>2018-08-22T12:46:22.021Z</time>
      </trkpt>
      <trkpt lat="48.2409239" lon="-2.0850515">
        <ele>97.498</ele>
        <time>2018-08-22T12:46:24.686Z</time>
      </trkpt>
      <trkpt lat="48.2408206" lon="-2.0852092">
        <ele>97.359</ele>
        <time>2018-08-22T12:46:27.782Z</time>
      </trkpt>
      <trkpt lat="48.2407152" lon="-2.0853699">
        <ele>97.271</ele>
        <time>2018-08-22T12:46:31.094Z</time>
      </trkpt>
      <trkpt lat="48.2406300" lon="-2.0854831">
        <ele>97.182</ele>
        <time>2018-08-22T12:46:33.737Z</time>
      </trkpt>
      <trkpt lat="48.2405414" lon="-2.0856084">
        <ele>96.979</ele>
        <time>2018-08-22T12:46:36.657Z</time>
      </trkpt>
      <trkpt lat="48.2404452" lon="-2.0857228">
        <ele>96.661</ele>
        <time>2018-08-22T12:46:39.590Z</time>
      </trkpt>
      <trkpt lat="48.2403465" lon="-2.0858362">
        <ele>96.364</ele>
        <time>2018-08-22T12:46:42.530Z</time>
      </trkpt>
      <trkpt lat="48.2402295" lon="-2.0859622">
        <ele>96.193</ele>
        <time>2018-08-22T12:46:45.967Z</time>
      </trkpt>
      <trkpt lat="48.2401090" lon="-2.0860794">
        <ele>96.170</ele>
        <time>2018-08-22T12:46:49.438Z</time>
      </trkpt>
      <trkpt lat="48.2400131" lon="-2.0861840">
        <ele>96.259</ele>
        <time>2018-08-22T12:46:52.386Z</time>
      </trkpt>
      <trkpt lat="48.2399085" lon="-2.0862793">
        <ele>96.385</ele>
        <time>2018-08-22T12:46:55.491Z</time>
      </trkpt>
      <trkpt lat="48.2398137" lon="-2.0863760">
        <ele>96.580</ele>
        <time>2018-08-22T12:46:58.467Z</time>
      </trkpt>
      <trkpt lat="48.2397231" lon="-2.0864696">
        <ele>96.908</ele>
        <time>2018-08-22T12:47:01.320Z</time>
      </trkpt>
      <trkpt lat="48.2396310" lon="-2.0865688">
        <ele>97.240</ele>
        <time>2018-08-22T12:47:04.319Z</time>
      </trkpt>
      <trkpt lat="48.2395450" lon="-2.0866528">
        <ele>97.486</ele>
        <time>2018-08-22T12:47:07.107Z</time>
      </trkpt>
      <trkpt lat="48.2394544" lon="-2.0867407">
        <ele>97.779</ele>
        <time>2018-08-22T12:47:09.998Z</time>
      </trkpt>
      <trkpt lat="48.2393646" lon="-2.0868348">
        <ele>98.331</ele>
        <time>2018-08-22T12:47:12.936Z</time>
      </trkpt>
      <trkpt lat="48.2392812" lon="-2.0869313">
        <ele>99.223</ele>
        <time>2018-08-22T12:47:15.824Z</time>
      </trkpt>
      <trkpt lat="48.2392006" lon="-2.0870311">
        <ele>100.232</ele>
        <time>2018-08-22T12:47:18.713Z</time>
      </trkpt>
      <trkpt lat="48.2391185" lon="-2.0871200">
        <ele>100.921</ele>
        <time>2018-08-22T12:47:21.525Z</time>
      </trkpt>
      <trkpt lat="48.2390368" lon="-2.0872120">
        <ele>101.099</ele>
        <time>2018-08-22T12:47:24.369Z</time>
      </trkpt>
      <trkpt lat="48.2389535" lon="-2.0873086">
        <ele>100.958</ele>
        <time>2018-08-22T12:47:27.300Z</time>
      </trkpt>
      <trkpt lat="48.2388657" lon="-2.0873956">
        <ele>100.771</ele>
        <time>2018-08-22T12:47:30.228Z</time>
      </trkpt>
      <trkpt lat="48.2387789" lon="-2.0874767">
        <ele>100.716</ele>
        <time>2018-08-22T12:47:33.082Z</time>
      </trkpt>
      <trkpt lat="48.2386932" lon="-2.0875572">
        <ele>100.852</ele>
        <time>2018-08-22T12:47:35.938Z</time>
      </trkpt>
      <trkpt lat="48.2386032" lon="-2.0876438">
        <ele>101.211</ele>
        <time>2018-08-22T12:47:38.981Z</time>
      </trkpt>
      <trkpt lat="48.2385186" lon="-2.0877372">
        <ele>101.755</ele>
        <time>2018-08-22T12:47:41.895Z</time>
      </trkpt>
      <trkpt lat="48.2384222" lon="-2.0878406">
        <ele>102.297</ele>
        <time>2018-08-22T12:47:44.998Z</time>
      </trkpt>
      <trkpt lat="48.2383301" lon="-2.0879352">
        <ele>102.677</ele>
        <time>2018-08-22T12:47:47.799Z</time>
      </trkpt>
      <trkpt lat="48.2382414" lon="-2.0880172">
        <ele>102.887</ele>
        <time>2018-08-22T12:47:50.418Z</time>
      </trkpt>
      <trkpt lat="48.2381555" lon="-2.0881133">
        <ele>102.881</ele>
        <time>2018-08-22T12:47:53.156Z</time>
      </trkpt>
      <trkpt lat="48.2380693" lon="-2.0882054">
        <ele>102.589</ele>
        <time>2018-08-22T12:47:55.895Z</time>
      </trkpt>
      <trkpt lat="48.2379824" lon="-2.0883098">
        <ele>102.110</ele>
        <time>2018-08-22T12:47:58.800Z</time>
      </trkpt>
      <trkpt lat="48.2378827" lon="-2.0884202">
        <ele>101.751</ele>
        <time>2018-08-22T12:48:02.022Z</time>
      </trkpt>
      <trkpt lat="48.2377970" lon="-2.0885221">
        <ele>101.868</ele>
        <time>2018-08-22T12:48:04.841Z</time>
      </trkpt>
      <trkpt lat="48.2377036" lon="-2.0886261">
        <ele>102.465</ele>
        <time>2018-08-22T12:48:07.853Z</time>
      </trkpt>
      <trkpt lat="48.2376021" lon="-2.0887348">
        <ele>103.115</ele>
        <time>2018-08-22T12:48:11.062Z</time>
      </trkpt>
      <trkpt lat="48.2375037" lon="-2.0888400">
        <ele>103.530</ele>
        <time>2018-08-22T12:48:14.139Z</time>
      </trkpt>
      <trkpt lat="48.2373992" lon="-2.0889541">
        <ele>103.793</ele>
        <time>2018-08-22T12:48:17.361Z</time>
      </trkpt>
      <trkpt lat="48.2372965" lon="-2.0890584">
        <ele>104.019</ele>
        <time>2018-08-22T12:48:20.390Z</time>
      </trkpt>
      <trkpt lat="48.2371917" lon="-2.0891625">
        <ele>104.258</ele>
        <time>2018-08-22T12:48:23.409Z</time>
      </trkpt>
      <trkpt lat="48.2370923" lon="-2.0892674">
        <ele>104.486</ele>
        <time>2018-08-22T12:48:26.317Z</time>
      </trkpt>
      <trkpt lat="48.2370081" lon="-2.0893808">
        <ele>104.747</ele>
        <time>2018-08-22T12:48:29.059Z</time>
      </trkpt>
      <trkpt lat="48.2369159" lon="-2.0894824">
        <ele>105.133</ele>
        <time>2018-08-22T12:48:31.901Z</time>
      </trkpt>
      <trkpt lat="48.2368337" lon="-2.0895721">
        <ele>105.656</ele>
        <time>2018-08-22T12:48:34.503Z</time>
      </trkpt>
      <trkpt lat="48.2367445" lon="-2.0896663">
        <ele>106.286</ele>
        <time>2018-08-22T12:48:37.355Z</time>
      </trkpt>
      <trkpt lat="48.2366282" lon="-2.0897970">
        <ele>106.874</ele>
        <time>2018-08-22T12:48:41.113Z</time>
      </trkpt>
      <trkpt lat="48.2365637" lon="-2.0899582">
        <ele>107.219</ele>
        <time>2018-08-22T12:48:44.248Z</time>
      </trkpt>
      <trkpt lat="48.2365352" lon="-2.0901139">
        <ele>107.101</ele>
        <time>2018-08-22T12:48:46.955Z</time>
      </trkpt>
      <trkpt lat="48.2365262" lon="-2.0902997">
        <ele>106.476</ele>
        <time>2018-08-22T12:48:50.143Z</time>
      </trkpt>
      <trkpt lat="48.2365039" lon="-2.0904614">
        <ele>105.735</ele>
        <time>2018-08-22T12:48:52.983Z</time>
      </trkpt>
      <trkpt lat="48.2364746" lon="-2.0906457">
        <ele>105.349</ele>
        <time>2018-08-22T12:48:56.200Z</time>
      </trkpt>
      <trkpt lat="48.2364513" lon="-2.0908307">
        <ele>105.440</ele>
        <time>2018-08-22T12:48:59.325Z</time>
      </trkpt>
      <trkpt lat="48.2364356" lon="-2.0910055">
        <ele>105.840</ele>
        <time>2018-08-22T12:49:02.203Z</time>
      </trkpt>
      <trkpt lat="48.2364264" lon="-2.0911863">
        <ele>106.263</ele>
        <time>2018-08-22T12:49:05.145Z</time>
      </trkpt>
      <trkpt lat="48.2364210" lon="-2.0913768">
        <ele>106.538</ele>
        <time>2018-08-22T12:49:08.191Z</time>
      </trkpt>
      <trkpt lat="48.2364198" lon="-2.0915754">
        <ele>106.613</ele>
        <time>2018-08-22T12:49:11.286Z</time>
      </trkpt>
      <trkpt lat="48.2364050" lon="-2.0917756">
        <ele>106.520</ele>
        <time>2018-08-22T12:49:14.327Z</time>
      </trkpt>
      <trkpt lat="48.2363919" lon="-2.0920066">
        <ele>106.318</ele>
        <time>2018-08-22T12:49:17.660Z</time>
      </trkpt>
      <trkpt lat="48.2363637" lon="-2.0922288">
        <ele>106.030</ele>
        <time>2018-08-22T12:49:20.759Z</time>
      </trkpt>
      <trkpt lat="48.2363718" lon="-2.0924607">
        <ele>105.655</ele>
        <time>2018-08-22T12:49:23.835Z</time>
      </trkpt>
      <trkpt lat="48.2363733" lon="-2.0926930">
        <ele>105.218</ele>
        <time>2018-08-22T12:49:26.846Z</time>
      </trkpt>
      <trkpt lat="48.2363713" lon="-2.0929245">
        <ele>104.785</ele>
        <time>2018-08-22T12:49:29.799Z</time>
      </trkpt>
      <trkpt lat="48.2363669" lon="-2.0931651">
        <ele>104.290</ele>
        <time>2018-08-22T12:49:32.827Z</time>
      </trkpt>
      <trkpt lat="48.2363479" lon="-2.0933950">
        <ele>103.571</ele>
        <time>2018-08-22T12:49:35.736Z</time>
      </trkpt>
      <trkpt lat="48.2363237" lon="-2.0936252">
        <ele>102.807</ele>
        <time>2018-08-22T12:49:38.706Z</time>
      </trkpt>
      <trkpt lat="48.2362773" lon="-2.0938111">
        <ele>102.333</ele>
        <time>2018-08-22T12:49:41.315Z</time>
      </trkpt>
      <trkpt lat="48.2362006" lon="-2.0939662">
        <ele>102.363</ele>
        <time>2018-08-22T12:49:43.989Z</time>
      </trkpt>
      <trkpt lat="48.2362006" lon="-2.0939662">
        <ele>102.837</ele>
        <time>2018-08-22T12:49:44.989Z</time>
      </trkpt>
      <trkpt lat="48.2362006" lon="-2.0939662">
        <ele>103.240</ele>
        <time>2018-08-22T12:49:45.089Z</time>
      </trkpt>
      <trkpt lat="48.2360346" lon="-2.0941970">
        <ele>103.193</ele>
        <time>2018-08-22T12:49:51.841Z</time>
      </trkpt>
      <trkpt lat="48.2359104" lon="-2.0943391">
        <ele>102.968</ele>
        <time>2018-08-22T12:49:55.103Z</time>
      </trkpt>
      <trkpt lat="48.2357960" lon="-2.0944796">
        <ele>102.887</ele>
        <time>2018-08-22T12:49:58.187Z</time>
      </trkpt>
      <trkpt lat="48.2356875" lon="-2.0946094">
        <ele>102.904</ele>
        <time>2018-08-22T12:50:01.051Z</time>
      </trkpt>
      <trkpt lat="48.2355709" lon="-2.0947487">
        <ele>102.748</ele>
        <time>2018-08-22T12:50:04.052Z</time>
      </trkpt>
      <trkpt lat="48.2354434" lon="-2.0948744">
        <ele>102.336</ele>
        <time>2018-08-22T12:50:07.153Z</time>
      </trkpt>
      <trkpt lat="48.2353316" lon="-2.0950176">
        <ele>102.007</ele>
        <time>2018-08-22T12:50:10.182Z</time>
      </trkpt>
      <trkpt lat="48.2352130" lon="-2.0951474">
        <ele>102.023</ele>
        <time>2018-08-22T12:50:13.484Z</time>
      </trkpt>
      <trkpt lat="48.2351156" lon="-2.0952740">
        <ele>102.124</ele>
        <time>2018-08-22T12:50:16.962Z</time>
      </trkpt>
      <trkpt lat="48.2350951" lon="-2.0954501">
        <ele>101.977</ele>
        <time>2018-08-22T12:50:20.890Z</time>
      </trkpt>
      <trkpt lat="48.2350137" lon="-2.0953828">
        <ele>101.630</ele>
        <time>2018-08-22T12:50:24.264Z</time>
      </trkpt>
      <trkpt lat="48.2350812" lon="-2.0952569">
        <ele>101.395</ele>
        <time>2018-08-22T12:50:28.036Z</time>
      </trkpt>
      <trkpt lat="48.2351572" lon="-2.0951787">
        <ele>101.511</ele>
        <time>2018-08-22T12:50:30.898Z</time>
      </trkpt>
      <trkpt lat="48.2352355" lon="-2.0950742">
        <ele>101.931</ele>
        <time>2018-08-22T12:50:33.973Z</time>
      </trkpt>
      <trkpt lat="48.2353189" lon="-2.0949806">
        <ele>102.452</ele>
        <time>2018-08-22T12:50:36.918Z</time>
      </trkpt>
      <trkpt lat="48.2354030" lon="-2.0948894">
        <ele>102.910</ele>
        <time>2018-08-22T12:50:39.797Z</time>
      </trkpt>
      <trkpt lat="48.2354894" lon="-2.0947979">
        <ele>103.133</ele>
        <time>2018-08-22T12:50:42.681Z</time>
      </trkpt>
      <trkpt lat="48.2355822" lon="-2.0946957">
        <ele>103.059</ele>
        <time>2018-08-22T12:50:45.717Z</time>
      </trkpt>
      <trkpt lat="48.2356780" lon="-2.0945867">
        <ele>102.980</ele>
        <time>2018-08-22T12:50:48.787Z</time>
      </trkpt>
      <trkpt lat="48.2357704" lon="-2.0944693">
        <ele>103.175</ele>
        <time>2018-08-22T12:50:51.829Z</time>
      </trkpt>
      <trkpt lat="48.2358619" lon="-2.0943504">
        <ele>103.580</ele>
        <time>2018-08-22T12:50:54.837Z</time>
      </trkpt>
      <trkpt lat="48.2359628" lon="-2.0942430">
        <ele>103.955</ele>
        <time>2018-08-22T12:50:57.942Z</time>
      </trkpt>
      <trkpt lat="48.2360538" lon="-2.0941335">
        <ele>104.163</ele>
        <time>2018-08-22T12:51:00.911Z</time>
      </trkpt>
      <trkpt lat="48.2361439" lon="-2.0940142">
        <ele>104.246</ele>
        <time>2018-08-22T12:51:03.936Z</time>
      </trkpt>
      <trkpt lat="48.2362288" lon="-2.0938749">
        <ele>104.319</ele>
        <time>2018-08-22T12:51:06.964Z</time>
      </trkpt>
      <trkpt lat="48.2362819" lon="-2.0936808">
        <ele>104.390</ele>
        <time>2018-08-22T12:51:10.198Z</time>
      </trkpt>
      <trkpt lat="48.2363177" lon="-2.0934957">
        <ele>104.423</ele>
        <time>2018-08-22T12:51:13.225Z</time>
      </trkpt>
      <trkpt lat="48.2363375" lon="-2.0933076">
        <ele>104.452</ele>
        <time>2018-08-22T12:51:16.443Z</time>
      </trkpt>
      <trkpt lat="48.2363328" lon="-2.0931486">
        <ele>104.513</ele>
        <time>2018-08-22T12:51:19.904Z</time>
      </trkpt>
      <trkpt lat="48.2363375" lon="-2.0930105">
        <ele>104.629</ele>
        <time>2018-08-22T12:51:23.481Z</time>
      </trkpt>
      <trkpt lat="48.2363780" lon="-2.0931371">
        <ele>104.805</ele>
        <time>2018-08-22T12:51:27.257Z</time>
      </trkpt>
      <trkpt lat="48.2363622" lon="-2.0933241">
        <ele>104.973</ele>
        <time>2018-08-22T12:51:30.979Z</time>
      </trkpt>
      <trkpt lat="48.2363492" lon="-2.0935211">
        <ele>105.061</ele>
        <time>2018-08-22T12:51:34.247Z</time>
      </trkpt>
      <trkpt lat="48.2363293" lon="-2.0936566">
        <ele>105.106</ele>
        <time>2018-08-22T12:51:36.320Z</time>
      </trkpt>
      <trkpt lat="48.2362998" lon="-2.0937903">
        <ele>105.165</ele>
        <time>2018-08-22T12:51:38.351Z</time>
      </trkpt>
      <trkpt lat="48.2362205" lon="-2.0939506">
        <ele>104.997</ele>
        <time>2018-08-22T12:51:41.205Z</time>
      </trkpt>
      <trkpt lat="48.2361493" lon="-2.0940496">
        <ele>104.420</ele>
        <time>2018-08-22T12:51:43.275Z</time>
      </trkpt>
      <trkpt lat="48.2360740" lon="-2.0941407">
        <ele>103.748</ele>
        <time>2018-08-22T12:51:45.306Z</time>
      </trkpt>
      <trkpt lat="48.2359644" lon="-2.0942794">
        <ele>103.222</ele>
        <time>2018-08-22T12:51:48.251Z</time>
      </trkpt>
      <trkpt lat="48.2358884" lon="-2.0943790">
        <ele>102.784</ele>
        <time>2018-08-22T12:51:50.286Z</time>
      </trkpt>
      <trkpt lat="48.2358071" lon="-2.0944794">
        <ele>102.540</ele>
        <time>2018-08-22T12:51:52.407Z</time>
      </trkpt>
      <trkpt lat="48.2357318" lon="-2.0945585">
        <ele>102.555</ele>
        <time>2018-08-22T12:51:54.268Z</time>
      </trkpt>
      <trkpt lat="48.2356503" lon="-2.0946519">
        <ele>102.613</ele>
        <time>2018-08-22T12:51:56.353Z</time>
      </trkpt>
      <trkpt lat="48.2355724" lon="-2.0947460">
        <ele>102.486</ele>
        <time>2018-08-22T12:51:58.388Z</time>
      </trkpt>
      <trkpt lat="48.2354532" lon="-2.0948916">
        <ele>102.148</ele>
        <time>2018-08-22T12:52:01.486Z</time>
      </trkpt>
      <trkpt lat="48.2353284" lon="-2.0950373">
        <ele>101.683</ele>
        <time>2018-08-22T12:52:04.628Z</time>
      </trkpt>
      <trkpt lat="48.2352110" lon="-2.0951855">
        <ele>101.198</ele>
        <time>2018-08-22T12:52:07.690Z</time>
      </trkpt>
      <trkpt lat="48.2351111" lon="-2.0953516">
        <ele>100.786</ele>
        <time>2018-08-22T12:52:10.781Z</time>
      </trkpt>
      <trkpt lat="48.2351470" lon="-2.0955487">
        <ele>100.491</ele>
        <time>2018-08-22T12:52:13.722Z</time>
      </trkpt>
      <trkpt lat="48.2352410" lon="-2.0957103">
        <ele>100.588</ele>
        <time>2018-08-22T12:52:16.868Z</time>
      </trkpt>
      <trkpt lat="48.2353174" lon="-2.0958684">
        <ele>101.319</ele>
        <time>2018-08-22T12:52:19.859Z</time>
      </trkpt>
      <trkpt lat="48.2353974" lon="-2.0959836">
        <ele>102.364</ele>
        <time>2018-08-22T12:52:22.579Z</time>
      </trkpt>
      <trkpt lat="48.2354612" lon="-2.0961432">
        <ele>103.239</ele>
        <time>2018-08-22T12:52:25.779Z</time>
      </trkpt>
      <trkpt lat="48.2355237" lon="-2.0962855">
        <ele>103.806</ele>
        <time>2018-08-22T12:52:28.867Z</time>
      </trkpt>
      <trkpt lat="48.2355818" lon="-2.0964095">
        <ele>104.091</ele>
        <time>2018-08-22T12:52:31.951Z</time>
      </trkpt>
      <trkpt lat="48.2356393" lon="-2.0965498">
        <ele>104.168</ele>
        <time>2018-08-22T12:52:35.802Z</time>
      </trkpt>
      <trkpt lat="48.2356953" lon="-2.0966656">
        <ele>104.170</ele>
        <time>2018-08-22T12:52:39.565Z</time>
      </trkpt>
      <trkpt lat="48.2357554" lon="-2.0967967">
        <ele>104.317</ele>
        <time>2018-08-22T12:52:43.749Z</time>
      </trkpt>
      <trkpt lat="48.2358216" lon="-2.0969338">
        <ele>104.684</ele>
        <time>2018-08-22T12:52:47.969Z</time>
      </trkpt>
      <trkpt lat="48.2358986" lon="-2.0970677">
        <ele>105.056</ele>
        <time>2018-08-22T12:52:52.171Z</time>
      </trkpt>
      <trkpt lat="48.2359565" lon="-2.0971751">
        <ele>105.261</ele>
        <time>2018-08-22T12:52:55.295Z</time>
      </trkpt>
      <trkpt lat="48.2360174" lon="-2.0972785">
        <ele>105.358</ele>
        <time>2018-08-22T12:52:58.338Z</time>
      </trkpt>
      <trkpt lat="48.2360964" lon="-2.0974129">
        <ele>105.497</ele>
        <time>2018-08-22T12:53:02.265Z</time>
      </trkpt>
      <trkpt lat="48.2361593" lon="-2.0975185">
        <ele>105.818</ele>
        <time>2018-08-22T12:53:05.305Z</time>
      </trkpt>
      <trkpt lat="48.2362202" lon="-2.0976387">
        <ele>106.249</ele>
        <time>2018-08-22T12:53:08.447Z</time>
      </trkpt>
      <trkpt lat="48.2362778" lon="-2.0977604">
        <ele>106.510</ele>
        <time>2018-08-22T12:53:11.464Z</time>
      </trkpt>
      <trkpt lat="48.2363368" lon="-2.0978811">
        <ele>106.488</ele>
        <time>2018-08-22T12:53:14.405Z</time>
      </trkpt>
      <trkpt lat="48.2364008" lon="-2.0980031">
        <ele>106.454</ele>
        <time>2018-08-22T12:53:17.390Z</time>
      </trkpt>
      <trkpt lat="48.2364548" lon="-2.0981451">
        <ele>106.634</ele>
        <time>2018-08-22T12:53:20.516Z</time>
      </trkpt>
      <trkpt lat="48.2365014" lon="-2.0982852">
        <ele>106.848</ele>
        <time>2018-08-22T12:53:23.520Z</time>
      </trkpt>
      <trkpt lat="48.2365382" lon="-2.0984373">
        <ele>106.886</ele>
        <time>2018-08-22T12:53:26.591Z</time>
      </trkpt>
      <trkpt lat="48.2365637" lon="-2.0985981">
        <ele>106.877</ele>
        <time>2018-08-22T12:53:29.641Z</time>
      </trkpt>
      <trkpt lat="48.2365863" lon="-2.0987656">
        <ele>106.978</ele>
        <time>2018-08-22T12:53:32.688Z</time>
      </trkpt>
      <trkpt lat="48.2365951" lon="-2.0989391">
        <ele>107.152</ele>
        <time>2018-08-22T12:53:35.791Z</time>
      </trkpt>
      <trkpt lat="48.2366021" lon="-2.0991040">
        <ele>107.399</ele>
        <time>2018-08-22T12:53:38.797Z</time>
      </trkpt>
      <trkpt lat="48.2366027" lon="-2.0992738">
        <ele>107.775</ele>
        <time>2018-08-22T12:53:41.897Z</time>
      </trkpt>
      <trkpt lat="48.2366103" lon="-2.0994421">
        <ele>108.274</ele>
        <time>2018-08-22T12:53:44.921Z</time>
      </trkpt>
      <trkpt lat="48.2366124" lon="-2.0996232">
        <ele>108.796</ele>
        <time>2018-08-22T12:53:48.305Z</time>
      </trkpt>
      <trkpt lat="48.2366257" lon="-2.0997734">
        <ele>109.155</ele>
        <time>2018-08-22T12:53:51.333Z</time>
      </trkpt>
      <trkpt lat="48.2366331" lon="-2.0999506">
        <ele>109.352</ele>
        <time>2018-08-22T12:53:54.810Z</time>
      </trkpt>
      <trkpt lat="48.2366303" lon="-2.1001305">
        <ele>109.535</ele>
        <time>2018-08-22T12:53:58.136Z</time>
      </trkpt>
      <trkpt lat="48.2366369" lon="-2.1003107">
        <ele>109.687</ele>
        <time>2018-08-22T12:54:01.435Z</time>
      </trkpt>
      <trkpt lat="48.2366451" lon="-2.1004809">
        <ele>109.602</ele>
        <time>2018-08-22T12:54:04.519Z</time>
      </trkpt>
      <trkpt lat="48.2366516" lon="-2.1006614">
        <ele>109.143</ele>
        <time>2018-08-22T12:54:07.753Z</time>
      </trkpt>
      <trkpt lat="48.2366568" lon="-2.1008380">
        <ele>108.473</ele>
        <time>2018-08-22T12:54:10.887Z</time>
      </trkpt>
      <trkpt lat="48.2366616" lon="-2.1010166">
        <ele>107.934</ele>
        <time>2018-08-22T12:54:14.013Z</time>
      </trkpt>
      <trkpt lat="48.2366650" lon="-2.1011915">
        <ele>107.685</ele>
        <time>2018-08-22T12:54:17.051Z</time>
      </trkpt>
      <trkpt lat="48.2366723" lon="-2.1013721">
        <ele>107.674</ele>
        <time>2018-08-22T12:54:20.188Z</time>
      </trkpt>
      <trkpt lat="48.2366779" lon="-2.1015440">
        <ele>107.815</ele>
        <time>2018-08-22T12:54:23.142Z</time>
      </trkpt>
      <trkpt lat="48.2366808" lon="-2.1017151">
        <ele>107.981</ele>
        <time>2018-08-22T12:54:25.999Z</time>
      </trkpt>
      <trkpt lat="48.2366852" lon="-2.1018984">
        <ele>108.105</ele>
        <time>2018-08-22T12:54:29.009Z</time>
      </trkpt>
      <trkpt lat="48.2366971" lon="-2.1020834">
        <ele>108.373</ele>
        <time>2018-08-22T12:54:32.063Z</time>
      </trkpt>
      <trkpt lat="48.2367017" lon="-2.1022641">
        <ele>108.932</ele>
        <time>2018-08-22T12:54:35.019Z</time>
      </trkpt>
      <trkpt lat="48.2367111" lon="-2.1024486">
        <ele>109.569</ele>
        <time>2018-08-22T12:54:37.996Z</time>
      </trkpt>
      <trkpt lat="48.2367175" lon="-2.1026365">
        <ele>109.902</ele>
        <time>2018-08-22T12:54:40.956Z</time>
      </trkpt>
      <trkpt lat="48.2367262" lon="-2.1028284">
        <ele>109.791</ele>
        <time>2018-08-22T12:54:43.962Z</time>
      </trkpt>
      <trkpt lat="48.2367354" lon="-2.1030206">
        <ele>109.459</ele>
        <time>2018-08-22T12:54:47.004Z</time>
      </trkpt>
      <trkpt lat="48.2367359" lon="-2.1032073">
        <ele>108.998</ele>
        <time>2018-08-22T12:54:49.978Z</time>
      </trkpt>
      <trkpt lat="48.2367412" lon="-2.1033945">
        <ele>108.381</ele>
        <time>2018-08-22T12:54:52.975Z</time>
      </trkpt>
      <trkpt lat="48.2367530" lon="-2.1035757">
        <ele>107.853</ele>
        <time>2018-08-22T12:54:55.872Z</time>
      </trkpt>
      <trkpt lat="48.2367630" lon="-2.1037666">
        <ele>107.648</ele>
        <time>2018-08-22T12:54:58.964Z</time>
      </trkpt>
      <trkpt lat="48.2367763" lon="-2.1039470">
        <ele>107.673</ele>
        <time>2018-08-22T12:55:01.960Z</time>
      </trkpt>
      <trkpt lat="48.2367847" lon="-2.1041280">
        <ele>107.776</ele>
        <time>2018-08-22T12:55:04.877Z</time>
      </trkpt>
      <trkpt lat="48.2368110" lon="-2.1043148">
        <ele>107.871</ele>
        <time>2018-08-22T12:55:07.843Z</time>
      </trkpt>
      <trkpt lat="48.2368537" lon="-2.1044944">
        <ele>108.045</ele>
        <time>2018-08-22T12:55:10.758Z</time>
      </trkpt>
      <trkpt lat="48.2369264" lon="-2.1046593">
        <ele>108.365</ele>
        <time>2018-08-22T12:55:13.737Z</time>
      </trkpt>
      <trkpt lat="48.2370117" lon="-2.1048060">
        <ele>108.633</ele>
        <time>2018-08-22T12:55:16.646Z</time>
      </trkpt>
      <trkpt lat="48.2371060" lon="-2.1049604">
        <ele>108.611</ele>
        <time>2018-08-22T12:55:19.733Z</time>
      </trkpt>
      <trkpt lat="48.2371938" lon="-2.1051272">
        <ele>108.358</ele>
        <time>2018-08-22T12:55:22.859Z</time>
      </trkpt>
      <trkpt lat="48.2372873" lon="-2.1052819">
        <ele>108.184</ele>
        <time>2018-08-22T12:55:26.048Z</time>
      </trkpt>
      <trkpt lat="48.2373655" lon="-2.1054401">
        <ele>108.343</ele>
        <time>2018-08-22T12:55:29.232Z</time>
      </trkpt>
      <trkpt lat="48.2374438" lon="-2.1055691">
        <ele>108.796</ele>
        <time>2018-08-22T12:55:32.039Z</time>
      </trkpt>
      <trkpt lat="48.2375279" lon="-2.1057094">
        <ele>109.268</ele>
        <time>2018-08-22T12:55:34.982Z</time>
      </trkpt>
      <trkpt lat="48.2376147" lon="-2.1058671">
        <ele>109.514</ele>
        <time>2018-08-22T12:55:38.202Z</time>
      </trkpt>
      <trkpt lat="48.2376900" lon="-2.1060135">
        <ele>109.441</ele>
        <time>2018-08-22T12:55:41.212Z</time>
      </trkpt>
      <trkpt lat="48.2377609" lon="-2.1061677">
        <ele>109.115</ele>
        <time>2018-08-22T12:55:44.334Z</time>
      </trkpt>
      <trkpt lat="48.2378334" lon="-2.1063098">
        <ele>108.753</ele>
        <time>2018-08-22T12:55:47.580Z</time>
      </trkpt>
      <trkpt lat="48.2379036" lon="-2.1064442">
        <ele>108.666</ele>
        <time>2018-08-22T12:55:51.192Z</time>
      </trkpt>
      <trkpt lat="48.2379877" lon="-2.1065699">
        <ele>108.916</ele>
        <time>2018-08-22T12:55:55.803Z</time>
      </trkpt>
      <trkpt lat="48.2380100" lon="-2.1067381">
        <ele>109.246</ele>
        <time>2018-08-22T12:56:00.570Z</time>
      </trkpt>
      <trkpt lat="48.2379271" lon="-2.1068282">
        <ele>109.385</ele>
        <time>2018-08-22T12:56:04.846Z</time>
      </trkpt>
      <trkpt lat="48.2378571" lon="-2.1069277">
        <ele>109.268</ele>
        <time>2018-08-22T12:56:08.867Z</time>
      </trkpt>
      <trkpt lat="48.2377757" lon="-2.1070315">
        <ele>108.917</ele>
        <time>2018-08-22T12:56:13.493Z</time>
      </trkpt>
      <trkpt lat="48.2377017" lon="-2.1071163">
        <ele>108.412</ele>
        <time>2018-08-22T12:56:17.163Z</time>
      </trkpt>
      <trkpt lat="48.2376229" lon="-2.1072043">
        <ele>107.928</ele>
        <time>2018-08-22T12:56:20.350Z</time>
      </trkpt>
      <trkpt lat="48.2375484" lon="-2.1073045">
        <ele>107.628</ele>
        <time>2018-08-22T12:56:23.329Z</time>
      </trkpt>
      <trkpt lat="48.2374685" lon="-2.1073947">
        <ele>107.446</ele>
        <time>2018-08-22T12:56:26.281Z</time>
      </trkpt>
      <trkpt lat="48.2373899" lon="-2.1074840">
        <ele>107.259</ele>
        <time>2018-08-22T12:56:29.143Z</time>
      </trkpt>
      <trkpt lat="48.2373221" lon="-2.1075872">
        <ele>107.103</ele>
        <time>2018-08-22T12:56:31.938Z</time>
      </trkpt>
      <trkpt lat="48.2372348" lon="-2.1077069">
        <ele>107.075</ele>
        <time>2018-08-22T12:56:35.461Z</time>
      </trkpt>
      <trkpt lat="48.2371480" lon="-2.1078269">
        <ele>107.166</ele>
        <time>2018-08-22T12:56:39.241Z</time>
      </trkpt>
      <trkpt lat="48.2370908" lon="-2.1079344">
        <ele>107.285</ele>
        <time>2018-08-22T12:56:42.397Z</time>
      </trkpt>
      <trkpt lat="48.2370306" lon="-2.1080688">
        <ele>107.391</ele>
        <time>2018-08-22T12:56:46.036Z</time>
      </trkpt>
      <trkpt lat="48.2369740" lon="-2.1082094">
        <ele>107.400</ele>
        <time>2018-08-22T12:56:49.431Z</time>
      </trkpt>
      <trkpt lat="48.2369119" lon="-2.1083533">
        <ele>107.304</ele>
        <time>2018-08-22T12:56:52.730Z</time>
      </trkpt>
      <trkpt lat="48.2368428" lon="-2.1084871">
        <ele>107.278</ele>
        <time>2018-08-22T12:56:55.857Z</time>
      </trkpt>
      <trkpt lat="48.2367603" lon="-2.1086030">
        <ele>107.371</ele>
        <time>2018-08-22T12:56:58.940Z</time>
      </trkpt>
      <trkpt lat="48.2366789" lon="-2.1087179">
        <ele>107.447</ele>
        <time>2018-08-22T12:57:01.972Z</time>
      </trkpt>
      <trkpt lat="48.2365891" lon="-2.1088171">
        <ele>107.476</ele>
        <time>2018-08-22T12:57:04.983Z</time>
      </trkpt>
      <trkpt lat="48.2365140" lon="-2.1089162">
        <ele>107.522</ele>
        <time>2018-08-22T12:57:07.690Z</time>
      </trkpt>
      <trkpt lat="48.2364259" lon="-2.1090182">
        <ele>107.705</ele>
        <time>2018-08-22T12:57:10.745Z</time>
      </trkpt>
      <trkpt lat="48.2363227" lon="-2.1091040">
        <ele>108.008</ele>
        <time>2018-08-22T12:57:14.020Z</time>
      </trkpt>
      <trkpt lat="48.2362061" lon="-2.1091733">
        <ele>108.233</ele>
        <time>2018-08-22T12:57:17.427Z</time>
      </trkpt>
      <trkpt lat="48.2360816" lon="-2.1092121">
        <ele>108.268</ele>
        <time>2018-08-22T12:57:20.749Z</time>
      </trkpt>
      <trkpt lat="48.2359604" lon="-2.1092141">
        <ele>108.189</ele>
        <time>2018-08-22T12:57:23.826Z</time>
      </trkpt>
      <trkpt lat="48.2358369" lon="-2.1092116">
        <ele>108.099</ele>
        <time>2018-08-22T12:57:26.926Z</time>
      </trkpt>
      <trkpt lat="48.2357045" lon="-2.1092053">
        <ele>108.005</ele>
        <time>2018-08-22T12:57:30.187Z</time>
      </trkpt>
      <trkpt lat="48.2355753" lon="-2.1091992">
        <ele>107.872</ele>
        <time>2018-08-22T12:57:33.282Z</time>
      </trkpt>
      <trkpt lat="48.2354540" lon="-2.1092043">
        <ele>107.558</ele>
        <time>2018-08-22T12:57:36.163Z</time>
      </trkpt>
      <trkpt lat="48.2353295" lon="-2.1092175">
        <ele>107.017</ele>
        <time>2018-08-22T12:57:39.147Z</time>
      </trkpt>
      <trkpt lat="48.2352001" lon="-2.1092420">
        <ele>106.551</ele>
        <time>2018-08-22T12:57:42.281Z</time>
      </trkpt>
      <trkpt lat="48.2350674" lon="-2.1093158">
        <ele>106.404</ele>
        <time>2018-08-22T12:57:45.639Z</time>
      </trkpt>
      <trkpt lat="48.2349361" lon="-2.1093910">
        <ele>106.434</ele>
        <time>2018-08-22T12:57:48.854Z</time>
      </trkpt>
      <trkpt lat="48.2348122" lon="-2.1094804">
        <ele>106.462</ele>
        <time>2018-08-22T12:57:51.886Z</time>
      </trkpt>
      <trkpt lat="48.2346949" lon="-2.1095735">
        <ele>106.454</ele>
        <time>2018-08-22T12:57:54.792Z</time>
      </trkpt>
      <trkpt lat="48.2345830" lon="-2.1096853">
        <ele>106.453</ele>
        <time>2018-08-22T12:57:57.753Z</time>
      </trkpt>
      <trkpt lat="48.2344735" lon="-2.1098324">
        <ele>106.534</ele>
        <time>2018-08-22T12:58:00.986Z</time>
      </trkpt>
      <trkpt lat="48.2343699" lon="-2.1099851">
        <ele>106.712</ele>
        <time>2018-08-22T12:58:04.138Z</time>
      </trkpt>
      <trkpt lat="48.2342842" lon="-2.1101433">
        <ele>106.886</ele>
        <time>2018-08-22T12:58:07.056Z</time>
      </trkpt>
      <trkpt lat="48.2341944" lon="-2.1103083">
        <ele>106.911</ele>
        <time>2018-08-22T12:58:10.090Z</time>
      </trkpt>
      <trkpt lat="48.2340972" lon="-2.1104665">
        <ele>106.772</ele>
        <time>2018-08-22T12:58:13.136Z</time>
      </trkpt>
      <trkpt lat="48.2339877" lon="-2.1105983">
        <ele>106.605</ele>
        <time>2018-08-22T12:58:16.131Z</time>
      </trkpt>
      <trkpt lat="48.2338834" lon="-2.1107296">
        <ele>106.538</ele>
        <time>2018-08-22T12:58:19.081Z</time>
      </trkpt>
      <trkpt lat="48.2337818" lon="-2.1108574">
        <ele>106.565</ele>
        <time>2018-08-22T12:58:21.991Z</time>
      </trkpt>
      <trkpt lat="48.2337818" lon="-2.1108574">
        <ele>106.621</ele>
        <time>2018-08-22T12:58:22.991Z</time>
      </trkpt>
      <trkpt lat="48.2337818" lon="-2.1108574">
        <ele>106.630</ele>
        <time>2018-08-22T12:58:23.091Z</time>
      </trkpt>
      <trkpt lat="48.2336268" lon="-2.1110653">
        <ele>106.571</ele>
        <time>2018-08-22T12:58:29.722Z</time>
      </trkpt>
      <trkpt lat="48.2335183" lon="-2.1112036">
        <ele>106.397</ele>
        <time>2018-08-22T12:58:32.808Z</time>
      </trkpt>
      <trkpt lat="48.2334123" lon="-2.1113488">
        <ele>106.096</ele>
        <time>2018-08-22T12:58:35.867Z</time>
      </trkpt>
      <trkpt lat="48.2333413" lon="-2.1115186">
        <ele>105.852</ele>
        <time>2018-08-22T12:58:38.711Z</time>
      </trkpt>
      <trkpt lat="48.2332969" lon="-2.1117286">
        <ele>105.808</ele>
        <time>2018-08-22T12:58:41.935Z</time>
      </trkpt>
      <trkpt lat="48.2332668" lon="-2.1119027">
        <ele>105.679</ele>
        <time>2018-08-22T12:58:44.676Z</time>
      </trkpt>
      <trkpt lat="48.2332547" lon="-2.1120916">
        <ele>105.198</ele>
        <time>2018-08-22T12:58:47.646Z</time>
      </trkpt>
      <trkpt lat="48.2332539" lon="-2.1122966">
        <ele>104.612</ele>
        <time>2018-08-22T12:58:50.905Z</time>
      </trkpt>
      <trkpt lat="48.2332492" lon="-2.1124871">
        <ele>104.224</ele>
        <time>2018-08-22T12:58:53.882Z</time>
      </trkpt>
      <trkpt lat="48.2332474" lon="-2.1126997">
        <ele>104.001</ele>
        <time>2018-08-22T12:58:57.169Z</time>
      </trkpt>
      <trkpt lat="48.2332557" lon="-2.1128957">
        <ele>103.802</ele>
        <time>2018-08-22T12:59:00.166Z</time>
      </trkpt>
      <trkpt lat="48.2332572" lon="-2.1131066">
        <ele>103.540</ele>
        <time>2018-08-22T12:59:03.324Z</time>
      </trkpt>
      <trkpt lat="48.2332528" lon="-2.1133235">
        <ele>103.184</ele>
        <time>2018-08-22T12:59:06.547Z</time>
      </trkpt>
      <trkpt lat="48.2332447" lon="-2.1135309">
        <ele>102.688</ele>
        <time>2018-08-22T12:59:09.747Z</time>
      </trkpt>
      <trkpt lat="48.2332314" lon="-2.1137281">
        <ele>102.060</ele>
        <time>2018-08-22T12:59:12.985Z</time>
      </trkpt>
      <trkpt lat="48.2332234" lon="-2.1139042">
        <ele>101.508</ele>
        <time>2018-08-22T12:59:15.893Z</time>
      </trkpt>
      <trkpt lat="48.2332248" lon="-2.1140828">
        <ele>101.210</ele>
        <time>2018-08-22T12:59:18.729Z</time>
      </trkpt>
      <trkpt lat="48.2332174" lon="-2.1142748">
        <ele>101.079</ele>
        <time>2018-08-22T12:59:21.653Z</time>
      </trkpt>
      <trkpt lat="48.2332111" lon="-2.1144756">
        <ele>100.924</ele>
        <time>2018-08-22T12:59:24.614Z</time>
      </trkpt>
      <trkpt lat="48.2331986" lon="-2.1146202">
        <ele>100.706</ele>
        <time>2018-08-22T12:59:26.779Z</time>
      </trkpt>
      <trkpt lat="48.2331763" lon="-2.1148072">
        <ele>100.492</ele>
        <time>2018-08-22T12:59:29.648Z</time>
      </trkpt>
      <trkpt lat="48.2331321" lon="-2.1149974">
        <ele>100.316</ele>
        <time>2018-08-22T12:59:32.677Z</time>
      </trkpt>
      <trkpt lat="48.2330728" lon="-2.1151828">
        <ele>100.194</ele>
        <time>2018-08-22T12:59:35.640Z</time>
      </trkpt>
      <trkpt lat="48.2330309" lon="-2.1153162">
        <ele>100.130</ele>
        <time>2018-08-22T12:59:37.745Z</time>
      </trkpt>
      <trkpt lat="48.2329938" lon="-2.1154493">
        <ele>100.086</ele>
        <time>2018-08-22T12:59:39.881Z</time>
      </trkpt>
      <trkpt lat="48.2329547" lon="-2.1155819">
        <ele>100.009</ele>
        <time>2018-08-22T12:59:42.080Z</time>
      </trkpt>
      <trkpt lat="48.2328991" lon="-2.1157537">
        <ele>99.932</ele>
        <time>2018-08-22T12:59:45.036Z</time>
      </trkpt>
      <trkpt lat="48.2328540" lon="-2.1159235">
        <ele>99.854</ele>
        <time>2018-08-22T12:59:47.888Z</time>
      </trkpt>
      <trkpt lat="48.2328058" lon="-2.1161004">
        <ele>99.740</ele>
        <time>2018-08-22T12:59:50.999Z</time>
      </trkpt>
      <trkpt lat="48.2327658" lon="-2.1162700">
        <ele>99.646</ele>
        <time>2018-08-22T12:59:54.243Z</time>
      </trkpt>
      <trkpt lat="48.2327254" lon="-2.1164192">
        <ele>99.714</ele>
        <time>2018-08-22T12:59:57.602Z</time>
      </trkpt>
      <trkpt lat="48.2327035" lon="-2.1165535">
        <ele>100.030</ele>
        <time>2018-08-22T13:00:00.863Z</time>
      </trkpt>
      <trkpt lat="48.2326596" lon="-2.1167033">
        <ele>100.497</ele>
        <time>2018-08-22T13:00:05.117Z</time>
      </trkpt>
      <trkpt lat="48.2326290" lon="-2.1168363">
        <ele>100.897</ele>
        <time>2018-08-22T13:00:08.491Z</time>
      </trkpt>
      <trkpt lat="48.2325896" lon="-2.1170046">
        <ele>100.923</ele>
        <time>2018-08-22T13:00:12.133Z</time>
      </trkpt>
      <trkpt lat="48.2325636" lon="-2.1171507">
        <ele>100.497</ele>
        <time>2018-08-22T13:00:14.999Z</time>
      </trkpt>
      <trkpt lat="48.2325382" lon="-2.1173097">
        <ele>99.878</ele>
        <time>2018-08-22T13:00:17.943Z</time>
      </trkpt>
      <trkpt lat="48.2325141" lon="-2.1174788">
        <ele>99.274</ele>
        <time>2018-08-22T13:00:21.039Z</time>
      </trkpt>
      <trkpt lat="48.2324826" lon="-2.1176436">
        <ele>98.742</ele>
        <time>2018-08-22T13:00:24.248Z</time>
      </trkpt>
      <trkpt lat="48.2324469" lon="-2.1177925">
        <ele>98.386</ele>
        <time>2018-08-22T13:00:27.303Z</time>
      </trkpt>
      <trkpt lat="48.2324100" lon="-2.1179431">
        <ele>98.259</ele>
        <time>2018-08-22T13:00:30.346Z</time>
      </trkpt>
      <trkpt lat="48.2323714" lon="-2.1180998">
        <ele>98.384</ele>
        <time>2018-08-22T13:00:33.410Z</time>
      </trkpt>
      <trkpt lat="48.2323233" lon="-2.1182666">
        <ele>98.678</ele>
        <time>2018-08-22T13:00:36.365Z</time>
      </trkpt>
      <trkpt lat="48.2322961" lon="-2.1184521">
        <ele>99.079</ele>
        <time>2018-08-22T13:00:38.893Z</time>
      </trkpt>
      <trkpt lat="48.2322561" lon="-2.1186711">
        <ele>99.649</ele>
        <time>2018-08-22T13:00:41.449Z</time>
      </trkpt>
      <trkpt lat="48.2322105" lon="-2.1189610">
        <ele>100.272</ele>
        <time>2018-08-22T13:00:44.456Z</time>
      </trkpt>
      <trkpt lat="48.2321430" lon="-2.1192750">
        <ele>100.622</ele>
        <time>2018-08-22T13:00:47.678Z</time>
      </trkpt>
      <trkpt lat="48.2320595" lon="-2.1196434">
        <ele>100.595</ele>
        <time>2018-08-22T13:00:52.761Z</time>
      </trkpt>
      <trkpt lat="48.2320264" lon="-2.1198479">
        <ele>100.388</ele>
        <time>2018-08-22T13:00:55.983Z</time>
      </trkpt>
      <trkpt lat="48.2319898" lon="-2.1200956">
        <ele>100.213</ele>
        <time>2018-08-22T13:01:00.142Z</time>
      </trkpt>
      <trkpt lat="48.2319846" lon="-2.1202790">
        <ele>100.131</ele>
        <time>2018-08-22T13:01:03.345Z</time>
      </trkpt>
      <trkpt lat="48.2319427" lon="-2.1204602">
        <ele>100.018</ele>
        <time>2018-08-22T13:01:06.787Z</time>
      </trkpt>
      <trkpt lat="48.2318668" lon="-2.1206321">
        <ele>99.781</ele>
        <time>2018-08-22T13:01:10.912Z</time>
      </trkpt>
      <trkpt lat="48.2318409" lon="-2.1207761">
        <ele>99.523</ele>
        <time>2018-08-22T13:01:14.021Z</time>
      </trkpt>
      <trkpt lat="48.2317987" lon="-2.1209036">
        <ele>99.410</ele>
        <time>2018-08-22T13:01:17.010Z</time>
      </trkpt>
      <trkpt lat="48.2317352" lon="-2.1210326">
        <ele>99.470</ele>
        <time>2018-08-22T13:01:20.346Z</time>
      </trkpt>
      <trkpt lat="48.2316675" lon="-2.1211396">
        <ele>99.660</ele>
        <time>2018-08-22T13:01:23.379Z</time>
      </trkpt>
      <trkpt lat="48.2315858" lon="-2.1212544">
        <ele>99.901</ele>
        <time>2018-08-22T13:01:26.920Z</time>
      </trkpt>
      <trkpt lat="48.2314952" lon="-2.1213668">
        <ele>100.271</ele>
        <time>2018-08-22T13:01:30.791Z</time>
      </trkpt>
      <trkpt lat="48.2314128" lon="-2.1214581">
        <ele>100.997</ele>
        <time>2018-08-22T13:01:34.801Z</time>
      </trkpt>
      <trkpt lat="48.2313769" lon="-2.1215912">
        <ele>101.948</ele>
        <time>2018-08-22T13:01:38.585Z</time>
      </trkpt>
      <trkpt lat="48.2314051" lon="-2.1217433">
        <ele>102.522</ele>
        <time>2018-08-22T13:01:42.854Z</time>
      </trkpt>
      <trkpt lat="48.2313467" lon="-2.1216330">
        <ele>102.411</ele>
        <time>2018-08-22T13:01:47.135Z</time>
      </trkpt>
      <trkpt lat="48.2313216" lon="-2.1214723">
        <ele>101.794</ele>
        <time>2018-08-22T13:01:52.199Z</time>
      </trkpt>
      <trkpt lat="48.2314251" lon="-2.1214054">
        <ele>100.979</ele>
        <time>2018-08-22T13:01:57.515Z</time>
      </trkpt>
      <trkpt lat="48.2315178" lon="-2.1213277">
        <ele>100.282</ele>
        <time>2018-08-22T13:02:02.847Z</time>
      </trkpt>
      <trkpt lat="48.2314859" lon="-2.1214584">
        <ele>99.921</ele>
        <time>2018-08-22T13:02:07.347Z</time>
      </trkpt>
      <trkpt lat="48.2314095" lon="-2.1215740">
        <ele>99.915</ele>
        <time>2018-08-22T13:02:11.570Z</time>
      </trkpt>
      <trkpt lat="48.2314045" lon="-2.1217425">
        <ele>100.135</ele>
        <time>2018-08-22T13:02:15.027Z</time>
      </trkpt>
      <trkpt lat="48.2314414" lon="-2.1218899">
        <ele>100.174</ele>
        <time>2018-08-22T13:02:17.553Z</time>
      </trkpt>
      <trkpt lat="48.2315081" lon="-2.1220654">
        <ele>99.776</ele>
        <time>2018-08-22T13:02:20.281Z</time>
      </trkpt>
      <trkpt lat="48.2315886" lon="-2.1222658">
        <ele>99.266</ele>
        <time>2018-08-22T13:02:23.067Z</time>
      </trkpt>
      <trkpt lat="48.2316788" lon="-2.1224861">
        <ele>98.876</ele>
        <time>2018-08-22T13:02:26.125Z</time>
      </trkpt>
      <trkpt lat="48.2317857" lon="-2.1227182">
        <ele>98.454</ele>
        <time>2018-08-22T13:02:30.268Z</time>
      </trkpt>
      <trkpt lat="48.2317837" lon="-2.1229223">
        <ele>97.827</ele>
        <time>2018-08-22T13:02:33.684Z</time>
      </trkpt>
      <trkpt lat="48.2316740" lon="-2.1230020">
        <ele>96.894</ele>
        <time>2018-08-22T13:02:36.720Z</time>
      </trkpt>
      <trkpt lat="48.2315617" lon="-2.1230890">
        <ele>95.874</ele>
        <time>2018-08-22T13:02:39.884Z</time>
      </trkpt>
      <trkpt lat="48.2314520" lon="-2.1231681">
        <ele>95.194</ele>
        <time>2018-08-22T13:02:42.983Z</time>
      </trkpt>
      <trkpt lat="48.2313479" lon="-2.1232495">
        <ele>94.901</ele>
        <time>2018-08-22T13:02:46.011Z</time>
      </trkpt>
      <trkpt lat="48.2312484" lon="-2.1233185">
        <ele>94.782</ele>
        <time>2018-08-22T13:02:48.841Z</time>
      </trkpt>
      <trkpt lat="48.2311427" lon="-2.1233833">
        <ele>94.868</ele>
        <time>2018-08-22T13:02:51.858Z</time>
      </trkpt>
      <trkpt lat="48.2310341" lon="-2.1234541">
        <ele>95.664</ele>
        <time>2018-08-22T13:02:55.085Z</time>
      </trkpt>
      <trkpt lat="48.2309201" lon="-2.1235096">
        <ele>96.172</ele>
        <time>2018-08-22T13:02:58.390Z</time>
      </trkpt>
      <trkpt lat="48.2308120" lon="-2.1235662">
        <ele>96.849</ele>
        <time>2018-08-22T13:03:01.721Z</time>
      </trkpt>
      <trkpt lat="48.2306988" lon="-2.1236095">
        <ele>97.561</ele>
        <time>2018-08-22T13:03:05.408Z</time>
      </trkpt>
      <trkpt lat="48.2305946" lon="-2.1236453">
        <ele>98.049</ele>
        <time>2018-08-22T13:03:08.874Z</time>
      </trkpt>
      <trkpt lat="48.2304965" lon="-2.1236738">
        <ele>98.210</ele>
        <time>2018-08-22T13:03:12.172Z</time>
      </trkpt>
      <trkpt lat="48.2303965" lon="-2.1236966">
        <ele>98.193</ele>
        <time>2018-08-22T13:03:15.526Z</time>
      </trkpt>
      <trkpt lat="48.2303093" lon="-2.1237480">
        <ele>98.175</ele>
        <time>2018-08-22T13:03:18.736Z</time>
      </trkpt>
      <trkpt lat="48.2302273" lon="-2.1238091">
        <ele>98.211</ele>
        <time>2018-08-22T13:03:21.893Z</time>
      </trkpt>
      <trkpt lat="48.2301470" lon="-2.1238815">
        <ele>98.616</ele>
        <time>2018-08-22T13:03:24.991Z</time>
      </trkpt>
      <trkpt lat="48.2300548" lon="-2.1239809">
        <ele>99.678</ele>
        <time>2018-08-22T13:03:28.689Z</time>
      </trkpt>
      <trkpt lat="48.2299795" lon="-2.1240629">
        <ele>100.912</ele>
        <time>2018-08-22T13:03:31.744Z</time>
      </trkpt>
      <trkpt lat="48.2299069" lon="-2.1241507">
        <ele>101.707</ele>
        <time>2018-08-22T13:03:34.854Z</time>
      </trkpt>
      <trkpt lat="48.2298030" lon="-2.1242364">
        <ele>102.037</ele>
        <time>2018-08-22T13:03:38.924Z</time>
      </trkpt>
      <trkpt lat="48.2297216" lon="-2.1242977">
        <ele>102.101</ele>
        <time>2018-08-22T13:03:42.094Z</time>
      </trkpt>
      <trkpt lat="48.2296273" lon="-2.1243958">
        <ele>102.026</ele>
        <time>2018-08-22T13:03:45.822Z</time>
      </trkpt>
      <trkpt lat="48.2295332" lon="-2.1244889">
        <ele>101.876</ele>
        <time>2018-08-22T13:03:49.101Z</time>
      </trkpt>
      <trkpt lat="48.2294490" lon="-2.1245630">
        <ele>101.670</ele>
        <time>2018-08-22T13:03:51.780Z</time>
      </trkpt>
      <trkpt lat="48.2293609" lon="-2.1246528">
        <ele>101.439</ele>
        <time>2018-08-22T13:03:54.637Z</time>
      </trkpt>
      <trkpt lat="48.2292811" lon="-2.1247660">
        <ele>101.205</ele>
        <time>2018-08-22T13:03:57.570Z</time>
      </trkpt>
      <trkpt lat="48.2292062" lon="-2.1248920">
        <ele>100.952</ele>
        <time>2018-08-22T13:04:00.525Z</time>
      </trkpt>
      <trkpt lat="48.2291334" lon="-2.1250259">
        <ele>100.656</ele>
        <time>2018-08-22T13:04:03.406Z</time>
      </trkpt>
      <trkpt lat="48.2290676" lon="-2.1251640">
        <ele>100.339</ele>
        <time>2018-08-22T13:04:06.084Z</time>
      </trkpt>
      <trkpt lat="48.2289930" lon="-2.1253038">
        <ele>99.975</ele>
        <time>2018-08-22T13:04:08.809Z</time>
      </trkpt>
      <trkpt lat="48.2289133" lon="-2.1254544">
        <ele>99.557</ele>
        <time>2018-08-22T13:04:11.682Z</time>
      </trkpt>
      <trkpt lat="48.2288026" lon="-2.1256006">
        <ele>99.227</ele>
        <time>2018-08-22T13:04:14.950Z</time>
      </trkpt>
      <trkpt lat="48.2287172" lon="-2.1257521">
        <ele>99.116</ele>
        <time>2018-08-22T13:04:17.911Z</time>
      </trkpt>
      <trkpt lat="48.2286235" lon="-2.1258933">
        <ele>99.149</ele>
        <time>2018-08-22T13:04:20.984Z</time>
      </trkpt>
      <trkpt lat="48.2285171" lon="-2.1260225">
        <ele>99.202</ele>
        <time>2018-08-22T13:04:24.277Z</time>
      </trkpt>
      <trkpt lat="48.2284014" lon="-2.1261055">
        <ele>99.174</ele>
        <time>2018-08-22T13:04:27.461Z</time>
      </trkpt>
      <trkpt lat="48.2282941" lon="-2.1262070">
        <ele>99.040</ele>
        <time>2018-08-22T13:04:30.665Z</time>
      </trkpt>
      <trkpt lat="48.2281836" lon="-2.1262975">
        <ele>98.951</ele>
        <time>2018-08-22T13:04:33.860Z</time>
      </trkpt>
      <trkpt lat="48.2280961" lon="-2.1264203">
        <ele>99.027</ele>
        <time>2018-08-22T13:04:36.946Z</time>
      </trkpt>
      <trkpt lat="48.2280200" lon="-2.1265480">
        <ele>99.008</ele>
        <time>2018-08-22T13:04:40.047Z</time>
      </trkpt>
      <trkpt lat="48.2279441" lon="-2.1266799">
        <ele>98.645</ele>
        <time>2018-08-22T13:04:43.475Z</time>
      </trkpt>
      <trkpt lat="48.2278653" lon="-2.1268022">
        <ele>98.061</ele>
        <time>2018-08-22T13:04:47.120Z</time>
      </trkpt>
      <trkpt lat="48.2277969" lon="-2.1269159">
        <ele>97.506</ele>
        <time>2018-08-22T13:04:50.440Z</time>
      </trkpt>
      <trkpt lat="48.2277436" lon="-2.1270350">
        <ele>97.153</ele>
        <time>2018-08-22T13:04:53.546Z</time>
      </trkpt>
      <trkpt lat="48.2277802" lon="-2.1268817">
        <ele>97.077</ele>
        <time>2018-08-22T13:04:57.074Z</time>
      </trkpt>
      <trkpt lat="48.2278480" lon="-2.1267698">
        <ele>97.169</ele>
        <time>2018-08-22T13:05:00.040Z</time>
      </trkpt>
      <trkpt lat="48.2279188" lon="-2.1266297">
        <ele>97.279</ele>
        <time>2018-08-22T13:05:03.346Z</time>
      </trkpt>
      <trkpt lat="48.2279891" lon="-2.1264999">
        <ele>97.295</ele>
        <time>2018-08-22T13:05:06.710Z</time>
      </trkpt>
      <trkpt lat="48.2280564" lon="-2.1263901">
        <ele>97.155</ele>
        <time>2018-08-22T13:05:09.994Z</time>
      </trkpt>
      <trkpt lat="48.2280427" lon="-2.1265312">
        <ele>96.811</ele>
        <time>2018-08-22T13:05:13.133Z</time>
      </trkpt>
      <trkpt lat="48.2279542" lon="-2.1266659">
        <ele>96.269</ele>
        <time>2018-08-22T13:05:17.175Z</time>
      </trkpt>
      <trkpt lat="48.2278682" lon="-2.1268076">
        <ele>95.692</ele>
        <time>2018-08-22T13:05:20.635Z</time>
      </trkpt>
      <trkpt lat="48.2277826" lon="-2.1269541">
        <ele>95.322</ele>
        <time>2018-08-22T13:05:23.732Z</time>
      </trkpt>
      <trkpt lat="48.2277092" lon="-2.1270830">
        <ele>95.271</ele>
        <time>2018-08-22T13:05:26.393Z</time>
      </trkpt>
      <trkpt lat="48.2276479" lon="-2.1272071">
        <ele>95.446</ele>
        <time>2018-08-22T13:05:28.896Z</time>
      </trkpt>
      <trkpt lat="48.2275937" lon="-2.1273310">
        <ele>95.720</ele>
        <time>2018-08-22T13:05:31.429Z</time>
      </trkpt>
      <trkpt lat="48.2275396" lon="-2.1274694">
        <ele>96.033</ele>
        <time>2018-08-22T13:05:34.357Z</time>
      </trkpt>
      <trkpt lat="48.2274902" lon="-2.1276352">
        <ele>96.295</ele>
        <time>2018-08-22T13:05:37.815Z</time>
      </trkpt>
      <trkpt lat="48.2274428" lon="-2.1277947">
        <ele>96.419</ele>
        <time>2018-08-22T13:05:41.096Z</time>
      </trkpt>
      <trkpt lat="48.2273934" lon="-2.1279550">
        <ele>96.461</ele>
        <time>2018-08-22T13:05:44.311Z</time>
      </trkpt>
      <trkpt lat="48.2273452" lon="-2.1281250">
        <ele>96.504</ele>
        <time>2018-08-22T13:05:47.580Z</time>
      </trkpt>
      <trkpt lat="48.2272908" lon="-2.1282997">
        <ele>96.497</ele>
        <time>2018-08-22T13:05:50.872Z</time>
      </trkpt>
      <trkpt lat="48.2272418" lon="-2.1284808">
        <ele>96.376</ele>
        <time>2018-08-22T13:05:54.080Z</time>
      </trkpt>
      <trkpt lat="48.2272039" lon="-2.1286676">
        <ele>96.163</ele>
        <time>2018-08-22T13:05:57.195Z</time>
      </trkpt>
      <trkpt lat="48.2271826" lon="-2.1288518">
        <ele>95.780</ele>
        <time>2018-08-22T13:06:00.147Z</time>
      </trkpt>
      <trkpt lat="48.2271589" lon="-2.1290325">
        <ele>95.224</ele>
        <time>2018-08-22T13:06:03.080Z</time>
      </trkpt>
      <trkpt lat="48.2271339" lon="-2.1292122">
        <ele>94.808</ele>
        <time>2018-08-22T13:06:06.048Z</time>
      </trkpt>
      <trkpt lat="48.2271119" lon="-2.1293850">
        <ele>94.869</ele>
        <time>2018-08-22T13:06:08.936Z</time>
      </trkpt>
      <trkpt lat="48.2270857" lon="-2.1295642">
        <ele>95.518</ele>
        <time>2018-08-22T13:06:11.980Z</time>
      </trkpt>
      <trkpt lat="48.2270545" lon="-2.1297434">
        <ele>96.509</ele>
        <time>2018-08-22T13:06:15.064Z</time>
      </trkpt>
      <trkpt lat="48.2270125" lon="-2.1299084">
        <ele>97.430</ele>
        <time>2018-08-22T13:06:18.023Z</time>
      </trkpt>
      <trkpt lat="48.2269648" lon="-2.1300622">
        <ele>98.128</ele>
        <time>2018-08-22T13:06:20.899Z</time>
      </trkpt>
      <trkpt lat="48.2268991" lon="-2.1302146">
        <ele>98.610</ele>
        <time>2018-08-22T13:06:24.018Z</time>
      </trkpt>
      <trkpt lat="48.2268354" lon="-2.1303644">
        <ele>98.847</ele>
        <time>2018-08-22T13:06:27.090Z</time>
      </trkpt>
      <trkpt lat="48.2267700" lon="-2.1305073">
        <ele>98.942</ele>
        <time>2018-08-22T13:06:30.101Z</time>
      </trkpt>
      <trkpt lat="48.2267009" lon="-2.1306557">
        <ele>99.034</ele>
        <time>2018-08-22T13:06:33.236Z</time>
      </trkpt>
      <trkpt lat="48.2266293" lon="-2.1308038">
        <ele>99.325</ele>
        <time>2018-08-22T13:06:36.370Z</time>
      </trkpt>
      <trkpt lat="48.2265429" lon="-2.1309359">
        <ele>99.891</ele>
        <time>2018-08-22T13:06:39.503Z</time>
      </trkpt>
      <trkpt lat="48.2264308" lon="-2.1310085">
        <ele>100.377</ele>
        <time>2018-08-22T13:06:42.628Z</time>
      </trkpt>
      <trkpt lat="48.2263108" lon="-2.1310163">
        <ele>100.476</ele>
        <time>2018-08-22T13:06:45.821Z</time>
      </trkpt>
      <trkpt lat="48.2261954" lon="-2.1310082">
        <ele>100.362</ele>
        <time>2018-08-22T13:06:48.990Z</time>
      </trkpt>
      <trkpt lat="48.2261954" lon="-2.1310082">
        <ele>100.261</ele>
        <time>2018-08-22T13:06:50.990Z</time>
      </trkpt>
      <trkpt lat="48.2261954" lon="-2.1310082">
        <ele>100.226</ele>
        <time>2018-08-22T13:06:51.090Z</time>
      </trkpt>
      <trkpt lat="48.2259530" lon="-2.1310617">
        <ele>100.213</ele>
        <time>2018-08-22T13:06:58.800Z</time>
      </trkpt>
      <trkpt lat="48.2258482" lon="-2.1311721">
        <ele>100.114</ele>
        <time>2018-08-22T13:07:01.665Z</time>
      </trkpt>
      <trkpt lat="48.2257610" lon="-2.1313461">
        <ele>99.892</ele>
        <time>2018-08-22T13:07:04.984Z</time>
      </trkpt>
      <trkpt lat="48.2256935" lon="-2.1314876">
        <ele>99.675</ele>
        <time>2018-08-22T13:07:07.622Z</time>
      </trkpt>
      <trkpt lat="48.2256262" lon="-2.1316653">
        <ele>99.604</ele>
        <time>2018-08-22T13:07:10.620Z</time>
      </trkpt>
      <trkpt lat="48.2255669" lon="-2.1318387">
        <ele>99.678</ele>
        <time>2018-08-22T13:07:13.525Z</time>
      </trkpt>
      <trkpt lat="48.2254911" lon="-2.1320186">
        <ele>99.806</ele>
        <time>2018-08-22T13:07:16.808Z</time>
      </trkpt>
      <trkpt lat="48.2255039" lon="-2.1322070">
        <ele>99.908</ele>
        <time>2018-08-22T13:07:19.876Z</time>
      </trkpt>
      <trkpt lat="48.2255368" lon="-2.1323828">
        <ele>99.844</ele>
        <time>2018-08-22T13:07:23.004Z</time>
      </trkpt>
      <trkpt lat="48.2255917" lon="-2.1325409">
        <ele>99.366</ele>
        <time>2018-08-22T13:07:26.182Z</time>
      </trkpt>
      <trkpt lat="48.2256333" lon="-2.1326815">
        <ele>98.574</ele>
        <time>2018-08-22T13:07:29.013Z</time>
      </trkpt>
      <trkpt lat="48.2256723" lon="-2.1328159">
        <ele>97.926</ele>
        <time>2018-08-22T13:07:31.804Z</time>
      </trkpt>
      <trkpt lat="48.2256839" lon="-2.1329690">
        <ele>97.630</ele>
        <time>2018-08-22T13:07:34.782Z</time>
      </trkpt>
      <trkpt lat="48.2256702" lon="-2.1331281">
        <ele>97.365</ele>
        <time>2018-08-22T13:07:37.855Z</time>
      </trkpt>
      <trkpt lat="48.2256404" lon="-2.1332814">
        <ele>96.871</ele>
        <time>2018-08-22T13:07:40.840Z</time>
      </trkpt>
      <trkpt lat="48.2256054" lon="-2.1334344">
        <ele>96.250</ele>
        <time>2018-08-22T13:07:43.791Z</time>
      </trkpt>
      <trkpt lat="48.2255658" lon="-2.1335896">
        <ele>95.709</ele>
        <time>2018-08-22T13:07:46.790Z</time>
      </trkpt>
      <trkpt lat="48.2255284" lon="-2.1337464">
        <ele>95.439</ele>
        <time>2018-08-22T13:07:49.786Z</time>
      </trkpt>
      <trkpt lat="48.2254916" lon="-2.1339051">
        <ele>95.519</ele>
        <time>2018-08-22T13:07:52.765Z</time>
      </trkpt>
      <trkpt lat="48.2254557" lon="-2.1340677">
        <ele>95.785</ele>
        <time>2018-08-22T13:07:55.725Z</time>
      </trkpt>
      <trkpt lat="48.2254189" lon="-2.1342369">
        <ele>96.075</ele>
        <time>2018-08-22T13:07:58.754Z</time>
      </trkpt>
      <trkpt lat="48.2253796" lon="-2.1344059">
        <ele>96.324</ele>
        <time>2018-08-22T13:08:01.808Z</time>
      </trkpt>
      <trkpt lat="48.2253285" lon="-2.1345626">
        <ele>96.582</ele>
        <time>2018-08-22T13:08:04.771Z</time>
      </trkpt>
      <trkpt lat="48.2252627" lon="-2.1347107">
        <ele>96.953</ele>
        <time>2018-08-22T13:08:07.715Z</time>
      </trkpt>
      <trkpt lat="48.2251841" lon="-2.1348556">
        <ele>97.411</ele>
        <time>2018-08-22T13:08:10.746Z</time>
      </trkpt>
      <trkpt lat="48.2251044" lon="-2.1349937">
        <ele>97.831</ele>
        <time>2018-08-22T13:08:13.711Z</time>
      </trkpt>
      <trkpt lat="48.2250261" lon="-2.1351353">
        <ele>98.153</ele>
        <time>2018-08-22T13:08:16.760Z</time>
      </trkpt>
      <trkpt lat="48.2249599" lon="-2.1352813">
        <ele>98.369</ele>
        <time>2018-08-22T13:08:19.748Z</time>
      </trkpt>
      <trkpt lat="48.2248915" lon="-2.1354286">
        <ele>98.493</ele>
        <time>2018-08-22T13:08:22.752Z</time>
      </trkpt>
      <trkpt lat="48.2248250" lon="-2.1355731">
        <ele>98.496</ele>
        <time>2018-08-22T13:08:25.632Z</time>
      </trkpt>
      <trkpt lat="48.2247533" lon="-2.1357154">
        <ele>98.377</ele>
        <time>2018-08-22T13:08:28.500Z</time>
      </trkpt>
      <trkpt lat="48.2246773" lon="-2.1358590">
        <ele>98.230</ele>
        <time>2018-08-22T13:08:31.441Z</time>
      </trkpt>
      <trkpt lat="48.2246051" lon="-2.1360084">
        <ele>98.180</ele>
        <time>2018-08-22T13:08:34.534Z</time>
      </trkpt>
      <trkpt lat="48.2245402" lon="-2.1361553">
        <ele>98.234</ele>
        <time>2018-08-22T13:08:37.905Z</time>
      </trkpt>
      <trkpt lat="48.2244974" lon="-2.1362887">
        <ele>98.220</ele>
        <time>2018-08-22T13:08:41.273Z</time>
      </trkpt>
      <trkpt lat="48.2244300" lon="-2.1364084">
        <ele>97.918</ele>
        <time>2018-08-22T13:08:45.086Z</time>
      </trkpt>
      <trkpt lat="48.2243145" lon="-2.1363928">
        <ele>97.406</ele>
        <time>2018-08-22T13:08:48.775Z</time>
      </trkpt>
      <trkpt lat="48.2242156" lon="-2.1363704">
        <ele>96.999</ele>
        <time>2018-08-22T13:08:51.778Z</time>
      </trkpt>
      <trkpt lat="48.2241112" lon="-2.1363459">
        <ele>96.884</ele>
        <time>2018-08-22T13:08:54.785Z</time>
      </trkpt>
      <trkpt lat="48.2240028" lon="-2.1363309">
        <ele>96.992</ele>
        <time>2018-08-22T13:08:57.652Z</time>
      </trkpt>
      <trkpt lat="48.2238781" lon="-2.1363162">
        <ele>97.053</ele>
        <time>2018-08-22T13:09:00.703Z</time>
      </trkpt>
      <trkpt lat="48.2237515" lon="-2.1362973">
        <ele>96.900</ele>
        <time>2018-08-22T13:09:03.668Z</time>
      </trkpt>
      <trkpt lat="48.2236226" lon="-2.1362580">
        <ele>96.673</ele>
        <time>2018-08-22T13:09:06.617Z</time>
      </trkpt>
      <trkpt lat="48.2234866" lon="-2.1362193">
        <ele>96.538</ele>
        <time>2018-08-22T13:09:09.573Z</time>
      </trkpt>
      <trkpt lat="48.2233399" lon="-2.1361920">
        <ele>96.422</ele>
        <time>2018-08-22T13:09:12.592Z</time>
      </trkpt>
      <trkpt lat="48.2231895" lon="-2.1361493">
        <ele>96.234</ele>
        <time>2018-08-22T13:09:15.572Z</time>
      </trkpt>
      <trkpt lat="48.2230317" lon="-2.1361347">
        <ele>96.119</ele>
        <time>2018-08-22T13:09:18.518Z</time>
      </trkpt>
      <trkpt lat="48.2228732" lon="-2.1360937">
        <ele>96.220</ele>
        <time>2018-08-22T13:09:21.423Z</time>
      </trkpt>
      <trkpt lat="48.2227167" lon="-2.1360502">
        <ele>96.409</ele>
        <time>2018-08-22T13:09:24.179Z</time>
      </trkpt>
      <trkpt lat="48.2225579" lon="-2.1360073">
        <ele>96.455</ele>
        <time>2018-08-22T13:09:26.843Z</time>
      </trkpt>
      <trkpt lat="48.2223648" lon="-2.1359454">
        <ele>96.128</ele>
        <time>2018-08-22T13:09:29.925Z</time>
      </trkpt>
      <trkpt lat="48.2221791" lon="-2.1359008">
        <ele>95.368</ele>
        <time>2018-08-22T13:09:32.685Z</time>
      </trkpt>
      <trkpt lat="48.2219807" lon="-2.1358641">
        <ele>94.360</ele>
        <time>2018-08-22T13:09:35.502Z</time>
      </trkpt>
      <trkpt lat="48.2217638" lon="-2.1358379">
        <ele>93.228</ele>
        <time>2018-08-22T13:09:38.468Z</time>
      </trkpt>
      <trkpt lat="48.2215456" lon="-2.1358002">
        <ele>92.089</ele>
        <time>2018-08-22T13:09:41.357Z</time>
      </trkpt>
      <trkpt lat="48.2213135" lon="-2.1357692">
        <ele>91.189</ele>
        <time>2018-08-22T13:09:44.342Z</time>
      </trkpt>
      <trkpt lat="48.2210828" lon="-2.1357081">
        <ele>90.667</ele>
        <time>2018-08-22T13:09:47.286Z</time>
      </trkpt>
      <trkpt lat="48.2208455" lon="-2.1356393">
        <ele>90.473</ele>
        <time>2018-08-22T13:09:50.275Z</time>
      </trkpt>
      <trkpt lat="48.2206018" lon="-2.1355872">
        <ele>90.410</ele>
        <time>2018-08-22T13:09:53.302Z</time>
      </trkpt>
      <trkpt lat="48.2203595" lon="-2.1355561">
        <ele>90.174</ele>
        <time>2018-08-22T13:09:56.268Z</time>
      </trkpt>
      <trkpt lat="48.2201230" lon="-2.1355002">
        <ele>89.602</ele>
        <time>2018-08-22T13:09:59.156Z</time>
      </trkpt>
      <trkpt lat="48.2198624" lon="-2.1354745">
        <ele>88.707</ele>
        <time>2018-08-22T13:10:02.288Z</time>
      </trkpt>
      <trkpt lat="48.2196148" lon="-2.1354089">
        <ele>87.510</ele>
        <time>2018-08-22T13:10:05.304Z</time>
      </trkpt>
      <trkpt lat="48.2193740" lon="-2.1353763">
        <ele>85.907</ele>
        <time>2018-08-22T13:10:08.200Z</time>
      </trkpt>
      <trkpt lat="48.2191287" lon="-2.1353265">
        <ele>83.788</ele>
        <time>2018-08-22T13:10:11.142Z</time>
      </trkpt>
      <trkpt lat="48.2188780" lon="-2.1352732">
        <ele>81.586</ele>
        <time>2018-08-22T13:10:14.114Z</time>
      </trkpt>
      <trkpt lat="48.2186244" lon="-2.1352162">
        <ele>80.040</ele>
        <time>2018-08-22T13:10:17.063Z</time>
      </trkpt>
      <trkpt lat="48.2183651" lon="-2.1351557">
        <ele>79.301</ele>
        <time>2018-08-22T13:10:20.076Z</time>
      </trkpt>
      <trkpt lat="48.2181277" lon="-2.1350608">
        <ele>78.983</ele>
        <time>2018-08-22T13:10:22.970Z</time>
      </trkpt>
      <trkpt lat="48.2179074" lon="-2.1349064">
        <ele>78.649</ele>
        <time>2018-08-22T13:10:25.888Z</time>
      </trkpt>
      <trkpt lat="48.2176885" lon="-2.1347135">
        <ele>78.017</ele>
        <time>2018-08-22T13:10:28.972Z</time>
      </trkpt>
      <trkpt lat="48.2174930" lon="-2.1345023">
        <ele>77.263</ele>
        <time>2018-08-22T13:10:31.964Z</time>
      </trkpt>
      <trkpt lat="48.2173064" lon="-2.1342891">
        <ele>76.760</ele>
        <time>2018-08-22T13:10:34.957Z</time>
      </trkpt>
      <trkpt lat="48.2171083" lon="-2.1340846">
        <ele>76.487</ele>
        <time>2018-08-22T13:10:38.100Z</time>
      </trkpt>
      <trkpt lat="48.2169313" lon="-2.1338857">
        <ele>76.086</ele>
        <time>2018-08-22T13:10:41.088Z</time>
      </trkpt>
      <trkpt lat="48.2167557" lon="-2.1336979">
        <ele>75.500</ele>
        <time>2018-08-22T13:10:44.154Z</time>
      </trkpt>
      <trkpt lat="48.2165854" lon="-2.1335177">
        <ele>75.037</ele>
        <time>2018-08-22T13:10:47.341Z</time>
      </trkpt>
      <trkpt lat="48.2164411" lon="-2.1333486">
        <ele>74.725</ele>
        <time>2018-08-22T13:10:50.385Z</time>
      </trkpt>
      <trkpt lat="48.2163010" lon="-2.1331983">
        <ele>74.380</ele>
        <time>2018-08-22T13:10:53.423Z</time>
      </trkpt>
      <trkpt lat="48.2161704" lon="-2.1330366">
        <ele>74.068</ele>
        <time>2018-08-22T13:10:56.547Z</time>
      </trkpt>
      <trkpt lat="48.2160481" lon="-2.1328956">
        <ele>73.924</ele>
        <time>2018-08-22T13:10:59.650Z</time>
      </trkpt>
      <trkpt lat="48.2159312" lon="-2.1327779">
        <ele>73.996</ele>
        <time>2018-08-22T13:11:02.856Z</time>
      </trkpt>
      <trkpt lat="48.2158327" lon="-2.1326764">
        <ele>74.276</ele>
        <time>2018-08-22T13:11:05.755Z</time>
      </trkpt>
      <trkpt lat="48.2157280" lon="-2.1325681">
        <ele>74.594</ele>
        <time>2018-08-22T13:11:08.777Z</time>
      </trkpt>
      <trkpt lat="48.2156403" lon="-2.1324428">
        <ele>74.832</ele>
        <time>2018-08-22T13:11:11.585Z</time>
      </trkpt>
      <trkpt lat="48.2155417" lon="-2.1323309">
        <ele>75.016</ele>
        <time>2018-08-22T13:11:14.494Z</time>
      </trkpt>
      <trkpt lat="48.2154352" lon="-2.1322289">
        <ele>75.184</ele>
        <time>2018-08-22T13:11:17.632Z</time>
      </trkpt>
      <trkpt lat="48.2153433" lon="-2.1321250">
        <ele>75.395</ele>
        <time>2018-08-22T13:11:20.943Z</time>
      </trkpt>
      <trkpt lat="48.2152515" lon="-2.1320192">
        <ele>75.746</ele>
        <time>2018-08-22T13:11:24.658Z</time>
      </trkpt>
      <trkpt lat="48.2151727" lon="-2.1319430">
        <ele>76.370</ele>
        <time>2018-08-22T13:11:27.786Z</time>
      </trkpt>
      <trkpt lat="48.2150721" lon="-2.1318511">
        <ele>77.307</ele>
        <time>2018-08-22T13:11:31.727Z</time>
      </trkpt>
      <trkpt lat="48.2149807" lon="-2.1317471">
        <ele>78.359</ele>
        <time>2018-08-22T13:11:35.576Z</time>
      </trkpt>
      <trkpt lat="48.2148899" lon="-2.1316447">
        <ele>79.220</ele>
        <time>2018-08-22T13:11:39.431Z</time>
      </trkpt>
      <trkpt lat="48.2147975" lon="-2.1315774">
        <ele>79.908</ele>
        <time>2018-08-22T13:11:42.936Z</time>
      </trkpt>
      <trkpt lat="48.2147056" lon="-2.1315054">
        <ele>80.667</ele>
        <time>2018-08-22T13:11:46.510Z</time>
      </trkpt>
      <trkpt lat="48.2146047" lon="-2.1314452">
        <ele>81.421</ele>
        <time>2018-08-22T13:11:50.292Z</time>
      </trkpt>
      <trkpt lat="48.2144953" lon="-2.1313770">
        <ele>82.007</ele>
        <time>2018-08-22T13:11:54.530Z</time>
      </trkpt>
      <trkpt lat="48.2144024" lon="-2.1313089">
        <ele>82.634</ele>
        <time>2018-08-22T13:11:59.055Z</time>
      </trkpt>
      <trkpt lat="48.2144693" lon="-2.1312175">
        <ele>83.398</ele>
        <time>2018-08-22T13:12:03.994Z</time>
      </trkpt>
      <trkpt lat="48.2144693" lon="-2.1312175">
        <ele>84.032</ele>
        <time>2018-08-22T13:12:17.994Z</time>
      </trkpt>
      <trkpt lat="48.2144693" lon="-2.1312175">
        <ele>84.292</ele>
        <time>2018-08-22T13:12:48.557Z</time>
      </trkpt>
      <trkpt lat="48.2143479" lon="-2.1313040">
        <ele>84.221</ele>
        <time>2018-08-22T13:12:57.596Z</time>
      </trkpt>
      <trkpt lat="48.2142594" lon="-2.1312556">
        <ele>84.165</ele>
        <time>2018-08-22T13:13:01.307Z</time>
      </trkpt>
      <trkpt lat="48.2141698" lon="-2.1311927">
        <ele>84.361</ele>
        <time>2018-08-22T13:13:05.061Z</time>
      </trkpt>
      <trkpt lat="48.2140753" lon="-2.1311208">
        <ele>84.650</ele>
        <time>2018-08-22T13:13:09.041Z</time>
      </trkpt>
      <trkpt lat="48.2139839" lon="-2.1310662">
        <ele>84.861</ele>
        <time>2018-08-22T13:13:12.733Z</time>
      </trkpt>
      <trkpt lat="48.2138976" lon="-2.1310101">
        <ele>84.848</ele>
        <time>2018-08-22T13:13:16.297Z</time>
      </trkpt>
      <trkpt lat="48.2138103" lon="-2.1309539">
        <ele>84.857</ele>
        <time>2018-08-22T13:13:19.942Z</time>
      </trkpt>
      <trkpt lat="48.2137088" lon="-2.1309135">
        <ele>84.972</ele>
        <time>2018-08-22T13:13:23.949Z</time>
      </trkpt>
      <trkpt lat="48.2136073" lon="-2.1308772">
        <ele>85.251</ele>
        <time>2018-08-22T13:13:27.835Z</time>
      </trkpt>
      <trkpt lat="48.2135099" lon="-2.1308512">
        <ele>85.624</ele>
        <time>2018-08-22T13:13:31.476Z</time>
      </trkpt>
      <trkpt lat="48.2134127" lon="-2.1308628">
        <ele>86.052</ele>
        <time>2018-08-22T13:13:35.105Z</time>
      </trkpt>
      <trkpt lat="48.2133228" lon="-2.1308566">
        <ele>86.700</ele>
        <time>2018-08-22T13:13:38.388Z</time>
      </trkpt>
      <trkpt lat="48.2132087" lon="-2.1308447">
        <ele>87.606</ele>
        <time>2018-08-22T13:13:42.358Z</time>
      </trkpt>
      <trkpt lat="48.2130892" lon="-2.1308425">
        <ele>88.506</ele>
        <time>2018-08-22T13:13:46.351Z</time>
      </trkpt>
      <trkpt lat="48.2129968" lon="-2.1308369">
        <ele>89.222</ele>
        <time>2018-08-22T13:13:49.355Z</time>
      </trkpt>
      <trkpt lat="48.2129063" lon="-2.1308302">
        <ele>89.768</ele>
        <time>2018-08-22T13:13:52.233Z</time>
      </trkpt>
      <trkpt lat="48.2127866" lon="-2.1308227">
        <ele>90.169</ele>
        <time>2018-08-22T13:13:55.992Z</time>
      </trkpt>
      <trkpt lat="48.2127866" lon="-2.1308227">
        <ele>90.393</ele>
        <time>2018-08-22T13:13:55.992Z</time>
      </trkpt>
      <trkpt lat="48.2127866" lon="-2.1308227">
        <ele>90.422</ele>
        <time>2018-08-22T13:13:56.092Z</time>
      </trkpt>
      <trkpt lat="48.2126292" lon="-2.1308140">
        <ele>90.355</ele>
        <time>2018-08-22T13:14:03.364Z</time>
      </trkpt>
      <trkpt lat="48.2125355" lon="-2.1308133">
        <ele>90.459</ele>
        <time>2018-08-22T13:14:06.238Z</time>
      </trkpt>
      <trkpt lat="48.2124411" lon="-2.1308230">
        <ele>90.869</ele>
        <time>2018-08-22T13:14:09.139Z</time>
      </trkpt>
      <trkpt lat="48.2123509" lon="-2.1308469">
        <ele>91.342</ele>
        <time>2018-08-22T13:14:12.066Z</time>
      </trkpt>
      <trkpt lat="48.2122547" lon="-2.1309123">
        <ele>91.601</ele>
        <time>2018-08-22T13:14:15.888Z</time>
      </trkpt>
      <trkpt lat="48.2123270" lon="-2.1308058">
        <ele>91.683</ele>
        <time>2018-08-22T13:14:20.043Z</time>
      </trkpt>
      <trkpt lat="48.2124295" lon="-2.1307804">
        <ele>91.714</ele>
        <time>2018-08-22T13:14:24.343Z</time>
      </trkpt>
      <trkpt lat="48.2125372" lon="-2.1307705">
        <ele>91.709</ele>
        <time>2018-08-22T13:14:28.006Z</time>
      </trkpt>
      <trkpt lat="48.2126391" lon="-2.1307686">
        <ele>91.593</ele>
        <time>2018-08-22T13:14:30.991Z</time>
      </trkpt>
      <trkpt lat="48.2126391" lon="-2.1307686">
        <ele>91.385</ele>
        <time>2018-08-22T13:14:31.991Z</time>
      </trkpt>
      <trkpt lat="48.2126391" lon="-2.1307686">
        <ele>91.227</ele>
        <time>2018-08-22T13:14:32.091Z</time>
      </trkpt>
      <trkpt lat="48.2128146" lon="-2.1307916">
        <ele>91.223</ele>
        <time>2018-08-22T13:14:42.036Z</time>
      </trkpt>
      <trkpt lat="48.2127267" lon="-2.1308406">
        <ele>91.381</ele>
        <time>2018-08-22T13:14:46.265Z</time>
      </trkpt>
      <trkpt lat="48.2126380" lon="-2.1308091">
        <ele>91.677</ele>
        <time>2018-08-22T13:14:50.991Z</time>
      </trkpt>
      <trkpt lat="48.2126380" lon="-2.1308091">
        <ele>92.019</ele>
        <time>2018-08-22T13:14:52.991Z</time>
      </trkpt>
      <trkpt lat="48.2126380" lon="-2.1308091">
        <ele>92.204</ele>
        <time>2018-08-22T13:14:53.091Z</time>
      </trkpt>
      <trkpt lat="48.2128220" lon="-2.1308279">
        <ele>92.152</ele>
        <time>2018-08-22T13:14:58.991Z</time>
      </trkpt>
      <trkpt lat="48.2128220" lon="-2.1308279">
        <ele>92.028</ele>
        <time>2018-08-22T13:15:03.991Z</time>
      </trkpt>
      <trkpt lat="48.2128220" lon="-2.1308279">
        <ele>91.984</ele>
        <time>2018-08-22T13:15:53.171Z</time>
      </trkpt>
      <trkpt lat="48.2126364" lon="-2.1308294">
        <ele>92.005</ele>
        <time>2018-08-22T13:16:05.399Z</time>
      </trkpt>
      <trkpt lat="48.2125293" lon="-2.1308343">
        <ele>92.015</ele>
        <time>2018-08-22T13:16:08.606Z</time>
      </trkpt>
      <trkpt lat="48.2124213" lon="-2.1308516">
        <ele>92.009</ele>
        <time>2018-08-22T13:16:11.590Z</time>
      </trkpt>
      <trkpt lat="48.2123080" lon="-2.1308993">
        <ele>92.028</ele>
        <time>2018-08-22T13:16:14.811Z</time>
      </trkpt>
      <trkpt lat="48.2122113" lon="-2.1309741">
        <ele>92.075</ele>
        <time>2018-08-22T13:16:17.891Z</time>
      </trkpt>
      <trkpt lat="48.2121247" lon="-2.1310626">
        <ele>92.284</ele>
        <time>2018-08-22T13:16:20.832Z</time>
      </trkpt>
      <trkpt lat="48.2120523" lon="-2.1311871">
        <ele>92.763</ele>
        <time>2018-08-22T13:16:23.776Z</time>
      </trkpt>
      <trkpt lat="48.2119915" lon="-2.1313297">
        <ele>93.388</ele>
        <time>2018-08-22T13:16:26.625Z</time>
      </trkpt>
      <trkpt lat="48.2119187" lon="-2.1314659">
        <ele>94.086</ele>
        <time>2018-08-22T13:16:29.458Z</time>
      </trkpt>
      <trkpt lat="48.2118326" lon="-2.1315990">
        <ele>94.779</ele>
        <time>2018-08-22T13:16:32.480Z</time>
      </trkpt>
      <trkpt lat="48.2117443" lon="-2.1317275">
        <ele>95.134</ele>
        <time>2018-08-22T13:16:35.528Z</time>
      </trkpt>
      <trkpt lat="48.2116567" lon="-2.1318468">
        <ele>94.900</ele>
        <time>2018-08-22T13:16:38.464Z</time>
      </trkpt>
      <trkpt lat="48.2115665" lon="-2.1319631">
        <ele>94.289</ele>
        <time>2018-08-22T13:16:41.379Z</time>
      </trkpt>
      <trkpt lat="48.2114687" lon="-2.1320703">
        <ele>93.779</ele>
        <time>2018-08-22T13:16:44.264Z</time>
      </trkpt>
      <trkpt lat="48.2113644" lon="-2.1321860">
        <ele>93.594</ele>
        <time>2018-08-22T13:16:47.252Z</time>
      </trkpt>
      <trkpt lat="48.2112563" lon="-2.1322969">
        <ele>93.613</ele>
        <time>2018-08-22T13:16:50.205Z</time>
      </trkpt>
      <trkpt lat="48.2111533" lon="-2.1324126">
        <ele>93.770</ele>
        <time>2018-08-22T13:16:53.050Z</time>
      </trkpt>
      <trkpt lat="48.2110346" lon="-2.1325198">
        <ele>94.091</ele>
        <time>2018-08-22T13:16:56.032Z</time>
      </trkpt>
      <trkpt lat="48.2109177" lon="-2.1326318">
        <ele>94.530</ele>
        <time>2018-08-22T13:16:58.916Z</time>
      </trkpt>
      <trkpt lat="48.2107979" lon="-2.1327546">
        <ele>94.953</ele>
        <time>2018-08-22T13:17:01.813Z</time>
      </trkpt>
      <trkpt lat="48.2106679" lon="-2.1328867">
        <ele>95.235</ele>
        <time>2018-08-22T13:17:04.841Z</time>
      </trkpt>
      <trkpt lat="48.2105428" lon="-2.1330169">
        <ele>95.328</ele>
        <time>2018-08-22T13:17:07.739Z</time>
      </trkpt>
      <trkpt lat="48.2104101" lon="-2.1331368">
        <ele>95.307</ele>
        <time>2018-08-22T13:17:10.709Z</time>
      </trkpt>
      <trkpt lat="48.2102949" lon="-2.1332639">
        <ele>95.242</ele>
        <time>2018-08-22T13:17:13.526Z</time>
      </trkpt>
      <trkpt lat="48.2101721" lon="-2.1333748">
        <ele>94.975</ele>
        <time>2018-08-22T13:17:16.408Z</time>
      </trkpt>
      <trkpt lat="48.2100492" lon="-2.1334866">
        <ele>94.223</ele>
        <time>2018-08-22T13:17:19.324Z</time>
      </trkpt>
      <trkpt lat="48.2099217" lon="-2.1335805">
        <ele>93.063</ele>
        <time>2018-08-22T13:17:22.235Z</time>
      </trkpt>
      <trkpt lat="48.2097938" lon="-2.1336663">
        <ele>91.958</ele>
        <time>2018-08-22T13:17:25.115Z</time>
      </trkpt>
      <trkpt lat="48.2096603" lon="-2.1337424">
        <ele>91.275</ele>
        <time>2018-08-22T13:17:28.049Z</time>
      </trkpt>
      <trkpt lat="48.2095426" lon="-2.1338580">
        <ele>90.996</ele>
        <time>2018-08-22T13:17:30.928Z</time>
      </trkpt>
      <trkpt lat="48.2094088" lon="-2.1339549">
        <ele>90.968</ele>
        <time>2018-08-22T13:17:33.967Z</time>
      </trkpt>
      <trkpt lat="48.2092930" lon="-2.1340822">
        <ele>91.126</ele>
        <time>2018-08-22T13:17:36.914Z</time>
      </trkpt>
      <trkpt lat="48.2091812" lon="-2.1342184">
        <ele>91.381</ele>
        <time>2018-08-22T13:17:39.868Z</time>
      </trkpt>
      <trkpt lat="48.2090720" lon="-2.1343728">
        <ele>91.625</ele>
        <time>2018-08-22T13:17:42.931Z</time>
      </trkpt>
      <trkpt lat="48.2089802" lon="-2.1345437">
        <ele>91.817</ele>
        <time>2018-08-22T13:17:45.891Z</time>
      </trkpt>
      <trkpt lat="48.2088882" lon="-2.1347194">
        <ele>92.005</ele>
        <time>2018-08-22T13:17:48.869Z</time>
      </trkpt>
      <trkpt lat="48.2088263" lon="-2.1349214">
        <ele>92.226</ele>
        <time>2018-08-22T13:17:51.814Z</time>
      </trkpt>
      <trkpt lat="48.2087660" lon="-2.1351237">
        <ele>92.419</ele>
        <time>2018-08-22T13:17:54.717Z</time>
      </trkpt>
      <trkpt lat="48.2087055" lon="-2.1353327">
        <ele>92.575</ele>
        <time>2018-08-22T13:17:57.690Z</time>
      </trkpt>
      <trkpt lat="48.2086857" lon="-2.1355445">
        <ele>92.775</ele>
        <time>2018-08-22T13:18:00.505Z</time>
      </trkpt>
      <trkpt lat="48.2086802" lon="-2.1357627">
        <ele>93.295</ele>
        <time>2018-08-22T13:18:03.371Z</time>
      </trkpt>
      <trkpt lat="48.2086805" lon="-2.1359875">
        <ele>94.295</ele>
        <time>2018-08-22T13:18:06.280Z</time>
      </trkpt>
      <trkpt lat="48.2086985" lon="-2.1362127">
        <ele>95.328</ele>
        <time>2018-08-22T13:18:09.163Z</time>
      </trkpt>
      <trkpt lat="48.2087077" lon="-2.1364491">
        <ele>95.886</ele>
        <time>2018-08-22T13:18:12.114Z</time>
      </trkpt>
      <trkpt lat="48.2087037" lon="-2.1367124">
        <ele>95.947</ele>
        <time>2018-08-22T13:18:15.300Z</time>
      </trkpt>
      <trkpt lat="48.2086872" lon="-2.1369627">
        <ele>95.644</ele>
        <time>2018-08-22T13:18:18.235Z</time>
      </trkpt>
      <trkpt lat="48.2086541" lon="-2.1372167">
        <ele>95.100</ele>
        <time>2018-08-22T13:18:21.257Z</time>
      </trkpt>
      <trkpt lat="48.2086178" lon="-2.1374234">
        <ele>94.346</ele>
        <time>2018-08-22T13:18:23.879Z</time>
      </trkpt>
      <trkpt lat="48.2085888" lon="-2.1376368">
        <ele>93.492</ele>
        <time>2018-08-22T13:18:26.781Z</time>
      </trkpt>
      <trkpt lat="48.2085497" lon="-2.1378192">
        <ele>92.762</ele>
        <time>2018-08-22T13:18:29.634Z</time>
      </trkpt>
      <trkpt lat="48.2085108" lon="-2.1379781">
        <ele>92.267</ele>
        <time>2018-08-22T13:18:32.434Z</time>
      </trkpt>
      <trkpt lat="48.2084440" lon="-2.1381248">
        <ele>92.009</ele>
        <time>2018-08-22T13:18:35.485Z</time>
      </trkpt>
      <trkpt lat="48.2083769" lon="-2.1382611">
        <ele>91.913</ele>
        <time>2018-08-22T13:18:38.454Z</time>
      </trkpt>
      <trkpt lat="48.2083063" lon="-2.1383729">
        <ele>91.831</ele>
        <time>2018-08-22T13:18:41.267Z</time>
      </trkpt>
      <trkpt lat="48.2082221" lon="-2.1384544">
        <ele>91.744</ele>
        <time>2018-08-22T13:18:44.113Z</time>
      </trkpt>
      <trkpt lat="48.2081343" lon="-2.1385294">
        <ele>91.839</ele>
        <time>2018-08-22T13:18:47.114Z</time>
      </trkpt>
      <trkpt lat="48.2080439" lon="-2.1385865">
        <ele>92.351</ele>
        <time>2018-08-22T13:18:50.229Z</time>
      </trkpt>
      <trkpt lat="48.2079392" lon="-2.1386618">
        <ele>93.187</ele>
        <time>2018-08-22T13:18:54.170Z</time>
      </trkpt>
      <trkpt lat="48.2078561" lon="-2.1387437">
        <ele>93.920</ele>
        <time>2018-08-22T13:18:57.734Z</time>
      </trkpt>
      <trkpt lat="48.2077689" lon="-2.1388249">
        <ele>94.272</ele>
        <time>2018-08-22T13:19:01.506Z</time>
      </trkpt>
      <trkpt lat="48.2076883" lon="-2.1389144">
        <ele>94.300</ele>
        <time>2018-08-22T13:19:05.620Z</time>
      </trkpt>
      <trkpt lat="48.2075935" lon="-2.1389840">
        <ele>94.205</ele>
        <time>2018-08-22T13:19:10.403Z</time>
      </trkpt>
      <trkpt lat="48.2074994" lon="-2.1390774">
        <ele>94.153</ele>
        <time>2018-08-22T13:19:15.292Z</time>
      </trkpt>
      <trkpt lat="48.2074044" lon="-2.1391629">
        <ele>94.196</ele>
        <time>2018-08-22T13:19:19.366Z</time>
      </trkpt>
      <trkpt lat="48.2072984" lon="-2.1392473">
        <ele>94.445</ele>
        <time>2018-08-22T13:19:23.436Z</time>
      </trkpt>
      <trkpt lat="48.2072149" lon="-2.1393043">
        <ele>94.947</ele>
        <time>2018-08-22T13:19:26.443Z</time>
      </trkpt>
      <trkpt lat="48.2071419" lon="-2.1393844">
        <ele>95.446</ele>
        <time>2018-08-22T13:19:29.352Z</time>
      </trkpt>
      <trkpt lat="48.2070660" lon="-2.1394917">
        <ele>95.668</ele>
        <time>2018-08-22T13:19:32.633Z</time>
      </trkpt>
      <trkpt lat="48.2069969" lon="-2.1396158">
        <ele>95.643</ele>
        <time>2018-08-22T13:19:35.913Z</time>
      </trkpt>
      <trkpt lat="48.2069387" lon="-2.1397515">
        <ele>95.520</ele>
        <time>2018-08-22T13:19:39.079Z</time>
      </trkpt>
      <trkpt lat="48.2068854" lon="-2.1398788">
        <ele>95.442</ele>
        <time>2018-08-22T13:19:41.994Z</time>
      </trkpt>
      <trkpt lat="48.2068854" lon="-2.1398788">
        <ele>95.458</ele>
        <time>2018-08-22T13:19:41.994Z</time>
      </trkpt>
      <trkpt lat="48.2068854" lon="-2.1398788">
        <ele>95.483</ele>
        <time>2018-08-22T13:19:42.094Z</time>
      </trkpt>
      <trkpt lat="48.2068103" lon="-2.1401047">
        <ele>95.447</ele>
        <time>2018-08-22T13:19:49.753Z</time>
      </trkpt>
      <trkpt lat="48.2067713" lon="-2.1402439">
        <ele>95.513</ele>
        <time>2018-08-22T13:19:52.853Z</time>
      </trkpt>
      <trkpt lat="48.2067260" lon="-2.1403832">
        <ele>95.859</ele>
        <time>2018-08-22T13:19:55.968Z</time>
      </trkpt>
      <trkpt lat="48.2066841" lon="-2.1405310">
        <ele>96.312</ele>
        <time>2018-08-22T13:19:59.100Z</time>
      </trkpt>
      <trkpt lat="48.2066463" lon="-2.1406754">
        <ele>96.647</ele>
        <time>2018-08-22T13:20:02.059Z</time>
      </trkpt>
      <trkpt lat="48.2066092" lon="-2.1408212">
        <ele>96.859</ele>
        <time>2018-08-22T13:20:05.024Z</time>
      </trkpt>
      <trkpt lat="48.2065768" lon="-2.1409704">
        <ele>97.068</ele>
        <time>2018-08-22T13:20:07.985Z</time>
      </trkpt>
      <trkpt lat="48.2065449" lon="-2.1411288">
        <ele>97.407</ele>
        <time>2018-08-22T13:20:10.951Z</time>
      </trkpt>
      <trkpt lat="48.2065079" lon="-2.1412980">
        <ele>97.835</ele>
        <time>2018-08-22T13:20:13.984Z</time>
      </trkpt>
      <trkpt lat="48.2064706" lon="-2.1414665">
        <ele>98.153</ele>
        <time>2018-08-22T13:20:16.988Z</time>
      </trkpt>
      <trkpt lat="48.2064252" lon="-2.1416416">
        <ele>98.281</ele>
        <time>2018-08-22T13:20:20.304Z</time>
      </trkpt>
      <trkpt lat="48.2063864" lon="-2.1418052">
        <ele>98.156</ele>
        <time>2018-08-22T13:20:23.462Z</time>
      </trkpt>
      <trkpt lat="48.2063508" lon="-2.1419675">
        <ele>97.696</ele>
        <time>2018-08-22T13:20:26.450Z</time>
      </trkpt>
      <trkpt lat="48.2063047" lon="-2.1421386">
        <ele>97.047</ele>
        <time>2018-08-22T13:20:29.369Z</time>
      </trkpt>
      <trkpt lat="48.2062493" lon="-2.1423274">
        <ele>96.480</ele>
        <time>2018-08-22T13:20:32.289Z</time>
      </trkpt>
      <trkpt lat="48.2061891" lon="-2.1425414">
        <ele>96.047</ele>
        <time>2018-08-22T13:20:35.148Z</time>
      </trkpt>
      <trkpt lat="48.2061316" lon="-2.1427957">
        <ele>95.654</ele>
        <time>2018-08-22T13:20:38.023Z</time>
      </trkpt>
      <trkpt lat="48.2060620" lon="-2.1430907">
        <ele>95.210</ele>
        <time>2018-08-22T13:20:40.988Z</time>
      </trkpt>
      <trkpt lat="48.2059860" lon="-2.1434375">
        <ele>94.364</ele>
        <time>2018-08-22T13:20:44.112Z</time>
      </trkpt>
      <trkpt lat="48.2059547" lon="-2.1438027">
        <ele>92.790</ele>
        <time>2018-08-22T13:20:47.150Z</time>
      </trkpt>
      <trkpt lat="48.2059669" lon="-2.1441806">
        <ele>90.940</ele>
        <time>2018-08-22T13:20:50.268Z</time>
      </trkpt>
      <trkpt lat="48.2059935" lon="-2.1445568">
        <ele>89.512</ele>
        <time>2018-08-22T13:20:53.578Z</time>
      </trkpt>
      <trkpt lat="48.2060015" lon="-2.1449057">
        <ele>88.502</ele>
        <time>2018-08-22T13:20:56.984Z</time>
      </trkpt>
      <trkpt lat="48.2059928" lon="-2.1452178">
        <ele>87.719</ele>
        <time>2018-08-22T13:21:00.496Z</time>
      </trkpt>
      <trkpt lat="48.2059559" lon="-2.1454998">
        <ele>87.223</ele>
        <time>2018-08-22T13:21:04.313Z</time>
      </trkpt>
      <trkpt lat="48.2058830" lon="-2.1457146">
        <ele>86.983</ele>
        <time>2018-08-22T13:21:07.875Z</time>
      </trkpt>
      <trkpt lat="48.2057990" lon="-2.1458882">
        <ele>86.790</ele>
        <time>2018-08-22T13:21:11.692Z</time>
      </trkpt>
      <trkpt lat="48.2057139" lon="-2.1460498">
        <ele>86.626</ele>
        <time>2018-08-22T13:21:15.784Z</time>
      </trkpt>
      <trkpt lat="48.2056463" lon="-2.1461887">
        <ele>86.643</ele>
        <time>2018-08-22T13:21:19.203Z</time>
      </trkpt>
      <trkpt lat="48.2056944" lon="-2.1460180">
        <ele>86.883</ele>
        <time>2018-08-22T13:21:22.880Z</time>
      </trkpt>
      <trkpt lat="48.2057620" lon="-2.1458881">
        <ele>87.252</ele>
        <time>2018-08-22T13:21:26.258Z</time>
      </trkpt>
      <trkpt lat="48.2058153" lon="-2.1457792">
        <ele>87.619</ele>
        <time>2018-08-22T13:21:29.608Z</time>
      </trkpt>
      <trkpt lat="48.2058761" lon="-2.1456511">
        <ele>87.765</ele>
        <time>2018-08-22T13:21:34.255Z</time>
      </trkpt>
      <trkpt lat="48.2058514" lon="-2.1458139">
        <ele>87.630</ele>
        <time>2018-08-22T13:21:39.398Z</time>
      </trkpt>
      <trkpt lat="48.2057775" lon="-2.1459233">
        <ele>87.430</ele>
        <time>2018-08-22T13:21:43.524Z</time>
      </trkpt>
      <trkpt lat="48.2057080" lon="-2.1460558">
        <ele>87.374</ele>
        <time>2018-08-22T13:21:47.097Z</time>
      </trkpt>
      <trkpt lat="48.2056357" lon="-2.1461950">
        <ele>87.489</ele>
        <time>2018-08-22T13:21:50.428Z</time>
      </trkpt>
      <trkpt lat="48.2055570" lon="-2.1463333">
        <ele>87.814</ele>
        <time>2018-08-22T13:21:53.708Z</time>
      </trkpt>
      <trkpt lat="48.2054827" lon="-2.1464723">
        <ele>88.309</ele>
        <time>2018-08-22T13:21:56.865Z</time>
      </trkpt>
      <trkpt lat="48.2054114" lon="-2.1466062">
        <ele>88.748</ele>
        <time>2018-08-22T13:21:59.899Z</time>
      </trkpt>
      <trkpt lat="48.2053438" lon="-2.1467448">
        <ele>88.985</ele>
        <time>2018-08-22T13:22:02.964Z</time>
      </trkpt>
      <trkpt lat="48.2052813" lon="-2.1468825">
        <ele>89.131</ele>
        <time>2018-08-22T13:22:05.987Z</time>
      </trkpt>
      <trkpt lat="48.2052201" lon="-2.1470206">
        <ele>89.305</ele>
        <time>2018-08-22T13:22:09.055Z</time>
      </trkpt>
      <trkpt lat="48.2051672" lon="-2.1471600">
        <ele>89.507</ele>
        <time>2018-08-22T13:22:12.080Z</time>
      </trkpt>
      <trkpt lat="48.2051191" lon="-2.1472952">
        <ele>89.688</ele>
        <time>2018-08-22T13:22:15.075Z</time>
      </trkpt>
      <trkpt lat="48.2050653" lon="-2.1474438">
        <ele>89.874</ele>
        <time>2018-08-22T13:22:18.589Z</time>
      </trkpt>
      <trkpt lat="48.2050167" lon="-2.1475711">
        <ele>90.116</ele>
        <time>2018-08-22T13:22:21.991Z</time>
      </trkpt>
      <trkpt lat="48.2050167" lon="-2.1475711">
        <ele>90.364</ele>
        <time>2018-08-22T13:22:24.991Z</time>
      </trkpt>
      <trkpt lat="48.2050167" lon="-2.1475711">
        <ele>90.474</ele>
        <time>2018-08-22T13:22:25.091Z</time>
      </trkpt>
      <trkpt lat="48.2048484" lon="-2.1478773">
        <ele>90.425</ele>
        <time>2018-08-22T13:22:42.769Z</time>
      </trkpt>
      <trkpt lat="48.2047640" lon="-2.1479698">
        <ele>90.363</ele>
        <time>2018-08-22T13:22:47.745Z</time>
      </trkpt>
      <trkpt lat="48.2046763" lon="-2.1480546">
        <ele>90.412</ele>
        <time>2018-08-22T13:22:52.807Z</time>
      </trkpt>
      <trkpt lat="48.2046002" lon="-2.1481345">
        <ele>90.607</ele>
        <time>2018-08-22T13:22:57.313Z</time>
      </trkpt>
      <trkpt lat="48.2045212" lon="-2.1482089">
        <ele>90.947</ele>
        <time>2018-08-22T13:23:01.774Z</time>
      </trkpt>
      <trkpt lat="48.2044430" lon="-2.1482836">
        <ele>91.332</ele>
        <time>2018-08-22T13:23:06.163Z</time>
      </trkpt>
      <trkpt lat="48.2043580" lon="-2.1483603">
        <ele>91.719</ele>
        <time>2018-08-22T13:23:10.859Z</time>
      </trkpt>
      <trkpt lat="48.2042721" lon="-2.1484343">
        <ele>92.122</ele>
        <time>2018-08-22T13:23:15.437Z</time>
      </trkpt>
      <trkpt lat="48.2041903" lon="-2.1485336">
        <ele>92.423</ele>
        <time>2018-08-22T13:23:20.178Z</time>
      </trkpt>
      <trkpt lat="48.2041128" lon="-2.1486266">
        <ele>92.544</ele>
        <time>2018-08-22T13:23:24.694Z</time>
      </trkpt>
      <trkpt lat="48.2040278" lon="-2.1487233">
        <ele>92.621</ele>
        <time>2018-08-22T13:23:29.609Z</time>
      </trkpt>
      <trkpt lat="48.2039449" lon="-2.1488336">
        <ele>92.763</ele>
        <time>2018-08-22T13:23:34.531Z</time>
      </trkpt>
      <trkpt lat="48.2038773" lon="-2.1489269">
        <ele>92.968</ele>
        <time>2018-08-22T13:23:38.474Z</time>
      </trkpt>
      <trkpt lat="48.2037971" lon="-2.1490404">
        <ele>93.206</ele>
        <time>2018-08-22T13:23:42.877Z</time>
      </trkpt>
      <trkpt lat="48.2037169" lon="-2.1491492">
        <ele>93.478</ele>
        <time>2018-08-22T13:23:46.623Z</time>
      </trkpt>
      <trkpt lat="48.2036556" lon="-2.1492509">
        <ele>93.751</ele>
        <time>2018-08-22T13:23:49.545Z</time>
      </trkpt>
      <trkpt lat="48.2035967" lon="-2.1493599">
        <ele>94.009</ele>
        <time>2018-08-22T13:23:52.388Z</time>
      </trkpt>
      <trkpt lat="48.2035274" lon="-2.1494657">
        <ele>94.277</ele>
        <time>2018-08-22T13:23:55.292Z</time>
      </trkpt>
      <trkpt lat="48.2034554" lon="-2.1495677">
        <ele>94.552</ele>
        <time>2018-08-22T13:23:58.144Z</time>
      </trkpt>
      <trkpt lat="48.2033824" lon="-2.1496697">
        <ele>94.800</ele>
        <time>2018-08-22T13:24:01.001Z</time>
      </trkpt>
      <trkpt lat="48.2033103" lon="-2.1497657">
        <ele>95.015</ele>
        <time>2018-08-22T13:24:03.785Z</time>
      </trkpt>
      <trkpt lat="48.2032368" lon="-2.1498577">
        <ele>95.141</ele>
        <time>2018-08-22T13:24:06.584Z</time>
      </trkpt>
      <trkpt lat="48.2031639" lon="-2.1499508">
        <ele>95.144</ele>
        <time>2018-08-22T13:24:09.412Z</time>
      </trkpt>
      <trkpt lat="48.2030883" lon="-2.1500397">
        <ele>95.162</ele>
        <time>2018-08-22T13:24:12.247Z</time>
      </trkpt>
      <trkpt lat="48.2030061" lon="-2.1501276">
        <ele>95.326</ele>
        <time>2018-08-22T13:24:15.191Z</time>
      </trkpt>
      <trkpt lat="48.2029222" lon="-2.1502120">
        <ele>95.630</ele>
        <time>2018-08-22T13:24:18.113Z</time>
      </trkpt>
      <trkpt lat="48.2028411" lon="-2.1502991">
        <ele>96.014</ele>
        <time>2018-08-22T13:24:20.988Z</time>
      </trkpt>
      <trkpt lat="48.2027606" lon="-2.1503861">
        <ele>96.401</ele>
        <time>2018-08-22T13:24:23.835Z</time>
      </trkpt>
      <trkpt lat="48.2026802" lon="-2.1504755">
        <ele>96.692</ele>
        <time>2018-08-22T13:24:26.695Z</time>
      </trkpt>
      <trkpt lat="48.2025974" lon="-2.1505628">
        <ele>96.890</ele>
        <time>2018-08-22T13:24:29.578Z</time>
      </trkpt>
      <trkpt lat="48.2025131" lon="-2.1506475">
        <ele>97.158</ele>
        <time>2018-08-22T13:24:32.462Z</time>
      </trkpt>
      <trkpt lat="48.2024320" lon="-2.1507310">
        <ele>97.619</ele>
        <time>2018-08-22T13:24:35.261Z</time>
      </trkpt>
      <trkpt lat="48.2023507" lon="-2.1508164">
        <ele>98.142</ele>
        <time>2018-08-22T13:24:38.084Z</time>
      </trkpt>
      <trkpt lat="48.2022640" lon="-2.1509004">
        <ele>98.510</ele>
        <time>2018-08-22T13:24:41.011Z</time>
      </trkpt>
      <trkpt lat="48.2021812" lon="-2.1509844">
        <ele>98.737</ele>
        <time>2018-08-22T13:24:43.838Z</time>
      </trkpt>
      <trkpt lat="48.2021001" lon="-2.1510757">
        <ele>98.962</ele>
        <time>2018-08-22T13:24:46.695Z</time>
      </trkpt>
      <trkpt lat="48.2020123" lon="-2.1511673">
        <ele>99.204</ele>
        <time>2018-08-22T13:24:49.671Z</time>
      </trkpt>
      <trkpt lat="48.2019218" lon="-2.1512621">
        <ele>99.425</ele>
        <time>2018-08-22T13:24:52.678Z</time>
      </trkpt>
      <trkpt lat="48.2018322" lon="-2.1513569">
        <ele>99.654</ele>
        <time>2018-08-22T13:24:55.613Z</time>
      </trkpt>
      <trkpt lat="48.2017453" lon="-2.1514530">
        <ele>99.888</ele>
        <time>2018-08-22T13:24:58.483Z</time>
      </trkpt>
      <trkpt lat="48.2016606" lon="-2.1515462">
        <ele>100.101</ele>
        <time>2018-08-22T13:25:01.282Z</time>
      </trkpt>
      <trkpt lat="48.2015745" lon="-2.1516346">
        <ele>100.300</ele>
        <time>2018-08-22T13:25:04.077Z</time>
      </trkpt>
      <trkpt lat="48.2014870" lon="-2.1517174">
        <ele>100.603</ele>
        <time>2018-08-22T13:25:06.866Z</time>
      </trkpt>
      <trkpt lat="48.2013941" lon="-2.1517907">
        <ele>101.116</ele>
        <time>2018-08-22T13:25:09.710Z</time>
      </trkpt>
      <trkpt lat="48.2013074" lon="-2.1518578">
        <ele>101.719</ele>
        <time>2018-08-22T13:25:12.392Z</time>
      </trkpt>
      <trkpt lat="48.2012118" lon="-2.1519120">
        <ele>102.163</ele>
        <time>2018-08-22T13:25:15.255Z</time>
      </trkpt>
      <trkpt lat="48.2011168" lon="-2.1519765">
        <ele>102.391</ele>
        <time>2018-08-22T13:25:18.182Z</time>
      </trkpt>
      <trkpt lat="48.2010306" lon="-2.1520315">
        <ele>102.572</ele>
        <time>2018-08-22T13:25:20.821Z</time>
      </trkpt>
      <trkpt lat="48.2010694" lon="-2.1519025">
        <ele>102.852</ele>
        <time>2018-08-22T13:25:24.650Z</time>
      </trkpt>
      <trkpt lat="48.2011764" lon="-2.1518632">
        <ele>103.222</ele>
        <time>2018-08-22T13:25:30.296Z</time>
      </trkpt>
      <trkpt lat="48.2012807" lon="-2.1517982">
        <ele>103.575</ele>
        <time>2018-08-22T13:25:35.996Z</time>
      </trkpt>
      <trkpt lat="48.2012807" lon="-2.1517982">
        <ele>103.752</ele>
        <time>2018-08-22T13:25:37.996Z</time>
      </trkpt>
      <trkpt lat="48.2012807" lon="-2.1517982">
        <ele>103.694</ele>
        <time>2018-08-22T13:25:38.096Z</time>
      </trkpt>
      <trkpt lat="48.2014838" lon="-2.1516260">
        <ele>103.551</ele>
        <time>2018-08-22T13:25:48.163Z</time>
      </trkpt>
      <trkpt lat="48.2015775" lon="-2.1515342">
        <ele>103.411</ele>
        <time>2018-08-22T13:25:52.303Z</time>
      </trkpt>
      <trkpt lat="48.2016663" lon="-2.1514488">
        <ele>103.232</ele>
        <time>2018-08-22T13:25:56.541Z</time>
      </trkpt>
      <trkpt lat="48.2016261" lon="-2.1515912">
        <ele>102.973</ele>
        <time>2018-08-22T13:26:00.685Z</time>
      </trkpt>
      <trkpt lat="48.2015353" lon="-2.1516721">
        <ele>102.634</ele>
        <time>2018-08-22T13:26:04.772Z</time>
      </trkpt>
      <trkpt lat="48.2014418" lon="-2.1517601">
        <ele>102.302</ele>
        <time>2018-08-22T13:26:08.263Z</time>
      </trkpt>
      <trkpt lat="48.2013444" lon="-2.1518356">
        <ele>102.191</ele>
        <time>2018-08-22T13:26:11.427Z</time>
      </trkpt>
      <trkpt lat="48.2012433" lon="-2.1518983">
        <ele>102.387</ele>
        <time>2018-08-22T13:26:14.503Z</time>
      </trkpt>
      <trkpt lat="48.2011552" lon="-2.1519457">
        <ele>102.717</ele>
        <time>2018-08-22T13:26:17.285Z</time>
      </trkpt>
      <trkpt lat="48.2010531" lon="-2.1520085">
        <ele>102.989</ele>
        <time>2018-08-22T13:26:21.236Z</time>
      </trkpt>
      <trkpt lat="48.2009503" lon="-2.1520764">
        <ele>103.162</ele>
        <time>2018-08-22T13:26:26.010Z</time>
      </trkpt>
      <trkpt lat="48.2008575" lon="-2.1521229">
        <ele>103.244</ele>
        <time>2018-08-22T13:26:30.348Z</time>
      </trkpt>
      <trkpt lat="48.2007465" lon="-2.1521769">
        <ele>103.327</ele>
        <time>2018-08-22T13:26:35.039Z</time>
      </trkpt>
      <trkpt lat="48.2006648" lon="-2.1522375">
        <ele>103.578</ele>
        <time>2018-08-22T13:26:38.250Z</time>
      </trkpt>
      <trkpt lat="48.2005798" lon="-2.1523050">
        <ele>104.020</ele>
        <time>2018-08-22T13:26:41.445Z</time>
      </trkpt>
      <trkpt lat="48.2004930" lon="-2.1523713">
        <ele>104.459</ele>
        <time>2018-08-22T13:26:44.584Z</time>
      </trkpt>
      <trkpt lat="48.2004064" lon="-2.1524257">
        <ele>104.754</ele>
        <time>2018-08-22T13:26:47.651Z</time>
      </trkpt>
      <trkpt lat="48.2003092" lon="-2.1524986">
        <ele>104.928</ele>
        <time>2018-08-22T13:26:51.431Z</time>
      </trkpt>
      <trkpt lat="48.2002287" lon="-2.1525679">
        <ele>105.042</ele>
        <time>2018-08-22T13:26:54.994Z</time>
      </trkpt>
      <trkpt lat="48.2002287" lon="-2.1525679">
        <ele>105.122</ele>
        <time>2018-08-22T13:27:05.994Z</time>
      </trkpt>
      <trkpt lat="48.2002287" lon="-2.1525679">
        <ele>105.146</ele>
        <time>2018-08-22T13:27:13.055Z</time>
      </trkpt>
      <trkpt lat="48.2000702" lon="-2.1527307">
        <ele>105.088</ele>
        <time>2018-08-22T13:27:27.168Z</time>
      </trkpt>
      <trkpt lat="48.1999859" lon="-2.1528157">
        <ele>104.958</ele>
        <time>2018-08-22T13:27:30.781Z</time>
      </trkpt>
      <trkpt lat="48.1999034" lon="-2.1528891">
        <ele>104.801</ele>
        <time>2018-08-22T13:27:33.658Z</time>
      </trkpt>
      <trkpt lat="48.1998122" lon="-2.1529787">
        <ele>104.732</ele>
        <time>2018-08-22T13:27:36.630Z</time>
      </trkpt>
      <trkpt lat="48.1997188" lon="-2.1530712">
        <ele>104.813</ele>
        <time>2018-08-22T13:27:39.570Z</time>
      </trkpt>
      <trkpt lat="48.1996256" lon="-2.1531696">
        <ele>104.935</ele>
        <time>2018-08-22T13:27:42.554Z</time>
      </trkpt>
      <trkpt lat="48.1995355" lon="-2.1532663">
        <ele>104.989</ele>
        <time>2018-08-22T13:27:45.604Z</time>
      </trkpt>
      <trkpt lat="48.1994526" lon="-2.1533519">
        <ele>104.972</ele>
        <time>2018-08-22T13:27:48.622Z</time>
      </trkpt>
      <trkpt lat="48.1993591" lon="-2.1534588">
        <ele>104.909</ele>
        <time>2018-08-22T13:27:52.650Z</time>
      </trkpt>
      <trkpt lat="48.1992779" lon="-2.1535407">
        <ele>104.834</ele>
        <time>2018-08-22T13:27:56.374Z</time>
      </trkpt>
      <trkpt lat="48.1991976" lon="-2.1536190">
        <ele>104.806</ele>
        <time>2018-08-22T13:28:00.111Z</time>
      </trkpt>
      <trkpt lat="48.1991134" lon="-2.1537012">
        <ele>104.882</ele>
        <time>2018-08-22T13:28:03.935Z</time>
      </trkpt>
      <trkpt lat="48.1990177" lon="-2.1537866">
        <ele>105.057</ele>
        <time>2018-08-22T13:28:07.775Z</time>
      </trkpt>
      <trkpt lat="48.1989285" lon="-2.1538676">
        <ele>105.257</ele>
        <time>2018-08-22T13:28:10.879Z</time>
      </trkpt>
      <trkpt lat="48.1988429" lon="-2.1539641">
        <ele>105.402</ele>
        <time>2018-08-22T13:28:13.965Z</time>
      </trkpt>
      <trkpt lat="48.1987655" lon="-2.1540542">
        <ele>105.467</ele>
        <time>2018-08-22T13:28:16.780Z</time>
      </trkpt>
      <trkpt lat="48.1986865" lon="-2.1541472">
        <ele>105.426</ele>
        <time>2018-08-22T13:28:19.599Z</time>
      </trkpt>
      <trkpt lat="48.1986039" lon="-2.1542387">
        <ele>105.256</ele>
        <time>2018-08-22T13:28:22.386Z</time>
      </trkpt>
      <trkpt lat="48.1985116" lon="-2.1543313">
        <ele>105.022</ele>
        <time>2018-08-22T13:28:25.263Z</time>
      </trkpt>
      <trkpt lat="48.1984135" lon="-2.1544271">
        <ele>104.847</ele>
        <time>2018-08-22T13:28:28.263Z</time>
      </trkpt>
      <trkpt lat="48.1983279" lon="-2.1545203">
        <ele>104.793</ele>
        <time>2018-08-22T13:28:31.131Z</time>
      </trkpt>
      <trkpt lat="48.1982518" lon="-2.1545992">
        <ele>104.858</ele>
        <time>2018-08-22T13:28:33.834Z</time>
      </trkpt>
      <trkpt lat="48.1981753" lon="-2.1546773">
        <ele>105.021</ele>
        <time>2018-08-22T13:28:36.634Z</time>
      </trkpt>
      <trkpt lat="48.1980914" lon="-2.1547563">
        <ele>105.259</ele>
        <time>2018-08-22T13:28:39.588Z</time>
      </trkpt>
      <trkpt lat="48.1979988" lon="-2.1548480">
        <ele>105.539</ele>
        <time>2018-08-22T13:28:42.763Z</time>
      </trkpt>
      <trkpt lat="48.1979059" lon="-2.1549456">
        <ele>105.778</ele>
        <time>2018-08-22T13:28:45.837Z</time>
      </trkpt>
      <trkpt lat="48.1978080" lon="-2.1550511">
        <ele>105.902</ele>
        <time>2018-08-22T13:28:48.969Z</time>
      </trkpt>
      <trkpt lat="48.1977137" lon="-2.1551468">
        <ele>105.925</ele>
        <time>2018-08-22T13:28:51.877Z</time>
      </trkpt>
      <trkpt lat="48.1976214" lon="-2.1552433">
        <ele>105.905</ele>
        <time>2018-08-22T13:28:54.734Z</time>
      </trkpt>
      <trkpt lat="48.1975223" lon="-2.1553443">
        <ele>105.891</ele>
        <time>2018-08-22T13:28:57.748Z</time>
      </trkpt>
      <trkpt lat="48.1974263" lon="-2.1554441">
        <ele>105.890</ele>
        <time>2018-08-22T13:29:00.659Z</time>
      </trkpt>
      <trkpt lat="48.1973314" lon="-2.1555440">
        <ele>105.921</ele>
        <time>2018-08-22T13:29:03.533Z</time>
      </trkpt>
      <trkpt lat="48.1972369" lon="-2.1556454">
        <ele>105.947</ele>
        <time>2018-08-22T13:29:06.411Z</time>
      </trkpt>
      <trkpt lat="48.1971377" lon="-2.1557416">
        <ele>105.881</ele>
        <time>2018-08-22T13:29:09.327Z</time>
      </trkpt>
      <trkpt lat="48.1970310" lon="-2.1558340">
        <ele>105.750</ele>
        <time>2018-08-22T13:29:12.336Z</time>
      </trkpt>
      <trkpt lat="48.1969221" lon="-2.1559262">
        <ele>105.679</ele>
        <time>2018-08-22T13:29:15.361Z</time>
      </trkpt>
      <trkpt lat="48.1968213" lon="-2.1560077">
        <ele>105.702</ele>
        <time>2018-08-22T13:29:18.170Z</time>
      </trkpt>
      <trkpt lat="48.1967300" lon="-2.1560745">
        <ele>105.808</ele>
        <time>2018-08-22T13:29:20.742Z</time>
      </trkpt>
      <trkpt lat="48.1966352" lon="-2.1561567">
        <ele>106.011</ele>
        <time>2018-08-22T13:29:23.595Z</time>
      </trkpt>
      <trkpt lat="48.1965365" lon="-2.1562456">
        <ele>106.275</ele>
        <time>2018-08-22T13:29:26.598Z</time>
      </trkpt>
      <trkpt lat="48.1964307" lon="-2.1563417">
        <ele>106.487</ele>
        <time>2018-08-22T13:29:29.732Z</time>
      </trkpt>
      <trkpt lat="48.1963197" lon="-2.1564359">
        <ele>106.612</ele>
        <time>2018-08-22T13:29:32.852Z</time>
      </trkpt>
      <trkpt lat="48.1962132" lon="-2.1565246">
        <ele>106.688</ele>
        <time>2018-08-22T13:29:35.771Z</time>
      </trkpt>
      <trkpt lat="48.1961071" lon="-2.1566178">
        <ele>106.739</ele>
        <time>2018-08-22T13:29:38.685Z</time>
      </trkpt>
      <trkpt lat="48.1959970" lon="-2.1567126">
        <ele>106.768</ele>
        <time>2018-08-22T13:29:41.660Z</time>
      </trkpt>
      <trkpt lat="48.1958848" lon="-2.1568061">
        <ele>106.801</ele>
        <time>2018-08-22T13:29:44.628Z</time>
      </trkpt>
      <trkpt lat="48.1957741" lon="-2.1568931">
        <ele>106.876</ele>
        <time>2018-08-22T13:29:47.505Z</time>
      </trkpt>
      <trkpt lat="48.1956676" lon="-2.1569837">
        <ele>107.021</ele>
        <time>2018-08-22T13:29:50.348Z</time>
      </trkpt>
      <trkpt lat="48.1955627" lon="-2.1570808">
        <ele>107.239</ele>
        <time>2018-08-22T13:29:53.231Z</time>
      </trkpt>
      <trkpt lat="48.1954635" lon="-2.1571743">
        <ele>107.468</ele>
        <time>2018-08-22T13:29:55.997Z</time>
      </trkpt>
      <trkpt lat="48.1954635" lon="-2.1571743">
        <ele>107.610</ele>
        <time>2018-08-22T13:29:55.997Z</time>
      </trkpt>
      <trkpt lat="48.1954635" lon="-2.1571743">
        <ele>107.631</ele>
        <time>2018-08-22T13:29:56.027Z</time>
      </trkpt>
      <trkpt lat="48.1953326" lon="-2.1572938">
        <ele>107.575</ele>
        <time>2018-08-22T13:30:02.048Z</time>
      </trkpt>
      <trkpt lat="48.1952295" lon="-2.1573757">
        <ele>107.623</ele>
        <time>2018-08-22T13:30:05.107Z</time>
      </trkpt>
      <trkpt lat="48.1951217" lon="-2.1574506">
        <ele>107.970</ele>
        <time>2018-08-22T13:30:08.199Z</time>
      </trkpt>
      <trkpt lat="48.1950156" lon="-2.1575257">
        <ele>108.507</ele>
        <time>2018-08-22T13:30:11.251Z</time>
      </trkpt>
      <trkpt lat="48.1949112" lon="-2.1576004">
        <ele>108.911</ele>
        <time>2018-08-22T13:30:14.272Z</time>
      </trkpt>
      <trkpt lat="48.1948059" lon="-2.1576684">
        <ele>109.091</ele>
        <time>2018-08-22T13:30:17.276Z</time>
      </trkpt>
      <trkpt lat="48.1946968" lon="-2.1577282">
        <ele>109.176</ele>
        <time>2018-08-22T13:30:20.330Z</time>
      </trkpt>
      <trkpt lat="48.1945876" lon="-2.1577805">
        <ele>109.342</ele>
        <time>2018-08-22T13:30:23.377Z</time>
      </trkpt>
      <trkpt lat="48.1944794" lon="-2.1578304">
        <ele>109.648</ele>
        <time>2018-08-22T13:30:26.393Z</time>
      </trkpt>
      <trkpt lat="48.1943723" lon="-2.1578925">
        <ele>110.111</ele>
        <time>2018-08-22T13:30:29.433Z</time>
      </trkpt>
      <trkpt lat="48.1942697" lon="-2.1579668">
        <ele>110.694</ele>
        <time>2018-08-22T13:30:32.436Z</time>
      </trkpt>
      <trkpt lat="48.1941649" lon="-2.1580243">
        <ele>111.214</ele>
        <time>2018-08-22T13:30:35.340Z</time>
      </trkpt>
      <trkpt lat="48.1940538" lon="-2.1580777">
        <ele>111.502</ele>
        <time>2018-08-22T13:30:38.405Z</time>
      </trkpt>
      <trkpt lat="48.1939475" lon="-2.1581227">
        <ele>111.683</ele>
        <time>2018-08-22T13:30:41.204Z</time>
      </trkpt>
      <trkpt lat="48.1938274" lon="-2.1581838">
        <ele>111.937</ele>
        <time>2018-08-22T13:30:44.420Z</time>
      </trkpt>
      <trkpt lat="48.1937339" lon="-2.1582521">
        <ele>112.270</ele>
        <time>2018-08-22T13:30:47.236Z</time>
      </trkpt>
      <trkpt lat="48.1936341" lon="-2.1583235">
        <ele>112.539</ele>
        <time>2018-08-22T13:30:50.310Z</time>
      </trkpt>
      <trkpt lat="48.1935419" lon="-2.1584050">
        <ele>112.663</ele>
        <time>2018-08-22T13:30:53.253Z</time>
      </trkpt>
      <trkpt lat="48.1934450" lon="-2.1585069">
        <ele>112.610</ele>
        <time>2018-08-22T13:30:56.411Z</time>
      </trkpt>
      <trkpt lat="48.1933608" lon="-2.1586265">
        <ele>112.364</ele>
        <time>2018-08-22T13:30:59.473Z</time>
      </trkpt>
      <trkpt lat="48.1932856" lon="-2.1587601">
        <ele>111.965</ele>
        <time>2018-08-22T13:31:02.630Z</time>
      </trkpt>
      <trkpt lat="48.1932373" lon="-2.1588895">
        <ele>111.549</ele>
        <time>2018-08-22T13:31:05.375Z</time>
      </trkpt>
      <trkpt lat="48.1931823" lon="-2.1590358">
        <ele>111.362</ele>
        <time>2018-08-22T13:31:08.456Z</time>
      </trkpt>
      <trkpt lat="48.1931388" lon="-2.1591937">
        <ele>111.501</ele>
        <time>2018-08-22T13:31:11.473Z</time>
      </trkpt>
      <trkpt lat="48.1930939" lon="-2.1593610">
        <ele>111.747</ele>
        <time>2018-08-22T13:31:14.499Z</time>
      </trkpt>
      <trkpt lat="48.1930407" lon="-2.1595340">
        <ele>111.894</ele>
        <time>2018-08-22T13:31:17.623Z</time>
      </trkpt>
      <trkpt lat="48.1929954" lon="-2.1597059">
        <ele>111.937</ele>
        <time>2018-08-22T13:31:20.723Z</time>
      </trkpt>
      <trkpt lat="48.1929586" lon="-2.1598667">
        <ele>111.878</ele>
        <time>2018-08-22T13:31:23.655Z</time>
      </trkpt>
      <trkpt lat="48.1929345" lon="-2.1600375">
        <ele>111.726</ele>
        <time>2018-08-22T13:31:26.668Z</time>
      </trkpt>
      <trkpt lat="48.1929078" lon="-2.1602138">
        <ele>111.590</ele>
        <time>2018-08-22T13:31:29.762Z</time>
      </trkpt>
      <trkpt lat="48.1928868" lon="-2.1603962">
        <ele>111.653</ele>
        <time>2018-08-22T13:31:32.881Z</time>
      </trkpt>
      <trkpt lat="48.1928630" lon="-2.1605777">
        <ele>111.928</ele>
        <time>2018-08-22T13:31:36.015Z</time>
      </trkpt>
      <trkpt lat="48.1928208" lon="-2.1607471">
        <ele>112.227</ele>
        <time>2018-08-22T13:31:39.175Z</time>
      </trkpt>
      <trkpt lat="48.1927672" lon="-2.1609038">
        <ele>112.474</ele>
        <time>2018-08-22T13:31:42.294Z</time>
      </trkpt>
      <trkpt lat="48.1927035" lon="-2.1610501">
        <ele>112.734</ele>
        <time>2018-08-22T13:31:45.547Z</time>
      </trkpt>
      <trkpt lat="48.1926359" lon="-2.1611777">
        <ele>112.953</ele>
        <time>2018-08-22T13:31:49.093Z</time>
      </trkpt>
      <trkpt lat="48.1925794" lon="-2.1612838">
        <ele>113.024</ele>
        <time>2018-08-22T13:31:52.546Z</time>
      </trkpt>
      <trkpt lat="48.1925260" lon="-2.1614002">
        <ele>112.879</ele>
        <time>2018-08-22T13:31:56.299Z</time>
      </trkpt>
      <trkpt lat="48.1925548" lon="-2.1612403">
        <ele>112.435</ele>
        <time>2018-08-22T13:32:00.701Z</time>
      </trkpt>
      <trkpt lat="48.1926162" lon="-2.1611317">
        <ele>111.791</ele>
        <time>2018-08-22T13:32:04.234Z</time>
      </trkpt>
      <trkpt lat="48.1926823" lon="-2.1609899">
        <ele>111.191</ele>
        <time>2018-08-22T13:32:08.332Z</time>
      </trkpt>
      <trkpt lat="48.1927269" lon="-2.1608723">
        <ele>110.783</ele>
        <time>2018-08-22T13:32:11.464Z</time>
      </trkpt>
      <trkpt lat="48.1927709" lon="-2.1607418">
        <ele>110.666</ele>
        <time>2018-08-22T13:32:14.666Z</time>
      </trkpt>
      <trkpt lat="48.1928066" lon="-2.1606036">
        <ele>110.897</ele>
        <time>2018-08-22T13:32:17.780Z</time>
      </trkpt>
      <trkpt lat="48.1928323" lon="-2.1604490">
        <ele>111.302</ele>
        <time>2018-08-22T13:32:21.041Z</time>
      </trkpt>
      <trkpt lat="48.1928512" lon="-2.1603070">
        <ele>111.646</ele>
        <time>2018-08-22T13:32:23.997Z</time>
      </trkpt>
      <trkpt lat="48.1928512" lon="-2.1603070">
        <ele>111.822</ele>
        <time>2018-08-22T13:32:45.996Z</time>
      </trkpt>
      <trkpt lat="48.1928512" lon="-2.1603070">
        <ele>111.838</ele>
        <time>2018-08-22T13:34:24.404Z</time>
      </trkpt>
      <trkpt lat="48.1928377" lon="-2.1606046">
        <ele>111.750</ele>
        <time>2018-08-22T13:34:37.650Z</time>
      </trkpt>
      <trkpt lat="48.1928027" lon="-2.1607385">
        <ele>111.650</ele>
        <time>2018-08-22T13:34:41.350Z</time>
      </trkpt>
      <trkpt lat="48.1927493" lon="-2.1608868">
        <ele>111.567</ele>
        <time>2018-08-22T13:34:45.592Z</time>
      </trkpt>
      <trkpt lat="48.1926942" lon="-2.1610176">
        <ele>111.458</ele>
        <time>2018-08-22T13:34:49.494Z</time>
      </trkpt>
      <trkpt lat="48.1926367" lon="-2.1611418">
        <ele>111.286</ele>
        <time>2018-08-22T13:34:53.216Z</time>
      </trkpt>
      <trkpt lat="48.1925820" lon="-2.1612723">
        <ele>111.028</ele>
        <time>2018-08-22T13:34:56.716Z</time>
      </trkpt>
      <trkpt lat="48.1925300" lon="-2.1613890">
        <ele>110.705</ele>
        <time>2018-08-22T13:34:59.516Z</time>
      </trkpt>
      <trkpt lat="48.1924711" lon="-2.1615130">
        <ele>110.422</ele>
        <time>2018-08-22T13:35:02.329Z</time>
      </trkpt>
      <trkpt lat="48.1924088" lon="-2.1616409">
        <ele>110.316</ele>
        <time>2018-08-22T13:35:05.100Z</time>
      </trkpt>
      <trkpt lat="48.1923434" lon="-2.1617715">
        <ele>110.414</ele>
        <time>2018-08-22T13:35:07.851Z</time>
      </trkpt>
      <trkpt lat="48.1922743" lon="-2.1619080">
        <ele>110.633</ele>
        <time>2018-08-22T13:35:10.646Z</time>
      </trkpt>
      <trkpt lat="48.1922040" lon="-2.1620489">
        <ele>110.889</ele>
        <time>2018-08-22T13:35:13.446Z</time>
      </trkpt>
      <trkpt lat="48.1921328" lon="-2.1621870">
        <ele>111.096</ele>
        <time>2018-08-22T13:35:16.174Z</time>
      </trkpt>
      <trkpt lat="48.1920635" lon="-2.1623330">
        <ele>111.224</ele>
        <time>2018-08-22T13:35:18.938Z</time>
      </trkpt>
      <trkpt lat="48.1919920" lon="-2.1624718">
        <ele>111.364</ele>
        <time>2018-08-22T13:35:21.627Z</time>
      </trkpt>
      <trkpt lat="48.1919208" lon="-2.1626116">
        <ele>111.579</ele>
        <time>2018-08-22T13:35:24.323Z</time>
      </trkpt>
      <trkpt lat="48.1918508" lon="-2.1627501">
        <ele>111.813</ele>
        <time>2018-08-22T13:35:26.993Z</time>
      </trkpt>
      <trkpt lat="48.1918508" lon="-2.1627501">
        <ele>111.967</ele>
        <time>2018-08-22T13:35:28.993Z</time>
      </trkpt>
      <trkpt lat="48.1918508" lon="-2.1627501">
        <ele>111.995</ele>
        <time>2018-08-22T13:35:29.093Z</time>
      </trkpt>
      <trkpt lat="48.1917123" lon="-2.1630283">
        <ele>111.936</ele>
        <time>2018-08-22T13:35:36.886Z</time>
      </trkpt>
      <trkpt lat="48.1916416" lon="-2.1631684">
        <ele>111.960</ele>
        <time>2018-08-22T13:35:39.945Z</time>
      </trkpt>
      <trkpt lat="48.1915767" lon="-2.1632995">
        <ele>112.169</ele>
        <time>2018-08-22T13:35:43.009Z</time>
      </trkpt>
      <trkpt lat="48.1915200" lon="-2.1634183">
        <ele>112.412</ele>
        <time>2018-08-22T13:35:45.938Z</time>
      </trkpt>
      <trkpt lat="48.1914504" lon="-2.1635586">
        <ele>112.570</ele>
        <time>2018-08-22T13:35:49.612Z</time>
      </trkpt>
      <trkpt lat="48.1913944" lon="-2.1636667">
        <ele>112.704</ele>
        <time>2018-08-22T13:35:52.443Z</time>
      </trkpt>
      <trkpt lat="48.1913339" lon="-2.1637791">
        <ele>112.846</ele>
        <time>2018-08-22T13:35:55.406Z</time>
      </trkpt>
      <trkpt lat="48.1912675" lon="-2.1638767">
        <ele>112.980</ele>
        <time>2018-08-22T13:35:58.351Z</time>
      </trkpt>
      <trkpt lat="48.1911931" lon="-2.1639557">
        <ele>113.122</ele>
        <time>2018-08-22T13:36:01.509Z</time>
      </trkpt>
      <trkpt lat="48.1911044" lon="-2.1640186">
        <ele>113.274</ele>
        <time>2018-08-22T13:36:05.263Z</time>
      </trkpt>
      <trkpt lat="48.1909870" lon="-2.1640194">
        <ele>113.348</ele>
        <time>2018-08-22T13:36:09.791Z</time>
      </trkpt>
      <trkpt lat="48.1908803" lon="-2.1640370">
        <ele>113.229</ele>
        <time>2018-08-22T13:36:14.343Z</time>
      </trkpt>
      <trkpt lat="48.1908311" lon="-2.1641635">
        <ele>112.957</ele>
        <time>2018-08-22T13:36:18.926Z</time>
      </trkpt>
      <trkpt lat="48.1908802" lon="-2.1640259">
        <ele>112.715</ele>
        <time>2018-08-22T13:36:23.998Z</time>
      </trkpt>
      <trkpt lat="48.1909718" lon="-2.1639532">
        <ele>112.694</ele>
        <time>2018-08-22T13:36:29.052Z</time>
      </trkpt>
      <trkpt lat="48.1910633" lon="-2.1640494">
        <ele>113.046</ele>
        <time>2018-08-22T13:36:34.055Z</time>
      </trkpt>
      <trkpt lat="48.1910779" lon="-2.1642126">
        <ele>113.684</ele>
        <time>2018-08-22T13:36:38.979Z</time>
      </trkpt>
      <trkpt lat="48.1910617" lon="-2.1643850">
        <ele>114.222</ele>
        <time>2018-08-22T13:36:43.866Z</time>
      </trkpt>
      <trkpt lat="48.1910322" lon="-2.1645666">
        <ele>114.378</ele>
        <time>2018-08-22T13:36:47.943Z</time>
      </trkpt>
      <trkpt lat="48.1910057" lon="-2.1647545">
        <ele>114.222</ele>
        <time>2018-08-22T13:36:51.279Z</time>
      </trkpt>
      <trkpt lat="48.1909744" lon="-2.1649608">
        <ele>113.919</ele>
        <time>2018-08-22T13:36:54.566Z</time>
      </trkpt>
      <trkpt lat="48.1909628" lon="-2.1651001">
        <ele>113.564</ele>
        <time>2018-08-22T13:36:56.623Z</time>
      </trkpt>
      <trkpt lat="48.1909377" lon="-2.1652918">
        <ele>113.222</ele>
        <time>2018-08-22T13:36:59.443Z</time>
      </trkpt>
      <trkpt lat="48.1909170" lon="-2.1654756">
        <ele>112.940</ele>
        <time>2018-08-22T13:37:02.156Z</time>
      </trkpt>
      <trkpt lat="48.1908927" lon="-2.1656544">
        <ele>112.690</ele>
        <time>2018-08-22T13:37:04.894Z</time>
      </trkpt>
      <trkpt lat="48.1908691" lon="-2.1658428">
        <ele>112.383</ele>
        <time>2018-08-22T13:37:07.828Z</time>
      </trkpt>
      <trkpt lat="48.1908550" lon="-2.1659893">
        <ele>111.980</ele>
        <time>2018-08-22T13:37:10.068Z</time>
      </trkpt>
      <trkpt lat="48.1908363" lon="-2.1661314">
        <ele>111.623</ele>
        <time>2018-08-22T13:37:12.190Z</time>
      </trkpt>
      <trkpt lat="48.1908256" lon="-2.1662768">
        <ele>111.381</ele>
        <time>2018-08-22T13:37:14.268Z</time>
      </trkpt>
      <trkpt lat="48.1908092" lon="-2.1664296">
        <ele>111.106</ele>
        <time>2018-08-22T13:37:16.399Z</time>
      </trkpt>
      <trkpt lat="48.1907940" lon="-2.1665823">
        <ele>110.757</ele>
        <time>2018-08-22T13:37:18.465Z</time>
      </trkpt>
      <trkpt lat="48.1907750" lon="-2.1667358">
        <ele>110.464</ele>
        <time>2018-08-22T13:37:20.500Z</time>
      </trkpt>
      <trkpt lat="48.1907555" lon="-2.1668963">
        <ele>110.249</ele>
        <time>2018-08-22T13:37:22.577Z</time>
      </trkpt>
      <trkpt lat="48.1907363" lon="-2.1670506">
        <ele>110.029</ele>
        <time>2018-08-22T13:37:24.541Z</time>
      </trkpt>
      <trkpt lat="48.1907128" lon="-2.1672071">
        <ele>109.800</ele>
        <time>2018-08-22T13:37:26.521Z</time>
      </trkpt>
      <trkpt lat="48.1907050" lon="-2.1673576">
        <ele>109.623</ele>
        <time>2018-08-22T13:37:28.377Z</time>
      </trkpt>
      <trkpt lat="48.1906853" lon="-2.1675040">
        <ele>109.561</ele>
        <time>2018-08-22T13:37:30.224Z</time>
      </trkpt>
      <trkpt lat="48.1906583" lon="-2.1676467">
        <ele>109.610</ele>
        <time>2018-08-22T13:37:32.082Z</time>
      </trkpt>
      <trkpt lat="48.1906353" lon="-2.1678021">
        <ele>109.690</ele>
        <time>2018-08-22T13:37:34.102Z</time>
      </trkpt>
      <trkpt lat="48.1906030" lon="-2.1679410">
        <ele>109.730</ele>
        <time>2018-08-22T13:37:35.985Z</time>
      </trkpt>
      <trkpt lat="48.1905727" lon="-2.1680901">
        <ele>109.716</ele>
        <time>2018-08-22T13:37:37.999Z</time>
      </trkpt>
      <trkpt lat="48.1905727" lon="-2.1680901">
        <ele>109.664</ele>
        <time>2018-08-22T13:37:37.999Z</time>
      </trkpt>
      <trkpt lat="48.1905727" lon="-2.1680901">
        <ele>109.605</ele>
        <time>2018-08-22T13:37:38.093Z</time>
      </trkpt>
      <trkpt lat="48.1905249" lon="-2.1683687">
        <ele>109.559</ele>
        <time>2018-08-22T13:37:43.957Z</time>
      </trkpt>
      <trkpt lat="48.1904681" lon="-2.1685705">
        <ele>109.447</ele>
        <time>2018-08-22T13:37:46.911Z</time>
      </trkpt>
      <trkpt lat="48.1904098" lon="-2.1687814">
        <ele>109.175</ele>
        <time>2018-08-22T13:37:49.967Z</time>
      </trkpt>
      <trkpt lat="48.1903507" lon="-2.1689835">
        <ele>108.877</ele>
        <time>2018-08-22T13:37:52.931Z</time>
      </trkpt>
      <trkpt lat="48.1902906" lon="-2.1691805">
        <ele>108.720</ele>
        <time>2018-08-22T13:37:55.847Z</time>
      </trkpt>
      <trkpt lat="48.1902173" lon="-2.1693799">
        <ele>108.657</ele>
        <time>2018-08-22T13:37:58.909Z</time>
      </trkpt>
      <trkpt lat="48.1901405" lon="-2.1695696">
        <ele>108.616</ele>
        <time>2018-08-22T13:38:01.933Z</time>
      </trkpt>
      <trkpt lat="48.1900660" lon="-2.1697596">
        <ele>108.594</ele>
        <time>2018-08-22T13:38:04.998Z</time>
      </trkpt>
      <trkpt lat="48.1900047" lon="-2.1699532">
        <ele>108.591</ele>
        <time>2018-08-22T13:38:07.991Z</time>
      </trkpt>
      <trkpt lat="48.1899429" lon="-2.1701520">
        <ele>108.600</ele>
        <time>2018-08-22T13:38:11.052Z</time>
      </trkpt>
      <trkpt lat="48.1899454" lon="-2.1703664">
        <ele>108.603</ele>
        <time>2018-08-22T13:38:14.032Z</time>
      </trkpt>
      <trkpt lat="48.1899508" lon="-2.1705886">
        <ele>108.552</ele>
        <time>2018-08-22T13:38:17.109Z</time>
      </trkpt>
      <trkpt lat="48.1898874" lon="-2.1707876">
        <ele>108.474</ele>
        <time>2018-08-22T13:38:20.206Z</time>
      </trkpt>
      <trkpt lat="48.1897721" lon="-2.1709079">
        <ele>108.460</ele>
        <time>2018-08-22T13:38:23.282Z</time>
      </trkpt>
      <trkpt lat="48.1896432" lon="-2.1709442">
        <ele>108.579</ele>
        <time>2018-08-22T13:38:26.352Z</time>
      </trkpt>
      <trkpt lat="48.1895242" lon="-2.1709440">
        <ele>108.846</ele>
        <time>2018-08-22T13:38:29.366Z</time>
      </trkpt>
      <trkpt lat="48.1894252" lon="-2.1710232">
        <ele>109.159</ele>
        <time>2018-08-22T13:38:32.320Z</time>
      </trkpt>
      <trkpt lat="48.1893341" lon="-2.1711154">
        <ele>109.359</ele>
        <time>2018-08-22T13:38:35.157Z</time>
      </trkpt>
      <trkpt lat="48.1892497" lon="-2.1712458">
        <ele>109.404</ele>
        <time>2018-08-22T13:38:38.275Z</time>
      </trkpt>
      <trkpt lat="48.1891879" lon="-2.1713877">
        <ele>109.356</ele>
        <time>2018-08-22T13:38:41.250Z</time>
      </trkpt>
      <trkpt lat="48.1891378" lon="-2.1715418">
        <ele>109.294</ele>
        <time>2018-08-22T13:38:44.331Z</time>
      </trkpt>
      <trkpt lat="48.1891120" lon="-2.1717025">
        <ele>109.255</ele>
        <time>2018-08-22T13:38:47.411Z</time>
      </trkpt>
      <trkpt lat="48.1890814" lon="-2.1718542">
        <ele>109.241</ele>
        <time>2018-08-22T13:38:50.472Z</time>
      </trkpt>
      <trkpt lat="48.1890383" lon="-2.1719908">
        <ele>109.243</ele>
        <time>2018-08-22T13:38:53.366Z</time>
      </trkpt>
      <trkpt lat="48.1889816" lon="-2.1721297">
        <ele>109.309</ele>
        <time>2018-08-22T13:38:56.394Z</time>
      </trkpt>
      <trkpt lat="48.1889172" lon="-2.1722607">
        <ele>109.469</ele>
        <time>2018-08-22T13:38:59.438Z</time>
      </trkpt>
      <trkpt lat="48.1888511" lon="-2.1723805">
        <ele>109.638</ele>
        <time>2018-08-22T13:39:02.391Z</time>
      </trkpt>
      <trkpt lat="48.1887925" lon="-2.1725148">
        <ele>109.786</ele>
        <time>2018-08-22T13:39:05.500Z</time>
      </trkpt>
      <trkpt lat="48.1887338" lon="-2.1726385">
        <ele>109.971</ele>
        <time>2018-08-22T13:39:08.539Z</time>
      </trkpt>
      <trkpt lat="48.1886757" lon="-2.1727575">
        <ele>110.212</ele>
        <time>2018-08-22T13:39:11.534Z</time>
      </trkpt>
      <trkpt lat="48.1886179" lon="-2.1728750">
        <ele>110.476</ele>
        <time>2018-08-22T13:39:14.477Z</time>
      </trkpt>
      <trkpt lat="48.1885593" lon="-2.1729915">
        <ele>110.732</ele>
        <time>2018-08-22T13:39:17.394Z</time>
      </trkpt>
      <trkpt lat="48.1884957" lon="-2.1731005">
        <ele>110.941</ele>
        <time>2018-08-22T13:39:20.256Z</time>
      </trkpt>
      <trkpt lat="48.1884246" lon="-2.1732176">
        <ele>111.057</ele>
        <time>2018-08-22T13:39:23.321Z</time>
      </trkpt>
      <trkpt lat="48.1883522" lon="-2.1733354">
        <ele>111.068</ele>
        <time>2018-08-22T13:39:26.380Z</time>
      </trkpt>
      <trkpt lat="48.1882792" lon="-2.1734548">
        <ele>111.012</ele>
        <time>2018-08-22T13:39:29.478Z</time>
      </trkpt>
      <trkpt lat="48.1882046" lon="-2.1735651">
        <ele>110.968</ele>
        <time>2018-08-22T13:39:32.514Z</time>
      </trkpt>
      <trkpt lat="48.1881288" lon="-2.1736685">
        <ele>110.991</ele>
        <time>2018-08-22T13:39:35.516Z</time>
      </trkpt>
      <trkpt lat="48.1880508" lon="-2.1737693">
        <ele>111.085</ele>
        <time>2018-08-22T13:39:38.565Z</time>
      </trkpt>
      <trkpt lat="48.1879740" lon="-2.1738636">
        <ele>111.220</ele>
        <time>2018-08-22T13:39:41.538Z</time>
      </trkpt>
      <trkpt lat="48.1879052" lon="-2.1739688">
        <ele>111.338</ele>
        <time>2018-08-22T13:39:44.499Z</time>
      </trkpt>
      <trkpt lat="48.1878343" lon="-2.1740718">
        <ele>111.417</ele>
        <time>2018-08-22T13:39:47.454Z</time>
      </trkpt>
      <trkpt lat="48.1877542" lon="-2.1741695">
        <ele>111.499</ele>
        <time>2018-08-22T13:39:50.506Z</time>
      </trkpt>
      <trkpt lat="48.1876782" lon="-2.1742755">
        <ele>111.568</ele>
        <time>2018-08-22T13:39:53.545Z</time>
      </trkpt>
      <trkpt lat="48.1876048" lon="-2.1743772">
        <ele>111.529</ele>
        <time>2018-08-22T13:39:56.483Z</time>
      </trkpt>
      <trkpt lat="48.1875320" lon="-2.1744808">
        <ele>111.356</ele>
        <time>2018-08-22T13:39:59.434Z</time>
      </trkpt>
      <trkpt lat="48.1874538" lon="-2.1745844">
        <ele>111.242</ele>
        <time>2018-08-22T13:40:02.473Z</time>
      </trkpt>
      <trkpt lat="48.1873750" lon="-2.1746909">
        <ele>111.365</ele>
        <time>2018-08-22T13:40:05.537Z</time>
      </trkpt>
      <trkpt lat="48.1872977" lon="-2.1747984">
        <ele>111.634</ele>
        <time>2018-08-22T13:40:08.575Z</time>
      </trkpt>
      <trkpt lat="48.1872252" lon="-2.1749071">
        <ele>111.878</ele>
        <time>2018-08-22T13:40:11.540Z</time>
      </trkpt>
      <trkpt lat="48.1871559" lon="-2.1750205">
        <ele>112.027</ele>
        <time>2018-08-22T13:40:14.480Z</time>
      </trkpt>
      <trkpt lat="48.1870764" lon="-2.1751280">
        <ele>112.141</ele>
        <time>2018-08-22T13:40:17.525Z</time>
      </trkpt>
      <trkpt lat="48.1869917" lon="-2.1752254">
        <ele>112.293</ele>
        <time>2018-08-22T13:40:20.595Z</time>
      </trkpt>
      <trkpt lat="48.1869116" lon="-2.1753216">
        <ele>112.438</ele>
        <time>2018-08-22T13:40:23.549Z</time>
      </trkpt>
      <trkpt lat="48.1868290" lon="-2.1754221">
        <ele>112.570</ele>
        <time>2018-08-22T13:40:26.562Z</time>
      </trkpt>
      <trkpt lat="48.1867500" lon="-2.1755311">
        <ele>112.735</ele>
        <time>2018-08-22T13:40:29.581Z</time>
      </trkpt>
      <trkpt lat="48.1866734" lon="-2.1756406">
        <ele>112.746</ele>
        <time>2018-08-22T13:40:32.518Z</time>
      </trkpt>
      <trkpt lat="48.1865897" lon="-2.1757556">
        <ele>112.459</ele>
        <time>2018-08-22T13:40:35.645Z</time>
      </trkpt>
      <trkpt lat="48.1865120" lon="-2.1758628">
        <ele>112.146</ele>
        <time>2018-08-22T13:40:38.588Z</time>
      </trkpt>
      <trkpt lat="48.1864384" lon="-2.1759766">
        <ele>112.066</ele>
        <time>2018-08-22T13:40:41.544Z</time>
      </trkpt>
      <trkpt lat="48.1863631" lon="-2.1760917">
        <ele>112.122</ele>
        <time>2018-08-22T13:40:44.638Z</time>
      </trkpt>
      <trkpt lat="48.1862973" lon="-2.1761966">
        <ele>112.164</ele>
        <time>2018-08-22T13:40:47.550Z</time>
      </trkpt>
      <trkpt lat="48.1862341" lon="-2.1763015">
        <ele>112.216</ele>
        <time>2018-08-22T13:40:50.417Z</time>
      </trkpt>
      <trkpt lat="48.1861691" lon="-2.1764219">
        <ele>112.380</ele>
        <time>2018-08-22T13:40:53.335Z</time>
      </trkpt>
      <trkpt lat="48.1861282" lon="-2.1765902">
        <ele>112.657</ele>
        <time>2018-08-22T13:40:56.571Z</time>
      </trkpt>
      <trkpt lat="48.1860688" lon="-2.1767170">
        <ele>112.918</ele>
        <time>2018-08-22T13:40:59.543Z</time>
      </trkpt>
      <trkpt lat="48.1859757" lon="-2.1767774">
        <ele>113.063</ele>
        <time>2018-08-22T13:41:02.564Z</time>
      </trkpt>
      <trkpt lat="48.1859096" lon="-2.1768938">
        <ele>113.126</ele>
        <time>2018-08-22T13:41:05.563Z</time>
      </trkpt>
      <trkpt lat="48.1858754" lon="-2.1770375">
        <ele>113.222</ele>
        <time>2018-08-22T13:41:08.464Z</time>
      </trkpt>
      <trkpt lat="48.1858461" lon="-2.1771937">
        <ele>113.379</ele>
        <time>2018-08-22T13:41:11.484Z</time>
      </trkpt>
      <trkpt lat="48.1858170" lon="-2.1773493">
        <ele>113.570</ele>
        <time>2018-08-22T13:41:14.483Z</time>
      </trkpt>
      <trkpt lat="48.1857933" lon="-2.1775108">
        <ele>113.785</ele>
        <time>2018-08-22T13:41:17.528Z</time>
      </trkpt>
      <trkpt lat="48.1857682" lon="-2.1776723">
        <ele>113.959</ele>
        <time>2018-08-22T13:41:20.510Z</time>
      </trkpt>
      <trkpt lat="48.1857409" lon="-2.1778394">
        <ele>114.009</ele>
        <time>2018-08-22T13:41:23.560Z</time>
      </trkpt>
      <trkpt lat="48.1857205" lon="-2.1780064">
        <ele>113.913</ele>
        <time>2018-08-22T13:41:26.588Z</time>
      </trkpt>
      <trkpt lat="48.1857101" lon="-2.1781748">
        <ele>113.715</ele>
        <time>2018-08-22T13:41:29.623Z</time>
      </trkpt>
      <trkpt lat="48.1856966" lon="-2.1783406">
        <ele>113.516</ele>
        <time>2018-08-22T13:41:32.674Z</time>
      </trkpt>
      <trkpt lat="48.1856784" lon="-2.1785003">
        <ele>113.355</ele>
        <time>2018-08-22T13:41:35.609Z</time>
      </trkpt>
      <trkpt lat="48.1856671" lon="-2.1786734">
        <ele>113.163</ele>
        <time>2018-08-22T13:41:38.683Z</time>
      </trkpt>
      <trkpt lat="48.1856664" lon="-2.1788432">
        <ele>112.880</ele>
        <time>2018-08-22T13:41:41.675Z</time>
      </trkpt>
      <trkpt lat="48.1856657" lon="-2.1790146">
        <ele>112.524</ele>
        <time>2018-08-22T13:41:44.652Z</time>
      </trkpt>
      <trkpt lat="48.1856704" lon="-2.1791963">
        <ele>112.187</ele>
        <time>2018-08-22T13:41:47.690Z</time>
      </trkpt>
      <trkpt lat="48.1856737" lon="-2.1793850">
        <ele>111.964</ele>
        <time>2018-08-22T13:41:50.790Z</time>
      </trkpt>
      <trkpt lat="48.1856762" lon="-2.1795610">
        <ele>111.788</ele>
        <time>2018-08-22T13:41:53.752Z</time>
      </trkpt>
      <trkpt lat="48.1856853" lon="-2.1797307">
        <ele>111.517</ele>
        <time>2018-08-22T13:41:56.699Z</time>
      </trkpt>
      <trkpt lat="48.1856915" lon="-2.1798986">
        <ele>111.209</ele>
        <time>2018-08-22T13:41:59.744Z</time>
      </trkpt>
      <trkpt lat="48.1856930" lon="-2.1800496">
        <ele>111.002</ele>
        <time>2018-08-22T13:42:02.485Z</time>
      </trkpt>
      <trkpt lat="48.1856914" lon="-2.1802124">
        <ele>110.952</ele>
        <time>2018-08-22T13:42:05.363Z</time>
      </trkpt>
      <trkpt lat="48.1856878" lon="-2.1803807">
        <ele>111.003</ele>
        <time>2018-08-22T13:42:08.375Z</time>
      </trkpt>
      <trkpt lat="48.1856709" lon="-2.1805353">
        <ele>111.029</ele>
        <time>2018-08-22T13:42:11.191Z</time>
      </trkpt>
      <trkpt lat="48.1856559" lon="-2.1807008">
        <ele>110.921</ele>
        <time>2018-08-22T13:42:14.134Z</time>
      </trkpt>
      <trkpt lat="48.1856324" lon="-2.1808699">
        <ele>110.697</ele>
        <time>2018-08-22T13:42:17.127Z</time>
      </trkpt>
      <trkpt lat="48.1856074" lon="-2.1810354">
        <ele>110.499</ele>
        <time>2018-08-22T13:42:20.048Z</time>
      </trkpt>
      <trkpt lat="48.1855804" lon="-2.1812042">
        <ele>110.433</ele>
        <time>2018-08-22T13:42:23.019Z</time>
      </trkpt>
      <trkpt lat="48.1855496" lon="-2.1813700">
        <ele>110.400</ele>
        <time>2018-08-22T13:42:25.987Z</time>
      </trkpt>
      <trkpt lat="48.1855176" lon="-2.1815318">
        <ele>110.301</ele>
        <time>2018-08-22T13:42:28.925Z</time>
      </trkpt>
      <trkpt lat="48.1854726" lon="-2.1816990">
        <ele>110.186</ele>
        <time>2018-08-22T13:42:32.051Z</time>
      </trkpt>
      <trkpt lat="48.1854278" lon="-2.1818670">
        <ele>110.155</ele>
        <time>2018-08-22T13:42:35.186Z</time>
      </trkpt>
      <trkpt lat="48.1853805" lon="-2.1820292">
        <ele>110.263</ele>
        <time>2018-08-22T13:42:38.223Z</time>
      </trkpt>
      <trkpt lat="48.1853288" lon="-2.1821907">
        <ele>110.470</ele>
        <time>2018-08-22T13:42:41.238Z</time>
      </trkpt>
      <trkpt lat="48.1852796" lon="-2.1823570">
        <ele>110.701</ele>
        <time>2018-08-22T13:42:44.343Z</time>
      </trkpt>
      <trkpt lat="48.1852330" lon="-2.1825146">
        <ele>110.974</ele>
        <time>2018-08-22T13:42:47.353Z</time>
      </trkpt>
      <trkpt lat="48.1851832" lon="-2.1826757">
        <ele>111.277</ele>
        <time>2018-08-22T13:42:50.419Z</time>
      </trkpt>
      <trkpt lat="48.1851398" lon="-2.1828449">
        <ele>111.453</ele>
        <time>2018-08-22T13:42:53.429Z</time>
      </trkpt>
      <trkpt lat="48.1851050" lon="-2.1830197">
        <ele>111.347</ele>
        <time>2018-08-22T13:42:56.287Z</time>
      </trkpt>
      <trkpt lat="48.1850800" lon="-2.1832215">
        <ele>110.906</ele>
        <time>2018-08-22T13:42:59.332Z</time>
      </trkpt>
      <trkpt lat="48.1850472" lon="-2.1834196">
        <ele>110.184</ele>
        <time>2018-08-22T13:43:02.198Z</time>
      </trkpt>
      <trkpt lat="48.1850191" lon="-2.1836368">
        <ele>109.360</ele>
        <time>2018-08-22T13:43:05.153Z</time>
      </trkpt>
      <trkpt lat="48.1849896" lon="-2.1838603">
        <ele>108.717</ele>
        <time>2018-08-22T13:43:08.112Z</time>
      </trkpt>
      <trkpt lat="48.1849677" lon="-2.1840977">
        <ele>108.383</ele>
        <time>2018-08-22T13:43:11.172Z</time>
      </trkpt>
      <trkpt lat="48.1849381" lon="-2.1843460">
        <ele>108.201</ele>
        <time>2018-08-22T13:43:14.285Z</time>
      </trkpt>
      <trkpt lat="48.1849245" lon="-2.1845877">
        <ele>107.939</ele>
        <time>2018-08-22T13:43:17.140Z</time>
      </trkpt>
      <trkpt lat="48.1848961" lon="-2.1848514">
        <ele>107.583</ele>
        <time>2018-08-22T13:43:20.150Z</time>
      </trkpt>
      <trkpt lat="48.1848704" lon="-2.1851335">
        <ele>107.306</ele>
        <time>2018-08-22T13:43:23.301Z</time>
      </trkpt>
      <trkpt lat="48.1848541" lon="-2.1853947">
        <ele>107.030</ele>
        <time>2018-08-22T13:43:26.380Z</time>
      </trkpt>
      <trkpt lat="48.1848358" lon="-2.1856096">
        <ele>106.487</ele>
        <time>2018-08-22T13:43:29.338Z</time>
      </trkpt>
      <trkpt lat="48.1848331" lon="-2.1857805">
        <ele>105.804</ele>
        <time>2018-08-22T13:43:32.178Z</time>
      </trkpt>
      <trkpt lat="48.1848191" lon="-2.1859375">
        <ele>105.408</ele>
        <time>2018-08-22T13:43:35.271Z</time>
      </trkpt>
      <trkpt lat="48.1847148" lon="-2.1859812">
        <ele>105.417</ele>
        <time>2018-08-22T13:43:38.236Z</time>
      </trkpt>
      <trkpt lat="48.1846010" lon="-2.1858768">
        <ele>105.589</ele>
        <time>2018-08-22T13:43:41.336Z</time>
      </trkpt>
      <trkpt lat="48.1844677" lon="-2.1858021">
        <ele>105.596</ele>
        <time>2018-08-22T13:43:44.502Z</time>
      </trkpt>
      <trkpt lat="48.1843507" lon="-2.1857077">
        <ele>105.299</ele>
        <time>2018-08-22T13:43:47.448Z</time>
      </trkpt>
      <trkpt lat="48.1842284" lon="-2.1856158">
        <ele>104.869</ele>
        <time>2018-08-22T13:43:50.390Z</time>
      </trkpt>
      <trkpt lat="48.1840936" lon="-2.1855310">
        <ele>104.465</ele>
        <time>2018-08-22T13:43:53.396Z</time>
      </trkpt>
      <trkpt lat="48.1839491" lon="-2.1854411">
        <ele>104.074</ele>
        <time>2018-08-22T13:43:56.481Z</time>
      </trkpt>
      <trkpt lat="48.1838011" lon="-2.1853399">
        <ele>103.744</ele>
        <time>2018-08-22T13:43:59.599Z</time>
      </trkpt>
      <trkpt lat="48.1836535" lon="-2.1852544">
        <ele>103.497</ele>
        <time>2018-08-22T13:44:02.562Z</time>
      </trkpt>
      <trkpt lat="48.1835507" lon="-2.1851959">
        <ele>103.203</ele>
        <time>2018-08-22T13:44:04.585Z</time>
      </trkpt>
      <trkpt lat="48.1834511" lon="-2.1851371">
        <ele>102.820</ele>
        <time>2018-08-22T13:44:06.541Z</time>
      </trkpt>
      <trkpt lat="48.1833502" lon="-2.1850653">
        <ele>102.450</ele>
        <time>2018-08-22T13:44:08.567Z</time>
      </trkpt>
      <trkpt lat="48.1832445" lon="-2.1849889">
        <ele>102.197</ele>
        <time>2018-08-22T13:44:10.694Z</time>
      </trkpt>
      <trkpt lat="48.1831407" lon="-2.1849282">
        <ele>102.072</ele>
        <time>2018-08-22T13:44:12.725Z</time>
      </trkpt>
      <trkpt lat="48.1830425" lon="-2.1848632">
        <ele>102.046</ele>
        <time>2018-08-22T13:44:14.707Z</time>
      </trkpt>
      <trkpt lat="48.1829451" lon="-2.1848108">
        <ele>102.078</ele>
        <time>2018-08-22T13:44:16.637Z</time>
      </trkpt>
      <trkpt lat="48.1828502" lon="-2.1847490">
        <ele>102.120</ele>
        <time>2018-08-22T13:44:18.580Z</time>
      </trkpt>
      <trkpt lat="48.1827534" lon="-2.1846899">
        <ele>102.032</ele>
        <time>2018-08-22T13:44:20.563Z</time>
      </trkpt>
      <trkpt lat="48.1826567" lon="-2.1846359">
        <ele>101.699</ele>
        <time>2018-08-22T13:44:22.554Z</time>
      </trkpt>
      <trkpt lat="48.1825676" lon="-2.1845711">
        <ele>101.191</ele>
        <time>2018-08-22T13:44:24.484Z</time>
      </trkpt>
      <trkpt lat="48.1824633" lon="-2.1845272">
        <ele>100.622</ele>
        <time>2018-08-22T13:44:26.592Z</time>
      </trkpt>
      <trkpt lat="48.1823685" lon="-2.1844700">
        <ele>100.089</ele>
        <time>2018-08-22T13:44:28.580Z</time>
      </trkpt>
      <trkpt lat="48.1822702" lon="-2.1844371">
        <ele>99.642</ele>
        <time>2018-08-22T13:44:30.544Z</time>
      </trkpt>
      <trkpt lat="48.1821651" lon="-2.1844031">
        <ele>99.109</ele>
        <time>2018-08-22T13:44:32.657Z</time>
      </trkpt>
      <trkpt lat="48.1820720" lon="-2.1843645">
        <ele>98.320</ele>
        <time>2018-08-22T13:44:34.533Z</time>
      </trkpt>
      <trkpt lat="48.1819729" lon="-2.1843178">
        <ele>97.413</ele>
        <time>2018-08-22T13:44:36.473Z</time>
      </trkpt>
      <trkpt lat="48.1818633" lon="-2.1842708">
        <ele>96.650</ele>
        <time>2018-08-22T13:44:38.500Z</time>
      </trkpt>
      <trkpt lat="48.1817584" lon="-2.1842208">
        <ele>96.172</ele>
        <time>2018-08-22T13:44:40.377Z</time>
      </trkpt>
      <trkpt lat="48.1816499" lon="-2.1841451">
        <ele>95.979</ele>
        <time>2018-08-22T13:44:42.316Z</time>
      </trkpt>
      <trkpt lat="48.1814944" lon="-2.1841293">
        <ele>95.984</ele>
        <time>2018-08-22T13:44:44.746Z</time>
      </trkpt>
      <trkpt lat="48.1813593" lon="-2.1840779">
        <ele>96.078</ele>
        <time>2018-08-22T13:44:46.958Z</time>
      </trkpt>
      <trkpt lat="48.1812398" lon="-2.1840382">
        <ele>96.193</ele>
        <time>2018-08-22T13:44:48.968Z</time>
      </trkpt>
      <trkpt lat="48.1811221" lon="-2.1840022">
        <ele>96.292</ele>
        <time>2018-08-22T13:44:51.007Z</time>
      </trkpt>
      <trkpt lat="48.1810082" lon="-2.1839692">
        <ele>96.348</ele>
        <time>2018-08-22T13:44:53.072Z</time>
      </trkpt>
      <trkpt lat="48.1808975" lon="-2.1839261">
        <ele>96.401</ele>
        <time>2018-08-22T13:44:55.191Z</time>
      </trkpt>
      <trkpt lat="48.1807507" lon="-2.1838749">
        <ele>96.496</ele>
        <time>2018-08-22T13:44:58.369Z</time>
      </trkpt>
      <trkpt lat="48.1806305" lon="-2.1838085">
        <ele>96.575</ele>
        <time>2018-08-22T13:45:01.450Z</time>
      </trkpt>
      <trkpt lat="48.1805220" lon="-2.1837442">
        <ele>96.577</ele>
        <time>2018-08-22T13:45:04.346Z</time>
      </trkpt>
      <trkpt lat="48.1804112" lon="-2.1836722">
        <ele>96.540</ele>
        <time>2018-08-22T13:45:07.117Z</time>
      </trkpt>
      <trkpt lat="48.1802774" lon="-2.1835761">
        <ele>96.419</ele>
        <time>2018-08-22T13:45:10.172Z</time>
      </trkpt>
      <trkpt lat="48.1801405" lon="-2.1834713">
        <ele>96.168</ele>
        <time>2018-08-22T13:45:13.286Z</time>
      </trkpt>
      <trkpt lat="48.1800115" lon="-2.1833766">
        <ele>95.909</ele>
        <time>2018-08-22T13:45:16.296Z</time>
      </trkpt>
      <trkpt lat="48.1798903" lon="-2.1832856">
        <ele>95.758</ele>
        <time>2018-08-22T13:45:19.186Z</time>
      </trkpt>
      <trkpt lat="48.1797722" lon="-2.1831712">
        <ele>95.665</ele>
        <time>2018-08-22T13:45:22.188Z</time>
      </trkpt>
      <trkpt lat="48.1796505" lon="-2.1830634">
        <ele>95.546</ele>
        <time>2018-08-22T13:45:25.121Z</time>
      </trkpt>
      <trkpt lat="48.1795261" lon="-2.1829384">
        <ele>95.378</ele>
        <time>2018-08-22T13:45:28.097Z</time>
      </trkpt>
      <trkpt lat="48.1793906" lon="-2.1828174">
        <ele>95.206</ele>
        <time>2018-08-22T13:45:31.084Z</time>
      </trkpt>
      <trkpt lat="48.1792544" lon="-2.1826857">
        <ele>95.057</ele>
        <time>2018-08-22T13:45:34.068Z</time>
      </trkpt>
      <trkpt lat="48.1791107" lon="-2.1825630">
        <ele>94.905</ele>
        <time>2018-08-22T13:45:37.390Z</time>
      </trkpt>
      <trkpt lat="48.1789948" lon="-2.1824557">
        <ele>94.585</ele>
        <time>2018-08-22T13:45:40.368Z</time>
      </trkpt>
      <trkpt lat="48.1788722" lon="-2.1823675">
        <ele>93.957</ele>
        <time>2018-08-22T13:45:43.331Z</time>
      </trkpt>
      <trkpt lat="48.1787603" lon="-2.1822432">
        <ele>93.171</ele>
        <time>2018-08-22T13:45:46.206Z</time>
      </trkpt>
      <trkpt lat="48.1786360" lon="-2.1821038">
        <ele>92.505</ele>
        <time>2018-08-22T13:45:49.132Z</time>
      </trkpt>
      <trkpt lat="48.1785125" lon="-2.1819484">
        <ele>92.081</ele>
        <time>2018-08-22T13:45:52.018Z</time>
      </trkpt>
      <trkpt lat="48.1783993" lon="-2.1817705">
        <ele>91.838</ele>
        <time>2018-08-22T13:45:55.000Z</time>
      </trkpt>
      <trkpt lat="48.1783199" lon="-2.1815674">
        <ele>91.575</ele>
        <time>2018-08-22T13:45:57.930Z</time>
      </trkpt>
      <trkpt lat="48.1782539" lon="-2.1813573">
        <ele>91.162</ele>
        <time>2018-08-22T13:46:00.836Z</time>
      </trkpt>
      <trkpt lat="48.1781778" lon="-2.1811430">
        <ele>90.643</ele>
        <time>2018-08-22T13:46:03.928Z</time>
      </trkpt>
      <trkpt lat="48.1781087" lon="-2.1809312">
        <ele>90.063</ele>
        <time>2018-08-22T13:46:07.066Z</time>
      </trkpt>
      <trkpt lat="48.1780442" lon="-2.1807404">
        <ele>89.432</ele>
        <time>2018-08-22T13:46:10.002Z</time>
      </trkpt>
      <trkpt lat="48.1779811" lon="-2.1805309">
        <ele>88.736</ele>
        <time>2018-08-22T13:46:13.122Z</time>
      </trkpt>
      <trkpt lat="48.1779283" lon="-2.1803171">
        <ele>87.954</ele>
        <time>2018-08-22T13:46:16.169Z</time>
      </trkpt>
      <trkpt lat="48.1778721" lon="-2.1800983">
        <ele>87.183</ele>
        <time>2018-08-22T13:46:19.353Z</time>
      </trkpt>
      <trkpt lat="48.1778278" lon="-2.1799000">
        <ele>86.630</ele>
        <time>2018-08-22T13:46:22.219Z</time>
      </trkpt>
      <trkpt lat="48.1777945" lon="-2.1796897">
        <ele>86.401</ele>
        <time>2018-08-22T13:46:25.105Z</time>
      </trkpt>
      <trkpt lat="48.1777649" lon="-2.1794665">
        <ele>86.421</ele>
        <time>2018-08-22T13:46:28.341Z</time>
      </trkpt>
      <trkpt lat="48.1777690" lon="-2.1792888">
        <ele>86.607</ele>
        <time>2018-08-22T13:46:31.129Z</time>
      </trkpt>
      <trkpt lat="48.1777837" lon="-2.1790898">
        <ele>86.891</ele>
        <time>2018-08-22T13:46:34.245Z</time>
      </trkpt>
      <trkpt lat="48.1777972" lon="-2.1788933">
        <ele>87.112</ele>
        <time>2018-08-22T13:46:37.227Z</time>
      </trkpt>
      <trkpt lat="48.1778344" lon="-2.1787040">
        <ele>87.152</ele>
        <time>2018-08-22T13:46:40.222Z</time>
      </trkpt>
      <trkpt lat="48.1778682" lon="-2.1785088">
        <ele>87.051</ele>
        <time>2018-08-22T13:46:43.309Z</time>
      </trkpt>
      <trkpt lat="48.1779046" lon="-2.1783184">
        <ele>86.904</ele>
        <time>2018-08-22T13:46:46.378Z</time>
      </trkpt>
      <trkpt lat="48.1779377" lon="-2.1781411">
        <ele>86.820</ele>
        <time>2018-08-22T13:46:49.316Z</time>
      </trkpt>
      <trkpt lat="48.1779675" lon="-2.1779650">
        <ele>86.866</ele>
        <time>2018-08-22T13:46:52.246Z</time>
      </trkpt>
      <trkpt lat="48.1780002" lon="-2.1777847">
        <ele>86.993</ele>
        <time>2018-08-22T13:46:55.220Z</time>
      </trkpt>
      <trkpt lat="48.1780335" lon="-2.1776020">
        <ele>87.122</ele>
        <time>2018-08-22T13:46:58.288Z</time>
      </trkpt>
      <trkpt lat="48.1780716" lon="-2.1774313">
        <ele>87.297</ele>
        <time>2018-08-22T13:47:01.366Z</time>
      </trkpt>
      <trkpt lat="48.1780970" lon="-2.1772684">
        <ele>87.559</ele>
        <time>2018-08-22T13:47:04.412Z</time>
      </trkpt>
      <trkpt lat="48.1781109" lon="-2.1771123">
        <ele>87.797</ele>
        <time>2018-08-22T13:47:07.318Z</time>
      </trkpt>
      <trkpt lat="48.1781022" lon="-2.1769468">
        <ele>87.901</ele>
        <time>2018-08-22T13:47:10.272Z</time>
      </trkpt>
      <trkpt lat="48.1780839" lon="-2.1767775">
        <ele>87.830</ele>
        <time>2018-08-22T13:47:13.333Z</time>
      </trkpt>
      <trkpt lat="48.1780483" lon="-2.1766180">
        <ele>87.619</ele>
        <time>2018-08-22T13:47:16.802Z</time>
      </trkpt>
      <trkpt lat="48.1780114" lon="-2.1764942">
        <ele>87.413</ele>
        <time>2018-08-22T13:47:20.183Z</time>
      </trkpt>
      <trkpt lat="48.1779839" lon="-2.1763637">
        <ele>87.332</ele>
        <time>2018-08-22T13:47:23.875Z</time>
      </trkpt>
      <trkpt lat="48.1779516" lon="-2.1762167">
        <ele>87.425</ele>
        <time>2018-08-22T13:47:27.603Z</time>
      </trkpt>
      <trkpt lat="48.1779119" lon="-2.1760540">
        <ele>87.709</ele>
        <time>2018-08-22T13:47:31.557Z</time>
      </trkpt>
      <trkpt lat="48.1778704" lon="-2.1758918">
        <ele>88.102</ele>
        <time>2018-08-22T13:47:35.490Z</time>
      </trkpt>
      <trkpt lat="48.1778323" lon="-2.1757270">
        <ele>88.487</ele>
        <time>2018-08-22T13:47:39.417Z</time>
      </trkpt>
      <trkpt lat="48.1777987" lon="-2.1756006">
        <ele>88.873</ele>
        <time>2018-08-22T13:47:42.438Z</time>
      </trkpt>
      <trkpt lat="48.1777639" lon="-2.1754733">
        <ele>89.372</ele>
        <time>2018-08-22T13:47:45.452Z</time>
      </trkpt>
      <trkpt lat="48.1777244" lon="-2.1753433">
        <ele>90.045</ele>
        <time>2018-08-22T13:47:48.558Z</time>
      </trkpt>
      <trkpt lat="48.1776890" lon="-2.1752171">
        <ele>90.895</ele>
        <time>2018-08-22T13:47:51.558Z</time>
      </trkpt>
      <trkpt lat="48.1776419" lon="-2.1750507">
        <ele>91.820</ele>
        <time>2018-08-22T13:47:55.503Z</time>
      </trkpt>
      <trkpt lat="48.1776026" lon="-2.1749224">
        <ele>92.657</ele>
        <time>2018-08-22T13:47:58.539Z</time>
      </trkpt>
      <trkpt lat="48.1775643" lon="-2.1747911">
        <ele>93.341</ele>
        <time>2018-08-22T13:48:01.602Z</time>
      </trkpt>
      <trkpt lat="48.1775252" lon="-2.1746668">
        <ele>93.897</ele>
        <time>2018-08-22T13:48:04.555Z</time>
      </trkpt>
      <trkpt lat="48.1774877" lon="-2.1745415">
        <ele>94.334</ele>
        <time>2018-08-22T13:48:07.510Z</time>
      </trkpt>
      <trkpt lat="48.1774489" lon="-2.1744166">
        <ele>94.632</ele>
        <time>2018-08-22T13:48:10.436Z</time>
      </trkpt>
      <trkpt lat="48.1774084" lon="-2.1742826">
        <ele>94.789</ele>
        <time>2018-08-22T13:48:13.477Z</time>
      </trkpt>
      <trkpt lat="48.1773650" lon="-2.1741402">
        <ele>94.956</ele>
        <time>2018-08-22T13:48:16.645Z</time>
      </trkpt>
      <trkpt lat="48.1773225" lon="-2.1740037">
        <ele>95.341</ele>
        <time>2018-08-22T13:48:19.695Z</time>
      </trkpt>
      <trkpt lat="48.1772807" lon="-2.1738746">
        <ele>95.899</ele>
        <time>2018-08-22T13:48:22.637Z</time>
      </trkpt>
      <trkpt lat="48.1772468" lon="-2.1737401">
        <ele>96.372</ele>
        <time>2018-08-22T13:48:25.630Z</time>
      </trkpt>
      <trkpt lat="48.1772146" lon="-2.1736043">
        <ele>96.652</ele>
        <time>2018-08-22T13:48:28.735Z</time>
      </trkpt>
      <trkpt lat="48.1771911" lon="-2.1734619">
        <ele>97.038</ele>
        <time>2018-08-22T13:48:32.522Z</time>
      </trkpt>
      <trkpt lat="48.1771695" lon="-2.1733194">
        <ele>97.845</ele>
        <time>2018-08-22T13:48:37.738Z</time>
      </trkpt>
      <trkpt lat="48.1772397" lon="-2.1732117">
        <ele>98.813</ele>
        <time>2018-08-22T13:48:45.734Z</time>
      </trkpt>
      <trkpt lat="48.1772409" lon="-2.1733618">
        <ele>99.426</ele>
        <time>2018-08-22T13:48:53.701Z</time>
      </trkpt>
      <trkpt lat="48.1771592" lon="-2.1734307">
        <ele>99.494</ele>
        <time>2018-08-22T13:49:01.161Z</time>
      </trkpt>
      <trkpt lat="48.1770598" lon="-2.1734359">
        <ele>99.169</ele>
        <time>2018-08-22T13:49:09.085Z</time>
      </trkpt>
      <trkpt lat="48.1769633" lon="-2.1734122">
        <ele>98.729</ele>
        <time>2018-08-22T13:49:16.866Z</time>
      </trkpt>
      <trkpt lat="48.1768927" lon="-2.1735147">
        <ele>98.274</ele>
        <time>2018-08-22T13:49:24.697Z</time>
      </trkpt>
      <trkpt lat="48.1768516" lon="-2.1733790">
        <ele>97.743</ele>
        <time>2018-08-22T13:49:32.615Z</time>
      </trkpt>
      <trkpt lat="48.1769196" lon="-2.1732751">
        <ele>97.138</ele>
        <time>2018-08-22T13:49:42.200Z</time>
      </trkpt>
      <trkpt lat="48.1770229" lon="-2.1733179">
        <ele>96.578</ele>
        <time>2018-08-22T13:49:54.803Z</time>
      </trkpt>
      <trkpt lat="48.1769588" lon="-2.1734485">
        <ele>96.282</ele>
        <time>2018-08-22T13:50:07.836Z</time>
      </trkpt>
      <trkpt lat="48.1768967" lon="-2.1735588">
        <ele>96.367</ele>
        <time>2018-08-22T13:50:20.808Z</time>
      </trkpt>
      <trkpt lat="48.1768773" lon="-2.1737131">
        <ele>96.681</ele>
        <time>2018-08-22T13:50:31.903Z</time>
      </trkpt>
      <trkpt lat="48.1768631" lon="-2.1738650">
        <ele>96.878</ele>
        <time>2018-08-22T13:50:41.790Z</time>
      </trkpt>
      <trkpt lat="48.1767891" lon="-2.1739988">
        <ele>96.676</ele>
        <time>2018-08-22T13:50:50.807Z</time>
      </trkpt>
      <trkpt lat="48.1766343" lon="-2.1740592">
        <ele>95.976</ele>
        <time>2018-08-22T13:51:00.196Z</time>
      </trkpt>
      <trkpt lat="48.1765097" lon="-2.1741592">
        <ele>94.992</ele>
        <time>2018-08-22T13:51:04.903Z</time>
      </trkpt>
      <trkpt lat="48.1764279" lon="-2.1742268">
        <ele>94.166</ele>
        <time>2018-08-22T13:51:07.624Z</time>
      </trkpt>
      <trkpt lat="48.1763574" lon="-2.1743246">
        <ele>93.679</ele>
        <time>2018-08-22T13:51:10.169Z</time>
      </trkpt>
      <trkpt lat="48.1763023" lon="-2.1744531">
        <ele>93.356</ele>
        <time>2018-08-22T13:51:12.644Z</time>
      </trkpt>
      <trkpt lat="48.1762700" lon="-2.1745945">
        <ele>93.067</ele>
        <time>2018-08-22T13:51:14.865Z</time>
      </trkpt>
      <trkpt lat="48.1762504" lon="-2.1747460">
        <ele>92.774</ele>
        <time>2018-08-22T13:51:17.071Z</time>
      </trkpt>
      <trkpt lat="48.1762309" lon="-2.1749243">
        <ele>92.463</ele>
        <time>2018-08-22T13:51:19.619Z</time>
      </trkpt>
      <trkpt lat="48.1762187" lon="-2.1750972">
        <ele>92.059</ele>
        <time>2018-08-22T13:51:22.063Z</time>
      </trkpt>
      <trkpt lat="48.1761944" lon="-2.1752857">
        <ele>91.469</ele>
        <time>2018-08-22T13:51:24.662Z</time>
      </trkpt>
      <trkpt lat="48.1761631" lon="-2.1754787">
        <ele>90.748</ele>
        <time>2018-08-22T13:51:27.161Z</time>
      </trkpt>
      <trkpt lat="48.1761204" lon="-2.1756656">
        <ele>89.992</ele>
        <time>2018-08-22T13:51:29.465Z</time>
      </trkpt>
      <trkpt lat="48.1760757" lon="-2.1758632">
        <ele>89.265</ele>
        <time>2018-08-22T13:51:31.716Z</time>
      </trkpt>
      <trkpt lat="48.1760288" lon="-2.1760672">
        <ele>88.642</ele>
        <time>2018-08-22T13:51:33.868Z</time>
      </trkpt>
      <trkpt lat="48.1759797" lon="-2.1762772">
        <ele>88.135</ele>
        <time>2018-08-22T13:51:35.983Z</time>
      </trkpt>
      <trkpt lat="48.1759424" lon="-2.1764889">
        <ele>87.672</ele>
        <time>2018-08-22T13:51:38.004Z</time>
      </trkpt>
      <trkpt lat="48.1758950" lon="-2.1767017">
        <ele>87.135</ele>
        <time>2018-08-22T13:51:40.020Z</time>
      </trkpt>
      <trkpt lat="48.1758480" lon="-2.1769355">
        <ele>86.390</ele>
        <time>2018-08-22T13:51:42.164Z</time>
      </trkpt>
      <trkpt lat="48.1758055" lon="-2.1771827">
        <ele>85.467</ele>
        <time>2018-08-22T13:51:44.336Z</time>
      </trkpt>
      <trkpt lat="48.1757657" lon="-2.1774111">
        <ele>84.536</ele>
        <time>2018-08-22T13:51:46.281Z</time>
      </trkpt>
      <trkpt lat="48.1757380" lon="-2.1776410">
        <ele>83.681</ele>
        <time>2018-08-22T13:51:48.203Z</time>
      </trkpt>
      <trkpt lat="48.1757064" lon="-2.1779653">
        <ele>82.852</ele>
        <time>2018-08-22T13:51:51.003Z</time>
      </trkpt>
      <trkpt lat="48.1756527" lon="-2.1782534">
        <ele>82.005</ele>
        <time>2018-08-22T13:51:53.682Z</time>
      </trkpt>
      <trkpt lat="48.1755559" lon="-2.1784849">
        <ele>81.239</ele>
        <time>2018-08-22T13:51:56.326Z</time>
      </trkpt>
      <trkpt lat="48.1754844" lon="-2.1786955">
        <ele>80.702</ele>
        <time>2018-08-22T13:51:58.852Z</time>
      </trkpt>
      <trkpt lat="48.1754337" lon="-2.1788676">
        <ele>80.358</ele>
        <time>2018-08-22T13:52:01.126Z</time>
      </trkpt>
      <trkpt lat="48.1753805" lon="-2.1790230">
        <ele>80.096</ele>
        <time>2018-08-22T13:52:03.500Z</time>
      </trkpt>
      <trkpt lat="48.1753204" lon="-2.1791295">
        <ele>79.949</ele>
        <time>2018-08-22T13:52:05.689Z</time>
      </trkpt>
      <trkpt lat="48.1752384" lon="-2.1791885">
        <ele>79.935</ele>
        <time>2018-08-22T13:52:08.256Z</time>
      </trkpt>
      <trkpt lat="48.1751929" lon="-2.1793087">
        <ele>79.784</ele>
        <time>2018-08-22T13:52:11.648Z</time>
      </trkpt>
      <trkpt lat="48.1751443" lon="-2.1794229">
        <ele>79.308</ele>
        <time>2018-08-22T13:52:16.061Z</time>
      </trkpt>
      <trkpt lat="48.1750981" lon="-2.1795579">
        <ele>78.760</ele>
        <time>2018-08-22T13:52:21.243Z</time>
      </trkpt>
      <trkpt lat="48.1750516" lon="-2.1796935">
        <ele>78.392</ele>
        <time>2018-08-22T13:52:25.384Z</time>
      </trkpt>
      <trkpt lat="48.1749987" lon="-2.1798217">
        <ele>78.071</ele>
        <time>2018-08-22T13:52:28.646Z</time>
      </trkpt>
      <trkpt lat="48.1749489" lon="-2.1799535">
        <ele>77.561</ele>
        <time>2018-08-22T13:52:31.618Z</time>
      </trkpt>
      <trkpt lat="48.1748923" lon="-2.1800913">
        <ele>76.901</ele>
        <time>2018-08-22T13:52:34.681Z</time>
      </trkpt>
      <trkpt lat="48.1748349" lon="-2.1802284">
        <ele>76.403</ele>
        <time>2018-08-22T13:52:37.724Z</time>
      </trkpt>
      <trkpt lat="48.1747838" lon="-2.1803670">
        <ele>76.217</ele>
        <time>2018-08-22T13:52:40.697Z</time>
      </trkpt>
      <trkpt lat="48.1747268" lon="-2.1805076">
        <ele>76.256</ele>
        <time>2018-08-22T13:52:43.746Z</time>
      </trkpt>
      <trkpt lat="48.1746726" lon="-2.1806458">
        <ele>76.506</ele>
        <time>2018-08-22T13:52:46.706Z</time>
      </trkpt>
      <trkpt lat="48.1746206" lon="-2.1807782">
        <ele>76.940</ele>
        <time>2018-08-22T13:52:49.550Z</time>
      </trkpt>
      <trkpt lat="48.1745695" lon="-2.1809054">
        <ele>77.413</ele>
        <time>2018-08-22T13:52:52.318Z</time>
      </trkpt>
      <trkpt lat="48.1745140" lon="-2.1810231">
        <ele>77.889</ele>
        <time>2018-08-22T13:52:55.048Z</time>
      </trkpt>
      <trkpt lat="48.1744650" lon="-2.1811431">
        <ele>78.465</ele>
        <time>2018-08-22T13:52:57.768Z</time>
      </trkpt>
      <trkpt lat="48.1744132" lon="-2.1812592">
        <ele>79.142</ele>
        <time>2018-08-22T13:53:00.530Z</time>
      </trkpt>
      <trkpt lat="48.1743656" lon="-2.1813756">
        <ele>79.809</ele>
        <time>2018-08-22T13:53:03.298Z</time>
      </trkpt>
      <trkpt lat="48.1743067" lon="-2.1814873">
        <ele>80.365</ele>
        <time>2018-08-22T13:53:06.248Z</time>
      </trkpt>
      <trkpt lat="48.1742348" lon="-2.1815897">
        <ele>80.829</ele>
        <time>2018-08-22T13:53:09.398Z</time>
      </trkpt>
      <trkpt lat="48.1741533" lon="-2.1816772">
        <ele>81.284</ele>
        <time>2018-08-22T13:53:12.637Z</time>
      </trkpt>
      <trkpt lat="48.1740606" lon="-2.1817450">
        <ele>81.766</ele>
        <time>2018-08-22T13:53:15.971Z</time>
      </trkpt>
      <trkpt lat="48.1739603" lon="-2.1817966">
        <ele>82.253</ele>
        <time>2018-08-22T13:53:19.337Z</time>
      </trkpt>
      <trkpt lat="48.1738601" lon="-2.1818373">
        <ele>82.713</ele>
        <time>2018-08-22T13:53:22.564Z</time>
      </trkpt>
      <trkpt lat="48.1737612" lon="-2.1818689">
        <ele>83.158</ele>
        <time>2018-08-22T13:53:25.629Z</time>
      </trkpt>
      <trkpt lat="48.1736620" lon="-2.1818958">
        <ele>83.544</ele>
        <time>2018-08-22T13:53:28.617Z</time>
      </trkpt>
      <trkpt lat="48.1735548" lon="-2.1819258">
        <ele>83.782</ele>
        <time>2018-08-22T13:53:31.821Z</time>
      </trkpt>
      <trkpt lat="48.1734431" lon="-2.1819478">
        <ele>83.859</ele>
        <time>2018-08-22T13:53:35.125Z</time>
      </trkpt>
      <trkpt lat="48.1733292" lon="-2.1819766">
        <ele>83.863</ele>
        <time>2018-08-22T13:53:38.470Z</time>
      </trkpt>
      <trkpt lat="48.1732134" lon="-2.1820013">
        <ele>83.883</ele>
        <time>2018-08-22T13:53:41.759Z</time>
      </trkpt>
      <trkpt lat="48.1730956" lon="-2.1820186">
        <ele>84.017</ele>
        <time>2018-08-22T13:53:44.973Z</time>
      </trkpt>
      <trkpt lat="48.1729781" lon="-2.1820381">
        <ele>84.310</ele>
        <time>2018-08-22T13:53:48.106Z</time>
      </trkpt>
      <trkpt lat="48.1728608" lon="-2.1820510">
        <ele>84.707</ele>
        <time>2018-08-22T13:53:51.166Z</time>
      </trkpt>
      <trkpt lat="48.1727366" lon="-2.1820673">
        <ele>85.116</ele>
        <time>2018-08-22T13:53:54.375Z</time>
      </trkpt>
      <trkpt lat="48.1726039" lon="-2.1820846">
        <ele>85.447</ele>
        <time>2018-08-22T13:53:57.761Z</time>
      </trkpt>
      <trkpt lat="48.1724688" lon="-2.1821026">
        <ele>85.621</ele>
        <time>2018-08-22T13:54:01.124Z</time>
      </trkpt>
      <trkpt lat="48.1723273" lon="-2.1821195">
        <ele>85.651</ele>
        <time>2018-08-22T13:54:04.498Z</time>
      </trkpt>
      <trkpt lat="48.1721725" lon="-2.1821509">
        <ele>85.577</ele>
        <time>2018-08-22T13:54:08.031Z</time>
      </trkpt>
      <trkpt lat="48.1719866" lon="-2.1821696">
        <ele>85.291</ele>
        <time>2018-08-22T13:54:11.912Z</time>
      </trkpt>
      <trkpt lat="48.1717661" lon="-2.1822092">
        <ele>84.701</ele>
        <time>2018-08-22T13:54:15.984Z</time>
      </trkpt>
      <trkpt lat="48.1715201" lon="-2.1822421">
        <ele>83.875</ele>
        <time>2018-08-22T13:54:19.609Z</time>
      </trkpt>
      <trkpt lat="48.1712489" lon="-2.1822758">
        <ele>82.856</ele>
        <time>2018-08-22T13:54:22.819Z</time>
      </trkpt>
      <trkpt lat="48.1709709" lon="-2.1823167">
        <ele>81.695</ele>
        <time>2018-08-22T13:54:25.874Z</time>
      </trkpt>
      <trkpt lat="48.1706982" lon="-2.1823591">
        <ele>80.582</ele>
        <time>2018-08-22T13:54:28.861Z</time>
      </trkpt>
      <trkpt lat="48.1704383" lon="-2.1823961">
        <ele>79.664</ele>
        <time>2018-08-22T13:54:31.790Z</time>
      </trkpt>
      <trkpt lat="48.1702074" lon="-2.1824378">
        <ele>79.016</ele>
        <time>2018-08-22T13:54:34.563Z</time>
      </trkpt>
      <trkpt lat="48.1699790" lon="-2.1824696">
        <ele>78.662</ele>
        <time>2018-08-22T13:54:37.485Z</time>
      </trkpt>
      <trkpt lat="48.1698132" lon="-2.1824593">
        <ele>78.497</ele>
        <time>2018-08-22T13:54:39.858Z</time>
      </trkpt>
      <trkpt lat="48.1696224" lon="-2.1824556">
        <ele>78.429</ele>
        <time>2018-08-22T13:54:42.891Z</time>
      </trkpt>
      <trkpt lat="48.1694717" lon="-2.1824635">
        <ele>78.480</ele>
        <time>2018-08-22T13:54:45.505Z</time>
      </trkpt>
      <trkpt lat="48.1693318" lon="-2.1824480">
        <ele>78.637</ele>
        <time>2018-08-22T13:54:48.133Z</time>
      </trkpt>
      <trkpt lat="48.1691984" lon="-2.1824378">
        <ele>78.796</ele>
        <time>2018-08-22T13:54:50.912Z</time>
      </trkpt>
      <trkpt lat="48.1690983" lon="-2.1824339">
        <ele>78.904</ele>
        <time>2018-08-22T13:54:53.214Z</time>
      </trkpt>
      <trkpt lat="48.1689769" lon="-2.1824244">
        <ele>78.991</ele>
        <time>2018-08-22T13:54:56.548Z</time>
      </trkpt>
      <trkpt lat="48.1688511" lon="-2.1824287">
        <ele>79.097</ele>
        <time>2018-08-22T13:55:00.078Z</time>
      </trkpt>
      <trkpt lat="48.1687401" lon="-2.1824094">
        <ele>79.187</ele>
        <time>2018-08-22T13:55:03.010Z</time>
      </trkpt>
      <trkpt lat="48.1686300" lon="-2.1823982">
        <ele>79.206</ele>
        <time>2018-08-22T13:55:05.882Z</time>
      </trkpt>
      <trkpt lat="48.1685138" lon="-2.1823949">
        <ele>79.168</ele>
        <time>2018-08-22T13:55:09.002Z</time>
      </trkpt>
      <trkpt lat="48.1684034" lon="-2.1823857">
        <ele>79.168</ele>
        <time>2018-08-22T13:55:12.031Z</time>
      </trkpt>
      <trkpt lat="48.1682920" lon="-2.1823882">
        <ele>79.318</ele>
        <time>2018-08-22T13:55:15.074Z</time>
      </trkpt>
      <trkpt lat="48.1681716" lon="-2.1824015">
        <ele>79.602</ele>
        <time>2018-08-22T13:55:18.335Z</time>
      </trkpt>
      <trkpt lat="48.1680539" lon="-2.1824281">
        <ele>80.006</ele>
        <time>2018-08-22T13:55:21.474Z</time>
      </trkpt>
      <trkpt lat="48.1679419" lon="-2.1824707">
        <ele>80.528</ele>
        <time>2018-08-22T13:55:24.525Z</time>
      </trkpt>
      <trkpt lat="48.1678433" lon="-2.1825127">
        <ele>81.102</ele>
        <time>2018-08-22T13:55:27.627Z</time>
      </trkpt>
      <trkpt lat="48.1678969" lon="-2.1823998">
        <ele>81.695</ele>
        <time>2018-08-22T13:55:31.225Z</time>
      </trkpt>
      <trkpt lat="48.1679977" lon="-2.1824229">
        <ele>82.235</ele>
        <time>2018-08-22T13:55:36.555Z</time>
      </trkpt>
      <trkpt lat="48.1680935" lon="-2.1823958">
        <ele>82.505</ele>
        <time>2018-08-22T13:55:41.006Z</time>
      </trkpt>
      <trkpt lat="48.1681958" lon="-2.1823667">
        <ele>82.408</ele>
        <time>2018-08-22T13:55:44.578Z</time>
      </trkpt>
      <trkpt lat="48.1683048" lon="-2.1823466">
        <ele>82.114</ele>
        <time>2018-08-22T13:55:47.994Z</time>
      </trkpt>
      <trkpt lat="48.1684126" lon="-2.1823505">
        <ele>81.881</ele>
        <time>2018-08-22T13:55:50.994Z</time>
      </trkpt>
      <trkpt lat="48.1685109" lon="-2.1823722">
        <ele>81.926</ele>
        <time>2018-08-22T13:55:53.994Z</time>
      </trkpt>
      <trkpt lat="48.1686227" lon="-2.1824022">
        <ele>82.264</ele>
        <time>2018-08-22T13:55:56.994Z</time>
      </trkpt>
      <trkpt lat="48.1686227" lon="-2.1824022">
        <ele>82.549</ele>
        <time>2018-08-22T13:56:01.994Z</time>
      </trkpt>
      <trkpt lat="48.1686227" lon="-2.1824022">
        <ele>82.511</ele>
        <time>2018-08-22T13:56:04.612Z</time>
      </trkpt>
      <trkpt lat="48.1684829" lon="-2.1824038">
        <ele>82.318</ele>
        <time>2018-08-22T13:56:12.520Z</time>
      </trkpt>
      <trkpt lat="48.1683839" lon="-2.1824095">
        <ele>82.029</ele>
        <time>2018-08-22T13:56:15.632Z</time>
      </trkpt>
      <trkpt lat="48.1682738" lon="-2.1824152">
        <ele>81.579</ele>
        <time>2018-08-22T13:56:18.819Z</time>
      </trkpt>
      <trkpt lat="48.1681656" lon="-2.1824270">
        <ele>81.185</ele>
        <time>2018-08-22T13:56:21.847Z</time>
      </trkpt>
      <trkpt lat="48.1680510" lon="-2.1824499">
        <ele>81.145</ele>
        <time>2018-08-22T13:56:24.966Z</time>
      </trkpt>
      <trkpt lat="48.1679386" lon="-2.1824965">
        <ele>81.429</ele>
        <time>2018-08-22T13:56:28.052Z</time>
      </trkpt>
      <trkpt lat="48.1678264" lon="-2.1825602">
        <ele>81.789</ele>
        <time>2018-08-22T13:56:31.255Z</time>
      </trkpt>
      <trkpt lat="48.1677329" lon="-2.1826498">
        <ele>82.135</ele>
        <time>2018-08-22T13:56:34.321Z</time>
      </trkpt>
      <trkpt lat="48.1676479" lon="-2.1827483">
        <ele>82.497</ele>
        <time>2018-08-22T13:56:37.380Z</time>
      </trkpt>
      <trkpt lat="48.1675705" lon="-2.1828589">
        <ele>82.762</ele>
        <time>2018-08-22T13:56:40.542Z</time>
      </trkpt>
      <trkpt lat="48.1675093" lon="-2.1829855">
        <ele>82.944</ele>
        <time>2018-08-22T13:56:43.662Z</time>
      </trkpt>
      <trkpt lat="48.1674672" lon="-2.1831354">
        <ele>83.190</ele>
        <time>2018-08-22T13:56:46.838Z</time>
      </trkpt>
      <trkpt lat="48.1674244" lon="-2.1832870">
        <ele>83.582</ele>
        <time>2018-08-22T13:56:49.981Z</time>
      </trkpt>
      <trkpt lat="48.1673798" lon="-2.1834372">
        <ele>84.111</ele>
        <time>2018-08-22T13:56:53.084Z</time>
      </trkpt>
      <trkpt lat="48.1673397" lon="-2.1835885">
        <ele>84.607</ele>
        <time>2018-08-22T13:56:56.168Z</time>
      </trkpt>
      <trkpt lat="48.1673021" lon="-2.1837368">
        <ele>84.875</ele>
        <time>2018-08-22T13:56:59.177Z</time>
      </trkpt>
      <trkpt lat="48.1672656" lon="-2.1838845">
        <ele>84.950</ele>
        <time>2018-08-22T13:57:02.101Z</time>
      </trkpt>
      <trkpt lat="48.1672278" lon="-2.1840379">
        <ele>84.991</ele>
        <time>2018-08-22T13:57:05.085Z</time>
      </trkpt>
      <trkpt lat="48.1671860" lon="-2.1841904">
        <ele>85.077</ele>
        <time>2018-08-22T13:57:08.100Z</time>
      </trkpt>
      <trkpt lat="48.1671457" lon="-2.1843440">
        <ele>85.136</ele>
        <time>2018-08-22T13:57:11.118Z</time>
      </trkpt>
      <trkpt lat="48.1671014" lon="-2.1844973">
        <ele>85.104</ele>
        <time>2018-08-22T13:57:14.147Z</time>
      </trkpt>
      <trkpt lat="48.1670548" lon="-2.1846538">
        <ele>85.035</ele>
        <time>2018-08-22T13:57:17.219Z</time>
      </trkpt>
      <trkpt lat="48.1670148" lon="-2.1848154">
        <ele>84.994</ele>
        <time>2018-08-22T13:57:20.289Z</time>
      </trkpt>
      <trkpt lat="48.1669719" lon="-2.1849749">
        <ele>85.027</ele>
        <time>2018-08-22T13:57:23.329Z</time>
      </trkpt>
      <trkpt lat="48.1669281" lon="-2.1851360">
        <ele>85.139</ele>
        <time>2018-08-22T13:57:26.387Z</time>
      </trkpt>
      <trkpt lat="48.1668859" lon="-2.1852984">
        <ele>85.255</ele>
        <time>2018-08-22T13:57:29.427Z</time>
      </trkpt>
      <trkpt lat="48.1668392" lon="-2.1854596">
        <ele>85.310</ele>
        <time>2018-08-22T13:57:32.457Z</time>
      </trkpt>
      <trkpt lat="48.1667911" lon="-2.1856233">
        <ele>85.332</ele>
        <time>2018-08-22T13:57:35.499Z</time>
      </trkpt>
      <trkpt lat="48.1667424" lon="-2.1857901">
        <ele>85.402</ele>
        <time>2018-08-22T13:57:38.560Z</time>
      </trkpt>
      <trkpt lat="48.1666930" lon="-2.1859563">
        <ele>85.554</ele>
        <time>2018-08-22T13:57:41.579Z</time>
      </trkpt>
      <trkpt lat="48.1666446" lon="-2.1861226">
        <ele>85.713</ele>
        <time>2018-08-22T13:57:44.505Z</time>
      </trkpt>
      <trkpt lat="48.1665929" lon="-2.1862951">
        <ele>85.806</ele>
        <time>2018-08-22T13:57:47.472Z</time>
      </trkpt>
      <trkpt lat="48.1665416" lon="-2.1864762">
        <ele>85.841</ele>
        <time>2018-08-22T13:57:50.518Z</time>
      </trkpt>
      <trkpt lat="48.1664890" lon="-2.1866535">
        <ele>85.865</ele>
        <time>2018-08-22T13:57:53.506Z</time>
      </trkpt>
      <trkpt lat="48.1664326" lon="-2.1868320">
        <ele>85.887</ele>
        <time>2018-08-22T13:57:56.562Z</time>
      </trkpt>
      <trkpt lat="48.1663776" lon="-2.1870103">
        <ele>85.898</ele>
        <time>2018-08-22T13:57:59.611Z</time>
      </trkpt>
      <trkpt lat="48.1663247" lon="-2.1871839">
        <ele>85.930</ele>
        <time>2018-08-22T13:58:02.540Z</time>
      </trkpt>
      <trkpt lat="48.1662716" lon="-2.1873674">
        <ele>86.006</ele>
        <time>2018-08-22T13:58:05.618Z</time>
      </trkpt>
      <trkpt lat="48.1662215" lon="-2.1875507">
        <ele>86.103</ele>
        <time>2018-08-22T13:58:08.710Z</time>
      </trkpt>
      <trkpt lat="48.1661744" lon="-2.1877300">
        <ele>86.193</ele>
        <time>2018-08-22T13:58:11.749Z</time>
      </trkpt>
      <trkpt lat="48.1661330" lon="-2.1879108">
        <ele>86.257</ele>
        <time>2018-08-22T13:58:14.865Z</time>
      </trkpt>
      <trkpt lat="48.1660814" lon="-2.1880812">
        <ele>86.273</ele>
        <time>2018-08-22T13:58:18.071Z</time>
      </trkpt>
      <trkpt lat="48.1660233" lon="-2.1882326">
        <ele>86.247</ele>
        <time>2018-08-22T13:58:21.133Z</time>
      </trkpt>
      <trkpt lat="48.1659672" lon="-2.1883825">
        <ele>86.311</ele>
        <time>2018-08-22T13:58:24.124Z</time>
      </trkpt>
      <trkpt lat="48.1658931" lon="-2.1885166">
        <ele>86.551</ele>
        <time>2018-08-22T13:58:27.114Z</time>
      </trkpt>
      <trkpt lat="48.1658016" lon="-2.1886235">
        <ele>86.841</ele>
        <time>2018-08-22T13:58:30.135Z</time>
      </trkpt>
      <trkpt lat="48.1656988" lon="-2.1887064">
        <ele>87.114</ele>
        <time>2018-08-22T13:58:33.411Z</time>
      </trkpt>
      <trkpt lat="48.1655950" lon="-2.1887663">
        <ele>87.529</ele>
        <time>2018-08-22T13:58:37.208Z</time>
      </trkpt>
      <trkpt lat="48.1655085" lon="-2.1888175">
        <ele>88.082</ele>
        <time>2018-08-22T13:58:40.865Z</time>
      </trkpt>
      <trkpt lat="48.1654179" lon="-2.1888695">
        <ele>88.519</ele>
        <time>2018-08-22T13:58:44.799Z</time>
      </trkpt>
      <trkpt lat="48.1655002" lon="-2.1887715">
        <ele>88.742</ele>
        <time>2018-08-22T13:58:48.502Z</time>
      </trkpt>
      <trkpt lat="48.1656090" lon="-2.1887090">
        <ele>88.934</ele>
        <time>2018-08-22T13:58:51.964Z</time>
      </trkpt>
      <trkpt lat="48.1657126" lon="-2.1886476">
        <ele>89.196</ele>
        <time>2018-08-22T13:58:55.309Z</time>
      </trkpt>
      <trkpt lat="48.1658054" lon="-2.1885718">
        <ele>89.439</ele>
        <time>2018-08-22T13:58:58.355Z</time>
      </trkpt>
      <trkpt lat="48.1658935" lon="-2.1884727">
        <ele>89.598</ele>
        <time>2018-08-22T13:59:01.245Z</time>
      </trkpt>
      <trkpt lat="48.1659794" lon="-2.1883319">
        <ele>89.697</ele>
        <time>2018-08-22T13:59:04.479Z</time>
      </trkpt>
      <trkpt lat="48.1660464" lon="-2.1881752">
        <ele>89.738</ele>
        <time>2018-08-22T13:59:08.177Z</time>
      </trkpt>
      <trkpt lat="48.1660813" lon="-2.1880366">
        <ele>89.714</ele>
        <time>2018-08-22T13:59:11.707Z</time>
      </trkpt>
      <trkpt lat="48.1660628" lon="-2.1881875">
        <ele>89.645</ele>
        <time>2018-08-22T13:59:15.363Z</time>
      </trkpt>
      <trkpt lat="48.1660109" lon="-2.1883053">
        <ele>89.578</ele>
        <time>2018-08-22T13:59:18.905Z</time>
      </trkpt>
      <trkpt lat="48.1659573" lon="-2.1884335">
        <ele>89.502</ele>
        <time>2018-08-22T13:59:22.468Z</time>
      </trkpt>
      <trkpt lat="48.1658749" lon="-2.1885529">
        <ele>89.321</ele>
        <time>2018-08-22T13:59:26.377Z</time>
      </trkpt>
      <trkpt lat="48.1657802" lon="-2.1886627">
        <ele>89.054</ele>
        <time>2018-08-22T13:59:30.654Z</time>
      </trkpt>
      <trkpt lat="48.1656952" lon="-2.1887261">
        <ele>88.855</ele>
        <time>2018-08-22T13:59:33.910Z</time>
      </trkpt>
      <trkpt lat="48.1656034" lon="-2.1887805">
        <ele>88.936</ele>
        <time>2018-08-22T13:59:37.087Z</time>
      </trkpt>
      <trkpt lat="48.1655066" lon="-2.1888199">
        <ele>89.328</ele>
        <time>2018-08-22T13:59:40.204Z</time>
      </trkpt>
      <trkpt lat="48.1654080" lon="-2.1888750">
        <ele>89.771</ele>
        <time>2018-08-22T13:59:43.346Z</time>
      </trkpt>
      <trkpt lat="48.1653060" lon="-2.1889338">
        <ele>90.035</ele>
        <time>2018-08-22T13:59:46.495Z</time>
      </trkpt>
      <trkpt lat="48.1652029" lon="-2.1889813">
        <ele>90.130</ele>
        <time>2018-08-22T13:59:49.586Z</time>
      </trkpt>
      <trkpt lat="48.1651112" lon="-2.1890219">
        <ele>90.127</ele>
        <time>2018-08-22T13:59:52.448Z</time>
      </trkpt>
      <trkpt lat="48.1650098" lon="-2.1890820">
        <ele>90.077</ele>
        <time>2018-08-22T13:59:55.998Z</time>
      </trkpt>
      <trkpt lat="48.1650098" lon="-2.1890820">
        <ele>90.011</ele>
        <time>2018-08-22T14:00:07.998Z</time>
      </trkpt>
      <trkpt lat="48.1650098" lon="-2.1890820">
        <ele>89.954</ele>
        <time>2018-08-22T14:00:43.620Z</time>
      </trkpt>
      <trkpt lat="48.1648111" lon="-2.1891937">
        <ele>89.919</ele>
        <time>2018-08-22T14:00:58.021Z</time>
      </trkpt>
      <trkpt lat="48.1647205" lon="-2.1892462">
        <ele>89.868</ele>
        <time>2018-08-22T14:01:00.987Z</time>
      </trkpt>
      <trkpt lat="48.1646148" lon="-2.1892988">
        <ele>89.773</ele>
        <time>2018-08-22T14:01:03.915Z</time>
      </trkpt>
      <trkpt lat="48.1644996" lon="-2.1893592">
        <ele>89.701</ele>
        <time>2018-08-22T14:01:06.796Z</time>
      </trkpt>
      <trkpt lat="48.1643743" lon="-2.1894219">
        <ele>89.713</ele>
        <time>2018-08-22T14:01:09.703Z</time>
      </trkpt>
      <trkpt lat="48.1642434" lon="-2.1894920">
        <ele>89.781</ele>
        <time>2018-08-22T14:01:12.627Z</time>
      </trkpt>
      <trkpt lat="48.1641119" lon="-2.1895803">
        <ele>89.861</ele>
        <time>2018-08-22T14:01:15.576Z</time>
      </trkpt>
      <trkpt lat="48.1639867" lon="-2.1896947">
        <ele>89.892</ele>
        <time>2018-08-22T14:01:18.521Z</time>
      </trkpt>
      <trkpt lat="48.1638687" lon="-2.1898309">
        <ele>89.829</ele>
        <time>2018-08-22T14:01:21.488Z</time>
      </trkpt>
      <trkpt lat="48.1637491" lon="-2.1899616">
        <ele>89.695</ele>
        <time>2018-08-22T14:01:24.404Z</time>
      </trkpt>
      <trkpt lat="48.1636213" lon="-2.1900874">
        <ele>89.540</ele>
        <time>2018-08-22T14:01:27.377Z</time>
      </trkpt>
      <trkpt lat="48.1634968" lon="-2.1902243">
        <ele>89.391</ele>
        <time>2018-08-22T14:01:30.361Z</time>
      </trkpt>
      <trkpt lat="48.1633777" lon="-2.1903669">
        <ele>89.263</ele>
        <time>2018-08-22T14:01:33.290Z</time>
      </trkpt>
      <trkpt lat="48.1632597" lon="-2.1905117">
        <ele>89.176</ele>
        <time>2018-08-22T14:01:36.215Z</time>
      </trkpt>
      <trkpt lat="48.1631505" lon="-2.1906697">
        <ele>89.142</ele>
        <time>2018-08-22T14:01:39.171Z</time>
      </trkpt>
      <trkpt lat="48.1630675" lon="-2.1908659">
        <ele>89.148</ele>
        <time>2018-08-22T14:01:42.201Z</time>
      </trkpt>
      <trkpt lat="48.1629910" lon="-2.1910618">
        <ele>89.101</ele>
        <time>2018-08-22T14:01:45.104Z</time>
      </trkpt>
      <trkpt lat="48.1629077" lon="-2.1912708">
        <ele>88.923</ele>
        <time>2018-08-22T14:01:48.181Z</time>
      </trkpt>
      <trkpt lat="48.1628175" lon="-2.1914686">
        <ele>88.697</ele>
        <time>2018-08-22T14:01:51.220Z</time>
      </trkpt>
      <trkpt lat="48.1627049" lon="-2.1916316">
        <ele>88.556</ele>
        <time>2018-08-22T14:01:54.155Z</time>
      </trkpt>
      <trkpt lat="48.1625797" lon="-2.1917822">
        <ele>88.498</ele>
        <time>2018-08-22T14:01:57.095Z</time>
      </trkpt>
      <trkpt lat="48.1624515" lon="-2.1919401">
        <ele>88.455</ele>
        <time>2018-08-22T14:02:00.124Z</time>
      </trkpt>
      <trkpt lat="48.1623329" lon="-2.1920863">
        <ele>88.404</ele>
        <time>2018-08-22T14:02:02.939Z</time>
      </trkpt>
      <trkpt lat="48.1622187" lon="-2.1922454">
        <ele>88.301</ele>
        <time>2018-08-22T14:02:05.790Z</time>
      </trkpt>
      <trkpt lat="48.1620881" lon="-2.1923847">
        <ele>88.054</ele>
        <time>2018-08-22T14:02:08.699Z</time>
      </trkpt>
      <trkpt lat="48.1619303" lon="-2.1924527">
        <ele>87.724</ele>
        <time>2018-08-22T14:02:11.710Z</time>
      </trkpt>
      <trkpt lat="48.1617786" lon="-2.1924704">
        <ele>87.468</ele>
        <time>2018-08-22T14:02:14.597Z</time>
      </trkpt>
      <trkpt lat="48.1616351" lon="-2.1924322">
        <ele>87.083</ele>
        <time>2018-08-22T14:02:17.424Z</time>
      </trkpt>
      <trkpt lat="48.1614745" lon="-2.1924343">
        <ele>86.360</ele>
        <time>2018-08-22T14:02:20.604Z</time>
      </trkpt>
      <trkpt lat="48.1613350" lon="-2.1924154">
        <ele>85.656</ele>
        <time>2018-08-22T14:02:23.441Z</time>
      </trkpt>
      <trkpt lat="48.1611837" lon="-2.1923983">
        <ele>85.417</ele>
        <time>2018-08-22T14:02:26.541Z</time>
      </trkpt>
      <trkpt lat="48.1610331" lon="-2.1923902">
        <ele>85.640</ele>
        <time>2018-08-22T14:02:29.652Z</time>
      </trkpt>
      <trkpt lat="48.1608967" lon="-2.1923933">
        <ele>86.050</ele>
        <time>2018-08-22T14:02:32.435Z</time>
      </trkpt>
      <trkpt lat="48.1607490" lon="-2.1923758">
        <ele>86.228</ele>
        <time>2018-08-22T14:02:35.417Z</time>
      </trkpt>
      <trkpt lat="48.1606048" lon="-2.1923633">
        <ele>86.005</ele>
        <time>2018-08-22T14:02:38.367Z</time>
      </trkpt>
      <trkpt lat="48.1604528" lon="-2.1923519">
        <ele>85.724</ele>
        <time>2018-08-22T14:02:41.631Z</time>
      </trkpt>
      <trkpt lat="48.1603179" lon="-2.1923347">
        <ele>85.726</ele>
        <time>2018-08-22T14:02:44.791Z</time>
      </trkpt>
      <trkpt lat="48.1602072" lon="-2.1923149">
        <ele>85.927</ele>
        <time>2018-08-22T14:02:47.764Z</time>
      </trkpt>
      <trkpt lat="48.1601122" lon="-2.1922900">
        <ele>86.106</ele>
        <time>2018-08-22T14:02:50.690Z</time>
      </trkpt>
      <trkpt lat="48.1599970" lon="-2.1922885">
        <ele>86.194</ele>
        <time>2018-08-22T14:02:54.231Z</time>
      </trkpt>
      <trkpt lat="48.1598975" lon="-2.1922787">
        <ele>86.279</ele>
        <time>2018-08-22T14:02:57.146Z</time>
      </trkpt>
      <trkpt lat="48.1597951" lon="-2.1922815">
        <ele>86.475</ele>
        <time>2018-08-22T14:03:00.008Z</time>
      </trkpt>
      <trkpt lat="48.1596904" lon="-2.1922708">
        <ele>86.824</ele>
        <time>2018-08-22T14:03:02.938Z</time>
      </trkpt>
      <trkpt lat="48.1595869" lon="-2.1922530">
        <ele>87.272</ele>
        <time>2018-08-22T14:03:05.887Z</time>
      </trkpt>
      <trkpt lat="48.1594799" lon="-2.1922429">
        <ele>87.700</ele>
        <time>2018-08-22T14:03:08.922Z</time>
      </trkpt>
      <trkpt lat="48.1593722" lon="-2.1922255">
        <ele>88.030</ele>
        <time>2018-08-22T14:03:11.975Z</time>
      </trkpt>
      <trkpt lat="48.1592670" lon="-2.1922052">
        <ele>88.268</ele>
        <time>2018-08-22T14:03:14.983Z</time>
      </trkpt>
      <trkpt lat="48.1591687" lon="-2.1921796">
        <ele>88.442</ele>
        <time>2018-08-22T14:03:17.902Z</time>
      </trkpt>
      <trkpt lat="48.1590725" lon="-2.1921565">
        <ele>88.664</ele>
        <time>2018-08-22T14:03:20.851Z</time>
      </trkpt>
      <trkpt lat="48.1589781" lon="-2.1921292">
        <ele>89.046</ele>
        <time>2018-08-22T14:03:23.810Z</time>
      </trkpt>
      <trkpt lat="48.1588863" lon="-2.1920865">
        <ele>89.482</ele>
        <time>2018-08-22T14:03:26.794Z</time>
      </trkpt>
      <trkpt lat="48.1588013" lon="-2.1920238">
        <ele>89.812</ele>
        <time>2018-08-22T14:03:29.760Z</time>
      </trkpt>
      <trkpt lat="48.1587213" lon="-2.1919409">
        <ele>90.095</ele>
        <time>2018-08-22T14:03:32.813Z</time>
      </trkpt>
      <trkpt lat="48.1586528" lon="-2.1918383">
        <ele>90.411</ele>
        <time>2018-08-22T14:03:35.888Z</time>
      </trkpt>
      <trkpt lat="48.1585931" lon="-2.1917346">
        <ele>90.711</ele>
        <time>2018-08-22T14:03:38.887Z</time>
      </trkpt>
      <trkpt lat="48.1585084" lon="-2.1916202">
        <ele>91.003</ele>
        <time>2018-08-22T14:03:43.049Z</time>
      </trkpt>
      <trkpt lat="48.1584826" lon="-2.1914827">
        <ele>91.392</ele>
        <time>2018-08-22T14:03:47.037Z</time>
      </trkpt>
      <trkpt lat="48.1585062" lon="-2.1913420">
        <ele>91.848</ele>
        <time>2018-08-22T14:03:51.388Z</time>
      </trkpt>
      <trkpt lat="48.1585120" lon="-2.1911909">
        <ele>92.201</ele>
        <time>2018-08-22T14:03:55.458Z</time>
      </trkpt>
      <trkpt lat="48.1585323" lon="-2.1910239">
        <ele>92.351</ele>
        <time>2018-08-22T14:03:59.618Z</time>
      </trkpt>
      <trkpt lat="48.1585559" lon="-2.1908865">
        <ele>92.343</ele>
        <time>2018-08-22T14:04:02.797Z</time>
      </trkpt>
      <trkpt lat="48.1585810" lon="-2.1907412">
        <ele>92.321</ele>
        <time>2018-08-22T14:04:06.030Z</time>
      </trkpt>
      <trkpt lat="48.1586076" lon="-2.1906117">
        <ele>92.373</ele>
        <time>2018-08-22T14:04:09.012Z</time>
      </trkpt>
      <trkpt lat="48.1586366" lon="-2.1904506">
        <ele>92.474</ele>
        <time>2018-08-22T14:04:12.798Z</time>
      </trkpt>
      <trkpt lat="48.1586645" lon="-2.1902954">
        <ele>92.584</ele>
        <time>2018-08-22T14:04:16.542Z</time>
      </trkpt>
      <trkpt lat="48.1586850" lon="-2.1901325">
        <ele>92.688</ele>
        <time>2018-08-22T14:04:20.403Z</time>
      </trkpt>
      <trkpt lat="48.1587052" lon="-2.1899963">
        <ele>92.757</ele>
        <time>2018-08-22T14:04:23.441Z</time>
      </trkpt>
      <trkpt lat="48.1587308" lon="-2.1898421">
        <ele>92.778</ele>
        <time>2018-08-22T14:04:26.635Z</time>
      </trkpt>
      <trkpt lat="48.1587566" lon="-2.1896824">
        <ele>92.763</ele>
        <time>2018-08-22T14:04:29.818Z</time>
      </trkpt>
      <trkpt lat="48.1587778" lon="-2.1895329">
        <ele>92.728</ele>
        <time>2018-08-22T14:04:32.781Z</time>
      </trkpt>
      <trkpt lat="48.1587990" lon="-2.1893839">
        <ele>92.667</ele>
        <time>2018-08-22T14:04:35.730Z</time>
      </trkpt>
      <trkpt lat="48.1588267" lon="-2.1892303">
        <ele>92.525</ele>
        <time>2018-08-22T14:04:38.714Z</time>
      </trkpt>
      <trkpt lat="48.1588589" lon="-2.1890592">
        <ele>92.265</ele>
        <time>2018-08-22T14:04:41.752Z</time>
      </trkpt>
      <trkpt lat="48.1588664" lon="-2.1888548">
        <ele>91.906</ele>
        <time>2018-08-22T14:04:44.925Z</time>
      </trkpt>
      <trkpt lat="48.1588336" lon="-2.1886653">
        <ele>91.478</ele>
        <time>2018-08-22T14:04:47.928Z</time>
      </trkpt>
      <trkpt lat="48.1587757" lon="-2.1884989">
        <ele>91.050</ele>
        <time>2018-08-22T14:04:50.878Z</time>
      </trkpt>
      <trkpt lat="48.1587080" lon="-2.1883473">
        <ele>90.681</ele>
        <time>2018-08-22T14:04:53.733Z</time>
      </trkpt>
      <trkpt lat="48.1586263" lon="-2.1881902">
        <ele>90.396</ele>
        <time>2018-08-22T14:04:56.714Z</time>
      </trkpt>
      <trkpt lat="48.1585421" lon="-2.1880156">
        <ele>90.233</ele>
        <time>2018-08-22T14:04:59.740Z</time>
      </trkpt>
      <trkpt lat="48.1584629" lon="-2.1878264">
        <ele>90.148</ele>
        <time>2018-08-22T14:05:02.733Z</time>
      </trkpt>
      <trkpt lat="48.1583677" lon="-2.1876466">
        <ele>90.031</ele>
        <time>2018-08-22T14:05:05.782Z</time>
      </trkpt>
      <trkpt lat="48.1582806" lon="-2.1874703">
        <ele>89.806</ele>
        <time>2018-08-22T14:05:08.767Z</time>
      </trkpt>
      <trkpt lat="48.1582033" lon="-2.1873100">
        <ele>89.411</ele>
        <time>2018-08-22T14:05:11.591Z</time>
      </trkpt>
      <trkpt lat="48.1581172" lon="-2.1871564">
        <ele>88.923</ele>
        <time>2018-08-22T14:05:14.524Z</time>
      </trkpt>
      <trkpt lat="48.1580361" lon="-2.1869783">
        <ele>88.609</ele>
        <time>2018-08-22T14:05:17.615Z</time>
      </trkpt>
      <trkpt lat="48.1579570" lon="-2.1868121">
        <ele>88.665</ele>
        <time>2018-08-22T14:05:20.503Z</time>
      </trkpt>
      <trkpt lat="48.1578784" lon="-2.1866457">
        <ele>89.002</ele>
        <time>2018-08-22T14:05:23.435Z</time>
      </trkpt>
      <trkpt lat="48.1578110" lon="-2.1864839">
        <ele>89.301</ele>
        <time>2018-08-22T14:05:26.306Z</time>
      </trkpt>
      <trkpt lat="48.1577635" lon="-2.1863345">
        <ele>89.331</ele>
        <time>2018-08-22T14:05:28.912Z</time>
      </trkpt>
      <trkpt lat="48.1577320" lon="-2.1861365">
        <ele>89.201</ele>
        <time>2018-08-22T14:05:32.106Z</time>
      </trkpt>
      <trkpt lat="48.1577156" lon="-2.1859429">
        <ele>89.154</ele>
        <time>2018-08-22T14:05:35.021Z</time>
      </trkpt>
      <trkpt lat="48.1577110" lon="-2.1858020">
        <ele>89.289</ele>
        <time>2018-08-22T14:05:37.034Z</time>
      </trkpt>
      <trkpt lat="48.1577034" lon="-2.1856613">
        <ele>89.531</ele>
        <time>2018-08-22T14:05:39.006Z</time>
      </trkpt>
      <trkpt lat="48.1576800" lon="-2.1855175">
        <ele>89.782</ele>
        <time>2018-08-22T14:05:41.061Z</time>
      </trkpt>
      <trkpt lat="48.1576525" lon="-2.1853823">
        <ele>90.020</ele>
        <time>2018-08-22T14:05:43.050Z</time>
      </trkpt>
      <trkpt lat="48.1576004" lon="-2.1851967">
        <ele>90.290</ele>
        <time>2018-08-22T14:05:45.948Z</time>
      </trkpt>
      <trkpt lat="48.1575563" lon="-2.1850763">
        <ele>90.627</ele>
        <time>2018-08-22T14:05:48.005Z</time>
      </trkpt>
      <trkpt lat="48.1574884" lon="-2.1849174">
        <ele>90.977</ele>
        <time>2018-08-22T14:05:50.873Z</time>
      </trkpt>
      <trkpt lat="48.1574171" lon="-2.1847493">
        <ele>91.197</ele>
        <time>2018-08-22T14:05:53.902Z</time>
      </trkpt>
      <trkpt lat="48.1573691" lon="-2.1846334">
        <ele>91.239</ele>
        <time>2018-08-22T14:05:55.952Z</time>
      </trkpt>
      <trkpt lat="48.1573042" lon="-2.1844631">
        <ele>91.195</ele>
        <time>2018-08-22T14:05:58.908Z</time>
      </trkpt>
      <trkpt lat="48.1572426" lon="-2.1843007">
        <ele>91.218</ele>
        <time>2018-08-22T14:06:01.807Z</time>
      </trkpt>
      <trkpt lat="48.1571826" lon="-2.1841436">
        <ele>91.430</ele>
        <time>2018-08-22T14:06:04.757Z</time>
      </trkpt>
      <trkpt lat="48.1571274" lon="-2.1840056">
        <ele>91.779</ele>
        <time>2018-08-22T14:06:07.648Z</time>
      </trkpt>
      <trkpt lat="48.1570564" lon="-2.1838789">
        <ele>92.146</ele>
        <time>2018-08-22T14:06:11.142Z</time>
      </trkpt>
      <trkpt lat="48.1569575" lon="-2.1838551">
        <ele>92.489</ele>
        <time>2018-08-22T14:06:14.999Z</time>
      </trkpt>
      <trkpt lat="48.1569575" lon="-2.1838551">
        <ele>92.753</ele>
        <time>2018-08-22T14:06:25.999Z</time>
      </trkpt>
      <trkpt lat="48.1569575" lon="-2.1838551">
        <ele>92.849</ele>
        <time>2018-08-22T14:07:06.998Z</time>
      </trkpt>
      <trkpt lat="48.1568751" lon="-2.1840816">
        <ele>92.701</ele>
        <time>2018-08-22T14:07:16.476Z</time>
      </trkpt>
      <trkpt lat="48.1568044" lon="-2.1841815">
        <ele>92.818</ele>
        <time>2018-08-22T14:07:19.619Z</time>
      </trkpt>
      <trkpt lat="48.1567350" lon="-2.1842818">
        <ele>93.300</ele>
        <time>2018-08-22T14:07:22.552Z</time>
      </trkpt>
      <trkpt lat="48.1566612" lon="-2.1844063">
        <ele>93.889</ele>
        <time>2018-08-22T14:07:25.779Z</time>
      </trkpt>
      <trkpt lat="48.1565877" lon="-2.1845253">
        <ele>94.235</ele>
        <time>2018-08-22T14:07:28.957Z</time>
      </trkpt>
      <trkpt lat="48.1565172" lon="-2.1846257">
        <ele>94.300</ele>
        <time>2018-08-22T14:07:31.875Z</time>
      </trkpt>
      <trkpt lat="48.1564411" lon="-2.1847264">
        <ele>94.218</ele>
        <time>2018-08-22T14:07:34.850Z</time>
      </trkpt>
      <trkpt lat="48.1563573" lon="-2.1848184">
        <ele>94.126</ele>
        <time>2018-08-22T14:07:37.807Z</time>
      </trkpt>
      <trkpt lat="48.1562635" lon="-2.1849048">
        <ele>94.054</ele>
        <time>2018-08-22T14:07:40.828Z</time>
      </trkpt>
      <trkpt lat="48.1561623" lon="-2.1849796">
        <ele>93.975</ele>
        <time>2018-08-22T14:07:43.828Z</time>
      </trkpt>
      <trkpt lat="48.1560596" lon="-2.1850492">
        <ele>93.902</ele>
        <time>2018-08-22T14:07:46.761Z</time>
      </trkpt>
      <trkpt lat="48.1559547" lon="-2.1851197">
        <ele>93.858</ele>
        <time>2018-08-22T14:07:49.707Z</time>
      </trkpt>
      <trkpt lat="48.1558510" lon="-2.1851984">
        <ele>93.904</ele>
        <time>2018-08-22T14:07:52.664Z</time>
      </trkpt>
      <trkpt lat="48.1557498" lon="-2.1852872">
        <ele>94.068</ele>
        <time>2018-08-22T14:07:55.619Z</time>
      </trkpt>
      <trkpt lat="48.1556512" lon="-2.1853896">
        <ele>94.234</ele>
        <time>2018-08-22T14:07:58.669Z</time>
      </trkpt>
      <trkpt lat="48.1555660" lon="-2.1854984">
        <ele>94.299</ele>
        <time>2018-08-22T14:08:01.558Z</time>
      </trkpt>
      <trkpt lat="48.1554836" lon="-2.1856210">
        <ele>94.350</ele>
        <time>2018-08-22T14:08:04.551Z</time>
      </trkpt>
      <trkpt lat="48.1554018" lon="-2.1857491">
        <ele>94.476</ele>
        <time>2018-08-22T14:08:07.621Z</time>
      </trkpt>
      <trkpt lat="48.1553231" lon="-2.1858778">
        <ele>94.623</ele>
        <time>2018-08-22T14:08:10.677Z</time>
      </trkpt>
      <trkpt lat="48.1552516" lon="-2.1860087">
        <ele>94.718</ele>
        <time>2018-08-22T14:08:13.645Z</time>
      </trkpt>
      <trkpt lat="48.1551789" lon="-2.1861361">
        <ele>94.780</ele>
        <time>2018-08-22T14:08:16.574Z</time>
      </trkpt>
      <trkpt lat="48.1551008" lon="-2.1862612">
        <ele>94.870</ele>
        <time>2018-08-22T14:08:19.504Z</time>
      </trkpt>
      <trkpt lat="48.1550108" lon="-2.1863772">
        <ele>95.030</ele>
        <time>2018-08-22T14:08:22.455Z</time>
      </trkpt>
      <trkpt lat="48.1549071" lon="-2.1864878">
        <ele>95.220</ele>
        <time>2018-08-22T14:08:25.580Z</time>
      </trkpt>
      <trkpt lat="48.1548024" lon="-2.1865828">
        <ele>95.363</ele>
        <time>2018-08-22T14:08:28.564Z</time>
      </trkpt>
      <trkpt lat="48.1546884" lon="-2.1866614">
        <ele>95.371</ele>
        <time>2018-08-22T14:08:31.562Z</time>
      </trkpt>
      <trkpt lat="48.1545486" lon="-2.1867089">
        <ele>95.181</ele>
        <time>2018-08-22T14:08:34.982Z</time>
      </trkpt>
      <trkpt lat="48.1544466" lon="-2.1867715">
        <ele>94.882</ele>
        <time>2018-08-22T14:08:37.663Z</time>
      </trkpt>
      <trkpt lat="48.1543405" lon="-2.1868485">
        <ele>94.673</ele>
        <time>2018-08-22T14:08:40.530Z</time>
      </trkpt>
      <trkpt lat="48.1542326" lon="-2.1869250">
        <ele>94.625</ele>
        <time>2018-08-22T14:08:43.397Z</time>
      </trkpt>
      <trkpt lat="48.1541234" lon="-2.1869984">
        <ele>94.599</ele>
        <time>2018-08-22T14:08:46.228Z</time>
      </trkpt>
      <trkpt lat="48.1540162" lon="-2.1871001">
        <ele>94.382</ele>
        <time>2018-08-22T14:08:49.209Z</time>
      </trkpt>
      <trkpt lat="48.1539259" lon="-2.1872256">
        <ele>93.967</ele>
        <time>2018-08-22T14:08:52.150Z</time>
      </trkpt>
      <trkpt lat="48.1538505" lon="-2.1873680">
        <ele>93.583</ele>
        <time>2018-08-22T14:08:55.070Z</time>
      </trkpt>
      <trkpt lat="48.1537867" lon="-2.1875325">
        <ele>93.417</ele>
        <time>2018-08-22T14:08:58.163Z</time>
      </trkpt>
      <trkpt lat="48.1537515" lon="-2.1876979">
        <ele>93.469</ele>
        <time>2018-08-22T14:09:01.084Z</time>
      </trkpt>
      <trkpt lat="48.1537229" lon="-2.1878644">
        <ele>93.662</ele>
        <time>2018-08-22T14:09:03.992Z</time>
      </trkpt>
      <trkpt lat="48.1536917" lon="-2.1880351">
        <ele>93.997</ele>
        <time>2018-08-22T14:09:06.955Z</time>
      </trkpt>
      <trkpt lat="48.1536554" lon="-2.1882060">
        <ele>94.547</ele>
        <time>2018-08-22T14:09:09.935Z</time>
      </trkpt>
      <trkpt lat="48.1536173" lon="-2.1883770">
        <ele>95.257</ele>
        <time>2018-08-22T14:09:12.932Z</time>
      </trkpt>
      <trkpt lat="48.1535759" lon="-2.1885404">
        <ele>95.874</ele>
        <time>2018-08-22T14:09:15.871Z</time>
      </trkpt>
      <trkpt lat="48.1535184" lon="-2.1886919">
        <ele>96.186</ele>
        <time>2018-08-22T14:09:18.744Z</time>
      </trkpt>
      <trkpt lat="48.1534352" lon="-2.1888304">
        <ele>96.210</ele>
        <time>2018-08-22T14:09:21.722Z</time>
      </trkpt>
      <trkpt lat="48.1533529" lon="-2.1889597">
        <ele>96.071</ele>
        <time>2018-08-22T14:09:24.489Z</time>
      </trkpt>
      <trkpt lat="48.1532221" lon="-2.1890501">
        <ele>95.875</ele>
        <time>2018-08-22T14:09:27.649Z</time>
      </trkpt>
      <trkpt lat="48.1530954" lon="-2.1891590">
        <ele>95.719</ele>
        <time>2018-08-22T14:09:30.706Z</time>
      </trkpt>
      <trkpt lat="48.1529651" lon="-2.1892653">
        <ele>95.621</ele>
        <time>2018-08-22T14:09:33.727Z</time>
      </trkpt>
      <trkpt lat="48.1528343" lon="-2.1893794">
        <ele>95.509</ele>
        <time>2018-08-22T14:09:36.706Z</time>
      </trkpt>
      <trkpt lat="48.1526854" lon="-2.1894783">
        <ele>95.368</ele>
        <time>2018-08-22T14:09:39.752Z</time>
      </trkpt>
      <trkpt lat="48.1525243" lon="-2.1895565">
        <ele>95.250</ele>
        <time>2018-08-22T14:09:42.777Z</time>
      </trkpt>
      <trkpt lat="48.1523563" lon="-2.1896072">
        <ele>95.147</ele>
        <time>2018-08-22T14:09:45.818Z</time>
      </trkpt>
      <trkpt lat="48.1522023" lon="-2.1896286">
        <ele>94.933</ele>
        <time>2018-08-22T14:09:48.584Z</time>
      </trkpt>
      <trkpt lat="48.1520247" lon="-2.1896854">
        <ele>94.515</ele>
        <time>2018-08-22T14:09:51.830Z</time>
      </trkpt>
      <trkpt lat="48.1518740" lon="-2.1897940">
        <ele>93.850</ele>
        <time>2018-08-22T14:09:54.844Z</time>
      </trkpt>
      <trkpt lat="48.1517348" lon="-2.1899208">
        <ele>93.043</ele>
        <time>2018-08-22T14:09:57.875Z</time>
      </trkpt>
      <trkpt lat="48.1516095" lon="-2.1900397">
        <ele>92.356</ele>
        <time>2018-08-22T14:10:00.729Z</time>
      </trkpt>
      <trkpt lat="48.1514793" lon="-2.1901673">
        <ele>91.919</ele>
        <time>2018-08-22T14:10:03.783Z</time>
      </trkpt>
      <trkpt lat="48.1513593" lon="-2.1902809">
        <ele>91.679</ele>
        <time>2018-08-22T14:10:06.603Z</time>
      </trkpt>
      <trkpt lat="48.1512214" lon="-2.1903977">
        <ele>91.607</ele>
        <time>2018-08-22T14:10:09.785Z</time>
      </trkpt>
      <trkpt lat="48.1510976" lon="-2.1905029">
        <ele>91.648</ele>
        <time>2018-08-22T14:10:12.652Z</time>
      </trkpt>
      <trkpt lat="48.1509617" lon="-2.1906110">
        <ele>91.597</ele>
        <time>2018-08-22T14:10:15.711Z</time>
      </trkpt>
      <trkpt lat="48.1508307" lon="-2.1907209">
        <ele>91.328</ele>
        <time>2018-08-22T14:10:18.659Z</time>
      </trkpt>
      <trkpt lat="48.1507037" lon="-2.1908510">
        <ele>90.998</ele>
        <time>2018-08-22T14:10:21.676Z</time>
      </trkpt>
      <trkpt lat="48.1506096" lon="-2.1909862">
        <ele>90.789</ele>
        <time>2018-08-22T14:10:24.244Z</time>
      </trkpt>
      <trkpt lat="48.1505031" lon="-2.1911380">
        <ele>90.512</ele>
        <time>2018-08-22T14:10:27.186Z</time>
      </trkpt>
      <trkpt lat="48.1504184" lon="-2.1913148">
        <ele>89.993</ele>
        <time>2018-08-22T14:10:30.163Z</time>
      </trkpt>
      <trkpt lat="48.1503373" lon="-2.1915025">
        <ele>89.468</ele>
        <time>2018-08-22T14:10:33.250Z</time>
      </trkpt>
      <trkpt lat="48.1502781" lon="-2.1916929">
        <ele>89.194</ele>
        <time>2018-08-22T14:10:36.109Z</time>
      </trkpt>
      <trkpt lat="48.1502117" lon="-2.1919092">
        <ele>89.163</ele>
        <time>2018-08-22T14:10:39.217Z</time>
      </trkpt>
      <trkpt lat="48.1501406" lon="-2.1921359">
        <ele>89.270</ele>
        <time>2018-08-22T14:10:42.316Z</time>
      </trkpt>
      <trkpt lat="48.1500742" lon="-2.1923388">
        <ele>89.354</ele>
        <time>2018-08-22T14:10:45.084Z</time>
      </trkpt>
      <trkpt lat="48.1499996" lon="-2.1925518">
        <ele>89.319</ele>
        <time>2018-08-22T14:10:48.041Z</time>
      </trkpt>
      <trkpt lat="48.1499241" lon="-2.1927810">
        <ele>89.181</ele>
        <time>2018-08-22T14:10:51.138Z</time>
      </trkpt>
      <trkpt lat="48.1498519" lon="-2.1930117">
        <ele>88.950</ele>
        <time>2018-08-22T14:10:54.186Z</time>
      </trkpt>
      <trkpt lat="48.1497744" lon="-2.1932388">
        <ele>88.670</ele>
        <time>2018-08-22T14:10:57.269Z</time>
      </trkpt>
      <trkpt lat="48.1497252" lon="-2.1934562">
        <ele>88.401</ele>
        <time>2018-08-22T14:11:00.340Z</time>
      </trkpt>
      <trkpt lat="48.1497426" lon="-2.1935981">
        <ele>88.186</ele>
        <time>2018-08-22T14:11:02.826Z</time>
      </trkpt>
      <trkpt lat="48.1496506" lon="-2.1936694">
        <ele>88.059</ele>
        <time>2018-08-22T14:11:06.706Z</time>
      </trkpt>
      <trkpt lat="48.1495708" lon="-2.1937343">
        <ele>88.054</ele>
        <time>2018-08-22T14:11:11.230Z</time>
      </trkpt>
      <trkpt lat="48.1494886" lon="-2.1938584">
        <ele>88.151</ele>
        <time>2018-08-22T14:11:16.530Z</time>
      </trkpt>
      <trkpt lat="48.1494142" lon="-2.1939688">
        <ele>88.272</ele>
        <time>2018-08-22T14:11:19.984Z</time>
      </trkpt>
      <trkpt lat="48.1493143" lon="-2.1940734">
        <ele>88.346</ele>
        <time>2018-08-22T14:11:23.347Z</time>
      </trkpt>
      <trkpt lat="48.1492103" lon="-2.1941659">
        <ele>88.391</ele>
        <time>2018-08-22T14:11:26.415Z</time>
      </trkpt>
      <trkpt lat="48.1491042" lon="-2.1942487">
        <ele>88.421</ele>
        <time>2018-08-22T14:11:29.347Z</time>
      </trkpt>
      <trkpt lat="48.1489921" lon="-2.1943296">
        <ele>88.382</ele>
        <time>2018-08-22T14:11:32.332Z</time>
      </trkpt>
      <trkpt lat="48.1488834" lon="-2.1944111">
        <ele>88.273</ele>
        <time>2018-08-22T14:11:35.193Z</time>
      </trkpt>
      <trkpt lat="48.1487816" lon="-2.1944904">
        <ele>88.204</ele>
        <time>2018-08-22T14:11:37.947Z</time>
      </trkpt>
      <trkpt lat="48.1486729" lon="-2.1945960">
        <ele>88.275</ele>
        <time>2018-08-22T14:11:41.077Z</time>
      </trkpt>
      <trkpt lat="48.1485671" lon="-2.1947072">
        <ele>88.495</ele>
        <time>2018-08-22T14:11:44.086Z</time>
      </trkpt>
      <trkpt lat="48.1484694" lon="-2.1948365">
        <ele>88.795</ele>
        <time>2018-08-22T14:11:47.083Z</time>
      </trkpt>
      <trkpt lat="48.1483803" lon="-2.1949732">
        <ele>89.067</ele>
        <time>2018-08-22T14:11:50.022Z</time>
      </trkpt>
      <trkpt lat="48.1482916" lon="-2.1951189">
        <ele>89.196</ele>
        <time>2018-08-22T14:11:53.071Z</time>
      </trkpt>
      <trkpt lat="48.1482076" lon="-2.1952658">
        <ele>89.162</ele>
        <time>2018-08-22T14:11:56.095Z</time>
      </trkpt>
      <trkpt lat="48.1481273" lon="-2.1954138">
        <ele>89.158</ele>
        <time>2018-08-22T14:11:59.094Z</time>
      </trkpt>
      <trkpt lat="48.1480489" lon="-2.1955638">
        <ele>89.355</ele>
        <time>2018-08-22T14:12:02.095Z</time>
      </trkpt>
      <trkpt lat="48.1479623" lon="-2.1957135">
        <ele>89.660</ele>
        <time>2018-08-22T14:12:05.188Z</time>
      </trkpt>
      <trkpt lat="48.1478765" lon="-2.1958631">
        <ele>89.887</ele>
        <time>2018-08-22T14:12:08.233Z</time>
      </trkpt>
      <trkpt lat="48.1477946" lon="-2.1960211">
        <ele>90.044</ele>
        <time>2018-08-22T14:12:11.274Z</time>
      </trkpt>
      <trkpt lat="48.1477208" lon="-2.1961841">
        <ele>90.211</ele>
        <time>2018-08-22T14:12:14.220Z</time>
      </trkpt>
      <trkpt lat="48.1476722" lon="-2.1963580">
        <ele>90.354</ele>
        <time>2018-08-22T14:12:17.052Z</time>
      </trkpt>
      <trkpt lat="48.1476393" lon="-2.1965593">
        <ele>90.407</ele>
        <time>2018-08-22T14:12:20.153Z</time>
      </trkpt>
      <trkpt lat="48.1476111" lon="-2.1967506">
        <ele>90.415</ele>
        <time>2018-08-22T14:12:23.083Z</time>
      </trkpt>
      <trkpt lat="48.1476105" lon="-2.1969420">
        <ele>90.411</ele>
        <time>2018-08-22T14:12:26.014Z</time>
      </trkpt>
      <trkpt lat="48.1476445" lon="-2.1970830">
        <ele>90.260</ele>
        <time>2018-08-22T14:12:28.590Z</time>
      </trkpt>
      <trkpt lat="48.1475556" lon="-2.1971425">
        <ele>89.893</ele>
        <time>2018-08-22T14:12:31.833Z</time>
      </trkpt>
      <trkpt lat="48.1475489" lon="-2.1970072">
        <ele>89.461</ele>
        <time>2018-08-22T14:12:35.162Z</time>
      </trkpt>
      <trkpt lat="48.1475827" lon="-2.1968521">
        <ele>89.093</ele>
        <time>2018-08-22T14:12:39.195Z</time>
      </trkpt>
      <trkpt lat="48.1476071" lon="-2.1966782">
        <ele>88.822</ele>
        <time>2018-08-22T14:12:42.694Z</time>
      </trkpt>
      <trkpt lat="48.1476326" lon="-2.1964877">
        <ele>88.630</ele>
        <time>2018-08-22T14:12:46.001Z</time>
      </trkpt>
      <trkpt lat="48.1476657" lon="-2.1963052">
        <ele>88.423</ele>
        <time>2018-08-22T14:12:49.044Z</time>
      </trkpt>
      <trkpt lat="48.1477111" lon="-2.1961502">
        <ele>88.167</ele>
        <time>2018-08-22T14:12:51.877Z</time>
      </trkpt>
      <trkpt lat="48.1477633" lon="-2.1960195">
        <ele>87.937</ele>
        <time>2018-08-22T14:12:54.655Z</time>
      </trkpt>
      <trkpt lat="48.1478370" lon="-2.1959244">
        <ele>87.921</ele>
        <time>2018-08-22T14:12:58.585Z</time>
      </trkpt>
      <trkpt lat="48.1478095" lon="-2.1960568">
        <ele>88.193</ele>
        <time>2018-08-22T14:13:03.246Z</time>
      </trkpt>
      <trkpt lat="48.1477386" lon="-2.1961853">
        <ele>88.578</ele>
        <time>2018-08-22T14:13:07.328Z</time>
      </trkpt>
      <trkpt lat="48.1476807" lon="-2.1963405">
        <ele>88.902</ele>
        <time>2018-08-22T14:13:10.615Z</time>
      </trkpt>
      <trkpt lat="48.1476448" lon="-2.1965183">
        <ele>89.109</ele>
        <time>2018-08-22T14:13:13.755Z</time>
      </trkpt>
      <trkpt lat="48.1476195" lon="-2.1966993">
        <ele>89.074</ele>
        <time>2018-08-22T14:13:16.790Z</time>
      </trkpt>
      <trkpt lat="48.1476040" lon="-2.1968739">
        <ele>88.788</ele>
        <time>2018-08-22T14:13:19.717Z</time>
      </trkpt>
      <trkpt lat="48.1475833" lon="-2.1970490">
        <ele>88.568</ele>
        <time>2018-08-22T14:13:22.707Z</time>
      </trkpt>
      <trkpt lat="48.1475586" lon="-2.1972242">
        <ele>88.661</ele>
        <time>2018-08-22T14:13:25.709Z</time>
      </trkpt>
      <trkpt lat="48.1475258" lon="-2.1973979">
        <ele>88.889</ele>
        <time>2018-08-22T14:13:28.729Z</time>
      </trkpt>
      <trkpt lat="48.1474940" lon="-2.1975649">
        <ele>89.035</ele>
        <time>2018-08-22T14:13:31.660Z</time>
      </trkpt>
      <trkpt lat="48.1474559" lon="-2.1977312">
        <ele>89.078</ele>
        <time>2018-08-22T14:13:34.644Z</time>
      </trkpt>
      <trkpt lat="48.1474218" lon="-2.1979026">
        <ele>89.060</ele>
        <time>2018-08-22T14:13:37.665Z</time>
      </trkpt>
      <trkpt lat="48.1473943" lon="-2.1980710">
        <ele>89.007</ele>
        <time>2018-08-22T14:13:40.596Z</time>
      </trkpt>
      <trkpt lat="48.1473660" lon="-2.1982368">
        <ele>88.946</ele>
        <time>2018-08-22T14:13:43.515Z</time>
      </trkpt>
      <trkpt lat="48.1473440" lon="-2.1983984">
        <ele>88.963</ele>
        <time>2018-08-22T14:13:46.389Z</time>
      </trkpt>
      <trkpt lat="48.1473178" lon="-2.1985535">
        <ele>89.237</ele>
        <time>2018-08-22T14:13:49.283Z</time>
      </trkpt>
      <trkpt lat="48.1472789" lon="-2.1987004">
        <ele>89.864</ele>
        <time>2018-08-22T14:13:52.261Z</time>
      </trkpt>
      <trkpt lat="48.1472495" lon="-2.1988361">
        <ele>90.649</ele>
        <time>2018-08-22T14:13:55.155Z</time>
      </trkpt>
      <trkpt lat="48.1472210" lon="-2.1989898">
        <ele>91.282</ele>
        <time>2018-08-22T14:13:58.795Z</time>
      </trkpt>
      <trkpt lat="48.1471728" lon="-2.1991287">
        <ele>91.638</ele>
        <time>2018-08-22T14:14:02.752Z</time>
      </trkpt>
      <trkpt lat="48.1471347" lon="-2.1992632">
        <ele>91.698</ele>
        <time>2018-08-22T14:14:06.632Z</time>
      </trkpt>
      <trkpt lat="48.1470941" lon="-2.1994077">
        <ele>91.527</ele>
        <time>2018-08-22T14:14:10.779Z</time>
      </trkpt>
      <trkpt lat="48.1470414" lon="-2.1995415">
        <ele>91.397</ele>
        <time>2018-08-22T14:14:14.803Z</time>
      </trkpt>
      <trkpt lat="48.1469876" lon="-2.1996521">
        <ele>91.558</ele>
        <time>2018-08-22T14:14:18.116Z</time>
      </trkpt>
      <trkpt lat="48.1469327" lon="-2.1997633">
        <ele>91.912</ele>
        <time>2018-08-22T14:14:21.211Z</time>
      </trkpt>
      <trkpt lat="48.1468718" lon="-2.1998708">
        <ele>92.149</ele>
        <time>2018-08-22T14:14:24.266Z</time>
      </trkpt>
      <trkpt lat="48.1468023" lon="-2.1999692">
        <ele>92.125</ele>
        <time>2018-08-22T14:14:27.290Z</time>
      </trkpt>
      <trkpt lat="48.1467257" lon="-2.2000630">
        <ele>91.956</ele>
        <time>2018-08-22T14:14:30.318Z</time>
      </trkpt>
      <trkpt lat="48.1466482" lon="-2.2001598">
        <ele>91.804</ele>
        <time>2018-08-22T14:14:33.325Z</time>
      </trkpt>
      <trkpt lat="48.1465703" lon="-2.2002549">
        <ele>91.714</ele>
        <time>2018-08-22T14:14:36.278Z</time>
      </trkpt>
      <trkpt lat="48.1464906" lon="-2.2003559">
        <ele>91.663</ele>
        <time>2018-08-22T14:14:39.316Z</time>
      </trkpt>
      <trkpt lat="48.1464106" lon="-2.2004551">
        <ele>91.633</ele>
        <time>2018-08-22T14:14:42.308Z</time>
      </trkpt>
      <trkpt lat="48.1463235" lon="-2.2005557">
        <ele>91.618</ele>
        <time>2018-08-22T14:14:45.384Z</time>
      </trkpt>
      <trkpt lat="48.1462346" lon="-2.2006704">
        <ele>91.616</ele>
        <time>2018-08-22T14:14:48.494Z</time>
      </trkpt>
      <trkpt lat="48.1461382" lon="-2.2007886">
        <ele>91.627</ele>
        <time>2018-08-22T14:14:51.617Z</time>
      </trkpt>
      <trkpt lat="48.1460445" lon="-2.2009092">
        <ele>91.645</ele>
        <time>2018-08-22T14:14:54.618Z</time>
      </trkpt>
      <trkpt lat="48.1459529" lon="-2.2010306">
        <ele>91.691</ele>
        <time>2018-08-22T14:14:57.578Z</time>
      </trkpt>
      <trkpt lat="48.1458594" lon="-2.2011445">
        <ele>91.825</ele>
        <time>2018-08-22T14:15:00.522Z</time>
      </trkpt>
      <trkpt lat="48.1457654" lon="-2.2012592">
        <ele>92.089</ele>
        <time>2018-08-22T14:15:03.523Z</time>
      </trkpt>
      <trkpt lat="48.1456730" lon="-2.2013801">
        <ele>92.424</ele>
        <time>2018-08-22T14:15:06.553Z</time>
      </trkpt>
      <trkpt lat="48.1455783" lon="-2.2015070">
        <ele>92.684</ele>
        <time>2018-08-22T14:15:09.647Z</time>
      </trkpt>
      <trkpt lat="48.1454846" lon="-2.2016281">
        <ele>92.785</ele>
        <time>2018-08-22T14:15:12.656Z</time>
      </trkpt>
      <trkpt lat="48.1453923" lon="-2.2017457">
        <ele>92.778</ele>
        <time>2018-08-22T14:15:15.632Z</time>
      </trkpt>
      <trkpt lat="48.1452991" lon="-2.2018533">
        <ele>92.786</ele>
        <time>2018-08-22T14:15:18.550Z</time>
      </trkpt>
      <trkpt lat="48.1452055" lon="-2.2019690">
        <ele>92.929</ele>
        <time>2018-08-22T14:15:21.536Z</time>
      </trkpt>
      <trkpt lat="48.1451106" lon="-2.2020918">
        <ele>93.184</ele>
        <time>2018-08-22T14:15:24.539Z</time>
      </trkpt>
      <trkpt lat="48.1450138" lon="-2.2022223">
        <ele>93.365</ele>
        <time>2018-08-22T14:15:27.548Z</time>
      </trkpt>
      <trkpt lat="48.1449127" lon="-2.2023673">
        <ele>93.356</ele>
        <time>2018-08-22T14:15:30.645Z</time>
      </trkpt>
      <trkpt lat="48.1448115" lon="-2.2024981">
        <ele>93.216</ele>
        <time>2018-08-22T14:15:33.546Z</time>
      </trkpt>
      <trkpt lat="48.1447100" lon="-2.2026279">
        <ele>92.997</ele>
        <time>2018-08-22T14:15:36.493Z</time>
      </trkpt>
      <trkpt lat="48.1446192" lon="-2.2027503">
        <ele>92.713</ele>
        <time>2018-08-22T14:15:39.267Z</time>
      </trkpt>
      <trkpt lat="48.1445199" lon="-2.2028805">
        <ele>92.453</ele>
        <time>2018-08-22T14:15:42.356Z</time>
      </trkpt>
      <trkpt lat="48.1444372" lon="-2.2030030">
        <ele>92.318</ele>
        <time>2018-08-22T14:15:45.213Z</time>
      </trkpt>
      <trkpt lat="48.1443588" lon="-2.2031271">
        <ele>92.297</ele>
        <time>2018-08-22T14:15:48.140Z</time>
      </trkpt>
      <trkpt lat="48.1442838" lon="-2.2032770">
        <ele>92.311</ele>
        <time>2018-08-22T14:15:51.205Z</time>
      </trkpt>
      <trkpt lat="48.1442226" lon="-2.2034619">
        <ele>92.299</ele>
        <time>2018-08-22T14:15:54.314Z</time>
      </trkpt>
      <trkpt lat="48.1441623" lon="-2.2036412">
        <ele>92.147</ele>
        <time>2018-08-22T14:15:57.242Z</time>
      </trkpt>
      <trkpt lat="48.1440974" lon="-2.2038307">
        <ele>91.816</ele>
        <time>2018-08-22T14:16:00.291Z</time>
      </trkpt>
      <trkpt lat="48.1440327" lon="-2.2040228">
        <ele>91.572</ele>
        <time>2018-08-22T14:16:03.273Z</time>
      </trkpt>
      <trkpt lat="48.1440099" lon="-2.2041981">
        <ele>91.622</ele>
        <time>2018-08-22T14:16:05.782Z</time>
      </trkpt>
      <trkpt lat="48.1439407" lon="-2.2044105">
        <ele>91.828</ele>
        <time>2018-08-22T14:16:09.059Z</time>
      </trkpt>
      <trkpt lat="48.1439037" lon="-2.2045865">
        <ele>91.939</ele>
        <time>2018-08-22T14:16:11.644Z</time>
      </trkpt>
      <trkpt lat="48.1438497" lon="-2.2047530">
        <ele>91.850</ele>
        <time>2018-08-22T14:16:14.526Z</time>
      </trkpt>
      <trkpt lat="48.1438039" lon="-2.2049278">
        <ele>91.671</ele>
        <time>2018-08-22T14:16:17.619Z</time>
      </trkpt>
      <trkpt lat="48.1437586" lon="-2.2050988">
        <ele>91.546</ele>
        <time>2018-08-22T14:16:20.621Z</time>
      </trkpt>
      <trkpt lat="48.1437111" lon="-2.2052677">
        <ele>91.463</ele>
        <time>2018-08-22T14:16:23.587Z</time>
      </trkpt>
      <trkpt lat="48.1436690" lon="-2.2054532">
        <ele>91.383</ele>
        <time>2018-08-22T14:16:26.687Z</time>
      </trkpt>
      <trkpt lat="48.1436245" lon="-2.2056349">
        <ele>91.317</ele>
        <time>2018-08-22T14:16:29.680Z</time>
      </trkpt>
      <trkpt lat="48.1435784" lon="-2.2057992">
        <ele>91.397</ele>
        <time>2018-08-22T14:16:32.521Z</time>
      </trkpt>
      <trkpt lat="48.1435345" lon="-2.2059356">
        <ele>91.681</ele>
        <time>2018-08-22T14:16:35.168Z</time>
      </trkpt>
      <trkpt lat="48.1434885" lon="-2.2060949">
        <ele>91.992</ele>
        <time>2018-08-22T14:16:38.666Z</time>
      </trkpt>
      <trkpt lat="48.1434451" lon="-2.2062585">
        <ele>92.126</ele>
        <time>2018-08-22T14:16:42.553Z</time>
      </trkpt>
      <trkpt lat="48.1434117" lon="-2.2063985">
        <ele>92.080</ele>
        <time>2018-08-22T14:16:45.796Z</time>
      </trkpt>
      <trkpt lat="48.1433721" lon="-2.2065434">
        <ele>91.916</ele>
        <time>2018-08-22T14:16:48.950Z</time>
      </trkpt>
      <trkpt lat="48.1433380" lon="-2.2066951">
        <ele>91.707</ele>
        <time>2018-08-22T14:16:52.005Z</time>
      </trkpt>
      <trkpt lat="48.1432961" lon="-2.2068632">
        <ele>91.521</ele>
        <time>2018-08-22T14:16:55.236Z</time>
      </trkpt>
      <trkpt lat="48.1432507" lon="-2.2070394">
        <ele>91.400</ele>
        <time>2018-08-22T14:16:58.374Z</time>
      </trkpt>
      <trkpt lat="48.1432034" lon="-2.2072217">
        <ele>91.340</ele>
        <time>2018-08-22T14:17:01.446Z</time>
      </trkpt>
      <trkpt lat="48.1431555" lon="-2.2073933">
        <ele>91.377</ele>
        <time>2018-08-22T14:17:04.363Z</time>
      </trkpt>
      <trkpt lat="48.1431190" lon="-2.2075548">
        <ele>91.537</ele>
        <time>2018-08-22T14:17:07.129Z</time>
      </trkpt>
      <trkpt lat="48.1430781" lon="-2.2077229">
        <ele>91.744</ele>
        <time>2018-08-22T14:17:10.006Z</time>
      </trkpt>
      <trkpt lat="48.1430310" lon="-2.2079184">
        <ele>91.831</ele>
        <time>2018-08-22T14:17:13.179Z</time>
      </trkpt>
      <trkpt lat="48.1429760" lon="-2.2081113">
        <ele>91.743</ele>
        <time>2018-08-22T14:17:16.274Z</time>
      </trkpt>
      <trkpt lat="48.1429402" lon="-2.2082823">
        <ele>91.647</ele>
        <time>2018-08-22T14:17:19.015Z</time>
      </trkpt>
      <trkpt lat="48.1429287" lon="-2.2084270">
        <ele>91.686</ele>
        <time>2018-08-22T14:17:21.464Z</time>
      </trkpt>
      <trkpt lat="48.1429249" lon="-2.2086177">
        <ele>91.719</ele>
        <time>2018-08-22T14:17:25.024Z</time>
      </trkpt>
      <trkpt lat="48.1429381" lon="-2.2087803">
        <ele>91.595</ele>
        <time>2018-08-22T14:17:28.196Z</time>
      </trkpt>
      <trkpt lat="48.1428438" lon="-2.2087314">
        <ele>91.403</ele>
        <time>2018-08-22T14:17:31.196Z</time>
      </trkpt>
      <trkpt lat="48.1428753" lon="-2.2085644">
        <ele>91.363</ele>
        <time>2018-08-22T14:17:34.900Z</time>
      </trkpt>
      <trkpt lat="48.1429102" lon="-2.2084294">
        <ele>91.536</ele>
        <time>2018-08-22T14:17:38.049Z</time>
      </trkpt>
      <trkpt lat="48.1429162" lon="-2.2082922">
        <ele>91.757</ele>
        <time>2018-08-22T14:17:41.120Z</time>
      </trkpt>
      <trkpt lat="48.1429223" lon="-2.2081368">
        <ele>91.774</ele>
        <time>2018-08-22T14:17:44.563Z</time>
      </trkpt>
      <trkpt lat="48.1429211" lon="-2.2079760">
        <ele>91.481</ele>
        <time>2018-08-22T14:17:48.002Z</time>
      </trkpt>
      <trkpt lat="48.1430077" lon="-2.2080122">
        <ele>91.043</ele>
        <time>2018-08-22T14:17:50.929Z</time>
      </trkpt>
      <trkpt lat="48.1429678" lon="-2.2081664">
        <ele>90.765</ele>
        <time>2018-08-22T14:17:55.230Z</time>
      </trkpt>
      <trkpt lat="48.1429309" lon="-2.2083205">
        <ele>90.797</ele>
        <time>2018-08-22T14:18:00.168Z</time>
      </trkpt>
      <trkpt lat="48.1429221" lon="-2.2084586">
        <ele>91.052</ele>
        <time>2018-08-22T14:18:03.456Z</time>
      </trkpt>
      <trkpt lat="48.1429111" lon="-2.2086207">
        <ele>91.305</ele>
        <time>2018-08-22T14:18:06.993Z</time>
      </trkpt>
      <trkpt lat="48.1427913" lon="-2.2087483">
        <ele>91.408</ele>
        <time>2018-08-22T14:18:11.302Z</time>
      </trkpt>
      <trkpt lat="48.1426312" lon="-2.2086973">
        <ele>91.331</ele>
        <time>2018-08-22T14:18:15.487Z</time>
      </trkpt>
      <trkpt lat="48.1424770" lon="-2.2086176">
        <ele>91.067</ele>
        <time>2018-08-22T14:18:19.171Z</time>
      </trkpt>
      <trkpt lat="48.1423027" lon="-2.2085680">
        <ele>90.600</ele>
        <time>2018-08-22T14:18:22.617Z</time>
      </trkpt>
      <trkpt lat="48.1421222" lon="-2.2085301">
        <ele>89.966</ele>
        <time>2018-08-22T14:18:25.840Z</time>
      </trkpt>
      <trkpt lat="48.1419498" lon="-2.2084988">
        <ele>89.357</ele>
        <time>2018-08-22T14:18:28.783Z</time>
      </trkpt>
      <trkpt lat="48.1417780" lon="-2.2084773">
        <ele>88.903</ele>
        <time>2018-08-22T14:18:31.664Z</time>
      </trkpt>
      <trkpt lat="48.1415971" lon="-2.2085347">
        <ele>88.548</ele>
        <time>2018-08-22T14:18:34.771Z</time>
      </trkpt>
      <trkpt lat="48.1414634" lon="-2.2087250">
        <ele>88.165</ele>
        <time>2018-08-22T14:18:37.971Z</time>
      </trkpt>
      <trkpt lat="48.1413817" lon="-2.2089383">
        <ele>87.741</ele>
        <time>2018-08-22T14:18:40.943Z</time>
      </trkpt>
      <trkpt lat="48.1413124" lon="-2.2091517">
        <ele>87.416</ele>
        <time>2018-08-22T14:18:43.883Z</time>
      </trkpt>
      <trkpt lat="48.1412473" lon="-2.2093533">
        <ele>87.319</ele>
        <time>2018-08-22T14:18:46.695Z</time>
      </trkpt>
      <trkpt lat="48.1411786" lon="-2.2095439">
        <ele>87.391</ele>
        <time>2018-08-22T14:18:49.480Z</time>
      </trkpt>
      <trkpt lat="48.1411176" lon="-2.2097432">
        <ele>87.574</ele>
        <time>2018-08-22T14:18:52.361Z</time>
      </trkpt>
      <trkpt lat="48.1410433" lon="-2.2099523">
        <ele>87.557</ele>
        <time>2018-08-22T14:18:55.501Z</time>
      </trkpt>
      <trkpt lat="48.1409842" lon="-2.2101394">
        <ele>87.494</ele>
        <time>2018-08-22T14:18:58.277Z</time>
      </trkpt>
      <trkpt lat="48.1409147" lon="-2.2103454">
        <ele>87.484</ele>
        <time>2018-08-22T14:19:01.407Z</time>
      </trkpt>
      <trkpt lat="48.1408557" lon="-2.2105408">
        <ele>87.592</ele>
        <time>2018-08-22T14:19:04.321Z</time>
      </trkpt>
      <trkpt lat="48.1407909" lon="-2.2107262">
        <ele>87.801</ele>
        <time>2018-08-22T14:19:07.179Z</time>
      </trkpt>
      <trkpt lat="48.1407233" lon="-2.2109016">
        <ele>88.044</ele>
        <time>2018-08-22T14:19:09.974Z</time>
      </trkpt>
      <trkpt lat="48.1406450" lon="-2.2110858">
        <ele>88.243</ele>
        <time>2018-08-22T14:19:13.022Z</time>
      </trkpt>
      <trkpt lat="48.1405599" lon="-2.2112595">
        <ele>88.393</ele>
        <time>2018-08-22T14:19:16.044Z</time>
      </trkpt>
      <trkpt lat="48.1404729" lon="-2.2114237">
        <ele>88.535</ele>
        <time>2018-08-22T14:19:18.993Z</time>
      </trkpt>
      <trkpt lat="48.1404729" lon="-2.2114237">
        <ele>88.652</ele>
        <time>2018-08-22T14:19:18.993Z</time>
      </trkpt>
      <trkpt lat="48.1404729" lon="-2.2114237">
        <ele>88.674</ele>
        <time>2018-08-22T14:19:19.000Z</time>
      </trkpt>
      <trkpt lat="48.1403470" lon="-2.2116109">
        <ele>88.621</ele>
        <time>2018-08-22T14:19:25.008Z</time>
      </trkpt>
      <trkpt lat="48.1402570" lon="-2.2117430">
        <ele>88.601</ele>
        <time>2018-08-22T14:19:27.918Z</time>
      </trkpt>
      <trkpt lat="48.1401548" lon="-2.2118657">
        <ele>88.710</ele>
        <time>2018-08-22T14:19:31.020Z</time>
      </trkpt>
      <trkpt lat="48.1400601" lon="-2.2119871">
        <ele>88.938</ele>
        <time>2018-08-22T14:19:34.043Z</time>
      </trkpt>
      <trkpt lat="48.1399657" lon="-2.2121032">
        <ele>89.222</ele>
        <time>2018-08-22T14:19:37.068Z</time>
      </trkpt>
      <trkpt lat="48.1398717" lon="-2.2122185">
        <ele>89.500</ele>
        <time>2018-08-22T14:19:40.126Z</time>
      </trkpt>
      <trkpt lat="48.1397832" lon="-2.2123360">
        <ele>89.688</ele>
        <time>2018-08-22T14:19:43.119Z</time>
      </trkpt>
      <trkpt lat="48.1396919" lon="-2.2124510">
        <ele>89.815</ele>
        <time>2018-08-22T14:19:46.129Z</time>
      </trkpt>
      <trkpt lat="48.1396008" lon="-2.2125691">
        <ele>90.044</ele>
        <time>2018-08-22T14:19:49.158Z</time>
      </trkpt>
      <trkpt lat="48.1395043" lon="-2.2126872">
        <ele>90.402</ele>
        <time>2018-08-22T14:19:52.281Z</time>
      </trkpt>
      <trkpt lat="48.1394137" lon="-2.2128039">
        <ele>90.764</ele>
        <time>2018-08-22T14:19:55.272Z</time>
      </trkpt>
      <trkpt lat="48.1393255" lon="-2.2129101">
        <ele>91.023</ele>
        <time>2018-08-22T14:19:58.098Z</time>
      </trkpt>
      <trkpt lat="48.1392394" lon="-2.2130247">
        <ele>91.140</ele>
        <time>2018-08-22T14:20:00.971Z</time>
      </trkpt>
      <trkpt lat="48.1391543" lon="-2.2131482">
        <ele>91.128</ele>
        <time>2018-08-22T14:20:03.968Z</time>
      </trkpt>
      <trkpt lat="48.1390698" lon="-2.2132589">
        <ele>90.992</ele>
        <time>2018-08-22T14:20:06.849Z</time>
      </trkpt>
      <trkpt lat="48.1389812" lon="-2.2133786">
        <ele>90.763</ele>
        <time>2018-08-22T14:20:09.929Z</time>
      </trkpt>
      <trkpt lat="48.1388935" lon="-2.2134959">
        <ele>90.569</ele>
        <time>2018-08-22T14:20:12.953Z</time>
      </trkpt>
      <trkpt lat="48.1388007" lon="-2.2136110">
        <ele>90.523</ele>
        <time>2018-08-22T14:20:15.966Z</time>
      </trkpt>
      <trkpt lat="48.1387053" lon="-2.2137334">
        <ele>90.614</ele>
        <time>2018-08-22T14:20:18.978Z</time>
      </trkpt>
      <trkpt lat="48.1386057" lon="-2.2138598">
        <ele>90.748</ele>
        <time>2018-08-22T14:20:22.030Z</time>
      </trkpt>
      <trkpt lat="48.1385041" lon="-2.2139818">
        <ele>90.837</ele>
        <time>2018-08-22T14:20:25.075Z</time>
      </trkpt>
      <trkpt lat="48.1384072" lon="-2.2141049">
        <ele>90.771</ele>
        <time>2018-08-22T14:20:28.118Z</time>
      </trkpt>
      <trkpt lat="48.1383184" lon="-2.2142222">
        <ele>90.454</ele>
        <time>2018-08-22T14:20:31.076Z</time>
      </trkpt>
      <trkpt lat="48.1382310" lon="-2.2143296">
        <ele>90.005</ele>
        <time>2018-08-22T14:20:33.989Z</time>
      </trkpt>
      <trkpt lat="48.1381451" lon="-2.2144375">
        <ele>89.671</ele>
        <time>2018-08-22T14:20:36.944Z</time>
      </trkpt>
      <trkpt lat="48.1380620" lon="-2.2145417">
        <ele>89.536</ele>
        <time>2018-08-22T14:20:39.868Z</time>
      </trkpt>
      <trkpt lat="48.1379840" lon="-2.2146489">
        <ele>89.535</ele>
        <time>2018-08-22T14:20:42.691Z</time>
      </trkpt>
      <trkpt lat="48.1378932" lon="-2.2147654">
        <ele>89.510</ele>
        <time>2018-08-22T14:20:45.728Z</time>
      </trkpt>
      <trkpt lat="48.1377988" lon="-2.2148875">
        <ele>89.358</ele>
        <time>2018-08-22T14:20:48.810Z</time>
      </trkpt>
      <trkpt lat="48.1377094" lon="-2.2150059">
        <ele>89.125</ele>
        <time>2018-08-22T14:20:51.749Z</time>
      </trkpt>
      <trkpt lat="48.1376269" lon="-2.2151496">
        <ele>88.915</ele>
        <time>2018-08-22T14:20:54.816Z</time>
      </trkpt>
      <trkpt lat="48.1375573" lon="-2.2153057">
        <ele>88.744</ele>
        <time>2018-08-22T14:20:57.794Z</time>
      </trkpt>
      <trkpt lat="48.1375023" lon="-2.2154865">
        <ele>88.558</ele>
        <time>2018-08-22T14:21:00.912Z</time>
      </trkpt>
      <trkpt lat="48.1374719" lon="-2.2156683">
        <ele>88.348</ele>
        <time>2018-08-22T14:21:03.886Z</time>
      </trkpt>
      <trkpt lat="48.1374645" lon="-2.2158465">
        <ele>88.174</ele>
        <time>2018-08-22T14:21:06.767Z</time>
      </trkpt>
      <trkpt lat="48.1374739" lon="-2.2160244">
        <ele>88.045</ele>
        <time>2018-08-22T14:21:09.692Z</time>
      </trkpt>
      <trkpt lat="48.1374831" lon="-2.2162031">
        <ele>87.942</ele>
        <time>2018-08-22T14:21:12.622Z</time>
      </trkpt>
      <trkpt lat="48.1374887" lon="-2.2163871">
        <ele>87.922</ele>
        <time>2018-08-22T14:21:15.610Z</time>
      </trkpt>
      <trkpt lat="48.1374859" lon="-2.2165672">
        <ele>88.068</ele>
        <time>2018-08-22T14:21:18.551Z</time>
      </trkpt>
      <trkpt lat="48.1374928" lon="-2.2167449">
        <ele>88.354</ele>
        <time>2018-08-22T14:21:21.512Z</time>
      </trkpt>
      <trkpt lat="48.1375011" lon="-2.2169178">
        <ele>88.709</ele>
        <time>2018-08-22T14:21:24.444Z</time>
      </trkpt>
      <trkpt lat="48.1375021" lon="-2.2170931">
        <ele>89.146</ele>
        <time>2018-08-22T14:21:27.426Z</time>
      </trkpt>
      <trkpt lat="48.1374898" lon="-2.2172726">
        <ele>89.714</ele>
        <time>2018-08-22T14:21:30.500Z</time>
      </trkpt>
      <trkpt lat="48.1374515" lon="-2.2174390">
        <ele>90.307</ele>
        <time>2018-08-22T14:21:33.527Z</time>
      </trkpt>
      <trkpt lat="48.1373804" lon="-2.2175809">
        <ele>90.708</ele>
        <time>2018-08-22T14:21:36.545Z</time>
      </trkpt>
      <trkpt lat="48.1372837" lon="-2.2177083">
        <ele>90.822</ele>
        <time>2018-08-22T14:21:39.651Z</time>
      </trkpt>
      <trkpt lat="48.1371516" lon="-2.2177984">
        <ele>90.699</ele>
        <time>2018-08-22T14:21:42.883Z</time>
      </trkpt>
      <trkpt lat="48.1370198" lon="-2.2178777">
        <ele>90.396</ele>
        <time>2018-08-22T14:21:45.858Z</time>
      </trkpt>
      <trkpt lat="48.1368867" lon="-2.2179778">
        <ele>89.964</ele>
        <time>2018-08-22T14:21:48.842Z</time>
      </trkpt>
      <trkpt lat="48.1367432" lon="-2.2180736">
        <ele>89.535</ele>
        <time>2018-08-22T14:21:51.876Z</time>
      </trkpt>
      <trkpt lat="48.1365988" lon="-2.2181887">
        <ele>89.221</ele>
        <time>2018-08-22T14:21:54.905Z</time>
      </trkpt>
      <trkpt lat="48.1364466" lon="-2.2182988">
        <ele>88.896</ele>
        <time>2018-08-22T14:21:57.879Z</time>
      </trkpt>
      <trkpt lat="48.1362814" lon="-2.2184072">
        <ele>88.381</ele>
        <time>2018-08-22T14:22:00.906Z</time>
      </trkpt>
      <trkpt lat="48.1361136" lon="-2.2185353">
        <ele>87.654</ele>
        <time>2018-08-22T14:22:03.986Z</time>
      </trkpt>
      <trkpt lat="48.1359467" lon="-2.2186625">
        <ele>86.806</ele>
        <time>2018-08-22T14:22:07.079Z</time>
      </trkpt>
      <trkpt lat="48.1357974" lon="-2.2187966">
        <ele>85.971</ele>
        <time>2018-08-22T14:22:10.054Z</time>
      </trkpt>
      <trkpt lat="48.1356674" lon="-2.2189744">
        <ele>85.251</ele>
        <time>2018-08-22T14:22:13.157Z</time>
      </trkpt>
      <trkpt lat="48.1355629" lon="-2.2191671">
        <ele>84.632</ele>
        <time>2018-08-22T14:22:16.209Z</time>
      </trkpt>
      <trkpt lat="48.1355004" lon="-2.2193781">
        <ele>84.128</ele>
        <time>2018-08-22T14:22:19.231Z</time>
      </trkpt>
      <trkpt lat="48.1354466" lon="-2.2195794">
        <ele>83.825</ele>
        <time>2018-08-22T14:22:22.257Z</time>
      </trkpt>
      <trkpt lat="48.1353956" lon="-2.2197693">
        <ele>83.807</ele>
        <time>2018-08-22T14:22:25.260Z</time>
      </trkpt>
      <trkpt lat="48.1353545" lon="-2.2199528">
        <ele>84.032</ele>
        <time>2018-08-22T14:22:28.160Z</time>
      </trkpt>
      <trkpt lat="48.1353002" lon="-2.2201377">
        <ele>84.325</ele>
        <time>2018-08-22T14:22:31.241Z</time>
      </trkpt>
      <trkpt lat="48.1352424" lon="-2.2203074">
        <ele>84.541</ele>
        <time>2018-08-22T14:22:34.288Z</time>
      </trkpt>
      <trkpt lat="48.1352032" lon="-2.2204756">
        <ele>84.665</ele>
        <time>2018-08-22T14:22:37.454Z</time>
      </trkpt>
      <trkpt lat="48.1351678" lon="-2.2206148">
        <ele>84.748</ele>
        <time>2018-08-22T14:22:40.729Z</time>
      </trkpt>
      <trkpt lat="48.1351266" lon="-2.2207515">
        <ele>84.822</ele>
        <time>2018-08-22T14:22:45.154Z</time>
      </trkpt>
      <trkpt lat="48.1350812" lon="-2.2208774">
        <ele>84.856</ele>
        <time>2018-08-22T14:22:51.030Z</time>
      </trkpt>
      <trkpt lat="48.1351299" lon="-2.2209940">
        <ele>84.696</ele>
        <time>2018-08-22T14:22:58.230Z</time>
      </trkpt>
      <trkpt lat="48.1350392" lon="-2.2209577">
        <ele>84.285</ele>
        <time>2018-08-22T14:23:04.851Z</time>
      </trkpt>
      <trkpt lat="48.1350478" lon="-2.2208040">
        <ele>83.867</ele>
        <time>2018-08-22T14:23:10.559Z</time>
      </trkpt>
      <trkpt lat="48.1350937" lon="-2.2206576">
        <ele>83.671</ele>
        <time>2018-08-22T14:23:15.770Z</time>
      </trkpt>
      <trkpt lat="48.1351415" lon="-2.2205337">
        <ele>83.647</ele>
        <time>2018-08-22T14:23:20.881Z</time>
      </trkpt>
      <trkpt lat="48.1351325" lon="-2.2207127">
        <ele>83.688</ele>
        <time>2018-08-22T14:23:29.064Z</time>
      </trkpt>
      <trkpt lat="48.1350845" lon="-2.2208697">
        <ele>83.754</ele>
        <time>2018-08-22T14:23:35.996Z</time>
      </trkpt>
      <trkpt lat="48.1350845" lon="-2.2208697">
        <ele>83.814</ele>
        <time>2018-08-22T14:23:36.995Z</time>
      </trkpt>
      <trkpt lat="48.1350845" lon="-2.2208697">
        <ele>83.811</ele>
        <time>2018-08-22T14:23:37.095Z</time>
      </trkpt>
      <trkpt lat="48.1350278" lon="-2.2211185">
        <ele>83.752</ele>
        <time>2018-08-22T14:23:44.027Z</time>
      </trkpt>
      <trkpt lat="48.1349471" lon="-2.2212030">
        <ele>83.645</ele>
        <time>2018-08-22T14:23:46.956Z</time>
      </trkpt>
      <trkpt lat="48.1348479" lon="-2.2212271">
        <ele>83.485</ele>
        <time>2018-08-22T14:23:50.033Z</time>
      </trkpt>
      <trkpt lat="48.1347549" lon="-2.2212475">
        <ele>83.355</ele>
        <time>2018-08-22T14:23:52.871Z</time>
      </trkpt>
      <trkpt lat="48.1346578" lon="-2.2212753">
        <ele>83.318</ele>
        <time>2018-08-22T14:23:55.751Z</time>
      </trkpt>
      <trkpt lat="48.1345574" lon="-2.2213015">
        <ele>83.310</ele>
        <time>2018-08-22T14:23:58.581Z</time>
      </trkpt>
      <trkpt lat="48.1344486" lon="-2.2213348">
        <ele>83.259</ele>
        <time>2018-08-22T14:24:01.534Z</time>
      </trkpt>
      <trkpt lat="48.1343428" lon="-2.2213741">
        <ele>83.164</ele>
        <time>2018-08-22T14:24:04.406Z</time>
      </trkpt>
      <trkpt lat="48.1342369" lon="-2.2214087">
        <ele>83.019</ele>
        <time>2018-08-22T14:24:07.271Z</time>
      </trkpt>
      <trkpt lat="48.1341290" lon="-2.2214385">
        <ele>82.827</ele>
        <time>2018-08-22T14:24:10.201Z</time>
      </trkpt>
      <trkpt lat="48.1340254" lon="-2.2214703">
        <ele>82.729</ele>
        <time>2018-08-22T14:24:13.052Z</time>
      </trkpt>
      <trkpt lat="48.1339218" lon="-2.2215039">
        <ele>82.813</ele>
        <time>2018-08-22T14:24:15.894Z</time>
      </trkpt>
      <trkpt lat="48.1338143" lon="-2.2215389">
        <ele>82.924</ele>
        <time>2018-08-22T14:24:18.837Z</time>
      </trkpt>
      <trkpt lat="48.1337186" lon="-2.2215767">
        <ele>82.913</ele>
        <time>2018-08-22T14:24:21.512Z</time>
      </trkpt>
      <trkpt lat="48.1336142" lon="-2.2216132">
        <ele>82.866</ele>
        <time>2018-08-22T14:24:24.419Z</time>
      </trkpt>
      <trkpt lat="48.1335025" lon="-2.2216517">
        <ele>82.967</ele>
        <time>2018-08-22T14:24:27.477Z</time>
      </trkpt>
      <trkpt lat="48.1333942" lon="-2.2216915">
        <ele>83.230</ele>
        <time>2018-08-22T14:24:30.420Z</time>
      </trkpt>
      <trkpt lat="48.1332962" lon="-2.2217250">
        <ele>83.419</ele>
        <time>2018-08-22T14:24:33.109Z</time>
      </trkpt>
      <trkpt lat="48.1331943" lon="-2.2217602">
        <ele>83.378</ele>
        <time>2018-08-22T14:24:35.954Z</time>
      </trkpt>
      <trkpt lat="48.1330818" lon="-2.2217907">
        <ele>83.248</ele>
        <time>2018-08-22T14:24:39.025Z</time>
      </trkpt>
      <trkpt lat="48.1329679" lon="-2.2218090">
        <ele>83.195</ele>
        <time>2018-08-22T14:24:42.025Z</time>
      </trkpt>
      <trkpt lat="48.1328551" lon="-2.2218339">
        <ele>83.236</ele>
        <time>2018-08-22T14:24:44.944Z</time>
      </trkpt>
      <trkpt lat="48.1327325" lon="-2.2218551">
        <ele>83.321</ele>
        <time>2018-08-22T14:24:48.011Z</time>
      </trkpt>
      <trkpt lat="48.1326083" lon="-2.2218658">
        <ele>83.290</ele>
        <time>2018-08-22T14:24:51.008Z</time>
      </trkpt>
      <trkpt lat="48.1324785" lon="-2.2218726">
        <ele>82.927</ele>
        <time>2018-08-22T14:24:54.055Z</time>
      </trkpt>
      <trkpt lat="48.1323423" lon="-2.2218665">
        <ele>82.197</ele>
        <time>2018-08-22T14:24:57.125Z</time>
      </trkpt>
      <trkpt lat="48.1322054" lon="-2.2218539">
        <ele>81.328</ele>
        <time>2018-08-22T14:25:00.072Z</time>
      </trkpt>
      <trkpt lat="48.1320567" lon="-2.2218433">
        <ele>80.496</ele>
        <time>2018-08-22T14:25:03.128Z</time>
      </trkpt>
      <trkpt lat="48.1318977" lon="-2.2218354">
        <ele>79.628</ele>
        <time>2018-08-22T14:25:06.255Z</time>
      </trkpt>
      <trkpt lat="48.1317564" lon="-2.2218609">
        <ele>78.740</ele>
        <time>2018-08-22T14:25:09.033Z</time>
      </trkpt>
      <trkpt lat="48.1316464" lon="-2.2218868">
        <ele>78.075</ele>
        <time>2018-08-22T14:25:11.315Z</time>
      </trkpt>
      <trkpt lat="48.1315684" lon="-2.2220008">
        <ele>77.704</ele>
        <time>2018-08-22T14:25:13.955Z</time>
      </trkpt>
      <trkpt lat="48.1315807" lon="-2.2221518">
        <ele>77.346</ele>
        <time>2018-08-22T14:25:16.871Z</time>
      </trkpt>
      <trkpt lat="48.1316260" lon="-2.2223201">
        <ele>76.785</ele>
        <time>2018-08-22T14:25:20.993Z</time>
      </trkpt>
      <trkpt lat="48.1316260" lon="-2.2223201">
        <ele>76.193</ele>
        <time>2018-08-22T14:25:20.993Z</time>
      </trkpt>
      <trkpt lat="48.1316260" lon="-2.2223201">
        <ele>75.881</ele>
        <time>2018-08-22T14:25:24.629Z</time>
      </trkpt>
      <trkpt lat="48.1316349" lon="-2.2225913">
        <ele>75.878</ele>
        <time>2018-08-22T14:25:42.430Z</time>
      </trkpt>
      <trkpt lat="48.1315162" lon="-2.2226334">
        <ele>75.950</ele>
        <time>2018-08-22T14:25:45.744Z</time>
      </trkpt>
      <trkpt lat="48.1314173" lon="-2.2226788">
        <ele>75.917</ele>
        <time>2018-08-22T14:25:48.418Z</time>
      </trkpt>
      <trkpt lat="48.1312981" lon="-2.2227320">
        <ele>75.823</ele>
        <time>2018-08-22T14:25:51.460Z</time>
      </trkpt>
      <trkpt lat="48.1311726" lon="-2.2227595">
        <ele>75.720</ele>
        <time>2018-08-22T14:25:54.462Z</time>
      </trkpt>
      <trkpt lat="48.1310500" lon="-2.2227377">
        <ele>75.525</ele>
        <time>2018-08-22T14:25:57.161Z</time>
      </trkpt>
      <trkpt lat="48.1309027" lon="-2.2226786">
        <ele>75.190</ele>
        <time>2018-08-22T14:26:00.164Z</time>
      </trkpt>
      <trkpt lat="48.1307199" lon="-2.2226291">
        <ele>74.745</ele>
        <time>2018-08-22T14:26:03.547Z</time>
      </trkpt>
      <trkpt lat="48.1305690" lon="-2.2226065">
        <ele>74.232</ele>
        <time>2018-08-22T14:26:06.110Z</time>
      </trkpt>
      <trkpt lat="48.1303826" lon="-2.2225625">
        <ele>73.665</ele>
        <time>2018-08-22T14:26:09.064Z</time>
      </trkpt>
      <trkpt lat="48.1301954" lon="-2.2225208">
        <ele>72.970</ele>
        <time>2018-08-22T14:26:11.943Z</time>
      </trkpt>
      <trkpt lat="48.1300123" lon="-2.2225042">
        <ele>72.092</ele>
        <time>2018-08-22T14:26:14.561Z</time>
      </trkpt>
      <trkpt lat="48.1297905" lon="-2.2225502">
        <ele>71.087</ele>
        <time>2018-08-22T14:26:17.501Z</time>
      </trkpt>
      <trkpt lat="48.1295711" lon="-2.2226785">
        <ele>69.987</ele>
        <time>2018-08-22T14:26:20.342Z</time>
      </trkpt>
      <trkpt lat="48.1293277" lon="-2.2228184">
        <ele>68.745</ele>
        <time>2018-08-22T14:26:23.240Z</time>
      </trkpt>
      <trkpt lat="48.1290659" lon="-2.2229851">
        <ele>67.372</ele>
        <time>2018-08-22T14:26:26.331Z</time>
      </trkpt>
      <trkpt lat="48.1288270" lon="-2.2231279">
        <ele>65.983</ele>
        <time>2018-08-22T14:26:29.230Z</time>
      </trkpt>
      <trkpt lat="48.1285888" lon="-2.2232652">
        <ele>64.676</ele>
        <time>2018-08-22T14:26:32.239Z</time>
      </trkpt>
      <trkpt lat="48.1283581" lon="-2.2233767">
        <ele>63.447</ele>
        <time>2018-08-22T14:26:35.282Z</time>
      </trkpt>
      <trkpt lat="48.1281422" lon="-2.2234539">
        <ele>62.350</ele>
        <time>2018-08-22T14:26:38.254Z</time>
      </trkpt>
      <trkpt lat="48.1279329" lon="-2.2235045">
        <ele>61.490</ele>
        <time>2018-08-22T14:26:41.206Z</time>
      </trkpt>
      <trkpt lat="48.1277235" lon="-2.2235346">
        <ele>60.917</ele>
        <time>2018-08-22T14:26:44.240Z</time>
      </trkpt>
      <trkpt lat="48.1275265" lon="-2.2235695">
        <ele>60.556</ele>
        <time>2018-08-22T14:26:47.243Z</time>
      </trkpt>
      <trkpt lat="48.1273447" lon="-2.2236027">
        <ele>60.266</ele>
        <time>2018-08-22T14:26:50.132Z</time>
      </trkpt>
      <trkpt lat="48.1271662" lon="-2.2236252">
        <ele>60.016</ele>
        <time>2018-08-22T14:26:53.050Z</time>
      </trkpt>
      <trkpt lat="48.1269852" lon="-2.2236531">
        <ele>59.871</ele>
        <time>2018-08-22T14:26:56.157Z</time>
      </trkpt>
      <trkpt lat="48.1268142" lon="-2.2236700">
        <ele>59.790</ele>
        <time>2018-08-22T14:26:59.310Z</time>
      </trkpt>
      <trkpt lat="48.1266624" lon="-2.2236733">
        <ele>59.470</ele>
        <time>2018-08-22T14:27:02.383Z</time>
      </trkpt>
      <trkpt lat="48.1265302" lon="-2.2237179">
        <ele>58.700</ele>
        <time>2018-08-22T14:27:05.353Z</time>
      </trkpt>
      <trkpt lat="48.1264012" lon="-2.2237301">
        <ele>57.794</ele>
        <time>2018-08-22T14:27:08.249Z</time>
      </trkpt>
      <trkpt lat="48.1262705" lon="-2.2237532">
        <ele>57.193</ele>
        <time>2018-08-22T14:27:11.193Z</time>
      </trkpt>
      <trkpt lat="48.1261375" lon="-2.2237491">
        <ele>57.019</ele>
        <time>2018-08-22T14:27:14.191Z</time>
      </trkpt>
      <trkpt lat="48.1260097" lon="-2.2237353">
        <ele>57.150</ele>
        <time>2018-08-22T14:27:17.125Z</time>
      </trkpt>
      <trkpt lat="48.1258795" lon="-2.2237273">
        <ele>57.330</ele>
        <time>2018-08-22T14:27:20.161Z</time>
      </trkpt>
      <trkpt lat="48.1257560" lon="-2.2236920">
        <ele>57.400</ele>
        <time>2018-08-22T14:27:23.096Z</time>
      </trkpt>
      <trkpt lat="48.1256298" lon="-2.2236583">
        <ele>57.469</ele>
        <time>2018-08-22T14:27:26.015Z</time>
      </trkpt>
      <trkpt lat="48.1255341" lon="-2.2236480">
        <ele>57.657</ele>
        <time>2018-08-22T14:27:28.129Z</time>
      </trkpt>
      <trkpt lat="48.1254406" lon="-2.2236379">
        <ele>57.868</ele>
        <time>2018-08-22T14:27:30.218Z</time>
      </trkpt>
      <trkpt lat="48.1253120" lon="-2.2236457">
        <ele>57.976</ele>
        <time>2018-08-22T14:27:33.175Z</time>
      </trkpt>
      <trkpt lat="48.1251892" lon="-2.2236477">
        <ele>57.995</ele>
        <time>2018-08-22T14:27:36.242Z</time>
      </trkpt>
      <trkpt lat="48.1250775" lon="-2.2236416">
        <ele>58.010</ele>
        <time>2018-08-22T14:27:39.504Z</time>
      </trkpt>
      <trkpt lat="48.1249871" lon="-2.2236255">
        <ele>58.102</ele>
        <time>2018-08-22T14:27:42.633Z</time>
      </trkpt>
      <trkpt lat="48.1248845" lon="-2.2235839">
        <ele>58.335</ele>
        <time>2018-08-22T14:27:46.461Z</time>
      </trkpt>
      <trkpt lat="48.1247814" lon="-2.2235358">
        <ele>58.832</ele>
        <time>2018-08-22T14:27:50.351Z</time>
      </trkpt>
      <trkpt lat="48.1246795" lon="-2.2234861">
        <ele>59.620</ele>
        <time>2018-08-22T14:27:54.040Z</time>
      </trkpt>
      <trkpt lat="48.1245614" lon="-2.2235135">
        <ele>60.408</ele>
        <time>2018-08-22T14:27:57.918Z</time>
      </trkpt>
      <trkpt lat="48.1244759" lon="-2.2235877">
        <ele>60.838</ele>
        <time>2018-08-22T14:28:00.999Z</time>
      </trkpt>
      <trkpt lat="48.1243954" lon="-2.2236711">
        <ele>60.877</ele>
        <time>2018-08-22T14:28:03.990Z</time>
      </trkpt>
      <trkpt lat="48.1243183" lon="-2.2237634">
        <ele>60.779</ele>
        <time>2018-08-22T14:28:06.939Z</time>
      </trkpt>
      <trkpt lat="48.1242366" lon="-2.2238495">
        <ele>60.744</ele>
        <time>2018-08-22T14:28:09.856Z</time>
      </trkpt>
      <trkpt lat="48.1241408" lon="-2.2239061">
        <ele>60.778</ele>
        <time>2018-08-22T14:28:12.837Z</time>
      </trkpt>
      <trkpt lat="48.1240399" lon="-2.2239257">
        <ele>60.787</ele>
        <time>2018-08-22T14:28:15.774Z</time>
      </trkpt>
      <trkpt lat="48.1239385" lon="-2.2239522">
        <ele>60.728</ele>
        <time>2018-08-22T14:28:18.774Z</time>
      </trkpt>
      <trkpt lat="48.1238371" lon="-2.2239702">
        <ele>60.691</ele>
        <time>2018-08-22T14:28:21.788Z</time>
      </trkpt>
      <trkpt lat="48.1237354" lon="-2.2239954">
        <ele>60.757</ele>
        <time>2018-08-22T14:28:24.865Z</time>
      </trkpt>
      <trkpt lat="48.1236401" lon="-2.2240197">
        <ele>60.894</ele>
        <time>2018-08-22T14:28:27.798Z</time>
      </trkpt>
      <trkpt lat="48.1235463" lon="-2.2240383">
        <ele>61.052</ele>
        <time>2018-08-22T14:28:30.685Z</time>
      </trkpt>
      <trkpt lat="48.1234505" lon="-2.2240616">
        <ele>61.244</ele>
        <time>2018-08-22T14:28:33.643Z</time>
      </trkpt>
      <trkpt lat="48.1233539" lon="-2.2240727">
        <ele>61.480</ele>
        <time>2018-08-22T14:28:36.579Z</time>
      </trkpt>
      <trkpt lat="48.1232555" lon="-2.2240778">
        <ele>61.747</ele>
        <time>2018-08-22T14:28:39.552Z</time>
      </trkpt>
      <trkpt lat="48.1231559" lon="-2.2240700">
        <ele>61.990</ele>
        <time>2018-08-22T14:28:42.595Z</time>
      </trkpt>
      <trkpt lat="48.1230623" lon="-2.2240485">
        <ele>62.144</ele>
        <time>2018-08-22T14:28:45.607Z</time>
      </trkpt>
      <trkpt lat="48.1229489" lon="-2.2240069">
        <ele>62.210</ele>
        <time>2018-08-22T14:28:49.507Z</time>
      </trkpt>
      <trkpt lat="48.1228470" lon="-2.2239630">
        <ele>62.423</ele>
        <time>2018-08-22T14:28:53.248Z</time>
      </trkpt>
      <trkpt lat="48.1227511" lon="-2.2239012">
        <ele>63.000</ele>
        <time>2018-08-22T14:28:57.055Z</time>
      </trkpt>
      <trkpt lat="48.1226566" lon="-2.2238379">
        <ele>63.819</ele>
        <time>2018-08-22T14:29:00.876Z</time>
      </trkpt>
      <trkpt lat="48.1225554" lon="-2.2237835">
        <ele>64.587</ele>
        <time>2018-08-22T14:29:04.832Z</time>
      </trkpt>
      <trkpt lat="48.1224528" lon="-2.2237342">
        <ele>65.236</ele>
        <time>2018-08-22T14:29:08.770Z</time>
      </trkpt>
      <trkpt lat="48.1223547" lon="-2.2236804">
        <ele>65.931</ele>
        <time>2018-08-22T14:29:12.594Z</time>
      </trkpt>
      <trkpt lat="48.1222540" lon="-2.2236384">
        <ele>66.775</ele>
        <time>2018-08-22T14:29:16.474Z</time>
      </trkpt>
      <trkpt lat="48.1221485" lon="-2.2236208">
        <ele>67.698</ele>
        <time>2018-08-22T14:29:20.457Z</time>
      </trkpt>
      <trkpt lat="48.1220428" lon="-2.2236284">
        <ele>68.604</ele>
        <time>2018-08-22T14:29:24.440Z</time>
      </trkpt>
      <trkpt lat="48.1219341" lon="-2.2236488">
        <ele>69.368</ele>
        <time>2018-08-22T14:29:28.510Z</time>
      </trkpt>
      <trkpt lat="48.1218257" lon="-2.2236763">
        <ele>69.915</ele>
        <time>2018-08-22T14:29:32.510Z</time>
      </trkpt>
      <trkpt lat="48.1217175" lon="-2.2237146">
        <ele>70.422</ele>
        <time>2018-08-22T14:29:36.490Z</time>
      </trkpt>
      <trkpt lat="48.1216127" lon="-2.2237503">
        <ele>71.055</ele>
        <time>2018-08-22T14:29:40.345Z</time>
      </trkpt>
      <trkpt lat="48.1215116" lon="-2.2237788">
        <ele>71.817</ele>
        <time>2018-08-22T14:29:44.119Z</time>
      </trkpt>
      <trkpt lat="48.1214119" lon="-2.2238021">
        <ele>72.660</ele>
        <time>2018-08-22T14:29:47.944Z</time>
      </trkpt>
      <trkpt lat="48.1213124" lon="-2.2238438">
        <ele>73.476</ele>
        <time>2018-08-22T14:29:51.925Z</time>
      </trkpt>
      <trkpt lat="48.1212082" lon="-2.2238780">
        <ele>74.168</ele>
        <time>2018-08-22T14:29:55.976Z</time>
      </trkpt>
      <trkpt lat="48.1211050" lon="-2.2239170">
        <ele>74.736</ele>
        <time>2018-08-22T14:29:59.944Z</time>
      </trkpt>
      <trkpt lat="48.1209987" lon="-2.2239373">
        <ele>75.159</ele>
        <time>2018-08-22T14:30:03.892Z</time>
      </trkpt>
      <trkpt lat="48.1208903" lon="-2.2239798">
        <ele>75.467</ele>
        <time>2018-08-22T14:30:07.932Z</time>
      </trkpt>
      <trkpt lat="48.1207848" lon="-2.2240158">
        <ele>75.749</ele>
        <time>2018-08-22T14:30:11.815Z</time>
      </trkpt>
      <trkpt lat="48.1206797" lon="-2.2240603">
        <ele>76.019</ele>
        <time>2018-08-22T14:30:15.755Z</time>
      </trkpt>
      <trkpt lat="48.1205616" lon="-2.2240933">
        <ele>76.239</ele>
        <time>2018-08-22T14:30:19.996Z</time>
      </trkpt>
      <trkpt lat="48.1205616" lon="-2.2240933">
        <ele>76.399</ele>
        <time>2018-08-22T14:30:34.995Z</time>
      </trkpt>
      <trkpt lat="48.1205616" lon="-2.2240933">
        <ele>76.465</ele>
        <time>2018-08-22T14:40:27.464Z</time>
      </trkpt>
      <trkpt lat="48.1203400" lon="-2.2241763">
        <ele>76.426</ele>
        <time>2018-08-22T14:40:42.502Z</time>
      </trkpt>
      <trkpt lat="48.1202337" lon="-2.2242311">
        <ele>76.353</ele>
        <time>2018-08-22T14:40:46.246Z</time>
      </trkpt>
      <trkpt lat="48.1201384" lon="-2.2242751">
        <ele>76.296</ele>
        <time>2018-08-22T14:40:49.318Z</time>
      </trkpt>
      <trkpt lat="48.1200451" lon="-2.2243226">
        <ele>76.238</ele>
        <time>2018-08-22T14:40:52.182Z</time>
      </trkpt>
      <trkpt lat="48.1199458" lon="-2.2243784">
        <ele>76.176</ele>
        <time>2018-08-22T14:40:55.071Z</time>
      </trkpt>
      <trkpt lat="48.1198371" lon="-2.2244440">
        <ele>76.147</ele>
        <time>2018-08-22T14:40:58.137Z</time>
      </trkpt>
      <trkpt lat="48.1197327" lon="-2.2245035">
        <ele>76.198</ele>
        <time>2018-08-22T14:41:00.993Z</time>
      </trkpt>
      <trkpt lat="48.1196290" lon="-2.2245799">
        <ele>76.322</ele>
        <time>2018-08-22T14:41:03.836Z</time>
      </trkpt>
      <trkpt lat="48.1195212" lon="-2.2246624">
        <ele>76.418</ele>
        <time>2018-08-22T14:41:06.683Z</time>
      </trkpt>
      <trkpt lat="48.1194084" lon="-2.2247544">
        <ele>76.386</ele>
        <time>2018-08-22T14:41:09.615Z</time>
      </trkpt>
      <trkpt lat="48.1192964" lon="-2.2248546">
        <ele>76.243</ele>
        <time>2018-08-22T14:41:12.581Z</time>
      </trkpt>
      <trkpt lat="48.1191816" lon="-2.2249531">
        <ele>76.079</ele>
        <time>2018-08-22T14:41:15.691Z</time>
      </trkpt>
      <trkpt lat="48.1190767" lon="-2.2250458">
        <ele>75.961</ele>
        <time>2018-08-22T14:41:18.637Z</time>
      </trkpt>
      <trkpt lat="48.1189720" lon="-2.2251310">
        <ele>75.903</ele>
        <time>2018-08-22T14:41:21.469Z</time>
      </trkpt>
      <trkpt lat="48.1188599" lon="-2.2252231">
        <ele>75.923</ele>
        <time>2018-08-22T14:41:24.379Z</time>
      </trkpt>
      <trkpt lat="48.1187431" lon="-2.2253222">
        <ele>76.071</ele>
        <time>2018-08-22T14:41:27.384Z</time>
      </trkpt>
      <trkpt lat="48.1186290" lon="-2.2254192">
        <ele>76.313</ele>
        <time>2018-08-22T14:41:30.414Z</time>
      </trkpt>
      <trkpt lat="48.1185217" lon="-2.2255114">
        <ele>76.484</ele>
        <time>2018-08-22T14:41:33.347Z</time>
      </trkpt>
      <trkpt lat="48.1184149" lon="-2.2255959">
        <ele>76.475</ele>
        <time>2018-08-22T14:41:36.168Z</time>
      </trkpt>
      <trkpt lat="48.1183034" lon="-2.2256875">
        <ele>76.342</ele>
        <time>2018-08-22T14:41:38.986Z</time>
      </trkpt>
      <trkpt lat="48.1182266" lon="-2.2257630">
        <ele>76.191</ele>
        <time>2018-08-22T14:41:40.941Z</time>
      </trkpt>
      <trkpt lat="48.1181423" lon="-2.2258312">
        <ele>76.079</ele>
        <time>2018-08-22T14:41:42.974Z</time>
      </trkpt>
      <trkpt lat="48.1180578" lon="-2.2258981">
        <ele>76.015</ele>
        <time>2018-08-22T14:41:45.028Z</time>
      </trkpt>
      <trkpt lat="48.1179436" lon="-2.2259920">
        <ele>75.958</ele>
        <time>2018-08-22T14:41:47.950Z</time>
      </trkpt>
      <trkpt lat="48.1178320" lon="-2.2260858">
        <ele>75.868</ele>
        <time>2018-08-22T14:41:50.823Z</time>
      </trkpt>
      <trkpt lat="48.1177093" lon="-2.2261928">
        <ele>75.787</ele>
        <time>2018-08-22T14:41:53.943Z</time>
      </trkpt>
      <trkpt lat="48.1176026" lon="-2.2262918">
        <ele>75.762</ele>
        <time>2018-08-22T14:41:56.648Z</time>
      </trkpt>
      <trkpt lat="48.1175106" lon="-2.2263388">
        <ele>75.727</ele>
        <time>2018-08-22T14:41:58.721Z</time>
      </trkpt>
      <trkpt lat="48.1173826" lon="-2.2264029">
        <ele>75.616</ele>
        <time>2018-08-22T14:42:01.611Z</time>
      </trkpt>
      <trkpt lat="48.1172918" lon="-2.2264305">
        <ele>75.427</ele>
        <time>2018-08-22T14:42:03.653Z</time>
      </trkpt>
      <trkpt lat="48.1171657" lon="-2.2264567">
        <ele>75.215</ele>
        <time>2018-08-22T14:42:06.633Z</time>
      </trkpt>
      <trkpt lat="48.1170474" lon="-2.2264635">
        <ele>75.071</ele>
        <time>2018-08-22T14:42:09.500Z</time>
      </trkpt>
      <trkpt lat="48.1169262" lon="-2.2264705">
        <ele>75.044</ele>
        <time>2018-08-22T14:42:12.445Z</time>
      </trkpt>
      <trkpt lat="48.1168049" lon="-2.2264562">
        <ele>75.072</ele>
        <time>2018-08-22T14:42:15.384Z</time>
      </trkpt>
      <trkpt lat="48.1166830" lon="-2.2264714">
        <ele>75.091</ele>
        <time>2018-08-22T14:42:18.241Z</time>
      </trkpt>
      <trkpt lat="48.1165516" lon="-2.2264870">
        <ele>75.089</ele>
        <time>2018-08-22T14:42:21.179Z</time>
      </trkpt>
      <trkpt lat="48.1164175" lon="-2.2264880">
        <ele>75.006</ele>
        <time>2018-08-22T14:42:24.072Z</time>
      </trkpt>
      <trkpt lat="48.1162830" lon="-2.2264998">
        <ele>74.754</ele>
        <time>2018-08-22T14:42:26.920Z</time>
      </trkpt>
      <trkpt lat="48.1161380" lon="-2.2265129">
        <ele>74.381</ele>
        <time>2018-08-22T14:42:29.940Z</time>
      </trkpt>
      <trkpt lat="48.1159935" lon="-2.2265222">
        <ele>74.042</ele>
        <time>2018-08-22T14:42:32.929Z</time>
      </trkpt>
      <trkpt lat="48.1158511" lon="-2.2265268">
        <ele>73.831</ele>
        <time>2018-08-22T14:42:35.885Z</time>
      </trkpt>
      <trkpt lat="48.1157091" lon="-2.2265335">
        <ele>73.749</ele>
        <time>2018-08-22T14:42:38.841Z</time>
      </trkpt>
      <trkpt lat="48.1155634" lon="-2.2265406">
        <ele>73.765</ele>
        <time>2018-08-22T14:42:41.867Z</time>
      </trkpt>
      <trkpt lat="48.1154229" lon="-2.2265469">
        <ele>73.856</ele>
        <time>2018-08-22T14:42:44.791Z</time>
      </trkpt>
      <trkpt lat="48.1152784" lon="-2.2265481">
        <ele>74.011</ele>
        <time>2018-08-22T14:42:47.811Z</time>
      </trkpt>
      <trkpt lat="48.1151376" lon="-2.2265592">
        <ele>74.199</ele>
        <time>2018-08-22T14:42:50.768Z</time>
      </trkpt>
      <trkpt lat="48.1149929" lon="-2.2265605">
        <ele>74.386</ele>
        <time>2018-08-22T14:42:53.804Z</time>
      </trkpt>
      <trkpt lat="48.1148591" lon="-2.2265621">
        <ele>74.548</ele>
        <time>2018-08-22T14:42:56.615Z</time>
      </trkpt>
      <trkpt lat="48.1147172" lon="-2.2265728">
        <ele>74.678</ele>
        <time>2018-08-22T14:42:59.589Z</time>
      </trkpt>
      <trkpt lat="48.1145747" lon="-2.2265695">
        <ele>74.775</ele>
        <time>2018-08-22T14:43:02.552Z</time>
      </trkpt>
      <trkpt lat="48.1144353" lon="-2.2265769">
        <ele>74.832</ele>
        <time>2018-08-22T14:43:05.422Z</time>
      </trkpt>
      <trkpt lat="48.1142894" lon="-2.2265843">
        <ele>74.847</ele>
        <time>2018-08-22T14:43:08.416Z</time>
      </trkpt>
      <trkpt lat="48.1141440" lon="-2.2265936">
        <ele>74.875</ele>
        <time>2018-08-22T14:43:11.436Z</time>
      </trkpt>
      <trkpt lat="48.1140147" lon="-2.2266084">
        <ele>74.951</ele>
        <time>2018-08-22T14:43:14.178Z</time>
      </trkpt>
      <trkpt lat="48.1138768" lon="-2.2266162">
        <ele>75.026</ele>
        <time>2018-08-22T14:43:17.126Z</time>
      </trkpt>
      <trkpt lat="48.1137349" lon="-2.2266121">
        <ele>75.048</ele>
        <time>2018-08-22T14:43:20.155Z</time>
      </trkpt>
      <trkpt lat="48.1135937" lon="-2.2266235">
        <ele>75.053</ele>
        <time>2018-08-22T14:43:23.153Z</time>
      </trkpt>
      <trkpt lat="48.1134565" lon="-2.2266321">
        <ele>75.080</ele>
        <time>2018-08-22T14:43:26.048Z</time>
      </trkpt>
      <trkpt lat="48.1133138" lon="-2.2266336">
        <ele>75.099</ele>
        <time>2018-08-22T14:43:29.059Z</time>
      </trkpt>
      <trkpt lat="48.1131729" lon="-2.2266483">
        <ele>75.074</ele>
        <time>2018-08-22T14:43:32.060Z</time>
      </trkpt>
      <trkpt lat="48.1130353" lon="-2.2266462">
        <ele>75.069</ele>
        <time>2018-08-22T14:43:34.979Z</time>
      </trkpt>
      <trkpt lat="48.1128877" lon="-2.2266499">
        <ele>75.162</ele>
        <time>2018-08-22T14:43:38.064Z</time>
      </trkpt>
      <trkpt lat="48.1127485" lon="-2.2266498">
        <ele>75.358</ele>
        <time>2018-08-22T14:43:40.948Z</time>
      </trkpt>
      <trkpt lat="48.1126041" lon="-2.2266628">
        <ele>75.655</ele>
        <time>2018-08-22T14:43:43.951Z</time>
      </trkpt>
      <trkpt lat="48.1124651" lon="-2.2266649">
        <ele>75.995</ele>
        <time>2018-08-22T14:43:46.844Z</time>
      </trkpt>
      <trkpt lat="48.1123286" lon="-2.2266708">
        <ele>76.202</ele>
        <time>2018-08-22T14:43:49.710Z</time>
      </trkpt>
      <trkpt lat="48.1121936" lon="-2.2266895">
        <ele>76.196</ele>
        <time>2018-08-22T14:43:52.611Z</time>
      </trkpt>
      <trkpt lat="48.1120586" lon="-2.2266905">
        <ele>76.097</ele>
        <time>2018-08-22T14:43:55.542Z</time>
      </trkpt>
      <trkpt lat="48.1119129" lon="-2.2266991">
        <ele>76.029</ele>
        <time>2018-08-22T14:43:58.631Z</time>
      </trkpt>
      <trkpt lat="48.1117588" lon="-2.2267027">
        <ele>76.012</ele>
        <time>2018-08-22T14:44:01.768Z</time>
      </trkpt>
      <trkpt lat="48.1116101" lon="-2.2267050">
        <ele>75.972</ele>
        <time>2018-08-22T14:44:04.726Z</time>
      </trkpt>
      <trkpt lat="48.1114627" lon="-2.2267081">
        <ele>75.813</ele>
        <time>2018-08-22T14:44:07.636Z</time>
      </trkpt>
      <trkpt lat="48.1113122" lon="-2.2267115">
        <ele>75.569</ele>
        <time>2018-08-22T14:44:10.578Z</time>
      </trkpt>
      <trkpt lat="48.1111577" lon="-2.2267230">
        <ele>75.407</ele>
        <time>2018-08-22T14:44:13.594Z</time>
      </trkpt>
      <trkpt lat="48.1110115" lon="-2.2267219">
        <ele>75.446</ele>
        <time>2018-08-22T14:44:16.480Z</time>
      </trkpt>
      <trkpt lat="48.1108694" lon="-2.2267356">
        <ele>75.641</ele>
        <time>2018-08-22T14:44:19.337Z</time>
      </trkpt>
      <trkpt lat="48.1107249" lon="-2.2267457">
        <ele>75.858</ele>
        <time>2018-08-22T14:44:22.286Z</time>
      </trkpt>
      <trkpt lat="48.1105887" lon="-2.2267527">
        <ele>76.009</ele>
        <time>2018-08-22T14:44:25.114Z</time>
      </trkpt>
      <trkpt lat="48.1104486" lon="-2.2267703">
        <ele>76.123</ele>
        <time>2018-08-22T14:44:28.085Z</time>
      </trkpt>
      <trkpt lat="48.1103115" lon="-2.2267776">
        <ele>76.282</ele>
        <time>2018-08-22T14:44:31.030Z</time>
      </trkpt>
      <trkpt lat="48.1101758" lon="-2.2267833">
        <ele>76.525</ele>
        <time>2018-08-22T14:44:33.980Z</time>
      </trkpt>
      <trkpt lat="48.1100377" lon="-2.2267937">
        <ele>76.813</ele>
        <time>2018-08-22T14:44:36.992Z</time>
      </trkpt>
      <trkpt lat="48.1099028" lon="-2.2268024">
        <ele>77.148</ele>
        <time>2018-08-22T14:44:39.934Z</time>
      </trkpt>
      <trkpt lat="48.1097684" lon="-2.2268083">
        <ele>77.543</ele>
        <time>2018-08-22T14:44:42.874Z</time>
      </trkpt>
      <trkpt lat="48.1096352" lon="-2.2268092">
        <ele>77.916</ele>
        <time>2018-08-22T14:44:45.796Z</time>
      </trkpt>
      <trkpt lat="48.1095000" lon="-2.2268215">
        <ele>78.188</ele>
        <time>2018-08-22T14:44:48.767Z</time>
      </trkpt>
      <trkpt lat="48.1093702" lon="-2.2268296">
        <ele>78.392</ele>
        <time>2018-08-22T14:44:51.646Z</time>
      </trkpt>
      <trkpt lat="48.1092522" lon="-2.2268314">
        <ele>78.634</ele>
        <time>2018-08-22T14:44:54.358Z</time>
      </trkpt>
      <trkpt lat="48.1091501" lon="-2.2268224">
        <ele>78.987</ele>
        <time>2018-08-22T14:44:56.914Z</time>
      </trkpt>
      <trkpt lat="48.1090563" lon="-2.2268347">
        <ele>79.386</ele>
        <time>2018-08-22T14:44:59.542Z</time>
      </trkpt>
      <trkpt lat="48.1089506" lon="-2.2268421">
        <ele>79.692</ele>
        <time>2018-08-22T14:45:02.957Z</time>
      </trkpt>
      <trkpt lat="48.1088583" lon="-2.2268315">
        <ele>79.893</ele>
        <time>2018-08-22T14:45:06.487Z</time>
      </trkpt>
      <trkpt lat="48.1089446" lon="-2.2267791">
        <ele>80.082</ele>
        <time>2018-08-22T14:45:10.742Z</time>
      </trkpt>
      <trkpt lat="48.1090423" lon="-2.2267802">
        <ele>80.306</ele>
        <time>2018-08-22T14:45:15.617Z</time>
      </trkpt>
      <trkpt lat="48.1091524" lon="-2.2267864">
        <ele>80.505</ele>
        <time>2018-08-22T14:45:19.522Z</time>
      </trkpt>
      <trkpt lat="48.1092705" lon="-2.2267776">
        <ele>80.584</ele>
        <time>2018-08-22T14:45:22.866Z</time>
      </trkpt>
      <trkpt lat="48.1093875" lon="-2.2267679">
        <ele>80.518</ele>
        <time>2018-08-22T14:45:25.923Z</time>
      </trkpt>
      <trkpt lat="48.1095016" lon="-2.2267617">
        <ele>80.333</ele>
        <time>2018-08-22T14:45:28.862Z</time>
      </trkpt>
      <trkpt lat="48.1096192" lon="-2.2267640">
        <ele>80.104</ele>
        <time>2018-08-22T14:45:31.880Z</time>
      </trkpt>
      <trkpt lat="48.1097318" lon="-2.2267513">
        <ele>79.931</ele>
        <time>2018-08-22T14:45:34.773Z</time>
      </trkpt>
      <trkpt lat="48.1098384" lon="-2.2267387">
        <ele>79.792</ele>
        <time>2018-08-22T14:45:37.572Z</time>
      </trkpt>
      <trkpt lat="48.1099325" lon="-2.2267337">
        <ele>79.613</ele>
        <time>2018-08-22T14:45:40.151Z</time>
      </trkpt>
      <trkpt lat="48.1100256" lon="-2.2267328">
        <ele>79.425</ele>
        <time>2018-08-22T14:45:42.918Z</time>
      </trkpt>
      <trkpt lat="48.1099245" lon="-2.2267819">
        <ele>79.287</ele>
        <time>2018-08-22T14:45:46.822Z</time>
      </trkpt>
      <trkpt lat="48.1098162" lon="-2.2267793">
        <ele>79.244</ele>
        <time>2018-08-22T14:45:54.198Z</time>
      </trkpt>
      <trkpt lat="48.1096979" lon="-2.2267899">
        <ele>79.319</ele>
        <time>2018-08-22T14:45:59.533Z</time>
      </trkpt>
      <trkpt lat="48.1095794" lon="-2.2267773">
        <ele>79.447</ele>
        <time>2018-08-22T14:46:02.870Z</time>
      </trkpt>
      <trkpt lat="48.1094598" lon="-2.2267905">
        <ele>79.593</ele>
        <time>2018-08-22T14:46:05.924Z</time>
      </trkpt>
      <trkpt lat="48.1093404" lon="-2.2268049">
        <ele>79.790</ele>
        <time>2018-08-22T14:46:08.858Z</time>
      </trkpt>
      <trkpt lat="48.1092214" lon="-2.2268189">
        <ele>80.008</ele>
        <time>2018-08-22T14:46:11.750Z</time>
      </trkpt>
      <trkpt lat="48.1091027" lon="-2.2268276">
        <ele>80.169</ele>
        <time>2018-08-22T14:46:14.637Z</time>
      </trkpt>
      <trkpt lat="48.1089847" lon="-2.2268340">
        <ele>80.274</ele>
        <time>2018-08-22T14:46:17.523Z</time>
      </trkpt>
      <trkpt lat="48.1088623" lon="-2.2268378">
        <ele>80.369</ele>
        <time>2018-08-22T14:46:20.523Z</time>
      </trkpt>
      <trkpt lat="48.1087412" lon="-2.2268401">
        <ele>80.517</ele>
        <time>2018-08-22T14:46:23.480Z</time>
      </trkpt>
      <trkpt lat="48.1086167" lon="-2.2268482">
        <ele>80.750</ele>
        <time>2018-08-22T14:46:26.502Z</time>
      </trkpt>
      <trkpt lat="48.1084936" lon="-2.2268549">
        <ele>80.981</ele>
        <time>2018-08-22T14:46:29.462Z</time>
      </trkpt>
      <trkpt lat="48.1083754" lon="-2.2268620">
        <ele>81.144</ele>
        <time>2018-08-22T14:46:32.318Z</time>
      </trkpt>
      <trkpt lat="48.1082676" lon="-2.2268521">
        <ele>81.279</ele>
        <time>2018-08-22T14:46:34.991Z</time>
      </trkpt>
      <trkpt lat="48.1081603" lon="-2.2268495">
        <ele>81.452</ele>
        <time>2018-08-22T14:46:37.750Z</time>
      </trkpt>
      <trkpt lat="48.1080451" lon="-2.2268503">
        <ele>81.709</ele>
        <time>2018-08-22T14:46:40.768Z</time>
      </trkpt>
      <trkpt lat="48.1079257" lon="-2.2268594">
        <ele>82.008</ele>
        <time>2018-08-22T14:46:43.880Z</time>
      </trkpt>
      <trkpt lat="48.1078005" lon="-2.2268714">
        <ele>82.236</ele>
        <time>2018-08-22T14:46:47.065Z</time>
      </trkpt>
      <trkpt lat="48.1076753" lon="-2.2268798">
        <ele>82.346</ele>
        <time>2018-08-22T14:46:50.149Z</time>
      </trkpt>
      <trkpt lat="48.1075530" lon="-2.2268866">
        <ele>82.365</ele>
        <time>2018-08-22T14:46:53.111Z</time>
      </trkpt>
      <trkpt lat="48.1074287" lon="-2.2268889">
        <ele>82.348</ele>
        <time>2018-08-22T14:46:56.098Z</time>
      </trkpt>
      <trkpt lat="48.1073018" lon="-2.2268893">
        <ele>82.360</ele>
        <time>2018-08-22T14:46:59.120Z</time>
      </trkpt>
      <trkpt lat="48.1071745" lon="-2.2268840">
        <ele>82.431</ele>
        <time>2018-08-22T14:47:02.122Z</time>
      </trkpt>
      <trkpt lat="48.1070489" lon="-2.2268773">
        <ele>82.518</ele>
        <time>2018-08-22T14:47:05.062Z</time>
      </trkpt>
      <trkpt lat="48.1069234" lon="-2.2268693">
        <ele>82.617</ele>
        <time>2018-08-22T14:47:07.993Z</time>
      </trkpt>
      <trkpt lat="48.1067992" lon="-2.2268674">
        <ele>82.787</ele>
        <time>2018-08-22T14:47:10.900Z</time>
      </trkpt>
      <trkpt lat="48.1066729" lon="-2.2268603">
        <ele>83.025</ele>
        <time>2018-08-22T14:47:13.872Z</time>
      </trkpt>
      <trkpt lat="48.1065455" lon="-2.2268538">
        <ele>83.258</ele>
        <time>2018-08-22T14:47:16.868Z</time>
      </trkpt>
      <trkpt lat="48.1064201" lon="-2.2268546">
        <ele>83.403</ele>
        <time>2018-08-22T14:47:19.814Z</time>
      </trkpt>
      <trkpt lat="48.1062930" lon="-2.2268526">
        <ele>83.438</ele>
        <time>2018-08-22T14:47:22.791Z</time>
      </trkpt>
      <trkpt lat="48.1061621" lon="-2.2268525">
        <ele>83.410</ele>
        <time>2018-08-22T14:47:25.829Z</time>
      </trkpt>
      <trkpt lat="48.1060327" lon="-2.2268692">
        <ele>83.392</ele>
        <time>2018-08-22T14:47:28.810Z</time>
      </trkpt>
      <trkpt lat="48.1059173" lon="-2.2268851">
        <ele>83.411</ele>
        <time>2018-08-22T14:47:31.506Z</time>
      </trkpt>
      <trkpt lat="48.1057987" lon="-2.2269144">
        <ele>83.474</ele>
        <time>2018-08-22T14:47:34.377Z</time>
      </trkpt>
      <trkpt lat="48.1056739" lon="-2.2269573">
        <ele>83.603</ele>
        <time>2018-08-22T14:47:37.458Z</time>
      </trkpt>
      <trkpt lat="48.1055451" lon="-2.2270035">
        <ele>83.801</ele>
        <time>2018-08-22T14:47:40.588Z</time>
      </trkpt>
      <trkpt lat="48.1054109" lon="-2.2270409">
        <ele>84.025</ele>
        <time>2018-08-22T14:47:43.721Z</time>
      </trkpt>
      <trkpt lat="48.1052712" lon="-2.2270706">
        <ele>84.209</ele>
        <time>2018-08-22T14:47:46.859Z</time>
      </trkpt>
      <trkpt lat="48.1051367" lon="-2.2270945">
        <ele>84.304</ele>
        <time>2018-08-22T14:47:49.799Z</time>
      </trkpt>
      <trkpt lat="48.1049866" lon="-2.2270949">
        <ele>84.304</ele>
        <time>2018-08-22T14:47:52.992Z</time>
      </trkpt>
      <trkpt lat="48.1049866" lon="-2.2270949">
        <ele>84.238</ele>
        <time>2018-08-22T14:47:53.992Z</time>
      </trkpt>
      <trkpt lat="48.1049866" lon="-2.2270949">
        <ele>84.168</ele>
        <time>2018-08-22T14:47:54.092Z</time>
      </trkpt>
      <trkpt lat="48.1047410" lon="-2.2271022">
        <ele>84.134</ele>
        <time>2018-08-22T14:48:01.216Z</time>
      </trkpt>
      <trkpt lat="48.1045980" lon="-2.2270725">
        <ele>84.082</ele>
        <time>2018-08-22T14:48:04.184Z</time>
      </trkpt>
      <trkpt lat="48.1044519" lon="-2.2270462">
        <ele>83.877</ele>
        <time>2018-08-22T14:48:07.074Z</time>
      </trkpt>
      <trkpt lat="48.1042927" lon="-2.2270327">
        <ele>83.516</ele>
        <time>2018-08-22T14:48:09.990Z</time>
      </trkpt>
      <trkpt lat="48.1041225" lon="-2.2270125">
        <ele>83.169</ele>
        <time>2018-08-22T14:48:12.909Z</time>
      </trkpt>
      <trkpt lat="48.1039423" lon="-2.2269825">
        <ele>82.915</ele>
        <time>2018-08-22T14:48:15.842Z</time>
      </trkpt>
      <trkpt lat="48.1037508" lon="-2.2269610">
        <ele>82.672</ele>
        <time>2018-08-22T14:48:18.783Z</time>
      </trkpt>
      <trkpt lat="48.1035425" lon="-2.2269513">
        <ele>82.314</ele>
        <time>2018-08-22T14:48:21.809Z</time>
      </trkpt>
      <trkpt lat="48.1033291" lon="-2.2269194">
        <ele>81.768</ele>
        <time>2018-08-22T14:48:24.795Z</time>
      </trkpt>
      <trkpt lat="48.1031109" lon="-2.2269063">
        <ele>81.076</ele>
        <time>2018-08-22T14:48:27.824Z</time>
      </trkpt>
      <trkpt lat="48.1029161" lon="-2.2270317">
        <ele>80.326</ele>
        <time>2018-08-22T14:48:30.886Z</time>
      </trkpt>
      <trkpt lat="48.1027520" lon="-2.2272065">
        <ele>79.569</ele>
        <time>2018-08-22T14:48:34.024Z</time>
      </trkpt>
      <trkpt lat="48.1025858" lon="-2.2273236">
        <ele>78.905</ele>
        <time>2018-08-22T14:48:37.204Z</time>
      </trkpt>
      <trkpt lat="48.1024183" lon="-2.2273655">
        <ele>78.498</ele>
        <time>2018-08-22T14:48:40.460Z</time>
      </trkpt>
      <trkpt lat="48.1022648" lon="-2.2273735">
        <ele>78.387</ele>
        <time>2018-08-22T14:48:43.644Z</time>
      </trkpt>
      <trkpt lat="48.1021684" lon="-2.2273692">
        <ele>78.425</ele>
        <time>2018-08-22T14:48:45.691Z</time>
      </trkpt>
      <trkpt lat="48.1020712" lon="-2.2273752">
        <ele>78.484</ele>
        <time>2018-08-22T14:48:47.777Z</time>
      </trkpt>
      <trkpt lat="48.1019751" lon="-2.2273681">
        <ele>78.543</ele>
        <time>2018-08-22T14:48:49.877Z</time>
      </trkpt>
      <trkpt lat="48.1018847" lon="-2.2273594">
        <ele>78.622</ele>
        <time>2018-08-22T14:48:51.872Z</time>
      </trkpt>
      <trkpt lat="48.1017930" lon="-2.2273604">
        <ele>78.704</ele>
        <time>2018-08-22T14:48:53.881Z</time>
      </trkpt>
      <trkpt lat="48.1017023" lon="-2.2273718">
        <ele>78.755</ele>
        <time>2018-08-22T14:48:55.864Z</time>
      </trkpt>
      <trkpt lat="48.1016073" lon="-2.2273806">
        <ele>78.766</ele>
        <time>2018-08-22T14:48:57.940Z</time>
      </trkpt>
      <trkpt lat="48.1015168" lon="-2.2273952">
        <ele>78.767</ele>
        <time>2018-08-22T14:48:59.901Z</time>
      </trkpt>
      <trkpt lat="48.1014248" lon="-2.2274158">
        <ele>78.792</ele>
        <time>2018-08-22T14:49:01.873Z</time>
      </trkpt>
      <trkpt lat="48.1013282" lon="-2.2274337">
        <ele>78.836</ele>
        <time>2018-08-22T14:49:03.966Z</time>
      </trkpt>
      <trkpt lat="48.1012325" lon="-2.2274572">
        <ele>78.821</ele>
        <time>2018-08-22T14:49:06.069Z</time>
      </trkpt>
      <trkpt lat="48.1010991" lon="-2.2274896">
        <ele>78.703</ele>
        <time>2018-08-22T14:49:08.956Z</time>
      </trkpt>
      <trkpt lat="48.1010043" lon="-2.2275105">
        <ele>78.564</ele>
        <time>2018-08-22T14:49:10.962Z</time>
      </trkpt>
      <trkpt lat="48.1009127" lon="-2.2275397">
        <ele>78.510</ele>
        <time>2018-08-22T14:49:13.016Z</time>
      </trkpt>
      <trkpt lat="48.1008214" lon="-2.2275572">
        <ele>78.557</ele>
        <time>2018-08-22T14:49:15.088Z</time>
      </trkpt>
      <trkpt lat="48.1006974" lon="-2.2276098">
        <ele>78.636</ele>
        <time>2018-08-22T14:49:18.072Z</time>
      </trkpt>
      <trkpt lat="48.1005738" lon="-2.2276516">
        <ele>78.684</ele>
        <time>2018-08-22T14:49:21.010Z</time>
      </trkpt>
      <trkpt lat="48.1004439" lon="-2.2276875">
        <ele>78.671</ele>
        <time>2018-08-22T14:49:23.997Z</time>
      </trkpt>
      <trkpt lat="48.1003542" lon="-2.2277186">
        <ele>78.588</ele>
        <time>2018-08-22T14:49:26.020Z</time>
      </trkpt>
      <trkpt lat="48.1002596" lon="-2.2277490">
        <ele>78.422</ele>
        <time>2018-08-22T14:49:28.084Z</time>
      </trkpt>
      <trkpt lat="48.1001673" lon="-2.2277611">
        <ele>78.203</ele>
        <time>2018-08-22T14:49:29.982Z</time>
      </trkpt>
      <trkpt lat="48.1000697" lon="-2.2277627">
        <ele>77.981</ele>
        <time>2018-08-22T14:49:31.942Z</time>
      </trkpt>
      <trkpt lat="48.0999233" lon="-2.2277773">
        <ele>77.737</ele>
        <time>2018-08-22T14:49:34.802Z</time>
      </trkpt>
      <trkpt lat="48.0997671" lon="-2.2277884">
        <ele>77.419</ele>
        <time>2018-08-22T14:49:37.773Z</time>
      </trkpt>
      <trkpt lat="48.0996021" lon="-2.2278128">
        <ele>77.023</ele>
        <time>2018-08-22T14:49:40.850Z</time>
      </trkpt>
      <trkpt lat="48.0994396" lon="-2.2278550">
        <ele>76.622</ele>
        <time>2018-08-22T14:49:43.870Z</time>
      </trkpt>
      <trkpt lat="48.0993035" lon="-2.2280097">
        <ele>76.224</ele>
        <time>2018-08-22T14:49:47.102Z</time>
      </trkpt>
      <trkpt lat="48.0992267" lon="-2.2282036">
        <ele>75.789</ele>
        <time>2018-08-22T14:49:50.113Z</time>
      </trkpt>
      <trkpt lat="48.0991468" lon="-2.2283921">
        <ele>75.335</ele>
        <time>2018-08-22T14:49:53.212Z</time>
      </trkpt>
      <trkpt lat="48.0990649" lon="-2.2285754">
        <ele>74.941</ele>
        <time>2018-08-22T14:49:56.345Z</time>
      </trkpt>
      <trkpt lat="48.0989850" lon="-2.2287471">
        <ele>74.746</ele>
        <time>2018-08-22T14:49:59.344Z</time>
      </trkpt>
      <trkpt lat="48.0989002" lon="-2.2289240">
        <ele>74.925</ele>
        <time>2018-08-22T14:50:02.467Z</time>
      </trkpt>
      <trkpt lat="48.0988142" lon="-2.2290948">
        <ele>75.440</ele>
        <time>2018-08-22T14:50:05.531Z</time>
      </trkpt>
      <trkpt lat="48.0987197" lon="-2.2292455">
        <ele>76.085</ele>
        <time>2018-08-22T14:50:08.498Z</time>
      </trkpt>
      <trkpt lat="48.0986327" lon="-2.2294109">
        <ele>76.654</ele>
        <time>2018-08-22T14:50:11.565Z</time>
      </trkpt>
      <trkpt lat="48.0985523" lon="-2.2295778">
        <ele>77.042</ele>
        <time>2018-08-22T14:50:14.791Z</time>
      </trkpt>
      <trkpt lat="48.0984912" lon="-2.2297605">
        <ele>77.264</ele>
        <time>2018-08-22T14:50:18.679Z</time>
      </trkpt>
      <trkpt lat="48.0984868" lon="-2.2299100">
        <ele>77.421</ele>
        <time>2018-08-22T14:50:21.735Z</time>
      </trkpt>
      <trkpt lat="48.0984633" lon="-2.2297606">
        <ele>77.566</ele>
        <time>2018-08-22T14:50:24.869Z</time>
      </trkpt>
      <trkpt lat="48.0985034" lon="-2.2296370">
        <ele>77.720</ele>
        <time>2018-08-22T14:50:27.998Z</time>
      </trkpt>
      <trkpt lat="48.0985034" lon="-2.2296370">
        <ele>77.888</ele>
        <time>2018-08-22T14:50:40.998Z</time>
      </trkpt>
      <trkpt lat="48.0985034" lon="-2.2296370">
        <ele>77.985</ele>
        <time>2018-08-22T14:50:41.098Z</time>
      </trkpt>
      <trkpt lat="48.0984560" lon="-2.2298265">
        <ele>77.857</ele>
        <time>2018-08-22T14:50:50.808Z</time>
      </trkpt>
      <trkpt lat="48.0984162" lon="-2.2299559">
        <ele>77.805</ele>
        <time>2018-08-22T14:50:54.012Z</time>
      </trkpt>
      <trkpt lat="48.0983597" lon="-2.2300798">
        <ele>77.801</ele>
        <time>2018-08-22T14:50:57.020Z</time>
      </trkpt>
      <trkpt lat="48.0982965" lon="-2.2301949">
        <ele>77.799</ele>
        <time>2018-08-22T14:50:59.829Z</time>
      </trkpt>
      <trkpt lat="48.0982273" lon="-2.2303134">
        <ele>77.708</ele>
        <time>2018-08-22T14:51:02.672Z</time>
      </trkpt>
      <trkpt lat="48.0981605" lon="-2.2304391">
        <ele>77.484</ele>
        <time>2018-08-22T14:51:05.486Z</time>
      </trkpt>
      <trkpt lat="48.0981049" lon="-2.2305831">
        <ele>77.208</ele>
        <time>2018-08-22T14:51:08.358Z</time>
      </trkpt>
      <trkpt lat="48.0980629" lon="-2.2307322">
        <ele>77.003</ele>
        <time>2018-08-22T14:51:11.150Z</time>
      </trkpt>
      <trkpt lat="48.0980305" lon="-2.2308897">
        <ele>76.982</ele>
        <time>2018-08-22T14:51:13.978Z</time>
      </trkpt>
      <trkpt lat="48.0979977" lon="-2.2310489">
        <ele>77.285</ele>
        <time>2018-08-22T14:51:16.793Z</time>
      </trkpt>
      <trkpt lat="48.0979636" lon="-2.2312160">
        <ele>77.945</ele>
        <time>2018-08-22T14:51:19.683Z</time>
      </trkpt>
      <trkpt lat="48.0979299" lon="-2.2313819">
        <ele>78.739</ele>
        <time>2018-08-22T14:51:22.502Z</time>
      </trkpt>
      <trkpt lat="48.0978977" lon="-2.2315458">
        <ele>79.360</ele>
        <time>2018-08-22T14:51:25.261Z</time>
      </trkpt>
      <trkpt lat="48.0978578" lon="-2.2317105">
        <ele>79.693</ele>
        <time>2018-08-22T14:51:28.079Z</time>
      </trkpt>
      <trkpt lat="48.0978123" lon="-2.2318722">
        <ele>79.843</ele>
        <time>2018-08-22T14:51:30.885Z</time>
      </trkpt>
      <trkpt lat="48.0977559" lon="-2.2320286">
        <ele>79.935</ele>
        <time>2018-08-22T14:51:33.703Z</time>
      </trkpt>
      <trkpt lat="48.0976910" lon="-2.2321855">
        <ele>79.994</ele>
        <time>2018-08-22T14:51:36.587Z</time>
      </trkpt>
      <trkpt lat="48.0976207" lon="-2.2323449">
        <ele>79.964</ele>
        <time>2018-08-22T14:51:39.503Z</time>
      </trkpt>
      <trkpt lat="48.0975454" lon="-2.2324961">
        <ele>79.797</ele>
        <time>2018-08-22T14:51:42.332Z</time>
      </trkpt>
      <trkpt lat="48.0974763" lon="-2.2326591">
        <ele>79.512</ele>
        <time>2018-08-22T14:51:45.189Z</time>
      </trkpt>
      <trkpt lat="48.0974102" lon="-2.2328233">
        <ele>79.210</ele>
        <time>2018-08-22T14:51:47.996Z</time>
      </trkpt>
      <trkpt lat="48.0974102" lon="-2.2328233">
        <ele>79.015</ele>
        <time>2018-08-22T14:51:49.996Z</time>
      </trkpt>
      <trkpt lat="48.0974102" lon="-2.2328233">
        <ele>78.959</ele>
        <time>2018-08-22T14:51:50.096Z</time>
      </trkpt>
      <trkpt lat="48.0972838" lon="-2.2331600">
        <ele>78.974</ele>
        <time>2018-08-22T14:51:57.770Z</time>
      </trkpt>
      <trkpt lat="48.0972257" lon="-2.2333397">
        <ele>78.987</ele>
        <time>2018-08-22T14:52:00.594Z</time>
      </trkpt>
      <trkpt lat="48.0971526" lon="-2.2335215">
        <ele>78.943</ele>
        <time>2018-08-22T14:52:03.453Z</time>
      </trkpt>
      <trkpt lat="48.0970696" lon="-2.2337096">
        <ele>78.803</ele>
        <time>2018-08-22T14:52:06.416Z</time>
      </trkpt>
      <trkpt lat="48.0969834" lon="-2.2339015">
        <ele>78.607</ele>
        <time>2018-08-22T14:52:09.452Z</time>
      </trkpt>
      <trkpt lat="48.0968926" lon="-2.2340753">
        <ele>78.394</ele>
        <time>2018-08-22T14:52:12.409Z</time>
      </trkpt>
      <trkpt lat="48.0968010" lon="-2.2342389">
        <ele>78.176</ele>
        <time>2018-08-22T14:52:15.346Z</time>
      </trkpt>
      <trkpt lat="48.0967199" lon="-2.2344105">
        <ele>78.011</ele>
        <time>2018-08-22T14:52:18.287Z</time>
      </trkpt>
      <trkpt lat="48.0966371" lon="-2.2345769">
        <ele>77.929</ele>
        <time>2018-08-22T14:52:21.197Z</time>
      </trkpt>
      <trkpt lat="48.0965502" lon="-2.2347554">
        <ele>77.877</ele>
        <time>2018-08-22T14:52:24.303Z</time>
      </trkpt>
      <trkpt lat="48.0964708" lon="-2.2349256">
        <ele>77.842</ele>
        <time>2018-08-22T14:52:27.216Z</time>
      </trkpt>
      <trkpt lat="48.0963961" lon="-2.2351111">
        <ele>77.826</ele>
        <time>2018-08-22T14:52:30.255Z</time>
      </trkpt>
      <trkpt lat="48.0963446" lon="-2.2353030">
        <ele>77.816</ele>
        <time>2018-08-22T14:52:33.292Z</time>
      </trkpt>
      <trkpt lat="48.0963221" lon="-2.2354948">
        <ele>77.809</ele>
        <time>2018-08-22T14:52:36.341Z</time>
      </trkpt>
      <trkpt lat="48.0963384" lon="-2.2356713">
        <ele>77.855</ele>
        <time>2018-08-22T14:52:39.244Z</time>
      </trkpt>
      <trkpt lat="48.0963706" lon="-2.2358488">
        <ele>77.986</ele>
        <time>2018-08-22T14:52:42.329Z</time>
      </trkpt>
      <trkpt lat="48.0964122" lon="-2.2360093">
        <ele>78.154</ele>
        <time>2018-08-22T14:52:45.246Z</time>
      </trkpt>
      <trkpt lat="48.0964640" lon="-2.2361654">
        <ele>78.290</ele>
        <time>2018-08-22T14:52:48.214Z</time>
      </trkpt>
      <trkpt lat="48.0965104" lon="-2.2363250">
        <ele>78.392</ele>
        <time>2018-08-22T14:52:51.216Z</time>
      </trkpt>
      <trkpt lat="48.0965347" lon="-2.2364905">
        <ele>78.476</ele>
        <time>2018-08-22T14:52:54.176Z</time>
      </trkpt>
      <trkpt lat="48.0965373" lon="-2.2366599">
        <ele>78.671</ele>
        <time>2018-08-22T14:52:57.152Z</time>
      </trkpt>
      <trkpt lat="48.0965301" lon="-2.2368270">
        <ele>79.218</ele>
        <time>2018-08-22T14:53:00.084Z</time>
      </trkpt>
      <trkpt lat="48.0965205" lon="-2.2369925">
        <ele>80.053</ele>
        <time>2018-08-22T14:53:03.014Z</time>
      </trkpt>
      <trkpt lat="48.0965218" lon="-2.2371567">
        <ele>80.771</ele>
        <time>2018-08-22T14:53:05.923Z</time>
      </trkpt>
      <trkpt lat="48.0965315" lon="-2.2373233">
        <ele>81.150</ele>
        <time>2018-08-22T14:53:08.901Z</time>
      </trkpt>
      <trkpt lat="48.0965531" lon="-2.2374831">
        <ele>81.275</ele>
        <time>2018-08-22T14:53:11.844Z</time>
      </trkpt>
      <trkpt lat="48.0965886" lon="-2.2376396">
        <ele>81.311</ele>
        <time>2018-08-22T14:53:14.821Z</time>
      </trkpt>
      <trkpt lat="48.0966258" lon="-2.2377984">
        <ele>81.429</ele>
        <time>2018-08-22T14:53:17.814Z</time>
      </trkpt>
      <trkpt lat="48.0966598" lon="-2.2379605">
        <ele>81.673</ele>
        <time>2018-08-22T14:53:20.779Z</time>
      </trkpt>
      <trkpt lat="48.0966992" lon="-2.2381260">
        <ele>81.906</ele>
        <time>2018-08-22T14:53:23.776Z</time>
      </trkpt>
      <trkpt lat="48.0967391" lon="-2.2382934">
        <ele>82.006</ele>
        <time>2018-08-22T14:53:26.796Z</time>
      </trkpt>
      <trkpt lat="48.0967692" lon="-2.2384609">
        <ele>81.983</ele>
        <time>2018-08-22T14:53:29.766Z</time>
      </trkpt>
      <trkpt lat="48.0967889" lon="-2.2386307">
        <ele>81.893</ele>
        <time>2018-08-22T14:53:32.820Z</time>
      </trkpt>
      <trkpt lat="48.0967923" lon="-2.2387868">
        <ele>81.825</ele>
        <time>2018-08-22T14:53:35.791Z</time>
      </trkpt>
      <trkpt lat="48.0967700" lon="-2.2389305">
        <ele>81.877</ele>
        <time>2018-08-22T14:53:38.718Z</time>
      </trkpt>
      <trkpt lat="48.0967300" lon="-2.2390685">
        <ele>82.102</ele>
        <time>2018-08-22T14:53:41.665Z</time>
      </trkpt>
      <trkpt lat="48.0966668" lon="-2.2392036">
        <ele>82.422</ele>
        <time>2018-08-22T14:53:44.625Z</time>
      </trkpt>
      <trkpt lat="48.0965787" lon="-2.2393301">
        <ele>82.664</ele>
        <time>2018-08-22T14:53:47.607Z</time>
      </trkpt>
      <trkpt lat="48.0964775" lon="-2.2394507">
        <ele>82.753</ele>
        <time>2018-08-22T14:53:50.631Z</time>
      </trkpt>
      <trkpt lat="48.0963728" lon="-2.2395595">
        <ele>82.547</ele>
        <time>2018-08-22T14:53:53.612Z</time>
      </trkpt>
      <trkpt lat="48.0962629" lon="-2.2396472">
        <ele>81.817</ele>
        <time>2018-08-22T14:53:56.627Z</time>
      </trkpt>
      <trkpt lat="48.0961544" lon="-2.2397251">
        <ele>80.772</ele>
        <time>2018-08-22T14:53:59.628Z</time>
      </trkpt>
      <trkpt lat="48.0960473" lon="-2.2398094">
        <ele>79.924</ele>
        <time>2018-08-22T14:54:02.604Z</time>
      </trkpt>
      <trkpt lat="48.0959377" lon="-2.2399029">
        <ele>79.398</ele>
        <time>2018-08-22T14:54:05.619Z</time>
      </trkpt>
      <trkpt lat="48.0958296" lon="-2.2400078">
        <ele>79.017</ele>
        <time>2018-08-22T14:54:08.751Z</time>
      </trkpt>
      <trkpt lat="48.0957334" lon="-2.2401153">
        <ele>78.701</ele>
        <time>2018-08-22T14:54:11.798Z</time>
      </trkpt>
      <trkpt lat="48.0956483" lon="-2.2402306">
        <ele>78.477</ele>
        <time>2018-08-22T14:54:14.700Z</time>
      </trkpt>
      <trkpt lat="48.0955527" lon="-2.2403410">
        <ele>78.279</ele>
        <time>2018-08-22T14:54:17.596Z</time>
      </trkpt>
      <trkpt lat="48.0954163" lon="-2.2403701">
        <ele>77.938</ele>
        <time>2018-08-22T14:54:20.660Z</time>
      </trkpt>
      <trkpt lat="48.0952761" lon="-2.2403624">
        <ele>77.475</ele>
        <time>2018-08-22T14:54:23.519Z</time>
      </trkpt>
      <trkpt lat="48.0951340" lon="-2.2403025">
        <ele>77.105</ele>
        <time>2018-08-22T14:54:26.305Z</time>
      </trkpt>
      <trkpt lat="48.0949634" lon="-2.2402856">
        <ele>76.832</ele>
        <time>2018-08-22T14:54:29.380Z</time>
      </trkpt>
      <trkpt lat="48.0948009" lon="-2.2403094">
        <ele>76.548</ele>
        <time>2018-08-22T14:54:32.229Z</time>
      </trkpt>
      <trkpt lat="48.0946295" lon="-2.2403334">
        <ele>76.209</ele>
        <time>2018-08-22T14:54:35.110Z</time>
      </trkpt>
      <trkpt lat="48.0944485" lon="-2.2403806">
        <ele>75.771</ele>
        <time>2018-08-22T14:54:37.973Z</time>
      </trkpt>
      <trkpt lat="48.0942482" lon="-2.2404407">
        <ele>75.113</ele>
        <time>2018-08-22T14:54:40.984Z</time>
      </trkpt>
      <trkpt lat="48.0940472" lon="-2.2405002">
        <ele>74.214</ele>
        <time>2018-08-22T14:54:43.947Z</time>
      </trkpt>
      <trkpt lat="48.0938451" lon="-2.2405664">
        <ele>73.318</ele>
        <time>2018-08-22T14:54:46.793Z</time>
      </trkpt>
      <trkpt lat="48.0936183" lon="-2.2406696">
        <ele>72.481</ele>
        <time>2018-08-22T14:54:49.788Z</time>
      </trkpt>
      <trkpt lat="48.0933814" lon="-2.2408159">
        <ele>71.522</ele>
        <time>2018-08-22T14:54:52.814Z</time>
      </trkpt>
      <trkpt lat="48.0931534" lon="-2.2409871">
        <ele>70.636</ele>
        <time>2018-08-22T14:54:55.721Z</time>
      </trkpt>
      <trkpt lat="48.0929367" lon="-2.2412101">
        <ele>69.899</ele>
        <time>2018-08-22T14:54:58.649Z</time>
      </trkpt>
      <trkpt lat="48.0927713" lon="-2.2415342">
        <ele>68.905</ele>
        <time>2018-08-22T14:55:01.653Z</time>
      </trkpt>
      <trkpt lat="48.0926824" lon="-2.2419086">
        <ele>67.497</ele>
        <time>2018-08-22T14:55:04.643Z</time>
      </trkpt>
      <trkpt lat="48.0926673" lon="-2.2422852">
        <ele>65.977</ele>
        <time>2018-08-22T14:55:07.672Z</time>
      </trkpt>
      <trkpt lat="48.0926996" lon="-2.2426197">
        <ele>64.648</ele>
        <time>2018-08-22T14:55:10.675Z</time>
      </trkpt>
      <trkpt lat="48.0927263" lon="-2.2429099">
        <ele>63.691</ele>
        <time>2018-08-22T14:55:13.580Z</time>
      </trkpt>
      <trkpt lat="48.0927570" lon="-2.2431881">
        <ele>63.208</ele>
        <time>2018-08-22T14:55:16.577Z</time>
      </trkpt>
      <trkpt lat="48.0927447" lon="-2.2434644">
        <ele>63.238</ele>
        <time>2018-08-22T14:55:19.532Z</time>
      </trkpt>
      <trkpt lat="48.0927115" lon="-2.2437414">
        <ele>63.612</ele>
        <time>2018-08-22T14:55:22.481Z</time>
      </trkpt>
      <trkpt lat="48.0926705" lon="-2.2440301">
        <ele>63.959</ele>
        <time>2018-08-22T14:55:25.574Z</time>
      </trkpt>
      <trkpt lat="48.0926155" lon="-2.2442869">
        <ele>63.825</ele>
        <time>2018-08-22T14:55:28.490Z</time>
      </trkpt>
      <trkpt lat="48.0925535" lon="-2.2445375">
        <ele>62.972</ele>
        <time>2018-08-22T14:55:31.435Z</time>
      </trkpt>
      <trkpt lat="48.0924172" lon="-2.2447648">
        <ele>61.783</ele>
        <time>2018-08-22T14:55:34.947Z</time>
      </trkpt>
      <trkpt lat="48.0923509" lon="-2.2449320">
        <ele>60.985</ele>
        <time>2018-08-22T14:55:37.697Z</time>
      </trkpt>
      <trkpt lat="48.0922659" lon="-2.2450182">
        <ele>60.934</ele>
        <time>2018-08-22T14:55:40.494Z</time>
      </trkpt>
      <trkpt lat="48.0921631" lon="-2.2450895">
        <ele>61.502</ele>
        <time>2018-08-22T14:55:44.173Z</time>
      </trkpt>
      <trkpt lat="48.0920586" lon="-2.2451160">
        <ele>62.268</ele>
        <time>2018-08-22T14:55:48.019Z</time>
      </trkpt>
      <trkpt lat="48.0919574" lon="-2.2451347">
        <ele>62.891</ele>
        <time>2018-08-22T14:55:51.878Z</time>
      </trkpt>
      <trkpt lat="48.0918550" lon="-2.2451395">
        <ele>63.369</ele>
        <time>2018-08-22T14:55:55.757Z</time>
      </trkpt>
      <trkpt lat="48.0917465" lon="-2.2451381">
        <ele>63.773</ele>
        <time>2018-08-22T14:55:59.730Z</time>
      </trkpt>
      <trkpt lat="48.0916385" lon="-2.2451412">
        <ele>64.146</ele>
        <time>2018-08-22T14:56:03.643Z</time>
      </trkpt>
      <trkpt lat="48.0915284" lon="-2.2451307">
        <ele>64.621</ele>
        <time>2018-08-22T14:56:07.597Z</time>
      </trkpt>
      <trkpt lat="48.0914167" lon="-2.2451291">
        <ele>65.216</ele>
        <time>2018-08-22T14:56:11.515Z</time>
      </trkpt>
      <trkpt lat="48.0913007" lon="-2.2451289">
        <ele>65.802</ele>
        <time>2018-08-22T14:56:15.504Z</time>
      </trkpt>
      <trkpt lat="48.0911850" lon="-2.2451311">
        <ele>66.331</ele>
        <time>2018-08-22T14:56:19.464Z</time>
      </trkpt>
      <trkpt lat="48.0910711" lon="-2.2451266">
        <ele>66.790</ele>
        <time>2018-08-22T14:56:23.399Z</time>
      </trkpt>
      <trkpt lat="48.0909582" lon="-2.2451263">
        <ele>67.132</ele>
        <time>2018-08-22T14:56:27.318Z</time>
      </trkpt>
      <trkpt lat="48.0908422" lon="-2.2451285">
        <ele>67.375</ele>
        <time>2018-08-22T14:56:31.326Z</time>
      </trkpt>
      <trkpt lat="48.0907239" lon="-2.2451242">
        <ele>67.671</ele>
        <time>2018-08-22T14:56:35.373Z</time>
      </trkpt>
      <trkpt lat="48.0906066" lon="-2.2451221">
        <ele>68.112</ele>
        <time>2018-08-22T14:56:39.350Z</time>
      </trkpt>
      <trkpt lat="48.0904874" lon="-2.2451200">
        <ele>68.571</ele>
        <time>2018-08-22T14:56:43.370Z</time>
      </trkpt>
      <trkpt lat="48.0903773" lon="-2.2451157">
        <ele>68.936</ele>
        <time>2018-08-22T14:56:47.134Z</time>
      </trkpt>
      <trkpt lat="48.0902827" lon="-2.2451267">
        <ele>69.224</ele>
        <time>2018-08-22T14:56:50.658Z</time>
      </trkpt>
      <trkpt lat="48.0901857" lon="-2.2451275">
        <ele>69.416</ele>
        <time>2018-08-22T14:56:54.636Z</time>
      </trkpt>
      <trkpt lat="48.0900657" lon="-2.2451313">
        <ele>69.442</ele>
        <time>2018-08-22T14:56:59.799Z</time>
      </trkpt>
      <trkpt lat="48.0899632" lon="-2.2451339">
        <ele>69.314</ele>
        <time>2018-08-22T14:57:03.713Z</time>
      </trkpt>
      <trkpt lat="48.0898497" lon="-2.2451417">
        <ele>69.119</ele>
        <time>2018-08-22T14:57:07.326Z</time>
      </trkpt>
      <trkpt lat="48.0897268" lon="-2.2451476">
        <ele>68.931</ele>
        <time>2018-08-22T14:57:10.737Z</time>
      </trkpt>
      <trkpt lat="48.0896033" lon="-2.2451655">
        <ele>68.790</ele>
        <time>2018-08-22T14:57:13.921Z</time>
      </trkpt>
      <trkpt lat="48.0894825" lon="-2.2451860">
        <ele>68.724</ele>
        <time>2018-08-22T14:57:16.940Z</time>
      </trkpt>
      <trkpt lat="48.0893692" lon="-2.2452036">
        <ele>68.731</ele>
        <time>2018-08-22T14:57:19.791Z</time>
      </trkpt>
      <trkpt lat="48.0892685" lon="-2.2452196">
        <ele>68.796</ele>
        <time>2018-08-22T14:57:22.417Z</time>
      </trkpt>
      <trkpt lat="48.0891637" lon="-2.2452412">
        <ele>68.849</ele>
        <time>2018-08-22T14:57:25.265Z</time>
      </trkpt>
      <trkpt lat="48.0890557" lon="-2.2452676">
        <ele>68.828</ele>
        <time>2018-08-22T14:57:28.249Z</time>
      </trkpt>
      <trkpt lat="48.0889397" lon="-2.2452925">
        <ele>68.719</ele>
        <time>2018-08-22T14:57:31.393Z</time>
      </trkpt>
      <trkpt lat="48.0888208" lon="-2.2453176">
        <ele>68.538</ele>
        <time>2018-08-22T14:57:34.526Z</time>
      </trkpt>
      <trkpt lat="48.0887024" lon="-2.2453404">
        <ele>68.356</ele>
        <time>2018-08-22T14:57:37.574Z</time>
      </trkpt>
      <trkpt lat="48.0885899" lon="-2.2453596">
        <ele>68.260</ele>
        <time>2018-08-22T14:57:40.456Z</time>
      </trkpt>
      <trkpt lat="48.0884819" lon="-2.2453873">
        <ele>68.258</ele>
        <time>2018-08-22T14:57:43.289Z</time>
      </trkpt>
      <trkpt lat="48.0883814" lon="-2.2454067">
        <ele>68.319</ele>
        <time>2018-08-22T14:57:45.998Z</time>
      </trkpt>
      <trkpt lat="48.0883814" lon="-2.2454067">
        <ele>68.386</ele>
        <time>2018-08-22T14:57:46.998Z</time>
      </trkpt>
      <trkpt lat="48.0883814" lon="-2.2454067">
        <ele>68.395</ele>
        <time>2018-08-22T14:57:57.511Z</time>
      </trkpt>
      <trkpt lat="48.0885108" lon="-2.2453439">
        <ele>68.354</ele>
        <time>2018-08-22T14:58:04.030Z</time>
      </trkpt>
      <trkpt lat="48.0886219" lon="-2.2453220">
        <ele>68.567</ele>
        <time>2018-08-22T14:58:07.161Z</time>
      </trkpt>
      <trkpt lat="48.0887405" lon="-2.2453016">
        <ele>69.211</ele>
        <time>2018-08-22T14:58:10.188Z</time>
      </trkpt>
      <trkpt lat="48.0888644" lon="-2.2452769">
        <ele>69.903</ele>
        <time>2018-08-22T14:58:13.204Z</time>
      </trkpt>
      <trkpt lat="48.0889876" lon="-2.2452518">
        <ele>70.289</ele>
        <time>2018-08-22T14:58:16.205Z</time>
      </trkpt>
      <trkpt lat="48.0891086" lon="-2.2452251">
        <ele>70.487</ele>
        <time>2018-08-22T14:58:19.218Z</time>
      </trkpt>
      <trkpt lat="48.0892269" lon="-2.2451983">
        <ele>70.640</ele>
        <time>2018-08-22T14:58:22.217Z</time>
      </trkpt>
      <trkpt lat="48.0893446" lon="-2.2451731">
        <ele>70.762</ele>
        <time>2018-08-22T14:58:25.231Z</time>
      </trkpt>
      <trkpt lat="48.0894589" lon="-2.2451495">
        <ele>70.839</ele>
        <time>2018-08-22T14:58:28.147Z</time>
      </trkpt>
      <trkpt lat="48.0895764" lon="-2.2451204">
        <ele>70.888</ele>
        <time>2018-08-22T14:58:31.201Z</time>
      </trkpt>
      <trkpt lat="48.0896865" lon="-2.2450904">
        <ele>70.927</ele>
        <time>2018-08-22T14:58:34.226Z</time>
      </trkpt>
      <trkpt lat="48.0897926" lon="-2.2450754">
        <ele>70.961</ele>
        <time>2018-08-22T14:58:37.632Z</time>
      </trkpt>
      <trkpt lat="48.0899016" lon="-2.2450649">
        <ele>70.981</ele>
        <time>2018-08-22T14:58:41.729Z</time>
      </trkpt>
      <trkpt lat="48.0898181" lon="-2.2451296">
        <ele>70.982</ele>
        <time>2018-08-22T14:58:45.393Z</time>
      </trkpt>
      <trkpt lat="48.0897056" lon="-2.2451301">
        <ele>70.934</ele>
        <time>2018-08-22T14:58:48.884Z</time>
      </trkpt>
      <trkpt lat="48.0895830" lon="-2.2451570">
        <ele>70.819</ele>
        <time>2018-08-22T14:58:52.062Z</time>
      </trkpt>
      <trkpt lat="48.0894534" lon="-2.2451850">
        <ele>70.704</ele>
        <time>2018-08-22T14:58:55.148Z</time>
      </trkpt>
      <trkpt lat="48.0893224" lon="-2.2452156">
        <ele>70.660</ele>
        <time>2018-08-22T14:58:58.156Z</time>
      </trkpt>
      <trkpt lat="48.0891855" lon="-2.2452425">
        <ele>70.675</ele>
        <time>2018-08-22T14:59:01.201Z</time>
      </trkpt>
      <trkpt lat="48.0890476" lon="-2.2452742">
        <ele>70.666</ele>
        <time>2018-08-22T14:59:04.166Z</time>
      </trkpt>
      <trkpt lat="48.0889026" lon="-2.2453022">
        <ele>70.585</ele>
        <time>2018-08-22T14:59:07.205Z</time>
      </trkpt>
      <trkpt lat="48.0887659" lon="-2.2453260">
        <ele>70.567</ele>
        <time>2018-08-22T14:59:10.174Z</time>
      </trkpt>
      <trkpt lat="48.0886425" lon="-2.2453526">
        <ele>70.734</ele>
        <time>2018-08-22T14:59:13.149Z</time>
      </trkpt>
      <trkpt lat="48.0885422" lon="-2.2453836">
        <ele>71.040</ele>
        <time>2018-08-22T14:59:15.901Z</time>
      </trkpt>
      <trkpt lat="48.0884453" lon="-2.2453846">
        <ele>71.393</ele>
        <time>2018-08-22T14:59:18.713Z</time>
      </trkpt>
      <trkpt lat="48.0883364" lon="-2.2454001">
        <ele>71.708</ele>
        <time>2018-08-22T14:59:21.802Z</time>
      </trkpt>
      <trkpt lat="48.0882278" lon="-2.2454189">
        <ele>71.909</ele>
        <time>2018-08-22T14:59:24.766Z</time>
      </trkpt>
      <trkpt lat="48.0881202" lon="-2.2454372">
        <ele>71.885</ele>
        <time>2018-08-22T14:59:27.738Z</time>
      </trkpt>
      <trkpt lat="48.0880180" lon="-2.2454472">
        <ele>71.588</ele>
        <time>2018-08-22T14:59:30.600Z</time>
      </trkpt>
      <trkpt lat="48.0879075" lon="-2.2454813">
        <ele>71.186</ele>
        <time>2018-08-22T14:59:33.659Z</time>
      </trkpt>
      <trkpt lat="48.0877917" lon="-2.2455080">
        <ele>70.834</ele>
        <time>2018-08-22T14:59:36.699Z</time>
      </trkpt>
      <trkpt lat="48.0876788" lon="-2.2455519">
        <ele>70.565</ele>
        <time>2018-08-22T14:59:39.701Z</time>
      </trkpt>
      <trkpt lat="48.0875708" lon="-2.2456092">
        <ele>70.460</ele>
        <time>2018-08-22T14:59:42.740Z</time>
      </trkpt>
      <trkpt lat="48.0874814" lon="-2.2456660">
        <ele>70.534</ele>
        <time>2018-08-22T14:59:45.486Z</time>
      </trkpt>
      <trkpt lat="48.0873986" lon="-2.2457326">
        <ele>70.596</ele>
        <time>2018-08-22T14:59:48.294Z</time>
      </trkpt>
      <trkpt lat="48.0873102" lon="-2.2458021">
        <ele>70.502</ele>
        <time>2018-08-22T14:59:51.275Z</time>
      </trkpt>
      <trkpt lat="48.0872168" lon="-2.2458744">
        <ele>70.348</ele>
        <time>2018-08-22T14:59:54.316Z</time>
      </trkpt>
      <trkpt lat="48.0871273" lon="-2.2459470">
        <ele>70.341</ele>
        <time>2018-08-22T14:59:57.240Z</time>
      </trkpt>
      <trkpt lat="48.0870360" lon="-2.2460201">
        <ele>70.542</ele>
        <time>2018-08-22T15:00:00.236Z</time>
      </trkpt>
      <trkpt lat="48.0869403" lon="-2.2460911">
        <ele>70.832</ele>
        <time>2018-08-22T15:00:03.299Z</time>
      </trkpt>
      <trkpt lat="48.0868513" lon="-2.2461653">
        <ele>71.190</ele>
        <time>2018-08-22T15:00:06.198Z</time>
      </trkpt>
      <trkpt lat="48.0867591" lon="-2.2462367">
        <ele>71.699</ele>
        <time>2018-08-22T15:00:09.159Z</time>
      </trkpt>
      <trkpt lat="48.0866709" lon="-2.2463138">
        <ele>72.208</ele>
        <time>2018-08-22T15:00:12.089Z</time>
      </trkpt>
      <trkpt lat="48.0865810" lon="-2.2463876">
        <ele>72.513</ele>
        <time>2018-08-22T15:00:15.046Z</time>
      </trkpt>
      <trkpt lat="48.0864885" lon="-2.2464658">
        <ele>72.628</ele>
        <time>2018-08-22T15:00:18.093Z</time>
      </trkpt>
      <trkpt lat="48.0864010" lon="-2.2465556">
        <ele>72.838</ele>
        <time>2018-08-22T15:00:21.112Z</time>
      </trkpt>
      <trkpt lat="48.0863174" lon="-2.2466439">
        <ele>73.397</ele>
        <time>2018-08-22T15:00:24.026Z</time>
      </trkpt>
      <trkpt lat="48.0862336" lon="-2.2467440">
        <ele>74.153</ele>
        <time>2018-08-22T15:00:27.066Z</time>
      </trkpt>
      <trkpt lat="48.0861491" lon="-2.2468494">
        <ele>74.758</ele>
        <time>2018-08-22T15:00:30.149Z</time>
      </trkpt>
      <trkpt lat="48.0860699" lon="-2.2469515">
        <ele>75.064</ele>
        <time>2018-08-22T15:00:33.053Z</time>
      </trkpt>
      <trkpt lat="48.0859896" lon="-2.2470632">
        <ele>75.136</ele>
        <time>2018-08-22T15:00:36.079Z</time>
      </trkpt>
      <trkpt lat="48.0859066" lon="-2.2471691">
        <ele>75.175</ele>
        <time>2018-08-22T15:00:39.059Z</time>
      </trkpt>
      <trkpt lat="48.0858240" lon="-2.2472732">
        <ele>75.290</ele>
        <time>2018-08-22T15:00:41.994Z</time>
      </trkpt>
      <trkpt lat="48.0858240" lon="-2.2472732">
        <ele>75.416</ele>
        <time>2018-08-22T15:00:43.994Z</time>
      </trkpt>
      <trkpt lat="48.0858240" lon="-2.2472732">
        <ele>75.455</ele>
        <time>2018-08-22T15:00:44.094Z</time>
      </trkpt>
      <trkpt lat="48.0856570" lon="-2.2474887">
        <ele>75.413</ele>
        <time>2018-08-22T15:00:51.624Z</time>
      </trkpt>
      <trkpt lat="48.0855723" lon="-2.2476005">
        <ele>75.356</ele>
        <time>2018-08-22T15:00:54.454Z</time>
      </trkpt>
      <trkpt lat="48.0854853" lon="-2.2477099">
        <ele>75.350</ele>
        <time>2018-08-22T15:00:57.291Z</time>
      </trkpt>
      <trkpt lat="48.0853994" lon="-2.2478241">
        <ele>75.457</ele>
        <time>2018-08-22T15:01:00.153Z</time>
      </trkpt>
      <trkpt lat="48.0853112" lon="-2.2479408">
        <ele>75.668</ele>
        <time>2018-08-22T15:01:03.092Z</time>
      </trkpt>
      <trkpt lat="48.0852204" lon="-2.2480441">
        <ele>75.890</ele>
        <time>2018-08-22T15:01:05.975Z</time>
      </trkpt>
      <trkpt lat="48.0851316" lon="-2.2481492">
        <ele>76.094</ele>
        <time>2018-08-22T15:01:08.855Z</time>
      </trkpt>
      <trkpt lat="48.0850427" lon="-2.2482550">
        <ele>76.358</ele>
        <time>2018-08-22T15:01:11.729Z</time>
      </trkpt>
      <trkpt lat="48.0849588" lon="-2.2483651">
        <ele>76.684</ele>
        <time>2018-08-22T15:01:14.542Z</time>
      </trkpt>
      <trkpt lat="48.0848764" lon="-2.2484766">
        <ele>76.973</ele>
        <time>2018-08-22T15:01:17.359Z</time>
      </trkpt>
      <trkpt lat="48.0847957" lon="-2.2485811">
        <ele>77.199</ele>
        <time>2018-08-22T15:01:20.102Z</time>
      </trkpt>
      <trkpt lat="48.0847061" lon="-2.2486783">
        <ele>77.409</ele>
        <time>2018-08-22T15:01:22.996Z</time>
      </trkpt>
      <trkpt lat="48.0846238" lon="-2.2487749">
        <ele>77.635</ele>
        <time>2018-08-22T15:01:25.803Z</time>
      </trkpt>
      <trkpt lat="48.0845453" lon="-2.2488688">
        <ele>77.882</ele>
        <time>2018-08-22T15:01:28.560Z</time>
      </trkpt>
      <trkpt lat="48.0844599" lon="-2.2489556">
        <ele>78.100</ele>
        <time>2018-08-22T15:01:31.431Z</time>
      </trkpt>
      <trkpt lat="48.0843749" lon="-2.2490427">
        <ele>78.348</ele>
        <time>2018-08-22T15:01:34.313Z</time>
      </trkpt>
      <trkpt lat="48.0842896" lon="-2.2491272">
        <ele>78.748</ele>
        <time>2018-08-22T15:01:37.192Z</time>
      </trkpt>
      <trkpt lat="48.0842030" lon="-2.2492000">
        <ele>79.237</ele>
        <time>2018-08-22T15:01:40.017Z</time>
      </trkpt>
      <trkpt lat="48.0841173" lon="-2.2492650">
        <ele>79.682</ele>
        <time>2018-08-22T15:01:42.803Z</time>
      </trkpt>
      <trkpt lat="48.0840370" lon="-2.2493273">
        <ele>80.086</ele>
        <time>2018-08-22T15:01:45.503Z</time>
      </trkpt>
      <trkpt lat="48.0839337" lon="-2.2494157">
        <ele>80.455</ele>
        <time>2018-08-22T15:01:49.182Z</time>
      </trkpt>
      <trkpt lat="48.0838279" lon="-2.2495014">
        <ele>80.849</ele>
        <time>2018-08-22T15:01:52.993Z</time>
      </trkpt>
      <trkpt lat="48.0838279" lon="-2.2495014">
        <ele>81.291</ele>
        <time>2018-08-22T15:01:52.993Z</time>
      </trkpt>
      <trkpt lat="48.0838279" lon="-2.2495014">
        <ele>81.564</ele>
        <time>2018-08-22T15:01:52.997Z</time>
      </trkpt>
      <trkpt lat="48.0836956" lon="-2.2496052">
        <ele>81.515</ele>
        <time>2018-08-22T15:02:00.368Z</time>
      </trkpt>
      <trkpt lat="48.0835960" lon="-2.2496857">
        <ele>81.443</ele>
        <time>2018-08-22T15:02:04.128Z</time>
      </trkpt>
      <trkpt lat="48.0834983" lon="-2.2497685">
        <ele>81.642</ele>
        <time>2018-08-22T15:02:07.902Z</time>
      </trkpt>
      <trkpt lat="48.0834003" lon="-2.2498594">
        <ele>82.036</ele>
        <time>2018-08-22T15:02:11.783Z</time>
      </trkpt>
      <trkpt lat="48.0832980" lon="-2.2499437">
        <ele>82.502</ele>
        <time>2018-08-22T15:02:15.673Z</time>
      </trkpt>
      <trkpt lat="48.0832000" lon="-2.2500321">
        <ele>82.976</ele>
        <time>2018-08-22T15:02:19.448Z</time>
      </trkpt>
      <trkpt lat="48.0830983" lon="-2.2501211">
        <ele>83.328</ele>
        <time>2018-08-22T15:02:23.309Z</time>
      </trkpt>
      <trkpt lat="48.0830198" lon="-2.2501889">
        <ele>83.501</ele>
        <time>2018-08-22T15:02:26.312Z</time>
      </trkpt>
      <trkpt lat="48.0829278" lon="-2.2502671">
        <ele>83.585</ele>
        <time>2018-08-22T15:02:30.050Z</time>
      </trkpt>
      <trkpt lat="48.0828326" lon="-2.2503539">
        <ele>83.667</ele>
        <time>2018-08-22T15:02:34.427Z</time>
      </trkpt>
      <trkpt lat="48.0827275" lon="-2.2504310">
        <ele>83.899</ele>
        <time>2018-08-22T15:02:38.836Z</time>
      </trkpt>
      <trkpt lat="48.0826423" lon="-2.2505015">
        <ele>84.356</ele>
        <time>2018-08-22T15:02:41.967Z</time>
      </trkpt>
      <trkpt lat="48.0825522" lon="-2.2505863">
        <ele>84.829</ele>
        <time>2018-08-22T15:02:45.082Z</time>
      </trkpt>
      <trkpt lat="48.0824521" lon="-2.2506733">
        <ele>85.052</ele>
        <time>2018-08-22T15:02:48.204Z</time>
      </trkpt>
      <trkpt lat="48.0823494" lon="-2.2507638">
        <ele>85.039</ele>
        <time>2018-08-22T15:02:51.228Z</time>
      </trkpt>
      <trkpt lat="48.0822420" lon="-2.2508547">
        <ele>84.939</ele>
        <time>2018-08-22T15:02:54.227Z</time>
      </trkpt>
      <trkpt lat="48.0821338" lon="-2.2509519">
        <ele>84.873</ele>
        <time>2018-08-22T15:02:57.233Z</time>
      </trkpt>
      <trkpt lat="48.0820302" lon="-2.2510445">
        <ele>84.858</ele>
        <time>2018-08-22T15:03:00.114Z</time>
      </trkpt>
      <trkpt lat="48.0819237" lon="-2.2511379">
        <ele>84.816</ele>
        <time>2018-08-22T15:03:03.070Z</time>
      </trkpt>
      <trkpt lat="48.0818225" lon="-2.2512349">
        <ele>84.650</ele>
        <time>2018-08-22T15:03:06.016Z</time>
      </trkpt>
      <trkpt lat="48.0817436" lon="-2.2513407">
        <ele>84.401</ele>
        <time>2018-08-22T15:03:08.921Z</time>
      </trkpt>
      <trkpt lat="48.0816774" lon="-2.2514343">
        <ele>84.230</ele>
        <time>2018-08-22T15:03:11.899Z</time>
      </trkpt>
      <trkpt lat="48.0816521" lon="-2.2513038">
        <ele>84.289</ele>
        <time>2018-08-22T15:03:16.180Z</time>
      </trkpt>
      <trkpt lat="48.0817471" lon="-2.2512662">
        <ele>84.628</ele>
        <time>2018-08-22T15:03:21.278Z</time>
      </trkpt>
      <trkpt lat="48.0816524" lon="-2.2513003">
        <ele>85.101</ele>
        <time>2018-08-22T15:03:25.492Z</time>
      </trkpt>
      <trkpt lat="48.0815912" lon="-2.2511644">
        <ele>85.469</ele>
        <time>2018-08-22T15:03:29.477Z</time>
      </trkpt>
      <trkpt lat="48.0815326" lon="-2.2510275">
        <ele>85.674</ele>
        <time>2018-08-22T15:03:32.747Z</time>
      </trkpt>
      <trkpt lat="48.0814688" lon="-2.2509060">
        <ele>85.820</ele>
        <time>2018-08-22T15:03:35.753Z</time>
      </trkpt>
      <trkpt lat="48.0814069" lon="-2.2508031">
        <ele>86.008</ele>
        <time>2018-08-22T15:03:38.575Z</time>
      </trkpt>
      <trkpt lat="48.0813293" lon="-2.2506973">
        <ele>86.328</ele>
        <time>2018-08-22T15:03:42.148Z</time>
      </trkpt>
      <trkpt lat="48.0812684" lon="-2.2505969">
        <ele>86.762</ele>
        <time>2018-08-22T15:03:45.836Z</time>
      </trkpt>
      <trkpt lat="48.0813621" lon="-2.2505823">
        <ele>87.148</ele>
        <time>2018-08-22T15:03:50.939Z</time>
      </trkpt>
      <trkpt lat="48.0814064" lon="-2.2507101">
        <ele>87.378</ele>
        <time>2018-08-22T15:03:57.042Z</time>
      </trkpt>
      <trkpt lat="48.0814663" lon="-2.2508541">
        <ele>87.427</ele>
        <time>2018-08-22T15:04:00.882Z</time>
      </trkpt>
      <trkpt lat="48.0815489" lon="-2.2509953">
        <ele>87.318</ele>
        <time>2018-08-22T15:04:04.147Z</time>
      </trkpt>
      <trkpt lat="48.0816294" lon="-2.2511494">
        <ele>87.047</ele>
        <time>2018-08-22T15:04:07.265Z</time>
      </trkpt>
      <trkpt lat="48.0816938" lon="-2.2512685">
        <ele>86.587</ele>
        <time>2018-08-22T15:04:09.920Z</time>
      </trkpt>
      <trkpt lat="48.0817616" lon="-2.2514079">
        <ele>86.023</ele>
        <time>2018-08-22T15:04:13.356Z</time>
      </trkpt>
      <trkpt lat="48.0818021" lon="-2.2515320">
        <ele>85.541</ele>
        <time>2018-08-22T15:04:16.301Z</time>
      </trkpt>
      <trkpt lat="48.0818748" lon="-2.2516224">
        <ele>85.214</ele>
        <time>2018-08-22T15:04:19.205Z</time>
      </trkpt>
      <trkpt lat="48.0819739" lon="-2.2516873">
        <ele>85.007</ele>
        <time>2018-08-22T15:04:22.468Z</time>
      </trkpt>
      <trkpt lat="48.0820602" lon="-2.2517285">
        <ele>84.781</ele>
        <time>2018-08-22T15:04:25.998Z</time>
      </trkpt>
      <trkpt lat="48.0820602" lon="-2.2517285">
        <ele>84.468</ele>
        <time>2018-08-22T15:04:27.998Z</time>
      </trkpt>
      <trkpt lat="48.0820602" lon="-2.2517285">
        <ele>84.224</ele>
        <time>2018-08-22T15:05:14.376Z</time>
      </trkpt>
      <trkpt lat="48.0822398" lon="-2.2517772">
        <ele>84.197</ele>
        <time>2018-08-22T15:05:24.591Z</time>
      </trkpt>
      <trkpt lat="48.0823962" lon="-2.2517486">
        <ele>84.051</ele>
        <time>2018-08-22T15:05:28.019Z</time>
      </trkpt>
      <trkpt lat="48.0825461" lon="-2.2517140">
        <ele>83.517</ele>
        <time>2018-08-22T15:05:30.836Z</time>
      </trkpt>
      <trkpt lat="48.0827111" lon="-2.2517389">
        <ele>82.909</ele>
        <time>2018-08-22T15:05:33.544Z</time>
      </trkpt>
      <trkpt lat="48.0828968" lon="-2.2518411">
        <ele>82.462</ele>
        <time>2018-08-22T15:05:36.491Z</time>
      </trkpt>
      <trkpt lat="48.0830844" lon="-2.2519669">
        <ele>81.854</ele>
        <time>2018-08-22T15:05:39.391Z</time>
      </trkpt>
      <trkpt lat="48.0832773" lon="-2.2521278">
        <ele>80.995</ele>
        <time>2018-08-22T15:05:42.365Z</time>
      </trkpt>
      <trkpt lat="48.0834710" lon="-2.2523086">
        <ele>80.152</ele>
        <time>2018-08-22T15:05:45.298Z</time>
      </trkpt>
      <trkpt lat="48.0836668" lon="-2.2525009">
        <ele>79.488</ele>
        <time>2018-08-22T15:05:48.168Z</time>
      </trkpt>
      <trkpt lat="48.0838311" lon="-2.2527798">
        <ele>78.815</ele>
        <time>2018-08-22T15:05:51.105Z</time>
      </trkpt>
      <trkpt lat="48.0839479" lon="-2.2531297">
        <ele>77.833</ele>
        <time>2018-08-22T15:05:54.118Z</time>
      </trkpt>
      <trkpt lat="48.0840572" lon="-2.2534855">
        <ele>76.495</ele>
        <time>2018-08-22T15:05:57.110Z</time>
      </trkpt>
      <trkpt lat="48.0842015" lon="-2.2537903">
        <ele>75.093</ele>
        <time>2018-08-22T15:06:00.017Z</time>
      </trkpt>
      <trkpt lat="48.0843842" lon="-2.2540466">
        <ele>73.830</ele>
        <time>2018-08-22T15:06:03.048Z</time>
      </trkpt>
      <trkpt lat="48.0845617" lon="-2.2542621">
        <ele>72.137</ele>
        <time>2018-08-22T15:06:05.980Z</time>
      </trkpt>
      <trkpt lat="48.0847365" lon="-2.2544526">
        <ele>71.591</ele>
        <time>2018-08-22T15:06:08.952Z</time>
      </trkpt>
      <trkpt lat="48.0849116" lon="-2.2546061">
        <ele>71.099</ele>
        <time>2018-08-22T15:06:11.965Z</time>
      </trkpt>
      <trkpt lat="48.0850761" lon="-2.2547253">
        <ele>70.187</ele>
        <time>2018-08-22T15:06:14.888Z</time>
      </trkpt>
      <trkpt lat="48.0852236" lon="-2.2548595">
        <ele>69.476</ele>
        <time>2018-08-22T15:06:17.825Z</time>
      </trkpt>
      <trkpt lat="48.0853289" lon="-2.2550565">
        <ele>68.644</ele>
        <time>2018-08-22T15:06:20.834Z</time>
      </trkpt>
      <trkpt lat="48.0853314" lon="-2.2552961">
        <ele>67.959</ele>
        <time>2018-08-22T15:06:23.743Z</time>
      </trkpt>
      <trkpt lat="48.0853306" lon="-2.2555422">
        <ele>67.526</ele>
        <time>2018-08-22T15:06:26.696Z</time>
      </trkpt>
      <trkpt lat="48.0853886" lon="-2.2557673">
        <ele>67.263</ele>
        <time>2018-08-22T15:06:29.506Z</time>
      </trkpt>
      <trkpt lat="48.0855294" lon="-2.2559279">
        <ele>67.023</ele>
        <time>2018-08-22T15:06:32.463Z</time>
      </trkpt>
      <trkpt lat="48.0857005" lon="-2.2560539">
        <ele>66.679</ele>
        <time>2018-08-22T15:06:35.555Z</time>
      </trkpt>
      <trkpt lat="48.0858617" lon="-2.2561694">
        <ele>66.162</ele>
        <time>2018-08-22T15:06:38.479Z</time>
      </trkpt>
      <trkpt lat="48.0860282" lon="-2.2562706">
        <ele>65.602</ele>
        <time>2018-08-22T15:06:41.525Z</time>
      </trkpt>
      <trkpt lat="48.0861758" lon="-2.2563766">
        <ele>65.137</ele>
        <time>2018-08-22T15:06:44.429Z</time>
      </trkpt>
      <trkpt lat="48.0863263" lon="-2.2564566">
        <ele>64.713</ele>
        <time>2018-08-22T15:06:47.347Z</time>
      </trkpt>
      <trkpt lat="48.0864727" lon="-2.2565507">
        <ele>64.222</ele>
        <time>2018-08-22T15:06:50.273Z</time>
      </trkpt>
      <trkpt lat="48.0866239" lon="-2.2566488">
        <ele>63.658</ele>
        <time>2018-08-22T15:06:53.263Z</time>
      </trkpt>
      <trkpt lat="48.0867657" lon="-2.2567551">
        <ele>63.073</ele>
        <time>2018-08-22T15:06:56.156Z</time>
      </trkpt>
      <trkpt lat="48.0869054" lon="-2.2568564">
        <ele>62.493</ele>
        <time>2018-08-22T15:06:59.065Z</time>
      </trkpt>
      <trkpt lat="48.0870601" lon="-2.2569366">
        <ele>61.973</ele>
        <time>2018-08-22T15:07:02.229Z</time>
      </trkpt>
      <trkpt lat="48.0871828" lon="-2.2570210">
        <ele>61.539</ele>
        <time>2018-08-22T15:07:05.011Z</time>
      </trkpt>
      <trkpt lat="48.0872967" lon="-2.2570959">
        <ele>61.163</ele>
        <time>2018-08-22T15:07:07.790Z</time>
      </trkpt>
      <trkpt lat="48.0874130" lon="-2.2571834">
        <ele>60.884</ele>
        <time>2018-08-22T15:07:10.791Z</time>
      </trkpt>
      <trkpt lat="48.0875319" lon="-2.2572636">
        <ele>60.745</ele>
        <time>2018-08-22T15:07:13.776Z</time>
      </trkpt>
      <trkpt lat="48.0876548" lon="-2.2573392">
        <ele>60.736</ele>
        <time>2018-08-22T15:07:16.793Z</time>
      </trkpt>
      <trkpt lat="48.0877754" lon="-2.2574159">
        <ele>60.852</ele>
        <time>2018-08-22T15:07:19.736Z</time>
      </trkpt>
      <trkpt lat="48.0879003" lon="-2.2574697">
        <ele>61.038</ele>
        <time>2018-08-22T15:07:22.702Z</time>
      </trkpt>
      <trkpt lat="48.0880176" lon="-2.2574918">
        <ele>61.071</ele>
        <time>2018-08-22T15:07:25.491Z</time>
      </trkpt>
      <trkpt lat="48.0881364" lon="-2.2574988">
        <ele>60.834</ele>
        <time>2018-08-22T15:07:28.383Z</time>
      </trkpt>
      <trkpt lat="48.0882654" lon="-2.2574757">
        <ele>60.491</ele>
        <time>2018-08-22T15:07:31.600Z</time>
      </trkpt>
      <trkpt lat="48.0883759" lon="-2.2574717">
        <ele>60.281</ele>
        <time>2018-08-22T15:07:34.552Z</time>
      </trkpt>
      <trkpt lat="48.0884920" lon="-2.2574747">
        <ele>60.253</ele>
        <time>2018-08-22T15:07:38.000Z</time>
      </trkpt>
      <trkpt lat="48.0886049" lon="-2.2574489">
        <ele>60.368</ele>
        <time>2018-08-22T15:07:41.709Z</time>
      </trkpt>
      <trkpt lat="48.0887133" lon="-2.2573963">
        <ele>60.631</ele>
        <time>2018-08-22T15:07:45.580Z</time>
      </trkpt>
      <trkpt lat="48.0888184" lon="-2.2573356">
        <ele>61.019</ele>
        <time>2018-08-22T15:07:49.471Z</time>
      </trkpt>
      <trkpt lat="48.0889098" lon="-2.2572686">
        <ele>61.429</ele>
        <time>2018-08-22T15:07:53.123Z</time>
      </trkpt>
      <trkpt lat="48.0889683" lon="-2.2571454">
        <ele>61.771</ele>
        <time>2018-08-22T15:07:56.979Z</time>
      </trkpt>
      <trkpt lat="48.0889928" lon="-2.2570024">
        <ele>62.115</ele>
        <time>2018-08-22T15:08:00.889Z</time>
      </trkpt>
      <trkpt lat="48.0890068" lon="-2.2568553">
        <ele>62.713</ele>
        <time>2018-08-22T15:08:04.892Z</time>
      </trkpt>
      <trkpt lat="48.0890405" lon="-2.2566885">
        <ele>63.566</ele>
        <time>2018-08-22T15:08:09.313Z</time>
      </trkpt>
      <trkpt lat="48.0890734" lon="-2.2565569">
        <ele>64.338</ele>
        <time>2018-08-22T15:08:12.533Z</time>
      </trkpt>
      <trkpt lat="48.0891156" lon="-2.2564369">
        <ele>64.806</ele>
        <time>2018-08-22T15:08:15.543Z</time>
      </trkpt>
      <trkpt lat="48.0891661" lon="-2.2562816">
        <ele>64.998</ele>
        <time>2018-08-22T15:08:19.432Z</time>
      </trkpt>
      <trkpt lat="48.0892123" lon="-2.2561658">
        <ele>65.021</ele>
        <time>2018-08-22T15:08:22.485Z</time>
      </trkpt>
      <trkpt lat="48.0892618" lon="-2.2560491">
        <ele>64.984</ele>
        <time>2018-08-22T15:08:25.556Z</time>
      </trkpt>
      <trkpt lat="48.0893146" lon="-2.2559329">
        <ele>64.998</ele>
        <time>2018-08-22T15:08:28.600Z</time>
      </trkpt>
      <trkpt lat="48.0893836" lon="-2.2557894">
        <ele>65.119</ele>
        <time>2018-08-22T15:08:32.382Z</time>
      </trkpt>
      <trkpt lat="48.0894047" lon="-2.2556291">
        <ele>65.257</ele>
        <time>2018-08-22T15:08:35.777Z</time>
      </trkpt>
      <trkpt lat="48.0894296" lon="-2.2554504">
        <ele>65.276</ele>
        <time>2018-08-22T15:08:39.117Z</time>
      </trkpt>
      <trkpt lat="48.0895199" lon="-2.2553718">
        <ele>65.084</ele>
        <time>2018-08-22T15:08:41.839Z</time>
      </trkpt>
      <trkpt lat="48.0896542" lon="-2.2554097">
        <ele>64.478</ele>
        <time>2018-08-22T15:08:45.333Z</time>
      </trkpt>
      <trkpt lat="48.0897741" lon="-2.2554352">
        <ele>63.424</ele>
        <time>2018-08-22T15:08:48.334Z</time>
      </trkpt>
      <trkpt lat="48.0898850" lon="-2.2554365">
        <ele>62.382</ele>
        <time>2018-08-22T15:08:51.214Z</time>
      </trkpt>
      <trkpt lat="48.0899957" lon="-2.2554089">
        <ele>61.802</ele>
        <time>2018-08-22T15:08:54.260Z</time>
      </trkpt>
      <trkpt lat="48.0900968" lon="-2.2553655">
        <ele>61.636</ele>
        <time>2018-08-22T15:08:57.200Z</time>
      </trkpt>
      <trkpt lat="48.0901950" lon="-2.2553610">
        <ele>61.681</ele>
        <time>2018-08-22T15:09:00.073Z</time>
      </trkpt>
      <trkpt lat="48.0902957" lon="-2.2553379">
        <ele>61.821</ele>
        <time>2018-08-22T15:09:03.575Z</time>
      </trkpt>
      <trkpt lat="48.0902000" lon="-2.2554002">
        <ele>62.012</ele>
        <time>2018-08-22T15:09:07.774Z</time>
      </trkpt>
      <trkpt lat="48.0901045" lon="-2.2553929">
        <ele>62.342</ele>
        <time>2018-08-22T15:09:11.575Z</time>
      </trkpt>
      <trkpt lat="48.0900130" lon="-2.2554145">
        <ele>62.840</ele>
        <time>2018-08-22T15:09:14.892Z</time>
      </trkpt>
      <trkpt lat="48.0899047" lon="-2.2554696">
        <ele>63.279</ele>
        <time>2018-08-22T15:09:18.831Z</time>
      </trkpt>
      <trkpt lat="48.0898112" lon="-2.2555159">
        <ele>63.485</ele>
        <time>2018-08-22T15:09:22.752Z</time>
      </trkpt>
      <trkpt lat="48.0898804" lon="-2.2554143">
        <ele>63.467</ele>
        <time>2018-08-22T15:09:27.397Z</time>
      </trkpt>
      <trkpt lat="48.0899898" lon="-2.2553979">
        <ele>63.283</ele>
        <time>2018-08-22T15:09:32.872Z</time>
      </trkpt>
      <trkpt lat="48.0900929" lon="-2.2553559">
        <ele>63.074</ele>
        <time>2018-08-22T15:09:36.675Z</time>
      </trkpt>
      <trkpt lat="48.0901912" lon="-2.2553505">
        <ele>62.953</ele>
        <time>2018-08-22T15:09:40.076Z</time>
      </trkpt>
      <trkpt lat="48.0902898" lon="-2.2553681">
        <ele>62.859</ele>
        <time>2018-08-22T15:09:44.412Z</time>
      </trkpt>
      <trkpt lat="48.0903798" lon="-2.2554072">
        <ele>62.296</ele>
        <time>2018-08-22T15:09:49.242Z</time>
      </trkpt>
      <trkpt lat="48.0904531" lon="-2.2555239">
        <ele>61.064</ele>
        <time>2018-08-22T15:09:55.319Z</time>
      </trkpt>
      <trkpt lat="48.0904634" lon="-2.2556730">
        <ele>59.878</ele>
        <time>2018-08-22T15:10:00.564Z</time>
      </trkpt>
      <trkpt lat="48.0904478" lon="-2.2558379">
        <ele>59.385</ele>
        <time>2018-08-22T15:10:05.747Z</time>
      </trkpt>
      <trkpt lat="48.0905094" lon="-2.2559610">
        <ele>59.442</ele>
        <time>2018-08-22T15:10:10.917Z</time>
      </trkpt>
      <trkpt lat="48.0906063" lon="-2.2559070">
        <ele>59.915</ele>
        <time>2018-08-22T15:10:16.178Z</time>
      </trkpt>
      <trkpt lat="48.0906975" lon="-2.2558281">
        <ele>60.711</ele>
        <time>2018-08-22T15:10:20.656Z</time>
      </trkpt>
      <trkpt lat="48.0907932" lon="-2.2557483">
        <ele>61.514</ele>
        <time>2018-08-22T15:10:25.160Z</time>
      </trkpt>
      <trkpt lat="48.0908801" lon="-2.2556470">
        <ele>62.077</ele>
        <time>2018-08-22T15:10:29.997Z</time>
      </trkpt>
      <trkpt lat="48.0908801" lon="-2.2556470">
        <ele>62.376</ele>
        <time>2018-08-22T15:10:34.998Z</time>
      </trkpt>
      <trkpt lat="48.0908801" lon="-2.2556470">
        <ele>62.427</ele>
        <time>2018-08-22T15:10:35.098Z</time>
      </trkpt>
      <trkpt lat="48.0907820" lon="-2.2557815">
        <ele>62.369</ele>
        <time>2018-08-22T15:10:44.055Z</time>
      </trkpt>
      <trkpt lat="48.0906720" lon="-2.2558449">
        <ele>62.476</ele>
        <time>2018-08-22T15:10:48.365Z</time>
      </trkpt>
      <trkpt lat="48.0905873" lon="-2.2559161">
        <ele>62.866</ele>
        <time>2018-08-22T15:10:51.607Z</time>
      </trkpt>
      <trkpt lat="48.0905084" lon="-2.2559895">
        <ele>63.259</ele>
        <time>2018-08-22T15:10:54.749Z</time>
      </trkpt>
      <trkpt lat="48.0904093" lon="-2.2560671">
        <ele>63.330</ele>
        <time>2018-08-22T15:10:58.638Z</time>
      </trkpt>
      <trkpt lat="48.0903254" lon="-2.2561912">
        <ele>63.127</ele>
        <time>2018-08-22T15:11:02.990Z</time>
      </trkpt>
      <trkpt lat="48.0902870" lon="-2.2563302">
        <ele>62.975</ele>
        <time>2018-08-22T15:11:06.832Z</time>
      </trkpt>
      <trkpt lat="48.0902412" lon="-2.2564808">
        <ele>63.192</ele>
        <time>2018-08-22T15:11:10.767Z</time>
      </trkpt>
      <trkpt lat="48.0901879" lon="-2.2565946">
        <ele>63.716</ele>
        <time>2018-08-22T15:11:13.908Z</time>
      </trkpt>
      <trkpt lat="48.0901410" lon="-2.2567128">
        <ele>64.240</ele>
        <time>2018-08-22T15:11:17.051Z</time>
      </trkpt>
      <trkpt lat="48.0900911" lon="-2.2568262">
        <ele>64.574</ele>
        <time>2018-08-22T15:11:20.377Z</time>
      </trkpt>
      <trkpt lat="48.0900806" lon="-2.2569666">
        <ele>64.713</ele>
        <time>2018-08-22T15:11:24.257Z</time>
      </trkpt>
      <trkpt lat="48.0901770" lon="-2.2570449">
        <ele>64.735</ele>
        <time>2018-08-22T15:11:28.656Z</time>
      </trkpt>
      <trkpt lat="48.0902927" lon="-2.2570775">
        <ele>64.871</ele>
        <time>2018-08-22T15:11:33.229Z</time>
      </trkpt>
      <trkpt lat="48.0903991" lon="-2.2570724">
        <ele>65.257</ele>
        <time>2018-08-22T15:11:37.499Z</time>
      </trkpt>
      <trkpt lat="48.0905095" lon="-2.2571003">
        <ele>65.693</ele>
        <time>2018-08-22T15:11:42.159Z</time>
      </trkpt>
      <trkpt lat="48.0906091" lon="-2.2571219">
        <ele>65.836</ele>
        <time>2018-08-22T15:11:46.414Z</time>
      </trkpt>
      <trkpt lat="48.0906920" lon="-2.2571866">
        <ele>65.633</ele>
        <time>2018-08-22T15:11:50.183Z</time>
      </trkpt>
      <trkpt lat="48.0907817" lon="-2.2572697">
        <ele>65.410</ele>
        <time>2018-08-22T15:11:54.172Z</time>
      </trkpt>
      <trkpt lat="48.0908674" lon="-2.2573720">
        <ele>65.476</ele>
        <time>2018-08-22T15:11:58.233Z</time>
      </trkpt>
      <trkpt lat="48.0909539" lon="-2.2574693">
        <ele>65.743</ele>
        <time>2018-08-22T15:12:02.283Z</time>
      </trkpt>
      <trkpt lat="48.0910184" lon="-2.2576025">
        <ele>65.992</ele>
        <time>2018-08-22T15:12:06.442Z</time>
      </trkpt>
      <trkpt lat="48.0910702" lon="-2.2577391">
        <ele>66.148</ele>
        <time>2018-08-22T15:12:10.384Z</time>
      </trkpt>
      <trkpt lat="48.0911355" lon="-2.2578693">
        <ele>66.267</ele>
        <time>2018-08-22T15:12:14.415Z</time>
      </trkpt>
      <trkpt lat="48.0911960" lon="-2.2580009">
        <ele>66.459</ele>
        <time>2018-08-22T15:12:18.282Z</time>
      </trkpt>
      <trkpt lat="48.0912777" lon="-2.2581151">
        <ele>66.758</ele>
        <time>2018-08-22T15:12:22.304Z</time>
      </trkpt>
      <trkpt lat="48.0913701" lon="-2.2582134">
        <ele>67.024</ele>
        <time>2018-08-22T15:12:26.655Z</time>
      </trkpt>
      <trkpt lat="48.0914005" lon="-2.2583536">
        <ele>67.150</ele>
        <time>2018-08-22T15:12:30.762Z</time>
      </trkpt>
      <trkpt lat="48.0913334" lon="-2.2584742">
        <ele>67.261</ele>
        <time>2018-08-22T15:12:35.039Z</time>
      </trkpt>
      <trkpt lat="48.0912680" lon="-2.2585954">
        <ele>67.486</ele>
        <time>2018-08-22T15:12:39.724Z</time>
      </trkpt>
      <trkpt lat="48.0912023" lon="-2.2587229">
        <ele>67.757</ele>
        <time>2018-08-22T15:12:46.934Z</time>
      </trkpt>
      <trkpt lat="48.0911715" lon="-2.2588493">
        <ele>67.969</ele>
        <time>2018-08-22T15:12:54.580Z</time>
      </trkpt>
      <trkpt lat="48.0912445" lon="-2.2587663">
        <ele>68.202</ele>
        <time>2018-08-22T15:13:02.467Z</time>
      </trkpt>
      <trkpt lat="48.0913160" lon="-2.2588484">
        <ele>68.602</ele>
        <time>2018-08-22T15:13:10.215Z</time>
      </trkpt>
      <trkpt lat="48.0914022" lon="-2.2589406">
        <ele>69.161</ele>
        <time>2018-08-22T15:13:17.996Z</time>
      </trkpt>
      <trkpt lat="48.0914022" lon="-2.2589406">
        <ele>69.710</ele>
        <time>2018-08-22T15:13:20.996Z</time>
      </trkpt>
      <trkpt lat="48.0914022" lon="-2.2589406">
        <ele>70.004</ele>
        <time>2018-08-22T15:13:21.096Z</time>
      </trkpt>
      <trkpt lat="48.0915900" lon="-2.2591191">
        <ele>69.952</ele>
        <time>2018-08-22T15:13:33.217Z</time>
      </trkpt>
      <trkpt lat="48.0916567" lon="-2.2592245">
        <ele>69.944</ele>
        <time>2018-08-22T15:13:37.083Z</time>
      </trkpt>
      <trkpt lat="48.0916495" lon="-2.2593899">
        <ele>70.283</ele>
        <time>2018-08-22T15:13:40.872Z</time>
      </trkpt>
      <trkpt lat="48.0915920" lon="-2.2595127">
        <ele>70.713</ele>
        <time>2018-08-22T15:13:43.881Z</time>
      </trkpt>
      <trkpt lat="48.0915265" lon="-2.2596261">
        <ele>70.927</ele>
        <time>2018-08-22T15:13:46.693Z</time>
      </trkpt>
      <trkpt lat="48.0914649" lon="-2.2597563">
        <ele>70.975</ele>
        <time>2018-08-22T15:13:49.598Z</time>
      </trkpt>
      <trkpt lat="48.0914004" lon="-2.2598917">
        <ele>70.977</ele>
        <time>2018-08-22T15:13:52.408Z</time>
      </trkpt>
      <trkpt lat="48.0913323" lon="-2.2600323">
        <ele>70.972</ele>
        <time>2018-08-22T15:13:55.177Z</time>
      </trkpt>
      <trkpt lat="48.0912623" lon="-2.2601959">
        <ele>70.925</ele>
        <time>2018-08-22T15:13:58.304Z</time>
      </trkpt>
      <trkpt lat="48.0911934" lon="-2.2603496">
        <ele>70.850</ele>
        <time>2018-08-22T15:14:01.370Z</time>
      </trkpt>
      <trkpt lat="48.0911338" lon="-2.2604985">
        <ele>70.797</ele>
        <time>2018-08-22T15:14:04.326Z</time>
      </trkpt>
      <trkpt lat="48.0910833" lon="-2.2606484">
        <ele>70.730</ele>
        <time>2018-08-22T15:14:07.269Z</time>
      </trkpt>
      <trkpt lat="48.0910102" lon="-2.2607736">
        <ele>70.614</ele>
        <time>2018-08-22T15:14:10.264Z</time>
      </trkpt>
      <trkpt lat="48.0909466" lon="-2.2609025">
        <ele>70.510</ele>
        <time>2018-08-22T15:14:13.204Z</time>
      </trkpt>
      <trkpt lat="48.0908983" lon="-2.2610429">
        <ele>70.465</ele>
        <time>2018-08-22T15:14:16.092Z</time>
      </trkpt>
      <trkpt lat="48.0908325" lon="-2.2611722">
        <ele>70.500</ele>
        <time>2018-08-22T15:14:19.047Z</time>
      </trkpt>
      <trkpt lat="48.0907757" lon="-2.2612995">
        <ele>70.612</ele>
        <time>2018-08-22T15:14:21.865Z</time>
      </trkpt>
      <trkpt lat="48.0907130" lon="-2.2614273">
        <ele>70.723</ele>
        <time>2018-08-22T15:14:24.795Z</time>
      </trkpt>
      <trkpt lat="48.0906543" lon="-2.2615526">
        <ele>70.636</ele>
        <time>2018-08-22T15:14:27.591Z</time>
      </trkpt>
      <trkpt lat="48.0905994" lon="-2.2616918">
        <ele>70.286</ele>
        <time>2018-08-22T15:14:30.573Z</time>
      </trkpt>
      <trkpt lat="48.0905453" lon="-2.2618279">
        <ele>69.859</ele>
        <time>2018-08-22T15:14:33.567Z</time>
      </trkpt>
      <trkpt lat="48.0904870" lon="-2.2619566">
        <ele>69.596</ele>
        <time>2018-08-22T15:14:36.505Z</time>
      </trkpt>
      <trkpt lat="48.0904310" lon="-2.2620842">
        <ele>69.512</ele>
        <time>2018-08-22T15:14:39.385Z</time>
      </trkpt>
      <trkpt lat="48.0903724" lon="-2.2622111">
        <ele>69.483</ele>
        <time>2018-08-22T15:14:42.364Z</time>
      </trkpt>
      <trkpt lat="48.0903143" lon="-2.2623230">
        <ele>69.423</ele>
        <time>2018-08-22T15:14:45.159Z</time>
      </trkpt>
      <trkpt lat="48.0902573" lon="-2.2624395">
        <ele>69.332</ele>
        <time>2018-08-22T15:14:47.999Z</time>
      </trkpt>
      <trkpt lat="48.0901989" lon="-2.2625590">
        <ele>69.213</ele>
        <time>2018-08-22T15:14:50.859Z</time>
      </trkpt>
      <trkpt lat="48.0901387" lon="-2.2626852">
        <ele>69.105</ele>
        <time>2018-08-22T15:14:53.805Z</time>
      </trkpt>
      <trkpt lat="48.0900802" lon="-2.2628185">
        <ele>69.012</ele>
        <time>2018-08-22T15:14:56.930Z</time>
      </trkpt>
      <trkpt lat="48.0900232" lon="-2.2629365">
        <ele>68.924</ele>
        <time>2018-08-22T15:14:59.924Z</time>
      </trkpt>
      <trkpt lat="48.0899591" lon="-2.2630818">
        <ele>68.902</ele>
        <time>2018-08-22T15:15:03.452Z</time>
      </trkpt>
      <trkpt lat="48.0898969" lon="-2.2631998">
        <ele>68.980</ele>
        <time>2018-08-22T15:15:06.257Z</time>
      </trkpt>
      <trkpt lat="48.0898270" lon="-2.2633247">
        <ele>69.045</ele>
        <time>2018-08-22T15:15:08.995Z</time>
      </trkpt>
      <trkpt lat="48.0897384" lon="-2.2634628">
        <ele>68.914</ele>
        <time>2018-08-22T15:15:11.887Z</time>
      </trkpt>
      <trkpt lat="48.0896527" lon="-2.2636244">
        <ele>68.580</ele>
        <time>2018-08-22T15:15:14.765Z</time>
      </trkpt>
      <trkpt lat="48.0895413" lon="-2.2638010">
        <ele>68.167</ele>
        <time>2018-08-22T15:15:17.939Z</time>
      </trkpt>
      <trkpt lat="48.0894366" lon="-2.2639722">
        <ele>67.578</ele>
        <time>2018-08-22T15:15:20.831Z</time>
      </trkpt>
      <trkpt lat="48.0893264" lon="-2.2641425">
        <ele>66.626</ele>
        <time>2018-08-22T15:15:23.661Z</time>
      </trkpt>
      <trkpt lat="48.0892150" lon="-2.2643121">
        <ele>65.433</ele>
        <time>2018-08-22T15:15:26.359Z</time>
      </trkpt>
      <trkpt lat="48.0890896" lon="-2.2645157">
        <ele>64.365</ele>
        <time>2018-08-22T15:15:29.483Z</time>
      </trkpt>
      <trkpt lat="48.0889642" lon="-2.2646862">
        <ele>63.649</ele>
        <time>2018-08-22T15:15:32.364Z</time>
      </trkpt>
      <trkpt lat="48.0888401" lon="-2.2648927">
        <ele>63.131</ele>
        <time>2018-08-22T15:15:35.460Z</time>
      </trkpt>
      <trkpt lat="48.0887153" lon="-2.2650730">
        <ele>62.612</ele>
        <time>2018-08-22T15:15:38.393Z</time>
      </trkpt>
      <trkpt lat="48.0886068" lon="-2.2652450">
        <ele>62.194</ele>
        <time>2018-08-22T15:15:41.182Z</time>
      </trkpt>
      <trkpt lat="48.0884923" lon="-2.2654115">
        <ele>62.127</ele>
        <time>2018-08-22T15:15:44.151Z</time>
      </trkpt>
      <trkpt lat="48.0883940" lon="-2.2655723">
        <ele>62.429</ele>
        <time>2018-08-22T15:15:46.929Z</time>
      </trkpt>
      <trkpt lat="48.0882828" lon="-2.2657267">
        <ele>62.801</ele>
        <time>2018-08-22T15:15:49.800Z</time>
      </trkpt>
      <trkpt lat="48.0881729" lon="-2.2658851">
        <ele>62.949</ele>
        <time>2018-08-22T15:15:52.668Z</time>
      </trkpt>
      <trkpt lat="48.0880588" lon="-2.2660426">
        <ele>62.838</ele>
        <time>2018-08-22T15:15:55.613Z</time>
      </trkpt>
      <trkpt lat="48.0879535" lon="-2.2662040">
        <ele>62.604</ele>
        <time>2018-08-22T15:15:58.608Z</time>
      </trkpt>
      <trkpt lat="48.0878485" lon="-2.2663295">
        <ele>62.356</ele>
        <time>2018-08-22T15:16:01.956Z</time>
      </trkpt>
      <trkpt lat="48.0878010" lon="-2.2664542">
        <ele>62.022</ele>
        <time>2018-08-22T15:16:05.107Z</time>
      </trkpt>
      <trkpt lat="48.0877401" lon="-2.2665621">
        <ele>61.560</ele>
        <time>2018-08-22T15:16:09.012Z</time>
      </trkpt>
      <trkpt lat="48.0877666" lon="-2.2667024">
        <ele>61.122</ele>
        <time>2018-08-22T15:16:12.729Z</time>
      </trkpt>
      <trkpt lat="48.0877898" lon="-2.2668824">
        <ele>60.968</ele>
        <time>2018-08-22T15:16:16.722Z</time>
      </trkpt>
      <trkpt lat="48.0877760" lon="-2.2670452">
        <ele>61.151</ele>
        <time>2018-08-22T15:16:19.751Z</time>
      </trkpt>
      <trkpt lat="48.0877211" lon="-2.2672110">
        <ele>61.393</ele>
        <time>2018-08-22T15:16:22.787Z</time>
      </trkpt>
      <trkpt lat="48.0876515" lon="-2.2673943">
        <ele>61.330</ele>
        <time>2018-08-22T15:16:25.886Z</time>
      </trkpt>
      <trkpt lat="48.0875791" lon="-2.2675854">
        <ele>60.790</ele>
        <time>2018-08-22T15:16:28.998Z</time>
      </trkpt>
      <trkpt lat="48.0875240" lon="-2.2677578">
        <ele>59.991</ele>
        <time>2018-08-22T15:16:31.817Z</time>
      </trkpt>
      <trkpt lat="48.0874688" lon="-2.2679507">
        <ele>59.637</ele>
        <time>2018-08-22T15:16:35.014Z</time>
      </trkpt>
      <trkpt lat="48.0874184" lon="-2.2681590">
        <ele>60.212</ele>
        <time>2018-08-22T15:16:38.405Z</time>
      </trkpt>
      <trkpt lat="48.0873532" lon="-2.2683170">
        <ele>61.287</ele>
        <time>2018-08-22T15:16:41.447Z</time>
      </trkpt>
      <trkpt lat="48.0872926" lon="-2.2684778">
        <ele>62.093</ele>
        <time>2018-08-22T15:16:44.706Z</time>
      </trkpt>
      <trkpt lat="48.0872491" lon="-2.2686321">
        <ele>62.508</ele>
        <time>2018-08-22T15:16:47.871Z</time>
      </trkpt>
      <trkpt lat="48.0871960" lon="-2.2687616">
        <ele>62.836</ele>
        <time>2018-08-22T15:16:50.795Z</time>
      </trkpt>
      <trkpt lat="48.0871408" lon="-2.2688930">
        <ele>63.185</ele>
        <time>2018-08-22T15:16:53.844Z</time>
      </trkpt>
      <trkpt lat="48.0870818" lon="-2.2690191">
        <ele>63.498</ele>
        <time>2018-08-22T15:16:56.870Z</time>
      </trkpt>
      <trkpt lat="48.0870219" lon="-2.2691347">
        <ele>63.723</ele>
        <time>2018-08-22T15:16:59.767Z</time>
      </trkpt>
      <trkpt lat="48.0869643" lon="-2.2692407">
        <ele>63.773</ele>
        <time>2018-08-22T15:17:02.535Z</time>
      </trkpt>
      <trkpt lat="48.0869127" lon="-2.2693888">
        <ele>63.618</ele>
        <time>2018-08-22T15:17:06.133Z</time>
      </trkpt>
      <trkpt lat="48.0868594" lon="-2.2695220">
        <ele>63.252</ele>
        <time>2018-08-22T15:17:09.782Z</time>
      </trkpt>
      <trkpt lat="48.0867845" lon="-2.2696528">
        <ele>62.768</ele>
        <time>2018-08-22T15:17:13.873Z</time>
      </trkpt>
      <trkpt lat="48.0867252" lon="-2.2697542">
        <ele>62.511</ele>
        <time>2018-08-22T15:17:17.028Z</time>
      </trkpt>
      <trkpt lat="48.0866484" lon="-2.2698848">
        <ele>62.925</ele>
        <time>2018-08-22T15:17:21.070Z</time>
      </trkpt>
      <trkpt lat="48.0865764" lon="-2.2700132">
        <ele>63.998</ele>
        <time>2018-08-22T15:17:24.997Z</time>
      </trkpt>
      <trkpt lat="48.0865028" lon="-2.2701391">
        <ele>65.315</ele>
        <time>2018-08-22T15:17:28.901Z</time>
      </trkpt>
      <trkpt lat="48.0864302" lon="-2.2702793">
        <ele>66.542</ele>
        <time>2018-08-22T15:17:32.942Z</time>
      </trkpt>
      <trkpt lat="48.0863481" lon="-2.2704121">
        <ele>67.465</ele>
        <time>2018-08-22T15:17:36.916Z</time>
      </trkpt>
      <trkpt lat="48.0862858" lon="-2.2705232">
        <ele>67.693</ele>
        <time>2018-08-22T15:17:39.997Z</time>
      </trkpt>
      <trkpt lat="48.0862858" lon="-2.2705232">
        <ele>67.188</ele>
        <time>2018-08-22T15:17:41.998Z</time>
      </trkpt>
      <trkpt lat="48.0862858" lon="-2.2705232">
        <ele>66.646</ele>
        <time>2018-08-22T15:17:42.098Z</time>
      </trkpt>
      <trkpt lat="48.0861618" lon="-2.2707725">
        <ele>66.614</ele>
        <time>2018-08-22T15:17:49.787Z</time>
      </trkpt>
      <trkpt lat="48.0860968" lon="-2.2709048">
        <ele>66.807</ele>
        <time>2018-08-22T15:17:52.677Z</time>
      </trkpt>
      <trkpt lat="48.0860278" lon="-2.2710380">
        <ele>66.771</ele>
        <time>2018-08-22T15:17:55.464Z</time>
      </trkpt>
      <trkpt lat="48.0859541" lon="-2.2711859">
        <ele>66.488</ele>
        <time>2018-08-22T15:17:58.172Z</time>
      </trkpt>
      <trkpt lat="48.0859005" lon="-2.2713034">
        <ele>66.100</ele>
        <time>2018-08-22T15:18:00.057Z</time>
      </trkpt>
      <trkpt lat="48.0858368" lon="-2.2714197">
        <ele>65.647</ele>
        <time>2018-08-22T15:18:01.900Z</time>
      </trkpt>
      <trkpt lat="48.0857677" lon="-2.2715461">
        <ele>65.201</ele>
        <time>2018-08-22T15:18:03.762Z</time>
      </trkpt>
      <trkpt lat="48.0856977" lon="-2.2716875">
        <ele>64.887</ele>
        <time>2018-08-22T15:18:05.629Z</time>
      </trkpt>
      <trkpt lat="48.0856228" lon="-2.2718393">
        <ele>64.617</ele>
        <time>2018-08-22T15:18:07.494Z</time>
      </trkpt>
      <trkpt lat="48.0855442" lon="-2.2720001">
        <ele>64.267</ele>
        <time>2018-08-22T15:18:09.361Z</time>
      </trkpt>
      <trkpt lat="48.0854651" lon="-2.2721796">
        <ele>63.790</ele>
        <time>2018-08-22T15:18:11.333Z</time>
      </trkpt>
      <trkpt lat="48.0853871" lon="-2.2723601">
        <ele>63.195</ele>
        <time>2018-08-22T15:18:13.340Z</time>
      </trkpt>
      <trkpt lat="48.0852846" lon="-2.2726186">
        <ele>62.628</ele>
        <time>2018-08-22T15:18:16.313Z</time>
      </trkpt>
      <trkpt lat="48.0852088" lon="-2.2728738">
        <ele>62.277</ele>
        <time>2018-08-22T15:18:19.399Z</time>
      </trkpt>
      <trkpt lat="48.0851499" lon="-2.2730882">
        <ele>62.130</ele>
        <time>2018-08-22T15:18:22.323Z</time>
      </trkpt>
      <trkpt lat="48.0851092" lon="-2.2732816">
        <ele>62.162</ele>
        <time>2018-08-22T15:18:25.227Z</time>
      </trkpt>
      <trkpt lat="48.0850846" lon="-2.2734666">
        <ele>62.389</ele>
        <time>2018-08-22T15:18:28.327Z</time>
      </trkpt>
      <trkpt lat="48.0850448" lon="-2.2736084">
        <ele>62.752</ele>
        <time>2018-08-22T15:18:31.130Z</time>
      </trkpt>
      <trkpt lat="48.0850096" lon="-2.2737668">
        <ele>63.114</ele>
        <time>2018-08-22T15:18:34.295Z</time>
      </trkpt>
      <trkpt lat="48.0849808" lon="-2.2739133">
        <ele>63.433</ele>
        <time>2018-08-22T15:18:37.286Z</time>
      </trkpt>
      <trkpt lat="48.0849572" lon="-2.2740468">
        <ele>63.721</ele>
        <time>2018-08-22T15:18:40.099Z</time>
      </trkpt>
      <trkpt lat="48.0849293" lon="-2.2741765">
        <ele>63.966</ele>
        <time>2018-08-22T15:18:42.887Z</time>
      </trkpt>
      <trkpt lat="48.0848971" lon="-2.2743146">
        <ele>64.170</ele>
        <time>2018-08-22T15:18:45.845Z</time>
      </trkpt>
      <trkpt lat="48.0848640" lon="-2.2744502">
        <ele>64.441</ele>
        <time>2018-08-22T15:18:48.750Z</time>
      </trkpt>
      <trkpt lat="48.0848292" lon="-2.2745888">
        <ele>64.822</ele>
        <time>2018-08-22T15:18:51.688Z</time>
      </trkpt>
      <trkpt lat="48.0848021" lon="-2.2747312">
        <ele>65.281</ele>
        <time>2018-08-22T15:18:54.564Z</time>
      </trkpt>
      <trkpt lat="48.0847753" lon="-2.2748760">
        <ele>65.746</ele>
        <time>2018-08-22T15:18:57.516Z</time>
      </trkpt>
      <trkpt lat="48.0847432" lon="-2.2750043">
        <ele>66.084</ele>
        <time>2018-08-22T15:19:00.589Z</time>
      </trkpt>
      <trkpt lat="48.0847114" lon="-2.2751497">
        <ele>66.215</ele>
        <time>2018-08-22T15:19:04.621Z</time>
      </trkpt>
      <trkpt lat="48.0846317" lon="-2.2752318">
        <ele>66.240</ele>
        <time>2018-08-22T15:19:09.645Z</time>
      </trkpt>
      <trkpt lat="48.0845353" lon="-2.2752324">
        <ele>66.424</ele>
        <time>2018-08-22T15:19:14.998Z</time>
      </trkpt>
      <trkpt lat="48.0845353" lon="-2.2752324">
        <ele>66.898</ele>
        <time>2018-08-22T15:19:29.997Z</time>
      </trkpt>
      <trkpt lat="48.0845353" lon="-2.2752324">
        <ele>67.283</ele>
        <time>2018-08-22T15:20:19.175Z</time>
      </trkpt>
      <trkpt lat="48.0843254" lon="-2.2751066">
        <ele>67.249</ele>
        <time>2018-08-22T15:20:33.820Z</time>
      </trkpt>
      <trkpt lat="48.0842269" lon="-2.2750545">
        <ele>67.443</ele>
        <time>2018-08-22T15:20:36.749Z</time>
      </trkpt>
      <trkpt lat="48.0841163" lon="-2.2749961">
        <ele>68.400</ele>
        <time>2018-08-22T15:20:39.598Z</time>
      </trkpt>
      <trkpt lat="48.0839986" lon="-2.2749271">
        <ele>69.490</ele>
        <time>2018-08-22T15:20:42.300Z</time>
      </trkpt>
      <trkpt lat="48.0838559" lon="-2.2748531">
        <ele>70.021</ele>
        <time>2018-08-22T15:20:45.188Z</time>
      </trkpt>
      <trkpt lat="48.0837047" lon="-2.2747784">
        <ele>70.057</ele>
        <time>2018-08-22T15:20:47.974Z</time>
      </trkpt>
      <trkpt lat="48.0835394" lon="-2.2747042">
        <ele>69.793</ele>
        <time>2018-08-22T15:20:50.737Z</time>
      </trkpt>
      <trkpt lat="48.0833611" lon="-2.2746087">
        <ele>69.345</ele>
        <time>2018-08-22T15:20:53.617Z</time>
      </trkpt>
      <trkpt lat="48.0831798" lon="-2.2745086">
        <ele>68.806</ele>
        <time>2018-08-22T15:20:56.680Z</time>
      </trkpt>
      <trkpt lat="48.0830180" lon="-2.2745434">
        <ele>68.205</ele>
        <time>2018-08-22T15:20:59.538Z</time>
      </trkpt>
      <trkpt lat="48.0829039" lon="-2.2747117">
        <ele>67.416</ele>
        <time>2018-08-22T15:21:02.556Z</time>
      </trkpt>
      <trkpt lat="48.0828000" lon="-2.2748585">
        <ele>66.341</ele>
        <time>2018-08-22T15:21:05.517Z</time>
      </trkpt>
      <trkpt lat="48.0827117" lon="-2.2749950">
        <ele>65.224</ele>
        <time>2018-08-22T15:21:08.368Z</time>
      </trkpt>
      <trkpt lat="48.0826290" lon="-2.2751272">
        <ele>64.443</ele>
        <time>2018-08-22T15:21:11.307Z</time>
      </trkpt>
      <trkpt lat="48.0825506" lon="-2.2752434">
        <ele>64.071</ele>
        <time>2018-08-22T15:21:14.209Z</time>
      </trkpt>
      <trkpt lat="48.0824606" lon="-2.2753277">
        <ele>63.955</ele>
        <time>2018-08-22T15:21:17.089Z</time>
      </trkpt>
      <trkpt lat="48.0823534" lon="-2.2753065">
        <ele>63.972</ele>
        <time>2018-08-22T15:21:19.828Z</time>
      </trkpt>
      <trkpt lat="48.0822770" lon="-2.2750908">
        <ele>64.034</ele>
        <time>2018-08-22T15:21:23.465Z</time>
      </trkpt>
      <trkpt lat="48.0821941" lon="-2.2749238">
        <ele>63.989</ele>
        <time>2018-08-22T15:21:26.602Z</time>
      </trkpt>
      <trkpt lat="48.0821304" lon="-2.2748016">
        <ele>63.748</ele>
        <time>2018-08-22T15:21:30.149Z</time>
      </trkpt>
      <trkpt lat="48.0821488" lon="-2.2749516">
        <ele>63.407</ele>
        <time>2018-08-22T15:21:33.873Z</time>
      </trkpt>
      <trkpt lat="48.0820521" lon="-2.2750227">
        <ele>63.130</ele>
        <time>2018-08-22T15:21:38.884Z</time>
      </trkpt>
      <trkpt lat="48.0819866" lon="-2.2751765">
        <ele>62.992</ele>
        <time>2018-08-22T15:21:45.028Z</time>
      </trkpt>
      <trkpt lat="48.0819029" lon="-2.2752886">
        <ele>62.993</ele>
        <time>2018-08-22T15:21:48.824Z</time>
      </trkpt>
      <trkpt lat="48.0818220" lon="-2.2753916">
        <ele>63.061</ele>
        <time>2018-08-22T15:21:51.806Z</time>
      </trkpt>
      <trkpt lat="48.0817582" lon="-2.2754914">
        <ele>62.887</ele>
        <time>2018-08-22T15:21:54.373Z</time>
      </trkpt>
      <trkpt lat="48.0816868" lon="-2.2755988">
        <ele>62.017</ele>
        <time>2018-08-22T15:21:57.243Z</time>
      </trkpt>
      <trkpt lat="48.0815995" lon="-2.2757137">
        <ele>60.657</ele>
        <time>2018-08-22T15:22:00.671Z</time>
      </trkpt>
      <trkpt lat="48.0815319" lon="-2.2758176">
        <ele>59.668</ele>
        <time>2018-08-22T15:22:03.644Z</time>
      </trkpt>
      <trkpt lat="48.0814591" lon="-2.2759571">
        <ele>59.546</ele>
        <time>2018-08-22T15:22:07.279Z</time>
      </trkpt>
      <trkpt lat="48.0813827" lon="-2.2760948">
        <ele>60.075</ele>
        <time>2018-08-22T15:22:10.595Z</time>
      </trkpt>
      <trkpt lat="48.0813053" lon="-2.2762158">
        <ele>60.741</ele>
        <time>2018-08-22T15:22:13.508Z</time>
      </trkpt>
      <trkpt lat="48.0812233" lon="-2.2763337">
        <ele>61.003</ele>
        <time>2018-08-22T15:22:16.406Z</time>
      </trkpt>
      <trkpt lat="48.0811382" lon="-2.2764624">
        <ele>60.596</ele>
        <time>2018-08-22T15:22:19.444Z</time>
      </trkpt>
      <trkpt lat="48.0810541" lon="-2.2765790">
        <ele>59.770</ele>
        <time>2018-08-22T15:22:22.297Z</time>
      </trkpt>
      <trkpt lat="48.0809747" lon="-2.2766926">
        <ele>59.051</ele>
        <time>2018-08-22T15:22:25.022Z</time>
      </trkpt>
      <trkpt lat="48.0808754" lon="-2.2768157">
        <ele>58.703</ele>
        <time>2018-08-22T15:22:28.188Z</time>
      </trkpt>
      <trkpt lat="48.0807906" lon="-2.2769497">
        <ele>58.641</ele>
        <time>2018-08-22T15:22:31.120Z</time>
      </trkpt>
      <trkpt lat="48.0807129" lon="-2.2770702">
        <ele>58.684</ele>
        <time>2018-08-22T15:22:33.712Z</time>
      </trkpt>
      <trkpt lat="48.0806186" lon="-2.2771873">
        <ele>58.809</ele>
        <time>2018-08-22T15:22:36.569Z</time>
      </trkpt>
      <trkpt lat="48.0805273" lon="-2.2773209">
        <ele>59.142</ele>
        <time>2018-08-22T15:22:39.578Z</time>
      </trkpt>
      <trkpt lat="48.0804383" lon="-2.2774506">
        <ele>59.641</ele>
        <time>2018-08-22T15:22:42.463Z</time>
      </trkpt>
      <trkpt lat="48.0803302" lon="-2.2775976">
        <ele>60.055</ele>
        <time>2018-08-22T15:22:45.808Z</time>
      </trkpt>
      <trkpt lat="48.0802377" lon="-2.2777301">
        <ele>60.212</ele>
        <time>2018-08-22T15:22:48.672Z</time>
      </trkpt>
      <trkpt lat="48.0801571" lon="-2.2778673">
        <ele>60.157</ele>
        <time>2018-08-22T15:22:51.375Z</time>
      </trkpt>
      <trkpt lat="48.0800601" lon="-2.2780015">
        <ele>60.226</ele>
        <time>2018-08-22T15:22:54.371Z</time>
      </trkpt>
      <trkpt lat="48.0799615" lon="-2.2781318">
        <ele>60.635</ele>
        <time>2018-08-22T15:22:57.376Z</time>
      </trkpt>
      <trkpt lat="48.0798693" lon="-2.2782510">
        <ele>61.042</ele>
        <time>2018-08-22T15:23:00.154Z</time>
      </trkpt>
      <trkpt lat="48.0797823" lon="-2.2783762">
        <ele>60.965</ele>
        <time>2018-08-22T15:23:02.954Z</time>
      </trkpt>
      <trkpt lat="48.0796997" lon="-2.2785096">
        <ele>60.459</ele>
        <time>2018-08-22T15:23:05.834Z</time>
      </trkpt>
      <trkpt lat="48.0796160" lon="-2.2786300">
        <ele>60.052</ele>
        <time>2018-08-22T15:23:08.604Z</time>
      </trkpt>
      <trkpt lat="48.0795530" lon="-2.2787327">
        <ele>60.070</ele>
        <time>2018-08-22T15:23:10.870Z</time>
      </trkpt>
      <trkpt lat="48.0794819" lon="-2.2788586">
        <ele>60.360</ele>
        <time>2018-08-22T15:23:13.711Z</time>
      </trkpt>
      <trkpt lat="48.0794071" lon="-2.2789594">
        <ele>60.722</ele>
        <time>2018-08-22T15:23:16.471Z</time>
      </trkpt>
      <trkpt lat="48.0793124" lon="-2.2790967">
        <ele>61.048</ele>
        <time>2018-08-22T15:23:20.118Z</time>
      </trkpt>
      <trkpt lat="48.0792190" lon="-2.2792254">
        <ele>61.235</ele>
        <time>2018-08-22T15:23:23.383Z</time>
      </trkpt>
      <trkpt lat="48.0791245" lon="-2.2793482">
        <ele>61.230</ele>
        <time>2018-08-22T15:23:26.342Z</time>
      </trkpt>
      <trkpt lat="48.0790448" lon="-2.2794617">
        <ele>60.994</ele>
        <time>2018-08-22T15:23:28.918Z</time>
      </trkpt>
      <trkpt lat="48.0789731" lon="-2.2795721">
        <ele>60.614</ele>
        <time>2018-08-22T15:23:31.354Z</time>
      </trkpt>
      <trkpt lat="48.0788827" lon="-2.2797078">
        <ele>60.310</ele>
        <time>2018-08-22T15:23:34.463Z</time>
      </trkpt>
      <trkpt lat="48.0788000" lon="-2.2798309">
        <ele>60.154</ele>
        <time>2018-08-22T15:23:37.336Z</time>
      </trkpt>
      <trkpt lat="48.0787332" lon="-2.2799433">
        <ele>59.924</ele>
        <time>2018-08-22T15:23:39.810Z</time>
      </trkpt>
      <trkpt lat="48.0786757" lon="-2.2800469">
        <ele>59.512</ele>
        <time>2018-08-22T15:23:42.060Z</time>
      </trkpt>
      <trkpt lat="48.0785970" lon="-2.2801427">
        <ele>59.223</ele>
        <time>2018-08-22T15:23:44.890Z</time>
      </trkpt>
      <trkpt lat="48.0785213" lon="-2.2802556">
        <ele>59.289</ele>
        <time>2018-08-22T15:23:48.033Z</time>
      </trkpt>
      <trkpt lat="48.0784370" lon="-2.2803754">
        <ele>59.490</ele>
        <time>2018-08-22T15:23:51.366Z</time>
      </trkpt>
      <trkpt lat="48.0783694" lon="-2.2804741">
        <ele>59.581</ele>
        <time>2018-08-22T15:23:53.997Z</time>
      </trkpt>
      <trkpt lat="48.0782959" lon="-2.2805853">
        <ele>59.579</ele>
        <time>2018-08-22T15:23:56.768Z</time>
      </trkpt>
      <trkpt lat="48.0782216" lon="-2.2807026">
        <ele>59.606</ele>
        <time>2018-08-22T15:23:59.713Z</time>
      </trkpt>
      <trkpt lat="48.0781487" lon="-2.2808079">
        <ele>59.717</ele>
        <time>2018-08-22T15:24:02.594Z</time>
      </trkpt>
      <trkpt lat="48.0780641" lon="-2.2809340">
        <ele>59.881</ele>
        <time>2018-08-22T15:24:06.167Z</time>
      </trkpt>
      <trkpt lat="48.0779859" lon="-2.2810547">
        <ele>60.097</ele>
        <time>2018-08-22T15:24:09.684Z</time>
      </trkpt>
      <trkpt lat="48.0779181" lon="-2.2811753">
        <ele>60.350</ele>
        <time>2018-08-22T15:24:13.084Z</time>
      </trkpt>
      <trkpt lat="48.0778281" lon="-2.2813085">
        <ele>60.599</ele>
        <time>2018-08-22T15:24:17.064Z</time>
      </trkpt>
      <trkpt lat="48.0777485" lon="-2.2814199">
        <ele>60.953</ele>
        <time>2018-08-22T15:24:20.265Z</time>
      </trkpt>
      <trkpt lat="48.0776676" lon="-2.2815343">
        <ele>61.450</ele>
        <time>2018-08-22T15:24:23.424Z</time>
      </trkpt>
      <trkpt lat="48.0775893" lon="-2.2816446">
        <ele>61.871</ele>
        <time>2018-08-22T15:24:26.321Z</time>
      </trkpt>
      <trkpt lat="48.0775170" lon="-2.2817318">
        <ele>61.941</ele>
        <time>2018-08-22T15:24:28.835Z</time>
      </trkpt>
      <trkpt lat="48.0774358" lon="-2.2818307">
        <ele>61.654</ele>
        <time>2018-08-22T15:24:31.744Z</time>
      </trkpt>
      <trkpt lat="48.0773801" lon="-2.2819373">
        <ele>61.313</ele>
        <time>2018-08-22T15:24:34.348Z</time>
      </trkpt>
      <trkpt lat="48.0773080" lon="-2.2820590">
        <ele>61.262</ele>
        <time>2018-08-22T15:24:37.549Z</time>
      </trkpt>
      <trkpt lat="48.0772387" lon="-2.2821738">
        <ele>61.575</ele>
        <time>2018-08-22T15:24:40.697Z</time>
      </trkpt>
      <trkpt lat="48.0771604" lon="-2.2822651">
        <ele>62.040</ele>
        <time>2018-08-22T15:24:43.764Z</time>
      </trkpt>
      <trkpt lat="48.0770834" lon="-2.2823870">
        <ele>62.373</ele>
        <time>2018-08-22T15:24:47.192Z</time>
      </trkpt>
      <trkpt lat="48.0770220" lon="-2.2825012">
        <ele>62.472</ele>
        <time>2018-08-22T15:24:50.263Z</time>
      </trkpt>
      <trkpt lat="48.0769299" lon="-2.2826209">
        <ele>62.397</ele>
        <time>2018-08-22T15:24:53.945Z</time>
      </trkpt>
      <trkpt lat="48.0768504" lon="-2.2827368">
        <ele>62.445</ele>
        <time>2018-08-22T15:24:57.119Z</time>
      </trkpt>
      <trkpt lat="48.0767714" lon="-2.2828718">
        <ele>62.802</ele>
        <time>2018-08-22T15:25:00.403Z</time>
      </trkpt>
      <trkpt lat="48.0767035" lon="-2.2829848">
        <ele>62.833</ele>
        <time>2018-08-22T15:25:03.222Z</time>
      </trkpt>
      <trkpt lat="48.0766251" lon="-2.2831062">
        <ele>62.040</ele>
        <time>2018-08-22T15:25:06.547Z</time>
      </trkpt>
      <trkpt lat="48.0765584" lon="-2.2832235">
        <ele>61.089</ele>
        <time>2018-08-22T15:25:09.717Z</time>
      </trkpt>
      <trkpt lat="48.0764728" lon="-2.2833392">
        <ele>60.751</ele>
        <time>2018-08-22T15:25:13.099Z</time>
      </trkpt>
      <trkpt lat="48.0763802" lon="-2.2834441">
        <ele>61.125</ele>
        <time>2018-08-22T15:25:16.532Z</time>
      </trkpt>
      <trkpt lat="48.0763147" lon="-2.2835442">
        <ele>61.899</ele>
        <time>2018-08-22T15:25:19.214Z</time>
      </trkpt>
      <trkpt lat="48.0762351" lon="-2.2836697">
        <ele>62.647</ele>
        <time>2018-08-22T15:25:22.413Z</time>
      </trkpt>
      <trkpt lat="48.0761612" lon="-2.2837940">
        <ele>63.239</ele>
        <time>2018-08-22T15:25:25.740Z</time>
      </trkpt>
      <trkpt lat="48.0760880" lon="-2.2839213">
        <ele>63.849</ele>
        <time>2018-08-22T15:25:29.383Z</time>
      </trkpt>
      <trkpt lat="48.0759938" lon="-2.2840472">
        <ele>64.642</ele>
        <time>2018-08-22T15:25:33.416Z</time>
      </trkpt>
      <trkpt lat="48.0759043" lon="-2.2841503">
        <ele>65.702</ele>
        <time>2018-08-22T15:25:36.848Z</time>
      </trkpt>
      <trkpt lat="48.0758288" lon="-2.2842497">
        <ele>66.843</ele>
        <time>2018-08-22T15:25:39.839Z</time>
      </trkpt>
      <trkpt lat="48.0757592" lon="-2.2843449">
        <ele>67.670</ele>
        <time>2018-08-22T15:25:42.705Z</time>
      </trkpt>
      <trkpt lat="48.0756794" lon="-2.2844383">
        <ele>68.016</ele>
        <time>2018-08-22T15:25:45.792Z</time>
      </trkpt>
      <trkpt lat="48.0755872" lon="-2.2845780">
        <ele>68.102</ele>
        <time>2018-08-22T15:25:49.722Z</time>
      </trkpt>
      <trkpt lat="48.0755206" lon="-2.2846921">
        <ele>68.137</ele>
        <time>2018-08-22T15:25:52.648Z</time>
      </trkpt>
      <trkpt lat="48.0754360" lon="-2.2848208">
        <ele>68.083</ele>
        <time>2018-08-22T15:25:56.170Z</time>
      </trkpt>
      <trkpt lat="48.0753437" lon="-2.2849588">
        <ele>67.839</ele>
        <time>2018-08-22T15:25:59.925Z</time>
      </trkpt>
      <trkpt lat="48.0752728" lon="-2.2850842">
        <ele>67.220</ele>
        <time>2018-08-22T15:26:02.926Z</time>
      </trkpt>
      <trkpt lat="48.0751960" lon="-2.2851893">
        <ele>66.071</ele>
        <time>2018-08-22T15:26:05.794Z</time>
      </trkpt>
      <trkpt lat="48.0751139" lon="-2.2853028">
        <ele>64.632</ele>
        <time>2018-08-22T15:26:08.891Z</time>
      </trkpt>
      <trkpt lat="48.0750271" lon="-2.2854318">
        <ele>63.445</ele>
        <time>2018-08-22T15:26:12.189Z</time>
      </trkpt>
      <trkpt lat="48.0749359" lon="-2.2855255">
        <ele>62.900</ele>
        <time>2018-08-22T15:26:15.152Z</time>
      </trkpt>
      <trkpt lat="48.0748350" lon="-2.2856269">
        <ele>63.361</ele>
        <time>2018-08-22T15:26:18.350Z</time>
      </trkpt>
      <trkpt lat="48.0747449" lon="-2.2857484">
        <ele>64.679</ele>
        <time>2018-08-22T15:26:21.393Z</time>
      </trkpt>
      <trkpt lat="48.0746564" lon="-2.2858810">
        <ele>65.977</ele>
        <time>2018-08-22T15:26:24.454Z</time>
      </trkpt>
      <trkpt lat="48.0745692" lon="-2.2860112">
        <ele>66.609</ele>
        <time>2018-08-22T15:26:27.472Z</time>
      </trkpt>
      <trkpt lat="48.0744937" lon="-2.2861139">
        <ele>66.650</ele>
        <time>2018-08-22T15:26:30.186Z</time>
      </trkpt>
      <trkpt lat="48.0744150" lon="-2.2862156">
        <ele>66.384</ele>
        <time>2018-08-22T15:26:33.145Z</time>
      </trkpt>
      <trkpt lat="48.0743295" lon="-2.2863037">
        <ele>66.108</ele>
        <time>2018-08-22T15:26:36.146Z</time>
      </trkpt>
      <trkpt lat="48.0742217" lon="-2.2863987">
        <ele>65.908</ele>
        <time>2018-08-22T15:26:39.542Z</time>
      </trkpt>
      <trkpt lat="48.0741348" lon="-2.2864863">
        <ele>65.791</ele>
        <time>2018-08-22T15:26:42.330Z</time>
      </trkpt>
      <trkpt lat="48.0740354" lon="-2.2865664">
        <ele>65.842</ele>
        <time>2018-08-22T15:26:45.469Z</time>
      </trkpt>
      <trkpt lat="48.0739543" lon="-2.2866537">
        <ele>65.996</ele>
        <time>2018-08-22T15:26:48.421Z</time>
      </trkpt>
      <trkpt lat="48.0738783" lon="-2.2867496">
        <ele>66.059</ele>
        <time>2018-08-22T15:26:51.614Z</time>
      </trkpt>
      <trkpt lat="48.0737778" lon="-2.2868554">
        <ele>65.992</ele>
        <time>2018-08-22T15:26:55.255Z</time>
      </trkpt>
      <trkpt lat="48.0736796" lon="-2.2869538">
        <ele>65.906</ele>
        <time>2018-08-22T15:26:58.460Z</time>
      </trkpt>
      <trkpt lat="48.0735809" lon="-2.2870620">
        <ele>65.926</ele>
        <time>2018-08-22T15:27:01.696Z</time>
      </trkpt>
      <trkpt lat="48.0734901" lon="-2.2871483">
        <ele>66.044</ele>
        <time>2018-08-22T15:27:04.638Z</time>
      </trkpt>
      <trkpt lat="48.0733993" lon="-2.2872257">
        <ele>66.167</ele>
        <time>2018-08-22T15:27:07.671Z</time>
      </trkpt>
      <trkpt lat="48.0732952" lon="-2.2873231">
        <ele>65.863</ele>
        <time>2018-08-22T15:27:11.129Z</time>
      </trkpt>
      <trkpt lat="48.0731937" lon="-2.2874277">
        <ele>64.913</ele>
        <time>2018-08-22T15:27:14.477Z</time>
      </trkpt>
      <trkpt lat="48.0730902" lon="-2.2875420">
        <ele>64.155</ele>
        <time>2018-08-22T15:27:17.934Z</time>
      </trkpt>
      <trkpt lat="48.0729908" lon="-2.2876427">
        <ele>64.303</ele>
        <time>2018-08-22T15:27:21.121Z</time>
      </trkpt>
      <trkpt lat="48.0728891" lon="-2.2877463">
        <ele>64.860</ele>
        <time>2018-08-22T15:27:24.229Z</time>
      </trkpt>
      <trkpt lat="48.0727743" lon="-2.2878463">
        <ele>65.217</ele>
        <time>2018-08-22T15:27:27.511Z</time>
      </trkpt>
      <trkpt lat="48.0726757" lon="-2.2879363">
        <ele>65.357</ele>
        <time>2018-08-22T15:27:30.575Z</time>
      </trkpt>
      <trkpt lat="48.0725909" lon="-2.2880208">
        <ele>65.440</ele>
        <time>2018-08-22T15:27:33.468Z</time>
      </trkpt>
      <trkpt lat="48.0725098" lon="-2.2881053">
        <ele>65.339</ele>
        <time>2018-08-22T15:27:36.223Z</time>
      </trkpt>
      <trkpt lat="48.0724193" lon="-2.2882016">
        <ele>64.891</ele>
        <time>2018-08-22T15:27:39.140Z</time>
      </trkpt>
      <trkpt lat="48.0723275" lon="-2.2883060">
        <ele>64.345</ele>
        <time>2018-08-22T15:27:42.143Z</time>
      </trkpt>
      <trkpt lat="48.0722367" lon="-2.2883957">
        <ele>64.023</ele>
        <time>2018-08-22T15:27:45.106Z</time>
      </trkpt>
      <trkpt lat="48.0721564" lon="-2.2884876">
        <ele>64.029</ele>
        <time>2018-08-22T15:27:47.985Z</time>
      </trkpt>
      <trkpt lat="48.0720777" lon="-2.2885699">
        <ele>64.234</ele>
        <time>2018-08-22T15:27:50.894Z</time>
      </trkpt>
      <trkpt lat="48.0719769" lon="-2.2886655">
        <ele>64.371</ele>
        <time>2018-08-22T15:27:55.113Z</time>
      </trkpt>
      <trkpt lat="48.0719065" lon="-2.2887738">
        <ele>64.367</ele>
        <time>2018-08-22T15:27:59.442Z</time>
      </trkpt>
      <trkpt lat="48.0718357" lon="-2.2888728">
        <ele>64.441</ele>
        <time>2018-08-22T15:28:04.034Z</time>
      </trkpt>
      <trkpt lat="48.0717412" lon="-2.2889041">
        <ele>64.703</ele>
        <time>2018-08-22T15:28:08.449Z</time>
      </trkpt>
      <trkpt lat="48.0716497" lon="-2.2890224">
        <ele>64.957</ele>
        <time>2018-08-22T15:28:12.956Z</time>
      </trkpt>
      <trkpt lat="48.0715470" lon="-2.2891189">
        <ele>64.972</ele>
        <time>2018-08-22T15:28:16.394Z</time>
      </trkpt>
      <trkpt lat="48.0714440" lon="-2.2892125">
        <ele>64.632</ele>
        <time>2018-08-22T15:28:19.492Z</time>
      </trkpt>
      <trkpt lat="48.0713432" lon="-2.2893094">
        <ele>63.911</ele>
        <time>2018-08-22T15:28:22.479Z</time>
      </trkpt>
      <trkpt lat="48.0712449" lon="-2.2894096">
        <ele>63.083</ele>
        <time>2018-08-22T15:28:25.393Z</time>
      </trkpt>
      <trkpt lat="48.0711493" lon="-2.2895108">
        <ele>62.382</ele>
        <time>2018-08-22T15:28:28.289Z</time>
      </trkpt>
      <trkpt lat="48.0710523" lon="-2.2895992">
        <ele>61.688</ele>
        <time>2018-08-22T15:28:31.135Z</time>
      </trkpt>
      <trkpt lat="48.0709494" lon="-2.2896931">
        <ele>60.970</ele>
        <time>2018-08-22T15:28:34.170Z</time>
      </trkpt>
      <trkpt lat="48.0708543" lon="-2.2897758">
        <ele>60.427</ele>
        <time>2018-08-22T15:28:37.121Z</time>
      </trkpt>
      <trkpt lat="48.0707685" lon="-2.2898581">
        <ele>60.152</ele>
        <time>2018-08-22T15:28:40.023Z</time>
      </trkpt>
      <trkpt lat="48.0706834" lon="-2.2899598">
        <ele>60.077</ele>
        <time>2018-08-22T15:28:43.075Z</time>
      </trkpt>
      <trkpt lat="48.0706000" lon="-2.2900661">
        <ele>60.025</ele>
        <time>2018-08-22T15:28:45.968Z</time>
      </trkpt>
      <trkpt lat="48.0704986" lon="-2.2901792">
        <ele>59.869</ele>
        <time>2018-08-22T15:28:49.205Z</time>
      </trkpt>
      <trkpt lat="48.0704157" lon="-2.2902768">
        <ele>59.692</ele>
        <time>2018-08-22T15:28:52.046Z</time>
      </trkpt>
      <trkpt lat="48.0703268" lon="-2.2903675">
        <ele>59.623</ele>
        <time>2018-08-22T15:28:55.040Z</time>
      </trkpt>
      <trkpt lat="48.0702215" lon="-2.2904748">
        <ele>59.657</ele>
        <time>2018-08-22T15:28:58.441Z</time>
      </trkpt>
      <trkpt lat="48.0701119" lon="-2.2905860">
        <ele>59.797</ele>
        <time>2018-08-22T15:29:01.730Z</time>
      </trkpt>
      <trkpt lat="48.0699994" lon="-2.2907062">
        <ele>60.030</ele>
        <time>2018-08-22T15:29:05.080Z</time>
      </trkpt>
      <trkpt lat="48.0699127" lon="-2.2908124">
        <ele>60.150</ele>
        <time>2018-08-22T15:29:07.875Z</time>
      </trkpt>
      <trkpt lat="48.0698141" lon="-2.2909217">
        <ele>59.930</ele>
        <time>2018-08-22T15:29:10.758Z</time>
      </trkpt>
      <trkpt lat="48.0697119" lon="-2.2910552">
        <ele>59.498</ele>
        <time>2018-08-22T15:29:13.859Z</time>
      </trkpt>
      <trkpt lat="48.0696210" lon="-2.2911764">
        <ele>59.296</ele>
        <time>2018-08-22T15:29:16.802Z</time>
      </trkpt>
      <trkpt lat="48.0695318" lon="-2.2912975">
        <ele>59.599</ele>
        <time>2018-08-22T15:29:19.873Z</time>
      </trkpt>
      <trkpt lat="48.0694487" lon="-2.2914054">
        <ele>60.185</ele>
        <time>2018-08-22T15:29:22.841Z</time>
      </trkpt>
      <trkpt lat="48.0693682" lon="-2.2915053">
        <ele>60.857</ele>
        <time>2018-08-22T15:29:25.631Z</time>
      </trkpt>
      <trkpt lat="48.0692908" lon="-2.2916421">
        <ele>61.600</ele>
        <time>2018-08-22T15:29:28.605Z</time>
      </trkpt>
      <trkpt lat="48.0692107" lon="-2.2917841">
        <ele>62.094</ele>
        <time>2018-08-22T15:29:31.442Z</time>
      </trkpt>
      <trkpt lat="48.0691218" lon="-2.2919468">
        <ele>62.018</ele>
        <time>2018-08-22T15:29:34.567Z</time>
      </trkpt>
      <trkpt lat="48.0690580" lon="-2.2920920">
        <ele>61.576</ele>
        <time>2018-08-22T15:29:37.288Z</time>
      </trkpt>
      <trkpt lat="48.0689737" lon="-2.2922346">
        <ele>61.134</ele>
        <time>2018-08-22T15:29:40.421Z</time>
      </trkpt>
      <trkpt lat="48.0689001" lon="-2.2923742">
        <ele>60.859</ele>
        <time>2018-08-22T15:29:43.423Z</time>
      </trkpt>
      <trkpt lat="48.0688385" lon="-2.2925259">
        <ele>60.764</ele>
        <time>2018-08-22T15:29:46.458Z</time>
      </trkpt>
      <trkpt lat="48.0687767" lon="-2.2926646">
        <ele>60.849</ele>
        <time>2018-08-22T15:29:49.322Z</time>
      </trkpt>
      <trkpt lat="48.0687225" lon="-2.2928154">
        <ele>61.036</ele>
        <time>2018-08-22T15:29:52.267Z</time>
      </trkpt>
      <trkpt lat="48.0686772" lon="-2.2929704">
        <ele>61.221</ele>
        <time>2018-08-22T15:29:55.100Z</time>
      </trkpt>
      <trkpt lat="48.0686272" lon="-2.2931442">
        <ele>61.359</ele>
        <time>2018-08-22T15:29:58.141Z</time>
      </trkpt>
      <trkpt lat="48.0685705" lon="-2.2933143">
        <ele>61.491</ele>
        <time>2018-08-22T15:30:01.164Z</time>
      </trkpt>
      <trkpt lat="48.0685195" lon="-2.2934796">
        <ele>61.649</ele>
        <time>2018-08-22T15:30:04.177Z</time>
      </trkpt>
      <trkpt lat="48.0684845" lon="-2.2936266">
        <ele>61.742</ele>
        <time>2018-08-22T15:30:06.887Z</time>
      </trkpt>
      <trkpt lat="48.0684407" lon="-2.2937743">
        <ele>61.682</ele>
        <time>2018-08-22T15:30:09.707Z</time>
      </trkpt>
      <trkpt lat="48.0683985" lon="-2.2939249">
        <ele>61.534</ele>
        <time>2018-08-22T15:30:12.506Z</time>
      </trkpt>
      <trkpt lat="48.0683698" lon="-2.2940909">
        <ele>61.387</ele>
        <time>2018-08-22T15:30:15.405Z</time>
      </trkpt>
      <trkpt lat="48.0683332" lon="-2.2942501">
        <ele>61.328</ele>
        <time>2018-08-22T15:30:18.291Z</time>
      </trkpt>
      <trkpt lat="48.0682951" lon="-2.2943965">
        <ele>61.393</ele>
        <time>2018-08-22T15:30:21.118Z</time>
      </trkpt>
      <trkpt lat="48.0682723" lon="-2.2945370">
        <ele>61.495</ele>
        <time>2018-08-22T15:30:23.989Z</time>
      </trkpt>
      <trkpt lat="48.0682319" lon="-2.2946779">
        <ele>61.530</ele>
        <time>2018-08-22T15:30:27.563Z</time>
      </trkpt>
      <trkpt lat="48.0681752" lon="-2.2947876">
        <ele>61.483</ele>
        <time>2018-08-22T15:30:31.987Z</time>
      </trkpt>
      <trkpt lat="48.0681475" lon="-2.2949377">
        <ele>61.317</ele>
        <time>2018-08-22T15:30:37.907Z</time>
      </trkpt>
      <trkpt lat="48.0681566" lon="-2.2950792">
        <ele>61.023</ele>
        <time>2018-08-22T15:30:43.333Z</time>
      </trkpt>
      <trkpt lat="48.0681187" lon="-2.2952357">
        <ele>60.778</ele>
        <time>2018-08-22T15:30:49.191Z</time>
      </trkpt>
      <trkpt lat="48.0680776" lon="-2.2953699">
        <ele>60.726</ele>
        <time>2018-08-22T15:30:54.032Z</time>
      </trkpt>
      <trkpt lat="48.0680349" lon="-2.2955093">
        <ele>60.595</ele>
        <time>2018-08-22T15:30:59.591Z</time>
      </trkpt>
      <trkpt lat="48.0680099" lon="-2.2956428">
        <ele>59.989</ele>
        <time>2018-08-22T15:31:04.481Z</time>
      </trkpt>
      <trkpt lat="48.0679728" lon="-2.2957890">
        <ele>59.060</ele>
        <time>2018-08-22T15:31:08.991Z</time>
      </trkpt>
      <trkpt lat="48.0679728" lon="-2.2957890">
        <ele>58.386</ele>
        <time>2018-08-22T15:31:22.991Z</time>
      </trkpt>
      <trkpt lat="48.0679728" lon="-2.2957890">
        <ele>58.195</ele>
        <time>2018-08-22T15:31:42.371Z</time>
      </trkpt>
      <trkpt lat="48.0679180" lon="-2.2961668">
        <ele>58.346</ele>
        <time>2018-08-22T15:32:04.015Z</time>
      </trkpt>
      <trkpt lat="48.0678875" lon="-2.2963130">
        <ele>59.131</ele>
        <time>2018-08-22T15:32:08.829Z</time>
      </trkpt>
      <trkpt lat="48.0678223" lon="-2.2964488">
        <ele>60.635</ele>
        <time>2018-08-22T15:32:14.082Z</time>
      </trkpt>
      <trkpt lat="48.0677889" lon="-2.2966027">
        <ele>61.713</ele>
        <time>2018-08-22T15:32:19.023Z</time>
      </trkpt>
      <trkpt lat="48.0677609" lon="-2.2967320">
        <ele>61.469</ele>
        <time>2018-08-22T15:32:22.737Z</time>
      </trkpt>
      <trkpt lat="48.0677289" lon="-2.2968602">
        <ele>60.484</ele>
        <time>2018-08-22T15:32:26.918Z</time>
      </trkpt>
      <trkpt lat="48.0676933" lon="-2.2970116">
        <ele>59.618</ele>
        <time>2018-08-22T15:32:31.801Z</time>
      </trkpt>
      <trkpt lat="48.0676551" lon="-2.2971570">
        <ele>59.007</ele>
        <time>2018-08-22T15:32:36.499Z</time>
      </trkpt>
      <trkpt lat="48.0676223" lon="-2.2973082">
        <ele>58.443</ele>
        <time>2018-08-22T15:32:41.302Z</time>
      </trkpt>
      <trkpt lat="48.0675915" lon="-2.2974414">
        <ele>57.924</ele>
        <time>2018-08-22T15:32:45.342Z</time>
      </trkpt>
      <trkpt lat="48.0675644" lon="-2.2975923">
        <ele>57.597</ele>
        <time>2018-08-22T15:32:49.451Z</time>
      </trkpt>
      <trkpt lat="48.0675385" lon="-2.2977492">
        <ele>57.437</ele>
        <time>2018-08-22T15:32:53.409Z</time>
      </trkpt>
      <trkpt lat="48.0675036" lon="-2.2978874">
        <ele>57.393</ele>
        <time>2018-08-22T15:32:56.906Z</time>
      </trkpt>
      <trkpt lat="48.0674811" lon="-2.2980277">
        <ele>57.441</ele>
        <time>2018-08-22T15:33:00.449Z</time>
      </trkpt>
      <trkpt lat="48.0674529" lon="-2.2981576">
        <ele>57.539</ele>
        <time>2018-08-22T15:33:04.067Z</time>
      </trkpt>
      <trkpt lat="48.0674342" lon="-2.2982976">
        <ele>57.628</ele>
        <time>2018-08-22T15:33:09.130Z</time>
      </trkpt>
      <trkpt lat="48.0674192" lon="-2.2984317">
        <ele>57.637</ele>
        <time>2018-08-22T15:33:14.507Z</time>
      </trkpt>
      <trkpt lat="48.0673777" lon="-2.2985778">
        <ele>57.368</ele>
        <time>2018-08-22T15:33:21.477Z</time>
      </trkpt>
      <trkpt lat="48.0673365" lon="-2.2987214">
        <ele>56.810</ele>
        <time>2018-08-22T15:33:28.724Z</time>
      </trkpt>
      <trkpt lat="48.0673031" lon="-2.2988691">
        <ele>56.442</ele>
        <time>2018-08-22T15:33:36.785Z</time>
      </trkpt>
      <trkpt lat="48.0672669" lon="-2.2989964">
        <ele>56.587</ele>
        <time>2018-08-22T15:33:43.716Z</time>
      </trkpt>
      <trkpt lat="48.0672282" lon="-2.2991234">
        <ele>56.942</ele>
        <time>2018-08-22T15:33:50.035Z</time>
      </trkpt>
      <trkpt lat="48.0671859" lon="-2.2992588">
        <ele>57.244</ele>
        <time>2018-08-22T15:33:56.023Z</time>
      </trkpt>
      <trkpt lat="48.0671339" lon="-2.2993990">
        <ele>57.678</ele>
        <time>2018-08-22T15:34:02.464Z</time>
      </trkpt>
      <trkpt lat="48.0670882" lon="-2.2995278">
        <ele>58.389</ele>
        <time>2018-08-22T15:34:09.930Z</time>
      </trkpt>
      <trkpt lat="48.0670496" lon="-2.2996515">
        <ele>59.219</ele>
        <time>2018-08-22T15:34:17.634Z</time>
      </trkpt>
      <trkpt lat="48.0669960" lon="-2.2997714">
        <ele>60.122</ele>
        <time>2018-08-22T15:34:24.451Z</time>
      </trkpt>
      <trkpt lat="48.0669384" lon="-2.2999103">
        <ele>61.150</ele>
        <time>2018-08-22T15:34:31.402Z</time>
      </trkpt>
      <trkpt lat="48.0668924" lon="-2.3000426">
        <ele>62.049</ele>
        <time>2018-08-22T15:34:37.879Z</time>
      </trkpt>
      <trkpt lat="48.0668455" lon="-2.3001625">
        <ele>62.544</ele>
        <time>2018-08-22T15:34:44.000Z</time>
      </trkpt>
      <trkpt lat="48.0667912" lon="-2.3002930">
        <ele>62.726</ele>
        <time>2018-08-22T15:34:51.091Z</time>
      </trkpt>
      <trkpt lat="48.0667469" lon="-2.3004158">
        <ele>62.798</ele>
        <time>2018-08-22T15:34:57.851Z</time>
      </trkpt>
      <trkpt lat="48.0666889" lon="-2.3005401">
        <ele>62.864</ele>
        <time>2018-08-22T15:35:04.696Z</time>
      </trkpt>
      <trkpt lat="48.0666214" lon="-2.3006530">
        <ele>62.947</ele>
        <time>2018-08-22T15:35:10.650Z</time>
      </trkpt>
      <trkpt lat="48.0665717" lon="-2.3007671">
        <ele>63.046</ele>
        <time>2018-08-22T15:35:15.996Z</time>
      </trkpt>
      <trkpt lat="48.0665717" lon="-2.3007671">
        <ele>63.140</ele>
        <time>2018-08-22T15:35:35.995Z</time>
      </trkpt>
      <trkpt lat="48.0665717" lon="-2.3007671">
        <ele>63.184</ele>
        <time>2018-08-22T15:36:41.216Z</time>
      </trkpt>
      <trkpt lat="48.0664073" lon="-2.3010396">
        <ele>63.154</ele>
        <time>2018-08-22T15:37:00.406Z</time>
      </trkpt>
      <trkpt lat="48.0663279" lon="-2.3011363">
        <ele>63.344</ele>
        <time>2018-08-22T15:37:04.583Z</time>
      </trkpt>
      <trkpt lat="48.0662552" lon="-2.3012345">
        <ele>63.949</ele>
        <time>2018-08-22T15:37:08.015Z</time>
      </trkpt>
      <trkpt lat="48.0661913" lon="-2.3013534">
        <ele>64.606</ele>
        <time>2018-08-22T15:37:11.530Z</time>
      </trkpt>
      <trkpt lat="48.0661263" lon="-2.3014574">
        <ele>64.922</ele>
        <time>2018-08-22T15:37:14.815Z</time>
      </trkpt>
      <trkpt lat="48.0660425" lon="-2.3015864">
        <ele>64.999</ele>
        <time>2018-08-22T15:37:18.864Z</time>
      </trkpt>
      <trkpt lat="48.0659722" lon="-2.3016849">
        <ele>64.996</ele>
        <time>2018-08-22T15:37:21.911Z</time>
      </trkpt>
      <trkpt lat="48.0659002" lon="-2.3017804">
        <ele>64.643</ele>
        <time>2018-08-22T15:37:24.816Z</time>
      </trkpt>
      <trkpt lat="48.0658216" lon="-2.3018652">
        <ele>63.809</ele>
        <time>2018-08-22T15:37:28.063Z</time>
      </trkpt>
      <trkpt lat="48.0657233" lon="-2.3019519">
        <ele>63.149</ele>
        <time>2018-08-22T15:37:32.414Z</time>
      </trkpt>
      <trkpt lat="48.0656384" lon="-2.3020332">
        <ele>63.477</ele>
        <time>2018-08-22T15:37:36.569Z</time>
      </trkpt>
      <trkpt lat="48.0655634" lon="-2.3021130">
        <ele>64.660</ele>
        <time>2018-08-22T15:37:40.752Z</time>
      </trkpt>
      <trkpt lat="48.0654730" lon="-2.3022000">
        <ele>65.686</ele>
        <time>2018-08-22T15:37:46.437Z</time>
      </trkpt>
      <trkpt lat="48.0653863" lon="-2.3022710">
        <ele>65.832</ele>
        <time>2018-08-22T15:37:52.480Z</time>
      </trkpt>
      <trkpt lat="48.0653073" lon="-2.3023374">
        <ele>65.234</ele>
        <time>2018-08-22T15:37:58.278Z</time>
      </trkpt>
      <trkpt lat="48.0652351" lon="-2.3024179">
        <ele>64.390</ele>
        <time>2018-08-22T15:38:03.736Z</time>
      </trkpt>
      <trkpt lat="48.0651514" lon="-2.3025144">
        <ele>63.729</ele>
        <time>2018-08-22T15:38:10.089Z</time>
      </trkpt>
      <trkpt lat="48.0650468" lon="-2.3025832">
        <ele>63.300</ele>
        <time>2018-08-22T15:38:16.730Z</time>
      </trkpt>
      <trkpt lat="48.0649533" lon="-2.3026561">
        <ele>62.880</ele>
        <time>2018-08-22T15:38:21.122Z</time>
      </trkpt>
      <trkpt lat="48.0648563" lon="-2.3027120">
        <ele>62.421</ele>
        <time>2018-08-22T15:38:24.989Z</time>
      </trkpt>
      <trkpt lat="48.0647702" lon="-2.3027805">
        <ele>62.042</ele>
        <time>2018-08-22T15:38:28.647Z</time>
      </trkpt>
      <trkpt lat="48.0646701" lon="-2.3028190">
        <ele>61.903</ele>
        <time>2018-08-22T15:38:33.032Z</time>
      </trkpt>
      <trkpt lat="48.0645648" lon="-2.3028700">
        <ele>62.072</ele>
        <time>2018-08-22T15:38:37.866Z</time>
      </trkpt>
      <trkpt lat="48.0644552" lon="-2.3029102">
        <ele>62.688</ele>
        <time>2018-08-22T15:38:42.330Z</time>
      </trkpt>
      <trkpt lat="48.0643522" lon="-2.3029568">
        <ele>63.713</ele>
        <time>2018-08-22T15:38:46.500Z</time>
      </trkpt>
      <trkpt lat="48.0642603" lon="-2.3030156">
        <ele>64.588</ele>
        <time>2018-08-22T15:38:50.353Z</time>
      </trkpt>
      <trkpt lat="48.0641596" lon="-2.3030597">
        <ele>64.542</ele>
        <time>2018-08-22T15:38:54.498Z</time>
      </trkpt>
      <trkpt lat="48.0640662" lon="-2.3030831">
        <ele>63.613</ele>
        <time>2018-08-22T15:38:58.220Z</time>
      </trkpt>
      <trkpt lat="48.0639681" lon="-2.3031483">
        <ele>62.605</ele>
        <time>2018-08-22T15:39:02.939Z</time>
      </trkpt>
      <trkpt lat="48.0638739" lon="-2.3031509">
        <ele>61.977</ele>
        <time>2018-08-22T15:39:08.219Z</time>
      </trkpt>
      <trkpt lat="48.0637806" lon="-2.3031799">
        <ele>61.534</ele>
        <time>2018-08-22T15:39:13.578Z</time>
      </trkpt>
      <trkpt lat="48.0636932" lon="-2.3032224">
        <ele>61.201</ele>
        <time>2018-08-22T15:39:18.071Z</time>
      </trkpt>
      <trkpt lat="48.0635828" lon="-2.3032599">
        <ele>60.906</ele>
        <time>2018-08-22T15:39:23.270Z</time>
      </trkpt>
      <trkpt lat="48.0634919" lon="-2.3032637">
        <ele>60.534</ele>
        <time>2018-08-22T15:39:27.636Z</time>
      </trkpt>
      <trkpt lat="48.0634005" lon="-2.3032463">
        <ele>60.218</ele>
        <time>2018-08-22T15:39:32.345Z</time>
      </trkpt>
      <trkpt lat="48.0633078" lon="-2.3032421">
        <ele>59.988</ele>
        <time>2018-08-22T15:39:37.251Z</time>
      </trkpt>
      <trkpt lat="48.0632190" lon="-2.3032665">
        <ele>59.590</ele>
        <time>2018-08-22T15:39:42.160Z</time>
      </trkpt>
      <trkpt lat="48.0631165" lon="-2.3032788">
        <ele>58.985</ele>
        <time>2018-08-22T15:39:47.746Z</time>
      </trkpt>
      <trkpt lat="48.0630227" lon="-2.3032703">
        <ele>58.326</ele>
        <time>2018-08-22T15:39:52.585Z</time>
      </trkpt>
      <trkpt lat="48.0629147" lon="-2.3032628">
        <ele>57.725</ele>
        <time>2018-08-22T15:39:57.901Z</time>
      </trkpt>
      <trkpt lat="48.0628187" lon="-2.3032497">
        <ele>57.190</ele>
        <time>2018-08-22T15:40:02.392Z</time>
      </trkpt>
      <trkpt lat="48.0627203" lon="-2.3032287">
        <ele>56.702</ele>
        <time>2018-08-22T15:40:07.097Z</time>
      </trkpt>
      <trkpt lat="48.0626298" lon="-2.3032130">
        <ele>56.337</ele>
        <time>2018-08-22T15:40:11.621Z</time>
      </trkpt>
      <trkpt lat="48.0625252" lon="-2.3031987">
        <ele>56.337</ele>
        <time>2018-08-22T15:40:16.846Z</time>
      </trkpt>
      <trkpt lat="48.0624167" lon="-2.3031911">
        <ele>56.850</ele>
        <time>2018-08-22T15:40:22.114Z</time>
      </trkpt>
      <trkpt lat="48.0623171" lon="-2.3031470">
        <ele>57.727</ele>
        <time>2018-08-22T15:40:27.187Z</time>
      </trkpt>
      <trkpt lat="48.0622144" lon="-2.3031331">
        <ele>58.537</ele>
        <time>2018-08-22T15:40:32.446Z</time>
      </trkpt>
      <trkpt lat="48.0621122" lon="-2.3031147">
        <ele>58.960</ele>
        <time>2018-08-22T15:40:38.086Z</time>
      </trkpt>
      <trkpt lat="48.0620128" lon="-2.3031050">
        <ele>58.952</ele>
        <time>2018-08-22T15:40:44.124Z</time>
      </trkpt>
      <trkpt lat="48.0619141" lon="-2.3031100">
        <ele>58.756</ele>
        <time>2018-08-22T15:40:50.998Z</time>
      </trkpt>
      <trkpt lat="48.0619141" lon="-2.3031100">
        <ele>58.647</ele>
        <time>2018-08-22T15:41:07.998Z</time>
      </trkpt>
      <trkpt lat="48.0619141" lon="-2.3031100">
        <ele>58.653</ele>
        <time>2018-08-22T15:41:27.445Z</time>
      </trkpt>
      <trkpt lat="48.0616951" lon="-2.3030763">
        <ele>58.659</ele>
        <time>2018-08-22T15:41:48.021Z</time>
      </trkpt>
      <trkpt lat="48.0616016" lon="-2.3030604">
        <ele>58.619</ele>
        <time>2018-08-22T15:41:53.461Z</time>
      </trkpt>
      <trkpt lat="48.0614989" lon="-2.3030606">
        <ele>58.531</ele>
        <time>2018-08-22T15:41:59.266Z</time>
      </trkpt>
      <trkpt lat="48.0614004" lon="-2.3030680">
        <ele>58.216</ele>
        <time>2018-08-22T15:42:04.768Z</time>
      </trkpt>
      <trkpt lat="48.0613103" lon="-2.3030618">
        <ele>57.549</ele>
        <time>2018-08-22T15:42:09.813Z</time>
      </trkpt>
      <trkpt lat="48.0612099" lon="-2.3030515">
        <ele>56.825</ele>
        <time>2018-08-22T15:42:15.249Z</time>
      </trkpt>
      <trkpt lat="48.0611082" lon="-2.3030266">
        <ele>56.229</ele>
        <time>2018-08-22T15:42:20.886Z</time>
      </trkpt>
      <trkpt lat="48.0610173" lon="-2.3030080">
        <ele>55.680</ele>
        <time>2018-08-22T15:42:26.485Z</time>
      </trkpt>
      <trkpt lat="48.0609111" lon="-2.3030022">
        <ele>55.378</ele>
        <time>2018-08-22T15:42:33.713Z</time>
      </trkpt>
      <trkpt lat="48.0608191" lon="-2.3029972">
        <ele>55.503</ele>
        <time>2018-08-22T15:42:39.808Z</time>
      </trkpt>
      <trkpt lat="48.0607144" lon="-2.3029794">
        <ele>55.852</ele>
        <time>2018-08-22T15:42:45.927Z</time>
      </trkpt>
      <trkpt lat="48.0606100" lon="-2.3029934">
        <ele>56.202</ele>
        <time>2018-08-22T15:42:51.722Z</time>
      </trkpt>
      <trkpt lat="48.0605161" lon="-2.3029867">
        <ele>56.505</ele>
        <time>2018-08-22T15:42:56.810Z</time>
      </trkpt>
      <trkpt lat="48.0604240" lon="-2.3029908">
        <ele>56.855</ele>
        <time>2018-08-22T15:43:01.746Z</time>
      </trkpt>
      <trkpt lat="48.0603242" lon="-2.3030102">
        <ele>57.300</ele>
        <time>2018-08-22T15:43:07.082Z</time>
      </trkpt>
      <trkpt lat="48.0602326" lon="-2.3030381">
        <ele>57.533</ele>
        <time>2018-08-22T15:43:12.023Z</time>
      </trkpt>
      <trkpt lat="48.0601338" lon="-2.3030545">
        <ele>57.222</ele>
        <time>2018-08-22T15:43:17.475Z</time>
      </trkpt>
      <trkpt lat="48.0600302" lon="-2.3030733">
        <ele>56.561</ele>
        <time>2018-08-22T15:43:23.319Z</time>
      </trkpt>
      <trkpt lat="48.0599225" lon="-2.3030753">
        <ele>55.955</ele>
        <time>2018-08-22T15:43:28.743Z</time>
      </trkpt>
      <trkpt lat="48.0598311" lon="-2.3031047">
        <ele>55.591</ele>
        <time>2018-08-22T15:43:33.289Z</time>
      </trkpt>
      <trkpt lat="48.0597320" lon="-2.3031339">
        <ele>55.431</ele>
        <time>2018-08-22T15:43:38.448Z</time>
      </trkpt>
      <trkpt lat="48.0596447" lon="-2.3031664">
        <ele>55.262</ele>
        <time>2018-08-22T15:43:43.212Z</time>
      </trkpt>
      <trkpt lat="48.0595572" lon="-2.3032246">
        <ele>54.954</ele>
        <time>2018-08-22T15:43:48.324Z</time>
      </trkpt>
      <trkpt lat="48.0594540" lon="-2.3032643">
        <ele>54.785</ele>
        <time>2018-08-22T15:43:54.013Z</time>
      </trkpt>
      <trkpt lat="48.0593592" lon="-2.3033042">
        <ele>54.986</ele>
        <time>2018-08-22T15:43:59.474Z</time>
      </trkpt>
      <trkpt lat="48.0592637" lon="-2.3033508">
        <ele>55.343</ele>
        <time>2018-08-22T15:44:05.142Z</time>
      </trkpt>
      <trkpt lat="48.0591780" lon="-2.3034027">
        <ele>55.609</ele>
        <time>2018-08-22T15:44:10.406Z</time>
      </trkpt>
      <trkpt lat="48.0590835" lon="-2.3034572">
        <ele>55.741</ele>
        <time>2018-08-22T15:44:16.173Z</time>
      </trkpt>
      <trkpt lat="48.0589891" lon="-2.3034990">
        <ele>55.788</ele>
        <time>2018-08-22T15:44:21.825Z</time>
      </trkpt>
      <trkpt lat="48.0588959" lon="-2.3035522">
        <ele>55.837</ele>
        <time>2018-08-22T15:44:28.353Z</time>
      </trkpt>
      <trkpt lat="48.0588012" lon="-2.3035972">
        <ele>55.910</ele>
        <time>2018-08-22T15:44:35.869Z</time>
      </trkpt>
      <trkpt lat="48.0587170" lon="-2.3036693">
        <ele>56.142</ele>
        <time>2018-08-22T15:44:43.530Z</time>
      </trkpt>
      <trkpt lat="48.0586248" lon="-2.3037243">
        <ele>56.671</ele>
        <time>2018-08-22T15:44:50.388Z</time>
      </trkpt>
      <trkpt lat="48.0585309" lon="-2.3037875">
        <ele>57.264</ele>
        <time>2018-08-22T15:44:57.386Z</time>
      </trkpt>
      <trkpt lat="48.0584467" lon="-2.3038756">
        <ele>57.553</ele>
        <time>2018-08-22T15:45:02.750Z</time>
      </trkpt>
      <trkpt lat="48.0583590" lon="-2.3039683">
        <ele>57.500</ele>
        <time>2018-08-22T15:45:07.649Z</time>
      </trkpt>
      <trkpt lat="48.0582787" lon="-2.3040500">
        <ele>57.405</ele>
        <time>2018-08-22T15:45:12.079Z</time>
      </trkpt>
      <trkpt lat="48.0581899" lon="-2.3041240">
        <ele>57.581</ele>
        <time>2018-08-22T15:45:16.849Z</time>
      </trkpt>
      <trkpt lat="48.0581134" lon="-2.3042053">
        <ele>58.013</ele>
        <time>2018-08-22T15:45:21.816Z</time>
      </trkpt>
      <trkpt lat="48.0580393" lon="-2.3042911">
        <ele>58.549</ele>
        <time>2018-08-22T15:45:27.432Z</time>
      </trkpt>
      <trkpt lat="48.0579611" lon="-2.3043748">
        <ele>59.200</ele>
        <time>2018-08-22T15:45:33.349Z</time>
      </trkpt>
      <trkpt lat="48.0578928" lon="-2.3044843">
        <ele>59.889</ele>
        <time>2018-08-22T15:45:38.936Z</time>
      </trkpt>
      <trkpt lat="48.0578086" lon="-2.3045842">
        <ele>60.107</ele>
        <time>2018-08-22T15:45:44.651Z</time>
      </trkpt>
      <trkpt lat="48.0577316" lon="-2.3046779">
        <ele>59.582</ele>
        <time>2018-08-22T15:45:49.873Z</time>
      </trkpt>
      <trkpt lat="48.0576585" lon="-2.3047837">
        <ele>58.787</ele>
        <time>2018-08-22T15:45:55.049Z</time>
      </trkpt>
      <trkpt lat="48.0575866" lon="-2.3048810">
        <ele>58.261</ele>
        <time>2018-08-22T15:46:00.654Z</time>
      </trkpt>
      <trkpt lat="48.0575149" lon="-2.3049731">
        <ele>58.148</ele>
        <time>2018-08-22T15:46:06.729Z</time>
      </trkpt>
      <trkpt lat="48.0574389" lon="-2.3050533">
        <ele>58.530</ele>
        <time>2018-08-22T15:46:12.541Z</time>
      </trkpt>
      <trkpt lat="48.0573589" lon="-2.3051567">
        <ele>59.247</ele>
        <time>2018-08-22T15:46:18.437Z</time>
      </trkpt>
      <trkpt lat="48.0572857" lon="-2.3052528">
        <ele>59.851</ele>
        <time>2018-08-22T15:46:23.596Z</time>
      </trkpt>
      <trkpt lat="48.0572136" lon="-2.3053503">
        <ele>60.173</ele>
        <time>2018-08-22T15:46:29.030Z</time>
      </trkpt>
      <trkpt lat="48.0571471" lon="-2.3054435">
        <ele>60.424</ele>
        <time>2018-08-22T15:46:34.230Z</time>
      </trkpt>
      <trkpt lat="48.0570684" lon="-2.3055517">
        <ele>60.679</ele>
        <time>2018-08-22T15:46:40.320Z</time>
      </trkpt>
      <trkpt lat="48.0569910" lon="-2.3056536">
        <ele>60.835</ele>
        <time>2018-08-22T15:46:46.442Z</time>
      </trkpt>
      <trkpt lat="48.0569189" lon="-2.3057569">
        <ele>60.830</ele>
        <time>2018-08-22T15:46:52.443Z</time>
      </trkpt>
      <trkpt lat="48.0568318" lon="-2.3058535">
        <ele>60.689</ele>
        <time>2018-08-22T15:46:58.404Z</time>
      </trkpt>
      <trkpt lat="48.0567449" lon="-2.3059455">
        <ele>60.503</ele>
        <time>2018-08-22T15:47:04.184Z</time>
      </trkpt>
      <trkpt lat="48.0566694" lon="-2.3060540">
        <ele>60.410</ele>
        <time>2018-08-22T15:47:09.986Z</time>
      </trkpt>
      <trkpt lat="48.0565900" lon="-2.3061570">
        <ele>60.515</ele>
        <time>2018-08-22T15:47:16.110Z</time>
      </trkpt>
      <trkpt lat="48.0565166" lon="-2.3062516">
        <ele>60.807</ele>
        <time>2018-08-22T15:47:22.308Z</time>
      </trkpt>
      <trkpt lat="48.0564399" lon="-2.3063636">
        <ele>61.143</ele>
        <time>2018-08-22T15:47:28.998Z</time>
      </trkpt>
      <trkpt lat="48.0564399" lon="-2.3063636">
        <ele>61.320</ele>
        <time>2018-08-22T15:47:50.998Z</time>
      </trkpt>
      <trkpt lat="48.0564399" lon="-2.3063636">
        <ele>61.281</ele>
        <time>2018-08-22T15:48:17.051Z</time>
      </trkpt>
      <trkpt lat="48.0562005" lon="-2.3065112">
        <ele>61.158</ele>
        <time>2018-08-22T15:48:53.240Z</time>
      </trkpt>
      <trkpt lat="48.0561141" lon="-2.3064300">
        <ele>60.616</ele>
        <time>2018-08-22T15:49:02.193Z</time>
      </trkpt>
      <trkpt lat="48.0560373" lon="-2.3063522">
        <ele>59.389</ele>
        <time>2018-08-22T15:49:10.373Z</time>
      </trkpt>
      <trkpt lat="48.0559600" lon="-2.3062744">
        <ele>58.234</ele>
        <time>2018-08-22T15:49:17.857Z</time>
      </trkpt>
      <trkpt lat="48.0558747" lon="-2.3061997">
        <ele>57.874</ele>
        <time>2018-08-22T15:49:24.560Z</time>
      </trkpt>
      <trkpt lat="48.0557956" lon="-2.3061235">
        <ele>58.070</ele>
        <time>2018-08-22T15:49:30.112Z</time>
      </trkpt>
      <trkpt lat="48.0557050" lon="-2.3060429">
        <ele>58.393</ele>
        <time>2018-08-22T15:49:36.015Z</time>
      </trkpt>
      <trkpt lat="48.0556172" lon="-2.3059570">
        <ele>58.609</ele>
        <time>2018-08-22T15:49:42.113Z</time>
      </trkpt>
      <trkpt lat="48.0555402" lon="-2.3058869">
        <ele>58.661</ele>
        <time>2018-08-22T15:49:47.417Z</time>
      </trkpt>
      <trkpt lat="48.0554596" lon="-2.3058136">
        <ele>58.615</ele>
        <time>2018-08-22T15:49:52.720Z</time>
      </trkpt>
      <trkpt lat="48.0553695" lon="-2.3057299">
        <ele>58.565</ele>
        <time>2018-08-22T15:49:58.613Z</time>
      </trkpt>
      <trkpt lat="48.0552960" lon="-2.3056496">
        <ele>58.580</ele>
        <time>2018-08-22T15:50:03.675Z</time>
      </trkpt>
      <trkpt lat="48.0552188" lon="-2.3055723">
        <ele>58.692</ele>
        <time>2018-08-22T15:50:08.801Z</time>
      </trkpt>
      <trkpt lat="48.0551382" lon="-2.3054913">
        <ele>58.868</ele>
        <time>2018-08-22T15:50:14.282Z</time>
      </trkpt>
      <trkpt lat="48.0550461" lon="-2.3054155">
        <ele>59.041</ele>
        <time>2018-08-22T15:50:20.332Z</time>
      </trkpt>
      <trkpt lat="48.0549689" lon="-2.3053452">
        <ele>59.191</ele>
        <time>2018-08-22T15:50:25.575Z</time>
      </trkpt>
      <trkpt lat="48.0548815" lon="-2.3052613">
        <ele>59.343</ele>
        <time>2018-08-22T15:50:31.745Z</time>
      </trkpt>
      <trkpt lat="48.0548010" lon="-2.3051815">
        <ele>59.602</ele>
        <time>2018-08-22T15:50:37.486Z</time>
      </trkpt>
      <trkpt lat="48.0547155" lon="-2.3050928">
        <ele>59.982</ele>
        <time>2018-08-22T15:50:43.636Z</time>
      </trkpt>
      <trkpt lat="48.0546259" lon="-2.3050149">
        <ele>60.355</ele>
        <time>2018-08-22T15:50:49.797Z</time>
      </trkpt>
      <trkpt lat="48.0545473" lon="-2.3049335">
        <ele>60.659</ele>
        <time>2018-08-22T15:50:55.263Z</time>
      </trkpt>
      <trkpt lat="48.0544581" lon="-2.3048567">
        <ele>60.951</ele>
        <time>2018-08-22T15:51:01.074Z</time>
      </trkpt>
      <trkpt lat="48.0543684" lon="-2.3047711">
        <ele>61.273</ele>
        <time>2018-08-22T15:51:07.316Z</time>
      </trkpt>
      <trkpt lat="48.0544715" lon="-2.3048103">
        <ele>61.656</ele>
        <time>2018-08-22T15:51:14.906Z</time>
      </trkpt>
      <trkpt lat="48.0545468" lon="-2.3048995">
        <ele>62.078</ele>
        <time>2018-08-22T15:51:22.839Z</time>
      </trkpt>
      <trkpt lat="48.0544594" lon="-2.3048585">
        <ele>62.427</ele>
        <time>2018-08-22T15:51:29.212Z</time>
      </trkpt>
      <trkpt lat="48.0543872" lon="-2.3047756">
        <ele>62.591</ele>
        <time>2018-08-22T15:51:35.268Z</time>
      </trkpt>
      <trkpt lat="48.0543157" lon="-2.3046921">
        <ele>62.594</ele>
        <time>2018-08-22T15:51:40.748Z</time>
      </trkpt>
      <trkpt lat="48.0542311" lon="-2.3046081">
        <ele>62.642</ele>
        <time>2018-08-22T15:51:46.280Z</time>
      </trkpt>
      <trkpt lat="48.0541479" lon="-2.3045203">
        <ele>62.982</ele>
        <time>2018-08-22T15:51:51.606Z</time>
      </trkpt>
      <trkpt lat="48.0540628" lon="-2.3044525">
        <ele>63.682</ele>
        <time>2018-08-22T15:51:56.693Z</time>
      </trkpt>
      <trkpt lat="48.0539804" lon="-2.3043833">
        <ele>64.526</ele>
        <time>2018-08-22T15:52:01.756Z</time>
      </trkpt>
      <trkpt lat="48.0539030" lon="-2.3043098">
        <ele>65.201</ele>
        <time>2018-08-22T15:52:06.759Z</time>
      </trkpt>
      <trkpt lat="48.0538258" lon="-2.3042391">
        <ele>65.589</ele>
        <time>2018-08-22T15:52:11.831Z</time>
      </trkpt>
      <trkpt lat="48.0537381" lon="-2.3041515">
        <ele>65.816</ele>
        <time>2018-08-22T15:52:17.661Z</time>
      </trkpt>
      <trkpt lat="48.0536584" lon="-2.3040798">
        <ele>66.105</ele>
        <time>2018-08-22T15:52:22.810Z</time>
      </trkpt>
      <trkpt lat="48.0535823" lon="-2.3040073">
        <ele>66.538</ele>
        <time>2018-08-22T15:52:27.826Z</time>
      </trkpt>
      <trkpt lat="48.0535046" lon="-2.3039345">
        <ele>67.000</ele>
        <time>2018-08-22T15:52:32.884Z</time>
      </trkpt>
      <trkpt lat="48.0534304" lon="-2.3038580">
        <ele>67.419</ele>
        <time>2018-08-22T15:52:37.926Z</time>
      </trkpt>
      <trkpt lat="48.0533442" lon="-2.3037652">
        <ele>67.775</ele>
        <time>2018-08-22T15:52:43.755Z</time>
      </trkpt>
      <trkpt lat="48.0532640" lon="-2.3036934">
        <ele>68.037</ele>
        <time>2018-08-22T15:52:48.804Z</time>
      </trkpt>
      <trkpt lat="48.0531876" lon="-2.3036206">
        <ele>68.327</ele>
        <time>2018-08-22T15:52:53.775Z</time>
      </trkpt>
      <trkpt lat="48.0531102" lon="-2.3035458">
        <ele>68.751</ele>
        <time>2018-08-22T15:52:59.036Z</time>
      </trkpt>
      <trkpt lat="48.0530252" lon="-2.3034668">
        <ele>69.219</ele>
        <time>2018-08-22T15:53:04.925Z</time>
      </trkpt>
      <trkpt lat="48.0529380" lon="-2.3033902">
        <ele>69.620</ele>
        <time>2018-08-22T15:53:10.657Z</time>
      </trkpt>
      <trkpt lat="48.0528595" lon="-2.3033223">
        <ele>69.977</ele>
        <time>2018-08-22T15:53:15.779Z</time>
      </trkpt>
      <trkpt lat="48.0527831" lon="-2.3032444">
        <ele>70.400</ele>
        <time>2018-08-22T15:53:21.031Z</time>
      </trkpt>
      <trkpt lat="48.0526926" lon="-2.3031583">
        <ele>70.901</ele>
        <time>2018-08-22T15:53:27.008Z</time>
      </trkpt>
      <trkpt lat="48.0526165" lon="-2.3030804">
        <ele>71.355</ele>
        <time>2018-08-22T15:53:32.054Z</time>
      </trkpt>
      <trkpt lat="48.0525375" lon="-2.3030123">
        <ele>71.723</ele>
        <time>2018-08-22T15:53:36.906Z</time>
      </trkpt>
      <trkpt lat="48.0524564" lon="-2.3029344">
        <ele>72.084</ele>
        <time>2018-08-22T15:53:41.851Z</time>
      </trkpt>
      <trkpt lat="48.0523757" lon="-2.3028523">
        <ele>72.482</ele>
        <time>2018-08-22T15:53:46.982Z</time>
      </trkpt>
      <trkpt lat="48.0523018" lon="-2.3027724">
        <ele>72.882</ele>
        <time>2018-08-22T15:53:51.997Z</time>
      </trkpt>
      <trkpt lat="48.0522206" lon="-2.3027133">
        <ele>73.242</ele>
        <time>2018-08-22T15:53:56.981Z</time>
      </trkpt>
      <trkpt lat="48.0521439" lon="-2.3026313">
        <ele>73.631</ele>
        <time>2018-08-22T15:54:02.236Z</time>
      </trkpt>
      <trkpt lat="48.0520623" lon="-2.3025317">
        <ele>74.105</ele>
        <time>2018-08-22T15:54:08.608Z</time>
      </trkpt>
      <trkpt lat="48.0519909" lon="-2.3024311">
        <ele>74.640</ele>
        <time>2018-08-22T15:54:15.044Z</time>
      </trkpt>
      <trkpt lat="48.0519263" lon="-2.3023362">
        <ele>75.212</ele>
        <time>2018-08-22T15:54:20.689Z</time>
      </trkpt>
      <trkpt lat="48.0518543" lon="-2.3022167">
        <ele>75.709</ele>
        <time>2018-08-22T15:54:27.253Z</time>
      </trkpt>
      <trkpt lat="48.0518114" lon="-2.3020830">
        <ele>75.983</ele>
        <time>2018-08-22T15:54:33.511Z</time>
      </trkpt>
      <trkpt lat="48.0517853" lon="-2.3019402">
        <ele>76.086</ele>
        <time>2018-08-22T15:54:39.620Z</time>
      </trkpt>
      <trkpt lat="48.0517671" lon="-2.3018024">
        <ele>76.189</ele>
        <time>2018-08-22T15:54:45.426Z</time>
      </trkpt>
      <trkpt lat="48.0517326" lon="-2.3016556">
        <ele>76.353</ele>
        <time>2018-08-22T15:54:52.117Z</time>
      </trkpt>
      <trkpt lat="48.0517148" lon="-2.3015037">
        <ele>76.609</ele>
        <time>2018-08-22T15:54:58.624Z</time>
      </trkpt>
      <trkpt lat="48.0517039" lon="-2.3013643">
        <ele>77.019</ele>
        <time>2018-08-22T15:55:04.497Z</time>
      </trkpt>
      <trkpt lat="48.0516834" lon="-2.3012296">
        <ele>77.559</ele>
        <time>2018-08-22T15:55:10.122Z</time>
      </trkpt>
      <trkpt lat="48.0516613" lon="-2.3010797">
        <ele>78.073</ele>
        <time>2018-08-22T15:55:16.051Z</time>
      </trkpt>
      <trkpt lat="48.0516252" lon="-2.3009288">
        <ele>78.417</ele>
        <time>2018-08-22T15:55:23.508Z</time>
      </trkpt>
      <trkpt lat="48.0515774" lon="-2.3008074">
        <ele>78.550</ele>
        <time>2018-08-22T15:55:30.672Z</time>
      </trkpt>
      <trkpt lat="48.0514787" lon="-2.3008030">
        <ele>78.529</ele>
        <time>2018-08-22T15:55:38.271Z</time>
      </trkpt>
      <trkpt lat="48.0513965" lon="-2.3008701">
        <ele>78.449</ele>
        <time>2018-08-22T15:55:44.012Z</time>
      </trkpt>
      <trkpt lat="48.0513137" lon="-2.3009347">
        <ele>78.372</ele>
        <time>2018-08-22T15:55:48.773Z</time>
      </trkpt>
      <trkpt lat="48.0512265" lon="-2.3010172">
        <ele>78.335</ele>
        <time>2018-08-22T15:55:54.335Z</time>
      </trkpt>
      <trkpt lat="48.0511403" lon="-2.3010757">
        <ele>78.371</ele>
        <time>2018-08-22T15:56:00.685Z</time>
      </trkpt>
      <trkpt lat="48.0511273" lon="-2.3012173">
        <ele>78.435</ele>
        <time>2018-08-22T15:56:07.786Z</time>
      </trkpt>
      <trkpt lat="48.0512021" lon="-2.3013001">
        <ele>78.404</ele>
        <time>2018-08-22T15:56:16.996Z</time>
      </trkpt>
      <trkpt lat="48.0512021" lon="-2.3013001">
        <ele>78.244</ele>
        <time>2018-08-22T15:56:40.996Z</time>
      </trkpt>
      <trkpt lat="48.0512021" lon="-2.3013001">
        <ele>78.090</ele>
        <time>2018-08-22T15:58:57.651Z</time>
      </trkpt>
      <trkpt lat="48.0512365" lon="-2.3014430">
        <ele>78.059</ele>
        <time>2018-08-22T15:59:30.235Z</time>
      </trkpt>
      <trkpt lat="48.0512878" lon="-2.3015543">
        <ele>78.033</ele>
        <time>2018-08-22T15:59:41.992Z</time>
      </trkpt>
      <trkpt lat="48.0512878" lon="-2.3015543">
        <ele>77.898</ele>
        <time>2018-08-22T15:59:52.991Z</time>
      </trkpt>
      <trkpt lat="48.0512878" lon="-2.3015543">
        <ele>77.756</ele>
        <time>2018-08-22T16:01:15.928Z</time>
      </trkpt>
      <trkpt lat="48.0514199" lon="-2.3015262">
        <ele>77.742</ele>
        <time>2018-08-22T16:02:17.998Z</time>
      </trkpt>
      <trkpt lat="48.0514199" lon="-2.3015262">
        <ele>77.808</ele>
        <time>2018-08-22T16:02:20.998Z</time>
      </trkpt>
      <trkpt lat="48.0514199" lon="-2.3015262">
        <ele>77.833</ele>
        <time>2018-08-22T16:13:26.993Z</time>
      </trkpt>
      <trkpt lat="48.0511362" lon="-2.3011317">
        <ele>77.262</ele>
        <time>2018-08-23T08:22:02.018Z</time>
      </trkpt>
      <trkpt lat="48.0511362" lon="-2.3011317">
        <ele>77.242</ele>
        <time>2018-08-23T08:22:32.434Z</time>
      </trkpt>
      <trkpt lat="48.0512539" lon="-2.3009609">
        <ele>77.225</ele>
        <time>2018-08-23T08:22:45.062Z</time>
      </trkpt>
      <trkpt lat="48.0513433" lon="-2.3009032">
        <ele>77.210</ele>
        <time>2018-08-23T08:22:50.052Z</time>
      </trkpt>
      <trkpt lat="48.0514284" lon="-2.3008387">
        <ele>77.338</ele>
        <time>2018-08-23T08:22:55.278Z</time>
      </trkpt>
      <trkpt lat="48.0515272" lon="-2.3007957">
        <ele>77.688</ele>
        <time>2018-08-23T08:23:01.247Z</time>
      </trkpt>
      <trkpt lat="48.0516108" lon="-2.3008742">
        <ele>78.182</ele>
        <time>2018-08-23T08:23:06.561Z</time>
      </trkpt>
      <trkpt lat="48.0516427" lon="-2.3010197">
        <ele>78.844</ele>
        <time>2018-08-23T08:23:11.344Z</time>
      </trkpt>
      <trkpt lat="48.0516658" lon="-2.3011517">
        <ele>79.631</ele>
        <time>2018-08-23T08:23:14.999Z</time>
      </trkpt>
      <trkpt lat="48.0516658" lon="-2.3011517">
        <ele>80.222</ele>
        <time>2018-08-23T08:23:16.999Z</time>
      </trkpt>
      <trkpt lat="48.0516658" lon="-2.3011517">
        <ele>80.430</ele>
        <time>2018-08-23T08:23:17.099Z</time>
      </trkpt>
      <trkpt lat="48.0517140" lon="-2.3014827">
        <ele>80.361</ele>
        <time>2018-08-23T08:23:25.645Z</time>
      </trkpt>
      <trkpt lat="48.0517450" lon="-2.3016640">
        <ele>80.218</ele>
        <time>2018-08-23T08:23:28.216Z</time>
      </trkpt>
      <trkpt lat="48.0517651" lon="-2.3018082">
        <ele>80.132</ele>
        <time>2018-08-23T08:23:30.022Z</time>
      </trkpt>
      <trkpt lat="48.0517871" lon="-2.3019636">
        <ele>80.074</ele>
        <time>2018-08-23T08:23:31.901Z</time>
      </trkpt>
      <trkpt lat="48.0518395" lon="-2.3022093">
        <ele>79.942</ele>
        <time>2018-08-23T08:23:34.741Z</time>
      </trkpt>
      <trkpt lat="48.0519097" lon="-2.3023625">
        <ele>79.728</ele>
        <time>2018-08-23T08:23:36.716Z</time>
      </trkpt>
      <trkpt lat="48.0520725" lon="-2.3025381">
        <ele>79.548</ele>
        <time>2018-08-23T08:23:39.810Z</time>
      </trkpt>
      <trkpt lat="48.0521620" lon="-2.3026598">
        <ele>79.375</ele>
        <time>2018-08-23T08:23:41.651Z</time>
      </trkpt>
      <trkpt lat="48.0523127" lon="-2.3028085">
        <ele>79.100</ele>
        <time>2018-08-23T08:23:44.388Z</time>
      </trkpt>
      <trkpt lat="48.0524651" lon="-2.3029451">
        <ele>78.812</ele>
        <time>2018-08-23T08:23:47.089Z</time>
      </trkpt>
      <trkpt lat="48.0526189" lon="-2.3030912">
        <ele>78.538</ele>
        <time>2018-08-23T08:23:49.814Z</time>
      </trkpt>
      <trkpt lat="48.0527927" lon="-2.3032212">
        <ele>78.182</ele>
        <time>2018-08-23T08:23:52.626Z</time>
      </trkpt>
      <trkpt lat="48.0529627" lon="-2.3033691">
        <ele>77.469</ele>
        <time>2018-08-23T08:23:55.379Z</time>
      </trkpt>
      <trkpt lat="48.0530790" lon="-2.3034808">
        <ele>76.010</ele>
        <time>2018-08-23T08:23:57.263Z</time>
      </trkpt>
      <trkpt lat="48.0532586" lon="-2.3036606">
        <ele>73.981</ele>
        <time>2018-08-23T08:24:00.187Z</time>
      </trkpt>
      <trkpt lat="48.0533741" lon="-2.3037764">
        <ele>71.981</ele>
        <time>2018-08-23T08:24:02.060Z</time>
      </trkpt>
      <trkpt lat="48.0535541" lon="-2.3039510">
        <ele>70.361</ele>
        <time>2018-08-23T08:24:04.949Z</time>
      </trkpt>
      <trkpt lat="48.0536731" lon="-2.3040659">
        <ele>69.232</ele>
        <time>2018-08-23T08:24:06.847Z</time>
      </trkpt>
      <trkpt lat="48.0538541" lon="-2.3042330">
        <ele>68.556</ele>
        <time>2018-08-23T08:24:09.672Z</time>
      </trkpt>
      <trkpt lat="48.0539728" lon="-2.3043550">
        <ele>68.116</ele>
        <time>2018-08-23T08:24:11.549Z</time>
      </trkpt>
      <trkpt lat="48.0541578" lon="-2.3045329">
        <ele>67.705</ele>
        <time>2018-08-23T08:24:14.384Z</time>
      </trkpt>
      <trkpt lat="48.0542810" lon="-2.3046482">
        <ele>67.263</ele>
        <time>2018-08-23T08:24:16.244Z</time>
      </trkpt>
      <trkpt lat="48.0544099" lon="-2.3047627">
        <ele>66.819</ele>
        <time>2018-08-23T08:24:18.148Z</time>
      </trkpt>
      <trkpt lat="48.0546039" lon="-2.3049510">
        <ele>66.323</ele>
        <time>2018-08-23T08:24:21.031Z</time>
      </trkpt>
      <trkpt lat="48.0547413" lon="-2.3050765">
        <ele>65.685</ele>
        <time>2018-08-23T08:24:22.985Z</time>
      </trkpt>
      <trkpt lat="48.0549423" lon="-2.3052718">
        <ele>64.894</ele>
        <time>2018-08-23T08:24:25.847Z</time>
      </trkpt>
      <trkpt lat="48.0550799" lon="-2.3053975">
        <ele>64.070</ele>
        <time>2018-08-23T08:24:27.770Z</time>
      </trkpt>
      <trkpt lat="48.0552716" lon="-2.3055852">
        <ele>63.293</ele>
        <time>2018-08-23T08:24:30.542Z</time>
      </trkpt>
      <trkpt lat="48.0553980" lon="-2.3057047">
        <ele>62.563</ele>
        <time>2018-08-23T08:24:32.394Z</time>
      </trkpt>
      <trkpt lat="48.0555816" lon="-2.3058756">
        <ele>61.905</ele>
        <time>2018-08-23T08:24:35.140Z</time>
      </trkpt>
      <trkpt lat="48.0557048" lon="-2.3059926">
        <ele>61.358</ele>
        <time>2018-08-23T08:24:37.018Z</time>
      </trkpt>
      <trkpt lat="48.0558827" lon="-2.3061677">
        <ele>60.910</ele>
        <time>2018-08-23T08:24:39.792Z</time>
      </trkpt>
      <trkpt lat="48.0560564" lon="-2.3063281">
        <ele>60.494</ele>
        <time>2018-08-23T08:24:42.498Z</time>
      </trkpt>
      <trkpt lat="48.0561916" lon="-2.3064472">
        <ele>60.121</ele>
        <time>2018-08-23T08:24:44.706Z</time>
      </trkpt>
      <trkpt lat="48.0562452" lon="-2.3065639">
        <ele>59.856</ele>
        <time>2018-08-23T08:24:46.194Z</time>
      </trkpt>
      <trkpt lat="48.0561957" lon="-2.3066817">
        <ele>59.716</ele>
        <time>2018-08-23T08:24:48.071Z</time>
      </trkpt>
      <trkpt lat="48.0561133" lon="-2.3067779">
        <ele>59.679</ele>
        <time>2018-08-23T08:24:50.750Z</time>
      </trkpt>
      <trkpt lat="48.0560395" lon="-2.3068725">
        <ele>59.849</ele>
        <time>2018-08-23T08:24:55.683Z</time>
      </trkpt>
      <trkpt lat="48.0559629" lon="-2.3069857">
        <ele>60.422</ele>
        <time>2018-08-23T08:25:01.123Z</time>
      </trkpt>
      <trkpt lat="48.0558691" lon="-2.3071025">
        <ele>61.269</ele>
        <time>2018-08-23T08:25:05.804Z</time>
      </trkpt>
      <trkpt lat="48.0557798" lon="-2.3072132">
        <ele>61.938</ele>
        <time>2018-08-23T08:25:09.512Z</time>
      </trkpt>
      <trkpt lat="48.0556899" lon="-2.3073255">
        <ele>62.128</ele>
        <time>2018-08-23T08:25:12.644Z</time>
      </trkpt>
      <trkpt lat="48.0555966" lon="-2.3074321">
        <ele>61.892</ele>
        <time>2018-08-23T08:25:15.646Z</time>
      </trkpt>
      <trkpt lat="48.0554938" lon="-2.3075591">
        <ele>61.510</ele>
        <time>2018-08-23T08:25:19.152Z</time>
      </trkpt>
      <trkpt lat="48.0553996" lon="-2.3076739">
        <ele>61.185</ele>
        <time>2018-08-23T08:25:22.262Z</time>
      </trkpt>
      <trkpt lat="48.0553047" lon="-2.3077938">
        <ele>60.924</ele>
        <time>2018-08-23T08:25:25.249Z</time>
      </trkpt>
      <trkpt lat="48.0552075" lon="-2.3078991">
        <ele>60.755</ele>
        <time>2018-08-23T08:25:28.119Z</time>
      </trkpt>
      <trkpt lat="48.0551148" lon="-2.3080218">
        <ele>60.702</ele>
        <time>2018-08-23T08:25:31.117Z</time>
      </trkpt>
      <trkpt lat="48.0550294" lon="-2.3081422">
        <ele>60.645</ele>
        <time>2018-08-23T08:25:33.944Z</time>
      </trkpt>
      <trkpt lat="48.0549312" lon="-2.3082623">
        <ele>60.402</ele>
        <time>2018-08-23T08:25:37.015Z</time>
      </trkpt>
      <trkpt lat="48.0548286" lon="-2.3083766">
        <ele>59.893</ele>
        <time>2018-08-23T08:25:40.154Z</time>
      </trkpt>
      <trkpt lat="48.0547315" lon="-2.3084941">
        <ele>59.211</ele>
        <time>2018-08-23T08:25:43.219Z</time>
      </trkpt>
      <trkpt lat="48.0546366" lon="-2.3086150">
        <ele>58.561</ele>
        <time>2018-08-23T08:25:46.228Z</time>
      </trkpt>
      <trkpt lat="48.0545478" lon="-2.3087323">
        <ele>58.062</ele>
        <time>2018-08-23T08:25:49.065Z</time>
      </trkpt>
      <trkpt lat="48.0544619" lon="-2.3088379">
        <ele>57.667</ele>
        <time>2018-08-23T08:25:51.745Z</time>
      </trkpt>
      <trkpt lat="48.0543854" lon="-2.3089286">
        <ele>57.350</ele>
        <time>2018-08-23T08:25:54.147Z</time>
      </trkpt>
      <trkpt lat="48.0542990" lon="-2.3090205">
        <ele>57.156</ele>
        <time>2018-08-23T08:25:56.867Z</time>
      </trkpt>
      <trkpt lat="48.0542115" lon="-2.3091185">
        <ele>57.025</ele>
        <time>2018-08-23T08:25:59.831Z</time>
      </trkpt>
      <trkpt lat="48.0541250" lon="-2.3092342">
        <ele>56.881</ele>
        <time>2018-08-23T08:26:03.058Z</time>
      </trkpt>
      <trkpt lat="48.0540488" lon="-2.3093451">
        <ele>56.742</ele>
        <time>2018-08-23T08:26:05.940Z</time>
      </trkpt>
      <trkpt lat="48.0539809" lon="-2.3094604">
        <ele>56.624</ele>
        <time>2018-08-23T08:26:08.596Z</time>
      </trkpt>
      <trkpt lat="48.0538932" lon="-2.3095639">
        <ele>56.517</ele>
        <time>2018-08-23T08:26:11.417Z</time>
      </trkpt>
      <trkpt lat="48.0538089" lon="-2.3096348">
        <ele>56.363</ele>
        <time>2018-08-23T08:26:13.896Z</time>
      </trkpt>
      <trkpt lat="48.0537093" lon="-2.3097345">
        <ele>56.071</ele>
        <time>2018-08-23T08:26:17.078Z</time>
      </trkpt>
      <trkpt lat="48.0536397" lon="-2.3098481">
        <ele>55.693</ele>
        <time>2018-08-23T08:26:19.944Z</time>
      </trkpt>
      <trkpt lat="48.0535717" lon="-2.3099571">
        <ele>55.401</ele>
        <time>2018-08-23T08:26:22.846Z</time>
      </trkpt>
      <trkpt lat="48.0534928" lon="-2.3100828">
        <ele>55.267</ele>
        <time>2018-08-23T08:26:26.224Z</time>
      </trkpt>
      <trkpt lat="48.0534060" lon="-2.3101958">
        <ele>55.225</ele>
        <time>2018-08-23T08:26:29.535Z</time>
      </trkpt>
      <trkpt lat="48.0533283" lon="-2.3103102">
        <ele>55.160</ele>
        <time>2018-08-23T08:26:32.808Z</time>
      </trkpt>
      <trkpt lat="48.0532429" lon="-2.3104178">
        <ele>55.021</ele>
        <time>2018-08-23T08:26:36.398Z</time>
      </trkpt>
      <trkpt lat="48.0531748" lon="-2.3105108">
        <ele>54.883</ele>
        <time>2018-08-23T08:26:39.580Z</time>
      </trkpt>
      <trkpt lat="48.0530923" lon="-2.3105838">
        <ele>54.861</ele>
        <time>2018-08-23T08:26:43.239Z</time>
      </trkpt>
      <trkpt lat="48.0530369" lon="-2.3107024">
        <ele>55.048</ele>
        <time>2018-08-23T08:26:46.974Z</time>
      </trkpt>
      <trkpt lat="48.0529558" lon="-2.3108185">
        <ele>55.401</ele>
        <time>2018-08-23T08:26:50.835Z</time>
      </trkpt>
      <trkpt lat="48.0528663" lon="-2.3109138">
        <ele>55.734</ele>
        <time>2018-08-23T08:26:54.461Z</time>
      </trkpt>
      <trkpt lat="48.0527866" lon="-2.3110177">
        <ele>55.922</ele>
        <time>2018-08-23T08:26:57.759Z</time>
      </trkpt>
      <trkpt lat="48.0527113" lon="-2.3111178">
        <ele>56.030</ele>
        <time>2018-08-23T08:27:00.693Z</time>
      </trkpt>
      <trkpt lat="48.0526335" lon="-2.3112113">
        <ele>56.187</ele>
        <time>2018-08-23T08:27:03.528Z</time>
      </trkpt>
      <trkpt lat="48.0525500" lon="-2.3112977">
        <ele>56.428</ele>
        <time>2018-08-23T08:27:06.456Z</time>
      </trkpt>
      <trkpt lat="48.0524571" lon="-2.3114054">
        <ele>56.629</ele>
        <time>2018-08-23T08:27:09.998Z</time>
      </trkpt>
      <trkpt lat="48.0523608" lon="-2.3115180">
        <ele>56.649</ele>
        <time>2018-08-23T08:27:13.848Z</time>
      </trkpt>
      <trkpt lat="48.0522666" lon="-2.3116353">
        <ele>56.501</ele>
        <time>2018-08-23T08:27:17.423Z</time>
      </trkpt>
      <trkpt lat="48.0521750" lon="-2.3117478">
        <ele>56.354</ele>
        <time>2018-08-23T08:27:20.604Z</time>
      </trkpt>
      <trkpt lat="48.0520926" lon="-2.3118597">
        <ele>56.349</ele>
        <time>2018-08-23T08:27:23.477Z</time>
      </trkpt>
      <trkpt lat="48.0520127" lon="-2.3119600">
        <ele>56.439</ele>
        <time>2018-08-23T08:27:26.117Z</time>
      </trkpt>
      <trkpt lat="48.0519294" lon="-2.3120762">
        <ele>56.565</ele>
        <time>2018-08-23T08:27:29.030Z</time>
      </trkpt>
      <trkpt lat="48.0518435" lon="-2.3121811">
        <ele>56.733</ele>
        <time>2018-08-23T08:27:31.979Z</time>
      </trkpt>
      <trkpt lat="48.0517697" lon="-2.3122972">
        <ele>56.907</ele>
        <time>2018-08-23T08:27:35.153Z</time>
      </trkpt>
      <trkpt lat="48.0516934" lon="-2.3124026">
        <ele>56.960</ele>
        <time>2018-08-23T08:27:38.282Z</time>
      </trkpt>
      <trkpt lat="48.0516225" lon="-2.3125113">
        <ele>56.822</ele>
        <time>2018-08-23T08:27:41.193Z</time>
      </trkpt>
      <trkpt lat="48.0515468" lon="-2.3126118">
        <ele>56.520</ele>
        <time>2018-08-23T08:27:44.049Z</time>
      </trkpt>
      <trkpt lat="48.0514529" lon="-2.3127150">
        <ele>56.108</ele>
        <time>2018-08-23T08:27:47.371Z</time>
      </trkpt>
      <trkpt lat="48.0513528" lon="-2.3128023">
        <ele>55.630</ele>
        <time>2018-08-23T08:27:50.784Z</time>
      </trkpt>
      <trkpt lat="48.0512560" lon="-2.3128893">
        <ele>55.186</ele>
        <time>2018-08-23T08:27:54.012Z</time>
      </trkpt>
      <trkpt lat="48.0511621" lon="-2.3129799">
        <ele>54.853</ele>
        <time>2018-08-23T08:27:56.982Z</time>
      </trkpt>
      <trkpt lat="48.0510806" lon="-2.3130635">
        <ele>54.633</ele>
        <time>2018-08-23T08:27:59.631Z</time>
      </trkpt>
      <trkpt lat="48.0509882" lon="-2.3131443">
        <ele>54.490</ele>
        <time>2018-08-23T08:28:02.548Z</time>
      </trkpt>
      <trkpt lat="48.0508978" lon="-2.3132122">
        <ele>54.329</ele>
        <time>2018-08-23T08:28:05.382Z</time>
      </trkpt>
      <trkpt lat="48.0508065" lon="-2.3132526">
        <ele>54.052</ele>
        <time>2018-08-23T08:28:08.090Z</time>
      </trkpt>
      <trkpt lat="48.0507047" lon="-2.3133140">
        <ele>53.727</ele>
        <time>2018-08-23T08:28:11.229Z</time>
      </trkpt>
      <trkpt lat="48.0506323" lon="-2.3134201">
        <ele>53.511</ele>
        <time>2018-08-23T08:28:14.428Z</time>
      </trkpt>
      <trkpt lat="48.0505319" lon="-2.3134770">
        <ele>53.477</ele>
        <time>2018-08-23T08:28:18.280Z</time>
      </trkpt>
      <trkpt lat="48.0504317" lon="-2.3135382">
        <ele>53.589</ele>
        <time>2018-08-23T08:28:22.625Z</time>
      </trkpt>
      <trkpt lat="48.0503374" lon="-2.3135892">
        <ele>53.735</ele>
        <time>2018-08-23T08:28:26.943Z</time>
      </trkpt>
      <trkpt lat="48.0502507" lon="-2.3136365">
        <ele>53.737</ele>
        <time>2018-08-23T08:28:30.751Z</time>
      </trkpt>
      <trkpt lat="48.0501628" lon="-2.3136752">
        <ele>53.528</ele>
        <time>2018-08-23T08:28:34.096Z</time>
      </trkpt>
      <trkpt lat="48.0500539" lon="-2.3137217">
        <ele>53.246</ele>
        <time>2018-08-23T08:28:37.796Z</time>
      </trkpt>
      <trkpt lat="48.0499610" lon="-2.3137608">
        <ele>53.047</ele>
        <time>2018-08-23T08:28:40.903Z</time>
      </trkpt>
      <trkpt lat="48.0498566" lon="-2.3137934">
        <ele>52.989</ele>
        <time>2018-08-23T08:28:44.505Z</time>
      </trkpt>
      <trkpt lat="48.0497490" lon="-2.3138320">
        <ele>53.070</ele>
        <time>2018-08-23T08:28:48.276Z</time>
      </trkpt>
      <trkpt lat="48.0496406" lon="-2.3138792">
        <ele>53.202</ele>
        <time>2018-08-23T08:28:51.862Z</time>
      </trkpt>
      <trkpt lat="48.0495422" lon="-2.3139323">
        <ele>53.326</ele>
        <time>2018-08-23T08:28:54.944Z</time>
      </trkpt>
      <trkpt lat="48.0494377" lon="-2.3139721">
        <ele>53.449</ele>
        <time>2018-08-23T08:28:57.955Z</time>
      </trkpt>
      <trkpt lat="48.0493407" lon="-2.3140025">
        <ele>53.581</ele>
        <time>2018-08-23T08:29:00.658Z</time>
      </trkpt>
      <trkpt lat="48.0492300" lon="-2.3140334">
        <ele>53.808</ele>
        <time>2018-08-23T08:29:03.732Z</time>
      </trkpt>
      <trkpt lat="48.0491203" lon="-2.3140481">
        <ele>54.159</ele>
        <time>2018-08-23T08:29:06.768Z</time>
      </trkpt>
      <trkpt lat="48.0490167" lon="-2.3140883">
        <ele>54.456</ele>
        <time>2018-08-23T08:29:09.717Z</time>
      </trkpt>
      <trkpt lat="48.0489148" lon="-2.3141234">
        <ele>54.574</ele>
        <time>2018-08-23T08:29:12.537Z</time>
      </trkpt>
      <trkpt lat="48.0488138" lon="-2.3141586">
        <ele>54.573</ele>
        <time>2018-08-23T08:29:15.287Z</time>
      </trkpt>
      <trkpt lat="48.0487126" lon="-2.3141678">
        <ele>54.539</ele>
        <time>2018-08-23T08:29:17.988Z</time>
      </trkpt>
      <trkpt lat="48.0486132" lon="-2.3141731">
        <ele>54.525</ele>
        <time>2018-08-23T08:29:20.666Z</time>
      </trkpt>
      <trkpt lat="48.0485116" lon="-2.3142078">
        <ele>54.567</ele>
        <time>2018-08-23T08:29:23.492Z</time>
      </trkpt>
      <trkpt lat="48.0484050" lon="-2.3142497">
        <ele>54.654</ele>
        <time>2018-08-23T08:29:26.488Z</time>
      </trkpt>
      <trkpt lat="48.0482958" lon="-2.3142591">
        <ele>54.713</ele>
        <time>2018-08-23T08:29:29.499Z</time>
      </trkpt>
      <trkpt lat="48.0481803" lon="-2.3142809">
        <ele>54.708</ele>
        <time>2018-08-23T08:29:32.731Z</time>
      </trkpt>
      <trkpt lat="48.0480753" lon="-2.3143055">
        <ele>54.672</ele>
        <time>2018-08-23T08:29:35.622Z</time>
      </trkpt>
      <trkpt lat="48.0479822" lon="-2.3143389">
        <ele>54.642</ele>
        <time>2018-08-23T08:29:38.165Z</time>
      </trkpt>
      <trkpt lat="48.0478722" lon="-2.3143657">
        <ele>54.597</ele>
        <time>2018-08-23T08:29:41.053Z</time>
      </trkpt>
      <trkpt lat="48.0477627" lon="-2.3143969">
        <ele>54.510</ele>
        <time>2018-08-23T08:29:43.953Z</time>
      </trkpt>
      <trkpt lat="48.0476686" lon="-2.3144239">
        <ele>54.416</ele>
        <time>2018-08-23T08:29:46.595Z</time>
      </trkpt>
      <trkpt lat="48.0475563" lon="-2.3144599">
        <ele>54.364</ele>
        <time>2018-08-23T08:29:49.848Z</time>
      </trkpt>
      <trkpt lat="48.0474404" lon="-2.3144953">
        <ele>54.367</ele>
        <time>2018-08-23T08:29:53.119Z</time>
      </trkpt>
      <trkpt lat="48.0473253" lon="-2.3145287">
        <ele>54.386</ele>
        <time>2018-08-23T08:29:56.294Z</time>
      </trkpt>
      <trkpt lat="48.0472131" lon="-2.3145582">
        <ele>54.348</ele>
        <time>2018-08-23T08:29:59.322Z</time>
      </trkpt>
      <trkpt lat="48.0471030" lon="-2.3145916">
        <ele>54.251</ele>
        <time>2018-08-23T08:30:02.223Z</time>
      </trkpt>
      <trkpt lat="48.0469903" lon="-2.3146204">
        <ele>54.155</ele>
        <time>2018-08-23T08:30:05.138Z</time>
      </trkpt>
      <trkpt lat="48.0468852" lon="-2.3146443">
        <ele>54.091</ele>
        <time>2018-08-23T08:30:07.824Z</time>
      </trkpt>
      <trkpt lat="48.0467799" lon="-2.3146706">
        <ele>54.029</ele>
        <time>2018-08-23T08:30:10.494Z</time>
      </trkpt>
      <trkpt lat="48.0466742" lon="-2.3146789">
        <ele>53.903</ele>
        <time>2018-08-23T08:30:13.119Z</time>
      </trkpt>
      <trkpt lat="48.0465680" lon="-2.3146730">
        <ele>53.695</ele>
        <time>2018-08-23T08:30:15.789Z</time>
      </trkpt>
      <trkpt lat="48.0464647" lon="-2.3146973">
        <ele>53.466</ele>
        <time>2018-08-23T08:30:18.495Z</time>
      </trkpt>
      <trkpt lat="48.0463578" lon="-2.3147145">
        <ele>53.280</ele>
        <time>2018-08-23T08:30:21.334Z</time>
      </trkpt>
      <trkpt lat="48.0462559" lon="-2.3147166">
        <ele>53.162</ele>
        <time>2018-08-23T08:30:24.054Z</time>
      </trkpt>
      <trkpt lat="48.0461519" lon="-2.3147494">
        <ele>53.060</ele>
        <time>2018-08-23T08:30:26.942Z</time>
      </trkpt>
      <trkpt lat="48.0460543" lon="-2.3147853">
        <ele>52.935</ele>
        <time>2018-08-23T08:30:29.728Z</time>
      </trkpt>
      <trkpt lat="48.0459437" lon="-2.3148227">
        <ele>52.826</ele>
        <time>2018-08-23T08:30:32.894Z</time>
      </trkpt>
      <trkpt lat="48.0458302" lon="-2.3148543">
        <ele>52.781</ele>
        <time>2018-08-23T08:30:36.165Z</time>
      </trkpt>
      <trkpt lat="48.0457314" lon="-2.3148787">
        <ele>52.846</ele>
        <time>2018-08-23T08:30:39.045Z</time>
      </trkpt>
      <trkpt lat="48.0456254" lon="-2.3148921">
        <ele>53.030</ele>
        <time>2018-08-23T08:30:42.103Z</time>
      </trkpt>
      <trkpt lat="48.0455247" lon="-2.3149300">
        <ele>53.247</ele>
        <time>2018-08-23T08:30:45.000Z</time>
      </trkpt>
      <trkpt lat="48.0454144" lon="-2.3149755">
        <ele>53.411</ele>
        <time>2018-08-23T08:30:48.111Z</time>
      </trkpt>
      <trkpt lat="48.0453078" lon="-2.3149973">
        <ele>53.487</ele>
        <time>2018-08-23T08:30:51.072Z</time>
      </trkpt>
      <trkpt lat="48.0452137" lon="-2.3150076">
        <ele>53.469</ele>
        <time>2018-08-23T08:30:53.710Z</time>
      </trkpt>
      <trkpt lat="48.0451186" lon="-2.3150014">
        <ele>53.417</ele>
        <time>2018-08-23T08:30:56.349Z</time>
      </trkpt>
      <trkpt lat="48.0450204" lon="-2.3150478">
        <ele>53.396</ele>
        <time>2018-08-23T08:30:59.138Z</time>
      </trkpt>
      <trkpt lat="48.0449201" lon="-2.3150966">
        <ele>53.417</ele>
        <time>2018-08-23T08:31:01.955Z</time>
      </trkpt>
      <trkpt lat="48.0448036" lon="-2.3151219">
        <ele>53.449</ele>
        <time>2018-08-23T08:31:05.245Z</time>
      </trkpt>
      <trkpt lat="48.0447076" lon="-2.3151342">
        <ele>53.477</ele>
        <time>2018-08-23T08:31:08.275Z</time>
      </trkpt>
      <trkpt lat="48.0446100" lon="-2.3151520">
        <ele>53.515</ele>
        <time>2018-08-23T08:31:11.901Z</time>
      </trkpt>
      <trkpt lat="48.0445133" lon="-2.3151694">
        <ele>53.558</ele>
        <time>2018-08-23T08:31:15.844Z</time>
      </trkpt>
      <trkpt lat="48.0444164" lon="-2.3151848">
        <ele>53.536</ele>
        <time>2018-08-23T08:31:19.896Z</time>
      </trkpt>
      <trkpt lat="48.0443191" lon="-2.3152070">
        <ele>53.399</ele>
        <time>2018-08-23T08:31:23.498Z</time>
      </trkpt>
      <trkpt lat="48.0442183" lon="-2.3152402">
        <ele>53.223</ele>
        <time>2018-08-23T08:31:26.741Z</time>
      </trkpt>
      <trkpt lat="48.0441149" lon="-2.3152656">
        <ele>53.095</ele>
        <time>2018-08-23T08:31:29.856Z</time>
      </trkpt>
      <trkpt lat="48.0440031" lon="-2.3152837">
        <ele>52.995</ele>
        <time>2018-08-23T08:31:33.098Z</time>
      </trkpt>
      <trkpt lat="48.0438950" lon="-2.3152685">
        <ele>52.888</ele>
        <time>2018-08-23T08:31:36.178Z</time>
      </trkpt>
      <trkpt lat="48.0438039" lon="-2.3152435">
        <ele>52.789</ele>
        <time>2018-08-23T08:31:38.794Z</time>
      </trkpt>
      <trkpt lat="48.0436965" lon="-2.3152671">
        <ele>52.759</ele>
        <time>2018-08-23T08:31:41.826Z</time>
      </trkpt>
      <trkpt lat="48.0435923" lon="-2.3152877">
        <ele>52.820</ele>
        <time>2018-08-23T08:31:44.683Z</time>
      </trkpt>
      <trkpt lat="48.0434652" lon="-2.3152860">
        <ele>52.892</ele>
        <time>2018-08-23T08:31:48.026Z</time>
      </trkpt>
      <trkpt lat="48.0433475" lon="-2.3153292">
        <ele>52.886</ele>
        <time>2018-08-23T08:31:51.170Z</time>
      </trkpt>
      <trkpt lat="48.0432507" lon="-2.3153860">
        <ele>52.782</ele>
        <time>2018-08-23T08:31:53.907Z</time>
      </trkpt>
      <trkpt lat="48.0431412" lon="-2.3154499">
        <ele>52.604</ele>
        <time>2018-08-23T08:31:57.064Z</time>
      </trkpt>
      <trkpt lat="48.0430336" lon="-2.3155050">
        <ele>52.377</ele>
        <time>2018-08-23T08:32:00.077Z</time>
      </trkpt>
      <trkpt lat="48.0429309" lon="-2.3155686">
        <ele>52.110</ele>
        <time>2018-08-23T08:32:02.855Z</time>
      </trkpt>
      <trkpt lat="48.0428279" lon="-2.3155963">
        <ele>51.848</ele>
        <time>2018-08-23T08:32:05.402Z</time>
      </trkpt>
      <trkpt lat="48.0427156" lon="-2.3156372">
        <ele>51.657</ele>
        <time>2018-08-23T08:32:08.451Z</time>
      </trkpt>
      <trkpt lat="48.0426084" lon="-2.3156935">
        <ele>51.568</ele>
        <time>2018-08-23T08:32:11.582Z</time>
      </trkpt>
      <trkpt lat="48.0425214" lon="-2.3157615">
        <ele>51.584</ele>
        <time>2018-08-23T08:32:14.200Z</time>
      </trkpt>
      <trkpt lat="48.0424248" lon="-2.3157755">
        <ele>51.701</ele>
        <time>2018-08-23T08:32:16.912Z</time>
      </trkpt>
      <trkpt lat="48.0423130" lon="-2.3158616">
        <ele>51.861</ele>
        <time>2018-08-23T08:32:20.596Z</time>
      </trkpt>
      <trkpt lat="48.0422426" lon="-2.3159724">
        <ele>51.981</ele>
        <time>2018-08-23T08:32:23.397Z</time>
      </trkpt>
      <trkpt lat="48.0421518" lon="-2.3160456">
        <ele>52.027</ele>
        <time>2018-08-23T08:32:26.121Z</time>
      </trkpt>
      <trkpt lat="48.0420476" lon="-2.3160877">
        <ele>52.006</ele>
        <time>2018-08-23T08:32:29.955Z</time>
      </trkpt>
      <trkpt lat="48.0419557" lon="-2.3161276">
        <ele>51.932</ele>
        <time>2018-08-23T08:32:33.981Z</time>
      </trkpt>
      <trkpt lat="48.0418521" lon="-2.3161681">
        <ele>51.848</ele>
        <time>2018-08-23T08:32:37.277Z</time>
      </trkpt>
      <trkpt lat="48.0417798" lon="-2.3162556">
        <ele>51.853</ele>
        <time>2018-08-23T08:32:39.959Z</time>
      </trkpt>
      <trkpt lat="48.0417122" lon="-2.3163563">
        <ele>52.018</ele>
        <time>2018-08-23T08:32:43.008Z</time>
      </trkpt>
      <trkpt lat="48.0416108" lon="-2.3164305">
        <ele>52.256</ele>
        <time>2018-08-23T08:32:46.622Z</time>
      </trkpt>
      <trkpt lat="48.0415242" lon="-2.3165231">
        <ele>52.420</ele>
        <time>2018-08-23T08:32:50.266Z</time>
      </trkpt>
      <trkpt lat="48.0414521" lon="-2.3166367">
        <ele>52.529</ele>
        <time>2018-08-23T08:32:54.278Z</time>
      </trkpt>
      <trkpt lat="48.0413630" lon="-2.3167267">
        <ele>52.754</ele>
        <time>2018-08-23T08:32:58.723Z</time>
      </trkpt>
      <trkpt lat="48.0412682" lon="-2.3168286">
        <ele>53.161</ele>
        <time>2018-08-23T08:33:03.453Z</time>
      </trkpt>
      <trkpt lat="48.0411972" lon="-2.3169501">
        <ele>53.614</ele>
        <time>2018-08-23T08:33:07.649Z</time>
      </trkpt>
      <trkpt lat="48.0411035" lon="-2.3170085">
        <ele>54.003</ele>
        <time>2018-08-23T08:33:11.349Z</time>
      </trkpt>
      <trkpt lat="48.0410380" lon="-2.3171016">
        <ele>54.364</ele>
        <time>2018-08-23T08:33:14.538Z</time>
      </trkpt>
      <trkpt lat="48.0409877" lon="-2.3172195">
        <ele>54.769</ele>
        <time>2018-08-23T08:33:17.851Z</time>
      </trkpt>
      <trkpt lat="48.0409162" lon="-2.3173358">
        <ele>55.244</ele>
        <time>2018-08-23T08:33:21.910Z</time>
      </trkpt>
      <trkpt lat="48.0408394" lon="-2.3174466">
        <ele>55.691</ele>
        <time>2018-08-23T08:33:26.419Z</time>
      </trkpt>
      <trkpt lat="48.0407843" lon="-2.3175688">
        <ele>55.968</ele>
        <time>2018-08-23T08:33:30.629Z</time>
      </trkpt>
      <trkpt lat="48.0407193" lon="-2.3177049">
        <ele>56.076</ele>
        <time>2018-08-23T08:33:35.194Z</time>
      </trkpt>
      <trkpt lat="48.0406373" lon="-2.3178522">
        <ele>56.118</ele>
        <time>2018-08-23T08:33:40.944Z</time>
      </trkpt>
      <trkpt lat="48.0405671" lon="-2.3179432">
        <ele>56.142</ele>
        <time>2018-08-23T08:33:45.159Z</time>
      </trkpt>
      <trkpt lat="48.0404884" lon="-2.3180549">
        <ele>56.179</ele>
        <time>2018-08-23T08:33:49.468Z</time>
      </trkpt>
      <trkpt lat="48.0404443" lon="-2.3181725">
        <ele>56.301</ele>
        <time>2018-08-23T08:33:52.743Z</time>
      </trkpt>
      <trkpt lat="48.0404030" lon="-2.3182980">
        <ele>56.538</ele>
        <time>2018-08-23T08:33:55.982Z</time>
      </trkpt>
      <trkpt lat="48.0403551" lon="-2.3184296">
        <ele>56.805</ele>
        <time>2018-08-23T08:33:59.784Z</time>
      </trkpt>
      <trkpt lat="48.0402959" lon="-2.3185551">
        <ele>57.006</ele>
        <time>2018-08-23T08:34:03.758Z</time>
      </trkpt>
      <trkpt lat="48.0402163" lon="-2.3186823">
        <ele>57.149</ele>
        <time>2018-08-23T08:34:07.971Z</time>
      </trkpt>
      <trkpt lat="48.0401553" lon="-2.3188248">
        <ele>57.348</ele>
        <time>2018-08-23T08:34:12.321Z</time>
      </trkpt>
      <trkpt lat="48.0400965" lon="-2.3189330">
        <ele>57.719</ele>
        <time>2018-08-23T08:34:16.241Z</time>
      </trkpt>
      <trkpt lat="48.0400449" lon="-2.3190585">
        <ele>58.235</ele>
        <time>2018-08-23T08:34:20.678Z</time>
      </trkpt>
      <trkpt lat="48.0400018" lon="-2.3191884">
        <ele>58.723</ele>
        <time>2018-08-23T08:34:24.729Z</time>
      </trkpt>
      <trkpt lat="48.0399691" lon="-2.3193407">
        <ele>59.016</ele>
        <time>2018-08-23T08:34:28.844Z</time>
      </trkpt>
      <trkpt lat="48.0399196" lon="-2.3194944">
        <ele>59.047</ele>
        <time>2018-08-23T08:34:33.357Z</time>
      </trkpt>
      <trkpt lat="48.0398642" lon="-2.3196252">
        <ele>58.895</ele>
        <time>2018-08-23T08:34:37.585Z</time>
      </trkpt>
      <trkpt lat="48.0398165" lon="-2.3197740">
        <ele>58.758</ele>
        <time>2018-08-23T08:34:42.038Z</time>
      </trkpt>
      <trkpt lat="48.0397728" lon="-2.3199116">
        <ele>58.811</ele>
        <time>2018-08-23T08:34:46.010Z</time>
      </trkpt>
      <trkpt lat="48.0397084" lon="-2.3200483">
        <ele>59.056</ele>
        <time>2018-08-23T08:34:50.317Z</time>
      </trkpt>
      <trkpt lat="48.0396479" lon="-2.3201891">
        <ele>59.354</ele>
        <time>2018-08-23T08:34:54.609Z</time>
      </trkpt>
      <trkpt lat="48.0395985" lon="-2.3203326">
        <ele>59.567</ele>
        <time>2018-08-23T08:34:58.633Z</time>
      </trkpt>
      <trkpt lat="48.0395512" lon="-2.3204694">
        <ele>59.665</ele>
        <time>2018-08-23T08:35:02.319Z</time>
      </trkpt>
      <trkpt lat="48.0394919" lon="-2.3206026">
        <ele>59.738</ele>
        <time>2018-08-23T08:35:06.113Z</time>
      </trkpt>
      <trkpt lat="48.0394384" lon="-2.3207401">
        <ele>59.882</ele>
        <time>2018-08-23T08:35:09.973Z</time>
      </trkpt>
      <trkpt lat="48.0393932" lon="-2.3208856">
        <ele>60.089</ele>
        <time>2018-08-23T08:35:13.945Z</time>
      </trkpt>
      <trkpt lat="48.0393490" lon="-2.3210290">
        <ele>60.278</ele>
        <time>2018-08-23T08:35:17.872Z</time>
      </trkpt>
      <trkpt lat="48.0392938" lon="-2.3211819">
        <ele>60.390</ele>
        <time>2018-08-23T08:35:22.175Z</time>
      </trkpt>
      <trkpt lat="48.0392514" lon="-2.3213201">
        <ele>60.383</ele>
        <time>2018-08-23T08:35:25.860Z</time>
      </trkpt>
      <trkpt lat="48.0392122" lon="-2.3214818">
        <ele>60.235</ele>
        <time>2018-08-23T08:35:29.892Z</time>
      </trkpt>
      <trkpt lat="48.0391645" lon="-2.3216459">
        <ele>59.997</ele>
        <time>2018-08-23T08:35:34.083Z</time>
      </trkpt>
      <trkpt lat="48.0391184" lon="-2.3217628">
        <ele>59.774</ele>
        <time>2018-08-23T08:35:37.314Z</time>
      </trkpt>
      <trkpt lat="48.0390697" lon="-2.3218863">
        <ele>59.564</ele>
        <time>2018-08-23T08:35:40.618Z</time>
      </trkpt>
      <trkpt lat="48.0390258" lon="-2.3220411">
        <ele>59.318</ele>
        <time>2018-08-23T08:35:44.316Z</time>
      </trkpt>
      <trkpt lat="48.0389795" lon="-2.3221848">
        <ele>59.094</ele>
        <time>2018-08-23T08:35:47.724Z</time>
      </trkpt>
      <trkpt lat="48.0389227" lon="-2.3223394">
        <ele>58.980</ele>
        <time>2018-08-23T08:35:51.496Z</time>
      </trkpt>
      <trkpt lat="48.0388722" lon="-2.3224964">
        <ele>59.030</ele>
        <time>2018-08-23T08:35:55.403Z</time>
      </trkpt>
      <trkpt lat="48.0388139" lon="-2.3226483">
        <ele>59.226</ele>
        <time>2018-08-23T08:35:59.443Z</time>
      </trkpt>
      <trkpt lat="48.0387601" lon="-2.3228009">
        <ele>59.344</ele>
        <time>2018-08-23T08:36:03.342Z</time>
      </trkpt>
      <trkpt lat="48.0387045" lon="-2.3229548">
        <ele>59.223</ele>
        <time>2018-08-23T08:36:07.186Z</time>
      </trkpt>
      <trkpt lat="48.0386511" lon="-2.3231114">
        <ele>59.079</ele>
        <time>2018-08-23T08:36:11.000Z</time>
      </trkpt>
      <trkpt lat="48.0386103" lon="-2.3232314">
        <ele>59.223</ele>
        <time>2018-08-23T08:36:13.926Z</time>
      </trkpt>
      <trkpt lat="48.0385563" lon="-2.3233874">
        <ele>59.653</ele>
        <time>2018-08-23T08:36:17.767Z</time>
      </trkpt>
      <trkpt lat="48.0385130" lon="-2.3235058">
        <ele>60.098</ele>
        <time>2018-08-23T08:36:20.706Z</time>
      </trkpt>
      <trkpt lat="48.0384725" lon="-2.3236280">
        <ele>60.385</ele>
        <time>2018-08-23T08:36:23.679Z</time>
      </trkpt>
      <trkpt lat="48.0384254" lon="-2.3237501">
        <ele>60.544</ele>
        <time>2018-08-23T08:36:26.761Z</time>
      </trkpt>
      <trkpt lat="48.0383782" lon="-2.3238785">
        <ele>60.660</ele>
        <time>2018-08-23T08:36:29.951Z</time>
      </trkpt>
      <trkpt lat="48.0383329" lon="-2.3240123">
        <ele>60.815</ele>
        <time>2018-08-23T08:36:33.168Z</time>
      </trkpt>
      <trkpt lat="48.0382850" lon="-2.3241415">
        <ele>61.045</ele>
        <time>2018-08-23T08:36:36.271Z</time>
      </trkpt>
      <trkpt lat="48.0382359" lon="-2.3242732">
        <ele>61.286</ele>
        <time>2018-08-23T08:36:39.362Z</time>
      </trkpt>
      <trkpt lat="48.0381930" lon="-2.3244142">
        <ele>61.358</ele>
        <time>2018-08-23T08:36:42.452Z</time>
      </trkpt>
      <trkpt lat="48.0381499" lon="-2.3245421">
        <ele>61.117</ele>
        <time>2018-08-23T08:36:45.258Z</time>
      </trkpt>
      <trkpt lat="48.0381019" lon="-2.3246809">
        <ele>60.670</ele>
        <time>2018-08-23T08:36:48.289Z</time>
      </trkpt>
      <trkpt lat="48.0380586" lon="-2.3248157">
        <ele>60.203</ele>
        <time>2018-08-23T08:36:51.146Z</time>
      </trkpt>
      <trkpt lat="48.0380218" lon="-2.3249498">
        <ele>59.818</ele>
        <time>2018-08-23T08:36:53.906Z</time>
      </trkpt>
      <trkpt lat="48.0379739" lon="-2.3250818">
        <ele>59.599</ele>
        <time>2018-08-23T08:36:56.769Z</time>
      </trkpt>
      <trkpt lat="48.0379291" lon="-2.3252091">
        <ele>59.558</ele>
        <time>2018-08-23T08:36:59.495Z</time>
      </trkpt>
      <trkpt lat="48.0378823" lon="-2.3253381">
        <ele>59.623</ele>
        <time>2018-08-23T08:37:02.282Z</time>
      </trkpt>
      <trkpt lat="48.0378322" lon="-2.3254670">
        <ele>59.738</ele>
        <time>2018-08-23T08:37:05.139Z</time>
      </trkpt>
      <trkpt lat="48.0377807" lon="-2.3255972">
        <ele>59.858</ele>
        <time>2018-08-23T08:37:08.036Z</time>
      </trkpt>
      <trkpt lat="48.0377267" lon="-2.3257304">
        <ele>59.922</ele>
        <time>2018-08-23T08:37:10.998Z</time>
      </trkpt>
      <trkpt lat="48.0376736" lon="-2.3258673">
        <ele>59.911</ele>
        <time>2018-08-23T08:37:13.987Z</time>
      </trkpt>
      <trkpt lat="48.0376243" lon="-2.3260024">
        <ele>59.885</ele>
        <time>2018-08-23T08:37:16.865Z</time>
      </trkpt>
      <trkpt lat="48.0375738" lon="-2.3261349">
        <ele>59.893</ele>
        <time>2018-08-23T08:37:19.715Z</time>
      </trkpt>
      <trkpt lat="48.0375243" lon="-2.3262681">
        <ele>59.912</ele>
        <time>2018-08-23T08:37:22.570Z</time>
      </trkpt>
      <trkpt lat="48.0374758" lon="-2.3263983">
        <ele>59.884</ele>
        <time>2018-08-23T08:37:25.347Z</time>
      </trkpt>
      <trkpt lat="48.0374269" lon="-2.3265296">
        <ele>59.790</ele>
        <time>2018-08-23T08:37:28.144Z</time>
      </trkpt>
      <trkpt lat="48.0373799" lon="-2.3266586">
        <ele>59.677</ele>
        <time>2018-08-23T08:37:30.885Z</time>
      </trkpt>
      <trkpt lat="48.0373370" lon="-2.3267846">
        <ele>59.642</ele>
        <time>2018-08-23T08:37:33.513Z</time>
      </trkpt>
      <trkpt lat="48.0372964" lon="-2.3269099">
        <ele>59.742</ele>
        <time>2018-08-23T08:37:36.095Z</time>
      </trkpt>
      <trkpt lat="48.0372413" lon="-2.3270638">
        <ele>59.910</ele>
        <time>2018-08-23T08:37:39.345Z</time>
      </trkpt>
      <trkpt lat="48.0372022" lon="-2.3271894">
        <ele>60.016</ele>
        <time>2018-08-23T08:37:41.940Z</time>
      </trkpt>
      <trkpt lat="48.0371603" lon="-2.3273119">
        <ele>60.013</ele>
        <time>2018-08-23T08:37:44.552Z</time>
      </trkpt>
      <trkpt lat="48.0370976" lon="-2.3274309">
        <ele>59.940</ele>
        <time>2018-08-23T08:37:47.477Z</time>
      </trkpt>
      <trkpt lat="48.0370309" lon="-2.3275491">
        <ele>59.840</ele>
        <time>2018-08-23T08:37:50.548Z</time>
      </trkpt>
      <trkpt lat="48.0369540" lon="-2.3276612">
        <ele>59.743</ele>
        <time>2018-08-23T08:37:53.839Z</time>
      </trkpt>
      <trkpt lat="48.0368841" lon="-2.3277757">
        <ele>59.684</ele>
        <time>2018-08-23T08:37:57.127Z</time>
      </trkpt>
      <trkpt lat="48.0368145" lon="-2.3278838">
        <ele>59.671</ele>
        <time>2018-08-23T08:38:00.276Z</time>
      </trkpt>
      <trkpt lat="48.0367429" lon="-2.3280281">
        <ele>59.693</ele>
        <time>2018-08-23T08:38:03.913Z</time>
      </trkpt>
      <trkpt lat="48.0366842" lon="-2.3281318">
        <ele>59.838</ele>
        <time>2018-08-23T08:38:06.540Z</time>
      </trkpt>
      <trkpt lat="48.0366236" lon="-2.3282402">
        <ele>60.190</ele>
        <time>2018-08-23T08:38:09.209Z</time>
      </trkpt>
      <trkpt lat="48.0365540" lon="-2.3283388">
        <ele>60.612</ele>
        <time>2018-08-23T08:38:11.898Z</time>
      </trkpt>
      <trkpt lat="48.0364800" lon="-2.3284582">
        <ele>60.970</ele>
        <time>2018-08-23T08:38:14.999Z</time>
      </trkpt>
      <trkpt lat="48.0364083" lon="-2.3285695">
        <ele>61.326</ele>
        <time>2018-08-23T08:38:18.017Z</time>
      </trkpt>
      <trkpt lat="48.0363369" lon="-2.3286689">
        <ele>61.711</ele>
        <time>2018-08-23T08:38:20.974Z</time>
      </trkpt>
      <trkpt lat="48.0362701" lon="-2.3287636">
        <ele>62.030</ele>
        <time>2018-08-23T08:38:23.771Z</time>
      </trkpt>
      <trkpt lat="48.0361884" lon="-2.3288490">
        <ele>62.202</ele>
        <time>2018-08-23T08:38:26.861Z</time>
      </trkpt>
      <trkpt lat="48.0361037" lon="-2.3289251">
        <ele>62.196</ele>
        <time>2018-08-23T08:38:29.903Z</time>
      </trkpt>
      <trkpt lat="48.0360193" lon="-2.3290162">
        <ele>61.978</ele>
        <time>2018-08-23T08:38:32.973Z</time>
      </trkpt>
      <trkpt lat="48.0359445" lon="-2.3291099">
        <ele>61.615</ele>
        <time>2018-08-23T08:38:35.866Z</time>
      </trkpt>
      <trkpt lat="48.0358633" lon="-2.3291837">
        <ele>61.232</ele>
        <time>2018-08-23T08:38:38.779Z</time>
      </trkpt>
      <trkpt lat="48.0357805" lon="-2.3292641">
        <ele>60.891</ele>
        <time>2018-08-23T08:38:41.837Z</time>
      </trkpt>
      <trkpt lat="48.0357022" lon="-2.3293352">
        <ele>60.711</ele>
        <time>2018-08-23T08:38:44.657Z</time>
      </trkpt>
      <trkpt lat="48.0356258" lon="-2.3294180">
        <ele>60.866</ele>
        <time>2018-08-23T08:38:47.556Z</time>
      </trkpt>
      <trkpt lat="48.0355398" lon="-2.3294911">
        <ele>61.340</ele>
        <time>2018-08-23T08:38:50.578Z</time>
      </trkpt>
      <trkpt lat="48.0354541" lon="-2.3295528">
        <ele>61.886</ele>
        <time>2018-08-23T08:38:53.458Z</time>
      </trkpt>
      <trkpt lat="48.0353766" lon="-2.3296515">
        <ele>62.223</ele>
        <time>2018-08-23T08:38:56.416Z</time>
      </trkpt>
      <trkpt lat="48.0352962" lon="-2.3297618">
        <ele>62.294</ele>
        <time>2018-08-23T08:38:59.558Z</time>
      </trkpt>
      <trkpt lat="48.0352121" lon="-2.3298734">
        <ele>62.184</ele>
        <time>2018-08-23T08:39:02.912Z</time>
      </trkpt>
      <trkpt lat="48.0351476" lon="-2.3299732">
        <ele>61.987</ele>
        <time>2018-08-23T08:39:05.681Z</time>
      </trkpt>
      <trkpt lat="48.0350736" lon="-2.3300777">
        <ele>61.812</ele>
        <time>2018-08-23T08:39:08.699Z</time>
      </trkpt>
      <trkpt lat="48.0349951" lon="-2.3301537">
        <ele>61.715</ele>
        <time>2018-08-23T08:39:11.688Z</time>
      </trkpt>
      <trkpt lat="48.0349065" lon="-2.3302412">
        <ele>61.676</ele>
        <time>2018-08-23T08:39:15.481Z</time>
      </trkpt>
      <trkpt lat="48.0348182" lon="-2.3303427">
        <ele>61.647</ele>
        <time>2018-08-23T08:39:19.855Z</time>
      </trkpt>
      <trkpt lat="48.0347372" lon="-2.3304407">
        <ele>61.601</ele>
        <time>2018-08-23T08:39:24.099Z</time>
      </trkpt>
      <trkpt lat="48.0346533" lon="-2.3305539">
        <ele>61.514</ele>
        <time>2018-08-23T08:39:28.626Z</time>
      </trkpt>
      <trkpt lat="48.0345824" lon="-2.3306582">
        <ele>61.383</ele>
        <time>2018-08-23T08:39:32.582Z</time>
      </trkpt>
      <trkpt lat="48.0344941" lon="-2.3307711">
        <ele>61.317</ele>
        <time>2018-08-23T08:39:36.509Z</time>
      </trkpt>
      <trkpt lat="48.0344088" lon="-2.3308915">
        <ele>61.516</ele>
        <time>2018-08-23T08:39:40.031Z</time>
      </trkpt>
      <trkpt lat="48.0343347" lon="-2.3310103">
        <ele>62.033</ele>
        <time>2018-08-23T08:39:43.622Z</time>
      </trkpt>
      <trkpt lat="48.0342660" lon="-2.3311315">
        <ele>62.639</ele>
        <time>2018-08-23T08:39:47.356Z</time>
      </trkpt>
      <trkpt lat="48.0341888" lon="-2.3312455">
        <ele>63.033</ele>
        <time>2018-08-23T08:39:50.873Z</time>
      </trkpt>
      <trkpt lat="48.0341130" lon="-2.3313554">
        <ele>63.152</ele>
        <time>2018-08-23T08:39:54.072Z</time>
      </trkpt>
      <trkpt lat="48.0340416" lon="-2.3314799">
        <ele>63.135</ele>
        <time>2018-08-23T08:39:57.331Z</time>
      </trkpt>
      <trkpt lat="48.0339759" lon="-2.3315946">
        <ele>63.103</ele>
        <time>2018-08-23T08:40:00.290Z</time>
      </trkpt>
      <trkpt lat="48.0339255" lon="-2.3317089">
        <ele>63.091</ele>
        <time>2018-08-23T08:40:02.934Z</time>
      </trkpt>
      <trkpt lat="48.0338703" lon="-2.3318155">
        <ele>62.993</ele>
        <time>2018-08-23T08:40:05.519Z</time>
      </trkpt>
      <trkpt lat="48.0338319" lon="-2.3319435">
        <ele>62.631</ele>
        <time>2018-08-23T08:40:08.180Z</time>
      </trkpt>
      <trkpt lat="48.0337931" lon="-2.3320791">
        <ele>62.043</ele>
        <time>2018-08-23T08:40:10.990Z</time>
      </trkpt>
      <trkpt lat="48.0337429" lon="-2.3322304">
        <ele>61.517</ele>
        <time>2018-08-23T08:40:14.362Z</time>
      </trkpt>
      <trkpt lat="48.0336794" lon="-2.3323686">
        <ele>61.199</ele>
        <time>2018-08-23T08:40:17.917Z</time>
      </trkpt>
      <trkpt lat="48.0336003" lon="-2.3325024">
        <ele>61.025</ele>
        <time>2018-08-23T08:40:21.738Z</time>
      </trkpt>
      <trkpt lat="48.0335458" lon="-2.3326111">
        <ele>60.944</ele>
        <time>2018-08-23T08:40:24.619Z</time>
      </trkpt>
      <trkpt lat="48.0335088" lon="-2.3327390">
        <ele>60.952</ele>
        <time>2018-08-23T08:40:27.634Z</time>
      </trkpt>
      <trkpt lat="48.0334652" lon="-2.3328958">
        <ele>61.096</ele>
        <time>2018-08-23T08:40:31.555Z</time>
      </trkpt>
      <trkpt lat="48.0334065" lon="-2.3330009">
        <ele>61.390</ele>
        <time>2018-08-23T08:40:34.777Z</time>
      </trkpt>
      <trkpt lat="48.0333345" lon="-2.3331384">
        <ele>61.778</ele>
        <time>2018-08-23T08:40:38.892Z</time>
      </trkpt>
      <trkpt lat="48.0332922" lon="-2.3332614">
        <ele>62.226</ele>
        <time>2018-08-23T08:40:42.149Z</time>
      </trkpt>
      <trkpt lat="48.0332540" lon="-2.3333928">
        <ele>62.675</ele>
        <time>2018-08-23T08:40:45.480Z</time>
      </trkpt>
      <trkpt lat="48.0331889" lon="-2.3335223">
        <ele>63.029</ele>
        <time>2018-08-23T08:40:49.227Z</time>
      </trkpt>
      <trkpt lat="48.0331289" lon="-2.3336529">
        <ele>63.278</ele>
        <time>2018-08-23T08:40:52.907Z</time>
      </trkpt>
      <trkpt lat="48.0330887" lon="-2.3337736">
        <ele>63.438</ele>
        <time>2018-08-23T08:40:56.030Z</time>
      </trkpt>
      <trkpt lat="48.0330163" lon="-2.3339124">
        <ele>63.480</ele>
        <time>2018-08-23T08:41:00.030Z</time>
      </trkpt>
      <trkpt lat="48.0329600" lon="-2.3340502">
        <ele>63.415</ele>
        <time>2018-08-23T08:41:03.516Z</time>
      </trkpt>
      <trkpt lat="48.0329150" lon="-2.3341736">
        <ele>63.286</ele>
        <time>2018-08-23T08:41:06.547Z</time>
      </trkpt>
      <trkpt lat="48.0328685" lon="-2.3342931">
        <ele>63.128</ele>
        <time>2018-08-23T08:41:09.569Z</time>
      </trkpt>
      <trkpt lat="48.0328199" lon="-2.3344152">
        <ele>62.949</ele>
        <time>2018-08-23T08:41:12.581Z</time>
      </trkpt>
      <trkpt lat="48.0327774" lon="-2.3345336">
        <ele>62.759</ele>
        <time>2018-08-23T08:41:15.364Z</time>
      </trkpt>
      <trkpt lat="48.0327166" lon="-2.3346902">
        <ele>62.546</ele>
        <time>2018-08-23T08:41:19.254Z</time>
      </trkpt>
      <trkpt lat="48.0326664" lon="-2.3348487">
        <ele>62.251</ele>
        <time>2018-08-23T08:41:23.118Z</time>
      </trkpt>
      <trkpt lat="48.0326219" lon="-2.3349696">
        <ele>61.851</ele>
        <time>2018-08-23T08:41:26.232Z</time>
      </trkpt>
      <trkpt lat="48.0325675" lon="-2.3351165">
        <ele>61.470</ele>
        <time>2018-08-23T08:41:29.886Z</time>
      </trkpt>
      <trkpt lat="48.0325232" lon="-2.3352376">
        <ele>61.340</ele>
        <time>2018-08-23T08:41:32.792Z</time>
      </trkpt>
      <trkpt lat="48.0324810" lon="-2.3353677">
        <ele>61.522</ele>
        <time>2018-08-23T08:41:35.896Z</time>
      </trkpt>
      <trkpt lat="48.0324210" lon="-2.3355269">
        <ele>61.768</ele>
        <time>2018-08-23T08:41:39.950Z</time>
      </trkpt>
      <trkpt lat="48.0323752" lon="-2.3356917">
        <ele>61.862</ele>
        <time>2018-08-23T08:41:44.010Z</time>
      </trkpt>
      <trkpt lat="48.0323351" lon="-2.3358455">
        <ele>61.898</ele>
        <time>2018-08-23T08:41:47.655Z</time>
      </trkpt>
      <trkpt lat="48.0322833" lon="-2.3359865">
        <ele>62.003</ele>
        <time>2018-08-23T08:41:50.808Z</time>
      </trkpt>
      <trkpt lat="48.0322225" lon="-2.3360885">
        <ele>62.010</ele>
        <time>2018-08-23T08:41:53.381Z</time>
      </trkpt>
      <trkpt lat="48.0321595" lon="-2.3362271">
        <ele>61.739</ele>
        <time>2018-08-23T08:41:56.879Z</time>
      </trkpt>
      <trkpt lat="48.0321052" lon="-2.3363611">
        <ele>61.366</ele>
        <time>2018-08-23T08:42:00.785Z</time>
      </trkpt>
      <trkpt lat="48.0320555" lon="-2.3364853">
        <ele>61.164</ele>
        <time>2018-08-23T08:42:04.933Z</time>
      </trkpt>
      <trkpt lat="48.0319934" lon="-2.3366205">
        <ele>61.213</ele>
        <time>2018-08-23T08:42:09.613Z</time>
      </trkpt>
      <trkpt lat="48.0319264" lon="-2.3367637">
        <ele>61.474</ele>
        <time>2018-08-23T08:42:14.678Z</time>
      </trkpt>
      <trkpt lat="48.0318570" lon="-2.3369034">
        <ele>61.803</ele>
        <time>2018-08-23T08:42:20.246Z</time>
      </trkpt>
      <trkpt lat="48.0317835" lon="-2.3370228">
        <ele>62.031</ele>
        <time>2018-08-23T08:42:25.160Z</time>
      </trkpt>
      <trkpt lat="48.0317374" lon="-2.3371752">
        <ele>62.109</ele>
        <time>2018-08-23T08:42:29.537Z</time>
      </trkpt>
      <trkpt lat="48.0316784" lon="-2.3373065">
        <ele>62.104</ele>
        <time>2018-08-23T08:42:33.525Z</time>
      </trkpt>
      <trkpt lat="48.0316206" lon="-2.3374364">
        <ele>62.038</ele>
        <time>2018-08-23T08:42:37.404Z</time>
      </trkpt>
      <trkpt lat="48.0315656" lon="-2.3375870">
        <ele>61.868</ele>
        <time>2018-08-23T08:42:41.858Z</time>
      </trkpt>
      <trkpt lat="48.0315192" lon="-2.3377291">
        <ele>61.626</ele>
        <time>2018-08-23T08:42:45.780Z</time>
      </trkpt>
      <trkpt lat="48.0314824" lon="-2.3378551">
        <ele>61.432</ele>
        <time>2018-08-23T08:42:48.756Z</time>
      </trkpt>
      <trkpt lat="48.0314066" lon="-2.3379683">
        <ele>61.263</ele>
        <time>2018-08-23T08:42:52.129Z</time>
      </trkpt>
      <trkpt lat="48.0313427" lon="-2.3380810">
        <ele>61.000</ele>
        <time>2018-08-23T08:42:55.441Z</time>
      </trkpt>
      <trkpt lat="48.0313021" lon="-2.3382032">
        <ele>60.549</ele>
        <time>2018-08-23T08:42:58.741Z</time>
      </trkpt>
      <trkpt lat="48.0312531" lon="-2.3383335">
        <ele>59.882</ele>
        <time>2018-08-23T08:43:02.706Z</time>
      </trkpt>
      <trkpt lat="48.0311751" lon="-2.3384688">
        <ele>59.198</ele>
        <time>2018-08-23T08:43:07.730Z</time>
      </trkpt>
      <trkpt lat="48.0311213" lon="-2.3385803">
        <ele>58.840</ele>
        <time>2018-08-23T08:43:11.350Z</time>
      </trkpt>
      <trkpt lat="48.0310650" lon="-2.3386959">
        <ele>58.928</ele>
        <time>2018-08-23T08:43:14.735Z</time>
      </trkpt>
      <trkpt lat="48.0310075" lon="-2.3388216">
        <ele>59.261</ele>
        <time>2018-08-23T08:43:18.027Z</time>
      </trkpt>
      <trkpt lat="48.0309535" lon="-2.3389402">
        <ele>59.575</ele>
        <time>2018-08-23T08:43:21.008Z</time>
      </trkpt>
      <trkpt lat="48.0309070" lon="-2.3390557">
        <ele>59.778</ele>
        <time>2018-08-23T08:43:23.732Z</time>
      </trkpt>
      <trkpt lat="48.0308585" lon="-2.3391734">
        <ele>59.955</ele>
        <time>2018-08-23T08:43:26.458Z</time>
      </trkpt>
      <trkpt lat="48.0307979" lon="-2.3392940">
        <ele>60.263</ele>
        <time>2018-08-23T08:43:29.477Z</time>
      </trkpt>
      <trkpt lat="48.0307366" lon="-2.3394054">
        <ele>60.730</ele>
        <time>2018-08-23T08:43:32.418Z</time>
      </trkpt>
      <trkpt lat="48.0306660" lon="-2.3395179">
        <ele>61.166</ele>
        <time>2018-08-23T08:43:35.506Z</time>
      </trkpt>
      <trkpt lat="48.0306003" lon="-2.3396321">
        <ele>61.430</ele>
        <time>2018-08-23T08:43:38.547Z</time>
      </trkpt>
      <trkpt lat="48.0305373" lon="-2.3397438">
        <ele>61.592</ele>
        <time>2018-08-23T08:43:41.567Z</time>
      </trkpt>
      <trkpt lat="48.0304649" lon="-2.3398613">
        <ele>61.741</ele>
        <time>2018-08-23T08:43:44.858Z</time>
      </trkpt>
      <trkpt lat="48.0303849" lon="-2.3399723">
        <ele>61.845</ele>
        <time>2018-08-23T08:43:48.180Z</time>
      </trkpt>
      <trkpt lat="48.0303124" lon="-2.3400897">
        <ele>61.864</ele>
        <time>2018-08-23T08:43:51.374Z</time>
      </trkpt>
      <trkpt lat="48.0302487" lon="-2.3402123">
        <ele>61.840</ele>
        <time>2018-08-23T08:43:54.409Z</time>
      </trkpt>
      <trkpt lat="48.0301826" lon="-2.3403421">
        <ele>61.829</ele>
        <time>2018-08-23T08:43:57.585Z</time>
      </trkpt>
      <trkpt lat="48.0301100" lon="-2.3404559">
        <ele>61.829</ele>
        <time>2018-08-23T08:44:00.647Z</time>
      </trkpt>
      <trkpt lat="48.0300494" lon="-2.3405600">
        <ele>61.826</ele>
        <time>2018-08-23T08:44:03.283Z</time>
      </trkpt>
      <trkpt lat="48.0299721" lon="-2.3406729">
        <ele>61.880</ele>
        <time>2018-08-23T08:44:06.371Z</time>
      </trkpt>
      <trkpt lat="48.0298717" lon="-2.3407708">
        <ele>62.011</ele>
        <time>2018-08-23T08:44:09.881Z</time>
      </trkpt>
      <trkpt lat="48.0297895" lon="-2.3408972">
        <ele>62.087</ele>
        <time>2018-08-23T08:44:13.256Z</time>
      </trkpt>
      <trkpt lat="48.0297244" lon="-2.3409944">
        <ele>61.962</ele>
        <time>2018-08-23T08:44:15.854Z</time>
      </trkpt>
      <trkpt lat="48.0296213" lon="-2.3411331">
        <ele>61.545</ele>
        <time>2018-08-23T08:44:19.583Z</time>
      </trkpt>
      <trkpt lat="48.0295226" lon="-2.3412730">
        <ele>60.937</ele>
        <time>2018-08-23T08:44:22.820Z</time>
      </trkpt>
      <trkpt lat="48.0294356" lon="-2.3413735">
        <ele>60.410</ele>
        <time>2018-08-23T08:44:25.309Z</time>
      </trkpt>
      <trkpt lat="48.0293393" lon="-2.3415002">
        <ele>60.111</ele>
        <time>2018-08-23T08:44:28.364Z</time>
      </trkpt>
      <trkpt lat="48.0292485" lon="-2.3416416">
        <ele>60.000</ele>
        <time>2018-08-23T08:44:31.548Z</time>
      </trkpt>
      <trkpt lat="48.0291417" lon="-2.3417841">
        <ele>60.004</ele>
        <time>2018-08-23T08:44:34.865Z</time>
      </trkpt>
      <trkpt lat="48.0290497" lon="-2.3419317">
        <ele>60.003</ele>
        <time>2018-08-23T08:44:37.834Z</time>
      </trkpt>
      <trkpt lat="48.0289579" lon="-2.3420692">
        <ele>59.929</ele>
        <time>2018-08-23T08:44:40.604Z</time>
      </trkpt>
      <trkpt lat="48.0288909" lon="-2.3422088">
        <ele>59.838</ele>
        <time>2018-08-23T08:44:43.145Z</time>
      </trkpt>
      <trkpt lat="48.0287956" lon="-2.3423460">
        <ele>59.824</ele>
        <time>2018-08-23T08:44:46.383Z</time>
      </trkpt>
      <trkpt lat="48.0287121" lon="-2.3424740">
        <ele>59.894</ele>
        <time>2018-08-23T08:44:49.378Z</time>
      </trkpt>
      <trkpt lat="48.0286221" lon="-2.3425865">
        <ele>59.971</ele>
        <time>2018-08-23T08:44:52.349Z</time>
      </trkpt>
      <trkpt lat="48.0285224" lon="-2.3427140">
        <ele>59.971</ele>
        <time>2018-08-23T08:44:55.786Z</time>
      </trkpt>
      <trkpt lat="48.0284348" lon="-2.3428128">
        <ele>59.893</ele>
        <time>2018-08-23T08:44:58.593Z</time>
      </trkpt>
      <trkpt lat="48.0283421" lon="-2.3429141">
        <ele>59.796</ele>
        <time>2018-08-23T08:45:01.673Z</time>
      </trkpt>
      <trkpt lat="48.0282891" lon="-2.3430586">
        <ele>59.727</ele>
        <time>2018-08-23T08:45:04.770Z</time>
      </trkpt>
      <trkpt lat="48.0282101" lon="-2.3432188">
        <ele>59.704</ele>
        <time>2018-08-23T08:45:08.328Z</time>
      </trkpt>
      <trkpt lat="48.0281185" lon="-2.3433156">
        <ele>59.726</ele>
        <time>2018-08-23T08:45:11.177Z</time>
      </trkpt>
      <trkpt lat="48.0280253" lon="-2.3434401">
        <ele>59.785</ele>
        <time>2018-08-23T08:45:14.363Z</time>
      </trkpt>
      <trkpt lat="48.0279529" lon="-2.3435253">
        <ele>59.876</ele>
        <time>2018-08-23T08:45:16.705Z</time>
      </trkpt>
      <trkpt lat="48.0278407" lon="-2.3436593">
        <ele>59.989</ele>
        <time>2018-08-23T08:45:20.040Z</time>
      </trkpt>
      <trkpt lat="48.0277683" lon="-2.3437462">
        <ele>60.112</ele>
        <time>2018-08-23T08:45:22.088Z</time>
      </trkpt>
      <trkpt lat="48.0276643" lon="-2.3438588">
        <ele>60.205</ele>
        <time>2018-08-23T08:45:24.958Z</time>
      </trkpt>
      <trkpt lat="48.0275749" lon="-2.3439742">
        <ele>60.217</ele>
        <time>2018-08-23T08:45:27.817Z</time>
      </trkpt>
      <trkpt lat="48.0274958" lon="-2.3440667">
        <ele>60.138</ele>
        <time>2018-08-23T08:45:30.538Z</time>
      </trkpt>
      <trkpt lat="48.0274056" lon="-2.3441695">
        <ele>60.041</ele>
        <time>2018-08-23T08:45:33.875Z</time>
      </trkpt>
      <trkpt lat="48.0273082" lon="-2.3442659">
        <ele>60.088</ele>
        <time>2018-08-23T08:45:37.114Z</time>
      </trkpt>
      <trkpt lat="48.0272141" lon="-2.3443474">
        <ele>60.537</ele>
        <time>2018-08-23T08:45:40.019Z</time>
      </trkpt>
      <trkpt lat="48.0271168" lon="-2.3444763">
        <ele>61.346</ele>
        <time>2018-08-23T08:45:43.414Z</time>
      </trkpt>
      <trkpt lat="48.0270059" lon="-2.3446254">
        <ele>61.823</ele>
        <time>2018-08-23T08:45:46.863Z</time>
      </trkpt>
      <trkpt lat="48.0268988" lon="-2.3447305">
        <ele>61.311</ele>
        <time>2018-08-23T08:45:49.660Z</time>
      </trkpt>
      <trkpt lat="48.0268064" lon="-2.3448239">
        <ele>60.037</ele>
        <time>2018-08-23T08:45:52.292Z</time>
      </trkpt>
      <trkpt lat="48.0267133" lon="-2.3449831">
        <ele>58.723</ele>
        <time>2018-08-23T08:45:55.775Z</time>
      </trkpt>
      <trkpt lat="48.0266474" lon="-2.3451083">
        <ele>57.725</ele>
        <time>2018-08-23T08:45:58.225Z</time>
      </trkpt>
      <trkpt lat="48.0265558" lon="-2.3452693">
        <ele>57.029</ele>
        <time>2018-08-23T08:46:01.379Z</time>
      </trkpt>
      <trkpt lat="48.0264801" lon="-2.3454099">
        <ele>56.727</ele>
        <time>2018-08-23T08:46:04.240Z</time>
      </trkpt>
      <trkpt lat="48.0264059" lon="-2.3455396">
        <ele>56.858</ele>
        <time>2018-08-23T08:46:07.176Z</time>
      </trkpt>
      <trkpt lat="48.0263441" lon="-2.3456649">
        <ele>57.152</ele>
        <time>2018-08-23T08:46:09.999Z</time>
      </trkpt>
      <trkpt lat="48.0263441" lon="-2.3456649">
        <ele>57.319</ele>
        <time>2018-08-23T08:46:15.999Z</time>
      </trkpt>
      <trkpt lat="48.0263441" lon="-2.3456649">
        <ele>57.294</ele>
        <time>2018-08-23T08:46:37.105Z</time>
      </trkpt>
      <trkpt lat="48.0261576" lon="-2.3460069">
        <ele>57.187</ele>
        <time>2018-08-23T08:47:10.377Z</time>
      </trkpt>
      <trkpt lat="48.0260835" lon="-2.3461035">
        <ele>56.915</ele>
        <time>2018-08-23T08:47:18.181Z</time>
      </trkpt>
      <trkpt lat="48.0260097" lon="-2.3462083">
        <ele>56.369</ele>
        <time>2018-08-23T08:47:26.531Z</time>
      </trkpt>
      <trkpt lat="48.0259370" lon="-2.3463025">
        <ele>55.616</ele>
        <time>2018-08-23T08:47:34.758Z</time>
      </trkpt>
      <trkpt lat="48.0258511" lon="-2.3463747">
        <ele>54.722</ele>
        <time>2018-08-23T08:47:40.957Z</time>
      </trkpt>
      <trkpt lat="48.0257684" lon="-2.3464799">
        <ele>53.888</ele>
        <time>2018-08-23T08:47:45.950Z</time>
      </trkpt>
      <trkpt lat="48.0257060" lon="-2.3465907">
        <ele>53.323</ele>
        <time>2018-08-23T08:47:50.173Z</time>
      </trkpt>
      <trkpt lat="48.0256125" lon="-2.3466758">
        <ele>53.049</ele>
        <time>2018-08-23T08:47:54.505Z</time>
      </trkpt>
      <trkpt lat="48.0255452" lon="-2.3468055">
        <ele>53.007</ele>
        <time>2018-08-23T08:47:58.287Z</time>
      </trkpt>
      <trkpt lat="48.0254660" lon="-2.3469186">
        <ele>53.051</ele>
        <time>2018-08-23T08:48:01.603Z</time>
      </trkpt>
      <trkpt lat="48.0253904" lon="-2.3470370">
        <ele>53.108</ele>
        <time>2018-08-23T08:48:04.434Z</time>
      </trkpt>
      <trkpt lat="48.0253074" lon="-2.3471442">
        <ele>53.232</ele>
        <time>2018-08-23T08:48:07.068Z</time>
      </trkpt>
      <trkpt lat="48.0252159" lon="-2.3472471">
        <ele>53.430</ele>
        <time>2018-08-23T08:48:09.764Z</time>
      </trkpt>
      <trkpt lat="48.0251132" lon="-2.3473645">
        <ele>53.676</ele>
        <time>2018-08-23T08:48:12.833Z</time>
      </trkpt>
      <trkpt lat="48.0250320" lon="-2.3474815">
        <ele>53.968</ele>
        <time>2018-08-23T08:48:15.515Z</time>
      </trkpt>
      <trkpt lat="48.0249605" lon="-2.3476088">
        <ele>54.401</ele>
        <time>2018-08-23T08:48:18.124Z</time>
      </trkpt>
      <trkpt lat="48.0248871" lon="-2.3477364">
        <ele>54.906</ele>
        <time>2018-08-23T08:48:20.732Z</time>
      </trkpt>
      <trkpt lat="48.0248129" lon="-2.3478672">
        <ele>55.245</ele>
        <time>2018-08-23T08:48:23.381Z</time>
      </trkpt>
      <trkpt lat="48.0247333" lon="-2.3479909">
        <ele>55.349</ele>
        <time>2018-08-23T08:48:26.115Z</time>
      </trkpt>
      <trkpt lat="48.0246655" lon="-2.3480907">
        <ele>55.309</ele>
        <time>2018-08-23T08:48:28.465Z</time>
      </trkpt>
      <trkpt lat="48.0245888" lon="-2.3481808">
        <ele>55.215</ele>
        <time>2018-08-23T08:48:30.896Z</time>
      </trkpt>
      <trkpt lat="48.0245119" lon="-2.3482692">
        <ele>55.024</ele>
        <time>2018-08-23T08:48:33.482Z</time>
      </trkpt>
      <trkpt lat="48.0244412" lon="-2.3483783">
        <ele>54.659</ele>
        <time>2018-08-23T08:48:36.353Z</time>
      </trkpt>
      <trkpt lat="48.0243509" lon="-2.3485033">
        <ele>53.884</ele>
        <time>2018-08-23T08:48:39.999Z</time>
      </trkpt>
      <trkpt lat="48.0243509" lon="-2.3485033">
        <ele>52.675</ele>
        <time>2018-08-23T08:48:53.999Z</time>
      </trkpt>
      <trkpt lat="48.0243509" lon="-2.3485033">
        <ele>51.790</ele>
        <time>2018-08-23T08:49:24.222Z</time>
      </trkpt>
      <trkpt lat="48.0241820" lon="-2.3487709">
        <ele>51.799</ele>
        <time>2018-08-23T08:49:39.538Z</time>
      </trkpt>
      <trkpt lat="48.0241046" lon="-2.3488989">
        <ele>52.012</ele>
        <time>2018-08-23T08:49:42.852Z</time>
      </trkpt>
      <trkpt lat="48.0240220" lon="-2.3490360">
        <ele>51.679</ele>
        <time>2018-08-23T08:49:46.583Z</time>
      </trkpt>
      <trkpt lat="48.0239389" lon="-2.3491041">
        <ele>50.991</ele>
        <time>2018-08-23T08:49:49.861Z</time>
      </trkpt>
      <trkpt lat="48.0238652" lon="-2.3492321">
        <ele>50.468</ele>
        <time>2018-08-23T08:49:54.093Z</time>
      </trkpt>
      <trkpt lat="48.0238167" lon="-2.3493603">
        <ele>49.964</ele>
        <time>2018-08-23T08:49:58.239Z</time>
      </trkpt>
      <trkpt lat="48.0237214" lon="-2.3494378">
        <ele>49.163</ele>
        <time>2018-08-23T08:50:03.248Z</time>
      </trkpt>
      <trkpt lat="48.0236371" lon="-2.3495354">
        <ele>48.332</ele>
        <time>2018-08-23T08:50:08.114Z</time>
      </trkpt>
      <trkpt lat="48.0235685" lon="-2.3496497">
        <ele>47.855</ele>
        <time>2018-08-23T08:50:12.736Z</time>
      </trkpt>
      <trkpt lat="48.0234892" lon="-2.3497281">
        <ele>47.826</ele>
        <time>2018-08-23T08:50:17.116Z</time>
      </trkpt>
      <trkpt lat="48.0234063" lon="-2.3498145">
        <ele>48.302</ele>
        <time>2018-08-23T08:50:21.999Z</time>
      </trkpt>
      <trkpt lat="48.0234063" lon="-2.3498145">
        <ele>49.044</ele>
        <time>2018-08-23T08:50:39.999Z</time>
      </trkpt>
      <trkpt lat="48.0234063" lon="-2.3498145">
        <ele>49.505</ele>
        <time>2018-08-23T08:52:21.332Z</time>
      </trkpt>
      <trkpt lat="48.0231709" lon="-2.3500070">
        <ele>49.459</ele>
        <time>2018-08-23T08:52:44.224Z</time>
      </trkpt>
      <trkpt lat="48.0230971" lon="-2.3500899">
        <ele>49.502</ele>
        <time>2018-08-23T08:52:48.336Z</time>
      </trkpt>
      <trkpt lat="48.0230343" lon="-2.3501874">
        <ele>50.277</ele>
        <time>2018-08-23T08:52:52.052Z</time>
      </trkpt>
      <trkpt lat="48.0229762" lon="-2.3503198">
        <ele>51.505</ele>
        <time>2018-08-23T08:52:56.270Z</time>
      </trkpt>
      <trkpt lat="48.0228880" lon="-2.3504012">
        <ele>52.526</ele>
        <time>2018-08-23T08:53:00.366Z</time>
      </trkpt>
      <trkpt lat="48.0228086" lon="-2.3505121">
        <ele>53.175</ele>
        <time>2018-08-23T08:53:04.797Z</time>
      </trkpt>
      <trkpt lat="48.0227327" lon="-2.3505930">
        <ele>53.588</ele>
        <time>2018-08-23T08:53:08.466Z</time>
      </trkpt>
      <trkpt lat="48.0226344" lon="-2.3506847">
        <ele>53.864</ele>
        <time>2018-08-23T08:53:12.953Z</time>
      </trkpt>
      <trkpt lat="48.0225519" lon="-2.3507469">
        <ele>54.035</ele>
        <time>2018-08-23T08:53:16.841Z</time>
      </trkpt>
      <trkpt lat="48.0224547" lon="-2.3508128">
        <ele>54.034</ele>
        <time>2018-08-23T08:53:21.839Z</time>
      </trkpt>
      <trkpt lat="48.0223692" lon="-2.3508850">
        <ele>53.802</ele>
        <time>2018-08-23T08:53:26.761Z</time>
      </trkpt>
      <trkpt lat="48.0222833" lon="-2.3509764">
        <ele>53.471</ele>
        <time>2018-08-23T08:53:32.048Z</time>
      </trkpt>
      <trkpt lat="48.0221977" lon="-2.3510482">
        <ele>53.232</ele>
        <time>2018-08-23T08:53:36.804Z</time>
      </trkpt>
      <trkpt lat="48.0221113" lon="-2.3511136">
        <ele>53.236</ele>
        <time>2018-08-23T08:53:41.252Z</time>
      </trkpt>
      <trkpt lat="48.0220108" lon="-2.3511176">
        <ele>53.525</ele>
        <time>2018-08-23T08:53:45.238Z</time>
      </trkpt>
      <trkpt lat="48.0219411" lon="-2.3512062">
        <ele>53.870</ele>
        <time>2018-08-23T08:53:48.820Z</time>
      </trkpt>
      <trkpt lat="48.0218383" lon="-2.3512817">
        <ele>54.019</ele>
        <time>2018-08-23T08:53:53.323Z</time>
      </trkpt>
      <trkpt lat="48.0217426" lon="-2.3513467">
        <ele>53.945</ele>
        <time>2018-08-23T08:53:57.279Z</time>
      </trkpt>
      <trkpt lat="48.0216372" lon="-2.3514294">
        <ele>53.739</ele>
        <time>2018-08-23T08:54:01.759Z</time>
      </trkpt>
      <trkpt lat="48.0215360" lon="-2.3515067">
        <ele>53.517</ele>
        <time>2018-08-23T08:54:06.053Z</time>
      </trkpt>
      <trkpt lat="48.0214378" lon="-2.3515762">
        <ele>53.355</ele>
        <time>2018-08-23T08:54:10.089Z</time>
      </trkpt>
      <trkpt lat="48.0213367" lon="-2.3516502">
        <ele>53.266</ele>
        <time>2018-08-23T08:54:14.117Z</time>
      </trkpt>
      <trkpt lat="48.0212269" lon="-2.3517273">
        <ele>53.314</ele>
        <time>2018-08-23T08:54:18.197Z</time>
      </trkpt>
      <trkpt lat="48.0211429" lon="-2.3517811">
        <ele>53.505</ele>
        <time>2018-08-23T08:54:21.153Z</time>
      </trkpt>
      <trkpt lat="48.0210573" lon="-2.3518323">
        <ele>53.691</ele>
        <time>2018-08-23T08:54:24.088Z</time>
      </trkpt>
      <trkpt lat="48.0209687" lon="-2.3518894">
        <ele>53.742</ele>
        <time>2018-08-23T08:54:27.281Z</time>
      </trkpt>
      <trkpt lat="48.0208848" lon="-2.3519419">
        <ele>53.707</ele>
        <time>2018-08-23T08:54:30.338Z</time>
      </trkpt>
      <trkpt lat="48.0207975" lon="-2.3520010">
        <ele>53.685</ele>
        <time>2018-08-23T08:54:33.461Z</time>
      </trkpt>
      <trkpt lat="48.0207043" lon="-2.3520679">
        <ele>53.724</ele>
        <time>2018-08-23T08:54:36.812Z</time>
      </trkpt>
      <trkpt lat="48.0206201" lon="-2.3521323">
        <ele>53.940</ele>
        <time>2018-08-23T08:54:39.991Z</time>
      </trkpt>
      <trkpt lat="48.0205394" lon="-2.3521919">
        <ele>54.365</ele>
        <time>2018-08-23T08:54:43.093Z</time>
      </trkpt>
      <trkpt lat="48.0204545" lon="-2.3522637">
        <ele>54.667</ele>
        <time>2018-08-23T08:54:46.269Z</time>
      </trkpt>
      <trkpt lat="48.0203496" lon="-2.3523219">
        <ele>54.450</ele>
        <time>2018-08-23T08:54:49.686Z</time>
      </trkpt>
      <trkpt lat="48.0202597" lon="-2.3523636">
        <ele>53.840</ele>
        <time>2018-08-23T08:54:52.467Z</time>
      </trkpt>
      <trkpt lat="48.0201703" lon="-2.3524250">
        <ele>53.320</ele>
        <time>2018-08-23T08:54:55.366Z</time>
      </trkpt>
      <trkpt lat="48.0200711" lon="-2.3524790">
        <ele>53.144</ele>
        <time>2018-08-23T08:54:58.726Z</time>
      </trkpt>
      <trkpt lat="48.0199815" lon="-2.3525436">
        <ele>53.188</ele>
        <time>2018-08-23T08:55:02.152Z</time>
      </trkpt>
      <trkpt lat="48.0198944" lon="-2.3526121">
        <ele>53.271</ele>
        <time>2018-08-23T08:55:05.446Z</time>
      </trkpt>
      <trkpt lat="48.0197888" lon="-2.3526904">
        <ele>53.312</ele>
        <time>2018-08-23T08:55:09.138Z</time>
      </trkpt>
      <trkpt lat="48.0196966" lon="-2.3527574">
        <ele>53.340</ele>
        <time>2018-08-23T08:55:12.300Z</time>
      </trkpt>
      <trkpt lat="48.0196097" lon="-2.3528242">
        <ele>53.424</ele>
        <time>2018-08-23T08:55:15.271Z</time>
      </trkpt>
      <trkpt lat="48.0195279" lon="-2.3528938">
        <ele>53.557</ele>
        <time>2018-08-23T08:55:18.050Z</time>
      </trkpt>
      <trkpt lat="48.0194372" lon="-2.3529599">
        <ele>53.557</ele>
        <time>2018-08-23T08:55:21.104Z</time>
      </trkpt>
      <trkpt lat="48.0193463" lon="-2.3530255">
        <ele>53.293</ele>
        <time>2018-08-23T08:55:24.133Z</time>
      </trkpt>
      <trkpt lat="48.0192600" lon="-2.3530871">
        <ele>52.923</ele>
        <time>2018-08-23T08:55:26.948Z</time>
      </trkpt>
      <trkpt lat="48.0191644" lon="-2.3531540">
        <ele>52.648</ele>
        <time>2018-08-23T08:55:30.109Z</time>
      </trkpt>
      <trkpt lat="48.0190709" lon="-2.3532114">
        <ele>52.494</ele>
        <time>2018-08-23T08:55:33.067Z</time>
      </trkpt>
      <trkpt lat="48.0189817" lon="-2.3532664">
        <ele>52.381</ele>
        <time>2018-08-23T08:55:35.850Z</time>
      </trkpt>
      <trkpt lat="48.0188921" lon="-2.3533258">
        <ele>52.195</ele>
        <time>2018-08-23T08:55:38.656Z</time>
      </trkpt>
      <trkpt lat="48.0188060" lon="-2.3533787">
        <ele>51.826</ele>
        <time>2018-08-23T08:55:41.412Z</time>
      </trkpt>
      <trkpt lat="48.0187126" lon="-2.3534185">
        <ele>51.330</ele>
        <time>2018-08-23T08:55:44.484Z</time>
      </trkpt>
      <trkpt lat="48.0186159" lon="-2.3535020">
        <ele>50.941</ele>
        <time>2018-08-23T08:55:48.310Z</time>
      </trkpt>
      <trkpt lat="48.0185219" lon="-2.3535950">
        <ele>50.778</ele>
        <time>2018-08-23T08:55:52.733Z</time>
      </trkpt>
      <trkpt lat="48.0184209" lon="-2.3536720">
        <ele>50.571</ele>
        <time>2018-08-23T08:55:56.997Z</time>
      </trkpt>
      <trkpt lat="48.0183341" lon="-2.3537288">
        <ele>50.065</ele>
        <time>2018-08-23T08:56:00.274Z</time>
      </trkpt>
      <trkpt lat="48.0182443" lon="-2.3537882">
        <ele>49.408</ele>
        <time>2018-08-23T08:56:03.921Z</time>
      </trkpt>
      <trkpt lat="48.0181606" lon="-2.3538487">
        <ele>48.960</ele>
        <time>2018-08-23T08:56:07.725Z</time>
      </trkpt>
      <trkpt lat="48.0180712" lon="-2.3538744">
        <ele>48.870</ele>
        <time>2018-08-23T08:56:11.639Z</time>
      </trkpt>
      <trkpt lat="48.0179743" lon="-2.3539337">
        <ele>49.122</ele>
        <time>2018-08-23T08:56:16.056Z</time>
      </trkpt>
      <trkpt lat="48.0178992" lon="-2.3540158">
        <ele>49.597</ele>
        <time>2018-08-23T08:56:19.697Z</time>
      </trkpt>
      <trkpt lat="48.0178051" lon="-2.3541027">
        <ele>50.065</ele>
        <time>2018-08-23T08:56:23.740Z</time>
      </trkpt>
      <trkpt lat="48.0177045" lon="-2.3541692">
        <ele>50.322</ele>
        <time>2018-08-23T08:56:27.469Z</time>
      </trkpt>
      <trkpt lat="48.0176238" lon="-2.3542291">
        <ele>50.358</ele>
        <time>2018-08-23T08:56:30.313Z</time>
      </trkpt>
      <trkpt lat="48.0175408" lon="-2.3542871">
        <ele>50.311</ele>
        <time>2018-08-23T08:56:33.063Z</time>
      </trkpt>
      <trkpt lat="48.0174644" lon="-2.3543627">
        <ele>50.312</ele>
        <time>2018-08-23T08:56:35.731Z</time>
      </trkpt>
      <trkpt lat="48.0173810" lon="-2.3544297">
        <ele>50.345</ele>
        <time>2018-08-23T08:56:38.451Z</time>
      </trkpt>
      <trkpt lat="48.0172657" lon="-2.3544915">
        <ele>50.322</ele>
        <time>2018-08-23T08:56:41.950Z</time>
      </trkpt>
      <trkpt lat="48.0171738" lon="-2.3545384">
        <ele>50.206</ele>
        <time>2018-08-23T08:56:44.776Z</time>
      </trkpt>
      <trkpt lat="48.0170879" lon="-2.3546177">
        <ele>49.861</ele>
        <time>2018-08-23T08:56:47.775Z</time>
      </trkpt>
      <trkpt lat="48.0169782" lon="-2.3546937">
        <ele>49.246</ele>
        <time>2018-08-23T08:56:51.380Z</time>
      </trkpt>
      <trkpt lat="48.0168639" lon="-2.3547499">
        <ele>48.672</ele>
        <time>2018-08-23T08:56:54.972Z</time>
      </trkpt>
      <trkpt lat="48.0167786" lon="-2.3547965">
        <ele>48.427</ele>
        <time>2018-08-23T08:56:57.777Z</time>
      </trkpt>
      <trkpt lat="48.0166826" lon="-2.3548719">
        <ele>48.595</ele>
        <time>2018-08-23T08:57:01.219Z</time>
      </trkpt>
      <trkpt lat="48.0165774" lon="-2.3549514">
        <ele>49.120</ele>
        <time>2018-08-23T08:57:05.019Z</time>
      </trkpt>
      <trkpt lat="48.0164885" lon="-2.3549944">
        <ele>49.761</ele>
        <time>2018-08-23T08:57:08.244Z</time>
      </trkpt>
      <trkpt lat="48.0163929" lon="-2.3550462">
        <ele>50.340</ele>
        <time>2018-08-23T08:57:12.032Z</time>
      </trkpt>
      <trkpt lat="48.0162851" lon="-2.3551023">
        <ele>50.794</ele>
        <time>2018-08-23T08:57:16.905Z</time>
      </trkpt>
      <trkpt lat="48.0161793" lon="-2.3551661">
        <ele>50.986</ele>
        <time>2018-08-23T08:57:21.965Z</time>
      </trkpt>
      <trkpt lat="48.0160847" lon="-2.3552159">
        <ele>50.916</ele>
        <time>2018-08-23T08:57:26.666Z</time>
      </trkpt>
      <trkpt lat="48.0160031" lon="-2.3552750">
        <ele>50.910</ele>
        <time>2018-08-23T08:57:31.193Z</time>
      </trkpt>
      <trkpt lat="48.0159116" lon="-2.3553427">
        <ele>51.370</ele>
        <time>2018-08-23T08:57:35.778Z</time>
      </trkpt>
      <trkpt lat="48.0158172" lon="-2.3554213">
        <ele>52.196</ele>
        <time>2018-08-23T08:57:40.223Z</time>
      </trkpt>
      <trkpt lat="48.0157262" lon="-2.3555011">
        <ele>52.896</ele>
        <time>2018-08-23T08:57:44.520Z</time>
      </trkpt>
      <trkpt lat="48.0156346" lon="-2.3555817">
        <ele>53.211</ele>
        <time>2018-08-23T08:57:48.732Z</time>
      </trkpt>
      <trkpt lat="48.0155310" lon="-2.3556500">
        <ele>53.250</ele>
        <time>2018-08-23T08:57:53.155Z</time>
      </trkpt>
      <trkpt lat="48.0154279" lon="-2.3556983">
        <ele>53.065</ele>
        <time>2018-08-23T08:57:57.454Z</time>
      </trkpt>
      <trkpt lat="48.0153256" lon="-2.3557487">
        <ele>52.686</ele>
        <time>2018-08-23T08:58:01.759Z</time>
      </trkpt>
      <trkpt lat="48.0152391" lon="-2.3558271">
        <ele>52.437</ele>
        <time>2018-08-23T08:58:05.721Z</time>
      </trkpt>
      <trkpt lat="48.0151526" lon="-2.3558848">
        <ele>52.613</ele>
        <time>2018-08-23T08:58:09.544Z</time>
      </trkpt>
      <trkpt lat="48.0150621" lon="-2.3559486">
        <ele>53.044</ele>
        <time>2018-08-23T08:58:13.822Z</time>
      </trkpt>
      <trkpt lat="48.0149595" lon="-2.3560024">
        <ele>53.402</ele>
        <time>2018-08-23T08:58:18.333Z</time>
      </trkpt>
      <trkpt lat="48.0148722" lon="-2.3560568">
        <ele>53.680</ele>
        <time>2018-08-23T08:58:22.110Z</time>
      </trkpt>
      <trkpt lat="48.0147741" lon="-2.3561050">
        <ele>54.047</ele>
        <time>2018-08-23T08:58:26.216Z</time>
      </trkpt>
      <trkpt lat="48.0146804" lon="-2.3561511">
        <ele>54.439</ele>
        <time>2018-08-23T08:58:29.997Z</time>
      </trkpt>
      <trkpt lat="48.0145862" lon="-2.3561943">
        <ele>54.724</ele>
        <time>2018-08-23T08:58:33.773Z</time>
      </trkpt>
      <trkpt lat="48.0144949" lon="-2.3562438">
        <ele>54.957</ele>
        <time>2018-08-23T08:58:37.692Z</time>
      </trkpt>
      <trkpt lat="48.0144068" lon="-2.3563023">
        <ele>55.224</ele>
        <time>2018-08-23T08:58:42.000Z</time>
      </trkpt>
      <trkpt lat="48.0144068" lon="-2.3563023">
        <ele>55.494</ele>
        <time>2018-08-23T08:58:54.000Z</time>
      </trkpt>
      <trkpt lat="48.0144068" lon="-2.3563023">
        <ele>55.638</ele>
        <time>2018-08-23T08:58:54.100Z</time>
      </trkpt>
      <trkpt lat="48.0144712" lon="-2.3562043">
        <ele>55.501</ele>
        <time>2018-08-23T08:59:14.000Z</time>
      </trkpt>
      <trkpt lat="48.0144712" lon="-2.3562043">
        <ele>55.434</ele>
        <time>2018-08-23T09:00:22.000Z</time>
      </trkpt>
      <trkpt lat="48.0144712" lon="-2.3562043">
        <ele>55.405</ele>
        <time>2018-08-23T09:01:47.021Z</time>
      </trkpt>
      <trkpt lat="48.0144712" lon="-2.3562043">
        <ele>55.373</ele>
        <time>2018-08-23T09:02:06.000Z</time>
      </trkpt>
      <trkpt lat="48.0144712" lon="-2.3562043">
        <ele>55.361</ele>
        <time>2018-08-23T09:06:22.783Z</time>
      </trkpt>
      <trkpt lat="48.0145821" lon="-2.3560492">
        <ele>55.344</ele>
        <time>2018-08-23T09:06:38.998Z</time>
      </trkpt>
      <trkpt lat="48.0145821" lon="-2.3560492">
        <ele>55.326</ele>
        <time>2018-08-23T09:06:49.000Z</time>
      </trkpt>
      <trkpt lat="48.0145821" lon="-2.3560492">
        <ele>55.310</ele>
        <time>2018-08-23T09:15:20.000Z</time>
      </trkpt>
      <trkpt lat="48.0145821" lon="-2.3560492">
        <ele>55.291</ele>
        <time>2018-08-23T09:15:20.100Z</time>
      </trkpt>
      <trkpt lat="48.0144941" lon="-2.3560779">
        <ele>55.254</ele>
        <time>2018-08-23T09:16:33.000Z</time>
      </trkpt>
      <trkpt lat="48.0144941" lon="-2.3560779">
        <ele>55.245</ele>
        <time>2018-08-23T09:16:48.000Z</time>
      </trkpt>
      <trkpt lat="48.0144941" lon="-2.3560779">
        <ele>55.235</ele>
        <time>2018-08-23T09:17:47.664Z</time>
      </trkpt>
      <trkpt lat="48.0144625" lon="-2.3562236">
        <ele>55.216</ele>
        <time>2018-08-23T09:18:05.998Z</time>
      </trkpt>
      <trkpt lat="48.0144625" lon="-2.3562236">
        <ele>55.196</ele>
        <time>2018-08-23T09:18:11.998Z</time>
      </trkpt>
      <trkpt lat="48.0144625" lon="-2.3562236">
        <ele>55.179</ele>
        <time>2018-08-23T09:18:12.098Z</time>
      </trkpt>
      <trkpt lat="48.0144625" lon="-2.3562236">
        <ele>55.144</ele>
        <time>2018-08-23T09:18:24.998Z</time>
      </trkpt>
      <trkpt lat="48.0144625" lon="-2.3562236">
        <ele>55.128</ele>
        <time>2018-08-23T09:20:06.570Z</time>
      </trkpt>
      <trkpt lat="48.0142131" lon="-2.3563970">
        <ele>55.110</ele>
        <time>2018-08-23T09:20:29.219Z</time>
      </trkpt>
      <trkpt lat="48.0141075" lon="-2.3564199">
        <ele>54.985</ele>
        <time>2018-08-23T09:20:34.191Z</time>
      </trkpt>
      <trkpt lat="48.0139955" lon="-2.3564490">
        <ele>54.539</ele>
        <time>2018-08-23T09:20:39.399Z</time>
      </trkpt>
      <trkpt lat="48.0138837" lon="-2.3564493">
        <ele>53.839</ele>
        <time>2018-08-23T09:20:44.768Z</time>
      </trkpt>
      <trkpt lat="48.0137819" lon="-2.3564959">
        <ele>53.183</ele>
        <time>2018-08-23T09:20:49.727Z</time>
      </trkpt>
      <trkpt lat="48.0136898" lon="-2.3565032">
        <ele>52.659</ele>
        <time>2018-08-23T09:20:53.555Z</time>
      </trkpt>
      <trkpt lat="48.0135801" lon="-2.3565274">
        <ele>52.171</ele>
        <time>2018-08-23T09:20:57.755Z</time>
      </trkpt>
      <trkpt lat="48.0134589" lon="-2.3565268">
        <ele>51.677</ele>
        <time>2018-08-23T09:21:02.042Z</time>
      </trkpt>
      <trkpt lat="48.0133448" lon="-2.3565209">
        <ele>51.147</ele>
        <time>2018-08-23T09:21:06.236Z</time>
      </trkpt>
      <trkpt lat="48.0132447" lon="-2.3565145">
        <ele>50.506</ele>
        <time>2018-08-23T09:21:10.262Z</time>
      </trkpt>
      <trkpt lat="48.0131502" lon="-2.3565183">
        <ele>49.700</ele>
        <time>2018-08-23T09:21:14.198Z</time>
      </trkpt>
      <trkpt lat="48.0130480" lon="-2.3565082">
        <ele>48.932</ele>
        <time>2018-08-23T09:21:18.360Z</time>
      </trkpt>
      <trkpt lat="48.0129572" lon="-2.3564950">
        <ele>48.510</ele>
        <time>2018-08-23T09:21:22.171Z</time>
      </trkpt>
      <trkpt lat="48.0128508" lon="-2.3564961">
        <ele>48.553</ele>
        <time>2018-08-23T09:21:26.756Z</time>
      </trkpt>
      <trkpt lat="48.0127598" lon="-2.3564943">
        <ele>49.033</ele>
        <time>2018-08-23T09:21:30.801Z</time>
      </trkpt>
      <trkpt lat="48.0126586" lon="-2.3565010">
        <ele>49.813</ele>
        <time>2018-08-23T09:21:35.895Z</time>
      </trkpt>
      <trkpt lat="48.0125606" lon="-2.3564966">
        <ele>50.633</ele>
        <time>2018-08-23T09:21:41.068Z</time>
      </trkpt>
      <trkpt lat="48.0124649" lon="-2.3564476">
        <ele>51.276</ele>
        <time>2018-08-23T09:21:45.532Z</time>
      </trkpt>
      <trkpt lat="48.0123537" lon="-2.3564037">
        <ele>51.670</ele>
        <time>2018-08-23T09:21:50.043Z</time>
      </trkpt>
      <trkpt lat="48.0122470" lon="-2.3563702">
        <ele>51.879</ele>
        <time>2018-08-23T09:21:54.246Z</time>
      </trkpt>
      <trkpt lat="48.0121467" lon="-2.3563349">
        <ele>52.023</ele>
        <time>2018-08-23T09:21:58.055Z</time>
      </trkpt>
      <trkpt lat="48.0120366" lon="-2.3562981">
        <ele>52.240</ele>
        <time>2018-08-23T09:22:02.134Z</time>
      </trkpt>
      <trkpt lat="48.0119373" lon="-2.3562575">
        <ele>52.595</ele>
        <time>2018-08-23T09:22:05.931Z</time>
      </trkpt>
      <trkpt lat="48.0118450" lon="-2.3562101">
        <ele>53.241</ele>
        <time>2018-08-23T09:22:09.639Z</time>
      </trkpt>
      <trkpt lat="48.0117602" lon="-2.3561543">
        <ele>54.179</ele>
        <time>2018-08-23T09:22:13.246Z</time>
      </trkpt>
      <trkpt lat="48.0116637" lon="-2.3561001">
        <ele>54.979</ele>
        <time>2018-08-23T09:22:17.350Z</time>
      </trkpt>
      <trkpt lat="48.0115695" lon="-2.3560425">
        <ele>55.306</ele>
        <time>2018-08-23T09:22:21.492Z</time>
      </trkpt>
      <trkpt lat="48.0114840" lon="-2.3559687">
        <ele>55.354</ele>
        <time>2018-08-23T09:22:25.585Z</time>
      </trkpt>
      <trkpt lat="48.0113966" lon="-2.3559238">
        <ele>55.488</ele>
        <time>2018-08-23T09:22:29.488Z</time>
      </trkpt>
      <trkpt lat="48.0113006" lon="-2.3558745">
        <ele>55.967</ele>
        <time>2018-08-23T09:22:34.006Z</time>
      </trkpt>
      <trkpt lat="48.0111919" lon="-2.3558272">
        <ele>56.661</ele>
        <time>2018-08-23T09:22:39.083Z</time>
      </trkpt>
      <trkpt lat="48.0111012" lon="-2.3557740">
        <ele>57.208</ele>
        <time>2018-08-23T09:22:43.529Z</time>
      </trkpt>
      <trkpt lat="48.0110151" lon="-2.3557251">
        <ele>57.436</ele>
        <time>2018-08-23T09:22:47.856Z</time>
      </trkpt>
      <trkpt lat="48.0109252" lon="-2.3556820">
        <ele>57.435</ele>
        <time>2018-08-23T09:22:52.126Z</time>
      </trkpt>
      <trkpt lat="48.0108177" lon="-2.3556269">
        <ele>57.385</ele>
        <time>2018-08-23T09:22:56.736Z</time>
      </trkpt>
      <trkpt lat="48.0107398" lon="-2.3555561">
        <ele>57.393</ele>
        <time>2018-08-23T09:23:00.778Z</time>
      </trkpt>
      <trkpt lat="48.0106560" lon="-2.3554745">
        <ele>57.461</ele>
        <time>2018-08-23T09:23:05.686Z</time>
      </trkpt>
      <trkpt lat="48.0105573" lon="-2.3554178">
        <ele>57.603</ele>
        <time>2018-08-23T09:23:10.741Z</time>
      </trkpt>
      <trkpt lat="48.0104464" lon="-2.3554305">
        <ele>57.832</ele>
        <time>2018-08-23T09:23:15.844Z</time>
      </trkpt>
      <trkpt lat="48.0103415" lon="-2.3553721">
        <ele>58.073</ele>
        <time>2018-08-23T09:23:20.772Z</time>
      </trkpt>
      <trkpt lat="48.0102530" lon="-2.3553161">
        <ele>58.353</ele>
        <time>2018-08-23T09:23:24.829Z</time>
      </trkpt>
      <trkpt lat="48.0101590" lon="-2.3552652">
        <ele>58.804</ele>
        <time>2018-08-23T09:23:29.304Z</time>
      </trkpt>
      <trkpt lat="48.0100425" lon="-2.3552181">
        <ele>59.405</ele>
        <time>2018-08-23T09:23:35.085Z</time>
      </trkpt>
      <trkpt lat="48.0099313" lon="-2.3551692">
        <ele>60.110</ele>
        <time>2018-08-23T09:23:40.633Z</time>
      </trkpt>
      <trkpt lat="48.0098336" lon="-2.3551233">
        <ele>60.853</ele>
        <time>2018-08-23T09:23:45.342Z</time>
      </trkpt>
      <trkpt lat="48.0097297" lon="-2.3550809">
        <ele>61.379</ele>
        <time>2018-08-23T09:23:50.398Z</time>
      </trkpt>
      <trkpt lat="48.0096351" lon="-2.3550273">
        <ele>61.660</ele>
        <time>2018-08-23T09:23:55.085Z</time>
      </trkpt>
      <trkpt lat="48.0095440" lon="-2.3550046">
        <ele>61.917</ele>
        <time>2018-08-23T09:23:59.838Z</time>
      </trkpt>
      <trkpt lat="48.0094493" lon="-2.3549501">
        <ele>62.209</ele>
        <time>2018-08-23T09:24:05.474Z</time>
      </trkpt>
      <trkpt lat="48.0093578" lon="-2.3548959">
        <ele>62.467</ele>
        <time>2018-08-23T09:24:11.404Z</time>
      </trkpt>
      <trkpt lat="48.0092558" lon="-2.3548460">
        <ele>62.676</ele>
        <time>2018-08-23T09:24:17.716Z</time>
      </trkpt>
      <trkpt lat="48.0091503" lon="-2.3548237">
        <ele>62.971</ele>
        <time>2018-08-23T09:24:22.948Z</time>
      </trkpt>
      <trkpt lat="48.0090483" lon="-2.3547701">
        <ele>63.436</ele>
        <time>2018-08-23T09:24:28.044Z</time>
      </trkpt>
      <trkpt lat="48.0089506" lon="-2.3547195">
        <ele>63.878</ele>
        <time>2018-08-23T09:24:33.083Z</time>
      </trkpt>
      <trkpt lat="48.0088623" lon="-2.3546584">
        <ele>64.128</ele>
        <time>2018-08-23T09:24:38.315Z</time>
      </trkpt>
      <trkpt lat="48.0087701" lon="-2.3546129">
        <ele>64.235</ele>
        <time>2018-08-23T09:24:43.740Z</time>
      </trkpt>
      <trkpt lat="48.0086799" lon="-2.3545638">
        <ele>64.272</ele>
        <time>2018-08-23T09:24:49.092Z</time>
      </trkpt>
      <trkpt lat="48.0085820" lon="-2.3545406">
        <ele>64.343</ele>
        <time>2018-08-23T09:24:54.571Z</time>
      </trkpt>
      <trkpt lat="48.0084844" lon="-2.3545064">
        <ele>64.538</ele>
        <time>2018-08-23T09:24:59.963Z</time>
      </trkpt>
      <trkpt lat="48.0083852" lon="-2.3544761">
        <ele>64.772</ele>
        <time>2018-08-23T09:25:05.318Z</time>
      </trkpt>
      <trkpt lat="48.0082710" lon="-2.3544498">
        <ele>64.857</ele>
        <time>2018-08-23T09:25:11.898Z</time>
      </trkpt>
      <trkpt lat="48.0081708" lon="-2.3544414">
        <ele>64.691</ele>
        <time>2018-08-23T09:25:17.204Z</time>
      </trkpt>
      <trkpt lat="48.0080673" lon="-2.3544148">
        <ele>64.313</ele>
        <time>2018-08-23T09:25:21.548Z</time>
      </trkpt>
      <trkpt lat="48.0079666" lon="-2.3544071">
        <ele>63.862</ele>
        <time>2018-08-23T09:25:25.249Z</time>
      </trkpt>
      <trkpt lat="48.0078693" lon="-2.3543914">
        <ele>63.476</ele>
        <time>2018-08-23T09:25:28.608Z</time>
      </trkpt>
      <trkpt lat="48.0077765" lon="-2.3543863">
        <ele>63.212</ele>
        <time>2018-08-23T09:25:31.632Z</time>
      </trkpt>
      <trkpt lat="48.0076574" lon="-2.3543838">
        <ele>63.027</ele>
        <time>2018-08-23T09:25:35.470Z</time>
      </trkpt>
      <trkpt lat="48.0075665" lon="-2.3543903">
        <ele>62.887</ele>
        <time>2018-08-23T09:25:38.389Z</time>
      </trkpt>
      <trkpt lat="48.0074513" lon="-2.3544054">
        <ele>62.839</ele>
        <time>2018-08-23T09:25:42.029Z</time>
      </trkpt>
      <trkpt lat="48.0073335" lon="-2.3544160">
        <ele>62.907</ele>
        <time>2018-08-23T09:25:45.579Z</time>
      </trkpt>
      <trkpt lat="48.0072423" lon="-2.3544228">
        <ele>63.032</ele>
        <time>2018-08-23T09:25:48.208Z</time>
      </trkpt>
      <trkpt lat="48.0071460" lon="-2.3544381">
        <ele>63.152</ele>
        <time>2018-08-23T09:25:50.971Z</time>
      </trkpt>
      <trkpt lat="48.0070451" lon="-2.3544543">
        <ele>63.246</ele>
        <time>2018-08-23T09:25:53.922Z</time>
      </trkpt>
      <trkpt lat="48.0069533" lon="-2.3544738">
        <ele>63.358</ele>
        <time>2018-08-23T09:25:56.610Z</time>
      </trkpt>
      <trkpt lat="48.0068592" lon="-2.3544955">
        <ele>63.518</ele>
        <time>2018-08-23T09:25:59.320Z</time>
      </trkpt>
      <trkpt lat="48.0067597" lon="-2.3545153">
        <ele>63.669</ele>
        <time>2018-08-23T09:26:02.126Z</time>
      </trkpt>
      <trkpt lat="48.0066596" lon="-2.3545356">
        <ele>63.759</ele>
        <time>2018-08-23T09:26:04.871Z</time>
      </trkpt>
      <trkpt lat="48.0065597" lon="-2.3545520">
        <ele>63.805</ele>
        <time>2018-08-23T09:26:07.539Z</time>
      </trkpt>
      <trkpt lat="48.0064562" lon="-2.3545708">
        <ele>63.829</ele>
        <time>2018-08-23T09:26:10.234Z</time>
      </trkpt>
      <trkpt lat="48.0063528" lon="-2.3546150">
        <ele>63.835</ele>
        <time>2018-08-23T09:26:12.945Z</time>
      </trkpt>
      <trkpt lat="48.0062422" lon="-2.3546667">
        <ele>63.750</ele>
        <time>2018-08-23T09:26:15.830Z</time>
      </trkpt>
      <trkpt lat="48.0061381" lon="-2.3547095">
        <ele>63.521</ele>
        <time>2018-08-23T09:26:18.556Z</time>
      </trkpt>
      <trkpt lat="48.0060343" lon="-2.3547467">
        <ele>63.147</ele>
        <time>2018-08-23T09:26:21.316Z</time>
      </trkpt>
      <trkpt lat="48.0059310" lon="-2.3547783">
        <ele>62.704</ele>
        <time>2018-08-23T09:26:24.091Z</time>
      </trkpt>
      <trkpt lat="48.0058282" lon="-2.3548072">
        <ele>62.371</ele>
        <time>2018-08-23T09:26:26.831Z</time>
      </trkpt>
      <trkpt lat="48.0057252" lon="-2.3548424">
        <ele>62.235</ele>
        <time>2018-08-23T09:26:29.531Z</time>
      </trkpt>
      <trkpt lat="48.0056145" lon="-2.3548777">
        <ele>62.194</ele>
        <time>2018-08-23T09:26:32.331Z</time>
      </trkpt>
      <trkpt lat="48.0054996" lon="-2.3549147">
        <ele>62.161</ele>
        <time>2018-08-23T09:26:35.186Z</time>
      </trkpt>
      <trkpt lat="48.0053914" lon="-2.3549465">
        <ele>62.117</ele>
        <time>2018-08-23T09:26:38.023Z</time>
      </trkpt>
      <trkpt lat="48.0053014" lon="-2.3549653">
        <ele>62.082</ele>
        <time>2018-08-23T09:26:40.478Z</time>
      </trkpt>
      <trkpt lat="48.0052018" lon="-2.3549919">
        <ele>62.085</ele>
        <time>2018-08-23T09:26:43.158Z</time>
      </trkpt>
      <trkpt lat="48.0050984" lon="-2.3550157">
        <ele>62.126</ele>
        <time>2018-08-23T09:26:45.765Z</time>
      </trkpt>
      <trkpt lat="48.0049909" lon="-2.3550552">
        <ele>62.118</ele>
        <time>2018-08-23T09:26:48.400Z</time>
      </trkpt>
      <trkpt lat="48.0048722" lon="-2.3551014">
        <ele>61.980</ele>
        <time>2018-08-23T09:26:51.273Z</time>
      </trkpt>
      <trkpt lat="48.0047520" lon="-2.3551321">
        <ele>61.750</ele>
        <time>2018-08-23T09:26:54.176Z</time>
      </trkpt>
      <trkpt lat="48.0046296" lon="-2.3551731">
        <ele>61.482</ele>
        <time>2018-08-23T09:26:57.134Z</time>
      </trkpt>
      <trkpt lat="48.0045095" lon="-2.3552108">
        <ele>61.193</ele>
        <time>2018-08-23T09:26:59.978Z</time>
      </trkpt>
      <trkpt lat="48.0043879" lon="-2.3552454">
        <ele>60.952</ele>
        <time>2018-08-23T09:27:02.903Z</time>
      </trkpt>
      <trkpt lat="48.0042581" lon="-2.3552901">
        <ele>60.771</ele>
        <time>2018-08-23T09:27:05.980Z</time>
      </trkpt>
      <trkpt lat="48.0041663" lon="-2.3553127">
        <ele>60.577</ele>
        <time>2018-08-23T09:27:08.022Z</time>
      </trkpt>
      <trkpt lat="48.0040246" lon="-2.3553526">
        <ele>60.389</ele>
        <time>2018-08-23T09:27:11.001Z</time>
      </trkpt>
      <trkpt lat="48.0038971" lon="-2.3553726">
        <ele>60.271</ele>
        <time>2018-08-23T09:27:13.766Z</time>
      </trkpt>
      <trkpt lat="48.0037923" lon="-2.3553885">
        <ele>60.170</ele>
        <time>2018-08-23T09:27:16.122Z</time>
      </trkpt>
      <trkpt lat="48.0036949" lon="-2.3554104">
        <ele>59.970</ele>
        <time>2018-08-23T09:27:18.219Z</time>
      </trkpt>
      <trkpt lat="48.0036022" lon="-2.3554314">
        <ele>59.678</ele>
        <time>2018-08-23T09:27:20.213Z</time>
      </trkpt>
      <trkpt lat="48.0034828" lon="-2.3554712">
        <ele>59.403</ele>
        <time>2018-08-23T09:27:22.896Z</time>
      </trkpt>
      <trkpt lat="48.0033741" lon="-2.3555141">
        <ele>59.143</ele>
        <time>2018-08-23T09:27:25.452Z</time>
      </trkpt>
      <trkpt lat="48.0032705" lon="-2.3555631">
        <ele>58.869</ele>
        <time>2018-08-23T09:27:27.989Z</time>
      </trkpt>
      <trkpt lat="48.0031622" lon="-2.3556094">
        <ele>58.668</ele>
        <time>2018-08-23T09:27:30.611Z</time>
      </trkpt>
      <trkpt lat="48.0030556" lon="-2.3556490">
        <ele>58.573</ele>
        <time>2018-08-23T09:27:33.133Z</time>
      </trkpt>
      <trkpt lat="48.0029390" lon="-2.3556904">
        <ele>58.478</ele>
        <time>2018-08-23T09:27:35.899Z</time>
      </trkpt>
      <trkpt lat="48.0028195" lon="-2.3557345">
        <ele>58.233</ele>
        <time>2018-08-23T09:27:38.791Z</time>
      </trkpt>
      <trkpt lat="48.0026894" lon="-2.3557863">
        <ele>57.811</ele>
        <time>2018-08-23T09:27:41.843Z</time>
      </trkpt>
      <trkpt lat="48.0026010" lon="-2.3558202">
        <ele>57.395</ele>
        <time>2018-08-23T09:27:43.835Z</time>
      </trkpt>
      <trkpt lat="48.0024698" lon="-2.3558713">
        <ele>57.183</ele>
        <time>2018-08-23T09:27:46.668Z</time>
      </trkpt>
      <trkpt lat="48.0023396" lon="-2.3559072">
        <ele>57.172</ele>
        <time>2018-08-23T09:27:49.386Z</time>
      </trkpt>
      <trkpt lat="48.0022099" lon="-2.3559451">
        <ele>57.205</ele>
        <time>2018-08-23T09:27:52.120Z</time>
      </trkpt>
      <trkpt lat="48.0020784" lon="-2.3559892">
        <ele>57.157</ele>
        <time>2018-08-23T09:27:54.922Z</time>
      </trkpt>
      <trkpt lat="48.0019469" lon="-2.3560303">
        <ele>56.966</ele>
        <time>2018-08-23T09:27:57.740Z</time>
      </trkpt>
      <trkpt lat="48.0018255" lon="-2.3560745">
        <ele>56.623</ele>
        <time>2018-08-23T09:28:00.389Z</time>
      </trkpt>
      <trkpt lat="48.0017085" lon="-2.3561113">
        <ele>56.151</ele>
        <time>2018-08-23T09:28:02.981Z</time>
      </trkpt>
      <trkpt lat="48.0016037" lon="-2.3561428">
        <ele>55.597</ele>
        <time>2018-08-23T09:28:05.372Z</time>
      </trkpt>
      <trkpt lat="48.0014972" lon="-2.3561811">
        <ele>55.098</ele>
        <time>2018-08-23T09:28:07.925Z</time>
      </trkpt>
      <trkpt lat="48.0013826" lon="-2.3562336">
        <ele>54.721</ele>
        <time>2018-08-23T09:28:10.885Z</time>
      </trkpt>
      <trkpt lat="48.0012615" lon="-2.3562816">
        <ele>54.306</ele>
        <time>2018-08-23T09:28:14.035Z</time>
      </trkpt>
      <trkpt lat="48.0011453" lon="-2.3562911">
        <ele>53.714</ele>
        <time>2018-08-23T09:28:16.826Z</time>
      </trkpt>
      <trkpt lat="48.0010255" lon="-2.3563067">
        <ele>53.000</ele>
        <time>2018-08-23T09:28:19.601Z</time>
      </trkpt>
      <trkpt lat="48.0009069" lon="-2.3563319">
        <ele>52.380</ele>
        <time>2018-08-23T09:28:22.345Z</time>
      </trkpt>
      <trkpt lat="48.0007899" lon="-2.3563641">
        <ele>52.039</ele>
        <time>2018-08-23T09:28:25.071Z</time>
      </trkpt>
      <trkpt lat="48.0006993" lon="-2.3563956">
        <ele>51.953</ele>
        <time>2018-08-23T09:28:27.166Z</time>
      </trkpt>
      <trkpt lat="48.0006063" lon="-2.3564151">
        <ele>51.952</ele>
        <time>2018-08-23T09:28:29.387Z</time>
      </trkpt>
      <trkpt lat="48.0004992" lon="-2.3564469">
        <ele>51.888</ele>
        <time>2018-08-23T09:28:32.054Z</time>
      </trkpt>
      <trkpt lat="48.0003920" lon="-2.3564736">
        <ele>51.762</ele>
        <time>2018-08-23T09:28:35.106Z</time>
      </trkpt>
      <trkpt lat="48.0002871" lon="-2.3565092">
        <ele>51.628</ele>
        <time>2018-08-23T09:28:38.230Z</time>
      </trkpt>
      <trkpt lat="48.0001677" lon="-2.3565505">
        <ele>51.501</ele>
        <time>2018-08-23T09:28:42.361Z</time>
      </trkpt>
      <trkpt lat="48.0000665" lon="-2.3565787">
        <ele>51.350</ele>
        <time>2018-08-23T09:28:46.060Z</time>
      </trkpt>
      <trkpt lat="47.9999690" lon="-2.3566059">
        <ele>51.147</ele>
        <time>2018-08-23T09:28:49.252Z</time>
      </trkpt>
      <trkpt lat="47.9998482" lon="-2.3566443">
        <ele>50.912</ele>
        <time>2018-08-23T09:28:52.952Z</time>
      </trkpt>
      <trkpt lat="47.9997262" lon="-2.3566960">
        <ele>50.707</ele>
        <time>2018-08-23T09:28:56.937Z</time>
      </trkpt>
      <trkpt lat="47.9996280" lon="-2.3567467">
        <ele>50.639</ele>
        <time>2018-08-23T09:29:00.130Z</time>
      </trkpt>
      <trkpt lat="47.9995135" lon="-2.3567614">
        <ele>50.782</ele>
        <time>2018-08-23T09:29:03.151Z</time>
      </trkpt>
      <trkpt lat="47.9994069" lon="-2.3568164">
        <ele>51.020</ele>
        <time>2018-08-23T09:29:05.990Z</time>
      </trkpt>
      <trkpt lat="47.9993161" lon="-2.3568605">
        <ele>51.222</ele>
        <time>2018-08-23T09:29:08.653Z</time>
      </trkpt>
      <trkpt lat="47.9992238" lon="-2.3568916">
        <ele>51.356</ele>
        <time>2018-08-23T09:29:11.636Z</time>
      </trkpt>
      <trkpt lat="47.9991170" lon="-2.3569447">
        <ele>51.405</ele>
        <time>2018-08-23T09:29:16.097Z</time>
      </trkpt>
      <trkpt lat="47.9990278" lon="-2.3569787">
        <ele>51.377</ele>
        <time>2018-08-23T09:29:19.827Z</time>
      </trkpt>
      <trkpt lat="47.9989194" lon="-2.3570384">
        <ele>51.326</ele>
        <time>2018-08-23T09:29:24.119Z</time>
      </trkpt>
      <trkpt lat="47.9988326" lon="-2.3570902">
        <ele>51.299</ele>
        <time>2018-08-23T09:29:27.587Z</time>
      </trkpt>
      <trkpt lat="47.9987347" lon="-2.3571627">
        <ele>51.362</ele>
        <time>2018-08-23T09:29:31.521Z</time>
      </trkpt>
      <trkpt lat="47.9986478" lon="-2.3572026">
        <ele>51.514</ele>
        <time>2018-08-23T09:29:34.663Z</time>
      </trkpt>
      <trkpt lat="47.9985380" lon="-2.3572474">
        <ele>51.662</ele>
        <time>2018-08-23T09:29:38.695Z</time>
      </trkpt>
      <trkpt lat="47.9984392" lon="-2.3572694">
        <ele>51.756</ele>
        <time>2018-08-23T09:29:42.431Z</time>
      </trkpt>
      <trkpt lat="47.9983232" lon="-2.3573218">
        <ele>51.816</ele>
        <time>2018-08-23T09:29:46.583Z</time>
      </trkpt>
      <trkpt lat="47.9982281" lon="-2.3573865">
        <ele>51.851</ele>
        <time>2018-08-23T09:29:50.010Z</time>
      </trkpt>
      <trkpt lat="47.9981379" lon="-2.3574533">
        <ele>51.986</ele>
        <time>2018-08-23T09:29:53.277Z</time>
      </trkpt>
      <trkpt lat="47.9980232" lon="-2.3575439">
        <ele>52.369</ele>
        <time>2018-08-23T09:29:57.513Z</time>
      </trkpt>
      <trkpt lat="47.9979323" lon="-2.3576269">
        <ele>53.022</ele>
        <time>2018-08-23T09:30:00.767Z</time>
      </trkpt>
      <trkpt lat="47.9978531" lon="-2.3576932">
        <ele>53.837</ele>
        <time>2018-08-23T09:30:03.352Z</time>
      </trkpt>
      <trkpt lat="47.9977375" lon="-2.3577680">
        <ele>54.542</ele>
        <time>2018-08-23T09:30:06.725Z</time>
      </trkpt>
      <trkpt lat="47.9976231" lon="-2.3578379">
        <ele>54.866</ele>
        <time>2018-08-23T09:30:09.829Z</time>
      </trkpt>
      <trkpt lat="47.9975132" lon="-2.3578987">
        <ele>54.768</ele>
        <time>2018-08-23T09:30:12.795Z</time>
      </trkpt>
      <trkpt lat="47.9974311" lon="-2.3579867">
        <ele>54.419</ele>
        <time>2018-08-23T09:30:15.478Z</time>
      </trkpt>
      <trkpt lat="47.9973544" lon="-2.3580869">
        <ele>54.236</ele>
        <time>2018-08-23T09:30:18.445Z</time>
      </trkpt>
      <trkpt lat="47.9972676" lon="-2.3581931">
        <ele>54.605</ele>
        <time>2018-08-23T09:30:21.911Z</time>
      </trkpt>
      <trkpt lat="47.9971958" lon="-2.3582785">
        <ele>55.580</ele>
        <time>2018-08-23T09:30:24.722Z</time>
      </trkpt>
      <trkpt lat="47.9970989" lon="-2.3583604">
        <ele>56.775</ele>
        <time>2018-08-23T09:30:28.134Z</time>
      </trkpt>
      <trkpt lat="47.9970081" lon="-2.3584380">
        <ele>57.364</ele>
        <time>2018-08-23T09:30:31.355Z</time>
      </trkpt>
      <trkpt lat="47.9969138" lon="-2.3584840">
        <ele>56.985</ele>
        <time>2018-08-23T09:30:34.538Z</time>
      </trkpt>
      <trkpt lat="47.9968238" lon="-2.3585488">
        <ele>55.872</ele>
        <time>2018-08-23T09:30:37.899Z</time>
      </trkpt>
      <trkpt lat="47.9967129" lon="-2.3586716">
        <ele>54.207</ele>
        <time>2018-08-23T09:30:42.213Z</time>
      </trkpt>
      <trkpt lat="47.9966108" lon="-2.3588062">
        <ele>52.497</ele>
        <time>2018-08-23T09:30:45.853Z</time>
      </trkpt>
      <trkpt lat="47.9965138" lon="-2.3589019">
        <ele>51.428</ele>
        <time>2018-08-23T09:30:49.018Z</time>
      </trkpt>
      <trkpt lat="47.9964325" lon="-2.3589753">
        <ele>51.300</ele>
        <time>2018-08-23T09:30:51.850Z</time>
      </trkpt>
      <trkpt lat="47.9963418" lon="-2.3590587">
        <ele>51.786</ele>
        <time>2018-08-23T09:30:55.229Z</time>
      </trkpt>
      <trkpt lat="47.9962304" lon="-2.3591444">
        <ele>52.117</ele>
        <time>2018-08-23T09:30:59.128Z</time>
      </trkpt>
      <trkpt lat="47.9961274" lon="-2.3592250">
        <ele>51.828</ele>
        <time>2018-08-23T09:31:02.771Z</time>
      </trkpt>
      <trkpt lat="47.9960183" lon="-2.3593265">
        <ele>51.058</ele>
        <time>2018-08-23T09:31:06.848Z</time>
      </trkpt>
      <trkpt lat="47.9959115" lon="-2.3593973">
        <ele>50.098</ele>
        <time>2018-08-23T09:31:10.609Z</time>
      </trkpt>
      <trkpt lat="47.9958247" lon="-2.3594518">
        <ele>48.863</ele>
        <time>2018-08-23T09:31:13.269Z</time>
      </trkpt>
      <trkpt lat="47.9957096" lon="-2.3595858">
        <ele>47.169</ele>
        <time>2018-08-23T09:31:17.095Z</time>
      </trkpt>
      <trkpt lat="47.9956153" lon="-2.3597001">
        <ele>45.502</ele>
        <time>2018-08-23T09:31:20.282Z</time>
      </trkpt>
      <trkpt lat="47.9955034" lon="-2.3597771">
        <ele>44.335</ele>
        <time>2018-08-23T09:31:23.464Z</time>
      </trkpt>
      <trkpt lat="47.9954236" lon="-2.3598496">
        <ele>43.582</ele>
        <time>2018-08-23T09:31:25.980Z</time>
      </trkpt>
      <trkpt lat="47.9953384" lon="-2.3599078">
        <ele>42.965</ele>
        <time>2018-08-23T09:31:28.778Z</time>
      </trkpt>
      <trkpt lat="47.9952383" lon="-2.3599725">
        <ele>42.279</ele>
        <time>2018-08-23T09:31:32.604Z</time>
      </trkpt>
      <trkpt lat="47.9951507" lon="-2.3600465">
        <ele>41.719</ele>
        <time>2018-08-23T09:31:36.329Z</time>
      </trkpt>
      <trkpt lat="47.9950597" lon="-2.3601438">
        <ele>41.694</ele>
        <time>2018-08-23T09:31:40.064Z</time>
      </trkpt>
      <trkpt lat="47.9949587" lon="-2.3602587">
        <ele>42.318</ele>
        <time>2018-08-23T09:31:44.403Z</time>
      </trkpt>
      <trkpt lat="47.9948619" lon="-2.3603460">
        <ele>43.297</ele>
        <time>2018-08-23T09:31:47.802Z</time>
      </trkpt>
      <trkpt lat="47.9947842" lon="-2.3604238">
        <ele>44.154</ele>
        <time>2018-08-23T09:31:50.411Z</time>
      </trkpt>
      <trkpt lat="47.9946933" lon="-2.3605000">
        <ele>44.485</ele>
        <time>2018-08-23T09:31:53.272Z</time>
      </trkpt>
      <trkpt lat="47.9946070" lon="-2.3605535">
        <ele>44.260</ele>
        <time>2018-08-23T09:31:55.673Z</time>
      </trkpt>
      <trkpt lat="47.9944999" lon="-2.3606391">
        <ele>43.747</ele>
        <time>2018-08-23T09:31:58.805Z</time>
      </trkpt>
      <trkpt lat="47.9943956" lon="-2.3607435">
        <ele>43.244</ele>
        <time>2018-08-23T09:32:02.132Z</time>
      </trkpt>
      <trkpt lat="47.9943157" lon="-2.3608347">
        <ele>43.052</ele>
        <time>2018-08-23T09:32:04.714Z</time>
      </trkpt>
      <trkpt lat="47.9942140" lon="-2.3609434">
        <ele>43.346</ele>
        <time>2018-08-23T09:32:07.818Z</time>
      </trkpt>
      <trkpt lat="47.9940928" lon="-2.3610303">
        <ele>43.879</ele>
        <time>2018-08-23T09:32:11.174Z</time>
      </trkpt>
      <trkpt lat="47.9939781" lon="-2.3611209">
        <ele>44.216</ele>
        <time>2018-08-23T09:32:14.550Z</time>
      </trkpt>
      <trkpt lat="47.9938716" lon="-2.3612340">
        <ele>44.104</ele>
        <time>2018-08-23T09:32:17.862Z</time>
      </trkpt>
      <trkpt lat="47.9937683" lon="-2.3613276">
        <ele>43.475</ele>
        <time>2018-08-23T09:32:20.736Z</time>
      </trkpt>
      <trkpt lat="47.9936890" lon="-2.3614266">
        <ele>42.443</ele>
        <time>2018-08-23T09:32:23.118Z</time>
      </trkpt>
      <trkpt lat="47.9936010" lon="-2.3615467">
        <ele>40.806</ele>
        <time>2018-08-23T09:32:25.735Z</time>
      </trkpt>
      <trkpt lat="47.9935067" lon="-2.3616891">
        <ele>38.612</ele>
        <time>2018-08-23T09:32:28.610Z</time>
      </trkpt>
      <trkpt lat="47.9934055" lon="-2.3618381">
        <ele>36.811</ele>
        <time>2018-08-23T09:32:31.694Z</time>
      </trkpt>
      <trkpt lat="47.9933368" lon="-2.3619352">
        <ele>36.271</ele>
        <time>2018-08-23T09:32:33.846Z</time>
      </trkpt>
      <trkpt lat="47.9932371" lon="-2.3620851">
        <ele>36.793</ele>
        <time>2018-08-23T09:32:37.345Z</time>
      </trkpt>
      <trkpt lat="47.9931465" lon="-2.3622232">
        <ele>37.914</ele>
        <time>2018-08-23T09:32:40.741Z</time>
      </trkpt>
      <trkpt lat="47.9930625" lon="-2.3623567">
        <ele>39.370</ele>
        <time>2018-08-23T09:32:43.850Z</time>
      </trkpt>
      <trkpt lat="47.9929922" lon="-2.3624649">
        <ele>40.807</ele>
        <time>2018-08-23T09:32:46.969Z</time>
      </trkpt>
      <trkpt lat="47.9929242" lon="-2.3625744">
        <ele>41.721</ele>
        <time>2018-08-23T09:32:50.571Z</time>
      </trkpt>
      <trkpt lat="47.9928568" lon="-2.3627024">
        <ele>41.875</ele>
        <time>2018-08-23T09:32:56.095Z</time>
      </trkpt>
      <trkpt lat="47.9927996" lon="-2.3628497">
        <ele>41.430</ele>
        <time>2018-08-23T09:33:02.255Z</time>
      </trkpt>
      <trkpt lat="47.9927331" lon="-2.3629539">
        <ele>41.004</ele>
        <time>2018-08-23T09:33:06.787Z</time>
      </trkpt>
      <trkpt lat="47.9926683" lon="-2.3630769">
        <ele>41.106</ele>
        <time>2018-08-23T09:33:10.589Z</time>
      </trkpt>
      <trkpt lat="47.9926208" lon="-2.3632205">
        <ele>41.623</ele>
        <time>2018-08-23T09:33:13.891Z</time>
      </trkpt>
      <trkpt lat="47.9925624" lon="-2.3633747">
        <ele>42.431</ele>
        <time>2018-08-23T09:33:17.501Z</time>
      </trkpt>
      <trkpt lat="47.9925107" lon="-2.3634908">
        <ele>43.441</ele>
        <time>2018-08-23T09:33:20.397Z</time>
      </trkpt>
      <trkpt lat="47.9924638" lon="-2.3636099">
        <ele>44.182</ele>
        <time>2018-08-23T09:33:23.352Z</time>
      </trkpt>
      <trkpt lat="47.9924023" lon="-2.3637596">
        <ele>44.296</ele>
        <time>2018-08-23T09:33:27.364Z</time>
      </trkpt>
      <trkpt lat="47.9923464" lon="-2.3638938">
        <ele>43.929</ele>
        <time>2018-08-23T09:33:30.940Z</time>
      </trkpt>
      <trkpt lat="47.9922888" lon="-2.3640134">
        <ele>43.294</ele>
        <time>2018-08-23T09:33:34.039Z</time>
      </trkpt>
      <trkpt lat="47.9922404" lon="-2.3641737">
        <ele>42.495</ele>
        <time>2018-08-23T09:33:37.658Z</time>
      </trkpt>
      <trkpt lat="47.9921941" lon="-2.3642928">
        <ele>41.693</ele>
        <time>2018-08-23T09:33:40.535Z</time>
      </trkpt>
      <trkpt lat="47.9921441" lon="-2.3644094">
        <ele>41.116</ele>
        <time>2018-08-23T09:33:43.545Z</time>
      </trkpt>
      <trkpt lat="47.9920951" lon="-2.3645288">
        <ele>40.754</ele>
        <time>2018-08-23T09:33:46.596Z</time>
      </trkpt>
      <trkpt lat="47.9920476" lon="-2.3646717">
        <ele>40.403</ele>
        <time>2018-08-23T09:33:49.765Z</time>
      </trkpt>
      <trkpt lat="47.9919948" lon="-2.3648093">
        <ele>40.041</ele>
        <time>2018-08-23T09:33:52.665Z</time>
      </trkpt>
      <trkpt lat="47.9919326" lon="-2.3649627">
        <ele>39.735</ele>
        <time>2018-08-23T09:33:56.316Z</time>
      </trkpt>
      <trkpt lat="47.9918721" lon="-2.3651089">
        <ele>39.472</ele>
        <time>2018-08-23T09:34:00.381Z</time>
      </trkpt>
      <trkpt lat="47.9918195" lon="-2.3652307">
        <ele>39.260</ele>
        <time>2018-08-23T09:34:03.732Z</time>
      </trkpt>
      <trkpt lat="47.9917626" lon="-2.3653629">
        <ele>39.141</ele>
        <time>2018-08-23T09:34:06.926Z</time>
      </trkpt>
      <trkpt lat="47.9916887" lon="-2.3654861">
        <ele>39.036</ele>
        <time>2018-08-23T09:34:09.968Z</time>
      </trkpt>
      <trkpt lat="47.9916278" lon="-2.3656460">
        <ele>38.770</ele>
        <time>2018-08-23T09:34:13.122Z</time>
      </trkpt>
      <trkpt lat="47.9915466" lon="-2.3658288">
        <ele>38.335</ele>
        <time>2018-08-23T09:34:16.954Z</time>
      </trkpt>
      <trkpt lat="47.9914802" lon="-2.3659564">
        <ele>37.850</ele>
        <time>2018-08-23T09:34:20.012Z</time>
      </trkpt>
      <trkpt lat="47.9914077" lon="-2.3661180">
        <ele>37.280</ele>
        <time>2018-08-23T09:34:23.650Z</time>
      </trkpt>
      <trkpt lat="47.9913393" lon="-2.3662414">
        <ele>36.218</ele>
        <time>2018-08-23T09:34:26.486Z</time>
      </trkpt>
      <trkpt lat="47.9912694" lon="-2.3663863">
        <ele>34.366</ele>
        <time>2018-08-23T09:34:29.509Z</time>
      </trkpt>
      <trkpt lat="47.9912031" lon="-2.3665338">
        <ele>32.311</ele>
        <time>2018-08-23T09:34:32.414Z</time>
      </trkpt>
      <trkpt lat="47.9911350" lon="-2.3666912">
        <ele>30.908</ele>
        <time>2018-08-23T09:34:35.307Z</time>
      </trkpt>
      <trkpt lat="47.9910882" lon="-2.3668205">
        <ele>30.274</ele>
        <time>2018-08-23T09:34:37.413Z</time>
      </trkpt>
      <trkpt lat="47.9910336" lon="-2.3669366">
        <ele>30.041</ele>
        <time>2018-08-23T09:34:39.449Z</time>
      </trkpt>
      <trkpt lat="47.9909710" lon="-2.3670334">
        <ele>30.094</ele>
        <time>2018-08-23T09:34:41.482Z</time>
      </trkpt>
      <trkpt lat="47.9909239" lon="-2.3671584">
        <ele>30.283</ele>
        <time>2018-08-23T09:34:43.743Z</time>
      </trkpt>
      <trkpt lat="47.9908598" lon="-2.3673650">
        <ele>30.437</ele>
        <time>2018-08-23T09:34:47.662Z</time>
      </trkpt>
      <trkpt lat="47.9908229" lon="-2.3675030">
        <ele>30.442</ele>
        <time>2018-08-23T09:34:50.457Z</time>
      </trkpt>
      <trkpt lat="47.9907607" lon="-2.3676716">
        <ele>30.224</ele>
        <time>2018-08-23T09:34:54.158Z</time>
      </trkpt>
      <trkpt lat="47.9907005" lon="-2.3678139">
        <ele>29.723</ele>
        <time>2018-08-23T09:34:57.128Z</time>
      </trkpt>
      <trkpt lat="47.9906450" lon="-2.3679570">
        <ele>29.055</ele>
        <time>2018-08-23T09:34:59.852Z</time>
      </trkpt>
      <trkpt lat="47.9905926" lon="-2.3680757">
        <ele>28.373</ele>
        <time>2018-08-23T09:35:02.285Z</time>
      </trkpt>
      <trkpt lat="47.9905362" lon="-2.3682041">
        <ele>27.958</ele>
        <time>2018-08-23T09:35:05.054Z</time>
      </trkpt>
      <trkpt lat="47.9904865" lon="-2.3683193">
        <ele>28.309</ele>
        <time>2018-08-23T09:35:07.648Z</time>
      </trkpt>
      <trkpt lat="47.9904277" lon="-2.3684631">
        <ele>29.520</ele>
        <time>2018-08-23T09:35:11.001Z</time>
      </trkpt>
      <trkpt lat="47.9903755" lon="-2.3685997">
        <ele>30.636</ele>
        <time>2018-08-23T09:35:14.148Z</time>
      </trkpt>
      <trkpt lat="47.9903233" lon="-2.3687387">
        <ele>30.932</ele>
        <time>2018-08-23T09:35:17.407Z</time>
      </trkpt>
      <trkpt lat="47.9902703" lon="-2.3688739">
        <ele>30.830</ele>
        <time>2018-08-23T09:35:20.965Z</time>
      </trkpt>
      <trkpt lat="47.9902078" lon="-2.3690149">
        <ele>30.855</ele>
        <time>2018-08-23T09:35:24.693Z</time>
      </trkpt>
      <trkpt lat="47.9901390" lon="-2.3691542">
        <ele>31.121</ele>
        <time>2018-08-23T09:35:28.177Z</time>
      </trkpt>
      <trkpt lat="47.9900868" lon="-2.3692782">
        <ele>31.529</ele>
        <time>2018-08-23T09:35:30.900Z</time>
      </trkpt>
      <trkpt lat="47.9900323" lon="-2.3693993">
        <ele>31.946</ele>
        <time>2018-08-23T09:35:33.484Z</time>
      </trkpt>
      <trkpt lat="47.9899749" lon="-2.3695271">
        <ele>32.504</ele>
        <time>2018-08-23T09:35:36.227Z</time>
      </trkpt>
      <trkpt lat="47.9899176" lon="-2.3696654">
        <ele>33.447</ele>
        <time>2018-08-23T09:35:39.288Z</time>
      </trkpt>
      <trkpt lat="47.9898566" lon="-2.3698101">
        <ele>34.532</ele>
        <time>2018-08-23T09:35:42.978Z</time>
      </trkpt>
      <trkpt lat="47.9897946" lon="-2.3699483">
        <ele>35.289</ele>
        <time>2018-08-23T09:35:47.850Z</time>
      </trkpt>
      <trkpt lat="47.9897420" lon="-2.3700793">
        <ele>35.576</ele>
        <time>2018-08-23T09:35:52.492Z</time>
      </trkpt>
      <trkpt lat="47.9896848" lon="-2.3701990">
        <ele>35.561</ele>
        <time>2018-08-23T09:35:56.282Z</time>
      </trkpt>
      <trkpt lat="47.9895965" lon="-2.3702881">
        <ele>35.471</ele>
        <time>2018-08-23T09:35:59.978Z</time>
      </trkpt>
      <trkpt lat="47.9895558" lon="-2.3704109">
        <ele>35.493</ele>
        <time>2018-08-23T09:36:02.953Z</time>
      </trkpt>
      <trkpt lat="47.9895209" lon="-2.3705676">
        <ele>35.728</ele>
        <time>2018-08-23T09:36:06.408Z</time>
      </trkpt>
      <trkpt lat="47.9894642" lon="-2.3706836">
        <ele>36.079</ele>
        <time>2018-08-23T09:36:09.311Z</time>
      </trkpt>
      <trkpt lat="47.9893961" lon="-2.3708274">
        <ele>36.040</ele>
        <time>2018-08-23T09:36:12.836Z</time>
      </trkpt>
      <trkpt lat="47.9893349" lon="-2.3709785">
        <ele>35.363</ele>
        <time>2018-08-23T09:36:16.490Z</time>
      </trkpt>
      <trkpt lat="47.9892786" lon="-2.3710894">
        <ele>34.820</ele>
        <time>2018-08-23T09:36:19.314Z</time>
      </trkpt>
      <trkpt lat="47.9892197" lon="-2.3712057">
        <ele>35.073</ele>
        <time>2018-08-23T09:36:22.087Z</time>
      </trkpt>
      <trkpt lat="47.9891673" lon="-2.3713181">
        <ele>35.538</ele>
        <time>2018-08-23T09:36:24.585Z</time>
      </trkpt>
      <trkpt lat="47.9890991" lon="-2.3714751">
        <ele>35.487</ele>
        <time>2018-08-23T09:36:28.008Z</time>
      </trkpt>
      <trkpt lat="47.9890371" lon="-2.3716277">
        <ele>35.029</ele>
        <time>2018-08-23T09:36:31.275Z</time>
      </trkpt>
      <trkpt lat="47.9889754" lon="-2.3717630">
        <ele>34.552</ele>
        <time>2018-08-23T09:36:34.253Z</time>
      </trkpt>
      <trkpt lat="47.9889190" lon="-2.3718908">
        <ele>34.015</ele>
        <time>2018-08-23T09:36:37.197Z</time>
      </trkpt>
      <trkpt lat="47.9888580" lon="-2.3720162">
        <ele>33.327</ele>
        <time>2018-08-23T09:36:40.433Z</time>
      </trkpt>
      <trkpt lat="47.9888031" lon="-2.3721740">
        <ele>32.775</ele>
        <time>2018-08-23T09:36:44.415Z</time>
      </trkpt>
      <trkpt lat="47.9887586" lon="-2.3723176">
        <ele>32.913</ele>
        <time>2018-08-23T09:36:47.898Z</time>
      </trkpt>
      <trkpt lat="47.9887148" lon="-2.3724609">
        <ele>34.113</ele>
        <time>2018-08-23T09:36:51.189Z</time>
      </trkpt>
      <trkpt lat="47.9886631" lon="-2.3726015">
        <ele>36.018</ele>
        <time>2018-08-23T09:36:54.336Z</time>
      </trkpt>
      <trkpt lat="47.9886005" lon="-2.3727155">
        <ele>37.698</ele>
        <time>2018-08-23T09:36:57.189Z</time>
      </trkpt>
      <trkpt lat="47.9885372" lon="-2.3728563">
        <ele>38.523</ele>
        <time>2018-08-23T09:37:00.527Z</time>
      </trkpt>
      <trkpt lat="47.9884663" lon="-2.3730079">
        <ele>38.420</ele>
        <time>2018-08-23T09:37:04.213Z</time>
      </trkpt>
      <trkpt lat="47.9884021" lon="-2.3731394">
        <ele>37.800</ele>
        <time>2018-08-23T09:37:07.353Z</time>
      </trkpt>
      <trkpt lat="47.9883509" lon="-2.3732771">
        <ele>37.131</ele>
        <time>2018-08-23T09:37:10.310Z</time>
      </trkpt>
      <trkpt lat="47.9882968" lon="-2.3733930">
        <ele>36.621</ele>
        <time>2018-08-23T09:37:13.077Z</time>
      </trkpt>
      <trkpt lat="47.9882433" lon="-2.3735052">
        <ele>36.369</ele>
        <time>2018-08-23T09:37:15.880Z</time>
      </trkpt>
      <trkpt lat="47.9881942" lon="-2.3736466">
        <ele>36.394</ele>
        <time>2018-08-23T09:37:19.283Z</time>
      </trkpt>
      <trkpt lat="47.9881423" lon="-2.3737741">
        <ele>36.293</ele>
        <time>2018-08-23T09:37:22.423Z</time>
      </trkpt>
      <trkpt lat="47.9880934" lon="-2.3739142">
        <ele>35.782</ele>
        <time>2018-08-23T09:37:25.640Z</time>
      </trkpt>
      <trkpt lat="47.9880379" lon="-2.3740437">
        <ele>35.147</ele>
        <time>2018-08-23T09:37:28.686Z</time>
      </trkpt>
      <trkpt lat="47.9879754" lon="-2.3741998">
        <ele>34.657</ele>
        <time>2018-08-23T09:37:32.246Z</time>
      </trkpt>
      <trkpt lat="47.9879208" lon="-2.3743394">
        <ele>34.290</ele>
        <time>2018-08-23T09:37:35.476Z</time>
      </trkpt>
      <trkpt lat="47.9878560" lon="-2.3744695">
        <ele>34.082</ele>
        <time>2018-08-23T09:37:38.825Z</time>
      </trkpt>
      <trkpt lat="47.9877944" lon="-2.3745933">
        <ele>33.985</ele>
        <time>2018-08-23T09:37:42.024Z</time>
      </trkpt>
      <trkpt lat="47.9877456" lon="-2.3747175">
        <ele>33.802</ele>
        <time>2018-08-23T09:37:44.989Z</time>
      </trkpt>
      <trkpt lat="47.9876901" lon="-2.3748718">
        <ele>33.354</ele>
        <time>2018-08-23T09:37:48.472Z</time>
      </trkpt>
      <trkpt lat="47.9876420" lon="-2.3750055">
        <ele>32.716</ele>
        <time>2018-08-23T09:37:51.345Z</time>
      </trkpt>
      <trkpt lat="47.9875942" lon="-2.3751194">
        <ele>32.192</ele>
        <time>2018-08-23T09:37:53.843Z</time>
      </trkpt>
      <trkpt lat="47.9875458" lon="-2.3752687">
        <ele>31.956</ele>
        <time>2018-08-23T09:37:56.957Z</time>
      </trkpt>
      <trkpt lat="47.9874869" lon="-2.3754079">
        <ele>31.918</ele>
        <time>2018-08-23T09:38:00.143Z</time>
      </trkpt>
      <trkpt lat="47.9874221" lon="-2.3755327">
        <ele>31.910</ele>
        <time>2018-08-23T09:38:03.226Z</time>
      </trkpt>
      <trkpt lat="47.9873603" lon="-2.3756495">
        <ele>31.840</ele>
        <time>2018-08-23T09:38:06.068Z</time>
      </trkpt>
      <trkpt lat="47.9872935" lon="-2.3757947">
        <ele>31.749</ele>
        <time>2018-08-23T09:38:09.332Z</time>
      </trkpt>
      <trkpt lat="47.9872469" lon="-2.3759156">
        <ele>32.040</ele>
        <time>2018-08-23T09:38:11.890Z</time>
      </trkpt>
      <trkpt lat="47.9871954" lon="-2.3760462">
        <ele>33.176</ele>
        <time>2018-08-23T09:38:14.673Z</time>
      </trkpt>
      <trkpt lat="47.9871330" lon="-2.3761694">
        <ele>34.762</ele>
        <time>2018-08-23T09:38:17.604Z</time>
      </trkpt>
      <trkpt lat="47.9870698" lon="-2.3762976">
        <ele>35.788</ele>
        <time>2018-08-23T09:38:20.751Z</time>
      </trkpt>
      <trkpt lat="47.9870114" lon="-2.3764234">
        <ele>35.925</ele>
        <time>2018-08-23T09:38:23.824Z</time>
      </trkpt>
      <trkpt lat="47.9869687" lon="-2.3765457">
        <ele>35.696</ele>
        <time>2018-08-23T09:38:26.671Z</time>
      </trkpt>
      <trkpt lat="47.9869086" lon="-2.3766637">
        <ele>35.711</ele>
        <time>2018-08-23T09:38:29.775Z</time>
      </trkpt>
      <trkpt lat="47.9868382" lon="-2.3767677">
        <ele>36.135</ele>
        <time>2018-08-23T09:38:32.932Z</time>
      </trkpt>
      <trkpt lat="47.9867657" lon="-2.3768787">
        <ele>36.818</ele>
        <time>2018-08-23T09:38:36.388Z</time>
      </trkpt>
      <trkpt lat="47.9866928" lon="-2.3769672">
        <ele>37.558</ele>
        <time>2018-08-23T09:38:39.643Z</time>
      </trkpt>
      <trkpt lat="47.9866125" lon="-2.3770810">
        <ele>38.237</ele>
        <time>2018-08-23T09:38:43.419Z</time>
      </trkpt>
      <trkpt lat="47.9865476" lon="-2.3771984">
        <ele>38.857</ele>
        <time>2018-08-23T09:38:46.930Z</time>
      </trkpt>
      <trkpt lat="47.9864690" lon="-2.3773135">
        <ele>39.389</ele>
        <time>2018-08-23T09:38:51.018Z</time>
      </trkpt>
      <trkpt lat="47.9863865" lon="-2.3774232">
        <ele>39.839</ele>
        <time>2018-08-23T09:38:55.302Z</time>
      </trkpt>
      <trkpt lat="47.9863105" lon="-2.3775123">
        <ele>40.279</ele>
        <time>2018-08-23T09:38:58.739Z</time>
      </trkpt>
      <trkpt lat="47.9862317" lon="-2.3775989">
        <ele>40.008</ele>
        <time>2018-08-23T09:39:02.080Z</time>
      </trkpt>
      <trkpt lat="47.9861373" lon="-2.3777096">
        <ele>38.332</ele>
        <time>2018-08-23T09:39:06.239Z</time>
      </trkpt>
      <trkpt lat="47.9860623" lon="-2.3778354">
        <ele>36.139</ele>
        <time>2018-08-23T09:39:10.142Z</time>
      </trkpt>
      <trkpt lat="47.9859880" lon="-2.3779537">
        <ele>34.889</ele>
        <time>2018-08-23T09:39:13.622Z</time>
      </trkpt>
      <trkpt lat="47.9859288" lon="-2.3780718">
        <ele>34.845</ele>
        <time>2018-08-23T09:39:16.741Z</time>
      </trkpt>
      <trkpt lat="47.9858732" lon="-2.3781861">
        <ele>35.464</ele>
        <time>2018-08-23T09:39:19.778Z</time>
      </trkpt>
      <trkpt lat="47.9857962" lon="-2.3783161">
        <ele>36.229</ele>
        <time>2018-08-23T09:39:23.500Z</time>
      </trkpt>
      <trkpt lat="47.9857097" lon="-2.3784326">
        <ele>36.806</ele>
        <time>2018-08-23T09:39:27.071Z</time>
      </trkpt>
      <trkpt lat="47.9856419" lon="-2.3785277">
        <ele>37.050</ele>
        <time>2018-08-23T09:39:29.854Z</time>
      </trkpt>
      <trkpt lat="47.9855569" lon="-2.3786602">
        <ele>37.095</ele>
        <time>2018-08-23T09:39:33.385Z</time>
      </trkpt>
      <trkpt lat="47.9854738" lon="-2.3787696">
        <ele>37.135</ele>
        <time>2018-08-23T09:39:36.401Z</time>
      </trkpt>
      <trkpt lat="47.9853951" lon="-2.3788900">
        <ele>37.261</ele>
        <time>2018-08-23T09:39:39.392Z</time>
      </trkpt>
      <trkpt lat="47.9853005" lon="-2.3790116">
        <ele>37.408</ele>
        <time>2018-08-23T09:39:42.872Z</time>
      </trkpt>
      <trkpt lat="47.9852100" lon="-2.3791124">
        <ele>37.184</ele>
        <time>2018-08-23T09:39:46.464Z</time>
      </trkpt>
      <trkpt lat="47.9851286" lon="-2.3791841">
        <ele>36.282</ele>
        <time>2018-08-23T09:39:49.744Z</time>
      </trkpt>
      <trkpt lat="47.9850364" lon="-2.3792470">
        <ele>35.040</ele>
        <time>2018-08-23T09:39:53.538Z</time>
      </trkpt>
      <trkpt lat="47.9849630" lon="-2.3793515">
        <ele>34.081</ele>
        <time>2018-08-23T09:39:57.513Z</time>
      </trkpt>
      <trkpt lat="47.9848915" lon="-2.3794768">
        <ele>33.732</ele>
        <time>2018-08-23T09:40:01.635Z</time>
      </trkpt>
      <trkpt lat="47.9847992" lon="-2.3795633">
        <ele>33.931</ele>
        <time>2018-08-23T09:40:05.209Z</time>
      </trkpt>
      <trkpt lat="47.9846992" lon="-2.3796605">
        <ele>34.281</ele>
        <time>2018-08-23T09:40:08.854Z</time>
      </trkpt>
      <trkpt lat="47.9846041" lon="-2.3797605">
        <ele>34.492</ele>
        <time>2018-08-23T09:40:12.491Z</time>
      </trkpt>
      <trkpt lat="47.9845122" lon="-2.3798557">
        <ele>34.715</ele>
        <time>2018-08-23T09:40:16.239Z</time>
      </trkpt>
      <trkpt lat="47.9844286" lon="-2.3799489">
        <ele>35.166</ele>
        <time>2018-08-23T09:40:20.449Z</time>
      </trkpt>
      <trkpt lat="47.9843285" lon="-2.3799950">
        <ele>35.896</ele>
        <time>2018-08-23T09:40:25.172Z</time>
      </trkpt>
      <trkpt lat="47.9842345" lon="-2.3799588">
        <ele>36.806</ele>
        <time>2018-08-23T09:40:29.794Z</time>
      </trkpt>
      <trkpt lat="47.9841232" lon="-2.3799438">
        <ele>37.699</ele>
        <time>2018-08-23T09:40:34.671Z</time>
      </trkpt>
      <trkpt lat="47.9840319" lon="-2.3799108">
        <ele>38.385</ele>
        <time>2018-08-23T09:40:38.711Z</time>
      </trkpt>
      <trkpt lat="47.9839400" lon="-2.3798946">
        <ele>38.899</ele>
        <time>2018-08-23T09:40:43.000Z</time>
      </trkpt>
      <trkpt lat="47.9839400" lon="-2.3798946">
        <ele>39.311</ele>
        <time>2018-08-23T09:40:44.000Z</time>
      </trkpt>
      <trkpt lat="47.9839400" lon="-2.3798946">
        <ele>39.534</ele>
        <time>2018-08-23T09:40:51.277Z</time>
      </trkpt>
      <trkpt lat="47.9839950" lon="-2.3800028">
        <ele>39.443</ele>
        <time>2018-08-23T09:40:58.000Z</time>
      </trkpt>
      <trkpt lat="47.9839950" lon="-2.3800028">
        <ele>39.217</ele>
        <time>2018-08-23T09:41:00.000Z</time>
      </trkpt>
      <trkpt lat="47.9839950" lon="-2.3800028">
        <ele>39.109</ele>
        <time>2018-08-23T09:41:00.100Z</time>
      </trkpt>
      <trkpt lat="47.9840836" lon="-2.3800604">
        <ele>39.154</ele>
        <time>2018-08-23T09:41:02.000Z</time>
      </trkpt>
      <trkpt lat="47.9840836" lon="-2.3800604">
        <ele>39.049</ele>
        <time>2018-08-23T09:41:02.001Z</time>
      </trkpt>
      <trkpt lat="47.9840836" lon="-2.3800604">
        <ele>38.734</ele>
        <time>2018-08-23T09:41:02.101Z</time>
      </trkpt>
      <trkpt lat="47.9842212" lon="-2.3801163">
        <ele>38.404</ele>
        <time>2018-08-23T09:41:11.964Z</time>
      </trkpt>
      <trkpt lat="47.9841414" lon="-2.3802139">
        <ele>38.225</ele>
        <time>2018-08-23T09:41:17.077Z</time>
      </trkpt>
      <trkpt lat="47.9840633" lon="-2.3803153">
        <ele>37.992</ele>
        <time>2018-08-23T09:41:21.281Z</time>
      </trkpt>
      <trkpt lat="47.9839590" lon="-2.3803852">
        <ele>37.571</ele>
        <time>2018-08-23T09:41:25.257Z</time>
      </trkpt>
      <trkpt lat="47.9838683" lon="-2.3804694">
        <ele>37.175</ele>
        <time>2018-08-23T09:41:28.755Z</time>
      </trkpt>
      <trkpt lat="47.9837668" lon="-2.3805474">
        <ele>36.955</ele>
        <time>2018-08-23T09:41:32.447Z</time>
      </trkpt>
      <trkpt lat="47.9836722" lon="-2.3806467">
        <ele>36.789</ele>
        <time>2018-08-23T09:41:36.265Z</time>
      </trkpt>
      <trkpt lat="47.9835917" lon="-2.3807347">
        <ele>36.203</ele>
        <time>2018-08-23T09:41:39.513Z</time>
      </trkpt>
      <trkpt lat="47.9834982" lon="-2.3808332">
        <ele>34.837</ele>
        <time>2018-08-23T09:41:42.846Z</time>
      </trkpt>
      <trkpt lat="47.9834122" lon="-2.3809246">
        <ele>33.249</ele>
        <time>2018-08-23T09:41:45.769Z</time>
      </trkpt>
      <trkpt lat="47.9833239" lon="-2.3810160">
        <ele>32.254</ele>
        <time>2018-08-23T09:41:48.758Z</time>
      </trkpt>
      <trkpt lat="47.9832491" lon="-2.3811131">
        <ele>31.876</ele>
        <time>2018-08-23T09:41:51.613Z</time>
      </trkpt>
      <trkpt lat="47.9831672" lon="-2.3812010">
        <ele>31.767</ele>
        <time>2018-08-23T09:41:54.601Z</time>
      </trkpt>
      <trkpt lat="47.9830857" lon="-2.3812900">
        <ele>31.770</ele>
        <time>2018-08-23T09:41:57.494Z</time>
      </trkpt>
      <trkpt lat="47.9829985" lon="-2.3813359">
        <ele>31.931</ele>
        <time>2018-08-23T09:42:00.070Z</time>
      </trkpt>
      <trkpt lat="47.9829103" lon="-2.3814062">
        <ele>32.384</ele>
        <time>2018-08-23T09:42:02.830Z</time>
      </trkpt>
      <trkpt lat="47.9828204" lon="-2.3814959">
        <ele>33.172</ele>
        <time>2018-08-23T09:42:05.689Z</time>
      </trkpt>
      <trkpt lat="47.9827309" lon="-2.3815957">
        <ele>34.001</ele>
        <time>2018-08-23T09:42:08.591Z</time>
      </trkpt>
      <trkpt lat="47.9826423" lon="-2.3816818">
        <ele>34.503</ele>
        <time>2018-08-23T09:42:11.694Z</time>
      </trkpt>
      <trkpt lat="47.9825317" lon="-2.3817718">
        <ele>34.659</ele>
        <time>2018-08-23T09:42:15.559Z</time>
      </trkpt>
      <trkpt lat="47.9824342" lon="-2.3819005">
        <ele>34.557</ele>
        <time>2018-08-23T09:42:19.119Z</time>
      </trkpt>
      <trkpt lat="47.9823444" lon="-2.3820059">
        <ele>34.265</ele>
        <time>2018-08-23T09:42:22.164Z</time>
      </trkpt>
      <trkpt lat="47.9822603" lon="-2.3820597">
        <ele>33.631</ele>
        <time>2018-08-23T09:42:24.799Z</time>
      </trkpt>
      <trkpt lat="47.9821663" lon="-2.3821317">
        <ele>32.245</ele>
        <time>2018-08-23T09:42:28.007Z</time>
      </trkpt>
      <trkpt lat="47.9820766" lon="-2.3822086">
        <ele>30.333</ele>
        <time>2018-08-23T09:42:31.227Z</time>
      </trkpt>
      <trkpt lat="47.9819816" lon="-2.3823046">
        <ele>28.845</ele>
        <time>2018-08-23T09:42:34.958Z</time>
      </trkpt>
      <trkpt lat="47.9818890" lon="-2.3823935">
        <ele>28.720</ele>
        <time>2018-08-23T09:42:38.827Z</time>
      </trkpt>
      <trkpt lat="47.9817911" lon="-2.3824804">
        <ele>29.972</ele>
        <time>2018-08-23T09:42:43.072Z</time>
      </trkpt>
      <trkpt lat="47.9817127" lon="-2.3825804">
        <ele>31.455</ele>
        <time>2018-08-23T09:42:46.912Z</time>
      </trkpt>
      <trkpt lat="47.9816352" lon="-2.3826720">
        <ele>32.215</ele>
        <time>2018-08-23T09:42:50.682Z</time>
      </trkpt>
      <trkpt lat="47.9815518" lon="-2.3827560">
        <ele>32.360</ele>
        <time>2018-08-23T09:42:54.803Z</time>
      </trkpt>
      <trkpt lat="47.9814757" lon="-2.3828320">
        <ele>32.295</ele>
        <time>2018-08-23T09:42:58.820Z</time>
      </trkpt>
      <trkpt lat="47.9814040" lon="-2.3829211">
        <ele>32.858</ele>
        <time>2018-08-23T09:43:03.072Z</time>
      </trkpt>
      <trkpt lat="47.9813189" lon="-2.3829911">
        <ele>34.724</ele>
        <time>2018-08-23T09:43:07.520Z</time>
      </trkpt>
      <trkpt lat="47.9812293" lon="-2.3830897">
        <ele>37.258</ele>
        <time>2018-08-23T09:43:12.428Z</time>
      </trkpt>
      <trkpt lat="47.9811423" lon="-2.3831731">
        <ele>39.207</ele>
        <time>2018-08-23T09:43:16.574Z</time>
      </trkpt>
      <trkpt lat="47.9810638" lon="-2.3832491">
        <ele>40.140</ele>
        <time>2018-08-23T09:43:20.358Z</time>
      </trkpt>
      <trkpt lat="47.9809883" lon="-2.3833301">
        <ele>40.490</ele>
        <time>2018-08-23T09:43:24.566Z</time>
      </trkpt>
      <trkpt lat="47.9809150" lon="-2.3834357">
        <ele>40.810</ele>
        <time>2018-08-23T09:43:29.354Z</time>
      </trkpt>
      <trkpt lat="47.9808307" lon="-2.3835236">
        <ele>41.125</ele>
        <time>2018-08-23T09:43:33.999Z</time>
      </trkpt>
      <trkpt lat="47.9807396" lon="-2.3835997">
        <ele>41.030</ele>
        <time>2018-08-23T09:43:38.550Z</time>
      </trkpt>
      <trkpt lat="47.9806580" lon="-2.3836693">
        <ele>40.435</ele>
        <time>2018-08-23T09:43:42.576Z</time>
      </trkpt>
      <trkpt lat="47.9805587" lon="-2.3837625">
        <ele>39.860</ele>
        <time>2018-08-23T09:43:47.533Z</time>
      </trkpt>
      <trkpt lat="47.9804796" lon="-2.3838514">
        <ele>39.774</ele>
        <time>2018-08-23T09:43:51.391Z</time>
      </trkpt>
      <trkpt lat="47.9804044" lon="-2.3839283">
        <ele>40.163</ele>
        <time>2018-08-23T09:43:54.628Z</time>
      </trkpt>
      <trkpt lat="47.9803214" lon="-2.3839958">
        <ele>40.916</ele>
        <time>2018-08-23T09:43:57.923Z</time>
      </trkpt>
      <trkpt lat="47.9802303" lon="-2.3840682">
        <ele>41.760</ele>
        <time>2018-08-23T09:44:01.408Z</time>
      </trkpt>
      <trkpt lat="47.9801404" lon="-2.3841519">
        <ele>42.258</ele>
        <time>2018-08-23T09:44:05.042Z</time>
      </trkpt>
      <trkpt lat="47.9800410" lon="-2.3842438">
        <ele>42.287</ele>
        <time>2018-08-23T09:44:09.116Z</time>
      </trkpt>
      <trkpt lat="47.9799450" lon="-2.3843241">
        <ele>42.137</ele>
        <time>2018-08-23T09:44:12.923Z</time>
      </trkpt>
      <trkpt lat="47.9798786" lon="-2.3844176">
        <ele>42.068</ele>
        <time>2018-08-23T09:44:16.209Z</time>
      </trkpt>
      <trkpt lat="47.9797991" lon="-2.3845325">
        <ele>41.997</ele>
        <time>2018-08-23T09:44:20.434Z</time>
      </trkpt>
      <trkpt lat="47.9796999" lon="-2.3846289">
        <ele>41.698</ele>
        <time>2018-08-23T09:44:24.884Z</time>
      </trkpt>
      <trkpt lat="47.9795967" lon="-2.3846868">
        <ele>41.222</ele>
        <time>2018-08-23T09:44:28.802Z</time>
      </trkpt>
      <trkpt lat="47.9794920" lon="-2.3847520">
        <ele>39.984</ele>
        <time>2018-08-23T09:44:32.900Z</time>
      </trkpt>
      <trkpt lat="47.9794058" lon="-2.3847934">
        <ele>37.257</ele>
        <time>2018-08-23T09:44:36.581Z</time>
      </trkpt>
      <trkpt lat="47.9793263" lon="-2.3848873">
        <ele>33.748</ele>
        <time>2018-08-23T09:44:40.277Z</time>
      </trkpt>
      <trkpt lat="47.9792493" lon="-2.3849879">
        <ele>30.697</ele>
        <time>2018-08-23T09:44:43.254Z</time>
      </trkpt>
      <trkpt lat="47.9791485" lon="-2.3851058">
        <ele>28.622</ele>
        <time>2018-08-23T09:44:46.393Z</time>
      </trkpt>
      <trkpt lat="47.9790595" lon="-2.3851695">
        <ele>27.870</ele>
        <time>2018-08-23T09:44:48.773Z</time>
      </trkpt>
      <trkpt lat="47.9789343" lon="-2.3852438">
        <ele>28.222</ele>
        <time>2018-08-23T09:44:51.905Z</time>
      </trkpt>
      <trkpt lat="47.9788436" lon="-2.3853008">
        <ele>28.879</ele>
        <time>2018-08-23T09:44:54.242Z</time>
      </trkpt>
      <trkpt lat="47.9787097" lon="-2.3853662">
        <ele>29.724</ele>
        <time>2018-08-23T09:44:57.592Z</time>
      </trkpt>
      <trkpt lat="47.9785872" lon="-2.3854259">
        <ele>31.594</ele>
        <time>2018-08-23T09:45:00.535Z</time>
      </trkpt>
      <trkpt lat="47.9784597" lon="-2.3855086">
        <ele>34.457</ele>
        <time>2018-08-23T09:45:03.672Z</time>
      </trkpt>
      <trkpt lat="47.9783340" lon="-2.3855846">
        <ele>36.967</ele>
        <time>2018-08-23T09:45:06.837Z</time>
      </trkpt>
      <trkpt lat="47.9782479" lon="-2.3856349">
        <ele>37.852</ele>
        <time>2018-08-23T09:45:09.080Z</time>
      </trkpt>
      <trkpt lat="47.9781275" lon="-2.3856932">
        <ele>37.148</ele>
        <time>2018-08-23T09:45:12.272Z</time>
      </trkpt>
      <trkpt lat="47.9780140" lon="-2.3857525">
        <ele>36.122</ele>
        <time>2018-08-23T09:45:15.362Z</time>
      </trkpt>
      <trkpt lat="47.9779086" lon="-2.3858060">
        <ele>35.852</ele>
        <time>2018-08-23T09:45:18.313Z</time>
      </trkpt>
      <trkpt lat="47.9777939" lon="-2.3858276">
        <ele>36.364</ele>
        <time>2018-08-23T09:45:21.583Z</time>
      </trkpt>
      <trkpt lat="47.9776913" lon="-2.3858394">
        <ele>37.035</ele>
        <time>2018-08-23T09:45:24.562Z</time>
      </trkpt>
      <trkpt lat="47.9775978" lon="-2.3858510">
        <ele>37.255</ele>
        <time>2018-08-23T09:45:27.183Z</time>
      </trkpt>
      <trkpt lat="47.9775032" lon="-2.3858796">
        <ele>37.046</ele>
        <time>2018-08-23T09:45:29.774Z</time>
      </trkpt>
      <trkpt lat="47.9774064" lon="-2.3859063">
        <ele>36.799</ele>
        <time>2018-08-23T09:45:32.388Z</time>
      </trkpt>
      <trkpt lat="47.9773030" lon="-2.3859334">
        <ele>36.345</ele>
        <time>2018-08-23T09:45:35.156Z</time>
      </trkpt>
      <trkpt lat="47.9771951" lon="-2.3859377">
        <ele>35.234</ele>
        <time>2018-08-23T09:45:38.146Z</time>
      </trkpt>
      <trkpt lat="47.9770865" lon="-2.3859481">
        <ele>33.542</ele>
        <time>2018-08-23T09:45:41.307Z</time>
      </trkpt>
      <trkpt lat="47.9769949" lon="-2.3859750">
        <ele>31.933</ele>
        <time>2018-08-23T09:45:43.962Z</time>
      </trkpt>
      <trkpt lat="47.9768911" lon="-2.3860055">
        <ele>31.008</ele>
        <time>2018-08-23T09:45:46.905Z</time>
      </trkpt>
      <trkpt lat="47.9767832" lon="-2.3860234">
        <ele>30.945</ele>
        <time>2018-08-23T09:45:49.885Z</time>
      </trkpt>
      <trkpt lat="47.9766725" lon="-2.3860377">
        <ele>31.413</ele>
        <time>2018-08-23T09:45:52.875Z</time>
      </trkpt>
      <trkpt lat="47.9765722" lon="-2.3860562">
        <ele>32.068</ele>
        <time>2018-08-23T09:45:55.549Z</time>
      </trkpt>
      <trkpt lat="47.9764527" lon="-2.3860473">
        <ele>32.958</ele>
        <time>2018-08-23T09:45:58.712Z</time>
      </trkpt>
      <trkpt lat="47.9763395" lon="-2.3860527">
        <ele>34.381</ele>
        <time>2018-08-23T09:46:01.738Z</time>
      </trkpt>
      <trkpt lat="47.9762272" lon="-2.3860700">
        <ele>36.096</ele>
        <time>2018-08-23T09:46:04.762Z</time>
      </trkpt>
      <trkpt lat="47.9761207" lon="-2.3860856">
        <ele>37.362</ele>
        <time>2018-08-23T09:46:07.638Z</time>
      </trkpt>
      <trkpt lat="47.9760133" lon="-2.3860967">
        <ele>37.840</ele>
        <time>2018-08-23T09:46:10.543Z</time>
      </trkpt>
      <trkpt lat="47.9759076" lon="-2.3861066">
        <ele>37.978</ele>
        <time>2018-08-23T09:46:13.396Z</time>
      </trkpt>
      <trkpt lat="47.9758054" lon="-2.3861203">
        <ele>38.263</ele>
        <time>2018-08-23T09:46:16.158Z</time>
      </trkpt>
      <trkpt lat="47.9757029" lon="-2.3861299">
        <ele>38.690</ele>
        <time>2018-08-23T09:46:18.925Z</time>
      </trkpt>
      <trkpt lat="47.9756040" lon="-2.3861379">
        <ele>38.729</ele>
        <time>2018-08-23T09:46:21.595Z</time>
      </trkpt>
      <trkpt lat="47.9755023" lon="-2.3861516">
        <ele>38.142</ele>
        <time>2018-08-23T09:46:24.359Z</time>
      </trkpt>
      <trkpt lat="47.9754121" lon="-2.3861560">
        <ele>37.402</ele>
        <time>2018-08-23T09:46:26.849Z</time>
      </trkpt>
      <trkpt lat="47.9753161" lon="-2.3861615">
        <ele>36.732</ele>
        <time>2018-08-23T09:46:29.487Z</time>
      </trkpt>
      <trkpt lat="47.9752174" lon="-2.3861596">
        <ele>35.917</ele>
        <time>2018-08-23T09:46:32.336Z</time>
      </trkpt>
      <trkpt lat="47.9750998" lon="-2.3861612">
        <ele>35.164</ele>
        <time>2018-08-23T09:46:35.990Z</time>
      </trkpt>
      <trkpt lat="47.9749881" lon="-2.3861815">
        <ele>34.628</ele>
        <time>2018-08-23T09:46:39.647Z</time>
      </trkpt>
      <trkpt lat="47.9748670" lon="-2.3861963">
        <ele>34.137</ele>
        <time>2018-08-23T09:46:43.293Z</time>
      </trkpt>
      <trkpt lat="47.9747592" lon="-2.3862002">
        <ele>33.683</ele>
        <time>2018-08-23T09:46:46.302Z</time>
      </trkpt>
      <trkpt lat="47.9746471" lon="-2.3862132">
        <ele>33.344</ele>
        <time>2018-08-23T09:46:49.375Z</time>
      </trkpt>
      <trkpt lat="47.9745420" lon="-2.3862345">
        <ele>33.135</ele>
        <time>2018-08-23T09:46:52.422Z</time>
      </trkpt>
      <trkpt lat="47.9744485" lon="-2.3862351">
        <ele>32.962</ele>
        <time>2018-08-23T09:46:55.294Z</time>
      </trkpt>
      <trkpt lat="47.9743355" lon="-2.3862169">
        <ele>32.703</ele>
        <time>2018-08-23T09:46:58.704Z</time>
      </trkpt>
      <trkpt lat="47.9742306" lon="-2.3862196">
        <ele>32.454</ele>
        <time>2018-08-23T09:47:01.592Z</time>
      </trkpt>
      <trkpt lat="47.9741314" lon="-2.3862376">
        <ele>32.418</ele>
        <time>2018-08-23T09:47:04.347Z</time>
      </trkpt>
      <trkpt lat="47.9740144" lon="-2.3862500">
        <ele>32.533</ele>
        <time>2018-08-23T09:47:07.616Z</time>
      </trkpt>
      <trkpt lat="47.9739034" lon="-2.3862570">
        <ele>32.260</ele>
        <time>2018-08-23T09:47:10.674Z</time>
      </trkpt>
      <trkpt lat="47.9737889" lon="-2.3862875">
        <ele>31.098</ele>
        <time>2018-08-23T09:47:13.785Z</time>
      </trkpt>
      <trkpt lat="47.9736764" lon="-2.3862937">
        <ele>29.454</ele>
        <time>2018-08-23T09:47:16.748Z</time>
      </trkpt>
      <trkpt lat="47.9735693" lon="-2.3862955">
        <ele>28.246</ele>
        <time>2018-08-23T09:47:19.504Z</time>
      </trkpt>
      <trkpt lat="47.9734575" lon="-2.3863077">
        <ele>28.006</ele>
        <time>2018-08-23T09:47:22.398Z</time>
      </trkpt>
      <trkpt lat="47.9733566" lon="-2.3863170">
        <ele>28.712</ele>
        <time>2018-08-23T09:47:25.182Z</time>
      </trkpt>
      <trkpt lat="47.9732619" lon="-2.3863282">
        <ele>29.831</ele>
        <time>2018-08-23T09:47:28.007Z</time>
      </trkpt>
      <trkpt lat="47.9731603" lon="-2.3863407">
        <ele>30.739</ele>
        <time>2018-08-23T09:47:31.032Z</time>
      </trkpt>
      <trkpt lat="47.9730505" lon="-2.3863606">
        <ele>31.273</ele>
        <time>2018-08-23T09:47:34.140Z</time>
      </trkpt>
      <trkpt lat="47.9729381" lon="-2.3863729">
        <ele>31.513</ele>
        <time>2018-08-23T09:47:37.225Z</time>
      </trkpt>
      <trkpt lat="47.9728376" lon="-2.3863891">
        <ele>31.906</ele>
        <time>2018-08-23T09:47:39.999Z</time>
      </trkpt>
      <trkpt lat="47.9727162" lon="-2.3863778">
        <ele>32.798</ele>
        <time>2018-08-23T09:47:43.395Z</time>
      </trkpt>
      <trkpt lat="47.9726034" lon="-2.3863885">
        <ele>33.935</ele>
        <time>2018-08-23T09:47:46.559Z</time>
      </trkpt>
      <trkpt lat="47.9724848" lon="-2.3863782">
        <ele>34.712</ele>
        <time>2018-08-23T09:47:50.048Z</time>
      </trkpt>
      <trkpt lat="47.9723837" lon="-2.3863719">
        <ele>34.505</ele>
        <time>2018-08-23T09:47:53.257Z</time>
      </trkpt>
      <trkpt lat="47.9722758" lon="-2.3863712">
        <ele>33.321</ele>
        <time>2018-08-23T09:47:56.511Z</time>
      </trkpt>
      <trkpt lat="47.9721724" lon="-2.3863728">
        <ele>32.055</ele>
        <time>2018-08-23T09:47:59.486Z</time>
      </trkpt>
      <trkpt lat="47.9720666" lon="-2.3863831">
        <ele>31.426</ele>
        <time>2018-08-23T09:48:02.424Z</time>
      </trkpt>
      <trkpt lat="47.9719592" lon="-2.3863990">
        <ele>31.583</ele>
        <time>2018-08-23T09:48:05.360Z</time>
      </trkpt>
      <trkpt lat="47.9718476" lon="-2.3864128">
        <ele>32.363</ele>
        <time>2018-08-23T09:48:08.371Z</time>
      </trkpt>
      <trkpt lat="47.9717375" lon="-2.3864254">
        <ele>33.392</ele>
        <time>2018-08-23T09:48:11.275Z</time>
      </trkpt>
      <trkpt lat="47.9716272" lon="-2.3864384">
        <ele>34.247</ele>
        <time>2018-08-23T09:48:14.173Z</time>
      </trkpt>
      <trkpt lat="47.9715171" lon="-2.3864526">
        <ele>34.803</ele>
        <time>2018-08-23T09:48:17.025Z</time>
      </trkpt>
      <trkpt lat="47.9714228" lon="-2.3864895">
        <ele>35.516</ele>
        <time>2018-08-23T09:48:19.579Z</time>
      </trkpt>
      <trkpt lat="47.9713220" lon="-2.3865128">
        <ele>36.997</ele>
        <time>2018-08-23T09:48:22.340Z</time>
      </trkpt>
      <trkpt lat="47.9712131" lon="-2.3865241">
        <ele>38.998</ele>
        <time>2018-08-23T09:48:25.273Z</time>
      </trkpt>
      <trkpt lat="47.9711099" lon="-2.3865334">
        <ele>40.636</ele>
        <time>2018-08-23T09:48:28.031Z</time>
      </trkpt>
      <trkpt lat="47.9710145" lon="-2.3865453">
        <ele>41.537</ele>
        <time>2018-08-23T09:48:30.629Z</time>
      </trkpt>
      <trkpt lat="47.9709168" lon="-2.3865712">
        <ele>41.950</ele>
        <time>2018-08-23T09:48:33.384Z</time>
      </trkpt>
      <trkpt lat="47.9708272" lon="-2.3865948">
        <ele>42.183</ele>
        <time>2018-08-23T09:48:35.970Z</time>
      </trkpt>
      <trkpt lat="47.9707350" lon="-2.3865914">
        <ele>42.239</ele>
        <time>2018-08-23T09:48:38.735Z</time>
      </trkpt>
      <trkpt lat="47.9706449" lon="-2.3866225">
        <ele>41.988</ele>
        <time>2018-08-23T09:48:41.794Z</time>
      </trkpt>
      <trkpt lat="47.9705497" lon="-2.3866567">
        <ele>41.525</ele>
        <time>2018-08-23T09:48:46.211Z</time>
      </trkpt>
      <trkpt lat="47.9704535" lon="-2.3867088">
        <ele>40.806</ele>
        <time>2018-08-23T09:48:52.005Z</time>
      </trkpt>
      <trkpt lat="47.9703563" lon="-2.3867570">
        <ele>39.481</ele>
        <time>2018-08-23T09:48:57.876Z</time>
      </trkpt>
      <trkpt lat="47.9702483" lon="-2.3868113">
        <ele>37.639</ele>
        <time>2018-08-23T09:49:02.936Z</time>
      </trkpt>
      <trkpt lat="47.9701606" lon="-2.3868514">
        <ele>35.978</ele>
        <time>2018-08-23T09:49:06.381Z</time>
      </trkpt>
      <trkpt lat="47.9700584" lon="-2.3869173">
        <ele>34.906</ele>
        <time>2018-08-23T09:49:10.286Z</time>
      </trkpt>
      <trkpt lat="47.9699569" lon="-2.3869745">
        <ele>34.370</ele>
        <time>2018-08-23T09:49:13.945Z</time>
      </trkpt>
      <trkpt lat="47.9698556" lon="-2.3870380">
        <ele>34.262</ele>
        <time>2018-08-23T09:49:17.695Z</time>
      </trkpt>
      <trkpt lat="47.9697606" lon="-2.3871154">
        <ele>34.444</ele>
        <time>2018-08-23T09:49:21.394Z</time>
      </trkpt>
      <trkpt lat="47.9696686" lon="-2.3871584">
        <ele>34.733</ele>
        <time>2018-08-23T09:49:24.685Z</time>
      </trkpt>
      <trkpt lat="47.9695650" lon="-2.3872139">
        <ele>34.963</ele>
        <time>2018-08-23T09:49:28.494Z</time>
      </trkpt>
      <trkpt lat="47.9694649" lon="-2.3872623">
        <ele>35.041</ele>
        <time>2018-08-23T09:49:32.215Z</time>
      </trkpt>
      <trkpt lat="47.9693694" lon="-2.3873150">
        <ele>34.935</ele>
        <time>2018-08-23T09:49:35.856Z</time>
      </trkpt>
      <trkpt lat="47.9692724" lon="-2.3873755">
        <ele>34.680</ele>
        <time>2018-08-23T09:49:39.812Z</time>
      </trkpt>
      <trkpt lat="47.9691736" lon="-2.3874552">
        <ele>34.524</ele>
        <time>2018-08-23T09:49:44.747Z</time>
      </trkpt>
      <trkpt lat="47.9690873" lon="-2.3874965">
        <ele>34.628</ele>
        <time>2018-08-23T09:49:48.625Z</time>
      </trkpt>
      <trkpt lat="47.9690053" lon="-2.3875547">
        <ele>34.777</ele>
        <time>2018-08-23T09:49:52.162Z</time>
      </trkpt>
      <trkpt lat="47.9689219" lon="-2.3876194">
        <ele>34.761</ele>
        <time>2018-08-23T09:49:55.702Z</time>
      </trkpt>
      <trkpt lat="47.9688359" lon="-2.3876768">
        <ele>34.874</ele>
        <time>2018-08-23T09:49:59.176Z</time>
      </trkpt>
      <trkpt lat="47.9687246" lon="-2.3877466">
        <ele>35.390</ele>
        <time>2018-08-23T09:50:03.408Z</time>
      </trkpt>
      <trkpt lat="47.9686371" lon="-2.3878088">
        <ele>36.092</ele>
        <time>2018-08-23T09:50:06.561Z</time>
      </trkpt>
      <trkpt lat="47.9685449" lon="-2.3878811">
        <ele>36.770</ele>
        <time>2018-08-23T09:50:09.821Z</time>
      </trkpt>
      <trkpt lat="47.9684492" lon="-2.3879567">
        <ele>37.570</ele>
        <time>2018-08-23T09:50:13.187Z</time>
      </trkpt>
      <trkpt lat="47.9683582" lon="-2.3880179">
        <ele>38.464</ele>
        <time>2018-08-23T09:50:16.444Z</time>
      </trkpt>
      <trkpt lat="47.9682365" lon="-2.3880880">
        <ele>39.118</ele>
        <time>2018-08-23T09:50:20.837Z</time>
      </trkpt>
      <trkpt lat="47.9681332" lon="-2.3881422">
        <ele>38.757</ele>
        <time>2018-08-23T09:50:24.197Z</time>
      </trkpt>
      <trkpt lat="47.9680425" lon="-2.3882019">
        <ele>37.141</ele>
        <time>2018-08-23T09:50:27.115Z</time>
      </trkpt>
      <trkpt lat="47.9679571" lon="-2.3882483">
        <ele>35.334</ele>
        <time>2018-08-23T09:50:29.821Z</time>
      </trkpt>
      <trkpt lat="47.9678624" lon="-2.3883143">
        <ele>34.435</ele>
        <time>2018-08-23T09:50:32.975Z</time>
      </trkpt>
      <trkpt lat="47.9677656" lon="-2.3883773">
        <ele>34.375</ele>
        <time>2018-08-23T09:50:36.186Z</time>
      </trkpt>
      <trkpt lat="47.9676636" lon="-2.3884458">
        <ele>34.630</ele>
        <time>2018-08-23T09:50:39.559Z</time>
      </trkpt>
      <trkpt lat="47.9675624" lon="-2.3885213">
        <ele>34.771</ele>
        <time>2018-08-23T09:50:42.825Z</time>
      </trkpt>
      <trkpt lat="47.9674685" lon="-2.3885919">
        <ele>34.707</ele>
        <time>2018-08-23T09:50:45.752Z</time>
      </trkpt>
      <trkpt lat="47.9673760" lon="-2.3886612">
        <ele>34.763</ele>
        <time>2018-08-23T09:50:48.626Z</time>
      </trkpt>
      <trkpt lat="47.9672848" lon="-2.3887200">
        <ele>35.221</ele>
        <time>2018-08-23T09:50:51.421Z</time>
      </trkpt>
      <trkpt lat="47.9671959" lon="-2.3887790">
        <ele>35.819</ele>
        <time>2018-08-23T09:50:54.166Z</time>
      </trkpt>
      <trkpt lat="47.9670934" lon="-2.3888453">
        <ele>36.083</ele>
        <time>2018-08-23T09:50:57.312Z</time>
      </trkpt>
      <trkpt lat="47.9670027" lon="-2.3889118">
        <ele>35.754</ele>
        <time>2018-08-23T09:51:00.105Z</time>
      </trkpt>
      <trkpt lat="47.9669097" lon="-2.3889717">
        <ele>34.932</ele>
        <time>2018-08-23T09:51:02.795Z</time>
      </trkpt>
      <trkpt lat="47.9668217" lon="-2.3890330">
        <ele>34.088</ele>
        <time>2018-08-23T09:51:05.364Z</time>
      </trkpt>
      <trkpt lat="47.9667364" lon="-2.3890852">
        <ele>33.608</ele>
        <time>2018-08-23T09:51:07.948Z</time>
      </trkpt>
      <trkpt lat="47.9666494" lon="-2.3891441">
        <ele>33.500</ele>
        <time>2018-08-23T09:51:10.691Z</time>
      </trkpt>
      <trkpt lat="47.9665614" lon="-2.3891970">
        <ele>33.580</ele>
        <time>2018-08-23T09:51:13.468Z</time>
      </trkpt>
      <trkpt lat="47.9664603" lon="-2.3892635">
        <ele>33.696</ele>
        <time>2018-08-23T09:51:16.731Z</time>
      </trkpt>
      <trkpt lat="47.9663520" lon="-2.3893203">
        <ele>34.011</ele>
        <time>2018-08-23T09:51:19.976Z</time>
      </trkpt>
      <trkpt lat="47.9662663" lon="-2.3893699">
        <ele>35.126</ele>
        <time>2018-08-23T09:51:22.606Z</time>
      </trkpt>
      <trkpt lat="47.9661777" lon="-2.3894161">
        <ele>37.141</ele>
        <time>2018-08-23T09:51:25.348Z</time>
      </trkpt>
      <trkpt lat="47.9660733" lon="-2.3894742">
        <ele>39.110</ele>
        <time>2018-08-23T09:51:28.655Z</time>
      </trkpt>
      <trkpt lat="47.9659708" lon="-2.3895666">
        <ele>40.173</ele>
        <time>2018-08-23T09:51:32.136Z</time>
      </trkpt>
      <trkpt lat="47.9658808" lon="-2.3896555">
        <ele>40.088</ele>
        <time>2018-08-23T09:51:35.323Z</time>
      </trkpt>
      <trkpt lat="47.9657965" lon="-2.3897257">
        <ele>39.128</ele>
        <time>2018-08-23T09:51:38.257Z</time>
      </trkpt>
      <trkpt lat="47.9657171" lon="-2.3897909">
        <ele>38.415</ele>
        <time>2018-08-23T09:51:40.996Z</time>
      </trkpt>
      <trkpt lat="47.9656401" lon="-2.3898780">
        <ele>38.710</ele>
        <time>2018-08-23T09:51:43.767Z</time>
      </trkpt>
      <trkpt lat="47.9655486" lon="-2.3899906">
        <ele>38.851</ele>
        <time>2018-08-23T09:51:47.275Z</time>
      </trkpt>
      <trkpt lat="47.9654595" lon="-2.3900946">
        <ele>37.550</ele>
        <time>2018-08-23T09:51:51.036Z</time>
      </trkpt>
      <trkpt lat="47.9653609" lon="-2.3901902">
        <ele>35.499</ele>
        <time>2018-08-23T09:51:54.927Z</time>
      </trkpt>
      <trkpt lat="47.9652764" lon="-2.3902905">
        <ele>34.062</ele>
        <time>2018-08-23T09:51:58.104Z</time>
      </trkpt>
      <trkpt lat="47.9652058" lon="-2.3903946">
        <ele>33.532</ele>
        <time>2018-08-23T09:52:00.861Z</time>
      </trkpt>
      <trkpt lat="47.9651345" lon="-2.3904946">
        <ele>33.512</ele>
        <time>2018-08-23T09:52:03.502Z</time>
      </trkpt>
      <trkpt lat="47.9650685" lon="-2.3905990">
        <ele>33.714</ele>
        <time>2018-08-23T09:52:06.084Z</time>
      </trkpt>
      <trkpt lat="47.9650026" lon="-2.3907086">
        <ele>34.269</ele>
        <time>2018-08-23T09:52:08.793Z</time>
      </trkpt>
      <trkpt lat="47.9649370" lon="-2.3908126">
        <ele>35.274</ele>
        <time>2018-08-23T09:52:11.497Z</time>
      </trkpt>
      <trkpt lat="47.9648744" lon="-2.3909231">
        <ele>36.376</ele>
        <time>2018-08-23T09:52:14.250Z</time>
      </trkpt>
      <trkpt lat="47.9648120" lon="-2.3910277">
        <ele>37.139</ele>
        <time>2018-08-23T09:52:16.871Z</time>
      </trkpt>
      <trkpt lat="47.9647508" lon="-2.3911403">
        <ele>37.457</ele>
        <time>2018-08-23T09:52:19.555Z</time>
      </trkpt>
      <trkpt lat="47.9646885" lon="-2.3912563">
        <ele>37.555</ele>
        <time>2018-08-23T09:52:22.335Z</time>
      </trkpt>
      <trkpt lat="47.9646268" lon="-2.3913743">
        <ele>37.709</ele>
        <time>2018-08-23T09:52:25.189Z</time>
      </trkpt>
      <trkpt lat="47.9645675" lon="-2.3914918">
        <ele>37.954</ele>
        <time>2018-08-23T09:52:28.001Z</time>
      </trkpt>
      <trkpt lat="47.9645074" lon="-2.3916073">
        <ele>38.169</ele>
        <time>2018-08-23T09:52:30.770Z</time>
      </trkpt>
      <trkpt lat="47.9644458" lon="-2.3917267">
        <ele>38.248</ele>
        <time>2018-08-23T09:52:33.596Z</time>
      </trkpt>
      <trkpt lat="47.9643898" lon="-2.3918481">
        <ele>38.093</ele>
        <time>2018-08-23T09:52:36.337Z</time>
      </trkpt>
      <trkpt lat="47.9643386" lon="-2.3919644">
        <ele>37.748</ele>
        <time>2018-08-23T09:52:38.917Z</time>
      </trkpt>
      <trkpt lat="47.9642883" lon="-2.3920854">
        <ele>37.426</ele>
        <time>2018-08-23T09:52:41.576Z</time>
      </trkpt>
      <trkpt lat="47.9642412" lon="-2.3922080">
        <ele>37.243</ele>
        <time>2018-08-23T09:52:44.253Z</time>
      </trkpt>
      <trkpt lat="47.9642047" lon="-2.3923356">
        <ele>37.142</ele>
        <time>2018-08-23T09:52:46.921Z</time>
      </trkpt>
      <trkpt lat="47.9641539" lon="-2.3924656">
        <ele>37.088</ele>
        <time>2018-08-23T09:52:49.846Z</time>
      </trkpt>
      <trkpt lat="47.9641141" lon="-2.3926023">
        <ele>37.119</ele>
        <time>2018-08-23T09:52:52.747Z</time>
      </trkpt>
      <trkpt lat="47.9640716" lon="-2.3927323">
        <ele>37.234</ele>
        <time>2018-08-23T09:52:55.587Z</time>
      </trkpt>
      <trkpt lat="47.9640295" lon="-2.3928593">
        <ele>37.310</ele>
        <time>2018-08-23T09:52:58.377Z</time>
      </trkpt>
      <trkpt lat="47.9639880" lon="-2.3929935">
        <ele>37.227</ele>
        <time>2018-08-23T09:53:01.246Z</time>
      </trkpt>
      <trkpt lat="47.9639520" lon="-2.3931267">
        <ele>36.813</ele>
        <time>2018-08-23T09:53:03.983Z</time>
      </trkpt>
      <trkpt lat="47.9639230" lon="-2.3932634">
        <ele>35.966</ele>
        <time>2018-08-23T09:53:06.706Z</time>
      </trkpt>
      <trkpt lat="47.9638840" lon="-2.3934000">
        <ele>35.045</ele>
        <time>2018-08-23T09:53:09.555Z</time>
      </trkpt>
      <trkpt lat="47.9638700" lon="-2.3935419">
        <ele>34.536</ele>
        <time>2018-08-23T09:53:12.320Z</time>
      </trkpt>
      <trkpt lat="47.9638237" lon="-2.3936584">
        <ele>34.679</ele>
        <time>2018-08-23T09:53:14.923Z</time>
      </trkpt>
      <trkpt lat="47.9638169" lon="-2.3938119">
        <ele>35.346</ele>
        <time>2018-08-23T09:53:17.875Z</time>
      </trkpt>
      <trkpt lat="47.9637986" lon="-2.3939582">
        <ele>35.919</ele>
        <time>2018-08-23T09:53:20.821Z</time>
      </trkpt>
      <trkpt lat="47.9637726" lon="-2.3941071">
        <ele>35.983</ele>
        <time>2018-08-23T09:53:24.098Z</time>
      </trkpt>
      <trkpt lat="47.9637309" lon="-2.3942523">
        <ele>35.863</ele>
        <time>2018-08-23T09:53:28.518Z</time>
      </trkpt>
      <trkpt lat="47.9637195" lon="-2.3944029">
        <ele>35.925</ele>
        <time>2018-08-23T09:53:33.526Z</time>
      </trkpt>
      <trkpt lat="47.9637172" lon="-2.3945449">
        <ele>35.985</ele>
        <time>2018-08-23T09:53:38.544Z</time>
      </trkpt>
      <trkpt lat="47.9637041" lon="-2.3947019">
        <ele>35.306</ele>
        <time>2018-08-23T09:53:43.680Z</time>
      </trkpt>
      <trkpt lat="47.9636813" lon="-2.3948645">
        <ele>33.740</ele>
        <time>2018-08-23T09:53:48.237Z</time>
      </trkpt>
      <trkpt lat="47.9636692" lon="-2.3949979">
        <ele>32.256</ele>
        <time>2018-08-23T09:53:51.517Z</time>
      </trkpt>
      <trkpt lat="47.9636543" lon="-2.3951650">
        <ele>31.583</ele>
        <time>2018-08-23T09:53:55.477Z</time>
      </trkpt>
      <trkpt lat="47.9636387" lon="-2.3953105">
        <ele>31.494</ele>
        <time>2018-08-23T09:53:58.907Z</time>
      </trkpt>
      <trkpt lat="47.9636160" lon="-2.3954422">
        <ele>31.677</ele>
        <time>2018-08-23T09:54:02.033Z</time>
      </trkpt>
      <trkpt lat="47.9635828" lon="-2.3955819">
        <ele>32.080</ele>
        <time>2018-08-23T09:54:05.385Z</time>
      </trkpt>
      <trkpt lat="47.9635647" lon="-2.3957234">
        <ele>32.628</ele>
        <time>2018-08-23T09:54:08.590Z</time>
      </trkpt>
      <trkpt lat="47.9635485" lon="-2.3958614">
        <ele>32.758</ele>
        <time>2018-08-23T09:54:11.631Z</time>
      </trkpt>
      <trkpt lat="47.9635330" lon="-2.3960096">
        <ele>32.087</ele>
        <time>2018-08-23T09:54:14.900Z</time>
      </trkpt>
      <trkpt lat="47.9635248" lon="-2.3961546">
        <ele>30.919</ele>
        <time>2018-08-23T09:54:18.398Z</time>
      </trkpt>
      <trkpt lat="47.9635017" lon="-2.3963137">
        <ele>29.761</ele>
        <time>2018-08-23T09:54:23.454Z</time>
      </trkpt>
      <trkpt lat="47.9634831" lon="-2.3964782">
        <ele>28.982</ele>
        <time>2018-08-23T09:54:29.636Z</time>
      </trkpt>
      <trkpt lat="47.9634941" lon="-2.3966408">
        <ele>28.707</ele>
        <time>2018-08-23T09:54:35.800Z</time>
      </trkpt>
      <trkpt lat="47.9634718" lon="-2.3967837">
        <ele>28.530</ele>
        <time>2018-08-23T09:54:41.552Z</time>
      </trkpt>
      <trkpt lat="47.9634537" lon="-2.3969425">
        <ele>28.121</ele>
        <time>2018-08-23T09:54:46.881Z</time>
      </trkpt>
      <trkpt lat="47.9634398" lon="-2.3970870">
        <ele>27.924</ele>
        <time>2018-08-23T09:54:51.141Z</time>
      </trkpt>
      <trkpt lat="47.9634243" lon="-2.3972246">
        <ele>28.520</ele>
        <time>2018-08-23T09:54:54.846Z</time>
      </trkpt>
      <trkpt lat="47.9634086" lon="-2.3973636">
        <ele>29.954</ele>
        <time>2018-08-23T09:54:58.522Z</time>
      </trkpt>
      <trkpt lat="47.9633634" lon="-2.3975027">
        <ele>32.159</ele>
        <time>2018-08-23T09:55:02.882Z</time>
      </trkpt>
      <trkpt lat="47.9633333" lon="-2.3976401">
        <ele>34.772</ele>
        <time>2018-08-23T09:55:07.522Z</time>
      </trkpt>
      <trkpt lat="47.9633302" lon="-2.3977811">
        <ele>37.244</ele>
        <time>2018-08-23T09:55:11.914Z</time>
      </trkpt>
      <trkpt lat="47.9632902" lon="-2.3979161">
        <ele>39.569</ele>
        <time>2018-08-23T09:55:16.129Z</time>
      </trkpt>
      <trkpt lat="47.9632674" lon="-2.3980547">
        <ele>41.626</ele>
        <time>2018-08-23T09:55:20.781Z</time>
      </trkpt>
      <trkpt lat="47.9632482" lon="-2.3982250">
        <ele>42.262</ele>
        <time>2018-08-23T09:55:27.052Z</time>
      </trkpt>
      <trkpt lat="47.9632065" lon="-2.3983499">
        <ele>40.995</ele>
        <time>2018-08-23T09:55:32.467Z</time>
      </trkpt>
      <trkpt lat="47.9631687" lon="-2.3984854">
        <ele>39.217</ele>
        <time>2018-08-23T09:55:38.395Z</time>
      </trkpt>
      <trkpt lat="47.9631408" lon="-2.3986187">
        <ele>38.323</ele>
        <time>2018-08-23T09:55:44.309Z</time>
      </trkpt>
      <trkpt lat="47.9631135" lon="-2.3987662">
        <ele>38.277</ele>
        <time>2018-08-23T09:55:50.216Z</time>
      </trkpt>
      <trkpt lat="47.9630933" lon="-2.3989214">
        <ele>38.392</ele>
        <time>2018-08-23T09:55:55.487Z</time>
      </trkpt>
      <trkpt lat="47.9630632" lon="-2.3990537">
        <ele>38.229</ele>
        <time>2018-08-23T09:56:00.337Z</time>
      </trkpt>
      <trkpt lat="47.9630296" lon="-2.3992204">
        <ele>38.129</ele>
        <time>2018-08-23T09:56:06.729Z</time>
      </trkpt>
      <trkpt lat="47.9629977" lon="-2.3993665">
        <ele>38.830</ele>
        <time>2018-08-23T09:56:13.699Z</time>
      </trkpt>
      <trkpt lat="47.9629659" lon="-2.3995076">
        <ele>40.360</ele>
        <time>2018-08-23T09:56:20.866Z</time>
      </trkpt>
      <trkpt lat="47.9629445" lon="-2.3996422">
        <ele>41.858</ele>
        <time>2018-08-23T09:56:26.141Z</time>
      </trkpt>
      <trkpt lat="47.9629045" lon="-2.3997890">
        <ele>43.018</ele>
        <time>2018-08-23T09:56:31.605Z</time>
      </trkpt>
      <trkpt lat="47.9628599" lon="-2.3999355">
        <ele>44.306</ele>
        <time>2018-08-23T09:56:37.297Z</time>
      </trkpt>
      <trkpt lat="47.9628272" lon="-2.4000921">
        <ele>45.444</ele>
        <time>2018-08-23T09:56:42.632Z</time>
      </trkpt>
      <trkpt lat="47.9627965" lon="-2.4002327">
        <ele>45.512</ele>
        <time>2018-08-23T09:56:47.424Z</time>
      </trkpt>
      <trkpt lat="47.9627491" lon="-2.4003560">
        <ele>44.415</ele>
        <time>2018-08-23T09:56:52.641Z</time>
      </trkpt>
      <trkpt lat="47.9626897" lon="-2.4004825">
        <ele>42.914</ele>
        <time>2018-08-23T09:56:59.545Z</time>
      </trkpt>
      <trkpt lat="47.9626236" lon="-2.4006079">
        <ele>41.248</ele>
        <time>2018-08-23T09:57:04.791Z</time>
      </trkpt>
      <trkpt lat="47.9625722" lon="-2.4007605">
        <ele>39.394</ele>
        <time>2018-08-23T09:57:09.564Z</time>
      </trkpt>
      <trkpt lat="47.9625069" lon="-2.4008682">
        <ele>38.840</ele>
        <time>2018-08-23T09:57:13.481Z</time>
      </trkpt>
      <trkpt lat="47.9624297" lon="-2.4009779">
        <ele>40.535</ele>
        <time>2018-08-23T09:57:18.046Z</time>
      </trkpt>
      <trkpt lat="47.9623738" lon="-2.4011057">
        <ele>42.312</ele>
        <time>2018-08-23T09:57:23.047Z</time>
      </trkpt>
      <trkpt lat="47.9623087" lon="-2.4012371">
        <ele>42.222</ele>
        <time>2018-08-23T09:57:28.500Z</time>
      </trkpt>
      <trkpt lat="47.9622482" lon="-2.4013711">
        <ele>41.139</ele>
        <time>2018-08-23T09:57:33.906Z</time>
      </trkpt>
      <trkpt lat="47.9621935" lon="-2.4014843">
        <ele>40.227</ele>
        <time>2018-08-23T09:57:38.479Z</time>
      </trkpt>
      <trkpt lat="47.9621099" lon="-2.4015887">
        <ele>39.625</ele>
        <time>2018-08-23T09:57:43.075Z</time>
      </trkpt>
      <trkpt lat="47.9620294" lon="-2.4017006">
        <ele>39.690</ele>
        <time>2018-08-23T09:57:47.244Z</time>
      </trkpt>
      <trkpt lat="47.9619546" lon="-2.4018017">
        <ele>40.748</ele>
        <time>2018-08-23T09:57:51.131Z</time>
      </trkpt>
      <trkpt lat="47.9618839" lon="-2.4019086">
        <ele>42.181</ele>
        <time>2018-08-23T09:57:55.305Z</time>
      </trkpt>
      <trkpt lat="47.9618141" lon="-2.4020058">
        <ele>43.198</ele>
        <time>2018-08-23T09:58:00.000Z</time>
      </trkpt>
      <trkpt lat="47.9618141" lon="-2.4020058">
        <ele>43.631</ele>
        <time>2018-08-23T09:58:12.000Z</time>
      </trkpt>
      <trkpt lat="47.9618141" lon="-2.4020058">
        <ele>43.662</ele>
        <time>2018-08-23T10:02:36.831Z</time>
      </trkpt>
      <trkpt lat="47.9616669" lon="-2.4022242">
        <ele>43.585</ele>
        <time>2018-08-23T10:02:57.645Z</time>
      </trkpt>
      <trkpt lat="47.9615936" lon="-2.4023065">
        <ele>43.847</ele>
        <time>2018-08-23T10:03:02.256Z</time>
      </trkpt>
      <trkpt lat="47.9615296" lon="-2.4024143">
        <ele>44.628</ele>
        <time>2018-08-23T10:03:06.811Z</time>
      </trkpt>
      <trkpt lat="47.9614497" lon="-2.4024838">
        <ele>45.454</ele>
        <time>2018-08-23T10:03:11.401Z</time>
      </trkpt>
      <trkpt lat="47.9613641" lon="-2.4025809">
        <ele>45.742</ele>
        <time>2018-08-23T10:03:16.654Z</time>
      </trkpt>
      <trkpt lat="47.9612733" lon="-2.4026786">
        <ele>45.438</ele>
        <time>2018-08-23T10:03:21.042Z</time>
      </trkpt>
      <trkpt lat="47.9611822" lon="-2.4027776">
        <ele>44.817</ele>
        <time>2018-08-23T10:03:24.869Z</time>
      </trkpt>
      <trkpt lat="47.9610839" lon="-2.4028776">
        <ele>44.171</ele>
        <time>2018-08-23T10:03:28.621Z</time>
      </trkpt>
      <trkpt lat="47.9609734" lon="-2.4029580">
        <ele>43.613</ele>
        <time>2018-08-23T10:03:32.590Z</time>
      </trkpt>
      <trkpt lat="47.9608691" lon="-2.4030307">
        <ele>43.142</ele>
        <time>2018-08-23T10:03:36.517Z</time>
      </trkpt>
      <trkpt lat="47.9607718" lon="-2.4031040">
        <ele>42.731</ele>
        <time>2018-08-23T10:03:40.340Z</time>
      </trkpt>
      <trkpt lat="47.9606881" lon="-2.4031552">
        <ele>42.254</ele>
        <time>2018-08-23T10:03:43.487Z</time>
      </trkpt>
      <trkpt lat="47.9606060" lon="-2.4032103">
        <ele>41.689</ele>
        <time>2018-08-23T10:03:46.483Z</time>
      </trkpt>
      <trkpt lat="47.9605102" lon="-2.4032817">
        <ele>41.252</ele>
        <time>2018-08-23T10:03:49.936Z</time>
      </trkpt>
      <trkpt lat="47.9604123" lon="-2.4033224">
        <ele>41.015</ele>
        <time>2018-08-23T10:03:53.053Z</time>
      </trkpt>
      <trkpt lat="47.9603178" lon="-2.4033768">
        <ele>40.627</ele>
        <time>2018-08-23T10:03:55.976Z</time>
      </trkpt>
      <trkpt lat="47.9601979" lon="-2.4034527">
        <ele>39.869</ele>
        <time>2018-08-23T10:03:59.511Z</time>
      </trkpt>
      <trkpt lat="47.9600950" lon="-2.4035197">
        <ele>39.040</ele>
        <time>2018-08-23T10:04:02.366Z</time>
      </trkpt>
      <trkpt lat="47.9599691" lon="-2.4035589">
        <ele>38.541</ele>
        <time>2018-08-23T10:04:05.506Z</time>
      </trkpt>
      <trkpt lat="47.9598454" lon="-2.4035971">
        <ele>38.401</ele>
        <time>2018-08-23T10:04:08.536Z</time>
      </trkpt>
      <trkpt lat="47.9597184" lon="-2.4036665">
        <ele>38.479</ele>
        <time>2018-08-23T10:04:11.781Z</time>
      </trkpt>
      <trkpt lat="47.9595904" lon="-2.4037356">
        <ele>38.655</ele>
        <time>2018-08-23T10:04:15.150Z</time>
      </trkpt>
      <trkpt lat="47.9594631" lon="-2.4037955">
        <ele>38.806</ele>
        <time>2018-08-23T10:04:18.740Z</time>
      </trkpt>
      <trkpt lat="47.9593351" lon="-2.4038493">
        <ele>38.922</ele>
        <time>2018-08-23T10:04:22.262Z</time>
      </trkpt>
      <trkpt lat="47.9592120" lon="-2.4038915">
        <ele>39.003</ele>
        <time>2018-08-23T10:04:25.439Z</time>
      </trkpt>
      <trkpt lat="47.9590950" lon="-2.4039510">
        <ele>38.852</ele>
        <time>2018-08-23T10:04:28.589Z</time>
      </trkpt>
      <trkpt lat="47.9590102" lon="-2.4040193">
        <ele>38.341</ele>
        <time>2018-08-23T10:04:31.235Z</time>
      </trkpt>
      <trkpt lat="47.9589038" lon="-2.4040618">
        <ele>37.708</ele>
        <time>2018-08-23T10:04:34.364Z</time>
      </trkpt>
      <trkpt lat="47.9587944" lon="-2.4041240">
        <ele>37.286</ele>
        <time>2018-08-23T10:04:37.690Z</time>
      </trkpt>
      <trkpt lat="47.9587095" lon="-2.4041998">
        <ele>37.174</ele>
        <time>2018-08-23T10:04:40.386Z</time>
      </trkpt>
      <trkpt lat="47.9586288" lon="-2.4042800">
        <ele>37.321</ele>
        <time>2018-08-23T10:04:43.033Z</time>
      </trkpt>
      <trkpt lat="47.9585251" lon="-2.4043197">
        <ele>37.605</ele>
        <time>2018-08-23T10:04:46.044Z</time>
      </trkpt>
      <trkpt lat="47.9584263" lon="-2.4043465">
        <ele>37.927</ele>
        <time>2018-08-23T10:04:48.877Z</time>
      </trkpt>
      <trkpt lat="47.9583100" lon="-2.4043966">
        <ele>38.131</ele>
        <time>2018-08-23T10:04:52.268Z</time>
      </trkpt>
      <trkpt lat="47.9582034" lon="-2.4044572">
        <ele>38.151</ele>
        <time>2018-08-23T10:04:55.529Z</time>
      </trkpt>
      <trkpt lat="47.9581027" lon="-2.4045183">
        <ele>37.948</ele>
        <time>2018-08-23T10:04:58.732Z</time>
      </trkpt>
      <trkpt lat="47.9579849" lon="-2.4045819">
        <ele>37.480</ele>
        <time>2018-08-23T10:05:02.603Z</time>
      </trkpt>
      <trkpt lat="47.9578749" lon="-2.4046382">
        <ele>36.910</ele>
        <time>2018-08-23T10:05:06.378Z</time>
      </trkpt>
      <trkpt lat="47.9577706" lon="-2.4046878">
        <ele>36.359</ele>
        <time>2018-08-23T10:05:10.034Z</time>
      </trkpt>
      <trkpt lat="47.9576739" lon="-2.4047418">
        <ele>35.612</ele>
        <time>2018-08-23T10:05:13.520Z</time>
      </trkpt>
      <trkpt lat="47.9575802" lon="-2.4047824">
        <ele>34.767</ele>
        <time>2018-08-23T10:05:16.864Z</time>
      </trkpt>
      <trkpt lat="47.9574763" lon="-2.4048430">
        <ele>34.198</ele>
        <time>2018-08-23T10:05:20.789Z</time>
      </trkpt>
      <trkpt lat="47.9573693" lon="-2.4048918">
        <ele>33.970</ele>
        <time>2018-08-23T10:05:24.861Z</time>
      </trkpt>
      <trkpt lat="47.9572643" lon="-2.4049415">
        <ele>33.887</ele>
        <time>2018-08-23T10:05:28.867Z</time>
      </trkpt>
      <trkpt lat="47.9571587" lon="-2.4049932">
        <ele>33.989</ele>
        <time>2018-08-23T10:05:32.816Z</time>
      </trkpt>
      <trkpt lat="47.9570574" lon="-2.4050427">
        <ele>34.409</ele>
        <time>2018-08-23T10:05:36.604Z</time>
      </trkpt>
      <trkpt lat="47.9569622" lon="-2.4050772">
        <ele>34.949</ele>
        <time>2018-08-23T10:05:40.116Z</time>
      </trkpt>
      <trkpt lat="47.9568582" lon="-2.4051218">
        <ele>35.296</ele>
        <time>2018-08-23T10:05:44.076Z</time>
      </trkpt>
      <trkpt lat="47.9567562" lon="-2.4051693">
        <ele>35.576</ele>
        <time>2018-08-23T10:05:47.987Z</time>
      </trkpt>
      <trkpt lat="47.9566562" lon="-2.4052285">
        <ele>36.007</ele>
        <time>2018-08-23T10:05:51.883Z</time>
      </trkpt>
      <trkpt lat="47.9565645" lon="-2.4052755">
        <ele>36.449</ele>
        <time>2018-08-23T10:05:55.493Z</time>
      </trkpt>
      <trkpt lat="47.9564742" lon="-2.4053201">
        <ele>36.696</ele>
        <time>2018-08-23T10:05:58.987Z</time>
      </trkpt>
      <trkpt lat="47.9563755" lon="-2.4053669">
        <ele>36.767</ele>
        <time>2018-08-23T10:06:02.723Z</time>
      </trkpt>
      <trkpt lat="47.9562785" lon="-2.4054239">
        <ele>36.609</ele>
        <time>2018-08-23T10:06:06.507Z</time>
      </trkpt>
      <trkpt lat="47.9561798" lon="-2.4054760">
        <ele>36.217</ele>
        <time>2018-08-23T10:06:10.332Z</time>
      </trkpt>
      <trkpt lat="47.9560778" lon="-2.4055336">
        <ele>36.045</ele>
        <time>2018-08-23T10:06:14.310Z</time>
      </trkpt>
      <trkpt lat="47.9559801" lon="-2.4055681">
        <ele>36.427</ele>
        <time>2018-08-23T10:06:17.968Z</time>
      </trkpt>
      <trkpt lat="47.9558823" lon="-2.4056070">
        <ele>36.832</ele>
        <time>2018-08-23T10:06:21.691Z</time>
      </trkpt>
      <trkpt lat="47.9557862" lon="-2.4056533">
        <ele>36.762</ele>
        <time>2018-08-23T10:06:25.450Z</time>
      </trkpt>
      <trkpt lat="47.9556763" lon="-2.4056939">
        <ele>36.449</ele>
        <time>2018-08-23T10:06:29.661Z</time>
      </trkpt>
      <trkpt lat="47.9555873" lon="-2.4057336">
        <ele>36.114</ele>
        <time>2018-08-23T10:06:32.922Z</time>
      </trkpt>
      <trkpt lat="47.9555003" lon="-2.4057758">
        <ele>35.732</ele>
        <time>2018-08-23T10:06:35.972Z</time>
      </trkpt>
      <trkpt lat="47.9554059" lon="-2.4058223">
        <ele>35.488</ele>
        <time>2018-08-23T10:06:39.318Z</time>
      </trkpt>
      <trkpt lat="47.9552960" lon="-2.4058723">
        <ele>35.539</ele>
        <time>2018-08-23T10:06:43.172Z</time>
      </trkpt>
      <trkpt lat="47.9551932" lon="-2.4059229">
        <ele>35.713</ele>
        <time>2018-08-23T10:06:46.707Z</time>
      </trkpt>
      <trkpt lat="47.9550824" lon="-2.4059758">
        <ele>35.964</ele>
        <time>2018-08-23T10:06:50.425Z</time>
      </trkpt>
      <trkpt lat="47.9549981" lon="-2.4060221">
        <ele>36.399</ele>
        <time>2018-08-23T10:06:53.206Z</time>
      </trkpt>
      <trkpt lat="47.9548884" lon="-2.4060815">
        <ele>36.956</ele>
        <time>2018-08-23T10:06:56.746Z</time>
      </trkpt>
      <trkpt lat="47.9548000" lon="-2.4061345">
        <ele>37.514</ele>
        <time>2018-08-23T10:06:59.627Z</time>
      </trkpt>
      <trkpt lat="47.9547127" lon="-2.4061889">
        <ele>38.089</ele>
        <time>2018-08-23T10:07:02.498Z</time>
      </trkpt>
      <trkpt lat="47.9546067" lon="-2.4062407">
        <ele>38.654</ele>
        <time>2018-08-23T10:07:05.919Z</time>
      </trkpt>
      <trkpt lat="47.9544999" lon="-2.4062903">
        <ele>39.060</ele>
        <time>2018-08-23T10:07:09.330Z</time>
      </trkpt>
      <trkpt lat="47.9543930" lon="-2.4063457">
        <ele>39.194</ele>
        <time>2018-08-23T10:07:12.671Z</time>
      </trkpt>
      <trkpt lat="47.9543071" lon="-2.4063975">
        <ele>39.117</ele>
        <time>2018-08-23T10:07:15.383Z</time>
      </trkpt>
      <trkpt lat="47.9542171" lon="-2.4064457">
        <ele>38.917</ele>
        <time>2018-08-23T10:07:18.111Z</time>
      </trkpt>
      <trkpt lat="47.9541276" lon="-2.4064902">
        <ele>38.670</ele>
        <time>2018-08-23T10:07:20.786Z</time>
      </trkpt>
      <trkpt lat="47.9540248" lon="-2.4065412">
        <ele>38.502</ele>
        <time>2018-08-23T10:07:24.079Z</time>
      </trkpt>
      <trkpt lat="47.9539376" lon="-2.4065861">
        <ele>38.494</ele>
        <time>2018-08-23T10:07:26.881Z</time>
      </trkpt>
      <trkpt lat="47.9538297" lon="-2.4066458">
        <ele>38.668</ele>
        <time>2018-08-23T10:07:30.291Z</time>
      </trkpt>
      <trkpt lat="47.9537087" lon="-2.4067093">
        <ele>39.022</ele>
        <time>2018-08-23T10:07:33.979Z</time>
      </trkpt>
      <trkpt lat="47.9536114" lon="-2.4067666">
        <ele>39.411</ele>
        <time>2018-08-23T10:07:37.044Z</time>
      </trkpt>
      <trkpt lat="47.9535091" lon="-2.4068249">
        <ele>39.587</ele>
        <time>2018-08-23T10:07:40.144Z</time>
      </trkpt>
      <trkpt lat="47.9534078" lon="-2.4068661">
        <ele>39.499</ele>
        <time>2018-08-23T10:07:42.925Z</time>
      </trkpt>
      <trkpt lat="47.9532875" lon="-2.4069040">
        <ele>39.273</ele>
        <time>2018-08-23T10:07:45.986Z</time>
      </trkpt>
      <trkpt lat="47.9531679" lon="-2.4069324">
        <ele>38.905</ele>
        <time>2018-08-23T10:07:48.807Z</time>
      </trkpt>
      <trkpt lat="47.9530803" lon="-2.4069777">
        <ele>38.323</ele>
        <time>2018-08-23T10:07:51.035Z</time>
      </trkpt>
      <trkpt lat="47.9529654" lon="-2.4070121">
        <ele>37.720</ele>
        <time>2018-08-23T10:07:53.930Z</time>
      </trkpt>
      <trkpt lat="47.9528540" lon="-2.4070258">
        <ele>37.431</ele>
        <time>2018-08-23T10:07:56.747Z</time>
      </trkpt>
      <trkpt lat="47.9527495" lon="-2.4070378">
        <ele>37.583</ele>
        <time>2018-08-23T10:07:59.404Z</time>
      </trkpt>
      <trkpt lat="47.9526352" lon="-2.4070663">
        <ele>38.230</ele>
        <time>2018-08-23T10:08:02.346Z</time>
      </trkpt>
      <trkpt lat="47.9525219" lon="-2.4070777">
        <ele>39.220</ele>
        <time>2018-08-23T10:08:05.225Z</time>
      </trkpt>
      <trkpt lat="47.9524146" lon="-2.4070895">
        <ele>40.087</ele>
        <time>2018-08-23T10:08:07.946Z</time>
      </trkpt>
      <trkpt lat="47.9523070" lon="-2.4070930">
        <ele>40.607</ele>
        <time>2018-08-23T10:08:10.695Z</time>
      </trkpt>
      <trkpt lat="47.9522051" lon="-2.4071032">
        <ele>40.921</ele>
        <time>2018-08-23T10:08:13.417Z</time>
      </trkpt>
      <trkpt lat="47.9520998" lon="-2.4071058">
        <ele>41.021</ele>
        <time>2018-08-23T10:08:16.461Z</time>
      </trkpt>
      <trkpt lat="47.9519816" lon="-2.4071055">
        <ele>40.795</ele>
        <time>2018-08-23T10:08:20.369Z</time>
      </trkpt>
      <trkpt lat="47.9518778" lon="-2.4071157">
        <ele>40.289</ele>
        <time>2018-08-23T10:08:24.491Z</time>
      </trkpt>
      <trkpt lat="47.9517693" lon="-2.4071263">
        <ele>39.763</ele>
        <time>2018-08-23T10:08:28.934Z</time>
      </trkpt>
      <trkpt lat="47.9516750" lon="-2.4071204">
        <ele>39.455</ele>
        <time>2018-08-23T10:08:32.880Z</time>
      </trkpt>
      <trkpt lat="47.9515769" lon="-2.4071286">
        <ele>39.368</ele>
        <time>2018-08-23T10:08:37.856Z</time>
      </trkpt>
      <trkpt lat="47.9516195" lon="-2.4069838">
        <ele>39.271</ele>
        <time>2018-08-23T10:08:44.136Z</time>
      </trkpt>
      <trkpt lat="47.9516991" lon="-2.4068868">
        <ele>38.945</ele>
        <time>2018-08-23T10:08:49.534Z</time>
      </trkpt>
      <trkpt lat="47.9517882" lon="-2.4068265">
        <ele>38.497</ele>
        <time>2018-08-23T10:08:53.845Z</time>
      </trkpt>
      <trkpt lat="47.9518464" lon="-2.4069358">
        <ele>38.189</ele>
        <time>2018-08-23T10:08:58.115Z</time>
      </trkpt>
      <trkpt lat="47.9518228" lon="-2.4071131">
        <ele>37.984</ele>
        <time>2018-08-23T10:09:03.328Z</time>
      </trkpt>
      <trkpt lat="47.9517596" lon="-2.4072284">
        <ele>37.470</ele>
        <time>2018-08-23T10:09:07.213Z</time>
      </trkpt>
      <trkpt lat="47.9517194" lon="-2.4073647">
        <ele>36.461</ele>
        <time>2018-08-23T10:09:11.000Z</time>
      </trkpt>
      <trkpt lat="47.9517194" lon="-2.4073647">
        <ele>35.407</ele>
        <time>2018-08-23T10:09:13.000Z</time>
      </trkpt>
      <trkpt lat="47.9517194" lon="-2.4073647">
        <ele>34.877</ele>
        <time>2018-08-23T10:09:13.100Z</time>
      </trkpt>
      <trkpt lat="47.9516931" lon="-2.4077281">
        <ele>34.914</ele>
        <time>2018-08-23T10:09:24.263Z</time>
      </trkpt>
      <trkpt lat="47.9517095" lon="-2.4078648">
        <ele>34.988</ele>
        <time>2018-08-23T10:09:27.000Z</time>
      </trkpt>
      <trkpt lat="47.9517095" lon="-2.4078648">
        <ele>34.706</ele>
        <time>2018-08-23T10:09:44.000Z</time>
      </trkpt>
      <trkpt lat="47.9517095" lon="-2.4078648">
        <ele>34.376</ele>
        <time>2018-08-23T10:09:51.606Z</time>
      </trkpt>
      <trkpt lat="47.9516955" lon="-2.4081648">
        <ele>34.396</ele>
        <time>2018-08-23T10:10:08.867Z</time>
      </trkpt>
      <trkpt lat="47.9516828" lon="-2.4083186">
        <ele>34.618</ele>
        <time>2018-08-23T10:10:13.530Z</time>
      </trkpt>
      <trkpt lat="47.9516699" lon="-2.4084738">
        <ele>34.469</ele>
        <time>2018-08-23T10:10:17.481Z</time>
      </trkpt>
      <trkpt lat="47.9517124" lon="-2.4086068">
        <ele>33.713</ele>
        <time>2018-08-23T10:10:21.000Z</time>
      </trkpt>
      <trkpt lat="47.9517124" lon="-2.4086068">
        <ele>32.857</ele>
        <time>2018-08-23T10:10:31.000Z</time>
      </trkpt>
      <trkpt lat="47.9517124" lon="-2.4086068">
        <ele>32.451</ele>
        <time>2018-08-23T10:15:38.193Z</time>
      </trkpt>
      <trkpt lat="47.9515667" lon="-2.4084107">
        <ele>32.600</ele>
        <time>2018-08-23T10:15:53.789Z</time>
      </trkpt>
      <trkpt lat="47.9515388" lon="-2.4082639">
        <ele>33.252</ele>
        <time>2018-08-23T10:15:59.261Z</time>
      </trkpt>
      <trkpt lat="47.9514550" lon="-2.4081848">
        <ele>34.117</ele>
        <time>2018-08-23T10:16:04.657Z</time>
      </trkpt>
      <trkpt lat="47.9513654" lon="-2.4082531">
        <ele>34.879</ele>
        <time>2018-08-23T10:16:09.734Z</time>
      </trkpt>
      <trkpt lat="47.9512777" lon="-2.4083411">
        <ele>35.480</ele>
        <time>2018-08-23T10:16:14.453Z</time>
      </trkpt>
      <trkpt lat="47.9511794" lon="-2.4084126">
        <ele>35.874</ele>
        <time>2018-08-23T10:16:19.179Z</time>
      </trkpt>
      <trkpt lat="47.9510850" lon="-2.4084529">
        <ele>36.216</ele>
        <time>2018-08-23T10:16:23.563Z</time>
      </trkpt>
      <trkpt lat="47.9509836" lon="-2.4084887">
        <ele>36.976</ele>
        <time>2018-08-23T10:16:28.171Z</time>
      </trkpt>
      <trkpt lat="47.9508816" lon="-2.4085341">
        <ele>38.135</ele>
        <time>2018-08-23T10:16:32.538Z</time>
      </trkpt>
      <trkpt lat="47.9507764" lon="-2.4085675">
        <ele>39.205</ele>
        <time>2018-08-23T10:16:37.193Z</time>
      </trkpt>
      <trkpt lat="47.9506807" lon="-2.4086064">
        <ele>39.905</ele>
        <time>2018-08-23T10:16:41.843Z</time>
      </trkpt>
      <trkpt lat="47.9506056" lon="-2.4087081">
        <ele>40.130</ele>
        <time>2018-08-23T10:16:46.651Z</time>
      </trkpt>
      <trkpt lat="47.9505218" lon="-2.4087939">
        <ele>39.840</ele>
        <time>2018-08-23T10:16:51.435Z</time>
      </trkpt>
      <trkpt lat="47.9504454" lon="-2.4088663">
        <ele>39.183</ele>
        <time>2018-08-23T10:16:55.832Z</time>
      </trkpt>
      <trkpt lat="47.9503642" lon="-2.4089439">
        <ele>38.346</ele>
        <time>2018-08-23T10:17:01.176Z</time>
      </trkpt>
      <trkpt lat="47.9502638" lon="-2.4089648">
        <ele>37.516</ele>
        <time>2018-08-23T10:17:06.993Z</time>
      </trkpt>
      <trkpt lat="47.9501622" lon="-2.4089746">
        <ele>36.699</ele>
        <time>2018-08-23T10:17:12.568Z</time>
      </trkpt>
      <trkpt lat="47.9500719" lon="-2.4090048">
        <ele>35.803</ele>
        <time>2018-08-23T10:17:17.466Z</time>
      </trkpt>
      <trkpt lat="47.9499719" lon="-2.4090388">
        <ele>35.079</ele>
        <time>2018-08-23T10:17:22.686Z</time>
      </trkpt>
      <trkpt lat="47.9498858" lon="-2.4090800">
        <ele>34.897</ele>
        <time>2018-08-23T10:17:26.999Z</time>
      </trkpt>
      <trkpt lat="47.9498858" lon="-2.4090800">
        <ele>35.136</ele>
        <time>2018-08-23T10:17:26.999Z</time>
      </trkpt>
      <trkpt lat="47.9498858" lon="-2.4090800">
        <ele>35.365</ele>
        <time>2018-08-23T10:17:27.099Z</time>
      </trkpt>
      <trkpt lat="47.9497487" lon="-2.4091181">
        <ele>35.318</ele>
        <time>2018-08-23T10:17:35.860Z</time>
      </trkpt>
      <trkpt lat="47.9496577" lon="-2.4091447">
        <ele>35.125</ele>
        <time>2018-08-23T10:17:39.553Z</time>
      </trkpt>
      <trkpt lat="47.9495613" lon="-2.4092128">
        <ele>35.218</ele>
        <time>2018-08-23T10:17:43.660Z</time>
      </trkpt>
      <trkpt lat="47.9494686" lon="-2.4092684">
        <ele>35.743</ele>
        <time>2018-08-23T10:17:47.531Z</time>
      </trkpt>
      <trkpt lat="47.9493749" lon="-2.4093162">
        <ele>36.301</ele>
        <time>2018-08-23T10:17:51.466Z</time>
      </trkpt>
      <trkpt lat="47.9492862" lon="-2.4093763">
        <ele>36.418</ele>
        <time>2018-08-23T10:17:55.410Z</time>
      </trkpt>
      <trkpt lat="47.9492026" lon="-2.4094553">
        <ele>36.080</ele>
        <time>2018-08-23T10:17:59.400Z</time>
      </trkpt>
      <trkpt lat="47.9491202" lon="-2.4095420">
        <ele>35.651</ele>
        <time>2018-08-23T10:18:03.445Z</time>
      </trkpt>
      <trkpt lat="47.9490473" lon="-2.4096366">
        <ele>35.391</ele>
        <time>2018-08-23T10:18:07.210Z</time>
      </trkpt>
      <trkpt lat="47.9489699" lon="-2.4097405">
        <ele>35.253</ele>
        <time>2018-08-23T10:18:11.095Z</time>
      </trkpt>
      <trkpt lat="47.9488972" lon="-2.4098286">
        <ele>35.186</ele>
        <time>2018-08-23T10:18:14.456Z</time>
      </trkpt>
      <trkpt lat="47.9488040" lon="-2.4099216">
        <ele>34.660</ele>
        <time>2018-08-23T10:18:18.393Z</time>
      </trkpt>
      <trkpt lat="47.9487166" lon="-2.4100095">
        <ele>33.283</ele>
        <time>2018-08-23T10:18:22.126Z</time>
      </trkpt>
      <trkpt lat="47.9486354" lon="-2.4101080">
        <ele>31.841</ele>
        <time>2018-08-23T10:18:25.937Z</time>
      </trkpt>
      <trkpt lat="47.9485395" lon="-2.4101808">
        <ele>31.235</ele>
        <time>2018-08-23T10:18:29.922Z</time>
      </trkpt>
      <trkpt lat="47.9484398" lon="-2.4102577">
        <ele>31.605</ele>
        <time>2018-08-23T10:18:34.107Z</time>
      </trkpt>
      <trkpt lat="47.9483436" lon="-2.4103221">
        <ele>33.009</ele>
        <time>2018-08-23T10:18:38.072Z</time>
      </trkpt>
      <trkpt lat="47.9482599" lon="-2.4104309">
        <ele>35.161</ele>
        <time>2018-08-23T10:18:42.377Z</time>
      </trkpt>
      <trkpt lat="47.9481818" lon="-2.4105587">
        <ele>37.169</ele>
        <time>2018-08-23T10:18:46.995Z</time>
      </trkpt>
      <trkpt lat="47.9481091" lon="-2.4106893">
        <ele>38.319</ele>
        <time>2018-08-23T10:18:51.418Z</time>
      </trkpt>
      <trkpt lat="47.9480348" lon="-2.4108273">
        <ele>38.561</ele>
        <time>2018-08-23T10:18:55.930Z</time>
      </trkpt>
      <trkpt lat="47.9479592" lon="-2.4109394">
        <ele>38.272</ele>
        <time>2018-08-23T10:19:00.010Z</time>
      </trkpt>
      <trkpt lat="47.9478815" lon="-2.4110547">
        <ele>37.992</ele>
        <time>2018-08-23T10:19:04.125Z</time>
      </trkpt>
      <trkpt lat="47.9478017" lon="-2.4111580">
        <ele>38.084</ele>
        <time>2018-08-23T10:19:08.010Z</time>
      </trkpt>
      <trkpt lat="47.9477227" lon="-2.4112542">
        <ele>38.371</ele>
        <time>2018-08-23T10:19:11.902Z</time>
      </trkpt>
      <trkpt lat="47.9476382" lon="-2.4113663">
        <ele>38.571</ele>
        <time>2018-08-23T10:19:16.142Z</time>
      </trkpt>
      <trkpt lat="47.9475533" lon="-2.4114637">
        <ele>38.701</ele>
        <time>2018-08-23T10:19:20.034Z</time>
      </trkpt>
      <trkpt lat="47.9474687" lon="-2.4115331">
        <ele>38.834</ele>
        <time>2018-08-23T10:19:23.769Z</time>
      </trkpt>
      <trkpt lat="47.9473774" lon="-2.4116038">
        <ele>38.934</ele>
        <time>2018-08-23T10:19:27.914Z</time>
      </trkpt>
      <trkpt lat="47.9472782" lon="-2.4116335">
        <ele>38.809</ele>
        <time>2018-08-23T10:19:31.913Z</time>
      </trkpt>
      <trkpt lat="47.9471686" lon="-2.4116601">
        <ele>37.947</ele>
        <time>2018-08-23T10:19:36.228Z</time>
      </trkpt>
      <trkpt lat="47.9470680" lon="-2.4116948">
        <ele>36.255</ele>
        <time>2018-08-23T10:19:40.301Z</time>
      </trkpt>
      <trkpt lat="47.9469770" lon="-2.4117201">
        <ele>34.556</ele>
        <time>2018-08-23T10:19:44.083Z</time>
      </trkpt>
      <trkpt lat="47.9468775" lon="-2.4117727">
        <ele>33.733</ele>
        <time>2018-08-23T10:19:48.746Z</time>
      </trkpt>
      <trkpt lat="47.9467744" lon="-2.4118107">
        <ele>34.279</ele>
        <time>2018-08-23T10:19:53.643Z</time>
      </trkpt>
      <trkpt lat="47.9466826" lon="-2.4118471">
        <ele>36.421</ele>
        <time>2018-08-23T10:19:57.705Z</time>
      </trkpt>
      <trkpt lat="47.9465819" lon="-2.4118776">
        <ele>39.447</ele>
        <time>2018-08-23T10:20:01.950Z</time>
      </trkpt>
      <trkpt lat="47.9464856" lon="-2.4118980">
        <ele>41.987</ele>
        <time>2018-08-23T10:20:05.910Z</time>
      </trkpt>
      <trkpt lat="47.9463833" lon="-2.4119112">
        <ele>43.339</ele>
        <time>2018-08-23T10:20:09.954Z</time>
      </trkpt>
      <trkpt lat="47.9462769" lon="-2.4119667">
        <ele>43.596</ele>
        <time>2018-08-23T10:20:14.239Z</time>
      </trkpt>
      <trkpt lat="47.9461672" lon="-2.4120266">
        <ele>43.093</ele>
        <time>2018-08-23T10:20:18.578Z</time>
      </trkpt>
      <trkpt lat="47.9460572" lon="-2.4120754">
        <ele>41.972</ele>
        <time>2018-08-23T10:20:22.715Z</time>
      </trkpt>
      <trkpt lat="47.9459544" lon="-2.4121322">
        <ele>40.293</ele>
        <time>2018-08-23T10:20:26.616Z</time>
      </trkpt>
      <trkpt lat="47.9458724" lon="-2.4122066">
        <ele>38.640</ele>
        <time>2018-08-23T10:20:30.124Z</time>
      </trkpt>
      <trkpt lat="47.9457768" lon="-2.4122383">
        <ele>37.778</ele>
        <time>2018-08-23T10:20:34.000Z</time>
      </trkpt>
      <trkpt lat="47.9456709" lon="-2.4122575">
        <ele>37.876</ele>
        <time>2018-08-23T10:20:38.577Z</time>
      </trkpt>
      <trkpt lat="47.9455693" lon="-2.4122898">
        <ele>38.511</ele>
        <time>2018-08-23T10:20:42.886Z</time>
      </trkpt>
      <trkpt lat="47.9454656" lon="-2.4123222">
        <ele>39.005</ele>
        <time>2018-08-23T10:20:46.927Z</time>
      </trkpt>
      <trkpt lat="47.9453629" lon="-2.4123853">
        <ele>38.925</ele>
        <time>2018-08-23T10:20:51.000Z</time>
      </trkpt>
      <trkpt lat="47.9453629" lon="-2.4123853">
        <ele>38.424</ele>
        <time>2018-08-23T10:20:53.000Z</time>
      </trkpt>
      <trkpt lat="47.9453629" lon="-2.4123853">
        <ele>38.032</ele>
        <time>2018-08-23T10:20:53.100Z</time>
      </trkpt>
      <trkpt lat="47.9451658" lon="-2.4124793">
        <ele>38.027</ele>
        <time>2018-08-23T10:21:03.157Z</time>
      </trkpt>
      <trkpt lat="47.9450611" lon="-2.4125129">
        <ele>37.747</ele>
        <time>2018-08-23T10:21:06.780Z</time>
      </trkpt>
      <trkpt lat="47.9449557" lon="-2.4125522">
        <ele>36.578</ele>
        <time>2018-08-23T10:21:10.500Z</time>
      </trkpt>
      <trkpt lat="47.9448497" lon="-2.4125927">
        <ele>35.136</ele>
        <time>2018-08-23T10:21:14.320Z</time>
      </trkpt>
      <trkpt lat="47.9447474" lon="-2.4126284">
        <ele>34.293</ele>
        <time>2018-08-23T10:21:18.067Z</time>
      </trkpt>
      <trkpt lat="47.9446584" lon="-2.4126631">
        <ele>34.203</ele>
        <time>2018-08-23T10:21:21.300Z</time>
      </trkpt>
      <trkpt lat="47.9445621" lon="-2.4126982">
        <ele>34.640</ele>
        <time>2018-08-23T10:21:24.682Z</time>
      </trkpt>
      <trkpt lat="47.9444521" lon="-2.4127263">
        <ele>35.161</ele>
        <time>2018-08-23T10:21:28.354Z</time>
      </trkpt>
      <trkpt lat="47.9443401" lon="-2.4127708">
        <ele>35.437</ele>
        <time>2018-08-23T10:21:32.087Z</time>
      </trkpt>
      <trkpt lat="47.9442290" lon="-2.4128075">
        <ele>35.292</ele>
        <time>2018-08-23T10:21:35.749Z</time>
      </trkpt>
      <trkpt lat="47.9441193" lon="-2.4128471">
        <ele>34.741</ele>
        <time>2018-08-23T10:21:39.376Z</time>
      </trkpt>
      <trkpt lat="47.9440068" lon="-2.4128811">
        <ele>34.266</ele>
        <time>2018-08-23T10:21:43.000Z</time>
      </trkpt>
      <trkpt lat="47.9440068" lon="-2.4128811">
        <ele>34.239</ele>
        <time>2018-08-23T10:21:44.000Z</time>
      </trkpt>
      <trkpt lat="47.9440068" lon="-2.4128811">
        <ele>34.389</ele>
        <time>2018-08-23T10:21:44.100Z</time>
      </trkpt>
      <trkpt lat="47.9438346" lon="-2.4129270">
        <ele>34.403</ele>
        <time>2018-08-23T10:21:53.643Z</time>
      </trkpt>
      <trkpt lat="47.9437251" lon="-2.4129512">
        <ele>34.714</ele>
        <time>2018-08-23T10:21:57.569Z</time>
      </trkpt>
      <trkpt lat="47.9436309" lon="-2.4129612">
        <ele>35.686</ele>
        <time>2018-08-23T10:22:01.081Z</time>
      </trkpt>
      <trkpt lat="47.9435363" lon="-2.4129622">
        <ele>36.470</ele>
        <time>2018-08-23T10:22:04.709Z</time>
      </trkpt>
      <trkpt lat="47.9434313" lon="-2.4129621">
        <ele>36.299</ele>
        <time>2018-08-23T10:22:08.761Z</time>
      </trkpt>
      <trkpt lat="47.9433295" lon="-2.4129429">
        <ele>35.687</ele>
        <time>2018-08-23T10:22:12.626Z</time>
      </trkpt>
      <trkpt lat="47.9432294" lon="-2.4129282">
        <ele>35.427</ele>
        <time>2018-08-23T10:22:16.279Z</time>
      </trkpt>
      <trkpt lat="47.9431298" lon="-2.4129056">
        <ele>35.705</ele>
        <time>2018-08-23T10:22:19.889Z</time>
      </trkpt>
      <trkpt lat="47.9430412" lon="-2.4128556">
        <ele>36.248</ele>
        <time>2018-08-23T10:22:23.398Z</time>
      </trkpt>
      <trkpt lat="47.9429461" lon="-2.4128199">
        <ele>36.786</ele>
        <time>2018-08-23T10:22:27.343Z</time>
      </trkpt>
      <trkpt lat="47.9428556" lon="-2.4127722">
        <ele>37.211</ele>
        <time>2018-08-23T10:22:31.310Z</time>
      </trkpt>
      <trkpt lat="47.9427707" lon="-2.4126902">
        <ele>37.310</ele>
        <time>2018-08-23T10:22:35.390Z</time>
      </trkpt>
      <trkpt lat="47.9427024" lon="-2.4125877">
        <ele>36.925</ele>
        <time>2018-08-23T10:22:39.299Z</time>
      </trkpt>
      <trkpt lat="47.9426347" lon="-2.4124862">
        <ele>36.244</ele>
        <time>2018-08-23T10:22:43.312Z</time>
      </trkpt>
      <trkpt lat="47.9425609" lon="-2.4124071">
        <ele>35.665</ele>
        <time>2018-08-23T10:22:47.338Z</time>
      </trkpt>
      <trkpt lat="47.9425137" lon="-2.4122825">
        <ele>35.364</ele>
        <time>2018-08-23T10:22:52.000Z</time>
      </trkpt>
      <trkpt lat="47.9425137" lon="-2.4122825">
        <ele>35.264</ele>
        <time>2018-08-23T10:23:01.000Z</time>
      </trkpt>
      <trkpt lat="47.9425137" lon="-2.4122825">
        <ele>35.256</ele>
        <time>2018-08-23T10:23:15.000Z</time>
      </trkpt>
      <trkpt lat="47.9425137" lon="-2.4122825">
        <ele>35.265</ele>
        <time>2018-08-23T10:24:22.000Z</time>
      </trkpt>
      <trkpt lat="47.9425137" lon="-2.4122825">
        <ele>35.254</ele>
        <time>2018-08-23T10:24:37.590Z</time>
      </trkpt>
      <trkpt lat="47.9424789" lon="-2.4119384">
        <ele>35.234</ele>
        <time>2018-08-23T10:25:03.427Z</time>
      </trkpt>
      <trkpt lat="47.9424674" lon="-2.4118019">
        <ele>35.371</ele>
        <time>2018-08-23T10:25:09.494Z</time>
      </trkpt>
      <trkpt lat="47.9423776" lon="-2.4117574">
        <ele>35.860</ele>
        <time>2018-08-23T10:25:14.799Z</time>
      </trkpt>
      <trkpt lat="47.9422892" lon="-2.4118038">
        <ele>36.618</ele>
        <time>2018-08-23T10:25:19.491Z</time>
      </trkpt>
      <trkpt lat="47.9422047" lon="-2.4118739">
        <ele>37.349</ele>
        <time>2018-08-23T10:25:24.106Z</time>
      </trkpt>
      <trkpt lat="47.9421167" lon="-2.4119335">
        <ele>37.896</ele>
        <time>2018-08-23T10:25:28.739Z</time>
      </trkpt>
      <trkpt lat="47.9420137" lon="-2.4119812">
        <ele>38.350</ele>
        <time>2018-08-23T10:25:33.665Z</time>
      </trkpt>
      <trkpt lat="47.9419239" lon="-2.4120077">
        <ele>38.965</ele>
        <time>2018-08-23T10:25:37.325Z</time>
      </trkpt>
      <trkpt lat="47.9418224" lon="-2.4120061">
        <ele>39.728</ele>
        <time>2018-08-23T10:25:41.169Z</time>
      </trkpt>
      <trkpt lat="47.9417306" lon="-2.4120136">
        <ele>40.131</ele>
        <time>2018-08-23T10:25:45.012Z</time>
      </trkpt>
      <trkpt lat="47.9416318" lon="-2.4120160">
        <ele>39.846</ele>
        <time>2018-08-23T10:25:49.488Z</time>
      </trkpt>
      <trkpt lat="47.9415336" lon="-2.4120008">
        <ele>39.111</ele>
        <time>2018-08-23T10:25:54.565Z</time>
      </trkpt>
      <trkpt lat="47.9414368" lon="-2.4119770">
        <ele>38.340</ele>
        <time>2018-08-23T10:25:59.916Z</time>
      </trkpt>
      <trkpt lat="47.9413408" lon="-2.4119716">
        <ele>37.874</ele>
        <time>2018-08-23T10:26:05.967Z</time>
      </trkpt>
      <trkpt lat="47.9412485" lon="-2.4119607">
        <ele>37.889</ele>
        <time>2018-08-23T10:26:11.999Z</time>
      </trkpt>
      <trkpt lat="47.9412485" lon="-2.4119607">
        <ele>38.216</ele>
        <time>2018-08-23T10:26:11.999Z</time>
      </trkpt>
      <trkpt lat="47.9412485" lon="-2.4119607">
        <ele>38.472</ele>
        <time>2018-08-23T10:26:12.099Z</time>
      </trkpt>
      <trkpt lat="47.9410948" lon="-2.4118579">
        <ele>38.451</ele>
        <time>2018-08-23T10:26:23.069Z</time>
      </trkpt>
      <trkpt lat="47.9410033" lon="-2.4117623">
        <ele>38.876</ele>
        <time>2018-08-23T10:26:27.090Z</time>
      </trkpt>
      <trkpt lat="47.9409271" lon="-2.4116846">
        <ele>40.395</ele>
        <time>2018-08-23T10:26:30.023Z</time>
      </trkpt>
      <trkpt lat="47.9408420" lon="-2.4116077">
        <ele>42.277</ele>
        <time>2018-08-23T10:26:33.022Z</time>
      </trkpt>
      <trkpt lat="47.9407590" lon="-2.4115278">
        <ele>43.547</ele>
        <time>2018-08-23T10:26:35.980Z</time>
      </trkpt>
      <trkpt lat="47.9406862" lon="-2.4114371">
        <ele>44.132</ele>
        <time>2018-08-23T10:26:38.886Z</time>
      </trkpt>
      <trkpt lat="47.9406147" lon="-2.4113518">
        <ele>44.286</ele>
        <time>2018-08-23T10:26:41.796Z</time>
      </trkpt>
      <trkpt lat="47.9405223" lon="-2.4112497">
        <ele>44.249</ele>
        <time>2018-08-23T10:26:45.551Z</time>
      </trkpt>
      <trkpt lat="47.9404440" lon="-2.4111403">
        <ele>44.215</ele>
        <time>2018-08-23T10:26:49.107Z</time>
      </trkpt>
      <trkpt lat="47.9403682" lon="-2.4110213">
        <ele>44.309</ele>
        <time>2018-08-23T10:26:52.779Z</time>
      </trkpt>
      <trkpt lat="47.9402958" lon="-2.4108959">
        <ele>44.523</ele>
        <time>2018-08-23T10:26:56.677Z</time>
      </trkpt>
      <trkpt lat="47.9402243" lon="-2.4107732">
        <ele>44.774</ele>
        <time>2018-08-23T10:27:00.888Z</time>
      </trkpt>
      <trkpt lat="47.9401532" lon="-2.4106724">
        <ele>45.475</ele>
        <time>2018-08-23T10:27:05.276Z</time>
      </trkpt>
      <trkpt lat="47.9401331" lon="-2.4105237">
        <ele>46.854</ele>
        <time>2018-08-23T10:27:10.807Z</time>
      </trkpt>
      <trkpt lat="47.9401312" lon="-2.4103631">
        <ele>47.543</ele>
        <time>2018-08-23T10:27:16.690Z</time>
      </trkpt>
      <trkpt lat="47.9400785" lon="-2.4102469">
        <ele>45.879</ele>
        <time>2018-08-23T10:27:21.340Z</time>
      </trkpt>
      <trkpt lat="47.9400424" lon="-2.4100896">
        <ele>42.607</ele>
        <time>2018-08-23T10:27:26.494Z</time>
      </trkpt>
      <trkpt lat="47.9400125" lon="-2.4099445">
        <ele>39.917</ele>
        <time>2018-08-23T10:27:30.896Z</time>
      </trkpt>
      <trkpt lat="47.9399997" lon="-2.4097984">
        <ele>38.784</ele>
        <time>2018-08-23T10:27:35.325Z</time>
      </trkpt>
      <trkpt lat="47.9399633" lon="-2.4096450">
        <ele>38.797</ele>
        <time>2018-08-23T10:27:40.260Z</time>
      </trkpt>
      <trkpt lat="47.9399313" lon="-2.4095009">
        <ele>39.343</ele>
        <time>2018-08-23T10:27:44.634Z</time>
      </trkpt>
      <trkpt lat="47.9399077" lon="-2.4093545">
        <ele>39.908</ele>
        <time>2018-08-23T10:27:48.795Z</time>
      </trkpt>
      <trkpt lat="47.9398900" lon="-2.4092085">
        <ele>39.833</ele>
        <time>2018-08-23T10:27:52.893Z</time>
      </trkpt>
      <trkpt lat="47.9398734" lon="-2.4090705">
        <ele>38.901</ele>
        <time>2018-08-23T10:27:56.848Z</time>
      </trkpt>
      <trkpt lat="47.9398360" lon="-2.4089270">
        <ele>37.822</ele>
        <time>2018-08-23T10:28:01.178Z</time>
      </trkpt>
      <trkpt lat="47.9397978" lon="-2.4088042">
        <ele>37.432</ele>
        <time>2018-08-23T10:28:05.257Z</time>
      </trkpt>
      <trkpt lat="47.9397691" lon="-2.4086549">
        <ele>37.844</ele>
        <time>2018-08-23T10:28:10.127Z</time>
      </trkpt>
      <trkpt lat="47.9397271" lon="-2.4085038">
        <ele>38.702</ele>
        <time>2018-08-23T10:28:15.704Z</time>
      </trkpt>
      <trkpt lat="47.9397238" lon="-2.4083188">
        <ele>39.515</ele>
        <time>2018-08-23T10:28:22.258Z</time>
      </trkpt>
      <trkpt lat="47.9397087" lon="-2.4081742">
        <ele>39.683</ele>
        <time>2018-08-23T10:28:27.114Z</time>
      </trkpt>
      <trkpt lat="47.9396929" lon="-2.4080042">
        <ele>38.997</ele>
        <time>2018-08-23T10:28:31.935Z</time>
      </trkpt>
      <trkpt lat="47.9396765" lon="-2.4078485">
        <ele>38.099</ele>
        <time>2018-08-23T10:28:36.232Z</time>
      </trkpt>
      <trkpt lat="47.9396605" lon="-2.4077008">
        <ele>37.629</ele>
        <time>2018-08-23T10:28:40.257Z</time>
      </trkpt>
      <trkpt lat="47.9396256" lon="-2.4075538">
        <ele>37.752</ele>
        <time>2018-08-23T10:28:44.758Z</time>
      </trkpt>
      <trkpt lat="47.9395518" lon="-2.4074487">
        <ele>38.329</ele>
        <time>2018-08-23T10:28:49.839Z</time>
      </trkpt>
      <trkpt lat="47.9395601" lon="-2.4073082">
        <ele>38.700</ele>
        <time>2018-08-23T10:28:54.860Z</time>
      </trkpt>
      <trkpt lat="47.9396013" lon="-2.4071580">
        <ele>38.366</ele>
        <time>2018-08-23T10:28:59.922Z</time>
      </trkpt>
      <trkpt lat="47.9396022" lon="-2.4070052">
        <ele>37.527</ele>
        <time>2018-08-23T10:29:03.999Z</time>
      </trkpt>
      <trkpt lat="47.9396022" lon="-2.4070052">
        <ele>36.794</ele>
        <time>2018-08-23T10:29:05.999Z</time>
      </trkpt>
      <trkpt lat="47.9396022" lon="-2.4070052">
        <ele>36.559</ele>
        <time>2018-08-23T10:29:06.099Z</time>
      </trkpt>
      <trkpt lat="47.9394604" lon="-2.4067496">
        <ele>36.748</ele>
        <time>2018-08-23T10:29:25.129Z</time>
      </trkpt>
      <trkpt lat="47.9393587" lon="-2.4067309">
        <ele>37.838</ele>
        <time>2018-08-23T10:29:29.302Z</time>
      </trkpt>
      <trkpt lat="47.9392441" lon="-2.4067072">
        <ele>40.108</ele>
        <time>2018-08-23T10:29:33.951Z</time>
      </trkpt>
      <trkpt lat="47.9391395" lon="-2.4066918">
        <ele>42.559</ele>
        <time>2018-08-23T10:29:38.392Z</time>
      </trkpt>
      <trkpt lat="47.9390377" lon="-2.4066680">
        <ele>44.351</ele>
        <time>2018-08-23T10:29:43.277Z</time>
      </trkpt>
      <trkpt lat="47.9389540" lon="-2.4066045">
        <ele>45.408</ele>
        <time>2018-08-23T10:29:47.678Z</time>
      </trkpt>
      <trkpt lat="47.9388750" lon="-2.4064831">
        <ele>45.704</ele>
        <time>2018-08-23T10:29:52.270Z</time>
      </trkpt>
      <trkpt lat="47.9387757" lon="-2.4065125">
        <ele>45.511</ele>
        <time>2018-08-23T10:29:56.240Z</time>
      </trkpt>
      <trkpt lat="47.9386773" lon="-2.4064878">
        <ele>45.283</ele>
        <time>2018-08-23T10:30:00.290Z</time>
      </trkpt>
      <trkpt lat="47.9385774" lon="-2.4064566">
        <ele>45.284</ele>
        <time>2018-08-23T10:30:04.478Z</time>
      </trkpt>
      <trkpt lat="47.9384847" lon="-2.4064317">
        <ele>45.413</ele>
        <time>2018-08-23T10:30:08.502Z</time>
      </trkpt>
      <trkpt lat="47.9383909" lon="-2.4064457">
        <ele>45.567</ele>
        <time>2018-08-23T10:30:12.999Z</time>
      </trkpt>
      <trkpt lat="47.9383909" lon="-2.4064457">
        <ele>45.750</ele>
        <time>2018-08-23T10:30:21.999Z</time>
      </trkpt>
      <trkpt lat="47.9383909" lon="-2.4064457">
        <ele>45.868</ele>
        <time>2018-08-23T10:30:22.099Z</time>
      </trkpt>
      <trkpt lat="47.9383909" lon="-2.4064457">
        <ele>45.759</ele>
        <time>2018-08-23T10:31:39.999Z</time>
      </trkpt>
      <trkpt lat="47.9383736" lon="-2.4065003">
        <ele>46.863</ele>
        <time>2018-08-23T11:03:02.000Z</time>
      </trkpt>
      <trkpt lat="47.9383736" lon="-2.4065003">
        <ele>46.989</ele>
        <time>2018-08-23T11:03:02.001Z</time>
      </trkpt>
      <trkpt lat="47.9383736" lon="-2.4065003">
        <ele>47.338</ele>
        <time>2018-08-23T11:08:50.000Z</time>
      </trkpt>
      <trkpt lat="47.9383736" lon="-2.4065003">
        <ele>47.623</ele>
        <time>2018-08-23T11:08:57.459Z</time>
      </trkpt>
      <trkpt lat="47.9385815" lon="-2.4065648">
        <ele>47.598</ele>
        <time>2018-08-23T11:09:11.426Z</time>
      </trkpt>
      <trkpt lat="47.9386853" lon="-2.4065723">
        <ele>48.983</ele>
        <time>2018-08-23T11:09:14.926Z</time>
      </trkpt>
      <trkpt lat="47.9387768" lon="-2.4065861">
        <ele>52.922</ele>
        <time>2018-08-23T11:09:17.853Z</time>
      </trkpt>
      <trkpt lat="47.9388704" lon="-2.4066086">
        <ele>56.809</ele>
        <time>2018-08-23T11:09:20.797Z</time>
      </trkpt>
      <trkpt lat="47.9389641" lon="-2.4066241">
        <ele>58.120</ele>
        <time>2018-08-23T11:09:23.754Z</time>
      </trkpt>
      <trkpt lat="47.9390535" lon="-2.4066415">
        <ele>57.291</ele>
        <time>2018-08-23T11:09:26.535Z</time>
      </trkpt>
      <trkpt lat="47.9391477" lon="-2.4066712">
        <ele>55.545</ele>
        <time>2018-08-23T11:09:29.385Z</time>
      </trkpt>
      <trkpt lat="47.9392490" lon="-2.4066805">
        <ele>53.973</ele>
        <time>2018-08-23T11:09:32.394Z</time>
      </trkpt>
      <trkpt lat="47.9393447" lon="-2.4066422">
        <ele>52.872</ele>
        <time>2018-08-23T11:09:35.553Z</time>
      </trkpt>
      <trkpt lat="47.9394518" lon="-2.4066389">
        <ele>51.732</ele>
        <time>2018-08-23T11:09:39.293Z</time>
      </trkpt>
      <trkpt lat="47.9395052" lon="-2.4067720">
        <ele>50.374</ele>
        <time>2018-08-23T11:09:42.833Z</time>
      </trkpt>
      <trkpt lat="47.9395830" lon="-2.4069001">
        <ele>49.184</ele>
        <time>2018-08-23T11:09:46.464Z</time>
      </trkpt>
      <trkpt lat="47.9396258" lon="-2.4070595">
        <ele>48.554</ele>
        <time>2018-08-23T11:09:49.913Z</time>
      </trkpt>
      <trkpt lat="47.9396013" lon="-2.4072271">
        <ele>48.263</ele>
        <time>2018-08-23T11:09:53.310Z</time>
      </trkpt>
      <trkpt lat="47.9395757" lon="-2.4073683">
        <ele>47.925</ele>
        <time>2018-08-23T11:09:56.233Z</time>
      </trkpt>
      <trkpt lat="47.9396400" lon="-2.4075128">
        <ele>47.570</ele>
        <time>2018-08-23T11:09:59.789Z</time>
      </trkpt>
      <trkpt lat="47.9396847" lon="-2.4076552">
        <ele>47.126</ele>
        <time>2018-08-23T11:10:03.179Z</time>
      </trkpt>
      <trkpt lat="47.9396911" lon="-2.4077891">
        <ele>46.248</ele>
        <time>2018-08-23T11:10:05.999Z</time>
      </trkpt>
      <trkpt lat="47.9396911" lon="-2.4077891">
        <ele>45.147</ele>
        <time>2018-08-23T11:10:08.000Z</time>
      </trkpt>
      <trkpt lat="47.9396911" lon="-2.4077891">
        <ele>44.505</ele>
        <time>2018-08-23T11:10:08.100Z</time>
      </trkpt>
      <trkpt lat="47.9397194" lon="-2.4080979">
        <ele>44.644</ele>
        <time>2018-08-23T11:10:19.042Z</time>
      </trkpt>
      <trkpt lat="47.9397442" lon="-2.4082531">
        <ele>45.245</ele>
        <time>2018-08-23T11:10:23.360Z</time>
      </trkpt>
      <trkpt lat="47.9397616" lon="-2.4084082">
        <ele>45.792</ele>
        <time>2018-08-23T11:10:27.260Z</time>
      </trkpt>
      <trkpt lat="47.9397805" lon="-2.4085755">
        <ele>46.075</ele>
        <time>2018-08-23T11:10:31.084Z</time>
      </trkpt>
      <trkpt lat="47.9397758" lon="-2.4087462">
        <ele>46.211</ele>
        <time>2018-08-23T11:10:34.839Z</time>
      </trkpt>
      <trkpt lat="47.9398007" lon="-2.4088845">
        <ele>46.289</ele>
        <time>2018-08-23T11:10:38.009Z</time>
      </trkpt>
      <trkpt lat="47.9398458" lon="-2.4090492">
        <ele>46.276</ele>
        <time>2018-08-23T11:10:41.746Z</time>
      </trkpt>
      <trkpt lat="47.9398785" lon="-2.4091781">
        <ele>45.967</ele>
        <time>2018-08-23T11:10:44.434Z</time>
      </trkpt>
      <trkpt lat="47.9399175" lon="-2.4093237">
        <ele>45.136</ele>
        <time>2018-08-23T11:10:47.305Z</time>
      </trkpt>
      <trkpt lat="47.9399447" lon="-2.4094763">
        <ele>43.954</ele>
        <time>2018-08-23T11:10:50.140Z</time>
      </trkpt>
      <trkpt lat="47.9399661" lon="-2.4096273">
        <ele>42.960</ele>
        <time>2018-08-23T11:10:52.915Z</time>
      </trkpt>
      <trkpt lat="47.9399898" lon="-2.4097730">
        <ele>42.499</ele>
        <time>2018-08-23T11:10:55.646Z</time>
      </trkpt>
      <trkpt lat="47.9400160" lon="-2.4099117">
        <ele>42.510</ele>
        <time>2018-08-23T11:10:58.321Z</time>
      </trkpt>
      <trkpt lat="47.9400517" lon="-2.4100457">
        <ele>42.679</ele>
        <time>2018-08-23T11:11:01.046Z</time>
      </trkpt>
      <trkpt lat="47.9400954" lon="-2.4101754">
        <ele>42.748</ele>
        <time>2018-08-23T11:11:03.906Z</time>
      </trkpt>
      <trkpt lat="47.9401584" lon="-2.4103214">
        <ele>42.624</ele>
        <time>2018-08-23T11:11:07.516Z</time>
      </trkpt>
      <trkpt lat="47.9401970" lon="-2.4104625">
        <ele>42.357</ele>
        <time>2018-08-23T11:11:10.888Z</time>
      </trkpt>
      <trkpt lat="47.9402550" lon="-2.4105893">
        <ele>42.068</ele>
        <time>2018-08-23T11:11:14.393Z</time>
      </trkpt>
      <trkpt lat="47.9403260" lon="-2.4107366">
        <ele>41.876</ele>
        <time>2018-08-23T11:11:18.367Z</time>
      </trkpt>
      <trkpt lat="47.9403857" lon="-2.4108517">
        <ele>41.810</ele>
        <time>2018-08-23T11:11:21.381Z</time>
      </trkpt>
      <trkpt lat="47.9404410" lon="-2.4109605">
        <ele>41.862</ele>
        <time>2018-08-23T11:11:24.301Z</time>
      </trkpt>
      <trkpt lat="47.9405182" lon="-2.4110760">
        <ele>42.112</ele>
        <time>2018-08-23T11:11:28.054Z</time>
      </trkpt>
      <trkpt lat="47.9406004" lon="-2.4111912">
        <ele>42.896</ele>
        <time>2018-08-23T11:11:32.192Z</time>
      </trkpt>
      <trkpt lat="47.9406678" lon="-2.4112931">
        <ele>44.200</ele>
        <time>2018-08-23T11:11:35.639Z</time>
      </trkpt>
      <trkpt lat="47.9407268" lon="-2.4113949">
        <ele>45.335</ele>
        <time>2018-08-23T11:11:38.687Z</time>
      </trkpt>
      <trkpt lat="47.9408062" lon="-2.4115024">
        <ele>45.720</ele>
        <time>2018-08-23T11:11:42.465Z</time>
      </trkpt>
      <trkpt lat="47.9408801" lon="-2.4116182">
        <ele>45.550</ele>
        <time>2018-08-23T11:11:46.525Z</time>
      </trkpt>
      <trkpt lat="47.9409543" lon="-2.4117320">
        <ele>45.295</ele>
        <time>2018-08-23T11:11:50.765Z</time>
      </trkpt>
      <trkpt lat="47.9410454" lon="-2.4118303">
        <ele>45.355</ele>
        <time>2018-08-23T11:11:55.267Z</time>
      </trkpt>
      <trkpt lat="47.9411676" lon="-2.4118857">
        <ele>45.771</ele>
        <time>2018-08-23T11:11:59.720Z</time>
      </trkpt>
      <trkpt lat="47.9413264" lon="-2.4119439">
        <ele>46.000</ele>
        <time>2018-08-23T11:12:03.662Z</time>
      </trkpt>
      <trkpt lat="47.9414911" lon="-2.4119698">
        <ele>44.911</ele>
        <time>2018-08-23T11:12:06.744Z</time>
      </trkpt>
      <trkpt lat="47.9416003" lon="-2.4119925">
        <ele>42.195</ele>
        <time>2018-08-23T11:12:08.776Z</time>
      </trkpt>
      <trkpt lat="47.9417392" lon="-2.4120076">
        <ele>39.125</ele>
        <time>2018-08-23T11:12:11.669Z</time>
      </trkpt>
      <trkpt lat="47.9418517" lon="-2.4119946">
        <ele>37.096</ele>
        <time>2018-08-23T11:12:15.204Z</time>
      </trkpt>
      <trkpt lat="47.9419370" lon="-2.4120521">
        <ele>36.320</ele>
        <time>2018-08-23T11:12:19.000Z</time>
      </trkpt>
      <trkpt lat="47.9419370" lon="-2.4120521">
        <ele>36.247</ele>
        <time>2018-08-23T11:12:26.000Z</time>
      </trkpt>
      <trkpt lat="47.9419370" lon="-2.4120521">
        <ele>36.291</ele>
        <time>2018-08-23T11:12:26.000Z</time>
      </trkpt>
      <trkpt lat="47.9419370" lon="-2.4120521">
        <ele>36.274</ele>
        <time>2018-08-23T11:12:26.100Z</time>
      </trkpt>
      <trkpt lat="47.9421616" lon="-2.4119480">
        <ele>36.244</ele>
        <time>2018-08-23T11:13:01.995Z</time>
      </trkpt>
      <trkpt lat="47.9422134" lon="-2.4120680">
        <ele>35.442</ele>
        <time>2018-08-23T11:13:09.000Z</time>
      </trkpt>
      <trkpt lat="47.9422134" lon="-2.4120680">
        <ele>33.399</ele>
        <time>2018-08-23T11:13:19.000Z</time>
      </trkpt>
      <trkpt lat="47.9422134" lon="-2.4120680">
        <ele>31.698</ele>
        <time>2018-08-23T11:14:17.755Z</time>
      </trkpt>
      <trkpt lat="47.9423172" lon="-2.4121469">
        <ele>31.997</ele>
        <time>2018-08-23T11:14:47.000Z</time>
      </trkpt>
      <trkpt lat="47.9423172" lon="-2.4121469">
        <ele>33.332</ele>
        <time>2018-08-23T11:14:50.000Z</time>
      </trkpt>
      <trkpt lat="47.9423260" lon="-2.4121258">
        <ele>29.359</ele>
        <time>2018-08-23T12:16:52.016Z</time>
      </trkpt>
      <trkpt lat="47.9422774" lon="-2.4120066">
        <ele>29.346</ele>
        <time>2018-08-23T12:17:46.000Z</time>
      </trkpt>
      <trkpt lat="47.9422023" lon="-2.4119268">
        <ele>29.896</ele>
        <time>2018-08-23T12:17:56.000Z</time>
      </trkpt>
      <trkpt lat="47.9422023" lon="-2.4119268">
        <ele>31.341</ele>
        <time>2018-08-23T12:18:07.000Z</time>
      </trkpt>
      <trkpt lat="47.9422023" lon="-2.4119268">
        <ele>32.543</ele>
        <time>2018-08-23T12:18:48.273Z</time>
      </trkpt>
      <trkpt lat="47.9419649" lon="-2.4120048">
        <ele>32.509</ele>
        <time>2018-08-23T12:19:05.968Z</time>
      </trkpt>
      <trkpt lat="47.9418637" lon="-2.4120150">
        <ele>32.280</ele>
        <time>2018-08-23T12:19:10.208Z</time>
      </trkpt>
      <trkpt lat="47.9417601" lon="-2.4120208">
        <ele>32.979</ele>
        <time>2018-08-23T12:19:14.910Z</time>
      </trkpt>
      <trkpt lat="47.9416602" lon="-2.4120076">
        <ele>34.156</ele>
        <time>2018-08-23T12:19:20.151Z</time>
      </trkpt>
      <trkpt lat="47.9415579" lon="-2.4120076">
        <ele>35.122</ele>
        <time>2018-08-23T12:19:26.316Z</time>
      </trkpt>
      <trkpt lat="47.9414621" lon="-2.4120018">
        <ele>35.938</ele>
        <time>2018-08-23T12:19:32.748Z</time>
      </trkpt>
      <trkpt lat="47.9413723" lon="-2.4119894">
        <ele>36.889</ele>
        <time>2018-08-23T12:19:39.117Z</time>
      </trkpt>
      <trkpt lat="47.9412798" lon="-2.4119729">
        <ele>38.139</ele>
        <time>2018-08-23T12:19:46.000Z</time>
      </trkpt>
      <trkpt lat="47.9412798" lon="-2.4119729">
        <ele>39.401</ele>
        <time>2018-08-23T12:20:01.000Z</time>
      </trkpt>
      <trkpt lat="47.9412798" lon="-2.4119729">
        <ele>40.059</ele>
        <time>2018-08-23T12:20:42.966Z</time>
      </trkpt>
      <trkpt lat="47.9410901" lon="-2.4119741">
        <ele>39.935</ele>
        <time>2018-08-23T12:20:54.743Z</time>
      </trkpt>
      <trkpt lat="47.9410042" lon="-2.4118826">
        <ele>39.451</ele>
        <time>2018-08-23T12:20:57.664Z</time>
      </trkpt>
      <trkpt lat="47.9409319" lon="-2.4117674">
        <ele>39.014</ele>
        <time>2018-08-23T12:21:00.389Z</time>
      </trkpt>
      <trkpt lat="47.9408565" lon="-2.4116634">
        <ele>38.716</ele>
        <time>2018-08-23T12:21:03.000Z</time>
      </trkpt>
      <trkpt lat="47.9407884" lon="-2.4115675">
        <ele>38.558</ele>
        <time>2018-08-23T12:21:05.413Z</time>
      </trkpt>
      <trkpt lat="47.9407151" lon="-2.4114758">
        <ele>38.651</ele>
        <time>2018-08-23T12:21:07.954Z</time>
      </trkpt>
      <trkpt lat="47.9406362" lon="-2.4113558">
        <ele>39.015</ele>
        <time>2018-08-23T12:21:11.043Z</time>
      </trkpt>
      <trkpt lat="47.9405652" lon="-2.4112379">
        <ele>39.403</ele>
        <time>2018-08-23T12:21:14.000Z</time>
      </trkpt>
      <trkpt lat="47.9405652" lon="-2.4112379">
        <ele>39.557</ele>
        <time>2018-08-23T12:21:14.000Z</time>
      </trkpt>
      <trkpt lat="47.9405652" lon="-2.4112379">
        <ele>39.513</ele>
        <time>2018-08-23T12:21:14.100Z</time>
      </trkpt>
      <trkpt lat="47.9404632" lon="-2.4110561">
        <ele>39.427</ele>
        <time>2018-08-23T12:21:21.735Z</time>
      </trkpt>
      <trkpt lat="47.9403987" lon="-2.4109482">
        <ele>39.392</ele>
        <time>2018-08-23T12:21:24.933Z</time>
      </trkpt>
      <trkpt lat="47.9403420" lon="-2.4108288">
        <ele>38.705</ele>
        <time>2018-08-23T12:21:28.370Z</time>
      </trkpt>
      <trkpt lat="47.9402540" lon="-2.4107111">
        <ele>36.645</ele>
        <time>2018-08-23T12:21:33.177Z</time>
      </trkpt>
      <trkpt lat="47.9401438" lon="-2.4106722">
        <ele>34.043</ele>
        <time>2018-08-23T12:21:39.086Z</time>
      </trkpt>
      <trkpt lat="47.9400583" lon="-2.4107300">
        <ele>32.292</ele>
        <time>2018-08-23T12:21:44.080Z</time>
      </trkpt>
      <trkpt lat="47.9400092" lon="-2.4105906">
        <ele>32.165</ele>
        <time>2018-08-23T12:21:47.849Z</time>
      </trkpt>
      <trkpt lat="47.9400165" lon="-2.4104216">
        <ele>33.846</ele>
        <time>2018-08-23T12:21:51.672Z</time>
      </trkpt>
      <trkpt lat="47.9399478" lon="-2.4102933">
        <ele>36.302</ele>
        <time>2018-08-23T12:21:56.077Z</time>
      </trkpt>
      <trkpt lat="47.9398646" lon="-2.4102094">
        <ele>38.061</ele>
        <time>2018-08-23T12:22:00.514Z</time>
      </trkpt>
      <trkpt lat="47.9397743" lon="-2.4101197">
        <ele>38.491</ele>
        <time>2018-08-23T12:22:05.655Z</time>
      </trkpt>
      <trkpt lat="47.9397025" lon="-2.4100266">
        <ele>37.893</ele>
        <time>2018-08-23T12:22:10.259Z</time>
      </trkpt>
      <trkpt lat="47.9396320" lon="-2.4099433">
        <ele>37.041</ele>
        <time>2018-08-23T12:22:14.691Z</time>
      </trkpt>
      <trkpt lat="47.9395554" lon="-2.4098331">
        <ele>36.358</ele>
        <time>2018-08-23T12:22:19.925Z</time>
      </trkpt>
      <trkpt lat="47.9394883" lon="-2.4097369">
        <ele>35.784</ele>
        <time>2018-08-23T12:22:24.497Z</time>
      </trkpt>
      <trkpt lat="47.9394173" lon="-2.4096470">
        <ele>35.357</ele>
        <time>2018-08-23T12:22:29.102Z</time>
      </trkpt>
      <trkpt lat="47.9393511" lon="-2.4095445">
        <ele>35.205</ele>
        <time>2018-08-23T12:22:33.737Z</time>
      </trkpt>
      <trkpt lat="47.9392643" lon="-2.4094518">
        <ele>35.396</ele>
        <time>2018-08-23T12:22:38.804Z</time>
      </trkpt>
      <trkpt lat="47.9391701" lon="-2.4093714">
        <ele>35.932</ele>
        <time>2018-08-23T12:22:43.824Z</time>
      </trkpt>
      <trkpt lat="47.9390792" lon="-2.4093364">
        <ele>36.789</ele>
        <time>2018-08-23T12:22:48.113Z</time>
      </trkpt>
      <trkpt lat="47.9389717" lon="-2.4093165">
        <ele>37.757</ele>
        <time>2018-08-23T12:22:53.160Z</time>
      </trkpt>
      <trkpt lat="47.9389031" lon="-2.4092031">
        <ele>38.548</ele>
        <time>2018-08-23T12:22:58.052Z</time>
      </trkpt>
      <trkpt lat="47.9389121" lon="-2.4090443">
        <ele>39.176</ele>
        <time>2018-08-23T12:23:03.222Z</time>
      </trkpt>
      <trkpt lat="47.9389830" lon="-2.4089259">
        <ele>39.917</ele>
        <time>2018-08-23T12:23:08.057Z</time>
      </trkpt>
      <trkpt lat="47.9390320" lon="-2.4087977">
        <ele>40.796</ele>
        <time>2018-08-23T12:23:12.014Z</time>
      </trkpt>
      <trkpt lat="47.9390417" lon="-2.4086395">
        <ele>41.524</ele>
        <time>2018-08-23T12:23:15.700Z</time>
      </trkpt>
      <trkpt lat="47.9390572" lon="-2.4084852">
        <ele>41.904</ele>
        <time>2018-08-23T12:23:18.770Z</time>
      </trkpt>
      <trkpt lat="47.9390667" lon="-2.4083326">
        <ele>42.035</ele>
        <time>2018-08-23T12:23:21.761Z</time>
      </trkpt>
      <trkpt lat="47.9390348" lon="-2.4081785">
        <ele>42.107</ele>
        <time>2018-08-23T12:23:25.487Z</time>
      </trkpt>
      <trkpt lat="47.9389761" lon="-2.4080711">
        <ele>42.321</ele>
        <time>2018-08-23T12:23:29.290Z</time>
      </trkpt>
      <trkpt lat="47.9388767" lon="-2.4080211">
        <ele>42.764</ele>
        <time>2018-08-23T12:23:34.044Z</time>
      </trkpt>
      <trkpt lat="47.9387712" lon="-2.4080645">
        <ele>43.420</ele>
        <time>2018-08-23T12:23:39.285Z</time>
      </trkpt>
      <trkpt lat="47.9386783" lon="-2.4080841">
        <ele>44.325</ele>
        <time>2018-08-23T12:23:43.734Z</time>
      </trkpt>
      <trkpt lat="47.9385867" lon="-2.4081027">
        <ele>45.377</ele>
        <time>2018-08-23T12:23:48.307Z</time>
      </trkpt>
      <trkpt lat="47.9384896" lon="-2.4081329">
        <ele>46.269</ele>
        <time>2018-08-23T12:23:53.534Z</time>
      </trkpt>
      <trkpt lat="47.9383911" lon="-2.4081341">
        <ele>46.823</ele>
        <time>2018-08-23T12:23:59.179Z</time>
      </trkpt>
      <trkpt lat="47.9382937" lon="-2.4081194">
        <ele>47.001</ele>
        <time>2018-08-23T12:24:05.233Z</time>
      </trkpt>
      <trkpt lat="47.9381961" lon="-2.4080888">
        <ele>46.883</ele>
        <time>2018-08-23T12:24:11.848Z</time>
      </trkpt>
      <trkpt lat="47.9381023" lon="-2.4080411">
        <ele>46.883</ele>
        <time>2018-08-23T12:24:18.516Z</time>
      </trkpt>
      <trkpt lat="47.9380128" lon="-2.4079969">
        <ele>47.323</ele>
        <time>2018-08-23T12:24:24.636Z</time>
      </trkpt>
      <trkpt lat="47.9379102" lon="-2.4079448">
        <ele>47.997</ele>
        <time>2018-08-23T12:24:31.040Z</time>
      </trkpt>
      <trkpt lat="47.9378108" lon="-2.4078920">
        <ele>48.573</ele>
        <time>2018-08-23T12:24:36.805Z</time>
      </trkpt>
      <trkpt lat="47.9377097" lon="-2.4078359">
        <ele>49.042</ele>
        <time>2018-08-23T12:24:42.546Z</time>
      </trkpt>
      <trkpt lat="47.9376113" lon="-2.4077810">
        <ele>49.526</ele>
        <time>2018-08-23T12:24:48.154Z</time>
      </trkpt>
      <trkpt lat="47.9375141" lon="-2.4077302">
        <ele>50.126</ele>
        <time>2018-08-23T12:24:53.747Z</time>
      </trkpt>
      <trkpt lat="47.9374216" lon="-2.4076848">
        <ele>50.845</ele>
        <time>2018-08-23T12:24:59.000Z</time>
      </trkpt>
      <trkpt lat="47.9374216" lon="-2.4076848">
        <ele>51.488</ele>
        <time>2018-08-23T12:25:03.000Z</time>
      </trkpt>
      <trkpt lat="47.9374216" lon="-2.4076848">
        <ele>51.786</ele>
        <time>2018-08-23T12:25:03.100Z</time>
      </trkpt>
      <trkpt lat="47.9372060" lon="-2.4075715">
        <ele>51.683</ele>
        <time>2018-08-23T12:25:13.690Z</time>
      </trkpt>
      <trkpt lat="47.9371164" lon="-2.4075257">
        <ele>51.376</ele>
        <time>2018-08-23T12:25:16.754Z</time>
      </trkpt>
      <trkpt lat="47.9370284" lon="-2.4074782">
        <ele>51.056</ele>
        <time>2018-08-23T12:25:19.786Z</time>
      </trkpt>
      <trkpt lat="47.9369222" lon="-2.4074280">
        <ele>50.776</ele>
        <time>2018-08-23T12:25:23.407Z</time>
      </trkpt>
      <trkpt lat="47.9368185" lon="-2.4073725">
        <ele>50.598</ele>
        <time>2018-08-23T12:25:27.000Z</time>
      </trkpt>
      <trkpt lat="47.9368185" lon="-2.4073725">
        <ele>50.562</ele>
        <time>2018-08-23T12:25:51.000Z</time>
      </trkpt>
      <trkpt lat="47.9368185" lon="-2.4073725">
        <ele>50.581</ele>
        <time>2018-08-23T12:26:08.973Z</time>
      </trkpt>
      <trkpt lat="47.9369269" lon="-2.4076316">
        <ele>50.579</ele>
        <time>2018-08-23T12:26:29.889Z</time>
      </trkpt>
      <trkpt lat="47.9370078" lon="-2.4077120">
        <ele>50.870</ele>
        <time>2018-08-23T12:26:36.256Z</time>
      </trkpt>
      <trkpt lat="47.9370822" lon="-2.4077994">
        <ele>51.763</ele>
        <time>2018-08-23T12:26:41.804Z</time>
      </trkpt>
      <trkpt lat="47.9369975" lon="-2.4078560">
        <ele>52.882</ele>
        <time>2018-08-23T12:26:47.246Z</time>
      </trkpt>
      <trkpt lat="47.9369063" lon="-2.4078029">
        <ele>53.935</ele>
        <time>2018-08-23T12:26:52.857Z</time>
      </trkpt>
      <trkpt lat="47.9368240" lon="-2.4077456">
        <ele>55.042</ele>
        <time>2018-08-23T12:26:58.065Z</time>
      </trkpt>
      <trkpt lat="47.9367321" lon="-2.4076862">
        <ele>55.973</ele>
        <time>2018-08-23T12:27:03.134Z</time>
      </trkpt>
      <trkpt lat="47.9366443" lon="-2.4076375">
        <ele>56.492</ele>
        <time>2018-08-23T12:27:07.383Z</time>
      </trkpt>
      <trkpt lat="47.9365556" lon="-2.4075936">
        <ele>56.803</ele>
        <time>2018-08-23T12:27:11.569Z</time>
      </trkpt>
      <trkpt lat="47.9364548" lon="-2.4075519">
        <ele>57.173</ele>
        <time>2018-08-23T12:27:15.951Z</time>
      </trkpt>
      <trkpt lat="47.9363577" lon="-2.4075190">
        <ele>57.625</ele>
        <time>2018-08-23T12:27:20.000Z</time>
      </trkpt>
      <trkpt lat="47.9363577" lon="-2.4075190">
        <ele>57.960</ele>
        <time>2018-08-23T12:27:34.000Z</time>
      </trkpt>
      <trkpt lat="47.9363577" lon="-2.4075190">
        <ele>58.064</ele>
        <time>2018-08-23T12:27:59.741Z</time>
      </trkpt>
      <trkpt lat="47.9361539" lon="-2.4074564">
        <ele>57.971</ele>
        <time>2018-08-23T12:28:14.283Z</time>
      </trkpt>
      <trkpt lat="47.9360599" lon="-2.4074260">
        <ele>57.485</ele>
        <time>2018-08-23T12:28:18.467Z</time>
      </trkpt>
      <trkpt lat="47.9359558" lon="-2.4074375">
        <ele>56.569</ele>
        <time>2018-08-23T12:28:22.978Z</time>
      </trkpt>
      <trkpt lat="47.9358573" lon="-2.4074119">
        <ele>55.920</ele>
        <time>2018-08-23T12:28:27.574Z</time>
      </trkpt>
      <trkpt lat="47.9357587" lon="-2.4073876">
        <ele>56.277</ele>
        <time>2018-08-23T12:28:32.240Z</time>
      </trkpt>
      <trkpt lat="47.9356578" lon="-2.4073719">
        <ele>57.467</ele>
        <time>2018-08-23T12:28:36.642Z</time>
      </trkpt>
      <trkpt lat="47.9355612" lon="-2.4073354">
        <ele>58.699</ele>
        <time>2018-08-23T12:28:40.595Z</time>
      </trkpt>
      <trkpt lat="47.9354580" lon="-2.4072917">
        <ele>59.394</ele>
        <time>2018-08-23T12:28:44.691Z</time>
      </trkpt>
      <trkpt lat="47.9353681" lon="-2.4072476">
        <ele>59.838</ele>
        <time>2018-08-23T12:28:49.104Z</time>
      </trkpt>
      <trkpt lat="47.9352663" lon="-2.4072336">
        <ele>60.586</ele>
        <time>2018-08-23T12:28:54.584Z</time>
      </trkpt>
      <trkpt lat="47.9351593" lon="-2.4071870">
        <ele>61.684</ele>
        <time>2018-08-23T12:29:00.373Z</time>
      </trkpt>
      <trkpt lat="47.9350555" lon="-2.4071440">
        <ele>62.761</ele>
        <time>2018-08-23T12:29:04.631Z</time>
      </trkpt>
      <trkpt lat="47.9349628" lon="-2.4071144">
        <ele>63.247</ele>
        <time>2018-08-23T12:29:07.875Z</time>
      </trkpt>
      <trkpt lat="47.9348747" lon="-2.4070772">
        <ele>62.805</ele>
        <time>2018-08-23T12:29:10.966Z</time>
      </trkpt>
      <trkpt lat="47.9347668" lon="-2.4070251">
        <ele>61.701</ele>
        <time>2018-08-23T12:29:14.763Z</time>
      </trkpt>
      <trkpt lat="47.9346517" lon="-2.4069839">
        <ele>60.502</ele>
        <time>2018-08-23T12:29:18.653Z</time>
      </trkpt>
      <trkpt lat="47.9345374" lon="-2.4069423">
        <ele>59.712</ele>
        <time>2018-08-23T12:29:22.443Z</time>
      </trkpt>
      <trkpt lat="47.9344463" lon="-2.4069114">
        <ele>59.460</ele>
        <time>2018-08-23T12:29:25.378Z</time>
      </trkpt>
      <trkpt lat="47.9343549" lon="-2.4068818">
        <ele>59.490</ele>
        <time>2018-08-23T12:29:28.290Z</time>
      </trkpt>
      <trkpt lat="47.9342620" lon="-2.4068495">
        <ele>59.581</ele>
        <time>2018-08-23T12:29:31.261Z</time>
      </trkpt>
      <trkpt lat="47.9341732" lon="-2.4068154">
        <ele>59.782</ele>
        <time>2018-08-23T12:29:34.131Z</time>
      </trkpt>
      <trkpt lat="47.9340861" lon="-2.4067702">
        <ele>60.164</ele>
        <time>2018-08-23T12:29:37.127Z</time>
      </trkpt>
      <trkpt lat="47.9339828" lon="-2.4067347">
        <ele>60.396</ele>
        <time>2018-08-23T12:29:41.103Z</time>
      </trkpt>
      <trkpt lat="47.9338928" lon="-2.4067113">
        <ele>60.201</ele>
        <time>2018-08-23T12:29:45.000Z</time>
      </trkpt>
      <trkpt lat="47.9338928" lon="-2.4067113">
        <ele>59.845</ele>
        <time>2018-08-23T12:29:54.000Z</time>
      </trkpt>
      <trkpt lat="47.9338928" lon="-2.4067113">
        <ele>59.656</ele>
        <time>2018-08-23T12:30:01.885Z</time>
      </trkpt>
      <trkpt lat="47.9337053" lon="-2.4066320">
        <ele>59.651</ele>
        <time>2018-08-23T12:30:15.469Z</time>
      </trkpt>
      <trkpt lat="47.9335988" lon="-2.4066056">
        <ele>59.274</ele>
        <time>2018-08-23T12:30:19.397Z</time>
      </trkpt>
      <trkpt lat="47.9334932" lon="-2.4065700">
        <ele>58.117</ele>
        <time>2018-08-23T12:30:23.226Z</time>
      </trkpt>
      <trkpt lat="47.9333949" lon="-2.4065713">
        <ele>56.780</ele>
        <time>2018-08-23T12:30:26.574Z</time>
      </trkpt>
      <trkpt lat="47.9332881" lon="-2.4065684">
        <ele>55.989</ele>
        <time>2018-08-23T12:30:30.111Z</time>
      </trkpt>
      <trkpt lat="47.9331978" lon="-2.4065072">
        <ele>55.711</ele>
        <time>2018-08-23T12:30:33.365Z</time>
      </trkpt>
      <trkpt lat="47.9331190" lon="-2.4064415">
        <ele>55.566</ele>
        <time>2018-08-23T12:30:36.285Z</time>
      </trkpt>
      <trkpt lat="47.9330305" lon="-2.4064088">
        <ele>55.275</ele>
        <time>2018-08-23T12:30:39.187Z</time>
      </trkpt>
      <trkpt lat="47.9329354" lon="-2.4063371">
        <ele>54.926</ele>
        <time>2018-08-23T12:30:42.612Z</time>
      </trkpt>
      <trkpt lat="47.9328852" lon="-2.4062057">
        <ele>54.845</ele>
        <time>2018-08-23T12:30:46.000Z</time>
      </trkpt>
      <trkpt lat="47.9328852" lon="-2.4062057">
        <ele>55.133</ele>
        <time>2018-08-23T12:30:47.000Z</time>
      </trkpt>
      <trkpt lat="47.9328852" lon="-2.4062057">
        <ele>55.422</ele>
        <time>2018-08-23T12:30:47.100Z</time>
      </trkpt>
      <trkpt lat="47.9327096" lon="-2.4061606">
        <ele>55.401</ele>
        <time>2018-08-23T12:30:55.395Z</time>
      </trkpt>
      <trkpt lat="47.9326219" lon="-2.4061193">
        <ele>55.333</ele>
        <time>2018-08-23T12:30:58.556Z</time>
      </trkpt>
      <trkpt lat="47.9325294" lon="-2.4060683">
        <ele>55.674</ele>
        <time>2018-08-23T12:31:02.433Z</time>
      </trkpt>
      <trkpt lat="47.9324271" lon="-2.4060522">
        <ele>56.567</ele>
        <time>2018-08-23T12:31:06.637Z</time>
      </trkpt>
      <trkpt lat="47.9323325" lon="-2.4060114">
        <ele>57.833</ele>
        <time>2018-08-23T12:31:10.500Z</time>
      </trkpt>
      <trkpt lat="47.9322241" lon="-2.4059888">
        <ele>59.250</ele>
        <time>2018-08-23T12:31:14.434Z</time>
      </trkpt>
      <trkpt lat="47.9321269" lon="-2.4059738">
        <ele>60.531</ele>
        <time>2018-08-23T12:31:17.649Z</time>
      </trkpt>
      <trkpt lat="47.9320357" lon="-2.4059625">
        <ele>61.328</ele>
        <time>2018-08-23T12:31:20.695Z</time>
      </trkpt>
      <trkpt lat="47.9319264" lon="-2.4059472">
        <ele>61.579</ele>
        <time>2018-08-23T12:31:24.400Z</time>
      </trkpt>
      <trkpt lat="47.9318341" lon="-2.4059365">
        <ele>61.485</ele>
        <time>2018-08-23T12:31:27.496Z</time>
      </trkpt>
      <trkpt lat="47.9317441" lon="-2.4059248">
        <ele>61.175</ele>
        <time>2018-08-23T12:31:30.439Z</time>
      </trkpt>
      <trkpt lat="47.9316445" lon="-2.4059181">
        <ele>60.705</ele>
        <time>2018-08-23T12:31:33.619Z</time>
      </trkpt>
      <trkpt lat="47.9315517" lon="-2.4059210">
        <ele>60.190</ele>
        <time>2018-08-23T12:31:36.615Z</time>
      </trkpt>
      <trkpt lat="47.9314354" lon="-2.4059172">
        <ele>59.810</ele>
        <time>2018-08-23T12:31:40.371Z</time>
      </trkpt>
      <trkpt lat="47.9313428" lon="-2.4059202">
        <ele>59.651</ele>
        <time>2018-08-23T12:31:43.294Z</time>
      </trkpt>
      <trkpt lat="47.9312502" lon="-2.4059278">
        <ele>59.662</ele>
        <time>2018-08-23T12:31:46.193Z</time>
      </trkpt>
      <trkpt lat="47.9311312" lon="-2.4059449">
        <ele>59.815</ele>
        <time>2018-08-23T12:31:49.972Z</time>
      </trkpt>
      <trkpt lat="47.9310204" lon="-2.4059699">
        <ele>60.098</ele>
        <time>2018-08-23T12:31:53.606Z</time>
      </trkpt>
      <trkpt lat="47.9309078" lon="-2.4059950">
        <ele>60.455</ele>
        <time>2018-08-23T12:31:57.363Z</time>
      </trkpt>
      <trkpt lat="47.9307956" lon="-2.4060190">
        <ele>60.814</ele>
        <time>2018-08-23T12:32:01.067Z</time>
      </trkpt>
      <trkpt lat="47.9307060" lon="-2.4060426">
        <ele>61.063</ele>
        <time>2018-08-23T12:32:04.011Z</time>
      </trkpt>
      <trkpt lat="47.9305987" lon="-2.4060784">
        <ele>61.035</ele>
        <time>2018-08-23T12:32:07.662Z</time>
      </trkpt>
      <trkpt lat="47.9304868" lon="-2.4061196">
        <ele>60.745</ele>
        <time>2018-08-23T12:32:11.578Z</time>
      </trkpt>
      <trkpt lat="47.9303770" lon="-2.4061639">
        <ele>60.436</ele>
        <time>2018-08-23T12:32:15.416Z</time>
      </trkpt>
      <trkpt lat="47.9302784" lon="-2.4062077">
        <ele>60.405</ele>
        <time>2018-08-23T12:32:18.952Z</time>
      </trkpt>
      <trkpt lat="47.9301821" lon="-2.4062634">
        <ele>60.762</ele>
        <time>2018-08-23T12:32:22.599Z</time>
      </trkpt>
      <trkpt lat="47.9300788" lon="-2.4063217">
        <ele>61.275</ele>
        <time>2018-08-23T12:32:26.513Z</time>
      </trkpt>
      <trkpt lat="47.9299754" lon="-2.4063752">
        <ele>61.554</ele>
        <time>2018-08-23T12:32:30.373Z</time>
      </trkpt>
      <trkpt lat="47.9298776" lon="-2.4064312">
        <ele>61.497</ele>
        <time>2018-08-23T12:32:34.089Z</time>
      </trkpt>
      <trkpt lat="47.9297902" lon="-2.4064739">
        <ele>61.397</ele>
        <time>2018-08-23T12:32:37.478Z</time>
      </trkpt>
      <trkpt lat="47.9297016" lon="-2.4065274">
        <ele>61.524</ele>
        <time>2018-08-23T12:32:41.205Z</time>
      </trkpt>
      <trkpt lat="47.9296082" lon="-2.4065872">
        <ele>61.785</ele>
        <time>2018-08-23T12:32:45.337Z</time>
      </trkpt>
      <trkpt lat="47.9295177" lon="-2.4066397">
        <ele>61.852</ele>
        <time>2018-08-23T12:32:49.284Z</time>
      </trkpt>
      <trkpt lat="47.9294265" lon="-2.4067099">
        <ele>61.605</ele>
        <time>2018-08-23T12:32:53.570Z</time>
      </trkpt>
      <trkpt lat="47.9293322" lon="-2.4067655">
        <ele>61.351</ele>
        <time>2018-08-23T12:32:58.030Z</time>
      </trkpt>
      <trkpt lat="47.9292513" lon="-2.4068476">
        <ele>61.535</ele>
        <time>2018-08-23T12:33:02.596Z</time>
      </trkpt>
      <trkpt lat="47.9291620" lon="-2.4069015">
        <ele>62.217</ele>
        <time>2018-08-23T12:33:07.230Z</time>
      </trkpt>
      <trkpt lat="47.9290709" lon="-2.4069456">
        <ele>62.999</ele>
        <time>2018-08-23T12:33:11.833Z</time>
      </trkpt>
      <trkpt lat="47.9289784" lon="-2.4070143">
        <ele>63.473</ele>
        <time>2018-08-23T12:33:17.084Z</time>
      </trkpt>
      <trkpt lat="47.9288849" lon="-2.4070791">
        <ele>63.651</ele>
        <time>2018-08-23T12:33:22.580Z</time>
      </trkpt>
      <trkpt lat="47.9287994" lon="-2.4071340">
        <ele>63.732</ele>
        <time>2018-08-23T12:33:27.511Z</time>
      </trkpt>
      <trkpt lat="47.9287125" lon="-2.4071899">
        <ele>63.805</ele>
        <time>2018-08-23T12:33:32.306Z</time>
      </trkpt>
      <trkpt lat="47.9286195" lon="-2.4072535">
        <ele>63.945</ele>
        <time>2018-08-23T12:33:37.065Z</time>
      </trkpt>
      <trkpt lat="47.9285304" lon="-2.4073099">
        <ele>64.232</ele>
        <time>2018-08-23T12:33:41.314Z</time>
      </trkpt>
      <trkpt lat="47.9284264" lon="-2.4073638">
        <ele>64.589</ele>
        <time>2018-08-23T12:33:46.271Z</time>
      </trkpt>
      <trkpt lat="47.9283389" lon="-2.4074032">
        <ele>64.881</ele>
        <time>2018-08-23T12:33:50.352Z</time>
      </trkpt>
      <trkpt lat="47.9282530" lon="-2.4074460">
        <ele>65.037</ele>
        <time>2018-08-23T12:33:54.408Z</time>
      </trkpt>
      <trkpt lat="47.9281530" lon="-2.4075101">
        <ele>64.937</ele>
        <time>2018-08-23T12:33:59.343Z</time>
      </trkpt>
      <trkpt lat="47.9280577" lon="-2.4075748">
        <ele>64.555</ele>
        <time>2018-08-23T12:34:04.141Z</time>
      </trkpt>
      <trkpt lat="47.9279594" lon="-2.4076392">
        <ele>64.134</ele>
        <time>2018-08-23T12:34:08.996Z</time>
      </trkpt>
      <trkpt lat="47.9278647" lon="-2.4076921">
        <ele>63.903</ele>
        <time>2018-08-23T12:34:13.611Z</time>
      </trkpt>
      <trkpt lat="47.9277811" lon="-2.4077476">
        <ele>63.804</ele>
        <time>2018-08-23T12:34:17.838Z</time>
      </trkpt>
      <trkpt lat="47.9276898" lon="-2.4078175">
        <ele>63.713</ele>
        <time>2018-08-23T12:34:23.063Z</time>
      </trkpt>
      <trkpt lat="47.9276002" lon="-2.4078687">
        <ele>63.609</ele>
        <time>2018-08-23T12:34:28.670Z</time>
      </trkpt>
      <trkpt lat="47.9275068" lon="-2.4079381">
        <ele>63.521</ele>
        <time>2018-08-23T12:34:34.232Z</time>
      </trkpt>
      <trkpt lat="47.9274139" lon="-2.4080032">
        <ele>63.466</ele>
        <time>2018-08-23T12:34:38.802Z</time>
      </trkpt>
      <trkpt lat="47.9273193" lon="-2.4080516">
        <ele>63.456</ele>
        <time>2018-08-23T12:34:43.061Z</time>
      </trkpt>
      <trkpt lat="47.9272208" lon="-2.4080950">
        <ele>63.478</ele>
        <time>2018-08-23T12:34:47.279Z</time>
      </trkpt>
      <trkpt lat="47.9271266" lon="-2.4081492">
        <ele>63.486</ele>
        <time>2018-08-23T12:34:51.517Z</time>
      </trkpt>
      <trkpt lat="47.9270415" lon="-2.4082147">
        <ele>63.455</ele>
        <time>2018-08-23T12:34:55.789Z</time>
      </trkpt>
      <trkpt lat="47.9269401" lon="-2.4082820">
        <ele>63.449</ele>
        <time>2018-08-23T12:35:00.841Z</time>
      </trkpt>
      <trkpt lat="47.9268588" lon="-2.4083494">
        <ele>63.525</ele>
        <time>2018-08-23T12:35:04.877Z</time>
      </trkpt>
      <trkpt lat="47.9267679" lon="-2.4084068">
        <ele>63.582</ele>
        <time>2018-08-23T12:35:09.018Z</time>
      </trkpt>
      <trkpt lat="47.9266824" lon="-2.4084812">
        <ele>63.530</ele>
        <time>2018-08-23T12:35:13.018Z</time>
      </trkpt>
      <trkpt lat="47.9266013" lon="-2.4085664">
        <ele>63.535</ele>
        <time>2018-08-23T12:35:16.965Z</time>
      </trkpt>
      <trkpt lat="47.9265206" lon="-2.4086502">
        <ele>63.766</ele>
        <time>2018-08-23T12:35:20.767Z</time>
      </trkpt>
      <trkpt lat="47.9264176" lon="-2.4087253">
        <ele>64.087</ele>
        <time>2018-08-23T12:35:24.950Z</time>
      </trkpt>
      <trkpt lat="47.9263265" lon="-2.4088080">
        <ele>64.283</ele>
        <time>2018-08-23T12:35:28.709Z</time>
      </trkpt>
      <trkpt lat="47.9262377" lon="-2.4088870">
        <ele>64.328</ele>
        <time>2018-08-23T12:35:32.383Z</time>
      </trkpt>
      <trkpt lat="47.9261444" lon="-2.4089753">
        <ele>64.401</ele>
        <time>2018-08-23T12:35:36.309Z</time>
      </trkpt>
      <trkpt lat="47.9260611" lon="-2.4090870">
        <ele>64.674</ele>
        <time>2018-08-23T12:35:40.215Z</time>
      </trkpt>
      <trkpt lat="47.9259933" lon="-2.4091811">
        <ele>65.071</ele>
        <time>2018-08-23T12:35:43.362Z</time>
      </trkpt>
      <trkpt lat="47.9259090" lon="-2.4092930">
        <ele>65.459</ele>
        <time>2018-08-23T12:35:46.850Z</time>
      </trkpt>
      <trkpt lat="47.9258206" lon="-2.4094041">
        <ele>65.800</ele>
        <time>2018-08-23T12:35:50.126Z</time>
      </trkpt>
      <trkpt lat="47.9257334" lon="-2.4095071">
        <ele>66.026</ele>
        <time>2018-08-23T12:35:53.189Z</time>
      </trkpt>
      <trkpt lat="47.9256394" lon="-2.4096159">
        <ele>65.984</ele>
        <time>2018-08-23T12:35:56.359Z</time>
      </trkpt>
      <trkpt lat="47.9255451" lon="-2.4097404">
        <ele>65.661</ele>
        <time>2018-08-23T12:35:59.579Z</time>
      </trkpt>
      <trkpt lat="47.9254659" lon="-2.4098897">
        <ele>65.491</ele>
        <time>2018-08-23T12:36:02.807Z</time>
      </trkpt>
      <trkpt lat="47.9253880" lon="-2.4100322">
        <ele>65.947</ele>
        <time>2018-08-23T12:36:06.044Z</time>
      </trkpt>
      <trkpt lat="47.9253162" lon="-2.4101444">
        <ele>66.837</ele>
        <time>2018-08-23T12:36:08.960Z</time>
      </trkpt>
      <trkpt lat="47.9252547" lon="-2.4102591">
        <ele>67.710</ele>
        <time>2018-08-23T12:36:11.796Z</time>
      </trkpt>
      <trkpt lat="47.9251856" lon="-2.4103804">
        <ele>68.452</ele>
        <time>2018-08-23T12:36:14.756Z</time>
      </trkpt>
      <trkpt lat="47.9251143" lon="-2.4105253">
        <ele>69.033</ele>
        <time>2018-08-23T12:36:17.800Z</time>
      </trkpt>
      <trkpt lat="47.9250398" lon="-2.4107289">
        <ele>69.191</ele>
        <time>2018-08-23T12:36:21.403Z</time>
      </trkpt>
      <trkpt lat="47.9249672" lon="-2.4108856">
        <ele>68.580</ele>
        <time>2018-08-23T12:36:24.290Z</time>
      </trkpt>
      <trkpt lat="47.9248967" lon="-2.4110516">
        <ele>67.374</ele>
        <time>2018-08-23T12:36:27.352Z</time>
      </trkpt>
      <trkpt lat="47.9248551" lon="-2.4112209">
        <ele>66.329</ele>
        <time>2018-08-23T12:36:30.295Z</time>
      </trkpt>
      <trkpt lat="47.9248003" lon="-2.4113829">
        <ele>65.755</ele>
        <time>2018-08-23T12:36:33.228Z</time>
      </trkpt>
      <trkpt lat="47.9247406" lon="-2.4115517">
        <ele>65.380</ele>
        <time>2018-08-23T12:36:36.217Z</time>
      </trkpt>
      <trkpt lat="47.9246862" lon="-2.4117243">
        <ele>64.926</ele>
        <time>2018-08-23T12:36:39.049Z</time>
      </trkpt>
      <trkpt lat="47.9246295" lon="-2.4119334">
        <ele>64.313</ele>
        <time>2018-08-23T12:36:42.190Z</time>
      </trkpt>
      <trkpt lat="47.9245914" lon="-2.4120728">
        <ele>63.740</ele>
        <time>2018-08-23T12:36:44.296Z</time>
      </trkpt>
      <trkpt lat="47.9245321" lon="-2.4122462">
        <ele>63.279</ele>
        <time>2018-08-23T12:36:47.077Z</time>
      </trkpt>
      <trkpt lat="47.9245056" lon="-2.4123847">
        <ele>62.565</ele>
        <time>2018-08-23T12:36:49.080Z</time>
      </trkpt>
      <trkpt lat="47.9244823" lon="-2.4125303">
        <ele>61.463</ele>
        <time>2018-08-23T12:36:51.135Z</time>
      </trkpt>
      <trkpt lat="47.9244332" lon="-2.4127321">
        <ele>60.212</ele>
        <time>2018-08-23T12:36:54.099Z</time>
      </trkpt>
      <trkpt lat="47.9243830" lon="-2.4129192">
        <ele>59.024</ele>
        <time>2018-08-23T12:36:56.912Z</time>
      </trkpt>
      <trkpt lat="47.9243357" lon="-2.4131094">
        <ele>58.070</ele>
        <time>2018-08-23T12:36:59.874Z</time>
      </trkpt>
      <trkpt lat="47.9243069" lon="-2.4132764">
        <ele>57.488</ele>
        <time>2018-08-23T12:37:02.653Z</time>
      </trkpt>
      <trkpt lat="47.9242511" lon="-2.4134040">
        <ele>57.212</ele>
        <time>2018-08-23T12:37:05.252Z</time>
      </trkpt>
      <trkpt lat="47.9242117" lon="-2.4135427">
        <ele>57.113</ele>
        <time>2018-08-23T12:37:07.651Z</time>
      </trkpt>
      <trkpt lat="47.9241866" lon="-2.4137340">
        <ele>57.276</ele>
        <time>2018-08-23T12:37:10.623Z</time>
      </trkpt>
      <trkpt lat="47.9241558" lon="-2.4139173">
        <ele>58.021</ele>
        <time>2018-08-23T12:37:13.572Z</time>
      </trkpt>
      <trkpt lat="47.9241016" lon="-2.4140861">
        <ele>59.304</ele>
        <time>2018-08-23T12:37:16.518Z</time>
      </trkpt>
      <trkpt lat="47.9240625" lon="-2.4142257">
        <ele>60.481</ele>
        <time>2018-08-23T12:37:18.764Z</time>
      </trkpt>
      <trkpt lat="47.9240206" lon="-2.4144290">
        <ele>60.915</ele>
        <time>2018-08-23T12:37:21.933Z</time>
      </trkpt>
      <trkpt lat="47.9239599" lon="-2.4146182">
        <ele>60.350</ele>
        <time>2018-08-23T12:37:25.097Z</time>
      </trkpt>
      <trkpt lat="47.9239250" lon="-2.4147509">
        <ele>59.175</ele>
        <time>2018-08-23T12:37:27.124Z</time>
      </trkpt>
      <trkpt lat="47.9238932" lon="-2.4148983">
        <ele>58.223</ele>
        <time>2018-08-23T12:37:29.160Z</time>
      </trkpt>
      <trkpt lat="47.9238578" lon="-2.4151221">
        <ele>57.881</ele>
        <time>2018-08-23T12:37:32.130Z</time>
      </trkpt>
      <trkpt lat="47.9238260" lon="-2.4152700">
        <ele>57.854</ele>
        <time>2018-08-23T12:37:34.122Z</time>
      </trkpt>
      <trkpt lat="47.9237775" lon="-2.4154842">
        <ele>57.693</ele>
        <time>2018-08-23T12:37:37.039Z</time>
      </trkpt>
      <trkpt lat="47.9237281" lon="-2.4156893">
        <ele>57.286</ele>
        <time>2018-08-23T12:37:39.890Z</time>
      </trkpt>
      <trkpt lat="47.9236708" lon="-2.4158882">
        <ele>56.855</ele>
        <time>2018-08-23T12:37:42.798Z</time>
      </trkpt>
      <trkpt lat="47.9236192" lon="-2.4160755">
        <ele>56.535</ele>
        <time>2018-08-23T12:37:45.625Z</time>
      </trkpt>
      <trkpt lat="47.9235748" lon="-2.4162555">
        <ele>56.154</ele>
        <time>2018-08-23T12:37:48.404Z</time>
      </trkpt>
      <trkpt lat="47.9235324" lon="-2.4164314">
        <ele>55.524</ele>
        <time>2018-08-23T12:37:51.176Z</time>
      </trkpt>
      <trkpt lat="47.9234831" lon="-2.4166056">
        <ele>54.803</ele>
        <time>2018-08-23T12:37:54.056Z</time>
      </trkpt>
      <trkpt lat="47.9234543" lon="-2.4167705">
        <ele>54.338</ele>
        <time>2018-08-23T12:37:56.707Z</time>
      </trkpt>
      <trkpt lat="47.9234129" lon="-2.4169991">
        <ele>54.159</ele>
        <time>2018-08-23T12:38:00.151Z</time>
      </trkpt>
      <trkpt lat="47.9233767" lon="-2.4171241">
        <ele>54.103</ele>
        <time>2018-08-23T12:38:01.994Z</time>
      </trkpt>
      <trkpt lat="47.9233548" lon="-2.4172589">
        <ele>54.058</ele>
        <time>2018-08-23T12:38:03.827Z</time>
      </trkpt>
      <trkpt lat="47.9233248" lon="-2.4174078">
        <ele>53.983</ele>
        <time>2018-08-23T12:38:05.833Z</time>
      </trkpt>
      <trkpt lat="47.9232747" lon="-2.4176135">
        <ele>53.657</ele>
        <time>2018-08-23T12:38:08.652Z</time>
      </trkpt>
      <trkpt lat="47.9232454" lon="-2.4177513">
        <ele>52.950</ele>
        <time>2018-08-23T12:38:10.595Z</time>
      </trkpt>
      <trkpt lat="47.9231993" lon="-2.4179325">
        <ele>52.209</ele>
        <time>2018-08-23T12:38:13.317Z</time>
      </trkpt>
      <trkpt lat="47.9231688" lon="-2.4180593">
        <ele>51.957</ele>
        <time>2018-08-23T12:38:15.268Z</time>
      </trkpt>
      <trkpt lat="47.9231250" lon="-2.4182310">
        <ele>52.230</ele>
        <time>2018-08-23T12:38:17.965Z</time>
      </trkpt>
      <trkpt lat="47.9230735" lon="-2.4184239">
        <ele>52.520</ele>
        <time>2018-08-23T12:38:21.035Z</time>
      </trkpt>
      <trkpt lat="47.9230296" lon="-2.4185933">
        <ele>52.430</ele>
        <time>2018-08-23T12:38:23.782Z</time>
      </trkpt>
      <trkpt lat="47.9229572" lon="-2.4187235">
        <ele>52.158</ele>
        <time>2018-08-23T12:38:26.929Z</time>
      </trkpt>
      <trkpt lat="47.9229515" lon="-2.4188669">
        <ele>52.039</ele>
        <time>2018-08-23T12:38:30.199Z</time>
      </trkpt>
      <trkpt lat="47.9229265" lon="-2.4190134">
        <ele>52.300</ele>
        <time>2018-08-23T12:38:34.209Z</time>
      </trkpt>
      <trkpt lat="47.9228635" lon="-2.4191285">
        <ele>52.923</ele>
        <time>2018-08-23T12:38:38.108Z</time>
      </trkpt>
      <trkpt lat="47.9228339" lon="-2.4192778">
        <ele>53.533</ele>
        <time>2018-08-23T12:38:41.628Z</time>
      </trkpt>
      <trkpt lat="47.9228013" lon="-2.4194408">
        <ele>53.811</ele>
        <time>2018-08-23T12:38:44.797Z</time>
      </trkpt>
      <trkpt lat="47.9227573" lon="-2.4196065">
        <ele>53.782</ele>
        <time>2018-08-23T12:38:47.804Z</time>
      </trkpt>
      <trkpt lat="47.9227118" lon="-2.4197770">
        <ele>53.628</ele>
        <time>2018-08-23T12:38:50.733Z</time>
      </trkpt>
      <trkpt lat="47.9226687" lon="-2.4199582">
        <ele>53.476</ele>
        <time>2018-08-23T12:38:53.660Z</time>
      </trkpt>
      <trkpt lat="47.9226283" lon="-2.4201442">
        <ele>53.312</ele>
        <time>2018-08-23T12:38:56.502Z</time>
      </trkpt>
      <trkpt lat="47.9225851" lon="-2.4203253">
        <ele>53.129</ele>
        <time>2018-08-23T12:38:59.238Z</time>
      </trkpt>
      <trkpt lat="47.9225497" lon="-2.4204639">
        <ele>53.052</ele>
        <time>2018-08-23T12:39:01.355Z</time>
      </trkpt>
      <trkpt lat="47.9225157" lon="-2.4206146">
        <ele>53.156</ele>
        <time>2018-08-23T12:39:03.678Z</time>
      </trkpt>
      <trkpt lat="47.9224794" lon="-2.4207902">
        <ele>53.235</ele>
        <time>2018-08-23T12:39:06.508Z</time>
      </trkpt>
      <trkpt lat="47.9224358" lon="-2.4209675">
        <ele>52.972</ele>
        <time>2018-08-23T12:39:09.474Z</time>
      </trkpt>
      <trkpt lat="47.9224066" lon="-2.4211484">
        <ele>52.402</ele>
        <time>2018-08-23T12:39:12.260Z</time>
      </trkpt>
      <trkpt lat="47.9223564" lon="-2.4213412">
        <ele>51.852</ele>
        <time>2018-08-23T12:39:15.322Z</time>
      </trkpt>
      <trkpt lat="47.9222951" lon="-2.4215234">
        <ele>51.448</ele>
        <time>2018-08-23T12:39:18.270Z</time>
      </trkpt>
      <trkpt lat="47.9222554" lon="-2.4216485">
        <ele>50.872</ele>
        <time>2018-08-23T12:39:20.253Z</time>
      </trkpt>
      <trkpt lat="47.9222076" lon="-2.4217992">
        <ele>49.945</ele>
        <time>2018-08-23T12:39:22.662Z</time>
      </trkpt>
      <trkpt lat="47.9221617" lon="-2.4219602">
        <ele>49.044</ele>
        <time>2018-08-23T12:39:25.354Z</time>
      </trkpt>
      <trkpt lat="47.9221218" lon="-2.4221181">
        <ele>48.582</ele>
        <time>2018-08-23T12:39:28.107Z</time>
      </trkpt>
      <trkpt lat="47.9220787" lon="-2.4222901">
        <ele>48.505</ele>
        <time>2018-08-23T12:39:31.135Z</time>
      </trkpt>
      <trkpt lat="47.9220298" lon="-2.4224719">
        <ele>48.427</ele>
        <time>2018-08-23T12:39:34.334Z</time>
      </trkpt>
      <trkpt lat="47.9219711" lon="-2.4226296">
        <ele>48.093</ele>
        <time>2018-08-23T12:39:37.184Z</time>
      </trkpt>
      <trkpt lat="47.9219176" lon="-2.4227429">
        <ele>47.715</ele>
        <time>2018-08-23T12:39:39.406Z</time>
      </trkpt>
      <trkpt lat="47.9218560" lon="-2.4228780">
        <ele>47.565</ele>
        <time>2018-08-23T12:39:42.211Z</time>
      </trkpt>
      <trkpt lat="47.9217937" lon="-2.4230165">
        <ele>47.608</ele>
        <time>2018-08-23T12:39:45.372Z</time>
      </trkpt>
      <trkpt lat="47.9217282" lon="-2.4231640">
        <ele>47.704</ele>
        <time>2018-08-23T12:39:48.764Z</time>
      </trkpt>
      <trkpt lat="47.9216704" lon="-2.4232987">
        <ele>47.773</ele>
        <time>2018-08-23T12:39:51.750Z</time>
      </trkpt>
      <trkpt lat="47.9215998" lon="-2.4234410">
        <ele>47.814</ele>
        <time>2018-08-23T12:39:55.032Z</time>
      </trkpt>
      <trkpt lat="47.9215409" lon="-2.4236018">
        <ele>47.672</ele>
        <time>2018-08-23T12:39:58.390Z</time>
      </trkpt>
      <trkpt lat="47.9214774" lon="-2.4237503">
        <ele>47.107</ele>
        <time>2018-08-23T12:40:01.556Z</time>
      </trkpt>
      <trkpt lat="47.9214081" lon="-2.4238949">
        <ele>46.288</ele>
        <time>2018-08-23T12:40:04.737Z</time>
      </trkpt>
      <trkpt lat="47.9213396" lon="-2.4240280">
        <ele>45.865</ele>
        <time>2018-08-23T12:40:07.686Z</time>
      </trkpt>
      <trkpt lat="47.9212695" lon="-2.4241627">
        <ele>46.183</ele>
        <time>2018-08-23T12:40:10.692Z</time>
      </trkpt>
      <trkpt lat="47.9212007" lon="-2.4242995">
        <ele>46.876</ele>
        <time>2018-08-23T12:40:13.666Z</time>
      </trkpt>
      <trkpt lat="47.9211211" lon="-2.4244191">
        <ele>47.603</ele>
        <time>2018-08-23T12:40:16.591Z</time>
      </trkpt>
      <trkpt lat="47.9210537" lon="-2.4245376">
        <ele>48.474</ele>
        <time>2018-08-23T12:40:19.347Z</time>
      </trkpt>
      <trkpt lat="47.9209817" lon="-2.4246750">
        <ele>49.523</ele>
        <time>2018-08-23T12:40:22.493Z</time>
      </trkpt>
      <trkpt lat="47.9209165" lon="-2.4247993">
        <ele>50.631</ele>
        <time>2018-08-23T12:40:25.347Z</time>
      </trkpt>
      <trkpt lat="47.9208483" lon="-2.4249132">
        <ele>51.853</ele>
        <time>2018-08-23T12:40:28.086Z</time>
      </trkpt>
      <trkpt lat="47.9207755" lon="-2.4250293">
        <ele>53.066</ele>
        <time>2018-08-23T12:40:31.006Z</time>
      </trkpt>
      <trkpt lat="47.9207123" lon="-2.4251477">
        <ele>53.712</ele>
        <time>2018-08-23T12:40:33.867Z</time>
      </trkpt>
      <trkpt lat="47.9206507" lon="-2.4252657">
        <ele>53.566</ele>
        <time>2018-08-23T12:40:36.768Z</time>
      </trkpt>
      <trkpt lat="47.9205706" lon="-2.4253935">
        <ele>53.118</ele>
        <time>2018-08-23T12:40:40.232Z</time>
      </trkpt>
      <trkpt lat="47.9204768" lon="-2.4255245">
        <ele>52.504</ele>
        <time>2018-08-23T12:40:43.890Z</time>
      </trkpt>
      <trkpt lat="47.9203752" lon="-2.4256415">
        <ele>50.954</ele>
        <time>2018-08-23T12:40:47.240Z</time>
      </trkpt>
      <trkpt lat="47.9202752" lon="-2.4257540">
        <ele>47.881</ele>
        <time>2018-08-23T12:40:50.317Z</time>
      </trkpt>
      <trkpt lat="47.9201839" lon="-2.4258860">
        <ele>44.265</ele>
        <time>2018-08-23T12:40:53.294Z</time>
      </trkpt>
      <trkpt lat="47.9200900" lon="-2.4260013">
        <ele>41.897</ele>
        <time>2018-08-23T12:40:56.051Z</time>
      </trkpt>
      <trkpt lat="47.9199899" lon="-2.4261154">
        <ele>41.300</ele>
        <time>2018-08-23T12:40:58.955Z</time>
      </trkpt>
      <trkpt lat="47.9198922" lon="-2.4262270">
        <ele>41.549</ele>
        <time>2018-08-23T12:41:01.852Z</time>
      </trkpt>
      <trkpt lat="47.9198005" lon="-2.4263354">
        <ele>41.739</ele>
        <time>2018-08-23T12:41:04.614Z</time>
      </trkpt>
      <trkpt lat="47.9197069" lon="-2.4264426">
        <ele>41.401</ele>
        <time>2018-08-23T12:41:07.444Z</time>
      </trkpt>
      <trkpt lat="47.9196126" lon="-2.4265502">
        <ele>40.583</ele>
        <time>2018-08-23T12:41:10.315Z</time>
      </trkpt>
      <trkpt lat="47.9195169" lon="-2.4266492">
        <ele>39.843</ele>
        <time>2018-08-23T12:41:13.118Z</time>
      </trkpt>
      <trkpt lat="47.9194214" lon="-2.4267383">
        <ele>39.578</ele>
        <time>2018-08-23T12:41:15.832Z</time>
      </trkpt>
      <trkpt lat="47.9193354" lon="-2.4268185">
        <ele>39.710</ele>
        <time>2018-08-23T12:41:18.311Z</time>
      </trkpt>
      <trkpt lat="47.9192459" lon="-2.4268502">
        <ele>40.101</ele>
        <time>2018-08-23T12:41:20.760Z</time>
      </trkpt>
      <trkpt lat="47.9191740" lon="-2.4269546">
        <ele>40.576</ele>
        <time>2018-08-23T12:41:23.993Z</time>
      </trkpt>
      <trkpt lat="47.9190984" lon="-2.4270484">
        <ele>41.076</ele>
        <time>2018-08-23T12:41:28.468Z</time>
      </trkpt>
      <trkpt lat="47.9190050" lon="-2.4271216">
        <ele>41.627</ele>
        <time>2018-08-23T12:41:33.400Z</time>
      </trkpt>
      <trkpt lat="47.9188999" lon="-2.4272078">
        <ele>42.062</ele>
        <time>2018-08-23T12:41:38.210Z</time>
      </trkpt>
      <trkpt lat="47.9187900" lon="-2.4272982">
        <ele>42.165</ele>
        <time>2018-08-23T12:41:41.892Z</time>
      </trkpt>
      <trkpt lat="47.9186854" lon="-2.4273679">
        <ele>41.960</ele>
        <time>2018-08-23T12:41:44.769Z</time>
      </trkpt>
      <trkpt lat="47.9185873" lon="-2.4274337">
        <ele>41.503</ele>
        <time>2018-08-23T12:41:47.287Z</time>
      </trkpt>
      <trkpt lat="47.9184903" lon="-2.4274862">
        <ele>40.924</ele>
        <time>2018-08-23T12:41:49.689Z</time>
      </trkpt>
      <trkpt lat="47.9183835" lon="-2.4275389">
        <ele>40.554</ele>
        <time>2018-08-23T12:41:52.482Z</time>
      </trkpt>
      <trkpt lat="47.9182788" lon="-2.4276013">
        <ele>40.575</ele>
        <time>2018-08-23T12:41:55.462Z</time>
      </trkpt>
      <trkpt lat="47.9181781" lon="-2.4276753">
        <ele>40.896</ele>
        <time>2018-08-23T12:41:58.382Z</time>
      </trkpt>
      <trkpt lat="47.9180625" lon="-2.4277432">
        <ele>41.223</ele>
        <time>2018-08-23T12:42:01.499Z</time>
      </trkpt>
      <trkpt lat="47.9179690" lon="-2.4277780">
        <ele>41.145</ele>
        <time>2018-08-23T12:42:04.040Z</time>
      </trkpt>
      <trkpt lat="47.9178801" lon="-2.4278043">
        <ele>40.659</ele>
        <time>2018-08-23T12:42:06.427Z</time>
      </trkpt>
      <trkpt lat="47.9177600" lon="-2.4278618">
        <ele>40.141</ele>
        <time>2018-08-23T12:42:09.500Z</time>
      </trkpt>
      <trkpt lat="47.9176519" lon="-2.4279224">
        <ele>39.719</ele>
        <time>2018-08-23T12:42:12.069Z</time>
      </trkpt>
      <trkpt lat="47.9175446" lon="-2.4279855">
        <ele>39.123</ele>
        <time>2018-08-23T12:42:14.735Z</time>
      </trkpt>
      <trkpt lat="47.9174392" lon="-2.4280292">
        <ele>38.247</ele>
        <time>2018-08-23T12:42:17.407Z</time>
      </trkpt>
      <trkpt lat="47.9173423" lon="-2.4280725">
        <ele>37.681</ele>
        <time>2018-08-23T12:42:19.959Z</time>
      </trkpt>
      <trkpt lat="47.9172356" lon="-2.4281354">
        <ele>38.141</ele>
        <time>2018-08-23T12:42:22.924Z</time>
      </trkpt>
      <trkpt lat="47.9171417" lon="-2.4282036">
        <ele>39.377</ele>
        <time>2018-08-23T12:42:25.752Z</time>
      </trkpt>
      <trkpt lat="47.9170342" lon="-2.4282665">
        <ele>40.423</ele>
        <time>2018-08-23T12:42:29.092Z</time>
      </trkpt>
      <trkpt lat="47.9169177" lon="-2.4283043">
        <ele>40.757</ele>
        <time>2018-08-23T12:42:32.589Z</time>
      </trkpt>
      <trkpt lat="47.9168033" lon="-2.4283356">
        <ele>40.635</ele>
        <time>2018-08-23T12:42:35.787Z</time>
      </trkpt>
      <trkpt lat="47.9167039" lon="-2.4283936">
        <ele>40.471</ele>
        <time>2018-08-23T12:42:38.526Z</time>
      </trkpt>
      <trkpt lat="47.9165963" lon="-2.4284623">
        <ele>40.452</ele>
        <time>2018-08-23T12:42:41.451Z</time>
      </trkpt>
      <trkpt lat="47.9164742" lon="-2.4285271">
        <ele>40.473</ele>
        <time>2018-08-23T12:42:44.789Z</time>
      </trkpt>
      <trkpt lat="47.9163604" lon="-2.4285706">
        <ele>40.275</ele>
        <time>2018-08-23T12:42:47.975Z</time>
      </trkpt>
      <trkpt lat="47.9162637" lon="-2.4286133">
        <ele>39.815</ele>
        <time>2018-08-23T12:42:50.692Z</time>
      </trkpt>
      <trkpt lat="47.9161530" lon="-2.4286604">
        <ele>39.299</ele>
        <time>2018-08-23T12:42:53.780Z</time>
      </trkpt>
      <trkpt lat="47.9160570" lon="-2.4286898">
        <ele>38.824</ele>
        <time>2018-08-23T12:42:56.463Z</time>
      </trkpt>
      <trkpt lat="47.9159658" lon="-2.4287155">
        <ele>38.230</ele>
        <time>2018-08-23T12:42:59.143Z</time>
      </trkpt>
      <trkpt lat="47.9158832" lon="-2.4287781">
        <ele>37.464</ele>
        <time>2018-08-23T12:43:01.963Z</time>
      </trkpt>
      <trkpt lat="47.9157702" lon="-2.4288450">
        <ele>36.774</ele>
        <time>2018-08-23T12:43:05.961Z</time>
      </trkpt>
      <trkpt lat="47.9156788" lon="-2.4288806">
        <ele>36.427</ele>
        <time>2018-08-23T12:43:09.320Z</time>
      </trkpt>
      <trkpt lat="47.9155899" lon="-2.4289424">
        <ele>36.743</ele>
        <time>2018-08-23T12:43:13.287Z</time>
      </trkpt>
      <trkpt lat="47.9154785" lon="-2.4289940">
        <ele>38.420</ele>
        <time>2018-08-23T12:43:17.862Z</time>
      </trkpt>
      <trkpt lat="47.9153843" lon="-2.4290251">
        <ele>41.302</ele>
        <time>2018-08-23T12:43:21.399Z</time>
      </trkpt>
      <trkpt lat="47.9152703" lon="-2.4290817">
        <ele>43.990</ele>
        <time>2018-08-23T12:43:26.047Z</time>
      </trkpt>
      <trkpt lat="47.9151814" lon="-2.4291140">
        <ele>45.638</ele>
        <time>2018-08-23T12:43:29.730Z</time>
      </trkpt>
      <trkpt lat="47.9150899" lon="-2.4291371">
        <ele>46.495</ele>
        <time>2018-08-23T12:43:33.496Z</time>
      </trkpt>
      <trkpt lat="47.9149973" lon="-2.4291753">
        <ele>46.877</ele>
        <time>2018-08-23T12:43:37.288Z</time>
      </trkpt>
      <trkpt lat="47.9149063" lon="-2.4292055">
        <ele>46.928</ele>
        <time>2018-08-23T12:43:40.858Z</time>
      </trkpt>
      <trkpt lat="47.9148060" lon="-2.4292243">
        <ele>46.782</ele>
        <time>2018-08-23T12:43:45.283Z</time>
      </trkpt>
      <trkpt lat="47.9146959" lon="-2.4292599">
        <ele>46.626</ele>
        <time>2018-08-23T12:43:50.182Z</time>
      </trkpt>
      <trkpt lat="47.9145871" lon="-2.4292835">
        <ele>46.633</ele>
        <time>2018-08-23T12:43:54.221Z</time>
      </trkpt>
      <trkpt lat="47.9144858" lon="-2.4293096">
        <ele>46.853</ele>
        <time>2018-08-23T12:43:57.616Z</time>
      </trkpt>
      <trkpt lat="47.9143718" lon="-2.4293366">
        <ele>47.162</ele>
        <time>2018-08-23T12:44:01.259Z</time>
      </trkpt>
      <trkpt lat="47.9142792" lon="-2.4293574">
        <ele>47.251</ele>
        <time>2018-08-23T12:44:04.194Z</time>
      </trkpt>
      <trkpt lat="47.9141588" lon="-2.4293816">
        <ele>46.938</ele>
        <time>2018-08-23T12:44:08.007Z</time>
      </trkpt>
      <trkpt lat="47.9140680" lon="-2.4294049">
        <ele>46.406</ele>
        <time>2018-08-23T12:44:10.814Z</time>
      </trkpt>
      <trkpt lat="47.9139763" lon="-2.4294290">
        <ele>45.945</ele>
        <time>2018-08-23T12:44:13.738Z</time>
      </trkpt>
      <trkpt lat="47.9138670" lon="-2.4294664">
        <ele>45.671</ele>
        <time>2018-08-23T12:44:17.601Z</time>
      </trkpt>
      <trkpt lat="47.9137741" lon="-2.4294694">
        <ele>45.530</ele>
        <time>2018-08-23T12:44:20.972Z</time>
      </trkpt>
      <trkpt lat="47.9136560" lon="-2.4294990">
        <ele>45.335</ele>
        <time>2018-08-23T12:44:25.100Z</time>
      </trkpt>
      <trkpt lat="47.9135569" lon="-2.4295618">
        <ele>44.949</ele>
        <time>2018-08-23T12:44:28.621Z</time>
      </trkpt>
      <trkpt lat="47.9134552" lon="-2.4296147">
        <ele>44.489</ele>
        <time>2018-08-23T12:44:32.137Z</time>
      </trkpt>
      <trkpt lat="47.9133446" lon="-2.4296474">
        <ele>44.145</ele>
        <time>2018-08-23T12:44:35.816Z</time>
      </trkpt>
      <trkpt lat="47.9132478" lon="-2.4296729">
        <ele>43.948</ele>
        <time>2018-08-23T12:44:38.913Z</time>
      </trkpt>
      <trkpt lat="47.9131408" lon="-2.4297054">
        <ele>43.639</ele>
        <time>2018-08-23T12:44:42.122Z</time>
      </trkpt>
      <trkpt lat="47.9130409" lon="-2.4297436">
        <ele>42.945</ele>
        <time>2018-08-23T12:44:45.149Z</time>
      </trkpt>
      <trkpt lat="47.9129418" lon="-2.4297875">
        <ele>42.069</ele>
        <time>2018-08-23T12:44:48.268Z</time>
      </trkpt>
      <trkpt lat="47.9128390" lon="-2.4298456">
        <ele>41.214</ele>
        <time>2018-08-23T12:44:51.548Z</time>
      </trkpt>
      <trkpt lat="47.9127339" lon="-2.4298939">
        <ele>40.345</ele>
        <time>2018-08-23T12:44:54.733Z</time>
      </trkpt>
      <trkpt lat="47.9126339" lon="-2.4299466">
        <ele>39.730</ele>
        <time>2018-08-23T12:44:57.806Z</time>
      </trkpt>
      <trkpt lat="47.9125393" lon="-2.4299997">
        <ele>39.588</ele>
        <time>2018-08-23T12:45:00.740Z</time>
      </trkpt>
      <trkpt lat="47.9124360" lon="-2.4300551">
        <ele>39.661</ele>
        <time>2018-08-23T12:45:03.921Z</time>
      </trkpt>
      <trkpt lat="47.9123385" lon="-2.4301106">
        <ele>39.601</ele>
        <time>2018-08-23T12:45:06.988Z</time>
      </trkpt>
      <trkpt lat="47.9122477" lon="-2.4301648">
        <ele>39.423</ele>
        <time>2018-08-23T12:45:09.924Z</time>
      </trkpt>
      <trkpt lat="47.9121583" lon="-2.4302229">
        <ele>39.191</ele>
        <time>2018-08-23T12:45:12.863Z</time>
      </trkpt>
      <trkpt lat="47.9120657" lon="-2.4302931">
        <ele>38.804</ele>
        <time>2018-08-23T12:45:15.966Z</time>
      </trkpt>
      <trkpt lat="47.9119756" lon="-2.4303569">
        <ele>38.353</ele>
        <time>2018-08-23T12:45:18.970Z</time>
      </trkpt>
      <trkpt lat="47.9118838" lon="-2.4304114">
        <ele>37.862</ele>
        <time>2018-08-23T12:45:21.999Z</time>
      </trkpt>
      <trkpt lat="47.9117984" lon="-2.4304758">
        <ele>37.139</ele>
        <time>2018-08-23T12:45:24.971Z</time>
      </trkpt>
      <trkpt lat="47.9117128" lon="-2.4305376">
        <ele>36.380</ele>
        <time>2018-08-23T12:45:28.010Z</time>
      </trkpt>
      <trkpt lat="47.9116264" lon="-2.4305989">
        <ele>35.919</ele>
        <time>2018-08-23T12:45:31.176Z</time>
      </trkpt>
      <trkpt lat="47.9115482" lon="-2.4306669">
        <ele>35.846</ele>
        <time>2018-08-23T12:45:34.160Z</time>
      </trkpt>
      <trkpt lat="47.9114657" lon="-2.4307351">
        <ele>36.019</ele>
        <time>2018-08-23T12:45:37.247Z</time>
      </trkpt>
      <trkpt lat="47.9113609" lon="-2.4307966">
        <ele>36.216</ele>
        <time>2018-08-23T12:45:40.941Z</time>
      </trkpt>
      <trkpt lat="47.9112727" lon="-2.4308403">
        <ele>36.310</ele>
        <time>2018-08-23T12:45:43.914Z</time>
      </trkpt>
      <trkpt lat="47.9111770" lon="-2.4308910">
        <ele>36.218</ele>
        <time>2018-08-23T12:45:47.051Z</time>
      </trkpt>
      <trkpt lat="47.9110869" lon="-2.4309527">
        <ele>35.942</ele>
        <time>2018-08-23T12:45:50.090Z</time>
      </trkpt>
      <trkpt lat="47.9109997" lon="-2.4310085">
        <ele>35.683</ele>
        <time>2018-08-23T12:45:53.023Z</time>
      </trkpt>
      <trkpt lat="47.9109132" lon="-2.4310636">
        <ele>35.640</ele>
        <time>2018-08-23T12:45:55.868Z</time>
      </trkpt>
      <trkpt lat="47.9108134" lon="-2.4311152">
        <ele>35.767</ele>
        <time>2018-08-23T12:45:58.974Z</time>
      </trkpt>
      <trkpt lat="47.9107212" lon="-2.4311648">
        <ele>35.853</ele>
        <time>2018-08-23T12:46:01.842Z</time>
      </trkpt>
      <trkpt lat="47.9106275" lon="-2.4312090">
        <ele>35.833</ele>
        <time>2018-08-23T12:46:04.694Z</time>
      </trkpt>
      <trkpt lat="47.9105282" lon="-2.4312513">
        <ele>35.983</ele>
        <time>2018-08-23T12:46:07.637Z</time>
      </trkpt>
      <trkpt lat="47.9104274" lon="-2.4312859">
        <ele>36.566</ele>
        <time>2018-08-23T12:46:10.548Z</time>
      </trkpt>
      <trkpt lat="47.9103265" lon="-2.4313192">
        <ele>37.475</ele>
        <time>2018-08-23T12:46:13.426Z</time>
      </trkpt>
      <trkpt lat="47.9102248" lon="-2.4313511">
        <ele>38.393</ele>
        <time>2018-08-23T12:46:16.275Z</time>
      </trkpt>
      <trkpt lat="47.9101230" lon="-2.4313801">
        <ele>39.179</ele>
        <time>2018-08-23T12:46:19.079Z</time>
      </trkpt>
      <trkpt lat="47.9100184" lon="-2.4314065">
        <ele>39.907</ele>
        <time>2018-08-23T12:46:21.935Z</time>
      </trkpt>
      <trkpt lat="47.9099179" lon="-2.4314345">
        <ele>40.588</ele>
        <time>2018-08-23T12:46:24.752Z</time>
      </trkpt>
      <trkpt lat="47.9098029" lon="-2.4314599">
        <ele>41.032</ele>
        <time>2018-08-23T12:46:28.121Z</time>
      </trkpt>
      <trkpt lat="47.9097105" lon="-2.4314785">
        <ele>41.173</ele>
        <time>2018-08-23T12:46:31.030Z</time>
      </trkpt>
      <trkpt lat="47.9096098" lon="-2.4314924">
        <ele>41.153</ele>
        <time>2018-08-23T12:46:34.130Z</time>
      </trkpt>
      <trkpt lat="47.9095077" lon="-2.4315023">
        <ele>40.956</ele>
        <time>2018-08-23T12:46:37.183Z</time>
      </trkpt>
      <trkpt lat="47.9094035" lon="-2.4315127">
        <ele>40.464</ele>
        <time>2018-08-23T12:46:40.339Z</time>
      </trkpt>
      <trkpt lat="47.9093047" lon="-2.4315227">
        <ele>39.852</ele>
        <time>2018-08-23T12:46:43.351Z</time>
      </trkpt>
      <trkpt lat="47.9092078" lon="-2.4315297">
        <ele>39.561</ele>
        <time>2018-08-23T12:46:46.275Z</time>
      </trkpt>
      <trkpt lat="47.9091020" lon="-2.4315318">
        <ele>39.726</ele>
        <time>2018-08-23T12:46:49.374Z</time>
      </trkpt>
      <trkpt lat="47.9090059" lon="-2.4315510">
        <ele>39.978</ele>
        <time>2018-08-23T12:46:52.212Z</time>
      </trkpt>
      <trkpt lat="47.9089109" lon="-2.4315672">
        <ele>39.898</ele>
        <time>2018-08-23T12:46:55.065Z</time>
      </trkpt>
      <trkpt lat="47.9087881" lon="-2.4315730">
        <ele>39.520</ele>
        <time>2018-08-23T12:46:58.856Z</time>
      </trkpt>
      <trkpt lat="47.9086957" lon="-2.4315692">
        <ele>39.177</ele>
        <time>2018-08-23T12:47:01.785Z</time>
      </trkpt>
      <trkpt lat="47.9085968" lon="-2.4315753">
        <ele>39.053</ele>
        <time>2018-08-23T12:47:04.933Z</time>
      </trkpt>
      <trkpt lat="47.9084817" lon="-2.4315847">
        <ele>38.772</ele>
        <time>2018-08-23T12:47:08.448Z</time>
      </trkpt>
      <trkpt lat="47.9083725" lon="-2.4315942">
        <ele>37.710</ele>
        <time>2018-08-23T12:47:11.691Z</time>
      </trkpt>
      <trkpt lat="47.9082816" lon="-2.4316099">
        <ele>36.075</ele>
        <time>2018-08-23T12:47:14.498Z</time>
      </trkpt>
      <trkpt lat="47.9081699" lon="-2.4316315">
        <ele>34.873</ele>
        <time>2018-08-23T12:47:18.196Z</time>
      </trkpt>
      <trkpt lat="47.9080770" lon="-2.4316481">
        <ele>34.896</ele>
        <time>2018-08-23T12:47:21.643Z</time>
      </trkpt>
      <trkpt lat="47.9079806" lon="-2.4316640">
        <ele>36.293</ele>
        <time>2018-08-23T12:47:25.552Z</time>
      </trkpt>
      <trkpt lat="47.9078860" lon="-2.4316628">
        <ele>38.291</ele>
        <time>2018-08-23T12:47:29.284Z</time>
      </trkpt>
      <trkpt lat="47.9077946" lon="-2.4316693">
        <ele>39.733</ele>
        <time>2018-08-23T12:47:33.000Z</time>
      </trkpt>
      <trkpt lat="47.9077946" lon="-2.4316693">
        <ele>40.229</ele>
        <time>2018-08-23T12:47:48.000Z</time>
      </trkpt>
      <trkpt lat="47.9077946" lon="-2.4316693">
        <ele>40.168</ele>
        <time>2018-08-23T12:48:32.743Z</time>
      </trkpt>
      <trkpt lat="47.9075660" lon="-2.4316797">
        <ele>40.043</ele>
        <time>2018-08-23T12:48:48.736Z</time>
      </trkpt>
      <trkpt lat="47.9074687" lon="-2.4316845">
        <ele>40.335</ele>
        <time>2018-08-23T12:48:52.617Z</time>
      </trkpt>
      <trkpt lat="47.9073591" lon="-2.4316831">
        <ele>41.133</ele>
        <time>2018-08-23T12:48:56.630Z</time>
      </trkpt>
      <trkpt lat="47.9072409" lon="-2.4317075">
        <ele>41.829</ele>
        <time>2018-08-23T12:49:00.919Z</time>
      </trkpt>
      <trkpt lat="47.9071306" lon="-2.4317321">
        <ele>41.912</ele>
        <time>2018-08-23T12:49:05.271Z</time>
      </trkpt>
      <trkpt lat="47.9070276" lon="-2.4317409">
        <ele>41.623</ele>
        <time>2018-08-23T12:49:09.571Z</time>
      </trkpt>
      <trkpt lat="47.9069291" lon="-2.4317731">
        <ele>41.242</ele>
        <time>2018-08-23T12:49:13.702Z</time>
      </trkpt>
      <trkpt lat="47.9068308" lon="-2.4318148">
        <ele>40.789</ele>
        <time>2018-08-23T12:49:17.493Z</time>
      </trkpt>
      <trkpt lat="47.9067374" lon="-2.4318471">
        <ele>40.341</ele>
        <time>2018-08-23T12:49:20.987Z</time>
      </trkpt>
      <trkpt lat="47.9066312" lon="-2.4318759">
        <ele>40.068</ele>
        <time>2018-08-23T12:49:25.141Z</time>
      </trkpt>
      <trkpt lat="47.9065253" lon="-2.4319173">
        <ele>40.035</ele>
        <time>2018-08-23T12:49:29.616Z</time>
      </trkpt>
      <trkpt lat="47.9064335" lon="-2.4319431">
        <ele>40.349</ele>
        <time>2018-08-23T12:49:33.255Z</time>
      </trkpt>
      <trkpt lat="47.9063274" lon="-2.4319892">
        <ele>40.974</ele>
        <time>2018-08-23T12:49:37.081Z</time>
      </trkpt>
      <trkpt lat="47.9062320" lon="-2.4320205">
        <ele>41.462</ele>
        <time>2018-08-23T12:49:40.143Z</time>
      </trkpt>
      <trkpt lat="47.9061171" lon="-2.4320276">
        <ele>41.259</ele>
        <time>2018-08-23T12:49:43.433Z</time>
      </trkpt>
      <trkpt lat="47.9060017" lon="-2.4320459">
        <ele>40.384</ele>
        <time>2018-08-23T12:49:46.555Z</time>
      </trkpt>
      <trkpt lat="47.9058748" lon="-2.4320816">
        <ele>39.069</ele>
        <time>2018-08-23T12:49:50.009Z</time>
      </trkpt>
      <trkpt lat="47.9057523" lon="-2.4321323">
        <ele>37.397</ele>
        <time>2018-08-23T12:49:53.508Z</time>
      </trkpt>
      <trkpt lat="47.9056325" lon="-2.4321745">
        <ele>35.496</ele>
        <time>2018-08-23T12:49:57.028Z</time>
      </trkpt>
      <trkpt lat="47.9055219" lon="-2.4322089">
        <ele>33.810</ele>
        <time>2018-08-23T12:50:00.500Z</time>
      </trkpt>
      <trkpt lat="47.9054121" lon="-2.4322287">
        <ele>32.798</ele>
        <time>2018-08-23T12:50:04.105Z</time>
      </trkpt>
      <trkpt lat="47.9053080" lon="-2.4322544">
        <ele>32.556</ele>
        <time>2018-08-23T12:50:07.521Z</time>
      </trkpt>
      <trkpt lat="47.9052158" lon="-2.4322904">
        <ele>32.752</ele>
        <time>2018-08-23T12:50:10.600Z</time>
      </trkpt>
      <trkpt lat="47.9051233" lon="-2.4323132">
        <ele>33.230</ele>
        <time>2018-08-23T12:50:13.655Z</time>
      </trkpt>
      <trkpt lat="47.9050272" lon="-2.4323400">
        <ele>33.964</ele>
        <time>2018-08-23T12:50:16.774Z</time>
      </trkpt>
      <trkpt lat="47.9049278" lon="-2.4323887">
        <ele>34.736</ele>
        <time>2018-08-23T12:50:20.049Z</time>
      </trkpt>
      <trkpt lat="47.9048111" lon="-2.4324469">
        <ele>35.289</ele>
        <time>2018-08-23T12:50:24.354Z</time>
      </trkpt>
      <trkpt lat="47.9047092" lon="-2.4325050">
        <ele>35.583</ele>
        <time>2018-08-23T12:50:29.412Z</time>
      </trkpt>
      <trkpt lat="47.9046040" lon="-2.4325604">
        <ele>35.674</ele>
        <time>2018-08-23T12:50:34.816Z</time>
      </trkpt>
      <trkpt lat="47.9045157" lon="-2.4326199">
        <ele>35.681</ele>
        <time>2018-08-23T12:50:39.562Z</time>
      </trkpt>
      <trkpt lat="47.9044219" lon="-2.4326798">
        <ele>35.792</ele>
        <time>2018-08-23T12:50:43.784Z</time>
      </trkpt>
      <trkpt lat="47.9043201" lon="-2.4327062">
        <ele>36.067</ele>
        <time>2018-08-23T12:50:47.336Z</time>
      </trkpt>
      <trkpt lat="47.9042249" lon="-2.4327685">
        <ele>36.166</ele>
        <time>2018-08-23T12:50:50.413Z</time>
      </trkpt>
      <trkpt lat="47.9041447" lon="-2.4328573">
        <ele>35.850</ele>
        <time>2018-08-23T12:50:53.158Z</time>
      </trkpt>
      <trkpt lat="47.9040544" lon="-2.4329119">
        <ele>35.393</ele>
        <time>2018-08-23T12:50:55.747Z</time>
      </trkpt>
      <trkpt lat="47.9039542" lon="-2.4329584">
        <ele>35.097</ele>
        <time>2018-08-23T12:50:58.489Z</time>
      </trkpt>
      <trkpt lat="47.9038518" lon="-2.4330178">
        <ele>34.950</ele>
        <time>2018-08-23T12:51:01.318Z</time>
      </trkpt>
      <trkpt lat="47.9037489" lon="-2.4330760">
        <ele>34.822</ele>
        <time>2018-08-23T12:51:04.093Z</time>
      </trkpt>
      <trkpt lat="47.9036468" lon="-2.4331320">
        <ele>34.621</ele>
        <time>2018-08-23T12:51:06.783Z</time>
      </trkpt>
      <trkpt lat="47.9035402" lon="-2.4331919">
        <ele>34.397</ele>
        <time>2018-08-23T12:51:09.575Z</time>
      </trkpt>
      <trkpt lat="47.9034345" lon="-2.4332434">
        <ele>34.208</ele>
        <time>2018-08-23T12:51:12.300Z</time>
      </trkpt>
      <trkpt lat="47.9033234" lon="-2.4333045">
        <ele>34.017</ele>
        <time>2018-08-23T12:51:15.198Z</time>
      </trkpt>
      <trkpt lat="47.9032142" lon="-2.4333682">
        <ele>33.823</ele>
        <time>2018-08-23T12:51:18.046Z</time>
      </trkpt>
      <trkpt lat="47.9031025" lon="-2.4334287">
        <ele>33.719</ele>
        <time>2018-08-23T12:51:20.925Z</time>
      </trkpt>
      <trkpt lat="47.9029932" lon="-2.4334926">
        <ele>33.748</ele>
        <time>2018-08-23T12:51:23.798Z</time>
      </trkpt>
      <trkpt lat="47.9028820" lon="-2.4335533">
        <ele>33.941</ele>
        <time>2018-08-23T12:51:26.726Z</time>
      </trkpt>
      <trkpt lat="47.9027737" lon="-2.4336205">
        <ele>34.270</ele>
        <time>2018-08-23T12:51:29.652Z</time>
      </trkpt>
      <trkpt lat="47.9026647" lon="-2.4336913">
        <ele>34.401</ele>
        <time>2018-08-23T12:51:32.662Z</time>
      </trkpt>
      <trkpt lat="47.9025531" lon="-2.4337631">
        <ele>34.113</ele>
        <time>2018-08-23T12:51:35.802Z</time>
      </trkpt>
      <trkpt lat="47.9024483" lon="-2.4338288">
        <ele>33.706</ele>
        <time>2018-08-23T12:51:38.765Z</time>
      </trkpt>
      <trkpt lat="47.9023532" lon="-2.4338940">
        <ele>33.489</ele>
        <time>2018-08-23T12:51:41.474Z</time>
      </trkpt>
      <trkpt lat="47.9022514" lon="-2.4339572">
        <ele>33.354</ele>
        <time>2018-08-23T12:51:44.286Z</time>
      </trkpt>
      <trkpt lat="47.9021487" lon="-2.4340213">
        <ele>33.141</ele>
        <time>2018-08-23T12:51:47.077Z</time>
      </trkpt>
      <trkpt lat="47.9020407" lon="-2.4340793">
        <ele>32.924</ele>
        <time>2018-08-23T12:51:49.917Z</time>
      </trkpt>
      <trkpt lat="47.9019305" lon="-2.4341358">
        <ele>32.890</ele>
        <time>2018-08-23T12:51:52.775Z</time>
      </trkpt>
      <trkpt lat="47.9018185" lon="-2.4341913">
        <ele>33.052</ele>
        <time>2018-08-23T12:51:55.657Z</time>
      </trkpt>
      <trkpt lat="47.9017085" lon="-2.4342519">
        <ele>33.274</ele>
        <time>2018-08-23T12:51:58.500Z</time>
      </trkpt>
      <trkpt lat="47.9015977" lon="-2.4343172">
        <ele>33.451</ele>
        <time>2018-08-23T12:52:01.340Z</time>
      </trkpt>
      <trkpt lat="47.9014880" lon="-2.4343799">
        <ele>33.651</ele>
        <time>2018-08-23T12:52:04.094Z</time>
      </trkpt>
      <trkpt lat="47.9013773" lon="-2.4344436">
        <ele>34.088</ele>
        <time>2018-08-23T12:52:06.866Z</time>
      </trkpt>
      <trkpt lat="47.9012636" lon="-2.4345061">
        <ele>34.837</ele>
        <time>2018-08-23T12:52:09.677Z</time>
      </trkpt>
      <trkpt lat="47.9011491" lon="-2.4345691">
        <ele>35.599</ele>
        <time>2018-08-23T12:52:12.516Z</time>
      </trkpt>
      <trkpt lat="47.9010349" lon="-2.4346287">
        <ele>36.028</ele>
        <time>2018-08-23T12:52:15.331Z</time>
      </trkpt>
      <trkpt lat="47.9009205" lon="-2.4346917">
        <ele>36.024</ele>
        <time>2018-08-23T12:52:18.156Z</time>
      </trkpt>
      <trkpt lat="47.9008044" lon="-2.4347477">
        <ele>35.741</ele>
        <time>2018-08-23T12:52:20.956Z</time>
      </trkpt>
      <trkpt lat="47.9006853" lon="-2.4348086">
        <ele>35.393</ele>
        <time>2018-08-23T12:52:23.825Z</time>
      </trkpt>
      <trkpt lat="47.9005653" lon="-2.4348800">
        <ele>35.101</ele>
        <time>2018-08-23T12:52:26.780Z</time>
      </trkpt>
      <trkpt lat="47.9004488" lon="-2.4349507">
        <ele>34.794</ele>
        <time>2018-08-23T12:52:29.680Z</time>
      </trkpt>
      <trkpt lat="47.9003373" lon="-2.4350243">
        <ele>34.322</ele>
        <time>2018-08-23T12:52:32.498Z</time>
      </trkpt>
      <trkpt lat="47.9002224" lon="-2.4350900">
        <ele>33.725</ele>
        <time>2018-08-23T12:52:35.335Z</time>
      </trkpt>
      <trkpt lat="47.9001085" lon="-2.4351614">
        <ele>33.069</ele>
        <time>2018-08-23T12:52:38.161Z</time>
      </trkpt>
      <trkpt lat="47.8999948" lon="-2.4352336">
        <ele>32.368</ele>
        <time>2018-08-23T12:52:40.951Z</time>
      </trkpt>
      <trkpt lat="47.8998767" lon="-2.4353070">
        <ele>31.810</ele>
        <time>2018-08-23T12:52:43.814Z</time>
      </trkpt>
      <trkpt lat="47.8997575" lon="-2.4353762">
        <ele>31.587</ele>
        <time>2018-08-23T12:52:46.678Z</time>
      </trkpt>
      <trkpt lat="47.8996381" lon="-2.4354446">
        <ele>31.594</ele>
        <time>2018-08-23T12:52:49.553Z</time>
      </trkpt>
      <trkpt lat="47.8995212" lon="-2.4355120">
        <ele>31.572</ele>
        <time>2018-08-23T12:52:52.375Z</time>
      </trkpt>
      <trkpt lat="47.8994046" lon="-2.4355800">
        <ele>31.392</ele>
        <time>2018-08-23T12:52:55.142Z</time>
      </trkpt>
      <trkpt lat="47.8992804" lon="-2.4356542">
        <ele>31.018</ele>
        <time>2018-08-23T12:52:58.098Z</time>
      </trkpt>
      <trkpt lat="47.8991647" lon="-2.4357187">
        <ele>30.411</ele>
        <time>2018-08-23T12:53:00.972Z</time>
      </trkpt>
      <trkpt lat="47.8990575" lon="-2.4357666">
        <ele>29.766</ele>
        <time>2018-08-23T12:53:04.753Z</time>
      </trkpt>
      <trkpt lat="47.8989659" lon="-2.4357599">
        <ele>29.295</ele>
        <time>2018-08-23T12:53:09.060Z</time>
      </trkpt>
      <trkpt lat="47.8988781" lon="-2.4358143">
        <ele>29.005</ele>
        <time>2018-08-23T12:53:13.789Z</time>
      </trkpt>
      <trkpt lat="47.8987856" lon="-2.4358923">
        <ele>28.922</ele>
        <time>2018-08-23T12:53:17.672Z</time>
      </trkpt>
      <trkpt lat="47.8986788" lon="-2.4359250">
        <ele>29.072</ele>
        <time>2018-08-23T12:53:20.770Z</time>
      </trkpt>
      <trkpt lat="47.8985674" lon="-2.4359750">
        <ele>29.323</ele>
        <time>2018-08-23T12:53:23.782Z</time>
      </trkpt>
      <trkpt lat="47.8984540" lon="-2.4360162">
        <ele>29.450</ele>
        <time>2018-08-23T12:53:26.664Z</time>
      </trkpt>
      <trkpt lat="47.8983360" lon="-2.4360650">
        <ele>29.345</ele>
        <time>2018-08-23T12:53:29.615Z</time>
      </trkpt>
      <trkpt lat="47.8982198" lon="-2.4361083">
        <ele>29.009</ele>
        <time>2018-08-23T12:53:32.561Z</time>
      </trkpt>
      <trkpt lat="47.8981149" lon="-2.4361515">
        <ele>28.559</ele>
        <time>2018-08-23T12:53:35.362Z</time>
      </trkpt>
      <trkpt lat="47.8980077" lon="-2.4361844">
        <ele>28.272</ele>
        <time>2018-08-23T12:53:38.204Z</time>
      </trkpt>
      <trkpt lat="47.8978906" lon="-2.4362191">
        <ele>28.342</ele>
        <time>2018-08-23T12:53:41.181Z</time>
      </trkpt>
      <trkpt lat="47.8977681" lon="-2.4362453">
        <ele>28.623</ele>
        <time>2018-08-23T12:53:44.137Z</time>
      </trkpt>
      <trkpt lat="47.8976462" lon="-2.4362703">
        <ele>28.896</ele>
        <time>2018-08-23T12:53:47.031Z</time>
      </trkpt>
      <trkpt lat="47.8975241" lon="-2.4362908">
        <ele>29.094</ele>
        <time>2018-08-23T12:53:49.969Z</time>
      </trkpt>
      <trkpt lat="47.8974133" lon="-2.4363009">
        <ele>29.229</ele>
        <time>2018-08-23T12:53:52.726Z</time>
      </trkpt>
      <trkpt lat="47.8972984" lon="-2.4363261">
        <ele>29.380</ele>
        <time>2018-08-23T12:53:55.689Z</time>
      </trkpt>
      <trkpt lat="47.8971893" lon="-2.4363442">
        <ele>29.610</ele>
        <time>2018-08-23T12:53:58.517Z</time>
      </trkpt>
      <trkpt lat="47.8970817" lon="-2.4363655">
        <ele>29.821</ele>
        <time>2018-08-23T12:54:01.323Z</time>
      </trkpt>
      <trkpt lat="47.8969638" lon="-2.4363833">
        <ele>29.818</ele>
        <time>2018-08-23T12:54:04.307Z</time>
      </trkpt>
      <trkpt lat="47.8968540" lon="-2.4363997">
        <ele>29.354</ele>
        <time>2018-08-23T12:54:07.072Z</time>
      </trkpt>
      <trkpt lat="47.8967412" lon="-2.4364169">
        <ele>28.428</ele>
        <time>2018-08-23T12:54:10.003Z</time>
      </trkpt>
      <trkpt lat="47.8966240" lon="-2.4364350">
        <ele>27.375</ele>
        <time>2018-08-23T12:54:13.048Z</time>
      </trkpt>
      <trkpt lat="47.8965249" lon="-2.4364400">
        <ele>26.471</ele>
        <time>2018-08-23T12:54:15.741Z</time>
      </trkpt>
      <trkpt lat="47.8964036" lon="-2.4364433">
        <ele>25.851</ele>
        <time>2018-08-23T12:54:19.019Z</time>
      </trkpt>
      <trkpt lat="47.8962872" lon="-2.4364472">
        <ele>25.572</ele>
        <time>2018-08-23T12:54:22.000Z</time>
      </trkpt>
      <trkpt lat="47.8961791" lon="-2.4364499">
        <ele>25.528</ele>
        <time>2018-08-23T12:54:24.889Z</time>
      </trkpt>
      <trkpt lat="47.8960614" lon="-2.4364475">
        <ele>25.674</ele>
        <time>2018-08-23T12:54:28.079Z</time>
      </trkpt>
      <trkpt lat="47.8959328" lon="-2.4364381">
        <ele>26.075</ele>
        <time>2018-08-23T12:54:31.468Z</time>
      </trkpt>
      <trkpt lat="47.8958039" lon="-2.4364401">
        <ele>26.604</ele>
        <time>2018-08-23T12:54:34.764Z</time>
      </trkpt>
      <trkpt lat="47.8956734" lon="-2.4364283">
        <ele>26.982</ele>
        <time>2018-08-23T12:54:38.007Z</time>
      </trkpt>
      <trkpt lat="47.8955466" lon="-2.4364147">
        <ele>27.111</ele>
        <time>2018-08-23T12:54:41.068Z</time>
      </trkpt>
      <trkpt lat="47.8954224" lon="-2.4364058">
        <ele>27.158</ele>
        <time>2018-08-23T12:54:44.038Z</time>
      </trkpt>
      <trkpt lat="47.8953033" lon="-2.4363897">
        <ele>27.277</ele>
        <time>2018-08-23T12:54:46.986Z</time>
      </trkpt>
      <trkpt lat="47.8951986" lon="-2.4363715">
        <ele>27.428</ele>
        <time>2018-08-23T12:54:49.726Z</time>
      </trkpt>
      <trkpt lat="47.8951048" lon="-2.4363644">
        <ele>27.637</ele>
        <time>2018-08-23T12:54:52.228Z</time>
      </trkpt>
      <trkpt lat="47.8949829" lon="-2.4363539">
        <ele>27.964</ele>
        <time>2018-08-23T12:54:55.387Z</time>
      </trkpt>
      <trkpt lat="47.8948644" lon="-2.4363416">
        <ele>28.170</ele>
        <time>2018-08-23T12:54:58.365Z</time>
      </trkpt>
      <trkpt lat="47.8947429" lon="-2.4363224">
        <ele>27.836</ele>
        <time>2018-08-23T12:55:01.373Z</time>
      </trkpt>
      <trkpt lat="47.8946447" lon="-2.4363117">
        <ele>27.014</ele>
        <time>2018-08-23T12:55:03.928Z</time>
      </trkpt>
      <trkpt lat="47.8945412" lon="-2.4363114">
        <ele>26.508</ele>
        <time>2018-08-23T12:55:06.885Z</time>
      </trkpt>
      <trkpt lat="47.8944311" lon="-2.4363083">
        <ele>26.814</ele>
        <time>2018-08-23T12:55:10.008Z</time>
      </trkpt>
      <trkpt lat="47.8943295" lon="-2.4362996">
        <ele>27.381</ele>
        <time>2018-08-23T12:55:12.930Z</time>
      </trkpt>
      <trkpt lat="47.8942288" lon="-2.4362929">
        <ele>27.521</ele>
        <time>2018-08-23T12:55:15.996Z</time>
      </trkpt>
      <trkpt lat="47.8941254" lon="-2.4362896">
        <ele>27.128</ele>
        <time>2018-08-23T12:55:19.224Z</time>
      </trkpt>
      <trkpt lat="47.8940065" lon="-2.4362971">
        <ele>26.318</ele>
        <time>2018-08-23T12:55:23.161Z</time>
      </trkpt>
      <trkpt lat="47.8939071" lon="-2.4362886">
        <ele>25.303</ele>
        <time>2018-08-23T12:55:26.512Z</time>
      </trkpt>
      <trkpt lat="47.8938075" lon="-2.4362769">
        <ele>24.290</ele>
        <time>2018-08-23T12:55:29.742Z</time>
      </trkpt>
      <trkpt lat="47.8936926" lon="-2.4362593">
        <ele>23.402</ele>
        <time>2018-08-23T12:55:33.640Z</time>
      </trkpt>
      <trkpt lat="47.8935959" lon="-2.4362446">
        <ele>22.803</ele>
        <time>2018-08-23T12:55:36.943Z</time>
      </trkpt>
      <trkpt lat="47.8935010" lon="-2.4362325">
        <ele>22.603</ele>
        <time>2018-08-23T12:55:40.088Z</time>
      </trkpt>
      <trkpt lat="47.8934067" lon="-2.4362311">
        <ele>22.641</ele>
        <time>2018-08-23T12:55:43.234Z</time>
      </trkpt>
      <trkpt lat="47.8932944" lon="-2.4362084">
        <ele>22.740</ele>
        <time>2018-08-23T12:55:47.103Z</time>
      </trkpt>
      <trkpt lat="47.8931792" lon="-2.4361841">
        <ele>22.780</ele>
        <time>2018-08-23T12:55:51.197Z</time>
      </trkpt>
      <trkpt lat="47.8930610" lon="-2.4361855">
        <ele>22.703</ele>
        <time>2018-08-23T12:55:55.483Z</time>
      </trkpt>
      <trkpt lat="47.8929508" lon="-2.4361789">
        <ele>22.584</ele>
        <time>2018-08-23T12:55:59.765Z</time>
      </trkpt>
      <trkpt lat="47.8928575" lon="-2.4361354">
        <ele>22.933</ele>
        <time>2018-08-23T12:56:04.249Z</time>
      </trkpt>
      <trkpt lat="47.8927666" lon="-2.4361512">
        <ele>24.242</ele>
        <time>2018-08-23T12:56:08.905Z</time>
      </trkpt>
      <trkpt lat="47.8926685" lon="-2.4361839">
        <ele>26.219</ele>
        <time>2018-08-23T12:56:13.320Z</time>
      </trkpt>
      <trkpt lat="47.8925527" lon="-2.4361686">
        <ele>28.087</ele>
        <time>2018-08-23T12:56:17.512Z</time>
      </trkpt>
      <trkpt lat="47.8924524" lon="-2.4361581">
        <ele>29.320</ele>
        <time>2018-08-23T12:56:20.688Z</time>
      </trkpt>
      <trkpt lat="47.8923515" lon="-2.4361515">
        <ele>29.832</ele>
        <time>2018-08-23T12:56:23.676Z</time>
      </trkpt>
      <trkpt lat="47.8922414" lon="-2.4361391">
        <ele>29.990</ele>
        <time>2018-08-23T12:56:26.762Z</time>
      </trkpt>
      <trkpt lat="47.8921244" lon="-2.4361291">
        <ele>30.115</ele>
        <time>2018-08-23T12:56:29.898Z</time>
      </trkpt>
      <trkpt lat="47.8920047" lon="-2.4361244">
        <ele>30.194</ele>
        <time>2018-08-23T12:56:33.039Z</time>
      </trkpt>
      <trkpt lat="47.8918954" lon="-2.4361163">
        <ele>29.891</ele>
        <time>2018-08-23T12:56:35.930Z</time>
      </trkpt>
      <trkpt lat="47.8917835" lon="-2.4361104">
        <ele>28.862</ele>
        <time>2018-08-23T12:56:38.735Z</time>
      </trkpt>
      <trkpt lat="47.8916603" lon="-2.4361137">
        <ele>27.360</ele>
        <time>2018-08-23T12:56:41.745Z</time>
      </trkpt>
      <trkpt lat="47.8915426" lon="-2.4361140">
        <ele>26.113</ele>
        <time>2018-08-23T12:56:44.677Z</time>
      </trkpt>
      <trkpt lat="47.8914249" lon="-2.4361039">
        <ele>25.392</ele>
        <time>2018-08-23T12:56:47.607Z</time>
      </trkpt>
      <trkpt lat="47.8913026" lon="-2.4360990">
        <ele>24.959</ele>
        <time>2018-08-23T12:56:50.601Z</time>
      </trkpt>
      <trkpt lat="47.8911818" lon="-2.4360954">
        <ele>24.644</ele>
        <time>2018-08-23T12:56:53.575Z</time>
      </trkpt>
      <trkpt lat="47.8910614" lon="-2.4360889">
        <ele>24.430</ele>
        <time>2018-08-23T12:56:56.629Z</time>
      </trkpt>
      <trkpt lat="47.8909482" lon="-2.4360671">
        <ele>24.280</ele>
        <time>2018-08-23T12:56:59.576Z</time>
      </trkpt>
      <trkpt lat="47.8908350" lon="-2.4360575">
        <ele>24.179</ele>
        <time>2018-08-23T12:57:02.525Z</time>
      </trkpt>
      <trkpt lat="47.8907237" lon="-2.4360455">
        <ele>24.136</ele>
        <time>2018-08-23T12:57:05.483Z</time>
      </trkpt>
      <trkpt lat="47.8906187" lon="-2.4360397">
        <ele>24.147</ele>
        <time>2018-08-23T12:57:08.365Z</time>
      </trkpt>
      <trkpt lat="47.8905177" lon="-2.4360282">
        <ele>24.111</ele>
        <time>2018-08-23T12:57:11.228Z</time>
      </trkpt>
      <trkpt lat="47.8904139" lon="-2.4360183">
        <ele>23.785</ele>
        <time>2018-08-23T12:57:14.083Z</time>
      </trkpt>
      <trkpt lat="47.8903053" lon="-2.4360148">
        <ele>23.157</ele>
        <time>2018-08-23T12:57:17.001Z</time>
      </trkpt>
      <trkpt lat="47.8902103" lon="-2.4360148">
        <ele>22.599</ele>
        <time>2018-08-23T12:57:19.610Z</time>
      </trkpt>
      <trkpt lat="47.8901008" lon="-2.4360060">
        <ele>22.340</ele>
        <time>2018-08-23T12:57:22.702Z</time>
      </trkpt>
      <trkpt lat="47.8899982" lon="-2.4359969">
        <ele>22.147</ele>
        <time>2018-08-23T12:57:25.672Z</time>
      </trkpt>
      <trkpt lat="47.8899018" lon="-2.4359887">
        <ele>21.815</ele>
        <time>2018-08-23T12:57:28.574Z</time>
      </trkpt>
      <trkpt lat="47.8897868" lon="-2.4359763">
        <ele>21.476</ele>
        <time>2018-08-23T12:57:32.290Z</time>
      </trkpt>
      <trkpt lat="47.8896875" lon="-2.4359788">
        <ele>21.688</ele>
        <time>2018-08-23T12:57:35.852Z</time>
      </trkpt>
      <trkpt lat="47.8895733" lon="-2.4359752">
        <ele>22.659</ele>
        <time>2018-08-23T12:57:40.163Z</time>
      </trkpt>
      <trkpt lat="47.8894818" lon="-2.4359783">
        <ele>23.653</ele>
        <time>2018-08-23T12:57:43.475Z</time>
      </trkpt>
      <trkpt lat="47.8893737" lon="-2.4359685">
        <ele>24.010</ele>
        <time>2018-08-23T12:57:47.432Z</time>
      </trkpt>
      <trkpt lat="47.8892667" lon="-2.4359718">
        <ele>23.862</ele>
        <time>2018-08-23T12:57:51.547Z</time>
      </trkpt>
      <trkpt lat="47.8891587" lon="-2.4359720">
        <ele>23.514</ele>
        <time>2018-08-23T12:57:55.796Z</time>
      </trkpt>
      <trkpt lat="47.8890460" lon="-2.4359875">
        <ele>23.123</ele>
        <time>2018-08-23T12:58:00.395Z</time>
      </trkpt>
      <trkpt lat="47.8889554" lon="-2.4359983">
        <ele>22.749</ele>
        <time>2018-08-23T12:58:04.533Z</time>
      </trkpt>
      <trkpt lat="47.8888620" lon="-2.4359999">
        <ele>22.742</ele>
        <time>2018-08-23T12:58:09.160Z</time>
      </trkpt>
      <trkpt lat="47.8887646" lon="-2.4359998">
        <ele>23.632</ele>
        <time>2018-08-23T12:58:15.174Z</time>
      </trkpt>
      <trkpt lat="47.8886650" lon="-2.4360201">
        <ele>25.133</ele>
        <time>2018-08-23T12:58:22.000Z</time>
      </trkpt>
      <trkpt lat="47.8886650" lon="-2.4360201">
        <ele>26.127</ele>
        <time>2018-08-23T12:58:23.000Z</time>
      </trkpt>
      <trkpt lat="47.8886650" lon="-2.4360201">
        <ele>26.099</ele>
        <time>2018-08-23T12:59:22.978Z</time>
      </trkpt>
      <trkpt lat="47.8886650" lon="-2.4360201">
        <ele>25.697</ele>
        <time>2018-08-23T12:59:39.000Z</time>
      </trkpt>
      <trkpt lat="47.8886650" lon="-2.4360201">
        <ele>25.846</ele>
        <time>2018-08-23T13:02:18.549Z</time>
      </trkpt>
      <trkpt lat="47.8887975" lon="-2.4359798">
        <ele>25.867</ele>
        <time>2018-08-23T13:03:16.555Z</time>
      </trkpt>
      <trkpt lat="47.8887070" lon="-2.4359882">
        <ele>26.103</ele>
        <time>2018-08-23T13:03:27.095Z</time>
      </trkpt>
      <trkpt lat="47.8886165" lon="-2.4360121">
        <ele>27.064</ele>
        <time>2018-08-23T13:03:35.000Z</time>
      </trkpt>
      <trkpt lat="47.8886165" lon="-2.4360121">
        <ele>28.411</ele>
        <time>2018-08-23T13:03:41.000Z</time>
      </trkpt>
      <trkpt lat="47.8886165" lon="-2.4360121">
        <ele>29.203</ele>
        <time>2018-08-23T13:04:01.936Z</time>
      </trkpt>
      <trkpt lat="47.8884055" lon="-2.4360851">
        <ele>29.114</ele>
        <time>2018-08-23T13:04:20.485Z</time>
      </trkpt>
      <trkpt lat="47.8882999" lon="-2.4361049">
        <ele>28.628</ele>
        <time>2018-08-23T13:04:25.460Z</time>
      </trkpt>
      <trkpt lat="47.8882020" lon="-2.4361102">
        <ele>28.235</ele>
        <time>2018-08-23T13:04:30.096Z</time>
      </trkpt>
      <trkpt lat="47.8880994" lon="-2.4361188">
        <ele>28.025</ele>
        <time>2018-08-23T13:04:35.115Z</time>
      </trkpt>
      <trkpt lat="47.8880080" lon="-2.4361235">
        <ele>27.863</ele>
        <time>2018-08-23T13:04:40.152Z</time>
      </trkpt>
      <trkpt lat="47.8879033" lon="-2.4361399">
        <ele>27.676</ele>
        <time>2018-08-23T13:04:47.062Z</time>
      </trkpt>
      <trkpt lat="47.8878130" lon="-2.4361503">
        <ele>27.505</ele>
        <time>2018-08-23T13:04:53.000Z</time>
      </trkpt>
      <trkpt lat="47.8878130" lon="-2.4361503">
        <ele>27.394</ele>
        <time>2018-08-23T13:05:02.000Z</time>
      </trkpt>
      <trkpt lat="47.8878130" lon="-2.4361503">
        <ele>27.352</ele>
        <time>2018-08-23T13:09:31.000Z</time>
      </trkpt>
      <trkpt lat="47.8878130" lon="-2.4361503">
        <ele>27.361</ele>
        <time>2018-08-23T13:09:31.100Z</time>
      </trkpt>
      <trkpt lat="47.8877069" lon="-2.4361194">
        <ele>27.359</ele>
        <time>2018-08-23T13:09:40.000Z</time>
      </trkpt>
      <trkpt lat="47.8877069" lon="-2.4361194">
        <ele>27.344</ele>
        <time>2018-08-23T13:09:51.000Z</time>
      </trkpt>
      <trkpt lat="47.8877069" lon="-2.4361194">
        <ele>27.326</ele>
        <time>2018-08-23T13:15:35.000Z</time>
      </trkpt>
      <trkpt lat="47.8877069" lon="-2.4361194">
        <ele>27.315</ele>
        <time>2018-08-23T13:15:54.173Z</time>
      </trkpt>
      <trkpt lat="47.8874694" lon="-2.4361476">
        <ele>27.308</ele>
        <time>2018-08-23T13:16:09.966Z</time>
      </trkpt>
      <trkpt lat="47.8873665" lon="-2.4361668">
        <ele>27.301</ele>
        <time>2018-08-23T13:16:14.777Z</time>
      </trkpt>
      <trkpt lat="47.8872680" lon="-2.4361981">
        <ele>27.376</ele>
        <time>2018-08-23T13:16:19.664Z</time>
      </trkpt>
      <trkpt lat="47.8871624" lon="-2.4362066">
        <ele>27.792</ele>
        <time>2018-08-23T13:16:23.689Z</time>
      </trkpt>
      <trkpt lat="47.8870487" lon="-2.4362178">
        <ele>28.553</ele>
        <time>2018-08-23T13:16:27.300Z</time>
      </trkpt>
      <trkpt lat="47.8869285" lon="-2.4362397">
        <ele>29.068</ele>
        <time>2018-08-23T13:16:31.111Z</time>
      </trkpt>
      <trkpt lat="47.8868288" lon="-2.4362489">
        <ele>28.961</ele>
        <time>2018-08-23T13:16:34.079Z</time>
      </trkpt>
      <trkpt lat="47.8867116" lon="-2.4362554">
        <ele>28.713</ele>
        <time>2018-08-23T13:16:37.601Z</time>
      </trkpt>
      <trkpt lat="47.8866024" lon="-2.4362790">
        <ele>28.800</ele>
        <time>2018-08-23T13:16:40.892Z</time>
      </trkpt>
      <trkpt lat="47.8864968" lon="-2.4362864">
        <ele>29.078</ele>
        <time>2018-08-23T13:16:43.855Z</time>
      </trkpt>
      <trkpt lat="47.8863754" lon="-2.4362800">
        <ele>29.389</ele>
        <time>2018-08-23T13:16:46.981Z</time>
      </trkpt>
      <trkpt lat="47.8862788" lon="-2.4362823">
        <ele>29.761</ele>
        <time>2018-08-23T13:16:49.332Z</time>
      </trkpt>
      <trkpt lat="47.8861460" lon="-2.4362976">
        <ele>30.067</ele>
        <time>2018-08-23T13:16:52.634Z</time>
      </trkpt>
      <trkpt lat="47.8860188" lon="-2.4363220">
        <ele>30.116</ele>
        <time>2018-08-23T13:16:55.817Z</time>
      </trkpt>
      <trkpt lat="47.8858939" lon="-2.4363261">
        <ele>29.868</ele>
        <time>2018-08-23T13:16:59.163Z</time>
      </trkpt>
      <trkpt lat="47.8857663" lon="-2.4363242">
        <ele>29.364</ele>
        <time>2018-08-23T13:17:02.873Z</time>
      </trkpt>
      <trkpt lat="47.8856684" lon="-2.4363237">
        <ele>28.783</ele>
        <time>2018-08-23T13:17:05.576Z</time>
      </trkpt>
      <trkpt lat="47.8855618" lon="-2.4363374">
        <ele>28.411</ele>
        <time>2018-08-23T13:17:08.215Z</time>
      </trkpt>
      <trkpt lat="47.8854428" lon="-2.4363429">
        <ele>28.530</ele>
        <time>2018-08-23T13:17:10.976Z</time>
      </trkpt>
      <trkpt lat="47.8852940" lon="-2.4363526">
        <ele>29.076</ele>
        <time>2018-08-23T13:17:14.929Z</time>
      </trkpt>
      <trkpt lat="47.8851592" lon="-2.4363740">
        <ele>29.468</ele>
        <time>2018-08-23T13:17:18.718Z</time>
      </trkpt>
      <trkpt lat="47.8850440" lon="-2.4364043">
        <ele>29.059</ele>
        <time>2018-08-23T13:17:21.746Z</time>
      </trkpt>
      <trkpt lat="47.8849447" lon="-2.4364278">
        <ele>27.715</ele>
        <time>2018-08-23T13:17:24.336Z</time>
      </trkpt>
      <trkpt lat="47.8848198" lon="-2.4364532">
        <ele>25.767</ele>
        <time>2018-08-23T13:17:27.804Z</time>
      </trkpt>
      <trkpt lat="47.8847066" lon="-2.4364724">
        <ele>23.912</ele>
        <time>2018-08-23T13:17:31.169Z</time>
      </trkpt>
      <trkpt lat="47.8846021" lon="-2.4364804">
        <ele>22.779</ele>
        <time>2018-08-23T13:17:34.409Z</time>
      </trkpt>
      <trkpt lat="47.8845020" lon="-2.4364860">
        <ele>22.387</ele>
        <time>2018-08-23T13:17:37.529Z</time>
      </trkpt>
      <trkpt lat="47.8844091" lon="-2.4364940">
        <ele>22.311</ele>
        <time>2018-08-23T13:17:40.396Z</time>
      </trkpt>
      <trkpt lat="47.8843169" lon="-2.4365125">
        <ele>22.167</ele>
        <time>2018-08-23T13:17:43.410Z</time>
      </trkpt>
      <trkpt lat="47.8842168" lon="-2.4365274">
        <ele>21.808</ele>
        <time>2018-08-23T13:17:46.960Z</time>
      </trkpt>
      <trkpt lat="47.8841158" lon="-2.4365304">
        <ele>21.386</ele>
        <time>2018-08-23T13:17:50.865Z</time>
      </trkpt>
      <trkpt lat="47.8839995" lon="-2.4365348">
        <ele>21.121</ele>
        <time>2018-08-23T13:17:55.278Z</time>
      </trkpt>
      <trkpt lat="47.8838987" lon="-2.4365501">
        <ele>21.186</ele>
        <time>2018-08-23T13:17:58.722Z</time>
      </trkpt>
      <trkpt lat="47.8837918" lon="-2.4365572">
        <ele>21.643</ele>
        <time>2018-08-23T13:18:02.548Z</time>
      </trkpt>
      <trkpt lat="47.8836939" lon="-2.4365628">
        <ele>22.249</ele>
        <time>2018-08-23T13:18:06.178Z</time>
      </trkpt>
      <trkpt lat="47.8835969" lon="-2.4365746">
        <ele>22.544</ele>
        <time>2018-08-23T13:18:09.608Z</time>
      </trkpt>
      <trkpt lat="47.8834948" lon="-2.4365949">
        <ele>22.372</ele>
        <time>2018-08-23T13:18:13.088Z</time>
      </trkpt>
      <trkpt lat="47.8833820" lon="-2.4366022">
        <ele>22.007</ele>
        <time>2018-08-23T13:18:16.844Z</time>
      </trkpt>
      <trkpt lat="47.8832874" lon="-2.4366040">
        <ele>21.864</ele>
        <time>2018-08-23T13:18:19.988Z</time>
      </trkpt>
      <trkpt lat="47.8831945" lon="-2.4366073">
        <ele>22.198</ele>
        <time>2018-08-23T13:18:23.147Z</time>
      </trkpt>
      <trkpt lat="47.8831038" lon="-2.4366109">
        <ele>22.995</ele>
        <time>2018-08-23T13:18:26.307Z</time>
      </trkpt>
      <trkpt lat="47.8830086" lon="-2.4366103">
        <ele>23.965</ele>
        <time>2018-08-23T13:18:29.623Z</time>
      </trkpt>
      <trkpt lat="47.8828958" lon="-2.4366089">
        <ele>24.826</ele>
        <time>2018-08-23T13:18:33.993Z</time>
      </trkpt>
      <trkpt lat="47.8827766" lon="-2.4366180">
        <ele>25.438</ele>
        <time>2018-08-23T13:18:39.582Z</time>
      </trkpt>
      <trkpt lat="47.8826672" lon="-2.4366341">
        <ele>25.756</ele>
        <time>2018-08-23T13:18:45.440Z</time>
      </trkpt>
      <trkpt lat="47.8825699" lon="-2.4366345">
        <ele>25.962</ele>
        <time>2018-08-23T13:18:50.452Z</time>
      </trkpt>
      <trkpt lat="47.8824733" lon="-2.4366389">
        <ele>26.296</ele>
        <time>2018-08-23T13:18:54.722Z</time>
      </trkpt>
      <trkpt lat="47.8823706" lon="-2.4366202">
        <ele>26.659</ele>
        <time>2018-08-23T13:18:58.753Z</time>
      </trkpt>
      <trkpt lat="47.8822627" lon="-2.4366536">
        <ele>26.771</ele>
        <time>2018-08-23T13:19:02.828Z</time>
      </trkpt>
      <trkpt lat="47.8821605" lon="-2.4367058">
        <ele>26.590</ele>
        <time>2018-08-23T13:19:06.888Z</time>
      </trkpt>
      <trkpt lat="47.8820561" lon="-2.4367073">
        <ele>26.412</ele>
        <time>2018-08-23T13:19:10.926Z</time>
      </trkpt>
      <trkpt lat="47.8819657" lon="-2.4367053">
        <ele>26.573</ele>
        <time>2018-08-23T13:19:14.470Z</time>
      </trkpt>
      <trkpt lat="47.8818716" lon="-2.4367213">
        <ele>27.015</ele>
        <time>2018-08-23T13:19:18.281Z</time>
      </trkpt>
      <trkpt lat="47.8817605" lon="-2.4367366">
        <ele>27.453</ele>
        <time>2018-08-23T13:19:22.789Z</time>
      </trkpt>
      <trkpt lat="47.8816609" lon="-2.4367451">
        <ele>27.741</ele>
        <time>2018-08-23T13:19:26.861Z</time>
      </trkpt>
      <trkpt lat="47.8815544" lon="-2.4367560">
        <ele>27.750</ele>
        <time>2018-08-23T13:19:31.303Z</time>
      </trkpt>
      <trkpt lat="47.8814521" lon="-2.4367768">
        <ele>27.373</ele>
        <time>2018-08-23T13:19:35.515Z</time>
      </trkpt>
      <trkpt lat="47.8813485" lon="-2.4367873">
        <ele>26.841</ele>
        <time>2018-08-23T13:19:39.514Z</time>
      </trkpt>
      <trkpt lat="47.8812505" lon="-2.4368075">
        <ele>26.538</ele>
        <time>2018-08-23T13:19:42.841Z</time>
      </trkpt>
      <trkpt lat="47.8811536" lon="-2.4368147">
        <ele>26.564</ele>
        <time>2018-08-23T13:19:45.828Z</time>
      </trkpt>
      <trkpt lat="47.8810376" lon="-2.4368270">
        <ele>26.665</ele>
        <time>2018-08-23T13:19:49.079Z</time>
      </trkpt>
      <trkpt lat="47.8809277" lon="-2.4368392">
        <ele>26.624</ele>
        <time>2018-08-23T13:19:52.047Z</time>
      </trkpt>
      <trkpt lat="47.8808211" lon="-2.4368469">
        <ele>26.557</ele>
        <time>2018-08-23T13:19:55.208Z</time>
      </trkpt>
      <trkpt lat="47.8807129" lon="-2.4368627">
        <ele>26.729</ele>
        <time>2018-08-23T13:19:58.565Z</time>
      </trkpt>
      <trkpt lat="47.8805922" lon="-2.4368773">
        <ele>27.179</ele>
        <time>2018-08-23T13:20:02.151Z</time>
      </trkpt>
      <trkpt lat="47.8804892" lon="-2.4368834">
        <ele>27.646</ele>
        <time>2018-08-23T13:20:05.352Z</time>
      </trkpt>
      <trkpt lat="47.8803902" lon="-2.4368943">
        <ele>27.870</ele>
        <time>2018-08-23T13:20:08.434Z</time>
      </trkpt>
      <trkpt lat="47.8802860" lon="-2.4369030">
        <ele>27.845</ele>
        <time>2018-08-23T13:20:11.462Z</time>
      </trkpt>
      <trkpt lat="47.8801754" lon="-2.4369061">
        <ele>27.729</ele>
        <time>2018-08-23T13:20:14.530Z</time>
      </trkpt>
      <trkpt lat="47.8800845" lon="-2.4369241">
        <ele>27.386</ele>
        <time>2018-08-23T13:20:17.058Z</time>
      </trkpt>
      <trkpt lat="47.8799774" lon="-2.4369418">
        <ele>26.671</ele>
        <time>2018-08-23T13:20:20.078Z</time>
      </trkpt>
      <trkpt lat="47.8798694" lon="-2.4369454">
        <ele>26.133</ele>
        <time>2018-08-23T13:20:23.156Z</time>
      </trkpt>
      <trkpt lat="47.8797582" lon="-2.4369523">
        <ele>26.287</ele>
        <time>2018-08-23T13:20:26.261Z</time>
      </trkpt>
      <trkpt lat="47.8796512" lon="-2.4369740">
        <ele>26.817</ele>
        <time>2018-08-23T13:20:29.194Z</time>
      </trkpt>
      <trkpt lat="47.8795474" lon="-2.4369994">
        <ele>27.319</ele>
        <time>2018-08-23T13:20:32.042Z</time>
      </trkpt>
      <trkpt lat="47.8794549" lon="-2.4370041">
        <ele>27.670</ele>
        <time>2018-08-23T13:20:34.589Z</time>
      </trkpt>
      <trkpt lat="47.8793421" lon="-2.4370067">
        <ele>27.791</ele>
        <time>2018-08-23T13:20:38.035Z</time>
      </trkpt>
      <trkpt lat="47.8792305" lon="-2.4370072">
        <ele>27.469</ele>
        <time>2018-08-23T13:20:42.043Z</time>
      </trkpt>
      <trkpt lat="47.8791173" lon="-2.4370104">
        <ele>26.688</ele>
        <time>2018-08-23T13:20:47.299Z</time>
      </trkpt>
      <trkpt lat="47.8790087" lon="-2.4370212">
        <ele>25.782</ele>
        <time>2018-08-23T13:20:52.173Z</time>
      </trkpt>
      <trkpt lat="47.8789135" lon="-2.4370322">
        <ele>25.092</ele>
        <time>2018-08-23T13:20:55.851Z</time>
      </trkpt>
      <trkpt lat="47.8788168" lon="-2.4369970">
        <ele>24.719</ele>
        <time>2018-08-23T13:20:59.114Z</time>
      </trkpt>
      <trkpt lat="47.8787193" lon="-2.4370158">
        <ele>24.450</ele>
        <time>2018-08-23T13:21:02.036Z</time>
      </trkpt>
      <trkpt lat="47.8786360" lon="-2.4370664">
        <ele>23.964</ele>
        <time>2018-08-23T13:21:04.542Z</time>
      </trkpt>
      <trkpt lat="47.8785192" lon="-2.4370786">
        <ele>23.385</ele>
        <time>2018-08-23T13:21:07.635Z</time>
      </trkpt>
      <trkpt lat="47.8784265" lon="-2.4370940">
        <ele>22.995</ele>
        <time>2018-08-23T13:21:10.043Z</time>
      </trkpt>
      <trkpt lat="47.8783194" lon="-2.4371080">
        <ele>22.828</ele>
        <time>2018-08-23T13:21:12.783Z</time>
      </trkpt>
      <trkpt lat="47.8782071" lon="-2.4371197">
        <ele>22.756</ele>
        <time>2018-08-23T13:21:15.634Z</time>
      </trkpt>
      <trkpt lat="47.8780881" lon="-2.4371399">
        <ele>22.662</ele>
        <time>2018-08-23T13:21:18.662Z</time>
      </trkpt>
      <trkpt lat="47.8779734" lon="-2.4371553">
        <ele>22.659</ele>
        <time>2018-08-23T13:21:21.555Z</time>
      </trkpt>
      <trkpt lat="47.8778581" lon="-2.4371666">
        <ele>22.903</ele>
        <time>2018-08-23T13:21:24.451Z</time>
      </trkpt>
      <trkpt lat="47.8777435" lon="-2.4371767">
        <ele>23.313</ele>
        <time>2018-08-23T13:21:27.323Z</time>
      </trkpt>
      <trkpt lat="47.8776268" lon="-2.4371934">
        <ele>23.688</ele>
        <time>2018-08-23T13:21:30.255Z</time>
      </trkpt>
      <trkpt lat="47.8775115" lon="-2.4372118">
        <ele>23.918</ele>
        <time>2018-08-23T13:21:33.150Z</time>
      </trkpt>
      <trkpt lat="47.8773981" lon="-2.4372258">
        <ele>24.092</ele>
        <time>2018-08-23T13:21:35.973Z</time>
      </trkpt>
      <trkpt lat="47.8772829" lon="-2.4372304">
        <ele>24.323</ele>
        <time>2018-08-23T13:21:38.816Z</time>
      </trkpt>
      <trkpt lat="47.8771682" lon="-2.4372429">
        <ele>24.527</ele>
        <time>2018-08-23T13:21:41.660Z</time>
      </trkpt>
      <trkpt lat="47.8770533" lon="-2.4372640">
        <ele>24.598</ele>
        <time>2018-08-23T13:21:44.540Z</time>
      </trkpt>
      <trkpt lat="47.8769342" lon="-2.4372834">
        <ele>24.583</ele>
        <time>2018-08-23T13:21:47.581Z</time>
      </trkpt>
      <trkpt lat="47.8768179" lon="-2.4372946">
        <ele>24.549</ele>
        <time>2018-08-23T13:21:50.645Z</time>
      </trkpt>
      <trkpt lat="47.8767092" lon="-2.4373061">
        <ele>24.558</ele>
        <time>2018-08-23T13:21:53.636Z</time>
      </trkpt>
      <trkpt lat="47.8765947" lon="-2.4373175">
        <ele>24.635</ele>
        <time>2018-08-23T13:21:56.906Z</time>
      </trkpt>
      <trkpt lat="47.8764820" lon="-2.4373200">
        <ele>24.745</ele>
        <time>2018-08-23T13:22:00.140Z</time>
      </trkpt>
      <trkpt lat="47.8763756" lon="-2.4373233">
        <ele>24.864</ele>
        <time>2018-08-23T13:22:03.155Z</time>
      </trkpt>
      <trkpt lat="47.8762787" lon="-2.4373217">
        <ele>25.010</ele>
        <time>2018-08-23T13:22:05.832Z</time>
      </trkpt>
      <trkpt lat="47.8761727" lon="-2.4373202">
        <ele>25.303</ele>
        <time>2018-08-23T13:22:08.800Z</time>
      </trkpt>
      <trkpt lat="47.8760768" lon="-2.4373304">
        <ele>25.833</ele>
        <time>2018-08-23T13:22:11.698Z</time>
      </trkpt>
      <trkpt lat="47.8759747" lon="-2.4373362">
        <ele>26.407</ele>
        <time>2018-08-23T13:22:15.138Z</time>
      </trkpt>
      <trkpt lat="47.8758698" lon="-2.4373427">
        <ele>26.821</ele>
        <time>2018-08-23T13:22:19.279Z</time>
      </trkpt>
      <trkpt lat="47.8757718" lon="-2.4373559">
        <ele>27.092</ele>
        <time>2018-08-23T13:22:24.040Z</time>
      </trkpt>
      <trkpt lat="47.8756630" lon="-2.4373681">
        <ele>27.093</ele>
        <time>2018-08-23T13:22:28.507Z</time>
      </trkpt>
      <trkpt lat="47.8755581" lon="-2.4373660">
        <ele>26.585</ele>
        <time>2018-08-23T13:22:31.967Z</time>
      </trkpt>
      <trkpt lat="47.8754548" lon="-2.4374102">
        <ele>25.706</ele>
        <time>2018-08-23T13:22:35.187Z</time>
      </trkpt>
      <trkpt lat="47.8753353" lon="-2.4374240">
        <ele>24.929</ele>
        <time>2018-08-23T13:22:38.523Z</time>
      </trkpt>
      <trkpt lat="47.8752385" lon="-2.4374279">
        <ele>24.533</ele>
        <time>2018-08-23T13:22:41.110Z</time>
      </trkpt>
      <trkpt lat="47.8751349" lon="-2.4374352">
        <ele>24.476</ele>
        <time>2018-08-23T13:22:43.809Z</time>
      </trkpt>
      <trkpt lat="47.8750232" lon="-2.4374465">
        <ele>24.616</ele>
        <time>2018-08-23T13:22:46.641Z</time>
      </trkpt>
      <trkpt lat="47.8749158" lon="-2.4374672">
        <ele>24.799</ele>
        <time>2018-08-23T13:22:49.329Z</time>
      </trkpt>
      <trkpt lat="47.8748039" lon="-2.4374776">
        <ele>24.736</ele>
        <time>2018-08-23T13:22:52.069Z</time>
      </trkpt>
      <trkpt lat="47.8746886" lon="-2.4374807">
        <ele>24.305</ele>
        <time>2018-08-23T13:22:54.868Z</time>
      </trkpt>
      <trkpt lat="47.8745757" lon="-2.4374919">
        <ele>23.955</ele>
        <time>2018-08-23T13:22:57.623Z</time>
      </trkpt>
      <trkpt lat="47.8744524" lon="-2.4375037">
        <ele>24.101</ele>
        <time>2018-08-23T13:23:00.577Z</time>
      </trkpt>
      <trkpt lat="47.8743330" lon="-2.4375160">
        <ele>24.503</ele>
        <time>2018-08-23T13:23:03.392Z</time>
      </trkpt>
      <trkpt lat="47.8742146" lon="-2.4375286">
        <ele>24.782</ele>
        <time>2018-08-23T13:23:06.176Z</time>
      </trkpt>
      <trkpt lat="47.8740931" lon="-2.4375403">
        <ele>24.772</ele>
        <time>2018-08-23T13:23:09.175Z</time>
      </trkpt>
      <trkpt lat="47.8739707" lon="-2.4375508">
        <ele>24.462</ele>
        <time>2018-08-23T13:23:12.439Z</time>
      </trkpt>
      <trkpt lat="47.8738485" lon="-2.4375659">
        <ele>24.036</ele>
        <time>2018-08-23T13:23:15.603Z</time>
      </trkpt>
      <trkpt lat="47.8737414" lon="-2.4375728">
        <ele>23.707</ele>
        <time>2018-08-23T13:23:18.245Z</time>
      </trkpt>
      <trkpt lat="47.8736376" lon="-2.4375838">
        <ele>23.505</ele>
        <time>2018-08-23T13:23:20.908Z</time>
      </trkpt>
      <trkpt lat="47.8735185" lon="-2.4375992">
        <ele>23.390</ele>
        <time>2018-08-23T13:23:24.049Z</time>
      </trkpt>
      <trkpt lat="47.8734037" lon="-2.4376085">
        <ele>23.246</ele>
        <time>2018-08-23T13:23:27.039Z</time>
      </trkpt>
      <trkpt lat="47.8733017" lon="-2.4376252">
        <ele>22.833</ele>
        <time>2018-08-23T13:23:29.624Z</time>
      </trkpt>
      <trkpt lat="47.8731905" lon="-2.4376610">
        <ele>22.175</ele>
        <time>2018-08-23T13:23:32.354Z</time>
      </trkpt>
      <trkpt lat="47.8730724" lon="-2.4376776">
        <ele>21.467</ele>
        <time>2018-08-23T13:23:35.107Z</time>
      </trkpt>
      <trkpt lat="47.8729471" lon="-2.4376890">
        <ele>20.733</ele>
        <time>2018-08-23T13:23:38.060Z</time>
      </trkpt>
      <trkpt lat="47.8728178" lon="-2.4376927">
        <ele>20.155</ele>
        <time>2018-08-23T13:23:41.256Z</time>
      </trkpt>
      <trkpt lat="47.8726970" lon="-2.4377042">
        <ele>20.057</ele>
        <time>2018-08-23T13:23:44.395Z</time>
      </trkpt>
      <trkpt lat="47.8725805" lon="-2.4377146">
        <ele>20.341</ele>
        <time>2018-08-23T13:23:47.355Z</time>
      </trkpt>
      <trkpt lat="47.8724789" lon="-2.4377285">
        <ele>20.698</ele>
        <time>2018-08-23T13:23:49.817Z</time>
      </trkpt>
      <trkpt lat="47.8723681" lon="-2.4377448">
        <ele>21.053</ele>
        <time>2018-08-23T13:23:52.451Z</time>
      </trkpt>
      <trkpt lat="47.8722431" lon="-2.4377484">
        <ele>21.405</ele>
        <time>2018-08-23T13:23:55.424Z</time>
      </trkpt>
      <trkpt lat="47.8721166" lon="-2.4377561">
        <ele>21.593</ele>
        <time>2018-08-23T13:23:58.529Z</time>
      </trkpt>
      <trkpt lat="47.8719936" lon="-2.4377695">
        <ele>21.544</ele>
        <time>2018-08-23T13:24:01.689Z</time>
      </trkpt>
      <trkpt lat="47.8718821" lon="-2.4377857">
        <ele>21.462</ele>
        <time>2018-08-23T13:24:04.533Z</time>
      </trkpt>
      <trkpt lat="47.8717738" lon="-2.4377965">
        <ele>21.601</ele>
        <time>2018-08-23T13:24:07.186Z</time>
      </trkpt>
      <trkpt lat="47.8716627" lon="-2.4378003">
        <ele>21.986</ele>
        <time>2018-08-23T13:24:09.850Z</time>
      </trkpt>
      <trkpt lat="47.8715337" lon="-2.4378121">
        <ele>22.404</ele>
        <time>2018-08-23T13:24:13.034Z</time>
      </trkpt>
      <trkpt lat="47.8714097" lon="-2.4378274">
        <ele>22.513</ele>
        <time>2018-08-23T13:24:16.168Z</time>
      </trkpt>
      <trkpt lat="47.8712915" lon="-2.4378363">
        <ele>22.179</ele>
        <time>2018-08-23T13:24:19.141Z</time>
      </trkpt>
      <trkpt lat="47.8711737" lon="-2.4378465">
        <ele>21.693</ele>
        <time>2018-08-23T13:24:22.137Z</time>
      </trkpt>
      <trkpt lat="47.8710554" lon="-2.4378507">
        <ele>21.388</ele>
        <time>2018-08-23T13:24:25.167Z</time>
      </trkpt>
      <trkpt lat="47.8709420" lon="-2.4378607">
        <ele>21.296</ele>
        <time>2018-08-23T13:24:28.067Z</time>
      </trkpt>
      <trkpt lat="47.8708272" lon="-2.4378768">
        <ele>21.195</ele>
        <time>2018-08-23T13:24:31.038Z</time>
      </trkpt>
      <trkpt lat="47.8707129" lon="-2.4378982">
        <ele>20.896</ele>
        <time>2018-08-23T13:24:34.087Z</time>
      </trkpt>
      <trkpt lat="47.8706016" lon="-2.4379163">
        <ele>20.556</ele>
        <time>2018-08-23T13:24:37.065Z</time>
      </trkpt>
      <trkpt lat="47.8704982" lon="-2.4379288">
        <ele>20.369</ele>
        <time>2018-08-23T13:24:39.799Z</time>
      </trkpt>
      <trkpt lat="47.8703867" lon="-2.4379429">
        <ele>20.187</ele>
        <time>2018-08-23T13:24:42.852Z</time>
      </trkpt>
      <trkpt lat="47.8702770" lon="-2.4379537">
        <ele>19.844</ele>
        <time>2018-08-23T13:24:46.064Z</time>
      </trkpt>
      <trkpt lat="47.8701793" lon="-2.4379632">
        <ele>19.423</ele>
        <time>2018-08-23T13:24:49.158Z</time>
      </trkpt>
      <trkpt lat="47.8700849" lon="-2.4379705">
        <ele>19.068</ele>
        <time>2018-08-23T13:24:52.456Z</time>
      </trkpt>
      <trkpt lat="47.8699821" lon="-2.4379946">
        <ele>18.837</ele>
        <time>2018-08-23T13:24:56.382Z</time>
      </trkpt>
      <trkpt lat="47.8698749" lon="-2.4380105">
        <ele>18.814</ele>
        <time>2018-08-23T13:25:00.849Z</time>
      </trkpt>
      <trkpt lat="47.8697689" lon="-2.4380248">
        <ele>19.196</ele>
        <time>2018-08-23T13:25:05.468Z</time>
      </trkpt>
      <trkpt lat="47.8696644" lon="-2.4380308">
        <ele>20.167</ele>
        <time>2018-08-23T13:25:09.940Z</time>
      </trkpt>
      <trkpt lat="47.8695541" lon="-2.4380445">
        <ele>21.450</ele>
        <time>2018-08-23T13:25:14.620Z</time>
      </trkpt>
      <trkpt lat="47.8694601" lon="-2.4380541">
        <ele>22.458</ele>
        <time>2018-08-23T13:25:18.750Z</time>
      </trkpt>
      <trkpt lat="47.8693621" lon="-2.4380537">
        <ele>22.954</ele>
        <time>2018-08-23T13:25:23.197Z</time>
      </trkpt>
      <trkpt lat="47.8692678" lon="-2.4380530">
        <ele>23.204</ele>
        <time>2018-08-23T13:25:27.510Z</time>
      </trkpt>
      <trkpt lat="47.8691685" lon="-2.4380650">
        <ele>23.442</ele>
        <time>2018-08-23T13:25:32.263Z</time>
      </trkpt>
      <trkpt lat="47.8690768" lon="-2.4380826">
        <ele>23.629</ele>
        <time>2018-08-23T13:25:37.107Z</time>
      </trkpt>
      <trkpt lat="47.8689718" lon="-2.4381033">
        <ele>23.683</ele>
        <time>2018-08-23T13:25:43.132Z</time>
      </trkpt>
      <trkpt lat="47.8688732" lon="-2.4381145">
        <ele>23.649</ele>
        <time>2018-08-23T13:25:48.053Z</time>
      </trkpt>
      <trkpt lat="47.8687581" lon="-2.4381186">
        <ele>23.567</ele>
        <time>2018-08-23T13:25:52.730Z</time>
      </trkpt>
      <trkpt lat="47.8686412" lon="-2.4381319">
        <ele>23.373</ele>
        <time>2018-08-23T13:25:57.248Z</time>
      </trkpt>
      <trkpt lat="47.8685286" lon="-2.4381510">
        <ele>23.028</ele>
        <time>2018-08-23T13:26:01.947Z</time>
      </trkpt>
      <trkpt lat="47.8684390" lon="-2.4381674">
        <ele>22.773</ele>
        <time>2018-08-23T13:26:05.760Z</time>
      </trkpt>
      <trkpt lat="47.8683367" lon="-2.4381812">
        <ele>22.816</ele>
        <time>2018-08-23T13:26:09.805Z</time>
      </trkpt>
      <trkpt lat="47.8682438" lon="-2.4381968">
        <ele>23.331</ele>
        <time>2018-08-23T13:26:13.373Z</time>
      </trkpt>
      <trkpt lat="47.8681261" lon="-2.4382009">
        <ele>24.318</ele>
        <time>2018-08-23T13:26:17.904Z</time>
      </trkpt>
      <trkpt lat="47.8680197" lon="-2.4382083">
        <ele>25.208</ele>
        <time>2018-08-23T13:26:21.908Z</time>
      </trkpt>
      <trkpt lat="47.8679180" lon="-2.4382256">
        <ele>25.539</ele>
        <time>2018-08-23T13:26:25.805Z</time>
      </trkpt>
      <trkpt lat="47.8677996" lon="-2.4382251">
        <ele>25.599</ele>
        <time>2018-08-23T13:26:30.720Z</time>
      </trkpt>
      <trkpt lat="47.8676955" lon="-2.4382406">
        <ele>25.770</ele>
        <time>2018-08-23T13:26:35.403Z</time>
      </trkpt>
      <trkpt lat="47.8676028" lon="-2.4382566">
        <ele>26.178</ele>
        <time>2018-08-23T13:26:40.167Z</time>
      </trkpt>
      <trkpt lat="47.8675064" lon="-2.4382683">
        <ele>26.794</ele>
        <time>2018-08-23T13:26:45.208Z</time>
      </trkpt>
      <trkpt lat="47.8674066" lon="-2.4382778">
        <ele>27.431</ele>
        <time>2018-08-23T13:26:49.267Z</time>
      </trkpt>
      <trkpt lat="47.8673093" lon="-2.4382901">
        <ele>27.801</ele>
        <time>2018-08-23T13:26:52.865Z</time>
      </trkpt>
      <trkpt lat="47.8672084" lon="-2.4383114">
        <ele>27.768</ele>
        <time>2018-08-23T13:26:56.402Z</time>
      </trkpt>
      <trkpt lat="47.8671181" lon="-2.4383219">
        <ele>27.420</ele>
        <time>2018-08-23T13:26:59.397Z</time>
      </trkpt>
      <trkpt lat="47.8670265" lon="-2.4383349">
        <ele>26.938</ele>
        <time>2018-08-23T13:27:02.514Z</time>
      </trkpt>
      <trkpt lat="47.8669355" lon="-2.4383512">
        <ele>26.491</ele>
        <time>2018-08-23T13:27:05.577Z</time>
      </trkpt>
      <trkpt lat="47.8668366" lon="-2.4383641">
        <ele>26.214</ele>
        <time>2018-08-23T13:27:08.704Z</time>
      </trkpt>
      <trkpt lat="47.8667456" lon="-2.4383686">
        <ele>26.139</ele>
        <time>2018-08-23T13:27:11.428Z</time>
      </trkpt>
      <trkpt lat="47.8666270" lon="-2.4383825">
        <ele>26.164</ele>
        <time>2018-08-23T13:27:14.865Z</time>
      </trkpt>
      <trkpt lat="47.8665188" lon="-2.4383947">
        <ele>26.186</ele>
        <time>2018-08-23T13:27:17.890Z</time>
      </trkpt>
      <trkpt lat="47.8664211" lon="-2.4384152">
        <ele>26.074</ele>
        <time>2018-08-23T13:27:20.561Z</time>
      </trkpt>
      <trkpt lat="47.8663161" lon="-2.4384354">
        <ele>25.679</ele>
        <time>2018-08-23T13:27:23.332Z</time>
      </trkpt>
      <trkpt lat="47.8662141" lon="-2.4384593">
        <ele>25.089</ele>
        <time>2018-08-23T13:27:25.921Z</time>
      </trkpt>
      <trkpt lat="47.8661066" lon="-2.4384820">
        <ele>24.625</ele>
        <time>2018-08-23T13:27:28.533Z</time>
      </trkpt>
      <trkpt lat="47.8659933" lon="-2.4384945">
        <ele>24.478</ele>
        <time>2018-08-23T13:27:31.189Z</time>
      </trkpt>
      <trkpt lat="47.8658683" lon="-2.4385067">
        <ele>24.568</ele>
        <time>2018-08-23T13:27:34.099Z</time>
      </trkpt>
      <trkpt lat="47.8657384" lon="-2.4385180">
        <ele>24.699</ele>
        <time>2018-08-23T13:27:37.159Z</time>
      </trkpt>
      <trkpt lat="47.8656131" lon="-2.4385315">
        <ele>24.734</ele>
        <time>2018-08-23T13:27:40.173Z</time>
      </trkpt>
      <trkpt lat="47.8654882" lon="-2.4385457">
        <ele>24.668</ele>
        <time>2018-08-23T13:27:43.217Z</time>
      </trkpt>
      <trkpt lat="47.8653665" lon="-2.4385586">
        <ele>24.551</ele>
        <time>2018-08-23T13:27:46.239Z</time>
      </trkpt>
      <trkpt lat="47.8652476" lon="-2.4385707">
        <ele>24.453</ele>
        <time>2018-08-23T13:27:49.427Z</time>
      </trkpt>
      <trkpt lat="47.8651291" lon="-2.4385811">
        <ele>24.392</ele>
        <time>2018-08-23T13:27:53.188Z</time>
      </trkpt>
      <trkpt lat="47.8650135" lon="-2.4386015">
        <ele>24.287</ele>
        <time>2018-08-23T13:27:58.070Z</time>
      </trkpt>
      <trkpt lat="47.8649114" lon="-2.4386267">
        <ele>24.118</ele>
        <time>2018-08-23T13:28:03.536Z</time>
      </trkpt>
      <trkpt lat="47.8648017" lon="-2.4386004">
        <ele>23.992</ele>
        <time>2018-08-23T13:28:08.552Z</time>
      </trkpt>
      <trkpt lat="47.8647066" lon="-2.4386118">
        <ele>23.985</ele>
        <time>2018-08-23T13:28:11.982Z</time>
      </trkpt>
      <trkpt lat="47.8646034" lon="-2.4386307">
        <ele>24.040</ele>
        <time>2018-08-23T13:28:15.353Z</time>
      </trkpt>
      <trkpt lat="47.8645147" lon="-2.4386778">
        <ele>24.193</ele>
        <time>2018-08-23T13:28:18.304Z</time>
      </trkpt>
      <trkpt lat="47.8644035" lon="-2.4386832">
        <ele>24.492</ele>
        <time>2018-08-23T13:28:21.782Z</time>
      </trkpt>
      <trkpt lat="47.8643125" lon="-2.4386952">
        <ele>24.786</ele>
        <time>2018-08-23T13:28:24.559Z</time>
      </trkpt>
      <trkpt lat="47.8642190" lon="-2.4387044">
        <ele>24.783</ele>
        <time>2018-08-23T13:28:27.254Z</time>
      </trkpt>
      <trkpt lat="47.8641009" lon="-2.4387281">
        <ele>24.348</ele>
        <time>2018-08-23T13:28:30.518Z</time>
      </trkpt>
      <trkpt lat="47.8639979" lon="-2.4387458">
        <ele>23.723</ele>
        <time>2018-08-23T13:28:33.305Z</time>
      </trkpt>
      <trkpt lat="47.8638873" lon="-2.4387573">
        <ele>23.318</ele>
        <time>2018-08-23T13:28:36.310Z</time>
      </trkpt>
      <trkpt lat="47.8637763" lon="-2.4387659">
        <ele>23.262</ele>
        <time>2018-08-23T13:28:39.391Z</time>
      </trkpt>
      <trkpt lat="47.8636698" lon="-2.4387798">
        <ele>23.411</ele>
        <time>2018-08-23T13:28:42.433Z</time>
      </trkpt>
      <trkpt lat="47.8635656" lon="-2.4387892">
        <ele>23.519</ele>
        <time>2018-08-23T13:28:45.367Z</time>
      </trkpt>
      <trkpt lat="47.8634664" lon="-2.4387977">
        <ele>23.430</ele>
        <time>2018-08-23T13:28:48.316Z</time>
      </trkpt>
      <trkpt lat="47.8633686" lon="-2.4388164">
        <ele>23.210</ele>
        <time>2018-08-23T13:28:51.300Z</time>
      </trkpt>
      <trkpt lat="47.8632618" lon="-2.4388380">
        <ele>23.144</ele>
        <time>2018-08-23T13:28:54.543Z</time>
      </trkpt>
      <trkpt lat="47.8631534" lon="-2.4388915">
        <ele>23.497</ele>
        <time>2018-08-23T13:28:57.613Z</time>
      </trkpt>
      <trkpt lat="47.8630289" lon="-2.4388978">
        <ele>24.713</ele>
        <time>2018-08-23T13:29:00.818Z</time>
      </trkpt>
      <trkpt lat="47.8629041" lon="-2.4389036">
        <ele>26.734</ele>
        <time>2018-08-23T13:29:03.968Z</time>
      </trkpt>
      <trkpt lat="47.8627797" lon="-2.4389157">
        <ele>28.467</ele>
        <time>2018-08-23T13:29:07.100Z</time>
      </trkpt>
      <trkpt lat="47.8626591" lon="-2.4389341">
        <ele>29.148</ele>
        <time>2018-08-23T13:29:10.188Z</time>
      </trkpt>
      <trkpt lat="47.8625415" lon="-2.4389461">
        <ele>29.011</ele>
        <time>2018-08-23T13:29:13.250Z</time>
      </trkpt>
      <trkpt lat="47.8624284" lon="-2.4389587">
        <ele>28.422</ele>
        <time>2018-08-23T13:29:16.228Z</time>
      </trkpt>
      <trkpt lat="47.8623151" lon="-2.4389714">
        <ele>27.682</ele>
        <time>2018-08-23T13:29:19.217Z</time>
      </trkpt>
      <trkpt lat="47.8622035" lon="-2.4389823">
        <ele>27.008</ele>
        <time>2018-08-23T13:29:22.164Z</time>
      </trkpt>
      <trkpt lat="47.8620937" lon="-2.4390025">
        <ele>26.487</ele>
        <time>2018-08-23T13:29:25.090Z</time>
      </trkpt>
      <trkpt lat="47.8619839" lon="-2.4390179">
        <ele>26.148</ele>
        <time>2018-08-23T13:29:28.021Z</time>
      </trkpt>
      <trkpt lat="47.8618761" lon="-2.4390299">
        <ele>25.985</ele>
        <time>2018-08-23T13:29:30.896Z</time>
      </trkpt>
      <trkpt lat="47.8617692" lon="-2.4390410">
        <ele>25.937</ele>
        <time>2018-08-23T13:29:33.742Z</time>
      </trkpt>
      <trkpt lat="47.8616672" lon="-2.4390601">
        <ele>25.809</ele>
        <time>2018-08-23T13:29:36.464Z</time>
      </trkpt>
      <trkpt lat="47.8615584" lon="-2.4390765">
        <ele>25.411</ele>
        <time>2018-08-23T13:29:39.362Z</time>
      </trkpt>
      <trkpt lat="47.8614492" lon="-2.4390872">
        <ele>24.846</ele>
        <time>2018-08-23T13:29:42.260Z</time>
      </trkpt>
      <trkpt lat="47.8613418" lon="-2.4390928">
        <ele>24.407</ele>
        <time>2018-08-23T13:29:45.079Z</time>
      </trkpt>
      <trkpt lat="47.8612325" lon="-2.4391066">
        <ele>24.145</ele>
        <time>2018-08-23T13:29:47.920Z</time>
      </trkpt>
      <trkpt lat="47.8611204" lon="-2.4391243">
        <ele>23.934</ele>
        <time>2018-08-23T13:29:50.828Z</time>
      </trkpt>
      <trkpt lat="47.8610109" lon="-2.4391415">
        <ele>23.777</ele>
        <time>2018-08-23T13:29:53.693Z</time>
      </trkpt>
      <trkpt lat="47.8609009" lon="-2.4391610">
        <ele>23.684</ele>
        <time>2018-08-23T13:29:56.651Z</time>
      </trkpt>
      <trkpt lat="47.8607935" lon="-2.4391798">
        <ele>23.601</ele>
        <time>2018-08-23T13:29:59.538Z</time>
      </trkpt>
      <trkpt lat="47.8606941" lon="-2.4391880">
        <ele>23.531</ele>
        <time>2018-08-23T13:30:02.188Z</time>
      </trkpt>
      <trkpt lat="47.8605825" lon="-2.4391971">
        <ele>23.638</ele>
        <time>2018-08-23T13:30:05.248Z</time>
      </trkpt>
      <trkpt lat="47.8604797" lon="-2.4392092">
        <ele>24.057</ele>
        <time>2018-08-23T13:30:08.145Z</time>
      </trkpt>
      <trkpt lat="47.8603807" lon="-2.4392208">
        <ele>24.624</ele>
        <time>2018-08-23T13:30:10.896Z</time>
      </trkpt>
      <trkpt lat="47.8602750" lon="-2.4392321">
        <ele>25.057</ele>
        <time>2018-08-23T13:30:13.723Z</time>
      </trkpt>
      <trkpt lat="47.8601570" lon="-2.4392453">
        <ele>25.363</ele>
        <time>2018-08-23T13:30:16.778Z</time>
      </trkpt>
      <trkpt lat="47.8600420" lon="-2.4392592">
        <ele>25.719</ele>
        <time>2018-08-23T13:30:19.694Z</time>
      </trkpt>
      <trkpt lat="47.8599218" lon="-2.4392755">
        <ele>26.161</ele>
        <time>2018-08-23T13:30:22.737Z</time>
      </trkpt>
      <trkpt lat="47.8598049" lon="-2.4392917">
        <ele>26.542</ele>
        <time>2018-08-23T13:30:25.709Z</time>
      </trkpt>
      <trkpt lat="47.8596920" lon="-2.4393112">
        <ele>26.645</ele>
        <time>2018-08-23T13:30:28.584Z</time>
      </trkpt>
      <trkpt lat="47.8595792" lon="-2.4393295">
        <ele>26.408</ele>
        <time>2018-08-23T13:30:31.479Z</time>
      </trkpt>
      <trkpt lat="47.8594661" lon="-2.4393430">
        <ele>26.076</ele>
        <time>2018-08-23T13:30:34.448Z</time>
      </trkpt>
      <trkpt lat="47.8593595" lon="-2.4393540">
        <ele>25.895</ele>
        <time>2018-08-23T13:30:37.278Z</time>
      </trkpt>
      <trkpt lat="47.8592470" lon="-2.4393644">
        <ele>25.865</ele>
        <time>2018-08-23T13:30:40.240Z</time>
      </trkpt>
      <trkpt lat="47.8591375" lon="-2.4393782">
        <ele>25.835</ele>
        <time>2018-08-23T13:30:43.098Z</time>
      </trkpt>
      <trkpt lat="47.8590177" lon="-2.4393974">
        <ele>25.472</ele>
        <time>2018-08-23T13:30:46.239Z</time>
      </trkpt>
      <trkpt lat="47.8589026" lon="-2.4394152">
        <ele>24.391</ele>
        <time>2018-08-23T13:30:49.265Z</time>
      </trkpt>
      <trkpt lat="47.8588004" lon="-2.4394265">
        <ele>22.864</ele>
        <time>2018-08-23T13:30:51.933Z</time>
      </trkpt>
      <trkpt lat="47.8586936" lon="-2.4394391">
        <ele>21.969</ele>
        <time>2018-08-23T13:30:54.775Z</time>
      </trkpt>
      <trkpt lat="47.8585860" lon="-2.4394573">
        <ele>22.211</ele>
        <time>2018-08-23T13:30:58.050Z</time>
      </trkpt>
      <trkpt lat="47.8584937" lon="-2.4394471">
        <ele>22.907</ele>
        <time>2018-08-23T13:31:01.366Z</time>
      </trkpt>
      <trkpt lat="47.8583952" lon="-2.4394100">
        <ele>23.484</ele>
        <time>2018-08-23T13:31:05.884Z</time>
      </trkpt>
      <trkpt lat="47.8583084" lon="-2.4394758">
        <ele>23.945</ele>
        <time>2018-08-23T13:31:10.074Z</time>
      </trkpt>
      <trkpt lat="47.8582001" lon="-2.4395069">
        <ele>24.221</ele>
        <time>2018-08-23T13:31:14.022Z</time>
      </trkpt>
      <trkpt lat="47.8581033" lon="-2.4395189">
        <ele>24.213</ele>
        <time>2018-08-23T13:31:17.051Z</time>
      </trkpt>
      <trkpt lat="47.8580074" lon="-2.4395377">
        <ele>23.995</ele>
        <time>2018-08-23T13:31:19.977Z</time>
      </trkpt>
      <trkpt lat="47.8579147" lon="-2.4395477">
        <ele>23.667</ele>
        <time>2018-08-23T13:31:22.791Z</time>
      </trkpt>
      <trkpt lat="47.8578198" lon="-2.4395600">
        <ele>23.347</ele>
        <time>2018-08-23T13:31:25.650Z</time>
      </trkpt>
      <trkpt lat="47.8577209" lon="-2.4395703">
        <ele>23.167</ele>
        <time>2018-08-23T13:31:28.516Z</time>
      </trkpt>
      <trkpt lat="47.8576145" lon="-2.4395823">
        <ele>23.169</ele>
        <time>2018-08-23T13:31:31.500Z</time>
      </trkpt>
      <trkpt lat="47.8575126" lon="-2.4395979">
        <ele>23.252</ele>
        <time>2018-08-23T13:31:34.303Z</time>
      </trkpt>
      <trkpt lat="47.8574072" lon="-2.4396057">
        <ele>23.276</ele>
        <time>2018-08-23T13:31:37.219Z</time>
      </trkpt>
      <trkpt lat="47.8573122" lon="-2.4396217">
        <ele>23.210</ele>
        <time>2018-08-23T13:31:39.944Z</time>
      </trkpt>
      <trkpt lat="47.8572123" lon="-2.4396310">
        <ele>23.042</ele>
        <time>2018-08-23T13:31:42.777Z</time>
      </trkpt>
      <trkpt lat="47.8571053" lon="-2.4396503">
        <ele>22.884</ele>
        <time>2018-08-23T13:31:45.721Z</time>
      </trkpt>
      <trkpt lat="47.8569931" lon="-2.4396667">
        <ele>22.878</ele>
        <time>2018-08-23T13:31:48.726Z</time>
      </trkpt>
      <trkpt lat="47.8568851" lon="-2.4396748">
        <ele>22.945</ele>
        <time>2018-08-23T13:31:51.709Z</time>
      </trkpt>
      <trkpt lat="47.8567943" lon="-2.4396906">
        <ele>22.958</ele>
        <time>2018-08-23T13:31:54.375Z</time>
      </trkpt>
      <trkpt lat="47.8566876" lon="-2.4397065">
        <ele>22.928</ele>
        <time>2018-08-23T13:31:57.536Z</time>
      </trkpt>
      <trkpt lat="47.8565816" lon="-2.4397190">
        <ele>22.661</ele>
        <time>2018-08-23T13:32:00.603Z</time>
      </trkpt>
      <trkpt lat="47.8564705" lon="-2.4397313">
        <ele>21.890</ele>
        <time>2018-08-23T13:32:03.768Z</time>
      </trkpt>
      <trkpt lat="47.8563696" lon="-2.4397475">
        <ele>20.843</ele>
        <time>2018-08-23T13:32:06.677Z</time>
      </trkpt>
      <trkpt lat="47.8562705" lon="-2.4397571">
        <ele>20.169</ele>
        <time>2018-08-23T13:32:09.547Z</time>
      </trkpt>
      <trkpt lat="47.8561618" lon="-2.4397711">
        <ele>20.096</ele>
        <time>2018-08-23T13:32:12.621Z</time>
      </trkpt>
      <trkpt lat="47.8560504" lon="-2.4397956">
        <ele>20.175</ele>
        <time>2018-08-23T13:32:15.672Z</time>
      </trkpt>
      <trkpt lat="47.8559411" lon="-2.4398127">
        <ele>20.012</ele>
        <time>2018-08-23T13:32:18.679Z</time>
      </trkpt>
      <trkpt lat="47.8558421" lon="-2.4398232">
        <ele>19.808</ele>
        <time>2018-08-23T13:32:21.535Z</time>
      </trkpt>
      <trkpt lat="47.8557455" lon="-2.4398297">
        <ele>19.981</ele>
        <time>2018-08-23T13:32:24.413Z</time>
      </trkpt>
      <trkpt lat="47.8556492" lon="-2.4398414">
        <ele>20.578</ele>
        <time>2018-08-23T13:32:27.298Z</time>
      </trkpt>
      <trkpt lat="47.8555437" lon="-2.4398576">
        <ele>21.240</ele>
        <time>2018-08-23T13:32:30.417Z</time>
      </trkpt>
      <trkpt lat="47.8554438" lon="-2.4398713">
        <ele>21.633</ele>
        <time>2018-08-23T13:32:33.351Z</time>
      </trkpt>
      <trkpt lat="47.8553482" lon="-2.4398843">
        <ele>21.693</ele>
        <time>2018-08-23T13:32:36.194Z</time>
      </trkpt>
      <trkpt lat="47.8552501" lon="-2.4398963">
        <ele>21.531</ele>
        <time>2018-08-23T13:32:39.116Z</time>
      </trkpt>
      <trkpt lat="47.8551519" lon="-2.4399070">
        <ele>21.410</ele>
        <time>2018-08-23T13:32:42.002Z</time>
      </trkpt>
      <trkpt lat="47.8550560" lon="-2.4399070">
        <ele>21.493</ele>
        <time>2018-08-23T13:32:44.773Z</time>
      </trkpt>
      <trkpt lat="47.8549490" lon="-2.4399229">
        <ele>21.467</ele>
        <time>2018-08-23T13:32:47.811Z</time>
      </trkpt>
      <trkpt lat="47.8548360" lon="-2.4399423">
        <ele>20.888</ele>
        <time>2018-08-23T13:32:50.888Z</time>
      </trkpt>
      <trkpt lat="47.8547244" lon="-2.4399659">
        <ele>19.932</ele>
        <time>2018-08-23T13:32:53.886Z</time>
      </trkpt>
      <trkpt lat="47.8546080" lon="-2.4399823">
        <ele>19.197</ele>
        <time>2018-08-23T13:32:56.978Z</time>
      </trkpt>
      <trkpt lat="47.8544863" lon="-2.4399947">
        <ele>18.916</ele>
        <time>2018-08-23T13:33:00.116Z</time>
      </trkpt>
      <trkpt lat="47.8543698" lon="-2.4400128">
        <ele>18.913</ele>
        <time>2018-08-23T13:33:03.094Z</time>
      </trkpt>
      <trkpt lat="47.8542557" lon="-2.4400276">
        <ele>18.973</ele>
        <time>2018-08-23T13:33:06.011Z</time>
      </trkpt>
      <trkpt lat="47.8541404" lon="-2.4400488">
        <ele>19.019</ele>
        <time>2018-08-23T13:33:08.963Z</time>
      </trkpt>
      <trkpt lat="47.8540266" lon="-2.4400599">
        <ele>19.076</ele>
        <time>2018-08-23T13:33:11.863Z</time>
      </trkpt>
      <trkpt lat="47.8539140" lon="-2.4400693">
        <ele>19.219</ele>
        <time>2018-08-23T13:33:14.752Z</time>
      </trkpt>
      <trkpt lat="47.8538034" lon="-2.4400858">
        <ele>19.461</ele>
        <time>2018-08-23T13:33:17.628Z</time>
      </trkpt>
      <trkpt lat="47.8536945" lon="-2.4401065">
        <ele>19.646</ele>
        <time>2018-08-23T13:33:20.471Z</time>
      </trkpt>
      <trkpt lat="47.8535859" lon="-2.4401329">
        <ele>19.553</ele>
        <time>2018-08-23T13:33:23.279Z</time>
      </trkpt>
      <trkpt lat="47.8534692" lon="-2.4401622">
        <ele>19.037</ele>
        <time>2018-08-23T13:33:26.251Z</time>
      </trkpt>
      <trkpt lat="47.8533500" lon="-2.4401812">
        <ele>18.335</ele>
        <time>2018-08-23T13:33:29.231Z</time>
      </trkpt>
      <trkpt lat="47.8532400" lon="-2.4401943">
        <ele>17.941</ele>
        <time>2018-08-23T13:33:31.993Z</time>
      </trkpt>
      <trkpt lat="47.8531494" lon="-2.4402008">
        <ele>18.206</ele>
        <time>2018-08-23T13:33:34.416Z</time>
      </trkpt>
      <trkpt lat="47.8530596" lon="-2.4402076">
        <ele>19.146</ele>
        <time>2018-08-23T13:33:37.035Z</time>
      </trkpt>
      <trkpt lat="47.8529697" lon="-2.4401772">
        <ele>20.286</ele>
        <time>2018-08-23T13:33:40.142Z</time>
      </trkpt>
      <trkpt lat="47.8528722" lon="-2.4402109">
        <ele>21.003</ele>
        <time>2018-08-23T13:33:44.398Z</time>
      </trkpt>
      <trkpt lat="47.8527665" lon="-2.4402603">
        <ele>20.904</ele>
        <time>2018-08-23T13:33:49.917Z</time>
      </trkpt>
      <trkpt lat="47.8526573" lon="-2.4402749">
        <ele>20.044</ele>
        <time>2018-08-23T13:33:55.907Z</time>
      </trkpt>
      <trkpt lat="47.8525514" lon="-2.4402826">
        <ele>19.277</ele>
        <time>2018-08-23T13:34:00.362Z</time>
      </trkpt>
      <trkpt lat="47.8524403" lon="-2.4402773">
        <ele>19.364</ele>
        <time>2018-08-23T13:34:04.517Z</time>
      </trkpt>
      <trkpt lat="47.8523194" lon="-2.4402689">
        <ele>20.266</ele>
        <time>2018-08-23T13:34:08.849Z</time>
      </trkpt>
      <trkpt lat="47.8522268" lon="-2.4402783">
        <ele>21.485</ele>
        <time>2018-08-23T13:34:11.987Z</time>
      </trkpt>
      <trkpt lat="47.8521155" lon="-2.4402814">
        <ele>22.390</ele>
        <time>2018-08-23T13:34:15.598Z</time>
      </trkpt>
      <trkpt lat="47.8520199" lon="-2.4402815">
        <ele>22.842</ele>
        <time>2018-08-23T13:34:18.736Z</time>
      </trkpt>
      <trkpt lat="47.8519226" lon="-2.4403085">
        <ele>23.146</ele>
        <time>2018-08-23T13:34:21.911Z</time>
      </trkpt>
      <trkpt lat="47.8518188" lon="-2.4403259">
        <ele>23.135</ele>
        <time>2018-08-23T13:34:25.132Z</time>
      </trkpt>
      <trkpt lat="47.8517097" lon="-2.4403437">
        <ele>22.551</ele>
        <time>2018-08-23T13:34:28.448Z</time>
      </trkpt>
      <trkpt lat="47.8515994" lon="-2.4403520">
        <ele>21.767</ele>
        <time>2018-08-23T13:34:31.653Z</time>
      </trkpt>
      <trkpt lat="47.8514922" lon="-2.4403649">
        <ele>21.277</ele>
        <time>2018-08-23T13:34:34.682Z</time>
      </trkpt>
      <trkpt lat="47.8513915" lon="-2.4403748">
        <ele>21.092</ele>
        <time>2018-08-23T13:34:37.473Z</time>
      </trkpt>
      <trkpt lat="47.8512859" lon="-2.4403812">
        <ele>21.029</ele>
        <time>2018-08-23T13:34:40.405Z</time>
      </trkpt>
      <trkpt lat="47.8511809" lon="-2.4403838">
        <ele>20.978</ele>
        <time>2018-08-23T13:34:43.332Z</time>
      </trkpt>
      <trkpt lat="47.8510827" lon="-2.4403870">
        <ele>20.894</ele>
        <time>2018-08-23T13:34:46.035Z</time>
      </trkpt>
      <trkpt lat="47.8509614" lon="-2.4403928">
        <ele>20.632</ele>
        <time>2018-08-23T13:34:49.451Z</time>
      </trkpt>
      <trkpt lat="47.8508702" lon="-2.4403978">
        <ele>20.219</ele>
        <time>2018-08-23T13:34:52.029Z</time>
      </trkpt>
      <trkpt lat="47.8507669" lon="-2.4403883">
        <ele>19.940</ele>
        <time>2018-08-23T13:34:54.936Z</time>
      </trkpt>
      <trkpt lat="47.8506536" lon="-2.4403917">
        <ele>20.235</ele>
        <time>2018-08-23T13:34:58.229Z</time>
      </trkpt>
      <trkpt lat="47.8505377" lon="-2.4403914">
        <ele>21.152</ele>
        <time>2018-08-23T13:35:01.669Z</time>
      </trkpt>
      <trkpt lat="47.8504280" lon="-2.4403874">
        <ele>22.089</ele>
        <time>2018-08-23T13:35:04.729Z</time>
      </trkpt>
      <trkpt lat="47.8503202" lon="-2.4403791">
        <ele>22.402</ele>
        <time>2018-08-23T13:35:07.651Z</time>
      </trkpt>
      <trkpt lat="47.8502109" lon="-2.4403785">
        <ele>22.112</ele>
        <time>2018-08-23T13:35:10.670Z</time>
      </trkpt>
      <trkpt lat="47.8500935" lon="-2.4403867">
        <ele>21.658</ele>
        <time>2018-08-23T13:35:13.935Z</time>
      </trkpt>
      <trkpt lat="47.8499864" lon="-2.4403698">
        <ele>21.526</ele>
        <time>2018-08-23T13:35:16.850Z</time>
      </trkpt>
      <trkpt lat="47.8498891" lon="-2.4403305">
        <ele>22.233</ele>
        <time>2018-08-23T13:35:19.561Z</time>
      </trkpt>
      <trkpt lat="47.8497832" lon="-2.4403015">
        <ele>23.753</ele>
        <time>2018-08-23T13:35:22.586Z</time>
      </trkpt>
      <trkpt lat="47.8496870" lon="-2.4402915">
        <ele>24.973</ele>
        <time>2018-08-23T13:35:25.383Z</time>
      </trkpt>
      <trkpt lat="47.8495728" lon="-2.4402809">
        <ele>25.023</ele>
        <time>2018-08-23T13:35:28.745Z</time>
      </trkpt>
      <trkpt lat="47.8494777" lon="-2.4402768">
        <ele>24.329</ele>
        <time>2018-08-23T13:35:31.719Z</time>
      </trkpt>
      <trkpt lat="47.8493721" lon="-2.4402629">
        <ele>23.215</ele>
        <time>2018-08-23T13:35:35.131Z</time>
      </trkpt>
      <trkpt lat="47.8492725" lon="-2.4402510">
        <ele>21.724</ele>
        <time>2018-08-23T13:35:38.263Z</time>
      </trkpt>
      <trkpt lat="47.8491601" lon="-2.4402153">
        <ele>20.467</ele>
        <time>2018-08-23T13:35:41.683Z</time>
      </trkpt>
      <trkpt lat="47.8490469" lon="-2.4401694">
        <ele>19.950</ele>
        <time>2018-08-23T13:35:45.059Z</time>
      </trkpt>
      <trkpt lat="47.8489423" lon="-2.4401323">
        <ele>20.051</ele>
        <time>2018-08-23T13:35:48.100Z</time>
      </trkpt>
      <trkpt lat="47.8488471" lon="-2.4401075">
        <ele>20.556</ele>
        <time>2018-08-23T13:35:50.921Z</time>
      </trkpt>
      <trkpt lat="47.8487472" lon="-2.4400848">
        <ele>21.172</ele>
        <time>2018-08-23T13:35:54.008Z</time>
      </trkpt>
      <trkpt lat="47.8486417" lon="-2.4400577">
        <ele>21.835</ele>
        <time>2018-08-23T13:35:57.267Z</time>
      </trkpt>
      <trkpt lat="47.8485398" lon="-2.4400324">
        <ele>22.725</ele>
        <time>2018-08-23T13:36:00.282Z</time>
      </trkpt>
      <trkpt lat="47.8484346" lon="-2.4400123">
        <ele>23.727</ele>
        <time>2018-08-23T13:36:03.335Z</time>
      </trkpt>
      <trkpt lat="47.8483249" lon="-2.4399794">
        <ele>24.581</ele>
        <time>2018-08-23T13:36:06.598Z</time>
      </trkpt>
      <trkpt lat="47.8482255" lon="-2.4399449">
        <ele>25.079</ele>
        <time>2018-08-23T13:36:09.501Z</time>
      </trkpt>
      <trkpt lat="47.8481287" lon="-2.4399224">
        <ele>24.910</ele>
        <time>2018-08-23T13:36:12.190Z</time>
      </trkpt>
      <trkpt lat="47.8480311" lon="-2.4398966">
        <ele>24.065</ele>
        <time>2018-08-23T13:36:14.896Z</time>
      </trkpt>
      <trkpt lat="47.8479335" lon="-2.4398693">
        <ele>22.810</ele>
        <time>2018-08-23T13:36:17.622Z</time>
      </trkpt>
      <trkpt lat="47.8478373" lon="-2.4398362">
        <ele>21.459</ele>
        <time>2018-08-23T13:36:20.344Z</time>
      </trkpt>
      <trkpt lat="47.8477215" lon="-2.4397980">
        <ele>20.496</ele>
        <time>2018-08-23T13:36:23.681Z</time>
      </trkpt>
      <trkpt lat="47.8476119" lon="-2.4397532">
        <ele>20.212</ele>
        <time>2018-08-23T13:36:26.892Z</time>
      </trkpt>
      <trkpt lat="47.8475175" lon="-2.4397152">
        <ele>20.375</ele>
        <time>2018-08-23T13:36:29.608Z</time>
      </trkpt>
      <trkpt lat="47.8474202" lon="-2.4396289">
        <ele>20.597</ele>
        <time>2018-08-23T13:36:32.801Z</time>
      </trkpt>
      <trkpt lat="47.8473248" lon="-2.4396139">
        <ele>20.654</ele>
        <time>2018-08-23T13:36:35.681Z</time>
      </trkpt>
      <trkpt lat="47.8472117" lon="-2.4395970">
        <ele>20.628</ele>
        <time>2018-08-23T13:36:39.467Z</time>
      </trkpt>
      <trkpt lat="47.8471204" lon="-2.4395488">
        <ele>20.646</ele>
        <time>2018-08-23T13:36:43.050Z</time>
      </trkpt>
      <trkpt lat="47.8470336" lon="-2.4395086">
        <ele>20.697</ele>
        <time>2018-08-23T13:36:46.484Z</time>
      </trkpt>
      <trkpt lat="47.8469403" lon="-2.4394740">
        <ele>20.708</ele>
        <time>2018-08-23T13:36:49.751Z</time>
      </trkpt>
      <trkpt lat="47.8468441" lon="-2.4394427">
        <ele>20.737</ele>
        <time>2018-08-23T13:36:52.942Z</time>
      </trkpt>
      <trkpt lat="47.8467460" lon="-2.4393932">
        <ele>20.800</ele>
        <time>2018-08-23T13:36:56.258Z</time>
      </trkpt>
      <trkpt lat="47.8466509" lon="-2.4393370">
        <ele>20.626</ele>
        <time>2018-08-23T13:36:59.430Z</time>
      </trkpt>
      <trkpt lat="47.8465647" lon="-2.4392815">
        <ele>19.951</ele>
        <time>2018-08-23T13:37:02.227Z</time>
      </trkpt>
      <trkpt lat="47.8464703" lon="-2.4392278">
        <ele>19.010</ele>
        <time>2018-08-23T13:37:05.217Z</time>
      </trkpt>
      <trkpt lat="47.8463648" lon="-2.4391591">
        <ele>18.310</ele>
        <time>2018-08-23T13:37:08.747Z</time>
      </trkpt>
      <trkpt lat="47.8462592" lon="-2.4390982">
        <ele>18.302</ele>
        <time>2018-08-23T13:37:12.189Z</time>
      </trkpt>
      <trkpt lat="47.8461653" lon="-2.4390382">
        <ele>18.952</ele>
        <time>2018-08-23T13:37:15.149Z</time>
      </trkpt>
      <trkpt lat="47.8460727" lon="-2.4389923">
        <ele>19.684</ele>
        <time>2018-08-23T13:37:17.902Z</time>
      </trkpt>
      <trkpt lat="47.8459794" lon="-2.4389424">
        <ele>20.033</ele>
        <time>2018-08-23T13:37:20.648Z</time>
      </trkpt>
      <trkpt lat="47.8458883" lon="-2.4388946">
        <ele>20.073</ele>
        <time>2018-08-23T13:37:23.300Z</time>
      </trkpt>
      <trkpt lat="47.8457865" lon="-2.4388391">
        <ele>20.115</ele>
        <time>2018-08-23T13:37:26.313Z</time>
      </trkpt>
      <trkpt lat="47.8456744" lon="-2.4387735">
        <ele>20.333</ele>
        <time>2018-08-23T13:37:29.727Z</time>
      </trkpt>
      <trkpt lat="47.8455770" lon="-2.4387110">
        <ele>20.501</ele>
        <time>2018-08-23T13:37:32.703Z</time>
      </trkpt>
      <trkpt lat="47.8454791" lon="-2.4386240">
        <ele>20.412</ele>
        <time>2018-08-23T13:37:35.844Z</time>
      </trkpt>
      <trkpt lat="47.8453952" lon="-2.4385604">
        <ele>20.232</ele>
        <time>2018-08-23T13:37:38.423Z</time>
      </trkpt>
      <trkpt lat="47.8453135" lon="-2.4384972">
        <ele>20.287</ele>
        <time>2018-08-23T13:37:40.978Z</time>
      </trkpt>
      <trkpt lat="47.8452094" lon="-2.4384224">
        <ele>20.918</ele>
        <time>2018-08-23T13:37:44.318Z</time>
      </trkpt>
      <trkpt lat="47.8451151" lon="-2.4383311">
        <ele>22.327</ele>
        <time>2018-08-23T13:37:47.711Z</time>
      </trkpt>
      <trkpt lat="47.8450216" lon="-2.4382792">
        <ele>24.044</ele>
        <time>2018-08-23T13:37:50.834Z</time>
      </trkpt>
      <trkpt lat="47.8449281" lon="-2.4382310">
        <ele>25.078</ele>
        <time>2018-08-23T13:37:54.056Z</time>
      </trkpt>
      <trkpt lat="47.8448385" lon="-2.4381773">
        <ele>24.958</ele>
        <time>2018-08-23T13:37:57.100Z</time>
      </trkpt>
      <trkpt lat="47.8447294" lon="-2.4381061">
        <ele>24.049</ele>
        <time>2018-08-23T13:38:00.789Z</time>
      </trkpt>
      <trkpt lat="47.8446324" lon="-2.4380394">
        <ele>22.955</ele>
        <time>2018-08-23T13:38:03.975Z</time>
      </trkpt>
      <trkpt lat="47.8445339" lon="-2.4379721">
        <ele>22.140</ele>
        <time>2018-08-23T13:38:06.976Z</time>
      </trkpt>
      <trkpt lat="47.8444332" lon="-2.4378832">
        <ele>21.779</ele>
        <time>2018-08-23T13:38:10.208Z</time>
      </trkpt>
      <trkpt lat="47.8443434" lon="-2.4377983">
        <ele>21.822</ele>
        <time>2018-08-23T13:38:13.273Z</time>
      </trkpt>
      <trkpt lat="47.8442365" lon="-2.4377125">
        <ele>22.327</ele>
        <time>2018-08-23T13:38:16.761Z</time>
      </trkpt>
      <trkpt lat="47.8441519" lon="-2.4376267">
        <ele>23.264</ele>
        <time>2018-08-23T13:38:19.696Z</time>
      </trkpt>
      <trkpt lat="47.8440791" lon="-2.4375471">
        <ele>24.616</ele>
        <time>2018-08-23T13:38:22.311Z</time>
      </trkpt>
      <trkpt lat="47.8439802" lon="-2.4374784">
        <ele>26.222</ele>
        <time>2018-08-23T13:38:25.555Z</time>
      </trkpt>
      <trkpt lat="47.8438784" lon="-2.4374081">
        <ele>27.361</ele>
        <time>2018-08-23T13:38:28.941Z</time>
      </trkpt>
      <trkpt lat="47.8437922" lon="-2.4373094">
        <ele>27.515</ele>
        <time>2018-08-23T13:38:32.204Z</time>
      </trkpt>
      <trkpt lat="47.8437034" lon="-2.4372252">
        <ele>27.103</ele>
        <time>2018-08-23T13:38:35.321Z</time>
      </trkpt>
      <trkpt lat="47.8436127" lon="-2.4371457">
        <ele>26.616</ele>
        <time>2018-08-23T13:38:38.406Z</time>
      </trkpt>
      <trkpt lat="47.8435200" lon="-2.4370624">
        <ele>25.689</ele>
        <time>2018-08-23T13:38:41.535Z</time>
      </trkpt>
      <trkpt lat="47.8434359" lon="-2.4369798">
        <ele>24.045</ele>
        <time>2018-08-23T13:38:44.401Z</time>
      </trkpt>
      <trkpt lat="47.8433442" lon="-2.4369033">
        <ele>22.493</ele>
        <time>2018-08-23T13:38:47.390Z</time>
      </trkpt>
      <trkpt lat="47.8432524" lon="-2.4368179">
        <ele>21.989</ele>
        <time>2018-08-23T13:38:50.519Z</time>
      </trkpt>
      <trkpt lat="47.8431568" lon="-2.4367241">
        <ele>22.465</ele>
        <time>2018-08-23T13:38:53.881Z</time>
      </trkpt>
      <trkpt lat="47.8430621" lon="-2.4366234">
        <ele>22.954</ele>
        <time>2018-08-23T13:38:57.261Z</time>
      </trkpt>
      <trkpt lat="47.8429821" lon="-2.4365234">
        <ele>22.752</ele>
        <time>2018-08-23T13:39:00.145Z</time>
      </trkpt>
      <trkpt lat="47.8428948" lon="-2.4364343">
        <ele>22.384</ele>
        <time>2018-08-23T13:39:03.028Z</time>
      </trkpt>
      <trkpt lat="47.8428122" lon="-2.4363458">
        <ele>22.460</ele>
        <time>2018-08-23T13:39:05.870Z</time>
      </trkpt>
      <trkpt lat="47.8427234" lon="-2.4362489">
        <ele>22.771</ele>
        <time>2018-08-23T13:39:09.019Z</time>
      </trkpt>
      <trkpt lat="47.8426396" lon="-2.4361635">
        <ele>22.594</ele>
        <time>2018-08-23T13:39:11.907Z</time>
      </trkpt>
      <trkpt lat="47.8425575" lon="-2.4360730">
        <ele>21.596</ele>
        <time>2018-08-23T13:39:14.749Z</time>
      </trkpt>
      <trkpt lat="47.8424878" lon="-2.4359754">
        <ele>20.128</ele>
        <time>2018-08-23T13:39:17.398Z</time>
      </trkpt>
      <trkpt lat="47.8424183" lon="-2.4358823">
        <ele>18.770</ele>
        <time>2018-08-23T13:39:20.087Z</time>
      </trkpt>
      <trkpt lat="47.8423505" lon="-2.4357930">
        <ele>18.205</ele>
        <time>2018-08-23T13:39:22.868Z</time>
      </trkpt>
      <trkpt lat="47.8422706" lon="-2.4357230">
        <ele>18.987</ele>
        <time>2018-08-23T13:39:25.849Z</time>
      </trkpt>
      <trkpt lat="47.8421805" lon="-2.4356155">
        <ele>20.927</ele>
        <time>2018-08-23T13:39:29.645Z</time>
      </trkpt>
      <trkpt lat="47.8420988" lon="-2.4355086">
        <ele>23.115</ele>
        <time>2018-08-23T13:39:33.242Z</time>
      </trkpt>
      <trkpt lat="47.8420168" lon="-2.4353988">
        <ele>24.365</ele>
        <time>2018-08-23T13:39:36.633Z</time>
      </trkpt>
      <trkpt lat="47.8419408" lon="-2.4353122">
        <ele>24.149</ele>
        <time>2018-08-23T13:39:39.404Z</time>
      </trkpt>
      <trkpt lat="47.8418706" lon="-2.4352269">
        <ele>23.120</ele>
        <time>2018-08-23T13:39:42.038Z</time>
      </trkpt>
      <trkpt lat="47.8418023" lon="-2.4351345">
        <ele>22.266</ele>
        <time>2018-08-23T13:39:44.829Z</time>
      </trkpt>
      <trkpt lat="47.8417112" lon="-2.4350167">
        <ele>21.967</ele>
        <time>2018-08-23T13:39:48.686Z</time>
      </trkpt>
      <trkpt lat="47.8416452" lon="-2.4349129">
        <ele>21.790</ele>
        <time>2018-08-23T13:39:51.805Z</time>
      </trkpt>
      <trkpt lat="47.8415704" lon="-2.4348021">
        <ele>21.074</ele>
        <time>2018-08-23T13:39:55.218Z</time>
      </trkpt>
      <trkpt lat="47.8415057" lon="-2.4347038">
        <ele>19.861</ele>
        <time>2018-08-23T13:39:58.167Z</time>
      </trkpt>
      <trkpt lat="47.8414282" lon="-2.4345903">
        <ele>18.814</ele>
        <time>2018-08-23T13:40:01.611Z</time>
      </trkpt>
      <trkpt lat="47.8413589" lon="-2.4344945">
        <ele>18.212</ele>
        <time>2018-08-23T13:40:04.632Z</time>
      </trkpt>
      <trkpt lat="47.8412864" lon="-2.4343867">
        <ele>17.843</ele>
        <time>2018-08-23T13:40:07.898Z</time>
      </trkpt>
      <trkpt lat="47.8412259" lon="-2.4342770">
        <ele>17.623</ele>
        <time>2018-08-23T13:40:11.144Z</time>
      </trkpt>
      <trkpt lat="47.8411620" lon="-2.4341691">
        <ele>17.856</ele>
        <time>2018-08-23T13:40:14.737Z</time>
      </trkpt>
      <trkpt lat="47.8410934" lon="-2.4340356">
        <ele>18.761</ele>
        <time>2018-08-23T13:40:19.992Z</time>
      </trkpt>
      <trkpt lat="47.8410361" lon="-2.4339200">
        <ele>20.195</ele>
        <time>2018-08-23T13:40:25.043Z</time>
      </trkpt>
      <trkpt lat="47.8409753" lon="-2.4338060">
        <ele>21.806</ele>
        <time>2018-08-23T13:40:29.710Z</time>
      </trkpt>
      <trkpt lat="47.8409028" lon="-2.4336750">
        <ele>23.158</ele>
        <time>2018-08-23T13:40:35.283Z</time>
      </trkpt>
      <trkpt lat="47.8408294" lon="-2.4335581">
        <ele>23.937</ele>
        <time>2018-08-23T13:40:40.285Z</time>
      </trkpt>
      <trkpt lat="47.8407663" lon="-2.4334448">
        <ele>24.183</ele>
        <time>2018-08-23T13:40:44.937Z</time>
      </trkpt>
      <trkpt lat="47.8407009" lon="-2.4333361">
        <ele>24.117</ele>
        <time>2018-08-23T13:40:49.580Z</time>
      </trkpt>
      <trkpt lat="47.8406506" lon="-2.4332144">
        <ele>24.043</ele>
        <time>2018-08-23T13:40:53.865Z</time>
      </trkpt>
      <trkpt lat="47.8405798" lon="-2.4330983">
        <ele>24.284</ele>
        <time>2018-08-23T13:40:58.164Z</time>
      </trkpt>
      <trkpt lat="47.8404958" lon="-2.4329793">
        <ele>24.859</ele>
        <time>2018-08-23T13:41:02.627Z</time>
      </trkpt>
      <trkpt lat="47.8404306" lon="-2.4328706">
        <ele>25.321</ele>
        <time>2018-08-23T13:41:06.420Z</time>
      </trkpt>
      <trkpt lat="47.8403596" lon="-2.4327594">
        <ele>25.334</ele>
        <time>2018-08-23T13:41:10.492Z</time>
      </trkpt>
      <trkpt lat="47.8402982" lon="-2.4326486">
        <ele>25.068</ele>
        <time>2018-08-23T13:41:14.387Z</time>
      </trkpt>
      <trkpt lat="47.8402477" lon="-2.4325285">
        <ele>25.131</ele>
        <time>2018-08-23T13:41:18.292Z</time>
      </trkpt>
      <trkpt lat="47.8401819" lon="-2.4324001">
        <ele>25.947</ele>
        <time>2018-08-23T13:41:22.513Z</time>
      </trkpt>
      <trkpt lat="47.8401163" lon="-2.4322870">
        <ele>27.082</ele>
        <time>2018-08-23T13:41:26.420Z</time>
      </trkpt>
      <trkpt lat="47.8400653" lon="-2.4321709">
        <ele>27.544</ele>
        <time>2018-08-23T13:41:30.337Z</time>
      </trkpt>
      <trkpt lat="47.8400057" lon="-2.4320473">
        <ele>26.991</ele>
        <time>2018-08-23T13:41:34.592Z</time>
      </trkpt>
      <trkpt lat="47.8399346" lon="-2.4319370">
        <ele>26.048</ele>
        <time>2018-08-23T13:41:38.556Z</time>
      </trkpt>
      <trkpt lat="47.8398674" lon="-2.4318309">
        <ele>25.412</ele>
        <time>2018-08-23T13:41:42.264Z</time>
      </trkpt>
      <trkpt lat="47.8397991" lon="-2.4317086">
        <ele>25.185</ele>
        <time>2018-08-23T13:41:46.304Z</time>
      </trkpt>
      <trkpt lat="47.8397366" lon="-2.4315780">
        <ele>25.597</ele>
        <time>2018-08-23T13:41:50.293Z</time>
      </trkpt>
      <trkpt lat="47.8396682" lon="-2.4314689">
        <ele>26.715</ele>
        <time>2018-08-23T13:41:53.999Z</time>
      </trkpt>
      <trkpt lat="47.8396682" lon="-2.4314689">
        <ele>27.785</ele>
        <time>2018-08-23T13:42:06.999Z</time>
      </trkpt>
      <trkpt lat="47.8396682" lon="-2.4314689">
        <ele>28.159</ele>
        <time>2018-08-23T13:43:25.434Z</time>
      </trkpt>
      <trkpt lat="47.8397462" lon="-2.4315494">
        <ele>27.868</ele>
        <time>2018-08-23T13:43:36.997Z</time>
      </trkpt>
      <trkpt lat="47.8397462" lon="-2.4315494">
        <ele>27.752</ele>
        <time>2018-08-23T13:43:39.000Z</time>
      </trkpt>
      <trkpt lat="47.8397462" lon="-2.4315494">
        <ele>27.715</ele>
        <time>2018-08-23T13:45:58.999Z</time>
      </trkpt>
      <trkpt lat="47.8397462" lon="-2.4315494">
        <ele>27.712</ele>
        <time>2018-08-23T13:45:59.099Z</time>
      </trkpt>
      <trkpt lat="47.8396605" lon="-2.4314426">
        <ele>27.701</ele>
        <time>2018-08-23T13:46:13.999Z</time>
      </trkpt>
      <trkpt lat="47.8396605" lon="-2.4314426">
        <ele>27.687</ele>
        <time>2018-08-23T13:46:28.999Z</time>
      </trkpt>
      <trkpt lat="47.8396605" lon="-2.4314426">
        <ele>27.673</ele>
        <time>2018-08-23T13:47:12.976Z</time>
      </trkpt>
      <trkpt lat="47.8397592" lon="-2.4314515">
        <ele>27.655</ele>
        <time>2018-08-23T13:47:35.561Z</time>
      </trkpt>
      <trkpt lat="47.8398519" lon="-2.4314473">
        <ele>26.423</ele>
        <time>2018-08-23T13:47:46.999Z</time>
      </trkpt>
      <trkpt lat="47.8398519" lon="-2.4314473">
        <ele>23.222</ele>
        <time>2018-08-23T13:47:52.999Z</time>
      </trkpt>
      <trkpt lat="47.8398519" lon="-2.4314473">
        <ele>20.548</ele>
        <time>2018-08-23T13:47:56.854Z</time>
      </trkpt>
      <trkpt lat="47.8399890" lon="-2.4312112">
        <ele>20.584</ele>
        <time>2018-08-23T13:48:10.999Z</time>
      </trkpt>
      <trkpt lat="47.8400297" lon="-2.4310869">
        <ele>21.468</ele>
        <time>2018-08-23T13:48:14.311Z</time>
      </trkpt>
      <trkpt lat="47.8400461" lon="-2.4309502">
        <ele>21.083</ele>
        <time>2018-08-23T13:48:17.524Z</time>
      </trkpt>
      <trkpt lat="47.8400283" lon="-2.4308169">
        <ele>19.826</ele>
        <time>2018-08-23T13:48:20.638Z</time>
      </trkpt>
      <trkpt lat="47.8399927" lon="-2.4306906">
        <ele>18.757</ele>
        <time>2018-08-23T13:48:23.798Z</time>
      </trkpt>
      <trkpt lat="47.8399315" lon="-2.4305533">
        <ele>18.040</ele>
        <time>2018-08-23T13:48:27.682Z</time>
      </trkpt>
      <trkpt lat="47.8398721" lon="-2.4304146">
        <ele>17.430</ele>
        <time>2018-08-23T13:48:31.565Z</time>
      </trkpt>
      <trkpt lat="47.8398133" lon="-2.4302700">
        <ele>16.841</ele>
        <time>2018-08-23T13:48:35.509Z</time>
      </trkpt>
      <trkpt lat="47.8397543" lon="-2.4301297">
        <ele>16.369</ele>
        <time>2018-08-23T13:48:39.297Z</time>
      </trkpt>
      <trkpt lat="47.8396898" lon="-2.4299879">
        <ele>16.007</ele>
        <time>2018-08-23T13:48:43.041Z</time>
      </trkpt>
      <trkpt lat="47.8396443" lon="-2.4298706">
        <ele>15.718</ele>
        <time>2018-08-23T13:48:45.933Z</time>
      </trkpt>
      <trkpt lat="47.8395974" lon="-2.4297506">
        <ele>15.329</ele>
        <time>2018-08-23T13:48:48.887Z</time>
      </trkpt>
      <trkpt lat="47.8395462" lon="-2.4295929">
        <ele>14.659</ele>
        <time>2018-08-23T13:48:52.631Z</time>
      </trkpt>
      <trkpt lat="47.8395120" lon="-2.4294642">
        <ele>13.901</ele>
        <time>2018-08-23T13:48:55.567Z</time>
      </trkpt>
      <trkpt lat="47.8394726" lon="-2.4293344">
        <ele>13.338</ele>
        <time>2018-08-23T13:48:58.520Z</time>
      </trkpt>
      <trkpt lat="47.8394225" lon="-2.4292034">
        <ele>13.019</ele>
        <time>2018-08-23T13:49:01.515Z</time>
      </trkpt>
      <trkpt lat="47.8393785" lon="-2.4290705">
        <ele>12.957</ele>
        <time>2018-08-23T13:49:04.439Z</time>
      </trkpt>
      <trkpt lat="47.8393366" lon="-2.4289477">
        <ele>13.090</ele>
        <time>2018-08-23T13:49:07.280Z</time>
      </trkpt>
      <trkpt lat="47.8392942" lon="-2.4288275">
        <ele>13.002</ele>
        <time>2018-08-23T13:49:10.217Z</time>
      </trkpt>
      <trkpt lat="47.8392281" lon="-2.4286768">
        <ele>12.412</ele>
        <time>2018-08-23T13:49:13.977Z</time>
      </trkpt>
      <trkpt lat="47.8391659" lon="-2.4285471">
        <ele>11.156</ele>
        <time>2018-08-23T13:49:17.068Z</time>
      </trkpt>
      <trkpt lat="47.8391127" lon="-2.4284189">
        <ele>9.334</ele>
        <time>2018-08-23T13:49:19.972Z</time>
      </trkpt>
      <trkpt lat="47.8390578" lon="-2.4283004">
        <ele>7.764</ele>
        <time>2018-08-23T13:49:22.746Z</time>
      </trkpt>
      <trkpt lat="47.8390010" lon="-2.4281866">
        <ele>7.211</ele>
        <time>2018-08-23T13:49:25.537Z</time>
      </trkpt>
      <trkpt lat="47.8389462" lon="-2.4280787">
        <ele>7.466</ele>
        <time>2018-08-23T13:49:28.292Z</time>
      </trkpt>
      <trkpt lat="47.8388947" lon="-2.4279618">
        <ele>8.141</ele>
        <time>2018-08-23T13:49:31.214Z</time>
      </trkpt>
      <trkpt lat="47.8388459" lon="-2.4278492">
        <ele>9.016</ele>
        <time>2018-08-23T13:49:34.038Z</time>
      </trkpt>
      <trkpt lat="47.8387872" lon="-2.4277408">
        <ele>9.962</ele>
        <time>2018-08-23T13:49:36.961Z</time>
      </trkpt>
      <trkpt lat="47.8387162" lon="-2.4275974">
        <ele>10.759</ele>
        <time>2018-08-23T13:49:40.670Z</time>
      </trkpt>
      <trkpt lat="47.8386548" lon="-2.4274738">
        <ele>11.220</ele>
        <time>2018-08-23T13:49:43.804Z</time>
      </trkpt>
      <trkpt lat="47.8385794" lon="-2.4273533">
        <ele>11.579</ele>
        <time>2018-08-23T13:49:47.133Z</time>
      </trkpt>
      <trkpt lat="47.8385183" lon="-2.4272433">
        <ele>12.161</ele>
        <time>2018-08-23T13:49:50.081Z</time>
      </trkpt>
      <trkpt lat="47.8384478" lon="-2.4271129">
        <ele>12.728</ele>
        <time>2018-08-23T13:49:53.552Z</time>
      </trkpt>
      <trkpt lat="47.8383590" lon="-2.4270468">
        <ele>12.732</ele>
        <time>2018-08-23T13:49:56.544Z</time>
      </trkpt>
      <trkpt lat="47.8382663" lon="-2.4269734">
        <ele>12.066</ele>
        <time>2018-08-23T13:49:59.597Z</time>
      </trkpt>
      <trkpt lat="47.8381880" lon="-2.4268398">
        <ele>11.226</ele>
        <time>2018-08-23T13:50:02.882Z</time>
      </trkpt>
      <trkpt lat="47.8381140" lon="-2.4266966">
        <ele>10.796</ele>
        <time>2018-08-23T13:50:06.080Z</time>
      </trkpt>
      <trkpt lat="47.8380491" lon="-2.4265466">
        <ele>11.023</ele>
        <time>2018-08-23T13:50:09.159Z</time>
      </trkpt>
      <trkpt lat="47.8379957" lon="-2.4263938">
        <ele>11.967</ele>
        <time>2018-08-23T13:50:12.095Z</time>
      </trkpt>
      <trkpt lat="47.8379475" lon="-2.4262471">
        <ele>13.232</ele>
        <time>2018-08-23T13:50:14.906Z</time>
      </trkpt>
      <trkpt lat="47.8379049" lon="-2.4261034">
        <ele>13.995</ele>
        <time>2018-08-23T13:50:17.680Z</time>
      </trkpt>
      <trkpt lat="47.8378636" lon="-2.4259569">
        <ele>13.913</ele>
        <time>2018-08-23T13:50:20.529Z</time>
      </trkpt>
      <trkpt lat="47.8378196" lon="-2.4258136">
        <ele>13.473</ele>
        <time>2018-08-23T13:50:23.351Z</time>
      </trkpt>
      <trkpt lat="47.8377743" lon="-2.4256621">
        <ele>13.307</ele>
        <time>2018-08-23T13:50:26.284Z</time>
      </trkpt>
      <trkpt lat="47.8377377" lon="-2.4255090">
        <ele>13.597</ele>
        <time>2018-08-23T13:50:29.112Z</time>
      </trkpt>
      <trkpt lat="47.8376988" lon="-2.4253528">
        <ele>14.022</ele>
        <time>2018-08-23T13:50:31.994Z</time>
      </trkpt>
      <trkpt lat="47.8376618" lon="-2.4251994">
        <ele>14.174</ele>
        <time>2018-08-23T13:50:34.839Z</time>
      </trkpt>
      <trkpt lat="47.8376335" lon="-2.4250573">
        <ele>13.922</ele>
        <time>2018-08-23T13:50:37.472Z</time>
      </trkpt>
      <trkpt lat="47.8376045" lon="-2.4249087">
        <ele>13.436</ele>
        <time>2018-08-23T13:50:40.269Z</time>
      </trkpt>
      <trkpt lat="47.8375642" lon="-2.4247571">
        <ele>13.036</ele>
        <time>2018-08-23T13:50:43.222Z</time>
      </trkpt>
      <trkpt lat="47.8375286" lon="-2.4246135">
        <ele>12.872</ele>
        <time>2018-08-23T13:50:45.999Z</time>
      </trkpt>
      <trkpt lat="47.8375286" lon="-2.4246135">
        <ele>12.848</ele>
        <time>2018-08-23T13:50:46.999Z</time>
      </trkpt>
      <trkpt lat="47.8375286" lon="-2.4246135">
        <ele>12.853</ele>
        <time>2018-08-23T13:50:47.099Z</time>
      </trkpt>
      <trkpt lat="47.8374736" lon="-2.4243639">
        <ele>12.851</ele>
        <time>2018-08-23T13:50:54.083Z</time>
      </trkpt>
      <trkpt lat="47.8374406" lon="-2.4242173">
        <ele>13.227</ele>
        <time>2018-08-23T13:50:57.022Z</time>
      </trkpt>
      <trkpt lat="47.8374013" lon="-2.4240691">
        <ele>14.214</ele>
        <time>2018-08-23T13:51:00.015Z</time>
      </trkpt>
      <trkpt lat="47.8373548" lon="-2.4239301">
        <ele>15.053</ele>
        <time>2018-08-23T13:51:02.888Z</time>
      </trkpt>
      <trkpt lat="47.8373117" lon="-2.4237788">
        <ele>14.952</ele>
        <time>2018-08-23T13:51:05.913Z</time>
      </trkpt>
      <trkpt lat="47.8372695" lon="-2.4236322">
        <ele>14.032</ele>
        <time>2018-08-23T13:51:08.882Z</time>
      </trkpt>
      <trkpt lat="47.8372387" lon="-2.4234864">
        <ele>12.852</ele>
        <time>2018-08-23T13:51:11.780Z</time>
      </trkpt>
      <trkpt lat="47.8372057" lon="-2.4233375">
        <ele>11.964</ele>
        <time>2018-08-23T13:51:14.774Z</time>
      </trkpt>
      <trkpt lat="47.8371762" lon="-2.4231833">
        <ele>11.876</ele>
        <time>2018-08-23T13:51:17.832Z</time>
      </trkpt>
      <trkpt lat="47.8371469" lon="-2.4230361">
        <ele>12.719</ele>
        <time>2018-08-23T13:51:20.767Z</time>
      </trkpt>
      <trkpt lat="47.8371117" lon="-2.4228854">
        <ele>13.938</ele>
        <time>2018-08-23T13:51:23.802Z</time>
      </trkpt>
      <trkpt lat="47.8370755" lon="-2.4227306">
        <ele>14.807</ele>
        <time>2018-08-23T13:51:26.902Z</time>
      </trkpt>
      <trkpt lat="47.8370485" lon="-2.4225711">
        <ele>14.974</ele>
        <time>2018-08-23T13:51:29.999Z</time>
      </trkpt>
      <trkpt lat="47.8370225" lon="-2.4224104">
        <ele>14.533</ele>
        <time>2018-08-23T13:51:33.065Z</time>
      </trkpt>
      <trkpt lat="47.8370048" lon="-2.4222511">
        <ele>13.997</ele>
        <time>2018-08-23T13:51:36.108Z</time>
      </trkpt>
      <trkpt lat="47.8369879" lon="-2.4221062">
        <ele>13.824</ele>
        <time>2018-08-23T13:51:38.996Z</time>
      </trkpt>
      <trkpt lat="47.8369710" lon="-2.4219627">
        <ele>14.042</ele>
        <time>2018-08-23T13:51:41.872Z</time>
      </trkpt>
      <trkpt lat="47.8369530" lon="-2.4218140">
        <ele>14.433</ele>
        <time>2018-08-23T13:51:44.784Z</time>
      </trkpt>
      <trkpt lat="47.8369330" lon="-2.4216564">
        <ele>14.984</ele>
        <time>2018-08-23T13:51:47.868Z</time>
      </trkpt>
      <trkpt lat="47.8369164" lon="-2.4215059">
        <ele>15.767</ele>
        <time>2018-08-23T13:51:50.819Z</time>
      </trkpt>
      <trkpt lat="47.8369055" lon="-2.4213520">
        <ele>16.545</ele>
        <time>2018-08-23T13:51:53.790Z</time>
      </trkpt>
      <trkpt lat="47.8369075" lon="-2.4211955">
        <ele>17.047</ele>
        <time>2018-08-23T13:51:56.764Z</time>
      </trkpt>
      <trkpt lat="47.8369156" lon="-2.4210319">
        <ele>17.182</ele>
        <time>2018-08-23T13:51:59.904Z</time>
      </trkpt>
      <trkpt lat="47.8369094" lon="-2.4208817">
        <ele>16.914</ele>
        <time>2018-08-23T13:52:02.854Z</time>
      </trkpt>
      <trkpt lat="47.8369047" lon="-2.4207349">
        <ele>16.369</ele>
        <time>2018-08-23T13:52:05.767Z</time>
      </trkpt>
      <trkpt lat="47.8369038" lon="-2.4205889">
        <ele>15.702</ele>
        <time>2018-08-23T13:52:08.667Z</time>
      </trkpt>
      <trkpt lat="47.8369051" lon="-2.4204441">
        <ele>15.067</ele>
        <time>2018-08-23T13:52:11.547Z</time>
      </trkpt>
      <trkpt lat="47.8369175" lon="-2.4202968">
        <ele>14.771</ele>
        <time>2018-08-23T13:52:14.479Z</time>
      </trkpt>
      <trkpt lat="47.8369260" lon="-2.4201427">
        <ele>15.312</ele>
        <time>2018-08-23T13:52:17.525Z</time>
      </trkpt>
      <trkpt lat="47.8369376" lon="-2.4199951">
        <ele>16.670</ele>
        <time>2018-08-23T13:52:20.462Z</time>
      </trkpt>
      <trkpt lat="47.8369536" lon="-2.4198414">
        <ele>18.024</ele>
        <time>2018-08-23T13:52:23.528Z</time>
      </trkpt>
      <trkpt lat="47.8369635" lon="-2.4196834">
        <ele>18.720</ele>
        <time>2018-08-23T13:52:26.585Z</time>
      </trkpt>
      <trkpt lat="47.8369752" lon="-2.4195224">
        <ele>18.538</ele>
        <time>2018-08-23T13:52:29.589Z</time>
      </trkpt>
      <trkpt lat="47.8369954" lon="-2.4193651">
        <ele>17.381</ele>
        <time>2018-08-23T13:52:32.492Z</time>
      </trkpt>
      <trkpt lat="47.8370231" lon="-2.4192067">
        <ele>15.832</ele>
        <time>2018-08-23T13:52:35.456Z</time>
      </trkpt>
      <trkpt lat="47.8370599" lon="-2.4190448">
        <ele>14.795</ele>
        <time>2018-08-23T13:52:38.561Z</time>
      </trkpt>
      <trkpt lat="47.8370889" lon="-2.4188807">
        <ele>14.505</ele>
        <time>2018-08-23T13:52:41.650Z</time>
      </trkpt>
      <trkpt lat="47.8370961" lon="-2.4187137">
        <ele>14.630</ele>
        <time>2018-08-23T13:52:44.739Z</time>
      </trkpt>
      <trkpt lat="47.8370770" lon="-2.4185545">
        <ele>14.925</ele>
        <time>2018-08-23T13:52:47.768Z</time>
      </trkpt>
      <trkpt lat="47.8370440" lon="-2.4184053">
        <ele>15.321</ele>
        <time>2018-08-23T13:52:50.698Z</time>
      </trkpt>
      <trkpt lat="47.8369942" lon="-2.4182620">
        <ele>15.695</ele>
        <time>2018-08-23T13:52:53.684Z</time>
      </trkpt>
      <trkpt lat="47.8369369" lon="-2.4181251">
        <ele>15.929</ele>
        <time>2018-08-23T13:52:56.711Z</time>
      </trkpt>
      <trkpt lat="47.8368795" lon="-2.4180013">
        <ele>16.035</ele>
        <time>2018-08-23T13:52:59.568Z</time>
      </trkpt>
      <trkpt lat="47.8368058" lon="-2.4178793">
        <ele>16.057</ele>
        <time>2018-08-23T13:53:02.682Z</time>
      </trkpt>
      <trkpt lat="47.8367425" lon="-2.4177591">
        <ele>16.152</ele>
        <time>2018-08-23T13:53:05.640Z</time>
      </trkpt>
      <trkpt lat="47.8366846" lon="-2.4176445">
        <ele>16.418</ele>
        <time>2018-08-23T13:53:08.529Z</time>
      </trkpt>
      <trkpt lat="47.8366084" lon="-2.4175072">
        <ele>16.614</ele>
        <time>2018-08-23T13:53:12.117Z</time>
      </trkpt>
      <trkpt lat="47.8365458" lon="-2.4173876">
        <ele>16.528</ele>
        <time>2018-08-23T13:53:15.063Z</time>
      </trkpt>
      <trkpt lat="47.8364738" lon="-2.4172639">
        <ele>16.543</ele>
        <time>2018-08-23T13:53:18.090Z</time>
      </trkpt>
      <trkpt lat="47.8363784" lon="-2.4171489">
        <ele>16.990</ele>
        <time>2018-08-23T13:53:21.346Z</time>
      </trkpt>
      <trkpt lat="47.8362845" lon="-2.4170563">
        <ele>17.362</ele>
        <time>2018-08-23T13:53:24.333Z</time>
      </trkpt>
      <trkpt lat="47.8361922" lon="-2.4169685">
        <ele>16.888</ele>
        <time>2018-08-23T13:53:27.273Z</time>
      </trkpt>
      <trkpt lat="47.8361045" lon="-2.4168767">
        <ele>15.708</ele>
        <time>2018-08-23T13:53:30.229Z</time>
      </trkpt>
      <trkpt lat="47.8360183" lon="-2.4167864">
        <ele>14.719</ele>
        <time>2018-08-23T13:53:33.250Z</time>
      </trkpt>
      <trkpt lat="47.8359346" lon="-2.4167064">
        <ele>14.413</ele>
        <time>2018-08-23T13:53:36.136Z</time>
      </trkpt>
      <trkpt lat="47.8358406" lon="-2.4166330">
        <ele>14.519</ele>
        <time>2018-08-23T13:53:39.214Z</time>
      </trkpt>
      <trkpt lat="47.8357426" lon="-2.4165780">
        <ele>14.782</ele>
        <time>2018-08-23T13:53:42.301Z</time>
      </trkpt>
      <trkpt lat="47.8356483" lon="-2.4165509">
        <ele>15.581</ele>
        <time>2018-08-23T13:53:45.238Z</time>
      </trkpt>
      <trkpt lat="47.8355590" lon="-2.4165204">
        <ele>17.061</ele>
        <time>2018-08-23T13:53:48.141Z</time>
      </trkpt>
      <trkpt lat="47.8354655" lon="-2.4164847">
        <ele>18.544</ele>
        <time>2018-08-23T13:53:51.291Z</time>
      </trkpt>
      <trkpt lat="47.8353762" lon="-2.4164371">
        <ele>19.707</ele>
        <time>2018-08-23T13:53:54.374Z</time>
      </trkpt>
      <trkpt lat="47.8352862" lon="-2.4163710">
        <ele>20.838</ele>
        <time>2018-08-23T13:53:57.485Z</time>
      </trkpt>
      <trkpt lat="47.8351927" lon="-2.4163025">
        <ele>22.328</ele>
        <time>2018-08-23T13:54:00.710Z</time>
      </trkpt>
      <trkpt lat="47.8351169" lon="-2.4162232">
        <ele>24.291</ele>
        <time>2018-08-23T13:54:03.631Z</time>
      </trkpt>
      <trkpt lat="47.8350459" lon="-2.4161260">
        <ele>26.035</ele>
        <time>2018-08-23T13:54:06.625Z</time>
      </trkpt>
      <trkpt lat="47.8349696" lon="-2.4160335">
        <ele>26.887</ele>
        <time>2018-08-23T13:54:09.613Z</time>
      </trkpt>
      <trkpt lat="47.8348989" lon="-2.4159400">
        <ele>26.541</ele>
        <time>2018-08-23T13:54:12.444Z</time>
      </trkpt>
      <trkpt lat="47.8348286" lon="-2.4158354">
        <ele>25.100</ele>
        <time>2018-08-23T13:54:15.400Z</time>
      </trkpt>
      <trkpt lat="47.8347607" lon="-2.4157263">
        <ele>23.305</ele>
        <time>2018-08-23T13:54:18.358Z</time>
      </trkpt>
      <trkpt lat="47.8346977" lon="-2.4156107">
        <ele>21.671</ele>
        <time>2018-08-23T13:54:21.302Z</time>
      </trkpt>
      <trkpt lat="47.8346361" lon="-2.4154909">
        <ele>20.347</ele>
        <time>2018-08-23T13:54:24.252Z</time>
      </trkpt>
      <trkpt lat="47.8345740" lon="-2.4153683">
        <ele>19.591</ele>
        <time>2018-08-23T13:54:27.265Z</time>
      </trkpt>
      <trkpt lat="47.8345171" lon="-2.4152571">
        <ele>19.238</ele>
        <time>2018-08-23T13:54:30.057Z</time>
      </trkpt>
      <trkpt lat="47.8344495" lon="-2.4151571">
        <ele>18.949</ele>
        <time>2018-08-23T13:54:32.917Z</time>
      </trkpt>
      <trkpt lat="47.8343749" lon="-2.4150704">
        <ele>18.206</ele>
        <time>2018-08-23T13:54:35.788Z</time>
      </trkpt>
      <trkpt lat="47.8343029" lon="-2.4149789">
        <ele>16.809</ele>
        <time>2018-08-23T13:54:38.689Z</time>
      </trkpt>
      <trkpt lat="47.8342240" lon="-2.4148851">
        <ele>15.470</ele>
        <time>2018-08-23T13:54:41.777Z</time>
      </trkpt>
      <trkpt lat="47.8341362" lon="-2.4147663">
        <ele>14.936</ele>
        <time>2018-08-23T13:54:45.422Z</time>
      </trkpt>
      <trkpt lat="47.8340674" lon="-2.4146718">
        <ele>15.184</ele>
        <time>2018-08-23T13:54:48.356Z</time>
      </trkpt>
      <trkpt lat="47.8340046" lon="-2.4145728">
        <ele>15.810</ele>
        <time>2018-08-23T13:54:51.270Z</time>
      </trkpt>
      <trkpt lat="47.8339386" lon="-2.4144655">
        <ele>16.268</ele>
        <time>2018-08-23T13:54:54.397Z</time>
      </trkpt>
      <trkpt lat="47.8338772" lon="-2.4143609">
        <ele>16.325</ele>
        <time>2018-08-23T13:54:57.324Z</time>
      </trkpt>
      <trkpt lat="47.8338102" lon="-2.4142509">
        <ele>16.127</ele>
        <time>2018-08-23T13:55:00.361Z</time>
      </trkpt>
      <trkpt lat="47.8337362" lon="-2.4141528">
        <ele>15.771</ele>
        <time>2018-08-23T13:55:03.317Z</time>
      </trkpt>
      <trkpt lat="47.8336612" lon="-2.4140418">
        <ele>15.302</ele>
        <time>2018-08-23T13:55:06.428Z</time>
      </trkpt>
      <trkpt lat="47.8335894" lon="-2.4139374">
        <ele>14.852</ele>
        <time>2018-08-23T13:55:09.370Z</time>
      </trkpt>
      <trkpt lat="47.8335245" lon="-2.4138322">
        <ele>14.513</ele>
        <time>2018-08-23T13:55:12.224Z</time>
      </trkpt>
      <trkpt lat="47.8334648" lon="-2.4137316">
        <ele>14.232</ele>
        <time>2018-08-23T13:55:14.952Z</time>
      </trkpt>
      <trkpt lat="47.8334043" lon="-2.4136200">
        <ele>13.965</ele>
        <time>2018-08-23T13:55:17.864Z</time>
      </trkpt>
      <trkpt lat="47.8333430" lon="-2.4134995">
        <ele>13.841</ele>
        <time>2018-08-23T13:55:20.869Z</time>
      </trkpt>
      <trkpt lat="47.8332772" lon="-2.4133783">
        <ele>14.105</ele>
        <time>2018-08-23T13:55:23.938Z</time>
      </trkpt>
      <trkpt lat="47.8332111" lon="-2.4132705">
        <ele>14.895</ele>
        <time>2018-08-23T13:55:26.798Z</time>
      </trkpt>
      <trkpt lat="47.8331427" lon="-2.4131618">
        <ele>15.961</ele>
        <time>2018-08-23T13:55:29.698Z</time>
      </trkpt>
      <trkpt lat="47.8330761" lon="-2.4130563">
        <ele>16.832</ele>
        <time>2018-08-23T13:55:32.534Z</time>
      </trkpt>
      <trkpt lat="47.8330065" lon="-2.4129586">
        <ele>17.321</ele>
        <time>2018-08-23T13:55:35.392Z</time>
      </trkpt>
      <trkpt lat="47.8329405" lon="-2.4128665">
        <ele>17.514</ele>
        <time>2018-08-23T13:55:38.186Z</time>
      </trkpt>
      <trkpt lat="47.8328610" lon="-2.4127742">
        <ele>17.705</ele>
        <time>2018-08-23T13:55:41.370Z</time>
      </trkpt>
      <trkpt lat="47.8327832" lon="-2.4126866">
        <ele>18.139</ele>
        <time>2018-08-23T13:55:44.436Z</time>
      </trkpt>
      <trkpt lat="47.8327122" lon="-2.4126024">
        <ele>18.728</ele>
        <time>2018-08-23T13:55:47.397Z</time>
      </trkpt>
      <trkpt lat="47.8326239" lon="-2.4125060">
        <ele>19.490</ele>
        <time>2018-08-23T13:55:51.135Z</time>
      </trkpt>
      <trkpt lat="47.8325387" lon="-2.4124340">
        <ele>20.570</ele>
        <time>2018-08-23T13:55:54.358Z</time>
      </trkpt>
      <trkpt lat="47.8324536" lon="-2.4123660">
        <ele>21.680</ele>
        <time>2018-08-23T13:55:57.404Z</time>
      </trkpt>
      <trkpt lat="47.8323618" lon="-2.4123010">
        <ele>22.371</ele>
        <time>2018-08-23T13:56:00.618Z</time>
      </trkpt>
      <trkpt lat="47.8322728" lon="-2.4122316">
        <ele>22.547</ele>
        <time>2018-08-23T13:56:03.830Z</time>
      </trkpt>
      <trkpt lat="47.8321902" lon="-2.4121658">
        <ele>22.431</ele>
        <time>2018-08-23T13:56:06.870Z</time>
      </trkpt>
      <trkpt lat="47.8321064" lon="-2.4120945">
        <ele>22.265</ele>
        <time>2018-08-23T13:56:10.007Z</time>
      </trkpt>
      <trkpt lat="47.8320184" lon="-2.4120231">
        <ele>22.176</ele>
        <time>2018-08-23T13:56:13.219Z</time>
      </trkpt>
      <trkpt lat="47.8319308" lon="-2.4119563">
        <ele>22.275</ele>
        <time>2018-08-23T13:56:16.345Z</time>
      </trkpt>
      <trkpt lat="47.8318493" lon="-2.4118872">
        <ele>22.627</ele>
        <time>2018-08-23T13:56:19.330Z</time>
      </trkpt>
      <trkpt lat="47.8317681" lon="-2.4118201">
        <ele>23.047</ele>
        <time>2018-08-23T13:56:22.293Z</time>
      </trkpt>
      <trkpt lat="47.8316845" lon="-2.4117491">
        <ele>23.305</ele>
        <time>2018-08-23T13:56:25.327Z</time>
      </trkpt>
      <trkpt lat="47.8316029" lon="-2.4116729">
        <ele>23.384</ele>
        <time>2018-08-23T13:56:28.341Z</time>
      </trkpt>
      <trkpt lat="47.8315070" lon="-2.4115751">
        <ele>23.311</ele>
        <time>2018-08-23T13:56:32.025Z</time>
      </trkpt>
      <trkpt lat="47.8314143" lon="-2.4114626">
        <ele>23.118</ele>
        <time>2018-08-23T13:56:35.848Z</time>
      </trkpt>
      <trkpt lat="47.8313193" lon="-2.4113620">
        <ele>22.629</ele>
        <time>2018-08-23T13:56:39.599Z</time>
      </trkpt>
      <trkpt lat="47.8312366" lon="-2.4112483">
        <ele>21.490</ele>
        <time>2018-08-23T13:56:43.312Z</time>
      </trkpt>
      <trkpt lat="47.8311821" lon="-2.4111361">
        <ele>19.958</ele>
        <time>2018-08-23T13:56:46.559Z</time>
      </trkpt>
      <trkpt lat="47.8311137" lon="-2.4110219">
        <ele>18.835</ele>
        <time>2018-08-23T13:56:50.398Z</time>
      </trkpt>
      <trkpt lat="47.8310405" lon="-2.4109275">
        <ele>18.218</ele>
        <time>2018-08-23T13:56:54.002Z</time>
      </trkpt>
      <trkpt lat="47.8309554" lon="-2.4108047">
        <ele>17.510</ele>
        <time>2018-08-23T13:56:58.213Z</time>
      </trkpt>
      <trkpt lat="47.8308700" lon="-2.4107104">
        <ele>16.558</ele>
        <time>2018-08-23T13:57:01.725Z</time>
      </trkpt>
      <trkpt lat="47.8307768" lon="-2.4106250">
        <ele>15.587</ele>
        <time>2018-08-23T13:57:05.172Z</time>
      </trkpt>
      <trkpt lat="47.8306816" lon="-2.4105249">
        <ele>14.736</ele>
        <time>2018-08-23T13:57:08.801Z</time>
      </trkpt>
      <trkpt lat="47.8305905" lon="-2.4104323">
        <ele>14.401</ele>
        <time>2018-08-23T13:57:12.225Z</time>
      </trkpt>
      <trkpt lat="47.8305040" lon="-2.4103478">
        <ele>15.154</ele>
        <time>2018-08-23T13:57:15.355Z</time>
      </trkpt>
      <trkpt lat="47.8304129" lon="-2.4102627">
        <ele>16.709</ele>
        <time>2018-08-23T13:57:18.490Z</time>
      </trkpt>
      <trkpt lat="47.8303303" lon="-2.4101736">
        <ele>18.162</ele>
        <time>2018-08-23T13:57:21.462Z</time>
      </trkpt>
      <trkpt lat="47.8302502" lon="-2.4100871">
        <ele>19.044</ele>
        <time>2018-08-23T13:57:24.451Z</time>
      </trkpt>
      <trkpt lat="47.8301720" lon="-2.4100119">
        <ele>19.458</ele>
        <time>2018-08-23T13:57:27.443Z</time>
      </trkpt>
      <trkpt lat="47.8300800" lon="-2.4099211">
        <ele>19.632</ele>
        <time>2018-08-23T13:57:31.172Z</time>
      </trkpt>
      <trkpt lat="47.8299929" lon="-2.4098214">
        <ele>19.714</ele>
        <time>2018-08-23T13:57:35.094Z</time>
      </trkpt>
      <trkpt lat="47.8299190" lon="-2.4097325">
        <ele>19.730</ele>
        <time>2018-08-23T13:57:38.616Z</time>
      </trkpt>
      <trkpt lat="47.8298281" lon="-2.4096452">
        <ele>19.727</ele>
        <time>2018-08-23T13:57:42.724Z</time>
      </trkpt>
      <trkpt lat="47.8297464" lon="-2.4095488">
        <ele>19.786</ele>
        <time>2018-08-23T13:57:46.869Z</time>
      </trkpt>
      <trkpt lat="47.8296762" lon="-2.4094650">
        <ele>20.016</ele>
        <time>2018-08-23T13:57:50.661Z</time>
      </trkpt>
      <trkpt lat="47.8295746" lon="-2.4094034">
        <ele>20.385</ele>
        <time>2018-08-23T13:57:55.474Z</time>
      </trkpt>
      <trkpt lat="47.8294773" lon="-2.4093321">
        <ele>20.640</ele>
        <time>2018-08-23T13:58:00.572Z</time>
      </trkpt>
      <trkpt lat="47.8294967" lon="-2.4091792">
        <ele>20.627</ele>
        <time>2018-08-23T13:58:05.870Z</time>
      </trkpt>
      <trkpt lat="47.8295391" lon="-2.4090353">
        <ele>20.280</ele>
        <time>2018-08-23T13:58:10.218Z</time>
      </trkpt>
      <trkpt lat="47.8294814" lon="-2.4088973">
        <ele>19.325</ele>
        <time>2018-08-23T13:58:12.851Z</time>
      </trkpt>
      <trkpt lat="47.8293822" lon="-2.4087969">
        <ele>17.749</ele>
        <time>2018-08-23T13:58:15.108Z</time>
      </trkpt>
      <trkpt lat="47.8292335" lon="-2.4086634">
        <ele>16.173</ele>
        <time>2018-08-23T13:58:18.308Z</time>
      </trkpt>
      <trkpt lat="47.8291087" lon="-2.4085488">
        <ele>15.183</ele>
        <time>2018-08-23T13:58:21.143Z</time>
      </trkpt>
      <trkpt lat="47.8289937" lon="-2.4084271">
        <ele>14.865</ele>
        <time>2018-08-23T13:58:24.062Z</time>
      </trkpt>
      <trkpt lat="47.8289193" lon="-2.4083520">
        <ele>15.174</ele>
        <time>2018-08-23T13:58:26.000Z</time>
      </trkpt>
      <trkpt lat="47.8288083" lon="-2.4082262">
        <ele>15.890</ele>
        <time>2018-08-23T13:58:29.086Z</time>
      </trkpt>
      <trkpt lat="47.8287179" lon="-2.4081178">
        <ele>16.528</ele>
        <time>2018-08-23T13:58:31.864Z</time>
      </trkpt>
      <trkpt lat="47.8286220" lon="-2.4080163">
        <ele>16.809</ele>
        <time>2018-08-23T13:58:34.944Z</time>
      </trkpt>
      <trkpt lat="47.8285417" lon="-2.4079165">
        <ele>17.024</ele>
        <time>2018-08-23T13:58:37.905Z</time>
      </trkpt>
      <trkpt lat="47.8284667" lon="-2.4078270">
        <ele>17.440</ele>
        <time>2018-08-23T13:58:40.788Z</time>
      </trkpt>
      <trkpt lat="47.8283900" lon="-2.4077434">
        <ele>17.802</ele>
        <time>2018-08-23T13:58:43.663Z</time>
      </trkpt>
      <trkpt lat="47.8283192" lon="-2.4076509">
        <ele>17.833</ele>
        <time>2018-08-23T13:58:46.607Z</time>
      </trkpt>
      <trkpt lat="47.8282432" lon="-2.4075303">
        <ele>17.741</ele>
        <time>2018-08-23T13:58:50.406Z</time>
      </trkpt>
      <trkpt lat="47.8281700" lon="-2.4074251">
        <ele>17.804</ele>
        <time>2018-08-23T13:58:54.229Z</time>
      </trkpt>
      <trkpt lat="47.8280895" lon="-2.4073150">
        <ele>18.003</ele>
        <time>2018-08-23T13:58:58.211Z</time>
      </trkpt>
      <trkpt lat="47.8280118" lon="-2.4071953">
        <ele>18.157</ele>
        <time>2018-08-23T13:59:02.250Z</time>
      </trkpt>
      <trkpt lat="47.8279341" lon="-2.4071049">
        <ele>18.173</ele>
        <time>2018-08-23T13:59:06.067Z</time>
      </trkpt>
      <trkpt lat="47.8278699" lon="-2.4070043">
        <ele>18.101</ele>
        <time>2018-08-23T13:59:09.921Z</time>
      </trkpt>
      <trkpt lat="47.8277891" lon="-2.4069005">
        <ele>17.766</ele>
        <time>2018-08-23T13:59:14.403Z</time>
      </trkpt>
      <trkpt lat="47.8277173" lon="-2.4067906">
        <ele>17.043</ele>
        <time>2018-08-23T13:59:18.627Z</time>
      </trkpt>
      <trkpt lat="47.8276393" lon="-2.4066752">
        <ele>16.032</ele>
        <time>2018-08-23T13:59:22.910Z</time>
      </trkpt>
      <trkpt lat="47.8275631" lon="-2.4065521">
        <ele>14.940</ele>
        <time>2018-08-23T13:59:27.039Z</time>
      </trkpt>
      <trkpt lat="47.8275012" lon="-2.4064470">
        <ele>14.090</ele>
        <time>2018-08-23T13:59:30.330Z</time>
      </trkpt>
      <trkpt lat="47.8274392" lon="-2.4063477">
        <ele>13.701</ele>
        <time>2018-08-23T13:59:33.478Z</time>
      </trkpt>
      <trkpt lat="47.8273762" lon="-2.4062499">
        <ele>13.483</ele>
        <time>2018-08-23T13:59:36.594Z</time>
      </trkpt>
      <trkpt lat="47.8272983" lon="-2.4061150">
        <ele>13.151</ele>
        <time>2018-08-23T13:59:40.614Z</time>
      </trkpt>
      <trkpt lat="47.8272198" lon="-2.4059743">
        <ele>12.777</ele>
        <time>2018-08-23T13:59:44.645Z</time>
      </trkpt>
      <trkpt lat="47.8271558" lon="-2.4058714">
        <ele>12.505</ele>
        <time>2018-08-23T13:59:47.624Z</time>
      </trkpt>
      <trkpt lat="47.8270979" lon="-2.4057552">
        <ele>12.045</ele>
        <time>2018-08-23T13:59:50.702Z</time>
      </trkpt>
      <trkpt lat="47.8270200" lon="-2.4056248">
        <ele>11.247</ele>
        <time>2018-08-23T13:59:54.609Z</time>
      </trkpt>
      <trkpt lat="47.8269412" lon="-2.4054972">
        <ele>10.873</ele>
        <time>2018-08-23T13:59:58.584Z</time>
      </trkpt>
      <trkpt lat="47.8268734" lon="-2.4053925">
        <ele>11.512</ele>
        <time>2018-08-23T14:00:01.726Z</time>
      </trkpt>
      <trkpt lat="47.8268052" lon="-2.4052921">
        <ele>12.755</ele>
        <time>2018-08-23T14:00:04.624Z</time>
      </trkpt>
      <trkpt lat="47.8267298" lon="-2.4051714">
        <ele>14.019</ele>
        <time>2018-08-23T14:00:08.036Z</time>
      </trkpt>
      <trkpt lat="47.8266536" lon="-2.4050489">
        <ele>14.994</ele>
        <time>2018-08-23T14:00:12.079Z</time>
      </trkpt>
      <trkpt lat="47.8265873" lon="-2.4049212">
        <ele>15.803</ele>
        <time>2018-08-23T14:00:16.456Z</time>
      </trkpt>
      <trkpt lat="47.8265298" lon="-2.4047776">
        <ele>16.705</ele>
        <time>2018-08-23T14:00:20.962Z</time>
      </trkpt>
      <trkpt lat="47.8264690" lon="-2.4046296">
        <ele>17.196</ele>
        <time>2018-08-23T14:00:25.254Z</time>
      </trkpt>
      <trkpt lat="47.8264272" lon="-2.4045104">
        <ele>16.871</ele>
        <time>2018-08-23T14:00:28.550Z</time>
      </trkpt>
      <trkpt lat="47.8264071" lon="-2.4043439">
        <ele>16.251</ele>
        <time>2018-08-23T14:00:32.664Z</time>
      </trkpt>
      <trkpt lat="47.8263690" lon="-2.4041879">
        <ele>15.699</ele>
        <time>2018-08-23T14:00:36.580Z</time>
      </trkpt>
      <trkpt lat="47.8263352" lon="-2.4040242">
        <ele>15.070</ele>
        <time>2018-08-23T14:00:40.713Z</time>
      </trkpt>
      <trkpt lat="47.8263013" lon="-2.4038651">
        <ele>14.526</ele>
        <time>2018-08-23T14:00:44.765Z</time>
      </trkpt>
      <trkpt lat="47.8262782" lon="-2.4037264">
        <ele>14.465</ele>
        <time>2018-08-23T14:00:47.977Z</time>
      </trkpt>
      <trkpt lat="47.8262545" lon="-2.4035815">
        <ele>14.852</ele>
        <time>2018-08-23T14:00:51.262Z</time>
      </trkpt>
      <trkpt lat="47.8262282" lon="-2.4034459">
        <ele>15.239</ele>
        <time>2018-08-23T14:00:54.463Z</time>
      </trkpt>
      <trkpt lat="47.8261936" lon="-2.4032863">
        <ele>15.292</ele>
        <time>2018-08-23T14:00:58.337Z</time>
      </trkpt>
      <trkpt lat="47.8261547" lon="-2.4031318">
        <ele>14.928</ele>
        <time>2018-08-23T14:01:02.233Z</time>
      </trkpt>
      <trkpt lat="47.8261290" lon="-2.4029854">
        <ele>14.244</ele>
        <time>2018-08-23T14:01:05.955Z</time>
      </trkpt>
      <trkpt lat="47.8260993" lon="-2.4028362">
        <ele>13.566</ele>
        <time>2018-08-23T14:01:09.782Z</time>
      </trkpt>
      <trkpt lat="47.8260830" lon="-2.4027037">
        <ele>12.991</ele>
        <time>2018-08-23T14:01:12.911Z</time>
      </trkpt>
      <trkpt lat="47.8260571" lon="-2.4025662">
        <ele>12.402</ele>
        <time>2018-08-23T14:01:16.299Z</time>
      </trkpt>
      <trkpt lat="47.8260289" lon="-2.4024123">
        <ele>11.895</ele>
        <time>2018-08-23T14:01:20.853Z</time>
      </trkpt>
      <trkpt lat="47.8259836" lon="-2.4022833">
        <ele>11.649</ele>
        <time>2018-08-23T14:01:26.604Z</time>
      </trkpt>
      <trkpt lat="47.8258944" lon="-2.4023407">
        <ele>11.700</ele>
        <time>2018-08-23T14:01:33.155Z</time>
      </trkpt>
      <trkpt lat="47.8258186" lon="-2.4024356">
        <ele>12.215</ele>
        <time>2018-08-23T14:01:40.722Z</time>
      </trkpt>
      <trkpt lat="47.8257313" lon="-2.4024793">
        <ele>13.393</ele>
        <time>2018-08-23T14:01:48.000Z</time>
      </trkpt>
      <trkpt lat="47.8257313" lon="-2.4024793">
        <ele>14.872</ele>
        <time>2018-08-23T14:02:00.000Z</time>
      </trkpt>
      <trkpt lat="47.8257313" lon="-2.4024793">
        <ele>15.738</ele>
        <time>2018-08-23T14:07:34.494Z</time>
      </trkpt>
      <trkpt lat="47.8256572" lon="-2.4026585">
        <ele>15.673</ele>
        <time>2018-08-23T14:07:45.000Z</time>
      </trkpt>
      <trkpt lat="47.8256572" lon="-2.4026585">
        <ele>15.329</ele>
        <time>2018-08-23T14:07:47.000Z</time>
      </trkpt>
      <trkpt lat="47.8256572" lon="-2.4026585">
        <ele>15.294</ele>
        <time>2018-08-23T14:07:47.100Z</time>
      </trkpt>
      <trkpt lat="47.8257473" lon="-2.4025993">
        <ele>15.476</ele>
        <time>2018-08-23T14:07:58.082Z</time>
      </trkpt>
      <trkpt lat="47.8256894" lon="-2.4027105">
        <ele>15.808</ele>
        <time>2018-08-23T14:08:06.000Z</time>
      </trkpt>
      <trkpt lat="47.8256894" lon="-2.4027105">
        <ele>16.347</ele>
        <time>2018-08-23T14:08:19.000Z</time>
      </trkpt>
      <trkpt lat="47.8256894" lon="-2.4027105">
        <ele>16.751</ele>
        <time>2018-08-23T14:23:28.000Z</time>
      </trkpt>
      <trkpt lat="47.8256894" lon="-2.4027105">
        <ele>16.732</ele>
        <time>2018-08-23T14:23:28.100Z</time>
      </trkpt>
      <trkpt lat="47.8256360" lon="-2.4025946">
        <ele>16.552</ele>
        <time>2018-08-23T14:23:47.000Z</time>
      </trkpt>
      <trkpt lat="47.8256360" lon="-2.4025946">
        <ele>16.644</ele>
        <time>2018-08-23T14:23:52.000Z</time>
      </trkpt>
      <trkpt lat="47.8258171" lon="-2.4019173">
        <ele>19.897</ele>
        <time>2018-08-24T08:39:19.950Z</time>
      </trkpt>
      <trkpt lat="47.8258171" lon="-2.4019173">
        <ele>19.869</ele>
        <time>2018-08-24T08:39:32.296Z</time>
      </trkpt>
      <trkpt lat="47.8256998" lon="-2.4016950">
        <ele>19.843</ele>
        <time>2018-08-24T08:39:44.472Z</time>
      </trkpt>
      <trkpt lat="47.8256799" lon="-2.4016652">
        <ele>19.726</ele>
        <time>2018-08-24T08:39:45.539Z</time>
      </trkpt>
      <trkpt lat="47.8255996" lon="-2.4015414">
        <ele>19.396</ele>
        <time>2018-08-24T08:39:49.539Z</time>
      </trkpt>
      <trkpt lat="47.8255386" lon="-2.4014227">
        <ele>19.042</ele>
        <time>2018-08-24T08:39:52.684Z</time>
      </trkpt>
      <trkpt lat="47.8254609" lon="-2.4013085">
        <ele>18.868</ele>
        <time>2018-08-24T08:39:55.755Z</time>
      </trkpt>
      <trkpt lat="47.8254181" lon="-2.4011437">
        <ele>18.808</ele>
        <time>2018-08-24T08:39:58.880Z</time>
      </trkpt>
      <trkpt lat="47.8254041" lon="-2.4009583">
        <ele>18.762</ele>
        <time>2018-08-24T08:40:02.125Z</time>
      </trkpt>
      <trkpt lat="47.8253821" lon="-2.4007978">
        <ele>18.724</ele>
        <time>2018-08-24T08:40:05.025Z</time>
      </trkpt>
      <trkpt lat="47.8253798" lon="-2.4006523">
        <ele>18.705</ele>
        <time>2018-08-24T08:40:07.694Z</time>
      </trkpt>
      <trkpt lat="47.8253604" lon="-2.4005008">
        <ele>18.639</ele>
        <time>2018-08-24T08:40:10.605Z</time>
      </trkpt>
      <trkpt lat="47.8253598" lon="-2.4003588">
        <ele>18.477</ele>
        <time>2018-08-24T08:40:13.326Z</time>
      </trkpt>
      <trkpt lat="47.8253830" lon="-2.4002054">
        <ele>18.362</ele>
        <time>2018-08-24T08:40:16.314Z</time>
      </trkpt>
      <trkpt lat="47.8254068" lon="-2.4000561">
        <ele>18.416</ele>
        <time>2018-08-24T08:40:19.233Z</time>
      </trkpt>
      <trkpt lat="47.8254151" lon="-2.3999120">
        <ele>18.524</ele>
        <time>2018-08-24T08:40:22.040Z</time>
      </trkpt>
      <trkpt lat="47.8254105" lon="-2.3997699">
        <ele>18.505</ele>
        <time>2018-08-24T08:40:24.869Z</time>
      </trkpt>
      <trkpt lat="47.8253958" lon="-2.3995865">
        <ele>18.301</ele>
        <time>2018-08-24T08:40:28.559Z</time>
      </trkpt>
      <trkpt lat="47.8253936" lon="-2.3994478">
        <ele>18.014</ele>
        <time>2018-08-24T08:40:31.355Z</time>
      </trkpt>
      <trkpt lat="47.8253921" lon="-2.3993128">
        <ele>17.803</ele>
        <time>2018-08-24T08:40:34.118Z</time>
      </trkpt>
      <trkpt lat="47.8253801" lon="-2.3991418">
        <ele>17.753</ele>
        <time>2018-08-24T08:40:37.645Z</time>
      </trkpt>
      <trkpt lat="47.8253607" lon="-2.3989916">
        <ele>17.855</ele>
        <time>2018-08-24T08:40:40.738Z</time>
      </trkpt>
      <trkpt lat="47.8253099" lon="-2.3988638">
        <ele>18.067</ele>
        <time>2018-08-24T08:40:43.836Z</time>
      </trkpt>
      <trkpt lat="47.8252329" lon="-2.3987647">
        <ele>18.327</ele>
        <time>2018-08-24T08:40:47.093Z</time>
      </trkpt>
      <trkpt lat="47.8251487" lon="-2.3986730">
        <ele>18.620</ele>
        <time>2018-08-24T08:40:50.887Z</time>
      </trkpt>
      <trkpt lat="47.8250484" lon="-2.3985865">
        <ele>18.949</ele>
        <time>2018-08-24T08:40:55.222Z</time>
      </trkpt>
      <trkpt lat="47.8249509" lon="-2.3984784">
        <ele>19.269</ele>
        <time>2018-08-24T08:40:59.540Z</time>
      </trkpt>
      <trkpt lat="47.8248758" lon="-2.3984022">
        <ele>19.535</ele>
        <time>2018-08-24T08:41:02.657Z</time>
      </trkpt>
      <trkpt lat="47.8247920" lon="-2.3983203">
        <ele>19.702</ele>
        <time>2018-08-24T08:41:06.088Z</time>
      </trkpt>
      <trkpt lat="47.8246984" lon="-2.3983363">
        <ele>19.755</ele>
        <time>2018-08-24T08:41:09.784Z</time>
      </trkpt>
      <trkpt lat="47.8246417" lon="-2.3984568">
        <ele>19.853</ele>
        <time>2018-08-24T08:41:14.154Z</time>
      </trkpt>
      <trkpt lat="47.8246048" lon="-2.3985833">
        <ele>20.133</ele>
        <time>2018-08-24T08:41:19.103Z</time>
      </trkpt>
      <trkpt lat="47.8245346" lon="-2.3986751">
        <ele>20.435</ele>
        <time>2018-08-24T08:41:24.417Z</time>
      </trkpt>
      <trkpt lat="47.8244465" lon="-2.3987669">
        <ele>20.307</ele>
        <time>2018-08-24T08:41:30.550Z</time>
      </trkpt>
      <trkpt lat="47.8243748" lon="-2.3989006">
        <ele>19.613</ele>
        <time>2018-08-24T08:41:37.083Z</time>
      </trkpt>
      <trkpt lat="47.8243100" lon="-2.3990065">
        <ele>18.820</ele>
        <time>2018-08-24T08:41:42.365Z</time>
      </trkpt>
      <trkpt lat="47.8242227" lon="-2.3989322">
        <ele>18.308</ele>
        <time>2018-08-24T08:41:47.123Z</time>
      </trkpt>
      <trkpt lat="47.8241555" lon="-2.3988222">
        <ele>18.031</ele>
        <time>2018-08-24T08:41:51.829Z</time>
      </trkpt>
      <trkpt lat="47.8240611" lon="-2.3987049">
        <ele>17.887</ele>
        <time>2018-08-24T08:41:57.000Z</time>
      </trkpt>
      <trkpt lat="47.8240611" lon="-2.3987049">
        <ele>17.808</ele>
        <time>2018-08-24T08:41:57.000Z</time>
      </trkpt>
      <trkpt lat="47.8240611" lon="-2.3987049">
        <ele>17.766</ele>
        <time>2018-08-24T08:41:57.100Z</time>
      </trkpt>
      <trkpt lat="47.8239283" lon="-2.3985480">
        <ele>17.763</ele>
        <time>2018-08-24T08:42:03.205Z</time>
      </trkpt>
      <trkpt lat="47.8238349" lon="-2.3984148">
        <ele>17.775</ele>
        <time>2018-08-24T08:42:06.463Z</time>
      </trkpt>
      <trkpt lat="47.8237583" lon="-2.3983077">
        <ele>17.837</ele>
        <time>2018-08-24T08:42:09.389Z</time>
      </trkpt>
      <trkpt lat="47.8236861" lon="-2.3982002">
        <ele>18.087</ele>
        <time>2018-08-24T08:42:12.351Z</time>
      </trkpt>
      <trkpt lat="47.8236198" lon="-2.3980904">
        <ele>18.514</ele>
        <time>2018-08-24T08:42:15.386Z</time>
      </trkpt>
      <trkpt lat="47.8235428" lon="-2.3979566">
        <ele>18.896</ele>
        <time>2018-08-24T08:42:19.126Z</time>
      </trkpt>
      <trkpt lat="47.8234692" lon="-2.3978434">
        <ele>19.423</ele>
        <time>2018-08-24T08:42:22.239Z</time>
      </trkpt>
      <trkpt lat="47.8233706" lon="-2.3977271">
        <ele>20.481</ele>
        <time>2018-08-24T08:42:25.666Z</time>
      </trkpt>
      <trkpt lat="47.8232737" lon="-2.3976185">
        <ele>21.757</ele>
        <time>2018-08-24T08:42:29.027Z</time>
      </trkpt>
      <trkpt lat="47.8231922" lon="-2.3975129">
        <ele>22.625</ele>
        <time>2018-08-24T08:42:32.134Z</time>
      </trkpt>
      <trkpt lat="47.8231202" lon="-2.3974098">
        <ele>23.053</ele>
        <time>2018-08-24T08:42:35.048Z</time>
      </trkpt>
      <trkpt lat="47.8230414" lon="-2.3972982">
        <ele>23.348</ele>
        <time>2018-08-24T08:42:38.315Z</time>
      </trkpt>
      <trkpt lat="47.8229676" lon="-2.3972106">
        <ele>23.641</ele>
        <time>2018-08-24T08:42:41.210Z</time>
      </trkpt>
      <trkpt lat="47.8228879" lon="-2.3971151">
        <ele>23.880</ele>
        <time>2018-08-24T08:42:44.330Z</time>
      </trkpt>
      <trkpt lat="47.8228122" lon="-2.3970153">
        <ele>24.016</ele>
        <time>2018-08-24T08:42:47.359Z</time>
      </trkpt>
      <trkpt lat="47.8227349" lon="-2.3969141">
        <ele>24.055</ele>
        <time>2018-08-24T08:42:50.304Z</time>
      </trkpt>
      <trkpt lat="47.8226549" lon="-2.3968160">
        <ele>23.981</ele>
        <time>2018-08-24T08:42:53.099Z</time>
      </trkpt>
      <trkpt lat="47.8225585" lon="-2.3966950">
        <ele>23.797</ele>
        <time>2018-08-24T08:42:56.301Z</time>
      </trkpt>
      <trkpt lat="47.8224592" lon="-2.3965686">
        <ele>23.452</ele>
        <time>2018-08-24T08:42:59.542Z</time>
      </trkpt>
      <trkpt lat="47.8223599" lon="-2.3964671">
        <ele>22.921</ele>
        <time>2018-08-24T08:43:02.502Z</time>
      </trkpt>
      <trkpt lat="47.8222725" lon="-2.3963404">
        <ele>22.422</ele>
        <time>2018-08-24T08:43:05.423Z</time>
      </trkpt>
      <trkpt lat="47.8222091" lon="-2.3962446">
        <ele>22.179</ele>
        <time>2018-08-24T08:43:07.574Z</time>
      </trkpt>
      <trkpt lat="47.8221154" lon="-2.3961345">
        <ele>22.096</ele>
        <time>2018-08-24T08:43:10.477Z</time>
      </trkpt>
      <trkpt lat="47.8220350" lon="-2.3960428">
        <ele>21.932</ele>
        <time>2018-08-24T08:43:13.047Z</time>
      </trkpt>
      <trkpt lat="47.8219677" lon="-2.3959285">
        <ele>21.482</ele>
        <time>2018-08-24T08:43:15.704Z</time>
      </trkpt>
      <trkpt lat="47.8218853" lon="-2.3958047">
        <ele>20.848</ele>
        <time>2018-08-24T08:43:18.767Z</time>
      </trkpt>
      <trkpt lat="47.8218059" lon="-2.3956938">
        <ele>20.366</ele>
        <time>2018-08-24T08:43:21.698Z</time>
      </trkpt>
      <trkpt lat="47.8217441" lon="-2.3955824">
        <ele>20.220</ele>
        <time>2018-08-24T08:43:24.429Z</time>
      </trkpt>
      <trkpt lat="47.8216706" lon="-2.3954793">
        <ele>20.317</ele>
        <time>2018-08-24T08:43:27.266Z</time>
      </trkpt>
      <trkpt lat="47.8215703" lon="-2.3953750">
        <ele>20.451</ele>
        <time>2018-08-24T08:43:30.621Z</time>
      </trkpt>
      <trkpt lat="47.8214776" lon="-2.3952747">
        <ele>20.490</ele>
        <time>2018-08-24T08:43:33.833Z</time>
      </trkpt>
      <trkpt lat="47.8213896" lon="-2.3951616">
        <ele>20.457</ele>
        <time>2018-08-24T08:43:37.189Z</time>
      </trkpt>
      <trkpt lat="47.8213154" lon="-2.3950749">
        <ele>20.181</ele>
        <time>2018-08-24T08:43:39.930Z</time>
      </trkpt>
      <trkpt lat="47.8212211" lon="-2.3949772">
        <ele>19.529</ele>
        <time>2018-08-24T08:43:43.154Z</time>
      </trkpt>
      <trkpt lat="47.8211255" lon="-2.3948718">
        <ele>18.834</ele>
        <time>2018-08-24T08:43:46.354Z</time>
      </trkpt>
      <trkpt lat="47.8210376" lon="-2.3947635">
        <ele>18.465</ele>
        <time>2018-08-24T08:43:49.361Z</time>
      </trkpt>
      <trkpt lat="47.8209484" lon="-2.3946655">
        <ele>18.408</ele>
        <time>2018-08-24T08:43:52.245Z</time>
      </trkpt>
      <trkpt lat="47.8208588" lon="-2.3945495">
        <ele>18.545</ele>
        <time>2018-08-24T08:43:55.308Z</time>
      </trkpt>
      <trkpt lat="47.8207759" lon="-2.3944471">
        <ele>18.769</ele>
        <time>2018-08-24T08:43:58.138Z</time>
      </trkpt>
      <trkpt lat="47.8206994" lon="-2.3943378">
        <ele>18.969</ele>
        <time>2018-08-24T08:44:00.986Z</time>
      </trkpt>
      <trkpt lat="47.8206139" lon="-2.3942253">
        <ele>18.972</ele>
        <time>2018-08-24T08:44:04.113Z</time>
      </trkpt>
      <trkpt lat="47.8205374" lon="-2.3941270">
        <ele>18.705</ele>
        <time>2018-08-24T08:44:06.917Z</time>
      </trkpt>
      <trkpt lat="47.8204494" lon="-2.3940193">
        <ele>18.337</ele>
        <time>2018-08-24T08:44:10.079Z</time>
      </trkpt>
      <trkpt lat="47.8203709" lon="-2.3939094">
        <ele>17.955</ele>
        <time>2018-08-24T08:44:13.050Z</time>
      </trkpt>
      <trkpt lat="47.8202834" lon="-2.3938004">
        <ele>17.447</ele>
        <time>2018-08-24T08:44:16.140Z</time>
      </trkpt>
      <trkpt lat="47.8201894" lon="-2.3936874">
        <ele>16.912</ele>
        <time>2018-08-24T08:44:19.295Z</time>
      </trkpt>
      <trkpt lat="47.8200914" lon="-2.3935726">
        <ele>16.631</ele>
        <time>2018-08-24T08:44:22.447Z</time>
      </trkpt>
      <trkpt lat="47.8199997" lon="-2.3934671">
        <ele>16.736</ele>
        <time>2018-08-24T08:44:25.382Z</time>
      </trkpt>
      <trkpt lat="47.8199128" lon="-2.3933812">
        <ele>17.082</ele>
        <time>2018-08-24T08:44:28.127Z</time>
      </trkpt>
      <trkpt lat="47.8198369" lon="-2.3932904">
        <ele>17.319</ele>
        <time>2018-08-24T08:44:30.816Z</time>
      </trkpt>
      <trkpt lat="47.8197734" lon="-2.3931842">
        <ele>17.237</ele>
        <time>2018-08-24T08:44:33.533Z</time>
      </trkpt>
      <trkpt lat="47.8196887" lon="-2.3930511">
        <ele>16.927</ele>
        <time>2018-08-24T08:44:37.006Z</time>
      </trkpt>
      <trkpt lat="47.8196136" lon="-2.3929162">
        <ele>16.591</ele>
        <time>2018-08-24T08:44:40.267Z</time>
      </trkpt>
      <trkpt lat="47.8195410" lon="-2.3928101">
        <ele>16.508</ele>
        <time>2018-08-24T08:44:43.165Z</time>
      </trkpt>
      <trkpt lat="47.8194699" lon="-2.3927179">
        <ele>16.838</ele>
        <time>2018-08-24T08:44:45.979Z</time>
      </trkpt>
      <trkpt lat="47.8193982" lon="-2.3926309">
        <ele>17.422</ele>
        <time>2018-08-24T08:44:48.870Z</time>
      </trkpt>
      <trkpt lat="47.8193186" lon="-2.3924957">
        <ele>18.114</ele>
        <time>2018-08-24T08:44:52.760Z</time>
      </trkpt>
      <trkpt lat="47.8192446" lon="-2.3924065">
        <ele>18.827</ele>
        <time>2018-08-24T08:44:55.888Z</time>
      </trkpt>
      <trkpt lat="47.8191759" lon="-2.3923051">
        <ele>19.335</ele>
        <time>2018-08-24T08:44:58.980Z</time>
      </trkpt>
      <trkpt lat="47.8190956" lon="-2.3921910">
        <ele>19.511</ele>
        <time>2018-08-24T08:45:02.338Z</time>
      </trkpt>
      <trkpt lat="47.8190300" lon="-2.3920677">
        <ele>19.383</ele>
        <time>2018-08-24T08:45:05.339Z</time>
      </trkpt>
      <trkpt lat="47.8189419" lon="-2.3919407">
        <ele>19.070</ele>
        <time>2018-08-24T08:45:08.722Z</time>
      </trkpt>
      <trkpt lat="47.8188664" lon="-2.3918477">
        <ele>18.771</ele>
        <time>2018-08-24T08:45:11.439Z</time>
      </trkpt>
      <trkpt lat="47.8187661" lon="-2.3917327">
        <ele>18.511</ele>
        <time>2018-08-24T08:45:14.934Z</time>
      </trkpt>
      <trkpt lat="47.8186701" lon="-2.3916177">
        <ele>18.125</ele>
        <time>2018-08-24T08:45:18.276Z</time>
      </trkpt>
      <trkpt lat="47.8185715" lon="-2.3914819">
        <ele>17.588</ele>
        <time>2018-08-24T08:45:21.663Z</time>
      </trkpt>
      <trkpt lat="47.8185022" lon="-2.3913889">
        <ele>17.075</ele>
        <time>2018-08-24T08:45:23.866Z</time>
      </trkpt>
      <trkpt lat="47.8183920" lon="-2.3912412">
        <ele>16.738</ele>
        <time>2018-08-24T08:45:27.184Z</time>
      </trkpt>
      <trkpt lat="47.8182839" lon="-2.3911048">
        <ele>16.567</ele>
        <time>2018-08-24T08:45:30.403Z</time>
      </trkpt>
      <trkpt lat="47.8181939" lon="-2.3909916">
        <ele>16.441</ele>
        <time>2018-08-24T08:45:33.316Z</time>
      </trkpt>
      <trkpt lat="47.8181263" lon="-2.3908997">
        <ele>16.275</ele>
        <time>2018-08-24T08:45:35.793Z</time>
      </trkpt>
      <trkpt lat="47.8180552" lon="-2.3908112">
        <ele>16.130</ele>
        <time>2018-08-24T08:45:38.481Z</time>
      </trkpt>
      <trkpt lat="47.8179796" lon="-2.3906631">
        <ele>16.185</ele>
        <time>2018-08-24T08:45:42.136Z</time>
      </trkpt>
      <trkpt lat="47.8179169" lon="-2.3905640">
        <ele>16.480</ele>
        <time>2018-08-24T08:45:44.733Z</time>
      </trkpt>
      <trkpt lat="47.8178295" lon="-2.3904506">
        <ele>16.792</ele>
        <time>2018-08-24T08:45:48.011Z</time>
      </trkpt>
      <trkpt lat="47.8177562" lon="-2.3903622">
        <ele>16.891</ele>
        <time>2018-08-24T08:45:50.670Z</time>
      </trkpt>
      <trkpt lat="47.8176627" lon="-2.3902523">
        <ele>16.832</ele>
        <time>2018-08-24T08:45:54.004Z</time>
      </trkpt>
      <trkpt lat="47.8175805" lon="-2.3901467">
        <ele>16.821</ele>
        <time>2018-08-24T08:45:57.074Z</time>
      </trkpt>
      <trkpt lat="47.8174979" lon="-2.3900480">
        <ele>16.908</ele>
        <time>2018-08-24T08:46:00.106Z</time>
      </trkpt>
      <trkpt lat="47.8174211" lon="-2.3899501">
        <ele>16.938</ele>
        <time>2018-08-24T08:46:02.986Z</time>
      </trkpt>
      <trkpt lat="47.8173386" lon="-2.3898336">
        <ele>16.794</ele>
        <time>2018-08-24T08:46:06.218Z</time>
      </trkpt>
      <trkpt lat="47.8172585" lon="-2.3897404">
        <ele>16.533</ele>
        <time>2018-08-24T08:46:09.115Z</time>
      </trkpt>
      <trkpt lat="47.8171709" lon="-2.3896437">
        <ele>16.327</ele>
        <time>2018-08-24T08:46:12.158Z</time>
      </trkpt>
      <trkpt lat="47.8170644" lon="-2.3895308">
        <ele>16.240</ele>
        <time>2018-08-24T08:46:15.770Z</time>
      </trkpt>
      <trkpt lat="47.8169733" lon="-2.3894377">
        <ele>16.223</ele>
        <time>2018-08-24T08:46:19.006Z</time>
      </trkpt>
      <trkpt lat="47.8169011" lon="-2.3893570">
        <ele>16.233</ele>
        <time>2018-08-24T08:46:21.821Z</time>
      </trkpt>
      <trkpt lat="47.8168502" lon="-2.3892332">
        <ele>16.253</ele>
        <time>2018-08-24T08:46:25.128Z</time>
      </trkpt>
      <trkpt lat="47.8167729" lon="-2.3891530">
        <ele>16.168</ele>
        <time>2018-08-24T08:46:28.404Z</time>
      </trkpt>
      <trkpt lat="47.8166762" lon="-2.3890558">
        <ele>15.829</ele>
        <time>2018-08-24T08:46:31.983Z</time>
      </trkpt>
      <trkpt lat="47.8165696" lon="-2.3889432">
        <ele>15.288</ele>
        <time>2018-08-24T08:46:35.355Z</time>
      </trkpt>
      <trkpt lat="47.8164871" lon="-2.3888549">
        <ele>14.782</ele>
        <time>2018-08-24T08:46:37.819Z</time>
      </trkpt>
      <trkpt lat="47.8163634" lon="-2.3887339">
        <ele>14.538</ele>
        <time>2018-08-24T08:46:41.514Z</time>
      </trkpt>
      <trkpt lat="47.8162843" lon="-2.3886230">
        <ele>14.609</ele>
        <time>2018-08-24T08:46:44.415Z</time>
      </trkpt>
      <trkpt lat="47.8162185" lon="-2.3885047">
        <ele>14.846</ele>
        <time>2018-08-24T08:46:47.214Z</time>
      </trkpt>
      <trkpt lat="47.8161478" lon="-2.3883813">
        <ele>15.055</ele>
        <time>2018-08-24T08:46:50.073Z</time>
      </trkpt>
      <trkpt lat="47.8160715" lon="-2.3882299">
        <ele>15.110</ele>
        <time>2018-08-24T08:46:53.355Z</time>
      </trkpt>
      <trkpt lat="47.8159959" lon="-2.3881425">
        <ele>15.008</ele>
        <time>2018-08-24T08:46:55.903Z</time>
      </trkpt>
      <trkpt lat="47.8159212" lon="-2.3880547">
        <ele>14.905</ele>
        <time>2018-08-24T08:46:58.529Z</time>
      </trkpt>
      <trkpt lat="47.8158316" lon="-2.3879434">
        <ele>14.956</ele>
        <time>2018-08-24T08:47:01.889Z</time>
      </trkpt>
      <trkpt lat="47.8157493" lon="-2.3878520">
        <ele>15.174</ele>
        <time>2018-08-24T08:47:04.930Z</time>
      </trkpt>
      <trkpt lat="47.8156687" lon="-2.3877529">
        <ele>15.451</ele>
        <time>2018-08-24T08:47:08.128Z</time>
      </trkpt>
      <trkpt lat="47.8155902" lon="-2.3876404">
        <ele>15.676</ele>
        <time>2018-08-24T08:47:11.489Z</time>
      </trkpt>
      <trkpt lat="47.8155301" lon="-2.3875056">
        <ele>15.826</ele>
        <time>2018-08-24T08:47:14.582Z</time>
      </trkpt>
      <trkpt lat="47.8154409" lon="-2.3873613">
        <ele>15.912</ele>
        <time>2018-08-24T08:47:17.739Z</time>
      </trkpt>
      <trkpt lat="47.8153433" lon="-2.3872265">
        <ele>15.896</ele>
        <time>2018-08-24T08:47:20.729Z</time>
      </trkpt>
      <trkpt lat="47.8152284" lon="-2.3870947">
        <ele>15.731</ele>
        <time>2018-08-24T08:47:23.964Z</time>
      </trkpt>
      <trkpt lat="47.8151139" lon="-2.3869649">
        <ele>15.480</ele>
        <time>2018-08-24T08:47:27.331Z</time>
      </trkpt>
      <trkpt lat="47.8150216" lon="-2.3868593">
        <ele>15.241</ele>
        <time>2018-08-24T08:47:30.256Z</time>
      </trkpt>
      <trkpt lat="47.8149461" lon="-2.3867483">
        <ele>15.040</ele>
        <time>2018-08-24T08:47:33.118Z</time>
      </trkpt>
      <trkpt lat="47.8148716" lon="-2.3866531">
        <ele>14.880</ele>
        <time>2018-08-24T08:47:35.889Z</time>
      </trkpt>
      <trkpt lat="47.8147984" lon="-2.3865552">
        <ele>14.656</ele>
        <time>2018-08-24T08:47:38.837Z</time>
      </trkpt>
      <trkpt lat="47.8147208" lon="-2.3864561">
        <ele>14.300</ele>
        <time>2018-08-24T08:47:42.051Z</time>
      </trkpt>
      <trkpt lat="47.8146342" lon="-2.3863505">
        <ele>14.145</ele>
        <time>2018-08-24T08:47:45.765Z</time>
      </trkpt>
      <trkpt lat="47.8145580" lon="-2.3862179">
        <ele>14.486</ele>
        <time>2018-08-24T08:47:49.790Z</time>
      </trkpt>
      <trkpt lat="47.8145041" lon="-2.3861086">
        <ele>15.068</ele>
        <time>2018-08-24T08:47:52.824Z</time>
      </trkpt>
      <trkpt lat="47.8144216" lon="-2.3860049">
        <ele>15.533</ele>
        <time>2018-08-24T08:47:56.406Z</time>
      </trkpt>
      <trkpt lat="47.8143517" lon="-2.3859079">
        <ele>15.821</ele>
        <time>2018-08-24T08:47:59.640Z</time>
      </trkpt>
      <trkpt lat="47.8142756" lon="-2.3858038">
        <ele>15.974</ele>
        <time>2018-08-24T08:48:03.291Z</time>
      </trkpt>
      <trkpt lat="47.8141787" lon="-2.3856964">
        <ele>15.834</ele>
        <time>2018-08-24T08:48:07.128Z</time>
      </trkpt>
      <trkpt lat="47.8140994" lon="-2.3856242">
        <ele>15.042</ele>
        <time>2018-08-24T08:48:09.793Z</time>
      </trkpt>
      <trkpt lat="47.8139843" lon="-2.3855235">
        <ele>13.698</ele>
        <time>2018-08-24T08:48:13.360Z</time>
      </trkpt>
      <trkpt lat="47.8139139" lon="-2.3854340">
        <ele>12.315</ele>
        <time>2018-08-24T08:48:15.800Z</time>
      </trkpt>
      <trkpt lat="47.8138155" lon="-2.3853227">
        <ele>11.194</ele>
        <time>2018-08-24T08:48:18.908Z</time>
      </trkpt>
      <trkpt lat="47.8137146" lon="-2.3851941">
        <ele>10.458</ele>
        <time>2018-08-24T08:48:21.989Z</time>
      </trkpt>
      <trkpt lat="47.8136293" lon="-2.3850877">
        <ele>10.112</ele>
        <time>2018-08-24T08:48:24.467Z</time>
      </trkpt>
      <trkpt lat="47.8135389" lon="-2.3849862">
        <ele>9.888</ele>
        <time>2018-08-24T08:48:26.916Z</time>
      </trkpt>
      <trkpt lat="47.8134251" lon="-2.3848672">
        <ele>9.582</ele>
        <time>2018-08-24T08:48:30.014Z</time>
      </trkpt>
      <trkpt lat="47.8133346" lon="-2.3847761">
        <ele>9.251</ele>
        <time>2018-08-24T08:48:32.594Z</time>
      </trkpt>
      <trkpt lat="47.8132437" lon="-2.3846537">
        <ele>9.047</ele>
        <time>2018-08-24T08:48:35.613Z</time>
      </trkpt>
      <trkpt lat="47.8131731" lon="-2.3845366">
        <ele>8.997</ele>
        <time>2018-08-24T08:48:38.272Z</time>
      </trkpt>
      <trkpt lat="47.8130802" lon="-2.3844282">
        <ele>9.084</ele>
        <time>2018-08-24T08:48:41.272Z</time>
      </trkpt>
      <trkpt lat="47.8129895" lon="-2.3843091">
        <ele>9.295</ele>
        <time>2018-08-24T08:48:44.369Z</time>
      </trkpt>
      <trkpt lat="47.8128976" lon="-2.3841904">
        <ele>9.678</ele>
        <time>2018-08-24T08:48:47.566Z</time>
      </trkpt>
      <trkpt lat="47.8128014" lon="-2.3840676">
        <ele>10.202</ele>
        <time>2018-08-24T08:48:51.008Z</time>
      </trkpt>
      <trkpt lat="47.8127401" lon="-2.3839434">
        <ele>10.646</ele>
        <time>2018-08-24T08:48:53.852Z</time>
      </trkpt>
      <trkpt lat="47.8126689" lon="-2.3838306">
        <ele>10.991</ele>
        <time>2018-08-24T08:48:56.811Z</time>
      </trkpt>
      <trkpt lat="47.8125793" lon="-2.3837223">
        <ele>11.447</ele>
        <time>2018-08-24T08:49:00.295Z</time>
      </trkpt>
      <trkpt lat="47.8124983" lon="-2.3836092">
        <ele>11.987</ele>
        <time>2018-08-24T08:49:03.894Z</time>
      </trkpt>
      <trkpt lat="47.8124008" lon="-2.3835112">
        <ele>12.410</ele>
        <time>2018-08-24T08:49:08.217Z</time>
      </trkpt>
      <trkpt lat="47.8123092" lon="-2.3834284">
        <ele>12.619</ele>
        <time>2018-08-24T08:49:12.415Z</time>
      </trkpt>
      <trkpt lat="47.8122277" lon="-2.3833418">
        <ele>12.661</ele>
        <time>2018-08-24T08:49:16.472Z</time>
      </trkpt>
      <trkpt lat="47.8121442" lon="-2.3832534">
        <ele>12.812</ele>
        <time>2018-08-24T08:49:20.942Z</time>
      </trkpt>
      <trkpt lat="47.8120644" lon="-2.3831534">
        <ele>13.245</ele>
        <time>2018-08-24T08:49:28.703Z</time>
      </trkpt>
      <trkpt lat="47.8119913" lon="-2.3830648">
        <ele>13.930</ele>
        <time>2018-08-24T08:49:36.560Z</time>
      </trkpt>
      <trkpt lat="47.8119023" lon="-2.3831025">
        <ele>14.927</ele>
        <time>2018-08-24T08:49:44.282Z</time>
      </trkpt>
      <trkpt lat="47.8118477" lon="-2.3832225">
        <ele>16.069</ele>
        <time>2018-08-24T08:49:55.433Z</time>
      </trkpt>
      <trkpt lat="47.8117856" lon="-2.3833533">
        <ele>16.849</ele>
        <time>2018-08-24T08:50:00.873Z</time>
      </trkpt>
      <trkpt lat="47.8117035" lon="-2.3834612">
        <ele>17.113</ele>
        <time>2018-08-24T08:50:04.756Z</time>
      </trkpt>
      <trkpt lat="47.8116059" lon="-2.3835279">
        <ele>17.133</ele>
        <time>2018-08-24T08:50:08.571Z</time>
      </trkpt>
      <trkpt lat="47.8115225" lon="-2.3835862">
        <ele>17.321</ele>
        <time>2018-08-24T08:50:12.149Z</time>
      </trkpt>
      <trkpt lat="47.8114315" lon="-2.3836259">
        <ele>17.809</ele>
        <time>2018-08-24T08:50:16.267Z</time>
      </trkpt>
      <trkpt lat="47.8113538" lon="-2.3837198">
        <ele>18.147</ele>
        <time>2018-08-24T08:50:21.139Z</time>
      </trkpt>
      <trkpt lat="47.8112664" lon="-2.3837753">
        <ele>17.974</ele>
        <time>2018-08-24T08:50:25.699Z</time>
      </trkpt>
      <trkpt lat="47.8111803" lon="-2.3838424">
        <ele>17.561</ele>
        <time>2018-08-24T08:50:30.282Z</time>
      </trkpt>
      <trkpt lat="47.8110908" lon="-2.3838977">
        <ele>17.299</ele>
        <time>2018-08-24T08:50:35.000Z</time>
      </trkpt>
      <trkpt lat="47.8110908" lon="-2.3838977">
        <ele>17.262</ele>
        <time>2018-08-24T08:50:41.000Z</time>
      </trkpt>
      <trkpt lat="47.8110908" lon="-2.3838977">
        <ele>17.313</ele>
        <time>2018-08-24T08:50:59.030Z</time>
      </trkpt>
      <trkpt lat="47.8109584" lon="-2.3839842">
        <ele>17.328</ele>
        <time>2018-08-24T08:51:10.592Z</time>
      </trkpt>
      <trkpt lat="47.8108652" lon="-2.3839147">
        <ele>17.587</ele>
        <time>2018-08-24T08:51:15.789Z</time>
      </trkpt>
      <trkpt lat="47.8108126" lon="-2.3837747">
        <ele>18.319</ele>
        <time>2018-08-24T08:51:20.305Z</time>
      </trkpt>
      <trkpt lat="47.8107525" lon="-2.3836502">
        <ele>19.164</ele>
        <time>2018-08-24T08:51:24.000Z</time>
      </trkpt>
      <trkpt lat="47.8107525" lon="-2.3836502">
        <ele>19.701</ele>
        <time>2018-08-24T08:51:30.000Z</time>
      </trkpt>
      <trkpt lat="47.8107525" lon="-2.3836502">
        <ele>19.894</ele>
        <time>2018-08-24T08:51:30.100Z</time>
      </trkpt>
      <trkpt lat="47.8105159" lon="-2.3836573">
        <ele>19.785</ele>
        <time>2018-08-24T08:51:44.263Z</time>
      </trkpt>
      <trkpt lat="47.8104223" lon="-2.3837105">
        <ele>19.504</ele>
        <time>2018-08-24T08:51:48.119Z</time>
      </trkpt>
      <trkpt lat="47.8103416" lon="-2.3837905">
        <ele>19.017</ele>
        <time>2018-08-24T08:51:52.303Z</time>
      </trkpt>
      <trkpt lat="47.8103396" lon="-2.3839382">
        <ele>18.289</ele>
        <time>2018-08-24T08:51:56.882Z</time>
      </trkpt>
      <trkpt lat="47.8104098" lon="-2.3840325">
        <ele>17.523</ele>
        <time>2018-08-24T08:52:02.000Z</time>
      </trkpt>
      <trkpt lat="47.8104098" lon="-2.3840325">
        <ele>16.937</ele>
        <time>2018-08-24T08:52:07.000Z</time>
      </trkpt>
      <trkpt lat="47.8104098" lon="-2.3840325">
        <ele>16.640</ele>
        <time>2018-08-24T08:52:42.903Z</time>
      </trkpt>
      <trkpt lat="47.8103873" lon="-2.3842289">
        <ele>16.742</ele>
        <time>2018-08-24T08:52:54.836Z</time>
      </trkpt>
      <trkpt lat="47.8103139" lon="-2.3843141">
        <ele>17.283</ele>
        <time>2018-08-24T08:52:59.346Z</time>
      </trkpt>
      <trkpt lat="47.8102197" lon="-2.3844017">
        <ele>18.127</ele>
        <time>2018-08-24T08:53:03.405Z</time>
      </trkpt>
      <trkpt lat="47.8101196" lon="-2.3844987">
        <ele>18.850</ele>
        <time>2018-08-24T08:53:07.025Z</time>
      </trkpt>
      <trkpt lat="47.8100388" lon="-2.3845856">
        <ele>19.165</ele>
        <time>2018-08-24T08:53:09.807Z</time>
      </trkpt>
      <trkpt lat="47.8099454" lon="-2.3846669">
        <ele>19.181</ele>
        <time>2018-08-24T08:53:12.882Z</time>
      </trkpt>
      <trkpt lat="47.8098634" lon="-2.3847628">
        <ele>19.234</ele>
        <time>2018-08-24T08:53:15.915Z</time>
      </trkpt>
      <trkpt lat="47.8097785" lon="-2.3848500">
        <ele>19.514</ele>
        <time>2018-08-24T08:53:19.000Z</time>
      </trkpt>
      <trkpt lat="47.8097785" lon="-2.3848500">
        <ele>19.843</ele>
        <time>2018-08-24T08:53:30.000Z</time>
      </trkpt>
      <trkpt lat="47.8097785" lon="-2.3848500">
        <ele>19.987</ele>
        <time>2018-08-24T08:54:06.000Z</time>
      </trkpt>
      <trkpt lat="47.8097785" lon="-2.3848500">
        <ele>19.959</ele>
        <time>2018-08-24T08:59:53.999Z</time>
      </trkpt>
      <trkpt lat="47.8097785" lon="-2.3848500">
        <ele>19.893</ele>
        <time>2018-08-24T08:59:54.099Z</time>
      </trkpt>
      <trkpt lat="47.8097086" lon="-2.3847372">
        <ele>19.885</ele>
        <time>2018-08-24T09:03:30.133Z</time>
      </trkpt>
      <trkpt lat="47.8096649" lon="-2.3848592">
        <ele>19.917</ele>
        <time>2018-08-24T09:03:36.000Z</time>
      </trkpt>
      <trkpt lat="47.8096649" lon="-2.3848592">
        <ele>19.934</ele>
        <time>2018-08-24T09:03:45.000Z</time>
      </trkpt>
      <trkpt lat="47.8096649" lon="-2.3848592">
        <ele>19.924</ele>
        <time>2018-08-24T09:03:49.418Z</time>
      </trkpt>
      <trkpt lat="47.8098123" lon="-2.3846736">
        <ele>19.907</ele>
        <time>2018-08-24T09:04:02.370Z</time>
      </trkpt>
      <trkpt lat="47.8099031" lon="-2.3846201">
        <ele>20.015</ele>
        <time>2018-08-24T09:04:05.588Z</time>
      </trkpt>
      <trkpt lat="47.8099803" lon="-2.3845458">
        <ele>20.313</ele>
        <time>2018-08-24T09:04:08.417Z</time>
      </trkpt>
      <trkpt lat="47.8100624" lon="-2.3844731">
        <ele>20.561</ele>
        <time>2018-08-24T09:04:11.302Z</time>
      </trkpt>
      <trkpt lat="47.8101574" lon="-2.3843842">
        <ele>20.460</ele>
        <time>2018-08-24T09:04:14.809Z</time>
      </trkpt>
      <trkpt lat="47.8102369" lon="-2.3843044">
        <ele>20.047</ele>
        <time>2018-08-24T09:04:17.894Z</time>
      </trkpt>
      <trkpt lat="47.8103193" lon="-2.3842394">
        <ele>19.593</ele>
        <time>2018-08-24T09:04:20.826Z</time>
      </trkpt>
      <trkpt lat="47.8104270" lon="-2.3841617">
        <ele>19.310</ele>
        <time>2018-08-24T09:04:24.353Z</time>
      </trkpt>
      <trkpt lat="47.8105276" lon="-2.3841169">
        <ele>19.109</ele>
        <time>2018-08-24T09:04:27.326Z</time>
      </trkpt>
      <trkpt lat="47.8106245" lon="-2.3840737">
        <ele>18.785</ele>
        <time>2018-08-24T09:04:30.093Z</time>
      </trkpt>
      <trkpt lat="47.8107302" lon="-2.3840078">
        <ele>18.349</ele>
        <time>2018-08-24T09:04:33.152Z</time>
      </trkpt>
      <trkpt lat="47.8108266" lon="-2.3839554">
        <ele>17.969</ele>
        <time>2018-08-24T09:04:35.904Z</time>
      </trkpt>
      <trkpt lat="47.8109186" lon="-2.3839071">
        <ele>17.734</ele>
        <time>2018-08-24T09:04:38.642Z</time>
      </trkpt>
      <trkpt lat="47.8110081" lon="-2.3838403">
        <ele>17.642</ele>
        <time>2018-08-24T09:04:41.575Z</time>
      </trkpt>
      <trkpt lat="47.8111081" lon="-2.3837709">
        <ele>17.648</ele>
        <time>2018-08-24T09:04:45.067Z</time>
      </trkpt>
      <trkpt lat="47.8112065" lon="-2.3837214">
        <ele>17.850</ele>
        <time>2018-08-24T09:04:48.363Z</time>
      </trkpt>
      <trkpt lat="47.8113460" lon="-2.3836464">
        <ele>18.293</ele>
        <time>2018-08-24T09:04:52.272Z</time>
      </trkpt>
      <trkpt lat="47.8114853" lon="-2.3835252">
        <ele>18.697</ele>
        <time>2018-08-24T09:04:55.786Z</time>
      </trkpt>
      <trkpt lat="47.8115837" lon="-2.3834585">
        <ele>18.752</ele>
        <time>2018-08-24T09:04:57.872Z</time>
      </trkpt>
      <trkpt lat="47.8116798" lon="-2.3833960">
        <ele>18.512</ele>
        <time>2018-08-24T09:04:59.814Z</time>
      </trkpt>
      <trkpt lat="47.8118098" lon="-2.3833068">
        <ele>18.232</ele>
        <time>2018-08-24T09:05:02.496Z</time>
      </trkpt>
      <trkpt lat="47.8118981" lon="-2.3831882">
        <ele>18.083</ele>
        <time>2018-08-24T09:05:04.846Z</time>
      </trkpt>
      <trkpt lat="47.8119294" lon="-2.3830453">
        <ele>18.035</ele>
        <time>2018-08-24T09:05:07.000Z</time>
      </trkpt>
      <trkpt lat="47.8119294" lon="-2.3830453">
        <ele>18.014</ele>
        <time>2018-08-24T09:05:08.000Z</time>
      </trkpt>
      <trkpt lat="47.8119294" lon="-2.3830453">
        <ele>17.996</ele>
        <time>2018-08-24T09:05:08.100Z</time>
      </trkpt>
      <trkpt lat="47.8117741" lon="-2.3828466">
        <ele>17.989</ele>
        <time>2018-08-24T09:05:24.801Z</time>
      </trkpt>
      <trkpt lat="47.8117244" lon="-2.3827330">
        <ele>17.874</ele>
        <time>2018-08-24T09:05:28.499Z</time>
      </trkpt>
      <trkpt lat="47.8116413" lon="-2.3826226">
        <ele>17.485</ele>
        <time>2018-08-24T09:05:32.024Z</time>
      </trkpt>
      <trkpt lat="47.8115695" lon="-2.3825235">
        <ele>16.885</ele>
        <time>2018-08-24T09:05:34.952Z</time>
      </trkpt>
      <trkpt lat="47.8114899" lon="-2.3824251">
        <ele>16.323</ele>
        <time>2018-08-24T09:05:37.941Z</time>
      </trkpt>
      <trkpt lat="47.8114092" lon="-2.3823202">
        <ele>15.917</ele>
        <time>2018-08-24T09:05:41.040Z</time>
      </trkpt>
      <trkpt lat="47.8113273" lon="-2.3822255">
        <ele>15.608</ele>
        <time>2018-08-24T09:05:44.105Z</time>
      </trkpt>
      <trkpt lat="47.8112447" lon="-2.3821435">
        <ele>15.258</ele>
        <time>2018-08-24T09:05:47.067Z</time>
      </trkpt>
      <trkpt lat="47.8111590" lon="-2.3820597">
        <ele>14.827</ele>
        <time>2018-08-24T09:05:50.135Z</time>
      </trkpt>
      <trkpt lat="47.8110761" lon="-2.3819728">
        <ele>14.405</ele>
        <time>2018-08-24T09:05:53.213Z</time>
      </trkpt>
      <trkpt lat="47.8109875" lon="-2.3819051">
        <ele>14.061</ele>
        <time>2018-08-24T09:05:56.286Z</time>
      </trkpt>
      <trkpt lat="47.8108904" lon="-2.3817993">
        <ele>13.725</ele>
        <time>2018-08-24T09:06:00.042Z</time>
      </trkpt>
      <trkpt lat="47.8108012" lon="-2.3817381">
        <ele>13.326</ele>
        <time>2018-08-24T09:06:03.031Z</time>
      </trkpt>
      <trkpt lat="47.8107071" lon="-2.3816729">
        <ele>12.931</ele>
        <time>2018-08-24T09:06:06.159Z</time>
      </trkpt>
      <trkpt lat="47.8106139" lon="-2.3816112">
        <ele>12.675</ele>
        <time>2018-08-24T09:06:09.303Z</time>
      </trkpt>
      <trkpt lat="47.8105126" lon="-2.3815566">
        <ele>12.584</ele>
        <time>2018-08-24T09:06:12.780Z</time>
      </trkpt>
      <trkpt lat="47.8104264" lon="-2.3815048">
        <ele>12.602</ele>
        <time>2018-08-24T09:06:15.806Z</time>
      </trkpt>
      <trkpt lat="47.8103445" lon="-2.3814368">
        <ele>12.697</ele>
        <time>2018-08-24T09:06:18.900Z</time>
      </trkpt>
      <trkpt lat="47.8102404" lon="-2.3813792">
        <ele>12.889</ele>
        <time>2018-08-24T09:06:22.523Z</time>
      </trkpt>
      <trkpt lat="47.8101500" lon="-2.3813165">
        <ele>13.125</ele>
        <time>2018-08-24T09:06:25.494Z</time>
      </trkpt>
      <trkpt lat="47.8100412" lon="-2.3812325">
        <ele>13.279</ele>
        <time>2018-08-24T09:06:28.922Z</time>
      </trkpt>
      <trkpt lat="47.8099483" lon="-2.3811621">
        <ele>13.308</ele>
        <time>2018-08-24T09:06:31.934Z</time>
      </trkpt>
      <trkpt lat="47.8098574" lon="-2.3811346">
        <ele>13.275</ele>
        <time>2018-08-24T09:06:35.022Z</time>
      </trkpt>
      <trkpt lat="47.8097630" lon="-2.3811026">
        <ele>13.336</ele>
        <time>2018-08-24T09:06:38.396Z</time>
      </trkpt>
      <trkpt lat="47.8096701" lon="-2.3810485">
        <ele>13.565</ele>
        <time>2018-08-24T09:06:41.779Z</time>
      </trkpt>
      <trkpt lat="47.8095691" lon="-2.3809923">
        <ele>13.752</ele>
        <time>2018-08-24T09:06:45.155Z</time>
      </trkpt>
      <trkpt lat="47.8094730" lon="-2.3809267">
        <ele>13.699</ele>
        <time>2018-08-24T09:06:48.266Z</time>
      </trkpt>
      <trkpt lat="47.8093772" lon="-2.3808684">
        <ele>13.513</ele>
        <time>2018-08-24T09:06:51.239Z</time>
      </trkpt>
      <trkpt lat="47.8092833" lon="-2.3808138">
        <ele>13.327</ele>
        <time>2018-08-24T09:06:54.109Z</time>
      </trkpt>
      <trkpt lat="47.8091890" lon="-2.3807550">
        <ele>13.162</ele>
        <time>2018-08-24T09:06:57.013Z</time>
      </trkpt>
      <trkpt lat="47.8090995" lon="-2.3806827">
        <ele>13.017</ele>
        <time>2018-08-24T09:06:59.966Z</time>
      </trkpt>
      <trkpt lat="47.8090203" lon="-2.3806135">
        <ele>12.865</ele>
        <time>2018-08-24T09:07:02.766Z</time>
      </trkpt>
      <trkpt lat="47.8089190" lon="-2.3805295">
        <ele>12.704</ele>
        <time>2018-08-24T09:07:06.434Z</time>
      </trkpt>
      <trkpt lat="47.8088242" lon="-2.3804447">
        <ele>12.593</ele>
        <time>2018-08-24T09:07:10.023Z</time>
      </trkpt>
      <trkpt lat="47.8087451" lon="-2.3803761">
        <ele>12.574</ele>
        <time>2018-08-24T09:07:13.188Z</time>
      </trkpt>
      <trkpt lat="47.8086402" lon="-2.3804229">
        <ele>12.625</ele>
        <time>2018-08-24T09:07:17.322Z</time>
      </trkpt>
      <trkpt lat="47.8085628" lon="-2.3804939">
        <ele>12.698</ele>
        <time>2018-08-24T09:07:21.298Z</time>
      </trkpt>
      <trkpt lat="47.8084451" lon="-2.3805022">
        <ele>12.815</ele>
        <time>2018-08-24T09:07:26.443Z</time>
      </trkpt>
      <trkpt lat="47.8083334" lon="-2.3804871">
        <ele>13.030</ele>
        <time>2018-08-24T09:07:30.494Z</time>
      </trkpt>
      <trkpt lat="47.8082223" lon="-2.3804814">
        <ele>13.319</ele>
        <time>2018-08-24T09:07:34.007Z</time>
      </trkpt>
      <trkpt lat="47.8081186" lon="-2.3804831">
        <ele>13.576</ele>
        <time>2018-08-24T09:07:37.081Z</time>
      </trkpt>
      <trkpt lat="47.8080225" lon="-2.3804757">
        <ele>13.710</ele>
        <time>2018-08-24T09:07:39.909Z</time>
      </trkpt>
      <trkpt lat="47.8079257" lon="-2.3804718">
        <ele>13.723</ele>
        <time>2018-08-24T09:07:42.823Z</time>
      </trkpt>
      <trkpt lat="47.8078079" lon="-2.3804572">
        <ele>13.687</ele>
        <time>2018-08-24T09:07:46.503Z</time>
      </trkpt>
      <trkpt lat="47.8076916" lon="-2.3804483">
        <ele>13.682</ele>
        <time>2018-08-24T09:07:50.231Z</time>
      </trkpt>
      <trkpt lat="47.8075984" lon="-2.3804603">
        <ele>13.750</ele>
        <time>2018-08-24T09:07:53.254Z</time>
      </trkpt>
      <trkpt lat="47.8074800" lon="-2.3804765">
        <ele>13.851</ele>
        <time>2018-08-24T09:07:57.075Z</time>
      </trkpt>
      <trkpt lat="47.8073808" lon="-2.3805032">
        <ele>13.918</ele>
        <time>2018-08-24T09:08:00.299Z</time>
      </trkpt>
      <trkpt lat="47.8072633" lon="-2.3805167">
        <ele>13.883</ele>
        <time>2018-08-24T09:08:04.092Z</time>
      </trkpt>
      <trkpt lat="47.8071383" lon="-2.3805249">
        <ele>13.684</ele>
        <time>2018-08-24T09:08:08.067Z</time>
      </trkpt>
      <trkpt lat="47.8070332" lon="-2.3805256">
        <ele>13.395</ele>
        <time>2018-08-24T09:08:11.311Z</time>
      </trkpt>
      <trkpt lat="47.8069363" lon="-2.3805090">
        <ele>13.182</ele>
        <time>2018-08-24T09:08:14.273Z</time>
      </trkpt>
      <trkpt lat="47.8068257" lon="-2.3805113">
        <ele>13.103</ele>
        <time>2018-08-24T09:08:17.536Z</time>
      </trkpt>
      <trkpt lat="47.8067149" lon="-2.3804960">
        <ele>13.097</ele>
        <time>2018-08-24T09:08:20.714Z</time>
      </trkpt>
      <trkpt lat="47.8066131" lon="-2.3804357">
        <ele>13.099</ele>
        <time>2018-08-24T09:08:23.795Z</time>
      </trkpt>
      <trkpt lat="47.8065241" lon="-2.3803500">
        <ele>13.121</ele>
        <time>2018-08-24T09:08:26.699Z</time>
      </trkpt>
      <trkpt lat="47.8064139" lon="-2.3802849">
        <ele>13.183</ele>
        <time>2018-08-24T09:08:29.880Z</time>
      </trkpt>
      <trkpt lat="47.8063372" lon="-2.3802114">
        <ele>13.215</ele>
        <time>2018-08-24T09:08:32.399Z</time>
      </trkpt>
      <trkpt lat="47.8062751" lon="-2.3801025">
        <ele>13.154</ele>
        <time>2018-08-24T09:08:35.128Z</time>
      </trkpt>
      <trkpt lat="47.8061863" lon="-2.3800125">
        <ele>13.062</ele>
        <time>2018-08-24T09:08:38.240Z</time>
      </trkpt>
      <trkpt lat="47.8061071" lon="-2.3799285">
        <ele>13.036</ele>
        <time>2018-08-24T09:08:41.114Z</time>
      </trkpt>
      <trkpt lat="47.8060549" lon="-2.3798115">
        <ele>13.096</ele>
        <time>2018-08-24T09:08:43.991Z</time>
      </trkpt>
      <trkpt lat="47.8060210" lon="-2.3796853">
        <ele>13.189</ele>
        <time>2018-08-24T09:08:46.847Z</time>
      </trkpt>
      <trkpt lat="47.8059704" lon="-2.3795606">
        <ele>13.236</ele>
        <time>2018-08-24T09:08:49.929Z</time>
      </trkpt>
      <trkpt lat="47.8059220" lon="-2.3794476">
        <ele>13.219</ele>
        <time>2018-08-24T09:08:52.767Z</time>
      </trkpt>
      <trkpt lat="47.8058738" lon="-2.3793263">
        <ele>13.179</ele>
        <time>2018-08-24T09:08:55.720Z</time>
      </trkpt>
      <trkpt lat="47.8058297" lon="-2.3791972">
        <ele>13.134</ele>
        <time>2018-08-24T09:08:58.704Z</time>
      </trkpt>
      <trkpt lat="47.8057836" lon="-2.3790611">
        <ele>13.075</ele>
        <time>2018-08-24T09:09:01.785Z</time>
      </trkpt>
      <trkpt lat="47.8057448" lon="-2.3789254">
        <ele>12.944</ele>
        <time>2018-08-24T09:09:04.690Z</time>
      </trkpt>
      <trkpt lat="47.8056853" lon="-2.3787852">
        <ele>12.714</ele>
        <time>2018-08-24T09:09:07.836Z</time>
      </trkpt>
      <trkpt lat="47.8056267" lon="-2.3786405">
        <ele>12.456</ele>
        <time>2018-08-24T09:09:10.929Z</time>
      </trkpt>
      <trkpt lat="47.8055812" lon="-2.3784882">
        <ele>12.211</ele>
        <time>2018-08-24T09:09:13.913Z</time>
      </trkpt>
      <trkpt lat="47.8055361" lon="-2.3783345">
        <ele>11.975</ele>
        <time>2018-08-24T09:09:16.892Z</time>
      </trkpt>
      <trkpt lat="47.8054942" lon="-2.3781854">
        <ele>11.821</ele>
        <time>2018-08-24T09:09:19.783Z</time>
      </trkpt>
      <trkpt lat="47.8054499" lon="-2.3780425">
        <ele>11.785</ele>
        <time>2018-08-24T09:09:22.660Z</time>
      </trkpt>
      <trkpt lat="47.8054120" lon="-2.3779044">
        <ele>11.827</ele>
        <time>2018-08-24T09:09:25.448Z</time>
      </trkpt>
      <trkpt lat="47.8053829" lon="-2.3777525">
        <ele>11.868</ele>
        <time>2018-08-24T09:09:28.417Z</time>
      </trkpt>
      <trkpt lat="47.8053450" lon="-2.3775991">
        <ele>11.830</ele>
        <time>2018-08-24T09:09:31.476Z</time>
      </trkpt>
      <trkpt lat="47.8053541" lon="-2.3774502">
        <ele>11.687</ele>
        <time>2018-08-24T09:09:34.286Z</time>
      </trkpt>
      <trkpt lat="47.8053136" lon="-2.3773058">
        <ele>11.473</ele>
        <time>2018-08-24T09:09:37.254Z</time>
      </trkpt>
      <trkpt lat="47.8052502" lon="-2.3771647">
        <ele>11.261</ele>
        <time>2018-08-24T09:09:40.464Z</time>
      </trkpt>
      <trkpt lat="47.8051826" lon="-2.3770117">
        <ele>11.123</ele>
        <time>2018-08-24T09:09:43.839Z</time>
      </trkpt>
      <trkpt lat="47.8051261" lon="-2.3768649">
        <ele>11.113</ele>
        <time>2018-08-24T09:09:46.874Z</time>
      </trkpt>
      <trkpt lat="47.8050874" lon="-2.3767143">
        <ele>11.200</ele>
        <time>2018-08-24T09:09:49.715Z</time>
      </trkpt>
      <trkpt lat="47.8050510" lon="-2.3765523">
        <ele>11.338</ele>
        <time>2018-08-24T09:09:52.691Z</time>
      </trkpt>
      <trkpt lat="47.8050237" lon="-2.3763870">
        <ele>11.492</ele>
        <time>2018-08-24T09:09:55.667Z</time>
      </trkpt>
      <trkpt lat="47.8050158" lon="-2.3762338">
        <ele>11.601</ele>
        <time>2018-08-24T09:09:58.392Z</time>
      </trkpt>
      <trkpt lat="47.8049517" lon="-2.3760741">
        <ele>11.618</ele>
        <time>2018-08-24T09:10:01.693Z</time>
      </trkpt>
      <trkpt lat="47.8048938" lon="-2.3759232">
        <ele>11.587</ele>
        <time>2018-08-24T09:10:04.757Z</time>
      </trkpt>
      <trkpt lat="47.8048744" lon="-2.3757775">
        <ele>11.610</ele>
        <time>2018-08-24T09:10:07.407Z</time>
      </trkpt>
      <trkpt lat="47.8048598" lon="-2.3756188">
        <ele>11.729</ele>
        <time>2018-08-24T09:10:10.289Z</time>
      </trkpt>
      <trkpt lat="47.8047889" lon="-2.3754560">
        <ele>11.835</ele>
        <time>2018-08-24T09:10:13.698Z</time>
      </trkpt>
      <trkpt lat="47.8047433" lon="-2.3752975">
        <ele>11.760</ele>
        <time>2018-08-24T09:10:16.667Z</time>
      </trkpt>
      <trkpt lat="47.8047003" lon="-2.3751448">
        <ele>11.402</ele>
        <time>2018-08-24T09:10:19.517Z</time>
      </trkpt>
      <trkpt lat="47.8046688" lon="-2.3749831">
        <ele>10.738</ele>
        <time>2018-08-24T09:10:22.433Z</time>
      </trkpt>
      <trkpt lat="47.8046354" lon="-2.3748282">
        <ele>9.961</ele>
        <time>2018-08-24T09:10:25.303Z</time>
      </trkpt>
      <trkpt lat="47.8045946" lon="-2.3746862">
        <ele>9.488</ele>
        <time>2018-08-24T09:10:28.109Z</time>
      </trkpt>
      <trkpt lat="47.8045517" lon="-2.3745491">
        <ele>9.524</ele>
        <time>2018-08-24T09:10:30.949Z</time>
      </trkpt>
      <trkpt lat="47.8045168" lon="-2.3744078">
        <ele>9.837</ele>
        <time>2018-08-24T09:10:33.844Z</time>
      </trkpt>
      <trkpt lat="47.8044861" lon="-2.3742645">
        <ele>10.152</ele>
        <time>2018-08-24T09:10:36.772Z</time>
      </trkpt>
      <trkpt lat="47.8044537" lon="-2.3741159">
        <ele>10.405</ele>
        <time>2018-08-24T09:10:39.830Z</time>
      </trkpt>
      <trkpt lat="47.8044498" lon="-2.3739675">
        <ele>10.602</ele>
        <time>2018-08-24T09:10:42.749Z</time>
      </trkpt>
      <trkpt lat="47.8044550" lon="-2.3737997">
        <ele>10.668</ele>
        <time>2018-08-24T09:10:46.000Z</time>
      </trkpt>
      <trkpt lat="47.8044571" lon="-2.3736294">
        <ele>10.580</ele>
        <time>2018-08-24T09:10:49.191Z</time>
      </trkpt>
      <trkpt lat="47.8044634" lon="-2.3734627">
        <ele>10.453</ele>
        <time>2018-08-24T09:10:52.250Z</time>
      </trkpt>
      <trkpt lat="47.8044659" lon="-2.3733003">
        <ele>10.366</ele>
        <time>2018-08-24T09:10:55.210Z</time>
      </trkpt>
      <trkpt lat="47.8044588" lon="-2.3731372">
        <ele>10.202</ele>
        <time>2018-08-24T09:10:58.211Z</time>
      </trkpt>
      <trkpt lat="47.8044421" lon="-2.3729917">
        <ele>9.888</ele>
        <time>2018-08-24T09:11:00.966Z</time>
      </trkpt>
      <trkpt lat="47.8044603" lon="-2.3728262">
        <ele>9.628</ele>
        <time>2018-08-24T09:11:04.142Z</time>
      </trkpt>
      <trkpt lat="47.8044923" lon="-2.3726710">
        <ele>9.591</ele>
        <time>2018-08-24T09:11:07.213Z</time>
      </trkpt>
      <trkpt lat="47.8045095" lon="-2.3725170">
        <ele>9.674</ele>
        <time>2018-08-24T09:11:10.161Z</time>
      </trkpt>
      <trkpt lat="47.8045273" lon="-2.3723631">
        <ele>9.774</ele>
        <time>2018-08-24T09:11:13.102Z</time>
      </trkpt>
      <trkpt lat="47.8045600" lon="-2.3722171">
        <ele>9.915</ele>
        <time>2018-08-24T09:11:15.987Z</time>
      </trkpt>
      <trkpt lat="47.8045887" lon="-2.3720500">
        <ele>10.120</ele>
        <time>2018-08-24T09:11:19.185Z</time>
      </trkpt>
      <trkpt lat="47.8046286" lon="-2.3719001">
        <ele>10.353</ele>
        <time>2018-08-24T09:11:22.160Z</time>
      </trkpt>
      <trkpt lat="47.8046605" lon="-2.3717464">
        <ele>10.586</ele>
        <time>2018-08-24T09:11:25.114Z</time>
      </trkpt>
      <trkpt lat="47.8046956" lon="-2.3715816">
        <ele>10.794</ele>
        <time>2018-08-24T09:11:28.224Z</time>
      </trkpt>
      <trkpt lat="47.8047452" lon="-2.3714261">
        <ele>10.958</ele>
        <time>2018-08-24T09:11:31.264Z</time>
      </trkpt>
      <trkpt lat="47.8047959" lon="-2.3712838">
        <ele>11.105</ele>
        <time>2018-08-24T09:11:34.090Z</time>
      </trkpt>
      <trkpt lat="47.8048613" lon="-2.3711511">
        <ele>11.270</ele>
        <time>2018-08-24T09:11:36.989Z</time>
      </trkpt>
      <trkpt lat="47.8049306" lon="-2.3710306">
        <ele>11.625</ele>
        <time>2018-08-24T09:11:39.793Z</time>
      </trkpt>
      <trkpt lat="47.8050142" lon="-2.3709021">
        <ele>11.914</ele>
        <time>2018-08-24T09:11:42.940Z</time>
      </trkpt>
      <trkpt lat="47.8050982" lon="-2.3707890">
        <ele>12.208</ele>
        <time>2018-08-24T09:11:45.877Z</time>
      </trkpt>
      <trkpt lat="47.8052152" lon="-2.3707275">
        <ele>12.410</ele>
        <time>2018-08-24T09:11:49.101Z</time>
      </trkpt>
      <trkpt lat="47.8053342" lon="-2.3706932">
        <ele>12.575</ele>
        <time>2018-08-24T09:11:52.272Z</time>
      </trkpt>
      <trkpt lat="47.8054499" lon="-2.3706422">
        <ele>12.841</ele>
        <time>2018-08-24T09:11:55.415Z</time>
      </trkpt>
      <trkpt lat="47.8055698" lon="-2.3705737">
        <ele>13.533</ele>
        <time>2018-08-24T09:11:58.744Z</time>
      </trkpt>
      <trkpt lat="47.8056583" lon="-2.3704930">
        <ele>13.643</ele>
        <time>2018-08-24T09:12:01.454Z</time>
      </trkpt>
      <trkpt lat="47.8057439" lon="-2.3704280">
        <ele>13.589</ele>
        <time>2018-08-24T09:12:03.918Z</time>
      </trkpt>
      <trkpt lat="47.8058276" lon="-2.3703639">
        <ele>13.521</ele>
        <time>2018-08-24T09:12:06.295Z</time>
      </trkpt>
      <trkpt lat="47.8059246" lon="-2.3703069">
        <ele>13.515</ele>
        <time>2018-08-24T09:12:08.973Z</time>
      </trkpt>
      <trkpt lat="47.8060271" lon="-2.3702457">
        <ele>13.590</ele>
        <time>2018-08-24T09:12:11.871Z</time>
      </trkpt>
      <trkpt lat="47.8061215" lon="-2.3701912">
        <ele>13.790</ele>
        <time>2018-08-24T09:12:14.552Z</time>
      </trkpt>
      <trkpt lat="47.8062422" lon="-2.3701202">
        <ele>14.068</ele>
        <time>2018-08-24T09:12:17.949Z</time>
      </trkpt>
      <trkpt lat="47.8063438" lon="-2.3700711">
        <ele>14.307</ele>
        <time>2018-08-24T09:12:20.762Z</time>
      </trkpt>
      <trkpt lat="47.8064339" lon="-2.3700135">
        <ele>14.431</ele>
        <time>2018-08-24T09:12:23.351Z</time>
      </trkpt>
      <trkpt lat="47.8065602" lon="-2.3699373">
        <ele>14.486</ele>
        <time>2018-08-24T09:12:26.844Z</time>
      </trkpt>
      <trkpt lat="47.8066739" lon="-2.3698639">
        <ele>14.570</ele>
        <time>2018-08-24T09:12:29.893Z</time>
      </trkpt>
      <trkpt lat="47.8067773" lon="-2.3697912">
        <ele>14.687</ele>
        <time>2018-08-24T09:12:32.680Z</time>
      </trkpt>
      <trkpt lat="47.8068767" lon="-2.3697080">
        <ele>14.812</ele>
        <time>2018-08-24T09:12:35.529Z</time>
      </trkpt>
      <trkpt lat="47.8069528" lon="-2.3696196">
        <ele>14.955</ele>
        <time>2018-08-24T09:12:38.049Z</time>
      </trkpt>
      <trkpt lat="47.8070317" lon="-2.3695284">
        <ele>15.101</ele>
        <time>2018-08-24T09:12:40.785Z</time>
      </trkpt>
      <trkpt lat="47.8071056" lon="-2.3694419">
        <ele>15.214</ele>
        <time>2018-08-24T09:12:43.464Z</time>
      </trkpt>
      <trkpt lat="47.8071832" lon="-2.3693153">
        <ele>15.289</ele>
        <time>2018-08-24T09:12:46.889Z</time>
      </trkpt>
      <trkpt lat="47.8072392" lon="-2.3691972">
        <ele>15.339</ele>
        <time>2018-08-24T09:12:49.891Z</time>
      </trkpt>
      <trkpt lat="47.8072877" lon="-2.3690744">
        <ele>15.383</ele>
        <time>2018-08-24T09:12:52.873Z</time>
      </trkpt>
      <trkpt lat="47.8073333" lon="-2.3689470">
        <ele>15.422</ele>
        <time>2018-08-24T09:12:55.874Z</time>
      </trkpt>
      <trkpt lat="47.8073750" lon="-2.3688045">
        <ele>15.505</ele>
        <time>2018-08-24T09:12:59.051Z</time>
      </trkpt>
      <trkpt lat="47.8074096" lon="-2.3686424">
        <ele>15.654</ele>
        <time>2018-08-24T09:13:02.378Z</time>
      </trkpt>
      <trkpt lat="47.8074256" lon="-2.3684766">
        <ele>15.795</ele>
        <time>2018-08-24T09:13:05.529Z</time>
      </trkpt>
      <trkpt lat="47.8074296" lon="-2.3683021">
        <ele>15.802</ele>
        <time>2018-08-24T09:13:08.740Z</time>
      </trkpt>
      <trkpt lat="47.8074353" lon="-2.3681306">
        <ele>15.666</ele>
        <time>2018-08-24T09:13:11.819Z</time>
      </trkpt>
      <trkpt lat="47.8074603" lon="-2.3679487">
        <ele>15.432</ele>
        <time>2018-08-24T09:13:15.058Z</time>
      </trkpt>
      <trkpt lat="47.8074871" lon="-2.3677736">
        <ele>15.125</ele>
        <time>2018-08-24T09:13:18.145Z</time>
      </trkpt>
      <trkpt lat="47.8075055" lon="-2.3676099">
        <ele>14.780</ele>
        <time>2018-08-24T09:13:21.022Z</time>
      </trkpt>
      <trkpt lat="47.8075178" lon="-2.3674481">
        <ele>14.489</ele>
        <time>2018-08-24T09:13:23.908Z</time>
      </trkpt>
      <trkpt lat="47.8075192" lon="-2.3672793">
        <ele>14.310</ele>
        <time>2018-08-24T09:13:26.962Z</time>
      </trkpt>
      <trkpt lat="47.8075212" lon="-2.3671237">
        <ele>14.238</ele>
        <time>2018-08-24T09:13:29.818Z</time>
      </trkpt>
      <trkpt lat="47.8075329" lon="-2.3669750">
        <ele>14.170</ele>
        <time>2018-08-24T09:13:32.616Z</time>
      </trkpt>
      <trkpt lat="47.8075540" lon="-2.3668214">
        <ele>14.042</ele>
        <time>2018-08-24T09:13:35.593Z</time>
      </trkpt>
      <trkpt lat="47.8075716" lon="-2.3666560">
        <ele>13.881</ele>
        <time>2018-08-24T09:13:38.755Z</time>
      </trkpt>
      <trkpt lat="47.8075857" lon="-2.3665020">
        <ele>13.737</ele>
        <time>2018-08-24T09:13:41.673Z</time>
      </trkpt>
      <trkpt lat="47.8076003" lon="-2.3663296">
        <ele>13.633</ele>
        <time>2018-08-24T09:13:44.918Z</time>
      </trkpt>
      <trkpt lat="47.8076073" lon="-2.3661630">
        <ele>13.555</ele>
        <time>2018-08-24T09:13:47.992Z</time>
      </trkpt>
      <trkpt lat="47.8076144" lon="-2.3660010">
        <ele>13.439</ele>
        <time>2018-08-24T09:13:50.961Z</time>
      </trkpt>
      <trkpt lat="47.8076129" lon="-2.3658390">
        <ele>13.269</ele>
        <time>2018-08-24T09:13:53.928Z</time>
      </trkpt>
      <trkpt lat="47.8076161" lon="-2.3656793">
        <ele>13.084</ele>
        <time>2018-08-24T09:13:56.868Z</time>
      </trkpt>
      <trkpt lat="47.8076323" lon="-2.3655046">
        <ele>12.889</ele>
        <time>2018-08-24T09:14:00.070Z</time>
      </trkpt>
      <trkpt lat="47.8076519" lon="-2.3653210">
        <ele>12.652</ele>
        <time>2018-08-24T09:14:03.295Z</time>
      </trkpt>
      <trkpt lat="47.8076642" lon="-2.3651345">
        <ele>12.409</ele>
        <time>2018-08-24T09:14:06.420Z</time>
      </trkpt>
      <trkpt lat="47.8076584" lon="-2.3649585">
        <ele>12.248</ele>
        <time>2018-08-24T09:14:09.338Z</time>
      </trkpt>
      <trkpt lat="47.8076401" lon="-2.3647928">
        <ele>12.204</ele>
        <time>2018-08-24T09:14:12.174Z</time>
      </trkpt>
      <trkpt lat="47.8076298" lon="-2.3646164">
        <ele>12.245</ele>
        <time>2018-08-24T09:14:15.221Z</time>
      </trkpt>
      <trkpt lat="47.8076197" lon="-2.3644329">
        <ele>12.305</ele>
        <time>2018-08-24T09:14:18.374Z</time>
      </trkpt>
      <trkpt lat="47.8076161" lon="-2.3642544">
        <ele>12.331</ele>
        <time>2018-08-24T09:14:21.410Z</time>
      </trkpt>
      <trkpt lat="47.8076156" lon="-2.3640885">
        <ele>12.294</ele>
        <time>2018-08-24T09:14:24.235Z</time>
      </trkpt>
      <trkpt lat="47.8076201" lon="-2.3639162">
        <ele>12.160</ele>
        <time>2018-08-24T09:14:27.183Z</time>
      </trkpt>
      <trkpt lat="47.8076287" lon="-2.3637583">
        <ele>11.917</ele>
        <time>2018-08-24T09:14:29.922Z</time>
      </trkpt>
      <trkpt lat="47.8076410" lon="-2.3636023">
        <ele>11.634</ele>
        <time>2018-08-24T09:14:32.683Z</time>
      </trkpt>
      <trkpt lat="47.8076412" lon="-2.3634180">
        <ele>11.408</ele>
        <time>2018-08-24T09:14:35.923Z</time>
      </trkpt>
      <trkpt lat="47.8076319" lon="-2.3632432">
        <ele>11.284</ele>
        <time>2018-08-24T09:14:38.971Z</time>
      </trkpt>
      <trkpt lat="47.8076363" lon="-2.3630793">
        <ele>11.263</ele>
        <time>2018-08-24T09:14:41.836Z</time>
      </trkpt>
      <trkpt lat="47.8076381" lon="-2.3629237">
        <ele>11.395</ele>
        <time>2018-08-24T09:14:44.601Z</time>
      </trkpt>
      <trkpt lat="47.8076380" lon="-2.3627552">
        <ele>11.685</ele>
        <time>2018-08-24T09:14:47.622Z</time>
      </trkpt>
      <trkpt lat="47.8076368" lon="-2.3625630">
        <ele>11.997</ele>
        <time>2018-08-24T09:14:50.969Z</time>
      </trkpt>
      <trkpt lat="47.8076399" lon="-2.3623803">
        <ele>12.210</ele>
        <time>2018-08-24T09:14:54.045Z</time>
      </trkpt>
      <trkpt lat="47.8076395" lon="-2.3621926">
        <ele>12.332</ele>
        <time>2018-08-24T09:14:57.154Z</time>
      </trkpt>
      <trkpt lat="47.8076354" lon="-2.3620222">
        <ele>12.382</ele>
        <time>2018-08-24T09:14:59.970Z</time>
      </trkpt>
      <trkpt lat="47.8076437" lon="-2.3618447">
        <ele>12.315</ele>
        <time>2018-08-24T09:15:02.942Z</time>
      </trkpt>
      <trkpt lat="47.8076595" lon="-2.3616884">
        <ele>12.112</ele>
        <time>2018-08-24T09:15:05.648Z</time>
      </trkpt>
      <trkpt lat="47.8076724" lon="-2.3615415">
        <ele>11.865</ele>
        <time>2018-08-24T09:15:08.258Z</time>
      </trkpt>
      <trkpt lat="47.8076754" lon="-2.3613875">
        <ele>11.707</ele>
        <time>2018-08-24T09:15:11.052Z</time>
      </trkpt>
      <trkpt lat="47.8076728" lon="-2.3612166">
        <ele>11.675</ele>
        <time>2018-08-24T09:15:14.171Z</time>
      </trkpt>
      <trkpt lat="47.8076689" lon="-2.3610449">
        <ele>11.752</ele>
        <time>2018-08-24T09:15:17.259Z</time>
      </trkpt>
      <trkpt lat="47.8076750" lon="-2.3608843">
        <ele>11.884</ele>
        <time>2018-08-24T09:15:20.126Z</time>
      </trkpt>
      <trkpt lat="47.8076880" lon="-2.3607143">
        <ele>11.993</ele>
        <time>2018-08-24T09:15:23.164Z</time>
      </trkpt>
      <trkpt lat="47.8076947" lon="-2.3605638">
        <ele>12.041</ele>
        <time>2018-08-24T09:15:25.850Z</time>
      </trkpt>
      <trkpt lat="47.8077021" lon="-2.3604167">
        <ele>12.052</ele>
        <time>2018-08-24T09:15:28.554Z</time>
      </trkpt>
      <trkpt lat="47.8077164" lon="-2.3602501">
        <ele>12.057</ele>
        <time>2018-08-24T09:15:31.683Z</time>
      </trkpt>
      <trkpt lat="47.8077320" lon="-2.3600945">
        <ele>12.063</ele>
        <time>2018-08-24T09:15:34.615Z</time>
      </trkpt>
      <trkpt lat="47.8077422" lon="-2.3599298">
        <ele>12.105</ele>
        <time>2018-08-24T09:15:37.686Z</time>
      </trkpt>
      <trkpt lat="47.8077475" lon="-2.3597553">
        <ele>12.213</ele>
        <time>2018-08-24T09:15:40.870Z</time>
      </trkpt>
      <trkpt lat="47.8077609" lon="-2.3596049">
        <ele>12.336</ele>
        <time>2018-08-24T09:15:43.623Z</time>
      </trkpt>
      <trkpt lat="47.8077736" lon="-2.3594469">
        <ele>12.410</ele>
        <time>2018-08-24T09:15:46.548Z</time>
      </trkpt>
      <trkpt lat="47.8077874" lon="-2.3592931">
        <ele>12.450</ele>
        <time>2018-08-24T09:15:49.434Z</time>
      </trkpt>
      <trkpt lat="47.8077991" lon="-2.3591262">
        <ele>12.523</ele>
        <time>2018-08-24T09:15:52.560Z</time>
      </trkpt>
      <trkpt lat="47.8078247" lon="-2.3589165">
        <ele>12.654</ele>
        <time>2018-08-24T09:15:56.320Z</time>
      </trkpt>
      <trkpt lat="47.8078502" lon="-2.3587792">
        <ele>12.776</ele>
        <time>2018-08-24T09:15:58.737Z</time>
      </trkpt>
      <trkpt lat="47.8078806" lon="-2.3586391">
        <ele>12.811</ele>
        <time>2018-08-24T09:16:01.323Z</time>
      </trkpt>
      <trkpt lat="47.8078963" lon="-2.3584920">
        <ele>12.761</ele>
        <time>2018-08-24T09:16:04.018Z</time>
      </trkpt>
      <trkpt lat="47.8079190" lon="-2.3583493">
        <ele>12.686</ele>
        <time>2018-08-24T09:16:06.755Z</time>
      </trkpt>
      <trkpt lat="47.8079351" lon="-2.3581949">
        <ele>12.644</ele>
        <time>2018-08-24T09:16:09.779Z</time>
      </trkpt>
      <trkpt lat="47.8079448" lon="-2.3580572">
        <ele>12.639</ele>
        <time>2018-08-24T09:16:12.543Z</time>
      </trkpt>
      <trkpt lat="47.8079803" lon="-2.3579256">
        <ele>12.623</ele>
        <time>2018-08-24T09:16:15.414Z</time>
      </trkpt>
      <trkpt lat="47.8080087" lon="-2.3577802">
        <ele>12.545</ele>
        <time>2018-08-24T09:16:18.514Z</time>
      </trkpt>
      <trkpt lat="47.8080293" lon="-2.3576056">
        <ele>12.431</ele>
        <time>2018-08-24T09:16:22.154Z</time>
      </trkpt>
      <trkpt lat="47.8080500" lon="-2.3574482">
        <ele>12.349</ele>
        <time>2018-08-24T09:16:25.341Z</time>
      </trkpt>
      <trkpt lat="47.8080635" lon="-2.3572801">
        <ele>12.313</ele>
        <time>2018-08-24T09:16:28.578Z</time>
      </trkpt>
      <trkpt lat="47.8080777" lon="-2.3571263">
        <ele>12.305</ele>
        <time>2018-08-24T09:16:31.481Z</time>
      </trkpt>
      <trkpt lat="47.8080944" lon="-2.3569725">
        <ele>12.333</ele>
        <time>2018-08-24T09:16:34.417Z</time>
      </trkpt>
      <trkpt lat="47.8081101" lon="-2.3568315">
        <ele>12.453</ele>
        <time>2018-08-24T09:16:37.162Z</time>
      </trkpt>
      <trkpt lat="47.8081259" lon="-2.3566626">
        <ele>12.706</ele>
        <time>2018-08-24T09:16:40.460Z</time>
      </trkpt>
      <trkpt lat="47.8081261" lon="-2.3564806">
        <ele>13.012</ele>
        <time>2018-08-24T09:16:43.871Z</time>
      </trkpt>
      <trkpt lat="47.8081390" lon="-2.3563324">
        <ele>13.255</ele>
        <time>2018-08-24T09:16:46.609Z</time>
      </trkpt>
      <trkpt lat="47.8081542" lon="-2.3561822">
        <ele>13.406</ele>
        <time>2018-08-24T09:16:49.444Z</time>
      </trkpt>
      <trkpt lat="47.8081734" lon="-2.3560248">
        <ele>13.473</ele>
        <time>2018-08-24T09:16:52.499Z</time>
      </trkpt>
      <trkpt lat="47.8081914" lon="-2.3558518">
        <ele>13.480</ele>
        <time>2018-08-24T09:16:55.831Z</time>
      </trkpt>
      <trkpt lat="47.8082129" lon="-2.3556809">
        <ele>13.501</ele>
        <time>2018-08-24T09:16:59.044Z</time>
      </trkpt>
      <trkpt lat="47.8082286" lon="-2.3555207">
        <ele>13.623</ele>
        <time>2018-08-24T09:17:01.981Z</time>
      </trkpt>
      <trkpt lat="47.8082393" lon="-2.3553655">
        <ele>13.825</ele>
        <time>2018-08-24T09:17:04.833Z</time>
      </trkpt>
      <trkpt lat="47.8082355" lon="-2.3552069">
        <ele>13.971</ele>
        <time>2018-08-24T09:17:07.775Z</time>
      </trkpt>
      <trkpt lat="47.8082210" lon="-2.3550384">
        <ele>13.966</ele>
        <time>2018-08-24T09:17:10.932Z</time>
      </trkpt>
      <trkpt lat="47.8082007" lon="-2.3548884">
        <ele>13.832</ele>
        <time>2018-08-24T09:17:13.774Z</time>
      </trkpt>
      <trkpt lat="47.8081761" lon="-2.3547374">
        <ele>13.637</ele>
        <time>2018-08-24T09:17:16.685Z</time>
      </trkpt>
      <trkpt lat="47.8081477" lon="-2.3546007">
        <ele>13.435</ele>
        <time>2018-08-24T09:17:19.407Z</time>
      </trkpt>
      <trkpt lat="47.8081233" lon="-2.3544282">
        <ele>13.213</ele>
        <time>2018-08-24T09:17:22.900Z</time>
      </trkpt>
      <trkpt lat="47.8080964" lon="-2.3542540">
        <ele>12.916</ele>
        <time>2018-08-24T09:17:26.611Z</time>
      </trkpt>
      <trkpt lat="47.8080602" lon="-2.3540810">
        <ele>12.587</ele>
        <time>2018-08-24T09:17:30.508Z</time>
      </trkpt>
      <trkpt lat="47.8080160" lon="-2.3539354">
        <ele>12.271</ele>
        <time>2018-08-24T09:17:33.949Z</time>
      </trkpt>
      <trkpt lat="47.8079895" lon="-2.3537776">
        <ele>11.963</ele>
        <time>2018-08-24T09:17:37.314Z</time>
      </trkpt>
      <trkpt lat="47.8079690" lon="-2.3536299">
        <ele>11.735</ele>
        <time>2018-08-24T09:17:40.303Z</time>
      </trkpt>
      <trkpt lat="47.8079473" lon="-2.3534812">
        <ele>11.599</ele>
        <time>2018-08-24T09:17:43.264Z</time>
      </trkpt>
      <trkpt lat="47.8079189" lon="-2.3533137">
        <ele>11.425</ele>
        <time>2018-08-24T09:17:46.563Z</time>
      </trkpt>
      <trkpt lat="47.8078791" lon="-2.3531424">
        <ele>11.202</ele>
        <time>2018-08-24T09:17:49.882Z</time>
      </trkpt>
      <trkpt lat="47.8078253" lon="-2.3529803">
        <ele>11.054</ele>
        <time>2018-08-24T09:17:53.037Z</time>
      </trkpt>
      <trkpt lat="47.8077787" lon="-2.3528249">
        <ele>11.027</ele>
        <time>2018-08-24T09:17:55.943Z</time>
      </trkpt>
      <trkpt lat="47.8077431" lon="-2.3526620">
        <ele>11.009</ele>
        <time>2018-08-24T09:17:58.865Z</time>
      </trkpt>
      <trkpt lat="47.8077141" lon="-2.3525038">
        <ele>10.871</ele>
        <time>2018-08-24T09:18:01.698Z</time>
      </trkpt>
      <trkpt lat="47.8076856" lon="-2.3523582">
        <ele>10.644</ele>
        <time>2018-08-24T09:18:04.380Z</time>
      </trkpt>
      <trkpt lat="47.8076617" lon="-2.3522097">
        <ele>10.432</ele>
        <time>2018-08-24T09:18:07.166Z</time>
      </trkpt>
      <trkpt lat="47.8076151" lon="-2.3520500">
        <ele>10.280</ele>
        <time>2018-08-24T09:18:10.384Z</time>
      </trkpt>
      <trkpt lat="47.8075651" lon="-2.3518832">
        <ele>10.275</ele>
        <time>2018-08-24T09:18:13.652Z</time>
      </trkpt>
      <trkpt lat="47.8075328" lon="-2.3517184">
        <ele>10.459</ele>
        <time>2018-08-24T09:18:16.622Z</time>
      </trkpt>
      <trkpt lat="47.8075131" lon="-2.3515494">
        <ele>10.679</ele>
        <time>2018-08-24T09:18:19.586Z</time>
      </trkpt>
      <trkpt lat="47.8074796" lon="-2.3513712">
        <ele>10.769</ele>
        <time>2018-08-24T09:18:22.764Z</time>
      </trkpt>
      <trkpt lat="47.8074527" lon="-2.3512024">
        <ele>10.715</ele>
        <time>2018-08-24T09:18:25.714Z</time>
      </trkpt>
      <trkpt lat="47.8074090" lon="-2.3510275">
        <ele>10.579</ele>
        <time>2018-08-24T09:18:28.848Z</time>
      </trkpt>
      <trkpt lat="47.8073563" lon="-2.3508428">
        <ele>10.346</ele>
        <time>2018-08-24T09:18:32.123Z</time>
      </trkpt>
      <trkpt lat="47.8073068" lon="-2.3506648">
        <ele>10.327</ele>
        <time>2018-08-24T09:18:35.185Z</time>
      </trkpt>
      <trkpt lat="47.8072657" lon="-2.3505026">
        <ele>10.442</ele>
        <time>2018-08-24T09:18:37.937Z</time>
      </trkpt>
      <trkpt lat="47.8072361" lon="-2.3503473">
        <ele>10.646</ele>
        <time>2018-08-24T09:18:40.574Z</time>
      </trkpt>
      <trkpt lat="47.8071986" lon="-2.3501871">
        <ele>10.827</ele>
        <time>2018-08-24T09:18:43.445Z</time>
      </trkpt>
      <trkpt lat="47.8071597" lon="-2.3500235">
        <ele>10.755</ele>
        <time>2018-08-24T09:18:46.453Z</time>
      </trkpt>
      <trkpt lat="47.8071183" lon="-2.3498542">
        <ele>10.639</ele>
        <time>2018-08-24T09:18:49.587Z</time>
      </trkpt>
      <trkpt lat="47.8070805" lon="-2.3496884">
        <ele>10.509</ele>
        <time>2018-08-24T09:18:52.602Z</time>
      </trkpt>
      <trkpt lat="47.8070464" lon="-2.3495330">
        <ele>10.362</ele>
        <time>2018-08-24T09:18:55.422Z</time>
      </trkpt>
      <trkpt lat="47.8070101" lon="-2.3493833">
        <ele>10.233</ele>
        <time>2018-08-24T09:18:58.213Z</time>
      </trkpt>
      <trkpt lat="47.8069741" lon="-2.3492376">
        <ele>10.159</ele>
        <time>2018-08-24T09:19:01.003Z</time>
      </trkpt>
      <trkpt lat="47.8069406" lon="-2.3490932">
        <ele>10.083</ele>
        <time>2018-08-24T09:19:03.819Z</time>
      </trkpt>
      <trkpt lat="47.8069108" lon="-2.3489553">
        <ele>9.938</ele>
        <time>2018-08-24T09:19:06.558Z</time>
      </trkpt>
      <trkpt lat="47.8068786" lon="-2.3488146">
        <ele>9.777</ele>
        <time>2018-08-24T09:19:09.414Z</time>
      </trkpt>
      <trkpt lat="47.8068380" lon="-2.3486652">
        <ele>9.675</ele>
        <time>2018-08-24T09:19:12.523Z</time>
      </trkpt>
      <trkpt lat="47.8067989" lon="-2.3485077">
        <ele>9.695</ele>
        <time>2018-08-24T09:19:15.723Z</time>
      </trkpt>
      <trkpt lat="47.8067691" lon="-2.3483434">
        <ele>9.874</ele>
        <time>2018-08-24T09:19:18.909Z</time>
      </trkpt>
      <trkpt lat="47.8067420" lon="-2.3481823">
        <ele>10.144</ele>
        <time>2018-08-24T09:19:21.959Z</time>
      </trkpt>
      <trkpt lat="47.8067125" lon="-2.3480200">
        <ele>10.413</ele>
        <time>2018-08-24T09:19:25.000Z</time>
      </trkpt>
      <trkpt lat="47.8066896" lon="-2.3478531">
        <ele>10.666</ele>
        <time>2018-08-24T09:19:28.044Z</time>
      </trkpt>
      <trkpt lat="47.8066725" lon="-2.3476870">
        <ele>10.875</ele>
        <time>2018-08-24T09:19:31.014Z</time>
      </trkpt>
      <trkpt lat="47.8066457" lon="-2.3475211">
        <ele>10.967</ele>
        <time>2018-08-24T09:19:34.016Z</time>
      </trkpt>
      <trkpt lat="47.8066132" lon="-2.3473678">
        <ele>10.929</ele>
        <time>2018-08-24T09:19:36.870Z</time>
      </trkpt>
      <trkpt lat="47.8065835" lon="-2.3472068">
        <ele>10.836</ele>
        <time>2018-08-24T09:19:39.868Z</time>
      </trkpt>
      <trkpt lat="47.8065576" lon="-2.3470439">
        <ele>10.765</ele>
        <time>2018-08-24T09:19:42.868Z</time>
      </trkpt>
      <trkpt lat="47.8065335" lon="-2.3468798">
        <ele>10.731</ele>
        <time>2018-08-24T09:19:45.859Z</time>
      </trkpt>
      <trkpt lat="47.8065017" lon="-2.3467129">
        <ele>10.693</ele>
        <time>2018-08-24T09:19:48.939Z</time>
      </trkpt>
      <trkpt lat="47.8064727" lon="-2.3465608">
        <ele>10.625</ele>
        <time>2018-08-24T09:19:51.765Z</time>
      </trkpt>
      <trkpt lat="47.8064501" lon="-2.3463861">
        <ele>10.559</ele>
        <time>2018-08-24T09:19:54.965Z</time>
      </trkpt>
      <trkpt lat="47.8064232" lon="-2.3462162">
        <ele>10.528</ele>
        <time>2018-08-24T09:19:58.064Z</time>
      </trkpt>
      <trkpt lat="47.8063904" lon="-2.3460527">
        <ele>10.510</ele>
        <time>2018-08-24T09:20:01.041Z</time>
      </trkpt>
      <trkpt lat="47.8063533" lon="-2.3459121">
        <ele>10.422</ele>
        <time>2018-08-24T09:20:03.690Z</time>
      </trkpt>
      <trkpt lat="47.8063181" lon="-2.3457385">
        <ele>10.240</ele>
        <time>2018-08-24T09:20:06.904Z</time>
      </trkpt>
      <trkpt lat="47.8062804" lon="-2.3455646">
        <ele>10.064</ele>
        <time>2018-08-24T09:20:10.105Z</time>
      </trkpt>
      <trkpt lat="47.8062521" lon="-2.3453930">
        <ele>9.958</ele>
        <time>2018-08-24T09:20:13.164Z</time>
      </trkpt>
      <trkpt lat="47.8062188" lon="-2.3452137">
        <ele>9.859</ele>
        <time>2018-08-24T09:20:16.356Z</time>
      </trkpt>
      <trkpt lat="47.8061808" lon="-2.3450429">
        <ele>9.892</ele>
        <time>2018-08-24T09:20:19.405Z</time>
      </trkpt>
      <trkpt lat="47.8061468" lon="-2.3448671">
        <ele>9.986</ele>
        <time>2018-08-24T09:20:22.497Z</time>
      </trkpt>
      <trkpt lat="47.8061187" lon="-2.3447357">
        <ele>10.116</ele>
        <time>2018-08-24T09:20:24.789Z</time>
      </trkpt>
      <trkpt lat="47.8060908" lon="-2.3446016">
        <ele>10.171</ele>
        <time>2018-08-24T09:20:27.029Z</time>
      </trkpt>
      <trkpt lat="47.8060653" lon="-2.3444722">
        <ele>10.085</ele>
        <time>2018-08-24T09:20:29.118Z</time>
      </trkpt>
      <trkpt lat="47.8060229" lon="-2.3442879">
        <ele>9.974</ele>
        <time>2018-08-24T09:20:32.100Z</time>
      </trkpt>
      <trkpt lat="47.8059790" lon="-2.3440995">
        <ele>9.946</ele>
        <time>2018-08-24T09:20:35.150Z</time>
      </trkpt>
      <trkpt lat="47.8059338" lon="-2.3439210">
        <ele>9.933</ele>
        <time>2018-08-24T09:20:38.095Z</time>
      </trkpt>
      <trkpt lat="47.8058870" lon="-2.3437583">
        <ele>9.854</ele>
        <time>2018-08-24T09:20:40.917Z</time>
      </trkpt>
      <trkpt lat="47.8058207" lon="-2.3435908">
        <ele>9.767</ele>
        <time>2018-08-24T09:20:44.117Z</time>
      </trkpt>
      <trkpt lat="47.8057554" lon="-2.3434428">
        <ele>9.773</ele>
        <time>2018-08-24T09:20:47.073Z</time>
      </trkpt>
      <trkpt lat="47.8057038" lon="-2.3433064">
        <ele>9.837</ele>
        <time>2018-08-24T09:20:49.760Z</time>
      </trkpt>
      <trkpt lat="47.8056518" lon="-2.3431571">
        <ele>9.801</ele>
        <time>2018-08-24T09:20:52.743Z</time>
      </trkpt>
      <trkpt lat="47.8055889" lon="-2.3430113">
        <ele>9.615</ele>
        <time>2018-08-24T09:20:55.889Z</time>
      </trkpt>
      <trkpt lat="47.8055450" lon="-2.3428896">
        <ele>9.353</ele>
        <time>2018-08-24T09:20:58.500Z</time>
      </trkpt>
      <trkpt lat="47.8055173" lon="-2.3427407">
        <ele>9.178</ele>
        <time>2018-08-24T09:21:01.533Z</time>
      </trkpt>
      <trkpt lat="47.8054784" lon="-2.3425758">
        <ele>9.158</ele>
        <time>2018-08-24T09:21:04.931Z</time>
      </trkpt>
      <trkpt lat="47.8054224" lon="-2.3424076">
        <ele>9.174</ele>
        <time>2018-08-24T09:21:08.363Z</time>
      </trkpt>
      <trkpt lat="47.8053817" lon="-2.3422877">
        <ele>9.107</ele>
        <time>2018-08-24T09:21:10.659Z</time>
      </trkpt>
      <trkpt lat="47.8053015" lon="-2.3421156">
        <ele>8.977</ele>
        <time>2018-08-24T09:21:14.068Z</time>
      </trkpt>
      <trkpt lat="47.8052440" lon="-2.3419515">
        <ele>8.858</ele>
        <time>2018-08-24T09:21:17.026Z</time>
      </trkpt>
      <trkpt lat="47.8051922" lon="-2.3417845">
        <ele>8.792</ele>
        <time>2018-08-24T09:21:19.982Z</time>
      </trkpt>
      <trkpt lat="47.8051383" lon="-2.3416126">
        <ele>8.786</ele>
        <time>2018-08-24T09:21:23.094Z</time>
      </trkpt>
      <trkpt lat="47.8051148" lon="-2.3414749">
        <ele>8.812</ele>
        <time>2018-08-24T09:21:25.542Z</time>
      </trkpt>
      <trkpt lat="47.8050918" lon="-2.3413381">
        <ele>8.838</ele>
        <time>2018-08-24T09:21:28.150Z</time>
      </trkpt>
      <trkpt lat="47.8050368" lon="-2.3411808">
        <ele>8.893</ele>
        <time>2018-08-24T09:21:31.505Z</time>
      </trkpt>
      <trkpt lat="47.8049770" lon="-2.3410252">
        <ele>9.040</ele>
        <time>2018-08-24T09:21:34.774Z</time>
      </trkpt>
      <trkpt lat="47.8049041" lon="-2.3408480">
        <ele>9.264</ele>
        <time>2018-08-24T09:21:38.329Z</time>
      </trkpt>
      <trkpt lat="47.8048423" lon="-2.3407387">
        <ele>9.476</ele>
        <time>2018-08-24T09:21:40.614Z</time>
      </trkpt>
      <trkpt lat="47.8047519" lon="-2.3405802">
        <ele>9.621</ele>
        <time>2018-08-24T09:21:43.868Z</time>
      </trkpt>
      <trkpt lat="47.8046685" lon="-2.3404321">
        <ele>9.689</ele>
        <time>2018-08-24T09:21:46.864Z</time>
      </trkpt>
      <trkpt lat="47.8045944" lon="-2.3403409">
        <ele>9.702</ele>
        <time>2018-08-24T09:21:49.056Z</time>
      </trkpt>
      <trkpt lat="47.8045066" lon="-2.3402022">
        <ele>9.721</ele>
        <time>2018-08-24T09:21:51.996Z</time>
      </trkpt>
      <trkpt lat="47.8044425" lon="-2.3400477">
        <ele>9.776</ele>
        <time>2018-08-24T09:21:54.831Z</time>
      </trkpt>
      <trkpt lat="47.8043686" lon="-2.3398859">
        <ele>9.835</ele>
        <time>2018-08-24T09:21:57.942Z</time>
      </trkpt>
      <trkpt lat="47.8043175" lon="-2.3397433">
        <ele>9.857</ele>
        <time>2018-08-24T09:22:00.612Z</time>
      </trkpt>
      <trkpt lat="47.8042662" lon="-2.3395948">
        <ele>9.823</ele>
        <time>2018-08-24T09:22:03.458Z</time>
      </trkpt>
      <trkpt lat="47.8041816" lon="-2.3394549">
        <ele>9.725</ele>
        <time>2018-08-24T09:22:06.708Z</time>
      </trkpt>
      <trkpt lat="47.8040721" lon="-2.3393520">
        <ele>9.611</ele>
        <time>2018-08-24T09:22:10.055Z</time>
      </trkpt>
      <trkpt lat="47.8039925" lon="-2.3392377">
        <ele>9.574</ele>
        <time>2018-08-24T09:22:12.955Z</time>
      </trkpt>
      <trkpt lat="47.8039302" lon="-2.3391044">
        <ele>9.650</ele>
        <time>2018-08-24T09:22:15.876Z</time>
      </trkpt>
      <trkpt lat="47.8038803" lon="-2.3389531">
        <ele>9.821</ele>
        <time>2018-08-24T09:22:18.952Z</time>
      </trkpt>
      <trkpt lat="47.8038221" lon="-2.3387949">
        <ele>10.065</ele>
        <time>2018-08-24T09:22:22.182Z</time>
      </trkpt>
      <trkpt lat="47.8037554" lon="-2.3386280">
        <ele>10.337</ele>
        <time>2018-08-24T09:22:25.536Z</time>
      </trkpt>
      <trkpt lat="47.8037014" lon="-2.3384782">
        <ele>10.589</ele>
        <time>2018-08-24T09:22:28.454Z</time>
      </trkpt>
      <trkpt lat="47.8036553" lon="-2.3383329">
        <ele>10.801</ele>
        <time>2018-08-24T09:22:31.252Z</time>
      </trkpt>
      <trkpt lat="47.8036114" lon="-2.3381906">
        <ele>10.951</ele>
        <time>2018-08-24T09:22:34.023Z</time>
      </trkpt>
      <trkpt lat="47.8035568" lon="-2.3380465">
        <ele>11.068</ele>
        <time>2018-08-24T09:22:36.961Z</time>
      </trkpt>
      <trkpt lat="47.8034936" lon="-2.3378940">
        <ele>11.204</ele>
        <time>2018-08-24T09:22:40.092Z</time>
      </trkpt>
      <trkpt lat="47.8034356" lon="-2.3377362">
        <ele>11.352</ele>
        <time>2018-08-24T09:22:43.178Z</time>
      </trkpt>
      <trkpt lat="47.8033823" lon="-2.3375795">
        <ele>11.466</ele>
        <time>2018-08-24T09:22:46.181Z</time>
      </trkpt>
      <trkpt lat="47.8033361" lon="-2.3374266">
        <ele>11.541</ele>
        <time>2018-08-24T09:22:49.050Z</time>
      </trkpt>
      <trkpt lat="47.8032833" lon="-2.3372701">
        <ele>11.595</ele>
        <time>2018-08-24T09:22:52.051Z</time>
      </trkpt>
      <trkpt lat="47.8032362" lon="-2.3371149">
        <ele>11.631</ele>
        <time>2018-08-24T09:22:55.021Z</time>
      </trkpt>
      <trkpt lat="47.8031962" lon="-2.3369674">
        <ele>11.656</ele>
        <time>2018-08-24T09:22:57.866Z</time>
      </trkpt>
      <trkpt lat="47.8031543" lon="-2.3368127">
        <ele>11.722</ele>
        <time>2018-08-24T09:23:00.888Z</time>
      </trkpt>
      <trkpt lat="47.8031191" lon="-2.3366541">
        <ele>11.862</ele>
        <time>2018-08-24T09:23:03.864Z</time>
      </trkpt>
      <trkpt lat="47.8030848" lon="-2.3364759">
        <ele>12.027</ele>
        <time>2018-08-24T09:23:07.044Z</time>
      </trkpt>
      <trkpt lat="47.8030545" lon="-2.3362979">
        <ele>12.155</ele>
        <time>2018-08-24T09:23:10.088Z</time>
      </trkpt>
      <trkpt lat="47.8030190" lon="-2.3361234">
        <ele>12.101</ele>
        <time>2018-08-24T09:23:13.096Z</time>
      </trkpt>
      <trkpt lat="47.8029862" lon="-2.3359671">
        <ele>12.002</ele>
        <time>2018-08-24T09:23:15.846Z</time>
      </trkpt>
      <trkpt lat="47.8029519" lon="-2.3358032">
        <ele>11.853</ele>
        <time>2018-08-24T09:23:18.784Z</time>
      </trkpt>
      <trkpt lat="47.8029239" lon="-2.3356383">
        <ele>11.662</ele>
        <time>2018-08-24T09:23:21.722Z</time>
      </trkpt>
      <trkpt lat="47.8028937" lon="-2.3354649">
        <ele>11.500</ele>
        <time>2018-08-24T09:23:24.817Z</time>
      </trkpt>
      <trkpt lat="47.8028715" lon="-2.3353017">
        <ele>11.416</ele>
        <time>2018-08-24T09:23:27.700Z</time>
      </trkpt>
      <trkpt lat="47.8028534" lon="-2.3351307">
        <ele>11.384</ele>
        <time>2018-08-24T09:23:30.709Z</time>
      </trkpt>
      <trkpt lat="47.8028487" lon="-2.3349617">
        <ele>11.355</ele>
        <time>2018-08-24T09:23:33.675Z</time>
      </trkpt>
      <trkpt lat="47.8028489" lon="-2.3348015">
        <ele>11.334</ele>
        <time>2018-08-24T09:23:36.524Z</time>
      </trkpt>
      <trkpt lat="47.8028567" lon="-2.3346419">
        <ele>11.374</ele>
        <time>2018-08-24T09:23:39.411Z</time>
      </trkpt>
      <trkpt lat="47.8028781" lon="-2.3344899">
        <ele>11.465</ele>
        <time>2018-08-24T09:23:42.250Z</time>
      </trkpt>
      <trkpt lat="47.8029133" lon="-2.3343392">
        <ele>11.631</ele>
        <time>2018-08-24T09:23:45.200Z</time>
      </trkpt>
      <trkpt lat="47.8029596" lon="-2.3341980">
        <ele>11.883</ele>
        <time>2018-08-24T09:23:48.107Z</time>
      </trkpt>
      <trkpt lat="47.8030022" lon="-2.3340361">
        <ele>12.178</ele>
        <time>2018-08-24T09:23:51.270Z</time>
      </trkpt>
      <trkpt lat="47.8030363" lon="-2.3338804">
        <ele>12.397</ele>
        <time>2018-08-24T09:23:54.176Z</time>
      </trkpt>
      <trkpt lat="47.8030804" lon="-2.3336958">
        <ele>12.501</ele>
        <time>2018-08-24T09:23:57.521Z</time>
      </trkpt>
      <trkpt lat="47.8031199" lon="-2.3335040">
        <ele>12.567</ele>
        <time>2018-08-24T09:24:00.748Z</time>
      </trkpt>
      <trkpt lat="47.8031659" lon="-2.3332928">
        <ele>12.652</ele>
        <time>2018-08-24T09:24:04.164Z</time>
      </trkpt>
      <trkpt lat="47.8031861" lon="-2.3331006">
        <ele>12.749</ele>
        <time>2018-08-24T09:24:07.133Z</time>
      </trkpt>
      <trkpt lat="47.8031949" lon="-2.3329101">
        <ele>12.763</ele>
        <time>2018-08-24T09:24:10.072Z</time>
      </trkpt>
      <trkpt lat="47.8031958" lon="-2.3327291">
        <ele>12.615</ele>
        <time>2018-08-24T09:24:12.916Z</time>
      </trkpt>
      <trkpt lat="47.8031861" lon="-2.3325521">
        <ele>12.389</ele>
        <time>2018-08-24T09:24:15.795Z</time>
      </trkpt>
      <trkpt lat="47.8031765" lon="-2.3323879">
        <ele>12.200</ele>
        <time>2018-08-24T09:24:18.561Z</time>
      </trkpt>
      <trkpt lat="47.8031719" lon="-2.3322264">
        <ele>12.062</ele>
        <time>2018-08-24T09:24:21.353Z</time>
      </trkpt>
      <trkpt lat="47.8031570" lon="-2.3320644">
        <ele>11.933</ele>
        <time>2018-08-24T09:24:24.256Z</time>
      </trkpt>
      <trkpt lat="47.8031419" lon="-2.3319160">
        <ele>11.791</ele>
        <time>2018-08-24T09:24:27.022Z</time>
      </trkpt>
      <trkpt lat="47.8031232" lon="-2.3317748">
        <ele>11.679</ele>
        <time>2018-08-24T09:24:29.795Z</time>
      </trkpt>
      <trkpt lat="47.8030528" lon="-2.3316349">
        <ele>11.632</ele>
        <time>2018-08-24T09:24:33.232Z</time>
      </trkpt>
      <trkpt lat="47.8029754" lon="-2.3315026">
        <ele>11.580</ele>
        <time>2018-08-24T09:24:36.607Z</time>
      </trkpt>
      <trkpt lat="47.8029029" lon="-2.3313769">
        <ele>11.421</ele>
        <time>2018-08-24T09:24:39.736Z</time>
      </trkpt>
      <trkpt lat="47.8028267" lon="-2.3312613">
        <ele>11.184</ele>
        <time>2018-08-24T09:24:42.800Z</time>
      </trkpt>
      <trkpt lat="47.8027500" lon="-2.3311565">
        <ele>11.000</ele>
        <time>2018-08-24T09:24:45.739Z</time>
      </trkpt>
      <trkpt lat="47.8026426" lon="-2.3310815">
        <ele>10.891</ele>
        <time>2018-08-24T09:24:48.999Z</time>
      </trkpt>
      <trkpt lat="47.8025276" lon="-2.3309973">
        <ele>10.790</ele>
        <time>2018-08-24T09:24:52.226Z</time>
      </trkpt>
      <trkpt lat="47.8023609" lon="-2.3309268">
        <ele>10.687</ele>
        <time>2018-08-24T09:24:56.090Z</time>
      </trkpt>
      <trkpt lat="47.8022760" lon="-2.3308742">
        <ele>10.609</ele>
        <time>2018-08-24T09:24:58.058Z</time>
      </trkpt>
      <trkpt lat="47.8021644" lon="-2.3308175">
        <ele>10.532</ele>
        <time>2018-08-24T09:25:00.793Z</time>
      </trkpt>
      <trkpt lat="47.8020750" lon="-2.3306954">
        <ele>10.431</ele>
        <time>2018-08-24T09:25:03.880Z</time>
      </trkpt>
      <trkpt lat="47.8020235" lon="-2.3305720">
        <ele>10.366</ele>
        <time>2018-08-24T09:25:06.722Z</time>
      </trkpt>
      <trkpt lat="47.8019564" lon="-2.3304343">
        <ele>10.392</ele>
        <time>2018-08-24T09:25:10.320Z</time>
      </trkpt>
      <trkpt lat="47.8019024" lon="-2.3303270">
        <ele>10.450</ele>
        <time>2018-08-24T09:25:13.301Z</time>
      </trkpt>
      <trkpt lat="47.8018403" lon="-2.3302248">
        <ele>10.477</ele>
        <time>2018-08-24T09:25:16.344Z</time>
      </trkpt>
      <trkpt lat="47.8017654" lon="-2.3301034">
        <ele>10.484</ele>
        <time>2018-08-24T09:25:19.779Z</time>
      </trkpt>
      <trkpt lat="47.8016710" lon="-2.3299793">
        <ele>10.495</ele>
        <time>2018-08-24T09:25:23.366Z</time>
      </trkpt>
      <trkpt lat="47.8015866" lon="-2.3298580">
        <ele>10.412</ele>
        <time>2018-08-24T09:25:26.565Z</time>
      </trkpt>
      <trkpt lat="47.8015336" lon="-2.3297124">
        <ele>10.166</ele>
        <time>2018-08-24T09:25:29.566Z</time>
      </trkpt>
      <trkpt lat="47.8014846" lon="-2.3295528">
        <ele>9.913</ele>
        <time>2018-08-24T09:25:32.629Z</time>
      </trkpt>
      <trkpt lat="47.8014252" lon="-2.3294507">
        <ele>9.804</ele>
        <time>2018-08-24T09:25:34.898Z</time>
      </trkpt>
      <trkpt lat="47.8013189" lon="-2.3293304">
        <ele>9.811</ele>
        <time>2018-08-24T09:25:38.147Z</time>
      </trkpt>
      <trkpt lat="47.8012052" lon="-2.3292294">
        <ele>9.876</ele>
        <time>2018-08-24T09:25:41.329Z</time>
      </trkpt>
      <trkpt lat="47.8010891" lon="-2.3291376">
        <ele>9.966</ele>
        <time>2018-08-24T09:25:44.477Z</time>
      </trkpt>
      <trkpt lat="47.8009774" lon="-2.3290644">
        <ele>10.035</ele>
        <time>2018-08-24T09:25:47.414Z</time>
      </trkpt>
      <trkpt lat="47.8008658" lon="-2.3289959">
        <ele>10.049</ele>
        <time>2018-08-24T09:25:50.317Z</time>
      </trkpt>
      <trkpt lat="47.8007529" lon="-2.3289257">
        <ele>10.011</ele>
        <time>2018-08-24T09:25:53.261Z</time>
      </trkpt>
      <trkpt lat="47.8006403" lon="-2.3288639">
        <ele>9.952</ele>
        <time>2018-08-24T09:25:56.186Z</time>
      </trkpt>
      <trkpt lat="47.8005337" lon="-2.3288072">
        <ele>9.919</ele>
        <time>2018-08-24T09:25:59.000Z</time>
      </trkpt>
      <trkpt lat="47.8004244" lon="-2.3287509">
        <ele>9.952</ele>
        <time>2018-08-24T09:26:01.935Z</time>
      </trkpt>
      <trkpt lat="47.8003260" lon="-2.3286797">
        <ele>10.054</ele>
        <time>2018-08-24T09:26:04.781Z</time>
      </trkpt>
      <trkpt lat="47.8002295" lon="-2.3286057">
        <ele>10.221</ele>
        <time>2018-08-24T09:26:07.642Z</time>
      </trkpt>
      <trkpt lat="47.8001340" lon="-2.3285240">
        <ele>10.454</ele>
        <time>2018-08-24T09:26:10.562Z</time>
      </trkpt>
      <trkpt lat="47.8000399" lon="-2.3284451">
        <ele>10.764</ele>
        <time>2018-08-24T09:26:13.436Z</time>
      </trkpt>
      <trkpt lat="47.7999487" lon="-2.3283540">
        <ele>11.103</ele>
        <time>2018-08-24T09:26:16.344Z</time>
      </trkpt>
      <trkpt lat="47.7998505" lon="-2.3282699">
        <ele>11.347</ele>
        <time>2018-08-24T09:26:19.268Z</time>
      </trkpt>
      <trkpt lat="47.7997288" lon="-2.3281821">
        <ele>11.397</ele>
        <time>2018-08-24T09:26:22.553Z</time>
      </trkpt>
      <trkpt lat="47.7996478" lon="-2.3281045">
        <ele>11.263</ele>
        <time>2018-08-24T09:26:24.805Z</time>
      </trkpt>
      <trkpt lat="47.7995662" lon="-2.3279962">
        <ele>11.037</ele>
        <time>2018-08-24T09:26:27.449Z</time>
      </trkpt>
      <trkpt lat="47.7994761" lon="-2.3279111">
        <ele>10.852</ele>
        <time>2018-08-24T09:26:30.101Z</time>
      </trkpt>
      <trkpt lat="47.7993738" lon="-2.3278403">
        <ele>10.772</ele>
        <time>2018-08-24T09:26:32.944Z</time>
      </trkpt>
      <trkpt lat="47.7992584" lon="-2.3277895">
        <ele>10.768</ele>
        <time>2018-08-24T09:26:35.990Z</time>
      </trkpt>
      <trkpt lat="47.7991390" lon="-2.3277422">
        <ele>10.804</ele>
        <time>2018-08-24T09:26:39.103Z</time>
      </trkpt>
      <trkpt lat="47.7990224" lon="-2.3277155">
        <ele>10.904</ele>
        <time>2018-08-24T09:26:42.081Z</time>
      </trkpt>
      <trkpt lat="47.7989188" lon="-2.3276849">
        <ele>11.103</ele>
        <time>2018-08-24T09:26:44.800Z</time>
      </trkpt>
      <trkpt lat="47.7988131" lon="-2.3276639">
        <ele>11.327</ele>
        <time>2018-08-24T09:26:47.622Z</time>
      </trkpt>
      <trkpt lat="47.7987068" lon="-2.3276558">
        <ele>11.426</ele>
        <time>2018-08-24T09:26:50.499Z</time>
      </trkpt>
      <trkpt lat="47.7985946" lon="-2.3276599">
        <ele>11.348</ele>
        <time>2018-08-24T09:26:53.565Z</time>
      </trkpt>
      <trkpt lat="47.7984930" lon="-2.3276624">
        <ele>11.181</ele>
        <time>2018-08-24T09:26:56.368Z</time>
      </trkpt>
      <trkpt lat="47.7983923" lon="-2.3276574">
        <ele>11.039</ele>
        <time>2018-08-24T09:26:59.170Z</time>
      </trkpt>
      <trkpt lat="47.7982880" lon="-2.3276572">
        <ele>10.953</ele>
        <time>2018-08-24T09:27:02.073Z</time>
      </trkpt>
      <trkpt lat="47.7981819" lon="-2.3276497">
        <ele>10.852</ele>
        <time>2018-08-24T09:27:05.012Z</time>
      </trkpt>
      <trkpt lat="47.7980711" lon="-2.3276194">
        <ele>10.654</ele>
        <time>2018-08-24T09:27:08.080Z</time>
      </trkpt>
      <trkpt lat="47.7979615" lon="-2.3275756">
        <ele>10.361</ele>
        <time>2018-08-24T09:27:11.119Z</time>
      </trkpt>
      <trkpt lat="47.7978550" lon="-2.3275180">
        <ele>9.969</ele>
        <time>2018-08-24T09:27:14.142Z</time>
      </trkpt>
      <trkpt lat="47.7977650" lon="-2.3274309">
        <ele>9.505</ele>
        <time>2018-08-24T09:27:17.005Z</time>
      </trkpt>
      <trkpt lat="47.7976605" lon="-2.3273459">
        <ele>9.151</ele>
        <time>2018-08-24T09:27:20.142Z</time>
      </trkpt>
      <trkpt lat="47.7975569" lon="-2.3272438">
        <ele>9.139</ele>
        <time>2018-08-24T09:27:23.314Z</time>
      </trkpt>
      <trkpt lat="47.7974668" lon="-2.3271234">
        <ele>9.521</ele>
        <time>2018-08-24T09:27:26.308Z</time>
      </trkpt>
      <trkpt lat="47.7973793" lon="-2.3269918">
        <ele>10.160</ele>
        <time>2018-08-24T09:27:29.328Z</time>
      </trkpt>
      <trkpt lat="47.7973013" lon="-2.3268598">
        <ele>10.850</ele>
        <time>2018-08-24T09:27:32.191Z</time>
      </trkpt>
      <trkpt lat="47.7972286" lon="-2.3267321">
        <ele>11.587</ele>
        <time>2018-08-24T09:27:34.973Z</time>
      </trkpt>
      <trkpt lat="47.7971656" lon="-2.3266144">
        <ele>12.398</ele>
        <time>2018-08-24T09:27:37.554Z</time>
      </trkpt>
      <trkpt lat="47.7970940" lon="-2.3264943">
        <ele>13.148</ele>
        <time>2018-08-24T09:27:40.391Z</time>
      </trkpt>
      <trkpt lat="47.7970155" lon="-2.3263831">
        <ele>13.743</ele>
        <time>2018-08-24T09:27:43.271Z</time>
      </trkpt>
      <trkpt lat="47.7969184" lon="-2.3262878">
        <ele>14.186</ele>
        <time>2018-08-24T09:27:46.379Z</time>
      </trkpt>
      <trkpt lat="47.7968045" lon="-2.3262145">
        <ele>14.429</ele>
        <time>2018-08-24T09:27:49.660Z</time>
      </trkpt>
      <trkpt lat="47.7966927" lon="-2.3261527">
        <ele>14.370</ele>
        <time>2018-08-24T09:27:52.756Z</time>
      </trkpt>
      <trkpt lat="47.7965882" lon="-2.3260997">
        <ele>13.804</ele>
        <time>2018-08-24T09:27:55.604Z</time>
      </trkpt>
      <trkpt lat="47.7964741" lon="-2.3260585">
        <ele>12.879</ele>
        <time>2018-08-24T09:27:58.641Z</time>
      </trkpt>
      <trkpt lat="47.7963623" lon="-2.3260233">
        <ele>12.188</ele>
        <time>2018-08-24T09:28:01.598Z</time>
      </trkpt>
      <trkpt lat="47.7962445" lon="-2.3259889">
        <ele>12.083</ele>
        <time>2018-08-24T09:28:04.675Z</time>
      </trkpt>
      <trkpt lat="47.7961174" lon="-2.3259687">
        <ele>12.444</ele>
        <time>2018-08-24T09:28:07.888Z</time>
      </trkpt>
      <trkpt lat="47.7960073" lon="-2.3259535">
        <ele>12.970</ele>
        <time>2018-08-24T09:28:10.660Z</time>
      </trkpt>
      <trkpt lat="47.7958971" lon="-2.3259426">
        <ele>13.320</ele>
        <time>2018-08-24T09:28:13.468Z</time>
      </trkpt>
      <trkpt lat="47.7957864" lon="-2.3259495">
        <ele>13.337</ele>
        <time>2018-08-24T09:28:16.318Z</time>
      </trkpt>
      <trkpt lat="47.7956807" lon="-2.3259633">
        <ele>13.047</ele>
        <time>2018-08-24T09:28:19.095Z</time>
      </trkpt>
      <trkpt lat="47.7955627" lon="-2.3260062">
        <ele>12.522</ele>
        <time>2018-08-24T09:28:22.293Z</time>
      </trkpt>
      <trkpt lat="47.7954498" lon="-2.3260530">
        <ele>11.982</ele>
        <time>2018-08-24T09:28:25.356Z</time>
      </trkpt>
      <trkpt lat="47.7953487" lon="-2.3260927">
        <ele>11.660</ele>
        <time>2018-08-24T09:28:28.118Z</time>
      </trkpt>
      <trkpt lat="47.7952376" lon="-2.3261520">
        <ele>11.595</ele>
        <time>2018-08-24T09:28:31.253Z</time>
      </trkpt>
      <trkpt lat="47.7951375" lon="-2.3262260">
        <ele>11.717</ele>
        <time>2018-08-24T09:28:34.187Z</time>
      </trkpt>
      <trkpt lat="47.7950394" lon="-2.3262966">
        <ele>11.909</ele>
        <time>2018-08-24T09:28:37.212Z</time>
      </trkpt>
      <trkpt lat="47.7949475" lon="-2.3264033">
        <ele>12.064</ele>
        <time>2018-08-24T09:28:40.550Z</time>
      </trkpt>
      <trkpt lat="47.7948493" lon="-2.3264945">
        <ele>12.170</ele>
        <time>2018-08-24T09:28:43.872Z</time>
      </trkpt>
      <trkpt lat="47.7947680" lon="-2.3265757">
        <ele>12.263</ele>
        <time>2018-08-24T09:28:46.754Z</time>
      </trkpt>
      <trkpt lat="47.7946654" lon="-2.3266843">
        <ele>12.345</ele>
        <time>2018-08-24T09:28:50.493Z</time>
      </trkpt>
      <trkpt lat="47.7945579" lon="-2.3267929">
        <ele>12.420</ele>
        <time>2018-08-24T09:28:54.111Z</time>
      </trkpt>
      <trkpt lat="47.7944636" lon="-2.3268826">
        <ele>12.497</ele>
        <time>2018-08-24T09:28:57.092Z</time>
      </trkpt>
      <trkpt lat="47.7943665" lon="-2.3269638">
        <ele>12.509</ele>
        <time>2018-08-24T09:29:00.060Z</time>
      </trkpt>
      <trkpt lat="47.7942780" lon="-2.3270259">
        <ele>12.371</ele>
        <time>2018-08-24T09:29:02.718Z</time>
      </trkpt>
      <trkpt lat="47.7941811" lon="-2.3270950">
        <ele>12.066</ele>
        <time>2018-08-24T09:29:05.775Z</time>
      </trkpt>
      <trkpt lat="47.7940805" lon="-2.3271724">
        <ele>11.697</ele>
        <time>2018-08-24T09:29:09.094Z</time>
      </trkpt>
      <trkpt lat="47.7939673" lon="-2.3272524">
        <ele>11.417</ele>
        <time>2018-08-24T09:29:12.755Z</time>
      </trkpt>
      <trkpt lat="47.7938482" lon="-2.3273168">
        <ele>11.284</ele>
        <time>2018-08-24T09:29:16.185Z</time>
      </trkpt>
      <trkpt lat="47.7937310" lon="-2.3273725">
        <ele>11.143</ele>
        <time>2018-08-24T09:29:19.329Z</time>
      </trkpt>
      <trkpt lat="47.7936234" lon="-2.3274194">
        <ele>10.876</ele>
        <time>2018-08-24T09:29:22.177Z</time>
      </trkpt>
      <trkpt lat="47.7935135" lon="-2.3274675">
        <ele>10.624</ele>
        <time>2018-08-24T09:29:25.109Z</time>
      </trkpt>
      <trkpt lat="47.7934015" lon="-2.3275172">
        <ele>10.610</ele>
        <time>2018-08-24T09:29:28.117Z</time>
      </trkpt>
      <trkpt lat="47.7933079" lon="-2.3275411">
        <ele>10.818</ele>
        <time>2018-08-24T09:29:30.622Z</time>
      </trkpt>
      <trkpt lat="47.7931954" lon="-2.3275687">
        <ele>10.964</ele>
        <time>2018-08-24T09:29:33.683Z</time>
      </trkpt>
      <trkpt lat="47.7930758" lon="-2.3275886">
        <ele>10.759</ele>
        <time>2018-08-24T09:29:36.878Z</time>
      </trkpt>
      <trkpt lat="47.7929803" lon="-2.3275876">
        <ele>10.196</ele>
        <time>2018-08-24T09:29:39.417Z</time>
      </trkpt>
      <trkpt lat="47.7928854" lon="-2.3275623">
        <ele>9.438</ele>
        <time>2018-08-24T09:29:42.056Z</time>
      </trkpt>
      <trkpt lat="47.7927962" lon="-2.3275180">
        <ele>8.676</ele>
        <time>2018-08-24T09:29:44.744Z</time>
      </trkpt>
      <trkpt lat="47.7926893" lon="-2.3274697">
        <ele>8.092</ele>
        <time>2018-08-24T09:29:48.037Z</time>
      </trkpt>
      <trkpt lat="47.7925812" lon="-2.3274340">
        <ele>7.748</ele>
        <time>2018-08-24T09:29:51.253Z</time>
      </trkpt>
      <trkpt lat="47.7925023" lon="-2.3273072">
        <ele>7.582</ele>
        <time>2018-08-24T09:29:54.642Z</time>
      </trkpt>
      <trkpt lat="47.7924090" lon="-2.3272124">
        <ele>7.520</ele>
        <time>2018-08-24T09:29:58.128Z</time>
      </trkpt>
      <trkpt lat="47.7923095" lon="-2.3271498">
        <ele>7.427</ele>
        <time>2018-08-24T09:30:01.674Z</time>
      </trkpt>
      <trkpt lat="47.7922083" lon="-2.3271245">
        <ele>7.220</ele>
        <time>2018-08-24T09:30:05.156Z</time>
      </trkpt>
      <trkpt lat="47.7921158" lon="-2.3270481">
        <ele>6.925</ele>
        <time>2018-08-24T09:30:08.808Z</time>
      </trkpt>
      <trkpt lat="47.7920237" lon="-2.3269943">
        <ele>6.564</ele>
        <time>2018-08-24T09:30:12.311Z</time>
      </trkpt>
      <trkpt lat="47.7919539" lon="-2.3268882">
        <ele>6.172</ele>
        <time>2018-08-24T09:30:16.146Z</time>
      </trkpt>
      <trkpt lat="47.7918842" lon="-2.3268015">
        <ele>5.738</ele>
        <time>2018-08-24T09:30:19.828Z</time>
      </trkpt>
      <trkpt lat="47.7918034" lon="-2.3267177">
        <ele>5.259</ele>
        <time>2018-08-24T09:30:23.675Z</time>
      </trkpt>
      <trkpt lat="47.7917307" lon="-2.3266363">
        <ele>4.925</ele>
        <time>2018-08-24T09:30:26.889Z</time>
      </trkpt>
      <trkpt lat="47.7916771" lon="-2.3265163">
        <ele>4.921</ele>
        <time>2018-08-24T09:30:30.091Z</time>
      </trkpt>
      <trkpt lat="47.7916071" lon="-2.3263955">
        <ele>5.190</ele>
        <time>2018-08-24T09:30:33.528Z</time>
      </trkpt>
      <trkpt lat="47.7915177" lon="-2.3262809">
        <ele>5.566</ele>
        <time>2018-08-24T09:30:37.109Z</time>
      </trkpt>
      <trkpt lat="47.7914594" lon="-2.3261636">
        <ele>5.916</ele>
        <time>2018-08-24T09:30:39.925Z</time>
      </trkpt>
      <trkpt lat="47.7913968" lon="-2.3260563">
        <ele>6.327</ele>
        <time>2018-08-24T09:30:42.646Z</time>
      </trkpt>
      <trkpt lat="47.7913272" lon="-2.3259530">
        <ele>6.870</ele>
        <time>2018-08-24T09:30:45.495Z</time>
      </trkpt>
      <trkpt lat="47.7912678" lon="-2.3258361">
        <ele>7.333</ele>
        <time>2018-08-24T09:30:48.414Z</time>
      </trkpt>
      <trkpt lat="47.7912103" lon="-2.3257114">
        <ele>7.529</ele>
        <time>2018-08-24T09:30:51.470Z</time>
      </trkpt>
      <trkpt lat="47.7911617" lon="-2.3255514">
        <ele>7.600</ele>
        <time>2018-08-24T09:30:55.087Z</time>
      </trkpt>
      <trkpt lat="47.7911067" lon="-2.3254189">
        <ele>7.765</ele>
        <time>2018-08-24T09:30:58.365Z</time>
      </trkpt>
      <trkpt lat="47.7910392" lon="-2.3252815">
        <ele>8.052</ele>
        <time>2018-08-24T09:31:01.924Z</time>
      </trkpt>
      <trkpt lat="47.7909739" lon="-2.3251837">
        <ele>8.293</ele>
        <time>2018-08-24T09:31:04.703Z</time>
      </trkpt>
      <trkpt lat="47.7909248" lon="-2.3250535">
        <ele>8.471</ele>
        <time>2018-08-24T09:31:07.812Z</time>
      </trkpt>
      <trkpt lat="47.7908845" lon="-2.3249236">
        <ele>8.680</ele>
        <time>2018-08-24T09:31:10.892Z</time>
      </trkpt>
      <trkpt lat="47.7908436" lon="-2.3247732">
        <ele>8.723</ele>
        <time>2018-08-24T09:31:14.791Z</time>
      </trkpt>
      <trkpt lat="47.7908047" lon="-2.3246189">
        <ele>8.395</ele>
        <time>2018-08-24T09:31:18.618Z</time>
      </trkpt>
      <trkpt lat="47.7907861" lon="-2.3244822">
        <ele>7.925</ele>
        <time>2018-08-24T09:31:21.642Z</time>
      </trkpt>
      <trkpt lat="47.7907410" lon="-2.3243329">
        <ele>7.627</ele>
        <time>2018-08-24T09:31:25.093Z</time>
      </trkpt>
      <trkpt lat="47.7907046" lon="-2.3242016">
        <ele>7.492</ele>
        <time>2018-08-24T09:31:28.046Z</time>
      </trkpt>
      <trkpt lat="47.7906836" lon="-2.3240467">
        <ele>7.395</ele>
        <time>2018-08-24T09:31:31.324Z</time>
      </trkpt>
      <trkpt lat="47.7906615" lon="-2.3238799">
        <ele>7.414</ele>
        <time>2018-08-24T09:31:34.751Z</time>
      </trkpt>
      <trkpt lat="47.7906203" lon="-2.3237011">
        <ele>7.765</ele>
        <time>2018-08-24T09:31:38.284Z</time>
      </trkpt>
      <trkpt lat="47.7905852" lon="-2.3235596">
        <ele>8.357</ele>
        <time>2018-08-24T09:31:41.000Z</time>
      </trkpt>
      <trkpt lat="47.7905852" lon="-2.3235596">
        <ele>8.749</ele>
        <time>2018-08-24T09:31:43.000Z</time>
      </trkpt>
      <trkpt lat="47.7905852" lon="-2.3235596">
        <ele>8.727</ele>
        <time>2018-08-24T09:31:43.100Z</time>
      </trkpt>
      <trkpt lat="47.7905267" lon="-2.3232454">
        <ele>8.572</ele>
        <time>2018-08-24T09:31:51.226Z</time>
      </trkpt>
      <trkpt lat="47.7904728" lon="-2.3231142">
        <ele>8.700</ele>
        <time>2018-08-24T09:31:54.621Z</time>
      </trkpt>
      <trkpt lat="47.7904472" lon="-2.3229485">
        <ele>9.149</ele>
        <time>2018-08-24T09:31:59.183Z</time>
      </trkpt>
      <trkpt lat="47.7904166" lon="-2.3227928">
        <ele>9.609</ele>
        <time>2018-08-24T09:32:04.024Z</time>
      </trkpt>
      <trkpt lat="47.7903626" lon="-2.3226692">
        <ele>9.868</ele>
        <time>2018-08-24T09:32:09.553Z</time>
      </trkpt>
      <trkpt lat="47.7903063" lon="-2.3225606">
        <ele>9.711</ele>
        <time>2018-08-24T09:32:15.000Z</time>
      </trkpt>
      <trkpt lat="47.7903063" lon="-2.3225606">
        <ele>9.067</ele>
        <time>2018-08-24T09:32:26.000Z</time>
      </trkpt>
      <trkpt lat="47.7903063" lon="-2.3225606">
        <ele>8.513</ele>
        <time>2018-08-24T09:48:52.931Z</time>
      </trkpt>
      <trkpt lat="47.7902052" lon="-2.3223157">
        <ele>8.517</ele>
        <time>2018-08-24T09:49:14.600Z</time>
      </trkpt>
      <trkpt lat="47.7901625" lon="-2.3221566">
        <ele>8.806</ele>
        <time>2018-08-24T09:49:19.921Z</time>
      </trkpt>
      <trkpt lat="47.7901211" lon="-2.3220097">
        <ele>9.019</ele>
        <time>2018-08-24T09:49:24.316Z</time>
      </trkpt>
      <trkpt lat="47.7900827" lon="-2.3218765">
        <ele>8.970</ele>
        <time>2018-08-24T09:49:27.986Z</time>
      </trkpt>
      <trkpt lat="47.7900428" lon="-2.3217338">
        <ele>8.583</ele>
        <time>2018-08-24T09:49:31.593Z</time>
      </trkpt>
      <trkpt lat="47.7900141" lon="-2.3216068">
        <ele>8.058</ele>
        <time>2018-08-24T09:49:34.477Z</time>
      </trkpt>
      <trkpt lat="47.7899608" lon="-2.3214687">
        <ele>7.628</ele>
        <time>2018-08-24T09:49:37.722Z</time>
      </trkpt>
      <trkpt lat="47.7898909" lon="-2.3213279">
        <ele>7.068</ele>
        <time>2018-08-24T09:49:41.232Z</time>
      </trkpt>
      <trkpt lat="47.7898365" lon="-2.3212144">
        <ele>6.225</ele>
        <time>2018-08-24T09:49:44.053Z</time>
      </trkpt>
      <trkpt lat="47.7897677" lon="-2.3210842">
        <ele>5.487</ele>
        <time>2018-08-24T09:49:47.412Z</time>
      </trkpt>
      <trkpt lat="47.7896963" lon="-2.3209931">
        <ele>5.243</ele>
        <time>2018-08-24T09:49:50.130Z</time>
      </trkpt>
      <trkpt lat="47.7896122" lon="-2.3208893">
        <ele>5.408</ele>
        <time>2018-08-24T09:49:53.143Z</time>
      </trkpt>
      <trkpt lat="47.7895172" lon="-2.3207755">
        <ele>5.709</ele>
        <time>2018-08-24T09:49:56.433Z</time>
      </trkpt>
      <trkpt lat="47.7894174" lon="-2.3206841">
        <ele>6.034</ele>
        <time>2018-08-24T09:49:59.618Z</time>
      </trkpt>
      <trkpt lat="47.7893152" lon="-2.3206188">
        <ele>6.614</ele>
        <time>2018-08-24T09:50:02.753Z</time>
      </trkpt>
      <trkpt lat="47.7892162" lon="-2.3205584">
        <ele>7.541</ele>
        <time>2018-08-24T09:50:05.850Z</time>
      </trkpt>
      <trkpt lat="47.7891280" lon="-2.3204932">
        <ele>8.434</ele>
        <time>2018-08-24T09:50:08.680Z</time>
      </trkpt>
      <trkpt lat="47.7890392" lon="-2.3204327">
        <ele>8.872</ele>
        <time>2018-08-24T09:50:11.413Z</time>
      </trkpt>
      <trkpt lat="47.7889429" lon="-2.3203763">
        <ele>8.860</ele>
        <time>2018-08-24T09:50:14.206Z</time>
      </trkpt>
      <trkpt lat="47.7888359" lon="-2.3203156">
        <ele>8.563</ele>
        <time>2018-08-24T09:50:17.200Z</time>
      </trkpt>
      <trkpt lat="47.7887228" lon="-2.3202592">
        <ele>7.984</ele>
        <time>2018-08-24T09:50:20.282Z</time>
      </trkpt>
      <trkpt lat="47.7885994" lon="-2.3202142">
        <ele>7.191</ele>
        <time>2018-08-24T09:50:23.595Z</time>
      </trkpt>
      <trkpt lat="47.7885016" lon="-2.3201519">
        <ele>6.506</ele>
        <time>2018-08-24T09:50:26.409Z</time>
      </trkpt>
      <trkpt lat="47.7884040" lon="-2.3200718">
        <ele>6.117</ele>
        <time>2018-08-24T09:50:29.390Z</time>
      </trkpt>
      <trkpt lat="47.7883015" lon="-2.3200082">
        <ele>5.944</ele>
        <time>2018-08-24T09:50:32.337Z</time>
      </trkpt>
      <trkpt lat="47.7882043" lon="-2.3199408">
        <ele>5.889</ele>
        <time>2018-08-24T09:50:35.154Z</time>
      </trkpt>
      <trkpt lat="47.7880963" lon="-2.3198830">
        <ele>5.723</ele>
        <time>2018-08-24T09:50:38.170Z</time>
      </trkpt>
      <trkpt lat="47.7879880" lon="-2.3198209">
        <ele>5.219</ele>
        <time>2018-08-24T09:50:41.230Z</time>
      </trkpt>
      <trkpt lat="47.7878805" lon="-2.3197780">
        <ele>4.576</ele>
        <time>2018-08-24T09:50:44.189Z</time>
      </trkpt>
      <trkpt lat="47.7877681" lon="-2.3197330">
        <ele>4.269</ele>
        <time>2018-08-24T09:50:47.309Z</time>
      </trkpt>
      <trkpt lat="47.7876658" lon="-2.3196878">
        <ele>4.470</ele>
        <time>2018-08-24T09:50:50.183Z</time>
      </trkpt>
      <trkpt lat="47.7875633" lon="-2.3196149">
        <ele>4.909</ele>
        <time>2018-08-24T09:50:53.249Z</time>
      </trkpt>
      <trkpt lat="47.7874651" lon="-2.3195516">
        <ele>5.207</ele>
        <time>2018-08-24T09:50:56.121Z</time>
      </trkpt>
      <trkpt lat="47.7873726" lon="-2.3194675">
        <ele>5.260</ele>
        <time>2018-08-24T09:50:58.999Z</time>
      </trkpt>
      <trkpt lat="47.7872714" lon="-2.3193962">
        <ele>5.190</ele>
        <time>2018-08-24T09:51:01.940Z</time>
      </trkpt>
      <trkpt lat="47.7871656" lon="-2.3193266">
        <ele>5.141</ele>
        <time>2018-08-24T09:51:04.943Z</time>
      </trkpt>
      <trkpt lat="47.7870602" lon="-2.3192637">
        <ele>5.157</ele>
        <time>2018-08-24T09:51:07.857Z</time>
      </trkpt>
      <trkpt lat="47.7869502" lon="-2.3192062">
        <ele>5.311</ele>
        <time>2018-08-24T09:51:10.827Z</time>
      </trkpt>
      <trkpt lat="47.7868403" lon="-2.3191414">
        <ele>5.634</ele>
        <time>2018-08-24T09:51:13.837Z</time>
      </trkpt>
      <trkpt lat="47.7867300" lon="-2.3190778">
        <ele>6.024</ele>
        <time>2018-08-24T09:51:16.847Z</time>
      </trkpt>
      <trkpt lat="47.7866210" lon="-2.3190142">
        <ele>6.454</ele>
        <time>2018-08-24T09:51:19.812Z</time>
      </trkpt>
      <trkpt lat="47.7865140" lon="-2.3189553">
        <ele>6.925</ele>
        <time>2018-08-24T09:51:22.680Z</time>
      </trkpt>
      <trkpt lat="47.7864002" lon="-2.3189032">
        <ele>7.180</ele>
        <time>2018-08-24T09:51:25.675Z</time>
      </trkpt>
      <trkpt lat="47.7862937" lon="-2.3188312">
        <ele>7.069</ele>
        <time>2018-08-24T09:51:28.622Z</time>
      </trkpt>
      <trkpt lat="47.7861904" lon="-2.3187553">
        <ele>6.729</ele>
        <time>2018-08-24T09:51:31.541Z</time>
      </trkpt>
      <trkpt lat="47.7860810" lon="-2.3186928">
        <ele>6.236</ele>
        <time>2018-08-24T09:51:34.620Z</time>
      </trkpt>
      <trkpt lat="47.7859797" lon="-2.3186222">
        <ele>5.655</ele>
        <time>2018-08-24T09:51:37.666Z</time>
      </trkpt>
      <trkpt lat="47.7858901" lon="-2.3185606">
        <ele>5.223</ele>
        <time>2018-08-24T09:51:40.347Z</time>
      </trkpt>
      <trkpt lat="47.7857874" lon="-2.3184943">
        <ele>5.015</ele>
        <time>2018-08-24T09:51:43.296Z</time>
      </trkpt>
      <trkpt lat="47.7856844" lon="-2.3184177">
        <ele>4.897</ele>
        <time>2018-08-24T09:51:46.223Z</time>
      </trkpt>
      <trkpt lat="47.7855749" lon="-2.3183442">
        <ele>4.812</ele>
        <time>2018-08-24T09:51:49.211Z</time>
      </trkpt>
      <trkpt lat="47.7854622" lon="-2.3182731">
        <ele>4.660</ele>
        <time>2018-08-24T09:51:52.218Z</time>
      </trkpt>
      <trkpt lat="47.7853534" lon="-2.3181970">
        <ele>4.259</ele>
        <time>2018-08-24T09:51:55.139Z</time>
      </trkpt>
      <trkpt lat="47.7852440" lon="-2.3181151">
        <ele>3.618</ele>
        <time>2018-08-24T09:51:58.100Z</time>
      </trkpt>
      <trkpt lat="47.7851312" lon="-2.3180337">
        <ele>3.009</ele>
        <time>2018-08-24T09:52:01.107Z</time>
      </trkpt>
      <trkpt lat="47.7850209" lon="-2.3179624">
        <ele>2.712</ele>
        <time>2018-08-24T09:52:03.985Z</time>
      </trkpt>
      <trkpt lat="47.7849031" lon="-2.3178911">
        <ele>2.793</ele>
        <time>2018-08-24T09:52:07.075Z</time>
      </trkpt>
      <trkpt lat="47.7847915" lon="-2.3178304">
        <ele>3.085</ele>
        <time>2018-08-24T09:52:10.009Z</time>
      </trkpt>
      <trkpt lat="47.7846826" lon="-2.3177753">
        <ele>3.357</ele>
        <time>2018-08-24T09:52:12.885Z</time>
      </trkpt>
      <trkpt lat="47.7845717" lon="-2.3177158">
        <ele>3.522</ele>
        <time>2018-08-24T09:52:15.853Z</time>
      </trkpt>
      <trkpt lat="47.7844651" lon="-2.3176474">
        <ele>3.620</ele>
        <time>2018-08-24T09:52:18.743Z</time>
      </trkpt>
      <trkpt lat="47.7843518" lon="-2.3175849">
        <ele>3.737</ele>
        <time>2018-08-24T09:52:21.685Z</time>
      </trkpt>
      <trkpt lat="47.7842291" lon="-2.3175318">
        <ele>3.950</ele>
        <time>2018-08-24T09:52:24.778Z</time>
      </trkpt>
      <trkpt lat="47.7841051" lon="-2.3174766">
        <ele>4.237</ele>
        <time>2018-08-24T09:52:27.941Z</time>
      </trkpt>
      <trkpt lat="47.7839989" lon="-2.3174145">
        <ele>4.454</ele>
        <time>2018-08-24T09:52:30.741Z</time>
      </trkpt>
      <trkpt lat="47.7838874" lon="-2.3173534">
        <ele>4.475</ele>
        <time>2018-08-24T09:52:33.658Z</time>
      </trkpt>
      <trkpt lat="47.7837747" lon="-2.3172895">
        <ele>4.294</ele>
        <time>2018-08-24T09:52:36.617Z</time>
      </trkpt>
      <trkpt lat="47.7836650" lon="-2.3172263">
        <ele>4.045</ele>
        <time>2018-08-24T09:52:39.473Z</time>
      </trkpt>
      <trkpt lat="47.7835450" lon="-2.3171646">
        <ele>3.905</ele>
        <time>2018-08-24T09:52:42.558Z</time>
      </trkpt>
      <trkpt lat="47.7834183" lon="-2.3171203">
        <ele>3.993</ele>
        <time>2018-08-24T09:52:45.774Z</time>
      </trkpt>
      <trkpt lat="47.7833089" lon="-2.3170663">
        <ele>4.267</ele>
        <time>2018-08-24T09:52:48.668Z</time>
      </trkpt>
      <trkpt lat="47.7831993" lon="-2.3170169">
        <ele>4.595</ele>
        <time>2018-08-24T09:52:51.554Z</time>
      </trkpt>
      <trkpt lat="47.7830870" lon="-2.3169624">
        <ele>4.976</ele>
        <time>2018-08-24T09:52:54.515Z</time>
      </trkpt>
      <trkpt lat="47.7829767" lon="-2.3168994">
        <ele>5.433</ele>
        <time>2018-08-24T09:52:57.452Z</time>
      </trkpt>
      <trkpt lat="47.7828635" lon="-2.3168344">
        <ele>5.818</ele>
        <time>2018-08-24T09:53:00.453Z</time>
      </trkpt>
      <trkpt lat="47.7827517" lon="-2.3167701">
        <ele>6.106</ele>
        <time>2018-08-24T09:53:03.401Z</time>
      </trkpt>
      <trkpt lat="47.7826426" lon="-2.3167020">
        <ele>6.401</ele>
        <time>2018-08-24T09:53:06.286Z</time>
      </trkpt>
      <trkpt lat="47.7825260" lon="-2.3166420">
        <ele>6.616</ele>
        <time>2018-08-24T09:53:09.273Z</time>
      </trkpt>
      <trkpt lat="47.7824109" lon="-2.3165870">
        <ele>6.576</ele>
        <time>2018-08-24T09:53:12.219Z</time>
      </trkpt>
      <trkpt lat="47.7822952" lon="-2.3165400">
        <ele>6.461</ele>
        <time>2018-08-24T09:53:15.150Z</time>
      </trkpt>
      <trkpt lat="47.7821806" lon="-2.3165042">
        <ele>6.157</ele>
        <time>2018-08-24T09:53:18.030Z</time>
      </trkpt>
      <trkpt lat="47.7820610" lon="-2.3164741">
        <ele>5.578</ele>
        <time>2018-08-24T09:53:21.040Z</time>
      </trkpt>
      <trkpt lat="47.7819506" lon="-2.3164422">
        <ele>4.944</ele>
        <time>2018-08-24T09:53:23.839Z</time>
      </trkpt>
      <trkpt lat="47.7818323" lon="-2.3164129">
        <ele>4.586</ele>
        <time>2018-08-24T09:53:26.818Z</time>
      </trkpt>
      <trkpt lat="47.7817131" lon="-2.3163712">
        <ele>4.588</ele>
        <time>2018-08-24T09:53:29.856Z</time>
      </trkpt>
      <trkpt lat="47.7815932" lon="-2.3163266">
        <ele>4.747</ele>
        <time>2018-08-24T09:53:32.932Z</time>
      </trkpt>
      <trkpt lat="47.7814788" lon="-2.3162699">
        <ele>4.810</ele>
        <time>2018-08-24T09:53:35.965Z</time>
      </trkpt>
      <trkpt lat="47.7813702" lon="-2.3162109">
        <ele>4.722</ele>
        <time>2018-08-24T09:53:38.909Z</time>
      </trkpt>
      <trkpt lat="47.7812600" lon="-2.3161541">
        <ele>4.623</ele>
        <time>2018-08-24T09:53:41.893Z</time>
      </trkpt>
      <trkpt lat="47.7811520" lon="-2.3161002">
        <ele>4.615</ele>
        <time>2018-08-24T09:53:44.799Z</time>
      </trkpt>
      <trkpt lat="47.7810443" lon="-2.3160331">
        <ele>4.657</ele>
        <time>2018-08-24T09:53:47.768Z</time>
      </trkpt>
      <trkpt lat="47.7809351" lon="-2.3159620">
        <ele>4.678</ele>
        <time>2018-08-24T09:53:50.800Z</time>
      </trkpt>
      <trkpt lat="47.7808261" lon="-2.3158970">
        <ele>4.663</ele>
        <time>2018-08-24T09:53:53.814Z</time>
      </trkpt>
      <trkpt lat="47.7807225" lon="-2.3158330">
        <ele>4.689</ele>
        <time>2018-08-24T09:53:56.738Z</time>
      </trkpt>
      <trkpt lat="47.7806232" lon="-2.3157659">
        <ele>4.890</ele>
        <time>2018-08-24T09:53:59.603Z</time>
      </trkpt>
      <trkpt lat="47.7805253" lon="-2.3156895">
        <ele>4.846</ele>
        <time>2018-08-24T09:54:02.477Z</time>
      </trkpt>
      <trkpt lat="47.7804236" lon="-2.3156112">
        <ele>4.786</ele>
        <time>2018-08-24T09:54:05.394Z</time>
      </trkpt>
      <trkpt lat="47.7803206" lon="-2.3155194">
        <ele>4.889</ele>
        <time>2018-08-24T09:54:08.372Z</time>
      </trkpt>
      <trkpt lat="47.7802163" lon="-2.3154240">
        <ele>5.141</ele>
        <time>2018-08-24T09:54:11.357Z</time>
      </trkpt>
      <trkpt lat="47.7801117" lon="-2.3153238">
        <ele>5.277</ele>
        <time>2018-08-24T09:54:14.378Z</time>
      </trkpt>
      <trkpt lat="47.7800104" lon="-2.3152253">
        <ele>5.038</ele>
        <time>2018-08-24T09:54:17.333Z</time>
      </trkpt>
      <trkpt lat="47.7799087" lon="-2.3151306">
        <ele>4.524</ele>
        <time>2018-08-24T09:54:20.268Z</time>
      </trkpt>
      <trkpt lat="47.7798034" lon="-2.3150387">
        <ele>4.029</ele>
        <time>2018-08-24T09:54:23.235Z</time>
      </trkpt>
      <trkpt lat="47.7796970" lon="-2.3149408">
        <ele>3.691</ele>
        <time>2018-08-24T09:54:26.256Z</time>
      </trkpt>
      <trkpt lat="47.7795957" lon="-2.3148404">
        <ele>3.569</ele>
        <time>2018-08-24T09:54:29.199Z</time>
      </trkpt>
      <trkpt lat="47.7794942" lon="-2.3147413">
        <ele>3.662</ele>
        <time>2018-08-24T09:54:32.140Z</time>
      </trkpt>
      <trkpt lat="47.7793888" lon="-2.3146440">
        <ele>3.804</ele>
        <time>2018-08-24T09:54:35.144Z</time>
      </trkpt>
      <trkpt lat="47.7792826" lon="-2.3145490">
        <ele>3.854</ele>
        <time>2018-08-24T09:54:38.169Z</time>
      </trkpt>
      <trkpt lat="47.7791761" lon="-2.3144690">
        <ele>3.793</ele>
        <time>2018-08-24T09:54:41.105Z</time>
      </trkpt>
      <trkpt lat="47.7790714" lon="-2.3143961">
        <ele>3.657</ele>
        <time>2018-08-24T09:54:43.960Z</time>
      </trkpt>
      <trkpt lat="47.7789686" lon="-2.3142943">
        <ele>3.439</ele>
        <time>2018-08-24T09:54:47.054Z</time>
      </trkpt>
      <trkpt lat="47.7788822" lon="-2.3142132">
        <ele>3.055</ele>
        <time>2018-08-24T09:54:49.663Z</time>
      </trkpt>
      <trkpt lat="47.7787800" lon="-2.3141333">
        <ele>2.523</ele>
        <time>2018-08-24T09:54:52.627Z</time>
      </trkpt>
      <trkpt lat="47.7786716" lon="-2.3140660">
        <ele>1.991</ele>
        <time>2018-08-24T09:54:55.643Z</time>
      </trkpt>
      <trkpt lat="47.7785604" lon="-2.3140216">
        <ele>1.379</ele>
        <time>2018-08-24T09:54:58.645Z</time>
      </trkpt>
      <trkpt lat="47.7784569" lon="-2.3140041">
        <ele>0.448</ele>
        <time>2018-08-24T09:55:01.438Z</time>
      </trkpt>
      <trkpt lat="47.7783527" lon="-2.3140122">
        <ele>0.000</ele>
        <time>2018-08-24T09:55:04.273Z</time>
      </trkpt>
      <trkpt lat="47.7782347" lon="-2.3140296">
        <ele>0.000</ele>
        <time>2018-08-24T09:55:07.447Z</time>
      </trkpt>
      <trkpt lat="47.7781162" lon="-2.3140638">
        <ele>0.000</ele>
        <time>2018-08-24T09:55:10.626Z</time>
      </trkpt>
      <trkpt lat="47.7780018" lon="-2.3141006">
        <ele>0.000</ele>
        <time>2018-08-24T09:55:13.648Z</time>
      </trkpt>
      <trkpt lat="47.7778808" lon="-2.3141451">
        <ele>0.000</ele>
        <time>2018-08-24T09:55:16.758Z</time>
      </trkpt>
      <trkpt lat="47.7777609" lon="-2.3141929">
        <ele>0.318</ele>
        <time>2018-08-24T09:55:19.763Z</time>
      </trkpt>
      <trkpt lat="47.7776323" lon="-2.3142439">
        <ele>1.392</ele>
        <time>2018-08-24T09:55:22.942Z</time>
      </trkpt>
      <trkpt lat="47.7775128" lon="-2.3142907">
        <ele>2.224</ele>
        <time>2018-08-24T09:55:25.930Z</time>
      </trkpt>
      <trkpt lat="47.7773970" lon="-2.3143312">
        <ele>2.830</ele>
        <time>2018-08-24T09:55:28.879Z</time>
      </trkpt>
      <trkpt lat="47.7772849" lon="-2.3143678">
        <ele>3.318</ele>
        <time>2018-08-24T09:55:31.801Z</time>
      </trkpt>
      <trkpt lat="47.7771773" lon="-2.3144058">
        <ele>3.884</ele>
        <time>2018-08-24T09:55:34.682Z</time>
      </trkpt>
      <trkpt lat="47.7770684" lon="-2.3144466">
        <ele>4.669</ele>
        <time>2018-08-24T09:55:37.665Z</time>
      </trkpt>
      <trkpt lat="47.7769612" lon="-2.3144686">
        <ele>5.398</ele>
        <time>2018-08-24T09:55:40.573Z</time>
      </trkpt>
      <trkpt lat="47.7768522" lon="-2.3144870">
        <ele>5.787</ele>
        <time>2018-08-24T09:55:43.543Z</time>
      </trkpt>
      <trkpt lat="47.7767432" lon="-2.3145045">
        <ele>5.742</ele>
        <time>2018-08-24T09:55:46.488Z</time>
      </trkpt>
      <trkpt lat="47.7766280" lon="-2.3145351">
        <ele>5.327</ele>
        <time>2018-08-24T09:55:49.530Z</time>
      </trkpt>
      <trkpt lat="47.7765072" lon="-2.3145902">
        <ele>4.856</ele>
        <time>2018-08-24T09:55:52.719Z</time>
      </trkpt>
      <trkpt lat="47.7763957" lon="-2.3146278">
        <ele>4.606</ele>
        <time>2018-08-24T09:55:55.562Z</time>
      </trkpt>
      <trkpt lat="47.7762779" lon="-2.3146601">
        <ele>4.592</ele>
        <time>2018-08-24T09:55:58.499Z</time>
      </trkpt>
      <trkpt lat="47.7761574" lon="-2.3146827">
        <ele>4.864</ele>
        <time>2018-08-24T09:56:01.433Z</time>
      </trkpt>
      <trkpt lat="47.7760357" lon="-2.3147118">
        <ele>5.260</ele>
        <time>2018-08-24T09:56:04.409Z</time>
      </trkpt>
      <trkpt lat="47.7759199" lon="-2.3147368">
        <ele>5.902</ele>
        <time>2018-08-24T09:56:07.261Z</time>
      </trkpt>
      <trkpt lat="47.7758009" lon="-2.3147556">
        <ele>6.586</ele>
        <time>2018-08-24T09:56:10.189Z</time>
      </trkpt>
      <trkpt lat="47.7756835" lon="-2.3147822">
        <ele>7.039</ele>
        <time>2018-08-24T09:56:13.110Z</time>
      </trkpt>
      <trkpt lat="47.7755648" lon="-2.3148138">
        <ele>7.086</ele>
        <time>2018-08-24T09:56:16.141Z</time>
      </trkpt>
      <trkpt lat="47.7754562" lon="-2.3148377">
        <ele>6.817</ele>
        <time>2018-08-24T09:56:18.925Z</time>
      </trkpt>
      <trkpt lat="47.7753390" lon="-2.3148783">
        <ele>6.469</ele>
        <time>2018-08-24T09:56:21.977Z</time>
      </trkpt>
      <trkpt lat="47.7752287" lon="-2.3149115">
        <ele>6.237</ele>
        <time>2018-08-24T09:56:24.877Z</time>
      </trkpt>
      <trkpt lat="47.7751184" lon="-2.3149387">
        <ele>6.216</ele>
        <time>2018-08-24T09:56:27.821Z</time>
      </trkpt>
      <trkpt lat="47.7750173" lon="-2.3149680">
        <ele>6.468</ele>
        <time>2018-08-24T09:56:30.602Z</time>
      </trkpt>
      <trkpt lat="47.7749157" lon="-2.3149955">
        <ele>6.483</ele>
        <time>2018-08-24T09:56:33.442Z</time>
      </trkpt>
      <trkpt lat="47.7748099" lon="-2.3150100">
        <ele>6.353</ele>
        <time>2018-08-24T09:56:36.400Z</time>
      </trkpt>
      <trkpt lat="47.7747056" lon="-2.3150136">
        <ele>6.121</ele>
        <time>2018-08-24T09:56:39.312Z</time>
      </trkpt>
      <trkpt lat="47.7746016" lon="-2.3150134">
        <ele>5.837</ele>
        <time>2018-08-24T09:56:42.173Z</time>
      </trkpt>
      <trkpt lat="47.7744884" lon="-2.3150232">
        <ele>5.545</ele>
        <time>2018-08-24T09:56:45.240Z</time>
      </trkpt>
      <trkpt lat="47.7743835" lon="-2.3150207">
        <ele>5.343</ele>
        <time>2018-08-24T09:56:48.077Z</time>
      </trkpt>
      <trkpt lat="47.7742833" lon="-2.3150123">
        <ele>5.291</ele>
        <time>2018-08-24T09:56:50.806Z</time>
      </trkpt>
      <trkpt lat="47.7741657" lon="-2.3150194">
        <ele>5.374</ele>
        <time>2018-08-24T09:56:53.945Z</time>
      </trkpt>
      <trkpt lat="47.7740407" lon="-2.3150418">
        <ele>5.492</ele>
        <time>2018-08-24T09:56:57.176Z</time>
      </trkpt>
      <trkpt lat="47.7739148" lon="-2.3150701">
        <ele>5.524</ele>
        <time>2018-08-24T09:57:00.334Z</time>
      </trkpt>
      <trkpt lat="47.7737902" lon="-2.3150944">
        <ele>5.474</ele>
        <time>2018-08-24T09:57:03.401Z</time>
      </trkpt>
      <trkpt lat="47.7736726" lon="-2.3151112">
        <ele>5.373</ele>
        <time>2018-08-24T09:57:06.280Z</time>
      </trkpt>
      <trkpt lat="47.7735508" lon="-2.3151370">
        <ele>5.211</ele>
        <time>2018-08-24T09:57:09.266Z</time>
      </trkpt>
      <trkpt lat="47.7734269" lon="-2.3151698">
        <ele>5.062</ele>
        <time>2018-08-24T09:57:12.298Z</time>
      </trkpt>
      <trkpt lat="47.7733034" lon="-2.3151940">
        <ele>5.035</ele>
        <time>2018-08-24T09:57:15.298Z</time>
      </trkpt>
      <trkpt lat="47.7731836" lon="-2.3152220">
        <ele>5.230</ele>
        <time>2018-08-24T09:57:18.248Z</time>
      </trkpt>
      <trkpt lat="47.7730689" lon="-2.3152380">
        <ele>5.661</ele>
        <time>2018-08-24T09:57:21.099Z</time>
      </trkpt>
      <trkpt lat="47.7729589" lon="-2.3152515">
        <ele>6.143</ele>
        <time>2018-08-24T09:57:23.895Z</time>
      </trkpt>
      <trkpt lat="47.7728470" lon="-2.3152671">
        <ele>6.539</ele>
        <time>2018-08-24T09:57:26.797Z</time>
      </trkpt>
      <trkpt lat="47.7727311" lon="-2.3152796">
        <ele>6.853</ele>
        <time>2018-08-24T09:57:29.792Z</time>
      </trkpt>
      <trkpt lat="47.7726079" lon="-2.3152930">
        <ele>6.944</ele>
        <time>2018-08-24T09:57:32.945Z</time>
      </trkpt>
      <trkpt lat="47.7725000" lon="-2.3153044">
        <ele>6.707</ele>
        <time>2018-08-24T09:57:35.733Z</time>
      </trkpt>
      <trkpt lat="47.7723962" lon="-2.3153287">
        <ele>6.365</ele>
        <time>2018-08-24T09:57:38.497Z</time>
      </trkpt>
      <trkpt lat="47.7722866" lon="-2.3153605">
        <ele>6.090</ele>
        <time>2018-08-24T09:57:41.460Z</time>
      </trkpt>
      <trkpt lat="47.7721687" lon="-2.3153916">
        <ele>5.849</ele>
        <time>2018-08-24T09:57:44.612Z</time>
      </trkpt>
      <trkpt lat="47.7720518" lon="-2.3154110">
        <ele>5.581</ele>
        <time>2018-08-24T09:57:47.663Z</time>
      </trkpt>
      <trkpt lat="47.7719404" lon="-2.3154387">
        <ele>5.199</ele>
        <time>2018-08-24T09:57:50.592Z</time>
      </trkpt>
      <trkpt lat="47.7718340" lon="-2.3154562">
        <ele>4.717</ele>
        <time>2018-08-24T09:57:53.394Z</time>
      </trkpt>
      <trkpt lat="47.7717236" lon="-2.3154682">
        <ele>4.332</ele>
        <time>2018-08-24T09:57:56.305Z</time>
      </trkpt>
      <trkpt lat="47.7716052" lon="-2.3154873">
        <ele>4.156</ele>
        <time>2018-08-24T09:57:59.418Z</time>
      </trkpt>
      <trkpt lat="47.7714888" lon="-2.3155121">
        <ele>4.155</ele>
        <time>2018-08-24T09:58:02.464Z</time>
      </trkpt>
      <trkpt lat="47.7713804" lon="-2.3155292">
        <ele>4.265</ele>
        <time>2018-08-24T09:58:05.309Z</time>
      </trkpt>
      <trkpt lat="47.7712747" lon="-2.3155412">
        <ele>4.510</ele>
        <time>2018-08-24T09:58:08.137Z</time>
      </trkpt>
      <trkpt lat="47.7711725" lon="-2.3155433">
        <ele>4.878</ele>
        <time>2018-08-24T09:58:10.966Z</time>
      </trkpt>
      <trkpt lat="47.7710823" lon="-2.3155606">
        <ele>5.180</ele>
        <time>2018-08-24T09:58:13.593Z</time>
      </trkpt>
      <trkpt lat="47.7709821" lon="-2.3155844">
        <ele>5.209</ele>
        <time>2018-08-24T09:58:16.638Z</time>
      </trkpt>
      <trkpt lat="47.7708850" lon="-2.3155970">
        <ele>4.919</ele>
        <time>2018-08-24T09:58:19.603Z</time>
      </trkpt>
      <trkpt lat="47.7707898" lon="-2.3156189">
        <ele>4.395</ele>
        <time>2018-08-24T09:58:22.565Z</time>
      </trkpt>
      <trkpt lat="47.7706972" lon="-2.3156420">
        <ele>3.789</ele>
        <time>2018-08-24T09:58:25.478Z</time>
      </trkpt>
      <trkpt lat="47.7706130" lon="-2.3156950">
        <ele>3.273</ele>
        <time>2018-08-24T09:58:28.356Z</time>
      </trkpt>
      <trkpt lat="47.7705327" lon="-2.3157671">
        <ele>3.173</ele>
        <time>2018-08-24T09:58:31.383Z</time>
      </trkpt>
      <trkpt lat="47.7704423" lon="-2.3158618">
        <ele>3.591</ele>
        <time>2018-08-24T09:58:35.173Z</time>
      </trkpt>
      <trkpt lat="47.7703283" lon="-2.3158597">
        <ele>4.124</ele>
        <time>2018-08-24T09:58:39.370Z</time>
      </trkpt>
      <trkpt lat="47.7702336" lon="-2.3158002">
        <ele>4.402</ele>
        <time>2018-08-24T09:58:43.370Z</time>
      </trkpt>
      <trkpt lat="47.7701417" lon="-2.3157460">
        <ele>4.454</ele>
        <time>2018-08-24T09:58:47.441Z</time>
      </trkpt>
      <trkpt lat="47.7700441" lon="-2.3156867">
        <ele>4.372</ele>
        <time>2018-08-24T09:58:52.030Z</time>
      </trkpt>
      <trkpt lat="47.7699526" lon="-2.3156686">
        <ele>4.253</ele>
        <time>2018-08-24T09:58:56.211Z</time>
      </trkpt>
      <trkpt lat="47.7698587" lon="-2.3157130">
        <ele>4.204</ele>
        <time>2018-08-24T09:59:00.720Z</time>
      </trkpt>
      <trkpt lat="47.7697507" lon="-2.3157329">
        <ele>4.265</ele>
        <time>2018-08-24T09:59:05.579Z</time>
      </trkpt>
      <trkpt lat="47.7696584" lon="-2.3157416">
        <ele>4.389</ele>
        <time>2018-08-24T09:59:09.632Z</time>
      </trkpt>
      <trkpt lat="47.7695546" lon="-2.3157567">
        <ele>4.643</ele>
        <time>2018-08-24T09:59:14.066Z</time>
      </trkpt>
      <trkpt lat="47.7694376" lon="-2.3157684">
        <ele>5.138</ele>
        <time>2018-08-24T09:59:18.686Z</time>
      </trkpt>
      <trkpt lat="47.7693472" lon="-2.3157772">
        <ele>5.735</ele>
        <time>2018-08-24T09:59:21.979Z</time>
      </trkpt>
      <trkpt lat="47.7692407" lon="-2.3157859">
        <ele>6.164</ele>
        <time>2018-08-24T09:59:25.748Z</time>
      </trkpt>
      <trkpt lat="47.7691342" lon="-2.3157910">
        <ele>6.407</ele>
        <time>2018-08-24T09:59:29.572Z</time>
      </trkpt>
      <trkpt lat="47.7690182" lon="-2.3158024">
        <ele>6.628</ele>
        <time>2018-08-24T09:59:33.782Z</time>
      </trkpt>
      <trkpt lat="47.7689272" lon="-2.3158088">
        <ele>6.890</ele>
        <time>2018-08-24T09:59:36.999Z</time>
      </trkpt>
      <trkpt lat="47.7689272" lon="-2.3158088">
        <ele>7.088</ele>
        <time>2018-08-24T09:59:40.999Z</time>
      </trkpt>
      <trkpt lat="47.7689272" lon="-2.3158088">
        <ele>7.144</ele>
        <time>2018-08-24T10:01:00.172Z</time>
      </trkpt>
      <trkpt lat="47.7687250" lon="-2.3158373">
        <ele>7.122</ele>
        <time>2018-08-24T10:01:14.174Z</time>
      </trkpt>
      <trkpt lat="47.7686335" lon="-2.3158552">
        <ele>7.092</ele>
        <time>2018-08-24T10:01:17.471Z</time>
      </trkpt>
      <trkpt lat="47.7685344" lon="-2.3158848">
        <ele>7.021</ele>
        <time>2018-08-24T10:01:20.618Z</time>
      </trkpt>
      <trkpt lat="47.7684228" lon="-2.3159136">
        <ele>6.645</ele>
        <time>2018-08-24T10:01:23.821Z</time>
      </trkpt>
      <trkpt lat="47.7683163" lon="-2.3159272">
        <ele>5.902</ele>
        <time>2018-08-24T10:01:26.675Z</time>
      </trkpt>
      <trkpt lat="47.7682021" lon="-2.3159170">
        <ele>5.251</ele>
        <time>2018-08-24T10:01:29.659Z</time>
      </trkpt>
      <trkpt lat="47.7680817" lon="-2.3159110">
        <ele>5.122</ele>
        <time>2018-08-24T10:01:32.785Z</time>
      </trkpt>
      <trkpt lat="47.7679719" lon="-2.3159090">
        <ele>5.484</ele>
        <time>2018-08-24T10:01:35.637Z</time>
      </trkpt>
      <trkpt lat="47.7678628" lon="-2.3159100">
        <ele>6.018</ele>
        <time>2018-08-24T10:01:38.460Z</time>
      </trkpt>
      <trkpt lat="47.7677490" lon="-2.3159242">
        <ele>6.390</ele>
        <time>2018-08-24T10:01:41.401Z</time>
      </trkpt>
      <trkpt lat="47.7676388" lon="-2.3159391">
        <ele>6.529</ele>
        <time>2018-08-24T10:01:44.227Z</time>
      </trkpt>
      <trkpt lat="47.7675239" lon="-2.3159595">
        <ele>6.544</ele>
        <time>2018-08-24T10:01:47.184Z</time>
      </trkpt>
      <trkpt lat="47.7674045" lon="-2.3159887">
        <ele>6.577</ele>
        <time>2018-08-24T10:01:50.374Z</time>
      </trkpt>
      <trkpt lat="47.7673133" lon="-2.3160199">
        <ele>6.697</ele>
        <time>2018-08-24T10:01:52.897Z</time>
      </trkpt>
      <trkpt lat="47.7672031" lon="-2.3160623">
        <ele>6.992</ele>
        <time>2018-08-24T10:01:55.966Z</time>
      </trkpt>
      <trkpt lat="47.7671000" lon="-2.3160934">
        <ele>7.127</ele>
        <time>2018-08-24T10:01:58.822Z</time>
      </trkpt>
      <trkpt lat="47.7670033" lon="-2.3161325">
        <ele>7.121</ele>
        <time>2018-08-24T10:02:01.561Z</time>
      </trkpt>
      <trkpt lat="47.7669019" lon="-2.3161718">
        <ele>7.074</ele>
        <time>2018-08-24T10:02:04.392Z</time>
      </trkpt>
      <trkpt lat="47.7667965" lon="-2.3162488">
        <ele>7.105</ele>
        <time>2018-08-24T10:02:07.530Z</time>
      </trkpt>
      <trkpt lat="47.7667017" lon="-2.3163451">
        <ele>7.103</ele>
        <time>2018-08-24T10:02:10.539Z</time>
      </trkpt>
      <trkpt lat="47.7665972" lon="-2.3164363">
        <ele>7.021</ele>
        <time>2018-08-24T10:02:13.621Z</time>
      </trkpt>
      <trkpt lat="47.7664933" lon="-2.3165284">
        <ele>7.043</ele>
        <time>2018-08-24T10:02:16.663Z</time>
      </trkpt>
      <trkpt lat="47.7663923" lon="-2.3166343">
        <ele>7.327</ele>
        <time>2018-08-24T10:02:19.804Z</time>
      </trkpt>
      <trkpt lat="47.7663118" lon="-2.3167304">
        <ele>7.669</ele>
        <time>2018-08-24T10:02:22.482Z</time>
      </trkpt>
      <trkpt lat="47.7662303" lon="-2.3168274">
        <ele>7.683</ele>
        <time>2018-08-24T10:02:25.204Z</time>
      </trkpt>
      <trkpt lat="47.7661391" lon="-2.3169463">
        <ele>7.292</ele>
        <time>2018-08-24T10:02:28.322Z</time>
      </trkpt>
      <trkpt lat="47.7660453" lon="-2.3170680">
        <ele>6.824</ele>
        <time>2018-08-24T10:02:31.511Z</time>
      </trkpt>
      <trkpt lat="47.7659599" lon="-2.3171831">
        <ele>6.572</ele>
        <time>2018-08-24T10:02:34.492Z</time>
      </trkpt>
      <trkpt lat="47.7658752" lon="-2.3172937">
        <ele>6.616</ele>
        <time>2018-08-24T10:02:37.432Z</time>
      </trkpt>
      <trkpt lat="47.7657887" lon="-2.3174005">
        <ele>6.919</ele>
        <time>2018-08-24T10:02:40.361Z</time>
      </trkpt>
      <trkpt lat="47.7656980" lon="-2.3175004">
        <ele>7.251</ele>
        <time>2018-08-24T10:02:43.372Z</time>
      </trkpt>
      <trkpt lat="47.7656180" lon="-2.3175812">
        <ele>7.450</ele>
        <time>2018-08-24T10:02:46.060Z</time>
      </trkpt>
      <trkpt lat="47.7655319" lon="-2.3176570">
        <ele>7.554</ele>
        <time>2018-08-24T10:02:48.886Z</time>
      </trkpt>
      <trkpt lat="47.7654330" lon="-2.3177199">
        <ele>7.629</ele>
        <time>2018-08-24T10:02:51.897Z</time>
      </trkpt>
      <trkpt lat="47.7653231" lon="-2.3177511">
        <ele>7.725</ele>
        <time>2018-08-24T10:02:54.999Z</time>
      </trkpt>
      <trkpt lat="47.7652142" lon="-2.3177577">
        <ele>7.851</ele>
        <time>2018-08-24T10:02:57.964Z</time>
      </trkpt>
      <trkpt lat="47.7651000" lon="-2.3177579">
        <ele>7.981</ele>
        <time>2018-08-24T10:03:00.968Z</time>
      </trkpt>
      <trkpt lat="47.7649784" lon="-2.3177557">
        <ele>8.179</ele>
        <time>2018-08-24T10:03:04.043Z</time>
      </trkpt>
      <trkpt lat="47.7648559" lon="-2.3177616">
        <ele>8.519</ele>
        <time>2018-08-24T10:03:07.051Z</time>
      </trkpt>
      <trkpt lat="47.7647329" lon="-2.3177645">
        <ele>8.890</ele>
        <time>2018-08-24T10:03:10.011Z</time>
      </trkpt>
      <trkpt lat="47.7646096" lon="-2.3177638">
        <ele>9.111</ele>
        <time>2018-08-24T10:03:12.958Z</time>
      </trkpt>
      <trkpt lat="47.7644864" lon="-2.3177651">
        <ele>9.160</ele>
        <time>2018-08-24T10:03:15.914Z</time>
      </trkpt>
      <trkpt lat="47.7643655" lon="-2.3177608">
        <ele>9.136</ele>
        <time>2018-08-24T10:03:18.825Z</time>
      </trkpt>
      <trkpt lat="47.7642439" lon="-2.3177531">
        <ele>9.138</ele>
        <time>2018-08-24T10:03:21.758Z</time>
      </trkpt>
      <trkpt lat="47.7641219" lon="-2.3177427">
        <ele>9.200</ele>
        <time>2018-08-24T10:03:24.707Z</time>
      </trkpt>
      <trkpt lat="47.7640032" lon="-2.3177335">
        <ele>9.311</ele>
        <time>2018-08-24T10:03:27.597Z</time>
      </trkpt>
      <trkpt lat="47.7638854" lon="-2.3177218">
        <ele>9.438</ele>
        <time>2018-08-24T10:03:30.484Z</time>
      </trkpt>
      <trkpt lat="47.7637656" lon="-2.3177137">
        <ele>9.530</ele>
        <time>2018-08-24T10:03:33.414Z</time>
      </trkpt>
      <trkpt lat="47.7636416" lon="-2.3177108">
        <ele>9.671</ele>
        <time>2018-08-24T10:03:36.425Z</time>
      </trkpt>
      <trkpt lat="47.7635178" lon="-2.3176978">
        <ele>9.952</ele>
        <time>2018-08-24T10:03:39.405Z</time>
      </trkpt>
      <trkpt lat="47.7633907" lon="-2.3176811">
        <ele>10.218</ele>
        <time>2018-08-24T10:03:42.424Z</time>
      </trkpt>
      <trkpt lat="47.7632612" lon="-2.3176677">
        <ele>10.316</ele>
        <time>2018-08-24T10:03:45.450Z</time>
      </trkpt>
      <trkpt lat="47.7631342" lon="-2.3176516">
        <ele>10.299</ele>
        <time>2018-08-24T10:03:48.398Z</time>
      </trkpt>
      <trkpt lat="47.7630080" lon="-2.3176286">
        <ele>10.306</ele>
        <time>2018-08-24T10:03:51.331Z</time>
      </trkpt>
      <trkpt lat="47.7628901" lon="-2.3175866">
        <ele>10.317</ele>
        <time>2018-08-24T10:03:54.152Z</time>
      </trkpt>
      <trkpt lat="47.7627793" lon="-2.3175361">
        <ele>10.327</ele>
        <time>2018-08-24T10:03:56.892Z</time>
      </trkpt>
      <trkpt lat="47.7626604" lon="-2.3175062">
        <ele>10.384</ele>
        <time>2018-08-24T10:03:59.790Z</time>
      </trkpt>
      <trkpt lat="47.7625439" lon="-2.3174805">
        <ele>10.560</ele>
        <time>2018-08-24T10:04:02.673Z</time>
      </trkpt>
      <trkpt lat="47.7624284" lon="-2.3174505">
        <ele>10.900</ele>
        <time>2018-08-24T10:04:05.590Z</time>
      </trkpt>
      <trkpt lat="47.7623141" lon="-2.3174128">
        <ele>11.324</ele>
        <time>2018-08-24T10:04:08.523Z</time>
      </trkpt>
      <trkpt lat="47.7621978" lon="-2.3173777">
        <ele>11.536</ele>
        <time>2018-08-24T10:04:11.494Z</time>
      </trkpt>
      <trkpt lat="47.7620800" lon="-2.3173483">
        <ele>11.362</ele>
        <time>2018-08-24T10:04:14.464Z</time>
      </trkpt>
      <trkpt lat="47.7619637" lon="-2.3173118">
        <ele>10.943</ele>
        <time>2018-08-24T10:04:17.408Z</time>
      </trkpt>
      <trkpt lat="47.7618442" lon="-2.3172861">
        <ele>10.505</ele>
        <time>2018-08-24T10:04:20.397Z</time>
      </trkpt>
      <trkpt lat="47.7617297" lon="-2.3172524">
        <ele>10.286</ele>
        <time>2018-08-24T10:04:23.297Z</time>
      </trkpt>
      <trkpt lat="47.7616126" lon="-2.3172110">
        <ele>10.377</ele>
        <time>2018-08-24T10:04:26.288Z</time>
      </trkpt>
      <trkpt lat="47.7615024" lon="-2.3171692">
        <ele>10.545</ele>
        <time>2018-08-24T10:04:29.122Z</time>
      </trkpt>
      <trkpt lat="47.7613888" lon="-2.3171260">
        <ele>10.513</ele>
        <time>2018-08-24T10:04:32.074Z</time>
      </trkpt>
      <trkpt lat="47.7612857" lon="-2.3170719">
        <ele>10.157</ele>
        <time>2018-08-24T10:04:34.876Z</time>
      </trkpt>
      <trkpt lat="47.7611857" lon="-2.3170209">
        <ele>9.176</ele>
        <time>2018-08-24T10:04:37.645Z</time>
      </trkpt>
      <trkpt lat="47.7610857" lon="-2.3169689">
        <ele>9.017</ele>
        <time>2018-08-24T10:04:40.466Z</time>
      </trkpt>
      <trkpt lat="47.7609808" lon="-2.3169145">
        <ele>8.877</ele>
        <time>2018-08-24T10:04:43.443Z</time>
      </trkpt>
      <trkpt lat="47.7608777" lon="-2.3168572">
        <ele>8.446</ele>
        <time>2018-08-24T10:04:46.386Z</time>
      </trkpt>
      <trkpt lat="47.7607722" lon="-2.3168010">
        <ele>7.835</ele>
        <time>2018-08-24T10:04:49.357Z</time>
      </trkpt>
      <trkpt lat="47.7606651" lon="-2.3167473">
        <ele>7.549</ele>
        <time>2018-08-24T10:04:52.324Z</time>
      </trkpt>
      <trkpt lat="47.7605525" lon="-2.3166823">
        <ele>7.838</ele>
        <time>2018-08-24T10:04:55.424Z</time>
      </trkpt>
      <trkpt lat="47.7604392" lon="-2.3166188">
        <ele>8.379</ele>
        <time>2018-08-24T10:04:58.450Z</time>
      </trkpt>
      <trkpt lat="47.7603250" lon="-2.3165718">
        <ele>8.708</ele>
        <time>2018-08-24T10:05:01.376Z</time>
      </trkpt>
      <trkpt lat="47.7602215" lon="-2.3165472">
        <ele>8.647</ele>
        <time>2018-08-24T10:05:03.999Z</time>
      </trkpt>
      <trkpt lat="47.7602215" lon="-2.3165472">
        <ele>8.338</ele>
        <time>2018-08-24T10:05:06.999Z</time>
      </trkpt>
      <trkpt lat="47.7602215" lon="-2.3165472">
        <ele>8.106</ele>
        <time>2018-08-24T10:05:07.099Z</time>
      </trkpt>
      <trkpt lat="47.7599873" lon="-2.3165260">
        <ele>8.152</ele>
        <time>2018-08-24T10:05:15.703Z</time>
      </trkpt>
      <trkpt lat="47.7598927" lon="-2.3165347">
        <ele>8.338</ele>
        <time>2018-08-24T10:05:18.062Z</time>
      </trkpt>
      <trkpt lat="47.7597966" lon="-2.3165455">
        <ele>8.500</ele>
        <time>2018-08-24T10:05:20.534Z</time>
      </trkpt>
      <trkpt lat="47.7596866" lon="-2.3165419">
        <ele>8.608</ele>
        <time>2018-08-24T10:05:23.470Z</time>
      </trkpt>
      <trkpt lat="47.7595957" lon="-2.3165446">
        <ele>8.673</ele>
        <time>2018-08-24T10:05:25.999Z</time>
      </trkpt>
      <trkpt lat="47.7595957" lon="-2.3165446">
        <ele>8.708</ele>
        <time>2018-08-24T10:05:26.999Z</time>
      </trkpt>
      <trkpt lat="47.7595957" lon="-2.3165446">
        <ele>8.724</ele>
        <time>2018-08-24T10:05:27.099Z</time>
      </trkpt>
      <trkpt lat="47.7594793" lon="-2.3167421">
        <ele>8.705</ele>
        <time>2018-08-24T10:05:40.097Z</time>
      </trkpt>
      <trkpt lat="47.7595206" lon="-2.3168678">
        <ele>8.608</ele>
        <time>2018-08-24T10:05:43.999Z</time>
      </trkpt>
      <trkpt lat="47.7595206" lon="-2.3168678">
        <ele>8.398</ele>
        <time>2018-08-24T10:05:45.999Z</time>
      </trkpt>
      <trkpt lat="47.7595206" lon="-2.3168678">
        <ele>8.230</ele>
        <time>2018-08-24T10:12:00.206Z</time>
      </trkpt>
      <trkpt lat="47.7594652" lon="-2.3170012">
        <ele>8.315</ele>
        <time>2018-08-24T10:12:39.167Z</time>
      </trkpt>
      <trkpt lat="47.7593588" lon="-2.3170185">
        <ele>8.399</ele>
        <time>2018-08-24T10:12:44.143Z</time>
      </trkpt>
      <trkpt lat="47.7592700" lon="-2.3169894">
        <ele>8.476</ele>
        <time>2018-08-24T10:12:47.285Z</time>
      </trkpt>
      <trkpt lat="47.7591803" lon="-2.3169675">
        <ele>8.593</ele>
        <time>2018-08-24T10:12:50.152Z</time>
      </trkpt>
      <trkpt lat="47.7590898" lon="-2.3169573">
        <ele>8.679</ele>
        <time>2018-08-24T10:12:52.873Z</time>
      </trkpt>
      <trkpt lat="47.7589950" lon="-2.3169409">
        <ele>8.622</ele>
        <time>2018-08-24T10:12:55.631Z</time>
      </trkpt>
      <trkpt lat="47.7588980" lon="-2.3169269">
        <ele>8.505</ele>
        <time>2018-08-24T10:12:58.359Z</time>
      </trkpt>
      <trkpt lat="47.7587942" lon="-2.3169197">
        <ele>8.503</ele>
        <time>2018-08-24T10:13:01.173Z</time>
      </trkpt>
      <trkpt lat="47.7586854" lon="-2.3169059">
        <ele>8.619</ele>
        <time>2018-08-24T10:13:04.040Z</time>
      </trkpt>
      <trkpt lat="47.7585764" lon="-2.3168894">
        <ele>8.725</ele>
        <time>2018-08-24T10:13:06.842Z</time>
      </trkpt>
      <trkpt lat="47.7584632" lon="-2.3168711">
        <ele>8.706</ele>
        <time>2018-08-24T10:13:09.701Z</time>
      </trkpt>
      <trkpt lat="47.7583544" lon="-2.3168547">
        <ele>8.613</ele>
        <time>2018-08-24T10:13:12.433Z</time>
      </trkpt>
      <trkpt lat="47.7582458" lon="-2.3168450">
        <ele>8.490</ele>
        <time>2018-08-24T10:13:15.140Z</time>
      </trkpt>
      <trkpt lat="47.7581335" lon="-2.3168373">
        <ele>8.339</ele>
        <time>2018-08-24T10:13:17.913Z</time>
      </trkpt>
      <trkpt lat="47.7580168" lon="-2.3168360">
        <ele>8.334</ele>
        <time>2018-08-24T10:13:20.751Z</time>
      </trkpt>
      <trkpt lat="47.7578973" lon="-2.3168452">
        <ele>8.596</ele>
        <time>2018-08-24T10:13:23.621Z</time>
      </trkpt>
      <trkpt lat="47.7577812" lon="-2.3168564">
        <ele>8.916</ele>
        <time>2018-08-24T10:13:26.405Z</time>
      </trkpt>
      <trkpt lat="47.7576724" lon="-2.3168683">
        <ele>9.083</ele>
        <time>2018-08-24T10:13:29.063Z</time>
      </trkpt>
      <trkpt lat="47.7575759" lon="-2.3168870">
        <ele>9.117</ele>
        <time>2018-08-24T10:13:31.532Z</time>
      </trkpt>
      <trkpt lat="47.7574849" lon="-2.3169080">
        <ele>9.061</ele>
        <time>2018-08-24T10:13:34.000Z</time>
      </trkpt>
      <trkpt lat="47.7574849" lon="-2.3169080">
        <ele>8.948</ele>
        <time>2018-08-24T10:13:36.000Z</time>
      </trkpt>
      <trkpt lat="47.7574849" lon="-2.3169080">
        <ele>8.863</ele>
        <time>2018-08-24T10:13:36.100Z</time>
      </trkpt>
      <trkpt lat="47.7573134" lon="-2.3169382">
        <ele>8.862</ele>
        <time>2018-08-24T10:13:43.421Z</time>
      </trkpt>
      <trkpt lat="47.7572175" lon="-2.3169660">
        <ele>8.851</ele>
        <time>2018-08-24T10:13:46.366Z</time>
      </trkpt>
      <trkpt lat="47.7571175" lon="-2.3169873">
        <ele>8.689</ele>
        <time>2018-08-24T10:13:49.311Z</time>
      </trkpt>
      <trkpt lat="47.7570178" lon="-2.3170097">
        <ele>8.407</ele>
        <time>2018-08-24T10:13:52.177Z</time>
      </trkpt>
      <trkpt lat="47.7569152" lon="-2.3170351">
        <ele>8.228</ele>
        <time>2018-08-24T10:13:55.063Z</time>
      </trkpt>
      <trkpt lat="47.7568113" lon="-2.3170610">
        <ele>8.342</ele>
        <time>2018-08-24T10:13:57.931Z</time>
      </trkpt>
      <trkpt lat="47.7567050" lon="-2.3170889">
        <ele>8.703</ele>
        <time>2018-08-24T10:14:00.829Z</time>
      </trkpt>
      <trkpt lat="47.7565998" lon="-2.3171141">
        <ele>9.077</ele>
        <time>2018-08-24T10:14:03.667Z</time>
      </trkpt>
      <trkpt lat="47.7564959" lon="-2.3171371">
        <ele>9.331</ele>
        <time>2018-08-24T10:14:06.460Z</time>
      </trkpt>
      <trkpt lat="47.7563913" lon="-2.3171599">
        <ele>9.576</ele>
        <time>2018-08-24T10:14:09.304Z</time>
      </trkpt>
      <trkpt lat="47.7562951" lon="-2.3171855">
        <ele>9.876</ele>
        <time>2018-08-24T10:14:12.061Z</time>
      </trkpt>
      <trkpt lat="47.7561827" lon="-2.3172211">
        <ele>10.163</ele>
        <time>2018-08-24T10:14:15.454Z</time>
      </trkpt>
      <trkpt lat="47.7560943" lon="-2.3172530">
        <ele>10.058</ele>
        <time>2018-08-24T10:14:18.298Z</time>
      </trkpt>
      <trkpt lat="47.7559808" lon="-2.3172932">
        <ele>9.963</ele>
        <time>2018-08-24T10:14:22.050Z</time>
      </trkpt>
      <trkpt lat="47.7558664" lon="-2.3173132">
        <ele>10.091</ele>
        <time>2018-08-24T10:14:25.830Z</time>
      </trkpt>
      <trkpt lat="47.7557568" lon="-2.3173470">
        <ele>10.188</ele>
        <time>2018-08-24T10:14:29.534Z</time>
      </trkpt>
      <trkpt lat="47.7556472" lon="-2.3173646">
        <ele>10.258</ele>
        <time>2018-08-24T10:14:33.200Z</time>
      </trkpt>
      <trkpt lat="47.7555367" lon="-2.3173966">
        <ele>10.275</ele>
        <time>2018-08-24T10:14:36.981Z</time>
      </trkpt>
      <trkpt lat="47.7554208" lon="-2.3174175">
        <ele>10.227</ele>
        <time>2018-08-24T10:14:40.840Z</time>
      </trkpt>
      <trkpt lat="47.7553226" lon="-2.3174379">
        <ele>10.146</ele>
        <time>2018-08-24T10:14:43.967Z</time>
      </trkpt>
      <trkpt lat="47.7552218" lon="-2.3174625">
        <ele>10.158</ele>
        <time>2018-08-24T10:14:47.000Z</time>
      </trkpt>
      <trkpt lat="47.7552218" lon="-2.3174625">
        <ele>10.329</ele>
        <time>2018-08-24T10:14:47.000Z</time>
      </trkpt>
      <trkpt lat="47.7552218" lon="-2.3174625">
        <ele>10.487</ele>
        <time>2018-08-24T10:14:47.100Z</time>
      </trkpt>
      <trkpt lat="47.7550745" lon="-2.3175008">
        <ele>10.482</ele>
        <time>2018-08-24T10:14:53.026Z</time>
      </trkpt>
      <trkpt lat="47.7549532" lon="-2.3175361">
        <ele>10.392</ele>
        <time>2018-08-24T10:14:56.022Z</time>
      </trkpt>
      <trkpt lat="47.7548234" lon="-2.3175712">
        <ele>10.252</ele>
        <time>2018-08-24T10:14:59.050Z</time>
      </trkpt>
      <trkpt lat="47.7546926" lon="-2.3176058">
        <ele>10.032</ele>
        <time>2018-08-24T10:15:02.100Z</time>
      </trkpt>
      <trkpt lat="47.7545686" lon="-2.3176328">
        <ele>9.832</ele>
        <time>2018-08-24T10:15:05.118Z</time>
      </trkpt>
      <trkpt lat="47.7544571" lon="-2.3176490">
        <ele>9.638</ele>
        <time>2018-08-24T10:15:07.986Z</time>
      </trkpt>
      <trkpt lat="47.7543472" lon="-2.3176805">
        <ele>9.304</ele>
        <time>2018-08-24T10:15:10.925Z</time>
      </trkpt>
      <trkpt lat="47.7542362" lon="-2.3177218">
        <ele>8.779</ele>
        <time>2018-08-24T10:15:13.900Z</time>
      </trkpt>
      <trkpt lat="47.7541194" lon="-2.3177556">
        <ele>8.186</ele>
        <time>2018-08-24T10:15:16.988Z</time>
      </trkpt>
      <trkpt lat="47.7540083" lon="-2.3177873">
        <ele>7.755</ele>
        <time>2018-08-24T10:15:19.982Z</time>
      </trkpt>
      <trkpt lat="47.7538994" lon="-2.3178184">
        <ele>7.623</ele>
        <time>2018-08-24T10:15:22.987Z</time>
      </trkpt>
      <trkpt lat="47.7537913" lon="-2.3178428">
        <ele>7.733</ele>
        <time>2018-08-24T10:15:26.015Z</time>
      </trkpt>
      <trkpt lat="47.7536815" lon="-2.3178732">
        <ele>8.022</ele>
        <time>2018-08-24T10:15:29.181Z</time>
      </trkpt>
      <trkpt lat="47.7535805" lon="-2.3178965">
        <ele>8.380</ele>
        <time>2018-08-24T10:15:32.221Z</time>
      </trkpt>
      <trkpt lat="47.7534845" lon="-2.3179162">
        <ele>8.642</ele>
        <time>2018-08-24T10:15:35.255Z</time>
      </trkpt>
      <trkpt lat="47.7533906" lon="-2.3179385">
        <ele>8.849</ele>
        <time>2018-08-24T10:15:38.325Z</time>
      </trkpt>
      <trkpt lat="47.7532970" lon="-2.3179685">
        <ele>9.223</ele>
        <time>2018-08-24T10:15:41.453Z</time>
      </trkpt>
      <trkpt lat="47.7532052" lon="-2.3179953">
        <ele>9.840</ele>
        <time>2018-08-24T10:15:44.601Z</time>
      </trkpt>
      <trkpt lat="47.7530923" lon="-2.3180240">
        <ele>10.515</ele>
        <time>2018-08-24T10:15:48.545Z</time>
      </trkpt>
      <trkpt lat="47.7530035" lon="-2.3180478">
        <ele>10.983</ele>
        <time>2018-08-24T10:15:51.710Z</time>
      </trkpt>
      <trkpt lat="47.7528983" lon="-2.3180711">
        <ele>11.161</ele>
        <time>2018-08-24T10:15:55.494Z</time>
      </trkpt>
      <trkpt lat="47.7527917" lon="-2.3180934">
        <ele>11.205</ele>
        <time>2018-08-24T10:15:59.367Z</time>
      </trkpt>
      <trkpt lat="47.7526799" lon="-2.3181229">
        <ele>11.348</ele>
        <time>2018-08-24T10:16:03.479Z</time>
      </trkpt>
      <trkpt lat="47.7525725" lon="-2.3181531">
        <ele>11.674</ele>
        <time>2018-08-24T10:16:07.500Z</time>
      </trkpt>
      <trkpt lat="47.7524717" lon="-2.3181743">
        <ele>12.183</ele>
        <time>2018-08-24T10:16:11.400Z</time>
      </trkpt>
      <trkpt lat="47.7523639" lon="-2.3181995">
        <ele>12.884</ele>
        <time>2018-08-24T10:16:15.828Z</time>
      </trkpt>
      <trkpt lat="47.7522574" lon="-2.3182325">
        <ele>13.563</ele>
        <time>2018-08-24T10:16:20.611Z</time>
      </trkpt>
      <trkpt lat="47.7521581" lon="-2.3182554">
        <ele>14.146</ele>
        <time>2018-08-24T10:16:25.360Z</time>
      </trkpt>
      <trkpt lat="47.7520585" lon="-2.3182641">
        <ele>14.785</ele>
        <time>2018-08-24T10:16:30.312Z</time>
      </trkpt>
      <trkpt lat="47.7519617" lon="-2.3182618">
        <ele>15.297</ele>
        <time>2018-08-24T10:16:35.231Z</time>
      </trkpt>
      <trkpt lat="47.7518567" lon="-2.3182483">
        <ele>15.341</ele>
        <time>2018-08-24T10:16:40.543Z</time>
      </trkpt>
      <trkpt lat="47.7517611" lon="-2.3182177">
        <ele>14.970</ele>
        <time>2018-08-24T10:16:45.413Z</time>
      </trkpt>
      <trkpt lat="47.7516678" lon="-2.3181556">
        <ele>14.545</ele>
        <time>2018-08-24T10:16:50.530Z</time>
      </trkpt>
      <trkpt lat="47.7515809" lon="-2.3180934">
        <ele>14.328</ele>
        <time>2018-08-24T10:16:55.405Z</time>
      </trkpt>
      <trkpt lat="47.7515006" lon="-2.3180157">
        <ele>14.258</ele>
        <time>2018-08-24T10:17:00.310Z</time>
      </trkpt>
      <trkpt lat="47.7514212" lon="-2.3179352">
        <ele>14.205</ele>
        <time>2018-08-24T10:17:05.320Z</time>
      </trkpt>
      <trkpt lat="47.7513498" lon="-2.3178460">
        <ele>14.107</ele>
        <time>2018-08-24T10:17:10.271Z</time>
      </trkpt>
      <trkpt lat="47.7512691" lon="-2.3177520">
        <ele>13.933</ele>
        <time>2018-08-24T10:17:15.895Z</time>
      </trkpt>
      <trkpt lat="47.7511919" lon="-2.3176751">
        <ele>13.700</ele>
        <time>2018-08-24T10:17:21.145Z</time>
      </trkpt>
      <trkpt lat="47.7511179" lon="-2.3175943">
        <ele>13.593</ele>
        <time>2018-08-24T10:17:26.484Z</time>
      </trkpt>
      <trkpt lat="47.7510397" lon="-2.3175027">
        <ele>13.797</ele>
        <time>2018-08-24T10:17:32.554Z</time>
      </trkpt>
      <trkpt lat="47.7509670" lon="-2.3174071">
        <ele>14.276</ele>
        <time>2018-08-24T10:17:38.557Z</time>
      </trkpt>
      <trkpt lat="47.7509052" lon="-2.3172961">
        <ele>14.823</ele>
        <time>2018-08-24T10:17:44.589Z</time>
      </trkpt>
      <trkpt lat="47.7508463" lon="-2.3171808">
        <ele>15.336</ele>
        <time>2018-08-24T10:17:50.619Z</time>
      </trkpt>
      <trkpt lat="47.7507856" lon="-2.3170581">
        <ele>15.839</ele>
        <time>2018-08-24T10:17:56.897Z</time>
      </trkpt>
      <trkpt lat="47.7507279" lon="-2.3169543">
        <ele>16.352</ele>
        <time>2018-08-24T10:18:02.500Z</time>
      </trkpt>
      <trkpt lat="47.7506622" lon="-2.3168543">
        <ele>16.836</ele>
        <time>2018-08-24T10:18:08.474Z</time>
      </trkpt>
      <trkpt lat="47.7506004" lon="-2.3167530">
        <ele>17.180</ele>
        <time>2018-08-24T10:18:14.408Z</time>
      </trkpt>
      <trkpt lat="47.7505470" lon="-2.3166299">
        <ele>17.303</ele>
        <time>2018-08-24T10:18:20.738Z</time>
      </trkpt>
      <trkpt lat="47.7504909" lon="-2.3165154">
        <ele>17.446</ele>
        <time>2018-08-24T10:18:26.781Z</time>
      </trkpt>
      <trkpt lat="47.7504352" lon="-2.3164034">
        <ele>18.030</ele>
        <time>2018-08-24T10:18:32.704Z</time>
      </trkpt>
      <trkpt lat="47.7503704" lon="-2.3162944">
        <ele>19.092</ele>
        <time>2018-08-24T10:18:38.882Z</time>
      </trkpt>
      <trkpt lat="47.7503109" lon="-2.3161915">
        <ele>20.181</ele>
        <time>2018-08-24T10:18:44.670Z</time>
      </trkpt>
      <trkpt lat="47.7502550" lon="-2.3160852">
        <ele>21.044</ele>
        <time>2018-08-24T10:18:50.542Z</time>
      </trkpt>
      <trkpt lat="47.7501912" lon="-2.3159772">
        <ele>21.871</ele>
        <time>2018-08-24T10:18:56.798Z</time>
      </trkpt>
      <trkpt lat="47.7501288" lon="-2.3158675">
        <ele>22.768</ele>
        <time>2018-08-24T10:19:02.884Z</time>
      </trkpt>
      <trkpt lat="47.7500622" lon="-2.3157717">
        <ele>23.579</ele>
        <time>2018-08-24T10:19:08.720Z</time>
      </trkpt>
      <trkpt lat="47.7499913" lon="-2.3156557">
        <ele>24.130</ele>
        <time>2018-08-24T10:19:15.551Z</time>
      </trkpt>
      <trkpt lat="47.7499175" lon="-2.3155663">
        <ele>24.420</ele>
        <time>2018-08-24T10:19:21.792Z</time>
      </trkpt>
      <trkpt lat="47.7498385" lon="-2.3154676">
        <ele>24.832</ele>
        <time>2018-08-24T10:19:28.560Z</time>
      </trkpt>
      <trkpt lat="47.7497913" lon="-2.3153513">
        <ele>25.718</ele>
        <time>2018-08-24T10:19:34.644Z</time>
      </trkpt>
      <trkpt lat="47.7497540" lon="-2.3152241">
        <ele>26.748</ele>
        <time>2018-08-24T10:19:40.797Z</time>
      </trkpt>
      <trkpt lat="47.7497042" lon="-2.3150939">
        <ele>27.377</ele>
        <time>2018-08-24T10:19:47.202Z</time>
      </trkpt>
      <trkpt lat="47.7496693" lon="-2.3149656">
        <ele>27.404</ele>
        <time>2018-08-24T10:19:53.119Z</time>
      </trkpt>
      <trkpt lat="47.7496321" lon="-2.3148297">
        <ele>26.869</ele>
        <time>2018-08-24T10:19:59.880Z</time>
      </trkpt>
      <trkpt lat="47.7496063" lon="-2.3146820">
        <ele>26.132</ele>
        <time>2018-08-24T10:20:07.825Z</time>
      </trkpt>
      <trkpt lat="47.7495995" lon="-2.3145392">
        <ele>25.717</ele>
        <time>2018-08-24T10:20:14.881Z</time>
      </trkpt>
      <trkpt lat="47.7495908" lon="-2.3144052">
        <ele>25.959</ele>
        <time>2018-08-24T10:20:20.914Z</time>
      </trkpt>
      <trkpt lat="47.7495791" lon="-2.3142678">
        <ele>26.686</ele>
        <time>2018-08-24T10:20:26.948Z</time>
      </trkpt>
      <trkpt lat="47.7495597" lon="-2.3141265">
        <ele>27.337</ele>
        <time>2018-08-24T10:20:33.461Z</time>
      </trkpt>
      <trkpt lat="47.7495403" lon="-2.3139845">
        <ele>27.600</ele>
        <time>2018-08-24T10:20:40.375Z</time>
      </trkpt>
      <trkpt lat="47.7495200" lon="-2.3138400">
        <ele>27.601</ele>
        <time>2018-08-24T10:20:47.144Z</time>
      </trkpt>
      <trkpt lat="47.7495034" lon="-2.3137075">
        <ele>27.557</ele>
        <time>2018-08-24T10:20:52.699Z</time>
      </trkpt>
      <trkpt lat="47.7494658" lon="-2.3135686">
        <ele>27.641</ele>
        <time>2018-08-24T10:20:58.553Z</time>
      </trkpt>
      <trkpt lat="47.7494328" lon="-2.3134203">
        <ele>28.072</ele>
        <time>2018-08-24T10:21:04.608Z</time>
      </trkpt>
      <trkpt lat="47.7494027" lon="-2.3132681">
        <ele>29.009</ele>
        <time>2018-08-24T10:21:10.766Z</time>
      </trkpt>
      <trkpt lat="47.7493771" lon="-2.3131379">
        <ele>30.494</ele>
        <time>2018-08-24T10:21:16.197Z</time>
      </trkpt>
      <trkpt lat="47.7493453" lon="-2.3129931">
        <ele>32.253</ele>
        <time>2018-08-24T10:21:22.745Z</time>
      </trkpt>
      <trkpt lat="47.7493049" lon="-2.3128606">
        <ele>33.729</ele>
        <time>2018-08-24T10:21:29.220Z</time>
      </trkpt>
      <trkpt lat="47.7492608" lon="-2.3127338">
        <ele>34.603</ele>
        <time>2018-08-24T10:21:35.210Z</time>
      </trkpt>
      <trkpt lat="47.7491870" lon="-2.3126022">
        <ele>35.086</ele>
        <time>2018-08-24T10:21:41.278Z</time>
      </trkpt>
      <trkpt lat="47.7491109" lon="-2.3124842">
        <ele>35.438</ele>
        <time>2018-08-24T10:21:46.006Z</time>
      </trkpt>
      <trkpt lat="47.7490331" lon="-2.3123797">
        <ele>35.727</ele>
        <time>2018-08-24T10:21:50.174Z</time>
      </trkpt>
      <trkpt lat="47.7489650" lon="-2.3122875">
        <ele>35.922</ele>
        <time>2018-08-24T10:21:53.971Z</time>
      </trkpt>
      <trkpt lat="47.7488925" lon="-2.3122004">
        <ele>36.024</ele>
        <time>2018-08-24T10:21:57.997Z</time>
      </trkpt>
      <trkpt lat="47.7488187" lon="-2.3121122">
        <ele>36.189</ele>
        <time>2018-08-24T10:22:02.163Z</time>
      </trkpt>
      <trkpt lat="47.7487362" lon="-2.3120263">
        <ele>36.569</ele>
        <time>2018-08-24T10:22:06.519Z</time>
      </trkpt>
      <trkpt lat="47.7486467" lon="-2.3119640">
        <ele>37.078</ele>
        <time>2018-08-24T10:22:10.961Z</time>
      </trkpt>
      <trkpt lat="47.7485615" lon="-2.3119164">
        <ele>37.620</ele>
        <time>2018-08-24T10:22:15.450Z</time>
      </trkpt>
      <trkpt lat="47.7484696" lon="-2.3118773">
        <ele>38.210</ele>
        <time>2018-08-24T10:22:20.720Z</time>
      </trkpt>
      <trkpt lat="47.7483794" lon="-2.3118713">
        <ele>38.792</ele>
        <time>2018-08-24T10:22:26.294Z</time>
      </trkpt>
      <trkpt lat="47.7482887" lon="-2.3118721">
        <ele>39.194</ele>
        <time>2018-08-24T10:22:32.329Z</time>
      </trkpt>
      <trkpt lat="47.7481969" lon="-2.3118529">
        <ele>39.273</ele>
        <time>2018-08-24T10:22:38.515Z</time>
      </trkpt>
      <trkpt lat="47.7480964" lon="-2.3118391">
        <ele>39.105</ele>
        <time>2018-08-24T10:22:45.263Z</time>
      </trkpt>
      <trkpt lat="47.7479996" lon="-2.3118287">
        <ele>38.810</ele>
        <time>2018-08-24T10:22:51.697Z</time>
      </trkpt>
      <trkpt lat="47.7479076" lon="-2.3118274">
        <ele>38.549</ele>
        <time>2018-08-24T10:22:57.633Z</time>
      </trkpt>
      <trkpt lat="47.7478177" lon="-2.3118112">
        <ele>38.509</ele>
        <time>2018-08-24T10:23:03.250Z</time>
      </trkpt>
      <trkpt lat="47.7477223" lon="-2.3117999">
        <ele>38.741</ele>
        <time>2018-08-24T10:23:09.048Z</time>
      </trkpt>
      <trkpt lat="47.7476305" lon="-2.3118067">
        <ele>39.138</ele>
        <time>2018-08-24T10:23:14.742Z</time>
      </trkpt>
      <trkpt lat="47.7475261" lon="-2.3118068">
        <ele>39.572</ele>
        <time>2018-08-24T10:23:21.523Z</time>
      </trkpt>
      <trkpt lat="47.7474276" lon="-2.3117840">
        <ele>40.102</ele>
        <time>2018-08-24T10:23:28.332Z</time>
      </trkpt>
      <trkpt lat="47.7473368" lon="-2.3117592">
        <ele>40.760</ele>
        <time>2018-08-24T10:23:34.919Z</time>
      </trkpt>
      <trkpt lat="47.7472476" lon="-2.3117093">
        <ele>41.353</ele>
        <time>2018-08-24T10:23:42.008Z</time>
      </trkpt>
      <trkpt lat="47.7471534" lon="-2.3116487">
        <ele>41.768</ele>
        <time>2018-08-24T10:23:49.485Z</time>
      </trkpt>
      <trkpt lat="47.7470741" lon="-2.3115692">
        <ele>42.281</ele>
        <time>2018-08-24T10:23:55.980Z</time>
      </trkpt>
      <trkpt lat="47.7469924" lon="-2.3115042">
        <ele>43.458</ele>
        <time>2018-08-24T10:24:01.996Z</time>
      </trkpt>
      <trkpt lat="47.7469294" lon="-2.3113890">
        <ele>45.257</ele>
        <time>2018-08-24T10:24:08.598Z</time>
      </trkpt>
      <trkpt lat="47.7468863" lon="-2.3112662">
        <ele>46.908</ele>
        <time>2018-08-24T10:24:14.910Z</time>
      </trkpt>
      <trkpt lat="47.7468536" lon="-2.3111314">
        <ele>48.308</ele>
        <time>2018-08-24T10:24:20.881Z</time>
      </trkpt>
      <trkpt lat="47.7468164" lon="-2.3109962">
        <ele>49.940</ele>
        <time>2018-08-24T10:24:26.614Z</time>
      </trkpt>
      <trkpt lat="47.7467821" lon="-2.3108584">
        <ele>51.736</ele>
        <time>2018-08-24T10:24:32.410Z</time>
      </trkpt>
      <trkpt lat="47.7467510" lon="-2.3107312">
        <ele>53.164</ele>
        <time>2018-08-24T10:24:37.833Z</time>
      </trkpt>
      <trkpt lat="47.7467129" lon="-2.3105874">
        <ele>53.911</ele>
        <time>2018-08-24T10:24:44.184Z</time>
      </trkpt>
      <trkpt lat="47.7466837" lon="-2.3104468">
        <ele>54.241</ele>
        <time>2018-08-24T10:24:50.469Z</time>
      </trkpt>
      <trkpt lat="47.7466434" lon="-2.3103119">
        <ele>54.635</ele>
        <time>2018-08-24T10:24:56.959Z</time>
      </trkpt>
      <trkpt lat="47.7465873" lon="-2.3101785">
        <ele>55.185</ele>
        <time>2018-08-24T10:25:04.127Z</time>
      </trkpt>
      <trkpt lat="47.7465301" lon="-2.3100712">
        <ele>55.750</ele>
        <time>2018-08-24T10:25:10.289Z</time>
      </trkpt>
      <trkpt lat="47.7464542" lon="-2.3099700">
        <ele>56.419</ele>
        <time>2018-08-24T10:25:17.130Z</time>
      </trkpt>
      <trkpt lat="47.7463841" lon="-2.3098832">
        <ele>57.359</ele>
        <time>2018-08-24T10:25:23.574Z</time>
      </trkpt>
      <trkpt lat="47.7463019" lon="-2.3098172">
        <ele>58.364</ele>
        <time>2018-08-24T10:25:30.572Z</time>
      </trkpt>
      <trkpt lat="47.7462134" lon="-2.3097681">
        <ele>59.011</ele>
        <time>2018-08-24T10:25:37.739Z</time>
      </trkpt>
      <trkpt lat="47.7461248" lon="-2.3097110">
        <ele>59.165</ele>
        <time>2018-08-24T10:25:45.213Z</time>
      </trkpt>
      <trkpt lat="47.7460294" lon="-2.3096558">
        <ele>59.001</ele>
        <time>2018-08-24T10:25:53.412Z</time>
      </trkpt>
      <trkpt lat="47.7459404" lon="-2.3095980">
        <ele>58.778</ele>
        <time>2018-08-24T10:26:01.249Z</time>
      </trkpt>
      <trkpt lat="47.7458479" lon="-2.3095494">
        <ele>58.730</ele>
        <time>2018-08-24T10:26:09.242Z</time>
      </trkpt>
      <trkpt lat="47.7457572" lon="-2.3095872">
        <ele>59.085</ele>
        <time>2018-08-24T10:26:16.878Z</time>
      </trkpt>
      <trkpt lat="47.7456860" lon="-2.3096793">
        <ele>60.234</ele>
        <time>2018-08-24T10:26:24.250Z</time>
      </trkpt>
      <trkpt lat="47.7456349" lon="-2.3098014">
        <ele>62.448</ele>
        <time>2018-08-24T10:26:32.000Z</time>
      </trkpt>
      <trkpt lat="47.7456349" lon="-2.3098014">
        <ele>65.044</ele>
        <time>2018-08-24T10:26:33.000Z</time>
      </trkpt>
      <trkpt lat="47.7456349" lon="-2.3098014">
        <ele>66.531</ele>
        <time>2018-08-24T10:27:19.007Z</time>
      </trkpt>
      <trkpt lat="47.7455751" lon="-2.3099021">
        <ele>65.599</ele>
        <time>2018-08-24T10:27:39.660Z</time>
      </trkpt>
      <trkpt lat="47.7455217" lon="-2.3100202">
        <ele>65.758</ele>
        <time>2018-08-24T10:27:50.321Z</time>
      </trkpt>
      <trkpt lat="47.7454619" lon="-2.3101375">
        <ele>67.558</ele>
        <time>2018-08-24T10:27:59.854Z</time>
      </trkpt>
      <trkpt lat="47.7454242" lon="-2.3102668">
        <ele>70.187</ele>
        <time>2018-08-24T10:28:08.944Z</time>
      </trkpt>
      <trkpt lat="47.7454020" lon="-2.3104074">
        <ele>72.678</ele>
        <time>2018-08-24T10:28:18.217Z</time>
      </trkpt>
      <trkpt lat="47.7454003" lon="-2.3105443">
        <ele>74.553</ele>
        <time>2018-08-24T10:28:26.704Z</time>
      </trkpt>
      <trkpt lat="47.7454098" lon="-2.3106786">
        <ele>75.438</ele>
        <time>2018-08-24T10:28:35.053Z</time>
      </trkpt>
      <trkpt lat="47.7454396" lon="-2.3108127">
        <ele>75.516</ele>
        <time>2018-08-24T10:28:44.011Z</time>
      </trkpt>
      <trkpt lat="47.7454800" lon="-2.3109472">
        <ele>75.247</ele>
        <time>2018-08-24T10:28:53.420Z</time>
      </trkpt>
      <trkpt lat="47.7454815" lon="-2.3110942">
        <ele>74.981</ele>
        <time>2018-08-24T10:29:02.684Z</time>
      </trkpt>
      <trkpt lat="47.7454860" lon="-2.3112402">
        <ele>74.660</ele>
        <time>2018-08-24T10:29:11.915Z</time>
      </trkpt>
      <trkpt lat="47.7454853" lon="-2.3113818">
        <ele>74.154</ele>
        <time>2018-08-24T10:29:21.000Z</time>
      </trkpt>
      <trkpt lat="47.7454853" lon="-2.3113818">
        <ele>73.715</ele>
        <time>2018-08-24T10:29:34.000Z</time>
      </trkpt>
      <trkpt lat="47.7454853" lon="-2.3113818">
        <ele>73.589</ele>
        <time>2018-08-24T10:29:39.816Z</time>
      </trkpt>
      <trkpt lat="47.7454944" lon="-2.3116818">
        <ele>73.691</ele>
        <time>2018-08-24T10:30:02.031Z</time>
      </trkpt>
      <trkpt lat="47.7454881" lon="-2.3118296">
        <ele>74.111</ele>
        <time>2018-08-24T10:30:08.688Z</time>
      </trkpt>
      <trkpt lat="47.7455127" lon="-2.3119682">
        <ele>75.039</ele>
        <time>2018-08-24T10:30:14.630Z</time>
      </trkpt>
      <trkpt lat="47.7455237" lon="-2.3121155">
        <ele>76.202</ele>
        <time>2018-08-24T10:30:20.835Z</time>
      </trkpt>
      <trkpt lat="47.7455352" lon="-2.3122552">
        <ele>77.379</ele>
        <time>2018-08-24T10:30:27.539Z</time>
      </trkpt>
      <trkpt lat="47.7454879" lon="-2.3123880">
        <ele>78.574</ele>
        <time>2018-08-24T10:30:35.103Z</time>
      </trkpt>
      <trkpt lat="47.7454504" lon="-2.3125180">
        <ele>79.543</ele>
        <time>2018-08-24T10:30:41.823Z</time>
      </trkpt>
      <trkpt lat="47.7453937" lon="-2.3126299">
        <ele>80.078</ele>
        <time>2018-08-24T10:30:47.795Z</time>
      </trkpt>
      <trkpt lat="47.7453245" lon="-2.3127330">
        <ele>80.609</ele>
        <time>2018-08-24T10:30:53.880Z</time>
      </trkpt>
      <trkpt lat="47.7452402" lon="-2.3128149">
        <ele>81.504</ele>
        <time>2018-08-24T10:31:00.158Z</time>
      </trkpt>
      <trkpt lat="47.7451411" lon="-2.3128633">
        <ele>82.571</ele>
        <time>2018-08-24T10:31:06.312Z</time>
      </trkpt>
      <trkpt lat="47.7450570" lon="-2.3129117">
        <ele>83.425</ele>
        <time>2018-08-24T10:31:11.255Z</time>
      </trkpt>
      <trkpt lat="47.7449655" lon="-2.3129359">
        <ele>83.984</ele>
        <time>2018-08-24T10:31:16.169Z</time>
      </trkpt>
      <trkpt lat="47.7448608" lon="-2.3129723">
        <ele>84.309</ele>
        <time>2018-08-24T10:31:21.775Z</time>
      </trkpt>
      <trkpt lat="47.7447660" lon="-2.3130146">
        <ele>84.484</ele>
        <time>2018-08-24T10:31:26.756Z</time>
      </trkpt>
      <trkpt lat="47.7446674" lon="-2.3130523">
        <ele>84.420</ele>
        <time>2018-08-24T10:31:31.591Z</time>
      </trkpt>
      <trkpt lat="47.7445617" lon="-2.3131006">
        <ele>84.101</ele>
        <time>2018-08-24T10:31:36.577Z</time>
      </trkpt>
      <trkpt lat="47.7444740" lon="-2.3131307">
        <ele>83.735</ele>
        <time>2018-08-24T10:31:40.491Z</time>
      </trkpt>
      <trkpt lat="47.7443840" lon="-2.3131677">
        <ele>83.488</ele>
        <time>2018-08-24T10:31:44.465Z</time>
      </trkpt>
      <trkpt lat="47.7442972" lon="-2.3132029">
        <ele>83.335</ele>
        <time>2018-08-24T10:31:48.247Z</time>
      </trkpt>
      <trkpt lat="47.7442061" lon="-2.3132317">
        <ele>83.283</ele>
        <time>2018-08-24T10:31:52.179Z</time>
      </trkpt>
      <trkpt lat="47.7440980" lon="-2.3132546">
        <ele>83.389</ele>
        <time>2018-08-24T10:31:56.860Z</time>
      </trkpt>
      <trkpt lat="47.7440089" lon="-2.3132828">
        <ele>83.671</ele>
        <time>2018-08-24T10:32:00.697Z</time>
      </trkpt>
      <trkpt lat="47.7439085" lon="-2.3133091">
        <ele>84.324</ele>
        <time>2018-08-24T10:32:04.799Z</time>
      </trkpt>
      <trkpt lat="47.7438104" lon="-2.3133303">
        <ele>84.581</ele>
        <time>2018-08-24T10:32:08.727Z</time>
      </trkpt>
      <trkpt lat="47.7437194" lon="-2.3133543">
        <ele>84.997</ele>
        <time>2018-08-24T10:32:12.442Z</time>
      </trkpt>
      <trkpt lat="47.7436278" lon="-2.3133740">
        <ele>85.521</ele>
        <time>2018-08-24T10:32:16.193Z</time>
      </trkpt>
      <trkpt lat="47.7435273" lon="-2.3134004">
        <ele>85.971</ele>
        <time>2018-08-24T10:32:20.347Z</time>
      </trkpt>
      <trkpt lat="47.7434187" lon="-2.3134256">
        <ele>86.293</ele>
        <time>2018-08-24T10:32:24.850Z</time>
      </trkpt>
      <trkpt lat="47.7433260" lon="-2.3134577">
        <ele>86.484</ele>
        <time>2018-08-24T10:32:28.715Z</time>
      </trkpt>
      <trkpt lat="47.7432275" lon="-2.3134755">
        <ele>86.601</ele>
        <time>2018-08-24T10:32:32.621Z</time>
      </trkpt>
      <trkpt lat="47.7431229" lon="-2.3134954">
        <ele>86.759</ele>
        <time>2018-08-24T10:32:36.595Z</time>
      </trkpt>
      <trkpt lat="47.7430156" lon="-2.3135216">
        <ele>87.110</ele>
        <time>2018-08-24T10:32:40.551Z</time>
      </trkpt>
      <trkpt lat="47.7429070" lon="-2.3135496">
        <ele>87.723</ele>
        <time>2018-08-24T10:32:44.482Z</time>
      </trkpt>
      <trkpt lat="47.7427967" lon="-2.3135844">
        <ele>88.493</ele>
        <time>2018-08-24T10:32:48.434Z</time>
      </trkpt>
      <trkpt lat="47.7426828" lon="-2.3136160">
        <ele>89.383</ele>
        <time>2018-08-24T10:32:52.446Z</time>
      </trkpt>
      <trkpt lat="47.7425759" lon="-2.3136455">
        <ele>90.392</ele>
        <time>2018-08-24T10:32:56.221Z</time>
      </trkpt>
      <trkpt lat="47.7424667" lon="-2.3136930">
        <ele>91.255</ele>
        <time>2018-08-24T10:33:00.230Z</time>
      </trkpt>
      <trkpt lat="47.7423657" lon="-2.3137348">
        <ele>91.710</ele>
        <time>2018-08-24T10:33:03.991Z</time>
      </trkpt>
      <trkpt lat="47.7422625" lon="-2.3137793">
        <ele>91.804</ele>
        <time>2018-08-24T10:33:07.895Z</time>
      </trkpt>
      <trkpt lat="47.7421621" lon="-2.3138269">
        <ele>91.785</ele>
        <time>2018-08-24T10:33:11.764Z</time>
      </trkpt>
      <trkpt lat="47.7420706" lon="-2.3138727">
        <ele>91.865</ele>
        <time>2018-08-24T10:33:15.393Z</time>
      </trkpt>
      <trkpt lat="47.7419825" lon="-2.3139146">
        <ele>92.262</ele>
        <time>2018-08-24T10:33:18.987Z</time>
      </trkpt>
      <trkpt lat="47.7418919" lon="-2.3139540">
        <ele>92.512</ele>
        <time>2018-08-24T10:33:22.764Z</time>
      </trkpt>
      <trkpt lat="47.7418028" lon="-2.3139890">
        <ele>92.833</ele>
        <time>2018-08-24T10:33:26.532Z</time>
      </trkpt>
      <trkpt lat="47.7417103" lon="-2.3140316">
        <ele>93.106</ele>
        <time>2018-08-24T10:33:30.503Z</time>
      </trkpt>
      <trkpt lat="47.7416135" lon="-2.3140782">
        <ele>93.278</ele>
        <time>2018-08-24T10:33:34.564Z</time>
      </trkpt>
      <trkpt lat="47.7415186" lon="-2.3141324">
        <ele>93.419</ele>
        <time>2018-08-24T10:33:38.526Z</time>
      </trkpt>
      <trkpt lat="47.7414292" lon="-2.3141807">
        <ele>93.559</ele>
        <time>2018-08-24T10:33:42.180Z</time>
      </trkpt>
      <trkpt lat="47.7413260" lon="-2.3142327">
        <ele>93.574</ele>
        <time>2018-08-24T10:33:46.279Z</time>
      </trkpt>
      <trkpt lat="47.7412185" lon="-2.3142784">
        <ele>93.391</ele>
        <time>2018-08-24T10:33:50.341Z</time>
      </trkpt>
      <trkpt lat="47.7411129" lon="-2.3143276">
        <ele>93.222</ele>
        <time>2018-08-24T10:33:54.261Z</time>
      </trkpt>
      <trkpt lat="47.7410083" lon="-2.3143852">
        <ele>93.248</ele>
        <time>2018-08-24T10:33:58.169Z</time>
      </trkpt>
      <trkpt lat="47.7409084" lon="-2.3144316">
        <ele>93.372</ele>
        <time>2018-08-24T10:34:01.869Z</time>
      </trkpt>
      <trkpt lat="47.7408019" lon="-2.3144991">
        <ele>93.430</ele>
        <time>2018-08-24T10:34:06.000Z</time>
      </trkpt>
      <trkpt lat="47.7408019" lon="-2.3144991">
        <ele>93.397</ele>
        <time>2018-08-24T10:34:07.000Z</time>
      </trkpt>
      <trkpt lat="47.7408019" lon="-2.3144991">
        <ele>93.336</ele>
        <time>2018-08-24T10:34:44.929Z</time>
      </trkpt>
      <trkpt lat="47.7405965" lon="-2.3146073">
        <ele>93.299</ele>
        <time>2018-08-24T10:35:00.668Z</time>
      </trkpt>
      <trkpt lat="47.7405038" lon="-2.3146586">
        <ele>93.077</ele>
        <time>2018-08-24T10:35:04.505Z</time>
      </trkpt>
      <trkpt lat="47.7404018" lon="-2.3147168">
        <ele>92.472</ele>
        <time>2018-08-24T10:35:08.375Z</time>
      </trkpt>
      <trkpt lat="47.7403188" lon="-2.3147679">
        <ele>91.752</ele>
        <time>2018-08-24T10:35:11.351Z</time>
      </trkpt>
      <trkpt lat="47.7402295" lon="-2.3148299">
        <ele>91.258</ele>
        <time>2018-08-24T10:35:14.496Z</time>
      </trkpt>
      <trkpt lat="47.7401401" lon="-2.3148891">
        <ele>91.052</ele>
        <time>2018-08-24T10:35:17.598Z</time>
      </trkpt>
      <trkpt lat="47.7400583" lon="-2.3149451">
        <ele>90.983</ele>
        <time>2018-08-24T10:35:20.451Z</time>
      </trkpt>
      <trkpt lat="47.7399479" lon="-2.3150206">
        <ele>90.828</ele>
        <time>2018-08-24T10:35:24.241Z</time>
      </trkpt>
      <trkpt lat="47.7398584" lon="-2.3150819">
        <ele>90.606</ele>
        <time>2018-08-24T10:35:27.249Z</time>
      </trkpt>
      <trkpt lat="47.7397665" lon="-2.3151438">
        <ele>90.533</ele>
        <time>2018-08-24T10:35:30.271Z</time>
      </trkpt>
      <trkpt lat="47.7396772" lon="-2.3152139">
        <ele>90.647</ele>
        <time>2018-08-24T10:35:33.243Z</time>
      </trkpt>
      <trkpt lat="47.7395871" lon="-2.3152820">
        <ele>91.076</ele>
        <time>2018-08-24T10:35:36.189Z</time>
      </trkpt>
      <trkpt lat="47.7394969" lon="-2.3153454">
        <ele>91.843</ele>
        <time>2018-08-24T10:35:39.103Z</time>
      </trkpt>
      <trkpt lat="47.7394069" lon="-2.3154080">
        <ele>92.557</ele>
        <time>2018-08-24T10:35:42.035Z</time>
      </trkpt>
      <trkpt lat="47.7393176" lon="-2.3154681">
        <ele>92.826</ele>
        <time>2018-08-24T10:35:44.967Z</time>
      </trkpt>
      <trkpt lat="47.7392297" lon="-2.3155229">
        <ele>92.530</ele>
        <time>2018-08-24T10:35:47.805Z</time>
      </trkpt>
      <trkpt lat="47.7391312" lon="-2.3155852">
        <ele>91.797</ele>
        <time>2018-08-24T10:35:50.992Z</time>
      </trkpt>
      <trkpt lat="47.7390436" lon="-2.3156396">
        <ele>91.094</ele>
        <time>2018-08-24T10:35:53.872Z</time>
      </trkpt>
      <trkpt lat="47.7389338" lon="-2.3156989">
        <ele>90.854</ele>
        <time>2018-08-24T10:35:57.466Z</time>
      </trkpt>
      <trkpt lat="47.7388438" lon="-2.3157616">
        <ele>91.124</ele>
        <time>2018-08-24T10:36:00.473Z</time>
      </trkpt>
      <trkpt lat="47.7387515" lon="-2.3158183">
        <ele>91.615</ele>
        <time>2018-08-24T10:36:03.434Z</time>
      </trkpt>
      <trkpt lat="47.7386558" lon="-2.3158745">
        <ele>92.022</ele>
        <time>2018-08-24T10:36:06.407Z</time>
      </trkpt>
      <trkpt lat="47.7385606" lon="-2.3159390">
        <ele>92.308</ele>
        <time>2018-08-24T10:36:09.366Z</time>
      </trkpt>
      <trkpt lat="47.7384626" lon="-2.3159975">
        <ele>92.535</ele>
        <time>2018-08-24T10:36:12.319Z</time>
      </trkpt>
      <trkpt lat="47.7383646" lon="-2.3160581">
        <ele>92.739</ele>
        <time>2018-08-24T10:36:15.286Z</time>
      </trkpt>
      <trkpt lat="47.7382676" lon="-2.3161125">
        <ele>92.886</ele>
        <time>2018-08-24T10:36:18.204Z</time>
      </trkpt>
      <trkpt lat="47.7381725" lon="-2.3161684">
        <ele>92.754</ele>
        <time>2018-08-24T10:36:21.103Z</time>
      </trkpt>
      <trkpt lat="47.7380762" lon="-2.3162197">
        <ele>92.270</ele>
        <time>2018-08-24T10:36:23.996Z</time>
      </trkpt>
      <trkpt lat="47.7379731" lon="-2.3162743">
        <ele>91.727</ele>
        <time>2018-08-24T10:36:27.032Z</time>
      </trkpt>
      <trkpt lat="47.7378727" lon="-2.3163331">
        <ele>91.387</ele>
        <time>2018-08-24T10:36:29.990Z</time>
      </trkpt>
      <trkpt lat="47.7377761" lon="-2.3163954">
        <ele>91.297</ele>
        <time>2018-08-24T10:36:32.866Z</time>
      </trkpt>
      <trkpt lat="47.7376774" lon="-2.3164586">
        <ele>91.400</ele>
        <time>2018-08-24T10:36:35.783Z</time>
      </trkpt>
      <trkpt lat="47.7375760" lon="-2.3165212">
        <ele>91.579</ele>
        <time>2018-08-24T10:36:38.745Z</time>
      </trkpt>
      <trkpt lat="47.7374749" lon="-2.3165828">
        <ele>91.754</ele>
        <time>2018-08-24T10:36:41.689Z</time>
      </trkpt>
      <trkpt lat="47.7373732" lon="-2.3166509">
        <ele>91.880</ele>
        <time>2018-08-24T10:36:44.676Z</time>
      </trkpt>
      <trkpt lat="47.7372671" lon="-2.3167192">
        <ele>91.917</ele>
        <time>2018-08-24T10:36:47.745Z</time>
      </trkpt>
      <trkpt lat="47.7371658" lon="-2.3167763">
        <ele>91.808</ele>
        <time>2018-08-24T10:36:50.605Z</time>
      </trkpt>
      <trkpt lat="47.7370623" lon="-2.3168397">
        <ele>91.571</ele>
        <time>2018-08-24T10:36:53.538Z</time>
      </trkpt>
      <trkpt lat="47.7369589" lon="-2.3169037">
        <ele>91.381</ele>
        <time>2018-08-24T10:36:56.467Z</time>
      </trkpt>
      <trkpt lat="47.7368565" lon="-2.3169678">
        <ele>91.351</ele>
        <time>2018-08-24T10:36:59.392Z</time>
      </trkpt>
      <trkpt lat="47.7367520" lon="-2.3170356">
        <ele>91.414</ele>
        <time>2018-08-24T10:37:02.413Z</time>
      </trkpt>
      <trkpt lat="47.7366505" lon="-2.3171076">
        <ele>91.485</ele>
        <time>2018-08-24T10:37:05.414Z</time>
      </trkpt>
      <trkpt lat="47.7365518" lon="-2.3171740">
        <ele>91.535</ele>
        <time>2018-08-24T10:37:08.335Z</time>
      </trkpt>
      <trkpt lat="47.7364541" lon="-2.3172423">
        <ele>91.574</ele>
        <time>2018-08-24T10:37:11.270Z</time>
      </trkpt>
      <trkpt lat="47.7363540" lon="-2.3173034">
        <ele>91.665</ele>
        <time>2018-08-24T10:37:14.220Z</time>
      </trkpt>
      <trkpt lat="47.7362535" lon="-2.3173619">
        <ele>91.833</ele>
        <time>2018-08-24T10:37:17.152Z</time>
      </trkpt>
      <trkpt lat="47.7361530" lon="-2.3174245">
        <ele>91.926</ele>
        <time>2018-08-24T10:37:20.098Z</time>
      </trkpt>
      <trkpt lat="47.7360536" lon="-2.3174881">
        <ele>91.835</ele>
        <time>2018-08-24T10:37:23.008Z</time>
      </trkpt>
      <trkpt lat="47.7359556" lon="-2.3175467">
        <ele>91.811</ele>
        <time>2018-08-24T10:37:25.863Z</time>
      </trkpt>
      <trkpt lat="47.7358627" lon="-2.3176039">
        <ele>92.109</ele>
        <time>2018-08-24T10:37:28.626Z</time>
      </trkpt>
      <trkpt lat="47.7357704" lon="-2.3176580">
        <ele>92.649</ele>
        <time>2018-08-24T10:37:31.422Z</time>
      </trkpt>
      <trkpt lat="47.7356826" lon="-2.3177080">
        <ele>93.306</ele>
        <time>2018-08-24T10:37:34.154Z</time>
      </trkpt>
      <trkpt lat="47.7355967" lon="-2.3177518">
        <ele>94.099</ele>
        <time>2018-08-24T10:37:36.880Z</time>
      </trkpt>
      <trkpt lat="47.7355077" lon="-2.3178046">
        <ele>94.905</ele>
        <time>2018-08-24T10:37:39.813Z</time>
      </trkpt>
      <trkpt lat="47.7354168" lon="-2.3178622">
        <ele>95.454</ele>
        <time>2018-08-24T10:37:42.838Z</time>
      </trkpt>
      <trkpt lat="47.7353241" lon="-2.3179170">
        <ele>95.642</ele>
        <time>2018-08-24T10:37:45.866Z</time>
      </trkpt>
      <trkpt lat="47.7352312" lon="-2.3179703">
        <ele>95.621</ele>
        <time>2018-08-24T10:37:48.846Z</time>
      </trkpt>
      <trkpt lat="47.7351365" lon="-2.3180343">
        <ele>95.726</ele>
        <time>2018-08-24T10:37:51.902Z</time>
      </trkpt>
      <trkpt lat="47.7350396" lon="-2.3181014">
        <ele>96.127</ele>
        <time>2018-08-24T10:37:54.963Z</time>
      </trkpt>
      <trkpt lat="47.7349431" lon="-2.3181670">
        <ele>96.556</ele>
        <time>2018-08-24T10:37:57.950Z</time>
      </trkpt>
      <trkpt lat="47.7348430" lon="-2.3182335">
        <ele>96.703</ele>
        <time>2018-08-24T10:38:01.000Z</time>
      </trkpt>
      <trkpt lat="47.7347449" lon="-2.3183027">
        <ele>96.571</ele>
        <time>2018-08-24T10:38:03.995Z</time>
      </trkpt>
      <trkpt lat="47.7346499" lon="-2.3183689">
        <ele>96.317</ele>
        <time>2018-08-24T10:38:06.885Z</time>
      </trkpt>
      <trkpt lat="47.7345532" lon="-2.3184218">
        <ele>96.241</ele>
        <time>2018-08-24T10:38:09.729Z</time>
      </trkpt>
      <trkpt lat="47.7344499" lon="-2.3184788">
        <ele>96.476</ele>
        <time>2018-08-24T10:38:12.766Z</time>
      </trkpt>
      <trkpt lat="47.7343468" lon="-2.3185342">
        <ele>96.749</ele>
        <time>2018-08-24T10:38:15.764Z</time>
      </trkpt>
      <trkpt lat="47.7342492" lon="-2.3185976">
        <ele>96.767</ele>
        <time>2018-08-24T10:38:18.675Z</time>
      </trkpt>
      <trkpt lat="47.7341620" lon="-2.3186708">
        <ele>96.512</ele>
        <time>2018-08-24T10:38:21.425Z</time>
      </trkpt>
      <trkpt lat="47.7340634" lon="-2.3187359">
        <ele>96.017</ele>
        <time>2018-08-24T10:38:24.414Z</time>
      </trkpt>
      <trkpt lat="47.7339735" lon="-2.3187977">
        <ele>95.409</ele>
        <time>2018-08-24T10:38:27.183Z</time>
      </trkpt>
      <trkpt lat="47.7338759" lon="-2.3188628">
        <ele>94.787</ele>
        <time>2018-08-24T10:38:30.198Z</time>
      </trkpt>
      <trkpt lat="47.7337873" lon="-2.3189212">
        <ele>94.025</ele>
        <time>2018-08-24T10:38:32.941Z</time>
      </trkpt>
      <trkpt lat="47.7336961" lon="-2.3189760">
        <ele>93.188</ele>
        <time>2018-08-24T10:38:35.773Z</time>
      </trkpt>
      <trkpt lat="47.7336063" lon="-2.3190313">
        <ele>92.714</ele>
        <time>2018-08-24T10:38:38.632Z</time>
      </trkpt>
      <trkpt lat="47.7335075" lon="-2.3190828">
        <ele>92.803</ele>
        <time>2018-08-24T10:38:41.734Z</time>
      </trkpt>
      <trkpt lat="47.7334064" lon="-2.3191481">
        <ele>93.206</ele>
        <time>2018-08-24T10:38:44.949Z</time>
      </trkpt>
      <trkpt lat="47.7332968" lon="-2.3192192">
        <ele>93.675</ele>
        <time>2018-08-24T10:38:48.305Z</time>
      </trkpt>
      <trkpt lat="47.7331881" lon="-2.3192765">
        <ele>94.032</ele>
        <time>2018-08-24T10:38:51.410Z</time>
      </trkpt>
      <trkpt lat="47.7330816" lon="-2.3193417">
        <ele>94.123</ele>
        <time>2018-08-24T10:38:54.430Z</time>
      </trkpt>
      <trkpt lat="47.7329790" lon="-2.3194073">
        <ele>94.013</ele>
        <time>2018-08-24T10:38:57.340Z</time>
      </trkpt>
      <trkpt lat="47.7328889" lon="-2.3194736">
        <ele>93.815</ele>
        <time>2018-08-24T10:39:00.000Z</time>
      </trkpt>
      <trkpt lat="47.7328889" lon="-2.3194736">
        <ele>93.553</ele>
        <time>2018-08-24T10:39:02.000Z</time>
      </trkpt>
      <trkpt lat="47.7328889" lon="-2.3194736">
        <ele>93.361</ele>
        <time>2018-08-24T10:39:02.100Z</time>
      </trkpt>
      <trkpt lat="47.7327238" lon="-2.3196570">
        <ele>93.331</ele>
        <time>2018-08-24T10:39:09.912Z</time>
      </trkpt>
      <trkpt lat="47.7327097" lon="-2.3198220">
        <ele>93.321</ele>
        <time>2018-08-24T10:39:12.680Z</time>
      </trkpt>
      <trkpt lat="47.7327399" lon="-2.3199992">
        <ele>93.161</ele>
        <time>2018-08-24T10:39:15.479Z</time>
      </trkpt>
      <trkpt lat="47.7327669" lon="-2.3201835">
        <ele>92.883</ele>
        <time>2018-08-24T10:39:18.156Z</time>
      </trkpt>
      <trkpt lat="47.7327930" lon="-2.3203725">
        <ele>92.660</ele>
        <time>2018-08-24T10:39:20.749Z</time>
      </trkpt>
      <trkpt lat="47.7328255" lon="-2.3205593">
        <ele>92.593</ele>
        <time>2018-08-24T10:39:23.263Z</time>
      </trkpt>
      <trkpt lat="47.7328487" lon="-2.3207411">
        <ele>92.686</ele>
        <time>2018-08-24T10:39:25.648Z</time>
      </trkpt>
      <trkpt lat="47.7328717" lon="-2.3209200">
        <ele>92.912</ele>
        <time>2018-08-24T10:39:28.000Z</time>
      </trkpt>
      <trkpt lat="47.7328717" lon="-2.3209200">
        <ele>93.170</ele>
        <time>2018-08-24T10:39:28.000Z</time>
      </trkpt>
      <trkpt lat="47.7328717" lon="-2.3209200">
        <ele>93.295</ele>
        <time>2018-08-24T10:39:28.064Z</time>
      </trkpt>
      <trkpt lat="47.7328973" lon="-2.3211595">
        <ele>93.209</ele>
        <time>2018-08-24T10:39:33.890Z</time>
      </trkpt>
      <trkpt lat="47.7329158" lon="-2.3213439">
        <ele>92.943</ele>
        <time>2018-08-24T10:39:36.851Z</time>
      </trkpt>
      <trkpt lat="47.7329392" lon="-2.3215252">
        <ele>92.573</ele>
        <time>2018-08-24T10:39:39.759Z</time>
      </trkpt>
      <trkpt lat="47.7329671" lon="-2.3217125">
        <ele>92.193</ele>
        <time>2018-08-24T10:39:42.729Z</time>
      </trkpt>
      <trkpt lat="47.7329916" lon="-2.3219042">
        <ele>91.888</ele>
        <time>2018-08-24T10:39:45.677Z</time>
      </trkpt>
      <trkpt lat="47.7330167" lon="-2.3221043">
        <ele>91.655</ele>
        <time>2018-08-24T10:39:48.677Z</time>
      </trkpt>
      <trkpt lat="47.7330511" lon="-2.3223032">
        <ele>91.464</ele>
        <time>2018-08-24T10:39:51.648Z</time>
      </trkpt>
      <trkpt lat="47.7330699" lon="-2.3224354">
        <ele>91.299</ele>
        <time>2018-08-24T10:39:53.587Z</time>
      </trkpt>
      <trkpt lat="47.7330955" lon="-2.3226329">
        <ele>91.124</ele>
        <time>2018-08-24T10:39:56.443Z</time>
      </trkpt>
      <trkpt lat="47.7331170" lon="-2.3227707">
        <ele>90.880</ele>
        <time>2018-08-24T10:39:58.428Z</time>
      </trkpt>
      <trkpt lat="47.7331440" lon="-2.3229728">
        <ele>90.581</ele>
        <time>2018-08-24T10:40:01.341Z</time>
      </trkpt>
      <trkpt lat="47.7331637" lon="-2.3231107">
        <ele>90.334</ele>
        <time>2018-08-24T10:40:03.366Z</time>
      </trkpt>
      <trkpt lat="47.7331940" lon="-2.3233188">
        <ele>90.222</ele>
        <time>2018-08-24T10:40:06.441Z</time>
      </trkpt>
      <trkpt lat="47.7332094" lon="-2.3234546">
        <ele>90.136</ele>
        <time>2018-08-24T10:40:08.467Z</time>
      </trkpt>
      <trkpt lat="47.7332276" lon="-2.3235884">
        <ele>89.971</ele>
        <time>2018-08-24T10:40:10.537Z</time>
      </trkpt>
      <trkpt lat="47.7332491" lon="-2.3237785">
        <ele>89.705</ele>
        <time>2018-08-24T10:40:13.529Z</time>
      </trkpt>
      <trkpt lat="47.7332765" lon="-2.3239626">
        <ele>89.383</ele>
        <time>2018-08-24T10:40:16.502Z</time>
      </trkpt>
      <trkpt lat="47.7332969" lon="-2.3241493">
        <ele>89.127</ele>
        <time>2018-08-24T10:40:19.468Z</time>
      </trkpt>
      <trkpt lat="47.7333154" lon="-2.3243353">
        <ele>89.034</ele>
        <time>2018-08-24T10:40:22.383Z</time>
      </trkpt>
      <trkpt lat="47.7333408" lon="-2.3245214">
        <ele>88.964</ele>
        <time>2018-08-24T10:40:25.270Z</time>
      </trkpt>
      <trkpt lat="47.7333574" lon="-2.3246555">
        <ele>88.738</ele>
        <time>2018-08-24T10:40:27.295Z</time>
      </trkpt>
      <trkpt lat="47.7333774" lon="-2.3247896">
        <ele>88.341</ele>
        <time>2018-08-24T10:40:29.301Z</time>
      </trkpt>
      <trkpt lat="47.7334085" lon="-2.3249948">
        <ele>87.888</ele>
        <time>2018-08-24T10:40:32.384Z</time>
      </trkpt>
      <trkpt lat="47.7334359" lon="-2.3251879">
        <ele>87.509</ele>
        <time>2018-08-24T10:40:35.342Z</time>
      </trkpt>
      <trkpt lat="47.7334584" lon="-2.3253810">
        <ele>87.295</ele>
        <time>2018-08-24T10:40:38.343Z</time>
      </trkpt>
      <trkpt lat="47.7334811" lon="-2.3255669">
        <ele>87.169</ele>
        <time>2018-08-24T10:40:41.280Z</time>
      </trkpt>
      <trkpt lat="47.7335028" lon="-2.3257448">
        <ele>86.863</ele>
        <time>2018-08-24T10:40:44.154Z</time>
      </trkpt>
      <trkpt lat="47.7335188" lon="-2.3259274">
        <ele>86.271</ele>
        <time>2018-08-24T10:40:47.165Z</time>
      </trkpt>
      <trkpt lat="47.7335449" lon="-2.3261077">
        <ele>85.391</ele>
        <time>2018-08-24T10:40:50.218Z</time>
      </trkpt>
      <trkpt lat="47.7335713" lon="-2.3262862">
        <ele>85.374</ele>
        <time>2018-08-24T10:40:53.164Z</time>
      </trkpt>
      <trkpt lat="47.7335887" lon="-2.3264214">
        <ele>85.373</ele>
        <time>2018-08-24T10:40:55.361Z</time>
      </trkpt>
      <trkpt lat="47.7336033" lon="-2.3265942">
        <ele>85.209</ele>
        <time>2018-08-24T10:40:58.230Z</time>
      </trkpt>
      <trkpt lat="47.7336280" lon="-2.3267701">
        <ele>85.005</ele>
        <time>2018-08-24T10:41:01.248Z</time>
      </trkpt>
      <trkpt lat="47.7336529" lon="-2.3269489">
        <ele>84.923</ele>
        <time>2018-08-24T10:41:04.270Z</time>
      </trkpt>
      <trkpt lat="47.7336723" lon="-2.3271263">
        <ele>84.970</ele>
        <time>2018-08-24T10:41:07.231Z</time>
      </trkpt>
      <trkpt lat="47.7336934" lon="-2.3273005">
        <ele>85.087</ele>
        <time>2018-08-24T10:41:10.184Z</time>
      </trkpt>
      <trkpt lat="47.7337102" lon="-2.3274778">
        <ele>85.139</ele>
        <time>2018-08-24T10:41:13.188Z</time>
      </trkpt>
      <trkpt lat="47.7337317" lon="-2.3276590">
        <ele>84.993</ele>
        <time>2018-08-24T10:41:16.222Z</time>
      </trkpt>
      <trkpt lat="47.7337582" lon="-2.3278440">
        <ele>84.673</ele>
        <time>2018-08-24T10:41:19.258Z</time>
      </trkpt>
      <trkpt lat="47.7337789" lon="-2.3280278">
        <ele>84.383</ele>
        <time>2018-08-24T10:41:22.202Z</time>
      </trkpt>
      <trkpt lat="47.7337886" lon="-2.3282186">
        <ele>84.251</ele>
        <time>2018-08-24T10:41:25.241Z</time>
      </trkpt>
      <trkpt lat="47.7337569" lon="-2.3283915">
        <ele>84.152</ele>
        <time>2018-08-24T10:41:28.258Z</time>
      </trkpt>
      <trkpt lat="47.7336687" lon="-2.3284612">
        <ele>83.899</ele>
        <time>2018-08-24T10:41:31.055Z</time>
      </trkpt>
      <trkpt lat="47.7335662" lon="-2.3284594">
        <ele>83.527</ele>
        <time>2018-08-24T10:41:34.182Z</time>
      </trkpt>
      <trkpt lat="47.7334678" lon="-2.3284358">
        <ele>83.319</ele>
        <time>2018-08-24T10:41:37.272Z</time>
      </trkpt>
      <trkpt lat="47.7333718" lon="-2.3284225">
        <ele>83.507</ele>
        <time>2018-08-24T10:41:40.270Z</time>
      </trkpt>
      <trkpt lat="47.7332738" lon="-2.3284067">
        <ele>84.097</ele>
        <time>2018-08-24T10:41:43.320Z</time>
      </trkpt>
      <trkpt lat="47.7331764" lon="-2.3284083">
        <ele>84.954</ele>
        <time>2018-08-24T10:41:46.312Z</time>
      </trkpt>
      <trkpt lat="47.7330783" lon="-2.3284117">
        <ele>85.779</ele>
        <time>2018-08-24T10:41:49.275Z</time>
      </trkpt>
      <trkpt lat="47.7329839" lon="-2.3284110">
        <ele>86.300</ele>
        <time>2018-08-24T10:41:52.140Z</time>
      </trkpt>
      <trkpt lat="47.7328663" lon="-2.3284169">
        <ele>86.615</ele>
        <time>2018-08-24T10:41:55.817Z</time>
      </trkpt>
      <trkpt lat="47.7327502" lon="-2.3284421">
        <ele>86.910</ele>
        <time>2018-08-24T10:41:59.662Z</time>
      </trkpt>
      <trkpt lat="47.7326381" lon="-2.3284715">
        <ele>87.137</ele>
        <time>2018-08-24T10:42:03.494Z</time>
      </trkpt>
      <trkpt lat="47.7325248" lon="-2.3284991">
        <ele>87.201</ele>
        <time>2018-08-24T10:42:07.349Z</time>
      </trkpt>
      <trkpt lat="47.7324333" lon="-2.3285275">
        <ele>87.142</ele>
        <time>2018-08-24T10:42:10.419Z</time>
      </trkpt>
      <trkpt lat="47.7323407" lon="-2.3285442">
        <ele>87.115</ele>
        <time>2018-08-24T10:42:13.433Z</time>
      </trkpt>
      <trkpt lat="47.7322525" lon="-2.3285724">
        <ele>87.239</ele>
        <time>2018-08-24T10:42:16.345Z</time>
      </trkpt>
      <trkpt lat="47.7321621" lon="-2.3286143">
        <ele>87.504</ele>
        <time>2018-08-24T10:42:19.397Z</time>
      </trkpt>
      <trkpt lat="47.7320701" lon="-2.3286414">
        <ele>87.869</ele>
        <time>2018-08-24T10:42:22.430Z</time>
      </trkpt>
      <trkpt lat="47.7319580" lon="-2.3286711">
        <ele>88.255</ele>
        <time>2018-08-24T10:42:26.192Z</time>
      </trkpt>
      <trkpt lat="47.7318378" lon="-2.3286989">
        <ele>88.529</ele>
        <time>2018-08-24T10:42:30.299Z</time>
      </trkpt>
      <trkpt lat="47.7317415" lon="-2.3287251">
        <ele>88.466</ele>
        <time>2018-08-24T10:42:33.557Z</time>
      </trkpt>
      <trkpt lat="47.7316288" lon="-2.3287437">
        <ele>87.928</ele>
        <time>2018-08-24T10:42:37.305Z</time>
      </trkpt>
      <trkpt lat="47.7315149" lon="-2.3287679">
        <ele>87.193</ele>
        <time>2018-08-24T10:42:41.152Z</time>
      </trkpt>
      <trkpt lat="47.7314220" lon="-2.3288003">
        <ele>86.515</ele>
        <time>2018-08-24T10:42:44.317Z</time>
      </trkpt>
      <trkpt lat="47.7313306" lon="-2.3288393">
        <ele>85.895</ele>
        <time>2018-08-24T10:42:47.425Z</time>
      </trkpt>
      <trkpt lat="47.7312359" lon="-2.3288718">
        <ele>85.468</ele>
        <time>2018-08-24T10:42:50.563Z</time>
      </trkpt>
      <trkpt lat="47.7311429" lon="-2.3288980">
        <ele>85.375</ele>
        <time>2018-08-24T10:42:53.589Z</time>
      </trkpt>
      <trkpt lat="47.7310449" lon="-2.3289239">
        <ele>85.518</ele>
        <time>2018-08-24T10:42:56.713Z</time>
      </trkpt>
      <trkpt lat="47.7309462" lon="-2.3289546">
        <ele>85.799</ele>
        <time>2018-08-24T10:42:59.816Z</time>
      </trkpt>
      <trkpt lat="47.7308523" lon="-2.3289869">
        <ele>86.180</ele>
        <time>2018-08-24T10:43:02.760Z</time>
      </trkpt>
      <trkpt lat="47.7307574" lon="-2.3290146">
        <ele>86.550</ele>
        <time>2018-08-24T10:43:05.720Z</time>
      </trkpt>
      <trkpt lat="47.7306622" lon="-2.3290400">
        <ele>86.783</ele>
        <time>2018-08-24T10:43:08.684Z</time>
      </trkpt>
      <trkpt lat="47.7305691" lon="-2.3290632">
        <ele>86.899</ele>
        <time>2018-08-24T10:43:11.602Z</time>
      </trkpt>
      <trkpt lat="47.7304563" lon="-2.3290851">
        <ele>86.966</ele>
        <time>2018-08-24T10:43:15.202Z</time>
      </trkpt>
      <trkpt lat="47.7303445" lon="-2.3291199">
        <ele>87.106</ele>
        <time>2018-08-24T10:43:18.966Z</time>
      </trkpt>
      <trkpt lat="47.7302565" lon="-2.3291567">
        <ele>87.472</ele>
        <time>2018-08-24T10:43:22.046Z</time>
      </trkpt>
      <trkpt lat="47.7301665" lon="-2.3291958">
        <ele>88.115</ele>
        <time>2018-08-24T10:43:25.214Z</time>
      </trkpt>
      <trkpt lat="47.7300631" lon="-2.3292283">
        <ele>88.843</ele>
        <time>2018-08-24T10:43:28.838Z</time>
      </trkpt>
      <trkpt lat="47.7299733" lon="-2.3292484">
        <ele>89.359</ele>
        <time>2018-08-24T10:43:32.008Z</time>
      </trkpt>
      <trkpt lat="47.7298662" lon="-2.3292622">
        <ele>89.553</ele>
        <time>2018-08-24T10:43:35.798Z</time>
      </trkpt>
      <trkpt lat="47.7297716" lon="-2.3292769">
        <ele>89.413</ele>
        <time>2018-08-24T10:43:39.253Z</time>
      </trkpt>
      <trkpt lat="47.7296757" lon="-2.3292963">
        <ele>89.005</ele>
        <time>2018-08-24T10:43:42.928Z</time>
      </trkpt>
      <trkpt lat="47.7295863" lon="-2.3293267">
        <ele>88.744</ele>
        <time>2018-08-24T10:43:46.481Z</time>
      </trkpt>
      <trkpt lat="47.7294793" lon="-2.3293757">
        <ele>88.922</ele>
        <time>2018-08-24T10:43:50.540Z</time>
      </trkpt>
      <trkpt lat="47.7293680" lon="-2.3294235">
        <ele>89.287</ele>
        <time>2018-08-24T10:43:54.331Z</time>
      </trkpt>
      <trkpt lat="47.7292702" lon="-2.3294539">
        <ele>89.570</ele>
        <time>2018-08-24T10:43:57.490Z</time>
      </trkpt>
      <trkpt lat="47.7291783" lon="-2.3294725">
        <ele>89.745</ele>
        <time>2018-08-24T10:44:00.428Z</time>
      </trkpt>
      <trkpt lat="47.7290857" lon="-2.3294839">
        <ele>89.834</ele>
        <time>2018-08-24T10:44:03.397Z</time>
      </trkpt>
      <trkpt lat="47.7289662" lon="-2.3294984">
        <ele>89.858</ele>
        <time>2018-08-24T10:44:07.246Z</time>
      </trkpt>
      <trkpt lat="47.7288681" lon="-2.3295329">
        <ele>89.850</ele>
        <time>2018-08-24T10:44:10.457Z</time>
      </trkpt>
      <trkpt lat="47.7287738" lon="-2.3295637">
        <ele>89.893</ele>
        <time>2018-08-24T10:44:13.491Z</time>
      </trkpt>
      <trkpt lat="47.7286824" lon="-2.3295870">
        <ele>90.027</ele>
        <time>2018-08-24T10:44:16.431Z</time>
      </trkpt>
      <trkpt lat="47.7285733" lon="-2.3296270">
        <ele>90.164</ele>
        <time>2018-08-24T10:44:20.093Z</time>
      </trkpt>
      <trkpt lat="47.7284533" lon="-2.3296575">
        <ele>90.195</ele>
        <time>2018-08-24T10:44:24.174Z</time>
      </trkpt>
      <trkpt lat="47.7283539" lon="-2.3297123">
        <ele>90.051</ele>
        <time>2018-08-24T10:44:27.587Z</time>
      </trkpt>
      <trkpt lat="47.7282473" lon="-2.3297864">
        <ele>89.777</ele>
        <time>2018-08-24T10:44:31.150Z</time>
      </trkpt>
      <trkpt lat="47.7281550" lon="-2.3298465">
        <ele>89.529</ele>
        <time>2018-08-24T10:44:34.100Z</time>
      </trkpt>
      <trkpt lat="47.7280603" lon="-2.3298916">
        <ele>89.447</ele>
        <time>2018-08-24T10:44:37.017Z</time>
      </trkpt>
      <trkpt lat="47.7279687" lon="-2.3299389">
        <ele>89.621</ele>
        <time>2018-08-24T10:44:39.936Z</time>
      </trkpt>
      <trkpt lat="47.7278572" lon="-2.3299961">
        <ele>90.276</ele>
        <time>2018-08-24T10:44:43.578Z</time>
      </trkpt>
      <trkpt lat="47.7277660" lon="-2.3300358">
        <ele>91.396</ele>
        <time>2018-08-24T10:44:46.571Z</time>
      </trkpt>
      <trkpt lat="47.7276705" lon="-2.3300872">
        <ele>92.561</ele>
        <time>2018-08-24T10:44:49.737Z</time>
      </trkpt>
      <trkpt lat="47.7275741" lon="-2.3301340">
        <ele>93.443</ele>
        <time>2018-08-24T10:44:52.852Z</time>
      </trkpt>
      <trkpt lat="47.7274784" lon="-2.3301847">
        <ele>93.989</ele>
        <time>2018-08-24T10:44:55.934Z</time>
      </trkpt>
      <trkpt lat="47.7273810" lon="-2.3302273">
        <ele>94.197</ele>
        <time>2018-08-24T10:44:58.959Z</time>
      </trkpt>
      <trkpt lat="47.7272795" lon="-2.3302832">
        <ele>94.171</ele>
        <time>2018-08-24T10:45:02.113Z</time>
      </trkpt>
      <trkpt lat="47.7271807" lon="-2.3303340">
        <ele>94.043</ele>
        <time>2018-08-24T10:45:05.114Z</time>
      </trkpt>
      <trkpt lat="47.7270820" lon="-2.3303807">
        <ele>93.928</ele>
        <time>2018-08-24T10:45:08.091Z</time>
      </trkpt>
      <trkpt lat="47.7269868" lon="-2.3304179">
        <ele>93.878</ele>
        <time>2018-08-24T10:45:10.941Z</time>
      </trkpt>
      <trkpt lat="47.7268911" lon="-2.3304662">
        <ele>93.825</ele>
        <time>2018-08-24T10:45:13.884Z</time>
      </trkpt>
      <trkpt lat="47.7267909" lon="-2.3305192">
        <ele>93.695</ele>
        <time>2018-08-24T10:45:16.963Z</time>
      </trkpt>
      <trkpt lat="47.7266899" lon="-2.3305694">
        <ele>93.492</ele>
        <time>2018-08-24T10:45:20.010Z</time>
      </trkpt>
      <trkpt lat="47.7265927" lon="-2.3306178">
        <ele>93.284</ele>
        <time>2018-08-24T10:45:22.942Z</time>
      </trkpt>
      <trkpt lat="47.7264989" lon="-2.3306493">
        <ele>93.210</ele>
        <time>2018-08-24T10:45:25.732Z</time>
      </trkpt>
      <trkpt lat="47.7264077" lon="-2.3306854">
        <ele>93.352</ele>
        <time>2018-08-24T10:45:28.524Z</time>
      </trkpt>
      <trkpt lat="47.7263153" lon="-2.3307235">
        <ele>93.713</ele>
        <time>2018-08-24T10:45:31.392Z</time>
      </trkpt>
      <trkpt lat="47.7262187" lon="-2.3307610">
        <ele>94.255</ele>
        <time>2018-08-24T10:45:34.391Z</time>
      </trkpt>
      <trkpt lat="47.7261289" lon="-2.3308017">
        <ele>94.861</ele>
        <time>2018-08-24T10:45:37.223Z</time>
      </trkpt>
      <trkpt lat="47.7260347" lon="-2.3308533">
        <ele>95.549</ele>
        <time>2018-08-24T10:45:40.256Z</time>
      </trkpt>
      <trkpt lat="47.7259399" lon="-2.3309055">
        <ele>96.347</ele>
        <time>2018-08-24T10:45:43.292Z</time>
      </trkpt>
      <trkpt lat="47.7258471" lon="-2.3309563">
        <ele>97.009</ele>
        <time>2018-08-24T10:45:46.256Z</time>
      </trkpt>
      <trkpt lat="47.7257544" lon="-2.3310123">
        <ele>97.350</ele>
        <time>2018-08-24T10:45:49.260Z</time>
      </trkpt>
      <trkpt lat="47.7256656" lon="-2.3310626">
        <ele>97.441</ele>
        <time>2018-08-24T10:45:52.145Z</time>
      </trkpt>
      <trkpt lat="47.7255795" lon="-2.3311034">
        <ele>97.407</ele>
        <time>2018-08-24T10:45:54.945Z</time>
      </trkpt>
      <trkpt lat="47.7254923" lon="-2.3311404">
        <ele>97.336</ele>
        <time>2018-08-24T10:45:57.816Z</time>
      </trkpt>
      <trkpt lat="47.7253789" lon="-2.3312063">
        <ele>97.266</ele>
        <time>2018-08-24T10:46:01.735Z</time>
      </trkpt>
      <trkpt lat="47.7252705" lon="-2.3312837">
        <ele>97.168</ele>
        <time>2018-08-24T10:46:05.641Z</time>
      </trkpt>
      <trkpt lat="47.7251920" lon="-2.3313515">
        <ele>97.017</ele>
        <time>2018-08-24T10:46:08.583Z</time>
      </trkpt>
      <trkpt lat="47.7250877" lon="-2.3314286">
        <ele>96.710</ele>
        <time>2018-08-24T10:46:12.363Z</time>
      </trkpt>
      <trkpt lat="47.7249803" lon="-2.3315012">
        <ele>96.209</ele>
        <time>2018-08-24T10:46:16.206Z</time>
      </trkpt>
      <trkpt lat="47.7248788" lon="-2.3315822">
        <ele>95.728</ele>
        <time>2018-08-24T10:46:20.000Z</time>
      </trkpt>
      <trkpt lat="47.7248788" lon="-2.3315822">
        <ele>95.488</ele>
        <time>2018-08-24T10:46:23.000Z</time>
      </trkpt>
      <trkpt lat="47.7248788" lon="-2.3315822">
        <ele>95.441</ele>
        <time>2018-08-24T10:46:23.100Z</time>
      </trkpt>
      <trkpt lat="47.7246569" lon="-2.3317633">
        <ele>95.445</ele>
        <time>2018-08-24T10:46:32.944Z</time>
      </trkpt>
      <trkpt lat="47.7245663" lon="-2.3318436">
        <ele>95.412</ele>
        <time>2018-08-24T10:46:35.963Z</time>
      </trkpt>
      <trkpt lat="47.7244780" lon="-2.3319265">
        <ele>95.346</ele>
        <time>2018-08-24T10:46:38.938Z</time>
      </trkpt>
      <trkpt lat="47.7243925" lon="-2.3320118">
        <ele>95.267</ele>
        <time>2018-08-24T10:46:41.810Z</time>
      </trkpt>
      <trkpt lat="47.7243039" lon="-2.3320901">
        <ele>95.147</ele>
        <time>2018-08-24T10:46:44.591Z</time>
      </trkpt>
      <trkpt lat="47.7242096" lon="-2.3321745">
        <ele>94.955</ele>
        <time>2018-08-24T10:46:47.492Z</time>
      </trkpt>
      <trkpt lat="47.7241138" lon="-2.3322678">
        <ele>94.707</ele>
        <time>2018-08-24T10:46:50.495Z</time>
      </trkpt>
      <trkpt lat="47.7240198" lon="-2.3323567">
        <ele>94.313</ele>
        <time>2018-08-24T10:46:53.435Z</time>
      </trkpt>
      <trkpt lat="47.7239246" lon="-2.3324366">
        <ele>93.662</ele>
        <time>2018-08-24T10:46:56.338Z</time>
      </trkpt>
      <trkpt lat="47.7238327" lon="-2.3325221">
        <ele>92.876</ele>
        <time>2018-08-24T10:46:59.227Z</time>
      </trkpt>
      <trkpt lat="47.7237364" lon="-2.3326064">
        <ele>92.100</ele>
        <time>2018-08-24T10:47:02.236Z</time>
      </trkpt>
      <trkpt lat="47.7236356" lon="-2.3326742">
        <ele>91.290</ele>
        <time>2018-08-24T10:47:05.266Z</time>
      </trkpt>
      <trkpt lat="47.7235342" lon="-2.3327170">
        <ele>90.497</ele>
        <time>2018-08-24T10:47:08.153Z</time>
      </trkpt>
      <trkpt lat="47.7234259" lon="-2.3327416">
        <ele>89.872</ele>
        <time>2018-08-24T10:47:11.113Z</time>
      </trkpt>
      <trkpt lat="47.7233143" lon="-2.3327541">
        <ele>89.411</ele>
        <time>2018-08-24T10:47:14.137Z</time>
      </trkpt>
      <trkpt lat="47.7232019" lon="-2.3327617">
        <ele>89.067</ele>
        <time>2018-08-24T10:47:17.216Z</time>
      </trkpt>
      <trkpt lat="47.7230950" lon="-2.3327618">
        <ele>88.866</ele>
        <time>2018-08-24T10:47:20.104Z</time>
      </trkpt>
      <trkpt lat="47.7229841" lon="-2.3327577">
        <ele>88.826</ele>
        <time>2018-08-24T10:47:22.918Z</time>
      </trkpt>
      <trkpt lat="47.7228612" lon="-2.3327576">
        <ele>88.939</ele>
        <time>2018-08-24T10:47:25.758Z</time>
      </trkpt>
      <trkpt lat="47.7227139" lon="-2.3327564">
        <ele>89.113</ele>
        <time>2018-08-24T10:47:28.787Z</time>
      </trkpt>
      <trkpt lat="47.7225582" lon="-2.3327748">
        <ele>89.002</ele>
        <time>2018-08-24T10:47:31.641Z</time>
      </trkpt>
      <trkpt lat="47.7224426" lon="-2.3327917">
        <ele>88.222</ele>
        <time>2018-08-24T10:47:33.678Z</time>
      </trkpt>
      <trkpt lat="47.7222594" lon="-2.3328537">
        <ele>87.011</ele>
        <time>2018-08-24T10:47:36.873Z</time>
      </trkpt>
      <trkpt lat="47.7221061" lon="-2.3328583">
        <ele>85.993</ele>
        <time>2018-08-24T10:47:39.384Z</time>
      </trkpt>
      <trkpt lat="47.7219796" lon="-2.3329204">
        <ele>85.418</ele>
        <time>2018-08-24T10:47:41.528Z</time>
      </trkpt>
      <trkpt lat="47.7218746" lon="-2.3329472">
        <ele>85.107</ele>
        <time>2018-08-24T10:47:43.170Z</time>
      </trkpt>
      <trkpt lat="47.7217277" lon="-2.3330012">
        <ele>84.820</ele>
        <time>2018-08-24T10:47:45.423Z</time>
      </trkpt>
      <trkpt lat="47.7215936" lon="-2.3330468">
        <ele>84.462</ele>
        <time>2018-08-24T10:47:47.414Z</time>
      </trkpt>
      <trkpt lat="47.7214847" lon="-2.3330900">
        <ele>84.011</ele>
        <time>2018-08-24T10:47:49.031Z</time>
      </trkpt>
      <trkpt lat="47.7212608" lon="-2.3331751">
        <ele>83.215</ele>
        <time>2018-08-24T10:47:52.179Z</time>
      </trkpt>
      <trkpt lat="47.7210467" lon="-2.3332845">
        <ele>81.961</ele>
        <time>2018-08-24T10:47:55.176Z</time>
      </trkpt>
      <trkpt lat="47.7209060" lon="-2.3333437">
        <ele>80.465</ele>
        <time>2018-08-24T10:47:57.102Z</time>
      </trkpt>
      <trkpt lat="47.7206910" lon="-2.3334412">
        <ele>79.119</ele>
        <time>2018-08-24T10:48:00.066Z</time>
      </trkpt>
      <trkpt lat="47.7205501" lon="-2.3335449">
        <ele>78.289</ele>
        <time>2018-08-24T10:48:02.146Z</time>
      </trkpt>
      <trkpt lat="47.7204106" lon="-2.3336420">
        <ele>77.924</ele>
        <time>2018-08-24T10:48:04.191Z</time>
      </trkpt>
      <trkpt lat="47.7202064" lon="-2.3337800">
        <ele>77.268</ele>
        <time>2018-08-24T10:48:07.192Z</time>
      </trkpt>
      <trkpt lat="47.7199974" lon="-2.3339356">
        <ele>76.031</ele>
        <time>2018-08-24T10:48:10.392Z</time>
      </trkpt>
      <trkpt lat="47.7198228" lon="-2.3340524">
        <ele>74.897</ele>
        <time>2018-08-24T10:48:13.023Z</time>
      </trkpt>
      <trkpt lat="47.7196262" lon="-2.3342155">
        <ele>74.267</ele>
        <time>2018-08-24T10:48:16.016Z</time>
      </trkpt>
      <trkpt lat="47.7194859" lon="-2.3343034">
        <ele>73.866</ele>
        <time>2018-08-24T10:48:18.021Z</time>
      </trkpt>
      <trkpt lat="47.7192754" lon="-2.3344579">
        <ele>73.499</ele>
        <time>2018-08-24T10:48:21.156Z</time>
      </trkpt>
      <trkpt lat="47.7190659" lon="-2.3345530">
        <ele>73.041</ele>
        <time>2018-08-24T10:48:24.105Z</time>
      </trkpt>
      <trkpt lat="47.7189215" lon="-2.3345958">
        <ele>72.355</ele>
        <time>2018-08-24T10:48:26.050Z</time>
      </trkpt>
      <trkpt lat="47.7187689" lon="-2.3346006">
        <ele>71.564</ele>
        <time>2018-08-24T10:48:28.007Z</time>
      </trkpt>
      <trkpt lat="47.7186145" lon="-2.3346016">
        <ele>70.926</ele>
        <time>2018-08-24T10:48:29.931Z</time>
      </trkpt>
      <trkpt lat="47.7184553" lon="-2.3345936">
        <ele>70.514</ele>
        <time>2018-08-24T10:48:31.892Z</time>
      </trkpt>
      <trkpt lat="47.7182239" lon="-2.3345127">
        <ele>70.065</ele>
        <time>2018-08-24T10:48:35.027Z</time>
      </trkpt>
      <trkpt lat="47.7180957" lon="-2.3344827">
        <ele>69.172</ele>
        <time>2018-08-24T10:48:36.849Z</time>
      </trkpt>
      <trkpt lat="47.7178943" lon="-2.3344101">
        <ele>67.724</ele>
        <time>2018-08-24T10:48:39.945Z</time>
      </trkpt>
      <trkpt lat="47.7177788" lon="-2.3343884">
        <ele>66.023</ele>
        <time>2018-08-24T10:48:41.686Z</time>
      </trkpt>
      <trkpt lat="47.7175633" lon="-2.3343957">
        <ele>64.397</ele>
        <time>2018-08-24T10:48:44.788Z</time>
      </trkpt>
      <trkpt lat="47.7173584" lon="-2.3343955">
        <ele>62.658</ele>
        <time>2018-08-24T10:48:47.720Z</time>
      </trkpt>
      <trkpt lat="47.7172169" lon="-2.3343858">
        <ele>60.237</ele>
        <time>2018-08-24T10:48:49.871Z</time>
      </trkpt>
      <trkpt lat="47.7170816" lon="-2.3344009">
        <ele>57.185</ele>
        <time>2018-08-24T10:48:52.036Z</time>
      </trkpt>
      <trkpt lat="47.7169084" lon="-2.3344674">
        <ele>54.519</ele>
        <time>2018-08-24T10:48:54.701Z</time>
      </trkpt>
      <trkpt lat="47.7168028" lon="-2.3345777">
        <ele>52.862</ele>
        <time>2018-08-24T10:48:56.288Z</time>
      </trkpt>
      <trkpt lat="47.7166008" lon="-2.3349383">
        <ele>51.866</ele>
        <time>2018-08-24T10:48:59.512Z</time>
      </trkpt>
      <trkpt lat="47.7164638" lon="-2.3351378">
        <ele>51.021</ele>
        <time>2018-08-24T10:49:01.314Z</time>
      </trkpt>
      <trkpt lat="47.7163169" lon="-2.3353408">
        <ele>49.543</ele>
        <time>2018-08-24T10:49:03.217Z</time>
      </trkpt>
      <trkpt lat="47.7160989" lon="-2.3355687">
        <ele>46.817</ele>
        <time>2018-08-24T10:49:05.846Z</time>
      </trkpt>
      <trkpt lat="47.7159366" lon="-2.3357356">
        <ele>43.519</ele>
        <time>2018-08-24T10:49:08.016Z</time>
      </trkpt>
      <trkpt lat="47.7157314" lon="-2.3359415">
        <ele>40.730</ele>
        <time>2018-08-24T10:49:11.017Z</time>
      </trkpt>
      <trkpt lat="47.7156101" lon="-2.3360317">
        <ele>38.921</ele>
        <time>2018-08-24T10:49:12.995Z</time>
      </trkpt>
      <trkpt lat="47.7154395" lon="-2.3361514">
        <ele>38.141</ele>
        <time>2018-08-24T10:49:15.845Z</time>
      </trkpt>
      <trkpt lat="47.7153205" lon="-2.3362220">
        <ele>37.856</ele>
        <time>2018-08-24T10:49:17.731Z</time>
      </trkpt>
      <trkpt lat="47.7151845" lon="-2.3362955">
        <ele>37.045</ele>
        <time>2018-08-24T10:49:19.806Z</time>
      </trkpt>
      <trkpt lat="47.7149799" lon="-2.3363802">
        <ele>35.427</ele>
        <time>2018-08-24T10:49:22.843Z</time>
      </trkpt>
      <trkpt lat="47.7147808" lon="-2.3364486">
        <ele>33.800</ele>
        <time>2018-08-24T10:49:25.726Z</time>
      </trkpt>
      <trkpt lat="47.7146280" lon="-2.3365284">
        <ele>32.652</ele>
        <time>2018-08-24T10:49:27.979Z</time>
      </trkpt>
      <trkpt lat="47.7144405" lon="-2.3365523">
        <ele>31.828</ele>
        <time>2018-08-24T10:49:30.582Z</time>
      </trkpt>
      <trkpt lat="47.7142093" lon="-2.3365825">
        <ele>31.101</ele>
        <time>2018-08-24T10:49:33.705Z</time>
      </trkpt>
      <trkpt lat="47.7140581" lon="-2.3365693">
        <ele>30.242</ele>
        <time>2018-08-24T10:49:35.636Z</time>
      </trkpt>
      <trkpt lat="47.7138940" lon="-2.3365614">
        <ele>29.209</ele>
        <time>2018-08-24T10:49:37.638Z</time>
      </trkpt>
      <trkpt lat="47.7136440" lon="-2.3365504">
        <ele>28.176</ele>
        <time>2018-08-24T10:49:40.633Z</time>
      </trkpt>
      <trkpt lat="47.7134698" lon="-2.3365719">
        <ele>27.260</ele>
        <time>2018-08-24T10:49:42.748Z</time>
      </trkpt>
      <trkpt lat="47.7132504" lon="-2.3365391">
        <ele>26.495</ele>
        <time>2018-08-24T10:49:45.463Z</time>
      </trkpt>
      <trkpt lat="47.7130980" lon="-2.3365045">
        <ele>25.697</ele>
        <time>2018-08-24T10:49:47.449Z</time>
      </trkpt>
      <trkpt lat="47.7128817" lon="-2.3364408">
        <ele>24.601</ele>
        <time>2018-08-24T10:49:50.406Z</time>
      </trkpt>
      <trkpt lat="47.7127485" lon="-2.3363885">
        <ele>23.334</ele>
        <time>2018-08-24T10:49:52.370Z</time>
      </trkpt>
      <trkpt lat="47.7125463" lon="-2.3362937">
        <ele>22.404</ele>
        <time>2018-08-24T10:49:55.492Z</time>
      </trkpt>
      <trkpt lat="47.7124372" lon="-2.3362113">
        <ele>21.588</ele>
        <time>2018-08-24T10:49:57.493Z</time>
      </trkpt>
      <trkpt lat="47.7122825" lon="-2.3360990">
        <ele>20.152</ele>
        <time>2018-08-24T10:50:00.942Z</time>
      </trkpt>
      <trkpt lat="47.7121869" lon="-2.3360803">
        <ele>18.339</ele>
        <time>2018-08-24T10:50:03.809Z</time>
      </trkpt>
      <trkpt lat="47.7120966" lon="-2.3361085">
        <ele>17.188</ele>
        <time>2018-08-24T10:50:07.130Z</time>
      </trkpt>
      <trkpt lat="47.7119967" lon="-2.3362080">
        <ele>17.435</ele>
        <time>2018-08-24T10:50:11.431Z</time>
      </trkpt>
      <trkpt lat="47.7119131" lon="-2.3362856">
        <ele>18.883</ele>
        <time>2018-08-24T10:50:14.528Z</time>
      </trkpt>
      <trkpt lat="47.7118244" lon="-2.3363587">
        <ele>20.587</ele>
        <time>2018-08-24T10:50:17.526Z</time>
      </trkpt>
      <trkpt lat="47.7117367" lon="-2.3364356">
        <ele>21.865</ele>
        <time>2018-08-24T10:50:20.451Z</time>
      </trkpt>
      <trkpt lat="47.7116431" lon="-2.3365112">
        <ele>22.707</ele>
        <time>2018-08-24T10:50:23.463Z</time>
      </trkpt>
      <trkpt lat="47.7115537" lon="-2.3365823">
        <ele>23.225</ele>
        <time>2018-08-24T10:50:26.322Z</time>
      </trkpt>
      <trkpt lat="47.7114652" lon="-2.3366543">
        <ele>23.511</ele>
        <time>2018-08-24T10:50:29.182Z</time>
      </trkpt>
      <trkpt lat="47.7113827" lon="-2.3367257">
        <ele>23.609</ele>
        <time>2018-08-24T10:50:31.915Z</time>
      </trkpt>
      <trkpt lat="47.7113011" lon="-2.3368008">
        <ele>23.481</ele>
        <time>2018-08-24T10:50:34.751Z</time>
      </trkpt>
      <trkpt lat="47.7112196" lon="-2.3368644">
        <ele>23.140</ele>
        <time>2018-08-24T10:50:37.607Z</time>
      </trkpt>
      <trkpt lat="47.7111132" lon="-2.3369381">
        <ele>22.809</ele>
        <time>2018-08-24T10:50:41.428Z</time>
      </trkpt>
      <trkpt lat="47.7110305" lon="-2.3369914">
        <ele>22.652</ele>
        <time>2018-08-24T10:50:44.436Z</time>
      </trkpt>
      <trkpt lat="47.7109460" lon="-2.3370432">
        <ele>22.532</ele>
        <time>2018-08-24T10:50:47.493Z</time>
      </trkpt>
      <trkpt lat="47.7108403" lon="-2.3370822">
        <ele>22.327</ele>
        <time>2018-08-24T10:50:51.242Z</time>
      </trkpt>
      <trkpt lat="47.7107278" lon="-2.3371128">
        <ele>22.144</ele>
        <time>2018-08-24T10:50:55.327Z</time>
      </trkpt>
      <trkpt lat="47.7106266" lon="-2.3371365">
        <ele>22.101</ele>
        <time>2018-08-24T10:50:59.000Z</time>
      </trkpt>
      <trkpt lat="47.7106266" lon="-2.3371365">
        <ele>22.124</ele>
        <time>2018-08-24T10:50:59.000Z</time>
      </trkpt>
      <trkpt lat="47.7106266" lon="-2.3371365">
        <ele>22.122</ele>
        <time>2018-08-24T10:50:59.961Z</time>
      </trkpt>
      <trkpt lat="47.7104704" lon="-2.3371843">
        <ele>22.097</ele>
        <time>2018-08-24T10:51:08.759Z</time>
      </trkpt>
      <trkpt lat="47.7103561" lon="-2.3372187">
        <ele>22.049</ele>
        <time>2018-08-24T10:51:12.847Z</time>
      </trkpt>
      <trkpt lat="47.7102647" lon="-2.3372466">
        <ele>21.946</ele>
        <time>2018-08-24T10:51:15.949Z</time>
      </trkpt>
      <trkpt lat="47.7101743" lon="-2.3372726">
        <ele>21.771</ele>
        <time>2018-08-24T10:51:18.934Z</time>
      </trkpt>
      <trkpt lat="47.7100832" lon="-2.3372942">
        <ele>21.571</ele>
        <time>2018-08-24T10:51:21.854Z</time>
      </trkpt>
      <trkpt lat="47.7099870" lon="-2.3373214">
        <ele>21.492</ele>
        <time>2018-08-24T10:51:24.867Z</time>
      </trkpt>
      <trkpt lat="47.7098934" lon="-2.3373528">
        <ele>21.604</ele>
        <time>2018-08-24T10:51:27.748Z</time>
      </trkpt>
      <trkpt lat="47.7097954" lon="-2.3373869">
        <ele>21.635</ele>
        <time>2018-08-24T10:51:30.712Z</time>
      </trkpt>
      <trkpt lat="47.7097025" lon="-2.3374262">
        <ele>21.296</ele>
        <time>2018-08-24T10:51:33.557Z</time>
      </trkpt>
      <trkpt lat="47.7096089" lon="-2.3374560">
        <ele>20.614</ele>
        <time>2018-08-24T10:51:36.449Z</time>
      </trkpt>
      <trkpt lat="47.7095203" lon="-2.3374823">
        <ele>19.765</ele>
        <time>2018-08-24T10:51:39.275Z</time>
      </trkpt>
      <trkpt lat="47.7094049" lon="-2.3375256">
        <ele>18.997</ele>
        <time>2018-08-24T10:51:43.094Z</time>
      </trkpt>
      <trkpt lat="47.7092963" lon="-2.3375764">
        <ele>18.459</ele>
        <time>2018-08-24T10:51:46.839Z</time>
      </trkpt>
      <trkpt lat="47.7091830" lon="-2.3376162">
        <ele>18.209</ele>
        <time>2018-08-24T10:51:50.795Z</time>
      </trkpt>
      <trkpt lat="47.7090844" lon="-2.3376467">
        <ele>18.311</ele>
        <time>2018-08-24T10:51:54.365Z</time>
      </trkpt>
      <trkpt lat="47.7089930" lon="-2.3376808">
        <ele>18.671</ele>
        <time>2018-08-24T10:51:57.936Z</time>
      </trkpt>
      <trkpt lat="47.7088882" lon="-2.3377030">
        <ele>19.090</ele>
        <time>2018-08-24T10:52:02.335Z</time>
      </trkpt>
      <trkpt lat="47.7087939" lon="-2.3377244">
        <ele>19.751</ele>
        <time>2018-08-24T10:52:06.883Z</time>
      </trkpt>
      <trkpt lat="47.7087031" lon="-2.3377393">
        <ele>20.767</ele>
        <time>2018-08-24T10:52:11.582Z</time>
      </trkpt>
      <trkpt lat="47.7085978" lon="-2.3377493">
        <ele>21.766</ele>
        <time>2018-08-24T10:52:17.227Z</time>
      </trkpt>
      <trkpt lat="47.7085035" lon="-2.3377440">
        <ele>22.380</ele>
        <time>2018-08-24T10:52:22.285Z</time>
      </trkpt>
      <trkpt lat="47.7083981" lon="-2.3377117">
        <ele>22.648</ele>
        <time>2018-08-24T10:52:27.986Z</time>
      </trkpt>
      <trkpt lat="47.7082995" lon="-2.3376777">
        <ele>22.708</ele>
        <time>2018-08-24T10:52:33.256Z</time>
      </trkpt>
      <trkpt lat="47.7082009" lon="-2.3376325">
        <ele>22.708</ele>
        <time>2018-08-24T10:52:38.409Z</time>
      </trkpt>
      <trkpt lat="47.7080995" lon="-2.3375711">
        <ele>22.715</ele>
        <time>2018-08-24T10:52:43.601Z</time>
      </trkpt>
      <trkpt lat="47.7080170" lon="-2.3375124">
        <ele>22.702</ele>
        <time>2018-08-24T10:52:47.756Z</time>
      </trkpt>
      <trkpt lat="47.7079338" lon="-2.3374424">
        <ele>22.569</ele>
        <time>2018-08-24T10:52:51.916Z</time>
      </trkpt>
      <trkpt lat="47.7078494" lon="-2.3373766">
        <ele>22.213</ele>
        <time>2018-08-24T10:52:55.905Z</time>
      </trkpt>
      <trkpt lat="47.7077599" lon="-2.3373069">
        <ele>21.738</ele>
        <time>2018-08-24T10:52:59.988Z</time>
      </trkpt>
      <trkpt lat="47.7076692" lon="-2.3372468">
        <ele>21.408</ele>
        <time>2018-08-24T10:53:03.882Z</time>
      </trkpt>
      <trkpt lat="47.7075744" lon="-2.3371826">
        <ele>21.324</ele>
        <time>2018-08-24T10:53:07.896Z</time>
      </trkpt>
      <trkpt lat="47.7074789" lon="-2.3371045">
        <ele>21.371</ele>
        <time>2018-08-24T10:53:11.989Z</time>
      </trkpt>
      <trkpt lat="47.7073833" lon="-2.3370259">
        <ele>21.509</ele>
        <time>2018-08-24T10:53:15.954Z</time>
      </trkpt>
      <trkpt lat="47.7072905" lon="-2.3369564">
        <ele>21.765</ele>
        <time>2018-08-24T10:53:19.674Z</time>
      </trkpt>
      <trkpt lat="47.7071931" lon="-2.3368853">
        <ele>22.083</ele>
        <time>2018-08-24T10:53:23.562Z</time>
      </trkpt>
      <trkpt lat="47.7070885" lon="-2.3368033">
        <ele>22.429</ele>
        <time>2018-08-24T10:53:27.739Z</time>
      </trkpt>
      <trkpt lat="47.7070069" lon="-2.3367410">
        <ele>22.881</ele>
        <time>2018-08-24T10:53:30.875Z</time>
      </trkpt>
      <trkpt lat="47.7069252" lon="-2.3366827">
        <ele>23.510</ele>
        <time>2018-08-24T10:53:33.879Z</time>
      </trkpt>
      <trkpt lat="47.7068170" lon="-2.3366197">
        <ele>24.281</ele>
        <time>2018-08-24T10:53:37.697Z</time>
      </trkpt>
      <trkpt lat="47.7067060" lon="-2.3365941">
        <ele>25.168</ele>
        <time>2018-08-24T10:53:41.438Z</time>
      </trkpt>
      <trkpt lat="47.7065992" lon="-2.3366112">
        <ele>26.208</ele>
        <time>2018-08-24T10:53:45.104Z</time>
      </trkpt>
      <trkpt lat="47.7064971" lon="-2.3365818">
        <ele>27.317</ele>
        <time>2018-08-24T10:53:48.780Z</time>
      </trkpt>
      <trkpt lat="47.7064372" lon="-2.3364803">
        <ele>28.240</ele>
        <time>2018-08-24T10:53:52.093Z</time>
      </trkpt>
      <trkpt lat="47.7063884" lon="-2.3363354">
        <ele>28.867</ele>
        <time>2018-08-24T10:53:56.055Z</time>
      </trkpt>
      <trkpt lat="47.7063012" lon="-2.3362056">
        <ele>29.265</ele>
        <time>2018-08-24T10:54:00.000Z</time>
      </trkpt>
      <trkpt lat="47.7063012" lon="-2.3362056">
        <ele>29.445</ele>
        <time>2018-08-24T10:54:00.000Z</time>
      </trkpt>
      <trkpt lat="47.7063012" lon="-2.3362056">
        <ele>29.412</ele>
        <time>2018-08-24T10:54:00.100Z</time>
      </trkpt>
      <trkpt lat="47.7061614" lon="-2.3360727">
        <ele>29.306</ele>
        <time>2018-08-24T10:54:05.937Z</time>
      </trkpt>
      <trkpt lat="47.7060403" lon="-2.3359912">
        <ele>29.052</ele>
        <time>2018-08-24T10:54:08.881Z</time>
      </trkpt>
      <trkpt lat="47.7059065" lon="-2.3359471">
        <ele>28.552</ele>
        <time>2018-08-24T10:54:11.712Z</time>
      </trkpt>
      <trkpt lat="47.7058000" lon="-2.3359382">
        <ele>28.131</ele>
        <time>2018-08-24T10:54:13.663Z</time>
      </trkpt>
      <trkpt lat="47.7056822" lon="-2.3359462">
        <ele>28.082</ele>
        <time>2018-08-24T10:54:15.639Z</time>
      </trkpt>
      <trkpt lat="47.7055105" lon="-2.3360246">
        <ele>28.117</ele>
        <time>2018-08-24T10:54:18.536Z</time>
      </trkpt>
      <trkpt lat="47.7053204" lon="-2.3360782">
        <ele>27.773</ele>
        <time>2018-08-24T10:54:21.538Z</time>
      </trkpt>
      <trkpt lat="47.7051899" lon="-2.3361085">
        <ele>26.905</ele>
        <time>2018-08-24T10:54:23.571Z</time>
      </trkpt>
      <trkpt lat="47.7050242" lon="-2.3361878">
        <ele>25.829</ele>
        <time>2018-08-24T10:54:26.336Z</time>
      </trkpt>
      <trkpt lat="47.7048578" lon="-2.3363018">
        <ele>24.936</ele>
        <time>2018-08-24T10:54:29.440Z</time>
      </trkpt>
      <trkpt lat="47.7047681" lon="-2.3363618">
        <ele>24.231</ele>
        <time>2018-08-24T10:54:31.251Z</time>
      </trkpt>
      <trkpt lat="47.7046290" lon="-2.3364812">
        <ele>23.624</ele>
        <time>2018-08-24T10:54:34.329Z</time>
      </trkpt>
      <trkpt lat="47.7045402" lon="-2.3365138">
        <ele>23.086</ele>
        <time>2018-08-24T10:54:36.157Z</time>
      </trkpt>
      <trkpt lat="47.7044421" lon="-2.3366049">
        <ele>22.533</ele>
        <time>2018-08-24T10:54:38.518Z</time>
      </trkpt>
      <trkpt lat="47.7043322" lon="-2.3367146">
        <ele>22.017</ele>
        <time>2018-08-24T10:54:41.283Z</time>
      </trkpt>
      <trkpt lat="47.7042011" lon="-2.3367828">
        <ele>21.624</ele>
        <time>2018-08-24T10:54:44.318Z</time>
      </trkpt>
      <trkpt lat="47.7040943" lon="-2.3368810">
        <ele>21.199</ele>
        <time>2018-08-24T10:54:47.198Z</time>
      </trkpt>
      <trkpt lat="47.7039675" lon="-2.3369563">
        <ele>20.696</ele>
        <time>2018-08-24T10:54:50.313Z</time>
      </trkpt>
      <trkpt lat="47.7038433" lon="-2.3370272">
        <ele>20.260</ele>
        <time>2018-08-24T10:54:53.278Z</time>
      </trkpt>
      <trkpt lat="47.7037205" lon="-2.3371021">
        <ele>20.099</ele>
        <time>2018-08-24T10:54:56.277Z</time>
      </trkpt>
      <trkpt lat="47.7036055" lon="-2.3371795">
        <ele>20.257</ele>
        <time>2018-08-24T10:54:59.212Z</time>
      </trkpt>
      <trkpt lat="47.7034986" lon="-2.3372562">
        <ele>20.528</ele>
        <time>2018-08-24T10:55:02.049Z</time>
      </trkpt>
      <trkpt lat="47.7033912" lon="-2.3373332">
        <ele>20.683</ele>
        <time>2018-08-24T10:55:04.982Z</time>
      </trkpt>
      <trkpt lat="47.7032893" lon="-2.3374103">
        <ele>20.522</ele>
        <time>2018-08-24T10:55:07.926Z</time>
      </trkpt>
      <trkpt lat="47.7031988" lon="-2.3374828">
        <ele>19.996</ele>
        <time>2018-08-24T10:55:10.758Z</time>
      </trkpt>
      <trkpt lat="47.7031113" lon="-2.3375346">
        <ele>19.487</ele>
        <time>2018-08-24T10:55:13.536Z</time>
      </trkpt>
      <trkpt lat="47.7030251" lon="-2.3375840">
        <ele>19.310</ele>
        <time>2018-08-24T10:55:16.431Z</time>
      </trkpt>
      <trkpt lat="47.7029121" lon="-2.3376387">
        <ele>19.353</ele>
        <time>2018-08-24T10:55:20.319Z</time>
      </trkpt>
      <trkpt lat="47.7028200" lon="-2.3376519">
        <ele>19.327</ele>
        <time>2018-08-24T10:55:23.357Z</time>
      </trkpt>
      <trkpt lat="47.7027143" lon="-2.3376586">
        <ele>19.055</ele>
        <time>2018-08-24T10:55:26.920Z</time>
      </trkpt>
      <trkpt lat="47.7026139" lon="-2.3376493">
        <ele>18.639</ele>
        <time>2018-08-24T10:55:30.650Z</time>
      </trkpt>
      <trkpt lat="47.7025108" lon="-2.3376413">
        <ele>18.262</ele>
        <time>2018-08-24T10:55:34.712Z</time>
      </trkpt>
      <trkpt lat="47.7024091" lon="-2.3376468">
        <ele>18.003</ele>
        <time>2018-08-24T10:55:38.843Z</time>
      </trkpt>
      <trkpt lat="47.7023165" lon="-2.3376418">
        <ele>17.928</ele>
        <time>2018-08-24T10:55:42.799Z</time>
      </trkpt>
      <trkpt lat="47.7022266" lon="-2.3376230">
        <ele>18.147</ele>
        <time>2018-08-24T10:55:46.959Z</time>
      </trkpt>
      <trkpt lat="47.7021315" lon="-2.3375985">
        <ele>18.669</ele>
        <time>2018-08-24T10:55:51.329Z</time>
      </trkpt>
      <trkpt lat="47.7020240" lon="-2.3375992">
        <ele>19.336</ele>
        <time>2018-08-24T10:55:56.000Z</time>
      </trkpt>
      <trkpt lat="47.7020240" lon="-2.3375992">
        <ele>19.928</ele>
        <time>2018-08-24T10:55:56.000Z</time>
      </trkpt>
      <trkpt lat="47.7020240" lon="-2.3375992">
        <ele>20.229</ele>
        <time>2018-08-24T10:55:56.100Z</time>
      </trkpt>
      <trkpt lat="47.7018764" lon="-2.3376032">
        <ele>20.192</ele>
        <time>2018-08-24T10:56:07.148Z</time>
      </trkpt>
      <trkpt lat="47.7017872" lon="-2.3375802">
        <ele>20.354</ele>
        <time>2018-08-24T10:56:12.706Z</time>
      </trkpt>
      <trkpt lat="47.7016883" lon="-2.3375964">
        <ele>21.090</ele>
        <time>2018-08-24T10:56:19.359Z</time>
      </trkpt>
      <trkpt lat="47.7015914" lon="-2.3376431">
        <ele>21.878</ele>
        <time>2018-08-24T10:56:26.281Z</time>
      </trkpt>
      <trkpt lat="47.7014974" lon="-2.3376497">
        <ele>22.178</ele>
        <time>2018-08-24T10:56:32.445Z</time>
      </trkpt>
      <trkpt lat="47.7013981" lon="-2.3376586">
        <ele>22.152</ele>
        <time>2018-08-24T10:56:38.689Z</time>
      </trkpt>
      <trkpt lat="47.7013032" lon="-2.3376293">
        <ele>22.260</ele>
        <time>2018-08-24T10:56:44.874Z</time>
      </trkpt>
      <trkpt lat="47.7012141" lon="-2.3375648">
        <ele>22.705</ele>
        <time>2018-08-24T10:56:51.530Z</time>
      </trkpt>
      <trkpt lat="47.7011229" lon="-2.3374906">
        <ele>23.196</ele>
        <time>2018-08-24T10:56:58.531Z</time>
      </trkpt>
      <trkpt lat="47.7010386" lon="-2.3374202">
        <ele>23.449</ele>
        <time>2018-08-24T10:57:04.870Z</time>
      </trkpt>
      <trkpt lat="47.7009460" lon="-2.3374136">
        <ele>23.675</ele>
        <time>2018-08-24T10:57:10.873Z</time>
      </trkpt>
      <trkpt lat="47.7008502" lon="-2.3373957">
        <ele>24.368</ele>
        <time>2018-08-24T10:57:19.094Z</time>
      </trkpt>
      <trkpt lat="47.7007576" lon="-2.3373556">
        <ele>25.670</ele>
        <time>2018-08-24T10:57:27.762Z</time>
      </trkpt>
      <trkpt lat="47.7006815" lon="-2.3372718">
        <ele>27.159</ele>
        <time>2018-08-24T10:57:39.000Z</time>
      </trkpt>
      <trkpt lat="47.7006815" lon="-2.3372718">
        <ele>28.325</ele>
        <time>2018-08-24T10:57:49.000Z</time>
      </trkpt>
      <trkpt lat="47.6993473" lon="-2.3348253">
        <ele>52.724</ele>
        <time>2018-08-25T08:36:41.143Z</time>
      </trkpt>
      <trkpt lat="47.6993473" lon="-2.3348253">
        <ele>52.708</ele>
        <time>2018-08-25T08:38:36.999Z</time>
      </trkpt>
      <trkpt lat="47.6993473" lon="-2.3348253">
        <ele>52.682</ele>
        <time>2018-08-25T08:38:57.206Z</time>
      </trkpt>
      <trkpt lat="47.6993998" lon="-2.3348578">
        <ele>52.646</ele>
        <time>2018-08-25T08:39:15.999Z</time>
      </trkpt>
      <trkpt lat="47.6993998" lon="-2.3348578">
        <ele>52.634</ele>
        <time>2018-08-25T08:39:16.999Z</time>
      </trkpt>
      <trkpt lat="47.6993998" lon="-2.3348578">
        <ele>52.612</ele>
        <time>2018-08-25T08:39:18.199Z</time>
      </trkpt>
      <trkpt lat="47.6992482" lon="-2.3350971">
        <ele>52.586</ele>
        <time>2018-08-25T08:39:41.183Z</time>
      </trkpt>
      <trkpt lat="47.6991911" lon="-2.3352107">
        <ele>52.138</ele>
        <time>2018-08-25T08:39:46.276Z</time>
      </trkpt>
      <trkpt lat="47.6992103" lon="-2.3353509">
        <ele>51.002</ele>
        <time>2018-08-25T08:39:51.011Z</time>
      </trkpt>
      <trkpt lat="47.6992294" lon="-2.3354851">
        <ele>49.868</ele>
        <time>2018-08-25T08:39:55.705Z</time>
      </trkpt>
      <trkpt lat="47.6992506" lon="-2.3356351">
        <ele>49.464</ele>
        <time>2018-08-25T08:40:01.297Z</time>
      </trkpt>
      <trkpt lat="47.6992690" lon="-2.3357800">
        <ele>49.652</ele>
        <time>2018-08-25T08:40:06.671Z</time>
      </trkpt>
      <trkpt lat="47.6992902" lon="-2.3359260">
        <ele>50.005</ele>
        <time>2018-08-25T08:40:11.657Z</time>
      </trkpt>
      <trkpt lat="47.6992980" lon="-2.3360708">
        <ele>50.274</ele>
        <time>2018-08-25T08:40:16.270Z</time>
      </trkpt>
      <trkpt lat="47.6993121" lon="-2.3362289">
        <ele>50.563</ele>
        <time>2018-08-25T08:40:21.428Z</time>
      </trkpt>
      <trkpt lat="47.6993701" lon="-2.3363616">
        <ele>51.235</ele>
        <time>2018-08-25T08:40:26.766Z</time>
      </trkpt>
      <trkpt lat="47.6994083" lon="-2.3365124">
        <ele>52.360</ele>
        <time>2018-08-25T08:40:32.300Z</time>
      </trkpt>
      <trkpt lat="47.6994467" lon="-2.3366427">
        <ele>53.540</ele>
        <time>2018-08-25T08:40:37.082Z</time>
      </trkpt>
      <trkpt lat="47.6994649" lon="-2.3367962">
        <ele>54.510</ele>
        <time>2018-08-25T08:40:42.313Z</time>
      </trkpt>
      <trkpt lat="47.6994855" lon="-2.3369361">
        <ele>55.222</ele>
        <time>2018-08-25T08:40:47.372Z</time>
      </trkpt>
      <trkpt lat="47.6995120" lon="-2.3370735">
        <ele>56.022</ele>
        <time>2018-08-25T08:40:52.492Z</time>
      </trkpt>
      <trkpt lat="47.6994425" lon="-2.3372076">
        <ele>57.235</ele>
        <time>2018-08-25T08:40:57.897Z</time>
      </trkpt>
      <trkpt lat="47.6993732" lon="-2.3373317">
        <ele>58.328</ele>
        <time>2018-08-25T08:41:02.256Z</time>
      </trkpt>
      <trkpt lat="47.6993163" lon="-2.3374451">
        <ele>58.697</ele>
        <time>2018-08-25T08:41:05.819Z</time>
      </trkpt>
      <trkpt lat="47.6992142" lon="-2.3374996">
        <ele>58.413</ele>
        <time>2018-08-25T08:41:10.027Z</time>
      </trkpt>
      <trkpt lat="47.6991236" lon="-2.3374918">
        <ele>57.566</ele>
        <time>2018-08-25T08:41:13.701Z</time>
      </trkpt>
      <trkpt lat="47.6990195" lon="-2.3374291">
        <ele>56.310</ele>
        <time>2018-08-25T08:41:17.999Z</time>
      </trkpt>
      <trkpt lat="47.6990195" lon="-2.3374291">
        <ele>55.145</ele>
        <time>2018-08-25T08:41:18.999Z</time>
      </trkpt>
      <trkpt lat="47.6990195" lon="-2.3374291">
        <ele>54.581</ele>
        <time>2018-08-25T08:41:19.099Z</time>
      </trkpt>
      <trkpt lat="47.6988595" lon="-2.3373114">
        <ele>54.618</ele>
        <time>2018-08-25T08:41:27.936Z</time>
      </trkpt>
      <trkpt lat="47.6987703" lon="-2.3372876">
        <ele>54.077</ele>
        <time>2018-08-25T08:41:32.337Z</time>
      </trkpt>
      <trkpt lat="47.6987643" lon="-2.3374240">
        <ele>52.118</ele>
        <time>2018-08-25T08:41:38.011Z</time>
      </trkpt>
      <trkpt lat="47.6987663" lon="-2.3375631">
        <ele>49.609</ele>
        <time>2018-08-25T08:41:45.256Z</time>
      </trkpt>
      <trkpt lat="47.6988365" lon="-2.3376526">
        <ele>47.707</ele>
        <time>2018-08-25T08:41:55.638Z</time>
      </trkpt>
      <trkpt lat="47.6989171" lon="-2.3377337">
        <ele>46.831</ele>
        <time>2018-08-25T08:42:08.764Z</time>
      </trkpt>
      <trkpt lat="47.6989902" lon="-2.3378149">
        <ele>46.928</ele>
        <time>2018-08-25T08:42:20.002Z</time>
      </trkpt>
      <trkpt lat="47.6989877" lon="-2.3379713">
        <ele>47.466</ele>
        <time>2018-08-25T08:42:34.565Z</time>
      </trkpt>
      <trkpt lat="47.6988997" lon="-2.3380739">
        <ele>48.074</ele>
        <time>2018-08-25T08:42:48.495Z</time>
      </trkpt>
      <trkpt lat="47.6988493" lon="-2.3382381">
        <ele>48.610</ele>
        <time>2018-08-25T08:42:54.460Z</time>
      </trkpt>
      <trkpt lat="47.6988134" lon="-2.3383749">
        <ele>48.959</ele>
        <time>2018-08-25T08:42:57.967Z</time>
      </trkpt>
      <trkpt lat="47.6987717" lon="-2.3385009">
        <ele>49.149</ele>
        <time>2018-08-25T08:43:00.993Z</time>
      </trkpt>
      <trkpt lat="47.6987147" lon="-2.3386178">
        <ele>49.277</ele>
        <time>2018-08-25T08:43:03.999Z</time>
      </trkpt>
      <trkpt lat="47.6987147" lon="-2.3386178">
        <ele>49.345</ele>
        <time>2018-08-25T08:43:07.999Z</time>
      </trkpt>
      <trkpt lat="47.6987147" lon="-2.3386178">
        <ele>49.319</ele>
        <time>2018-08-25T08:43:08.099Z</time>
      </trkpt>
      <trkpt lat="47.6986017" lon="-2.3385090">
        <ele>49.259</ele>
        <time>2018-08-25T08:43:16.180Z</time>
      </trkpt>
      <trkpt lat="47.6985264" lon="-2.3383395">
        <ele>49.062</ele>
        <time>2018-08-25T08:43:19.475Z</time>
      </trkpt>
      <trkpt lat="47.6984160" lon="-2.3381518">
        <ele>48.370</ele>
        <time>2018-08-25T08:43:23.265Z</time>
      </trkpt>
      <trkpt lat="47.6983589" lon="-2.3379869">
        <ele>46.967</ele>
        <time>2018-08-25T08:43:26.180Z</time>
      </trkpt>
      <trkpt lat="47.6983293" lon="-2.3377922">
        <ele>45.152</ele>
        <time>2018-08-25T08:43:29.158Z</time>
      </trkpt>
      <trkpt lat="47.6983080" lon="-2.3376096">
        <ele>43.413</ele>
        <time>2018-08-25T08:43:31.878Z</time>
      </trkpt>
      <trkpt lat="47.6983053" lon="-2.3374193">
        <ele>41.964</ele>
        <time>2018-08-25T08:43:34.715Z</time>
      </trkpt>
      <trkpt lat="47.6983014" lon="-2.3372091">
        <ele>40.905</ele>
        <time>2018-08-25T08:43:38.192Z</time>
      </trkpt>
      <trkpt lat="47.6982943" lon="-2.3370547">
        <ele>40.247</ele>
        <time>2018-08-25T08:43:40.974Z</time>
      </trkpt>
      <trkpt lat="47.6982435" lon="-2.3369053">
        <ele>39.716</ele>
        <time>2018-08-25T08:43:43.592Z</time>
      </trkpt>
      <trkpt lat="47.6980901" lon="-2.3368082">
        <ele>39.125</ele>
        <time>2018-08-25T08:43:46.968Z</time>
      </trkpt>
      <trkpt lat="47.6979313" lon="-2.3367361">
        <ele>38.419</ele>
        <time>2018-08-25T08:43:50.146Z</time>
      </trkpt>
      <trkpt lat="47.6978042" lon="-2.3366545">
        <ele>37.299</ele>
        <time>2018-08-25T08:43:53.113Z</time>
      </trkpt>
      <trkpt lat="47.6976945" lon="-2.3365941">
        <ele>35.536</ele>
        <time>2018-08-25T08:43:56.023Z</time>
      </trkpt>
      <trkpt lat="47.6975873" lon="-2.3365638">
        <ele>33.574</ele>
        <time>2018-08-25T08:43:59.238Z</time>
      </trkpt>
      <trkpt lat="47.6974947" lon="-2.3365534">
        <ele>32.188</ele>
        <time>2018-08-25T08:44:02.373Z</time>
      </trkpt>
      <trkpt lat="47.6973845" lon="-2.3365092">
        <ele>31.663</ele>
        <time>2018-08-25T08:44:06.259Z</time>
      </trkpt>
      <trkpt lat="47.6972804" lon="-2.3364717">
        <ele>31.798</ele>
        <time>2018-08-25T08:44:10.335Z</time>
      </trkpt>
      <trkpt lat="47.6971783" lon="-2.3365040">
        <ele>32.373</ele>
        <time>2018-08-25T08:44:14.762Z</time>
      </trkpt>
      <trkpt lat="47.6970933" lon="-2.3366003">
        <ele>33.241</ele>
        <time>2018-08-25T08:44:20.082Z</time>
      </trkpt>
      <trkpt lat="47.6970319" lon="-2.3367193">
        <ele>34.187</ele>
        <time>2018-08-25T08:44:25.605Z</time>
      </trkpt>
      <trkpt lat="47.6969818" lon="-2.3368419">
        <ele>34.906</ele>
        <time>2018-08-25T08:44:31.065Z</time>
      </trkpt>
      <trkpt lat="47.6969216" lon="-2.3369518">
        <ele>35.228</ele>
        <time>2018-08-25T08:44:36.807Z</time>
      </trkpt>
      <trkpt lat="47.6968690" lon="-2.3370687">
        <ele>35.322</ele>
        <time>2018-08-25T08:44:42.862Z</time>
      </trkpt>
      <trkpt lat="47.6968084" lon="-2.3371784">
        <ele>35.519</ele>
        <time>2018-08-25T08:44:49.000Z</time>
      </trkpt>
      <trkpt lat="47.6968084" lon="-2.3371784">
        <ele>35.904</ele>
        <time>2018-08-25T08:44:55.000Z</time>
      </trkpt>
      <trkpt lat="47.6968084" lon="-2.3371784">
        <ele>36.182</ele>
        <time>2018-08-25T08:44:55.100Z</time>
      </trkpt>
      <trkpt lat="47.6967292" lon="-2.3375696">
        <ele>36.158</ele>
        <time>2018-08-25T08:45:16.149Z</time>
      </trkpt>
      <trkpt lat="47.6967354" lon="-2.3377123">
        <ele>36.419</ele>
        <time>2018-08-25T08:45:20.976Z</time>
      </trkpt>
      <trkpt lat="47.6967036" lon="-2.3378571">
        <ele>37.581</ele>
        <time>2018-08-25T08:45:26.533Z</time>
      </trkpt>
      <trkpt lat="47.6966567" lon="-2.3379726">
        <ele>39.129</ele>
        <time>2018-08-25T08:45:31.163Z</time>
      </trkpt>
      <trkpt lat="47.6966278" lon="-2.3381120">
        <ele>40.271</ele>
        <time>2018-08-25T08:45:36.000Z</time>
      </trkpt>
      <trkpt lat="47.6966278" lon="-2.3381120">
        <ele>40.920</ele>
        <time>2018-08-25T08:45:42.000Z</time>
      </trkpt>
      <trkpt lat="47.6966278" lon="-2.3381120">
        <ele>41.169</ele>
        <time>2018-08-25T08:45:42.100Z</time>
      </trkpt>
      <trkpt lat="47.6966087" lon="-2.3384973">
        <ele>41.113</ele>
        <time>2018-08-25T08:46:02.415Z</time>
      </trkpt>
      <trkpt lat="47.6965980" lon="-2.3386439">
        <ele>41.462</ele>
        <time>2018-08-25T08:46:07.208Z</time>
      </trkpt>
      <trkpt lat="47.6965856" lon="-2.3387839">
        <ele>42.652</ele>
        <time>2018-08-25T08:46:11.037Z</time>
      </trkpt>
      <trkpt lat="47.6965900" lon="-2.3389361">
        <ele>43.917</ele>
        <time>2018-08-25T08:46:15.000Z</time>
      </trkpt>
      <trkpt lat="47.6965900" lon="-2.3389361">
        <ele>44.470</ele>
        <time>2018-08-25T08:46:20.000Z</time>
      </trkpt>
      <trkpt lat="47.6965900" lon="-2.3389361">
        <ele>44.478</ele>
        <time>2018-08-25T08:46:20.100Z</time>
      </trkpt>
      <trkpt lat="47.6964906" lon="-2.3392624">
        <ele>44.281</ele>
        <time>2018-08-25T08:46:49.822Z</time>
      </trkpt>
      <trkpt lat="47.6963971" lon="-2.3393183">
        <ele>44.140</ele>
        <time>2018-08-25T08:47:01.422Z</time>
      </trkpt>
      <trkpt lat="47.6963069" lon="-2.3393608">
        <ele>44.225</ele>
        <time>2018-08-25T08:47:10.887Z</time>
      </trkpt>
      <trkpt lat="47.6962174" lon="-2.3394162">
        <ele>44.692</ele>
        <time>2018-08-25T08:47:18.857Z</time>
      </trkpt>
      <trkpt lat="47.6961248" lon="-2.3394518">
        <ele>45.628</ele>
        <time>2018-08-25T08:47:26.597Z</time>
      </trkpt>
      <trkpt lat="47.6960356" lon="-2.3394840">
        <ele>46.800</ele>
        <time>2018-08-25T08:47:34.186Z</time>
      </trkpt>
      <trkpt lat="47.6959324" lon="-2.3394987">
        <ele>47.800</ele>
        <time>2018-08-25T08:47:43.698Z</time>
      </trkpt>
      <trkpt lat="47.6958365" lon="-2.3395266">
        <ele>48.552</ele>
        <time>2018-08-25T08:47:53.648Z</time>
      </trkpt>
      <trkpt lat="47.6957394" lon="-2.3395411">
        <ele>49.135</ele>
        <time>2018-08-25T08:48:02.592Z</time>
      </trkpt>
      <trkpt lat="47.6956430" lon="-2.3395494">
        <ele>49.629</ele>
        <time>2018-08-25T08:48:11.228Z</time>
      </trkpt>
      <trkpt lat="47.6955492" lon="-2.3395368">
        <ele>50.286</ele>
        <time>2018-08-25T08:48:19.522Z</time>
      </trkpt>
      <trkpt lat="47.6954479" lon="-2.3395312">
        <ele>51.277</ele>
        <time>2018-08-25T08:48:28.070Z</time>
      </trkpt>
      <trkpt lat="47.6953497" lon="-2.3395224">
        <ele>52.419</ele>
        <time>2018-08-25T08:48:35.822Z</time>
      </trkpt>
      <trkpt lat="47.6952581" lon="-2.3395137">
        <ele>53.429</ele>
        <time>2018-08-25T08:48:42.734Z</time>
      </trkpt>
      <trkpt lat="47.6951670" lon="-2.3395292">
        <ele>54.132</ele>
        <time>2018-08-25T08:48:49.844Z</time>
      </trkpt>
      <trkpt lat="47.6950770" lon="-2.3395469">
        <ele>54.591</ele>
        <time>2018-08-25T08:48:57.892Z</time>
      </trkpt>
      <trkpt lat="47.6949837" lon="-2.3395684">
        <ele>55.160</ele>
        <time>2018-08-25T08:49:07.282Z</time>
      </trkpt>
      <trkpt lat="47.6948879" lon="-2.3396051">
        <ele>55.944</ele>
        <time>2018-08-25T08:49:16.409Z</time>
      </trkpt>
      <trkpt lat="47.6947979" lon="-2.3396580">
        <ele>56.773</ele>
        <time>2018-08-25T08:49:24.865Z</time>
      </trkpt>
      <trkpt lat="47.6947163" lon="-2.3397248">
        <ele>57.968</ele>
        <time>2018-08-25T08:49:32.678Z</time>
      </trkpt>
      <trkpt lat="47.6946284" lon="-2.3397934">
        <ele>59.663</ele>
        <time>2018-08-25T08:49:40.469Z</time>
      </trkpt>
      <trkpt lat="47.6945478" lon="-2.3398709">
        <ele>61.102</ele>
        <time>2018-08-25T08:49:47.254Z</time>
      </trkpt>
      <trkpt lat="47.6944633" lon="-2.3399291">
        <ele>61.785</ele>
        <time>2018-08-25T08:49:53.559Z</time>
      </trkpt>
      <trkpt lat="47.6943784" lon="-2.3399891">
        <ele>61.971</ele>
        <time>2018-08-25T08:50:00.347Z</time>
      </trkpt>
      <trkpt lat="47.6942903" lon="-2.3400597">
        <ele>61.960</ele>
        <time>2018-08-25T08:50:08.255Z</time>
      </trkpt>
      <trkpt lat="47.6942026" lon="-2.3401224">
        <ele>61.957</ele>
        <time>2018-08-25T08:50:16.189Z</time>
      </trkpt>
      <trkpt lat="47.6941068" lon="-2.3401709">
        <ele>62.110</ele>
        <time>2018-08-25T08:50:24.215Z</time>
      </trkpt>
      <trkpt lat="47.6940116" lon="-2.3402185">
        <ele>62.412</ele>
        <time>2018-08-25T08:50:31.710Z</time>
      </trkpt>
      <trkpt lat="47.6939252" lon="-2.3402727">
        <ele>62.774</ele>
        <time>2018-08-25T08:50:38.208Z</time>
      </trkpt>
      <trkpt lat="47.6938361" lon="-2.3403228">
        <ele>63.121</ele>
        <time>2018-08-25T08:50:44.869Z</time>
      </trkpt>
      <trkpt lat="47.6937455" lon="-2.3403698">
        <ele>63.514</ele>
        <time>2018-08-25T08:50:51.957Z</time>
      </trkpt>
      <trkpt lat="47.6936563" lon="-2.3404254">
        <ele>64.172</ele>
        <time>2018-08-25T08:50:59.246Z</time>
      </trkpt>
      <trkpt lat="47.6935706" lon="-2.3404816">
        <ele>65.137</ele>
        <time>2018-08-25T08:51:05.898Z</time>
      </trkpt>
      <trkpt lat="47.6934763" lon="-2.3405356">
        <ele>66.115</ele>
        <time>2018-08-25T08:51:12.513Z</time>
      </trkpt>
      <trkpt lat="47.6933855" lon="-2.3405925">
        <ele>66.794</ele>
        <time>2018-08-25T08:51:18.537Z</time>
      </trkpt>
      <trkpt lat="47.6932914" lon="-2.3406445">
        <ele>67.111</ele>
        <time>2018-08-25T08:51:24.786Z</time>
      </trkpt>
      <trkpt lat="47.6932010" lon="-2.3406946">
        <ele>67.239</ele>
        <time>2018-08-25T08:51:31.081Z</time>
      </trkpt>
      <trkpt lat="47.6931060" lon="-2.3407539">
        <ele>67.410</ele>
        <time>2018-08-25T08:51:37.343Z</time>
      </trkpt>
      <trkpt lat="47.6930213" lon="-2.3408063">
        <ele>67.771</ele>
        <time>2018-08-25T08:51:42.173Z</time>
      </trkpt>
      <trkpt lat="47.6929223" lon="-2.3408622">
        <ele>68.271</ele>
        <time>2018-08-25T08:51:47.317Z</time>
      </trkpt>
      <trkpt lat="47.6928269" lon="-2.3409052">
        <ele>68.708</ele>
        <time>2018-08-25T08:51:51.863Z</time>
      </trkpt>
      <trkpt lat="47.6927273" lon="-2.3409087">
        <ele>68.968</ele>
        <time>2018-08-25T08:51:56.332Z</time>
      </trkpt>
      <trkpt lat="47.6926328" lon="-2.3408812">
        <ele>69.121</ele>
        <time>2018-08-25T08:52:00.735Z</time>
      </trkpt>
      <trkpt lat="47.6925577" lon="-2.3407876">
        <ele>69.225</ele>
        <time>2018-08-25T08:52:05.329Z</time>
      </trkpt>
      <trkpt lat="47.6925001" lon="-2.3406643">
        <ele>69.282</ele>
        <time>2018-08-25T08:52:10.052Z</time>
      </trkpt>
      <trkpt lat="47.6924644" lon="-2.3405284">
        <ele>69.297</ele>
        <time>2018-08-25T08:52:14.549Z</time>
      </trkpt>
      <trkpt lat="47.6924514" lon="-2.3403904">
        <ele>69.293</ele>
        <time>2018-08-25T08:52:18.759Z</time>
      </trkpt>
      <trkpt lat="47.6924689" lon="-2.3402307">
        <ele>69.409</ele>
        <time>2018-08-25T08:52:23.559Z</time>
      </trkpt>
      <trkpt lat="47.6924474" lon="-2.3400938">
        <ele>69.751</ele>
        <time>2018-08-25T08:52:27.746Z</time>
      </trkpt>
      <trkpt lat="47.6924139" lon="-2.3399580">
        <ele>70.166</ele>
        <time>2018-08-25T08:52:32.308Z</time>
      </trkpt>
      <trkpt lat="47.6924108" lon="-2.3398219">
        <ele>70.512</ele>
        <time>2018-08-25T08:52:36.819Z</time>
      </trkpt>
      <trkpt lat="47.6924020" lon="-2.3396755">
        <ele>70.866</ele>
        <time>2018-08-25T08:52:41.712Z</time>
      </trkpt>
      <trkpt lat="47.6923670" lon="-2.3395363">
        <ele>71.252</ele>
        <time>2018-08-25T08:52:46.557Z</time>
      </trkpt>
      <trkpt lat="47.6923230" lon="-2.3394045">
        <ele>71.570</ele>
        <time>2018-08-25T08:52:51.242Z</time>
      </trkpt>
      <trkpt lat="47.6922939" lon="-2.3392467">
        <ele>71.864</ele>
        <time>2018-08-25T08:52:56.181Z</time>
      </trkpt>
      <trkpt lat="47.6922668" lon="-2.3390988">
        <ele>72.281</ele>
        <time>2018-08-25T08:53:00.652Z</time>
      </trkpt>
      <trkpt lat="47.6922336" lon="-2.3389416">
        <ele>72.809</ele>
        <time>2018-08-25T08:53:05.426Z</time>
      </trkpt>
      <trkpt lat="47.6922099" lon="-2.3388109">
        <ele>73.376</ele>
        <time>2018-08-25T08:53:09.349Z</time>
      </trkpt>
      <trkpt lat="47.6921813" lon="-2.3386526">
        <ele>73.969</ele>
        <time>2018-08-25T08:53:14.092Z</time>
      </trkpt>
      <trkpt lat="47.6921442" lon="-2.3385146">
        <ele>74.472</ele>
        <time>2018-08-25T08:53:18.323Z</time>
      </trkpt>
      <trkpt lat="47.6921101" lon="-2.3383706">
        <ele>74.647</ele>
        <time>2018-08-25T08:53:22.557Z</time>
      </trkpt>
      <trkpt lat="47.6920741" lon="-2.3382356">
        <ele>74.406</ele>
        <time>2018-08-25T08:53:26.469Z</time>
      </trkpt>
      <trkpt lat="47.6920484" lon="-2.3380927">
        <ele>73.973</ele>
        <time>2018-08-25T08:53:30.372Z</time>
      </trkpt>
      <trkpt lat="47.6920296" lon="-2.3379471">
        <ele>73.656</ele>
        <time>2018-08-25T08:53:34.209Z</time>
      </trkpt>
      <trkpt lat="47.6920155" lon="-2.3378014">
        <ele>73.563</ele>
        <time>2018-08-25T08:53:37.968Z</time>
      </trkpt>
      <trkpt lat="47.6920106" lon="-2.3376466">
        <ele>73.640</ele>
        <time>2018-08-25T08:53:41.960Z</time>
      </trkpt>
      <trkpt lat="47.6920034" lon="-2.3374898">
        <ele>73.793</ele>
        <time>2018-08-25T08:53:46.097Z</time>
      </trkpt>
      <trkpt lat="47.6919932" lon="-2.3373277">
        <ele>73.984</ele>
        <time>2018-08-25T08:53:50.374Z</time>
      </trkpt>
      <trkpt lat="47.6919861" lon="-2.3371625">
        <ele>74.229</ele>
        <time>2018-08-25T08:53:54.587Z</time>
      </trkpt>
      <trkpt lat="47.6919839" lon="-2.3369977">
        <ele>74.482</ele>
        <time>2018-08-25T08:53:58.693Z</time>
      </trkpt>
      <trkpt lat="47.6919774" lon="-2.3368262">
        <ele>74.652</ele>
        <time>2018-08-25T08:54:02.882Z</time>
      </trkpt>
      <trkpt lat="47.6919732" lon="-2.3366594">
        <ele>74.723</ele>
        <time>2018-08-25T08:54:06.850Z</time>
      </trkpt>
      <trkpt lat="47.6919738" lon="-2.3365073">
        <ele>74.745</ele>
        <time>2018-08-25T08:54:10.429Z</time>
      </trkpt>
      <trkpt lat="47.6919767" lon="-2.3363397">
        <ele>74.801</ele>
        <time>2018-08-25T08:54:14.381Z</time>
      </trkpt>
      <trkpt lat="47.6919844" lon="-2.3362030">
        <ele>74.948</ele>
        <time>2018-08-25T08:54:17.628Z</time>
      </trkpt>
      <trkpt lat="47.6919883" lon="-2.3360244">
        <ele>75.302</ele>
        <time>2018-08-25T08:54:21.856Z</time>
      </trkpt>
      <trkpt lat="47.6919836" lon="-2.3358501">
        <ele>75.918</ele>
        <time>2018-08-25T08:54:25.937Z</time>
      </trkpt>
      <trkpt lat="47.6919915" lon="-2.3356699">
        <ele>76.577</ele>
        <time>2018-08-25T08:54:30.139Z</time>
      </trkpt>
      <trkpt lat="47.6920057" lon="-2.3355350">
        <ele>77.003</ele>
        <time>2018-08-25T08:54:33.306Z</time>
      </trkpt>
      <trkpt lat="47.6920276" lon="-2.3354030">
        <ele>77.130</ele>
        <time>2018-08-25T08:54:36.466Z</time>
      </trkpt>
      <trkpt lat="47.6920572" lon="-2.3352316">
        <ele>76.941</ele>
        <time>2018-08-25T08:54:40.623Z</time>
      </trkpt>
      <trkpt lat="47.6920818" lon="-2.3350617">
        <ele>76.492</ele>
        <time>2018-08-25T08:54:44.780Z</time>
      </trkpt>
      <trkpt lat="47.6920970" lon="-2.3349274">
        <ele>76.049</ele>
        <time>2018-08-25T08:54:48.073Z</time>
      </trkpt>
      <trkpt lat="47.6921171" lon="-2.3347920">
        <ele>75.823</ele>
        <time>2018-08-25T08:54:51.457Z</time>
      </trkpt>
      <trkpt lat="47.6921368" lon="-2.3346582">
        <ele>75.714</ele>
        <time>2018-08-25T08:54:54.869Z</time>
      </trkpt>
      <trkpt lat="47.6921554" lon="-2.3345221">
        <ele>75.545</ele>
        <time>2018-08-25T08:54:58.416Z</time>
      </trkpt>
      <trkpt lat="47.6921745" lon="-2.3343884">
        <ele>75.315</ele>
        <time>2018-08-25T08:55:01.950Z</time>
      </trkpt>
      <trkpt lat="47.6921958" lon="-2.3342525">
        <ele>75.148</ele>
        <time>2018-08-25T08:55:05.557Z</time>
      </trkpt>
      <trkpt lat="47.6922134" lon="-2.3341179">
        <ele>75.116</ele>
        <time>2018-08-25T08:55:09.084Z</time>
      </trkpt>
      <trkpt lat="47.6922304" lon="-2.3339844">
        <ele>75.122</ele>
        <time>2018-08-25T08:55:12.598Z</time>
      </trkpt>
      <trkpt lat="47.6922540" lon="-2.3338121">
        <ele>74.985</ele>
        <time>2018-08-25T08:55:17.184Z</time>
      </trkpt>
      <trkpt lat="47.6922711" lon="-2.3336358">
        <ele>74.679</ele>
        <time>2018-08-25T08:55:21.871Z</time>
      </trkpt>
      <trkpt lat="47.6922890" lon="-2.3334659">
        <ele>74.392</ele>
        <time>2018-08-25T08:55:26.500Z</time>
      </trkpt>
      <trkpt lat="47.6923041" lon="-2.3333082">
        <ele>74.276</ele>
        <time>2018-08-25T08:55:30.900Z</time>
      </trkpt>
      <trkpt lat="47.6923173" lon="-2.3331502">
        <ele>74.304</ele>
        <time>2018-08-25T08:55:35.340Z</time>
      </trkpt>
      <trkpt lat="47.6923373" lon="-2.3329789">
        <ele>74.379</ele>
        <time>2018-08-25T08:55:40.161Z</time>
      </trkpt>
      <trkpt lat="47.6923575" lon="-2.3328110">
        <ele>74.446</ele>
        <time>2018-08-25T08:55:44.786Z</time>
      </trkpt>
      <trkpt lat="47.6923692" lon="-2.3326517">
        <ele>74.511</ele>
        <time>2018-08-25T08:55:48.980Z</time>
      </trkpt>
      <trkpt lat="47.6923832" lon="-2.3324898">
        <ele>74.571</ele>
        <time>2018-08-25T08:55:53.059Z</time>
      </trkpt>
      <trkpt lat="47.6923943" lon="-2.3323269">
        <ele>74.831</ele>
        <time>2018-08-25T08:55:56.989Z</time>
      </trkpt>
      <trkpt lat="47.6924057" lon="-2.3321817">
        <ele>75.536</ele>
        <time>2018-08-25T08:56:00.502Z</time>
      </trkpt>
      <trkpt lat="47.6924217" lon="-2.3320372">
        <ele>76.441</ele>
        <time>2018-08-25T08:56:04.086Z</time>
      </trkpt>
      <trkpt lat="47.6924280" lon="-2.3318880">
        <ele>77.157</ele>
        <time>2018-08-25T08:56:07.736Z</time>
      </trkpt>
      <trkpt lat="47.6924369" lon="-2.3317334">
        <ele>77.615</ele>
        <time>2018-08-25T08:56:11.383Z</time>
      </trkpt>
      <trkpt lat="47.6924490" lon="-2.3315802">
        <ele>77.849</ele>
        <time>2018-08-25T08:56:14.934Z</time>
      </trkpt>
      <trkpt lat="47.6924633" lon="-2.3314107">
        <ele>77.903</ele>
        <time>2018-08-25T08:56:18.872Z</time>
      </trkpt>
      <trkpt lat="47.6924680" lon="-2.3312404">
        <ele>77.929</ele>
        <time>2018-08-25T08:56:22.736Z</time>
      </trkpt>
      <trkpt lat="47.6924638" lon="-2.3311016">
        <ele>78.092</ele>
        <time>2018-08-25T08:56:25.795Z</time>
      </trkpt>
      <trkpt lat="47.6924561" lon="-2.3309620">
        <ele>78.384</ele>
        <time>2018-08-25T08:56:28.840Z</time>
      </trkpt>
      <trkpt lat="47.6924420" lon="-2.3308286">
        <ele>78.606</ele>
        <time>2018-08-25T08:56:31.763Z</time>
      </trkpt>
      <trkpt lat="47.6924069" lon="-2.3306629">
        <ele>78.593</ele>
        <time>2018-08-25T08:56:35.508Z</time>
      </trkpt>
      <trkpt lat="47.6923688" lon="-2.3304926">
        <ele>78.257</ele>
        <time>2018-08-25T08:56:39.333Z</time>
      </trkpt>
      <trkpt lat="47.6923348" lon="-2.3303598">
        <ele>77.692</ele>
        <time>2018-08-25T08:56:42.312Z</time>
      </trkpt>
      <trkpt lat="47.6922912" lon="-2.3302207">
        <ele>77.217</ele>
        <time>2018-08-25T08:56:45.476Z</time>
      </trkpt>
      <trkpt lat="47.6922559" lon="-2.3300960">
        <ele>77.007</ele>
        <time>2018-08-25T08:56:48.235Z</time>
      </trkpt>
      <trkpt lat="47.6922186" lon="-2.3299736">
        <ele>77.017</ele>
        <time>2018-08-25T08:56:50.956Z</time>
      </trkpt>
      <trkpt lat="47.6921792" lon="-2.3298442">
        <ele>77.120</ele>
        <time>2018-08-25T08:56:53.826Z</time>
      </trkpt>
      <trkpt lat="47.6921393" lon="-2.3297067">
        <ele>77.267</ele>
        <time>2018-08-25T08:56:56.876Z</time>
      </trkpt>
      <trkpt lat="47.6920975" lon="-2.3295751">
        <ele>77.503</ele>
        <time>2018-08-25T08:56:59.921Z</time>
      </trkpt>
      <trkpt lat="47.6920617" lon="-2.3294395">
        <ele>77.815</ele>
        <time>2018-08-25T08:57:03.052Z</time>
      </trkpt>
      <trkpt lat="47.6920301" lon="-2.3292954">
        <ele>78.241</ele>
        <time>2018-08-25T08:57:06.336Z</time>
      </trkpt>
      <trkpt lat="47.6919955" lon="-2.3291547">
        <ele>78.782</ele>
        <time>2018-08-25T08:57:09.517Z</time>
      </trkpt>
      <trkpt lat="47.6919555" lon="-2.3290094">
        <ele>79.131</ele>
        <time>2018-08-25T08:57:12.759Z</time>
      </trkpt>
      <trkpt lat="47.6919098" lon="-2.3288645">
        <ele>79.119</ele>
        <time>2018-08-25T08:57:15.989Z</time>
      </trkpt>
      <trkpt lat="47.6918664" lon="-2.3287212">
        <ele>78.898</ele>
        <time>2018-08-25T08:57:19.085Z</time>
      </trkpt>
      <trkpt lat="47.6918262" lon="-2.3285743">
        <ele>78.648</ele>
        <time>2018-08-25T08:57:22.127Z</time>
      </trkpt>
      <trkpt lat="47.6917826" lon="-2.3284311">
        <ele>78.474</ele>
        <time>2018-08-25T08:57:25.107Z</time>
      </trkpt>
      <trkpt lat="47.6917368" lon="-2.3282849">
        <ele>78.540</ele>
        <time>2018-08-25T08:57:28.164Z</time>
      </trkpt>
      <trkpt lat="47.6916988" lon="-2.3281447">
        <ele>78.930</ele>
        <time>2018-08-25T08:57:31.023Z</time>
      </trkpt>
      <trkpt lat="47.6916578" lon="-2.3280147">
        <ele>79.442</ele>
        <time>2018-08-25T08:57:33.727Z</time>
      </trkpt>
      <trkpt lat="47.6916177" lon="-2.3278816">
        <ele>79.766</ele>
        <time>2018-08-25T08:57:36.459Z</time>
      </trkpt>
      <trkpt lat="47.6915768" lon="-2.3277472">
        <ele>79.745</ele>
        <time>2018-08-25T08:57:39.200Z</time>
      </trkpt>
      <trkpt lat="47.6915290" lon="-2.3276022">
        <ele>79.445</ele>
        <time>2018-08-25T08:57:42.197Z</time>
      </trkpt>
      <trkpt lat="47.6914833" lon="-2.3274590">
        <ele>79.364</ele>
        <time>2018-08-25T08:57:45.161Z</time>
      </trkpt>
      <trkpt lat="47.6914397" lon="-2.3273103">
        <ele>79.874</ele>
        <time>2018-08-25T08:57:48.246Z</time>
      </trkpt>
      <trkpt lat="47.6913960" lon="-2.3271630">
        <ele>80.692</ele>
        <time>2018-08-25T08:57:51.356Z</time>
      </trkpt>
      <trkpt lat="47.6913462" lon="-2.3270033">
        <ele>81.381</ele>
        <time>2018-08-25T08:57:54.767Z</time>
      </trkpt>
      <trkpt lat="47.6912951" lon="-2.3268412">
        <ele>81.826</ele>
        <time>2018-08-25T08:57:58.216Z</time>
      </trkpt>
      <trkpt lat="47.6912491" lon="-2.3266899">
        <ele>82.018</ele>
        <time>2018-08-25T08:58:01.395Z</time>
      </trkpt>
      <trkpt lat="47.6912008" lon="-2.3265348">
        <ele>81.898</ele>
        <time>2018-08-25T08:58:04.713Z</time>
      </trkpt>
      <trkpt lat="47.6911534" lon="-2.3263826">
        <ele>81.490</ele>
        <time>2018-08-25T08:58:10.543Z</time>
      </trkpt>
      <trkpt lat="47.6911070" lon="-2.3262264">
        <ele>80.986</ele>
        <time>2018-08-25T08:58:16.730Z</time>
      </trkpt>
      <trkpt lat="47.6910615" lon="-2.3260626">
        <ele>80.503</ele>
        <time>2018-08-25T08:58:23.151Z</time>
      </trkpt>
      <trkpt lat="47.6910173" lon="-2.3259034">
        <ele>80.097</ele>
        <time>2018-08-25T08:58:29.392Z</time>
      </trkpt>
      <trkpt lat="47.6909740" lon="-2.3257472">
        <ele>79.831</ele>
        <time>2018-08-25T08:58:35.512Z</time>
      </trkpt>
      <trkpt lat="47.6909297" lon="-2.3255968">
        <ele>79.718</ele>
        <time>2018-08-25T08:58:41.458Z</time>
      </trkpt>
      <trkpt lat="47.6908833" lon="-2.3254533">
        <ele>79.723</ele>
        <time>2018-08-25T08:58:47.230Z</time>
      </trkpt>
      <trkpt lat="47.6908306" lon="-2.3252993">
        <ele>79.778</ele>
        <time>2018-08-25T08:58:53.490Z</time>
      </trkpt>
      <trkpt lat="47.6907824" lon="-2.3251429">
        <ele>79.823</ele>
        <time>2018-08-25T08:58:59.721Z</time>
      </trkpt>
      <trkpt lat="47.6907397" lon="-2.3249859">
        <ele>79.839</ele>
        <time>2018-08-25T08:59:05.856Z</time>
      </trkpt>
      <trkpt lat="47.6906956" lon="-2.3248312">
        <ele>79.807</ele>
        <time>2018-08-25T08:59:11.947Z</time>
      </trkpt>
      <trkpt lat="47.6906555" lon="-2.3246870">
        <ele>79.675</ele>
        <time>2018-08-25T08:59:17.598Z</time>
      </trkpt>
      <trkpt lat="47.6906451" lon="-2.3245355">
        <ele>79.468</ele>
        <time>2018-08-25T08:59:23.113Z</time>
      </trkpt>
      <trkpt lat="47.6906033" lon="-2.3243790">
        <ele>79.304</ele>
        <time>2018-08-25T08:59:29.214Z</time>
      </trkpt>
      <trkpt lat="47.6905638" lon="-2.3242246">
        <ele>79.238</ele>
        <time>2018-08-25T08:59:35.204Z</time>
      </trkpt>
      <trkpt lat="47.6905207" lon="-2.3240953">
        <ele>79.231</ele>
        <time>2018-08-25T08:59:40.429Z</time>
      </trkpt>
      <trkpt lat="47.6904787" lon="-2.3239642">
        <ele>79.244</ele>
        <time>2018-08-25T08:59:45.692Z</time>
      </trkpt>
      <trkpt lat="47.6904368" lon="-2.3238296">
        <ele>79.245</ele>
        <time>2018-08-25T08:59:51.068Z</time>
      </trkpt>
      <trkpt lat="47.6903897" lon="-2.3236845">
        <ele>79.267</ele>
        <time>2018-08-25T08:59:56.907Z</time>
      </trkpt>
      <trkpt lat="47.6903356" lon="-2.3235398">
        <ele>79.375</ele>
        <time>2018-08-25T09:00:02.906Z</time>
      </trkpt>
      <trkpt lat="47.6902906" lon="-2.3233960">
        <ele>79.580</ele>
        <time>2018-08-25T09:00:08.649Z</time>
      </trkpt>
      <trkpt lat="47.6902419" lon="-2.3232520">
        <ele>79.812</ele>
        <time>2018-08-25T09:00:14.489Z</time>
      </trkpt>
      <trkpt lat="47.6901854" lon="-2.3231163">
        <ele>79.952</ele>
        <time>2018-08-25T09:00:20.270Z</time>
      </trkpt>
      <trkpt lat="47.6901293" lon="-2.3229940">
        <ele>79.874</ele>
        <time>2018-08-25T09:00:25.631Z</time>
      </trkpt>
      <trkpt lat="47.6900813" lon="-2.3228654">
        <ele>79.559</ele>
        <time>2018-08-25T09:00:30.957Z</time>
      </trkpt>
      <trkpt lat="47.6900193" lon="-2.3227367">
        <ele>79.170</ele>
        <time>2018-08-25T09:00:36.695Z</time>
      </trkpt>
      <trkpt lat="47.6899557" lon="-2.3226170">
        <ele>79.053</ele>
        <time>2018-08-25T09:00:42.220Z</time>
      </trkpt>
      <trkpt lat="47.6898950" lon="-2.3224888">
        <ele>79.366</ele>
        <time>2018-08-25T09:00:47.900Z</time>
      </trkpt>
      <trkpt lat="47.6898332" lon="-2.3223500">
        <ele>79.846</ele>
        <time>2018-08-25T09:00:56.278Z</time>
      </trkpt>
      <trkpt lat="47.6897704" lon="-2.3222084">
        <ele>80.193</ele>
        <time>2018-08-25T09:01:01.034Z</time>
      </trkpt>
      <trkpt lat="47.6897063" lon="-2.3220686">
        <ele>80.366</ele>
        <time>2018-08-25T09:01:05.071Z</time>
      </trkpt>
      <trkpt lat="47.6896447" lon="-2.3219334">
        <ele>80.415</ele>
        <time>2018-08-25T09:01:08.650Z</time>
      </trkpt>
      <trkpt lat="47.6895855" lon="-2.3217935">
        <ele>80.451</ele>
        <time>2018-08-25T09:01:12.046Z</time>
      </trkpt>
      <trkpt lat="47.6895205" lon="-2.3216627">
        <ele>80.579</ele>
        <time>2018-08-25T09:01:15.294Z</time>
      </trkpt>
      <trkpt lat="47.6894613" lon="-2.3215290">
        <ele>80.771</ele>
        <time>2018-08-25T09:01:18.492Z</time>
      </trkpt>
      <trkpt lat="47.6894059" lon="-2.3213885">
        <ele>80.973</ele>
        <time>2018-08-25T09:01:21.760Z</time>
      </trkpt>
      <trkpt lat="47.6893436" lon="-2.3212518">
        <ele>81.209</ele>
        <time>2018-08-25T09:01:25.130Z</time>
      </trkpt>
      <trkpt lat="47.6892803" lon="-2.3211202">
        <ele>81.472</ele>
        <time>2018-08-25T09:01:28.512Z</time>
      </trkpt>
      <trkpt lat="47.6892172" lon="-2.3209797">
        <ele>81.695</ele>
        <time>2018-08-25T09:01:32.061Z</time>
      </trkpt>
      <trkpt lat="47.6891491" lon="-2.3208399">
        <ele>81.816</ele>
        <time>2018-08-25T09:01:35.670Z</time>
      </trkpt>
      <trkpt lat="47.6890857" lon="-2.3207067">
        <ele>81.834</ele>
        <time>2018-08-25T09:01:39.016Z</time>
      </trkpt>
      <trkpt lat="47.6890234" lon="-2.3205697">
        <ele>81.779</ele>
        <time>2018-08-25T09:01:42.301Z</time>
      </trkpt>
      <trkpt lat="47.6889645" lon="-2.3204477">
        <ele>81.657</ele>
        <time>2018-08-25T09:01:45.226Z</time>
      </trkpt>
      <trkpt lat="47.6889106" lon="-2.3203155">
        <ele>81.450</ele>
        <time>2018-08-25T09:01:48.221Z</time>
      </trkpt>
      <trkpt lat="47.6888566" lon="-2.3201817">
        <ele>81.087</ele>
        <time>2018-08-25T09:01:51.257Z</time>
      </trkpt>
      <trkpt lat="47.6888027" lon="-2.3200460">
        <ele>80.609</ele>
        <time>2018-08-25T09:01:54.345Z</time>
      </trkpt>
      <trkpt lat="47.6887520" lon="-2.3199171">
        <ele>80.289</ele>
        <time>2018-08-25T09:01:57.298Z</time>
      </trkpt>
      <trkpt lat="47.6886909" lon="-2.3197709">
        <ele>80.317</ele>
        <time>2018-08-25T09:02:00.726Z</time>
      </trkpt>
      <trkpt lat="47.6886246" lon="-2.3196214">
        <ele>80.570</ele>
        <time>2018-08-25T09:02:04.298Z</time>
      </trkpt>
      <trkpt lat="47.6885551" lon="-2.3194693">
        <ele>80.803</ele>
        <time>2018-08-25T09:02:07.964Z</time>
      </trkpt>
      <trkpt lat="47.6884860" lon="-2.3193088">
        <ele>80.894</ele>
        <time>2018-08-25T09:02:11.732Z</time>
      </trkpt>
      <trkpt lat="47.6884179" lon="-2.3191592">
        <ele>80.829</ele>
        <time>2018-08-25T09:02:15.277Z</time>
      </trkpt>
      <trkpt lat="47.6883486" lon="-2.3190153">
        <ele>80.653</ele>
        <time>2018-08-25T09:02:18.748Z</time>
      </trkpt>
      <trkpt lat="47.6882911" lon="-2.3188983">
        <ele>80.543</ele>
        <time>2018-08-25T09:02:21.622Z</time>
      </trkpt>
      <trkpt lat="47.6882314" lon="-2.3187593">
        <ele>80.763</ele>
        <time>2018-08-25T09:02:24.946Z</time>
      </trkpt>
      <trkpt lat="47.6881976" lon="-2.3186312">
        <ele>81.475</ele>
        <time>2018-08-25T09:02:27.737Z</time>
      </trkpt>
      <trkpt lat="47.6881651" lon="-2.3185057">
        <ele>82.466</ele>
        <time>2018-08-25T09:02:30.475Z</time>
      </trkpt>
      <trkpt lat="47.6881316" lon="-2.3183509">
        <ele>83.333</ele>
        <time>2018-08-25T09:02:33.796Z</time>
      </trkpt>
      <trkpt lat="47.6881004" lon="-2.3181949">
        <ele>83.914</ele>
        <time>2018-08-25T09:02:37.050Z</time>
      </trkpt>
      <trkpt lat="47.6880699" lon="-2.3180691">
        <ele>84.410</ele>
        <time>2018-08-25T09:02:39.632Z</time>
      </trkpt>
      <trkpt lat="47.6880375" lon="-2.3179183">
        <ele>84.997</ele>
        <time>2018-08-25T09:02:42.580Z</time>
      </trkpt>
      <trkpt lat="47.6880055" lon="-2.3177624">
        <ele>85.500</ele>
        <time>2018-08-25T09:02:45.517Z</time>
      </trkpt>
      <trkpt lat="47.6879814" lon="-2.3176208">
        <ele>85.738</ele>
        <time>2018-08-25T09:02:48.102Z</time>
      </trkpt>
      <trkpt lat="47.6879530" lon="-2.3174704">
        <ele>85.851</ele>
        <time>2018-08-25T09:02:50.882Z</time>
      </trkpt>
      <trkpt lat="47.6879176" lon="-2.3173079">
        <ele>86.045</ele>
        <time>2018-08-25T09:02:54.103Z</time>
      </trkpt>
      <trkpt lat="47.6878864" lon="-2.3171666">
        <ele>86.360</ele>
        <time>2018-08-25T09:02:57.257Z</time>
      </trkpt>
      <trkpt lat="47.6878455" lon="-2.3169951">
        <ele>86.645</ele>
        <time>2018-08-25T09:03:01.575Z</time>
      </trkpt>
      <trkpt lat="47.6878082" lon="-2.3168609">
        <ele>86.706</ele>
        <time>2018-08-25T09:03:05.527Z</time>
      </trkpt>
      <trkpt lat="47.6877422" lon="-2.3166303">
        <ele>86.465</ele>
        <time>2018-08-25T09:03:13.413Z</time>
      </trkpt>
      <trkpt lat="47.6876891" lon="-2.3164573">
        <ele>85.983</ele>
        <time>2018-08-25T09:03:19.734Z</time>
      </trkpt>
      <trkpt lat="47.6875863" lon="-2.3161664">
        <ele>85.445</ele>
        <time>2018-08-25T09:03:30.614Z</time>
      </trkpt>
      <trkpt lat="47.6875146" lon="-2.3159685">
        <ele>84.869</ele>
        <time>2018-08-25T09:03:37.703Z</time>
      </trkpt>
      <trkpt lat="47.6874490" lon="-2.3157595">
        <ele>84.084</ele>
        <time>2018-08-25T09:03:44.045Z</time>
      </trkpt>
      <trkpt lat="47.6873348" lon="-2.3154408">
        <ele>83.074</ele>
        <time>2018-08-25T09:03:51.559Z</time>
      </trkpt>
      <trkpt lat="47.6872322" lon="-2.3151566">
        <ele>82.030</ele>
        <time>2018-08-25T09:03:56.300Z</time>
      </trkpt>
      <trkpt lat="47.6871444" lon="-2.3148957">
        <ele>81.197</ele>
        <time>2018-08-25T09:03:59.722Z</time>
      </trkpt>
      <trkpt lat="47.6870944" lon="-2.3147556">
        <ele>80.780</ele>
        <time>2018-08-25T09:04:01.282Z</time>
      </trkpt>
      <trkpt lat="47.6870381" lon="-2.3145858">
        <ele>80.812</ele>
        <time>2018-08-25T09:04:03.056Z</time>
      </trkpt>
      <trkpt lat="47.6869967" lon="-2.3144375">
        <ele>81.153</ele>
        <time>2018-08-25T09:04:04.531Z</time>
      </trkpt>
      <trkpt lat="47.6869450" lon="-2.3142925">
        <ele>81.593</ele>
        <time>2018-08-25T09:04:06.069Z</time>
      </trkpt>
      <trkpt lat="47.6869060" lon="-2.3141558">
        <ele>82.138</ele>
        <time>2018-08-25T09:04:07.474Z</time>
      </trkpt>
      <trkpt lat="47.6868540" lon="-2.3140224">
        <ele>82.855</ele>
        <time>2018-08-25T09:04:09.036Z</time>
      </trkpt>
      <trkpt lat="47.6868041" lon="-2.3138831">
        <ele>83.595</ele>
        <time>2018-08-25T09:04:10.692Z</time>
      </trkpt>
      <trkpt lat="47.6867538" lon="-2.3137420">
        <ele>84.201</ele>
        <time>2018-08-25T09:04:12.565Z</time>
      </trkpt>
      <trkpt lat="47.6867005" lon="-2.3136023">
        <ele>84.712</ele>
        <time>2018-08-25T09:04:14.849Z</time>
      </trkpt>
      <trkpt lat="47.6866502" lon="-2.3134601">
        <ele>85.191</ele>
        <time>2018-08-25T09:04:17.797Z</time>
      </trkpt>
      <trkpt lat="47.6865993" lon="-2.3133191">
        <ele>85.660</ele>
        <time>2018-08-25T09:04:21.714Z</time>
      </trkpt>
      <trkpt lat="47.6865490" lon="-2.3131764">
        <ele>86.036</ele>
        <time>2018-08-25T09:04:26.728Z</time>
      </trkpt>
      <trkpt lat="47.6864984" lon="-2.3130299">
        <ele>86.298</ele>
        <time>2018-08-25T09:04:32.486Z</time>
      </trkpt>
      <trkpt lat="47.6864506" lon="-2.3129050">
        <ele>86.497</ele>
        <time>2018-08-25T09:04:37.609Z</time>
      </trkpt>
      <trkpt lat="47.6864008" lon="-2.3127638">
        <ele>86.647</ele>
        <time>2018-08-25T09:04:43.172Z</time>
      </trkpt>
      <trkpt lat="47.6863493" lon="-2.3126221">
        <ele>86.722</ele>
        <time>2018-08-25T09:04:48.760Z</time>
      </trkpt>
      <trkpt lat="47.6863041" lon="-2.3125041">
        <ele>86.688</ele>
        <time>2018-08-25T09:04:53.368Z</time>
      </trkpt>
      <trkpt lat="47.6862528" lon="-2.3123859">
        <ele>86.561</ele>
        <time>2018-08-25T09:04:58.082Z</time>
      </trkpt>
      <trkpt lat="47.6861962" lon="-2.3122606">
        <ele>86.388</ele>
        <time>2018-08-25T09:05:03.093Z</time>
      </trkpt>
      <trkpt lat="47.6861365" lon="-2.3121401">
        <ele>86.211</ele>
        <time>2018-08-25T09:05:08.044Z</time>
      </trkpt>
      <trkpt lat="47.6860814" lon="-2.3120254">
        <ele>86.142</ele>
        <time>2018-08-25T09:05:12.615Z</time>
      </trkpt>
      <trkpt lat="47.6860198" lon="-2.3118990">
        <ele>86.253</ele>
        <time>2018-08-25T09:05:17.361Z</time>
      </trkpt>
      <trkpt lat="47.6859510" lon="-2.3117552">
        <ele>86.284</ele>
        <time>2018-08-25T09:05:22.297Z</time>
      </trkpt>
      <trkpt lat="47.6858797" lon="-2.3115924">
        <ele>85.986</ele>
        <time>2018-08-25T09:05:27.281Z</time>
      </trkpt>
      <trkpt lat="47.6858269" lon="-2.3114707">
        <ele>85.457</ele>
        <time>2018-08-25T09:05:30.740Z</time>
      </trkpt>
      <trkpt lat="47.6857469" lon="-2.3113000">
        <ele>84.928</ele>
        <time>2018-08-25T09:05:35.392Z</time>
      </trkpt>
      <trkpt lat="47.6856978" lon="-2.3111775">
        <ele>84.491</ele>
        <time>2018-08-25T09:05:38.509Z</time>
      </trkpt>
      <trkpt lat="47.6856504" lon="-2.3110599">
        <ele>84.093</ele>
        <time>2018-08-25T09:05:41.422Z</time>
      </trkpt>
      <trkpt lat="47.6855709" lon="-2.3108879">
        <ele>83.688</ele>
        <time>2018-08-25T09:05:45.546Z</time>
      </trkpt>
      <trkpt lat="47.6854952" lon="-2.3107291">
        <ele>83.373</ele>
        <time>2018-08-25T09:05:48.995Z</time>
      </trkpt>
      <trkpt lat="47.6854427" lon="-2.3105574">
        <ele>83.195</ele>
        <time>2018-08-25T09:05:52.106Z</time>
      </trkpt>
      <trkpt lat="47.6853917" lon="-2.3103942">
        <ele>83.081</ele>
        <time>2018-08-25T09:05:54.927Z</time>
      </trkpt>
      <trkpt lat="47.6853411" lon="-2.3102471">
        <ele>82.980</ele>
        <time>2018-08-25T09:05:57.460Z</time>
      </trkpt>
      <trkpt lat="47.6852902" lon="-2.3101041">
        <ele>82.840</ele>
        <time>2018-08-25T09:05:59.953Z</time>
      </trkpt>
      <trkpt lat="47.6852387" lon="-2.3099712">
        <ele>82.628</ele>
        <time>2018-08-25T09:06:02.370Z</time>
      </trkpt>
      <trkpt lat="47.6851892" lon="-2.3098407">
        <ele>82.452</ele>
        <time>2018-08-25T09:06:04.801Z</time>
      </trkpt>
      <trkpt lat="47.6851353" lon="-2.3097099">
        <ele>82.410</ele>
        <time>2018-08-25T09:06:07.391Z</time>
      </trkpt>
      <trkpt lat="47.6850918" lon="-2.3095633">
        <ele>82.495</ele>
        <time>2018-08-25T09:06:10.250Z</time>
      </trkpt>
      <trkpt lat="47.6850504" lon="-2.3094271">
        <ele>82.657</ele>
        <time>2018-08-25T09:06:13.064Z</time>
      </trkpt>
      <trkpt lat="47.6850070" lon="-2.3092794">
        <ele>82.726</ele>
        <time>2018-08-25T09:06:16.248Z</time>
      </trkpt>
      <trkpt lat="47.6849617" lon="-2.3091368">
        <ele>82.560</ele>
        <time>2018-08-25T09:06:19.499Z</time>
      </trkpt>
      <trkpt lat="47.6849180" lon="-2.3089940">
        <ele>82.251</ele>
        <time>2018-08-25T09:06:22.784Z</time>
      </trkpt>
      <trkpt lat="47.6848760" lon="-2.3088458">
        <ele>81.950</ele>
        <time>2018-08-25T09:06:26.158Z</time>
      </trkpt>
      <trkpt lat="47.6848370" lon="-2.3087019">
        <ele>81.606</ele>
        <time>2018-08-25T09:06:29.440Z</time>
      </trkpt>
      <trkpt lat="47.6847956" lon="-2.3085632">
        <ele>81.186</ele>
        <time>2018-08-25T09:06:32.632Z</time>
      </trkpt>
      <trkpt lat="47.6847500" lon="-2.3084310">
        <ele>80.857</ele>
        <time>2018-08-25T09:06:35.710Z</time>
      </trkpt>
      <trkpt lat="47.6847026" lon="-2.3082937">
        <ele>80.736</ele>
        <time>2018-08-25T09:06:38.874Z</time>
      </trkpt>
      <trkpt lat="47.6846463" lon="-2.3081709">
        <ele>80.829</ele>
        <time>2018-08-25T09:06:41.908Z</time>
      </trkpt>
      <trkpt lat="47.6846008" lon="-2.3080388">
        <ele>81.107</ele>
        <time>2018-08-25T09:06:44.953Z</time>
      </trkpt>
      <trkpt lat="47.6845580" lon="-2.3079047">
        <ele>81.555</ele>
        <time>2018-08-25T09:06:48.050Z</time>
      </trkpt>
      <trkpt lat="47.6845118" lon="-2.3077669">
        <ele>82.281</ele>
        <time>2018-08-25T09:06:51.288Z</time>
      </trkpt>
      <trkpt lat="47.6844579" lon="-2.3076327">
        <ele>83.174</ele>
        <time>2018-08-25T09:06:54.595Z</time>
      </trkpt>
      <trkpt lat="47.6844036" lon="-2.3074982">
        <ele>83.853</ele>
        <time>2018-08-25T09:06:57.946Z</time>
      </trkpt>
      <trkpt lat="47.6843440" lon="-2.3073674">
        <ele>84.140</ele>
        <time>2018-08-25T09:07:01.357Z</time>
      </trkpt>
      <trkpt lat="47.6842792" lon="-2.3072416">
        <ele>84.185</ele>
        <time>2018-08-25T09:07:04.766Z</time>
      </trkpt>
      <trkpt lat="47.6842086" lon="-2.3071200">
        <ele>84.239</ele>
        <time>2018-08-25T09:07:08.163Z</time>
      </trkpt>
      <trkpt lat="47.6841400" lon="-2.3069841">
        <ele>84.444</ele>
        <time>2018-08-25T09:07:11.689Z</time>
      </trkpt>
      <trkpt lat="47.6840683" lon="-2.3068457">
        <ele>84.715</ele>
        <time>2018-08-25T09:07:15.273Z</time>
      </trkpt>
      <trkpt lat="47.6840000" lon="-2.3067055">
        <ele>84.908</ele>
        <time>2018-08-25T09:07:18.794Z</time>
      </trkpt>
      <trkpt lat="47.6839377" lon="-2.3065471">
        <ele>85.032</ele>
        <time>2018-08-25T09:07:22.446Z</time>
      </trkpt>
      <trkpt lat="47.6838709" lon="-2.3063905">
        <ele>85.275</ele>
        <time>2018-08-25T09:07:26.019Z</time>
      </trkpt>
      <trkpt lat="47.6838138" lon="-2.3062238">
        <ele>85.664</ele>
        <time>2018-08-25T09:07:29.541Z</time>
      </trkpt>
      <trkpt lat="47.6837733" lon="-2.3060558">
        <ele>85.984</ele>
        <time>2018-08-25T09:07:32.829Z</time>
      </trkpt>
      <trkpt lat="47.6837395" lon="-2.3058968">
        <ele>85.931</ele>
        <time>2018-08-25T09:07:35.832Z</time>
      </trkpt>
      <trkpt lat="47.6837033" lon="-2.3057343">
        <ele>85.405</ele>
        <time>2018-08-25T09:07:38.880Z</time>
      </trkpt>
      <trkpt lat="47.6836797" lon="-2.3055643">
        <ele>84.688</ele>
        <time>2018-08-25T09:07:41.996Z</time>
      </trkpt>
      <trkpt lat="47.6836499" lon="-2.3053974">
        <ele>84.198</ele>
        <time>2018-08-25T09:07:45.152Z</time>
      </trkpt>
      <trkpt lat="47.6836095" lon="-2.3052292">
        <ele>84.072</ele>
        <time>2018-08-25T09:07:48.464Z</time>
      </trkpt>
      <trkpt lat="47.6835759" lon="-2.3050622">
        <ele>84.189</ele>
        <time>2018-08-25T09:07:51.727Z</time>
      </trkpt>
      <trkpt lat="47.6835429" lon="-2.3048949">
        <ele>84.453</ele>
        <time>2018-08-25T09:07:54.979Z</time>
      </trkpt>
      <trkpt lat="47.6835037" lon="-2.3047449">
        <ele>84.875</ele>
        <time>2018-08-25T09:07:57.954Z</time>
      </trkpt>
      <trkpt lat="47.6834592" lon="-2.3045759">
        <ele>85.403</ele>
        <time>2018-08-25T09:08:01.304Z</time>
      </trkpt>
      <trkpt lat="47.6834190" lon="-2.3044024">
        <ele>85.883</ele>
        <time>2018-08-25T09:08:04.729Z</time>
      </trkpt>
      <trkpt lat="47.6833847" lon="-2.3042289">
        <ele>86.127</ele>
        <time>2018-08-25T09:08:08.081Z</time>
      </trkpt>
      <trkpt lat="47.6833588" lon="-2.3040525">
        <ele>86.063</ele>
        <time>2018-08-25T09:08:11.353Z</time>
      </trkpt>
      <trkpt lat="47.6833504" lon="-2.3039016">
        <ele>85.678</ele>
        <time>2018-08-25T09:08:14.067Z</time>
      </trkpt>
      <trkpt lat="47.6833648" lon="-2.3037248">
        <ele>84.919</ele>
        <time>2018-08-25T09:08:17.313Z</time>
      </trkpt>
      <trkpt lat="47.6833908" lon="-2.3035416">
        <ele>84.005</ele>
        <time>2018-08-25T09:08:20.890Z</time>
      </trkpt>
      <trkpt lat="47.6834308" lon="-2.3033547">
        <ele>83.366</ele>
        <time>2018-08-25T09:08:24.662Z</time>
      </trkpt>
      <trkpt lat="47.6834634" lon="-2.3032203">
        <ele>83.110</ele>
        <time>2018-08-25T09:08:27.283Z</time>
      </trkpt>
      <trkpt lat="47.6835158" lon="-2.3030390">
        <ele>83.077</ele>
        <time>2018-08-25T09:08:30.710Z</time>
      </trkpt>
      <trkpt lat="47.6835552" lon="-2.3029024">
        <ele>83.197</ele>
        <time>2018-08-25T09:08:33.172Z</time>
      </trkpt>
      <trkpt lat="47.6836264" lon="-2.3026785">
        <ele>83.419</ele>
        <time>2018-08-25T09:08:36.988Z</time>
      </trkpt>
      <trkpt lat="47.6836739" lon="-2.3025261">
        <ele>83.497</ele>
        <time>2018-08-25T09:08:39.415Z</time>
      </trkpt>
      <trkpt lat="47.6837290" lon="-2.3023151">
        <ele>83.230</ele>
        <time>2018-08-25T09:08:42.529Z</time>
      </trkpt>
      <trkpt lat="47.6837376" lon="-2.3021323">
        <ele>82.768</ele>
        <time>2018-08-25T09:08:45.122Z</time>
      </trkpt>
      <trkpt lat="47.6837097" lon="-2.3019764">
        <ele>82.216</ele>
        <time>2018-08-25T09:08:47.642Z</time>
      </trkpt>
      <trkpt lat="47.6836073" lon="-2.3018887">
        <ele>81.433</ele>
        <time>2018-08-25T09:08:50.952Z</time>
      </trkpt>
      <trkpt lat="47.6835009" lon="-2.3018409">
        <ele>80.499</ele>
        <time>2018-08-25T09:08:54.623Z</time>
      </trkpt>
      <trkpt lat="47.6833963" lon="-2.3017852">
        <ele>79.833</ele>
        <time>2018-08-25T09:08:58.372Z</time>
      </trkpt>
      <trkpt lat="47.6832832" lon="-2.3017229">
        <ele>79.749</ele>
        <time>2018-08-25T09:09:02.000Z</time>
      </trkpt>
      <trkpt lat="47.6832832" lon="-2.3017229">
        <ele>80.113</ele>
        <time>2018-08-25T09:09:03.000Z</time>
      </trkpt>
      <trkpt lat="47.6832832" lon="-2.3017229">
        <ele>80.414</ele>
        <time>2018-08-25T09:09:03.100Z</time>
      </trkpt>
      <trkpt lat="47.6830805" lon="-2.3016216">
        <ele>80.326</ele>
        <time>2018-08-25T09:09:09.731Z</time>
      </trkpt>
      <trkpt lat="47.6829815" lon="-2.3015891">
        <ele>80.045</ele>
        <time>2018-08-25T09:09:11.771Z</time>
      </trkpt>
      <trkpt lat="47.6828312" lon="-2.3015778">
        <ele>79.839</ele>
        <time>2018-08-25T09:09:14.667Z</time>
      </trkpt>
      <trkpt lat="47.6827172" lon="-2.3015669">
        <ele>79.656</ele>
        <time>2018-08-25T09:09:16.912Z</time>
      </trkpt>
      <trkpt lat="47.6826385" lon="-2.3014999">
        <ele>79.239</ele>
        <time>2018-08-25T09:09:18.764Z</time>
      </trkpt>
      <trkpt lat="47.6825657" lon="-2.3014171">
        <ele>78.570</ele>
        <time>2018-08-25T09:09:20.690Z</time>
      </trkpt>
      <trkpt lat="47.6824548" lon="-2.3013338">
        <ele>77.996</ele>
        <time>2018-08-25T09:09:23.611Z</time>
      </trkpt>
      <trkpt lat="47.6823398" lon="-2.3012700">
        <ele>77.925</ele>
        <time>2018-08-25T09:09:26.972Z</time>
      </trkpt>
      <trkpt lat="47.6822529" lon="-2.3012193">
        <ele>78.394</ele>
        <time>2018-08-25T09:09:29.884Z</time>
      </trkpt>
      <trkpt lat="47.6821650" lon="-2.3011799">
        <ele>79.052</ele>
        <time>2018-08-25T09:09:32.955Z</time>
      </trkpt>
      <trkpt lat="47.6820565" lon="-2.3011263">
        <ele>79.582</ele>
        <time>2018-08-25T09:09:37.079Z</time>
      </trkpt>
      <trkpt lat="47.6819643" lon="-2.3010664">
        <ele>80.088</ele>
        <time>2018-08-25T09:09:40.748Z</time>
      </trkpt>
      <trkpt lat="47.6818576" lon="-2.3010039">
        <ele>80.663</ele>
        <time>2018-08-25T09:09:44.700Z</time>
      </trkpt>
      <trkpt lat="47.6817536" lon="-2.3009426">
        <ele>81.142</ele>
        <time>2018-08-25T09:09:48.481Z</time>
      </trkpt>
      <trkpt lat="47.6816564" lon="-2.3008820">
        <ele>81.386</ele>
        <time>2018-08-25T09:09:52.076Z</time>
      </trkpt>
      <trkpt lat="47.6815554" lon="-2.3008315">
        <ele>81.609</ele>
        <time>2018-08-25T09:09:55.726Z</time>
      </trkpt>
      <trkpt lat="47.6814542" lon="-2.3007658">
        <ele>82.037</ele>
        <time>2018-08-25T09:09:59.484Z</time>
      </trkpt>
      <trkpt lat="47.6813536" lon="-2.3006851">
        <ele>82.537</ele>
        <time>2018-08-25T09:10:03.251Z</time>
      </trkpt>
      <trkpt lat="47.6812641" lon="-2.3006203">
        <ele>82.878</ele>
        <time>2018-08-25T09:10:06.355Z</time>
      </trkpt>
      <trkpt lat="47.6811754" lon="-2.3005576">
        <ele>83.028</ele>
        <time>2018-08-25T09:10:09.312Z</time>
      </trkpt>
      <trkpt lat="47.6810867" lon="-2.3004857">
        <ele>83.044</ele>
        <time>2018-08-25T09:10:12.281Z</time>
      </trkpt>
      <trkpt lat="47.6810008" lon="-2.3004173">
        <ele>83.135</ele>
        <time>2018-08-25T09:10:15.077Z</time>
      </trkpt>
      <trkpt lat="47.6809187" lon="-2.3003292">
        <ele>83.420</ele>
        <time>2018-08-25T09:10:17.888Z</time>
      </trkpt>
      <trkpt lat="47.6808206" lon="-2.3002360">
        <ele>83.595</ele>
        <time>2018-08-25T09:10:20.935Z</time>
      </trkpt>
      <trkpt lat="47.6807219" lon="-2.3001429">
        <ele>83.344</ele>
        <time>2018-08-25T09:10:23.861Z</time>
      </trkpt>
      <trkpt lat="47.6806310" lon="-2.3000501">
        <ele>82.819</ele>
        <time>2018-08-25T09:10:26.589Z</time>
      </trkpt>
      <trkpt lat="47.6805310" lon="-2.2999568">
        <ele>82.252</ele>
        <time>2018-08-25T09:10:29.467Z</time>
      </trkpt>
      <trkpt lat="47.6804359" lon="-2.2998475">
        <ele>81.593</ele>
        <time>2018-08-25T09:10:32.335Z</time>
      </trkpt>
      <trkpt lat="47.6803321" lon="-2.2997396">
        <ele>80.847</ele>
        <time>2018-08-25T09:10:35.340Z</time>
      </trkpt>
      <trkpt lat="47.6802143" lon="-2.2996497">
        <ele>80.259</ele>
        <time>2018-08-25T09:10:38.466Z</time>
      </trkpt>
      <trkpt lat="47.6801157" lon="-2.2995380">
        <ele>79.992</ele>
        <time>2018-08-25T09:10:41.401Z</time>
      </trkpt>
      <trkpt lat="47.6800232" lon="-2.2994420">
        <ele>79.931</ele>
        <time>2018-08-25T09:10:44.174Z</time>
      </trkpt>
      <trkpt lat="47.6799361" lon="-2.2993531">
        <ele>79.908</ele>
        <time>2018-08-25T09:10:46.923Z</time>
      </trkpt>
      <trkpt lat="47.6798351" lon="-2.2992677">
        <ele>79.826</ele>
        <time>2018-08-25T09:10:49.930Z</time>
      </trkpt>
      <trkpt lat="47.6797397" lon="-2.2991726">
        <ele>79.548</ele>
        <time>2018-08-25T09:10:52.794Z</time>
      </trkpt>
      <trkpt lat="47.6796558" lon="-2.2990782">
        <ele>79.066</ele>
        <time>2018-08-25T09:10:55.436Z</time>
      </trkpt>
      <trkpt lat="47.6795645" lon="-2.2989753">
        <ele>78.632</ele>
        <time>2018-08-25T09:10:58.311Z</time>
      </trkpt>
      <trkpt lat="47.6794792" lon="-2.2988753">
        <ele>78.409</ele>
        <time>2018-08-25T09:11:01.060Z</time>
      </trkpt>
      <trkpt lat="47.6794009" lon="-2.2987893">
        <ele>78.371</ele>
        <time>2018-08-25T09:11:03.616Z</time>
      </trkpt>
      <trkpt lat="47.6793023" lon="-2.2986936">
        <ele>78.476</ele>
        <time>2018-08-25T09:11:06.930Z</time>
      </trkpt>
      <trkpt lat="47.6792054" lon="-2.2986087">
        <ele>78.636</ele>
        <time>2018-08-25T09:11:10.336Z</time>
      </trkpt>
      <trkpt lat="47.6791235" lon="-2.2985236">
        <ele>78.758</ele>
        <time>2018-08-25T09:11:13.613Z</time>
      </trkpt>
      <trkpt lat="47.6790431" lon="-2.2984439">
        <ele>78.815</ele>
        <time>2018-08-25T09:11:17.026Z</time>
      </trkpt>
      <trkpt lat="47.6789674" lon="-2.2983429">
        <ele>78.816</ele>
        <time>2018-08-25T09:11:20.934Z</time>
      </trkpt>
      <trkpt lat="47.6788934" lon="-2.2982606">
        <ele>78.899</ele>
        <time>2018-08-25T09:11:24.877Z</time>
      </trkpt>
      <trkpt lat="47.6788011" lon="-2.2981700">
        <ele>79.299</ele>
        <time>2018-08-25T09:11:29.757Z</time>
      </trkpt>
      <trkpt lat="47.6787142" lon="-2.2980852">
        <ele>80.011</ele>
        <time>2018-08-25T09:11:34.037Z</time>
      </trkpt>
      <trkpt lat="47.6786334" lon="-2.2980041">
        <ele>80.712</ele>
        <time>2018-08-25T09:11:37.845Z</time>
      </trkpt>
      <trkpt lat="47.6785392" lon="-2.2979122">
        <ele>81.134</ele>
        <time>2018-08-25T09:11:42.415Z</time>
      </trkpt>
      <trkpt lat="47.6784535" lon="-2.2978490">
        <ele>81.643</ele>
        <time>2018-08-25T09:11:46.447Z</time>
      </trkpt>
      <trkpt lat="47.6783490" lon="-2.2977745">
        <ele>82.595</ele>
        <time>2018-08-25T09:11:51.502Z</time>
      </trkpt>
      <trkpt lat="47.6782708" lon="-2.2977051">
        <ele>83.265</ele>
        <time>2018-08-25T09:11:55.697Z</time>
      </trkpt>
      <trkpt lat="47.6782020" lon="-2.2976119">
        <ele>82.994</ele>
        <time>2018-08-25T09:12:00.443Z</time>
      </trkpt>
      <trkpt lat="47.6781273" lon="-2.2975362">
        <ele>82.760</ele>
        <time>2018-08-25T09:12:05.285Z</time>
      </trkpt>
      <trkpt lat="47.6780395" lon="-2.2974941">
        <ele>83.464</ele>
        <time>2018-08-25T09:12:09.957Z</time>
      </trkpt>
      <trkpt lat="47.6779695" lon="-2.2973668">
        <ele>84.491</ele>
        <time>2018-08-25T09:12:15.504Z</time>
      </trkpt>
      <trkpt lat="47.6778895" lon="-2.2972985">
        <ele>85.056</ele>
        <time>2018-08-25T09:12:20.458Z</time>
      </trkpt>
      <trkpt lat="47.6777766" lon="-2.2972234">
        <ele>85.212</ele>
        <time>2018-08-25T09:12:27.142Z</time>
      </trkpt>
      <trkpt lat="47.6776760" lon="-2.2971772">
        <ele>85.867</ele>
        <time>2018-08-25T09:12:31.596Z</time>
      </trkpt>
      <trkpt lat="47.6775741" lon="-2.2971719">
        <ele>87.537</ele>
        <time>2018-08-25T09:12:35.801Z</time>
      </trkpt>
      <trkpt lat="47.6774755" lon="-2.2971886">
        <ele>89.310</ele>
        <time>2018-08-25T09:12:40.282Z</time>
      </trkpt>
      <trkpt lat="47.6773659" lon="-2.2971466">
        <ele>90.470</ele>
        <time>2018-08-25T09:12:45.863Z</time>
      </trkpt>
      <trkpt lat="47.6772456" lon="-2.2970872">
        <ele>91.533</ele>
        <time>2018-08-25T09:12:52.521Z</time>
      </trkpt>
      <trkpt lat="47.6771365" lon="-2.2970410">
        <ele>92.711</ele>
        <time>2018-08-25T09:12:57.152Z</time>
      </trkpt>
      <trkpt lat="47.6770313" lon="-2.2969887">
        <ele>93.206</ele>
        <time>2018-08-25T09:13:00.718Z</time>
      </trkpt>
      <trkpt lat="47.6769108" lon="-2.2969396">
        <ele>92.568</ele>
        <time>2018-08-25T09:13:04.245Z</time>
      </trkpt>
      <trkpt lat="47.6767319" lon="-2.2969219">
        <ele>91.599</ele>
        <time>2018-08-25T09:13:08.328Z</time>
      </trkpt>
      <trkpt lat="47.6766370" lon="-2.2968900">
        <ele>91.184</ele>
        <time>2018-08-25T09:13:10.408Z</time>
      </trkpt>
      <trkpt lat="47.6765092" lon="-2.2968436">
        <ele>91.498</ele>
        <time>2018-08-25T09:13:13.290Z</time>
      </trkpt>
      <trkpt lat="47.6764166" lon="-2.2968239">
        <ele>92.106</ele>
        <time>2018-08-25T09:13:15.466Z</time>
      </trkpt>
      <trkpt lat="47.6763095" lon="-2.2967844">
        <ele>92.395</ele>
        <time>2018-08-25T09:13:18.193Z</time>
      </trkpt>
      <trkpt lat="47.6762122" lon="-2.2967417">
        <ele>92.012</ele>
        <time>2018-08-25T09:13:21.277Z</time>
      </trkpt>
      <trkpt lat="47.6761197" lon="-2.2967148">
        <ele>91.074</ele>
        <time>2018-08-25T09:13:25.000Z</time>
      </trkpt>
      <trkpt lat="47.6761197" lon="-2.2967148">
        <ele>90.321</ele>
        <time>2018-08-25T09:13:27.000Z</time>
      </trkpt>
      <trkpt lat="47.6761197" lon="-2.2967148">
        <ele>90.301</ele>
        <time>2018-08-25T09:13:29.912Z</time>
      </trkpt>
      <trkpt lat="47.6760108" lon="-2.2967390">
        <ele>90.546</ele>
        <time>2018-08-25T09:13:42.000Z</time>
      </trkpt>
      <trkpt lat="47.6760108" lon="-2.2967390">
        <ele>90.401</ele>
        <time>2018-08-25T09:13:47.000Z</time>
      </trkpt>
      <trkpt lat="47.6760108" lon="-2.2967390">
        <ele>90.350</ele>
        <time>2018-08-25T09:13:47.100Z</time>
      </trkpt>
      <trkpt lat="47.6760563" lon="-2.2964483">
        <ele>90.365</ele>
        <time>2018-08-25T09:13:59.545Z</time>
      </trkpt>
      <trkpt lat="47.6761007" lon="-2.2963170">
        <ele>90.170</ele>
        <time>2018-08-25T09:14:03.931Z</time>
      </trkpt>
      <trkpt lat="47.6760981" lon="-2.2961812">
        <ele>89.660</ele>
        <time>2018-08-25T09:14:07.992Z</time>
      </trkpt>
      <trkpt lat="47.6760885" lon="-2.2960407">
        <ele>89.507</ele>
        <time>2018-08-25T09:14:12.203Z</time>
      </trkpt>
      <trkpt lat="47.6760739" lon="-2.2958923">
        <ele>90.445</ele>
        <time>2018-08-25T09:14:16.704Z</time>
      </trkpt>
      <trkpt lat="47.6760749" lon="-2.2957421">
        <ele>92.007</ele>
        <time>2018-08-25T09:14:21.490Z</time>
      </trkpt>
      <trkpt lat="47.6760534" lon="-2.2955925">
        <ele>92.902</ele>
        <time>2018-08-25T09:14:26.714Z</time>
      </trkpt>
      <trkpt lat="47.6759531" lon="-2.2955833">
        <ele>92.480</ele>
        <time>2018-08-25T09:14:31.907Z</time>
      </trkpt>
      <trkpt lat="47.6758994" lon="-2.2957232">
        <ele>91.284</ele>
        <time>2018-08-25T09:14:37.359Z</time>
      </trkpt>
      <trkpt lat="47.6758025" lon="-2.2957056">
        <ele>90.292</ele>
        <time>2018-08-25T09:14:43.305Z</time>
      </trkpt>
      <trkpt lat="47.6757348" lon="-2.2956030">
        <ele>89.622</ele>
        <time>2018-08-25T09:14:51.650Z</time>
      </trkpt>
      <trkpt lat="47.6756991" lon="-2.2954691">
        <ele>88.878</ele>
        <time>2018-08-25T09:14:59.599Z</time>
      </trkpt>
      <trkpt lat="47.6756916" lon="-2.2953254">
        <ele>88.125</ele>
        <time>2018-08-25T09:15:07.322Z</time>
      </trkpt>
      <trkpt lat="47.6757140" lon="-2.2951922">
        <ele>87.627</ele>
        <time>2018-08-25T09:15:14.996Z</time>
      </trkpt>
      <trkpt lat="47.6757140" lon="-2.2951922">
        <ele>87.400</ele>
        <time>2018-08-25T09:15:28.996Z</time>
      </trkpt>
      <trkpt lat="47.6517706" lon="-2.0888951">
        <ele>25.481</ele>
        <time>2018-08-28T10:36:33.027Z</time>
      </trkpt>
      <trkpt lat="47.6517706" lon="-2.0888951">
        <ele>25.473</ele>
        <time>2018-08-28T10:36:40.910Z</time>
      </trkpt>
      <trkpt lat="47.6518563" lon="-2.0888512">
        <ele>23.901</ele>
        <time>2018-08-28T10:36:54.038Z</time>
      </trkpt>
      <trkpt lat="47.6518579" lon="-2.0888682">
        <ele>19.873</ele>
        <time>2018-08-28T10:36:55.006Z</time>
      </trkpt>
      <trkpt lat="47.6519223" lon="-2.0889700">
        <ele>15.770</ele>
        <time>2018-08-28T10:37:02.814Z</time>
      </trkpt>
      <trkpt lat="47.6520006" lon="-2.0890439">
        <ele>13.566</ele>
        <time>2018-08-28T10:37:10.405Z</time>
      </trkpt>
      <trkpt lat="47.6520799" lon="-2.0889737">
        <ele>12.531</ele>
        <time>2018-08-28T10:37:17.999Z</time>
      </trkpt>
      <trkpt lat="47.6520799" lon="-2.0889737">
        <ele>12.005</ele>
        <time>2018-08-28T10:37:26.999Z</time>
      </trkpt>
      <trkpt lat="47.6520799" lon="-2.0889737">
        <ele>11.829</ele>
        <time>2018-08-28T10:37:54.535Z</time>
      </trkpt>
      <trkpt lat="47.6522017" lon="-2.0886896">
        <ele>11.859</ele>
        <time>2018-08-28T10:38:10.796Z</time>
      </trkpt>
      <trkpt lat="47.6522126" lon="-2.0885511">
        <ele>11.621</ele>
        <time>2018-08-28T10:38:15.001Z</time>
      </trkpt>
      <trkpt lat="47.6521904" lon="-2.0883982">
        <ele>10.800</ele>
        <time>2018-08-28T10:38:20.004Z</time>
      </trkpt>
      <trkpt lat="47.6521894" lon="-2.0882400">
        <ele>9.831</ele>
        <time>2018-08-28T10:38:25.254Z</time>
      </trkpt>
      <trkpt lat="47.6521783" lon="-2.0880965">
        <ele>9.266</ele>
        <time>2018-08-28T10:38:29.773Z</time>
      </trkpt>
      <trkpt lat="47.6522518" lon="-2.0879753">
        <ele>9.118</ele>
        <time>2018-08-28T10:38:34.600Z</time>
      </trkpt>
      <trkpt lat="47.6523079" lon="-2.0878675">
        <ele>9.249</ele>
        <time>2018-08-28T10:38:39.157Z</time>
      </trkpt>
      <trkpt lat="47.6522625" lon="-2.0877467">
        <ele>9.503</ele>
        <time>2018-08-28T10:38:44.015Z</time>
      </trkpt>
      <trkpt lat="47.6522502" lon="-2.0875868">
        <ele>9.563</ele>
        <time>2018-08-28T10:38:48.879Z</time>
      </trkpt>
      <trkpt lat="47.6522180" lon="-2.0874263">
        <ele>9.181</ele>
        <time>2018-08-28T10:38:53.196Z</time>
      </trkpt>
      <trkpt lat="47.6521857" lon="-2.0872535">
        <ele>8.479</ele>
        <time>2018-08-28T10:38:57.136Z</time>
      </trkpt>
      <trkpt lat="47.6521665" lon="-2.0871000">
        <ele>7.637</ele>
        <time>2018-08-28T10:39:00.052Z</time>
      </trkpt>
      <trkpt lat="47.6521518" lon="-2.0869310">
        <ele>6.745</ele>
        <time>2018-08-28T10:39:02.699Z</time>
      </trkpt>
      <trkpt lat="47.6521229" lon="-2.0867272">
        <ele>6.008</ele>
        <time>2018-08-28T10:39:05.548Z</time>
      </trkpt>
      <trkpt lat="47.6520794" lon="-2.0865035">
        <ele>5.532</ele>
        <time>2018-08-28T10:39:08.485Z</time>
      </trkpt>
      <trkpt lat="47.6520550" lon="-2.0862724">
        <ele>5.224</ele>
        <time>2018-08-28T10:39:11.293Z</time>
      </trkpt>
      <trkpt lat="47.6520341" lon="-2.0860161">
        <ele>5.040</ele>
        <time>2018-08-28T10:39:14.552Z</time>
      </trkpt>
      <trkpt lat="47.6519906" lon="-2.0858838">
        <ele>4.987</ele>
        <time>2018-08-28T10:39:16.734Z</time>
      </trkpt>
      <trkpt lat="47.6519488" lon="-2.0857147">
        <ele>5.050</ele>
        <time>2018-08-28T10:39:20.110Z</time>
      </trkpt>
      <trkpt lat="47.6518920" lon="-2.0855917">
        <ele>5.194</ele>
        <time>2018-08-28T10:39:23.718Z</time>
      </trkpt>
      <trkpt lat="47.6518022" lon="-2.0855057">
        <ele>5.347</ele>
        <time>2018-08-28T10:39:28.093Z</time>
      </trkpt>
      <trkpt lat="47.6517425" lon="-2.0853916">
        <ele>5.454</ele>
        <time>2018-08-28T10:39:31.999Z</time>
      </trkpt>
      <trkpt lat="47.6517425" lon="-2.0853916">
        <ele>5.505</ele>
        <time>2018-08-28T10:39:37.999Z</time>
      </trkpt>
      <trkpt lat="47.6517425" lon="-2.0853916">
        <ele>5.514</ele>
        <time>2018-08-28T10:39:38.999Z</time>
      </trkpt>
      <trkpt lat="47.6517425" lon="-2.0853916">
        <ele>5.508</ele>
        <time>2018-08-28T10:39:39.099Z</time>
      </trkpt>
      <trkpt lat="47.6517625" lon="-2.0851820">
        <ele>5.501</ele>
        <time>2018-08-28T10:39:58.999Z</time>
      </trkpt>
      <trkpt lat="47.6517625" lon="-2.0851820">
        <ele>5.498</ele>
        <time>2018-08-28T10:40:01.999Z</time>
      </trkpt>
      <trkpt lat="47.6517625" lon="-2.0851820">
        <ele>5.495</ele>
        <time>2018-08-28T10:45:05.488Z</time>
      </trkpt>
      <trkpt lat="47.6517625" lon="-2.0851820">
        <ele>5.491</ele>
        <time>2018-08-28T10:45:27.000Z</time>
      </trkpt>
      <trkpt lat="47.6517625" lon="-2.0851820">
        <ele>5.490</ele>
        <time>2018-08-28T10:45:27.100Z</time>
      </trkpt>
      <trkpt lat="47.6517284" lon="-2.0853241">
        <ele>5.489</ele>
        <time>2018-08-28T10:45:38.000Z</time>
      </trkpt>
      <trkpt lat="47.6517284" lon="-2.0853241">
        <ele>5.487</ele>
        <time>2018-08-28T10:45:39.000Z</time>
      </trkpt>
      <trkpt lat="47.6517284" lon="-2.0853241">
        <ele>5.485</ele>
        <time>2018-08-28T10:45:39.100Z</time>
      </trkpt>
      <trkpt lat="47.6517284" lon="-2.0853241">
        <ele>5.482</ele>
        <time>2018-08-28T10:46:05.000Z</time>
      </trkpt>
      <trkpt lat="47.6517284" lon="-2.0853241">
        <ele>5.480</ele>
        <time>2018-08-28T10:51:34.794Z</time>
      </trkpt>
      <trkpt lat="47.6517847" lon="-2.0851831">
        <ele>5.479</ele>
        <time>2018-08-28T10:53:11.244Z</time>
      </trkpt>
      <trkpt lat="47.6517540" lon="-2.0850532">
        <ele>6.107</ele>
        <time>2018-08-28T10:53:19.502Z</time>
      </trkpt>
      <trkpt lat="47.6517258" lon="-2.0849106">
        <ele>7.876</ele>
        <time>2018-08-28T10:53:27.064Z</time>
      </trkpt>
      <trkpt lat="47.6516962" lon="-2.0847793">
        <ele>10.027</ele>
        <time>2018-08-28T10:53:35.436Z</time>
      </trkpt>
      <trkpt lat="47.6517075" lon="-2.0846352">
        <ele>11.587</ele>
        <time>2018-08-28T10:53:44.121Z</time>
      </trkpt>
      <trkpt lat="47.6516942" lon="-2.0844904">
        <ele>12.461</ele>
        <time>2018-08-28T10:53:49.343Z</time>
      </trkpt>
      <trkpt lat="47.6516716" lon="-2.0843470">
        <ele>12.840</ele>
        <time>2018-08-28T10:53:53.215Z</time>
      </trkpt>
      <trkpt lat="47.6516468" lon="-2.0842113">
        <ele>12.926</ele>
        <time>2018-08-28T10:53:56.592Z</time>
      </trkpt>
      <trkpt lat="47.6516126" lon="-2.0840722">
        <ele>12.860</ele>
        <time>2018-08-28T10:54:00.148Z</time>
      </trkpt>
      <trkpt lat="47.6515813" lon="-2.0839223">
        <ele>12.726</ele>
        <time>2018-08-28T10:54:04.265Z</time>
      </trkpt>
      <trkpt lat="47.6515198" lon="-2.0838002">
        <ele>12.577</ele>
        <time>2018-08-28T10:54:08.594Z</time>
      </trkpt>
      <trkpt lat="47.6514738" lon="-2.0836754">
        <ele>12.452</ele>
        <time>2018-08-28T10:54:13.613Z</time>
      </trkpt>
      <trkpt lat="47.6514070" lon="-2.0835544">
        <ele>12.355</ele>
        <time>2018-08-28T10:54:19.267Z</time>
      </trkpt>
      <trkpt lat="47.6513639" lon="-2.0834323">
        <ele>12.275</ele>
        <time>2018-08-28T10:54:23.807Z</time>
      </trkpt>
      <trkpt lat="47.6513002" lon="-2.0833085">
        <ele>12.242</ele>
        <time>2018-08-28T10:54:28.610Z</time>
      </trkpt>
      <trkpt lat="47.6512418" lon="-2.0831803">
        <ele>12.304</ele>
        <time>2018-08-28T10:54:33.145Z</time>
      </trkpt>
      <trkpt lat="47.6511863" lon="-2.0830368">
        <ele>12.526</ele>
        <time>2018-08-28T10:54:37.815Z</time>
      </trkpt>
      <trkpt lat="47.6511335" lon="-2.0828873">
        <ele>12.467</ele>
        <time>2018-08-28T10:54:42.451Z</time>
      </trkpt>
      <trkpt lat="47.6510736" lon="-2.0827697">
        <ele>12.374</ele>
        <time>2018-08-28T10:54:46.314Z</time>
      </trkpt>
      <trkpt lat="47.6510059" lon="-2.0826507">
        <ele>12.354</ele>
        <time>2018-08-28T10:54:49.919Z</time>
      </trkpt>
      <trkpt lat="47.6509437" lon="-2.0825336">
        <ele>12.331</ele>
        <time>2018-08-28T10:54:53.020Z</time>
      </trkpt>
      <trkpt lat="47.6508713" lon="-2.0824103">
        <ele>12.193</ele>
        <time>2018-08-28T10:54:56.168Z</time>
      </trkpt>
      <trkpt lat="47.6507933" lon="-2.0822641">
        <ele>11.992</ele>
        <time>2018-08-28T10:54:59.457Z</time>
      </trkpt>
      <trkpt lat="47.6507358" lon="-2.0821478">
        <ele>11.851</ele>
        <time>2018-08-28T10:55:01.768Z</time>
      </trkpt>
      <trkpt lat="47.6506431" lon="-2.0819653">
        <ele>11.787</ele>
        <time>2018-08-28T10:55:04.999Z</time>
      </trkpt>
      <trkpt lat="47.6506431" lon="-2.0819653">
        <ele>11.751</ele>
        <time>2018-08-28T10:55:05.999Z</time>
      </trkpt>
      <trkpt lat="47.6506431" lon="-2.0819653">
        <ele>11.729</ele>
        <time>2018-08-28T10:55:06.099Z</time>
      </trkpt>
      <trkpt lat="47.6504688" lon="-2.0816937">
        <ele>11.726</ele>
        <time>2018-08-28T10:55:10.999Z</time>
      </trkpt>
      <trkpt lat="47.6504688" lon="-2.0816937">
        <ele>11.728</ele>
        <time>2018-08-28T10:55:16.999Z</time>
      </trkpt>
      <trkpt lat="47.6504688" lon="-2.0816937">
        <ele>11.724</ele>
        <time>2018-08-28T10:55:17.099Z</time>
      </trkpt>
      <trkpt lat="47.6503826" lon="-2.0816349">
        <ele>11.717</ele>
        <time>2018-08-28T10:55:38.592Z</time>
      </trkpt>
      <trkpt lat="47.6504325" lon="-2.0815209">
        <ele>11.193</ele>
        <time>2018-08-28T10:55:42.596Z</time>
      </trkpt>
      <trkpt lat="47.6504570" lon="-2.0813525">
        <ele>9.839</ele>
        <time>2018-08-28T10:55:46.643Z</time>
      </trkpt>
      <trkpt lat="47.6504811" lon="-2.0812054">
        <ele>8.471</ele>
        <time>2018-08-28T10:55:49.879Z</time>
      </trkpt>
      <trkpt lat="47.6505046" lon="-2.0810641">
        <ele>7.843</ele>
        <time>2018-08-28T10:55:52.841Z</time>
      </trkpt>
      <trkpt lat="47.6505273" lon="-2.0809148">
        <ele>7.918</ele>
        <time>2018-08-28T10:55:55.912Z</time>
      </trkpt>
      <trkpt lat="47.6505496" lon="-2.0807699">
        <ele>7.855</ele>
        <time>2018-08-28T10:55:58.817Z</time>
      </trkpt>
      <trkpt lat="47.6505737" lon="-2.0806240">
        <ele>7.722</ele>
        <time>2018-08-28T10:56:01.645Z</time>
      </trkpt>
      <trkpt lat="47.6505973" lon="-2.0804647">
        <ele>7.696</ele>
        <time>2018-08-28T10:56:04.614Z</time>
      </trkpt>
      <trkpt lat="47.6506203" lon="-2.0802974">
        <ele>7.887</ele>
        <time>2018-08-28T10:56:07.592Z</time>
      </trkpt>
      <trkpt lat="47.6506435" lon="-2.0801317">
        <ele>8.141</ele>
        <time>2018-08-28T10:56:10.425Z</time>
      </trkpt>
      <trkpt lat="47.6506688" lon="-2.0799475">
        <ele>8.253</ele>
        <time>2018-08-28T10:56:13.452Z</time>
      </trkpt>
      <trkpt lat="47.6506928" lon="-2.0797668">
        <ele>8.072</ele>
        <time>2018-08-28T10:56:16.307Z</time>
      </trkpt>
      <trkpt lat="47.6507175" lon="-2.0795700">
        <ele>7.688</ele>
        <time>2018-08-28T10:56:19.369Z</time>
      </trkpt>
      <trkpt lat="47.6507389" lon="-2.0793793">
        <ele>7.260</ele>
        <time>2018-08-28T10:56:22.361Z</time>
      </trkpt>
      <trkpt lat="47.6507547" lon="-2.0791959">
        <ele>6.807</ele>
        <time>2018-08-28T10:56:25.298Z</time>
      </trkpt>
      <trkpt lat="47.6507806" lon="-2.0790282">
        <ele>6.126</ele>
        <time>2018-08-28T10:56:28.095Z</time>
      </trkpt>
      <trkpt lat="47.6508105" lon="-2.0788521">
        <ele>5.969</ele>
        <time>2018-08-28T10:56:31.100Z</time>
      </trkpt>
      <trkpt lat="47.6508451" lon="-2.0786845">
        <ele>5.701</ele>
        <time>2018-08-28T10:56:34.047Z</time>
      </trkpt>
      <trkpt lat="47.6508878" lon="-2.0785194">
        <ele>5.309</ele>
        <time>2018-08-28T10:56:37.060Z</time>
      </trkpt>
      <trkpt lat="47.6509341" lon="-2.0783602">
        <ele>4.997</ele>
        <time>2018-08-28T10:56:40.037Z</time>
      </trkpt>
      <trkpt lat="47.6509755" lon="-2.0782003">
        <ele>4.954</ele>
        <time>2018-08-28T10:56:42.993Z</time>
      </trkpt>
      <trkpt lat="47.6510165" lon="-2.0780357">
        <ele>5.151</ele>
        <time>2018-08-28T10:56:46.046Z</time>
      </trkpt>
      <trkpt lat="47.6510552" lon="-2.0778754">
        <ele>5.378</ele>
        <time>2018-08-28T10:56:49.073Z</time>
      </trkpt>
      <trkpt lat="47.6510928" lon="-2.0777228">
        <ele>5.450</ele>
        <time>2018-08-28T10:56:52.129Z</time>
      </trkpt>
      <trkpt lat="47.6511336" lon="-2.0775825">
        <ele>5.336</ele>
        <time>2018-08-28T10:56:55.144Z</time>
      </trkpt>
      <trkpt lat="47.6511883" lon="-2.0774353">
        <ele>5.170</ele>
        <time>2018-08-28T10:56:58.648Z</time>
      </trkpt>
      <trkpt lat="47.6512331" lon="-2.0773098">
        <ele>5.033</ele>
        <time>2018-08-28T10:57:01.632Z</time>
      </trkpt>
      <trkpt lat="47.6512833" lon="-2.0771903">
        <ele>4.987</ele>
        <time>2018-08-28T10:57:04.498Z</time>
      </trkpt>
      <trkpt lat="47.6513332" lon="-2.0770435">
        <ele>5.004</ele>
        <time>2018-08-28T10:57:07.702Z</time>
      </trkpt>
      <trkpt lat="47.6513720" lon="-2.0768789">
        <ele>5.017</ele>
        <time>2018-08-28T10:57:11.044Z</time>
      </trkpt>
      <trkpt lat="47.6514100" lon="-2.0767425">
        <ele>4.967</ele>
        <time>2018-08-28T10:57:13.806Z</time>
      </trkpt>
      <trkpt lat="47.6514531" lon="-2.0766026">
        <ele>4.823</ele>
        <time>2018-08-28T10:57:16.578Z</time>
      </trkpt>
      <trkpt lat="47.6515205" lon="-2.0764461">
        <ele>4.592</ele>
        <time>2018-08-28T10:57:19.839Z</time>
      </trkpt>
      <trkpt lat="47.6515798" lon="-2.0762974">
        <ele>4.342</ele>
        <time>2018-08-28T10:57:22.859Z</time>
      </trkpt>
      <trkpt lat="47.6516455" lon="-2.0761720">
        <ele>4.123</ele>
        <time>2018-08-28T10:57:25.637Z</time>
      </trkpt>
      <trkpt lat="47.6517193" lon="-2.0760434">
        <ele>3.941</ele>
        <time>2018-08-28T10:57:28.581Z</time>
      </trkpt>
      <trkpt lat="47.6517887" lon="-2.0759148">
        <ele>3.798</ele>
        <time>2018-08-28T10:57:31.409Z</time>
      </trkpt>
      <trkpt lat="47.6518584" lon="-2.0757692">
        <ele>3.728</ele>
        <time>2018-08-28T10:57:34.403Z</time>
      </trkpt>
      <trkpt lat="47.6519301" lon="-2.0756129">
        <ele>3.788</ele>
        <time>2018-08-28T10:57:37.515Z</time>
      </trkpt>
      <trkpt lat="47.6519956" lon="-2.0754547">
        <ele>4.030</ele>
        <time>2018-08-28T10:57:40.576Z</time>
      </trkpt>
      <trkpt lat="47.6520620" lon="-2.0753014">
        <ele>4.411</ele>
        <time>2018-08-28T10:57:43.663Z</time>
      </trkpt>
      <trkpt lat="47.6521184" lon="-2.0751602">
        <ele>4.816</ele>
        <time>2018-08-28T10:57:46.541Z</time>
      </trkpt>
      <trkpt lat="47.6521604" lon="-2.0750163">
        <ele>5.135</ele>
        <time>2018-08-28T10:57:49.340Z</time>
      </trkpt>
      <trkpt lat="47.6521946" lon="-2.0748571">
        <ele>5.336</ele>
        <time>2018-08-28T10:57:52.324Z</time>
      </trkpt>
      <trkpt lat="47.6522176" lon="-2.0746918">
        <ele>5.484</ele>
        <time>2018-08-28T10:57:55.320Z</time>
      </trkpt>
      <trkpt lat="47.6522360" lon="-2.0745243">
        <ele>5.639</ele>
        <time>2018-08-28T10:57:58.305Z</time>
      </trkpt>
      <trkpt lat="47.6522411" lon="-2.0743544">
        <ele>5.775</ele>
        <time>2018-08-28T10:58:01.266Z</time>
      </trkpt>
      <trkpt lat="47.6522237" lon="-2.0741729">
        <ele>5.909</ele>
        <time>2018-08-28T10:58:04.434Z</time>
      </trkpt>
      <trkpt lat="47.6521967" lon="-2.0740100">
        <ele>6.076</ele>
        <time>2018-08-28T10:58:07.336Z</time>
      </trkpt>
      <trkpt lat="47.6521694" lon="-2.0738426">
        <ele>6.200</ele>
        <time>2018-08-28T10:58:10.336Z</time>
      </trkpt>
      <trkpt lat="47.6521426" lon="-2.0736829">
        <ele>6.191</ele>
        <time>2018-08-28T10:58:13.248Z</time>
      </trkpt>
      <trkpt lat="47.6521089" lon="-2.0735290">
        <ele>6.048</ele>
        <time>2018-08-28T10:58:16.161Z</time>
      </trkpt>
      <trkpt lat="47.6520841" lon="-2.0733756">
        <ele>5.855</ele>
        <time>2018-08-28T10:58:19.053Z</time>
      </trkpt>
      <trkpt lat="47.6520602" lon="-2.0732240">
        <ele>5.696</ele>
        <time>2018-08-28T10:58:21.956Z</time>
      </trkpt>
      <trkpt lat="47.6520357" lon="-2.0730746">
        <ele>5.570</ele>
        <time>2018-08-28T10:58:24.874Z</time>
      </trkpt>
      <trkpt lat="47.6520008" lon="-2.0729300">
        <ele>5.424</ele>
        <time>2018-08-28T10:58:27.822Z</time>
      </trkpt>
      <trkpt lat="47.6519681" lon="-2.0727874">
        <ele>5.250</ele>
        <time>2018-08-28T10:58:30.740Z</time>
      </trkpt>
      <trkpt lat="47.6519339" lon="-2.0726494">
        <ele>5.090</ele>
        <time>2018-08-28T10:58:33.616Z</time>
      </trkpt>
      <trkpt lat="47.6518976" lon="-2.0725129">
        <ele>4.957</ele>
        <time>2018-08-28T10:58:36.514Z</time>
      </trkpt>
      <trkpt lat="47.6518643" lon="-2.0723733">
        <ele>4.836</ele>
        <time>2018-08-28T10:58:39.510Z</time>
      </trkpt>
      <trkpt lat="47.6518347" lon="-2.0722376">
        <ele>4.727</ele>
        <time>2018-08-28T10:58:42.538Z</time>
      </trkpt>
      <trkpt lat="47.6518118" lon="-2.0720798">
        <ele>4.627</ele>
        <time>2018-08-28T10:58:46.240Z</time>
      </trkpt>
      <trkpt lat="47.6517752" lon="-2.0719326">
        <ele>4.547</ele>
        <time>2018-08-28T10:58:50.058Z</time>
      </trkpt>
      <trkpt lat="47.6517454" lon="-2.0717836">
        <ele>4.516</ele>
        <time>2018-08-28T10:58:53.853Z</time>
      </trkpt>
      <trkpt lat="47.6517042" lon="-2.0716135">
        <ele>4.531</ele>
        <time>2018-08-28T10:58:57.987Z</time>
      </trkpt>
      <trkpt lat="47.6516731" lon="-2.0714647">
        <ele>4.557</ele>
        <time>2018-08-28T10:59:01.167Z</time>
      </trkpt>
      <trkpt lat="47.6516404" lon="-2.0713109">
        <ele>4.548</ele>
        <time>2018-08-28T10:59:04.227Z</time>
      </trkpt>
      <trkpt lat="47.6516022" lon="-2.0711454">
        <ele>4.474</ele>
        <time>2018-08-28T10:59:07.429Z</time>
      </trkpt>
      <trkpt lat="47.6515695" lon="-2.0709938">
        <ele>4.363</ele>
        <time>2018-08-28T10:59:10.334Z</time>
      </trkpt>
      <trkpt lat="47.6515324" lon="-2.0708445">
        <ele>4.282</ele>
        <time>2018-08-28T10:59:13.220Z</time>
      </trkpt>
      <trkpt lat="47.6514926" lon="-2.0706942">
        <ele>4.258</ele>
        <time>2018-08-28T10:59:16.145Z</time>
      </trkpt>
      <trkpt lat="47.6514614" lon="-2.0705445">
        <ele>4.333</ele>
        <time>2018-08-28T10:59:19.031Z</time>
      </trkpt>
      <trkpt lat="47.6514346" lon="-2.0703971">
        <ele>4.530</ele>
        <time>2018-08-28T10:59:21.889Z</time>
      </trkpt>
      <trkpt lat="47.6514025" lon="-2.0702546">
        <ele>4.751</ele>
        <time>2018-08-28T10:59:24.731Z</time>
      </trkpt>
      <trkpt lat="47.6513721" lon="-2.0701064">
        <ele>4.893</ele>
        <time>2018-08-28T10:59:27.673Z</time>
      </trkpt>
      <trkpt lat="47.6513359" lon="-2.0699586">
        <ele>4.958</ele>
        <time>2018-08-28T10:59:30.635Z</time>
      </trkpt>
      <trkpt lat="47.6513032" lon="-2.0698021">
        <ele>5.007</ele>
        <time>2018-08-28T10:59:33.679Z</time>
      </trkpt>
      <trkpt lat="47.6512725" lon="-2.0696449">
        <ele>5.110</ele>
        <time>2018-08-28T10:59:36.715Z</time>
      </trkpt>
      <trkpt lat="47.6512352" lon="-2.0695040">
        <ele>5.270</ele>
        <time>2018-08-28T10:59:39.696Z</time>
      </trkpt>
      <trkpt lat="47.6511993" lon="-2.0693569">
        <ele>5.426</ele>
        <time>2018-08-28T10:59:42.905Z</time>
      </trkpt>
      <trkpt lat="47.6511633" lon="-2.0692157">
        <ele>5.536</ele>
        <time>2018-08-28T10:59:46.008Z</time>
      </trkpt>
      <trkpt lat="47.6511258" lon="-2.0690607">
        <ele>5.596</ele>
        <time>2018-08-28T10:59:49.221Z</time>
      </trkpt>
      <trkpt lat="47.6510890" lon="-2.0688990">
        <ele>5.594</ele>
        <time>2018-08-28T10:59:52.393Z</time>
      </trkpt>
      <trkpt lat="47.6510549" lon="-2.0687436">
        <ele>5.512</ele>
        <time>2018-08-28T10:59:55.348Z</time>
      </trkpt>
      <trkpt lat="47.6510151" lon="-2.0685903">
        <ele>5.382</ele>
        <time>2018-08-28T10:59:58.297Z</time>
      </trkpt>
      <trkpt lat="47.6509772" lon="-2.0684418">
        <ele>5.284</ele>
        <time>2018-08-28T11:00:01.140Z</time>
      </trkpt>
      <trkpt lat="47.6509334" lon="-2.0682815">
        <ele>5.192</ele>
        <time>2018-08-28T11:00:04.214Z</time>
      </trkpt>
      <trkpt lat="47.6508960" lon="-2.0681267">
        <ele>4.991</ele>
        <time>2018-08-28T11:00:07.150Z</time>
      </trkpt>
      <trkpt lat="47.6508674" lon="-2.0679727">
        <ele>4.691</ele>
        <time>2018-08-28T11:00:10.033Z</time>
      </trkpt>
      <trkpt lat="47.6508521" lon="-2.0678067">
        <ele>4.429</ele>
        <time>2018-08-28T11:00:13.029Z</time>
      </trkpt>
      <trkpt lat="47.6508350" lon="-2.0676258">
        <ele>4.285</ele>
        <time>2018-08-28T11:00:16.192Z</time>
      </trkpt>
      <trkpt lat="47.6508081" lon="-2.0674438">
        <ele>4.273</ele>
        <time>2018-08-28T11:00:19.328Z</time>
      </trkpt>
      <trkpt lat="47.6507986" lon="-2.0672706">
        <ele>4.367</ele>
        <time>2018-08-28T11:00:22.250Z</time>
      </trkpt>
      <trkpt lat="47.6507970" lon="-2.0671005">
        <ele>4.476</ele>
        <time>2018-08-28T11:00:25.147Z</time>
      </trkpt>
      <trkpt lat="47.6508117" lon="-2.0669317">
        <ele>4.531</ele>
        <time>2018-08-28T11:00:28.065Z</time>
      </trkpt>
      <trkpt lat="47.6508337" lon="-2.0667586">
        <ele>4.542</ele>
        <time>2018-08-28T11:00:31.087Z</time>
      </trkpt>
      <trkpt lat="47.6508673" lon="-2.0665961">
        <ele>4.569</ele>
        <time>2018-08-28T11:00:33.993Z</time>
      </trkpt>
      <trkpt lat="47.6509003" lon="-2.0664271">
        <ele>4.650</ele>
        <time>2018-08-28T11:00:36.989Z</time>
      </trkpt>
      <trkpt lat="47.6509373" lon="-2.0662695">
        <ele>4.764</ele>
        <time>2018-08-28T11:00:39.851Z</time>
      </trkpt>
      <trkpt lat="47.6509888" lon="-2.0661276">
        <ele>4.930</ele>
        <time>2018-08-28T11:00:42.632Z</time>
      </trkpt>
      <trkpt lat="47.6510394" lon="-2.0659741">
        <ele>5.167</ele>
        <time>2018-08-28T11:00:45.581Z</time>
      </trkpt>
      <trkpt lat="47.6510933" lon="-2.0658222">
        <ele>5.390</ele>
        <time>2018-08-28T11:00:48.532Z</time>
      </trkpt>
      <trkpt lat="47.6511545" lon="-2.0656875">
        <ele>5.615</ele>
        <time>2018-08-28T11:00:51.340Z</time>
      </trkpt>
      <trkpt lat="47.6512109" lon="-2.0655358">
        <ele>5.899</ele>
        <time>2018-08-28T11:00:54.337Z</time>
      </trkpt>
      <trkpt lat="47.6512695" lon="-2.0653802">
        <ele>5.989</ele>
        <time>2018-08-28T11:00:57.384Z</time>
      </trkpt>
      <trkpt lat="47.6513279" lon="-2.0652155">
        <ele>5.696</ele>
        <time>2018-08-28T11:01:00.518Z</time>
      </trkpt>
      <trkpt lat="47.6513815" lon="-2.0650658">
        <ele>5.357</ele>
        <time>2018-08-28T11:01:03.371Z</time>
      </trkpt>
      <trkpt lat="47.6514396" lon="-2.0649212">
        <ele>5.294</ele>
        <time>2018-08-28T11:01:06.234Z</time>
      </trkpt>
      <trkpt lat="47.6514992" lon="-2.0647793">
        <ele>5.418</ele>
        <time>2018-08-28T11:01:09.110Z</time>
      </trkpt>
      <trkpt lat="47.6515594" lon="-2.0646316">
        <ele>5.565</ele>
        <time>2018-08-28T11:01:12.097Z</time>
      </trkpt>
      <trkpt lat="47.6516247" lon="-2.0644876">
        <ele>5.669</ele>
        <time>2018-08-28T11:01:15.111Z</time>
      </trkpt>
      <trkpt lat="47.6516910" lon="-2.0643466">
        <ele>5.707</ele>
        <time>2018-08-28T11:01:18.119Z</time>
      </trkpt>
      <trkpt lat="47.6517541" lon="-2.0642175">
        <ele>5.662</ele>
        <time>2018-08-28T11:01:20.952Z</time>
      </trkpt>
      <trkpt lat="47.6518147" lon="-2.0640859">
        <ele>5.522</ele>
        <time>2018-08-28T11:01:23.822Z</time>
      </trkpt>
      <trkpt lat="47.6518681" lon="-2.0639369">
        <ele>5.333</ele>
        <time>2018-08-28T11:01:26.878Z</time>
      </trkpt>
      <trkpt lat="47.6519267" lon="-2.0638251">
        <ele>5.157</ele>
        <time>2018-08-28T11:01:29.497Z</time>
      </trkpt>
      <trkpt lat="47.6519794" lon="-2.0637166">
        <ele>5.014</ele>
        <time>2018-08-28T11:01:32.072Z</time>
      </trkpt>
      <trkpt lat="47.6520355" lon="-2.0635883">
        <ele>4.925</ele>
        <time>2018-08-28T11:01:35.124Z</time>
      </trkpt>
      <trkpt lat="47.6520857" lon="-2.0634476">
        <ele>4.898</ele>
        <time>2018-08-28T11:01:38.302Z</time>
      </trkpt>
      <trkpt lat="47.6521350" lon="-2.0633034">
        <ele>4.947</ele>
        <time>2018-08-28T11:01:41.461Z</time>
      </trkpt>
      <trkpt lat="47.6521936" lon="-2.0631548">
        <ele>5.060</ele>
        <time>2018-08-28T11:01:44.670Z</time>
      </trkpt>
      <trkpt lat="47.6522562" lon="-2.0629891">
        <ele>5.152</ele>
        <time>2018-08-28T11:01:48.005Z</time>
      </trkpt>
      <trkpt lat="47.6523199" lon="-2.0628417">
        <ele>5.130</ele>
        <time>2018-08-28T11:01:50.972Z</time>
      </trkpt>
      <trkpt lat="47.6523808" lon="-2.0626949">
        <ele>5.005</ele>
        <time>2018-08-28T11:01:53.886Z</time>
      </trkpt>
      <trkpt lat="47.6524411" lon="-2.0625609">
        <ele>4.910</ele>
        <time>2018-08-28T11:01:56.651Z</time>
      </trkpt>
      <trkpt lat="47.6525018" lon="-2.0624268">
        <ele>4.932</ele>
        <time>2018-08-28T11:01:59.475Z</time>
      </trkpt>
      <trkpt lat="47.6525619" lon="-2.0622954">
        <ele>4.972</ele>
        <time>2018-08-28T11:02:02.304Z</time>
      </trkpt>
      <trkpt lat="47.6526181" lon="-2.0621524">
        <ele>4.930</ele>
        <time>2018-08-28T11:02:05.305Z</time>
      </trkpt>
      <trkpt lat="47.6526710" lon="-2.0619953">
        <ele>4.859</ele>
        <time>2018-08-28T11:02:08.482Z</time>
      </trkpt>
      <trkpt lat="47.6527293" lon="-2.0618653">
        <ele>4.832</ele>
        <time>2018-08-28T11:02:11.320Z</time>
      </trkpt>
      <trkpt lat="47.6527853" lon="-2.0617317">
        <ele>4.840</ele>
        <time>2018-08-28T11:02:14.221Z</time>
      </trkpt>
      <trkpt lat="47.6528415" lon="-2.0616024">
        <ele>4.854</ele>
        <time>2018-08-28T11:02:17.088Z</time>
      </trkpt>
      <trkpt lat="47.6528944" lon="-2.0614458">
        <ele>4.883</ele>
        <time>2018-08-28T11:02:20.325Z</time>
      </trkpt>
      <trkpt lat="47.6529382" lon="-2.0612620">
        <ele>4.994</ele>
        <time>2018-08-28T11:02:23.760Z</time>
      </trkpt>
      <trkpt lat="47.6529944" lon="-2.0611019">
        <ele>5.195</ele>
        <time>2018-08-28T11:02:26.825Z</time>
      </trkpt>
      <trkpt lat="47.6530653" lon="-2.0609828">
        <ele>5.411</ele>
        <time>2018-08-28T11:02:29.524Z</time>
      </trkpt>
      <trkpt lat="47.6531299" lon="-2.0608607">
        <ele>5.594</ele>
        <time>2018-08-28T11:02:32.235Z</time>
      </trkpt>
      <trkpt lat="47.6531838" lon="-2.0607155">
        <ele>5.717</ele>
        <time>2018-08-28T11:02:35.215Z</time>
      </trkpt>
      <trkpt lat="47.6532345" lon="-2.0605736">
        <ele>5.812</ele>
        <time>2018-08-28T11:02:38.143Z</time>
      </trkpt>
      <trkpt lat="47.6532829" lon="-2.0604199">
        <ele>5.957</ele>
        <time>2018-08-28T11:02:41.244Z</time>
      </trkpt>
      <trkpt lat="47.6533309" lon="-2.0602607">
        <ele>6.124</ele>
        <time>2018-08-28T11:02:44.392Z</time>
      </trkpt>
      <trkpt lat="47.6533926" lon="-2.0601152">
        <ele>6.227</ele>
        <time>2018-08-28T11:02:47.427Z</time>
      </trkpt>
      <trkpt lat="47.6534546" lon="-2.0599865">
        <ele>6.283</ele>
        <time>2018-08-28T11:02:50.218Z</time>
      </trkpt>
      <trkpt lat="47.6535118" lon="-2.0598575">
        <ele>6.346</ele>
        <time>2018-08-28T11:02:53.000Z</time>
      </trkpt>
      <trkpt lat="47.6535118" lon="-2.0598575">
        <ele>6.409</ele>
        <time>2018-08-28T11:02:55.000Z</time>
      </trkpt>
      <trkpt lat="47.6535118" lon="-2.0598575">
        <ele>6.438</ele>
        <time>2018-08-28T11:02:55.100Z</time>
      </trkpt>
      <trkpt lat="47.6536380" lon="-2.0595244">
        <ele>6.423</ele>
        <time>2018-08-28T11:03:04.558Z</time>
      </trkpt>
      <trkpt lat="47.6536912" lon="-2.0593837">
        <ele>6.345</ele>
        <time>2018-08-28T11:03:07.523Z</time>
      </trkpt>
      <trkpt lat="47.6537440" lon="-2.0592445">
        <ele>6.167</ele>
        <time>2018-08-28T11:03:10.468Z</time>
      </trkpt>
      <trkpt lat="47.6537965" lon="-2.0591074">
        <ele>5.934</ele>
        <time>2018-08-28T11:03:13.371Z</time>
      </trkpt>
      <trkpt lat="47.6538460" lon="-2.0589713">
        <ele>5.763</ele>
        <time>2018-08-28T11:03:16.168Z</time>
      </trkpt>
      <trkpt lat="47.6538985" lon="-2.0588320">
        <ele>5.687</ele>
        <time>2018-08-28T11:03:18.966Z</time>
      </trkpt>
      <trkpt lat="47.6539571" lon="-2.0586845">
        <ele>5.656</ele>
        <time>2018-08-28T11:03:21.854Z</time>
      </trkpt>
      <trkpt lat="47.6540157" lon="-2.0585317">
        <ele>5.641</ele>
        <time>2018-08-28T11:03:24.723Z</time>
      </trkpt>
      <trkpt lat="47.6540757" lon="-2.0583767">
        <ele>5.651</ele>
        <time>2018-08-28T11:03:27.583Z</time>
      </trkpt>
      <trkpt lat="47.6541398" lon="-2.0582226">
        <ele>5.695</ele>
        <time>2018-08-28T11:03:30.470Z</time>
      </trkpt>
      <trkpt lat="47.6541982" lon="-2.0580682">
        <ele>5.756</ele>
        <time>2018-08-28T11:03:33.294Z</time>
      </trkpt>
      <trkpt lat="47.6542581" lon="-2.0579165">
        <ele>5.784</ele>
        <time>2018-08-28T11:03:36.083Z</time>
      </trkpt>
      <trkpt lat="47.6543234" lon="-2.0577620">
        <ele>5.726</ele>
        <time>2018-08-28T11:03:39.004Z</time>
      </trkpt>
      <trkpt lat="47.6543841" lon="-2.0576109">
        <ele>5.607</ele>
        <time>2018-08-28T11:03:41.897Z</time>
      </trkpt>
      <trkpt lat="47.6544399" lon="-2.0574633">
        <ele>5.490</ele>
        <time>2018-08-28T11:03:44.708Z</time>
      </trkpt>
      <trkpt lat="47.6545064" lon="-2.0573202">
        <ele>5.376</ele>
        <time>2018-08-28T11:03:47.611Z</time>
      </trkpt>
      <trkpt lat="47.6545671" lon="-2.0571758">
        <ele>5.246</ele>
        <time>2018-08-28T11:03:50.418Z</time>
      </trkpt>
      <trkpt lat="47.6546363" lon="-2.0570216">
        <ele>5.197</ele>
        <time>2018-08-28T11:03:53.421Z</time>
      </trkpt>
      <trkpt lat="47.6547043" lon="-2.0568665">
        <ele>5.296</ele>
        <time>2018-08-28T11:03:56.381Z</time>
      </trkpt>
      <trkpt lat="47.6547639" lon="-2.0567113">
        <ele>5.436</ele>
        <time>2018-08-28T11:03:59.256Z</time>
      </trkpt>
      <trkpt lat="47.6548219" lon="-2.0565678">
        <ele>5.454</ele>
        <time>2018-08-28T11:04:02.085Z</time>
      </trkpt>
      <trkpt lat="47.6548759" lon="-2.0564366">
        <ele>5.312</ele>
        <time>2018-08-28T11:04:04.790Z</time>
      </trkpt>
      <trkpt lat="47.6549276" lon="-2.0562881">
        <ele>5.100</ele>
        <time>2018-08-28T11:04:07.827Z</time>
      </trkpt>
      <trkpt lat="47.6549662" lon="-2.0561570">
        <ele>4.895</ele>
        <time>2018-08-28T11:04:10.638Z</time>
      </trkpt>
      <trkpt lat="47.6550173" lon="-2.0560105">
        <ele>4.728</ele>
        <time>2018-08-28T11:04:14.273Z</time>
      </trkpt>
      <trkpt lat="47.6550747" lon="-2.0558762">
        <ele>4.665</ele>
        <time>2018-08-28T11:04:18.289Z</time>
      </trkpt>
      <trkpt lat="47.6551260" lon="-2.0557627">
        <ele>4.714</ele>
        <time>2018-08-28T11:04:21.627Z</time>
      </trkpt>
      <trkpt lat="47.6551726" lon="-2.0556343">
        <ele>4.761</ele>
        <time>2018-08-28T11:04:24.683Z</time>
      </trkpt>
      <trkpt lat="47.6552183" lon="-2.0554981">
        <ele>4.714</ele>
        <time>2018-08-28T11:04:27.827Z</time>
      </trkpt>
      <trkpt lat="47.6552714" lon="-2.0553883">
        <ele>4.590</ele>
        <time>2018-08-28T11:04:31.000Z</time>
      </trkpt>
      <trkpt lat="47.6552714" lon="-2.0553883">
        <ele>4.446</ele>
        <time>2018-08-28T11:04:35.000Z</time>
      </trkpt>
      <trkpt lat="47.6552714" lon="-2.0553883">
        <ele>4.358</ele>
        <time>2018-08-28T11:06:14.756Z</time>
      </trkpt>
      <trkpt lat="47.6553428" lon="-2.0553049">
        <ele>4.361</ele>
        <time>2018-08-28T11:06:25.037Z</time>
      </trkpt>
      <trkpt lat="47.6554126" lon="-2.0551723">
        <ele>4.281</ele>
        <time>2018-08-28T11:06:31.055Z</time>
      </trkpt>
      <trkpt lat="47.6554591" lon="-2.0550351">
        <ele>3.991</ele>
        <time>2018-08-28T11:06:35.582Z</time>
      </trkpt>
      <trkpt lat="47.6554559" lon="-2.0549004">
        <ele>3.743</ele>
        <time>2018-08-28T11:06:38.995Z</time>
      </trkpt>
      <trkpt lat="47.6554875" lon="-2.0547680">
        <ele>3.769</ele>
        <time>2018-08-28T11:06:42.141Z</time>
      </trkpt>
      <trkpt lat="47.6555269" lon="-2.0546234">
        <ele>3.929</ele>
        <time>2018-08-28T11:06:45.384Z</time>
      </trkpt>
      <trkpt lat="47.6555746" lon="-2.0544831">
        <ele>4.015</ele>
        <time>2018-08-28T11:06:48.492Z</time>
      </trkpt>
      <trkpt lat="47.6556401" lon="-2.0543645">
        <ele>4.014</ele>
        <time>2018-08-28T11:06:51.398Z</time>
      </trkpt>
      <trkpt lat="47.6557055" lon="-2.0542336">
        <ele>3.997</ele>
        <time>2018-08-28T11:06:54.475Z</time>
      </trkpt>
      <trkpt lat="47.6557656" lon="-2.0541020">
        <ele>4.004</ele>
        <time>2018-08-28T11:06:57.578Z</time>
      </trkpt>
      <trkpt lat="47.6558302" lon="-2.0539958">
        <ele>4.048</ele>
        <time>2018-08-28T11:07:00.560Z</time>
      </trkpt>
      <trkpt lat="47.6558881" lon="-2.0538911">
        <ele>4.109</ele>
        <time>2018-08-28T11:07:03.465Z</time>
      </trkpt>
      <trkpt lat="47.6559418" lon="-2.0537557">
        <ele>4.021</ele>
        <time>2018-08-28T11:07:06.809Z</time>
      </trkpt>
      <trkpt lat="47.6559901" lon="-2.0536093">
        <ele>3.712</ele>
        <time>2018-08-28T11:07:10.082Z</time>
      </trkpt>
      <trkpt lat="47.6560395" lon="-2.0534550">
        <ele>3.418</ele>
        <time>2018-08-28T11:07:13.362Z</time>
      </trkpt>
      <trkpt lat="47.6560944" lon="-2.0533218">
        <ele>3.367</ele>
        <time>2018-08-28T11:07:16.250Z</time>
      </trkpt>
      <trkpt lat="47.6561540" lon="-2.0531703">
        <ele>3.486</ele>
        <time>2018-08-28T11:07:19.417Z</time>
      </trkpt>
      <trkpt lat="47.6562082" lon="-2.0530141">
        <ele>3.654</ele>
        <time>2018-08-28T11:07:22.579Z</time>
      </trkpt>
      <trkpt lat="47.6562597" lon="-2.0528671">
        <ele>3.876</ele>
        <time>2018-08-28T11:07:25.617Z</time>
      </trkpt>
      <trkpt lat="47.6563158" lon="-2.0527373">
        <ele>4.216</ele>
        <time>2018-08-28T11:07:28.496Z</time>
      </trkpt>
      <trkpt lat="47.6563708" lon="-2.0526123">
        <ele>4.604</ele>
        <time>2018-08-28T11:07:31.305Z</time>
      </trkpt>
      <trkpt lat="47.6564230" lon="-2.0524784">
        <ele>4.869</ele>
        <time>2018-08-28T11:07:34.169Z</time>
      </trkpt>
      <trkpt lat="47.6564740" lon="-2.0523390">
        <ele>4.957</ele>
        <time>2018-08-28T11:07:37.026Z</time>
      </trkpt>
      <trkpt lat="47.6565354" lon="-2.0521880">
        <ele>4.938</ele>
        <time>2018-08-28T11:07:40.202Z</time>
      </trkpt>
      <trkpt lat="47.6565914" lon="-2.0520517">
        <ele>4.882</ele>
        <time>2018-08-28T11:07:43.137Z</time>
      </trkpt>
      <trkpt lat="47.6566621" lon="-2.0519417">
        <ele>4.835</ele>
        <time>2018-08-28T11:07:45.954Z</time>
      </trkpt>
      <trkpt lat="47.6567271" lon="-2.0518147">
        <ele>4.870</ele>
        <time>2018-08-28T11:07:48.916Z</time>
      </trkpt>
      <trkpt lat="47.6567833" lon="-2.0516732">
        <ele>5.010</ele>
        <time>2018-08-28T11:07:51.975Z</time>
      </trkpt>
      <trkpt lat="47.6568327" lon="-2.0515356">
        <ele>5.234</ele>
        <time>2018-08-28T11:07:54.843Z</time>
      </trkpt>
      <trkpt lat="47.6568889" lon="-2.0513973">
        <ele>5.539</ele>
        <time>2018-08-28T11:07:57.744Z</time>
      </trkpt>
      <trkpt lat="47.6569412" lon="-2.0512333">
        <ele>5.850</ele>
        <time>2018-08-28T11:08:00.953Z</time>
      </trkpt>
      <trkpt lat="47.6569916" lon="-2.0510805">
        <ele>6.036</ele>
        <time>2018-08-28T11:08:03.970Z</time>
      </trkpt>
      <trkpt lat="47.6570445" lon="-2.0509405">
        <ele>6.089</ele>
        <time>2018-08-28T11:08:06.854Z</time>
      </trkpt>
      <trkpt lat="47.6570999" lon="-2.0508081">
        <ele>6.107</ele>
        <time>2018-08-28T11:08:09.685Z</time>
      </trkpt>
      <trkpt lat="47.6571584" lon="-2.0506770">
        <ele>6.131</ele>
        <time>2018-08-28T11:08:12.555Z</time>
      </trkpt>
      <trkpt lat="47.6572218" lon="-2.0505439">
        <ele>6.119</ele>
        <time>2018-08-28T11:08:15.536Z</time>
      </trkpt>
      <trkpt lat="47.6572883" lon="-2.0504140">
        <ele>6.073</ele>
        <time>2018-08-28T11:08:18.519Z</time>
      </trkpt>
      <trkpt lat="47.6573655" lon="-2.0503032">
        <ele>6.041</ele>
        <time>2018-08-28T11:08:21.418Z</time>
      </trkpt>
      <trkpt lat="47.6574377" lon="-2.0501763">
        <ele>6.055</ele>
        <time>2018-08-28T11:08:24.447Z</time>
      </trkpt>
      <trkpt lat="47.6575117" lon="-2.0500528">
        <ele>6.130</ele>
        <time>2018-08-28T11:08:27.501Z</time>
      </trkpt>
      <trkpt lat="47.6575845" lon="-2.0499489">
        <ele>6.224</ele>
        <time>2018-08-28T11:08:30.269Z</time>
      </trkpt>
      <trkpt lat="47.6576662" lon="-2.0498299">
        <ele>6.256</ele>
        <time>2018-08-28T11:08:33.358Z</time>
      </trkpt>
      <trkpt lat="47.6577529" lon="-2.0497133">
        <ele>6.195</ele>
        <time>2018-08-28T11:08:36.460Z</time>
      </trkpt>
      <trkpt lat="47.6578394" lon="-2.0495985">
        <ele>6.054</ele>
        <time>2018-08-28T11:08:39.506Z</time>
      </trkpt>
      <trkpt lat="47.6579287" lon="-2.0494978">
        <ele>5.865</ele>
        <time>2018-08-28T11:08:42.435Z</time>
      </trkpt>
      <trkpt lat="47.6580261" lon="-2.0494054">
        <ele>5.683</ele>
        <time>2018-08-28T11:08:45.454Z</time>
      </trkpt>
      <trkpt lat="47.6581170" lon="-2.0493216">
        <ele>5.570</ele>
        <time>2018-08-28T11:08:48.252Z</time>
      </trkpt>
      <trkpt lat="47.6582136" lon="-2.0492400">
        <ele>5.607</ele>
        <time>2018-08-28T11:08:51.159Z</time>
      </trkpt>
      <trkpt lat="47.6583165" lon="-2.0491676">
        <ele>5.817</ele>
        <time>2018-08-28T11:08:54.156Z</time>
      </trkpt>
      <trkpt lat="47.6584184" lon="-2.0491100">
        <ele>6.062</ele>
        <time>2018-08-28T11:08:57.064Z</time>
      </trkpt>
      <trkpt lat="47.6585164" lon="-2.0490527">
        <ele>6.189</ele>
        <time>2018-08-28T11:08:59.910Z</time>
      </trkpt>
      <trkpt lat="47.6586209" lon="-2.0490072">
        <ele>6.184</ele>
        <time>2018-08-28T11:09:02.890Z</time>
      </trkpt>
      <trkpt lat="47.6587250" lon="-2.0489821">
        <ele>6.088</ele>
        <time>2018-08-28T11:09:05.823Z</time>
      </trkpt>
      <trkpt lat="47.6588248" lon="-2.0489364">
        <ele>5.958</ele>
        <time>2018-08-28T11:09:08.776Z</time>
      </trkpt>
      <trkpt lat="47.6589216" lon="-2.0488780">
        <ele>5.870</ele>
        <time>2018-08-28T11:09:11.732Z</time>
      </trkpt>
      <trkpt lat="47.6590283" lon="-2.0488193">
        <ele>5.860</ele>
        <time>2018-08-28T11:09:14.927Z</time>
      </trkpt>
      <trkpt lat="47.6591281" lon="-2.0487743">
        <ele>5.888</ele>
        <time>2018-08-28T11:09:17.815Z</time>
      </trkpt>
      <trkpt lat="47.6592431" lon="-2.0487538">
        <ele>5.924</ele>
        <time>2018-08-28T11:09:20.974Z</time>
      </trkpt>
      <trkpt lat="47.6593569" lon="-2.0487292">
        <ele>5.995</ele>
        <time>2018-08-28T11:09:24.148Z</time>
      </trkpt>
      <trkpt lat="47.6594573" lon="-2.0487434">
        <ele>6.130</ele>
        <time>2018-08-28T11:09:27.026Z</time>
      </trkpt>
      <trkpt lat="47.6595613" lon="-2.0487721">
        <ele>6.300</ele>
        <time>2018-08-28T11:09:30.143Z</time>
      </trkpt>
      <trkpt lat="47.6596809" lon="-2.0487895">
        <ele>6.441</ele>
        <time>2018-08-28T11:09:33.812Z</time>
      </trkpt>
      <trkpt lat="47.6597873" lon="-2.0487989">
        <ele>6.534</ele>
        <time>2018-08-28T11:09:36.997Z</time>
      </trkpt>
      <trkpt lat="47.6598927" lon="-2.0488286">
        <ele>6.607</ele>
        <time>2018-08-28T11:09:40.077Z</time>
      </trkpt>
      <trkpt lat="47.6599989" lon="-2.0488688">
        <ele>6.674</ele>
        <time>2018-08-28T11:09:43.108Z</time>
      </trkpt>
      <trkpt lat="47.6601116" lon="-2.0489137">
        <ele>6.722</ele>
        <time>2018-08-28T11:09:46.264Z</time>
      </trkpt>
      <trkpt lat="47.6602205" lon="-2.0489606">
        <ele>6.743</ele>
        <time>2018-08-28T11:09:49.370Z</time>
      </trkpt>
      <trkpt lat="47.6603240" lon="-2.0490048">
        <ele>6.701</ele>
        <time>2018-08-28T11:09:52.402Z</time>
      </trkpt>
      <trkpt lat="47.6604129" lon="-2.0490558">
        <ele>6.574</ele>
        <time>2018-08-28T11:09:55.128Z</time>
      </trkpt>
      <trkpt lat="47.6605122" lon="-2.0491175">
        <ele>6.437</ele>
        <time>2018-08-28T11:09:58.229Z</time>
      </trkpt>
      <trkpt lat="47.6606009" lon="-2.0491870">
        <ele>6.368</ele>
        <time>2018-08-28T11:10:01.148Z</time>
      </trkpt>
      <trkpt lat="47.6606876" lon="-2.0492638">
        <ele>6.347</ele>
        <time>2018-08-28T11:10:04.128Z</time>
      </trkpt>
      <trkpt lat="47.6607756" lon="-2.0493402">
        <ele>6.311</ele>
        <time>2018-08-28T11:10:07.203Z</time>
      </trkpt>
      <trkpt lat="47.6608700" lon="-2.0494315">
        <ele>6.171</ele>
        <time>2018-08-28T11:10:10.794Z</time>
      </trkpt>
      <trkpt lat="47.6609671" lon="-2.0495209">
        <ele>5.932</ele>
        <time>2018-08-28T11:10:14.528Z</time>
      </trkpt>
      <trkpt lat="47.6610465" lon="-2.0495980">
        <ele>5.728</ele>
        <time>2018-08-28T11:10:17.602Z</time>
      </trkpt>
      <trkpt lat="47.6611204" lon="-2.0496775">
        <ele>5.641</ele>
        <time>2018-08-28T11:10:20.461Z</time>
      </trkpt>
      <trkpt lat="47.6612048" lon="-2.0497707">
        <ele>5.542</ele>
        <time>2018-08-28T11:10:23.579Z</time>
      </trkpt>
      <trkpt lat="47.6612931" lon="-2.0498743">
        <ele>5.304</ele>
        <time>2018-08-28T11:10:26.746Z</time>
      </trkpt>
      <trkpt lat="47.6613831" lon="-2.0499803">
        <ele>5.029</ele>
        <time>2018-08-28T11:10:29.851Z</time>
      </trkpt>
      <trkpt lat="47.6614753" lon="-2.0500842">
        <ele>4.977</ele>
        <time>2018-08-28T11:10:32.889Z</time>
      </trkpt>
      <trkpt lat="47.6615661" lon="-2.0501912">
        <ele>5.212</ele>
        <time>2018-08-28T11:10:35.896Z</time>
      </trkpt>
      <trkpt lat="47.6616610" lon="-2.0502789">
        <ele>5.511</ele>
        <time>2018-08-28T11:10:38.760Z</time>
      </trkpt>
      <trkpt lat="47.6617807" lon="-2.0503138">
        <ele>5.631</ele>
        <time>2018-08-28T11:10:41.792Z</time>
      </trkpt>
      <trkpt lat="47.6619186" lon="-2.0503060">
        <ele>5.356</ele>
        <time>2018-08-28T11:10:45.119Z</time>
      </trkpt>
      <trkpt lat="47.6620082" lon="-2.0502812">
        <ele>5.012</ele>
        <time>2018-08-28T11:10:47.340Z</time>
      </trkpt>
      <trkpt lat="47.6621195" lon="-2.0502315">
        <ele>4.627</ele>
        <time>2018-08-28T11:10:50.257Z</time>
      </trkpt>
      <trkpt lat="47.6622208" lon="-2.0501651">
        <ele>4.318</ele>
        <time>2018-08-28T11:10:53.148Z</time>
      </trkpt>
      <trkpt lat="47.6623078" lon="-2.0500850">
        <ele>4.178</ele>
        <time>2018-08-28T11:10:55.850Z</time>
      </trkpt>
      <trkpt lat="47.6623962" lon="-2.0499862">
        <ele>4.248</ele>
        <time>2018-08-28T11:10:58.671Z</time>
      </trkpt>
      <trkpt lat="47.6625056" lon="-2.0498742">
        <ele>4.286</ele>
        <time>2018-08-28T11:11:01.888Z</time>
      </trkpt>
      <trkpt lat="47.6626142" lon="-2.0497688">
        <ele>4.284</ele>
        <time>2018-08-28T11:11:04.976Z</time>
      </trkpt>
      <trkpt lat="47.6627188" lon="-2.0496729">
        <ele>4.280</ele>
        <time>2018-08-28T11:11:07.941Z</time>
      </trkpt>
      <trkpt lat="47.6628179" lon="-2.0495805">
        <ele>4.277</ele>
        <time>2018-08-28T11:11:10.836Z</time>
      </trkpt>
      <trkpt lat="47.6629131" lon="-2.0494819">
        <ele>4.339</ele>
        <time>2018-08-28T11:11:13.775Z</time>
      </trkpt>
      <trkpt lat="47.6630057" lon="-2.0493788">
        <ele>4.772</ele>
        <time>2018-08-28T11:11:16.725Z</time>
      </trkpt>
      <trkpt lat="47.6631017" lon="-2.0492752">
        <ele>5.105</ele>
        <time>2018-08-28T11:11:19.730Z</time>
      </trkpt>
      <trkpt lat="47.6631923" lon="-2.0491574">
        <ele>5.376</ele>
        <time>2018-08-28T11:11:22.742Z</time>
      </trkpt>
      <trkpt lat="47.6632839" lon="-2.0490434">
        <ele>5.450</ele>
        <time>2018-08-28T11:11:25.702Z</time>
      </trkpt>
      <trkpt lat="47.6633766" lon="-2.0489173">
        <ele>5.320</ele>
        <time>2018-08-28T11:11:28.802Z</time>
      </trkpt>
      <trkpt lat="47.6634617" lon="-2.0487863">
        <ele>5.063</ele>
        <time>2018-08-28T11:11:31.821Z</time>
      </trkpt>
      <trkpt lat="47.6635516" lon="-2.0486643">
        <ele>4.800</ele>
        <time>2018-08-28T11:11:34.845Z</time>
      </trkpt>
      <trkpt lat="47.6636410" lon="-2.0485578">
        <ele>4.608</ele>
        <time>2018-08-28T11:11:37.726Z</time>
      </trkpt>
      <trkpt lat="47.6637275" lon="-2.0484506">
        <ele>4.518</ele>
        <time>2018-08-28T11:11:40.570Z</time>
      </trkpt>
      <trkpt lat="47.6638147" lon="-2.0483294">
        <ele>4.526</ele>
        <time>2018-08-28T11:11:43.570Z</time>
      </trkpt>
      <trkpt lat="47.6638926" lon="-2.0481959">
        <ele>4.588</ele>
        <time>2018-08-28T11:11:46.552Z</time>
      </trkpt>
      <trkpt lat="47.6639698" lon="-2.0480692">
        <ele>4.670</ele>
        <time>2018-08-28T11:11:49.424Z</time>
      </trkpt>
      <trkpt lat="47.6640520" lon="-2.0479370">
        <ele>4.795</ele>
        <time>2018-08-28T11:11:52.411Z</time>
      </trkpt>
      <trkpt lat="47.6641363" lon="-2.0478044">
        <ele>5.114</ele>
        <time>2018-08-28T11:11:55.396Z</time>
      </trkpt>
      <trkpt lat="47.6642175" lon="-2.0476624">
        <ele>5.191</ele>
        <time>2018-08-28T11:11:58.402Z</time>
      </trkpt>
      <trkpt lat="47.6642932" lon="-2.0475140">
        <ele>5.248</ele>
        <time>2018-08-28T11:12:01.396Z</time>
      </trkpt>
      <trkpt lat="47.6643720" lon="-2.0473745">
        <ele>5.322</ele>
        <time>2018-08-28T11:12:04.359Z</time>
      </trkpt>
      <trkpt lat="47.6644516" lon="-2.0472406">
        <ele>5.437</ele>
        <time>2018-08-28T11:12:07.362Z</time>
      </trkpt>
      <trkpt lat="47.6645303" lon="-2.0471400">
        <ele>5.597</ele>
        <time>2018-08-28T11:12:10.061Z</time>
      </trkpt>
      <trkpt lat="47.6645951" lon="-2.0470141">
        <ele>5.728</ele>
        <time>2018-08-28T11:12:12.851Z</time>
      </trkpt>
      <trkpt lat="47.6646455" lon="-2.0468432">
        <ele>5.798</ele>
        <time>2018-08-28T11:12:16.091Z</time>
      </trkpt>
      <trkpt lat="47.6646964" lon="-2.0466839">
        <ele>5.855</ele>
        <time>2018-08-28T11:12:19.149Z</time>
      </trkpt>
      <trkpt lat="47.6647430" lon="-2.0465267">
        <ele>5.915</ele>
        <time>2018-08-28T11:12:22.153Z</time>
      </trkpt>
      <trkpt lat="47.6647973" lon="-2.0463800">
        <ele>5.956</ele>
        <time>2018-08-28T11:12:25.109Z</time>
      </trkpt>
      <trkpt lat="47.6648560" lon="-2.0462417">
        <ele>6.007</ele>
        <time>2018-08-28T11:12:28.020Z</time>
      </trkpt>
      <trkpt lat="47.6649082" lon="-2.0460978">
        <ele>6.078</ele>
        <time>2018-08-28T11:12:30.977Z</time>
      </trkpt>
      <trkpt lat="47.6649603" lon="-2.0459628">
        <ele>6.195</ele>
        <time>2018-08-28T11:12:33.840Z</time>
      </trkpt>
      <trkpt lat="47.6650098" lon="-2.0458193">
        <ele>6.295</ele>
        <time>2018-08-28T11:12:36.853Z</time>
      </trkpt>
      <trkpt lat="47.6650533" lon="-2.0456901">
        <ele>6.412</ele>
        <time>2018-08-28T11:12:39.631Z</time>
      </trkpt>
      <trkpt lat="47.6651044" lon="-2.0455662">
        <ele>6.514</ele>
        <time>2018-08-28T11:12:42.447Z</time>
      </trkpt>
      <trkpt lat="47.6651528" lon="-2.0454133">
        <ele>6.637</ele>
        <time>2018-08-28T11:12:45.644Z</time>
      </trkpt>
      <trkpt lat="47.6652008" lon="-2.0452478">
        <ele>6.778</ele>
        <time>2018-08-28T11:12:48.942Z</time>
      </trkpt>
      <trkpt lat="47.6652505" lon="-2.0450960">
        <ele>6.876</ele>
        <time>2018-08-28T11:12:51.963Z</time>
      </trkpt>
      <trkpt lat="47.6652998" lon="-2.0449375">
        <ele>6.955</ele>
        <time>2018-08-28T11:12:55.029Z</time>
      </trkpt>
      <trkpt lat="47.6653514" lon="-2.0447834">
        <ele>7.142</ele>
        <time>2018-08-28T11:12:58.022Z</time>
      </trkpt>
      <trkpt lat="47.6654113" lon="-2.0446421">
        <ele>7.446</ele>
        <time>2018-08-28T11:13:00.927Z</time>
      </trkpt>
      <trkpt lat="47.6654659" lon="-2.0444929">
        <ele>7.569</ele>
        <time>2018-08-28T11:13:03.898Z</time>
      </trkpt>
      <trkpt lat="47.6655193" lon="-2.0443496">
        <ele>7.337</ele>
        <time>2018-08-28T11:13:06.825Z</time>
      </trkpt>
      <trkpt lat="47.6655679" lon="-2.0442122">
        <ele>6.991</ele>
        <time>2018-08-28T11:13:09.673Z</time>
      </trkpt>
      <trkpt lat="47.6656182" lon="-2.0440754">
        <ele>6.793</ele>
        <time>2018-08-28T11:13:12.551Z</time>
      </trkpt>
      <trkpt lat="47.6656593" lon="-2.0439134">
        <ele>6.758</ele>
        <time>2018-08-28T11:13:15.705Z</time>
      </trkpt>
      <trkpt lat="47.6657093" lon="-2.0437640">
        <ele>6.833</ele>
        <time>2018-08-28T11:13:18.686Z</time>
      </trkpt>
      <trkpt lat="47.6657721" lon="-2.0436189">
        <ele>6.954</ele>
        <time>2018-08-28T11:13:21.685Z</time>
      </trkpt>
      <trkpt lat="47.6658378" lon="-2.0434690">
        <ele>7.053</ele>
        <time>2018-08-28T11:13:24.783Z</time>
      </trkpt>
      <trkpt lat="47.6659105" lon="-2.0433586">
        <ele>7.111</ele>
        <time>2018-08-28T11:13:27.651Z</time>
      </trkpt>
      <trkpt lat="47.6659993" lon="-2.0432446">
        <ele>7.186</ele>
        <time>2018-08-28T11:13:31.065Z</time>
      </trkpt>
      <trkpt lat="47.6660689" lon="-2.0431542">
        <ele>7.391</ele>
        <time>2018-08-28T11:13:33.832Z</time>
      </trkpt>
      <trkpt lat="47.6661513" lon="-2.0430425">
        <ele>7.738</ele>
        <time>2018-08-28T11:13:37.069Z</time>
      </trkpt>
      <trkpt lat="47.6662373" lon="-2.0429312">
        <ele>8.009</ele>
        <time>2018-08-28T11:13:40.217Z</time>
      </trkpt>
      <trkpt lat="47.6663245" lon="-2.0428161">
        <ele>7.974</ele>
        <time>2018-08-28T11:13:43.318Z</time>
      </trkpt>
      <trkpt lat="47.6664094" lon="-2.0426957">
        <ele>7.629</ele>
        <time>2018-08-28T11:13:46.373Z</time>
      </trkpt>
      <trkpt lat="47.6664870" lon="-2.0425693">
        <ele>7.166</ele>
        <time>2018-08-28T11:13:49.342Z</time>
      </trkpt>
      <trkpt lat="47.6665607" lon="-2.0424379">
        <ele>6.829</ele>
        <time>2018-08-28T11:13:52.285Z</time>
      </trkpt>
      <trkpt lat="47.6666345" lon="-2.0422950">
        <ele>6.708</ele>
        <time>2018-08-28T11:13:55.405Z</time>
      </trkpt>
      <trkpt lat="47.6666991" lon="-2.0421707">
        <ele>6.789</ele>
        <time>2018-08-28T11:13:58.210Z</time>
      </trkpt>
      <trkpt lat="47.6667625" lon="-2.0420459">
        <ele>7.011</ele>
        <time>2018-08-28T11:14:01.107Z</time>
      </trkpt>
      <trkpt lat="47.6668202" lon="-2.0419211">
        <ele>7.206</ele>
        <time>2018-08-28T11:14:04.008Z</time>
      </trkpt>
      <trkpt lat="47.6668825" lon="-2.0418012">
        <ele>7.259</ele>
        <time>2018-08-28T11:14:06.964Z</time>
      </trkpt>
      <trkpt lat="47.6669454" lon="-2.0416791">
        <ele>7.238</ele>
        <time>2018-08-28T11:14:09.957Z</time>
      </trkpt>
      <trkpt lat="47.6670071" lon="-2.0415419">
        <ele>7.231</ele>
        <time>2018-08-28T11:14:13.122Z</time>
      </trkpt>
      <trkpt lat="47.6670728" lon="-2.0414160">
        <ele>7.241</ele>
        <time>2018-08-28T11:14:16.142Z</time>
      </trkpt>
      <trkpt lat="47.6671341" lon="-2.0412827">
        <ele>7.198</ele>
        <time>2018-08-28T11:14:19.201Z</time>
      </trkpt>
      <trkpt lat="47.6671976" lon="-2.0411678">
        <ele>7.067</ele>
        <time>2018-08-28T11:14:22.018Z</time>
      </trkpt>
      <trkpt lat="47.6672742" lon="-2.0410475">
        <ele>6.905</ele>
        <time>2018-08-28T11:14:25.146Z</time>
      </trkpt>
      <trkpt lat="47.6673605" lon="-2.0409510">
        <ele>6.789</ele>
        <time>2018-08-28T11:14:28.170Z</time>
      </trkpt>
      <trkpt lat="47.6674466" lon="-2.0408662">
        <ele>6.689</ele>
        <time>2018-08-28T11:14:31.071Z</time>
      </trkpt>
      <trkpt lat="47.6675316" lon="-2.0407794">
        <ele>6.605</ele>
        <time>2018-08-28T11:14:33.964Z</time>
      </trkpt>
      <trkpt lat="47.6676230" lon="-2.0406993">
        <ele>6.606</ele>
        <time>2018-08-28T11:14:36.911Z</time>
      </trkpt>
      <trkpt lat="47.6677200" lon="-2.0406327">
        <ele>6.693</ele>
        <time>2018-08-28T11:14:39.850Z</time>
      </trkpt>
      <trkpt lat="47.6678211" lon="-2.0405749">
        <ele>6.795</ele>
        <time>2018-08-28T11:14:42.814Z</time>
      </trkpt>
      <trkpt lat="47.6679233" lon="-2.0405183">
        <ele>6.914</ele>
        <time>2018-08-28T11:14:45.778Z</time>
      </trkpt>
      <trkpt lat="47.6680292" lon="-2.0404536">
        <ele>7.061</ele>
        <time>2018-08-28T11:14:48.858Z</time>
      </trkpt>
      <trkpt lat="47.6681335" lon="-2.0404027">
        <ele>7.185</ele>
        <time>2018-08-28T11:14:51.791Z</time>
      </trkpt>
      <trkpt lat="47.6682360" lon="-2.0403385">
        <ele>7.135</ele>
        <time>2018-08-28T11:14:54.759Z</time>
      </trkpt>
      <trkpt lat="47.6683348" lon="-2.0402748">
        <ele>6.864</ele>
        <time>2018-08-28T11:14:57.645Z</time>
      </trkpt>
      <trkpt lat="47.6684308" lon="-2.0402100">
        <ele>6.450</ele>
        <time>2018-08-28T11:15:00.507Z</time>
      </trkpt>
      <trkpt lat="47.6685208" lon="-2.0401477">
        <ele>5.990</ele>
        <time>2018-08-28T11:15:03.278Z</time>
      </trkpt>
      <trkpt lat="47.6686096" lon="-2.0400982">
        <ele>5.606</ele>
        <time>2018-08-28T11:15:06.015Z</time>
      </trkpt>
      <trkpt lat="47.6687012" lon="-2.0400519">
        <ele>5.391</ele>
        <time>2018-08-28T11:15:08.887Z</time>
      </trkpt>
      <trkpt lat="47.6687906" lon="-2.0399971">
        <ele>5.297</ele>
        <time>2018-08-28T11:15:11.812Z</time>
      </trkpt>
      <trkpt lat="47.6688825" lon="-2.0399438">
        <ele>5.260</ele>
        <time>2018-08-28T11:15:14.818Z</time>
      </trkpt>
      <trkpt lat="47.6689763" lon="-2.0398873">
        <ele>5.260</ele>
        <time>2018-08-28T11:15:17.886Z</time>
      </trkpt>
      <trkpt lat="47.6690690" lon="-2.0398409">
        <ele>5.285</ele>
        <time>2018-08-28T11:15:20.837Z</time>
      </trkpt>
      <trkpt lat="47.6691645" lon="-2.0397892">
        <ele>5.312</ele>
        <time>2018-08-28T11:15:23.879Z</time>
      </trkpt>
      <trkpt lat="47.6692607" lon="-2.0397364">
        <ele>5.322</ele>
        <time>2018-08-28T11:15:26.919Z</time>
      </trkpt>
      <trkpt lat="47.6693544" lon="-2.0396794">
        <ele>5.321</ele>
        <time>2018-08-28T11:15:29.887Z</time>
      </trkpt>
      <trkpt lat="47.6694507" lon="-2.0396206">
        <ele>5.319</ele>
        <time>2018-08-28T11:15:32.904Z</time>
      </trkpt>
      <trkpt lat="47.6695451" lon="-2.0395537">
        <ele>5.313</ele>
        <time>2018-08-28T11:15:35.900Z</time>
      </trkpt>
      <trkpt lat="47.6696414" lon="-2.0394905">
        <ele>5.298</ele>
        <time>2018-08-28T11:15:38.888Z</time>
      </trkpt>
      <trkpt lat="47.6697348" lon="-2.0394280">
        <ele>5.274</ele>
        <time>2018-08-28T11:15:41.796Z</time>
      </trkpt>
      <trkpt lat="47.6698292" lon="-2.0393722">
        <ele>5.254</ele>
        <time>2018-08-28T11:15:44.696Z</time>
      </trkpt>
      <trkpt lat="47.6699236" lon="-2.0393144">
        <ele>5.275</ele>
        <time>2018-08-28T11:15:47.610Z</time>
      </trkpt>
      <trkpt lat="47.6700177" lon="-2.0392380">
        <ele>5.422</ele>
        <time>2018-08-28T11:15:50.636Z</time>
      </trkpt>
      <trkpt lat="47.6701140" lon="-2.0391657">
        <ele>5.726</ele>
        <time>2018-08-28T11:15:53.639Z</time>
      </trkpt>
      <trkpt lat="47.6702068" lon="-2.0390981">
        <ele>6.069</ele>
        <time>2018-08-28T11:15:56.509Z</time>
      </trkpt>
      <trkpt lat="47.6703006" lon="-2.0390316">
        <ele>6.403</ele>
        <time>2018-08-28T11:15:59.408Z</time>
      </trkpt>
      <trkpt lat="47.6703969" lon="-2.0389666">
        <ele>6.862</ele>
        <time>2018-08-28T11:16:02.369Z</time>
      </trkpt>
      <trkpt lat="47.6704920" lon="-2.0388893">
        <ele>7.434</ele>
        <time>2018-08-28T11:16:05.369Z</time>
      </trkpt>
      <trkpt lat="47.6705907" lon="-2.0388093">
        <ele>7.889</ele>
        <time>2018-08-28T11:16:08.423Z</time>
      </trkpt>
      <trkpt lat="47.6706861" lon="-2.0387164">
        <ele>7.942</ele>
        <time>2018-08-28T11:16:11.471Z</time>
      </trkpt>
      <trkpt lat="47.6707832" lon="-2.0386207">
        <ele>7.532</ele>
        <time>2018-08-28T11:16:14.546Z</time>
      </trkpt>
      <trkpt lat="47.6708751" lon="-2.0385263">
        <ele>6.953</ele>
        <time>2018-08-28T11:16:17.484Z</time>
      </trkpt>
      <trkpt lat="47.6709621" lon="-2.0384208">
        <ele>6.532</ele>
        <time>2018-08-28T11:16:20.445Z</time>
      </trkpt>
      <trkpt lat="47.6710418" lon="-2.0383052">
        <ele>6.367</ele>
        <time>2018-08-28T11:16:23.371Z</time>
      </trkpt>
      <trkpt lat="47.6711266" lon="-2.0381946">
        <ele>6.446</ele>
        <time>2018-08-28T11:16:26.334Z</time>
      </trkpt>
      <trkpt lat="47.6712116" lon="-2.0380801">
        <ele>6.651</ele>
        <time>2018-08-28T11:16:29.348Z</time>
      </trkpt>
      <trkpt lat="47.6712920" lon="-2.0379584">
        <ele>6.800</ele>
        <time>2018-08-28T11:16:32.354Z</time>
      </trkpt>
      <trkpt lat="47.6713621" lon="-2.0378484">
        <ele>6.806</ele>
        <time>2018-08-28T11:16:35.067Z</time>
      </trkpt>
      <trkpt lat="47.6714306" lon="-2.0377505">
        <ele>6.724</ele>
        <time>2018-08-28T11:16:37.709Z</time>
      </trkpt>
      <trkpt lat="47.6715009" lon="-2.0376246">
        <ele>6.611</ele>
        <time>2018-08-28T11:16:40.880Z</time>
      </trkpt>
      <trkpt lat="47.6715693" lon="-2.0375014">
        <ele>6.447</ele>
        <time>2018-08-28T11:16:44.016Z</time>
      </trkpt>
      <trkpt lat="47.6716217" lon="-2.0373625">
        <ele>6.239</ele>
        <time>2018-08-28T11:16:47.138Z</time>
      </trkpt>
      <trkpt lat="47.6716744" lon="-2.0372080">
        <ele>6.099</ele>
        <time>2018-08-28T11:16:50.446Z</time>
      </trkpt>
      <trkpt lat="47.6717207" lon="-2.0370559">
        <ele>6.143</ele>
        <time>2018-08-28T11:16:53.538Z</time>
      </trkpt>
      <trkpt lat="47.6717635" lon="-2.0369345">
        <ele>6.345</ele>
        <time>2018-08-28T11:16:56.097Z</time>
      </trkpt>
      <trkpt lat="47.6718115" lon="-2.0368067">
        <ele>6.577</ele>
        <time>2018-08-28T11:16:58.945Z</time>
      </trkpt>
      <trkpt lat="47.6718453" lon="-2.0366608">
        <ele>6.733</ele>
        <time>2018-08-28T11:17:01.997Z</time>
      </trkpt>
      <trkpt lat="47.6718836" lon="-2.0365172">
        <ele>6.798</ele>
        <time>2018-08-28T11:17:05.034Z</time>
      </trkpt>
      <trkpt lat="47.6719234" lon="-2.0363596">
        <ele>6.801</ele>
        <time>2018-08-28T11:17:08.280Z</time>
      </trkpt>
      <trkpt lat="47.6719596" lon="-2.0362162">
        <ele>6.784</ele>
        <time>2018-08-28T11:17:11.190Z</time>
      </trkpt>
      <trkpt lat="47.6720064" lon="-2.0360699">
        <ele>6.733</ele>
        <time>2018-08-28T11:17:14.259Z</time>
      </trkpt>
      <trkpt lat="47.6720598" lon="-2.0359418">
        <ele>6.582</ele>
        <time>2018-08-28T11:17:17.140Z</time>
      </trkpt>
      <trkpt lat="47.6721203" lon="-2.0358277">
        <ele>6.339</ele>
        <time>2018-08-28T11:17:19.975Z</time>
      </trkpt>
      <trkpt lat="47.6721897" lon="-2.0356958">
        <ele>6.120</ele>
        <time>2018-08-28T11:17:23.289Z</time>
      </trkpt>
      <trkpt lat="47.6722512" lon="-2.0355781">
        <ele>5.994</ele>
        <time>2018-08-28T11:17:26.230Z</time>
      </trkpt>
      <trkpt lat="47.6723148" lon="-2.0354783">
        <ele>5.939</ele>
        <time>2018-08-28T11:17:28.962Z</time>
      </trkpt>
      <trkpt lat="47.6723736" lon="-2.0353590">
        <ele>5.922</ele>
        <time>2018-08-28T11:17:31.951Z</time>
      </trkpt>
      <trkpt lat="47.6724086" lon="-2.0351926">
        <ele>5.913</ele>
        <time>2018-08-28T11:17:35.418Z</time>
      </trkpt>
      <trkpt lat="47.6724412" lon="-2.0350215">
        <ele>5.892</ele>
        <time>2018-08-28T11:17:38.795Z</time>
      </trkpt>
      <trkpt lat="47.6724666" lon="-2.0348649">
        <ele>5.841</ele>
        <time>2018-08-28T11:17:41.791Z</time>
      </trkpt>
      <trkpt lat="47.6724738" lon="-2.0347223">
        <ele>5.787</ele>
        <time>2018-08-28T11:17:44.492Z</time>
      </trkpt>
      <trkpt lat="47.6724482" lon="-2.0345907">
        <ele>5.764</ele>
        <time>2018-08-28T11:17:47.175Z</time>
      </trkpt>
      <trkpt lat="47.6724156" lon="-2.0344482">
        <ele>5.755</ele>
        <time>2018-08-28T11:17:50.171Z</time>
      </trkpt>
      <trkpt lat="47.6723894" lon="-2.0343113">
        <ele>5.722</ele>
        <time>2018-08-28T11:17:53.000Z</time>
      </trkpt>
      <trkpt lat="47.6723894" lon="-2.0343113">
        <ele>5.670</ele>
        <time>2018-08-28T11:17:56.000Z</time>
      </trkpt>
      <trkpt lat="47.6723894" lon="-2.0343113">
        <ele>5.631</ele>
        <time>2018-08-28T11:19:18.454Z</time>
      </trkpt>
      <trkpt lat="47.6723387" lon="-2.0340384">
        <ele>5.630</ele>
        <time>2018-08-28T11:19:29.227Z</time>
      </trkpt>
      <trkpt lat="47.6723044" lon="-2.0339140">
        <ele>5.591</ele>
        <time>2018-08-28T11:19:31.950Z</time>
      </trkpt>
      <trkpt lat="47.6722674" lon="-2.0337878">
        <ele>5.435</ele>
        <time>2018-08-28T11:19:34.607Z</time>
      </trkpt>
      <trkpt lat="47.6722270" lon="-2.0336352">
        <ele>5.233</ele>
        <time>2018-08-28T11:19:37.731Z</time>
      </trkpt>
      <trkpt lat="47.6721815" lon="-2.0334814">
        <ele>5.095</ele>
        <time>2018-08-28T11:19:40.931Z</time>
      </trkpt>
      <trkpt lat="47.6721130" lon="-2.0333557">
        <ele>5.064</ele>
        <time>2018-08-28T11:19:43.858Z</time>
      </trkpt>
      <trkpt lat="47.6720206" lon="-2.0332112">
        <ele>5.141</ele>
        <time>2018-08-28T11:19:47.000Z</time>
      </trkpt>
      <trkpt lat="47.6720206" lon="-2.0332112">
        <ele>5.268</ele>
        <time>2018-08-28T11:19:48.000Z</time>
      </trkpt>
      <trkpt lat="47.6720206" lon="-2.0332112">
        <ele>5.344</ele>
        <time>2018-08-28T11:19:48.100Z</time>
      </trkpt>
      <trkpt lat="47.6718859" lon="-2.0329109">
        <ele>5.337</ele>
        <time>2018-08-28T11:19:56.746Z</time>
      </trkpt>
      <trkpt lat="47.6718392" lon="-2.0327635">
        <ele>5.320</ele>
        <time>2018-08-28T11:19:59.625Z</time>
      </trkpt>
      <trkpt lat="47.6718025" lon="-2.0325960">
        <ele>5.365</ele>
        <time>2018-08-28T11:20:02.638Z</time>
      </trkpt>
      <trkpt lat="47.6717825" lon="-2.0324163">
        <ele>5.449</ele>
        <time>2018-08-28T11:20:05.842Z</time>
      </trkpt>
      <trkpt lat="47.6717963" lon="-2.0322581">
        <ele>5.512</ele>
        <time>2018-08-28T11:20:08.783Z</time>
      </trkpt>
      <trkpt lat="47.6718050" lon="-2.0320907">
        <ele>5.506</ele>
        <time>2018-08-28T11:20:12.109Z</time>
      </trkpt>
      <trkpt lat="47.6718387" lon="-2.0319564">
        <ele>5.402</ele>
        <time>2018-08-28T11:20:15.112Z</time>
      </trkpt>
      <trkpt lat="47.6718828" lon="-2.0318172">
        <ele>5.232</ele>
        <time>2018-08-28T11:20:18.353Z</time>
      </trkpt>
      <trkpt lat="47.6719231" lon="-2.0316722">
        <ele>5.051</ele>
        <time>2018-08-28T11:20:21.687Z</time>
      </trkpt>
      <trkpt lat="47.6719657" lon="-2.0315053">
        <ele>4.893</ele>
        <time>2018-08-28T11:20:25.235Z</time>
      </trkpt>
      <trkpt lat="47.6719900" lon="-2.0313428">
        <ele>4.792</ele>
        <time>2018-08-28T11:20:28.235Z</time>
      </trkpt>
      <trkpt lat="47.6720047" lon="-2.0311616">
        <ele>4.762</ele>
        <time>2018-08-28T11:20:31.327Z</time>
      </trkpt>
      <trkpt lat="47.6720144" lon="-2.0309586">
        <ele>4.788</ele>
        <time>2018-08-28T11:20:34.699Z</time>
      </trkpt>
      <trkpt lat="47.6720258" lon="-2.0307538">
        <ele>4.852</ele>
        <time>2018-08-28T11:20:38.084Z</time>
      </trkpt>
      <trkpt lat="47.6720479" lon="-2.0305762">
        <ele>4.910</ele>
        <time>2018-08-28T11:20:41.097Z</time>
      </trkpt>
      <trkpt lat="47.6720709" lon="-2.0303942">
        <ele>4.928</ele>
        <time>2018-08-28T11:20:44.563Z</time>
      </trkpt>
      <trkpt lat="47.6720880" lon="-2.0302222">
        <ele>4.885</ele>
        <time>2018-08-28T11:20:48.119Z</time>
      </trkpt>
      <trkpt lat="47.6721197" lon="-2.0300633">
        <ele>4.730</ele>
        <time>2018-08-28T11:20:51.410Z</time>
      </trkpt>
      <trkpt lat="47.6721541" lon="-2.0299221">
        <ele>4.454</ele>
        <time>2018-08-28T11:20:54.253Z</time>
      </trkpt>
      <trkpt lat="47.6721876" lon="-2.0297690">
        <ele>4.066</ele>
        <time>2018-08-28T11:20:57.275Z</time>
      </trkpt>
      <trkpt lat="47.6722182" lon="-2.0296080">
        <ele>3.632</ele>
        <time>2018-08-28T11:21:00.356Z</time>
      </trkpt>
      <trkpt lat="47.6722456" lon="-2.0294439">
        <ele>3.262</ele>
        <time>2018-08-28T11:21:03.535Z</time>
      </trkpt>
      <trkpt lat="47.6722671" lon="-2.0292678">
        <ele>3.005</ele>
        <time>2018-08-28T11:21:07.071Z</time>
      </trkpt>
      <trkpt lat="47.6722932" lon="-2.0291094">
        <ele>2.841</ele>
        <time>2018-08-28T11:21:10.254Z</time>
      </trkpt>
      <trkpt lat="47.6723191" lon="-2.0289480">
        <ele>2.744</ele>
        <time>2018-08-28T11:21:13.333Z</time>
      </trkpt>
      <trkpt lat="47.6723366" lon="-2.0287815">
        <ele>2.654</ele>
        <time>2018-08-28T11:21:16.321Z</time>
      </trkpt>
      <trkpt lat="47.6723427" lon="-2.0285937">
        <ele>2.539</ele>
        <time>2018-08-28T11:21:19.640Z</time>
      </trkpt>
      <trkpt lat="47.6723537" lon="-2.0284080">
        <ele>2.369</ele>
        <time>2018-08-28T11:21:23.023Z</time>
      </trkpt>
      <trkpt lat="47.6723682" lon="-2.0282268">
        <ele>2.144</ele>
        <time>2018-08-28T11:21:26.425Z</time>
      </trkpt>
      <trkpt lat="47.6723896" lon="-2.0280653">
        <ele>1.988</ele>
        <time>2018-08-28T11:21:29.488Z</time>
      </trkpt>
      <trkpt lat="47.6724119" lon="-2.0279102">
        <ele>1.990</ele>
        <time>2018-08-28T11:21:32.379Z</time>
      </trkpt>
      <trkpt lat="47.6724347" lon="-2.0277435">
        <ele>2.022</ele>
        <time>2018-08-28T11:21:35.477Z</time>
      </trkpt>
      <trkpt lat="47.6724542" lon="-2.0275659">
        <ele>1.944</ele>
        <time>2018-08-28T11:21:38.852Z</time>
      </trkpt>
      <trkpt lat="47.6724928" lon="-2.0274114">
        <ele>1.781</ele>
        <time>2018-08-28T11:21:41.978Z</time>
      </trkpt>
      <trkpt lat="47.6725331" lon="-2.0272702">
        <ele>1.580</ele>
        <time>2018-08-28T11:21:44.880Z</time>
      </trkpt>
      <trkpt lat="47.6725591" lon="-2.0271189">
        <ele>1.368</ele>
        <time>2018-08-28T11:21:47.853Z</time>
      </trkpt>
      <trkpt lat="47.6725811" lon="-2.0269580">
        <ele>1.270</ele>
        <time>2018-08-28T11:21:51.045Z</time>
      </trkpt>
      <trkpt lat="47.6725919" lon="-2.0268008">
        <ele>1.348</ele>
        <time>2018-08-28T11:21:54.157Z</time>
      </trkpt>
      <trkpt lat="47.6725982" lon="-2.0266527">
        <ele>1.486</ele>
        <time>2018-08-28T11:21:57.048Z</time>
      </trkpt>
      <trkpt lat="47.6726045" lon="-2.0264631">
        <ele>1.563</ele>
        <time>2018-08-28T11:22:00.596Z</time>
      </trkpt>
      <trkpt lat="47.6726197" lon="-2.0262860">
        <ele>1.516</ele>
        <time>2018-08-28T11:22:03.789Z</time>
      </trkpt>
      <trkpt lat="47.6726284" lon="-2.0261167">
        <ele>1.274</ele>
        <time>2018-08-28T11:22:06.742Z</time>
      </trkpt>
      <trkpt lat="47.6726350" lon="-2.0259425">
        <ele>0.909</ele>
        <time>2018-08-28T11:22:09.774Z</time>
      </trkpt>
      <trkpt lat="47.6726463" lon="-2.0257662">
        <ele>0.580</ele>
        <time>2018-08-28T11:22:12.920Z</time>
      </trkpt>
      <trkpt lat="47.6726644" lon="-2.0255972">
        <ele>0.321</ele>
        <time>2018-08-28T11:22:16.066Z</time>
      </trkpt>
      <trkpt lat="47.6726903" lon="-2.0254459">
        <ele>0.107</ele>
        <time>2018-08-28T11:22:18.992Z</time>
      </trkpt>
      <trkpt lat="47.6727191" lon="-2.0252924">
        <ele>0.000</ele>
        <time>2018-08-28T11:22:21.910Z</time>
      </trkpt>
      <trkpt lat="47.6727413" lon="-2.0251401">
        <ele>0.004</ele>
        <time>2018-08-28T11:22:24.657Z</time>
      </trkpt>
      <trkpt lat="47.6727662" lon="-2.0249587">
        <ele>0.149</ele>
        <time>2018-08-28T11:22:27.847Z</time>
      </trkpt>
      <trkpt lat="47.6727832" lon="-2.0247801">
        <ele>0.286</ele>
        <time>2018-08-28T11:22:30.952Z</time>
      </trkpt>
      <trkpt lat="47.6728029" lon="-2.0246097">
        <ele>0.247</ele>
        <time>2018-08-28T11:22:34.017Z</time>
      </trkpt>
      <trkpt lat="47.6728303" lon="-2.0244475">
        <ele>0.000</ele>
        <time>2018-08-28T11:22:37.080Z</time>
      </trkpt>
      <trkpt lat="47.6728699" lon="-2.0243028">
        <ele>0.000</ele>
        <time>2018-08-28T11:22:39.981Z</time>
      </trkpt>
      <trkpt lat="47.6729087" lon="-2.0241790">
        <ele>0.000</ele>
        <time>2018-08-28T11:22:42.525Z</time>
      </trkpt>
      <trkpt lat="47.6729057" lon="-2.0239871">
        <ele>0.000</ele>
        <time>2018-08-28T11:22:46.087Z</time>
      </trkpt>
      <trkpt lat="47.6729149" lon="-2.0238123">
        <ele>0.000</ele>
        <time>2018-08-28T11:22:49.318Z</time>
      </trkpt>
      <trkpt lat="47.6729351" lon="-2.0236415">
        <ele>0.000</ele>
        <time>2018-08-28T11:22:52.444Z</time>
      </trkpt>
      <trkpt lat="47.6729480" lon="-2.0234917">
        <ele>0.000</ele>
        <time>2018-08-28T11:22:55.115Z</time>
      </trkpt>
      <trkpt lat="47.6729537" lon="-2.0233249">
        <ele>0.000</ele>
        <time>2018-08-28T11:22:58.066Z</time>
      </trkpt>
      <trkpt lat="47.6729553" lon="-2.0231505">
        <ele>0.000</ele>
        <time>2018-08-28T11:23:01.207Z</time>
      </trkpt>
      <trkpt lat="47.6729628" lon="-2.0229893">
        <ele>0.000</ele>
        <time>2018-08-28T11:23:04.308Z</time>
      </trkpt>
      <trkpt lat="47.6729742" lon="-2.0228307">
        <ele>0.000</ele>
        <time>2018-08-28T11:23:07.509Z</time>
      </trkpt>
      <trkpt lat="47.6729987" lon="-2.0226865">
        <ele>0.000</ele>
        <time>2018-08-28T11:23:10.574Z</time>
      </trkpt>
      <trkpt lat="47.6730222" lon="-2.0225330">
        <ele>0.000</ele>
        <time>2018-08-28T11:23:13.827Z</time>
      </trkpt>
      <trkpt lat="47.6730470" lon="-2.0223864">
        <ele>0.000</ele>
        <time>2018-08-28T11:23:16.930Z</time>
      </trkpt>
      <trkpt lat="47.6730734" lon="-2.0222387">
        <ele>0.000</ele>
        <time>2018-08-28T11:23:20.026Z</time>
      </trkpt>
      <trkpt lat="47.6731161" lon="-2.0221003">
        <ele>0.000</ele>
        <time>2018-08-28T11:23:23.063Z</time>
      </trkpt>
      <trkpt lat="47.6731489" lon="-2.0219589">
        <ele>0.000</ele>
        <time>2018-08-28T11:23:25.961Z</time>
      </trkpt>
      <trkpt lat="47.6731792" lon="-2.0218162">
        <ele>0.000</ele>
        <time>2018-08-28T11:23:28.763Z</time>
      </trkpt>
      <trkpt lat="47.6732038" lon="-2.0216513">
        <ele>0.000</ele>
        <time>2018-08-28T11:23:31.815Z</time>
      </trkpt>
      <trkpt lat="47.6732463" lon="-2.0214936">
        <ele>0.000</ele>
        <time>2018-08-28T11:23:34.847Z</time>
      </trkpt>
      <trkpt lat="47.6732954" lon="-2.0213395">
        <ele>0.000</ele>
        <time>2018-08-28T11:23:37.957Z</time>
      </trkpt>
      <trkpt lat="47.6733431" lon="-2.0211713">
        <ele>0.000</ele>
        <time>2018-08-28T11:23:41.322Z</time>
      </trkpt>
      <trkpt lat="47.6734073" lon="-2.0210692">
        <ele>0.000</ele>
        <time>2018-08-28T11:23:43.860Z</time>
      </trkpt>
      <trkpt lat="47.6734572" lon="-2.0209247">
        <ele>0.000</ele>
        <time>2018-08-28T11:23:46.782Z</time>
      </trkpt>
      <trkpt lat="47.6735137" lon="-2.0207716">
        <ele>0.000</ele>
        <time>2018-08-28T11:23:49.932Z</time>
      </trkpt>
      <trkpt lat="47.6735783" lon="-2.0206285">
        <ele>0.055</ele>
        <time>2018-08-28T11:23:53.079Z</time>
      </trkpt>
      <trkpt lat="47.6736432" lon="-2.0204981">
        <ele>0.327</ele>
        <time>2018-08-28T11:23:56.076Z</time>
      </trkpt>
      <trkpt lat="47.6737020" lon="-2.0203597">
        <ele>0.506</ele>
        <time>2018-08-28T11:23:59.113Z</time>
      </trkpt>
      <trkpt lat="47.6737574" lon="-2.0202203">
        <ele>0.582</ele>
        <time>2018-08-28T11:24:02.123Z</time>
      </trkpt>
      <trkpt lat="47.6737996" lon="-2.0200730">
        <ele>0.631</ele>
        <time>2018-08-28T11:24:05.052Z</time>
      </trkpt>
      <trkpt lat="47.6738224" lon="-2.0199008">
        <ele>0.722</ele>
        <time>2018-08-28T11:24:08.168Z</time>
      </trkpt>
      <trkpt lat="47.6738472" lon="-2.0197286">
        <ele>0.808</ele>
        <time>2018-08-28T11:24:11.182Z</time>
      </trkpt>
      <trkpt lat="47.6738596" lon="-2.0195373">
        <ele>0.829</ele>
        <time>2018-08-28T11:24:14.377Z</time>
      </trkpt>
      <trkpt lat="47.6738658" lon="-2.0193496">
        <ele>0.814</ele>
        <time>2018-08-28T11:24:17.481Z</time>
      </trkpt>
      <trkpt lat="47.6738667" lon="-2.0191638">
        <ele>0.808</ele>
        <time>2018-08-28T11:24:20.587Z</time>
      </trkpt>
      <trkpt lat="47.6738682" lon="-2.0189818">
        <ele>0.815</ele>
        <time>2018-08-28T11:24:23.688Z</time>
      </trkpt>
      <trkpt lat="47.6738673" lon="-2.0188111">
        <ele>0.801</ele>
        <time>2018-08-28T11:24:26.697Z</time>
      </trkpt>
      <trkpt lat="47.6738524" lon="-2.0186427">
        <ele>0.752</ele>
        <time>2018-08-28T11:24:29.778Z</time>
      </trkpt>
      <trkpt lat="47.6738298" lon="-2.0184814">
        <ele>0.722</ele>
        <time>2018-08-28T11:24:32.768Z</time>
      </trkpt>
      <trkpt lat="47.6738080" lon="-2.0183351">
        <ele>0.766</ele>
        <time>2018-08-28T11:24:35.465Z</time>
      </trkpt>
      <trkpt lat="47.6737808" lon="-2.0181713">
        <ele>0.839</ele>
        <time>2018-08-28T11:24:38.468Z</time>
      </trkpt>
      <trkpt lat="47.6737402" lon="-2.0180127">
        <ele>0.747</ele>
        <time>2018-08-28T11:24:41.423Z</time>
      </trkpt>
      <trkpt lat="47.6737010" lon="-2.0178570">
        <ele>0.404</ele>
        <time>2018-08-28T11:24:44.253Z</time>
      </trkpt>
      <trkpt lat="47.6736605" lon="-2.0176947">
        <ele>0.033</ele>
        <time>2018-08-28T11:24:47.179Z</time>
      </trkpt>
      <trkpt lat="47.6736160" lon="-2.0175228">
        <ele>0.000</ele>
        <time>2018-08-28T11:24:50.323Z</time>
      </trkpt>
      <trkpt lat="47.6735800" lon="-2.0173535">
        <ele>0.000</ele>
        <time>2018-08-28T11:24:53.427Z</time>
      </trkpt>
      <trkpt lat="47.6735558" lon="-2.0171849">
        <ele>0.175</ele>
        <time>2018-08-28T11:24:56.505Z</time>
      </trkpt>
      <trkpt lat="47.6735304" lon="-2.0170270">
        <ele>0.485</ele>
        <time>2018-08-28T11:24:59.452Z</time>
      </trkpt>
      <trkpt lat="47.6735153" lon="-2.0168659">
        <ele>0.696</ele>
        <time>2018-08-28T11:25:02.481Z</time>
      </trkpt>
      <trkpt lat="47.6735041" lon="-2.0167013">
        <ele>0.798</ele>
        <time>2018-08-28T11:25:05.655Z</time>
      </trkpt>
      <trkpt lat="47.6735020" lon="-2.0165424">
        <ele>0.845</ele>
        <time>2018-08-28T11:25:08.764Z</time>
      </trkpt>
      <trkpt lat="47.6735157" lon="-2.0163956">
        <ele>0.869</ele>
        <time>2018-08-28T11:25:11.717Z</time>
      </trkpt>
      <trkpt lat="47.6735345" lon="-2.0162461">
        <ele>0.830</ele>
        <time>2018-08-28T11:25:14.738Z</time>
      </trkpt>
      <trkpt lat="47.6735610" lon="-2.0161039">
        <ele>0.713</ele>
        <time>2018-08-28T11:25:17.620Z</time>
      </trkpt>
      <trkpt lat="47.6735750" lon="-2.0159632">
        <ele>0.584</ele>
        <time>2018-08-28T11:25:20.515Z</time>
      </trkpt>
      <trkpt lat="47.6735841" lon="-2.0157938">
        <ele>0.482</ele>
        <time>2018-08-28T11:25:24.056Z</time>
      </trkpt>
      <trkpt lat="47.6735873" lon="-2.0156431">
        <ele>0.281</ele>
        <time>2018-08-28T11:25:27.062Z</time>
      </trkpt>
      <trkpt lat="47.6735955" lon="-2.0154819">
        <ele>0.000</ele>
        <time>2018-08-28T11:25:30.004Z</time>
      </trkpt>
      <trkpt lat="47.6735907" lon="-2.0153155">
        <ele>0.000</ele>
        <time>2018-08-28T11:25:32.826Z</time>
      </trkpt>
      <trkpt lat="47.6735864" lon="-2.0151300">
        <ele>0.000</ele>
        <time>2018-08-28T11:25:35.847Z</time>
      </trkpt>
      <trkpt lat="47.6735763" lon="-2.0149395">
        <ele>0.000</ele>
        <time>2018-08-28T11:25:38.931Z</time>
      </trkpt>
      <trkpt lat="47.6735617" lon="-2.0147536">
        <ele>0.181</ele>
        <time>2018-08-28T11:25:42.005Z</time>
      </trkpt>
      <trkpt lat="47.6735462" lon="-2.0145739">
        <ele>0.539</ele>
        <time>2018-08-28T11:25:45.037Z</time>
      </trkpt>
      <trkpt lat="47.6735348" lon="-2.0144072">
        <ele>0.740</ele>
        <time>2018-08-28T11:25:47.901Z</time>
      </trkpt>
      <trkpt lat="47.6735223" lon="-2.0142320">
        <ele>0.773</ele>
        <time>2018-08-28T11:25:50.967Z</time>
      </trkpt>
      <trkpt lat="47.6735128" lon="-2.0140640">
        <ele>0.702</ele>
        <time>2018-08-28T11:25:53.930Z</time>
      </trkpt>
      <trkpt lat="47.6735026" lon="-2.0138982">
        <ele>0.587</ele>
        <time>2018-08-28T11:25:56.845Z</time>
      </trkpt>
      <trkpt lat="47.6734853" lon="-2.0137347">
        <ele>0.473</ele>
        <time>2018-08-28T11:25:59.713Z</time>
      </trkpt>
      <trkpt lat="47.6734767" lon="-2.0135679">
        <ele>0.398</ele>
        <time>2018-08-28T11:26:02.577Z</time>
      </trkpt>
      <trkpt lat="47.6734639" lon="-2.0133933">
        <ele>0.381</ele>
        <time>2018-08-28T11:26:05.560Z</time>
      </trkpt>
      <trkpt lat="47.6734495" lon="-2.0132175">
        <ele>0.479</ele>
        <time>2018-08-28T11:26:08.570Z</time>
      </trkpt>
      <trkpt lat="47.6734323" lon="-2.0130368">
        <ele>0.771</ele>
        <time>2018-08-28T11:26:11.712Z</time>
      </trkpt>
      <trkpt lat="47.6734169" lon="-2.0128661">
        <ele>1.171</ele>
        <time>2018-08-28T11:26:14.730Z</time>
      </trkpt>
      <trkpt lat="47.6734025" lon="-2.0127007">
        <ele>1.403</ele>
        <time>2018-08-28T11:26:17.682Z</time>
      </trkpt>
      <trkpt lat="47.6733852" lon="-2.0125405">
        <ele>1.347</ele>
        <time>2018-08-28T11:26:20.553Z</time>
      </trkpt>
      <trkpt lat="47.6733666" lon="-2.0123777">
        <ele>1.205</ele>
        <time>2018-08-28T11:26:23.485Z</time>
      </trkpt>
      <trkpt lat="47.6733406" lon="-2.0122146">
        <ele>1.167</ele>
        <time>2018-08-28T11:26:26.480Z</time>
      </trkpt>
      <trkpt lat="47.6733112" lon="-2.0120543">
        <ele>1.131</ele>
        <time>2018-08-28T11:26:29.483Z</time>
      </trkpt>
      <trkpt lat="47.6732792" lon="-2.0118981">
        <ele>0.974</ele>
        <time>2018-08-28T11:26:32.468Z</time>
      </trkpt>
      <trkpt lat="47.6732496" lon="-2.0117422">
        <ele>0.877</ele>
        <time>2018-08-28T11:26:35.456Z</time>
      </trkpt>
      <trkpt lat="47.6732230" lon="-2.0115890">
        <ele>1.026</ele>
        <time>2018-08-28T11:26:38.390Z</time>
      </trkpt>
      <trkpt lat="47.6731810" lon="-2.0114353">
        <ele>1.280</ele>
        <time>2018-08-28T11:26:41.458Z</time>
      </trkpt>
      <trkpt lat="47.6731522" lon="-2.0112881">
        <ele>1.443</ele>
        <time>2018-08-28T11:26:44.262Z</time>
      </trkpt>
      <trkpt lat="47.6731203" lon="-2.0111283">
        <ele>1.473</ele>
        <time>2018-08-28T11:26:47.283Z</time>
      </trkpt>
      <trkpt lat="47.6730977" lon="-2.0109656">
        <ele>1.396</ele>
        <time>2018-08-28T11:26:50.289Z</time>
      </trkpt>
      <trkpt lat="47.6730764" lon="-2.0107995">
        <ele>1.252</ele>
        <time>2018-08-28T11:26:53.355Z</time>
      </trkpt>
      <trkpt lat="47.6730718" lon="-2.0106394">
        <ele>1.064</ele>
        <time>2018-08-28T11:26:56.269Z</time>
      </trkpt>
      <trkpt lat="47.6730791" lon="-2.0104748">
        <ele>0.842</ele>
        <time>2018-08-28T11:26:59.277Z</time>
      </trkpt>
      <trkpt lat="47.6730970" lon="-2.0103167">
        <ele>0.622</ele>
        <time>2018-08-28T11:27:02.215Z</time>
      </trkpt>
      <trkpt lat="47.6731266" lon="-2.0101641">
        <ele>0.450</ele>
        <time>2018-08-28T11:27:05.130Z</time>
      </trkpt>
      <trkpt lat="47.6731624" lon="-2.0100163">
        <ele>0.351</ele>
        <time>2018-08-28T11:27:08.019Z</time>
      </trkpt>
      <trkpt lat="47.6732005" lon="-2.0098682">
        <ele>0.309</ele>
        <time>2018-08-28T11:27:10.932Z</time>
      </trkpt>
      <trkpt lat="47.6732343" lon="-2.0097138">
        <ele>0.304</ele>
        <time>2018-08-28T11:27:13.926Z</time>
      </trkpt>
      <trkpt lat="47.6732649" lon="-2.0095551">
        <ele>0.390</ele>
        <time>2018-08-28T11:27:17.004Z</time>
      </trkpt>
      <trkpt lat="47.6732881" lon="-2.0094032">
        <ele>0.596</ele>
        <time>2018-08-28T11:27:19.967Z</time>
      </trkpt>
      <trkpt lat="47.6733026" lon="-2.0092604">
        <ele>0.796</ele>
        <time>2018-08-28T11:27:22.772Z</time>
      </trkpt>
      <trkpt lat="47.6732985" lon="-2.0091143">
        <ele>0.883</ele>
        <time>2018-08-28T11:27:25.664Z</time>
      </trkpt>
      <trkpt lat="47.6732929" lon="-2.0089701">
        <ele>0.915</ele>
        <time>2018-08-28T11:27:28.530Z</time>
      </trkpt>
      <trkpt lat="47.6732874" lon="-2.0088248">
        <ele>0.978</ele>
        <time>2018-08-28T11:27:31.363Z</time>
      </trkpt>
      <trkpt lat="47.6732739" lon="-2.0086714">
        <ele>1.146</ele>
        <time>2018-08-28T11:27:34.282Z</time>
      </trkpt>
      <trkpt lat="47.6732588" lon="-2.0085131">
        <ele>1.409</ele>
        <time>2018-08-28T11:27:37.234Z</time>
      </trkpt>
      <trkpt lat="47.6732400" lon="-2.0083513">
        <ele>1.631</ele>
        <time>2018-08-28T11:27:40.228Z</time>
      </trkpt>
      <trkpt lat="47.6732234" lon="-2.0081913">
        <ele>1.694</ele>
        <time>2018-08-28T11:27:43.165Z</time>
      </trkpt>
      <trkpt lat="47.6731985" lon="-2.0080261">
        <ele>1.615</ele>
        <time>2018-08-28T11:27:46.249Z</time>
      </trkpt>
      <trkpt lat="47.6731867" lon="-2.0078653">
        <ele>1.454</ele>
        <time>2018-08-28T11:27:49.195Z</time>
      </trkpt>
      <trkpt lat="47.6731737" lon="-2.0077064">
        <ele>1.303</ele>
        <time>2018-08-28T11:27:52.123Z</time>
      </trkpt>
      <trkpt lat="47.6731576" lon="-2.0075459">
        <ele>1.222</ele>
        <time>2018-08-28T11:27:55.125Z</time>
      </trkpt>
      <trkpt lat="47.6731463" lon="-2.0073908">
        <ele>1.190</ele>
        <time>2018-08-28T11:27:58.091Z</time>
      </trkpt>
      <trkpt lat="47.6731286" lon="-2.0072392">
        <ele>1.121</ele>
        <time>2018-08-28T11:28:01.147Z</time>
      </trkpt>
      <trkpt lat="47.6731222" lon="-2.0070951">
        <ele>0.942</ele>
        <time>2018-08-28T11:28:04.078Z</time>
      </trkpt>
      <trkpt lat="47.6731373" lon="-2.0069539">
        <ele>0.702</ele>
        <time>2018-08-28T11:28:06.945Z</time>
      </trkpt>
      <trkpt lat="47.6731637" lon="-2.0068027">
        <ele>0.500</ele>
        <time>2018-08-28T11:28:09.966Z</time>
      </trkpt>
      <trkpt lat="47.6731918" lon="-2.0066554">
        <ele>0.321</ele>
        <time>2018-08-28T11:28:12.869Z</time>
      </trkpt>
      <trkpt lat="47.6732224" lon="-2.0064948">
        <ele>0.124</ele>
        <time>2018-08-28T11:28:15.992Z</time>
      </trkpt>
      <trkpt lat="47.6732559" lon="-2.0063506">
        <ele>0.000</ele>
        <time>2018-08-28T11:28:18.787Z</time>
      </trkpt>
      <trkpt lat="47.6733043" lon="-2.0061951">
        <ele>0.000</ele>
        <time>2018-08-28T11:28:21.888Z</time>
      </trkpt>
      <trkpt lat="47.6733504" lon="-2.0060562">
        <ele>0.000</ele>
        <time>2018-08-28T11:28:24.666Z</time>
      </trkpt>
      <trkpt lat="47.6733892" lon="-2.0059008">
        <ele>0.000</ele>
        <time>2018-08-28T11:28:27.636Z</time>
      </trkpt>
      <trkpt lat="47.6734249" lon="-2.0057448">
        <ele>0.152</ele>
        <time>2018-08-28T11:28:30.554Z</time>
      </trkpt>
      <trkpt lat="47.6734612" lon="-2.0055847">
        <ele>0.316</ele>
        <time>2018-08-28T11:28:33.505Z</time>
      </trkpt>
      <trkpt lat="47.6734956" lon="-2.0054194">
        <ele>0.410</ele>
        <time>2018-08-28T11:28:36.515Z</time>
      </trkpt>
      <trkpt lat="47.6735252" lon="-2.0052604">
        <ele>0.506</ele>
        <time>2018-08-28T11:28:39.398Z</time>
      </trkpt>
      <trkpt lat="47.6735479" lon="-2.0050987">
        <ele>0.728</ele>
        <time>2018-08-28T11:28:42.304Z</time>
      </trkpt>
      <trkpt lat="47.6735686" lon="-2.0049310">
        <ele>1.042</ele>
        <time>2018-08-28T11:28:45.319Z</time>
      </trkpt>
      <trkpt lat="47.6735743" lon="-2.0047582">
        <ele>1.295</ele>
        <time>2018-08-28T11:28:48.381Z</time>
      </trkpt>
      <trkpt lat="47.6735825" lon="-2.0045934">
        <ele>1.474</ele>
        <time>2018-08-28T11:28:51.271Z</time>
      </trkpt>
      <trkpt lat="47.6735904" lon="-2.0044180">
        <ele>1.655</ele>
        <time>2018-08-28T11:28:54.324Z</time>
      </trkpt>
      <trkpt lat="47.6736044" lon="-2.0042478">
        <ele>1.794</ele>
        <time>2018-08-28T11:28:57.296Z</time>
      </trkpt>
      <trkpt lat="47.6736148" lon="-2.0040839">
        <ele>1.820</ele>
        <time>2018-08-28T11:29:00.164Z</time>
      </trkpt>
      <trkpt lat="47.6736185" lon="-2.0039167">
        <ele>1.627</ele>
        <time>2018-08-28T11:29:03.092Z</time>
      </trkpt>
      <trkpt lat="47.6736316" lon="-2.0037524">
        <ele>1.200</ele>
        <time>2018-08-28T11:29:06.001Z</time>
      </trkpt>
      <trkpt lat="47.6736533" lon="-2.0035878">
        <ele>0.905</ele>
        <time>2018-08-28T11:29:09.002Z</time>
      </trkpt>
      <trkpt lat="47.6736868" lon="-2.0034389">
        <ele>1.090</ele>
        <time>2018-08-28T11:29:11.888Z</time>
      </trkpt>
      <trkpt lat="47.6737280" lon="-2.0032949">
        <ele>1.587</ele>
        <time>2018-08-28T11:29:14.804Z</time>
      </trkpt>
      <trkpt lat="47.6737768" lon="-2.0031600">
        <ele>2.029</ele>
        <time>2018-08-28T11:29:17.646Z</time>
      </trkpt>
      <trkpt lat="47.6738364" lon="-2.0030217">
        <ele>2.261</ele>
        <time>2018-08-28T11:29:20.687Z</time>
      </trkpt>
      <trkpt lat="47.6738973" lon="-2.0028917">
        <ele>2.321</ele>
        <time>2018-08-28T11:29:23.630Z</time>
      </trkpt>
      <trkpt lat="47.6739521" lon="-2.0027685">
        <ele>2.301</ele>
        <time>2018-08-28T11:29:26.383Z</time>
      </trkpt>
      <trkpt lat="47.6740141" lon="-2.0026358">
        <ele>2.255</ele>
        <time>2018-08-28T11:29:29.401Z</time>
      </trkpt>
      <trkpt lat="47.6740747" lon="-2.0025026">
        <ele>2.199</ele>
        <time>2018-08-28T11:29:32.442Z</time>
      </trkpt>
      <trkpt lat="47.6741307" lon="-2.0023772">
        <ele>2.151</ele>
        <time>2018-08-28T11:29:35.316Z</time>
      </trkpt>
      <trkpt lat="47.6741948" lon="-2.0022628">
        <ele>2.162</ele>
        <time>2018-08-28T11:29:38.152Z</time>
      </trkpt>
      <trkpt lat="47.6742611" lon="-2.0021366">
        <ele>2.264</ele>
        <time>2018-08-28T11:29:41.175Z</time>
      </trkpt>
      <trkpt lat="47.6743348" lon="-2.0020182">
        <ele>2.424</ele>
        <time>2018-08-28T11:29:44.189Z</time>
      </trkpt>
      <trkpt lat="47.6744112" lon="-2.0019036">
        <ele>2.583</ele>
        <time>2018-08-28T11:29:47.144Z</time>
      </trkpt>
      <trkpt lat="47.6744817" lon="-2.0017763">
        <ele>2.707</ele>
        <time>2018-08-28T11:29:50.072Z</time>
      </trkpt>
      <trkpt lat="47.6745526" lon="-2.0016213">
        <ele>2.788</ele>
        <time>2018-08-28T11:29:53.333Z</time>
      </trkpt>
      <trkpt lat="47.6746284" lon="-2.0014883">
        <ele>2.853</ele>
        <time>2018-08-28T11:29:56.350Z</time>
      </trkpt>
      <trkpt lat="47.6747096" lon="-2.0013707">
        <ele>2.927</ele>
        <time>2018-08-28T11:29:59.296Z</time>
      </trkpt>
      <trkpt lat="47.6747865" lon="-2.0012484">
        <ele>3.022</ele>
        <time>2018-08-28T11:30:02.264Z</time>
      </trkpt>
      <trkpt lat="47.6748706" lon="-2.0011481">
        <ele>3.174</ele>
        <time>2018-08-28T11:30:05.149Z</time>
      </trkpt>
      <trkpt lat="47.6749502" lon="-2.0010341">
        <ele>3.389</ele>
        <time>2018-08-28T11:30:08.131Z</time>
      </trkpt>
      <trkpt lat="47.6750283" lon="-2.0009272">
        <ele>3.568</ele>
        <time>2018-08-28T11:30:11.005Z</time>
      </trkpt>
      <trkpt lat="47.6751091" lon="-2.0008206">
        <ele>3.655</ele>
        <time>2018-08-28T11:30:13.934Z</time>
      </trkpt>
      <trkpt lat="47.6751864" lon="-2.0007076">
        <ele>3.708</ele>
        <time>2018-08-28T11:30:16.893Z</time>
      </trkpt>
      <trkpt lat="47.6752652" lon="-2.0006025">
        <ele>3.783</ele>
        <time>2018-08-28T11:30:19.801Z</time>
      </trkpt>
      <trkpt lat="47.6753500" lon="-2.0005087">
        <ele>3.873</ele>
        <time>2018-08-28T11:30:22.729Z</time>
      </trkpt>
      <trkpt lat="47.6754359" lon="-2.0004127">
        <ele>3.933</ele>
        <time>2018-08-28T11:30:25.736Z</time>
      </trkpt>
      <trkpt lat="47.6755205" lon="-2.0003294">
        <ele>3.920</ele>
        <time>2018-08-28T11:30:28.604Z</time>
      </trkpt>
      <trkpt lat="47.6756069" lon="-2.0002489">
        <ele>3.867</ele>
        <time>2018-08-28T11:30:31.502Z</time>
      </trkpt>
      <trkpt lat="47.6756974" lon="-2.0001752">
        <ele>3.839</ele>
        <time>2018-08-28T11:30:34.434Z</time>
      </trkpt>
      <trkpt lat="47.6757863" lon="-2.0000889">
        <ele>3.875</ele>
        <time>2018-08-28T11:30:37.449Z</time>
      </trkpt>
      <trkpt lat="47.6758751" lon="-2.0000088">
        <ele>3.995</ele>
        <time>2018-08-28T11:30:40.403Z</time>
      </trkpt>
      <trkpt lat="47.6759613" lon="-1.9999145">
        <ele>4.175</ele>
        <time>2018-08-28T11:30:43.469Z</time>
      </trkpt>
      <trkpt lat="47.6760382" lon="-1.9998117">
        <ele>4.334</ele>
        <time>2018-08-28T11:30:46.483Z</time>
      </trkpt>
      <trkpt lat="47.6761018" lon="-1.9996986">
        <ele>4.439</ele>
        <time>2018-08-28T11:30:49.420Z</time>
      </trkpt>
      <trkpt lat="47.6761598" lon="-1.9995730">
        <ele>4.515</ele>
        <time>2018-08-28T11:30:52.448Z</time>
      </trkpt>
      <trkpt lat="47.6762051" lon="-1.9994363">
        <ele>4.598</ele>
        <time>2018-08-28T11:30:55.442Z</time>
      </trkpt>
      <trkpt lat="47.6762330" lon="-1.9992882">
        <ele>4.754</ele>
        <time>2018-08-28T11:30:58.429Z</time>
      </trkpt>
      <trkpt lat="47.6762592" lon="-1.9991401">
        <ele>4.973</ele>
        <time>2018-08-28T11:31:01.363Z</time>
      </trkpt>
      <trkpt lat="47.6762940" lon="-1.9989952">
        <ele>5.146</ele>
        <time>2018-08-28T11:31:04.307Z</time>
      </trkpt>
      <trkpt lat="47.6763280" lon="-1.9988642">
        <ele>5.242</ele>
        <time>2018-08-28T11:31:07.081Z</time>
      </trkpt>
      <trkpt lat="47.6763832" lon="-1.9987164">
        <ele>5.324</ele>
        <time>2018-08-28T11:31:10.489Z</time>
      </trkpt>
      <trkpt lat="47.6764285" lon="-1.9985754">
        <ele>5.422</ele>
        <time>2018-08-28T11:31:13.619Z</time>
      </trkpt>
      <trkpt lat="47.6764597" lon="-1.9984143">
        <ele>5.505</ele>
        <time>2018-08-28T11:31:16.911Z</time>
      </trkpt>
      <trkpt lat="47.6764926" lon="-1.9982689">
        <ele>5.558</ele>
        <time>2018-08-28T11:31:19.960Z</time>
      </trkpt>
      <trkpt lat="47.6765170" lon="-1.9981368">
        <ele>5.600</ele>
        <time>2018-08-28T11:31:22.871Z</time>
      </trkpt>
      <trkpt lat="47.6765540" lon="-1.9979902">
        <ele>5.697</ele>
        <time>2018-08-28T11:31:26.339Z</time>
      </trkpt>
      <trkpt lat="47.6765951" lon="-1.9978255">
        <ele>5.961</ele>
        <time>2018-08-28T11:31:30.304Z</time>
      </trkpt>
      <trkpt lat="47.6766302" lon="-1.9976959">
        <ele>6.344</ele>
        <time>2018-08-28T11:31:33.428Z</time>
      </trkpt>
      <trkpt lat="47.6766659" lon="-1.9975699">
        <ele>6.564</ele>
        <time>2018-08-28T11:31:36.451Z</time>
      </trkpt>
      <trkpt lat="47.6767029" lon="-1.9974461">
        <ele>6.426</ele>
        <time>2018-08-28T11:31:39.413Z</time>
      </trkpt>
      <trkpt lat="47.6767398" lon="-1.9973198">
        <ele>6.369</ele>
        <time>2018-08-28T11:31:42.372Z</time>
      </trkpt>
      <trkpt lat="47.6767848" lon="-1.9971942">
        <ele>6.481</ele>
        <time>2018-08-28T11:31:45.343Z</time>
      </trkpt>
      <trkpt lat="47.6768303" lon="-1.9970612">
        <ele>6.977</ele>
        <time>2018-08-28T11:31:48.374Z</time>
      </trkpt>
      <trkpt lat="47.6768788" lon="-1.9969336">
        <ele>7.354</ele>
        <time>2018-08-28T11:31:51.283Z</time>
      </trkpt>
      <trkpt lat="47.6769262" lon="-1.9968024">
        <ele>7.700</ele>
        <time>2018-08-28T11:31:54.179Z</time>
      </trkpt>
      <trkpt lat="47.6769751" lon="-1.9966635">
        <ele>7.893</ele>
        <time>2018-08-28T11:31:57.164Z</time>
      </trkpt>
      <trkpt lat="47.6770219" lon="-1.9965191">
        <ele>7.945</ele>
        <time>2018-08-28T11:32:00.166Z</time>
      </trkpt>
      <trkpt lat="47.6770690" lon="-1.9963763">
        <ele>7.852</ele>
        <time>2018-08-28T11:32:03.103Z</time>
      </trkpt>
      <trkpt lat="47.6771191" lon="-1.9962362">
        <ele>7.558</ele>
        <time>2018-08-28T11:32:06.002Z</time>
      </trkpt>
      <trkpt lat="47.6771702" lon="-1.9960903">
        <ele>6.977</ele>
        <time>2018-08-28T11:32:08.971Z</time>
      </trkpt>
      <trkpt lat="47.6772231" lon="-1.9959417">
        <ele>6.160</ele>
        <time>2018-08-28T11:32:11.982Z</time>
      </trkpt>
      <trkpt lat="47.6772801" lon="-1.9958051">
        <ele>5.409</ele>
        <time>2018-08-28T11:32:14.869Z</time>
      </trkpt>
      <trkpt lat="47.6773351" lon="-1.9956648">
        <ele>5.000</ele>
        <time>2018-08-28T11:32:17.769Z</time>
      </trkpt>
      <trkpt lat="47.6773968" lon="-1.9955138">
        <ele>4.922</ele>
        <time>2018-08-28T11:32:20.831Z</time>
      </trkpt>
      <trkpt lat="47.6774626" lon="-1.9953539">
        <ele>5.013</ele>
        <time>2018-08-28T11:32:23.933Z</time>
      </trkpt>
      <trkpt lat="47.6775265" lon="-1.9951888">
        <ele>4.918</ele>
        <time>2018-08-28T11:32:26.968Z</time>
      </trkpt>
      <trkpt lat="47.6775891" lon="-1.9950316">
        <ele>4.710</ele>
        <time>2018-08-28T11:32:29.854Z</time>
      </trkpt>
      <trkpt lat="47.6776594" lon="-1.9948930">
        <ele>4.507</ele>
        <time>2018-08-28T11:32:32.635Z</time>
      </trkpt>
      <trkpt lat="47.6777311" lon="-1.9947590">
        <ele>4.410</ele>
        <time>2018-08-28T11:32:35.461Z</time>
      </trkpt>
      <trkpt lat="47.6778015" lon="-1.9946384">
        <ele>4.399</ele>
        <time>2018-08-28T11:32:38.175Z</time>
      </trkpt>
      <trkpt lat="47.6778749" lon="-1.9945107">
        <ele>4.382</ele>
        <time>2018-08-28T11:32:41.085Z</time>
      </trkpt>
      <trkpt lat="47.6779549" lon="-1.9943917">
        <ele>4.269</ele>
        <time>2018-08-28T11:32:44.013Z</time>
      </trkpt>
      <trkpt lat="47.6780386" lon="-1.9942721">
        <ele>4.033</ele>
        <time>2018-08-28T11:32:46.996Z</time>
      </trkpt>
      <trkpt lat="47.6781219" lon="-1.9941420">
        <ele>3.806</ele>
        <time>2018-08-28T11:32:50.055Z</time>
      </trkpt>
      <trkpt lat="47.6782012" lon="-1.9940056">
        <ele>3.696</ele>
        <time>2018-08-28T11:32:53.087Z</time>
      </trkpt>
      <trkpt lat="47.6782788" lon="-1.9938699">
        <ele>3.718</ele>
        <time>2018-08-28T11:32:56.057Z</time>
      </trkpt>
      <trkpt lat="47.6783556" lon="-1.9937327">
        <ele>3.925</ele>
        <time>2018-08-28T11:32:59.022Z</time>
      </trkpt>
      <trkpt lat="47.6784343" lon="-1.9936054">
        <ele>4.301</ele>
        <time>2018-08-28T11:33:01.907Z</time>
      </trkpt>
      <trkpt lat="47.6785092" lon="-1.9934894">
        <ele>4.772</ele>
        <time>2018-08-28T11:33:04.646Z</time>
      </trkpt>
      <trkpt lat="47.6785847" lon="-1.9933783">
        <ele>5.658</ele>
        <time>2018-08-28T11:33:07.408Z</time>
      </trkpt>
      <trkpt lat="47.6786644" lon="-1.9932692">
        <ele>5.706</ele>
        <time>2018-08-28T11:33:10.298Z</time>
      </trkpt>
      <trkpt lat="47.6787481" lon="-1.9931593">
        <ele>5.476</ele>
        <time>2018-08-28T11:33:13.307Z</time>
      </trkpt>
      <trkpt lat="47.6788281" lon="-1.9930423">
        <ele>5.263</ele>
        <time>2018-08-28T11:33:16.331Z</time>
      </trkpt>
      <trkpt lat="47.6789052" lon="-1.9929352">
        <ele>5.220</ele>
        <time>2018-08-28T11:33:19.180Z</time>
      </trkpt>
      <trkpt lat="47.6789847" lon="-1.9928335">
        <ele>5.226</ele>
        <time>2018-08-28T11:33:22.034Z</time>
      </trkpt>
      <trkpt lat="47.6790625" lon="-1.9927339">
        <ele>5.201</ele>
        <time>2018-08-28T11:33:24.864Z</time>
      </trkpt>
      <trkpt lat="47.6791403" lon="-1.9926367">
        <ele>5.183</ele>
        <time>2018-08-28T11:33:27.709Z</time>
      </trkpt>
      <trkpt lat="47.6792149" lon="-1.9925357">
        <ele>5.307</ele>
        <time>2018-08-28T11:33:30.579Z</time>
      </trkpt>
      <trkpt lat="47.6792875" lon="-1.9924397">
        <ele>5.430</ele>
        <time>2018-08-28T11:33:33.391Z</time>
      </trkpt>
      <trkpt lat="47.6793596" lon="-1.9923459">
        <ele>5.689</ele>
        <time>2018-08-28T11:33:36.225Z</time>
      </trkpt>
      <trkpt lat="47.6794291" lon="-1.9922527">
        <ele>6.143</ele>
        <time>2018-08-28T11:33:39.045Z</time>
      </trkpt>
      <trkpt lat="47.6794992" lon="-1.9921649">
        <ele>6.630</ele>
        <time>2018-08-28T11:33:41.867Z</time>
      </trkpt>
      <trkpt lat="47.6795909" lon="-1.9920647">
        <ele>6.953</ele>
        <time>2018-08-28T11:33:45.489Z</time>
      </trkpt>
      <trkpt lat="47.6796762" lon="-1.9919602">
        <ele>7.139</ele>
        <time>2018-08-28T11:33:49.221Z</time>
      </trkpt>
      <trkpt lat="47.6797278" lon="-1.9918430">
        <ele>7.216</ele>
        <time>2018-08-28T11:33:52.571Z</time>
      </trkpt>
      <trkpt lat="47.6797796" lon="-1.9917194">
        <ele>7.440</ele>
        <time>2018-08-28T11:33:56.411Z</time>
      </trkpt>
      <trkpt lat="47.6798367" lon="-1.9915974">
        <ele>7.759</ele>
        <time>2018-08-28T11:34:00.523Z</time>
      </trkpt>
      <trkpt lat="47.6798977" lon="-1.9914581">
        <ele>8.073</ele>
        <time>2018-08-28T11:34:05.015Z</time>
      </trkpt>
      <trkpt lat="47.6799599" lon="-1.9913162">
        <ele>8.218</ele>
        <time>2018-08-28T11:34:09.307Z</time>
      </trkpt>
      <trkpt lat="47.6800251" lon="-1.9911463">
        <ele>8.033</ele>
        <time>2018-08-28T11:34:13.433Z</time>
      </trkpt>
      <trkpt lat="47.6801003" lon="-1.9909722">
        <ele>7.489</ele>
        <time>2018-08-28T11:34:17.000Z</time>
      </trkpt>
      <trkpt lat="47.6801003" lon="-1.9909722">
        <ele>6.771</ele>
        <time>2018-08-28T11:34:17.000Z</time>
      </trkpt>
      <trkpt lat="47.6801003" lon="-1.9909722">
        <ele>6.317</ele>
        <time>2018-08-28T11:34:17.100Z</time>
      </trkpt>
      <trkpt lat="47.6802026" lon="-1.9907327">
        <ele>6.339</ele>
        <time>2018-08-28T11:34:23.048Z</time>
      </trkpt>
      <trkpt lat="47.6802530" lon="-1.9906163">
        <ele>6.227</ele>
        <time>2018-08-28T11:34:25.090Z</time>
      </trkpt>
      <trkpt lat="47.6803300" lon="-1.9904575">
        <ele>5.497</ele>
        <time>2018-08-28T11:34:28.118Z</time>
      </trkpt>
      <trkpt lat="47.6803981" lon="-1.9903044">
        <ele>4.622</ele>
        <time>2018-08-28T11:34:31.169Z</time>
      </trkpt>
      <trkpt lat="47.6804583" lon="-1.9901604">
        <ele>4.147</ele>
        <time>2018-08-28T11:34:34.229Z</time>
      </trkpt>
      <trkpt lat="47.6805108" lon="-1.9900254">
        <ele>3.987</ele>
        <time>2018-08-28T11:34:37.282Z</time>
      </trkpt>
      <trkpt lat="47.6805514" lon="-1.9898942">
        <ele>3.916</ele>
        <time>2018-08-28T11:34:40.281Z</time>
      </trkpt>
      <trkpt lat="47.6805782" lon="-1.9897602">
        <ele>3.835</ele>
        <time>2018-08-28T11:34:43.241Z</time>
      </trkpt>
      <trkpt lat="47.6805958" lon="-1.9896161">
        <ele>3.755</ele>
        <time>2018-08-28T11:34:46.349Z</time>
      </trkpt>
      <trkpt lat="47.6806109" lon="-1.9894806">
        <ele>3.651</ele>
        <time>2018-08-28T11:34:49.403Z</time>
      </trkpt>
      <trkpt lat="47.6806167" lon="-1.9893195">
        <ele>3.505</ele>
        <time>2018-08-28T11:34:53.072Z</time>
      </trkpt>
      <trkpt lat="47.6806162" lon="-1.9891798">
        <ele>3.317</ele>
        <time>2018-08-28T11:34:56.176Z</time>
      </trkpt>
      <trkpt lat="47.6806200" lon="-1.9890410">
        <ele>3.063</ele>
        <time>2018-08-28T11:34:59.174Z</time>
      </trkpt>
      <trkpt lat="47.6806308" lon="-1.9888986">
        <ele>2.742</ele>
        <time>2018-08-28T11:35:02.193Z</time>
      </trkpt>
      <trkpt lat="47.6806371" lon="-1.9887497">
        <ele>2.337</ele>
        <time>2018-08-28T11:35:05.207Z</time>
      </trkpt>
      <trkpt lat="47.6806426" lon="-1.9885968">
        <ele>1.856</ele>
        <time>2018-08-28T11:35:08.210Z</time>
      </trkpt>
      <trkpt lat="47.6806383" lon="-1.9884455">
        <ele>1.434</ele>
        <time>2018-08-28T11:35:11.273Z</time>
      </trkpt>
      <trkpt lat="47.6806474" lon="-1.9883070">
        <ele>1.169</ele>
        <time>2018-08-28T11:35:14.261Z</time>
      </trkpt>
      <trkpt lat="47.6806560" lon="-1.9881689">
        <ele>1.043</ele>
        <time>2018-08-28T11:35:17.274Z</time>
      </trkpt>
      <trkpt lat="47.6806615" lon="-1.9880232">
        <ele>1.239</ele>
        <time>2018-08-28T11:35:20.370Z</time>
      </trkpt>
      <trkpt lat="47.6806634" lon="-1.9878747">
        <ele>1.901</ele>
        <time>2018-08-28T11:35:23.447Z</time>
      </trkpt>
      <trkpt lat="47.6806640" lon="-1.9877254">
        <ele>2.671</ele>
        <time>2018-08-28T11:35:26.461Z</time>
      </trkpt>
      <trkpt lat="47.6806589" lon="-1.9875719">
        <ele>3.139</ele>
        <time>2018-08-28T11:35:29.540Z</time>
      </trkpt>
      <trkpt lat="47.6806582" lon="-1.9874280">
        <ele>3.313</ele>
        <time>2018-08-28T11:35:32.445Z</time>
      </trkpt>
      <trkpt lat="47.6806631" lon="-1.9872839">
        <ele>3.206</ele>
        <time>2018-08-28T11:35:35.360Z</time>
      </trkpt>
      <trkpt lat="47.6806651" lon="-1.9871333">
        <ele>2.802</ele>
        <time>2018-08-28T11:35:38.368Z</time>
      </trkpt>
      <trkpt lat="47.6806736" lon="-1.9869818">
        <ele>2.319</ele>
        <time>2018-08-28T11:35:41.349Z</time>
      </trkpt>
      <trkpt lat="47.6806803" lon="-1.9868224">
        <ele>1.972</ele>
        <time>2018-08-28T11:35:44.394Z</time>
      </trkpt>
      <trkpt lat="47.6806861" lon="-1.9866562">
        <ele>1.755</ele>
        <time>2018-08-28T11:35:47.473Z</time>
      </trkpt>
      <trkpt lat="47.6806970" lon="-1.9864903">
        <ele>1.618</ele>
        <time>2018-08-28T11:35:50.481Z</time>
      </trkpt>
      <trkpt lat="47.6807047" lon="-1.9863212">
        <ele>1.425</ele>
        <time>2018-08-28T11:35:53.459Z</time>
      </trkpt>
      <trkpt lat="47.6807051" lon="-1.9861412">
        <ele>1.084</ele>
        <time>2018-08-28T11:35:56.574Z</time>
      </trkpt>
      <trkpt lat="47.6807172" lon="-1.9859725">
        <ele>0.765</ele>
        <time>2018-08-28T11:35:59.502Z</time>
      </trkpt>
      <trkpt lat="47.6807309" lon="-1.9858006">
        <ele>0.633</ele>
        <time>2018-08-28T11:36:02.501Z</time>
      </trkpt>
      <trkpt lat="47.6807472" lon="-1.9856370">
        <ele>0.628</ele>
        <time>2018-08-28T11:36:05.400Z</time>
      </trkpt>
      <trkpt lat="47.6807579" lon="-1.9854750">
        <ele>0.659</ele>
        <time>2018-08-28T11:36:08.276Z</time>
      </trkpt>
      <trkpt lat="47.6807703" lon="-1.9853064">
        <ele>0.695</ele>
        <time>2018-08-28T11:36:11.265Z</time>
      </trkpt>
      <trkpt lat="47.6807785" lon="-1.9851326">
        <ele>0.752</ele>
        <time>2018-08-28T11:36:14.290Z</time>
      </trkpt>
      <trkpt lat="47.6807835" lon="-1.9849514">
        <ele>0.838</ele>
        <time>2018-08-28T11:36:17.408Z</time>
      </trkpt>
      <trkpt lat="47.6807982" lon="-1.9847883">
        <ele>1.125</ele>
        <time>2018-08-28T11:36:20.243Z</time>
      </trkpt>
      <trkpt lat="47.6808055" lon="-1.9846125">
        <ele>1.694</ele>
        <time>2018-08-28T11:36:23.267Z</time>
      </trkpt>
      <trkpt lat="47.6808024" lon="-1.9844309">
        <ele>2.243</ele>
        <time>2018-08-28T11:36:26.356Z</time>
      </trkpt>
      <trkpt lat="47.6808027" lon="-1.9842546">
        <ele>2.501</ele>
        <time>2018-08-28T11:36:29.352Z</time>
      </trkpt>
      <trkpt lat="47.6808120" lon="-1.9840916">
        <ele>2.543</ele>
        <time>2018-08-28T11:36:32.169Z</time>
      </trkpt>
      <trkpt lat="47.6808183" lon="-1.9839234">
        <ele>2.496</ele>
        <time>2018-08-28T11:36:35.089Z</time>
      </trkpt>
      <trkpt lat="47.6808232" lon="-1.9837482">
        <ele>2.442</ele>
        <time>2018-08-28T11:36:38.111Z</time>
      </trkpt>
      <trkpt lat="47.6808326" lon="-1.9835703">
        <ele>2.475</ele>
        <time>2018-08-28T11:36:41.155Z</time>
      </trkpt>
      <trkpt lat="47.6808416" lon="-1.9833934">
        <ele>2.650</ele>
        <time>2018-08-28T11:36:44.153Z</time>
      </trkpt>
      <trkpt lat="47.6808459" lon="-1.9832098">
        <ele>2.944</ele>
        <time>2018-08-28T11:36:47.243Z</time>
      </trkpt>
      <trkpt lat="47.6808571" lon="-1.9830326">
        <ele>2.836</ele>
        <time>2018-08-28T11:36:50.200Z</time>
      </trkpt>
      <trkpt lat="47.6808539" lon="-1.9828975">
        <ele>2.646</ele>
        <time>2018-08-28T11:36:52.386Z</time>
      </trkpt>
      <trkpt lat="47.6808547" lon="-1.9826971">
        <ele>2.508</ele>
        <time>2018-08-28T11:36:55.552Z</time>
      </trkpt>
      <trkpt lat="47.6808543" lon="-1.9825633">
        <ele>2.500</ele>
        <time>2018-08-28T11:36:57.626Z</time>
      </trkpt>
      <trkpt lat="47.6808604" lon="-1.9823706">
        <ele>2.744</ele>
        <time>2018-08-28T11:37:00.585Z</time>
      </trkpt>
      <trkpt lat="47.6808664" lon="-1.9821750">
        <ele>3.248</ele>
        <time>2018-08-28T11:37:03.552Z</time>
      </trkpt>
      <trkpt lat="47.6808807" lon="-1.9819783">
        <ele>3.757</ele>
        <time>2018-08-28T11:37:06.543Z</time>
      </trkpt>
      <trkpt lat="47.6808994" lon="-1.9817874">
        <ele>4.085</ele>
        <time>2018-08-28T11:37:09.468Z</time>
      </trkpt>
      <trkpt lat="47.6809085" lon="-1.9816534">
        <ele>4.276</ele>
        <time>2018-08-28T11:37:11.520Z</time>
      </trkpt>
      <trkpt lat="47.6809311" lon="-1.9814656">
        <ele>4.436</ele>
        <time>2018-08-28T11:37:14.474Z</time>
      </trkpt>
      <trkpt lat="47.6809459" lon="-1.9812869">
        <ele>4.649</ele>
        <time>2018-08-28T11:37:17.336Z</time>
      </trkpt>
      <trkpt lat="47.6809622" lon="-1.9811190">
        <ele>5.001</ele>
        <time>2018-08-28T11:37:20.128Z</time>
      </trkpt>
      <trkpt lat="47.6809735" lon="-1.9809468">
        <ele>4.978</ele>
        <time>2018-08-28T11:37:23.091Z</time>
      </trkpt>
      <trkpt lat="47.6809843" lon="-1.9807937">
        <ele>4.812</ele>
        <time>2018-08-28T11:37:25.811Z</time>
      </trkpt>
      <trkpt lat="47.6809996" lon="-1.9806198">
        <ele>4.512</ele>
        <time>2018-08-28T11:37:28.875Z</time>
      </trkpt>
      <trkpt lat="47.6810197" lon="-1.9804266">
        <ele>4.140</ele>
        <time>2018-08-28T11:37:32.131Z</time>
      </trkpt>
      <trkpt lat="47.6810337" lon="-1.9802395">
        <ele>3.854</ele>
        <time>2018-08-28T11:37:35.151Z</time>
      </trkpt>
      <trkpt lat="47.6810317" lon="-1.9800572">
        <ele>3.739</ele>
        <time>2018-08-28T11:37:38.047Z</time>
      </trkpt>
      <trkpt lat="47.6810110" lon="-1.9798738">
        <ele>3.720</ele>
        <time>2018-08-28T11:37:41.032Z</time>
      </trkpt>
      <trkpt lat="47.6809651" lon="-1.9796995">
        <ele>3.763</ele>
        <time>2018-08-28T11:37:44.108Z</time>
      </trkpt>
      <trkpt lat="47.6809134" lon="-1.9795444">
        <ele>3.927</ele>
        <time>2018-08-28T11:37:47.037Z</time>
      </trkpt>
      <trkpt lat="47.6808543" lon="-1.9794021">
        <ele>4.202</ele>
        <time>2018-08-28T11:37:49.967Z</time>
      </trkpt>
      <trkpt lat="47.6807941" lon="-1.9792750">
        <ele>4.520</ele>
        <time>2018-08-28T11:37:52.820Z</time>
      </trkpt>
      <trkpt lat="47.6807260" lon="-1.9791811">
        <ele>4.827</ele>
        <time>2018-08-28T11:37:55.528Z</time>
      </trkpt>
      <trkpt lat="47.6806473" lon="-1.9790881">
        <ele>5.033</ele>
        <time>2018-08-28T11:37:58.640Z</time>
      </trkpt>
      <trkpt lat="47.6805643" lon="-1.9790098">
        <ele>5.083</ele>
        <time>2018-08-28T11:38:01.985Z</time>
      </trkpt>
      <trkpt lat="47.6804739" lon="-1.9789398">
        <ele>5.062</ele>
        <time>2018-08-28T11:38:05.837Z</time>
      </trkpt>
      <trkpt lat="47.6803893" lon="-1.9788740">
        <ele>5.176</ele>
        <time>2018-08-28T11:38:09.617Z</time>
      </trkpt>
      <trkpt lat="47.6802782" lon="-1.9788033">
        <ele>5.513</ele>
        <time>2018-08-28T11:38:14.338Z</time>
      </trkpt>
      <trkpt lat="47.6801982" lon="-1.9787284">
        <ele>5.788</ele>
        <time>2018-08-28T11:38:17.773Z</time>
      </trkpt>
      <trkpt lat="47.6801189" lon="-1.9786329">
        <ele>5.707</ele>
        <time>2018-08-28T11:38:21.174Z</time>
      </trkpt>
      <trkpt lat="47.6800515" lon="-1.9785322">
        <ele>5.807</ele>
        <time>2018-08-28T11:38:24.194Z</time>
      </trkpt>
      <trkpt lat="47.6799827" lon="-1.9784293">
        <ele>6.035</ele>
        <time>2018-08-28T11:38:27.209Z</time>
      </trkpt>
      <trkpt lat="47.6799049" lon="-1.9783405">
        <ele>6.218</ele>
        <time>2018-08-28T11:38:30.233Z</time>
      </trkpt>
      <trkpt lat="47.6798169" lon="-1.9782274">
        <ele>6.267</ele>
        <time>2018-08-28T11:38:33.882Z</time>
      </trkpt>
      <trkpt lat="47.6797217" lon="-1.9781326">
        <ele>6.197</ele>
        <time>2018-08-28T11:38:37.608Z</time>
      </trkpt>
      <trkpt lat="47.6796350" lon="-1.9780077">
        <ele>6.084</ele>
        <time>2018-08-28T11:38:41.675Z</time>
      </trkpt>
      <trkpt lat="47.6795693" lon="-1.9779054">
        <ele>5.978</ele>
        <time>2018-08-28T11:38:44.913Z</time>
      </trkpt>
      <trkpt lat="47.6794940" lon="-1.9777784">
        <ele>5.888</ele>
        <time>2018-08-28T11:38:48.802Z</time>
      </trkpt>
      <trkpt lat="47.6794220" lon="-1.9776550">
        <ele>6.017</ele>
        <time>2018-08-28T11:38:52.610Z</time>
      </trkpt>
      <trkpt lat="47.6793479" lon="-1.9775267">
        <ele>6.493</ele>
        <time>2018-08-28T11:38:56.591Z</time>
      </trkpt>
      <trkpt lat="47.6792785" lon="-1.9773924">
        <ele>7.030</ele>
        <time>2018-08-28T11:39:00.596Z</time>
      </trkpt>
      <trkpt lat="47.6792188" lon="-1.9772714">
        <ele>7.176</ele>
        <time>2018-08-28T11:39:04.237Z</time>
      </trkpt>
      <trkpt lat="47.6791646" lon="-1.9771607">
        <ele>6.804</ele>
        <time>2018-08-28T11:39:07.844Z</time>
      </trkpt>
      <trkpt lat="47.6790901" lon="-1.9770626">
        <ele>6.367</ele>
        <time>2018-08-28T11:39:12.208Z</time>
      </trkpt>
      <trkpt lat="47.6790236" lon="-1.9769573">
        <ele>5.894</ele>
        <time>2018-08-28T11:39:16.852Z</time>
      </trkpt>
      <trkpt lat="47.6789503" lon="-1.9768483">
        <ele>5.356</ele>
        <time>2018-08-28T11:39:21.609Z</time>
      </trkpt>
      <trkpt lat="47.6788758" lon="-1.9767298">
        <ele>4.951</ele>
        <time>2018-08-28T11:39:26.033Z</time>
      </trkpt>
      <trkpt lat="47.6788268" lon="-1.9765932">
        <ele>4.828</ele>
        <time>2018-08-28T11:39:30.043Z</time>
      </trkpt>
      <trkpt lat="47.6788916" lon="-1.9764739">
        <ele>4.908</ele>
        <time>2018-08-28T11:39:34.303Z</time>
      </trkpt>
      <trkpt lat="47.6789464" lon="-1.9763410">
        <ele>5.122</ele>
        <time>2018-08-28T11:39:39.003Z</time>
      </trkpt>
      <trkpt lat="47.6788881" lon="-1.9762176">
        <ele>5.386</ele>
        <time>2018-08-28T11:39:44.000Z</time>
      </trkpt>
      <trkpt lat="47.6788881" lon="-1.9762176">
        <ele>5.540</ele>
        <time>2018-08-28T11:39:53.000Z</time>
      </trkpt>
      <trkpt lat="47.6788881" lon="-1.9762176">
        <ele>5.527</ele>
        <time>2018-08-28T11:40:04.000Z</time>
      </trkpt>
      <trkpt lat="47.6789226" lon="-1.9762256">
        <ele>0.000</ele>
        <time>2018-08-28T12:24:24.999Z</time>
      </trkpt>
      <trkpt lat="47.6789226" lon="-1.9762256">
        <ele>0.000</ele>
        <time>2018-08-28T12:24:30.000Z</time>
      </trkpt>
      <trkpt lat="47.6789226" lon="-1.9762256">
        <ele>0.000</ele>
        <time>2018-08-28T12:24:31.559Z</time>
      </trkpt>
      <trkpt lat="47.6787861" lon="-1.9760448">
        <ele>0.000</ele>
        <time>2018-08-28T12:25:00.978Z</time>
      </trkpt>
      <trkpt lat="47.6787278" lon="-1.9759299">
        <ele>0.000</ele>
        <time>2018-08-28T12:25:13.215Z</time>
      </trkpt>
      <trkpt lat="47.6786553" lon="-1.9758141">
        <ele>0.000</ele>
        <time>2018-08-28T12:25:24.133Z</time>
      </trkpt>
      <trkpt lat="47.6785563" lon="-1.9757719">
        <ele>0.000</ele>
        <time>2018-08-28T12:25:30.241Z</time>
      </trkpt>
      <trkpt lat="47.6784649" lon="-1.9757723">
        <ele>0.000</ele>
        <time>2018-08-28T12:25:35.736Z</time>
      </trkpt>
      <trkpt lat="47.6783701" lon="-1.9757738">
        <ele>0.000</ele>
        <time>2018-08-28T12:25:43.041Z</time>
      </trkpt>
      <trkpt lat="47.6783969" lon="-1.9756423">
        <ele>0.000</ele>
        <time>2018-08-28T12:25:51.726Z</time>
      </trkpt>
      <trkpt lat="47.6783717" lon="-1.9755103">
        <ele>0.000</ele>
        <time>2018-08-28T12:25:57.764Z</time>
      </trkpt>
      <trkpt lat="47.6782770" lon="-1.9754684">
        <ele>0.000</ele>
        <time>2018-08-28T12:26:02.194Z</time>
      </trkpt>
      <trkpt lat="47.6781735" lon="-1.9754267">
        <ele>0.000</ele>
        <time>2018-08-28T12:26:06.310Z</time>
      </trkpt>
      <trkpt lat="47.6780782" lon="-1.9753642">
        <ele>0.000</ele>
        <time>2018-08-28T12:26:10.086Z</time>
      </trkpt>
      <trkpt lat="47.6779874" lon="-1.9752730">
        <ele>0.000</ele>
        <time>2018-08-28T12:26:13.885Z</time>
      </trkpt>
      <trkpt lat="47.6779184" lon="-1.9751833">
        <ele>0.000</ele>
        <time>2018-08-28T12:26:17.060Z</time>
      </trkpt>
      <trkpt lat="47.6778528" lon="-1.9750558">
        <ele>0.000</ele>
        <time>2018-08-28T12:26:20.808Z</time>
      </trkpt>
      <trkpt lat="47.6777796" lon="-1.9749377">
        <ele>0.000</ele>
        <time>2018-08-28T12:26:24.522Z</time>
      </trkpt>
      <trkpt lat="47.6776983" lon="-1.9748185">
        <ele>0.000</ele>
        <time>2018-08-28T12:26:28.417Z</time>
      </trkpt>
      <trkpt lat="47.6776335" lon="-1.9747253">
        <ele>0.000</ele>
        <time>2018-08-28T12:26:31.520Z</time>
      </trkpt>
      <trkpt lat="47.6775544" lon="-1.9746046">
        <ele>0.000</ele>
        <time>2018-08-28T12:26:35.413Z</time>
      </trkpt>
      <trkpt lat="47.6774748" lon="-1.9744885">
        <ele>0.000</ele>
        <time>2018-08-28T12:26:39.163Z</time>
      </trkpt>
      <trkpt lat="47.6774105" lon="-1.9743939">
        <ele>0.000</ele>
        <time>2018-08-28T12:26:42.149Z</time>
      </trkpt>
      <trkpt lat="47.6773222" lon="-1.9742746">
        <ele>0.000</ele>
        <time>2018-08-28T12:26:45.977Z</time>
      </trkpt>
      <trkpt lat="47.6772527" lon="-1.9741810">
        <ele>0.000</ele>
        <time>2018-08-28T12:26:48.871Z</time>
      </trkpt>
      <trkpt lat="47.6771784" lon="-1.9740832">
        <ele>0.000</ele>
        <time>2018-08-28T12:26:51.887Z</time>
      </trkpt>
      <trkpt lat="47.6771086" lon="-1.9739815">
        <ele>0.000</ele>
        <time>2018-08-28T12:26:54.856Z</time>
      </trkpt>
      <trkpt lat="47.6770425" lon="-1.9738824">
        <ele>0.000</ele>
        <time>2018-08-28T12:26:57.715Z</time>
      </trkpt>
      <trkpt lat="47.6769724" lon="-1.9737867">
        <ele>0.000</ele>
        <time>2018-08-28T12:27:00.595Z</time>
      </trkpt>
      <trkpt lat="47.6769000" lon="-1.9736860">
        <ele>0.000</ele>
        <time>2018-08-28T12:27:03.593Z</time>
      </trkpt>
      <trkpt lat="47.6768275" lon="-1.9735810">
        <ele>0.000</ele>
        <time>2018-08-28T12:27:06.664Z</time>
      </trkpt>
      <trkpt lat="47.6767555" lon="-1.9734767">
        <ele>0.000</ele>
        <time>2018-08-28T12:27:09.695Z</time>
      </trkpt>
      <trkpt lat="47.6766873" lon="-1.9733782">
        <ele>0.000</ele>
        <time>2018-08-28T12:27:12.506Z</time>
      </trkpt>
      <trkpt lat="47.6766168" lon="-1.9732732">
        <ele>0.000</ele>
        <time>2018-08-28T12:27:15.406Z</time>
      </trkpt>
      <trkpt lat="47.6765454" lon="-1.9731662">
        <ele>0.000</ele>
        <time>2018-08-28T12:27:18.293Z</time>
      </trkpt>
      <trkpt lat="47.6764672" lon="-1.9730599">
        <ele>0.000</ele>
        <time>2018-08-28T12:27:21.270Z</time>
      </trkpt>
      <trkpt lat="47.6763902" lon="-1.9729511">
        <ele>0.000</ele>
        <time>2018-08-28T12:27:24.230Z</time>
      </trkpt>
      <trkpt lat="47.6763155" lon="-1.9728432">
        <ele>0.000</ele>
        <time>2018-08-28T12:27:27.101Z</time>
      </trkpt>
      <trkpt lat="47.6762373" lon="-1.9727345">
        <ele>0.000</ele>
        <time>2018-08-28T12:27:30.032Z</time>
      </trkpt>
      <trkpt lat="47.6761468" lon="-1.9726377">
        <ele>0.000</ele>
        <time>2018-08-28T12:27:33.074Z</time>
      </trkpt>
      <trkpt lat="47.6760727" lon="-1.9725223">
        <ele>0.000</ele>
        <time>2018-08-28T12:27:35.990Z</time>
      </trkpt>
      <trkpt lat="47.6759987" lon="-1.9724031">
        <ele>0.000</ele>
        <time>2018-08-28T12:27:38.944Z</time>
      </trkpt>
      <trkpt lat="47.6759225" lon="-1.9722917">
        <ele>0.000</ele>
        <time>2018-08-28T12:27:41.833Z</time>
      </trkpt>
      <trkpt lat="47.6758462" lon="-1.9721787">
        <ele>0.000</ele>
        <time>2018-08-28T12:27:44.752Z</time>
      </trkpt>
      <trkpt lat="47.6757754" lon="-1.9720700">
        <ele>0.000</ele>
        <time>2018-08-28T12:27:47.517Z</time>
      </trkpt>
      <trkpt lat="47.6757002" lon="-1.9719544">
        <ele>0.000</ele>
        <time>2018-08-28T12:27:50.436Z</time>
      </trkpt>
      <trkpt lat="47.6756137" lon="-1.9718436">
        <ele>0.000</ele>
        <time>2018-08-28T12:27:53.472Z</time>
      </trkpt>
      <trkpt lat="47.6755271" lon="-1.9717307">
        <ele>0.000</ele>
        <time>2018-08-28T12:27:56.480Z</time>
      </trkpt>
      <trkpt lat="47.6754373" lon="-1.9716188">
        <ele>0.000</ele>
        <time>2018-08-28T12:27:59.488Z</time>
      </trkpt>
      <trkpt lat="47.6753483" lon="-1.9715043">
        <ele>0.000</ele>
        <time>2018-08-28T12:28:02.493Z</time>
      </trkpt>
      <trkpt lat="47.6752668" lon="-1.9713886">
        <ele>0.000</ele>
        <time>2018-08-28T12:28:05.379Z</time>
      </trkpt>
      <trkpt lat="47.6751864" lon="-1.9712746">
        <ele>0.000</ele>
        <time>2018-08-28T12:28:08.239Z</time>
      </trkpt>
      <trkpt lat="47.6751065" lon="-1.9711589">
        <ele>0.000</ele>
        <time>2018-08-28T12:28:11.117Z</time>
      </trkpt>
      <trkpt lat="47.6750216" lon="-1.9710385">
        <ele>0.000</ele>
        <time>2018-08-28T12:28:14.138Z</time>
      </trkpt>
      <trkpt lat="47.6749389" lon="-1.9709185">
        <ele>0.000</ele>
        <time>2018-08-28T12:28:17.108Z</time>
      </trkpt>
      <trkpt lat="47.6748561" lon="-1.9707989">
        <ele>0.000</ele>
        <time>2018-08-28T12:28:20.102Z</time>
      </trkpt>
      <trkpt lat="47.6747866" lon="-1.9706794">
        <ele>0.000</ele>
        <time>2018-08-28T12:28:22.882Z</time>
      </trkpt>
      <trkpt lat="47.6747117" lon="-1.9705609">
        <ele>0.000</ele>
        <time>2018-08-28T12:28:25.740Z</time>
      </trkpt>
      <trkpt lat="47.6746345" lon="-1.9704366">
        <ele>0.000</ele>
        <time>2018-08-28T12:28:28.689Z</time>
      </trkpt>
      <trkpt lat="47.6745479" lon="-1.9703166">
        <ele>0.000</ele>
        <time>2018-08-28T12:28:31.732Z</time>
      </trkpt>
      <trkpt lat="47.6744667" lon="-1.9701966">
        <ele>0.000</ele>
        <time>2018-08-28T12:28:34.661Z</time>
      </trkpt>
      <trkpt lat="47.6743913" lon="-1.9700730">
        <ele>0.000</ele>
        <time>2018-08-28T12:28:37.513Z</time>
      </trkpt>
      <trkpt lat="47.6743090" lon="-1.9699466">
        <ele>0.000</ele>
        <time>2018-08-28T12:28:40.525Z</time>
      </trkpt>
      <trkpt lat="47.6742405" lon="-1.9698144">
        <ele>0.000</ele>
        <time>2018-08-28T12:28:43.395Z</time>
      </trkpt>
      <trkpt lat="47.6741614" lon="-1.9696872">
        <ele>0.000</ele>
        <time>2018-08-28T12:28:46.388Z</time>
      </trkpt>
      <trkpt lat="47.6740782" lon="-1.9695680">
        <ele>0.000</ele>
        <time>2018-08-28T12:28:49.358Z</time>
      </trkpt>
      <trkpt lat="47.6739925" lon="-1.9694468">
        <ele>0.000</ele>
        <time>2018-08-28T12:28:52.411Z</time>
      </trkpt>
      <trkpt lat="47.6739128" lon="-1.9693327">
        <ele>0.000</ele>
        <time>2018-08-28T12:28:55.308Z</time>
      </trkpt>
      <trkpt lat="47.6738323" lon="-1.9692284">
        <ele>0.000</ele>
        <time>2018-08-28T12:28:58.159Z</time>
      </trkpt>
      <trkpt lat="47.6737532" lon="-1.9691241">
        <ele>0.000</ele>
        <time>2018-08-28T12:29:00.971Z</time>
      </trkpt>
      <trkpt lat="47.6736620" lon="-1.9690077">
        <ele>0.000</ele>
        <time>2018-08-28T12:29:04.064Z</time>
      </trkpt>
      <trkpt lat="47.6735750" lon="-1.9688863">
        <ele>0.000</ele>
        <time>2018-08-28T12:29:07.039Z</time>
      </trkpt>
      <trkpt lat="47.6734801" lon="-1.9687651">
        <ele>0.000</ele>
        <time>2018-08-28T12:29:10.070Z</time>
      </trkpt>
      <trkpt lat="47.6733851" lon="-1.9686389">
        <ele>0.000</ele>
        <time>2018-08-28T12:29:13.103Z</time>
      </trkpt>
      <trkpt lat="47.6732924" lon="-1.9685147">
        <ele>0.000</ele>
        <time>2018-08-28T12:29:16.034Z</time>
      </trkpt>
      <trkpt lat="47.6731962" lon="-1.9683998">
        <ele>0.000</ele>
        <time>2018-08-28T12:29:18.931Z</time>
      </trkpt>
      <trkpt lat="47.6731009" lon="-1.9682857">
        <ele>0.000</ele>
        <time>2018-08-28T12:29:21.824Z</time>
      </trkpt>
      <trkpt lat="47.6730026" lon="-1.9681654">
        <ele>0.000</ele>
        <time>2018-08-28T12:29:24.849Z</time>
      </trkpt>
      <trkpt lat="47.6729051" lon="-1.9680550">
        <ele>0.000</ele>
        <time>2018-08-28T12:29:27.790Z</time>
      </trkpt>
      <trkpt lat="47.6728121" lon="-1.9679437">
        <ele>0.000</ele>
        <time>2018-08-28T12:29:30.693Z</time>
      </trkpt>
      <trkpt lat="47.6727241" lon="-1.9678316">
        <ele>0.000</ele>
        <time>2018-08-28T12:29:33.564Z</time>
      </trkpt>
      <trkpt lat="47.6726453" lon="-1.9677163">
        <ele>0.000</ele>
        <time>2018-08-28T12:29:36.373Z</time>
      </trkpt>
      <trkpt lat="47.6725733" lon="-1.9675934">
        <ele>0.000</ele>
        <time>2018-08-28T12:29:39.212Z</time>
      </trkpt>
      <trkpt lat="47.6724991" lon="-1.9674724">
        <ele>0.000</ele>
        <time>2018-08-28T12:29:42.085Z</time>
      </trkpt>
      <trkpt lat="47.6724229" lon="-1.9673458">
        <ele>0.000</ele>
        <time>2018-08-28T12:29:45.037Z</time>
      </trkpt>
      <trkpt lat="47.6723511" lon="-1.9672041">
        <ele>0.000</ele>
        <time>2018-08-28T12:29:48.061Z</time>
      </trkpt>
      <trkpt lat="47.6722889" lon="-1.9670556">
        <ele>0.000</ele>
        <time>2018-08-28T12:29:51.000Z</time>
      </trkpt>
      <trkpt lat="47.6722250" lon="-1.9669127">
        <ele>0.000</ele>
        <time>2018-08-28T12:29:53.891Z</time>
      </trkpt>
      <trkpt lat="47.6721705" lon="-1.9667692">
        <ele>0.000</ele>
        <time>2018-08-28T12:29:56.728Z</time>
      </trkpt>
      <trkpt lat="47.6721200" lon="-1.9666288">
        <ele>0.000</ele>
        <time>2018-08-28T12:29:59.538Z</time>
      </trkpt>
      <trkpt lat="47.6720631" lon="-1.9664870">
        <ele>0.000</ele>
        <time>2018-08-28T12:30:02.493Z</time>
      </trkpt>
      <trkpt lat="47.6720018" lon="-1.9663486">
        <ele>0.000</ele>
        <time>2018-08-28T12:30:05.460Z</time>
      </trkpt>
      <trkpt lat="47.6719429" lon="-1.9662037">
        <ele>0.000</ele>
        <time>2018-08-28T12:30:08.470Z</time>
      </trkpt>
      <trkpt lat="47.6718890" lon="-1.9660559">
        <ele>0.000</ele>
        <time>2018-08-28T12:30:11.435Z</time>
      </trkpt>
      <trkpt lat="47.6718340" lon="-1.9659053">
        <ele>0.000</ele>
        <time>2018-08-28T12:30:14.435Z</time>
      </trkpt>
      <trkpt lat="47.6717822" lon="-1.9657541">
        <ele>0.000</ele>
        <time>2018-08-28T12:30:17.392Z</time>
      </trkpt>
      <trkpt lat="47.6717362" lon="-1.9656045">
        <ele>0.000</ele>
        <time>2018-08-28T12:30:20.274Z</time>
      </trkpt>
      <trkpt lat="47.6716941" lon="-1.9654544">
        <ele>0.000</ele>
        <time>2018-08-28T12:30:23.144Z</time>
      </trkpt>
      <trkpt lat="47.6716476" lon="-1.9652991">
        <ele>0.000</ele>
        <time>2018-08-28T12:30:26.135Z</time>
      </trkpt>
      <trkpt lat="47.6716105" lon="-1.9651356">
        <ele>0.000</ele>
        <time>2018-08-28T12:30:29.140Z</time>
      </trkpt>
      <trkpt lat="47.6715788" lon="-1.9649715">
        <ele>0.000</ele>
        <time>2018-08-28T12:30:32.093Z</time>
      </trkpt>
      <trkpt lat="47.6715547" lon="-1.9648054">
        <ele>0.000</ele>
        <time>2018-08-28T12:30:35.034Z</time>
      </trkpt>
      <trkpt lat="47.6715357" lon="-1.9646381">
        <ele>0.000</ele>
        <time>2018-08-28T12:30:37.977Z</time>
      </trkpt>
      <trkpt lat="47.6715184" lon="-1.9644681">
        <ele>0.000</ele>
        <time>2018-08-28T12:30:40.944Z</time>
      </trkpt>
      <trkpt lat="47.6715107" lon="-1.9642962">
        <ele>0.000</ele>
        <time>2018-08-28T12:30:43.890Z</time>
      </trkpt>
      <trkpt lat="47.6715056" lon="-1.9641244">
        <ele>0.000</ele>
        <time>2018-08-28T12:30:46.820Z</time>
      </trkpt>
      <trkpt lat="47.6715054" lon="-1.9639600">
        <ele>0.000</ele>
        <time>2018-08-28T12:30:49.627Z</time>
      </trkpt>
      <trkpt lat="47.6715044" lon="-1.9637908">
        <ele>0.000</ele>
        <time>2018-08-28T12:30:52.534Z</time>
      </trkpt>
      <trkpt lat="47.6715034" lon="-1.9636175">
        <ele>0.000</ele>
        <time>2018-08-28T12:30:55.520Z</time>
      </trkpt>
      <trkpt lat="47.6715007" lon="-1.9634449">
        <ele>0.000</ele>
        <time>2018-08-28T12:30:58.495Z</time>
      </trkpt>
      <trkpt lat="47.6715012" lon="-1.9632799">
        <ele>0.000</ele>
        <time>2018-08-28T12:31:01.363Z</time>
      </trkpt>
      <trkpt lat="47.6715083" lon="-1.9631322">
        <ele>0.000</ele>
        <time>2018-08-28T12:31:04.000Z</time>
      </trkpt>
      <trkpt lat="47.6715083" lon="-1.9631322">
        <ele>0.000</ele>
        <time>2018-08-28T12:31:07.000Z</time>
      </trkpt>
      <trkpt lat="47.6715083" lon="-1.9631322">
        <ele>0.000</ele>
        <time>2018-08-28T12:31:07.100Z</time>
      </trkpt>
      <trkpt lat="47.6715112" lon="-1.9628002">
        <ele>0.000</ele>
        <time>2018-08-28T12:31:17.848Z</time>
      </trkpt>
      <trkpt lat="47.6715081" lon="-1.9626557">
        <ele>0.000</ele>
        <time>2018-08-28T12:31:21.733Z</time>
      </trkpt>
      <trkpt lat="47.6714742" lon="-1.9625184">
        <ele>0.000</ele>
        <time>2018-08-28T12:31:25.510Z</time>
      </trkpt>
      <trkpt lat="47.6714349" lon="-1.9623753">
        <ele>0.000</ele>
        <time>2018-08-28T12:31:29.255Z</time>
      </trkpt>
      <trkpt lat="47.6714138" lon="-1.9622102">
        <ele>0.000</ele>
        <time>2018-08-28T12:31:33.036Z</time>
      </trkpt>
      <trkpt lat="47.6714020" lon="-1.9620734">
        <ele>0.000</ele>
        <time>2018-08-28T12:31:35.925Z</time>
      </trkpt>
      <trkpt lat="47.6713901" lon="-1.9619242">
        <ele>0.000</ele>
        <time>2018-08-28T12:31:38.909Z</time>
      </trkpt>
      <trkpt lat="47.6713816" lon="-1.9617668">
        <ele>0.000</ele>
        <time>2018-08-28T12:31:41.923Z</time>
      </trkpt>
      <trkpt lat="47.6713738" lon="-1.9616083">
        <ele>0.000</ele>
        <time>2018-08-28T12:31:44.872Z</time>
      </trkpt>
      <trkpt lat="47.6713653" lon="-1.9614448">
        <ele>0.000</ele>
        <time>2018-08-28T12:31:47.858Z</time>
      </trkpt>
      <trkpt lat="47.6713585" lon="-1.9612795">
        <ele>0.000</ele>
        <time>2018-08-28T12:31:50.846Z</time>
      </trkpt>
      <trkpt lat="47.6713492" lon="-1.9611135">
        <ele>0.000</ele>
        <time>2018-08-28T12:31:53.833Z</time>
      </trkpt>
      <trkpt lat="47.6713440" lon="-1.9609459">
        <ele>0.195</ele>
        <time>2018-08-28T12:31:56.824Z</time>
      </trkpt>
      <trkpt lat="47.6713436" lon="-1.9607761">
        <ele>0.428</ele>
        <time>2018-08-28T12:31:59.858Z</time>
      </trkpt>
      <trkpt lat="47.6713484" lon="-1.9606107">
        <ele>0.457</ele>
        <time>2018-08-28T12:32:02.864Z</time>
      </trkpt>
      <trkpt lat="47.6713589" lon="-1.9604531">
        <ele>0.275</ele>
        <time>2018-08-28T12:32:05.794Z</time>
      </trkpt>
      <trkpt lat="47.6713747" lon="-1.9603014">
        <ele>0.006</ele>
        <time>2018-08-28T12:32:08.656Z</time>
      </trkpt>
      <trkpt lat="47.6713928" lon="-1.9601416">
        <ele>0.000</ele>
        <time>2018-08-28T12:32:11.649Z</time>
      </trkpt>
      <trkpt lat="47.6714163" lon="-1.9599846">
        <ele>0.000</ele>
        <time>2018-08-28T12:32:14.568Z</time>
      </trkpt>
      <trkpt lat="47.6714404" lon="-1.9598180">
        <ele>0.000</ele>
        <time>2018-08-28T12:32:17.607Z</time>
      </trkpt>
      <trkpt lat="47.6714673" lon="-1.9596538">
        <ele>0.000</ele>
        <time>2018-08-28T12:32:20.565Z</time>
      </trkpt>
      <trkpt lat="47.6714862" lon="-1.9594824">
        <ele>0.000</ele>
        <time>2018-08-28T12:32:23.570Z</time>
      </trkpt>
      <trkpt lat="47.6714949" lon="-1.9593085">
        <ele>0.137</ele>
        <time>2018-08-28T12:32:26.592Z</time>
      </trkpt>
      <trkpt lat="47.6715075" lon="-1.9591467">
        <ele>0.161</ele>
        <time>2018-08-28T12:32:29.460Z</time>
      </trkpt>
      <trkpt lat="47.6715215" lon="-1.9589840">
        <ele>0.084</ele>
        <time>2018-08-28T12:32:32.409Z</time>
      </trkpt>
      <trkpt lat="47.6715269" lon="-1.9588251">
        <ele>0.031</ele>
        <time>2018-08-28T12:32:35.327Z</time>
      </trkpt>
      <trkpt lat="47.6715176" lon="-1.9586676">
        <ele>0.035</ele>
        <time>2018-08-28T12:32:38.256Z</time>
      </trkpt>
      <trkpt lat="47.6715067" lon="-1.9585089">
        <ele>0.125</ele>
        <time>2018-08-28T12:32:41.214Z</time>
      </trkpt>
      <trkpt lat="47.6715024" lon="-1.9583530">
        <ele>0.304</ele>
        <time>2018-08-28T12:32:44.071Z</time>
      </trkpt>
      <trkpt lat="47.6714975" lon="-1.9581868">
        <ele>0.636</ele>
        <time>2018-08-28T12:32:47.039Z</time>
      </trkpt>
      <trkpt lat="47.6714907" lon="-1.9580144">
        <ele>1.177</ele>
        <time>2018-08-28T12:32:50.038Z</time>
      </trkpt>
      <trkpt lat="47.6714897" lon="-1.9578377">
        <ele>1.731</ele>
        <time>2018-08-28T12:32:53.077Z</time>
      </trkpt>
      <trkpt lat="47.6714900" lon="-1.9576631">
        <ele>2.066</ele>
        <time>2018-08-28T12:32:56.091Z</time>
      </trkpt>
      <trkpt lat="47.6714967" lon="-1.9574946">
        <ele>2.285</ele>
        <time>2018-08-28T12:32:59.013Z</time>
      </trkpt>
      <trkpt lat="47.6715065" lon="-1.9573233">
        <ele>2.556</ele>
        <time>2018-08-28T12:33:01.983Z</time>
      </trkpt>
      <trkpt lat="47.6715134" lon="-1.9571538">
        <ele>2.937</ele>
        <time>2018-08-28T12:33:04.915Z</time>
      </trkpt>
      <trkpt lat="47.6715127" lon="-1.9569796">
        <ele>3.377</ele>
        <time>2018-08-28T12:33:07.934Z</time>
      </trkpt>
      <trkpt lat="47.6715247" lon="-1.9568140">
        <ele>3.726</ele>
        <time>2018-08-28T12:33:10.854Z</time>
      </trkpt>
      <trkpt lat="47.6715445" lon="-1.9566495">
        <ele>3.825</ele>
        <time>2018-08-28T12:33:13.838Z</time>
      </trkpt>
      <trkpt lat="47.6715614" lon="-1.9564922">
        <ele>3.612</ele>
        <time>2018-08-28T12:33:16.741Z</time>
      </trkpt>
      <trkpt lat="47.6715730" lon="-1.9563366">
        <ele>3.100</ele>
        <time>2018-08-28T12:33:19.578Z</time>
      </trkpt>
      <trkpt lat="47.6715907" lon="-1.9561660">
        <ele>2.377</ele>
        <time>2018-08-28T12:33:22.599Z</time>
      </trkpt>
      <trkpt lat="47.6716240" lon="-1.9559913">
        <ele>1.691</ele>
        <time>2018-08-28T12:33:25.669Z</time>
      </trkpt>
      <trkpt lat="47.6716603" lon="-1.9558162">
        <ele>1.401</ele>
        <time>2018-08-28T12:33:28.714Z</time>
      </trkpt>
      <trkpt lat="47.6716981" lon="-1.9556475">
        <ele>1.577</ele>
        <time>2018-08-28T12:33:31.691Z</time>
      </trkpt>
      <trkpt lat="47.6717316" lon="-1.9554857">
        <ele>1.859</ele>
        <time>2018-08-28T12:33:34.588Z</time>
      </trkpt>
      <trkpt lat="47.6717694" lon="-1.9553319">
        <ele>1.921</ele>
        <time>2018-08-28T12:33:37.430Z</time>
      </trkpt>
      <trkpt lat="47.6718086" lon="-1.9551731">
        <ele>1.797</ele>
        <time>2018-08-28T12:33:40.366Z</time>
      </trkpt>
      <trkpt lat="47.6718548" lon="-1.9550177">
        <ele>1.658</ele>
        <time>2018-08-28T12:33:43.313Z</time>
      </trkpt>
      <trkpt lat="47.6718998" lon="-1.9548599">
        <ele>1.590</ele>
        <time>2018-08-28T12:33:46.314Z</time>
      </trkpt>
      <trkpt lat="47.6719651" lon="-1.9547322">
        <ele>1.816</ele>
        <time>2018-08-28T12:33:49.159Z</time>
      </trkpt>
      <trkpt lat="47.6720360" lon="-1.9546006">
        <ele>2.563</ele>
        <time>2018-08-28T12:33:52.145Z</time>
      </trkpt>
      <trkpt lat="47.6721043" lon="-1.9544638">
        <ele>3.645</ele>
        <time>2018-08-28T12:33:55.134Z</time>
      </trkpt>
      <trkpt lat="47.6721756" lon="-1.9543312">
        <ele>4.632</ele>
        <time>2018-08-28T12:33:58.104Z</time>
      </trkpt>
      <trkpt lat="47.6722449" lon="-1.9541998">
        <ele>5.271</ele>
        <time>2018-08-28T12:34:01.028Z</time>
      </trkpt>
      <trkpt lat="47.6723123" lon="-1.9540651">
        <ele>5.679</ele>
        <time>2018-08-28T12:34:03.973Z</time>
      </trkpt>
      <trkpt lat="47.6723869" lon="-1.9539417">
        <ele>6.082</ele>
        <time>2018-08-28T12:34:06.910Z</time>
      </trkpt>
      <trkpt lat="47.6724606" lon="-1.9538157">
        <ele>6.386</ele>
        <time>2018-08-28T12:34:09.877Z</time>
      </trkpt>
      <trkpt lat="47.6725378" lon="-1.9536920">
        <ele>6.406</ele>
        <time>2018-08-28T12:34:12.879Z</time>
      </trkpt>
      <trkpt lat="47.6726212" lon="-1.9535812">
        <ele>6.216</ele>
        <time>2018-08-28T12:34:15.847Z</time>
      </trkpt>
      <trkpt lat="47.6727081" lon="-1.9534752">
        <ele>6.073</ele>
        <time>2018-08-28T12:34:18.831Z</time>
      </trkpt>
      <trkpt lat="47.6727981" lon="-1.9533776">
        <ele>6.190</ele>
        <time>2018-08-28T12:34:21.789Z</time>
      </trkpt>
      <trkpt lat="47.6728912" lon="-1.9532809">
        <ele>6.505</ele>
        <time>2018-08-28T12:34:24.807Z</time>
      </trkpt>
      <trkpt lat="47.6729858" lon="-1.9531959">
        <ele>6.780</ele>
        <time>2018-08-28T12:34:27.744Z</time>
      </trkpt>
      <trkpt lat="47.6730816" lon="-1.9531155">
        <ele>6.754</ele>
        <time>2018-08-28T12:34:30.684Z</time>
      </trkpt>
      <trkpt lat="47.6731728" lon="-1.9530350">
        <ele>6.298</ele>
        <time>2018-08-28T12:34:33.544Z</time>
      </trkpt>
      <trkpt lat="47.6732623" lon="-1.9529493">
        <ele>5.629</ele>
        <time>2018-08-28T12:34:36.447Z</time>
      </trkpt>
      <trkpt lat="47.6733518" lon="-1.9528627">
        <ele>5.143</ele>
        <time>2018-08-28T12:34:39.383Z</time>
      </trkpt>
      <trkpt lat="47.6734420" lon="-1.9527741">
        <ele>4.934</ele>
        <time>2018-08-28T12:34:42.354Z</time>
      </trkpt>
      <trkpt lat="47.6735319" lon="-1.9526806">
        <ele>4.847</ele>
        <time>2018-08-28T12:34:45.352Z</time>
      </trkpt>
      <trkpt lat="47.6736251" lon="-1.9525912">
        <ele>4.696</ele>
        <time>2018-08-28T12:34:48.361Z</time>
      </trkpt>
      <trkpt lat="47.6737162" lon="-1.9525032">
        <ele>4.418</ele>
        <time>2018-08-28T12:34:51.306Z</time>
      </trkpt>
      <trkpt lat="47.6738035" lon="-1.9524100">
        <ele>4.170</ele>
        <time>2018-08-28T12:34:54.236Z</time>
      </trkpt>
      <trkpt lat="47.6738897" lon="-1.9523157">
        <ele>4.265</ele>
        <time>2018-08-28T12:34:57.172Z</time>
      </trkpt>
      <trkpt lat="47.6739784" lon="-1.9522242">
        <ele>4.729</ele>
        <time>2018-08-28T12:35:00.126Z</time>
      </trkpt>
      <trkpt lat="47.6740701" lon="-1.9521394">
        <ele>5.175</ele>
        <time>2018-08-28T12:35:03.066Z</time>
      </trkpt>
      <trkpt lat="47.6741634" lon="-1.9520532">
        <ele>5.288</ele>
        <time>2018-08-28T12:35:06.039Z</time>
      </trkpt>
      <trkpt lat="47.6742545" lon="-1.9519659">
        <ele>5.140</ele>
        <time>2018-08-28T12:35:08.966Z</time>
      </trkpt>
      <trkpt lat="47.6743437" lon="-1.9518678">
        <ele>4.839</ele>
        <time>2018-08-28T12:35:11.945Z</time>
      </trkpt>
      <trkpt lat="47.6744373" lon="-1.9517750">
        <ele>4.361</ele>
        <time>2018-08-28T12:35:14.955Z</time>
      </trkpt>
      <trkpt lat="47.6745318" lon="-1.9516890">
        <ele>3.773</ele>
        <time>2018-08-28T12:35:17.924Z</time>
      </trkpt>
      <trkpt lat="47.6746256" lon="-1.9516064">
        <ele>3.198</ele>
        <time>2018-08-28T12:35:20.868Z</time>
      </trkpt>
      <trkpt lat="47.6747182" lon="-1.9515244">
        <ele>2.688</ele>
        <time>2018-08-28T12:35:23.796Z</time>
      </trkpt>
      <trkpt lat="47.6748108" lon="-1.9514408">
        <ele>2.342</ele>
        <time>2018-08-28T12:35:26.744Z</time>
      </trkpt>
      <trkpt lat="47.6749013" lon="-1.9513486">
        <ele>2.189</ele>
        <time>2018-08-28T12:35:29.710Z</time>
      </trkpt>
      <trkpt lat="47.6749965" lon="-1.9512616">
        <ele>2.096</ele>
        <time>2018-08-28T12:35:32.713Z</time>
      </trkpt>
      <trkpt lat="47.6750860" lon="-1.9511688">
        <ele>1.987</ele>
        <time>2018-08-28T12:35:35.642Z</time>
      </trkpt>
      <trkpt lat="47.6751776" lon="-1.9510761">
        <ele>1.848</ele>
        <time>2018-08-28T12:35:38.618Z</time>
      </trkpt>
      <trkpt lat="47.6752639" lon="-1.9509727">
        <ele>1.695</ele>
        <time>2018-08-28T12:35:41.586Z</time>
      </trkpt>
      <trkpt lat="47.6753573" lon="-1.9508766">
        <ele>1.529</ele>
        <time>2018-08-28T12:35:44.614Z</time>
      </trkpt>
      <trkpt lat="47.6754481" lon="-1.9507830">
        <ele>1.273</ele>
        <time>2018-08-28T12:35:47.555Z</time>
      </trkpt>
      <trkpt lat="47.6755379" lon="-1.9506845">
        <ele>0.959</ele>
        <time>2018-08-28T12:35:50.522Z</time>
      </trkpt>
      <trkpt lat="47.6756295" lon="-1.9505858">
        <ele>0.672</ele>
        <time>2018-08-28T12:35:53.519Z</time>
      </trkpt>
      <trkpt lat="47.6757255" lon="-1.9504986">
        <ele>0.374</ele>
        <time>2018-08-28T12:35:56.497Z</time>
      </trkpt>
      <trkpt lat="47.6758200" lon="-1.9504099">
        <ele>0.069</ele>
        <time>2018-08-28T12:35:59.464Z</time>
      </trkpt>
      <trkpt lat="47.6759144" lon="-1.9503239">
        <ele>0.000</ele>
        <time>2018-08-28T12:36:02.428Z</time>
      </trkpt>
      <trkpt lat="47.6760056" lon="-1.9502403">
        <ele>0.000</ele>
        <time>2018-08-28T12:36:05.330Z</time>
      </trkpt>
      <trkpt lat="47.6760896" lon="-1.9501532">
        <ele>0.000</ele>
        <time>2018-08-28T12:36:08.151Z</time>
      </trkpt>
      <trkpt lat="47.6761730" lon="-1.9500689">
        <ele>0.000</ele>
        <time>2018-08-28T12:36:10.988Z</time>
      </trkpt>
      <trkpt lat="47.6762540" lon="-1.9499755">
        <ele>0.000</ele>
        <time>2018-08-28T12:36:13.912Z</time>
      </trkpt>
      <trkpt lat="47.6763378" lon="-1.9498858">
        <ele>0.000</ele>
        <time>2018-08-28T12:36:16.866Z</time>
      </trkpt>
      <trkpt lat="47.6764257" lon="-1.9497951">
        <ele>0.000</ele>
        <time>2018-08-28T12:36:19.901Z</time>
      </trkpt>
      <trkpt lat="47.6765120" lon="-1.9496985">
        <ele>0.000</ele>
        <time>2018-08-28T12:36:22.929Z</time>
      </trkpt>
      <trkpt lat="47.6766029" lon="-1.9496092">
        <ele>0.000</ele>
        <time>2018-08-28T12:36:25.956Z</time>
      </trkpt>
      <trkpt lat="47.6766915" lon="-1.9495145">
        <ele>0.116</ele>
        <time>2018-08-28T12:36:28.965Z</time>
      </trkpt>
      <trkpt lat="47.6767806" lon="-1.9494189">
        <ele>0.486</ele>
        <time>2018-08-28T12:36:31.979Z</time>
      </trkpt>
      <trkpt lat="47.6768708" lon="-1.9493275">
        <ele>0.782</ele>
        <time>2018-08-28T12:36:34.960Z</time>
      </trkpt>
      <trkpt lat="47.6769619" lon="-1.9492392">
        <ele>0.977</ele>
        <time>2018-08-28T12:36:37.927Z</time>
      </trkpt>
      <trkpt lat="47.6770519" lon="-1.9491432">
        <ele>1.105</ele>
        <time>2018-08-28T12:36:40.938Z</time>
      </trkpt>
      <trkpt lat="47.6771452" lon="-1.9490390">
        <ele>1.130</ele>
        <time>2018-08-28T12:36:44.085Z</time>
      </trkpt>
      <trkpt lat="47.6772386" lon="-1.9489454">
        <ele>0.935</ele>
        <time>2018-08-28T12:36:47.101Z</time>
      </trkpt>
      <trkpt lat="47.6773317" lon="-1.9488553">
        <ele>0.554</ele>
        <time>2018-08-28T12:36:50.074Z</time>
      </trkpt>
      <trkpt lat="47.6774211" lon="-1.9487705">
        <ele>0.153</ele>
        <time>2018-08-28T12:36:52.924Z</time>
      </trkpt>
      <trkpt lat="47.6775111" lon="-1.9486851">
        <ele>0.000</ele>
        <time>2018-08-28T12:36:55.815Z</time>
      </trkpt>
      <trkpt lat="47.6776012" lon="-1.9485941">
        <ele>0.000</ele>
        <time>2018-08-28T12:36:58.782Z</time>
      </trkpt>
      <trkpt lat="47.6776883" lon="-1.9485071">
        <ele>0.000</ele>
        <time>2018-08-28T12:37:01.659Z</time>
      </trkpt>
      <trkpt lat="47.6777772" lon="-1.9484211">
        <ele>0.000</ele>
        <time>2018-08-28T12:37:04.600Z</time>
      </trkpt>
      <trkpt lat="47.6778645" lon="-1.9483433">
        <ele>0.000</ele>
        <time>2018-08-28T12:37:07.467Z</time>
      </trkpt>
      <trkpt lat="47.6779552" lon="-1.9482718">
        <ele>0.000</ele>
        <time>2018-08-28T12:37:10.397Z</time>
      </trkpt>
      <trkpt lat="47.6780479" lon="-1.9481918">
        <ele>0.000</ele>
        <time>2018-08-28T12:37:13.454Z</time>
      </trkpt>
      <trkpt lat="47.6781310" lon="-1.9481026">
        <ele>0.000</ele>
        <time>2018-08-28T12:37:16.351Z</time>
      </trkpt>
      <trkpt lat="47.6782156" lon="-1.9480106">
        <ele>0.000</ele>
        <time>2018-08-28T12:37:19.312Z</time>
      </trkpt>
      <trkpt lat="47.6782996" lon="-1.9479227">
        <ele>0.000</ele>
        <time>2018-08-28T12:37:22.224Z</time>
      </trkpt>
      <trkpt lat="47.6783811" lon="-1.9478284">
        <ele>0.056</ele>
        <time>2018-08-28T12:37:25.165Z</time>
      </trkpt>
      <trkpt lat="47.6784646" lon="-1.9477363">
        <ele>0.012</ele>
        <time>2018-08-28T12:37:28.135Z</time>
      </trkpt>
      <trkpt lat="47.6785491" lon="-1.9476552">
        <ele>0.011</ele>
        <time>2018-08-28T12:37:31.024Z</time>
      </trkpt>
      <trkpt lat="47.6786379" lon="-1.9475764">
        <ele>0.231</ele>
        <time>2018-08-28T12:37:34.009Z</time>
      </trkpt>
      <trkpt lat="47.6787255" lon="-1.9474898">
        <ele>0.777</ele>
        <time>2018-08-28T12:37:37.029Z</time>
      </trkpt>
      <trkpt lat="47.6788153" lon="-1.9474044">
        <ele>1.512</ele>
        <time>2018-08-28T12:37:40.054Z</time>
      </trkpt>
      <trkpt lat="47.6789080" lon="-1.9473111">
        <ele>2.078</ele>
        <time>2018-08-28T12:37:43.171Z</time>
      </trkpt>
      <trkpt lat="47.6790012" lon="-1.9472209">
        <ele>2.391</ele>
        <time>2018-08-28T12:37:46.206Z</time>
      </trkpt>
      <trkpt lat="47.6790920" lon="-1.9471276">
        <ele>2.645</ele>
        <time>2018-08-28T12:37:49.187Z</time>
      </trkpt>
      <trkpt lat="47.6791853" lon="-1.9470470">
        <ele>2.786</ele>
        <time>2018-08-28T12:37:52.114Z</time>
      </trkpt>
      <trkpt lat="47.6792753" lon="-1.9469670">
        <ele>2.713</ele>
        <time>2018-08-28T12:37:54.999Z</time>
      </trkpt>
      <trkpt lat="47.6792753" lon="-1.9469670">
        <ele>2.595</ele>
        <time>2018-08-28T12:37:59.999Z</time>
      </trkpt>
      <trkpt lat="47.6792753" lon="-1.9469670">
        <ele>2.589</ele>
        <time>2018-08-28T12:39:02.988Z</time>
      </trkpt>
      <trkpt lat="47.6794551" lon="-1.9467695">
        <ele>2.636</ele>
        <time>2018-08-28T12:39:17.545Z</time>
      </trkpt>
      <trkpt lat="47.6795447" lon="-1.9466690">
        <ele>2.642</ele>
        <time>2018-08-28T12:39:21.727Z</time>
      </trkpt>
      <trkpt lat="47.6796394" lon="-1.9465689">
        <ele>2.605</ele>
        <time>2018-08-28T12:39:25.751Z</time>
      </trkpt>
      <trkpt lat="47.6797132" lon="-1.9464917">
        <ele>2.551</ele>
        <time>2018-08-28T12:39:28.729Z</time>
      </trkpt>
      <trkpt lat="47.6797901" lon="-1.9464176">
        <ele>2.422</ele>
        <time>2018-08-28T12:39:31.638Z</time>
      </trkpt>
      <trkpt lat="47.6798678" lon="-1.9463316">
        <ele>2.178</ele>
        <time>2018-08-28T12:39:34.595Z</time>
      </trkpt>
      <trkpt lat="47.6799523" lon="-1.9462467">
        <ele>1.977</ele>
        <time>2018-08-28T12:39:37.604Z</time>
      </trkpt>
      <trkpt lat="47.6800371" lon="-1.9461552">
        <ele>2.010</ele>
        <time>2018-08-28T12:39:40.637Z</time>
      </trkpt>
      <trkpt lat="47.6801222" lon="-1.9460610">
        <ele>2.317</ele>
        <time>2018-08-28T12:39:43.722Z</time>
      </trkpt>
      <trkpt lat="47.6802052" lon="-1.9459725">
        <ele>2.840</ele>
        <time>2018-08-28T12:39:46.816Z</time>
      </trkpt>
      <trkpt lat="47.6802872" lon="-1.9458989">
        <ele>3.383</ele>
        <time>2018-08-28T12:39:49.814Z</time>
      </trkpt>
      <trkpt lat="47.6803841" lon="-1.9458137">
        <ele>3.604</ele>
        <time>2018-08-28T12:39:53.371Z</time>
      </trkpt>
      <trkpt lat="47.6804684" lon="-1.9457302">
        <ele>3.260</ele>
        <time>2018-08-28T12:39:56.451Z</time>
      </trkpt>
      <trkpt lat="47.6805551" lon="-1.9456432">
        <ele>2.567</ele>
        <time>2018-08-28T12:39:59.529Z</time>
      </trkpt>
      <trkpt lat="47.6806422" lon="-1.9455551">
        <ele>2.084</ele>
        <time>2018-08-28T12:40:02.561Z</time>
      </trkpt>
      <trkpt lat="47.6807280" lon="-1.9454656">
        <ele>2.080</ele>
        <time>2018-08-28T12:40:05.540Z</time>
      </trkpt>
      <trkpt lat="47.6808144" lon="-1.9453796">
        <ele>2.307</ele>
        <time>2018-08-28T12:40:08.465Z</time>
      </trkpt>
      <trkpt lat="47.6809033" lon="-1.9452915">
        <ele>2.583</ele>
        <time>2018-08-28T12:40:11.451Z</time>
      </trkpt>
      <trkpt lat="47.6809924" lon="-1.9452024">
        <ele>2.950</ele>
        <time>2018-08-28T12:40:14.434Z</time>
      </trkpt>
      <trkpt lat="47.6810840" lon="-1.9451170">
        <ele>3.399</ele>
        <time>2018-08-28T12:40:17.424Z</time>
      </trkpt>
      <trkpt lat="47.6811752" lon="-1.9450270">
        <ele>3.824</ele>
        <time>2018-08-28T12:40:20.431Z</time>
      </trkpt>
      <trkpt lat="47.6812610" lon="-1.9449278">
        <ele>4.062</ele>
        <time>2018-08-28T12:40:23.383Z</time>
      </trkpt>
      <trkpt lat="47.6813496" lon="-1.9448256">
        <ele>3.968</ele>
        <time>2018-08-28T12:40:26.416Z</time>
      </trkpt>
      <trkpt lat="47.6814386" lon="-1.9447312">
        <ele>3.661</ele>
        <time>2018-08-28T12:40:29.358Z</time>
      </trkpt>
      <trkpt lat="47.6815310" lon="-1.9446407">
        <ele>3.430</ele>
        <time>2018-08-28T12:40:32.292Z</time>
      </trkpt>
      <trkpt lat="47.6816362" lon="-1.9445474">
        <ele>3.417</ele>
        <time>2018-08-28T12:40:35.498Z</time>
      </trkpt>
      <trkpt lat="47.6817346" lon="-1.9444552">
        <ele>3.448</ele>
        <time>2018-08-28T12:40:38.513Z</time>
      </trkpt>
      <trkpt lat="47.6818265" lon="-1.9443507">
        <ele>3.354</ele>
        <time>2018-08-28T12:40:41.480Z</time>
      </trkpt>
      <trkpt lat="47.6819271" lon="-1.9442551">
        <ele>3.358</ele>
        <time>2018-08-28T12:40:44.521Z</time>
      </trkpt>
      <trkpt lat="47.6820264" lon="-1.9441657">
        <ele>3.692</ele>
        <time>2018-08-28T12:40:47.472Z</time>
      </trkpt>
      <trkpt lat="47.6821308" lon="-1.9440771">
        <ele>4.165</ele>
        <time>2018-08-28T12:40:50.547Z</time>
      </trkpt>
      <trkpt lat="47.6822294" lon="-1.9439969">
        <ele>4.518</ele>
        <time>2018-08-28T12:40:53.467Z</time>
      </trkpt>
      <trkpt lat="47.6823185" lon="-1.9438970">
        <ele>4.798</ele>
        <time>2018-08-28T12:40:56.414Z</time>
      </trkpt>
      <trkpt lat="47.6824002" lon="-1.9437858">
        <ele>5.220</ele>
        <time>2018-08-28T12:40:59.374Z</time>
      </trkpt>
      <trkpt lat="47.6824805" lon="-1.9436754">
        <ele>5.846</ele>
        <time>2018-08-28T12:41:02.319Z</time>
      </trkpt>
      <trkpt lat="47.6825678" lon="-1.9435793">
        <ele>6.443</ele>
        <time>2018-08-28T12:41:05.287Z</time>
      </trkpt>
      <trkpt lat="47.6826612" lon="-1.9434969">
        <ele>6.719</ele>
        <time>2018-08-28T12:41:08.332Z</time>
      </trkpt>
      <trkpt lat="47.6827502" lon="-1.9434229">
        <ele>6.549</ele>
        <time>2018-08-28T12:41:11.315Z</time>
      </trkpt>
      <trkpt lat="47.6828330" lon="-1.9433506">
        <ele>6.162</ele>
        <time>2018-08-28T12:41:14.298Z</time>
      </trkpt>
      <trkpt lat="47.6829103" lon="-1.9432774">
        <ele>5.948</ele>
        <time>2018-08-28T12:41:17.285Z</time>
      </trkpt>
      <trkpt lat="47.6830023" lon="-1.9431888">
        <ele>6.142</ele>
        <time>2018-08-28T12:41:20.991Z</time>
      </trkpt>
      <trkpt lat="47.6830793" lon="-1.9431116">
        <ele>6.672</ele>
        <time>2018-08-28T12:41:23.943Z</time>
      </trkpt>
      <trkpt lat="47.6831682" lon="-1.9430162">
        <ele>7.135</ele>
        <time>2018-08-28T12:41:27.133Z</time>
      </trkpt>
      <trkpt lat="47.6832631" lon="-1.9429234">
        <ele>7.214</ele>
        <time>2018-08-28T12:41:30.220Z</time>
      </trkpt>
      <trkpt lat="47.6833581" lon="-1.9428198">
        <ele>6.986</ele>
        <time>2018-08-28T12:41:33.286Z</time>
      </trkpt>
      <trkpt lat="47.6834544" lon="-1.9427170">
        <ele>6.575</ele>
        <time>2018-08-28T12:41:36.299Z</time>
      </trkpt>
      <trkpt lat="47.6835487" lon="-1.9426121">
        <ele>6.118</ele>
        <time>2018-08-28T12:41:39.256Z</time>
      </trkpt>
      <trkpt lat="47.6836454" lon="-1.9425092">
        <ele>5.800</ele>
        <time>2018-08-28T12:41:42.223Z</time>
      </trkpt>
      <trkpt lat="47.6837411" lon="-1.9424004">
        <ele>5.503</ele>
        <time>2018-08-28T12:41:45.219Z</time>
      </trkpt>
      <trkpt lat="47.6838372" lon="-1.9422911">
        <ele>5.037</ele>
        <time>2018-08-28T12:41:48.238Z</time>
      </trkpt>
      <trkpt lat="47.6839246" lon="-1.9421830">
        <ele>4.919</ele>
        <time>2018-08-28T12:41:51.091Z</time>
      </trkpt>
      <trkpt lat="47.6840141" lon="-1.9420769">
        <ele>5.570</ele>
        <time>2018-08-28T12:41:53.961Z</time>
      </trkpt>
      <trkpt lat="47.6841117" lon="-1.9419658">
        <ele>6.425</ele>
        <time>2018-08-28T12:41:57.032Z</time>
      </trkpt>
      <trkpt lat="47.6842063" lon="-1.9418579">
        <ele>6.562</ele>
        <time>2018-08-28T12:42:00.001Z</time>
      </trkpt>
      <trkpt lat="47.6842984" lon="-1.9417468">
        <ele>5.811</ele>
        <time>2018-08-28T12:42:02.965Z</time>
      </trkpt>
      <trkpt lat="47.6843881" lon="-1.9416348">
        <ele>4.868</ele>
        <time>2018-08-28T12:42:05.931Z</time>
      </trkpt>
      <trkpt lat="47.6844743" lon="-1.9415203">
        <ele>4.322</ele>
        <time>2018-08-28T12:42:08.878Z</time>
      </trkpt>
      <trkpt lat="47.6845627" lon="-1.9414075">
        <ele>4.082</ele>
        <time>2018-08-28T12:42:11.852Z</time>
      </trkpt>
      <trkpt lat="47.6846520" lon="-1.9412893">
        <ele>3.914</ele>
        <time>2018-08-28T12:42:14.896Z</time>
      </trkpt>
      <trkpt lat="47.6847360" lon="-1.9411665">
        <ele>3.705</ele>
        <time>2018-08-28T12:42:17.909Z</time>
      </trkpt>
      <trkpt lat="47.6848143" lon="-1.9410448">
        <ele>3.518</ele>
        <time>2018-08-28T12:42:20.837Z</time>
      </trkpt>
      <trkpt lat="47.6848917" lon="-1.9409196">
        <ele>3.486</ele>
        <time>2018-08-28T12:42:23.797Z</time>
      </trkpt>
      <trkpt lat="47.6849703" lon="-1.9407895">
        <ele>3.614</ele>
        <time>2018-08-28T12:42:26.822Z</time>
      </trkpt>
      <trkpt lat="47.6850510" lon="-1.9406632">
        <ele>3.800</ele>
        <time>2018-08-28T12:42:29.827Z</time>
      </trkpt>
      <trkpt lat="47.6851335" lon="-1.9405418">
        <ele>3.899</ele>
        <time>2018-08-28T12:42:32.802Z</time>
      </trkpt>
      <trkpt lat="47.6852146" lon="-1.9404203">
        <ele>3.822</ele>
        <time>2018-08-28T12:42:35.785Z</time>
      </trkpt>
      <trkpt lat="47.6852930" lon="-1.9403018">
        <ele>3.535</ele>
        <time>2018-08-28T12:42:38.741Z</time>
      </trkpt>
      <trkpt lat="47.6853663" lon="-1.9401873">
        <ele>3.122</ele>
        <time>2018-08-28T12:42:41.608Z</time>
      </trkpt>
      <trkpt lat="47.6854394" lon="-1.9400685">
        <ele>2.785</ele>
        <time>2018-08-28T12:42:44.569Z</time>
      </trkpt>
      <trkpt lat="47.6855137" lon="-1.9399503">
        <ele>2.692</ele>
        <time>2018-08-28T12:42:47.552Z</time>
      </trkpt>
      <trkpt lat="47.6855832" lon="-1.9398176">
        <ele>2.865</ele>
        <time>2018-08-28T12:42:50.609Z</time>
      </trkpt>
      <trkpt lat="47.6856521" lon="-1.9396742">
        <ele>3.242</ele>
        <time>2018-08-28T12:42:53.762Z</time>
      </trkpt>
      <trkpt lat="47.6857199" lon="-1.9395366">
        <ele>3.649</ele>
        <time>2018-08-28T12:42:56.777Z</time>
      </trkpt>
      <trkpt lat="47.6857867" lon="-1.9393896">
        <ele>4.134</ele>
        <time>2018-08-28T12:42:59.892Z</time>
      </trkpt>
      <trkpt lat="47.6858547" lon="-1.9392459">
        <ele>4.798</ele>
        <time>2018-08-28T12:43:02.977Z</time>
      </trkpt>
      <trkpt lat="47.6859212" lon="-1.9391092">
        <ele>5.329</ele>
        <time>2018-08-28T12:43:05.946Z</time>
      </trkpt>
      <trkpt lat="47.6859891" lon="-1.9389717">
        <ele>5.440</ele>
        <time>2018-08-28T12:43:08.959Z</time>
      </trkpt>
      <trkpt lat="47.6860525" lon="-1.9388337">
        <ele>5.212</ele>
        <time>2018-08-28T12:43:11.935Z</time>
      </trkpt>
      <trkpt lat="47.6861157" lon="-1.9387018">
        <ele>4.774</ele>
        <time>2018-08-28T12:43:14.838Z</time>
      </trkpt>
      <trkpt lat="47.6861757" lon="-1.9385602">
        <ele>4.314</ele>
        <time>2018-08-28T12:43:17.851Z</time>
      </trkpt>
      <trkpt lat="47.6862317" lon="-1.9384185">
        <ele>4.039</ele>
        <time>2018-08-28T12:43:20.823Z</time>
      </trkpt>
      <trkpt lat="47.6862848" lon="-1.9382749">
        <ele>4.025</ele>
        <time>2018-08-28T12:43:23.826Z</time>
      </trkpt>
      <trkpt lat="47.6863451" lon="-1.9381486">
        <ele>4.209</ele>
        <time>2018-08-28T12:43:26.705Z</time>
      </trkpt>
      <trkpt lat="47.6864095" lon="-1.9380230">
        <ele>4.426</ele>
        <time>2018-08-28T12:43:29.686Z</time>
      </trkpt>
      <trkpt lat="47.6864694" lon="-1.9378971">
        <ele>4.677</ele>
        <time>2018-08-28T12:43:32.641Z</time>
      </trkpt>
      <trkpt lat="47.6865234" lon="-1.9377715">
        <ele>5.044</ele>
        <time>2018-08-28T12:43:35.534Z</time>
      </trkpt>
      <trkpt lat="47.6865698" lon="-1.9376394">
        <ele>5.373</ele>
        <time>2018-08-28T12:43:38.419Z</time>
      </trkpt>
      <trkpt lat="47.6866125" lon="-1.9374891">
        <ele>5.533</ele>
        <time>2018-08-28T12:43:41.516Z</time>
      </trkpt>
      <trkpt lat="47.6866585" lon="-1.9373364">
        <ele>5.600</ele>
        <time>2018-08-28T12:43:44.615Z</time>
      </trkpt>
      <trkpt lat="47.6867057" lon="-1.9371816">
        <ele>5.677</ele>
        <time>2018-08-28T12:43:47.704Z</time>
      </trkpt>
      <trkpt lat="47.6867569" lon="-1.9370376">
        <ele>5.755</ele>
        <time>2018-08-28T12:43:50.633Z</time>
      </trkpt>
      <trkpt lat="47.6868162" lon="-1.9368956">
        <ele>5.761</ele>
        <time>2018-08-28T12:43:53.625Z</time>
      </trkpt>
      <trkpt lat="47.6868705" lon="-1.9367542">
        <ele>5.693</ele>
        <time>2018-08-28T12:43:56.531Z</time>
      </trkpt>
      <trkpt lat="47.6869101" lon="-1.9365963">
        <ele>5.579</ele>
        <time>2018-08-28T12:43:59.520Z</time>
      </trkpt>
      <trkpt lat="47.6869561" lon="-1.9364389">
        <ele>5.381</ele>
        <time>2018-08-28T12:44:02.543Z</time>
      </trkpt>
      <trkpt lat="47.6869947" lon="-1.9362757">
        <ele>5.119</ele>
        <time>2018-08-28T12:44:05.599Z</time>
      </trkpt>
      <trkpt lat="47.6870306" lon="-1.9361213">
        <ele>4.857</ele>
        <time>2018-08-28T12:44:08.531Z</time>
      </trkpt>
      <trkpt lat="47.6870685" lon="-1.9359714">
        <ele>4.643</ele>
        <time>2018-08-28T12:44:11.461Z</time>
      </trkpt>
      <trkpt lat="47.6871026" lon="-1.9358238">
        <ele>4.504</ele>
        <time>2018-08-28T12:44:14.377Z</time>
      </trkpt>
      <trkpt lat="47.6871365" lon="-1.9356788">
        <ele>4.475</ele>
        <time>2018-08-28T12:44:17.320Z</time>
      </trkpt>
      <trkpt lat="47.6871703" lon="-1.9355397">
        <ele>4.530</ele>
        <time>2018-08-28T12:44:20.220Z</time>
      </trkpt>
      <trkpt lat="47.6871989" lon="-1.9353975">
        <ele>4.584</ele>
        <time>2018-08-28T12:44:23.184Z</time>
      </trkpt>
      <trkpt lat="47.6872357" lon="-1.9352643">
        <ele>4.601</ele>
        <time>2018-08-28T12:44:26.095Z</time>
      </trkpt>
      <trkpt lat="47.6872699" lon="-1.9351240">
        <ele>4.677</ele>
        <time>2018-08-28T12:44:29.119Z</time>
      </trkpt>
      <trkpt lat="47.6873040" lon="-1.9349849">
        <ele>4.863</ele>
        <time>2018-08-28T12:44:32.100Z</time>
      </trkpt>
      <trkpt lat="47.6873350" lon="-1.9348366">
        <ele>5.054</ele>
        <time>2018-08-28T12:44:35.185Z</time>
      </trkpt>
      <trkpt lat="47.6873643" lon="-1.9346878">
        <ele>5.109</ele>
        <time>2018-08-28T12:44:38.225Z</time>
      </trkpt>
      <trkpt lat="47.6873956" lon="-1.9345404">
        <ele>4.990</ele>
        <time>2018-08-28T12:44:41.260Z</time>
      </trkpt>
      <trkpt lat="47.6874285" lon="-1.9344065">
        <ele>4.672</ele>
        <time>2018-08-28T12:44:44.093Z</time>
      </trkpt>
      <trkpt lat="47.6874622" lon="-1.9342674">
        <ele>4.237</ele>
        <time>2018-08-28T12:44:47.059Z</time>
      </trkpt>
      <trkpt lat="47.6874904" lon="-1.9341261">
        <ele>3.972</ele>
        <time>2018-08-28T12:44:50.030Z</time>
      </trkpt>
      <trkpt lat="47.6875199" lon="-1.9339870">
        <ele>4.111</ele>
        <time>2018-08-28T12:44:52.981Z</time>
      </trkpt>
      <trkpt lat="47.6875493" lon="-1.9338469">
        <ele>4.562</ele>
        <time>2018-08-28T12:44:55.993Z</time>
      </trkpt>
      <trkpt lat="47.6875886" lon="-1.9337260">
        <ele>5.029</ele>
        <time>2018-08-28T12:44:58.824Z</time>
      </trkpt>
      <trkpt lat="47.6876314" lon="-1.9335559">
        <ele>5.299</ele>
        <time>2018-08-28T12:45:02.685Z</time>
      </trkpt>
      <trkpt lat="47.6876586" lon="-1.9334132">
        <ele>5.332</ele>
        <time>2018-08-28T12:45:05.821Z</time>
      </trkpt>
      <trkpt lat="47.6876851" lon="-1.9332750">
        <ele>5.192</ele>
        <time>2018-08-28T12:45:08.832Z</time>
      </trkpt>
      <trkpt lat="47.6877124" lon="-1.9331343">
        <ele>4.895</ele>
        <time>2018-08-28T12:45:11.872Z</time>
      </trkpt>
      <trkpt lat="47.6877416" lon="-1.9329969">
        <ele>4.423</ele>
        <time>2018-08-28T12:45:14.841Z</time>
      </trkpt>
      <trkpt lat="47.6877778" lon="-1.9328652">
        <ele>3.903</ele>
        <time>2018-08-28T12:45:17.744Z</time>
      </trkpt>
      <trkpt lat="47.6878100" lon="-1.9327197">
        <ele>3.511</ele>
        <time>2018-08-28T12:45:20.826Z</time>
      </trkpt>
      <trkpt lat="47.6878395" lon="-1.9325721">
        <ele>3.232</ele>
        <time>2018-08-28T12:45:23.897Z</time>
      </trkpt>
      <trkpt lat="47.6878665" lon="-1.9324313">
        <ele>2.947</ele>
        <time>2018-08-28T12:45:26.826Z</time>
      </trkpt>
      <trkpt lat="47.6878941" lon="-1.9322932">
        <ele>2.563</ele>
        <time>2018-08-28T12:45:29.724Z</time>
      </trkpt>
      <trkpt lat="47.6879239" lon="-1.9321547">
        <ele>2.136</ele>
        <time>2018-08-28T12:45:32.647Z</time>
      </trkpt>
      <trkpt lat="47.6879548" lon="-1.9320095">
        <ele>1.845</ele>
        <time>2018-08-28T12:45:35.677Z</time>
      </trkpt>
      <trkpt lat="47.6879818" lon="-1.9318589">
        <ele>1.765</ele>
        <time>2018-08-28T12:45:38.713Z</time>
      </trkpt>
      <trkpt lat="47.6880133" lon="-1.9317070">
        <ele>1.812</ele>
        <time>2018-08-28T12:45:41.744Z</time>
      </trkpt>
      <trkpt lat="47.6880424" lon="-1.9315518">
        <ele>1.904</ele>
        <time>2018-08-28T12:45:44.757Z</time>
      </trkpt>
      <trkpt lat="47.6880680" lon="-1.9313909">
        <ele>2.034</ele>
        <time>2018-08-28T12:45:47.820Z</time>
      </trkpt>
      <trkpt lat="47.6880931" lon="-1.9312343">
        <ele>2.206</ele>
        <time>2018-08-28T12:45:50.798Z</time>
      </trkpt>
      <trkpt lat="47.6881226" lon="-1.9310789">
        <ele>2.422</ele>
        <time>2018-08-28T12:45:53.784Z</time>
      </trkpt>
      <trkpt lat="47.6881481" lon="-1.9309217">
        <ele>2.664</ele>
        <time>2018-08-28T12:45:56.788Z</time>
      </trkpt>
      <trkpt lat="47.6881764" lon="-1.9307764">
        <ele>2.778</ele>
        <time>2018-08-28T12:45:59.651Z</time>
      </trkpt>
      <trkpt lat="47.6882038" lon="-1.9306275">
        <ele>2.670</ele>
        <time>2018-08-28T12:46:02.621Z</time>
      </trkpt>
      <trkpt lat="47.6882361" lon="-1.9304848">
        <ele>2.492</ele>
        <time>2018-08-28T12:46:05.553Z</time>
      </trkpt>
      <trkpt lat="47.6882693" lon="-1.9303429">
        <ele>2.395</ele>
        <time>2018-08-28T12:46:08.497Z</time>
      </trkpt>
      <trkpt lat="47.6882993" lon="-1.9301982">
        <ele>2.357</ele>
        <time>2018-08-28T12:46:11.487Z</time>
      </trkpt>
      <trkpt lat="47.6883304" lon="-1.9300562">
        <ele>2.317</ele>
        <time>2018-08-28T12:46:14.448Z</time>
      </trkpt>
      <trkpt lat="47.6883620" lon="-1.9299107">
        <ele>2.278</ele>
        <time>2018-08-28T12:46:17.473Z</time>
      </trkpt>
      <trkpt lat="47.6883965" lon="-1.9297667">
        <ele>2.215</ele>
        <time>2018-08-28T12:46:20.494Z</time>
      </trkpt>
      <trkpt lat="47.6884356" lon="-1.9296323">
        <ele>2.094</ele>
        <time>2018-08-28T12:46:23.416Z</time>
      </trkpt>
      <trkpt lat="47.6884820" lon="-1.9295056">
        <ele>1.904</ele>
        <time>2018-08-28T12:46:26.313Z</time>
      </trkpt>
      <trkpt lat="47.6885212" lon="-1.9293588">
        <ele>1.672</ele>
        <time>2018-08-28T12:46:29.462Z</time>
      </trkpt>
      <trkpt lat="47.6885480" lon="-1.9292100">
        <ele>1.485</ele>
        <time>2018-08-28T12:46:32.489Z</time>
      </trkpt>
      <trkpt lat="47.6885703" lon="-1.9290582">
        <ele>1.318</ele>
        <time>2018-08-28T12:46:35.546Z</time>
      </trkpt>
      <trkpt lat="47.6886031" lon="-1.9289197">
        <ele>1.043</ele>
        <time>2018-08-28T12:46:38.478Z</time>
      </trkpt>
      <trkpt lat="47.6886416" lon="-1.9287823">
        <ele>0.707</ele>
        <time>2018-08-28T12:46:41.445Z</time>
      </trkpt>
      <trkpt lat="47.6886700" lon="-1.9286272">
        <ele>0.347</ele>
        <time>2018-08-28T12:46:44.543Z</time>
      </trkpt>
      <trkpt lat="47.6886938" lon="-1.9284530">
        <ele>0.000</ele>
        <time>2018-08-28T12:46:47.773Z</time>
      </trkpt>
      <trkpt lat="47.6887272" lon="-1.9282759">
        <ele>0.000</ele>
        <time>2018-08-28T12:46:50.988Z</time>
      </trkpt>
      <trkpt lat="47.6887682" lon="-1.9281307">
        <ele>0.000</ele>
        <time>2018-08-28T12:46:53.959Z</time>
      </trkpt>
      <trkpt lat="47.6888147" lon="-1.9280010">
        <ele>0.000</ele>
        <time>2018-08-28T12:46:56.910Z</time>
      </trkpt>
      <trkpt lat="47.6888738" lon="-1.9278760">
        <ele>0.000</ele>
        <time>2018-08-28T12:47:00.063Z</time>
      </trkpt>
      <trkpt lat="47.6889264" lon="-1.9277212">
        <ele>0.000</ele>
        <time>2018-08-28T12:47:03.491Z</time>
      </trkpt>
      <trkpt lat="47.6889585" lon="-1.9275610">
        <ele>0.000</ele>
        <time>2018-08-28T12:47:06.707Z</time>
      </trkpt>
      <trkpt lat="47.6890023" lon="-1.9274297">
        <ele>0.000</ele>
        <time>2018-08-28T12:47:09.680Z</time>
      </trkpt>
      <trkpt lat="47.6890440" lon="-1.9272756">
        <ele>0.000</ele>
        <time>2018-08-28T12:47:13.220Z</time>
      </trkpt>
      <trkpt lat="47.6890801" lon="-1.9271411">
        <ele>0.000</ele>
        <time>2018-08-28T12:47:16.418Z</time>
      </trkpt>
      <trkpt lat="47.6891180" lon="-1.9270145">
        <ele>0.000</ele>
        <time>2018-08-28T12:47:19.595Z</time>
      </trkpt>
      <trkpt lat="47.6891413" lon="-1.9268542">
        <ele>0.000</ele>
        <time>2018-08-28T12:47:23.493Z</time>
      </trkpt>
      <trkpt lat="47.6891676" lon="-1.9266861">
        <ele>0.000</ele>
        <time>2018-08-28T12:47:27.538Z</time>
      </trkpt>
      <trkpt lat="47.6891993" lon="-1.9265286">
        <ele>0.000</ele>
        <time>2018-08-28T12:47:30.952Z</time>
      </trkpt>
      <trkpt lat="47.6892360" lon="-1.9263604">
        <ele>0.576</ele>
        <time>2018-08-28T12:47:34.230Z</time>
      </trkpt>
      <trkpt lat="47.6892715" lon="-1.9261907">
        <ele>1.461</ele>
        <time>2018-08-28T12:47:37.373Z</time>
      </trkpt>
      <trkpt lat="47.6893018" lon="-1.9260288">
        <ele>2.158</ele>
        <time>2018-08-28T12:47:40.322Z</time>
      </trkpt>
      <trkpt lat="47.6893163" lon="-1.9258617">
        <ele>2.659</ele>
        <time>2018-08-28T12:47:43.310Z</time>
      </trkpt>
      <trkpt lat="47.6893403" lon="-1.9257026">
        <ele>3.038</ele>
        <time>2018-08-28T12:47:46.237Z</time>
      </trkpt>
      <trkpt lat="47.6893677" lon="-1.9255404">
        <ele>3.424</ele>
        <time>2018-08-28T12:47:49.263Z</time>
      </trkpt>
      <trkpt lat="47.6893893" lon="-1.9253831">
        <ele>3.848</ele>
        <time>2018-08-28T12:47:52.188Z</time>
      </trkpt>
      <trkpt lat="47.6894050" lon="-1.9252198">
        <ele>4.093</ele>
        <time>2018-08-28T12:47:55.195Z</time>
      </trkpt>
      <trkpt lat="47.6894200" lon="-1.9250576">
        <ele>4.065</ele>
        <time>2018-08-28T12:47:58.213Z</time>
      </trkpt>
      <trkpt lat="47.6894434" lon="-1.9249100">
        <ele>3.860</ele>
        <time>2018-08-28T12:48:01.070Z</time>
      </trkpt>
      <trkpt lat="47.6894617" lon="-1.9247599">
        <ele>3.585</ele>
        <time>2018-08-28T12:48:04.003Z</time>
      </trkpt>
      <trkpt lat="47.6894992" lon="-1.9246124">
        <ele>3.347</ele>
        <time>2018-08-28T12:48:07.069Z</time>
      </trkpt>
      <trkpt lat="47.6895439" lon="-1.9244750">
        <ele>3.274</ele>
        <time>2018-08-28T12:48:10.052Z</time>
      </trkpt>
      <trkpt lat="47.6895770" lon="-1.9243322">
        <ele>3.372</ele>
        <time>2018-08-28T12:48:13.011Z</time>
      </trkpt>
      <trkpt lat="47.6896180" lon="-1.9241925">
        <ele>3.536</ele>
        <time>2018-08-28T12:48:15.965Z</time>
      </trkpt>
      <trkpt lat="47.6896444" lon="-1.9240349">
        <ele>3.675</ele>
        <time>2018-08-28T12:48:19.044Z</time>
      </trkpt>
      <trkpt lat="47.6896724" lon="-1.9238727">
        <ele>3.725</ele>
        <time>2018-08-28T12:48:22.148Z</time>
      </trkpt>
      <trkpt lat="47.6897169" lon="-1.9237200">
        <ele>3.602</ele>
        <time>2018-08-28T12:48:25.202Z</time>
      </trkpt>
      <trkpt lat="47.6897702" lon="-1.9235780">
        <ele>3.345</ele>
        <time>2018-08-28T12:48:28.177Z</time>
      </trkpt>
      <trkpt lat="47.6898194" lon="-1.9234326">
        <ele>3.122</ele>
        <time>2018-08-28T12:48:31.143Z</time>
      </trkpt>
      <trkpt lat="47.6898665" lon="-1.9232838">
        <ele>3.029</ele>
        <time>2018-08-28T12:48:34.115Z</time>
      </trkpt>
      <trkpt lat="47.6899221" lon="-1.9231351">
        <ele>3.036</ele>
        <time>2018-08-28T12:48:37.168Z</time>
      </trkpt>
      <trkpt lat="47.6899831" lon="-1.9229943">
        <ele>3.094</ele>
        <time>2018-08-28T12:48:40.201Z</time>
      </trkpt>
      <trkpt lat="47.6900471" lon="-1.9228698">
        <ele>3.167</ele>
        <time>2018-08-28T12:48:43.105Z</time>
      </trkpt>
      <trkpt lat="47.6901145" lon="-1.9227585">
        <ele>3.278</ele>
        <time>2018-08-28T12:48:45.973Z</time>
      </trkpt>
      <trkpt lat="47.6901841" lon="-1.9226538">
        <ele>3.473</ele>
        <time>2018-08-28T12:48:48.841Z</time>
      </trkpt>
      <trkpt lat="47.6902611" lon="-1.9225546">
        <ele>3.864</ele>
        <time>2018-08-28T12:48:51.803Z</time>
      </trkpt>
      <trkpt lat="47.6903333" lon="-1.9224569">
        <ele>4.462</ele>
        <time>2018-08-28T12:48:54.630Z</time>
      </trkpt>
      <trkpt lat="47.6904088" lon="-1.9223456">
        <ele>5.000</ele>
        <time>2018-08-28T12:48:57.643Z</time>
      </trkpt>
      <trkpt lat="47.6904810" lon="-1.9222156">
        <ele>5.251</ele>
        <time>2018-08-28T12:49:00.793Z</time>
      </trkpt>
      <trkpt lat="47.6905333" lon="-1.9220699">
        <ele>5.203</ele>
        <time>2018-08-28T12:49:03.840Z</time>
      </trkpt>
      <trkpt lat="47.6905898" lon="-1.9219256">
        <ele>4.941</ele>
        <time>2018-08-28T12:49:06.852Z</time>
      </trkpt>
      <trkpt lat="47.6906532" lon="-1.9217750">
        <ele>4.600</ele>
        <time>2018-08-28T12:49:09.956Z</time>
      </trkpt>
      <trkpt lat="47.6907026" lon="-1.9216136">
        <ele>4.289</ele>
        <time>2018-08-28T12:49:12.999Z</time>
      </trkpt>
      <trkpt lat="47.6907246" lon="-1.9214371">
        <ele>4.090</ele>
        <time>2018-08-28T12:49:16.049Z</time>
      </trkpt>
      <trkpt lat="47.6907263" lon="-1.9212533">
        <ele>4.136</ele>
        <time>2018-08-28T12:49:19.184Z</time>
      </trkpt>
      <trkpt lat="47.6907236" lon="-1.9210822">
        <ele>4.457</ele>
        <time>2018-08-28T12:49:22.142Z</time>
      </trkpt>
      <trkpt lat="47.6907196" lon="-1.9209169">
        <ele>4.850</ele>
        <time>2018-08-28T12:49:25.020Z</time>
      </trkpt>
      <trkpt lat="47.6907225" lon="-1.9207412">
        <ele>5.039</ele>
        <time>2018-08-28T12:49:28.055Z</time>
      </trkpt>
      <trkpt lat="47.6907296" lon="-1.9205697">
        <ele>4.841</ele>
        <time>2018-08-28T12:49:31.031Z</time>
      </trkpt>
      <trkpt lat="47.6907335" lon="-1.9204078">
        <ele>4.154</ele>
        <time>2018-08-28T12:49:33.879Z</time>
      </trkpt>
      <trkpt lat="47.6907336" lon="-1.9202429">
        <ele>3.229</ele>
        <time>2018-08-28T12:49:36.817Z</time>
      </trkpt>
      <trkpt lat="47.6907375" lon="-1.9200809">
        <ele>2.629</ele>
        <time>2018-08-28T12:49:39.724Z</time>
      </trkpt>
      <trkpt lat="47.6907454" lon="-1.9199151">
        <ele>2.575</ele>
        <time>2018-08-28T12:49:42.706Z</time>
      </trkpt>
      <trkpt lat="47.6907684" lon="-1.9197510">
        <ele>2.669</ele>
        <time>2018-08-28T12:49:45.721Z</time>
      </trkpt>
      <trkpt lat="47.6908114" lon="-1.9195997">
        <ele>2.487</ele>
        <time>2018-08-28T12:49:48.715Z</time>
      </trkpt>
      <trkpt lat="47.6908777" lon="-1.9194707">
        <ele>2.097</ele>
        <time>2018-08-28T12:49:51.695Z</time>
      </trkpt>
      <trkpt lat="47.6909511" lon="-1.9193402">
        <ele>1.826</ele>
        <time>2018-08-28T12:49:54.781Z</time>
      </trkpt>
      <trkpt lat="47.6910308" lon="-1.9192200">
        <ele>1.808</ele>
        <time>2018-08-28T12:49:57.784Z</time>
      </trkpt>
      <trkpt lat="47.6911085" lon="-1.9190902">
        <ele>1.926</ele>
        <time>2018-08-28T12:50:00.847Z</time>
      </trkpt>
      <trkpt lat="47.6911742" lon="-1.9189631">
        <ele>1.966</ele>
        <time>2018-08-28T12:50:03.712Z</time>
      </trkpt>
      <trkpt lat="47.6912347" lon="-1.9188341">
        <ele>1.824</ele>
        <time>2018-08-28T12:50:06.572Z</time>
      </trkpt>
      <trkpt lat="47.6912942" lon="-1.9187000">
        <ele>1.534</ele>
        <time>2018-08-28T12:50:09.521Z</time>
      </trkpt>
      <trkpt lat="47.6913538" lon="-1.9185642">
        <ele>1.167</ele>
        <time>2018-08-28T12:50:12.497Z</time>
      </trkpt>
      <trkpt lat="47.6914123" lon="-1.9184230">
        <ele>0.849</ele>
        <time>2018-08-28T12:50:15.542Z</time>
      </trkpt>
      <trkpt lat="47.6914592" lon="-1.9182796">
        <ele>0.683</ele>
        <time>2018-08-28T12:50:18.484Z</time>
      </trkpt>
      <trkpt lat="47.6914832" lon="-1.9181135">
        <ele>0.580</ele>
        <time>2018-08-28T12:50:21.593Z</time>
      </trkpt>
      <trkpt lat="47.6915080" lon="-1.9179400">
        <ele>0.348</ele>
        <time>2018-08-28T12:50:24.788Z</time>
      </trkpt>
      <trkpt lat="47.6915669" lon="-1.9177951">
        <ele>0.000</ele>
        <time>2018-08-28T12:50:27.820Z</time>
      </trkpt>
      <trkpt lat="47.6916291" lon="-1.9176551">
        <ele>0.000</ele>
        <time>2018-08-28T12:50:30.824Z</time>
      </trkpt>
      <trkpt lat="47.6916625" lon="-1.9174859">
        <ele>0.000</ele>
        <time>2018-08-28T12:50:33.986Z</time>
      </trkpt>
      <trkpt lat="47.6916897" lon="-1.9173261">
        <ele>0.000</ele>
        <time>2018-08-28T12:50:37.049Z</time>
      </trkpt>
      <trkpt lat="47.6917192" lon="-1.9171939">
        <ele>0.000</ele>
        <time>2018-08-28T12:50:39.757Z</time>
      </trkpt>
      <trkpt lat="47.6917635" lon="-1.9170619">
        <ele>0.000</ele>
        <time>2018-08-28T12:50:42.622Z</time>
      </trkpt>
      <trkpt lat="47.6917828" lon="-1.9168883">
        <ele>0.000</ele>
        <time>2018-08-28T12:50:45.961Z</time>
      </trkpt>
      <trkpt lat="47.6917895" lon="-1.9167268">
        <ele>0.000</ele>
        <time>2018-08-28T12:50:49.001Z</time>
      </trkpt>
      <trkpt lat="47.6917731" lon="-1.9165603">
        <ele>0.000</ele>
        <time>2018-08-28T12:50:52.110Z</time>
      </trkpt>
      <trkpt lat="47.6917513" lon="-1.9163855">
        <ele>0.000</ele>
        <time>2018-08-28T12:50:55.313Z</time>
      </trkpt>
      <trkpt lat="47.6917324" lon="-1.9162168">
        <ele>0.000</ele>
        <time>2018-08-28T12:50:58.350Z</time>
      </trkpt>
      <trkpt lat="47.6917134" lon="-1.9160477">
        <ele>0.000</ele>
        <time>2018-08-28T12:51:01.368Z</time>
      </trkpt>
      <trkpt lat="47.6916948" lon="-1.9158758">
        <ele>0.000</ele>
        <time>2018-08-28T12:51:04.414Z</time>
      </trkpt>
      <trkpt lat="47.6916677" lon="-1.9156991">
        <ele>0.000</ele>
        <time>2018-08-28T12:51:07.588Z</time>
      </trkpt>
      <trkpt lat="47.6916461" lon="-1.9155332">
        <ele>0.435</ele>
        <time>2018-08-28T12:51:10.599Z</time>
      </trkpt>
      <trkpt lat="47.6916409" lon="-1.9153724">
        <ele>0.861</ele>
        <time>2018-08-28T12:51:13.534Z</time>
      </trkpt>
      <trkpt lat="47.6916462" lon="-1.9152117">
        <ele>0.808</ele>
        <time>2018-08-28T12:51:16.521Z</time>
      </trkpt>
      <trkpt lat="47.6916610" lon="-1.9150619">
        <ele>0.545</ele>
        <time>2018-08-28T12:51:19.374Z</time>
      </trkpt>
      <trkpt lat="47.6916749" lon="-1.9149111">
        <ele>0.251</ele>
        <time>2018-08-28T12:51:22.260Z</time>
      </trkpt>
      <trkpt lat="47.6916910" lon="-1.9147502">
        <ele>0.000</ele>
        <time>2018-08-28T12:51:25.318Z</time>
      </trkpt>
      <trkpt lat="47.6917095" lon="-1.9145794">
        <ele>0.000</ele>
        <time>2018-08-28T12:51:28.534Z</time>
      </trkpt>
      <trkpt lat="47.6917345" lon="-1.9144260">
        <ele>0.368</ele>
        <time>2018-08-28T12:51:31.456Z</time>
      </trkpt>
      <trkpt lat="47.6917594" lon="-1.9142683">
        <ele>0.751</ele>
        <time>2018-08-28T12:51:34.427Z</time>
      </trkpt>
      <trkpt lat="47.6917785" lon="-1.9141006">
        <ele>0.598</ele>
        <time>2018-08-28T12:51:37.497Z</time>
      </trkpt>
      <trkpt lat="47.6917963" lon="-1.9139370">
        <ele>0.292</ele>
        <time>2018-08-28T12:51:40.458Z</time>
      </trkpt>
      <trkpt lat="47.6918176" lon="-1.9137720">
        <ele>0.362</ele>
        <time>2018-08-28T12:51:43.464Z</time>
      </trkpt>
      <trkpt lat="47.6918414" lon="-1.9136151">
        <ele>0.762</ele>
        <time>2018-08-28T12:51:46.364Z</time>
      </trkpt>
      <trkpt lat="47.6918682" lon="-1.9134594">
        <ele>1.108</ele>
        <time>2018-08-28T12:51:49.283Z</time>
      </trkpt>
      <trkpt lat="47.6918941" lon="-1.9132999">
        <ele>1.158</ele>
        <time>2018-08-28T12:51:52.287Z</time>
      </trkpt>
      <trkpt lat="47.6919175" lon="-1.9131422">
        <ele>0.954</ele>
        <time>2018-08-28T12:51:55.264Z</time>
      </trkpt>
      <trkpt lat="47.6919435" lon="-1.9129883">
        <ele>0.679</ele>
        <time>2018-08-28T12:51:58.174Z</time>
      </trkpt>
      <trkpt lat="47.6919681" lon="-1.9128235">
        <ele>0.482</ele>
        <time>2018-08-28T12:52:01.234Z</time>
      </trkpt>
      <trkpt lat="47.6919947" lon="-1.9126653">
        <ele>0.390</ele>
        <time>2018-08-28T12:52:04.177Z</time>
      </trkpt>
      <trkpt lat="47.6920174" lon="-1.9125071">
        <ele>0.364</ele>
        <time>2018-08-28T12:52:07.098Z</time>
      </trkpt>
      <trkpt lat="47.6920379" lon="-1.9123469">
        <ele>0.422</ele>
        <time>2018-08-28T12:52:10.060Z</time>
      </trkpt>
      <trkpt lat="47.6920630" lon="-1.9121926">
        <ele>0.715</ele>
        <time>2018-08-28T12:52:12.964Z</time>
      </trkpt>
      <trkpt lat="47.6920857" lon="-1.9120307">
        <ele>1.307</ele>
        <time>2018-08-28T12:52:15.995Z</time>
      </trkpt>
      <trkpt lat="47.6921075" lon="-1.9118684">
        <ele>2.020</ele>
        <time>2018-08-28T12:52:19.036Z</time>
      </trkpt>
      <trkpt lat="47.6921371" lon="-1.9117123">
        <ele>2.633</ele>
        <time>2018-08-28T12:52:22.022Z</time>
      </trkpt>
      <trkpt lat="47.6921740" lon="-1.9115617">
        <ele>3.099</ele>
        <time>2018-08-28T12:52:25.001Z</time>
      </trkpt>
      <trkpt lat="47.6922216" lon="-1.9114193">
        <ele>3.579</ele>
        <time>2018-08-28T12:52:27.973Z</time>
      </trkpt>
      <trkpt lat="47.6922709" lon="-1.9112732">
        <ele>4.139</ele>
        <time>2018-08-28T12:52:31.011Z</time>
      </trkpt>
      <trkpt lat="47.6923252" lon="-1.9111308">
        <ele>4.561</ele>
        <time>2018-08-28T12:52:34.021Z</time>
      </trkpt>
      <trkpt lat="47.6923781" lon="-1.9109910">
        <ele>4.740</ele>
        <time>2018-08-28T12:52:36.959Z</time>
      </trkpt>
      <trkpt lat="47.6924352" lon="-1.9108550">
        <ele>4.792</ele>
        <time>2018-08-28T12:52:39.893Z</time>
      </trkpt>
      <trkpt lat="47.6924921" lon="-1.9107210">
        <ele>4.771</ele>
        <time>2018-08-28T12:52:42.803Z</time>
      </trkpt>
      <trkpt lat="47.6925578" lon="-1.9105904">
        <ele>4.631</ele>
        <time>2018-08-28T12:52:45.776Z</time>
      </trkpt>
      <trkpt lat="47.6926221" lon="-1.9104494">
        <ele>4.339</ele>
        <time>2018-08-28T12:52:48.823Z</time>
      </trkpt>
      <trkpt lat="47.6926907" lon="-1.9103094">
        <ele>3.809</ele>
        <time>2018-08-28T12:52:51.894Z</time>
      </trkpt>
      <trkpt lat="47.6927571" lon="-1.9101796">
        <ele>3.066</ele>
        <time>2018-08-28T12:52:54.835Z</time>
      </trkpt>
      <trkpt lat="47.6928249" lon="-1.9100619">
        <ele>2.305</ele>
        <time>2018-08-28T12:52:57.706Z</time>
      </trkpt>
      <trkpt lat="47.6928912" lon="-1.9099466">
        <ele>1.632</ele>
        <time>2018-08-28T12:53:00.577Z</time>
      </trkpt>
      <trkpt lat="47.6929630" lon="-1.9098293">
        <ele>1.033</ele>
        <time>2018-08-28T12:53:03.611Z</time>
      </trkpt>
      <trkpt lat="47.6930293" lon="-1.9097132">
        <ele>0.569</ele>
        <time>2018-08-28T12:53:06.547Z</time>
      </trkpt>
      <trkpt lat="47.6930915" lon="-1.9095878">
        <ele>0.314</ele>
        <time>2018-08-28T12:53:09.556Z</time>
      </trkpt>
      <trkpt lat="47.6931552" lon="-1.9094590">
        <ele>0.276</ele>
        <time>2018-08-28T12:53:12.625Z</time>
      </trkpt>
      <trkpt lat="47.6932212" lon="-1.9093286">
        <ele>0.390</ele>
        <time>2018-08-28T12:53:15.718Z</time>
      </trkpt>
      <trkpt lat="47.6932794" lon="-1.9091942">
        <ele>0.664</ele>
        <time>2018-08-28T12:53:18.715Z</time>
      </trkpt>
      <trkpt lat="47.6933344" lon="-1.9090524">
        <ele>1.153</ele>
        <time>2018-08-28T12:53:21.772Z</time>
      </trkpt>
      <trkpt lat="47.6933852" lon="-1.9089110">
        <ele>1.884</ele>
        <time>2018-08-28T12:53:24.772Z</time>
      </trkpt>
      <trkpt lat="47.6934323" lon="-1.9087730">
        <ele>2.917</ele>
        <time>2018-08-28T12:53:27.751Z</time>
      </trkpt>
      <trkpt lat="47.6934669" lon="-1.9086437">
        <ele>4.055</ele>
        <time>2018-08-28T12:53:30.589Z</time>
      </trkpt>
      <trkpt lat="47.6935166" lon="-1.9084850">
        <ele>4.836</ele>
        <time>2018-08-28T12:53:34.232Z</time>
      </trkpt>
      <trkpt lat="47.6935646" lon="-1.9083463">
        <ele>5.128</ele>
        <time>2018-08-28T12:53:37.374Z</time>
      </trkpt>
      <trkpt lat="47.6936162" lon="-1.9081890">
        <ele>5.178</ele>
        <time>2018-08-28T12:53:40.680Z</time>
      </trkpt>
      <trkpt lat="47.6936653" lon="-1.9080336">
        <ele>5.105</ele>
        <time>2018-08-28T12:53:43.801Z</time>
      </trkpt>
      <trkpt lat="47.6937097" lon="-1.9078776">
        <ele>4.927</ele>
        <time>2018-08-28T12:53:46.836Z</time>
      </trkpt>
      <trkpt lat="47.6937523" lon="-1.9077211">
        <ele>4.752</ele>
        <time>2018-08-28T12:53:49.836Z</time>
      </trkpt>
      <trkpt lat="47.6937957" lon="-1.9075632">
        <ele>4.740</ele>
        <time>2018-08-28T12:53:52.861Z</time>
      </trkpt>
      <trkpt lat="47.6938416" lon="-1.9074093">
        <ele>4.946</ele>
        <time>2018-08-28T12:53:55.846Z</time>
      </trkpt>
      <trkpt lat="47.6938830" lon="-1.9072530">
        <ele>5.248</ele>
        <time>2018-08-28T12:53:58.817Z</time>
      </trkpt>
      <trkpt lat="47.6939164" lon="-1.9070934">
        <ele>5.457</ele>
        <time>2018-08-28T12:54:01.773Z</time>
      </trkpt>
      <trkpt lat="47.6939501" lon="-1.9069349">
        <ele>5.462</ele>
        <time>2018-08-28T12:54:04.713Z</time>
      </trkpt>
      <trkpt lat="47.6939861" lon="-1.9067751">
        <ele>5.249</ele>
        <time>2018-08-28T12:54:07.674Z</time>
      </trkpt>
      <trkpt lat="47.6940279" lon="-1.9066127">
        <ele>4.933</ele>
        <time>2018-08-28T12:54:10.695Z</time>
      </trkpt>
      <trkpt lat="47.6940712" lon="-1.9064522">
        <ele>4.646</ele>
        <time>2018-08-28T12:54:13.674Z</time>
      </trkpt>
      <trkpt lat="47.6941122" lon="-1.9062901">
        <ele>4.300</ele>
        <time>2018-08-28T12:54:16.637Z</time>
      </trkpt>
      <trkpt lat="47.6941532" lon="-1.9061251">
        <ele>3.700</ele>
        <time>2018-08-28T12:54:19.630Z</time>
      </trkpt>
      <trkpt lat="47.6941933" lon="-1.9059605">
        <ele>2.958</ele>
        <time>2018-08-28T12:54:22.609Z</time>
      </trkpt>
      <trkpt lat="47.6942299" lon="-1.9057945">
        <ele>2.401</ele>
        <time>2018-08-28T12:54:25.593Z</time>
      </trkpt>
      <trkpt lat="47.6942671" lon="-1.9056296">
        <ele>2.109</ele>
        <time>2018-08-28T12:54:28.591Z</time>
      </trkpt>
      <trkpt lat="47.6943084" lon="-1.9054717">
        <ele>1.926</ele>
        <time>2018-08-28T12:54:31.557Z</time>
      </trkpt>
      <trkpt lat="47.6943464" lon="-1.9053169">
        <ele>1.612</ele>
        <time>2018-08-28T12:54:34.470Z</time>
      </trkpt>
      <trkpt lat="47.6943683" lon="-1.9051514">
        <ele>1.091</ele>
        <time>2018-08-28T12:54:37.458Z</time>
      </trkpt>
      <trkpt lat="47.6943919" lon="-1.9049810">
        <ele>0.617</ele>
        <time>2018-08-28T12:54:40.555Z</time>
      </trkpt>
      <trkpt lat="47.6944355" lon="-1.9048325">
        <ele>0.577</ele>
        <time>2018-08-28T12:54:43.515Z</time>
      </trkpt>
      <trkpt lat="47.6944880" lon="-1.9047019">
        <ele>1.013</ele>
        <time>2018-08-28T12:54:46.386Z</time>
      </trkpt>
      <trkpt lat="47.6945269" lon="-1.9045657">
        <ele>1.530</ele>
        <time>2018-08-28T12:54:49.250Z</time>
      </trkpt>
      <trkpt lat="47.6945621" lon="-1.9044225">
        <ele>1.792</ele>
        <time>2018-08-28T12:54:52.239Z</time>
      </trkpt>
      <trkpt lat="47.6946026" lon="-1.9042790">
        <ele>1.797</ele>
        <time>2018-08-28T12:54:55.298Z</time>
      </trkpt>
      <trkpt lat="47.6946391" lon="-1.9041398">
        <ele>1.648</ele>
        <time>2018-08-28T12:54:58.252Z</time>
      </trkpt>
      <trkpt lat="47.6946648" lon="-1.9039969">
        <ele>1.515</ele>
        <time>2018-08-28T12:55:01.182Z</time>
      </trkpt>
      <trkpt lat="47.6946938" lon="-1.9038498">
        <ele>1.514</ele>
        <time>2018-08-28T12:55:04.192Z</time>
      </trkpt>
      <trkpt lat="47.6947234" lon="-1.9036975">
        <ele>1.735</ele>
        <time>2018-08-28T12:55:07.252Z</time>
      </trkpt>
      <trkpt lat="47.6947496" lon="-1.9035416">
        <ele>2.168</ele>
        <time>2018-08-28T12:55:10.300Z</time>
      </trkpt>
      <trkpt lat="47.6947753" lon="-1.9033850">
        <ele>2.610</ele>
        <time>2018-08-28T12:55:13.325Z</time>
      </trkpt>
      <trkpt lat="47.6948020" lon="-1.9032305">
        <ele>3.089</ele>
        <time>2018-08-28T12:55:16.298Z</time>
      </trkpt>
      <trkpt lat="47.6948255" lon="-1.9030783">
        <ele>3.727</ele>
        <time>2018-08-28T12:55:19.210Z</time>
      </trkpt>
      <trkpt lat="47.6948459" lon="-1.9029231">
        <ele>4.250</ele>
        <time>2018-08-28T12:55:22.150Z</time>
      </trkpt>
      <trkpt lat="47.6948605" lon="-1.9027561">
        <ele>4.353</ele>
        <time>2018-08-28T12:55:25.247Z</time>
      </trkpt>
      <trkpt lat="47.6948745" lon="-1.9025944">
        <ele>4.103</ele>
        <time>2018-08-28T12:55:28.230Z</time>
      </trkpt>
      <trkpt lat="47.6948975" lon="-1.9024432">
        <ele>3.747</ele>
        <time>2018-08-28T12:55:31.084Z</time>
      </trkpt>
      <trkpt lat="47.6949227" lon="-1.9022918">
        <ele>3.408</ele>
        <time>2018-08-28T12:55:33.994Z</time>
      </trkpt>
      <trkpt lat="47.6949502" lon="-1.9021433">
        <ele>3.093</ele>
        <time>2018-08-28T12:55:36.910Z</time>
      </trkpt>
      <trkpt lat="47.6949798" lon="-1.9019908">
        <ele>3.002</ele>
        <time>2018-08-28T12:55:39.936Z</time>
      </trkpt>
      <trkpt lat="47.6950114" lon="-1.9018400">
        <ele>3.248</ele>
        <time>2018-08-28T12:55:42.945Z</time>
      </trkpt>
      <trkpt lat="47.6950474" lon="-1.9016943">
        <ele>3.517</ele>
        <time>2018-08-28T12:55:45.903Z</time>
      </trkpt>
      <trkpt lat="47.6950857" lon="-1.9015460">
        <ele>3.507</ele>
        <time>2018-08-28T12:55:48.940Z</time>
      </trkpt>
      <trkpt lat="47.6951280" lon="-1.9014067">
        <ele>3.305</ele>
        <time>2018-08-28T12:55:51.873Z</time>
      </trkpt>
      <trkpt lat="47.6951747" lon="-1.9012673">
        <ele>3.121</ele>
        <time>2018-08-28T12:55:54.852Z</time>
      </trkpt>
      <trkpt lat="47.6952184" lon="-1.9011166">
        <ele>3.070</ele>
        <time>2018-08-28T12:55:57.939Z</time>
      </trkpt>
      <trkpt lat="47.6952552" lon="-1.9009565">
        <ele>3.239</ele>
        <time>2018-08-28T12:56:01.056Z</time>
      </trkpt>
      <trkpt lat="47.6952899" lon="-1.9008020">
        <ele>3.623</ele>
        <time>2018-08-28T12:56:04.025Z</time>
      </trkpt>
      <trkpt lat="47.6953305" lon="-1.9006494">
        <ele>4.074</ele>
        <time>2018-08-28T12:56:07.003Z</time>
      </trkpt>
      <trkpt lat="47.6953757" lon="-1.9004991">
        <ele>4.465</ele>
        <time>2018-08-28T12:56:09.992Z</time>
      </trkpt>
      <trkpt lat="47.6954161" lon="-1.9003451">
        <ele>4.766</ele>
        <time>2018-08-28T12:56:12.989Z</time>
      </trkpt>
      <trkpt lat="47.6954604" lon="-1.9001885">
        <ele>4.969</ele>
        <time>2018-08-28T12:56:16.048Z</time>
      </trkpt>
      <trkpt lat="47.6955049" lon="-1.9000342">
        <ele>5.205</ele>
        <time>2018-08-28T12:56:19.058Z</time>
      </trkpt>
      <trkpt lat="47.6955422" lon="-1.8998800">
        <ele>5.565</ele>
        <time>2018-08-28T12:56:21.995Z</time>
      </trkpt>
      <trkpt lat="47.6955823" lon="-1.8997290">
        <ele>5.895</ele>
        <time>2018-08-28T12:56:24.929Z</time>
      </trkpt>
      <trkpt lat="47.6956277" lon="-1.8995892">
        <ele>6.045</ele>
        <time>2018-08-28T12:56:27.778Z</time>
      </trkpt>
      <trkpt lat="47.6956721" lon="-1.8994505">
        <ele>5.963</ele>
        <time>2018-08-28T12:56:30.637Z</time>
      </trkpt>
      <trkpt lat="47.6957095" lon="-1.8992985">
        <ele>5.670</ele>
        <time>2018-08-28T12:56:33.662Z</time>
      </trkpt>
      <trkpt lat="47.6957498" lon="-1.8991467">
        <ele>5.332</ele>
        <time>2018-08-28T12:56:36.681Z</time>
      </trkpt>
      <trkpt lat="47.6957908" lon="-1.8989821">
        <ele>5.064</ele>
        <time>2018-08-28T12:56:39.846Z</time>
      </trkpt>
      <trkpt lat="47.6958283" lon="-1.8988089">
        <ele>4.901</ele>
        <time>2018-08-28T12:56:43.040Z</time>
      </trkpt>
      <trkpt lat="47.6958614" lon="-1.8986444">
        <ele>4.916</ele>
        <time>2018-08-28T12:56:46.034Z</time>
      </trkpt>
      <trkpt lat="47.6958927" lon="-1.8984867">
        <ele>5.072</ele>
        <time>2018-08-28T12:56:48.927Z</time>
      </trkpt>
      <trkpt lat="47.6959292" lon="-1.8983355">
        <ele>5.104</ele>
        <time>2018-08-28T12:56:51.807Z</time>
      </trkpt>
      <trkpt lat="47.6959703" lon="-1.8981920">
        <ele>4.790</ele>
        <time>2018-08-28T12:56:54.666Z</time>
      </trkpt>
      <trkpt lat="47.6959956" lon="-1.8980362">
        <ele>4.213</ele>
        <time>2018-08-28T12:56:57.638Z</time>
      </trkpt>
      <trkpt lat="47.6960205" lon="-1.8978761">
        <ele>3.606</ele>
        <time>2018-08-28T12:57:00.676Z</time>
      </trkpt>
      <trkpt lat="47.6960486" lon="-1.8977146">
        <ele>3.130</ele>
        <time>2018-08-28T12:57:03.735Z</time>
      </trkpt>
      <trkpt lat="47.6960743" lon="-1.8975557">
        <ele>2.863</ele>
        <time>2018-08-28T12:57:06.715Z</time>
      </trkpt>
      <trkpt lat="47.6960905" lon="-1.8973902">
        <ele>2.820</ele>
        <time>2018-08-28T12:57:09.754Z</time>
      </trkpt>
      <trkpt lat="47.6961057" lon="-1.8972255">
        <ele>2.933</ele>
        <time>2018-08-28T12:57:12.753Z</time>
      </trkpt>
      <trkpt lat="47.6961275" lon="-1.8970573">
        <ele>3.032</ele>
        <time>2018-08-28T12:57:15.802Z</time>
      </trkpt>
      <trkpt lat="47.6961520" lon="-1.8968881">
        <ele>2.975</ele>
        <time>2018-08-28T12:57:18.854Z</time>
      </trkpt>
      <trkpt lat="47.6961749" lon="-1.8967239">
        <ele>2.800</ele>
        <time>2018-08-28T12:57:21.803Z</time>
      </trkpt>
      <trkpt lat="47.6961977" lon="-1.8965573">
        <ele>2.622</ele>
        <time>2018-08-28T12:57:24.795Z</time>
      </trkpt>
      <trkpt lat="47.6962241" lon="-1.8963935">
        <ele>2.471</ele>
        <time>2018-08-28T12:57:27.759Z</time>
      </trkpt>
      <trkpt lat="47.6962488" lon="-1.8962332">
        <ele>2.290</ele>
        <time>2018-08-28T12:57:30.682Z</time>
      </trkpt>
      <trkpt lat="47.6962716" lon="-1.8960794">
        <ele>2.072</ele>
        <time>2018-08-28T12:57:33.553Z</time>
      </trkpt>
      <trkpt lat="47.6962925" lon="-1.8959407">
        <ele>1.908</ele>
        <time>2018-08-28T12:57:36.238Z</time>
      </trkpt>
      <trkpt lat="47.6963116" lon="-1.8958005">
        <ele>1.879</ele>
        <time>2018-08-28T12:57:39.044Z</time>
      </trkpt>
      <trkpt lat="47.6963351" lon="-1.8956657">
        <ele>1.987</ele>
        <time>2018-08-28T12:57:41.840Z</time>
      </trkpt>
      <trkpt lat="47.6963706" lon="-1.8955270">
        <ele>2.191</ele>
        <time>2018-08-28T12:57:44.833Z</time>
      </trkpt>
      <trkpt lat="47.6963986" lon="-1.8953810">
        <ele>2.542</ele>
        <time>2018-08-28T12:57:47.870Z</time>
      </trkpt>
      <trkpt lat="47.6964213" lon="-1.8952333">
        <ele>3.054</ele>
        <time>2018-08-28T12:57:50.883Z</time>
      </trkpt>
      <trkpt lat="47.6964495" lon="-1.8950928">
        <ele>3.553</ele>
        <time>2018-08-28T12:57:53.812Z</time>
      </trkpt>
      <trkpt lat="47.6964676" lon="-1.8949573">
        <ele>3.835</ele>
        <time>2018-08-28T12:57:56.634Z</time>
      </trkpt>
      <trkpt lat="47.6964863" lon="-1.8947822">
        <ele>3.868</ele>
        <time>2018-08-28T12:58:00.382Z</time>
      </trkpt>
      <trkpt lat="47.6965082" lon="-1.8946473">
        <ele>3.658</ele>
        <time>2018-08-28T12:58:03.406Z</time>
      </trkpt>
      <trkpt lat="47.6965502" lon="-1.8945201">
        <ele>3.224</ele>
        <time>2018-08-28T12:58:06.527Z</time>
      </trkpt>
      <trkpt lat="47.6966159" lon="-1.8943833">
        <ele>2.601</ele>
        <time>2018-08-28T12:58:10.305Z</time>
      </trkpt>
      <trkpt lat="47.6966343" lon="-1.8942292">
        <ele>1.888</ele>
        <time>2018-08-28T12:58:14.000Z</time>
      </trkpt>
      <trkpt lat="47.6966343" lon="-1.8942292">
        <ele>1.282</ele>
        <time>2018-08-28T12:58:14.000Z</time>
      </trkpt>
      <trkpt lat="47.6966343" lon="-1.8942292">
        <ele>1.001</ele>
        <time>2018-08-28T12:59:52.353Z</time>
      </trkpt>
      <trkpt lat="47.6965770" lon="-1.8939549">
        <ele>1.116</ele>
        <time>2018-08-28T13:00:08.111Z</time>
      </trkpt>
      <trkpt lat="47.6965584" lon="-1.8938082">
        <ele>1.392</ele>
        <time>2018-08-28T13:00:11.983Z</time>
      </trkpt>
      <trkpt lat="47.6965606" lon="-1.8936444">
        <ele>1.601</ele>
        <time>2018-08-28T13:00:15.751Z</time>
      </trkpt>
      <trkpt lat="47.6965671" lon="-1.8934662">
        <ele>2.157</ele>
        <time>2018-08-28T13:00:19.531Z</time>
      </trkpt>
      <trkpt lat="47.6965821" lon="-1.8933323">
        <ele>3.295</ele>
        <time>2018-08-28T13:00:22.295Z</time>
      </trkpt>
      <trkpt lat="47.6965805" lon="-1.8931906">
        <ele>4.334</ele>
        <time>2018-08-28T13:00:25.132Z</time>
      </trkpt>
      <trkpt lat="47.6965789" lon="-1.8930531">
        <ele>4.753</ele>
        <time>2018-08-28T13:00:27.936Z</time>
      </trkpt>
      <trkpt lat="47.6965931" lon="-1.8928953">
        <ele>4.751</ele>
        <time>2018-08-28T13:00:31.266Z</time>
      </trkpt>
      <trkpt lat="47.6965901" lon="-1.8927295">
        <ele>4.556</ele>
        <time>2018-08-28T13:00:34.796Z</time>
      </trkpt>
      <trkpt lat="47.6965865" lon="-1.8925930">
        <ele>4.232</ele>
        <time>2018-08-28T13:00:37.689Z</time>
      </trkpt>
      <trkpt lat="47.6965696" lon="-1.8924497">
        <ele>3.898</ele>
        <time>2018-08-28T13:00:40.721Z</time>
      </trkpt>
      <trkpt lat="47.6965621" lon="-1.8923104">
        <ele>3.704</ele>
        <time>2018-08-28T13:00:43.594Z</time>
      </trkpt>
      <trkpt lat="47.6965544" lon="-1.8921763">
        <ele>3.663</ele>
        <time>2018-08-28T13:00:46.350Z</time>
      </trkpt>
      <trkpt lat="47.6965535" lon="-1.8920395">
        <ele>3.657</ele>
        <time>2018-08-28T13:00:49.131Z</time>
      </trkpt>
      <trkpt lat="47.6965591" lon="-1.8918986">
        <ele>3.600</ele>
        <time>2018-08-28T13:00:51.967Z</time>
      </trkpt>
      <trkpt lat="47.6965605" lon="-1.8917556">
        <ele>3.539</ele>
        <time>2018-08-28T13:00:54.804Z</time>
      </trkpt>
      <trkpt lat="47.6965709" lon="-1.8916201">
        <ele>3.559</ele>
        <time>2018-08-28T13:00:57.500Z</time>
      </trkpt>
      <trkpt lat="47.6965789" lon="-1.8914456">
        <ele>3.624</ele>
        <time>2018-08-28T13:01:01.000Z</time>
      </trkpt>
      <trkpt lat="47.6965789" lon="-1.8914456">
        <ele>3.652</ele>
        <time>2018-08-28T13:01:01.000Z</time>
      </trkpt>
      <trkpt lat="47.6965789" lon="-1.8914456">
        <ele>3.640</ele>
        <time>2018-08-28T13:01:02.919Z</time>
      </trkpt>
      <trkpt lat="47.6965567" lon="-1.8911762">
        <ele>3.626</ele>
        <time>2018-08-28T13:01:18.573Z</time>
      </trkpt>
      <trkpt lat="47.6966019" lon="-1.8913025">
        <ele>3.416</ele>
        <time>2018-08-28T13:01:23.239Z</time>
      </trkpt>
      <trkpt lat="47.6965638" lon="-1.8914277">
        <ele>2.867</ele>
        <time>2018-08-28T13:01:27.000Z</time>
      </trkpt>
      <trkpt lat="47.6965638" lon="-1.8914277">
        <ele>2.293</ele>
        <time>2018-08-28T13:01:39.000Z</time>
      </trkpt>
      <trkpt lat="47.6965638" lon="-1.8914277">
        <ele>2.055</ele>
        <time>2018-08-28T13:02:24.596Z</time>
      </trkpt>
      <trkpt lat="47.6965872" lon="-1.8912073">
        <ele>2.094</ele>
        <time>2018-08-28T13:02:35.019Z</time>
      </trkpt>
      <trkpt lat="47.6965619" lon="-1.8910618">
        <ele>2.147</ele>
        <time>2018-08-28T13:02:39.090Z</time>
      </trkpt>
      <trkpt lat="47.6965305" lon="-1.8909190">
        <ele>2.022</ele>
        <time>2018-08-28T13:02:43.089Z</time>
      </trkpt>
      <trkpt lat="47.6964717" lon="-1.8907693">
        <ele>1.818</ele>
        <time>2018-08-28T13:02:47.613Z</time>
      </trkpt>
      <trkpt lat="47.6964018" lon="-1.8906804">
        <ele>1.801</ele>
        <time>2018-08-28T13:02:51.019Z</time>
      </trkpt>
      <trkpt lat="47.6963131" lon="-1.8906033">
        <ele>2.028</ele>
        <time>2018-08-28T13:02:54.737Z</time>
      </trkpt>
      <trkpt lat="47.6962233" lon="-1.8905293">
        <ele>2.303</ele>
        <time>2018-08-28T13:02:58.475Z</time>
      </trkpt>
      <trkpt lat="47.6961321" lon="-1.8904561">
        <ele>2.295</ele>
        <time>2018-08-28T13:03:02.333Z</time>
      </trkpt>
      <trkpt lat="47.6960460" lon="-1.8903881">
        <ele>1.745</ele>
        <time>2018-08-28T13:03:06.011Z</time>
      </trkpt>
      <trkpt lat="47.6959640" lon="-1.8903139">
        <ele>0.874</ele>
        <time>2018-08-28T13:03:09.625Z</time>
      </trkpt>
      <trkpt lat="47.6958860" lon="-1.8902287">
        <ele>0.265</ele>
        <time>2018-08-28T13:03:13.194Z</time>
      </trkpt>
      <trkpt lat="47.6958085" lon="-1.8901392">
        <ele>0.182</ele>
        <time>2018-08-28T13:03:16.703Z</time>
      </trkpt>
      <trkpt lat="47.6957370" lon="-1.8900415">
        <ele>0.424</ele>
        <time>2018-08-28T13:03:20.160Z</time>
      </trkpt>
      <trkpt lat="47.6956680" lon="-1.8899324">
        <ele>0.745</ele>
        <time>2018-08-28T13:03:23.716Z</time>
      </trkpt>
      <trkpt lat="47.6956002" lon="-1.8897998">
        <ele>1.204</ele>
        <time>2018-08-28T13:03:27.559Z</time>
      </trkpt>
      <trkpt lat="47.6955638" lon="-1.8896462">
        <ele>1.824</ele>
        <time>2018-08-28T13:03:31.285Z</time>
      </trkpt>
      <trkpt lat="47.6955547" lon="-1.8894930">
        <ele>2.308</ele>
        <time>2018-08-28T13:03:34.862Z</time>
      </trkpt>
      <trkpt lat="47.6955568" lon="-1.8893277">
        <ele>2.384</ele>
        <time>2018-08-28T13:03:38.768Z</time>
      </trkpt>
      <trkpt lat="47.6955730" lon="-1.8891661">
        <ele>2.139</ele>
        <time>2018-08-28T13:03:42.668Z</time>
      </trkpt>
      <trkpt lat="47.6956122" lon="-1.8890177">
        <ele>1.917</ele>
        <time>2018-08-28T13:03:46.547Z</time>
      </trkpt>
      <trkpt lat="47.6956715" lon="-1.8888859">
        <ele>1.937</ele>
        <time>2018-08-28T13:03:50.498Z</time>
      </trkpt>
      <trkpt lat="47.6957408" lon="-1.8887714">
        <ele>2.078</ele>
        <time>2018-08-28T13:03:54.238Z</time>
      </trkpt>
      <trkpt lat="47.6957988" lon="-1.8886471">
        <ele>2.158</ele>
        <time>2018-08-28T13:03:57.750Z</time>
      </trkpt>
      <trkpt lat="47.6958423" lon="-1.8885119">
        <ele>2.141</ele>
        <time>2018-08-28T13:04:01.131Z</time>
      </trkpt>
      <trkpt lat="47.6958966" lon="-1.8883890">
        <ele>1.966</ele>
        <time>2018-08-28T13:04:04.404Z</time>
      </trkpt>
      <trkpt lat="47.6959456" lon="-1.8882694">
        <ele>1.565</ele>
        <time>2018-08-28T13:04:07.518Z</time>
      </trkpt>
      <trkpt lat="47.6959775" lon="-1.8881280">
        <ele>1.053</ele>
        <time>2018-08-28T13:04:10.870Z</time>
      </trkpt>
      <trkpt lat="47.6960120" lon="-1.8879648">
        <ele>0.693</ele>
        <time>2018-08-28T13:04:14.842Z</time>
      </trkpt>
      <trkpt lat="47.6960441" lon="-1.8877953">
        <ele>0.659</ele>
        <time>2018-08-28T13:04:19.068Z</time>
      </trkpt>
      <trkpt lat="47.6960953" lon="-1.8876449">
        <ele>0.991</ele>
        <time>2018-08-28T13:04:23.191Z</time>
      </trkpt>
      <trkpt lat="47.6961477" lon="-1.8874965">
        <ele>1.556</ele>
        <time>2018-08-28T13:04:27.262Z</time>
      </trkpt>
      <trkpt lat="47.6962008" lon="-1.8873489">
        <ele>2.090</ele>
        <time>2018-08-28T13:04:31.280Z</time>
      </trkpt>
      <trkpt lat="47.6962517" lon="-1.8872009">
        <ele>2.408</ele>
        <time>2018-08-28T13:04:35.276Z</time>
      </trkpt>
      <trkpt lat="47.6962886" lon="-1.8870599">
        <ele>2.543</ele>
        <time>2018-08-28T13:04:38.910Z</time>
      </trkpt>
      <trkpt lat="47.6963145" lon="-1.8869116">
        <ele>2.616</ele>
        <time>2018-08-28T13:04:42.565Z</time>
      </trkpt>
      <trkpt lat="47.6963480" lon="-1.8867750">
        <ele>2.764</ele>
        <time>2018-08-28T13:04:46.000Z</time>
      </trkpt>
      <trkpt lat="47.6963818" lon="-1.8866349">
        <ele>3.012</ele>
        <time>2018-08-28T13:04:49.499Z</time>
      </trkpt>
      <trkpt lat="47.6964018" lon="-1.8864861">
        <ele>3.032</ele>
        <time>2018-08-28T13:04:53.063Z</time>
      </trkpt>
      <trkpt lat="47.6964127" lon="-1.8863292">
        <ele>2.536</ele>
        <time>2018-08-28T13:04:56.819Z</time>
      </trkpt>
      <trkpt lat="47.6964204" lon="-1.8861649">
        <ele>1.824</ele>
        <time>2018-08-28T13:05:00.741Z</time>
      </trkpt>
      <trkpt lat="47.6964219" lon="-1.8860178">
        <ele>1.469</ele>
        <time>2018-08-28T13:05:04.203Z</time>
      </trkpt>
      <trkpt lat="47.6964147" lon="-1.8858638">
        <ele>1.610</ele>
        <time>2018-08-28T13:05:07.759Z</time>
      </trkpt>
      <trkpt lat="47.6964056" lon="-1.8857083">
        <ele>1.896</ele>
        <time>2018-08-28T13:05:11.292Z</time>
      </trkpt>
      <trkpt lat="47.6963923" lon="-1.8855493">
        <ele>1.994</ele>
        <time>2018-08-28T13:05:14.896Z</time>
      </trkpt>
      <trkpt lat="47.6963773" lon="-1.8853917">
        <ele>1.886</ele>
        <time>2018-08-28T13:05:18.472Z</time>
      </trkpt>
      <trkpt lat="47.6963554" lon="-1.8852370">
        <ele>1.698</ele>
        <time>2018-08-28T13:05:22.046Z</time>
      </trkpt>
      <trkpt lat="47.6963321" lon="-1.8850802">
        <ele>1.581</ele>
        <time>2018-08-28T13:05:25.703Z</time>
      </trkpt>
      <trkpt lat="47.6963123" lon="-1.8849338">
        <ele>1.595</ele>
        <time>2018-08-28T13:05:29.125Z</time>
      </trkpt>
      <trkpt lat="47.6962905" lon="-1.8847855">
        <ele>1.664</ele>
        <time>2018-08-28T13:05:32.630Z</time>
      </trkpt>
      <trkpt lat="47.6962579" lon="-1.8846352">
        <ele>1.711</ele>
        <time>2018-08-28T13:05:36.269Z</time>
      </trkpt>
      <trkpt lat="47.6962223" lon="-1.8844842">
        <ele>1.742</ele>
        <time>2018-08-28T13:05:39.912Z</time>
      </trkpt>
      <trkpt lat="47.6961827" lon="-1.8843312">
        <ele>1.810</ele>
        <time>2018-08-28T13:05:43.626Z</time>
      </trkpt>
      <trkpt lat="47.6961391" lon="-1.8841794">
        <ele>2.033</ele>
        <time>2018-08-28T13:05:47.386Z</time>
      </trkpt>
      <trkpt lat="47.6960931" lon="-1.8840331">
        <ele>2.427</ele>
        <time>2018-08-28T13:05:51.071Z</time>
      </trkpt>
      <trkpt lat="47.6960408" lon="-1.8838897">
        <ele>2.963</ele>
        <time>2018-08-28T13:05:54.820Z</time>
      </trkpt>
      <trkpt lat="47.6959854" lon="-1.8837486">
        <ele>3.631</ele>
        <time>2018-08-28T13:05:58.631Z</time>
      </trkpt>
      <trkpt lat="47.6959252" lon="-1.8836108">
        <ele>4.259</ele>
        <time>2018-08-28T13:06:02.533Z</time>
      </trkpt>
      <trkpt lat="47.6958684" lon="-1.8834727">
        <ele>4.627</ele>
        <time>2018-08-28T13:06:06.315Z</time>
      </trkpt>
      <trkpt lat="47.6958104" lon="-1.8833325">
        <ele>4.779</ele>
        <time>2018-08-28T13:06:10.079Z</time>
      </trkpt>
      <trkpt lat="47.6957578" lon="-1.8831919">
        <ele>4.845</ele>
        <time>2018-08-28T13:06:13.727Z</time>
      </trkpt>
      <trkpt lat="47.6957135" lon="-1.8830543">
        <ele>4.860</ele>
        <time>2018-08-28T13:06:17.214Z</time>
      </trkpt>
      <trkpt lat="47.6956661" lon="-1.8829058">
        <ele>4.817</ele>
        <time>2018-08-28T13:06:20.995Z</time>
      </trkpt>
      <trkpt lat="47.6956274" lon="-1.8827526">
        <ele>4.775</ele>
        <time>2018-08-28T13:06:24.756Z</time>
      </trkpt>
      <trkpt lat="47.6955990" lon="-1.8825940">
        <ele>4.779</ele>
        <time>2018-08-28T13:06:28.531Z</time>
      </trkpt>
      <trkpt lat="47.6955844" lon="-1.8824426">
        <ele>4.800</ele>
        <time>2018-08-28T13:06:32.077Z</time>
      </trkpt>
      <trkpt lat="47.6955670" lon="-1.8822797">
        <ele>4.718</ele>
        <time>2018-08-28T13:06:35.894Z</time>
      </trkpt>
      <trkpt lat="47.6955570" lon="-1.8821232">
        <ele>4.377</ele>
        <time>2018-08-28T13:06:39.508Z</time>
      </trkpt>
      <trkpt lat="47.6955572" lon="-1.8819653">
        <ele>3.634</ele>
        <time>2018-08-28T13:06:43.140Z</time>
      </trkpt>
      <trkpt lat="47.6955634" lon="-1.8818157">
        <ele>2.508</ele>
        <time>2018-08-28T13:06:46.589Z</time>
      </trkpt>
      <trkpt lat="47.6955707" lon="-1.8816665">
        <ele>1.308</ele>
        <time>2018-08-28T13:06:50.023Z</time>
      </trkpt>
      <trkpt lat="47.6955826" lon="-1.8815084">
        <ele>0.390</ele>
        <time>2018-08-28T13:06:53.684Z</time>
      </trkpt>
      <trkpt lat="47.6955889" lon="-1.8813379">
        <ele>0.000</ele>
        <time>2018-08-28T13:06:57.653Z</time>
      </trkpt>
      <trkpt lat="47.6955936" lon="-1.8811715">
        <ele>0.000</ele>
        <time>2018-08-28T13:07:01.591Z</time>
      </trkpt>
      <trkpt lat="47.6956008" lon="-1.8810081">
        <ele>0.000</ele>
        <time>2018-08-28T13:07:05.485Z</time>
      </trkpt>
      <trkpt lat="47.6956048" lon="-1.8808453">
        <ele>0.000</ele>
        <time>2018-08-28T13:07:09.359Z</time>
      </trkpt>
      <trkpt lat="47.6956126" lon="-1.8806941">
        <ele>0.000</ele>
        <time>2018-08-28T13:07:12.992Z</time>
      </trkpt>
      <trkpt lat="47.6956201" lon="-1.8805353">
        <ele>0.000</ele>
        <time>2018-08-28T13:07:16.844Z</time>
      </trkpt>
      <trkpt lat="47.6956256" lon="-1.8803770">
        <ele>0.000</ele>
        <time>2018-08-28T13:07:20.630Z</time>
      </trkpt>
      <trkpt lat="47.6956242" lon="-1.8802149">
        <ele>0.000</ele>
        <time>2018-08-28T13:07:24.464Z</time>
      </trkpt>
      <trkpt lat="47.6956241" lon="-1.8800562">
        <ele>0.000</ele>
        <time>2018-08-28T13:07:28.218Z</time>
      </trkpt>
      <trkpt lat="47.6956330" lon="-1.8798989">
        <ele>0.000</ele>
        <time>2018-08-28T13:07:31.957Z</time>
      </trkpt>
      <trkpt lat="47.6956365" lon="-1.8797349">
        <ele>0.000</ele>
        <time>2018-08-28T13:07:35.920Z</time>
      </trkpt>
      <trkpt lat="47.6956286" lon="-1.8795726">
        <ele>0.000</ele>
        <time>2018-08-28T13:07:39.977Z</time>
      </trkpt>
      <trkpt lat="47.6956225" lon="-1.8794120">
        <ele>0.000</ele>
        <time>2018-08-28T13:07:44.035Z</time>
      </trkpt>
      <trkpt lat="47.6956173" lon="-1.8792527">
        <ele>0.000</ele>
        <time>2018-08-28T13:07:48.000Z</time>
      </trkpt>
      <trkpt lat="47.6956130" lon="-1.8790924">
        <ele>0.000</ele>
        <time>2018-08-28T13:07:51.918Z</time>
      </trkpt>
      <trkpt lat="47.6956106" lon="-1.8789355">
        <ele>0.000</ele>
        <time>2018-08-28T13:07:55.710Z</time>
      </trkpt>
      <trkpt lat="47.6956052" lon="-1.8787759">
        <ele>0.000</ele>
        <time>2018-08-28T13:07:59.574Z</time>
      </trkpt>
      <trkpt lat="47.6956009" lon="-1.8786194">
        <ele>0.000</ele>
        <time>2018-08-28T13:08:03.432Z</time>
      </trkpt>
      <trkpt lat="47.6956045" lon="-1.8784699">
        <ele>0.000</ele>
        <time>2018-08-28T13:08:07.123Z</time>
      </trkpt>
      <trkpt lat="47.6956203" lon="-1.8783197">
        <ele>0.000</ele>
        <time>2018-08-28T13:08:10.815Z</time>
      </trkpt>
      <trkpt lat="47.6956382" lon="-1.8781659">
        <ele>0.000</ele>
        <time>2018-08-28T13:08:14.518Z</time>
      </trkpt>
      <trkpt lat="47.6956656" lon="-1.8780099">
        <ele>0.000</ele>
        <time>2018-08-28T13:08:18.252Z</time>
      </trkpt>
      <trkpt lat="47.6957040" lon="-1.8778662">
        <ele>0.000</ele>
        <time>2018-08-28T13:08:21.772Z</time>
      </trkpt>
      <trkpt lat="47.6957553" lon="-1.8777352">
        <ele>0.000</ele>
        <time>2018-08-28T13:08:25.211Z</time>
      </trkpt>
      <trkpt lat="47.6958091" lon="-1.8776038">
        <ele>0.000</ele>
        <time>2018-08-28T13:08:28.741Z</time>
      </trkpt>
      <trkpt lat="47.6958707" lon="-1.8774729">
        <ele>0.000</ele>
        <time>2018-08-28T13:08:32.472Z</time>
      </trkpt>
      <trkpt lat="47.6959364" lon="-1.8773517">
        <ele>0.000</ele>
        <time>2018-08-28T13:08:36.122Z</time>
      </trkpt>
      <trkpt lat="47.6960029" lon="-1.8772320">
        <ele>0.000</ele>
        <time>2018-08-28T13:08:39.768Z</time>
      </trkpt>
      <trkpt lat="47.6960931" lon="-1.8771385">
        <ele>0.000</ele>
        <time>2018-08-28T13:08:43.601Z</time>
      </trkpt>
      <trkpt lat="47.6961742" lon="-1.8770429">
        <ele>0.000</ele>
        <time>2018-08-28T13:08:47.268Z</time>
      </trkpt>
      <trkpt lat="47.6962431" lon="-1.8769481">
        <ele>0.000</ele>
        <time>2018-08-28T13:08:50.700Z</time>
      </trkpt>
      <trkpt lat="47.6963092" lon="-1.8768467">
        <ele>0.000</ele>
        <time>2018-08-28T13:08:54.241Z</time>
      </trkpt>
      <trkpt lat="47.6963777" lon="-1.8767427">
        <ele>0.265</ele>
        <time>2018-08-28T13:08:57.923Z</time>
      </trkpt>
      <trkpt lat="47.6964443" lon="-1.8766283">
        <ele>0.494</ele>
        <time>2018-08-28T13:09:01.724Z</time>
      </trkpt>
      <trkpt lat="47.6965138" lon="-1.8765124">
        <ele>0.609</ele>
        <time>2018-08-28T13:09:05.515Z</time>
      </trkpt>
      <trkpt lat="47.6965818" lon="-1.8763927">
        <ele>0.539</ele>
        <time>2018-08-28T13:09:09.246Z</time>
      </trkpt>
      <trkpt lat="47.6966450" lon="-1.8762704">
        <ele>0.513</ele>
        <time>2018-08-28T13:09:12.857Z</time>
      </trkpt>
      <trkpt lat="47.6967103" lon="-1.8761520">
        <ele>0.852</ele>
        <time>2018-08-28T13:09:16.459Z</time>
      </trkpt>
      <trkpt lat="47.6967756" lon="-1.8760428">
        <ele>1.475</ele>
        <time>2018-08-28T13:09:19.900Z</time>
      </trkpt>
      <trkpt lat="47.6968365" lon="-1.8759319">
        <ele>1.926</ele>
        <time>2018-08-28T13:09:23.228Z</time>
      </trkpt>
      <trkpt lat="47.6969066" lon="-1.8758178">
        <ele>1.932</ele>
        <time>2018-08-28T13:09:26.781Z</time>
      </trkpt>
      <trkpt lat="47.6969831" lon="-1.8757134">
        <ele>1.652</ele>
        <time>2018-08-28T13:09:30.316Z</time>
      </trkpt>
      <trkpt lat="47.6970634" lon="-1.8756028">
        <ele>1.478</ele>
        <time>2018-08-28T13:09:34.044Z</time>
      </trkpt>
      <trkpt lat="47.6971421" lon="-1.8754963">
        <ele>1.632</ele>
        <time>2018-08-28T13:09:37.695Z</time>
      </trkpt>
      <trkpt lat="47.6972217" lon="-1.8753876">
        <ele>2.004</ele>
        <time>2018-08-28T13:09:41.511Z</time>
      </trkpt>
      <trkpt lat="47.6973070" lon="-1.8752832">
        <ele>2.319</ele>
        <time>2018-08-28T13:09:45.495Z</time>
      </trkpt>
      <trkpt lat="47.6973889" lon="-1.8751722">
        <ele>2.437</ele>
        <time>2018-08-28T13:09:49.602Z</time>
      </trkpt>
      <trkpt lat="47.6974653" lon="-1.8750638">
        <ele>2.444</ele>
        <time>2018-08-28T13:09:53.550Z</time>
      </trkpt>
      <trkpt lat="47.6975509" lon="-1.8749769">
        <ele>2.478</ele>
        <time>2018-08-28T13:09:57.338Z</time>
      </trkpt>
      <trkpt lat="47.6976409" lon="-1.8748989">
        <ele>2.561</ele>
        <time>2018-08-28T13:10:01.121Z</time>
      </trkpt>
      <trkpt lat="47.6977351" lon="-1.8748131">
        <ele>2.540</ele>
        <time>2018-08-28T13:10:05.157Z</time>
      </trkpt>
      <trkpt lat="47.6978210" lon="-1.8747271">
        <ele>2.306</ele>
        <time>2018-08-28T13:10:08.914Z</time>
      </trkpt>
      <trkpt lat="47.6979096" lon="-1.8746388">
        <ele>2.196</ele>
        <time>2018-08-28T13:10:12.718Z</time>
      </trkpt>
      <trkpt lat="47.6979960" lon="-1.8745534">
        <ele>2.495</ele>
        <time>2018-08-28T13:10:16.294Z</time>
      </trkpt>
      <trkpt lat="47.6980757" lon="-1.8744701">
        <ele>3.000</ele>
        <time>2018-08-28T13:10:19.522Z</time>
      </trkpt>
      <trkpt lat="47.6981576" lon="-1.8743780">
        <ele>3.451</ele>
        <time>2018-08-28T13:10:22.799Z</time>
      </trkpt>
      <trkpt lat="47.6982362" lon="-1.8742986">
        <ele>3.752</ele>
        <time>2018-08-28T13:10:25.721Z</time>
      </trkpt>
      <trkpt lat="47.6983199" lon="-1.8742242">
        <ele>3.984</ele>
        <time>2018-08-28T13:10:28.687Z</time>
      </trkpt>
      <trkpt lat="47.6984004" lon="-1.8741566">
        <ele>4.286</ele>
        <time>2018-08-28T13:10:31.592Z</time>
      </trkpt>
      <trkpt lat="47.6984909" lon="-1.8740765">
        <ele>4.475</ele>
        <time>2018-08-28T13:10:35.095Z</time>
      </trkpt>
      <trkpt lat="47.6985838" lon="-1.8739849">
        <ele>4.286</ele>
        <time>2018-08-28T13:10:38.982Z</time>
      </trkpt>
      <trkpt lat="47.6986714" lon="-1.8738869">
        <ele>3.777</ele>
        <time>2018-08-28T13:10:42.825Z</time>
      </trkpt>
      <trkpt lat="47.6987584" lon="-1.8737859">
        <ele>3.158</ele>
        <time>2018-08-28T13:10:46.722Z</time>
      </trkpt>
      <trkpt lat="47.6988423" lon="-1.8737009">
        <ele>2.584</ele>
        <time>2018-08-28T13:10:50.392Z</time>
      </trkpt>
      <trkpt lat="47.6989319" lon="-1.8736116">
        <ele>2.048</ele>
        <time>2018-08-28T13:10:54.439Z</time>
      </trkpt>
      <trkpt lat="47.6990247" lon="-1.8735196">
        <ele>1.510</ele>
        <time>2018-08-28T13:10:58.837Z</time>
      </trkpt>
      <trkpt lat="47.6991202" lon="-1.8734371">
        <ele>1.100</ele>
        <time>2018-08-28T13:11:03.295Z</time>
      </trkpt>
      <trkpt lat="47.6992156" lon="-1.8733564">
        <ele>1.115</ele>
        <time>2018-08-28T13:11:07.656Z</time>
      </trkpt>
      <trkpt lat="47.6993070" lon="-1.8732793">
        <ele>1.619</ele>
        <time>2018-08-28T13:11:11.832Z</time>
      </trkpt>
      <trkpt lat="47.6994027" lon="-1.8731996">
        <ele>2.316</ele>
        <time>2018-08-28T13:11:16.324Z</time>
      </trkpt>
      <trkpt lat="47.6994986" lon="-1.8731234">
        <ele>2.968</ele>
        <time>2018-08-28T13:11:20.915Z</time>
      </trkpt>
      <trkpt lat="47.6995844" lon="-1.8730491">
        <ele>3.590</ele>
        <time>2018-08-28T13:11:25.128Z</time>
      </trkpt>
      <trkpt lat="47.6996712" lon="-1.8729616">
        <ele>4.097</ele>
        <time>2018-08-28T13:11:29.634Z</time>
      </trkpt>
      <trkpt lat="47.6997483" lon="-1.8728712">
        <ele>4.307</ele>
        <time>2018-08-28T13:11:33.821Z</time>
      </trkpt>
      <trkpt lat="47.6998168" lon="-1.8727782">
        <ele>4.050</ele>
        <time>2018-08-28T13:11:37.680Z</time>
      </trkpt>
      <trkpt lat="47.6998853" lon="-1.8726807">
        <ele>3.353</ele>
        <time>2018-08-28T13:11:41.698Z</time>
      </trkpt>
      <trkpt lat="47.6999598" lon="-1.8725669">
        <ele>2.544</ele>
        <time>2018-08-28T13:11:46.508Z</time>
      </trkpt>
      <trkpt lat="47.7000349" lon="-1.8724559">
        <ele>1.984</ele>
        <time>2018-08-28T13:11:51.299Z</time>
      </trkpt>
      <trkpt lat="47.7001107" lon="-1.8723474">
        <ele>1.765</ele>
        <time>2018-08-28T13:11:55.653Z</time>
      </trkpt>
      <trkpt lat="47.7001810" lon="-1.8722476">
        <ele>1.769</ele>
        <time>2018-08-28T13:11:59.323Z</time>
      </trkpt>
      <trkpt lat="47.7002598" lon="-1.8721494">
        <ele>1.822</ele>
        <time>2018-08-28T13:12:02.977Z</time>
      </trkpt>
      <trkpt lat="47.7003227" lon="-1.8720285">
        <ele>1.826</ele>
        <time>2018-08-28T13:12:06.527Z</time>
      </trkpt>
      <trkpt lat="47.7003866" lon="-1.8719047">
        <ele>1.709</ele>
        <time>2018-08-28T13:12:10.196Z</time>
      </trkpt>
      <trkpt lat="47.7004506" lon="-1.8717658">
        <ele>1.467</ele>
        <time>2018-08-28T13:12:14.253Z</time>
      </trkpt>
      <trkpt lat="47.7005129" lon="-1.8716159">
        <ele>1.262</ele>
        <time>2018-08-28T13:12:18.611Z</time>
      </trkpt>
      <trkpt lat="47.7005583" lon="-1.8714510">
        <ele>1.239</ele>
        <time>2018-08-28T13:12:23.062Z</time>
      </trkpt>
      <trkpt lat="47.7006117" lon="-1.8712882">
        <ele>1.387</ele>
        <time>2018-08-28T13:12:27.438Z</time>
      </trkpt>
      <trkpt lat="47.7006748" lon="-1.8711243">
        <ele>1.638</ele>
        <time>2018-08-28T13:12:31.807Z</time>
      </trkpt>
      <trkpt lat="47.7007229" lon="-1.8709709">
        <ele>1.919</ele>
        <time>2018-08-28T13:12:35.631Z</time>
      </trkpt>
      <trkpt lat="47.7007761" lon="-1.8708428">
        <ele>2.206</ele>
        <time>2018-08-28T13:12:39.029Z</time>
      </trkpt>
      <trkpt lat="47.7008161" lon="-1.8707057">
        <ele>2.499</ele>
        <time>2018-08-28T13:12:42.470Z</time>
      </trkpt>
      <trkpt lat="47.7008490" lon="-1.8705576">
        <ele>2.868</ele>
        <time>2018-08-28T13:12:46.150Z</time>
      </trkpt>
      <trkpt lat="47.7008738" lon="-1.8703936">
        <ele>3.342</ele>
        <time>2018-08-28T13:12:50.165Z</time>
      </trkpt>
      <trkpt lat="47.7009156" lon="-1.8702529">
        <ele>3.794</ele>
        <time>2018-08-28T13:12:53.735Z</time>
      </trkpt>
      <trkpt lat="47.7009587" lon="-1.8701131">
        <ele>4.102</ele>
        <time>2018-08-28T13:12:57.170Z</time>
      </trkpt>
      <trkpt lat="47.7009925" lon="-1.8699738">
        <ele>4.291</ele>
        <time>2018-08-28T13:13:00.416Z</time>
      </trkpt>
      <trkpt lat="47.7010341" lon="-1.8698479">
        <ele>4.356</ele>
        <time>2018-08-28T13:13:03.533Z</time>
      </trkpt>
      <trkpt lat="47.7011092" lon="-1.8697231">
        <ele>4.261</ele>
        <time>2018-08-28T13:13:07.406Z</time>
      </trkpt>
      <trkpt lat="47.7011778" lon="-1.8696244">
        <ele>4.018</ele>
        <time>2018-08-28T13:13:10.888Z</time>
      </trkpt>
      <trkpt lat="47.7012362" lon="-1.8695073">
        <ele>3.738</ele>
        <time>2018-08-28T13:13:14.573Z</time>
      </trkpt>
      <trkpt lat="47.7012910" lon="-1.8693872">
        <ele>3.576</ele>
        <time>2018-08-28T13:13:18.220Z</time>
      </trkpt>
      <trkpt lat="47.7013436" lon="-1.8692700">
        <ele>3.654</ele>
        <time>2018-08-28T13:13:21.737Z</time>
      </trkpt>
      <trkpt lat="47.7013972" lon="-1.8691603">
        <ele>3.898</ele>
        <time>2018-08-28T13:13:25.044Z</time>
      </trkpt>
      <trkpt lat="47.7014458" lon="-1.8690187">
        <ele>4.083</ele>
        <time>2018-08-28T13:13:28.783Z</time>
      </trkpt>
      <trkpt lat="47.7014957" lon="-1.8688620">
        <ele>4.090</ele>
        <time>2018-08-28T13:13:32.725Z</time>
      </trkpt>
      <trkpt lat="47.7015415" lon="-1.8686997">
        <ele>4.022</ele>
        <time>2018-08-28T13:13:36.706Z</time>
      </trkpt>
      <trkpt lat="47.7015809" lon="-1.8685609">
        <ele>4.058</ele>
        <time>2018-08-28T13:13:40.201Z</time>
      </trkpt>
      <trkpt lat="47.7016314" lon="-1.8684403">
        <ele>4.239</ele>
        <time>2018-08-28T13:13:43.653Z</time>
      </trkpt>
      <trkpt lat="47.7016936" lon="-1.8683308">
        <ele>4.512</ele>
        <time>2018-08-28T13:13:47.137Z</time>
      </trkpt>
      <trkpt lat="47.7017502" lon="-1.8682209">
        <ele>4.817</ele>
        <time>2018-08-28T13:13:50.495Z</time>
      </trkpt>
      <trkpt lat="47.7018232" lon="-1.8681014">
        <ele>5.050</ele>
        <time>2018-08-28T13:13:54.592Z</time>
      </trkpt>
      <trkpt lat="47.7019058" lon="-1.8680307">
        <ele>5.119</ele>
        <time>2018-08-28T13:13:58.404Z</time>
      </trkpt>
      <trkpt lat="47.7019709" lon="-1.8678976">
        <ele>4.779</ele>
        <time>2018-08-28T13:14:02.651Z</time>
      </trkpt>
      <trkpt lat="47.7020105" lon="-1.8677676">
        <ele>3.831</ele>
        <time>2018-08-28T13:14:05.946Z</time>
      </trkpt>
      <trkpt lat="47.7020549" lon="-1.8676332">
        <ele>2.536</ele>
        <time>2018-08-28T13:14:09.170Z</time>
      </trkpt>
      <trkpt lat="47.7021051" lon="-1.8674972">
        <ele>1.278</ele>
        <time>2018-08-28T13:14:12.415Z</time>
      </trkpt>
      <trkpt lat="47.7021472" lon="-1.8673486">
        <ele>0.286</ele>
        <time>2018-08-28T13:14:15.846Z</time>
      </trkpt>
      <trkpt lat="47.7021808" lon="-1.8671912">
        <ele>0.000</ele>
        <time>2018-08-28T13:14:19.524Z</time>
      </trkpt>
      <trkpt lat="47.7022254" lon="-1.8670554">
        <ele>0.000</ele>
        <time>2018-08-28T13:14:23.010Z</time>
      </trkpt>
      <trkpt lat="47.7022748" lon="-1.8669266">
        <ele>0.000</ele>
        <time>2018-08-28T13:14:26.532Z</time>
      </trkpt>
      <trkpt lat="47.7023377" lon="-1.8668060">
        <ele>0.000</ele>
        <time>2018-08-28T13:14:30.252Z</time>
      </trkpt>
      <trkpt lat="47.7024098" lon="-1.8667083">
        <ele>0.000</ele>
        <time>2018-08-28T13:14:33.801Z</time>
      </trkpt>
      <trkpt lat="47.7024958" lon="-1.8666227">
        <ele>0.000</ele>
        <time>2018-08-28T13:14:37.519Z</time>
      </trkpt>
      <trkpt lat="47.7025820" lon="-1.8665462">
        <ele>0.000</ele>
        <time>2018-08-28T13:14:41.100Z</time>
      </trkpt>
      <trkpt lat="47.7026756" lon="-1.8664619">
        <ele>0.021</ele>
        <time>2018-08-28T13:14:45.080Z</time>
      </trkpt>
      <trkpt lat="47.7027601" lon="-1.8663494">
        <ele>0.473</ele>
        <time>2018-08-28T13:14:49.239Z</time>
      </trkpt>
      <trkpt lat="47.7028507" lon="-1.8662554">
        <ele>0.905</ele>
        <time>2018-08-28T13:14:53.305Z</time>
      </trkpt>
      <trkpt lat="47.7029615" lon="-1.8661924">
        <ele>1.418</ele>
        <time>2018-08-28T13:14:57.817Z</time>
      </trkpt>
      <trkpt lat="47.7030610" lon="-1.8661369">
        <ele>2.145</ele>
        <time>2018-08-28T13:15:02.053Z</time>
      </trkpt>
      <trkpt lat="47.7031598" lon="-1.8661038">
        <ele>2.922</ele>
        <time>2018-08-28T13:15:06.235Z</time>
      </trkpt>
      <trkpt lat="47.7032681" lon="-1.8661116">
        <ele>3.459</ele>
        <time>2018-08-28T13:15:10.769Z</time>
      </trkpt>
      <trkpt lat="47.7033687" lon="-1.8661167">
        <ele>3.604</ele>
        <time>2018-08-28T13:15:14.931Z</time>
      </trkpt>
      <trkpt lat="47.7034774" lon="-1.8661360">
        <ele>3.445</ele>
        <time>2018-08-28T13:15:19.358Z</time>
      </trkpt>
      <trkpt lat="47.7035954" lon="-1.8661533">
        <ele>3.223</ele>
        <time>2018-08-28T13:15:24.202Z</time>
      </trkpt>
      <trkpt lat="47.7037151" lon="-1.8661723">
        <ele>3.122</ele>
        <time>2018-08-28T13:15:29.141Z</time>
      </trkpt>
      <trkpt lat="47.7038318" lon="-1.8661850">
        <ele>3.190</ele>
        <time>2018-08-28T13:15:33.910Z</time>
      </trkpt>
      <trkpt lat="47.7039438" lon="-1.8662007">
        <ele>3.368</ele>
        <time>2018-08-28T13:15:38.458Z</time>
      </trkpt>
      <trkpt lat="47.7040465" lon="-1.8662193">
        <ele>3.523</ele>
        <time>2018-08-28T13:15:42.604Z</time>
      </trkpt>
      <trkpt lat="47.7041458" lon="-1.8662286">
        <ele>3.680</ele>
        <time>2018-08-28T13:15:46.470Z</time>
      </trkpt>
      <trkpt lat="47.7042370" lon="-1.8662437">
        <ele>3.927</ele>
        <time>2018-08-28T13:15:49.873Z</time>
      </trkpt>
      <trkpt lat="47.7043343" lon="-1.8662519">
        <ele>4.266</ele>
        <time>2018-08-28T13:15:53.394Z</time>
      </trkpt>
      <trkpt lat="47.7044426" lon="-1.8662478">
        <ele>4.691</ele>
        <time>2018-08-28T13:15:57.401Z</time>
      </trkpt>
      <trkpt lat="47.7045374" lon="-1.8662623">
        <ele>5.114</ele>
        <time>2018-08-28T13:16:01.025Z</time>
      </trkpt>
      <trkpt lat="47.7046370" lon="-1.8662674">
        <ele>5.366</ele>
        <time>2018-08-28T13:16:04.815Z</time>
      </trkpt>
      <trkpt lat="47.7047472" lon="-1.8662519">
        <ele>5.490</ele>
        <time>2018-08-28T13:16:09.093Z</time>
      </trkpt>
      <trkpt lat="47.7048587" lon="-1.8662433">
        <ele>5.615</ele>
        <time>2018-08-28T13:16:13.461Z</time>
      </trkpt>
      <trkpt lat="47.7049728" lon="-1.8662287">
        <ele>5.645</ele>
        <time>2018-08-28T13:16:17.803Z</time>
      </trkpt>
      <trkpt lat="47.7050782" lon="-1.8662218">
        <ele>5.425</ele>
        <time>2018-08-28T13:16:21.713Z</time>
      </trkpt>
      <trkpt lat="47.7051879" lon="-1.8662219">
        <ele>4.991</ele>
        <time>2018-08-28T13:16:25.828Z</time>
      </trkpt>
      <trkpt lat="47.7052808" lon="-1.8662180">
        <ele>4.510</ele>
        <time>2018-08-28T13:16:29.334Z</time>
      </trkpt>
      <trkpt lat="47.7053816" lon="-1.8661979">
        <ele>4.159</ele>
        <time>2018-08-28T13:16:33.145Z</time>
      </trkpt>
      <trkpt lat="47.7054913" lon="-1.8661596">
        <ele>4.068</ele>
        <time>2018-08-28T13:16:37.357Z</time>
      </trkpt>
      <trkpt lat="47.7055885" lon="-1.8661344">
        <ele>4.199</ele>
        <time>2018-08-28T13:16:41.106Z</time>
      </trkpt>
      <trkpt lat="47.7056883" lon="-1.8661167">
        <ele>4.282</ele>
        <time>2018-08-28T13:16:45.021Z</time>
      </trkpt>
      <trkpt lat="47.7057949" lon="-1.8660841">
        <ele>4.071</ele>
        <time>2018-08-28T13:16:49.337Z</time>
      </trkpt>
      <trkpt lat="47.7058870" lon="-1.8660369">
        <ele>3.630</ele>
        <time>2018-08-28T13:16:53.344Z</time>
      </trkpt>
      <trkpt lat="47.7060022" lon="-1.8659837">
        <ele>3.205</ele>
        <time>2018-08-28T13:16:58.518Z</time>
      </trkpt>
      <trkpt lat="47.7061121" lon="-1.8658999">
        <ele>2.960</ele>
        <time>2018-08-28T13:17:03.884Z</time>
      </trkpt>
      <trkpt lat="47.7062140" lon="-1.8657971">
        <ele>2.899</ele>
        <time>2018-08-28T13:17:09.168Z</time>
      </trkpt>
      <trkpt lat="47.7063090" lon="-1.8656911">
        <ele>2.872</ele>
        <time>2018-08-28T13:17:14.017Z</time>
      </trkpt>
      <trkpt lat="47.7063939" lon="-1.8655962">
        <ele>2.769</ele>
        <time>2018-08-28T13:17:18.298Z</time>
      </trkpt>
      <trkpt lat="47.7064755" lon="-1.8655058">
        <ele>2.514</ele>
        <time>2018-08-28T13:17:22.569Z</time>
      </trkpt>
      <trkpt lat="47.7065597" lon="-1.8654159">
        <ele>2.016</ele>
        <time>2018-08-28T13:17:27.125Z</time>
      </trkpt>
      <trkpt lat="47.7066437" lon="-1.8653207">
        <ele>1.506</ele>
        <time>2018-08-28T13:17:31.796Z</time>
      </trkpt>
      <trkpt lat="47.7067171" lon="-1.8652159">
        <ele>1.377</ele>
        <time>2018-08-28T13:17:35.956Z</time>
      </trkpt>
      <trkpt lat="47.7067861" lon="-1.8651103">
        <ele>1.695</ele>
        <time>2018-08-28T13:17:39.755Z</time>
      </trkpt>
      <trkpt lat="47.7068606" lon="-1.8650033">
        <ele>2.214</ele>
        <time>2018-08-28T13:17:43.826Z</time>
      </trkpt>
      <trkpt lat="47.7069381" lon="-1.8649015">
        <ele>2.595</ele>
        <time>2018-08-28T13:17:48.158Z</time>
      </trkpt>
      <trkpt lat="47.7070203" lon="-1.8648046">
        <ele>2.648</ele>
        <time>2018-08-28T13:17:52.451Z</time>
      </trkpt>
      <trkpt lat="47.7071001" lon="-1.8647165">
        <ele>2.489</ele>
        <time>2018-08-28T13:17:56.149Z</time>
      </trkpt>
      <trkpt lat="47.7071700" lon="-1.8646100">
        <ele>2.290</ele>
        <time>2018-08-28T13:17:59.592Z</time>
      </trkpt>
      <trkpt lat="47.7072411" lon="-1.8645027">
        <ele>2.136</ele>
        <time>2018-08-28T13:18:02.921Z</time>
      </trkpt>
      <trkpt lat="47.7073103" lon="-1.8643917">
        <ele>2.054</ele>
        <time>2018-08-28T13:18:06.139Z</time>
      </trkpt>
      <trkpt lat="47.7073734" lon="-1.8642805">
        <ele>2.038</ele>
        <time>2018-08-28T13:18:09.246Z</time>
      </trkpt>
      <trkpt lat="47.7074291" lon="-1.8641725">
        <ele>2.050</ele>
        <time>2018-08-28T13:18:12.295Z</time>
      </trkpt>
      <trkpt lat="47.7074950" lon="-1.8640289">
        <ele>1.968</ele>
        <time>2018-08-28T13:18:16.339Z</time>
      </trkpt>
      <trkpt lat="47.7075606" lon="-1.8638866">
        <ele>1.680</ele>
        <time>2018-08-28T13:18:20.317Z</time>
      </trkpt>
      <trkpt lat="47.7076133" lon="-1.8637313">
        <ele>1.252</ele>
        <time>2018-08-28T13:18:24.252Z</time>
      </trkpt>
      <trkpt lat="47.7076645" lon="-1.8635694">
        <ele>0.739</ele>
        <time>2018-08-28T13:18:28.446Z</time>
      </trkpt>
      <trkpt lat="47.7077067" lon="-1.8634449">
        <ele>0.109</ele>
        <time>2018-08-28T13:18:32.012Z</time>
      </trkpt>
      <trkpt lat="47.7077462" lon="-1.8633208">
        <ele>0.000</ele>
        <time>2018-08-28T13:18:35.874Z</time>
      </trkpt>
      <trkpt lat="47.7078164" lon="-1.8631856">
        <ele>0.000</ele>
        <time>2018-08-28T13:18:40.654Z</time>
      </trkpt>
      <trkpt lat="47.7078654" lon="-1.8630682">
        <ele>0.000</ele>
        <time>2018-08-28T13:18:44.112Z</time>
      </trkpt>
      <trkpt lat="47.7079021" lon="-1.8629458">
        <ele>0.000</ele>
        <time>2018-08-28T13:18:47.195Z</time>
      </trkpt>
      <trkpt lat="47.7079346" lon="-1.8628160">
        <ele>0.000</ele>
        <time>2018-08-28T13:18:50.210Z</time>
      </trkpt>
      <trkpt lat="47.7079662" lon="-1.8626869">
        <ele>0.000</ele>
        <time>2018-08-28T13:18:53.112Z</time>
      </trkpt>
      <trkpt lat="47.7080040" lon="-1.8625625">
        <ele>0.000</ele>
        <time>2018-08-28T13:18:55.948Z</time>
      </trkpt>
      <trkpt lat="47.7080268" lon="-1.8624275">
        <ele>0.000</ele>
        <time>2018-08-28T13:18:58.816Z</time>
      </trkpt>
      <trkpt lat="47.7080442" lon="-1.8622832">
        <ele>0.272</ele>
        <time>2018-08-28T13:19:01.861Z</time>
      </trkpt>
      <trkpt lat="47.7080591" lon="-1.8621334">
        <ele>0.665</ele>
        <time>2018-08-28T13:19:05.068Z</time>
      </trkpt>
      <trkpt lat="47.7080743" lon="-1.8619812">
        <ele>0.969</ele>
        <time>2018-08-28T13:19:08.405Z</time>
      </trkpt>
      <trkpt lat="47.7080911" lon="-1.8618289">
        <ele>1.094</ele>
        <time>2018-08-28T13:19:11.851Z</time>
      </trkpt>
      <trkpt lat="47.7081222" lon="-1.8616598">
        <ele>1.117</ele>
        <time>2018-08-28T13:19:15.937Z</time>
      </trkpt>
      <trkpt lat="47.7081473" lon="-1.8615174">
        <ele>1.056</ele>
        <time>2018-08-28T13:19:19.444Z</time>
      </trkpt>
      <trkpt lat="47.7081688" lon="-1.8613723">
        <ele>0.911</ele>
        <time>2018-08-28T13:19:22.930Z</time>
      </trkpt>
      <trkpt lat="47.7081875" lon="-1.8612326">
        <ele>0.769</ele>
        <time>2018-08-28T13:19:26.254Z</time>
      </trkpt>
      <trkpt lat="47.7082121" lon="-1.8611030">
        <ele>0.660</ele>
        <time>2018-08-28T13:19:29.420Z</time>
      </trkpt>
      <trkpt lat="47.7082313" lon="-1.8609698">
        <ele>0.510</ele>
        <time>2018-08-28T13:19:32.617Z</time>
      </trkpt>
      <trkpt lat="47.7082541" lon="-1.8608188">
        <ele>0.333</ele>
        <time>2018-08-28T13:19:36.177Z</time>
      </trkpt>
      <trkpt lat="47.7082787" lon="-1.8606714">
        <ele>0.316</ele>
        <time>2018-08-28T13:19:39.462Z</time>
      </trkpt>
      <trkpt lat="47.7083018" lon="-1.8605242">
        <ele>0.541</ele>
        <time>2018-08-28T13:19:42.576Z</time>
      </trkpt>
      <trkpt lat="47.7083220" lon="-1.8603903">
        <ele>0.812</ele>
        <time>2018-08-28T13:19:45.367Z</time>
      </trkpt>
      <trkpt lat="47.7083382" lon="-1.8602440">
        <ele>0.946</ele>
        <time>2018-08-28T13:19:48.418Z</time>
      </trkpt>
      <trkpt lat="47.7083541" lon="-1.8600955">
        <ele>0.966</ele>
        <time>2018-08-28T13:19:51.593Z</time>
      </trkpt>
      <trkpt lat="47.7083696" lon="-1.8599498">
        <ele>0.845</ele>
        <time>2018-08-28T13:19:54.785Z</time>
      </trkpt>
      <trkpt lat="47.7083896" lon="-1.8598063">
        <ele>0.545</ele>
        <time>2018-08-28T13:19:57.985Z</time>
      </trkpt>
      <trkpt lat="47.7084155" lon="-1.8596722">
        <ele>0.216</ele>
        <time>2018-08-28T13:20:01.171Z</time>
      </trkpt>
      <trkpt lat="47.7084408" lon="-1.8595374">
        <ele>0.073</ele>
        <time>2018-08-28T13:20:04.473Z</time>
      </trkpt>
      <trkpt lat="47.7084595" lon="-1.8594005">
        <ele>0.133</ele>
        <time>2018-08-28T13:20:07.715Z</time>
      </trkpt>
      <trkpt lat="47.7084729" lon="-1.8592654">
        <ele>0.177</ele>
        <time>2018-08-28T13:20:10.738Z</time>
      </trkpt>
      <trkpt lat="47.7084748" lon="-1.8591311">
        <ele>0.042</ele>
        <time>2018-08-28T13:20:13.675Z</time>
      </trkpt>
      <trkpt lat="47.7084856" lon="-1.8589693">
        <ele>0.000</ele>
        <time>2018-08-28T13:20:17.302Z</time>
      </trkpt>
      <trkpt lat="47.7085116" lon="-1.8588054">
        <ele>0.000</ele>
        <time>2018-08-28T13:20:21.147Z</time>
      </trkpt>
      <trkpt lat="47.7085336" lon="-1.8586345">
        <ele>0.042</ele>
        <time>2018-08-28T13:20:25.100Z</time>
      </trkpt>
      <trkpt lat="47.7085696" lon="-1.8584757">
        <ele>0.177</ele>
        <time>2018-08-28T13:20:28.886Z</time>
      </trkpt>
      <trkpt lat="47.7085943" lon="-1.8583429">
        <ele>0.200</ele>
        <time>2018-08-28T13:20:31.947Z</time>
      </trkpt>
      <trkpt lat="47.7086101" lon="-1.8582028">
        <ele>0.118</ele>
        <time>2018-08-28T13:20:34.999Z</time>
      </trkpt>
      <trkpt lat="47.7086209" lon="-1.8580681">
        <ele>0.122</ele>
        <time>2018-08-28T13:20:37.850Z</time>
      </trkpt>
      <trkpt lat="47.7086334" lon="-1.8579037">
        <ele>0.361</ele>
        <time>2018-08-28T13:20:41.323Z</time>
      </trkpt>
      <trkpt lat="47.7086503" lon="-1.8577375">
        <ele>0.728</ele>
        <time>2018-08-28T13:20:44.903Z</time>
      </trkpt>
      <trkpt lat="47.7086714" lon="-1.8575838">
        <ele>1.040</ele>
        <time>2018-08-28T13:20:48.291Z</time>
      </trkpt>
      <trkpt lat="47.7086867" lon="-1.8574118">
        <ele>1.266</ele>
        <time>2018-08-28T13:20:52.158Z</time>
      </trkpt>
      <trkpt lat="47.7086926" lon="-1.8572610">
        <ele>1.437</ele>
        <time>2018-08-28T13:20:56.361Z</time>
      </trkpt>
      <trkpt lat="47.7086920" lon="-1.8571101">
        <ele>1.569</ele>
        <time>2018-08-28T13:21:03.024Z</time>
      </trkpt>
      <trkpt lat="47.7086812" lon="-1.8569708">
        <ele>1.672</ele>
        <time>2018-08-28T13:21:09.215Z</time>
      </trkpt>
      <trkpt lat="47.7086848" lon="-1.8568107">
        <ele>1.761</ele>
        <time>2018-08-28T13:21:16.285Z</time>
      </trkpt>
      <trkpt lat="47.7086949" lon="-1.8566464">
        <ele>1.905</ele>
        <time>2018-08-28T13:21:23.573Z</time>
      </trkpt>
      <trkpt lat="47.7087069" lon="-1.8564978">
        <ele>2.129</ele>
        <time>2018-08-28T13:21:30.177Z</time>
      </trkpt>
      <trkpt lat="47.7087203" lon="-1.8563345">
        <ele>2.408</ele>
        <time>2018-08-28T13:21:37.441Z</time>
      </trkpt>
      <trkpt lat="47.7087347" lon="-1.8561664">
        <ele>2.709</ele>
        <time>2018-08-28T13:21:44.924Z</time>
      </trkpt>
      <trkpt lat="47.7087581" lon="-1.8560052">
        <ele>2.905</ele>
        <time>2018-08-28T13:21:52.206Z</time>
      </trkpt>
      <trkpt lat="47.7087699" lon="-1.8558270">
        <ele>2.890</ele>
        <time>2018-08-28T13:22:00.113Z</time>
      </trkpt>
      <trkpt lat="47.7087711" lon="-1.8556513">
        <ele>2.720</ele>
        <time>2018-08-28T13:22:07.872Z</time>
      </trkpt>
      <trkpt lat="47.7087685" lon="-1.8554946">
        <ele>2.504</ele>
        <time>2018-08-28T13:22:14.789Z</time>
      </trkpt>
      <trkpt lat="47.7087699" lon="-1.8553473">
        <ele>2.347</ele>
        <time>2018-08-28T13:22:21.292Z</time>
      </trkpt>
      <trkpt lat="47.7087669" lon="-1.8551882">
        <ele>2.325</ele>
        <time>2018-08-28T13:22:28.321Z</time>
      </trkpt>
      <trkpt lat="47.7087733" lon="-1.8550156">
        <ele>2.353</ele>
        <time>2018-08-28T13:22:35.951Z</time>
      </trkpt>
      <trkpt lat="47.7087840" lon="-1.8548538">
        <ele>2.289</ele>
        <time>2018-08-28T13:22:43.127Z</time>
      </trkpt>
      <trkpt lat="47.7087909" lon="-1.8546947">
        <ele>2.088</ele>
        <time>2018-08-28T13:22:50.167Z</time>
      </trkpt>
      <trkpt lat="47.7088129" lon="-1.8545544">
        <ele>1.774</ele>
        <time>2018-08-28T13:22:56.529Z</time>
      </trkpt>
      <trkpt lat="47.7088502" lon="-1.8544128">
        <ele>1.438</ele>
        <time>2018-08-28T13:23:03.239Z</time>
      </trkpt>
      <trkpt lat="47.7088597" lon="-1.8542632">
        <ele>1.213</ele>
        <time>2018-08-28T13:23:09.873Z</time>
      </trkpt>
      <trkpt lat="47.7088439" lon="-1.8541171">
        <ele>1.059</ele>
        <time>2018-08-28T13:23:16.406Z</time>
      </trkpt>
      <trkpt lat="47.7088265" lon="-1.8539558">
        <ele>0.884</ele>
        <time>2018-08-28T13:23:23.617Z</time>
      </trkpt>
      <trkpt lat="47.7088088" lon="-1.8537873">
        <ele>0.710</ele>
        <time>2018-08-28T13:23:31.147Z</time>
      </trkpt>
      <trkpt lat="47.7087919" lon="-1.8536104">
        <ele>0.565</ele>
        <time>2018-08-28T13:23:39.036Z</time>
      </trkpt>
      <trkpt lat="47.7087667" lon="-1.8534367">
        <ele>0.438</ele>
        <time>2018-08-28T13:23:46.878Z</time>
      </trkpt>
      <trkpt lat="47.7087294" lon="-1.8532691">
        <ele>0.234</ele>
        <time>2018-08-28T13:23:54.673Z</time>
      </trkpt>
      <trkpt lat="47.7086835" lon="-1.8531019">
        <ele>0.000</ele>
        <time>2018-08-28T13:24:02.645Z</time>
      </trkpt>
      <trkpt lat="47.7086292" lon="-1.8529455">
        <ele>0.000</ele>
        <time>2018-08-28T13:24:10.417Z</time>
      </trkpt>
      <trkpt lat="47.7085688" lon="-1.8527993">
        <ele>0.000</ele>
        <time>2018-08-28T13:24:17.994Z</time>
      </trkpt>
      <trkpt lat="47.7084905" lon="-1.8526806">
        <ele>0.000</ele>
        <time>2018-08-28T13:24:25.329Z</time>
      </trkpt>
      <trkpt lat="47.7083915" lon="-1.8525829">
        <ele>0.000</ele>
        <time>2018-08-28T13:24:33.130Z</time>
      </trkpt>
      <trkpt lat="47.7083212" lon="-1.8524709">
        <ele>0.000</ele>
        <time>2018-08-28T13:24:39.893Z</time>
      </trkpt>
      <trkpt lat="47.7083144" lon="-1.8522914">
        <ele>0.000</ele>
        <time>2018-08-28T13:24:47.829Z</time>
      </trkpt>
      <trkpt lat="47.7083375" lon="-1.8521141">
        <ele>0.000</ele>
        <time>2018-08-28T13:24:55.801Z</time>
      </trkpt>
      <trkpt lat="47.7083450" lon="-1.8519551">
        <ele>0.000</ele>
        <time>2018-08-28T13:25:02.835Z</time>
      </trkpt>
      <trkpt lat="47.7083193" lon="-1.8517963">
        <ele>0.000</ele>
        <time>2018-08-28T13:25:10.041Z</time>
      </trkpt>
      <trkpt lat="47.7082914" lon="-1.8516496">
        <ele>0.000</ele>
        <time>2018-08-28T13:25:16.774Z</time>
      </trkpt>
      <trkpt lat="47.7082620" lon="-1.8515021">
        <ele>0.000</ele>
        <time>2018-08-28T13:25:23.567Z</time>
      </trkpt>
      <trkpt lat="47.7082383" lon="-1.8513505">
        <ele>0.000</ele>
        <time>2018-08-28T13:25:30.436Z</time>
      </trkpt>
      <trkpt lat="47.7082130" lon="-1.8511877">
        <ele>0.000</ele>
        <time>2018-08-28T13:25:37.819Z</time>
      </trkpt>
      <trkpt lat="47.7081676" lon="-1.8510002">
        <ele>0.000</ele>
        <time>2018-08-28T13:25:46.616Z</time>
      </trkpt>
      <trkpt lat="47.7081334" lon="-1.8508240">
        <ele>0.000</ele>
        <time>2018-08-28T13:25:54.712Z</time>
      </trkpt>
      <trkpt lat="47.7081109" lon="-1.8506487">
        <ele>0.000</ele>
        <time>2018-08-28T13:26:02.595Z</time>
      </trkpt>
      <trkpt lat="47.7080815" lon="-1.8504849">
        <ele>0.000</ele>
        <time>2018-08-28T13:26:10.078Z</time>
      </trkpt>
      <trkpt lat="47.7080503" lon="-1.8503258">
        <ele>0.000</ele>
        <time>2018-08-28T13:26:17.395Z</time>
      </trkpt>
      <trkpt lat="47.7080096" lon="-1.8501643">
        <ele>0.000</ele>
        <time>2018-08-28T13:26:25.007Z</time>
      </trkpt>
      <trkpt lat="47.7079683" lon="-1.8500098">
        <ele>0.000</ele>
        <time>2018-08-28T13:26:32.348Z</time>
      </trkpt>
      <trkpt lat="47.7079324" lon="-1.8498491">
        <ele>0.000</ele>
        <time>2018-08-28T13:26:39.825Z</time>
      </trkpt>
      <trkpt lat="47.7079073" lon="-1.8496752">
        <ele>0.000</ele>
        <time>2018-08-28T13:26:47.673Z</time>
      </trkpt>
      <trkpt lat="47.7078823" lon="-1.8495016">
        <ele>0.069</ele>
        <time>2018-08-28T13:26:55.515Z</time>
      </trkpt>
      <trkpt lat="47.7078533" lon="-1.8493330">
        <ele>0.692</ele>
        <time>2018-08-28T13:27:03.198Z</time>
      </trkpt>
      <trkpt lat="47.7078228" lon="-1.8491746">
        <ele>1.546</ele>
        <time>2018-08-28T13:27:10.474Z</time>
      </trkpt>
      <trkpt lat="47.7077899" lon="-1.8490245">
        <ele>2.456</ele>
        <time>2018-08-28T13:27:17.438Z</time>
      </trkpt>
      <trkpt lat="47.7077531" lon="-1.8488884">
        <ele>3.130</ele>
        <time>2018-08-28T13:27:23.912Z</time>
      </trkpt>
      <trkpt lat="47.7077118" lon="-1.8487343">
        <ele>3.492</ele>
        <time>2018-08-28T13:27:31.235Z</time>
      </trkpt>
      <trkpt lat="47.7076755" lon="-1.8485825">
        <ele>3.719</ele>
        <time>2018-08-28T13:27:38.346Z</time>
      </trkpt>
      <trkpt lat="47.7076407" lon="-1.8484268">
        <ele>3.911</ele>
        <time>2018-08-28T13:27:45.587Z</time>
      </trkpt>
      <trkpt lat="47.7076026" lon="-1.8482651">
        <ele>4.075</ele>
        <time>2018-08-28T13:27:53.158Z</time>
      </trkpt>
      <trkpt lat="47.7075605" lon="-1.8480913">
        <ele>4.231</ele>
        <time>2018-08-28T13:28:01.313Z</time>
      </trkpt>
      <trkpt lat="47.7075197" lon="-1.8479238">
        <ele>4.516</ele>
        <time>2018-08-28T13:28:09.179Z</time>
      </trkpt>
      <trkpt lat="47.7074865" lon="-1.8477622">
        <ele>4.964</ele>
        <time>2018-08-28T13:28:16.638Z</time>
      </trkpt>
      <trkpt lat="47.7074379" lon="-1.8476059">
        <ele>5.351</ele>
        <time>2018-08-28T13:28:24.244Z</time>
      </trkpt>
      <trkpt lat="47.7074005" lon="-1.8474469">
        <ele>5.482</ele>
        <time>2018-08-28T13:28:31.679Z</time>
      </trkpt>
      <trkpt lat="47.7073739" lon="-1.8472785">
        <ele>5.406</ele>
        <time>2018-08-28T13:28:39.315Z</time>
      </trkpt>
      <trkpt lat="47.7073255" lon="-1.8471142">
        <ele>5.265</ele>
        <time>2018-08-28T13:28:47.234Z</time>
      </trkpt>
      <trkpt lat="47.7072818" lon="-1.8469957">
        <ele>5.169</ele>
        <time>2018-08-28T13:28:53.201Z</time>
      </trkpt>
      <trkpt lat="47.7072704" lon="-1.8468582">
        <ele>5.199</ele>
        <time>2018-08-28T13:28:59.315Z</time>
      </trkpt>
      <trkpt lat="47.7072322" lon="-1.8467151">
        <ele>5.578</ele>
        <time>2018-08-28T13:29:06.114Z</time>
      </trkpt>
      <trkpt lat="47.7071957" lon="-1.8465888">
        <ele>6.375</ele>
        <time>2018-08-28T13:29:12.175Z</time>
      </trkpt>
      <trkpt lat="47.7071601" lon="-1.8464632">
        <ele>7.205</ele>
        <time>2018-08-28T13:29:18.196Z</time>
      </trkpt>
      <trkpt lat="47.7071261" lon="-1.8463202">
        <ele>7.613</ele>
        <time>2018-08-28T13:29:24.894Z</time>
      </trkpt>
      <trkpt lat="47.7070886" lon="-1.8461646">
        <ele>7.532</ele>
        <time>2018-08-28T13:29:32.194Z</time>
      </trkpt>
      <trkpt lat="47.7070636" lon="-1.8460140">
        <ele>7.210</ele>
        <time>2018-08-28T13:29:39.039Z</time>
      </trkpt>
      <trkpt lat="47.7070324" lon="-1.8458621">
        <ele>6.935</ele>
        <time>2018-08-28T13:29:46.050Z</time>
      </trkpt>
      <trkpt lat="47.7070005" lon="-1.8457111">
        <ele>6.695</ele>
        <time>2018-08-28T13:29:53.043Z</time>
      </trkpt>
      <trkpt lat="47.7069654" lon="-1.8455624">
        <ele>6.370</ele>
        <time>2018-08-28T13:30:00.001Z</time>
      </trkpt>
      <trkpt lat="47.7069295" lon="-1.8454074">
        <ele>6.059</ele>
        <time>2018-08-28T13:30:07.236Z</time>
      </trkpt>
      <trkpt lat="47.7068908" lon="-1.8452404">
        <ele>5.902</ele>
        <time>2018-08-28T13:30:15.031Z</time>
      </trkpt>
      <trkpt lat="47.7068626" lon="-1.8451107">
        <ele>5.925</ele>
        <time>2018-08-28T13:30:21.051Z</time>
      </trkpt>
      <trkpt lat="47.7068346" lon="-1.8449781">
        <ele>6.140</ele>
        <time>2018-08-28T13:30:27.189Z</time>
      </trkpt>
      <trkpt lat="47.7068047" lon="-1.8448432">
        <ele>6.455</ele>
        <time>2018-08-28T13:30:33.457Z</time>
      </trkpt>
      <trkpt lat="47.7067752" lon="-1.8447065">
        <ele>6.719</ele>
        <time>2018-08-28T13:30:39.796Z</time>
      </trkpt>
      <trkpt lat="47.7067477" lon="-1.8445712">
        <ele>6.874</ele>
        <time>2018-08-28T13:30:46.034Z</time>
      </trkpt>
      <trkpt lat="47.7067108" lon="-1.8444413">
        <ele>7.089</ele>
        <time>2018-08-28T13:30:52.261Z</time>
      </trkpt>
      <trkpt lat="47.7066869" lon="-1.8443120">
        <ele>7.485</ele>
        <time>2018-08-28T13:30:58.181Z</time>
      </trkpt>
      <trkpt lat="47.7066607" lon="-1.8441426">
        <ele>7.865</ele>
        <time>2018-08-28T13:31:05.852Z</time>
      </trkpt>
      <trkpt lat="47.7066332" lon="-1.8439911">
        <ele>8.024</ele>
        <time>2018-08-28T13:31:12.780Z</time>
      </trkpt>
      <trkpt lat="47.7065905" lon="-1.8438323">
        <ele>7.853</ele>
        <time>2018-08-28T13:31:20.333Z</time>
      </trkpt>
      <trkpt lat="47.7065493" lon="-1.8436833">
        <ele>7.355</ele>
        <time>2018-08-28T13:31:31.948Z</time>
      </trkpt>
      <trkpt lat="47.7065067" lon="-1.8435249">
        <ele>6.837</ele>
        <time>2018-08-28T13:31:39.420Z</time>
      </trkpt>
      <trkpt lat="47.7064711" lon="-1.8433882">
        <ele>6.573</ele>
        <time>2018-08-28T13:31:44.548Z</time>
      </trkpt>
      <trkpt lat="47.7064460" lon="-1.8432458">
        <ele>6.556</ele>
        <time>2018-08-28T13:31:49.200Z</time>
      </trkpt>
      <trkpt lat="47.7063945" lon="-1.8430907">
        <ele>6.698</ele>
        <time>2018-08-28T13:31:54.541Z</time>
      </trkpt>
      <trkpt lat="47.7063490" lon="-1.8429527">
        <ele>6.852</ele>
        <time>2018-08-28T13:31:59.322Z</time>
      </trkpt>
      <trkpt lat="47.7063043" lon="-1.8428167">
        <ele>6.908</ele>
        <time>2018-08-28T13:32:04.069Z</time>
      </trkpt>
      <trkpt lat="47.7062644" lon="-1.8426712">
        <ele>6.887</ele>
        <time>2018-08-28T13:32:08.875Z</time>
      </trkpt>
      <trkpt lat="47.7062226" lon="-1.8425337">
        <ele>6.857</ele>
        <time>2018-08-28T13:32:13.191Z</time>
      </trkpt>
      <trkpt lat="47.7061745" lon="-1.8423967">
        <ele>6.810</ele>
        <time>2018-08-28T13:32:17.405Z</time>
      </trkpt>
      <trkpt lat="47.7061352" lon="-1.8422519">
        <ele>6.720</ele>
        <time>2018-08-28T13:32:21.529Z</time>
      </trkpt>
      <trkpt lat="47.7060984" lon="-1.8420971">
        <ele>6.600</ele>
        <time>2018-08-28T13:32:25.815Z</time>
      </trkpt>
      <trkpt lat="47.7060540" lon="-1.8419335">
        <ele>6.452</ele>
        <time>2018-08-28T13:32:30.482Z</time>
      </trkpt>
      <trkpt lat="47.7060208" lon="-1.8417749">
        <ele>6.290</ele>
        <time>2018-08-28T13:32:35.023Z</time>
      </trkpt>
      <trkpt lat="47.7059938" lon="-1.8416131">
        <ele>6.150</ele>
        <time>2018-08-28T13:32:39.771Z</time>
      </trkpt>
      <trkpt lat="47.7059666" lon="-1.8414501">
        <ele>6.029</ele>
        <time>2018-08-28T13:32:44.714Z</time>
      </trkpt>
      <trkpt lat="47.7059343" lon="-1.8412869">
        <ele>5.834</ele>
        <time>2018-08-28T13:32:49.800Z</time>
      </trkpt>
      <trkpt lat="47.7059137" lon="-1.8411561">
        <ele>5.530</ele>
        <time>2018-08-28T13:32:53.856Z</time>
      </trkpt>
      <trkpt lat="47.7058811" lon="-1.8409867">
        <ele>5.284</ele>
        <time>2018-08-28T13:32:59.389Z</time>
      </trkpt>
      <trkpt lat="47.7058679" lon="-1.8408450">
        <ele>5.290</ele>
        <time>2018-08-28T13:33:03.860Z</time>
      </trkpt>
      <trkpt lat="47.7058548" lon="-1.8406980">
        <ele>5.498</ele>
        <time>2018-08-28T13:33:08.486Z</time>
      </trkpt>
      <trkpt lat="47.7058510" lon="-1.8405538">
        <ele>5.712</ele>
        <time>2018-08-28T13:33:13.055Z</time>
      </trkpt>
      <trkpt lat="47.7058626" lon="-1.8404169">
        <ele>5.814</ele>
        <time>2018-08-28T13:33:17.444Z</time>
      </trkpt>
      <trkpt lat="47.7058920" lon="-1.8402540">
        <ele>5.879</ele>
        <time>2018-08-28T13:33:22.843Z</time>
      </trkpt>
      <trkpt lat="47.7059382" lon="-1.8401028">
        <ele>5.992</ele>
        <time>2018-08-28T13:33:28.124Z</time>
      </trkpt>
      <trkpt lat="47.7059847" lon="-1.8399369">
        <ele>6.144</ele>
        <time>2018-08-28T13:33:33.612Z</time>
      </trkpt>
      <trkpt lat="47.7060351" lon="-1.8398117">
        <ele>6.252</ele>
        <time>2018-08-28T13:33:37.864Z</time>
      </trkpt>
      <trkpt lat="47.7060842" lon="-1.8396943">
        <ele>6.292</ele>
        <time>2018-08-28T13:33:41.872Z</time>
      </trkpt>
      <trkpt lat="47.7061421" lon="-1.8395451">
        <ele>6.327</ele>
        <time>2018-08-28T13:33:46.890Z</time>
      </trkpt>
      <trkpt lat="47.7062095" lon="-1.8393991">
        <ele>6.414</ele>
        <time>2018-08-28T13:33:51.982Z</time>
      </trkpt>
      <trkpt lat="47.7062745" lon="-1.8392942">
        <ele>6.578</ele>
        <time>2018-08-28T13:33:56.012Z</time>
      </trkpt>
      <trkpt lat="47.7063333" lon="-1.8391801">
        <ele>6.832</ele>
        <time>2018-08-28T13:34:00.007Z</time>
      </trkpt>
      <trkpt lat="47.7063911" lon="-1.8390697">
        <ele>7.095</ele>
        <time>2018-08-28T13:34:03.704Z</time>
      </trkpt>
      <trkpt lat="47.7064757" lon="-1.8389559">
        <ele>7.267</ele>
        <time>2018-08-28T13:34:08.039Z</time>
      </trkpt>
      <trkpt lat="47.7065497" lon="-1.8388731">
        <ele>7.303</ele>
        <time>2018-08-28T13:34:11.659Z</time>
      </trkpt>
      <trkpt lat="47.7066366" lon="-1.8387768">
        <ele>7.233</ele>
        <time>2018-08-28T13:34:16.123Z</time>
      </trkpt>
      <trkpt lat="47.7067277" lon="-1.8386686">
        <ele>7.241</ele>
        <time>2018-08-28T13:34:21.089Z</time>
      </trkpt>
      <trkpt lat="47.7068212" lon="-1.8386060">
        <ele>7.446</ele>
        <time>2018-08-28T13:34:25.238Z</time>
      </trkpt>
      <trkpt lat="47.7069117" lon="-1.8385468">
        <ele>7.564</ele>
        <time>2018-08-28T13:34:29.123Z</time>
      </trkpt>
      <trkpt lat="47.7070054" lon="-1.8384857">
        <ele>7.231</ele>
        <time>2018-08-28T13:34:33.195Z</time>
      </trkpt>
      <trkpt lat="47.7071000" lon="-1.8384252">
        <ele>6.467</ele>
        <time>2018-08-28T13:34:37.354Z</time>
      </trkpt>
      <trkpt lat="47.7071927" lon="-1.8383672">
        <ele>5.608</ele>
        <time>2018-08-28T13:34:41.367Z</time>
      </trkpt>
      <trkpt lat="47.7072840" lon="-1.8383195">
        <ele>4.969</ele>
        <time>2018-08-28T13:34:45.185Z</time>
      </trkpt>
      <trkpt lat="47.7073822" lon="-1.8382629">
        <ele>4.617</ele>
        <time>2018-08-28T13:34:49.410Z</time>
      </trkpt>
      <trkpt lat="47.7074753" lon="-1.8382192">
        <ele>4.454</ele>
        <time>2018-08-28T13:34:53.438Z</time>
      </trkpt>
      <trkpt lat="47.7075689" lon="-1.8381862">
        <ele>4.455</ele>
        <time>2018-08-28T13:34:57.488Z</time>
      </trkpt>
      <trkpt lat="47.7076710" lon="-1.8381530">
        <ele>4.596</ele>
        <time>2018-08-28T13:35:01.991Z</time>
      </trkpt>
      <trkpt lat="47.7077734" lon="-1.8381246">
        <ele>4.795</ele>
        <time>2018-08-28T13:35:06.499Z</time>
      </trkpt>
      <trkpt lat="47.7078824" lon="-1.8380956">
        <ele>4.984</ele>
        <time>2018-08-28T13:35:11.027Z</time>
      </trkpt>
      <trkpt lat="47.7079914" lon="-1.8380608">
        <ele>5.112</ele>
        <time>2018-08-28T13:35:15.342Z</time>
      </trkpt>
      <trkpt lat="47.7080994" lon="-1.8380284">
        <ele>5.102</ele>
        <time>2018-08-28T13:35:19.525Z</time>
      </trkpt>
      <trkpt lat="47.7082077" lon="-1.8379965">
        <ele>4.909</ele>
        <time>2018-08-28T13:35:23.674Z</time>
      </trkpt>
      <trkpt lat="47.7083107" lon="-1.8379766">
        <ele>4.618</ele>
        <time>2018-08-28T13:35:27.606Z</time>
      </trkpt>
      <trkpt lat="47.7084186" lon="-1.8379409">
        <ele>4.477</ele>
        <time>2018-08-28T13:35:31.768Z</time>
      </trkpt>
      <trkpt lat="47.7085278" lon="-1.8379119">
        <ele>4.703</ele>
        <time>2018-08-28T13:35:35.823Z</time>
      </trkpt>
      <trkpt lat="47.7086337" lon="-1.8378820">
        <ele>5.193</ele>
        <time>2018-08-28T13:35:39.582Z</time>
      </trkpt>
      <trkpt lat="47.7087403" lon="-1.8378458">
        <ele>5.587</ele>
        <time>2018-08-28T13:35:43.310Z</time>
      </trkpt>
      <trkpt lat="47.7088452" lon="-1.8378152">
        <ele>5.702</ele>
        <time>2018-08-28T13:35:46.933Z</time>
      </trkpt>
      <trkpt lat="47.7089576" lon="-1.8377925">
        <ele>5.660</ele>
        <time>2018-08-28T13:35:50.812Z</time>
      </trkpt>
      <trkpt lat="47.7090545" lon="-1.8377680">
        <ele>5.635</ele>
        <time>2018-08-28T13:35:54.175Z</time>
      </trkpt>
      <trkpt lat="47.7091451" lon="-1.8377473">
        <ele>5.688</ele>
        <time>2018-08-28T13:35:57.298Z</time>
      </trkpt>
      <trkpt lat="47.7092367" lon="-1.8377258">
        <ele>5.728</ele>
        <time>2018-08-28T13:36:00.457Z</time>
      </trkpt>
      <trkpt lat="47.7093528" lon="-1.8377039">
        <ele>5.634</ele>
        <time>2018-08-28T13:36:04.520Z</time>
      </trkpt>
      <trkpt lat="47.7094505" lon="-1.8376712">
        <ele>5.437</ele>
        <time>2018-08-28T13:36:08.171Z</time>
      </trkpt>
      <trkpt lat="47.7095681" lon="-1.8376251">
        <ele>5.300</ele>
        <time>2018-08-28T13:36:12.861Z</time>
      </trkpt>
      <trkpt lat="47.7096879" lon="-1.8375474">
        <ele>5.370</ele>
        <time>2018-08-28T13:36:18.119Z</time>
      </trkpt>
      <trkpt lat="47.7097977" lon="-1.8374572">
        <ele>5.661</ele>
        <time>2018-08-28T13:36:23.250Z</time>
      </trkpt>
      <trkpt lat="47.7099004" lon="-1.8373620">
        <ele>6.078</ele>
        <time>2018-08-28T13:36:27.778Z</time>
      </trkpt>
      <trkpt lat="47.7099984" lon="-1.8372811">
        <ele>6.536</ele>
        <time>2018-08-28T13:36:31.590Z</time>
      </trkpt>
      <trkpt lat="47.7100883" lon="-1.8372164">
        <ele>6.942</ele>
        <time>2018-08-28T13:36:34.814Z</time>
      </trkpt>
      <trkpt lat="47.7101752" lon="-1.8371408">
        <ele>7.140</ele>
        <time>2018-08-28T13:36:38.007Z</time>
      </trkpt>
      <trkpt lat="47.7102635" lon="-1.8370805">
        <ele>7.062</ele>
        <time>2018-08-28T13:36:41.162Z</time>
      </trkpt>
      <trkpt lat="47.7103530" lon="-1.8370283">
        <ele>6.857</ele>
        <time>2018-08-28T13:36:44.430Z</time>
      </trkpt>
      <trkpt lat="47.7104456" lon="-1.8369728">
        <ele>6.703</ele>
        <time>2018-08-28T13:36:47.965Z</time>
      </trkpt>
      <trkpt lat="47.7105396" lon="-1.8369326">
        <ele>6.626</ele>
        <time>2018-08-28T13:36:51.533Z</time>
      </trkpt>
      <trkpt lat="47.7106326" lon="-1.8369060">
        <ele>6.529</ele>
        <time>2018-08-28T13:36:55.045Z</time>
      </trkpt>
      <trkpt lat="47.7107316" lon="-1.8368751">
        <ele>6.350</ele>
        <time>2018-08-28T13:36:58.831Z</time>
      </trkpt>
      <trkpt lat="47.7108323" lon="-1.8368636">
        <ele>6.118</ele>
        <time>2018-08-28T13:37:02.621Z</time>
      </trkpt>
      <trkpt lat="47.7109287" lon="-1.8368704">
        <ele>5.904</ele>
        <time>2018-08-28T13:37:06.225Z</time>
      </trkpt>
      <trkpt lat="47.7110246" lon="-1.8368555">
        <ele>5.824</ele>
        <time>2018-08-28T13:37:09.857Z</time>
      </trkpt>
      <trkpt lat="47.7111164" lon="-1.8368574">
        <ele>6.002</ele>
        <time>2018-08-28T13:37:13.370Z</time>
      </trkpt>
      <trkpt lat="47.7112341" lon="-1.8368677">
        <ele>6.415</ele>
        <time>2018-08-28T13:37:17.999Z</time>
      </trkpt>
      <trkpt lat="47.7112341" lon="-1.8368677">
        <ele>6.864</ele>
        <time>2018-08-28T13:37:18.999Z</time>
      </trkpt>
      <trkpt lat="47.7112341" lon="-1.8368677">
        <ele>7.105</ele>
        <time>2018-08-28T13:37:19.099Z</time>
      </trkpt>
      <trkpt lat="47.7113997" lon="-1.8368997">
        <ele>7.082</ele>
        <time>2018-08-28T13:37:28.988Z</time>
      </trkpt>
      <trkpt lat="47.7115060" lon="-1.8369124">
        <ele>6.965</ele>
        <time>2018-08-28T13:37:34.141Z</time>
      </trkpt>
      <trkpt lat="47.7115990" lon="-1.8369212">
        <ele>6.931</ele>
        <time>2018-08-28T13:37:39.225Z</time>
      </trkpt>
      <trkpt lat="47.7116887" lon="-1.8369391">
        <ele>7.079</ele>
        <time>2018-08-28T13:37:44.547Z</time>
      </trkpt>
      <trkpt lat="47.7117804" lon="-1.8369562">
        <ele>7.408</ele>
        <time>2018-08-28T13:37:50.056Z</time>
      </trkpt>
      <trkpt lat="47.7118725" lon="-1.8369642">
        <ele>7.777</ele>
        <time>2018-08-28T13:37:54.958Z</time>
      </trkpt>
      <trkpt lat="47.7119776" lon="-1.8369889">
        <ele>8.042</ele>
        <time>2018-08-28T13:37:59.884Z</time>
      </trkpt>
      <trkpt lat="47.7120862" lon="-1.8370111">
        <ele>8.153</ele>
        <time>2018-08-28T13:38:04.500Z</time>
      </trkpt>
      <trkpt lat="47.7121831" lon="-1.8370305">
        <ele>8.141</ele>
        <time>2018-08-28T13:38:08.868Z</time>
      </trkpt>
      <trkpt lat="47.7122794" lon="-1.8370393">
        <ele>8.053</ele>
        <time>2018-08-28T13:38:13.504Z</time>
      </trkpt>
      <trkpt lat="47.7123881" lon="-1.8370804">
        <ele>7.925</ele>
        <time>2018-08-28T13:38:18.774Z</time>
      </trkpt>
      <trkpt lat="47.7125048" lon="-1.8370947">
        <ele>7.819</ele>
        <time>2018-08-28T13:38:23.453Z</time>
      </trkpt>
      <trkpt lat="47.7126147" lon="-1.8371298">
        <ele>7.988</ele>
        <time>2018-08-28T13:38:27.664Z</time>
      </trkpt>
      <trkpt lat="47.7127137" lon="-1.8371703">
        <ele>8.536</ele>
        <time>2018-08-28T13:38:31.403Z</time>
      </trkpt>
      <trkpt lat="47.7128235" lon="-1.8372343">
        <ele>9.163</ele>
        <time>2018-08-28T13:38:35.507Z</time>
      </trkpt>
      <trkpt lat="47.7129054" lon="-1.8372993">
        <ele>9.627</ele>
        <time>2018-08-28T13:38:38.674Z</time>
      </trkpt>
      <trkpt lat="47.7130123" lon="-1.8373806">
        <ele>10.016</ele>
        <time>2018-08-28T13:38:42.815Z</time>
      </trkpt>
      <trkpt lat="47.7131099" lon="-1.8374697">
        <ele>10.363</ele>
        <time>2018-08-28T13:38:46.687Z</time>
      </trkpt>
      <trkpt lat="47.7131957" lon="-1.8375359">
        <ele>10.352</ele>
        <time>2018-08-28T13:38:49.844Z</time>
      </trkpt>
      <trkpt lat="47.7132803" lon="-1.8375860">
        <ele>9.808</ele>
        <time>2018-08-28T13:38:52.789Z</time>
      </trkpt>
      <trkpt lat="47.7133827" lon="-1.8376262">
        <ele>9.145</ele>
        <time>2018-08-28T13:38:56.223Z</time>
      </trkpt>
      <trkpt lat="47.7134997" lon="-1.8376479">
        <ele>8.603</ele>
        <time>2018-08-28T13:38:59.993Z</time>
      </trkpt>
      <trkpt lat="47.7135995" lon="-1.8376602">
        <ele>8.032</ele>
        <time>2018-08-28T13:39:03.048Z</time>
      </trkpt>
      <trkpt lat="47.7137042" lon="-1.8376754">
        <ele>7.454</ele>
        <time>2018-08-28T13:39:06.094Z</time>
      </trkpt>
      <trkpt lat="47.7138143" lon="-1.8376910">
        <ele>6.985</ele>
        <time>2018-08-28T13:39:09.156Z</time>
      </trkpt>
      <trkpt lat="47.7139228" lon="-1.8377262">
        <ele>6.659</ele>
        <time>2018-08-28T13:39:12.140Z</time>
      </trkpt>
      <trkpt lat="47.7140322" lon="-1.8377567">
        <ele>6.459</ele>
        <time>2018-08-28T13:39:15.104Z</time>
      </trkpt>
      <trkpt lat="47.7141383" lon="-1.8377799">
        <ele>6.271</ele>
        <time>2018-08-28T13:39:17.967Z</time>
      </trkpt>
      <trkpt lat="47.7142472" lon="-1.8377971">
        <ele>6.090</ele>
        <time>2018-08-28T13:39:20.859Z</time>
      </trkpt>
      <trkpt lat="47.7143591" lon="-1.8378129">
        <ele>5.998</ele>
        <time>2018-08-28T13:39:23.813Z</time>
      </trkpt>
      <trkpt lat="47.7144669" lon="-1.8378336">
        <ele>5.980</ele>
        <time>2018-08-28T13:39:26.691Z</time>
      </trkpt>
      <trkpt lat="47.7145767" lon="-1.8378639">
        <ele>5.953</ele>
        <time>2018-08-28T13:39:29.673Z</time>
      </trkpt>
      <trkpt lat="47.7146842" lon="-1.8378931">
        <ele>5.901</ele>
        <time>2018-08-28T13:39:32.622Z</time>
      </trkpt>
      <trkpt lat="47.7147869" lon="-1.8379217">
        <ele>5.839</ele>
        <time>2018-08-28T13:39:35.465Z</time>
      </trkpt>
      <trkpt lat="47.7148902" lon="-1.8379463">
        <ele>5.772</ele>
        <time>2018-08-28T13:39:38.347Z</time>
      </trkpt>
      <trkpt lat="47.7149896" lon="-1.8379572">
        <ele>5.657</ele>
        <time>2018-08-28T13:39:41.135Z</time>
      </trkpt>
      <trkpt lat="47.7150927" lon="-1.8379619">
        <ele>5.394</ele>
        <time>2018-08-28T13:39:44.040Z</time>
      </trkpt>
      <trkpt lat="47.7151974" lon="-1.8379546">
        <ele>4.994</ele>
        <time>2018-08-28T13:39:46.987Z</time>
      </trkpt>
      <trkpt lat="47.7153014" lon="-1.8379367">
        <ele>4.772</ele>
        <time>2018-08-28T13:39:49.888Z</time>
      </trkpt>
      <trkpt lat="47.7154118" lon="-1.8379072">
        <ele>4.934</ele>
        <time>2018-08-28T13:39:52.928Z</time>
      </trkpt>
      <trkpt lat="47.7155182" lon="-1.8378823">
        <ele>5.235</ele>
        <time>2018-08-28T13:39:55.809Z</time>
      </trkpt>
      <trkpt lat="47.7156240" lon="-1.8378568">
        <ele>5.390</ele>
        <time>2018-08-28T13:39:58.659Z</time>
      </trkpt>
      <trkpt lat="47.7157265" lon="-1.8378308">
        <ele>5.316</ele>
        <time>2018-08-28T13:40:01.447Z</time>
      </trkpt>
      <trkpt lat="47.7158235" lon="-1.8378113">
        <ele>4.985</ele>
        <time>2018-08-28T13:40:04.111Z</time>
      </trkpt>
      <trkpt lat="47.7159341" lon="-1.8377850">
        <ele>4.481</ele>
        <time>2018-08-28T13:40:07.176Z</time>
      </trkpt>
      <trkpt lat="47.7160445" lon="-1.8377602">
        <ele>4.047</ele>
        <time>2018-08-28T13:40:10.193Z</time>
      </trkpt>
      <trkpt lat="47.7161506" lon="-1.8377365">
        <ele>3.871</ele>
        <time>2018-08-28T13:40:13.057Z</time>
      </trkpt>
      <trkpt lat="47.7162643" lon="-1.8377050">
        <ele>3.921</ele>
        <time>2018-08-28T13:40:16.121Z</time>
      </trkpt>
      <trkpt lat="47.7163685" lon="-1.8376700">
        <ele>3.950</ele>
        <time>2018-08-28T13:40:18.997Z</time>
      </trkpt>
      <trkpt lat="47.7164741" lon="-1.8376445">
        <ele>3.793</ele>
        <time>2018-08-28T13:40:22.000Z</time>
      </trkpt>
      <trkpt lat="47.7164741" lon="-1.8376445">
        <ele>3.621</ele>
        <time>2018-08-28T13:40:24.000Z</time>
      </trkpt>
      <trkpt lat="47.7164741" lon="-1.8376445">
        <ele>3.617</ele>
        <time>2018-08-28T13:40:24.100Z</time>
      </trkpt>
      <trkpt lat="47.7166648" lon="-1.8375058">
        <ele>3.708</ele>
        <time>2018-08-28T13:40:34.822Z</time>
      </trkpt>
      <trkpt lat="47.7167440" lon="-1.8373800">
        <ele>4.017</ele>
        <time>2018-08-28T13:40:38.795Z</time>
      </trkpt>
      <trkpt lat="47.7168164" lon="-1.8372377">
        <ele>4.672</ele>
        <time>2018-08-28T13:40:42.639Z</time>
      </trkpt>
      <trkpt lat="47.7168716" lon="-1.8371189">
        <ele>5.318</ele>
        <time>2018-08-28T13:40:45.593Z</time>
      </trkpt>
      <trkpt lat="47.7169301" lon="-1.8369978">
        <ele>5.646</ele>
        <time>2018-08-28T13:40:48.535Z</time>
      </trkpt>
      <trkpt lat="47.7169930" lon="-1.8368742">
        <ele>5.815</ele>
        <time>2018-08-28T13:40:51.508Z</time>
      </trkpt>
      <trkpt lat="47.7170578" lon="-1.8367452">
        <ele>6.071</ele>
        <time>2018-08-28T13:40:54.573Z</time>
      </trkpt>
      <trkpt lat="47.7171222" lon="-1.8366176">
        <ele>6.441</ele>
        <time>2018-08-28T13:40:57.753Z</time>
      </trkpt>
      <trkpt lat="47.7171794" lon="-1.8365084">
        <ele>6.774</ele>
        <time>2018-08-28T13:41:00.671Z</time>
      </trkpt>
      <trkpt lat="47.7172535" lon="-1.8363914">
        <ele>6.983</ele>
        <time>2018-08-28T13:41:04.328Z</time>
      </trkpt>
      <trkpt lat="47.7173412" lon="-1.8362914">
        <ele>7.033</ele>
        <time>2018-08-28T13:41:08.193Z</time>
      </trkpt>
      <trkpt lat="47.7174444" lon="-1.8362101">
        <ele>6.859</ele>
        <time>2018-08-28T13:41:12.227Z</time>
      </trkpt>
      <trkpt lat="47.7175461" lon="-1.8361119">
        <ele>6.549</ele>
        <time>2018-08-28T13:41:16.156Z</time>
      </trkpt>
      <trkpt lat="47.7176322" lon="-1.8360308">
        <ele>6.370</ele>
        <time>2018-08-28T13:41:19.255Z</time>
      </trkpt>
      <trkpt lat="47.7177224" lon="-1.8359477">
        <ele>6.467</ele>
        <time>2018-08-28T13:41:22.321Z</time>
      </trkpt>
      <trkpt lat="47.7178163" lon="-1.8358605">
        <ele>6.696</ele>
        <time>2018-08-28T13:41:25.405Z</time>
      </trkpt>
      <trkpt lat="47.7179080" lon="-1.8357715">
        <ele>6.793</ele>
        <time>2018-08-28T13:41:28.429Z</time>
      </trkpt>
      <trkpt lat="47.7179981" lon="-1.8356838">
        <ele>6.608</ele>
        <time>2018-08-28T13:41:31.432Z</time>
      </trkpt>
      <trkpt lat="47.7180847" lon="-1.8356024">
        <ele>6.251</ele>
        <time>2018-08-28T13:41:34.337Z</time>
      </trkpt>
      <trkpt lat="47.7181752" lon="-1.8355304">
        <ele>5.976</ele>
        <time>2018-08-28T13:41:37.308Z</time>
      </trkpt>
      <trkpt lat="47.7182653" lon="-1.8354681">
        <ele>5.878</ele>
        <time>2018-08-28T13:41:40.253Z</time>
      </trkpt>
      <trkpt lat="47.7183508" lon="-1.8354070">
        <ele>5.840</ele>
        <time>2018-08-28T13:41:43.116Z</time>
      </trkpt>
      <trkpt lat="47.7184389" lon="-1.8353474">
        <ele>5.741</ele>
        <time>2018-08-28T13:41:46.064Z</time>
      </trkpt>
      <trkpt lat="47.7185305" lon="-1.8352900">
        <ele>5.612</ele>
        <time>2018-08-28T13:41:49.099Z</time>
      </trkpt>
      <trkpt lat="47.7186231" lon="-1.8352508">
        <ele>5.532</ele>
        <time>2018-08-28T13:41:52.025Z</time>
      </trkpt>
      <trkpt lat="47.7187225" lon="-1.8352148">
        <ele>5.456</ele>
        <time>2018-08-28T13:41:55.115Z</time>
      </trkpt>
      <trkpt lat="47.7188182" lon="-1.8351739">
        <ele>5.278</ele>
        <time>2018-08-28T13:41:58.101Z</time>
      </trkpt>
      <trkpt lat="47.7189175" lon="-1.8351454">
        <ele>4.955</ele>
        <time>2018-08-28T13:42:01.134Z</time>
      </trkpt>
      <trkpt lat="47.7190085" lon="-1.8351316">
        <ele>4.580</ele>
        <time>2018-08-28T13:42:03.859Z</time>
      </trkpt>
      <trkpt lat="47.7191117" lon="-1.8351076">
        <ele>4.279</ele>
        <time>2018-08-28T13:42:06.912Z</time>
      </trkpt>
      <trkpt lat="47.7192160" lon="-1.8350870">
        <ele>4.095</ele>
        <time>2018-08-28T13:42:09.939Z</time>
      </trkpt>
      <trkpt lat="47.7193208" lon="-1.8350719">
        <ele>4.007</ele>
        <time>2018-08-28T13:42:12.921Z</time>
      </trkpt>
      <trkpt lat="47.7194296" lon="-1.8350613">
        <ele>4.024</ele>
        <time>2018-08-28T13:42:16.035Z</time>
      </trkpt>
      <trkpt lat="47.7195341" lon="-1.8350548">
        <ele>4.116</ele>
        <time>2018-08-28T13:42:19.113Z</time>
      </trkpt>
      <trkpt lat="47.7196440" lon="-1.8350823">
        <ele>4.211</ele>
        <time>2018-08-28T13:42:22.532Z</time>
      </trkpt>
      <trkpt lat="47.7197496" lon="-1.8350841">
        <ele>4.245</ele>
        <time>2018-08-28T13:42:25.755Z</time>
      </trkpt>
      <trkpt lat="47.7198480" lon="-1.8350838">
        <ele>4.223</ele>
        <time>2018-08-28T13:42:28.711Z</time>
      </trkpt>
      <trkpt lat="47.7199537" lon="-1.8350851">
        <ele>4.114</ele>
        <time>2018-08-28T13:42:31.829Z</time>
      </trkpt>
      <trkpt lat="47.7200575" lon="-1.8350935">
        <ele>3.899</ele>
        <time>2018-08-28T13:42:34.858Z</time>
      </trkpt>
      <trkpt lat="47.7201582" lon="-1.8351014">
        <ele>3.665</ele>
        <time>2018-08-28T13:42:37.771Z</time>
      </trkpt>
      <trkpt lat="47.7202636" lon="-1.8351114">
        <ele>3.500</ele>
        <time>2018-08-28T13:42:40.797Z</time>
      </trkpt>
      <trkpt lat="47.7203663" lon="-1.8351336">
        <ele>3.417</ele>
        <time>2018-08-28T13:42:43.742Z</time>
      </trkpt>
      <trkpt lat="47.7204708" lon="-1.8351729">
        <ele>3.366</ele>
        <time>2018-08-28T13:42:46.763Z</time>
      </trkpt>
      <trkpt lat="47.7205729" lon="-1.8352250">
        <ele>3.263</ele>
        <time>2018-08-28T13:42:49.748Z</time>
      </trkpt>
      <trkpt lat="47.7206743" lon="-1.8352837">
        <ele>3.096</ele>
        <time>2018-08-28T13:42:52.716Z</time>
      </trkpt>
      <trkpt lat="47.7207768" lon="-1.8353504">
        <ele>2.917</ele>
        <time>2018-08-28T13:42:55.712Z</time>
      </trkpt>
      <trkpt lat="47.7208887" lon="-1.8354167">
        <ele>2.708</ele>
        <time>2018-08-28T13:42:58.875Z</time>
      </trkpt>
      <trkpt lat="47.7209957" lon="-1.8354936">
        <ele>2.448</ele>
        <time>2018-08-28T13:43:01.935Z</time>
      </trkpt>
      <trkpt lat="47.7211028" lon="-1.8355744">
        <ele>2.292</ele>
        <time>2018-08-28T13:43:04.990Z</time>
      </trkpt>
      <trkpt lat="47.7212028" lon="-1.8356646">
        <ele>2.362</ele>
        <time>2018-08-28T13:43:08.002Z</time>
      </trkpt>
      <trkpt lat="47.7212870" lon="-1.8357586">
        <ele>2.520</ele>
        <time>2018-08-28T13:43:10.771Z</time>
      </trkpt>
      <trkpt lat="47.7213696" lon="-1.8358644">
        <ele>2.690</ele>
        <time>2018-08-28T13:43:13.662Z</time>
      </trkpt>
      <trkpt lat="47.7214537" lon="-1.8359754">
        <ele>2.909</ele>
        <time>2018-08-28T13:43:16.621Z</time>
      </trkpt>
      <trkpt lat="47.7215312" lon="-1.8361089">
        <ele>3.187</ele>
        <time>2018-08-28T13:43:19.681Z</time>
      </trkpt>
      <trkpt lat="47.7216160" lon="-1.8362385">
        <ele>3.511</ele>
        <time>2018-08-28T13:43:22.788Z</time>
      </trkpt>
      <trkpt lat="47.7216920" lon="-1.8363638">
        <ele>3.798</ele>
        <time>2018-08-28T13:43:25.700Z</time>
      </trkpt>
      <trkpt lat="47.7217656" lon="-1.8364909">
        <ele>3.944</ele>
        <time>2018-08-28T13:43:28.637Z</time>
      </trkpt>
      <trkpt lat="47.7218369" lon="-1.8366165">
        <ele>4.013</ele>
        <time>2018-08-28T13:43:31.563Z</time>
      </trkpt>
      <trkpt lat="47.7219065" lon="-1.8367339">
        <ele>4.059</ele>
        <time>2018-08-28T13:43:34.382Z</time>
      </trkpt>
      <trkpt lat="47.7219792" lon="-1.8368560">
        <ele>4.049</ele>
        <time>2018-08-28T13:43:37.320Z</time>
      </trkpt>
      <trkpt lat="47.7220458" lon="-1.8369828">
        <ele>3.935</ele>
        <time>2018-08-28T13:43:40.203Z</time>
      </trkpt>
      <trkpt lat="47.7221166" lon="-1.8371130">
        <ele>3.682</ele>
        <time>2018-08-28T13:43:43.179Z</time>
      </trkpt>
      <trkpt lat="47.7221915" lon="-1.8372389">
        <ele>3.357</ele>
        <time>2018-08-28T13:43:46.157Z</time>
      </trkpt>
      <trkpt lat="47.7222669" lon="-1.8373652">
        <ele>3.167</ele>
        <time>2018-08-28T13:43:49.142Z</time>
      </trkpt>
      <trkpt lat="47.7223399" lon="-1.8374918">
        <ele>3.192</ele>
        <time>2018-08-28T13:43:52.097Z</time>
      </trkpt>
      <trkpt lat="47.7224134" lon="-1.8376169">
        <ele>3.265</ele>
        <time>2018-08-28T13:43:55.053Z</time>
      </trkpt>
      <trkpt lat="47.7224901" lon="-1.8377327">
        <ele>3.185</ele>
        <time>2018-08-28T13:43:57.960Z</time>
      </trkpt>
      <trkpt lat="47.7225679" lon="-1.8378375">
        <ele>2.971</ele>
        <time>2018-08-28T13:44:00.789Z</time>
      </trkpt>
      <trkpt lat="47.7226476" lon="-1.8379463">
        <ele>2.781</ele>
        <time>2018-08-28T13:44:03.781Z</time>
      </trkpt>
      <trkpt lat="47.7227250" lon="-1.8380424">
        <ele>2.722</ele>
        <time>2018-08-28T13:44:06.665Z</time>
      </trkpt>
      <trkpt lat="47.7228068" lon="-1.8381229">
        <ele>2.824</ele>
        <time>2018-08-28T13:44:09.513Z</time>
      </trkpt>
      <trkpt lat="47.7229066" lon="-1.8381899">
        <ele>3.028</ele>
        <time>2018-08-28T13:44:12.680Z</time>
      </trkpt>
      <trkpt lat="47.7230014" lon="-1.8382550">
        <ele>3.316</ele>
        <time>2018-08-28T13:44:15.657Z</time>
      </trkpt>
      <trkpt lat="47.7231090" lon="-1.8383001">
        <ele>3.759</ele>
        <time>2018-08-28T13:44:18.754Z</time>
      </trkpt>
      <trkpt lat="47.7232201" lon="-1.8383395">
        <ele>4.377</ele>
        <time>2018-08-28T13:44:21.890Z</time>
      </trkpt>
      <trkpt lat="47.7233189" lon="-1.8383747">
        <ele>5.006</ele>
        <time>2018-08-28T13:44:24.732Z</time>
      </trkpt>
      <trkpt lat="47.7234157" lon="-1.8383996">
        <ele>5.407</ele>
        <time>2018-08-28T13:44:27.527Z</time>
      </trkpt>
      <trkpt lat="47.7235164" lon="-1.8384191">
        <ele>5.462</ele>
        <time>2018-08-28T13:44:30.453Z</time>
      </trkpt>
      <trkpt lat="47.7236219" lon="-1.8384141">
        <ele>5.283</ele>
        <time>2018-08-28T13:44:33.543Z</time>
      </trkpt>
      <trkpt lat="47.7237267" lon="-1.8384062">
        <ele>4.945</ele>
        <time>2018-08-28T13:44:36.589Z</time>
      </trkpt>
      <trkpt lat="47.7238420" lon="-1.8383858">
        <ele>4.628</ele>
        <time>2018-08-28T13:44:39.817Z</time>
      </trkpt>
      <trkpt lat="47.7239606" lon="-1.8383584">
        <ele>4.645</ele>
        <time>2018-08-28T13:44:43.017Z</time>
      </trkpt>
      <trkpt lat="47.7240718" lon="-1.8383317">
        <ele>4.982</ele>
        <time>2018-08-28T13:44:45.972Z</time>
      </trkpt>
      <trkpt lat="47.7241861" lon="-1.8383047">
        <ele>5.289</ele>
        <time>2018-08-28T13:44:48.983Z</time>
      </trkpt>
      <trkpt lat="47.7242980" lon="-1.8382542">
        <ele>5.401</ele>
        <time>2018-08-28T13:44:51.993Z</time>
      </trkpt>
      <trkpt lat="47.7244079" lon="-1.8381869">
        <ele>5.462</ele>
        <time>2018-08-28T13:44:55.030Z</time>
      </trkpt>
      <trkpt lat="47.7245164" lon="-1.8381147">
        <ele>5.649</ele>
        <time>2018-08-28T13:44:58.039Z</time>
      </trkpt>
      <trkpt lat="47.7246273" lon="-1.8380315">
        <ele>5.978</ele>
        <time>2018-08-28T13:45:01.173Z</time>
      </trkpt>
      <trkpt lat="47.7247318" lon="-1.8379581">
        <ele>6.494</ele>
        <time>2018-08-28T13:45:04.112Z</time>
      </trkpt>
      <trkpt lat="47.7248395" lon="-1.8378857">
        <ele>7.186</ele>
        <time>2018-08-28T13:45:07.149Z</time>
      </trkpt>
      <trkpt lat="47.7249383" lon="-1.8378086">
        <ele>7.813</ele>
        <time>2018-08-28T13:45:10.045Z</time>
      </trkpt>
      <trkpt lat="47.7250418" lon="-1.8377363">
        <ele>8.166</ele>
        <time>2018-08-28T13:45:13.042Z</time>
      </trkpt>
      <trkpt lat="47.7251436" lon="-1.8376718">
        <ele>8.274</ele>
        <time>2018-08-28T13:45:15.991Z</time>
      </trkpt>
      <trkpt lat="47.7252473" lon="-1.8376234">
        <ele>8.252</ele>
        <time>2018-08-28T13:45:18.916Z</time>
      </trkpt>
      <trkpt lat="47.7253547" lon="-1.8375908">
        <ele>8.094</ele>
        <time>2018-08-28T13:45:21.908Z</time>
      </trkpt>
      <trkpt lat="47.7254601" lon="-1.8375816">
        <ele>7.745</ele>
        <time>2018-08-28T13:45:24.801Z</time>
      </trkpt>
      <trkpt lat="47.7255725" lon="-1.8375780">
        <ele>7.315</ele>
        <time>2018-08-28T13:45:27.836Z</time>
      </trkpt>
      <trkpt lat="47.7256879" lon="-1.8375869">
        <ele>6.956</ele>
        <time>2018-08-28T13:45:30.905Z</time>
      </trkpt>
      <trkpt lat="47.7257991" lon="-1.8376170">
        <ele>6.667</ele>
        <time>2018-08-28T13:45:33.898Z</time>
      </trkpt>
      <trkpt lat="47.7259044" lon="-1.8376605">
        <ele>6.338</ele>
        <time>2018-08-28T13:45:36.797Z</time>
      </trkpt>
      <trkpt lat="47.7260066" lon="-1.8377265">
        <ele>5.962</ele>
        <time>2018-08-28T13:45:39.764Z</time>
      </trkpt>
      <trkpt lat="47.7261059" lon="-1.8378059">
        <ele>5.610</ele>
        <time>2018-08-28T13:45:42.754Z</time>
      </trkpt>
      <trkpt lat="47.7262076" lon="-1.8378940">
        <ele>5.186</ele>
        <time>2018-08-28T13:45:45.807Z</time>
      </trkpt>
      <trkpt lat="47.7263077" lon="-1.8379917">
        <ele>4.642</ele>
        <time>2018-08-28T13:45:48.884Z</time>
      </trkpt>
      <trkpt lat="47.7263980" lon="-1.8380865">
        <ele>4.188</ele>
        <time>2018-08-28T13:45:51.766Z</time>
      </trkpt>
      <trkpt lat="47.7264863" lon="-1.8381841">
        <ele>3.965</ele>
        <time>2018-08-28T13:45:54.671Z</time>
      </trkpt>
      <trkpt lat="47.7265769" lon="-1.8382848">
        <ele>3.886</ele>
        <time>2018-08-28T13:45:57.675Z</time>
      </trkpt>
      <trkpt lat="47.7266645" lon="-1.8383881">
        <ele>3.862</ele>
        <time>2018-08-28T13:46:00.665Z</time>
      </trkpt>
      <trkpt lat="47.7267483" lon="-1.8384944">
        <ele>3.864</ele>
        <time>2018-08-28T13:46:03.607Z</time>
      </trkpt>
      <trkpt lat="47.7268339" lon="-1.8386007">
        <ele>3.875</ele>
        <time>2018-08-28T13:46:06.572Z</time>
      </trkpt>
      <trkpt lat="47.7269158" lon="-1.8387045">
        <ele>3.872</ele>
        <time>2018-08-28T13:46:09.438Z</time>
      </trkpt>
      <trkpt lat="47.7270033" lon="-1.8387990">
        <ele>3.862</ele>
        <time>2018-08-28T13:46:12.327Z</time>
      </trkpt>
      <trkpt lat="47.7270992" lon="-1.8388840">
        <ele>3.927</ele>
        <time>2018-08-28T13:46:15.321Z</time>
      </trkpt>
      <trkpt lat="47.7271973" lon="-1.8389548">
        <ele>4.154</ele>
        <time>2018-08-28T13:46:18.253Z</time>
      </trkpt>
      <trkpt lat="47.7273004" lon="-1.8390074">
        <ele>4.466</ele>
        <time>2018-08-28T13:46:21.185Z</time>
      </trkpt>
      <trkpt lat="47.7274054" lon="-1.8390496">
        <ele>4.687</ele>
        <time>2018-08-28T13:46:24.117Z</time>
      </trkpt>
      <trkpt lat="47.7275102" lon="-1.8390866">
        <ele>4.703</ele>
        <time>2018-08-28T13:46:27.030Z</time>
      </trkpt>
      <trkpt lat="47.7276155" lon="-1.8391258">
        <ele>4.554</ele>
        <time>2018-08-28T13:46:29.956Z</time>
      </trkpt>
      <trkpt lat="47.7277306" lon="-1.8391599">
        <ele>4.262</ele>
        <time>2018-08-28T13:46:33.090Z</time>
      </trkpt>
      <trkpt lat="47.7278362" lon="-1.8391970">
        <ele>3.859</ele>
        <time>2018-08-28T13:46:35.973Z</time>
      </trkpt>
      <trkpt lat="47.7279445" lon="-1.8392451">
        <ele>3.593</ele>
        <time>2018-08-28T13:46:38.947Z</time>
      </trkpt>
      <trkpt lat="47.7280601" lon="-1.8392769">
        <ele>3.645</ele>
        <time>2018-08-28T13:46:41.989Z</time>
      </trkpt>
      <trkpt lat="47.7281775" lon="-1.8392931">
        <ele>3.708</ele>
        <time>2018-08-28T13:46:44.980Z</time>
      </trkpt>
      <trkpt lat="47.7282970" lon="-1.8392752">
        <ele>3.508</ele>
        <time>2018-08-28T13:46:48.031Z</time>
      </trkpt>
      <trkpt lat="47.7284081" lon="-1.8392538">
        <ele>3.232</ele>
        <time>2018-08-28T13:46:50.916Z</time>
      </trkpt>
      <trkpt lat="47.7285208" lon="-1.8392091">
        <ele>3.246</ele>
        <time>2018-08-28T13:46:53.931Z</time>
      </trkpt>
      <trkpt lat="47.7286304" lon="-1.8391684">
        <ele>3.610</ele>
        <time>2018-08-28T13:46:56.856Z</time>
      </trkpt>
      <trkpt lat="47.7287393" lon="-1.8391320">
        <ele>4.035</ele>
        <time>2018-08-28T13:46:59.786Z</time>
      </trkpt>
      <trkpt lat="47.7288418" lon="-1.8390919">
        <ele>4.263</ele>
        <time>2018-08-28T13:47:02.625Z</time>
      </trkpt>
      <trkpt lat="47.7289399" lon="-1.8390317">
        <ele>4.273</ele>
        <time>2018-08-28T13:47:05.516Z</time>
      </trkpt>
      <trkpt lat="47.7290331" lon="-1.8389548">
        <ele>4.142</ele>
        <time>2018-08-28T13:47:08.443Z</time>
      </trkpt>
      <trkpt lat="47.7291260" lon="-1.8388777">
        <ele>4.046</ele>
        <time>2018-08-28T13:47:11.363Z</time>
      </trkpt>
      <trkpt lat="47.7292214" lon="-1.8387910">
        <ele>4.237</ele>
        <time>2018-08-28T13:47:14.419Z</time>
      </trkpt>
      <trkpt lat="47.7293078" lon="-1.8386990">
        <ele>4.790</ele>
        <time>2018-08-28T13:47:17.369Z</time>
      </trkpt>
      <trkpt lat="47.7293746" lon="-1.8386035">
        <ele>5.458</ele>
        <time>2018-08-28T13:47:20.000Z</time>
      </trkpt>
      <trkpt lat="47.7293746" lon="-1.8386035">
        <ele>5.923</ele>
        <time>2018-08-28T13:47:26.000Z</time>
      </trkpt>
      <trkpt lat="47.7293746" lon="-1.8386035">
        <ele>6.092</ele>
        <time>2018-08-28T13:47:37.407Z</time>
      </trkpt>
      <trkpt lat="47.7294133" lon="-1.8384756">
        <ele>5.975</ele>
        <time>2018-08-28T13:47:52.000Z</time>
      </trkpt>
      <trkpt lat="47.7294133" lon="-1.8384756">
        <ele>5.926</ele>
        <time>2018-08-28T13:48:05.000Z</time>
      </trkpt>
      <trkpt lat="47.7294133" lon="-1.8384756">
        <ele>5.928</ele>
        <time>2018-08-28T13:48:05.100Z</time>
      </trkpt>
      <trkpt lat="47.7294987" lon="-1.8385223">
        <ele>5.941</ele>
        <time>2018-08-28T13:48:45.161Z</time>
      </trkpt>
      <trkpt lat="47.7294335" lon="-1.8386169">
        <ele>6.115</ele>
        <time>2018-08-28T13:49:03.000Z</time>
      </trkpt>
      <trkpt lat="47.7294335" lon="-1.8386169">
        <ele>6.590</ele>
        <time>2018-08-28T13:49:07.000Z</time>
      </trkpt>
      <trkpt lat="47.7294335" lon="-1.8386169">
        <ele>6.989</ele>
        <time>2018-08-28T13:49:25.987Z</time>
      </trkpt>
      <trkpt lat="47.7295227" lon="-1.8385404">
        <ele>6.765</ele>
        <time>2018-08-28T13:49:36.384Z</time>
      </trkpt>
      <trkpt lat="47.7296140" lon="-1.8384498">
        <ele>6.758</ele>
        <time>2018-08-28T13:49:40.806Z</time>
      </trkpt>
      <trkpt lat="47.7296992" lon="-1.8383790">
        <ele>7.191</ele>
        <time>2018-08-28T13:49:43.796Z</time>
      </trkpt>
      <trkpt lat="47.7297868" lon="-1.8383138">
        <ele>7.851</ele>
        <time>2018-08-28T13:49:46.488Z</time>
      </trkpt>
      <trkpt lat="47.7298744" lon="-1.8382503">
        <ele>8.303</ele>
        <time>2018-08-28T13:49:49.013Z</time>
      </trkpt>
      <trkpt lat="47.7299658" lon="-1.8381866">
        <ele>8.423</ele>
        <time>2018-08-28T13:49:51.521Z</time>
      </trkpt>
      <trkpt lat="47.7300603" lon="-1.8381316">
        <ele>8.367</ele>
        <time>2018-08-28T13:49:54.015Z</time>
      </trkpt>
      <trkpt lat="47.7301543" lon="-1.8380826">
        <ele>8.264</ele>
        <time>2018-08-28T13:49:56.450Z</time>
      </trkpt>
      <trkpt lat="47.7302494" lon="-1.8380257">
        <ele>8.152</ele>
        <time>2018-08-28T13:49:58.934Z</time>
      </trkpt>
      <trkpt lat="47.7303566" lon="-1.8379655">
        <ele>8.078</ele>
        <time>2018-08-28T13:50:01.636Z</time>
      </trkpt>
      <trkpt lat="47.7304755" lon="-1.8378912">
        <ele>8.180</ele>
        <time>2018-08-28T13:50:04.523Z</time>
      </trkpt>
      <trkpt lat="47.7305821" lon="-1.8378287">
        <ele>8.491</ele>
        <time>2018-08-28T13:50:07.000Z</time>
      </trkpt>
      <trkpt lat="47.7305821" lon="-1.8378287">
        <ele>8.809</ele>
        <time>2018-08-28T13:50:07.000Z</time>
      </trkpt>
      <trkpt lat="47.7305821" lon="-1.8378287">
        <ele>8.944</ele>
        <time>2018-08-28T13:50:24.633Z</time>
      </trkpt>
      <trkpt lat="47.7307478" lon="-1.8377871">
        <ele>8.879</ele>
        <time>2018-08-28T13:50:36.329Z</time>
      </trkpt>
      <trkpt lat="47.7308377" lon="-1.8377816">
        <ele>8.652</ele>
        <time>2018-08-28T13:50:39.279Z</time>
      </trkpt>
      <trkpt lat="47.7309455" lon="-1.8377975">
        <ele>8.156</ele>
        <time>2018-08-28T13:50:42.432Z</time>
      </trkpt>
      <trkpt lat="47.7310591" lon="-1.8378174">
        <ele>7.058</ele>
        <time>2018-08-28T13:50:45.495Z</time>
      </trkpt>
      <trkpt lat="47.7311738" lon="-1.8378918">
        <ele>5.361</ele>
        <time>2018-08-28T13:50:48.637Z</time>
      </trkpt>
      <trkpt lat="47.7312936" lon="-1.8379737">
        <ele>3.585</ele>
        <time>2018-08-28T13:50:51.805Z</time>
      </trkpt>
      <trkpt lat="47.7314035" lon="-1.8380726">
        <ele>2.264</ele>
        <time>2018-08-28T13:50:54.811Z</time>
      </trkpt>
      <trkpt lat="47.7315113" lon="-1.8381854">
        <ele>1.762</ele>
        <time>2018-08-28T13:50:57.867Z</time>
      </trkpt>
      <trkpt lat="47.7316097" lon="-1.8383043">
        <ele>2.049</ele>
        <time>2018-08-28T13:51:00.812Z</time>
      </trkpt>
      <trkpt lat="47.7317026" lon="-1.8384327">
        <ele>2.310</ele>
        <time>2018-08-28T13:51:03.759Z</time>
      </trkpt>
      <trkpt lat="47.7317838" lon="-1.8385747">
        <ele>2.753</ele>
        <time>2018-08-28T13:51:06.672Z</time>
      </trkpt>
      <trkpt lat="47.7318438" lon="-1.8387480">
        <ele>3.461</ele>
        <time>2018-08-28T13:51:09.739Z</time>
      </trkpt>
      <trkpt lat="47.7318817" lon="-1.8389263">
        <ele>4.069</ele>
        <time>2018-08-28T13:51:12.729Z</time>
      </trkpt>
      <trkpt lat="47.7319020" lon="-1.8390998">
        <ele>4.251</ele>
        <time>2018-08-28T13:51:15.576Z</time>
      </trkpt>
      <trkpt lat="47.7319126" lon="-1.8392841">
        <ele>3.922</ele>
        <time>2018-08-28T13:51:18.565Z</time>
      </trkpt>
      <trkpt lat="47.7319247" lon="-1.8394660">
        <ele>3.247</ele>
        <time>2018-08-28T13:51:21.500Z</time>
      </trkpt>
      <trkpt lat="47.7319408" lon="-1.8396512">
        <ele>2.682</ele>
        <time>2018-08-28T13:51:24.480Z</time>
      </trkpt>
      <trkpt lat="47.7319556" lon="-1.8398359">
        <ele>2.503</ele>
        <time>2018-08-28T13:51:27.443Z</time>
      </trkpt>
      <trkpt lat="47.7319721" lon="-1.8400145">
        <ele>2.588</ele>
        <time>2018-08-28T13:51:30.325Z</time>
      </trkpt>
      <trkpt lat="47.7319924" lon="-1.8401972">
        <ele>2.670</ele>
        <time>2018-08-28T13:51:33.313Z</time>
      </trkpt>
      <trkpt lat="47.7320177" lon="-1.8403707">
        <ele>2.603</ele>
        <time>2018-08-28T13:51:36.210Z</time>
      </trkpt>
      <trkpt lat="47.7320574" lon="-1.8405451">
        <ele>2.501</ele>
        <time>2018-08-28T13:51:39.222Z</time>
      </trkpt>
      <trkpt lat="47.7321058" lon="-1.8407161">
        <ele>2.492</ele>
        <time>2018-08-28T13:51:42.242Z</time>
      </trkpt>
      <trkpt lat="47.7321515" lon="-1.8408862">
        <ele>2.421</ele>
        <time>2018-08-28T13:51:45.214Z</time>
      </trkpt>
      <trkpt lat="47.7321946" lon="-1.8410525">
        <ele>2.138</ele>
        <time>2018-08-28T13:51:48.115Z</time>
      </trkpt>
      <trkpt lat="47.7322422" lon="-1.8412182">
        <ele>1.807</ele>
        <time>2018-08-28T13:51:51.055Z</time>
      </trkpt>
      <trkpt lat="47.7322868" lon="-1.8413871">
        <ele>1.574</ele>
        <time>2018-08-28T13:51:54.005Z</time>
      </trkpt>
      <trkpt lat="47.7323291" lon="-1.8415607">
        <ele>1.402</ele>
        <time>2018-08-28T13:51:57.007Z</time>
      </trkpt>
      <trkpt lat="47.7323623" lon="-1.8417289">
        <ele>1.303</ele>
        <time>2018-08-28T13:51:59.927Z</time>
      </trkpt>
      <trkpt lat="47.7324063" lon="-1.8418739">
        <ele>1.296</ele>
        <time>2018-08-28T13:52:02.677Z</time>
      </trkpt>
      <trkpt lat="47.7324484" lon="-1.8420244">
        <ele>1.189</ele>
        <time>2018-08-28T13:52:05.543Z</time>
      </trkpt>
      <trkpt lat="47.7324949" lon="-1.8421778">
        <ele>0.825</ele>
        <time>2018-08-28T13:52:08.483Z</time>
      </trkpt>
      <trkpt lat="47.7325380" lon="-1.8423424">
        <ele>0.456</ele>
        <time>2018-08-28T13:52:11.521Z</time>
      </trkpt>
      <trkpt lat="47.7325858" lon="-1.8425063">
        <ele>0.283</ele>
        <time>2018-08-28T13:52:14.540Z</time>
      </trkpt>
      <trkpt lat="47.7326314" lon="-1.8426754">
        <ele>0.320</ele>
        <time>2018-08-28T13:52:17.573Z</time>
      </trkpt>
      <trkpt lat="47.7326786" lon="-1.8428436">
        <ele>0.512</ele>
        <time>2018-08-28T13:52:20.579Z</time>
      </trkpt>
      <trkpt lat="47.7327328" lon="-1.8430055">
        <ele>0.823</ele>
        <time>2018-08-28T13:52:23.543Z</time>
      </trkpt>
      <trkpt lat="47.7327886" lon="-1.8431663">
        <ele>1.222</ele>
        <time>2018-08-28T13:52:26.502Z</time>
      </trkpt>
      <trkpt lat="47.7328642" lon="-1.8433105">
        <ele>1.563</ele>
        <time>2018-08-28T13:52:29.495Z</time>
      </trkpt>
      <trkpt lat="47.7329562" lon="-1.8434285">
        <ele>1.660</ele>
        <time>2018-08-28T13:52:32.435Z</time>
      </trkpt>
      <trkpt lat="47.7330582" lon="-1.8435413">
        <ele>1.534</ele>
        <time>2018-08-28T13:52:35.481Z</time>
      </trkpt>
      <trkpt lat="47.7331539" lon="-1.8436548">
        <ele>1.412</ele>
        <time>2018-08-28T13:52:38.442Z</time>
      </trkpt>
      <trkpt lat="47.7332402" lon="-1.8437680">
        <ele>1.458</ele>
        <time>2018-08-28T13:52:41.290Z</time>
      </trkpt>
      <trkpt lat="47.7333301" lon="-1.8438775">
        <ele>1.552</ele>
        <time>2018-08-28T13:52:44.184Z</time>
      </trkpt>
      <trkpt lat="47.7334313" lon="-1.8439855">
        <ele>1.432</ele>
        <time>2018-08-28T13:52:47.266Z</time>
      </trkpt>
      <trkpt lat="47.7335256" lon="-1.8440914">
        <ele>0.897</ele>
        <time>2018-08-28T13:52:50.167Z</time>
      </trkpt>
      <trkpt lat="47.7336282" lon="-1.8441954">
        <ele>0.107</ele>
        <time>2018-08-28T13:52:53.204Z</time>
      </trkpt>
      <trkpt lat="47.7337222" lon="-1.8442912">
        <ele>0.000</ele>
        <time>2018-08-28T13:52:56.001Z</time>
      </trkpt>
      <trkpt lat="47.7338306" lon="-1.8443750">
        <ele>0.000</ele>
        <time>2018-08-28T13:52:59.007Z</time>
      </trkpt>
      <trkpt lat="47.7339359" lon="-1.8444628">
        <ele>0.000</ele>
        <time>2018-08-28T13:53:01.989Z</time>
      </trkpt>
      <trkpt lat="47.7340389" lon="-1.8445409">
        <ele>0.000</ele>
        <time>2018-08-28T13:53:04.868Z</time>
      </trkpt>
      <trkpt lat="47.7341437" lon="-1.8446115">
        <ele>0.000</ele>
        <time>2018-08-28T13:53:07.756Z</time>
      </trkpt>
      <trkpt lat="47.7342497" lon="-1.8446799">
        <ele>0.000</ele>
        <time>2018-08-28T13:53:10.659Z</time>
      </trkpt>
      <trkpt lat="47.7343663" lon="-1.8447411">
        <ele>0.000</ele>
        <time>2018-08-28T13:53:13.728Z</time>
      </trkpt>
      <trkpt lat="47.7344898" lon="-1.8447822">
        <ele>0.000</ele>
        <time>2018-08-28T13:53:16.820Z</time>
      </trkpt>
      <trkpt lat="47.7346150" lon="-1.8448075">
        <ele>0.000</ele>
        <time>2018-08-28T13:53:19.878Z</time>
      </trkpt>
      <trkpt lat="47.7347343" lon="-1.8448315">
        <ele>0.000</ele>
        <time>2018-08-28T13:53:22.790Z</time>
      </trkpt>
      <trkpt lat="47.7348530" lon="-1.8448588">
        <ele>0.000</ele>
        <time>2018-08-28T13:53:25.710Z</time>
      </trkpt>
      <trkpt lat="47.7349691" lon="-1.8448809">
        <ele>0.000</ele>
        <time>2018-08-28T13:53:28.620Z</time>
      </trkpt>
      <trkpt lat="47.7350728" lon="-1.8448980">
        <ele>0.276</ele>
        <time>2018-08-28T13:53:31.337Z</time>
      </trkpt>
      <trkpt lat="47.7351629" lon="-1.8449284">
        <ele>1.208</ele>
        <time>2018-08-28T13:53:33.900Z</time>
      </trkpt>
      <trkpt lat="47.7352521" lon="-1.8449470">
        <ele>1.934</ele>
        <time>2018-08-28T13:53:36.568Z</time>
      </trkpt>
      <trkpt lat="47.7353454" lon="-1.8449646">
        <ele>2.349</ele>
        <time>2018-08-28T13:53:39.493Z</time>
      </trkpt>
      <trkpt lat="47.7354400" lon="-1.8449830">
        <ele>2.654</ele>
        <time>2018-08-28T13:53:42.516Z</time>
      </trkpt>
      <trkpt lat="47.7355580" lon="-1.8449936">
        <ele>3.005</ele>
        <time>2018-08-28T13:53:46.326Z</time>
      </trkpt>
      <trkpt lat="47.7356724" lon="-1.8450123">
        <ele>3.323</ele>
        <time>2018-08-28T13:53:50.128Z</time>
      </trkpt>
      <trkpt lat="47.7357750" lon="-1.8450178">
        <ele>3.211</ele>
        <time>2018-08-28T13:53:53.464Z</time>
      </trkpt>
      <trkpt lat="47.7358822" lon="-1.8450274">
        <ele>3.045</ele>
        <time>2018-08-28T13:53:56.760Z</time>
      </trkpt>
      <trkpt lat="47.7359899" lon="-1.8450307">
        <ele>2.885</ele>
        <time>2018-08-28T13:53:59.908Z</time>
      </trkpt>
      <trkpt lat="47.7360972" lon="-1.8450283">
        <ele>2.765</ele>
        <time>2018-08-28T13:54:02.982Z</time>
      </trkpt>
      <trkpt lat="47.7361954" lon="-1.8450056">
        <ele>2.823</ele>
        <time>2018-08-28T13:54:05.861Z</time>
      </trkpt>
      <trkpt lat="47.7362876" lon="-1.8449594">
        <ele>3.268</ele>
        <time>2018-08-28T13:54:08.720Z</time>
      </trkpt>
      <trkpt lat="47.7363997" lon="-1.8449219">
        <ele>4.091</ele>
        <time>2018-08-28T13:54:11.977Z</time>
      </trkpt>
      <trkpt lat="47.7365182" lon="-1.8448696">
        <ele>4.984</ele>
        <time>2018-08-28T13:54:15.245Z</time>
      </trkpt>
      <trkpt lat="47.7366421" lon="-1.8448213">
        <ele>5.743</ele>
        <time>2018-08-28T13:54:18.445Z</time>
      </trkpt>
      <trkpt lat="47.7367595" lon="-1.8447773">
        <ele>6.461</ele>
        <time>2018-08-28T13:54:21.411Z</time>
      </trkpt>
      <trkpt lat="47.7368726" lon="-1.8447379">
        <ele>7.137</ele>
        <time>2018-08-28T13:54:24.263Z</time>
      </trkpt>
      <trkpt lat="47.7369862" lon="-1.8446935">
        <ele>7.541</ele>
        <time>2018-08-28T13:54:27.176Z</time>
      </trkpt>
      <trkpt lat="47.7370999" lon="-1.8446444">
        <ele>7.564</ele>
        <time>2018-08-28T13:54:30.140Z</time>
      </trkpt>
      <trkpt lat="47.7372161" lon="-1.8446034">
        <ele>7.308</ele>
        <time>2018-08-28T13:54:33.149Z</time>
      </trkpt>
      <trkpt lat="47.7373267" lon="-1.8445641">
        <ele>6.953</ele>
        <time>2018-08-28T13:54:36.015Z</time>
      </trkpt>
      <trkpt lat="47.7374454" lon="-1.8445232">
        <ele>6.709</ele>
        <time>2018-08-28T13:54:39.076Z</time>
      </trkpt>
      <trkpt lat="47.7375612" lon="-1.8444867">
        <ele>6.653</ele>
        <time>2018-08-28T13:54:42.030Z</time>
      </trkpt>
      <trkpt lat="47.7376812" lon="-1.8444484">
        <ele>6.686</ele>
        <time>2018-08-28T13:54:45.077Z</time>
      </trkpt>
      <trkpt lat="47.7377932" lon="-1.8444117">
        <ele>6.710</ele>
        <time>2018-08-28T13:54:47.930Z</time>
      </trkpt>
      <trkpt lat="47.7379106" lon="-1.8443723">
        <ele>6.709</ele>
        <time>2018-08-28T13:54:50.947Z</time>
      </trkpt>
      <trkpt lat="47.7380269" lon="-1.8443313">
        <ele>6.675</ele>
        <time>2018-08-28T13:54:53.945Z</time>
      </trkpt>
      <trkpt lat="47.7381450" lon="-1.8442825">
        <ele>6.502</ele>
        <time>2018-08-28T13:54:57.001Z</time>
      </trkpt>
      <trkpt lat="47.7382604" lon="-1.8442282">
        <ele>6.177</ele>
        <time>2018-08-28T13:54:59.991Z</time>
      </trkpt>
      <trkpt lat="47.7383796" lon="-1.8441650">
        <ele>5.898</ele>
        <time>2018-08-28T13:55:03.072Z</time>
      </trkpt>
      <trkpt lat="47.7384989" lon="-1.8441028">
        <ele>5.933</ele>
        <time>2018-08-28T13:55:06.117Z</time>
      </trkpt>
      <trkpt lat="47.7386099" lon="-1.8440513">
        <ele>6.387</ele>
        <time>2018-08-28T13:55:08.932Z</time>
      </trkpt>
      <trkpt lat="47.7387159" lon="-1.8439885">
        <ele>7.196</ele>
        <time>2018-08-28T13:55:11.741Z</time>
      </trkpt>
      <trkpt lat="47.7388233" lon="-1.8439202">
        <ele>8.085</ele>
        <time>2018-08-28T13:55:14.662Z</time>
      </trkpt>
      <trkpt lat="47.7389341" lon="-1.8438670">
        <ele>8.694</ele>
        <time>2018-08-28T13:55:17.598Z</time>
      </trkpt>
      <trkpt lat="47.7390485" lon="-1.8438134">
        <ele>8.914</ele>
        <time>2018-08-28T13:55:20.626Z</time>
      </trkpt>
      <trkpt lat="47.7391605" lon="-1.8437678">
        <ele>8.946</ele>
        <time>2018-08-28T13:55:23.550Z</time>
      </trkpt>
      <trkpt lat="47.7392670" lon="-1.8437505">
        <ele>8.972</ele>
        <time>2018-08-28T13:55:26.279Z</time>
      </trkpt>
      <trkpt lat="47.7393747" lon="-1.8437138">
        <ele>9.047</ele>
        <time>2018-08-28T13:55:29.166Z</time>
      </trkpt>
      <trkpt lat="47.7394904" lon="-1.8436734">
        <ele>8.980</ele>
        <time>2018-08-28T13:55:32.287Z</time>
      </trkpt>
      <trkpt lat="47.7395990" lon="-1.8436424">
        <ele>8.578</ele>
        <time>2018-08-28T13:55:35.178Z</time>
      </trkpt>
      <trkpt lat="47.7396984" lon="-1.8435868">
        <ele>8.027</ele>
        <time>2018-08-28T13:55:38.002Z</time>
      </trkpt>
      <trkpt lat="47.7398051" lon="-1.8435136">
        <ele>7.576</ele>
        <time>2018-08-28T13:55:41.131Z</time>
      </trkpt>
      <trkpt lat="47.7399112" lon="-1.8434322">
        <ele>7.245</ele>
        <time>2018-08-28T13:55:44.242Z</time>
      </trkpt>
      <trkpt lat="47.7400042" lon="-1.8433614">
        <ele>7.048</ele>
        <time>2018-08-28T13:55:47.000Z</time>
      </trkpt>
      <trkpt lat="47.7400042" lon="-1.8433614">
        <ele>6.992</ele>
        <time>2018-08-28T13:55:47.000Z</time>
      </trkpt>
      <trkpt lat="47.7400042" lon="-1.8433614">
        <ele>6.996</ele>
        <time>2018-08-28T13:55:47.100Z</time>
      </trkpt>
      <trkpt lat="47.7401437" lon="-1.8432813">
        <ele>6.998</ele>
        <time>2018-08-28T13:55:57.359Z</time>
      </trkpt>
      <trkpt lat="47.7400729" lon="-1.8433947">
        <ele>6.953</ele>
        <time>2018-08-28T13:56:02.382Z</time>
      </trkpt>
      <trkpt lat="47.7399604" lon="-1.8434520">
        <ele>6.711</ele>
        <time>2018-08-28T13:56:07.777Z</time>
      </trkpt>
      <trkpt lat="47.7398745" lon="-1.8435206">
        <ele>6.250</ele>
        <time>2018-08-28T13:56:11.639Z</time>
      </trkpt>
      <trkpt lat="47.7397696" lon="-1.8435313">
        <ele>5.880</ele>
        <time>2018-08-28T13:56:16.000Z</time>
      </trkpt>
      <trkpt lat="47.7397696" lon="-1.8435313">
        <ele>5.818</ele>
        <time>2018-08-28T13:56:24.000Z</time>
      </trkpt>
      <trkpt lat="47.7397696" lon="-1.8435313">
        <ele>5.898</ele>
        <time>2018-08-28T13:56:37.000Z</time>
      </trkpt>
      <trkpt lat="47.7397696" lon="-1.8435313">
        <ele>5.932</ele>
        <time>2018-08-28T13:56:37.100Z</time>
      </trkpt>
      <trkpt lat="47.7397740" lon="-1.8433890">
        <ele>5.893</ele>
        <time>2018-08-28T13:59:15.000Z</time>
      </trkpt>
      <trkpt lat="47.7397740" lon="-1.8433890">
        <ele>5.886</ele>
        <time>2018-08-28T13:59:42.000Z</time>
      </trkpt>
      <trkpt lat="47.7397740" lon="-1.8433890">
        <ele>5.884</ele>
        <time>2018-08-28T13:59:42.100Z</time>
      </trkpt>
      <trkpt lat="47.7398459" lon="-1.8434752">
        <ele>5.880</ele>
        <time>2018-08-28T14:00:09.000Z</time>
      </trkpt>
      <trkpt lat="47.7398459" lon="-1.8434752">
        <ele>5.878</ele>
        <time>2018-08-28T14:00:15.000Z</time>
      </trkpt>
      <trkpt lat="47.7398459" lon="-1.8434752">
        <ele>5.875</ele>
        <time>2018-08-28T14:00:15.100Z</time>
      </trkpt>
      <trkpt lat="47.7400503" lon="-1.8433856">
        <ele>5.873</ele>
        <time>2018-08-28T14:00:30.468Z</time>
      </trkpt>
      <trkpt lat="47.7401611" lon="-1.8433168">
        <ele>5.509</ele>
        <time>2018-08-28T14:00:34.483Z</time>
      </trkpt>
      <trkpt lat="47.7402551" lon="-1.8432706">
        <ele>4.565</ele>
        <time>2018-08-28T14:00:37.460Z</time>
      </trkpt>
      <trkpt lat="47.7403567" lon="-1.8432288">
        <ele>3.684</ele>
        <time>2018-08-28T14:00:40.465Z</time>
      </trkpt>
      <trkpt lat="47.7404593" lon="-1.8431865">
        <ele>3.491</ele>
        <time>2018-08-28T14:00:43.402Z</time>
      </trkpt>
      <trkpt lat="47.7405622" lon="-1.8431320">
        <ele>3.855</ele>
        <time>2018-08-28T14:00:46.347Z</time>
      </trkpt>
      <trkpt lat="47.7406676" lon="-1.8430875">
        <ele>4.306</ele>
        <time>2018-08-28T14:00:49.242Z</time>
      </trkpt>
      <trkpt lat="47.7407763" lon="-1.8430388">
        <ele>4.480</ele>
        <time>2018-08-28T14:00:52.200Z</time>
      </trkpt>
      <trkpt lat="47.7408790" lon="-1.8429720">
        <ele>4.426</ele>
        <time>2018-08-28T14:00:55.090Z</time>
      </trkpt>
      <trkpt lat="47.7409780" lon="-1.8428759">
        <ele>4.433</ele>
        <time>2018-08-28T14:00:58.095Z</time>
      </trkpt>
      <trkpt lat="47.7410687" lon="-1.8427639">
        <ele>4.671</ele>
        <time>2018-08-28T14:01:01.025Z</time>
      </trkpt>
      <trkpt lat="47.7411587" lon="-1.8426319">
        <ele>5.042</ele>
        <time>2018-08-28T14:01:04.099Z</time>
      </trkpt>
      <trkpt lat="47.7412511" lon="-1.8425061">
        <ele>5.310</ele>
        <time>2018-08-28T14:01:07.101Z</time>
      </trkpt>
      <trkpt lat="47.7413482" lon="-1.8423920">
        <ele>5.403</ele>
        <time>2018-08-28T14:01:10.026Z</time>
      </trkpt>
      <trkpt lat="47.7414468" lon="-1.8422704">
        <ele>5.377</ele>
        <time>2018-08-28T14:01:13.020Z</time>
      </trkpt>
      <trkpt lat="47.7415453" lon="-1.8421458">
        <ele>5.382</ele>
        <time>2018-08-28T14:01:16.053Z</time>
      </trkpt>
      <trkpt lat="47.7416399" lon="-1.8420308">
        <ele>5.302</ele>
        <time>2018-08-28T14:01:18.985Z</time>
      </trkpt>
      <trkpt lat="47.7417251" lon="-1.8419206">
        <ele>4.990</ele>
        <time>2018-08-28T14:01:21.745Z</time>
      </trkpt>
      <trkpt lat="47.7418060" lon="-1.8417962">
        <ele>4.463</ele>
        <time>2018-08-28T14:01:24.566Z</time>
      </trkpt>
      <trkpt lat="47.7418883" lon="-1.8416430">
        <ele>3.910</ele>
        <time>2018-08-28T14:01:27.664Z</time>
      </trkpt>
      <trkpt lat="47.7419430" lon="-1.8415369">
        <ele>3.490</ele>
        <time>2018-08-28T14:01:29.750Z</time>
      </trkpt>
      <trkpt lat="47.7420215" lon="-1.8413811">
        <ele>3.253</ele>
        <time>2018-08-28T14:01:32.786Z</time>
      </trkpt>
      <trkpt lat="47.7421028" lon="-1.8412372">
        <ele>3.040</ele>
        <time>2018-08-28T14:01:35.734Z</time>
      </trkpt>
      <trkpt lat="47.7421876" lon="-1.8410905">
        <ele>2.667</ele>
        <time>2018-08-28T14:01:38.805Z</time>
      </trkpt>
      <trkpt lat="47.7422627" lon="-1.8409544">
        <ele>2.232</ele>
        <time>2018-08-28T14:01:41.689Z</time>
      </trkpt>
      <trkpt lat="47.7423359" lon="-1.8408285">
        <ele>1.936</ele>
        <time>2018-08-28T14:01:44.539Z</time>
      </trkpt>
      <trkpt lat="47.7424093" lon="-1.8407032">
        <ele>1.771</ele>
        <time>2018-08-28T14:01:47.478Z</time>
      </trkpt>
      <trkpt lat="47.7424806" lon="-1.8405741">
        <ele>1.602</ele>
        <time>2018-08-28T14:01:50.496Z</time>
      </trkpt>
      <trkpt lat="47.7425577" lon="-1.8404613">
        <ele>1.371</ele>
        <time>2018-08-28T14:01:53.429Z</time>
      </trkpt>
      <trkpt lat="47.7426324" lon="-1.8403422">
        <ele>0.654</ele>
        <time>2018-08-28T14:01:56.399Z</time>
      </trkpt>
      <trkpt lat="47.7426948" lon="-1.8401934">
        <ele>0.000</ele>
        <time>2018-08-28T14:01:59.581Z</time>
      </trkpt>
      <trkpt lat="47.7427545" lon="-1.8400536">
        <ele>0.000</ele>
        <time>2018-08-28T14:02:02.595Z</time>
      </trkpt>
      <trkpt lat="47.7428217" lon="-1.8399377">
        <ele>0.000</ele>
        <time>2018-08-28T14:02:05.372Z</time>
      </trkpt>
      <trkpt lat="47.7429012" lon="-1.8398143">
        <ele>0.000</ele>
        <time>2018-08-28T14:02:08.413Z</time>
      </trkpt>
      <trkpt lat="47.7429760" lon="-1.8396849">
        <ele>0.000</ele>
        <time>2018-08-28T14:02:11.443Z</time>
      </trkpt>
      <trkpt lat="47.7430482" lon="-1.8395708">
        <ele>0.000</ele>
        <time>2018-08-28T14:02:14.278Z</time>
      </trkpt>
      <trkpt lat="47.7431242" lon="-1.8394581">
        <ele>0.000</ele>
        <time>2018-08-28T14:02:17.144Z</time>
      </trkpt>
      <trkpt lat="47.7431993" lon="-1.8393142">
        <ele>0.000</ele>
        <time>2018-08-28T14:02:20.276Z</time>
      </trkpt>
      <trkpt lat="47.7432757" lon="-1.8391650">
        <ele>0.000</ele>
        <time>2018-08-28T14:02:23.466Z</time>
      </trkpt>
      <trkpt lat="47.7433496" lon="-1.8390454">
        <ele>0.000</ele>
        <time>2018-08-28T14:02:26.305Z</time>
      </trkpt>
      <trkpt lat="47.7434220" lon="-1.8389385">
        <ele>0.000</ele>
        <time>2018-08-28T14:02:29.067Z</time>
      </trkpt>
      <trkpt lat="47.7434850" lon="-1.8388255">
        <ele>0.000</ele>
        <time>2018-08-28T14:02:31.792Z</time>
      </trkpt>
      <trkpt lat="47.7435552" lon="-1.8386873">
        <ele>0.000</ele>
        <time>2018-08-28T14:02:34.935Z</time>
      </trkpt>
      <trkpt lat="47.7436461" lon="-1.8385500">
        <ele>0.000</ele>
        <time>2018-08-28T14:02:38.305Z</time>
      </trkpt>
      <trkpt lat="47.7437290" lon="-1.8384226">
        <ele>0.000</ele>
        <time>2018-08-28T14:02:41.330Z</time>
      </trkpt>
      <trkpt lat="47.7438189" lon="-1.8382918">
        <ele>0.000</ele>
        <time>2018-08-28T14:02:44.437Z</time>
      </trkpt>
      <trkpt lat="47.7439121" lon="-1.8381623">
        <ele>0.000</ele>
        <time>2018-08-28T14:02:47.586Z</time>
      </trkpt>
      <trkpt lat="47.7439985" lon="-1.8380625">
        <ele>0.000</ele>
        <time>2018-08-28T14:02:50.274Z</time>
      </trkpt>
      <trkpt lat="47.7440647" lon="-1.8379698">
        <ele>0.000</ele>
        <time>2018-08-28T14:02:52.493Z</time>
      </trkpt>
      <trkpt lat="47.7441593" lon="-1.8378533">
        <ele>0.754</ele>
        <time>2018-08-28T14:02:55.537Z</time>
      </trkpt>
      <trkpt lat="47.7442565" lon="-1.8377645">
        <ele>1.247</ele>
        <time>2018-08-28T14:02:58.518Z</time>
      </trkpt>
      <trkpt lat="47.7443326" lon="-1.8376783">
        <ele>1.583</ele>
        <time>2018-08-28T14:03:01.234Z</time>
      </trkpt>
      <trkpt lat="47.7444351" lon="-1.8375979">
        <ele>1.863</ele>
        <time>2018-08-28T14:03:04.642Z</time>
      </trkpt>
      <trkpt lat="47.7445372" lon="-1.8375120">
        <ele>2.028</ele>
        <time>2018-08-28T14:03:08.074Z</time>
      </trkpt>
      <trkpt lat="47.7446231" lon="-1.8374491">
        <ele>2.039</ele>
        <time>2018-08-28T14:03:10.874Z</time>
      </trkpt>
      <trkpt lat="47.7447251" lon="-1.8373765">
        <ele>1.844</ele>
        <time>2018-08-28T14:03:14.117Z</time>
      </trkpt>
      <trkpt lat="47.7448243" lon="-1.8372800">
        <ele>1.485</ele>
        <time>2018-08-28T14:03:17.382Z</time>
      </trkpt>
      <trkpt lat="47.7449263" lon="-1.8371808">
        <ele>1.092</ele>
        <time>2018-08-28T14:03:20.612Z</time>
      </trkpt>
      <trkpt lat="47.7450279" lon="-1.8370863">
        <ele>0.783</ele>
        <time>2018-08-28T14:03:23.713Z</time>
      </trkpt>
      <trkpt lat="47.7451207" lon="-1.8369833">
        <ele>0.636</ele>
        <time>2018-08-28T14:03:26.682Z</time>
      </trkpt>
      <trkpt lat="47.7452176" lon="-1.8368798">
        <ele>0.639</ele>
        <time>2018-08-28T14:03:29.744Z</time>
      </trkpt>
      <trkpt lat="47.7453017" lon="-1.8367653">
        <ele>0.703</ele>
        <time>2018-08-28T14:03:32.688Z</time>
      </trkpt>
      <trkpt lat="47.7453838" lon="-1.8366471">
        <ele>0.778</ele>
        <time>2018-08-28T14:03:35.681Z</time>
      </trkpt>
      <trkpt lat="47.7454607" lon="-1.8365346">
        <ele>0.763</ele>
        <time>2018-08-28T14:03:38.565Z</time>
      </trkpt>
      <trkpt lat="47.7455389" lon="-1.8364125">
        <ele>0.619</ele>
        <time>2018-08-28T14:03:41.656Z</time>
      </trkpt>
      <trkpt lat="47.7456104" lon="-1.8363106">
        <ele>0.469</ele>
        <time>2018-08-28T14:03:44.356Z</time>
      </trkpt>
      <trkpt lat="47.7456916" lon="-1.8361675">
        <ele>0.469</ele>
        <time>2018-08-28T14:03:47.628Z</time>
      </trkpt>
      <trkpt lat="47.7457489" lon="-1.8360639">
        <ele>0.646</ele>
        <time>2018-08-28T14:03:49.895Z</time>
      </trkpt>
      <trkpt lat="47.7458408" lon="-1.8359410">
        <ele>0.712</ele>
        <time>2018-08-28T14:03:52.868Z</time>
      </trkpt>
      <trkpt lat="47.7459075" lon="-1.8358442">
        <ele>0.790</ele>
        <time>2018-08-28T14:03:55.014Z</time>
      </trkpt>
      <trkpt lat="47.7459679" lon="-1.8357432">
        <ele>0.839</ele>
        <time>2018-08-28T14:03:57.091Z</time>
      </trkpt>
      <trkpt lat="47.7460448" lon="-1.8355798">
        <ele>0.776</ele>
        <time>2018-08-28T14:04:00.157Z</time>
      </trkpt>
      <trkpt lat="47.7461199" lon="-1.8354323">
        <ele>0.544</ele>
        <time>2018-08-28T14:04:03.038Z</time>
      </trkpt>
      <trkpt lat="47.7461984" lon="-1.8352883">
        <ele>0.193</ele>
        <time>2018-08-28T14:04:05.950Z</time>
      </trkpt>
      <trkpt lat="47.7462726" lon="-1.8351418">
        <ele>0.000</ele>
        <time>2018-08-28T14:04:08.849Z</time>
      </trkpt>
      <trkpt lat="47.7463489" lon="-1.8349861">
        <ele>0.000</ele>
        <time>2018-08-28T14:04:11.905Z</time>
      </trkpt>
      <trkpt lat="47.7464166" lon="-1.8348274">
        <ele>0.000</ele>
        <time>2018-08-28T14:04:14.900Z</time>
      </trkpt>
      <trkpt lat="47.7464871" lon="-1.8346781">
        <ele>0.000</ele>
        <time>2018-08-28T14:04:17.833Z</time>
      </trkpt>
      <trkpt lat="47.7465525" lon="-1.8345337">
        <ele>0.000</ele>
        <time>2018-08-28T14:04:20.666Z</time>
      </trkpt>
      <trkpt lat="47.7466139" lon="-1.8343863">
        <ele>0.000</ele>
        <time>2018-08-28T14:04:23.525Z</time>
      </trkpt>
      <trkpt lat="47.7466775" lon="-1.8342406">
        <ele>0.406</ele>
        <time>2018-08-28T14:04:26.412Z</time>
      </trkpt>
      <trkpt lat="47.7467461" lon="-1.8340994">
        <ele>1.249</ele>
        <time>2018-08-28T14:04:29.332Z</time>
      </trkpt>
      <trkpt lat="47.7468153" lon="-1.8339633">
        <ele>1.597</ele>
        <time>2018-08-28T14:04:32.228Z</time>
      </trkpt>
      <trkpt lat="47.7468795" lon="-1.8338244">
        <ele>1.549</ele>
        <time>2018-08-28T14:04:35.104Z</time>
      </trkpt>
      <trkpt lat="47.7469549" lon="-1.8336774">
        <ele>1.327</ele>
        <time>2018-08-28T14:04:38.345Z</time>
      </trkpt>
      <trkpt lat="47.7470114" lon="-1.8335606">
        <ele>1.086</ele>
        <time>2018-08-28T14:04:40.958Z</time>
      </trkpt>
      <trkpt lat="47.7470812" lon="-1.8334157">
        <ele>0.909</ele>
        <time>2018-08-28T14:04:44.158Z</time>
      </trkpt>
      <trkpt lat="47.7471463" lon="-1.8332608">
        <ele>0.858</ele>
        <time>2018-08-28T14:04:47.316Z</time>
      </trkpt>
      <trkpt lat="47.7472099" lon="-1.8331021">
        <ele>0.963</ele>
        <time>2018-08-28T14:04:50.439Z</time>
      </trkpt>
      <trkpt lat="47.7472710" lon="-1.8329389">
        <ele>1.085</ele>
        <time>2018-08-28T14:04:53.533Z</time>
      </trkpt>
      <trkpt lat="47.7473165" lon="-1.8327460">
        <ele>1.274</ele>
        <time>2018-08-28T14:04:56.863Z</time>
      </trkpt>
      <trkpt lat="47.7473813" lon="-1.8325870">
        <ele>1.460</ele>
        <time>2018-08-28T14:04:59.891Z</time>
      </trkpt>
      <trkpt lat="47.7474496" lon="-1.8324380">
        <ele>1.472</ele>
        <time>2018-08-28T14:05:02.849Z</time>
      </trkpt>
      <trkpt lat="47.7475134" lon="-1.8322851">
        <ele>1.192</ele>
        <time>2018-08-28T14:05:05.822Z</time>
      </trkpt>
      <trkpt lat="47.7475797" lon="-1.8321394">
        <ele>0.775</ele>
        <time>2018-08-28T14:05:08.739Z</time>
      </trkpt>
      <trkpt lat="47.7476438" lon="-1.8319783">
        <ele>0.305</ele>
        <time>2018-08-28T14:05:11.867Z</time>
      </trkpt>
      <trkpt lat="47.7477029" lon="-1.8318436">
        <ele>0.000</ele>
        <time>2018-08-28T14:05:14.558Z</time>
      </trkpt>
      <trkpt lat="47.7477762" lon="-1.8316933">
        <ele>0.000</ele>
        <time>2018-08-28T14:05:17.647Z</time>
      </trkpt>
      <trkpt lat="47.7478363" lon="-1.8315458">
        <ele>0.000</ele>
        <time>2018-08-28T14:05:20.519Z</time>
      </trkpt>
      <trkpt lat="47.7478957" lon="-1.8313892">
        <ele>0.000</ele>
        <time>2018-08-28T14:05:23.479Z</time>
      </trkpt>
      <trkpt lat="47.7479653" lon="-1.8312186">
        <ele>0.000</ele>
        <time>2018-08-28T14:05:26.682Z</time>
      </trkpt>
      <trkpt lat="47.7480353" lon="-1.8310495">
        <ele>0.000</ele>
        <time>2018-08-28T14:05:29.900Z</time>
      </trkpt>
      <trkpt lat="47.7480976" lon="-1.8309150">
        <ele>0.000</ele>
        <time>2018-08-28T14:05:32.654Z</time>
      </trkpt>
      <trkpt lat="47.7481498" lon="-1.8307847">
        <ele>0.000</ele>
        <time>2018-08-28T14:05:35.309Z</time>
      </trkpt>
      <trkpt lat="47.7482028" lon="-1.8306438">
        <ele>0.000</ele>
        <time>2018-08-28T14:05:38.133Z</time>
      </trkpt>
      <trkpt lat="47.7482570" lon="-1.8304803">
        <ele>0.000</ele>
        <time>2018-08-28T14:05:41.277Z</time>
      </trkpt>
      <trkpt lat="47.7483151" lon="-1.8303400">
        <ele>0.000</ele>
        <time>2018-08-28T14:05:44.101Z</time>
      </trkpt>
      <trkpt lat="47.7483767" lon="-1.8301782">
        <ele>0.000</ele>
        <time>2018-08-28T14:05:47.181Z</time>
      </trkpt>
      <trkpt lat="47.7484335" lon="-1.8300014">
        <ele>0.000</ele>
        <time>2018-08-28T14:05:50.324Z</time>
      </trkpt>
      <trkpt lat="47.7484786" lon="-1.8298317">
        <ele>0.000</ele>
        <time>2018-08-28T14:05:53.241Z</time>
      </trkpt>
      <trkpt lat="47.7485136" lon="-1.8296650">
        <ele>0.000</ele>
        <time>2018-08-28T14:05:56.073Z</time>
      </trkpt>
      <trkpt lat="47.7485418" lon="-1.8295006">
        <ele>0.000</ele>
        <time>2018-08-28T14:05:58.867Z</time>
      </trkpt>
      <trkpt lat="47.7485725" lon="-1.8293360">
        <ele>0.000</ele>
        <time>2018-08-28T14:06:01.666Z</time>
      </trkpt>
      <trkpt lat="47.7486088" lon="-1.8291573">
        <ele>0.000</ele>
        <time>2018-08-28T14:06:04.679Z</time>
      </trkpt>
      <trkpt lat="47.7486535" lon="-1.8289832">
        <ele>0.000</ele>
        <time>2018-08-28T14:06:07.666Z</time>
      </trkpt>
      <trkpt lat="47.7487191" lon="-1.8288247">
        <ele>0.000</ele>
        <time>2018-08-28T14:06:10.615Z</time>
      </trkpt>
      <trkpt lat="47.7487700" lon="-1.8287140">
        <ele>0.535</ele>
        <time>2018-08-28T14:06:12.712Z</time>
      </trkpt>
      <trkpt lat="47.7488578" lon="-1.8285737">
        <ele>1.162</ele>
        <time>2018-08-28T14:06:15.703Z</time>
      </trkpt>
      <trkpt lat="47.7489555" lon="-1.8284616">
        <ele>1.389</ele>
        <time>2018-08-28T14:06:18.592Z</time>
      </trkpt>
      <trkpt lat="47.7490575" lon="-1.8283577">
        <ele>1.386</ele>
        <time>2018-08-28T14:06:21.500Z</time>
      </trkpt>
      <trkpt lat="47.7491614" lon="-1.8282568">
        <ele>1.435</ele>
        <time>2018-08-28T14:06:24.439Z</time>
      </trkpt>
      <trkpt lat="47.7492656" lon="-1.8281744">
        <ele>1.629</ele>
        <time>2018-08-28T14:06:27.273Z</time>
      </trkpt>
      <trkpt lat="47.7493709" lon="-1.8280918">
        <ele>1.807</ele>
        <time>2018-08-28T14:06:30.174Z</time>
      </trkpt>
      <trkpt lat="47.7494733" lon="-1.8280083">
        <ele>1.856</ele>
        <time>2018-08-28T14:06:33.074Z</time>
      </trkpt>
      <trkpt lat="47.7495713" lon="-1.8279192">
        <ele>1.825</ele>
        <time>2018-08-28T14:06:35.974Z</time>
      </trkpt>
      <trkpt lat="47.7496781" lon="-1.8278275">
        <ele>1.701</ele>
        <time>2018-08-28T14:06:39.150Z</time>
      </trkpt>
      <trkpt lat="47.7497750" lon="-1.8277597">
        <ele>1.455</ele>
        <time>2018-08-28T14:06:41.990Z</time>
      </trkpt>
      <trkpt lat="47.7498655" lon="-1.8276905">
        <ele>1.218</ele>
        <time>2018-08-28T14:06:44.769Z</time>
      </trkpt>
      <trkpt lat="47.7499636" lon="-1.8276191">
        <ele>1.094</ele>
        <time>2018-08-28T14:06:47.851Z</time>
      </trkpt>
      <trkpt lat="47.7500449" lon="-1.8275520">
        <ele>0.946</ele>
        <time>2018-08-28T14:06:50.535Z</time>
      </trkpt>
      <trkpt lat="47.7501462" lon="-1.8274750">
        <ele>0.479</ele>
        <time>2018-08-28T14:06:53.750Z</time>
      </trkpt>
      <trkpt lat="47.7502588" lon="-1.8273744">
        <ele>0.000</ele>
        <time>2018-08-28T14:06:57.220Z</time>
      </trkpt>
      <trkpt lat="47.7503385" lon="-1.8273031">
        <ele>0.000</ele>
        <time>2018-08-28T14:06:59.518Z</time>
      </trkpt>
      <trkpt lat="47.7504469" lon="-1.8272161">
        <ele>0.000</ele>
        <time>2018-08-28T14:07:02.524Z</time>
      </trkpt>
      <trkpt lat="47.7505530" lon="-1.8271375">
        <ele>0.000</ele>
        <time>2018-08-28T14:07:05.415Z</time>
      </trkpt>
      <trkpt lat="47.7506636" lon="-1.8270485">
        <ele>0.000</ele>
        <time>2018-08-28T14:07:08.507Z</time>
      </trkpt>
      <trkpt lat="47.7507645" lon="-1.8269717">
        <ele>0.000</ele>
        <time>2018-08-28T14:07:11.338Z</time>
      </trkpt>
      <trkpt lat="47.7508745" lon="-1.8268794">
        <ele>0.000</ele>
        <time>2018-08-28T14:07:14.450Z</time>
      </trkpt>
      <trkpt lat="47.7509545" lon="-1.8268113">
        <ele>0.000</ele>
        <time>2018-08-28T14:07:16.670Z</time>
      </trkpt>
      <trkpt lat="47.7510605" lon="-1.8267226">
        <ele>0.000</ele>
        <time>2018-08-28T14:07:19.577Z</time>
      </trkpt>
      <trkpt lat="47.7511702" lon="-1.8266216">
        <ele>0.000</ele>
        <time>2018-08-28T14:07:22.677Z</time>
      </trkpt>
      <trkpt lat="47.7512729" lon="-1.8265470">
        <ele>0.000</ele>
        <time>2018-08-28T14:07:25.532Z</time>
      </trkpt>
      <trkpt lat="47.7513696" lon="-1.8264727">
        <ele>0.054</ele>
        <time>2018-08-28T14:07:28.368Z</time>
      </trkpt>
      <trkpt lat="47.7514648" lon="-1.8263972">
        <ele>0.018</ele>
        <time>2018-08-28T14:07:31.196Z</time>
      </trkpt>
      <trkpt lat="47.7515850" lon="-1.8263046">
        <ele>0.000</ele>
        <time>2018-08-28T14:07:34.572Z</time>
      </trkpt>
      <trkpt lat="47.7516691" lon="-1.8262397">
        <ele>0.010</ele>
        <time>2018-08-28T14:07:36.786Z</time>
      </trkpt>
      <trkpt lat="47.7517504" lon="-1.8261827">
        <ele>0.187</ele>
        <time>2018-08-28T14:07:38.844Z</time>
      </trkpt>
      <trkpt lat="47.7518604" lon="-1.8260764">
        <ele>0.324</ele>
        <time>2018-08-28T14:07:41.886Z</time>
      </trkpt>
      <trkpt lat="47.7519654" lon="-1.8260134">
        <ele>0.328</ele>
        <time>2018-08-28T14:07:44.646Z</time>
      </trkpt>
      <trkpt lat="47.7520635" lon="-1.8259551">
        <ele>0.266</ele>
        <time>2018-08-28T14:07:47.349Z</time>
      </trkpt>
      <trkpt lat="47.7521589" lon="-1.8258896">
        <ele>0.203</ele>
        <time>2018-08-28T14:07:50.115Z</time>
      </trkpt>
      <trkpt lat="47.7522609" lon="-1.8258219">
        <ele>0.148</ele>
        <time>2018-08-28T14:07:53.063Z</time>
      </trkpt>
      <trkpt lat="47.7523676" lon="-1.8257413">
        <ele>0.123</ele>
        <time>2018-08-28T14:07:56.172Z</time>
      </trkpt>
      <trkpt lat="47.7524738" lon="-1.8256669">
        <ele>0.147</ele>
        <time>2018-08-28T14:07:59.176Z</time>
      </trkpt>
      <trkpt lat="47.7525812" lon="-1.8256016">
        <ele>0.187</ele>
        <time>2018-08-28T14:08:02.085Z</time>
      </trkpt>
      <trkpt lat="47.7526977" lon="-1.8255223">
        <ele>0.197</ele>
        <time>2018-08-28T14:08:05.281Z</time>
      </trkpt>
      <trkpt lat="47.7527898" lon="-1.8254615">
        <ele>0.198</ele>
        <time>2018-08-28T14:08:07.879Z</time>
      </trkpt>
      <trkpt lat="47.7528854" lon="-1.8253813">
        <ele>0.233</ele>
        <time>2018-08-28T14:08:10.821Z</time>
      </trkpt>
      <trkpt lat="47.7529646" lon="-1.8252986">
        <ele>0.345</ele>
        <time>2018-08-28T14:08:13.650Z</time>
      </trkpt>
      <trkpt lat="47.7530133" lon="-1.8251544">
        <ele>0.606</ele>
        <time>2018-08-28T14:08:17.000Z</time>
      </trkpt>
      <trkpt lat="47.7530133" lon="-1.8251544">
        <ele>0.967</ele>
        <time>2018-08-28T14:08:17.000Z</time>
      </trkpt>
      <trkpt lat="47.7530133" lon="-1.8251544">
        <ele>1.194</ele>
        <time>2018-08-28T14:08:17.098Z</time>
      </trkpt>
      <trkpt lat="47.7531315" lon="-1.8250261">
        <ele>1.181</ele>
        <time>2018-08-28T14:08:24.263Z</time>
      </trkpt>
      <trkpt lat="47.7532206" lon="-1.8249478">
        <ele>1.231</ele>
        <time>2018-08-28T14:08:27.313Z</time>
      </trkpt>
      <trkpt lat="47.7533160" lon="-1.8248738">
        <ele>1.636</ele>
        <time>2018-08-28T14:08:30.294Z</time>
      </trkpt>
      <trkpt lat="47.7534177" lon="-1.8247973">
        <ele>2.198</ele>
        <time>2018-08-28T14:08:33.353Z</time>
      </trkpt>
      <trkpt lat="47.7535195" lon="-1.8247251">
        <ele>2.790</ele>
        <time>2018-08-28T14:08:36.326Z</time>
      </trkpt>
      <trkpt lat="47.7536254" lon="-1.8246619">
        <ele>3.584</ele>
        <time>2018-08-28T14:08:39.295Z</time>
      </trkpt>
      <trkpt lat="47.7537280" lon="-1.8245765">
        <ele>4.424</ele>
        <time>2018-08-28T14:08:42.281Z</time>
      </trkpt>
      <trkpt lat="47.7538385" lon="-1.8244900">
        <ele>4.989</ele>
        <time>2018-08-28T14:08:45.359Z</time>
      </trkpt>
      <trkpt lat="47.7539498" lon="-1.8243867">
        <ele>5.248</ele>
        <time>2018-08-28T14:08:48.490Z</time>
      </trkpt>
      <trkpt lat="47.7540570" lon="-1.8242717">
        <ele>5.276</ele>
        <time>2018-08-28T14:08:51.581Z</time>
      </trkpt>
      <trkpt lat="47.7541607" lon="-1.8241726">
        <ele>5.159</ele>
        <time>2018-08-28T14:08:54.495Z</time>
      </trkpt>
      <trkpt lat="47.7542632" lon="-1.8240909">
        <ele>5.075</ele>
        <time>2018-08-28T14:08:57.331Z</time>
      </trkpt>
      <trkpt lat="47.7543644" lon="-1.8240281">
        <ele>5.174</ele>
        <time>2018-08-28T14:09:00.137Z</time>
      </trkpt>
      <trkpt lat="47.7544549" lon="-1.8239647">
        <ele>5.399</ele>
        <time>2018-08-28T14:09:02.807Z</time>
      </trkpt>
      <trkpt lat="47.7545517" lon="-1.8238724">
        <ele>5.569</ele>
        <time>2018-08-28T14:09:05.871Z</time>
      </trkpt>
      <trkpt lat="47.7546278" lon="-1.8237995">
        <ele>5.609</ele>
        <time>2018-08-28T14:09:08.228Z</time>
      </trkpt>
      <trkpt lat="47.7547342" lon="-1.8237864">
        <ele>5.613</ele>
        <time>2018-08-28T14:09:11.048Z</time>
      </trkpt>
      <trkpt lat="47.7548359" lon="-1.8237320">
        <ele>5.670</ele>
        <time>2018-08-28T14:09:13.957Z</time>
      </trkpt>
      <trkpt lat="47.7549336" lon="-1.8236850">
        <ele>5.746</ele>
        <time>2018-08-28T14:09:16.770Z</time>
      </trkpt>
      <trkpt lat="47.7550397" lon="-1.8236480">
        <ele>5.760</ele>
        <time>2018-08-28T14:09:19.784Z</time>
      </trkpt>
      <trkpt lat="47.7551507" lon="-1.8236080">
        <ele>5.656</ele>
        <time>2018-08-28T14:09:22.948Z</time>
      </trkpt>
      <trkpt lat="47.7552535" lon="-1.8235671">
        <ele>5.412</ele>
        <time>2018-08-28T14:09:25.899Z</time>
      </trkpt>
      <trkpt lat="47.7553538" lon="-1.8235183">
        <ele>4.983</ele>
        <time>2018-08-28T14:09:28.828Z</time>
      </trkpt>
      <trkpt lat="47.7554551" lon="-1.8234695">
        <ele>4.433</ele>
        <time>2018-08-28T14:09:31.777Z</time>
      </trkpt>
      <trkpt lat="47.7555624" lon="-1.8234231">
        <ele>3.997</ele>
        <time>2018-08-28T14:09:34.846Z</time>
      </trkpt>
      <trkpt lat="47.7556656" lon="-1.8233726">
        <ele>3.737</ele>
        <time>2018-08-28T14:09:37.779Z</time>
      </trkpt>
      <trkpt lat="47.7557755" lon="-1.8233200">
        <ele>3.471</ele>
        <time>2018-08-28T14:09:40.846Z</time>
      </trkpt>
      <trkpt lat="47.7558770" lon="-1.8232702">
        <ele>3.225</ele>
        <time>2018-08-28T14:09:43.681Z</time>
      </trkpt>
      <trkpt lat="47.7559816" lon="-1.8232183">
        <ele>3.212</ele>
        <time>2018-08-28T14:09:46.612Z</time>
      </trkpt>
      <trkpt lat="47.7560920" lon="-1.8231777">
        <ele>3.441</ele>
        <time>2018-08-28T14:09:49.626Z</time>
      </trkpt>
      <trkpt lat="47.7562045" lon="-1.8231401">
        <ele>3.714</ele>
        <time>2018-08-28T14:09:52.632Z</time>
      </trkpt>
      <trkpt lat="47.7563226" lon="-1.8230806">
        <ele>3.866</ele>
        <time>2018-08-28T14:09:55.794Z</time>
      </trkpt>
      <trkpt lat="47.7564358" lon="-1.8230278">
        <ele>3.843</ele>
        <time>2018-08-28T14:09:58.798Z</time>
      </trkpt>
      <trkpt lat="47.7565318" lon="-1.8229830">
        <ele>3.715</ele>
        <time>2018-08-28T14:10:01.412Z</time>
      </trkpt>
      <trkpt lat="47.7566341" lon="-1.8229270">
        <ele>3.624</ele>
        <time>2018-08-28T14:10:04.313Z</time>
      </trkpt>
      <trkpt lat="47.7567332" lon="-1.8228720">
        <ele>3.632</ele>
        <time>2018-08-28T14:10:07.179Z</time>
      </trkpt>
      <trkpt lat="47.7568365" lon="-1.8228147">
        <ele>3.589</ele>
        <time>2018-08-28T14:10:10.197Z</time>
      </trkpt>
      <trkpt lat="47.7569401" lon="-1.8227553">
        <ele>3.337</ele>
        <time>2018-08-28T14:10:13.238Z</time>
      </trkpt>
      <trkpt lat="47.7570485" lon="-1.8226902">
        <ele>2.952</ele>
        <time>2018-08-28T14:10:16.408Z</time>
      </trkpt>
      <trkpt lat="47.7571519" lon="-1.8226267">
        <ele>2.591</ele>
        <time>2018-08-28T14:10:19.441Z</time>
      </trkpt>
      <trkpt lat="47.7572464" lon="-1.8225802">
        <ele>2.359</ele>
        <time>2018-08-28T14:10:22.219Z</time>
      </trkpt>
      <trkpt lat="47.7573357" lon="-1.8225443">
        <ele>2.301</ele>
        <time>2018-08-28T14:10:24.928Z</time>
      </trkpt>
      <trkpt lat="47.7574455" lon="-1.8224865">
        <ele>2.372</ele>
        <time>2018-08-28T14:10:28.521Z</time>
      </trkpt>
      <trkpt lat="47.7575297" lon="-1.8224377">
        <ele>2.495</ele>
        <time>2018-08-28T14:10:31.434Z</time>
      </trkpt>
      <trkpt lat="47.7576381" lon="-1.8223758">
        <ele>2.483</ele>
        <time>2018-08-28T14:10:35.060Z</time>
      </trkpt>
      <trkpt lat="47.7577466" lon="-1.8223063">
        <ele>2.235</ele>
        <time>2018-08-28T14:10:38.486Z</time>
      </trkpt>
      <trkpt lat="47.7578584" lon="-1.8222392">
        <ele>1.958</ele>
        <time>2018-08-28T14:10:41.782Z</time>
      </trkpt>
      <trkpt lat="47.7579642" lon="-1.8221762">
        <ele>1.854</ele>
        <time>2018-08-28T14:10:44.809Z</time>
      </trkpt>
      <trkpt lat="47.7580640" lon="-1.8221185">
        <ele>1.854</ele>
        <time>2018-08-28T14:10:47.661Z</time>
      </trkpt>
      <trkpt lat="47.7581677" lon="-1.8220630">
        <ele>1.847</ele>
        <time>2018-08-28T14:10:50.658Z</time>
      </trkpt>
      <trkpt lat="47.7582641" lon="-1.8220105">
        <ele>1.852</ele>
        <time>2018-08-28T14:10:53.534Z</time>
      </trkpt>
      <trkpt lat="47.7583623" lon="-1.8219474">
        <ele>1.909</ele>
        <time>2018-08-28T14:10:56.575Z</time>
      </trkpt>
      <trkpt lat="47.7584610" lon="-1.8218711">
        <ele>1.842</ele>
        <time>2018-08-28T14:10:59.724Z</time>
      </trkpt>
      <trkpt lat="47.7585558" lon="-1.8217942">
        <ele>1.492</ele>
        <time>2018-08-28T14:11:02.773Z</time>
      </trkpt>
      <trkpt lat="47.7586533" lon="-1.8217306">
        <ele>1.054</ele>
        <time>2018-08-28T14:11:05.804Z</time>
      </trkpt>
      <trkpt lat="47.7587492" lon="-1.8216876">
        <ele>0.730</ele>
        <time>2018-08-28T14:11:08.686Z</time>
      </trkpt>
      <trkpt lat="47.7588437" lon="-1.8216219">
        <ele>0.560</ele>
        <time>2018-08-28T14:11:11.679Z</time>
      </trkpt>
      <trkpt lat="47.7589377" lon="-1.8215386">
        <ele>0.523</ele>
        <time>2018-08-28T14:11:14.786Z</time>
      </trkpt>
      <trkpt lat="47.7590272" lon="-1.8214699">
        <ele>0.609</ele>
        <time>2018-08-28T14:11:17.645Z</time>
      </trkpt>
      <trkpt lat="47.7591195" lon="-1.8213948">
        <ele>0.769</ele>
        <time>2018-08-28T14:11:20.663Z</time>
      </trkpt>
      <trkpt lat="47.7592054" lon="-1.8213352">
        <ele>0.875</ele>
        <time>2018-08-28T14:11:23.429Z</time>
      </trkpt>
      <trkpt lat="47.7592975" lon="-1.8212760">
        <ele>0.863</ele>
        <time>2018-08-28T14:11:26.395Z</time>
      </trkpt>
      <trkpt lat="47.7593880" lon="-1.8212167">
        <ele>0.859</ele>
        <time>2018-08-28T14:11:29.333Z</time>
      </trkpt>
      <trkpt lat="47.7594775" lon="-1.8211586">
        <ele>0.960</ele>
        <time>2018-08-28T14:11:32.224Z</time>
      </trkpt>
      <trkpt lat="47.7595655" lon="-1.8210933">
        <ele>1.254</ele>
        <time>2018-08-28T14:11:35.130Z</time>
      </trkpt>
      <trkpt lat="47.7596488" lon="-1.8210255">
        <ele>1.694</ele>
        <time>2018-08-28T14:11:37.959Z</time>
      </trkpt>
      <trkpt lat="47.7597303" lon="-1.8209354">
        <ele>1.998</ele>
        <time>2018-08-28T14:11:41.005Z</time>
      </trkpt>
      <trkpt lat="47.7598123" lon="-1.8208474">
        <ele>1.936</ele>
        <time>2018-08-28T14:11:44.026Z</time>
      </trkpt>
      <trkpt lat="47.7598944" lon="-1.8207637">
        <ele>1.569</ele>
        <time>2018-08-28T14:11:46.975Z</time>
      </trkpt>
      <trkpt lat="47.7599765" lon="-1.8206690">
        <ele>1.101</ele>
        <time>2018-08-28T14:11:50.033Z</time>
      </trkpt>
      <trkpt lat="47.7600529" lon="-1.8205869">
        <ele>0.701</ele>
        <time>2018-08-28T14:11:52.871Z</time>
      </trkpt>
      <trkpt lat="47.7601318" lon="-1.8204966">
        <ele>0.309</ele>
        <time>2018-08-28T14:11:56.000Z</time>
      </trkpt>
      <trkpt lat="47.7601318" lon="-1.8204966">
        <ele>0.000</ele>
        <time>2018-08-28T14:12:01.000Z</time>
      </trkpt>
      <trkpt lat="47.7601318" lon="-1.8204966">
        <ele>0.000</ele>
        <time>2018-08-28T14:12:01.100Z</time>
      </trkpt>
      <trkpt lat="47.7603956" lon="-1.8203905">
        <ele>0.000</ele>
        <time>2018-08-28T14:12:17.792Z</time>
      </trkpt>
      <trkpt lat="47.7604670" lon="-1.8202627">
        <ele>0.000</ele>
        <time>2018-08-28T14:12:22.227Z</time>
      </trkpt>
      <trkpt lat="47.7605436" lon="-1.8201815">
        <ele>0.000</ele>
        <time>2018-08-28T14:12:25.722Z</time>
      </trkpt>
      <trkpt lat="47.7606238" lon="-1.8200683">
        <ele>0.000</ele>
        <time>2018-08-28T14:12:29.417Z</time>
      </trkpt>
      <trkpt lat="47.7606981" lon="-1.8199885">
        <ele>0.000</ele>
        <time>2018-08-28T14:12:32.226Z</time>
      </trkpt>
      <trkpt lat="47.7607796" lon="-1.8198978">
        <ele>0.000</ele>
        <time>2018-08-28T14:12:35.185Z</time>
      </trkpt>
      <trkpt lat="47.7608585" lon="-1.8198170">
        <ele>0.000</ele>
        <time>2018-08-28T14:12:37.824Z</time>
      </trkpt>
      <trkpt lat="47.7609486" lon="-1.8197132">
        <ele>0.000</ele>
        <time>2018-08-28T14:12:40.875Z</time>
      </trkpt>
      <trkpt lat="47.7610336" lon="-1.8196181">
        <ele>0.000</ele>
        <time>2018-08-28T14:12:43.742Z</time>
      </trkpt>
      <trkpt lat="47.7611149" lon="-1.8195414">
        <ele>0.000</ele>
        <time>2018-08-28T14:12:46.402Z</time>
      </trkpt>
      <trkpt lat="47.7611926" lon="-1.8194723">
        <ele>0.000</ele>
        <time>2018-08-28T14:12:48.923Z</time>
      </trkpt>
      <trkpt lat="47.7612743" lon="-1.8193962">
        <ele>0.000</ele>
        <time>2018-08-28T14:12:51.564Z</time>
      </trkpt>
      <trkpt lat="47.7613681" lon="-1.8192843">
        <ele>0.000</ele>
        <time>2018-08-28T14:12:54.819Z</time>
      </trkpt>
      <trkpt lat="47.7614652" lon="-1.8191869">
        <ele>0.000</ele>
        <time>2018-08-28T14:12:57.988Z</time>
      </trkpt>
      <trkpt lat="47.7615619" lon="-1.8190988">
        <ele>0.000</ele>
        <time>2018-08-28T14:13:00.914Z</time>
      </trkpt>
      <trkpt lat="47.7616622" lon="-1.8189993">
        <ele>0.000</ele>
        <time>2018-08-28T14:13:03.919Z</time>
      </trkpt>
      <trkpt lat="47.7617484" lon="-1.8189152">
        <ele>0.000</ele>
        <time>2018-08-28T14:13:06.522Z</time>
      </trkpt>
      <trkpt lat="47.7618347" lon="-1.8188547">
        <ele>0.000</ele>
        <time>2018-08-28T14:13:09.006Z</time>
      </trkpt>
      <trkpt lat="47.7619220" lon="-1.8187988">
        <ele>0.000</ele>
        <time>2018-08-28T14:13:11.503Z</time>
      </trkpt>
      <trkpt lat="47.7620283" lon="-1.8187240">
        <ele>0.000</ele>
        <time>2018-08-28T14:13:14.608Z</time>
      </trkpt>
      <trkpt lat="47.7621429" lon="-1.8186563">
        <ele>0.000</ele>
        <time>2018-08-28T14:13:17.951Z</time>
      </trkpt>
      <trkpt lat="47.7622349" lon="-1.8185776">
        <ele>0.000</ele>
        <time>2018-08-28T14:13:21.000Z</time>
      </trkpt>
      <trkpt lat="47.7622349" lon="-1.8185776">
        <ele>0.000</ele>
        <time>2018-08-28T14:13:21.000Z</time>
      </trkpt>
      <trkpt lat="47.7622349" lon="-1.8185776">
        <ele>0.000</ele>
        <time>2018-08-28T14:13:21.100Z</time>
      </trkpt>
      <trkpt lat="47.7623630" lon="-1.8184910">
        <ele>0.000</ele>
        <time>2018-08-28T14:13:31.157Z</time>
      </trkpt>
      <trkpt lat="47.7624578" lon="-1.8184472">
        <ele>0.000</ele>
        <time>2018-08-28T14:13:35.402Z</time>
      </trkpt>
      <trkpt lat="47.7625665" lon="-1.8184225">
        <ele>0.000</ele>
        <time>2018-08-28T14:13:39.656Z</time>
      </trkpt>
      <trkpt lat="47.7626836" lon="-1.8184192">
        <ele>0.000</ele>
        <time>2018-08-28T14:13:43.799Z</time>
      </trkpt>
      <trkpt lat="47.7627777" lon="-1.8184396">
        <ele>0.000</ele>
        <time>2018-08-28T14:13:47.012Z</time>
      </trkpt>
      <trkpt lat="47.7628670" lon="-1.8184558">
        <ele>0.000</ele>
        <time>2018-08-28T14:13:50.025Z</time>
      </trkpt>
      <trkpt lat="47.7629746" lon="-1.8185078">
        <ele>0.000</ele>
        <time>2018-08-28T14:13:53.663Z</time>
      </trkpt>
      <trkpt lat="47.7630712" lon="-1.8185462">
        <ele>0.000</ele>
        <time>2018-08-28T14:13:56.739Z</time>
      </trkpt>
      <trkpt lat="47.7631614" lon="-1.8185968">
        <ele>0.000</ele>
        <time>2018-08-28T14:13:59.635Z</time>
      </trkpt>
      <trkpt lat="47.7632560" lon="-1.8186440">
        <ele>0.000</ele>
        <time>2018-08-28T14:14:02.557Z</time>
      </trkpt>
      <trkpt lat="47.7633497" lon="-1.8187057">
        <ele>0.000</ele>
        <time>2018-08-28T14:14:05.495Z</time>
      </trkpt>
      <trkpt lat="47.7634383" lon="-1.8187835">
        <ele>0.048</ele>
        <time>2018-08-28T14:14:08.358Z</time>
      </trkpt>
      <trkpt lat="47.7635315" lon="-1.8188843">
        <ele>0.153</ele>
        <time>2018-08-28T14:14:11.450Z</time>
      </trkpt>
      <trkpt lat="47.7636159" lon="-1.8189958">
        <ele>0.015</ele>
        <time>2018-08-28T14:14:14.434Z</time>
      </trkpt>
      <trkpt lat="47.7636950" lon="-1.8190997">
        <ele>0.000</ele>
        <time>2018-08-28T14:14:17.226Z</time>
      </trkpt>
      <trkpt lat="47.7637741" lon="-1.8192071">
        <ele>0.000</ele>
        <time>2018-08-28T14:14:20.082Z</time>
      </trkpt>
      <trkpt lat="47.7638475" lon="-1.8193241">
        <ele>0.000</ele>
        <time>2018-08-28T14:14:22.984Z</time>
      </trkpt>
      <trkpt lat="47.7639186" lon="-1.8194347">
        <ele>0.000</ele>
        <time>2018-08-28T14:14:25.791Z</time>
      </trkpt>
      <trkpt lat="47.7639865" lon="-1.8195528">
        <ele>0.000</ele>
        <time>2018-08-28T14:14:28.624Z</time>
      </trkpt>
      <trkpt lat="47.7640672" lon="-1.8196779">
        <ele>0.000</ele>
        <time>2018-08-28T14:14:31.736Z</time>
      </trkpt>
      <trkpt lat="47.7641353" lon="-1.8198057">
        <ele>0.000</ele>
        <time>2018-08-28T14:14:34.643Z</time>
      </trkpt>
      <trkpt lat="47.7642031" lon="-1.8199312">
        <ele>0.000</ele>
        <time>2018-08-28T14:14:37.524Z</time>
      </trkpt>
      <trkpt lat="47.7642714" lon="-1.8200542">
        <ele>0.000</ele>
        <time>2018-08-28T14:14:40.392Z</time>
      </trkpt>
      <trkpt lat="47.7643346" lon="-1.8201855">
        <ele>0.000</ele>
        <time>2018-08-28T14:14:43.308Z</time>
      </trkpt>
      <trkpt lat="47.7644087" lon="-1.8203055">
        <ele>0.000</ele>
        <time>2018-08-28T14:14:46.249Z</time>
      </trkpt>
      <trkpt lat="47.7644806" lon="-1.8204268">
        <ele>0.000</ele>
        <time>2018-08-28T14:14:49.163Z</time>
      </trkpt>
      <trkpt lat="47.7645490" lon="-1.8205484">
        <ele>0.000</ele>
        <time>2018-08-28T14:14:52.033Z</time>
      </trkpt>
      <trkpt lat="47.7646156" lon="-1.8206690">
        <ele>0.000</ele>
        <time>2018-08-28T14:14:54.876Z</time>
      </trkpt>
      <trkpt lat="47.7646786" lon="-1.8207954">
        <ele>0.000</ele>
        <time>2018-08-28T14:14:57.762Z</time>
      </trkpt>
      <trkpt lat="47.7647420" lon="-1.8209192">
        <ele>0.000</ele>
        <time>2018-08-28T14:15:00.634Z</time>
      </trkpt>
      <trkpt lat="47.7648027" lon="-1.8210438">
        <ele>0.000</ele>
        <time>2018-08-28T14:15:03.493Z</time>
      </trkpt>
      <trkpt lat="47.7648666" lon="-1.8211679">
        <ele>0.000</ele>
        <time>2018-08-28T14:15:06.402Z</time>
      </trkpt>
      <trkpt lat="47.7649327" lon="-1.8212991">
        <ele>0.000</ele>
        <time>2018-08-28T14:15:09.417Z</time>
      </trkpt>
      <trkpt lat="47.7650021" lon="-1.8214342">
        <ele>0.000</ele>
        <time>2018-08-28T14:15:12.460Z</time>
      </trkpt>
      <trkpt lat="47.7650759" lon="-1.8215697">
        <ele>0.000</ele>
        <time>2018-08-28T14:15:15.494Z</time>
      </trkpt>
      <trkpt lat="47.7651475" lon="-1.8217078">
        <ele>0.000</ele>
        <time>2018-08-28T14:15:18.473Z</time>
      </trkpt>
      <trkpt lat="47.7652179" lon="-1.8218447">
        <ele>0.000</ele>
        <time>2018-08-28T14:15:21.388Z</time>
      </trkpt>
      <trkpt lat="47.7652879" lon="-1.8219829">
        <ele>0.000</ele>
        <time>2018-08-28T14:15:24.311Z</time>
      </trkpt>
      <trkpt lat="47.7653599" lon="-1.8221138">
        <ele>0.216</ele>
        <time>2018-08-28T14:15:27.193Z</time>
      </trkpt>
      <trkpt lat="47.7654225" lon="-1.8222443">
        <ele>0.389</ele>
        <time>2018-08-28T14:15:29.956Z</time>
      </trkpt>
      <trkpt lat="47.7654857" lon="-1.8223786">
        <ele>0.335</ele>
        <time>2018-08-28T14:15:32.796Z</time>
      </trkpt>
      <trkpt lat="47.7655511" lon="-1.8225142">
        <ele>0.091</ele>
        <time>2018-08-28T14:15:35.687Z</time>
      </trkpt>
      <trkpt lat="47.7656261" lon="-1.8226438">
        <ele>0.000</ele>
        <time>2018-08-28T14:15:38.636Z</time>
      </trkpt>
      <trkpt lat="47.7656999" lon="-1.8227709">
        <ele>0.000</ele>
        <time>2018-08-28T14:15:41.521Z</time>
      </trkpt>
      <trkpt lat="47.7657807" lon="-1.8228967">
        <ele>0.000</ele>
        <time>2018-08-28T14:15:44.491Z</time>
      </trkpt>
      <trkpt lat="47.7658643" lon="-1.8230116">
        <ele>0.285</ele>
        <time>2018-08-28T14:15:47.374Z</time>
      </trkpt>
      <trkpt lat="47.7659334" lon="-1.8231235">
        <ele>0.750</ele>
        <time>2018-08-28T14:15:50.000Z</time>
      </trkpt>
      <trkpt lat="47.7659334" lon="-1.8231235">
        <ele>1.222</ele>
        <time>2018-08-28T14:15:53.000Z</time>
      </trkpt>
      <trkpt lat="47.7659334" lon="-1.8231235">
        <ele>1.497</ele>
        <time>2018-08-28T14:15:53.100Z</time>
      </trkpt>
      <trkpt lat="47.7661030" lon="-1.8233849">
        <ele>1.473</ele>
        <time>2018-08-28T14:16:04.461Z</time>
      </trkpt>
      <trkpt lat="47.7661790" lon="-1.8234920">
        <ele>1.325</ele>
        <time>2018-08-28T14:16:07.984Z</time>
      </trkpt>
      <trkpt lat="47.7662469" lon="-1.8236254">
        <ele>1.219</ele>
        <time>2018-08-28T14:16:11.688Z</time>
      </trkpt>
      <trkpt lat="47.7663162" lon="-1.8237618">
        <ele>1.102</ele>
        <time>2018-08-28T14:16:15.523Z</time>
      </trkpt>
      <trkpt lat="47.7663855" lon="-1.8238911">
        <ele>0.890</ele>
        <time>2018-08-28T14:16:19.319Z</time>
      </trkpt>
      <trkpt lat="47.7664472" lon="-1.8240217">
        <ele>0.680</ele>
        <time>2018-08-28T14:16:22.975Z</time>
      </trkpt>
      <trkpt lat="47.7664973" lon="-1.8241649">
        <ele>0.603</ele>
        <time>2018-08-28T14:16:26.595Z</time>
      </trkpt>
      <trkpt lat="47.7665401" lon="-1.8243113">
        <ele>0.695</ele>
        <time>2018-08-28T14:16:30.175Z</time>
      </trkpt>
      <trkpt lat="47.7665875" lon="-1.8244548">
        <ele>0.908</ele>
        <time>2018-08-28T14:16:33.774Z</time>
      </trkpt>
      <trkpt lat="47.7666235" lon="-1.8246135">
        <ele>1.047</ele>
        <time>2018-08-28T14:16:37.531Z</time>
      </trkpt>
      <trkpt lat="47.7666491" lon="-1.8247702">
        <ele>0.990</ele>
        <time>2018-08-28T14:16:41.156Z</time>
      </trkpt>
      <trkpt lat="47.7666665" lon="-1.8249284">
        <ele>0.846</ele>
        <time>2018-08-28T14:16:44.749Z</time>
      </trkpt>
      <trkpt lat="47.7666877" lon="-1.8250989">
        <ele>0.732</ele>
        <time>2018-08-28T14:16:48.575Z</time>
      </trkpt>
      <trkpt lat="47.7667062" lon="-1.8252696">
        <ele>0.617</ele>
        <time>2018-08-28T14:16:52.301Z</time>
      </trkpt>
      <trkpt lat="47.7667146" lon="-1.8254467">
        <ele>0.462</ele>
        <time>2018-08-28T14:16:56.044Z</time>
      </trkpt>
      <trkpt lat="47.7667122" lon="-1.8255818">
        <ele>0.346</ele>
        <time>2018-08-28T14:16:58.846Z</time>
      </trkpt>
      <trkpt lat="47.7667075" lon="-1.8257444">
        <ele>0.403</ele>
        <time>2018-08-28T14:17:02.253Z</time>
      </trkpt>
      <trkpt lat="47.7666986" lon="-1.8258870">
        <ele>0.663</ele>
        <time>2018-08-28T14:17:05.251Z</time>
      </trkpt>
      <trkpt lat="47.7666831" lon="-1.8260383">
        <ele>1.012</ele>
        <time>2018-08-28T14:17:08.297Z</time>
      </trkpt>
      <trkpt lat="47.7666595" lon="-1.8261811">
        <ele>1.337</ele>
        <time>2018-08-28T14:17:11.102Z</time>
      </trkpt>
      <trkpt lat="47.7666271" lon="-1.8263384">
        <ele>1.584</ele>
        <time>2018-08-28T14:17:14.102Z</time>
      </trkpt>
      <trkpt lat="47.7665919" lon="-1.8264963">
        <ele>1.691</ele>
        <time>2018-08-28T14:17:17.000Z</time>
      </trkpt>
      <trkpt lat="47.7665919" lon="-1.8264963">
        <ele>1.659</ele>
        <time>2018-08-28T14:17:17.000Z</time>
      </trkpt>
      <trkpt lat="47.7665919" lon="-1.8264963">
        <ele>1.600</ele>
        <time>2018-08-28T14:17:17.004Z</time>
      </trkpt>
      <trkpt lat="47.7665486" lon="-1.8266950">
        <ele>1.601</ele>
        <time>2018-08-28T14:17:22.949Z</time>
      </trkpt>
      <trkpt lat="47.7665075" lon="-1.8268376">
        <ele>1.657</ele>
        <time>2018-08-28T14:17:25.857Z</time>
      </trkpt>
      <trkpt lat="47.7664584" lon="-1.8269903">
        <ele>1.734</ele>
        <time>2018-08-28T14:17:28.978Z</time>
      </trkpt>
      <trkpt lat="47.7664147" lon="-1.8271394">
        <ele>1.820</ele>
        <time>2018-08-28T14:17:31.943Z</time>
      </trkpt>
      <trkpt lat="47.7663642" lon="-1.8272883">
        <ele>1.922</ele>
        <time>2018-08-28T14:17:34.962Z</time>
      </trkpt>
      <trkpt lat="47.7663143" lon="-1.8274343">
        <ele>2.088</ele>
        <time>2018-08-28T14:17:37.905Z</time>
      </trkpt>
      <trkpt lat="47.7662663" lon="-1.8275953">
        <ele>2.368</ele>
        <time>2018-08-28T14:17:41.017Z</time>
      </trkpt>
      <trkpt lat="47.7662210" lon="-1.8277572">
        <ele>2.691</ele>
        <time>2018-08-28T14:17:44.108Z</time>
      </trkpt>
      <trkpt lat="47.7661790" lon="-1.8278943">
        <ele>2.917</ele>
        <time>2018-08-28T14:17:46.808Z</time>
      </trkpt>
      <trkpt lat="47.7661300" lon="-1.8280378">
        <ele>2.945</ele>
        <time>2018-08-28T14:17:49.748Z</time>
      </trkpt>
      <trkpt lat="47.7660778" lon="-1.8281787">
        <ele>2.699</ele>
        <time>2018-08-28T14:17:52.741Z</time>
      </trkpt>
      <trkpt lat="47.7660262" lon="-1.8283057">
        <ele>2.278</ele>
        <time>2018-08-28T14:17:55.564Z</time>
      </trkpt>
      <trkpt lat="47.7659725" lon="-1.8284322">
        <ele>1.972</ele>
        <time>2018-08-28T14:17:58.465Z</time>
      </trkpt>
      <trkpt lat="47.7659175" lon="-1.8285599">
        <ele>1.922</ele>
        <time>2018-08-28T14:18:01.450Z</time>
      </trkpt>
      <trkpt lat="47.7658632" lon="-1.8286899">
        <ele>1.984</ele>
        <time>2018-08-28T14:18:04.479Z</time>
      </trkpt>
      <trkpt lat="47.7658071" lon="-1.8288252">
        <ele>2.008</ele>
        <time>2018-08-28T14:18:07.604Z</time>
      </trkpt>
      <trkpt lat="47.7657472" lon="-1.8289492">
        <ele>2.074</ele>
        <time>2018-08-28T14:18:10.589Z</time>
      </trkpt>
      <trkpt lat="47.7656972" lon="-1.8290738">
        <ele>2.278</ele>
        <time>2018-08-28T14:18:13.433Z</time>
      </trkpt>
      <trkpt lat="47.7656452" lon="-1.8292064">
        <ele>2.489</ele>
        <time>2018-08-28T14:18:16.445Z</time>
      </trkpt>
      <trkpt lat="47.7655956" lon="-1.8293422">
        <ele>2.478</ele>
        <time>2018-08-28T14:18:19.457Z</time>
      </trkpt>
      <trkpt lat="47.7655480" lon="-1.8294831">
        <ele>2.208</ele>
        <time>2018-08-28T14:18:22.494Z</time>
      </trkpt>
      <trkpt lat="47.7655069" lon="-1.8296251">
        <ele>1.880</ele>
        <time>2018-08-28T14:18:25.452Z</time>
      </trkpt>
      <trkpt lat="47.7654662" lon="-1.8297631">
        <ele>1.693</ele>
        <time>2018-08-28T14:18:28.337Z</time>
      </trkpt>
      <trkpt lat="47.7654250" lon="-1.8299008">
        <ele>1.696</ele>
        <time>2018-08-28T14:18:31.258Z</time>
      </trkpt>
      <trkpt lat="47.7653780" lon="-1.8300317">
        <ele>1.845</ele>
        <time>2018-08-28T14:18:34.171Z</time>
      </trkpt>
      <trkpt lat="47.7653284" lon="-1.8301700">
        <ele>1.787</ele>
        <time>2018-08-28T14:18:37.242Z</time>
      </trkpt>
      <trkpt lat="47.7652835" lon="-1.8303126">
        <ele>1.299</ele>
        <time>2018-08-28T14:18:40.289Z</time>
      </trkpt>
      <trkpt lat="47.7652447" lon="-1.8304554">
        <ele>0.805</ele>
        <time>2018-08-28T14:18:43.252Z</time>
      </trkpt>
      <trkpt lat="47.7652070" lon="-1.8305901">
        <ele>0.706</ele>
        <time>2018-08-28T14:18:46.083Z</time>
      </trkpt>
      <trkpt lat="47.7651668" lon="-1.8307265">
        <ele>0.819</ele>
        <time>2018-08-28T14:18:49.004Z</time>
      </trkpt>
      <trkpt lat="47.7651306" lon="-1.8308647">
        <ele>0.865</ele>
        <time>2018-08-28T14:18:51.941Z</time>
      </trkpt>
      <trkpt lat="47.7650977" lon="-1.8310014">
        <ele>0.826</ele>
        <time>2018-08-28T14:18:54.842Z</time>
      </trkpt>
      <trkpt lat="47.7650583" lon="-1.8311387">
        <ele>0.816</ele>
        <time>2018-08-28T14:18:57.856Z</time>
      </trkpt>
      <trkpt lat="47.7650271" lon="-1.8312707">
        <ele>0.934</ele>
        <time>2018-08-28T14:19:00.720Z</time>
      </trkpt>
      <trkpt lat="47.7649913" lon="-1.8313953">
        <ele>1.163</ele>
        <time>2018-08-28T14:19:03.585Z</time>
      </trkpt>
      <trkpt lat="47.7649547" lon="-1.8315363">
        <ele>1.186</ele>
        <time>2018-08-28T14:19:06.953Z</time>
      </trkpt>
      <trkpt lat="47.7649231" lon="-1.8316763">
        <ele>0.806</ele>
        <time>2018-08-28T14:19:10.536Z</time>
      </trkpt>
      <trkpt lat="47.7648855" lon="-1.8318294">
        <ele>0.399</ele>
        <time>2018-08-28T14:19:14.637Z</time>
      </trkpt>
      <trkpt lat="47.7648481" lon="-1.8319529">
        <ele>0.340</ele>
        <time>2018-08-28T14:19:18.000Z</time>
      </trkpt>
      <trkpt lat="47.7648481" lon="-1.8319529">
        <ele>0.492</ele>
        <time>2018-08-28T14:19:21.000Z</time>
      </trkpt>
      <trkpt lat="47.7648481" lon="-1.8319529">
        <ele>0.593</ele>
        <time>2018-08-28T14:19:21.100Z</time>
      </trkpt>
      <trkpt lat="47.7647665" lon="-1.8322599">
        <ele>0.581</ele>
        <time>2018-08-28T14:19:28.815Z</time>
      </trkpt>
      <trkpt lat="47.7647354" lon="-1.8323896">
        <ele>0.711</ele>
        <time>2018-08-28T14:19:30.877Z</time>
      </trkpt>
      <trkpt lat="47.7647011" lon="-1.8325227">
        <ele>1.152</ele>
        <time>2018-08-28T14:19:32.976Z</time>
      </trkpt>
      <trkpt lat="47.7646745" lon="-1.8326561">
        <ele>1.635</ele>
        <time>2018-08-28T14:19:35.000Z</time>
      </trkpt>
      <trkpt lat="47.7646745" lon="-1.8326561">
        <ele>1.874</ele>
        <time>2018-08-28T14:19:36.000Z</time>
      </trkpt>
      <trkpt lat="47.7646745" lon="-1.8326561">
        <ele>1.911</ele>
        <time>2018-08-28T14:19:36.100Z</time>
      </trkpt>
      <trkpt lat="47.7646254" lon="-1.8328997">
        <ele>1.848</ele>
        <time>2018-08-28T14:19:46.005Z</time>
      </trkpt>
      <trkpt lat="47.7646521" lon="-1.8330525">
        <ele>1.782</ele>
        <time>2018-08-28T14:19:50.667Z</time>
      </trkpt>
      <trkpt lat="47.7646593" lon="-1.8332164">
        <ele>1.943</ele>
        <time>2018-08-28T14:19:55.574Z</time>
      </trkpt>
      <trkpt lat="47.7646312" lon="-1.8333532">
        <ele>2.408</ele>
        <time>2018-08-28T14:19:59.632Z</time>
      </trkpt>
      <trkpt lat="47.7646033" lon="-1.8335089">
        <ele>2.844</ele>
        <time>2018-08-28T14:20:03.780Z</time>
      </trkpt>
      <trkpt lat="47.7645739" lon="-1.8336738">
        <ele>2.988</ele>
        <time>2018-08-28T14:20:07.840Z</time>
      </trkpt>
      <trkpt lat="47.7645525" lon="-1.8338425">
        <ele>2.968</ele>
        <time>2018-08-28T14:20:11.739Z</time>
      </trkpt>
      <trkpt lat="47.7645227" lon="-1.8340120">
        <ele>3.037</ele>
        <time>2018-08-28T14:20:15.599Z</time>
      </trkpt>
      <trkpt lat="47.7645026" lon="-1.8341477">
        <ele>3.292</ele>
        <time>2018-08-28T14:20:18.589Z</time>
      </trkpt>
      <trkpt lat="47.7644779" lon="-1.8342819">
        <ele>3.678</ele>
        <time>2018-08-28T14:20:21.541Z</time>
      </trkpt>
      <trkpt lat="47.7644445" lon="-1.8344129">
        <ele>4.090</ele>
        <time>2018-08-28T14:20:24.506Z</time>
      </trkpt>
      <trkpt lat="47.7644082" lon="-1.8345781">
        <ele>4.351</ele>
        <time>2018-08-28T14:20:28.323Z</time>
      </trkpt>
      <trkpt lat="47.7643856" lon="-1.8347314">
        <ele>4.320</ele>
        <time>2018-08-28T14:20:32.009Z</time>
      </trkpt>
      <trkpt lat="47.7643537" lon="-1.8348604">
        <ele>4.009</ele>
        <time>2018-08-28T14:20:35.495Z</time>
      </trkpt>
      <trkpt lat="47.7643125" lon="-1.8349815">
        <ele>3.459</ele>
        <time>2018-08-28T14:20:39.127Z</time>
      </trkpt>
      <trkpt lat="47.7642867" lon="-1.8351256">
        <ele>2.825</ele>
        <time>2018-08-28T14:20:43.141Z</time>
      </trkpt>
      <trkpt lat="47.7642545" lon="-1.8352766">
        <ele>2.489</ele>
        <time>2018-08-28T14:20:47.261Z</time>
      </trkpt>
      <trkpt lat="47.7642322" lon="-1.8354345">
        <ele>2.614</ele>
        <time>2018-08-28T14:20:51.236Z</time>
      </trkpt>
      <trkpt lat="47.7642070" lon="-1.8356080">
        <ele>3.037</ele>
        <time>2018-08-28T14:20:55.413Z</time>
      </trkpt>
      <trkpt lat="47.7641714" lon="-1.8357621">
        <ele>3.555</ele>
        <time>2018-08-28T14:20:59.174Z</time>
      </trkpt>
      <trkpt lat="47.7641367" lon="-1.8359293">
        <ele>4.011</ele>
        <time>2018-08-28T14:21:03.153Z</time>
      </trkpt>
      <trkpt lat="47.7641097" lon="-1.8361032">
        <ele>4.487</ele>
        <time>2018-08-28T14:21:07.130Z</time>
      </trkpt>
      <trkpt lat="47.7640929" lon="-1.8362369">
        <ele>5.166</ele>
        <time>2018-08-28T14:21:10.107Z</time>
      </trkpt>
      <trkpt lat="47.7640739" lon="-1.8363731">
        <ele>5.867</ele>
        <time>2018-08-28T14:21:13.145Z</time>
      </trkpt>
      <trkpt lat="47.7640471" lon="-1.8365425">
        <ele>6.289</ele>
        <time>2018-08-28T14:21:16.974Z</time>
      </trkpt>
      <trkpt lat="47.7640139" lon="-1.8367078">
        <ele>6.299</ele>
        <time>2018-08-28T14:21:20.809Z</time>
      </trkpt>
      <trkpt lat="47.7640011" lon="-1.8368441">
        <ele>5.962</ele>
        <time>2018-08-28T14:21:23.835Z</time>
      </trkpt>
      <trkpt lat="47.7639840" lon="-1.8369836">
        <ele>5.583</ele>
        <time>2018-08-28T14:21:26.897Z</time>
      </trkpt>
      <trkpt lat="47.7639695" lon="-1.8371181">
        <ele>5.429</ele>
        <time>2018-08-28T14:21:29.816Z</time>
      </trkpt>
      <trkpt lat="47.7639628" lon="-1.8372535">
        <ele>5.497</ele>
        <time>2018-08-28T14:21:32.732Z</time>
      </trkpt>
      <trkpt lat="47.7639397" lon="-1.8374296">
        <ele>5.653</ele>
        <time>2018-08-28T14:21:36.584Z</time>
      </trkpt>
      <trkpt lat="47.7639076" lon="-1.8375644">
        <ele>5.737</ele>
        <time>2018-08-28T14:21:39.582Z</time>
      </trkpt>
      <trkpt lat="47.7638796" lon="-1.8377171">
        <ele>5.641</ele>
        <time>2018-08-28T14:21:42.757Z</time>
      </trkpt>
      <trkpt lat="47.7638483" lon="-1.8378699">
        <ele>5.367</ele>
        <time>2018-08-28T14:21:45.803Z</time>
      </trkpt>
      <trkpt lat="47.7637883" lon="-1.8380248">
        <ele>4.960</ele>
        <time>2018-08-28T14:21:49.013Z</time>
      </trkpt>
      <trkpt lat="47.7637245" lon="-1.8381832">
        <ele>4.535</ele>
        <time>2018-08-28T14:21:52.180Z</time>
      </trkpt>
      <trkpt lat="47.7636676" lon="-1.8383215">
        <ele>4.273</ele>
        <time>2018-08-28T14:21:55.006Z</time>
      </trkpt>
      <trkpt lat="47.7636247" lon="-1.8384420">
        <ele>4.309</ele>
        <time>2018-08-28T14:21:57.503Z</time>
      </trkpt>
      <trkpt lat="47.7635848" lon="-1.8385647">
        <ele>4.524</ele>
        <time>2018-08-28T14:22:00.156Z</time>
      </trkpt>
      <trkpt lat="47.7635526" lon="-1.8387341">
        <ele>4.733</ele>
        <time>2018-08-28T14:22:03.787Z</time>
      </trkpt>
      <trkpt lat="47.7635281" lon="-1.8388667">
        <ele>4.843</ele>
        <time>2018-08-28T14:22:06.770Z</time>
      </trkpt>
      <trkpt lat="47.7635120" lon="-1.8390014">
        <ele>4.872</ele>
        <time>2018-08-28T14:22:09.766Z</time>
      </trkpt>
      <trkpt lat="47.7634932" lon="-1.8391340">
        <ele>4.859</ele>
        <time>2018-08-28T14:22:12.724Z</time>
      </trkpt>
      <trkpt lat="47.7634871" lon="-1.8392694">
        <ele>4.833</ele>
        <time>2018-08-28T14:22:15.702Z</time>
      </trkpt>
      <trkpt lat="47.7634746" lon="-1.8394151">
        <ele>4.782</ele>
        <time>2018-08-28T14:22:19.000Z</time>
      </trkpt>
      <trkpt lat="47.7634746" lon="-1.8394151">
        <ele>4.744</ele>
        <time>2018-08-28T14:22:22.000Z</time>
      </trkpt>
      <trkpt lat="47.7634746" lon="-1.8394151">
        <ele>4.728</ele>
        <time>2018-08-28T14:24:29.209Z</time>
      </trkpt>
      <trkpt lat="47.7634830" lon="-1.8397656">
        <ele>4.740</ele>
        <time>2018-08-28T14:24:43.731Z</time>
      </trkpt>
      <trkpt lat="47.7634605" lon="-1.8399279">
        <ele>5.219</ele>
        <time>2018-08-28T14:24:47.048Z</time>
      </trkpt>
      <trkpt lat="47.7634214" lon="-1.8400752">
        <ele>6.437</ele>
        <time>2018-08-28T14:24:49.762Z</time>
      </trkpt>
      <trkpt lat="47.7633782" lon="-1.8401988">
        <ele>7.678</ele>
        <time>2018-08-28T14:24:52.175Z</time>
      </trkpt>
      <trkpt lat="47.7633473" lon="-1.8403468">
        <ele>8.278</ele>
        <time>2018-08-28T14:24:55.000Z</time>
      </trkpt>
      <trkpt lat="47.7633473" lon="-1.8403468">
        <ele>8.409</ele>
        <time>2018-08-28T14:25:07.000Z</time>
      </trkpt>
      <trkpt lat="47.7633473" lon="-1.8403468">
        <ele>8.364</ele>
        <time>2018-08-28T14:25:57.020Z</time>
      </trkpt>
      <trkpt lat="47.7633476" lon="-1.8406210">
        <ele>8.301</ele>
        <time>2018-08-28T14:26:09.623Z</time>
      </trkpt>
      <trkpt lat="47.7632893" lon="-1.8407655">
        <ele>7.857</ele>
        <time>2018-08-28T14:26:13.715Z</time>
      </trkpt>
      <trkpt lat="47.7632402" lon="-1.8409212">
        <ele>6.707</ele>
        <time>2018-08-28T14:26:17.707Z</time>
      </trkpt>
      <trkpt lat="47.7632088" lon="-1.8410854">
        <ele>5.310</ele>
        <time>2018-08-28T14:26:21.556Z</time>
      </trkpt>
      <trkpt lat="47.7631923" lon="-1.8412179">
        <ele>4.303</ele>
        <time>2018-08-28T14:26:24.548Z</time>
      </trkpt>
      <trkpt lat="47.7631807" lon="-1.8413809">
        <ele>3.819</ele>
        <time>2018-08-28T14:26:28.201Z</time>
      </trkpt>
      <trkpt lat="47.7631693" lon="-1.8415486">
        <ele>3.536</ele>
        <time>2018-08-28T14:26:31.975Z</time>
      </trkpt>
      <trkpt lat="47.7631755" lon="-1.8417159">
        <ele>3.034</ele>
        <time>2018-08-28T14:26:35.777Z</time>
      </trkpt>
      <trkpt lat="47.7631986" lon="-1.8418859">
        <ele>2.267</ele>
        <time>2018-08-28T14:26:39.729Z</time>
      </trkpt>
      <trkpt lat="47.7632328" lon="-1.8420119">
        <ele>1.453</ele>
        <time>2018-08-28T14:26:42.838Z</time>
      </trkpt>
      <trkpt lat="47.7632755" lon="-1.8421536">
        <ele>0.880</ele>
        <time>2018-08-28T14:26:46.476Z</time>
      </trkpt>
      <trkpt lat="47.7633085" lon="-1.8422973">
        <ele>0.702</ele>
        <time>2018-08-28T14:26:50.094Z</time>
      </trkpt>
      <trkpt lat="47.7633870" lon="-1.8424330">
        <ele>0.789</ele>
        <time>2018-08-28T14:26:54.325Z</time>
      </trkpt>
      <trkpt lat="47.7634534" lon="-1.8425712">
        <ele>1.200</ele>
        <time>2018-08-28T14:26:58.263Z</time>
      </trkpt>
      <trkpt lat="47.7634688" lon="-1.8427322">
        <ele>2.181</ele>
        <time>2018-08-28T14:27:01.986Z</time>
      </trkpt>
      <trkpt lat="47.7634913" lon="-1.8428806">
        <ele>3.518</ele>
        <time>2018-08-28T14:27:05.350Z</time>
      </trkpt>
      <trkpt lat="47.7634980" lon="-1.8430219">
        <ele>4.571</ele>
        <time>2018-08-28T14:27:08.372Z</time>
      </trkpt>
      <trkpt lat="47.7634988" lon="-1.8431651">
        <ele>5.010</ele>
        <time>2018-08-28T14:27:11.434Z</time>
      </trkpt>
      <trkpt lat="47.7635339" lon="-1.8433052">
        <ele>4.998</ele>
        <time>2018-08-28T14:27:14.739Z</time>
      </trkpt>
      <trkpt lat="47.7635475" lon="-1.8434483">
        <ele>4.856</ele>
        <time>2018-08-28T14:27:18.125Z</time>
      </trkpt>
      <trkpt lat="47.7635892" lon="-1.8435802">
        <ele>5.104</ele>
        <time>2018-08-28T14:27:21.815Z</time>
      </trkpt>
      <trkpt lat="47.7636416" lon="-1.8437246">
        <ele>5.951</ele>
        <time>2018-08-28T14:27:26.239Z</time>
      </trkpt>
      <trkpt lat="47.7636987" lon="-1.8438470">
        <ele>6.995</ele>
        <time>2018-08-28T14:27:30.321Z</time>
      </trkpt>
      <trkpt lat="47.7637393" lon="-1.8439866">
        <ele>7.996</ele>
        <time>2018-08-28T14:27:34.528Z</time>
      </trkpt>
      <trkpt lat="47.7637628" lon="-1.8441294">
        <ele>8.963</ele>
        <time>2018-08-28T14:27:38.727Z</time>
      </trkpt>
      <trkpt lat="47.7637940" lon="-1.8442757">
        <ele>9.817</ele>
        <time>2018-08-28T14:27:43.000Z</time>
      </trkpt>
      <trkpt lat="47.7637940" lon="-1.8442757">
        <ele>10.557</ele>
        <time>2018-08-28T14:27:47.000Z</time>
      </trkpt>
      <trkpt lat="47.7637940" lon="-1.8442757">
        <ele>10.987</ele>
        <time>2018-08-28T14:28:06.136Z</time>
      </trkpt>
      <trkpt lat="47.7638184" lon="-1.8446032">
        <ele>10.953</ele>
        <time>2018-08-28T14:28:18.743Z</time>
      </trkpt>
      <trkpt lat="47.7638383" lon="-1.8447645">
        <ele>10.896</ele>
        <time>2018-08-28T14:28:21.938Z</time>
      </trkpt>
      <trkpt lat="47.7638813" lon="-1.8449226">
        <ele>11.666</ele>
        <time>2018-08-28T14:28:25.000Z</time>
      </trkpt>
      <trkpt lat="47.7638813" lon="-1.8449226">
        <ele>13.335</ele>
        <time>2018-08-28T14:28:26.000Z</time>
      </trkpt>
      <trkpt lat="47.7638813" lon="-1.8449226">
        <ele>14.585</ele>
        <time>2018-08-28T14:28:26.100Z</time>
      </trkpt>
      <trkpt lat="47.7639301" lon="-1.8451814">
        <ele>14.541</ele>
        <time>2018-08-28T14:28:33.976Z</time>
      </trkpt>
      <trkpt lat="47.7639521" lon="-1.8453396">
        <ele>15.589</ele>
        <time>2018-08-28T14:28:36.798Z</time>
      </trkpt>
      <trkpt lat="47.7639428" lon="-1.8455252">
        <ele>19.561</ele>
        <time>2018-08-28T14:28:39.855Z</time>
      </trkpt>
      <trkpt lat="47.7639562" lon="-1.8457107">
        <ele>23.434</ele>
        <time>2018-08-28T14:28:42.713Z</time>
      </trkpt>
      <trkpt lat="47.7640068" lon="-1.8458926">
        <ele>24.237</ele>
        <time>2018-08-28T14:28:45.665Z</time>
      </trkpt>
      <trkpt lat="47.7640518" lon="-1.8460107">
        <ele>23.076</ele>
        <time>2018-08-28T14:28:47.779Z</time>
      </trkpt>
      <trkpt lat="47.7640980" lon="-1.8461739">
        <ele>21.420</ele>
        <time>2018-08-28T14:28:50.771Z</time>
      </trkpt>
      <trkpt lat="47.7641368" lon="-1.8463184">
        <ele>19.810</ele>
        <time>2018-08-28T14:28:53.642Z</time>
      </trkpt>
      <trkpt lat="47.7641782" lon="-1.8464461">
        <ele>18.920</ele>
        <time>2018-08-28T14:28:56.281Z</time>
      </trkpt>
      <trkpt lat="47.7642323" lon="-1.8465799">
        <ele>18.988</ele>
        <time>2018-08-28T14:28:59.181Z</time>
      </trkpt>
      <trkpt lat="47.7642821" lon="-1.8467032">
        <ele>19.453</ele>
        <time>2018-08-28T14:29:01.924Z</time>
      </trkpt>
      <trkpt lat="47.7643283" lon="-1.8468211">
        <ele>19.587</ele>
        <time>2018-08-28T14:29:04.501Z</time>
      </trkpt>
      <trkpt lat="47.7643937" lon="-1.8469349">
        <ele>19.137</ele>
        <time>2018-08-28T14:29:07.247Z</time>
      </trkpt>
      <trkpt lat="47.7644737" lon="-1.8470323">
        <ele>18.393</ele>
        <time>2018-08-28T14:29:10.035Z</time>
      </trkpt>
      <trkpt lat="47.7645527" lon="-1.8471166">
        <ele>17.850</ele>
        <time>2018-08-28T14:29:12.719Z</time>
      </trkpt>
      <trkpt lat="47.7646272" lon="-1.8471971">
        <ele>17.763</ele>
        <time>2018-08-28T14:29:15.408Z</time>
      </trkpt>
      <trkpt lat="47.7646894" lon="-1.8473076">
        <ele>18.006</ele>
        <time>2018-08-28T14:29:18.507Z</time>
      </trkpt>
      <trkpt lat="47.7647705" lon="-1.8474003">
        <ele>18.097</ele>
        <time>2018-08-28T14:29:22.087Z</time>
      </trkpt>
      <trkpt lat="47.7648700" lon="-1.8474813">
        <ele>17.670</ele>
        <time>2018-08-28T14:29:26.122Z</time>
      </trkpt>
      <trkpt lat="47.7649617" lon="-1.8475598">
        <ele>16.908</ele>
        <time>2018-08-28T14:29:29.513Z</time>
      </trkpt>
      <trkpt lat="47.7650557" lon="-1.8476228">
        <ele>16.096</ele>
        <time>2018-08-28T14:29:32.520Z</time>
      </trkpt>
      <trkpt lat="47.7651730" lon="-1.8476937">
        <ele>15.299</ele>
        <time>2018-08-28T14:29:36.144Z</time>
      </trkpt>
      <trkpt lat="47.7652704" lon="-1.8477470">
        <ele>14.873</ele>
        <time>2018-08-28T14:29:39.000Z</time>
      </trkpt>
      <trkpt lat="47.7652704" lon="-1.8477470">
        <ele>15.079</ele>
        <time>2018-08-28T14:29:49.000Z</time>
      </trkpt>
      <trkpt lat="47.7652704" lon="-1.8477470">
        <ele>15.416</ele>
        <time>2018-08-28T14:29:49.100Z</time>
      </trkpt>
      <trkpt lat="47.7653559" lon="-1.8476823">
        <ele>15.233</ele>
        <time>2018-08-28T14:30:02.000Z</time>
      </trkpt>
      <trkpt lat="47.7653559" lon="-1.8476823">
        <ele>15.109</ele>
        <time>2018-08-28T14:30:07.000Z</time>
      </trkpt>
      <trkpt lat="47.7653559" lon="-1.8476823">
        <ele>15.109</ele>
        <time>2018-08-28T14:30:07.100Z</time>
      </trkpt>
      <trkpt lat="47.7653559" lon="-1.8476823">
        <ele>15.147</ele>
        <time>2018-08-28T14:31:18.000Z</time>
      </trkpt>
      <trkpt lat="47.7653559" lon="-1.8476823">
        <ele>15.122</ele>
        <time>2018-08-28T14:32:26.826Z</time>
      </trkpt>
      <trkpt lat="47.7654648" lon="-1.8477849">
        <ele>15.113</ele>
        <time>2018-08-28T14:32:36.784Z</time>
      </trkpt>
      <trkpt lat="47.7655589" lon="-1.8478425">
        <ele>13.728</ele>
        <time>2018-08-28T14:32:41.092Z</time>
      </trkpt>
      <trkpt lat="47.7656561" lon="-1.8478302">
        <ele>9.845</ele>
        <time>2018-08-28T14:32:44.999Z</time>
      </trkpt>
      <trkpt lat="47.7656561" lon="-1.8478302">
        <ele>5.436</ele>
        <time>2018-08-28T14:32:49.999Z</time>
      </trkpt>
      <trkpt lat="47.7656561" lon="-1.8478302">
        <ele>3.276</ele>
        <time>2018-08-28T14:32:50.099Z</time>
      </trkpt>
      <trkpt lat="47.7659135" lon="-1.8479422">
        <ele>3.493</ele>
        <time>2018-08-28T14:33:04.870Z</time>
      </trkpt>
      <trkpt lat="47.7660072" lon="-1.8479320">
        <ele>3.972</ele>
        <time>2018-08-28T14:33:07.240Z</time>
      </trkpt>
      <trkpt lat="47.7661129" lon="-1.8479460">
        <ele>3.133</ele>
        <time>2018-08-28T14:33:09.674Z</time>
      </trkpt>
      <trkpt lat="47.7662179" lon="-1.8479662">
        <ele>2.272</ele>
        <time>2018-08-28T14:33:11.884Z</time>
      </trkpt>
      <trkpt lat="47.7663269" lon="-1.8479864">
        <ele>3.129</ele>
        <time>2018-08-28T14:33:13.999Z</time>
      </trkpt>
      <trkpt lat="47.7663269" lon="-1.8479864">
        <ele>5.093</ele>
        <time>2018-08-28T14:33:13.999Z</time>
      </trkpt>
      <trkpt lat="47.7663269" lon="-1.8479864">
        <ele>6.371</ele>
        <time>2018-08-28T14:33:14.099Z</time>
      </trkpt>
      <trkpt lat="47.7664674" lon="-1.8479867">
        <ele>6.304</ele>
        <time>2018-08-28T14:33:20.355Z</time>
      </trkpt>
      <trkpt lat="47.7665653" lon="-1.8479696">
        <ele>6.654</ele>
        <time>2018-08-28T14:33:23.378Z</time>
      </trkpt>
      <trkpt lat="47.7666711" lon="-1.8479586">
        <ele>8.820</ele>
        <time>2018-08-28T14:33:26.463Z</time>
      </trkpt>
      <trkpt lat="47.7667717" lon="-1.8479365">
        <ele>11.303</ele>
        <time>2018-08-28T14:33:29.339Z</time>
      </trkpt>
      <trkpt lat="47.7668781" lon="-1.8479297">
        <ele>12.402</ele>
        <time>2018-08-28T14:33:32.380Z</time>
      </trkpt>
      <trkpt lat="47.7669676" lon="-1.8479049">
        <ele>12.179</ele>
        <time>2018-08-28T14:33:35.043Z</time>
      </trkpt>
      <trkpt lat="47.7670587" lon="-1.8478674">
        <ele>11.112</ele>
        <time>2018-08-28T14:33:37.830Z</time>
      </trkpt>
      <trkpt lat="47.7671516" lon="-1.8478231">
        <ele>9.880</ele>
        <time>2018-08-28T14:33:40.601Z</time>
      </trkpt>
      <trkpt lat="47.7672649" lon="-1.8477803">
        <ele>9.106</ele>
        <time>2018-08-28T14:33:43.706Z</time>
      </trkpt>
      <trkpt lat="47.7673735" lon="-1.8477648">
        <ele>8.839</ele>
        <time>2018-08-28T14:33:46.503Z</time>
      </trkpt>
      <trkpt lat="47.7674760" lon="-1.8477230">
        <ele>8.588</ele>
        <time>2018-08-28T14:33:49.232Z</time>
      </trkpt>
      <trkpt lat="47.7675870" lon="-1.8477142">
        <ele>7.971</ele>
        <time>2018-08-28T14:33:52.128Z</time>
      </trkpt>
      <trkpt lat="47.7676970" lon="-1.8476689">
        <ele>7.039</ele>
        <time>2018-08-28T14:33:55.107Z</time>
      </trkpt>
      <trkpt lat="47.7678137" lon="-1.8476056">
        <ele>5.659</ele>
        <time>2018-08-28T14:33:58.219Z</time>
      </trkpt>
      <trkpt lat="47.7678991" lon="-1.8475596">
        <ele>3.626</ele>
        <time>2018-08-28T14:34:00.443Z</time>
      </trkpt>
      <trkpt lat="47.7680013" lon="-1.8475120">
        <ele>1.432</ele>
        <time>2018-08-28T14:34:03.210Z</time>
      </trkpt>
      <trkpt lat="47.7681076" lon="-1.8474656">
        <ele>0.000</ele>
        <time>2018-08-28T14:34:06.282Z</time>
      </trkpt>
      <trkpt lat="47.7681994" lon="-1.8474243">
        <ele>0.000</ele>
        <time>2018-08-28T14:34:09.115Z</time>
      </trkpt>
      <trkpt lat="47.7683132" lon="-1.8473955">
        <ele>0.000</ele>
        <time>2018-08-28T14:34:12.328Z</time>
      </trkpt>
      <trkpt lat="47.7684195" lon="-1.8473331">
        <ele>0.243</ele>
        <time>2018-08-28T14:34:15.324Z</time>
      </trkpt>
      <trkpt lat="47.7685195" lon="-1.8472736">
        <ele>0.846</ele>
        <time>2018-08-28T14:34:18.082Z</time>
      </trkpt>
      <trkpt lat="47.7686203" lon="-1.8471938">
        <ele>1.343</ele>
        <time>2018-08-28T14:34:20.999Z</time>
      </trkpt>
      <trkpt lat="47.7686203" lon="-1.8471938">
        <ele>1.760</ele>
        <time>2018-08-28T14:34:22.999Z</time>
      </trkpt>
      <trkpt lat="47.7686203" lon="-1.8471938">
        <ele>1.991</ele>
        <time>2018-08-28T14:34:23.099Z</time>
      </trkpt>
      <trkpt lat="47.7688064" lon="-1.8470274">
        <ele>1.963</ele>
        <time>2018-08-28T14:34:30.854Z</time>
      </trkpt>
      <trkpt lat="47.7688897" lon="-1.8469384">
        <ele>1.828</ele>
        <time>2018-08-28T14:34:33.608Z</time>
      </trkpt>
      <trkpt lat="47.7689740" lon="-1.8468569">
        <ele>1.748</ele>
        <time>2018-08-28T14:34:36.279Z</time>
      </trkpt>
      <trkpt lat="47.7690603" lon="-1.8467592">
        <ele>1.758</ele>
        <time>2018-08-28T14:34:39.156Z</time>
      </trkpt>
      <trkpt lat="47.7691421" lon="-1.8466571">
        <ele>1.817</ele>
        <time>2018-08-28T14:34:42.003Z</time>
      </trkpt>
      <trkpt lat="47.7692208" lon="-1.8465442">
        <ele>1.794</ele>
        <time>2018-08-28T14:34:44.906Z</time>
      </trkpt>
      <trkpt lat="47.7693026" lon="-1.8464397">
        <ele>1.524</ele>
        <time>2018-08-28T14:34:47.727Z</time>
      </trkpt>
      <trkpt lat="47.7693905" lon="-1.8463348">
        <ele>1.172</ele>
        <time>2018-08-28T14:34:50.690Z</time>
      </trkpt>
      <trkpt lat="47.7694659" lon="-1.8462340">
        <ele>0.966</ele>
        <time>2018-08-28T14:34:53.448Z</time>
      </trkpt>
      <trkpt lat="47.7695388" lon="-1.8461368">
        <ele>0.902</ele>
        <time>2018-08-28T14:34:56.256Z</time>
      </trkpt>
      <trkpt lat="47.7696292" lon="-1.8460312">
        <ele>0.850</ele>
        <time>2018-08-28T14:34:59.657Z</time>
      </trkpt>
      <trkpt lat="47.7697106" lon="-1.8459423">
        <ele>0.667</ele>
        <time>2018-08-28T14:35:02.700Z</time>
      </trkpt>
      <trkpt lat="47.7697818" lon="-1.8458313">
        <ele>0.361</ele>
        <time>2018-08-28T14:35:05.770Z</time>
      </trkpt>
      <trkpt lat="47.7698533" lon="-1.8457103">
        <ele>0.141</ele>
        <time>2018-08-28T14:35:08.953Z</time>
      </trkpt>
      <trkpt lat="47.7699195" lon="-1.8456175">
        <ele>0.000</ele>
        <time>2018-08-28T14:35:11.638Z</time>
      </trkpt>
      <trkpt lat="47.7699838" lon="-1.8455165">
        <ele>0.000</ele>
        <time>2018-08-28T14:35:14.430Z</time>
      </trkpt>
      <trkpt lat="47.7700452" lon="-1.8454188">
        <ele>0.000</ele>
        <time>2018-08-28T14:35:17.130Z</time>
      </trkpt>
      <trkpt lat="47.7701132" lon="-1.8453124">
        <ele>0.000</ele>
        <time>2018-08-28T14:35:20.077Z</time>
      </trkpt>
      <trkpt lat="47.7701850" lon="-1.8451908">
        <ele>0.000</ele>
        <time>2018-08-28T14:35:23.239Z</time>
      </trkpt>
      <trkpt lat="47.7702523" lon="-1.8450689">
        <ele>0.000</ele>
        <time>2018-08-28T14:35:26.224Z</time>
      </trkpt>
      <trkpt lat="47.7703270" lon="-1.8449450">
        <ele>0.000</ele>
        <time>2018-08-28T14:35:29.269Z</time>
      </trkpt>
      <trkpt lat="47.7704027" lon="-1.8448181">
        <ele>0.000</ele>
        <time>2018-08-28T14:35:32.248Z</time>
      </trkpt>
      <trkpt lat="47.7704842" lon="-1.8446805">
        <ele>0.000</ele>
        <time>2018-08-28T14:35:35.331Z</time>
      </trkpt>
      <trkpt lat="47.7705658" lon="-1.8445415">
        <ele>0.000</ele>
        <time>2018-08-28T14:35:38.350Z</time>
      </trkpt>
      <trkpt lat="47.7706385" lon="-1.8444085">
        <ele>0.000</ele>
        <time>2018-08-28T14:35:41.137Z</time>
      </trkpt>
      <trkpt lat="47.7707092" lon="-1.8442538">
        <ele>0.000</ele>
        <time>2018-08-28T14:35:44.163Z</time>
      </trkpt>
      <trkpt lat="47.7707753" lon="-1.8441133">
        <ele>0.000</ele>
        <time>2018-08-28T14:35:46.936Z</time>
      </trkpt>
      <trkpt lat="47.7708473" lon="-1.8439913">
        <ele>0.000</ele>
        <time>2018-08-28T14:35:49.625Z</time>
      </trkpt>
      <trkpt lat="47.7709050" lon="-1.8438840">
        <ele>0.000</ele>
        <time>2018-08-28T14:35:51.999Z</time>
      </trkpt>
      <trkpt lat="47.7709050" lon="-1.8438840">
        <ele>0.000</ele>
        <time>2018-08-28T14:35:52.999Z</time>
      </trkpt>
      <trkpt lat="47.7709050" lon="-1.8438840">
        <ele>0.000</ele>
        <time>2018-08-28T14:35:53.099Z</time>
      </trkpt>
      <trkpt lat="47.7710300" lon="-1.8436517">
        <ele>0.000</ele>
        <time>2018-08-28T14:36:04.942Z</time>
      </trkpt>
      <trkpt lat="47.7710942" lon="-1.8435045">
        <ele>0.000</ele>
        <time>2018-08-28T14:36:08.388Z</time>
      </trkpt>
      <trkpt lat="47.7711465" lon="-1.8433631">
        <ele>0.000</ele>
        <time>2018-08-28T14:36:11.138Z</time>
      </trkpt>
      <trkpt lat="47.7712053" lon="-1.8431982">
        <ele>0.000</ele>
        <time>2018-08-28T14:36:14.087Z</time>
      </trkpt>
      <trkpt lat="47.7712661" lon="-1.8430458">
        <ele>0.000</ele>
        <time>2018-08-28T14:36:16.812Z</time>
      </trkpt>
      <trkpt lat="47.7713250" lon="-1.8429125">
        <ele>0.000</ele>
        <time>2018-08-28T14:36:19.296Z</time>
      </trkpt>
      <trkpt lat="47.7713806" lon="-1.8427884">
        <ele>0.000</ele>
        <time>2018-08-28T14:36:21.687Z</time>
      </trkpt>
      <trkpt lat="47.7714350" lon="-1.8426753">
        <ele>0.000</ele>
        <time>2018-08-28T14:36:23.999Z</time>
      </trkpt>
      <trkpt lat="47.7714350" lon="-1.8426753">
        <ele>0.000</ele>
        <time>2018-08-28T14:36:24.999Z</time>
      </trkpt>
      <trkpt lat="47.7714350" lon="-1.8426753">
        <ele>0.000</ele>
        <time>2018-08-28T14:36:25.099Z</time>
      </trkpt>
      <trkpt lat="47.7715313" lon="-1.8424577">
        <ele>0.000</ele>
        <time>2018-08-28T14:36:33.845Z</time>
      </trkpt>
      <trkpt lat="47.7716002" lon="-1.8423135">
        <ele>0.000</ele>
        <time>2018-08-28T14:36:37.283Z</time>
      </trkpt>
      <trkpt lat="47.7716627" lon="-1.8421897">
        <ele>0.000</ele>
        <time>2018-08-28T14:36:39.967Z</time>
      </trkpt>
      <trkpt lat="47.7717398" lon="-1.8420679">
        <ele>0.000</ele>
        <time>2018-08-28T14:36:42.670Z</time>
      </trkpt>
      <trkpt lat="47.7718186" lon="-1.8419466">
        <ele>0.000</ele>
        <time>2018-08-28T14:36:45.263Z</time>
      </trkpt>
      <trkpt lat="47.7718941" lon="-1.8418231">
        <ele>0.000</ele>
        <time>2018-08-28T14:36:47.770Z</time>
      </trkpt>
      <trkpt lat="47.7719599" lon="-1.8417112">
        <ele>0.000</ele>
        <time>2018-08-28T14:36:50.000Z</time>
      </trkpt>
      <trkpt lat="47.7719599" lon="-1.8417112">
        <ele>0.000</ele>
        <time>2018-08-28T14:36:50.000Z</time>
      </trkpt>
      <trkpt lat="47.7719599" lon="-1.8417112">
        <ele>0.000</ele>
        <time>2018-08-28T14:36:50.100Z</time>
      </trkpt>
      <trkpt lat="47.7720491" lon="-1.8415607">
        <ele>0.000</ele>
        <time>2018-08-28T14:36:56.031Z</time>
      </trkpt>
      <trkpt lat="47.7721219" lon="-1.8414548">
        <ele>0.000</ele>
        <time>2018-08-28T14:36:59.134Z</time>
      </trkpt>
      <trkpt lat="47.7721951" lon="-1.8413534">
        <ele>0.000</ele>
        <time>2018-08-28T14:37:02.190Z</time>
      </trkpt>
      <trkpt lat="47.7722626" lon="-1.8412417">
        <ele>0.000</ele>
        <time>2018-08-28T14:37:05.251Z</time>
      </trkpt>
      <trkpt lat="47.7723273" lon="-1.8411319">
        <ele>0.000</ele>
        <time>2018-08-28T14:37:08.233Z</time>
      </trkpt>
      <trkpt lat="47.7723845" lon="-1.8410216">
        <ele>0.000</ele>
        <time>2018-08-28T14:37:11.116Z</time>
      </trkpt>
      <trkpt lat="47.7724425" lon="-1.8409101">
        <ele>0.000</ele>
        <time>2018-08-28T14:37:14.053Z</time>
      </trkpt>
      <trkpt lat="47.7725068" lon="-1.8408025">
        <ele>0.000</ele>
        <time>2018-08-28T14:37:17.054Z</time>
      </trkpt>
      <trkpt lat="47.7725673" lon="-1.8406955">
        <ele>0.000</ele>
        <time>2018-08-28T14:37:19.969Z</time>
      </trkpt>
      <trkpt lat="47.7726334" lon="-1.8405939">
        <ele>0.000</ele>
        <time>2018-08-28T14:37:22.895Z</time>
      </trkpt>
      <trkpt lat="47.7727069" lon="-1.8404827">
        <ele>0.000</ele>
        <time>2018-08-28T14:37:26.041Z</time>
      </trkpt>
      <trkpt lat="47.7727784" lon="-1.8403584">
        <ele>0.000</ele>
        <time>2018-08-28T14:37:29.234Z</time>
      </trkpt>
      <trkpt lat="47.7728518" lon="-1.8402463">
        <ele>0.000</ele>
        <time>2018-08-28T14:37:32.236Z</time>
      </trkpt>
      <trkpt lat="47.7729195" lon="-1.8401277">
        <ele>0.000</ele>
        <time>2018-08-28T14:37:35.207Z</time>
      </trkpt>
      <trkpt lat="47.7729882" lon="-1.8400213">
        <ele>0.000</ele>
        <time>2018-08-28T14:37:38.019Z</time>
      </trkpt>
      <trkpt lat="47.7730689" lon="-1.8399158">
        <ele>0.000</ele>
        <time>2018-08-28T14:37:41.084Z</time>
      </trkpt>
      <trkpt lat="47.7731449" lon="-1.8398168">
        <ele>0.000</ele>
        <time>2018-08-28T14:37:43.974Z</time>
      </trkpt>
      <trkpt lat="47.7732275" lon="-1.8397109">
        <ele>0.000</ele>
        <time>2018-08-28T14:37:47.055Z</time>
      </trkpt>
      <trkpt lat="47.7733161" lon="-1.8396078">
        <ele>0.000</ele>
        <time>2018-08-28T14:37:50.189Z</time>
      </trkpt>
      <trkpt lat="47.7734115" lon="-1.8395345">
        <ele>0.000</ele>
        <time>2018-08-28T14:37:53.179Z</time>
      </trkpt>
      <trkpt lat="47.7735122" lon="-1.8394723">
        <ele>0.000</ele>
        <time>2018-08-28T14:37:56.203Z</time>
      </trkpt>
      <trkpt lat="47.7736194" lon="-1.8394194">
        <ele>0.000</ele>
        <time>2018-08-28T14:37:59.320Z</time>
      </trkpt>
      <trkpt lat="47.7737272" lon="-1.8394002">
        <ele>0.000</ele>
        <time>2018-08-28T14:38:02.318Z</time>
      </trkpt>
      <trkpt lat="47.7738357" lon="-1.8393889">
        <ele>0.000</ele>
        <time>2018-08-28T14:38:05.302Z</time>
      </trkpt>
      <trkpt lat="47.7739503" lon="-1.8393951">
        <ele>0.000</ele>
        <time>2018-08-28T14:38:08.374Z</time>
      </trkpt>
      <trkpt lat="47.7740707" lon="-1.8393994">
        <ele>0.000</ele>
        <time>2018-08-28T14:38:11.518Z</time>
      </trkpt>
      <trkpt lat="47.7741899" lon="-1.8394010">
        <ele>0.000</ele>
        <time>2018-08-28T14:38:14.621Z</time>
      </trkpt>
      <trkpt lat="47.7742997" lon="-1.8394342">
        <ele>0.000</ele>
        <time>2018-08-28T14:38:17.570Z</time>
      </trkpt>
      <trkpt lat="47.7744109" lon="-1.8394601">
        <ele>0.000</ele>
        <time>2018-08-28T14:38:20.558Z</time>
      </trkpt>
      <trkpt lat="47.7745239" lon="-1.8394867">
        <ele>0.000</ele>
        <time>2018-08-28T14:38:23.631Z</time>
      </trkpt>
      <trkpt lat="47.7746307" lon="-1.8395284">
        <ele>0.000</ele>
        <time>2018-08-28T14:38:26.633Z</time>
      </trkpt>
      <trkpt lat="47.7747360" lon="-1.8395643">
        <ele>0.000</ele>
        <time>2018-08-28T14:38:29.614Z</time>
      </trkpt>
      <trkpt lat="47.7748392" lon="-1.8396112">
        <ele>0.000</ele>
        <time>2018-08-28T14:38:32.574Z</time>
      </trkpt>
      <trkpt lat="47.7749453" lon="-1.8396837">
        <ele>0.000</ele>
        <time>2018-08-28T14:38:35.754Z</time>
      </trkpt>
      <trkpt lat="47.7750334" lon="-1.8397740">
        <ele>0.000</ele>
        <time>2018-08-28T14:38:38.690Z</time>
      </trkpt>
      <trkpt lat="47.7751365" lon="-1.8398301">
        <ele>0.000</ele>
        <time>2018-08-28T14:38:41.720Z</time>
      </trkpt>
      <trkpt lat="47.7752390" lon="-1.8398774">
        <ele>0.000</ele>
        <time>2018-08-28T14:38:44.739Z</time>
      </trkpt>
      <trkpt lat="47.7753332" lon="-1.8399306">
        <ele>0.040</ele>
        <time>2018-08-28T14:38:47.621Z</time>
      </trkpt>
      <trkpt lat="47.7754284" lon="-1.8400069">
        <ele>0.264</ele>
        <time>2018-08-28T14:38:50.724Z</time>
      </trkpt>
      <trkpt lat="47.7755154" lon="-1.8400919">
        <ele>0.375</ele>
        <time>2018-08-28T14:38:53.726Z</time>
      </trkpt>
      <trkpt lat="47.7755980" lon="-1.8401716">
        <ele>0.312</ele>
        <time>2018-08-28T14:38:56.608Z</time>
      </trkpt>
      <trkpt lat="47.7756779" lon="-1.8402602">
        <ele>0.185</ele>
        <time>2018-08-28T14:38:59.504Z</time>
      </trkpt>
      <trkpt lat="47.7757731" lon="-1.8403579">
        <ele>0.242</ele>
        <time>2018-08-28T14:39:02.676Z</time>
      </trkpt>
      <trkpt lat="47.7758895" lon="-1.8404442">
        <ele>0.637</ele>
        <time>2018-08-28T14:39:06.122Z</time>
      </trkpt>
      <trkpt lat="47.7759642" lon="-1.8405353">
        <ele>1.251</ele>
        <time>2018-08-28T14:39:08.726Z</time>
      </trkpt>
      <trkpt lat="47.7760536" lon="-1.8406322">
        <ele>1.860</ele>
        <time>2018-08-28T14:39:11.727Z</time>
      </trkpt>
      <trkpt lat="47.7761493" lon="-1.8407161">
        <ele>2.349</ele>
        <time>2018-08-28T14:39:14.760Z</time>
      </trkpt>
      <trkpt lat="47.7762312" lon="-1.8408040">
        <ele>2.847</ele>
        <time>2018-08-28T14:39:17.584Z</time>
      </trkpt>
      <trkpt lat="47.7763111" lon="-1.8408951">
        <ele>3.475</ele>
        <time>2018-08-28T14:39:20.473Z</time>
      </trkpt>
      <trkpt lat="47.7763961" lon="-1.8409873">
        <ele>4.023</ele>
        <time>2018-08-28T14:39:23.596Z</time>
      </trkpt>
      <trkpt lat="47.7764716" lon="-1.8410621">
        <ele>4.265</ele>
        <time>2018-08-28T14:39:26.322Z</time>
      </trkpt>
      <trkpt lat="47.7765708" lon="-1.8411422">
        <ele>4.270</ele>
        <time>2018-08-28T14:39:29.683Z</time>
      </trkpt>
      <trkpt lat="47.7766565" lon="-1.8412155">
        <ele>4.188</ele>
        <time>2018-08-28T14:39:32.643Z</time>
      </trkpt>
      <trkpt lat="47.7767386" lon="-1.8412834">
        <ele>4.053</ele>
        <time>2018-08-28T14:39:35.524Z</time>
      </trkpt>
      <trkpt lat="47.7768134" lon="-1.8413579">
        <ele>3.849</ele>
        <time>2018-08-28T14:39:38.408Z</time>
      </trkpt>
      <trkpt lat="47.7769044" lon="-1.8414537">
        <ele>3.599</ele>
        <time>2018-08-28T14:39:42.131Z</time>
      </trkpt>
      <trkpt lat="47.7769991" lon="-1.8415499">
        <ele>3.342</ele>
        <time>2018-08-28T14:39:46.014Z</time>
      </trkpt>
      <trkpt lat="47.7770978" lon="-1.8416218">
        <ele>3.149</ele>
        <time>2018-08-28T14:39:49.499Z</time>
      </trkpt>
      <trkpt lat="47.7771953" lon="-1.8417024">
        <ele>3.322</ele>
        <time>2018-08-28T14:39:52.824Z</time>
      </trkpt>
      <trkpt lat="47.7772812" lon="-1.8417839">
        <ele>4.014</ele>
        <time>2018-08-28T14:39:55.804Z</time>
      </trkpt>
      <trkpt lat="47.7773656" lon="-1.8418683">
        <ele>4.819</ele>
        <time>2018-08-28T14:39:58.765Z</time>
      </trkpt>
      <trkpt lat="47.7774562" lon="-1.8419552">
        <ele>5.252</ele>
        <time>2018-08-28T14:40:01.881Z</time>
      </trkpt>
      <trkpt lat="47.7775416" lon="-1.8420272">
        <ele>5.275</ele>
        <time>2018-08-28T14:40:04.773Z</time>
      </trkpt>
      <trkpt lat="47.7776208" lon="-1.8420970">
        <ele>5.073</ele>
        <time>2018-08-28T14:40:07.566Z</time>
      </trkpt>
      <trkpt lat="47.7777032" lon="-1.8421671">
        <ele>4.857</ele>
        <time>2018-08-28T14:40:10.514Z</time>
      </trkpt>
      <trkpt lat="47.7777902" lon="-1.8422233">
        <ele>4.816</ele>
        <time>2018-08-28T14:40:13.565Z</time>
      </trkpt>
      <trkpt lat="47.7778973" lon="-1.8422918">
        <ele>5.086</ele>
        <time>2018-08-28T14:40:17.388Z</time>
      </trkpt>
      <trkpt lat="47.7779832" lon="-1.8423417">
        <ele>5.602</ele>
        <time>2018-08-28T14:40:20.433Z</time>
      </trkpt>
      <trkpt lat="47.7780788" lon="-1.8424335">
        <ele>6.060</ele>
        <time>2018-08-28T14:40:24.146Z</time>
      </trkpt>
      <trkpt lat="47.7781754" lon="-1.8424973">
        <ele>6.238</ele>
        <time>2018-08-28T14:40:27.500Z</time>
      </trkpt>
      <trkpt lat="47.7782655" lon="-1.8425528">
        <ele>6.190</ele>
        <time>2018-08-28T14:40:30.563Z</time>
      </trkpt>
      <trkpt lat="47.7783422" lon="-1.8426265">
        <ele>6.051</ele>
        <time>2018-08-28T14:40:33.389Z</time>
      </trkpt>
      <trkpt lat="47.7784374" lon="-1.8426987">
        <ele>5.836</ele>
        <time>2018-08-28T14:40:36.631Z</time>
      </trkpt>
      <trkpt lat="47.7785243" lon="-1.8427644">
        <ele>5.554</ele>
        <time>2018-08-28T14:40:39.607Z</time>
      </trkpt>
      <trkpt lat="47.7786058" lon="-1.8428264">
        <ele>5.280</ele>
        <time>2018-08-28T14:40:42.455Z</time>
      </trkpt>
      <trkpt lat="47.7786888" lon="-1.8428835">
        <ele>5.077</ele>
        <time>2018-08-28T14:40:45.355Z</time>
      </trkpt>
      <trkpt lat="47.7787876" lon="-1.8429612">
        <ele>4.900</ele>
        <time>2018-08-28T14:40:48.950Z</time>
      </trkpt>
      <trkpt lat="47.7788697" lon="-1.8430365">
        <ele>4.672</ele>
        <time>2018-08-28T14:40:52.094Z</time>
      </trkpt>
      <trkpt lat="47.7789492" lon="-1.8431114">
        <ele>4.327</ele>
        <time>2018-08-28T14:40:55.161Z</time>
      </trkpt>
      <trkpt lat="47.7790329" lon="-1.8431931">
        <ele>3.845</ele>
        <time>2018-08-28T14:40:58.328Z</time>
      </trkpt>
      <trkpt lat="47.7791381" lon="-1.8432720">
        <ele>3.255</ele>
        <time>2018-08-28T14:41:01.880Z</time>
      </trkpt>
      <trkpt lat="47.7792318" lon="-1.8433441">
        <ele>2.694</ele>
        <time>2018-08-28T14:41:04.920Z</time>
      </trkpt>
      <trkpt lat="47.7793311" lon="-1.8434230">
        <ele>2.264</ele>
        <time>2018-08-28T14:41:08.100Z</time>
      </trkpt>
      <trkpt lat="47.7794093" lon="-1.8435051">
        <ele>1.940</ele>
        <time>2018-08-28T14:41:10.882Z</time>
      </trkpt>
      <trkpt lat="47.7794805" lon="-1.8435868">
        <ele>1.703</ele>
        <time>2018-08-28T14:41:13.663Z</time>
      </trkpt>
      <trkpt lat="47.7795741" lon="-1.8436866">
        <ele>1.733</ele>
        <time>2018-08-28T14:41:17.355Z</time>
      </trkpt>
      <trkpt lat="47.7796482" lon="-1.8437677">
        <ele>2.094</ele>
        <time>2018-08-28T14:41:20.351Z</time>
      </trkpt>
      <trkpt lat="47.7797352" lon="-1.8438400">
        <ele>2.798</ele>
        <time>2018-08-28T14:41:23.444Z</time>
      </trkpt>
      <trkpt lat="47.7798269" lon="-1.8439250">
        <ele>3.761</ele>
        <time>2018-08-28T14:41:26.662Z</time>
      </trkpt>
      <trkpt lat="47.7799099" lon="-1.8439963">
        <ele>4.575</ele>
        <time>2018-08-28T14:41:29.574Z</time>
      </trkpt>
      <trkpt lat="47.7800031" lon="-1.8441108">
        <ele>4.894</ele>
        <time>2018-08-28T14:41:33.317Z</time>
      </trkpt>
      <trkpt lat="47.7800899" lon="-1.8441826">
        <ele>4.826</ele>
        <time>2018-08-28T14:41:36.387Z</time>
      </trkpt>
      <trkpt lat="47.7801834" lon="-1.8442460">
        <ele>4.602</ele>
        <time>2018-08-28T14:41:39.542Z</time>
      </trkpt>
      <trkpt lat="47.7802681" lon="-1.8443028">
        <ele>4.460</ele>
        <time>2018-08-28T14:41:42.432Z</time>
      </trkpt>
      <trkpt lat="47.7803524" lon="-1.8443678">
        <ele>4.588</ele>
        <time>2018-08-28T14:41:45.363Z</time>
      </trkpt>
      <trkpt lat="47.7804526" lon="-1.8444263">
        <ele>4.971</ele>
        <time>2018-08-28T14:41:48.641Z</time>
      </trkpt>
      <trkpt lat="47.7805377" lon="-1.8444905">
        <ele>5.367</ele>
        <time>2018-08-28T14:41:51.580Z</time>
      </trkpt>
      <trkpt lat="47.7806156" lon="-1.8445597">
        <ele>5.280</ele>
        <time>2018-08-28T14:41:54.532Z</time>
      </trkpt>
      <trkpt lat="47.7806967" lon="-1.8446555">
        <ele>4.548</ele>
        <time>2018-08-28T14:41:58.079Z</time>
      </trkpt>
      <trkpt lat="47.7807839" lon="-1.8447374">
        <ele>3.687</ele>
        <time>2018-08-28T14:42:01.759Z</time>
      </trkpt>
      <trkpt lat="47.7808856" lon="-1.8448276">
        <ele>3.270</ele>
        <time>2018-08-28T14:42:05.958Z</time>
      </trkpt>
      <trkpt lat="47.7809636" lon="-1.8448954">
        <ele>3.239</ele>
        <time>2018-08-28T14:42:09.052Z</time>
      </trkpt>
      <trkpt lat="47.7810633" lon="-1.8449831">
        <ele>3.253</ele>
        <time>2018-08-28T14:42:12.941Z</time>
      </trkpt>
      <trkpt lat="47.7811466" lon="-1.8450511">
        <ele>3.167</ele>
        <time>2018-08-28T14:42:16.084Z</time>
      </trkpt>
      <trkpt lat="47.7812441" lon="-1.8451275">
        <ele>3.024</ele>
        <time>2018-08-28T14:42:19.735Z</time>
      </trkpt>
      <trkpt lat="47.7813272" lon="-1.8451957">
        <ele>2.829</ele>
        <time>2018-08-28T14:42:22.851Z</time>
      </trkpt>
      <trkpt lat="47.7814055" lon="-1.8452638">
        <ele>2.816</ele>
        <time>2018-08-28T14:42:25.821Z</time>
      </trkpt>
      <trkpt lat="47.7815090" lon="-1.8453452">
        <ele>3.212</ele>
        <time>2018-08-28T14:42:29.675Z</time>
      </trkpt>
      <trkpt lat="47.7816127" lon="-1.8454252">
        <ele>3.968</ele>
        <time>2018-08-28T14:42:33.554Z</time>
      </trkpt>
      <trkpt lat="47.7816972" lon="-1.8454913">
        <ele>4.856</ele>
        <time>2018-08-28T14:42:36.705Z</time>
      </trkpt>
      <trkpt lat="47.7817826" lon="-1.8455620">
        <ele>5.557</ele>
        <time>2018-08-28T14:42:39.871Z</time>
      </trkpt>
      <trkpt lat="47.7818662" lon="-1.8456392">
        <ele>5.703</ele>
        <time>2018-08-28T14:42:43.027Z</time>
      </trkpt>
      <trkpt lat="47.7819671" lon="-1.8457306">
        <ele>5.297</ele>
        <time>2018-08-28T14:42:46.863Z</time>
      </trkpt>
      <trkpt lat="47.7820652" lon="-1.8458215">
        <ele>4.770</ele>
        <time>2018-08-28T14:42:50.716Z</time>
      </trkpt>
      <trkpt lat="47.7821642" lon="-1.8459128">
        <ele>4.525</ele>
        <time>2018-08-28T14:42:54.760Z</time>
      </trkpt>
      <trkpt lat="47.7822441" lon="-1.8459747">
        <ele>4.663</ele>
        <time>2018-08-28T14:42:58.000Z</time>
      </trkpt>
      <trkpt lat="47.7822441" lon="-1.8459747">
        <ele>5.039</ele>
        <time>2018-08-28T14:43:01.000Z</time>
      </trkpt>
      <trkpt lat="47.7822441" lon="-1.8459747">
        <ele>5.304</ele>
        <time>2018-08-28T14:43:37.337Z</time>
      </trkpt>
      <trkpt lat="47.7823828" lon="-1.8460793">
        <ele>5.292</ele>
        <time>2018-08-28T14:43:48.719Z</time>
      </trkpt>
      <trkpt lat="47.7824803" lon="-1.8461448">
        <ele>5.744</ele>
        <time>2018-08-28T14:43:53.361Z</time>
      </trkpt>
      <trkpt lat="47.7825773" lon="-1.8462226">
        <ele>7.335</ele>
        <time>2018-08-28T14:43:57.833Z</time>
      </trkpt>
      <trkpt lat="47.7826805" lon="-1.8462937">
        <ele>9.267</ele>
        <time>2018-08-28T14:44:02.091Z</time>
      </trkpt>
      <trkpt lat="47.7827659" lon="-1.8463586">
        <ele>10.413</ele>
        <time>2018-08-28T14:44:05.537Z</time>
      </trkpt>
      <trkpt lat="47.7828652" lon="-1.8464463">
        <ele>10.604</ele>
        <time>2018-08-28T14:44:09.645Z</time>
      </trkpt>
      <trkpt lat="47.7829579" lon="-1.8465399">
        <ele>10.000</ele>
        <time>2018-08-28T14:44:13.708Z</time>
      </trkpt>
      <trkpt lat="47.7830479" lon="-1.8466297">
        <ele>8.889</ele>
        <time>2018-08-28T14:44:17.752Z</time>
      </trkpt>
      <trkpt lat="47.7831281" lon="-1.8467164">
        <ele>7.730</ele>
        <time>2018-08-28T14:44:21.495Z</time>
      </trkpt>
      <trkpt lat="47.7832177" lon="-1.8468061">
        <ele>6.560</ele>
        <time>2018-08-28T14:44:25.529Z</time>
      </trkpt>
      <trkpt lat="47.7833083" lon="-1.8468965">
        <ele>5.240</ele>
        <time>2018-08-28T14:44:29.403Z</time>
      </trkpt>
      <trkpt lat="47.7833928" lon="-1.8469552">
        <ele>4.140</ele>
        <time>2018-08-28T14:44:32.484Z</time>
      </trkpt>
      <trkpt lat="47.7834881" lon="-1.8470118">
        <ele>3.666</ele>
        <time>2018-08-28T14:44:35.765Z</time>
      </trkpt>
      <trkpt lat="47.7835850" lon="-1.8470618">
        <ele>3.763</ele>
        <time>2018-08-28T14:44:39.063Z</time>
      </trkpt>
      <trkpt lat="47.7836715" lon="-1.8471168">
        <ele>4.153</ele>
        <time>2018-08-28T14:44:42.183Z</time>
      </trkpt>
      <trkpt lat="47.7837568" lon="-1.8471678">
        <ele>4.529</ele>
        <time>2018-08-28T14:44:45.299Z</time>
      </trkpt>
      <trkpt lat="47.7838670" lon="-1.8472283">
        <ele>4.776</ele>
        <time>2018-08-28T14:44:49.307Z</time>
      </trkpt>
      <trkpt lat="47.7839761" lon="-1.8472872">
        <ele>4.926</ele>
        <time>2018-08-28T14:44:53.184Z</time>
      </trkpt>
      <trkpt lat="47.7840617" lon="-1.8473460">
        <ele>4.850</ele>
        <time>2018-08-28T14:44:56.270Z</time>
      </trkpt>
      <trkpt lat="47.7841491" lon="-1.8474039">
        <ele>4.482</ele>
        <time>2018-08-28T14:44:59.352Z</time>
      </trkpt>
      <trkpt lat="47.7842359" lon="-1.8474441">
        <ele>4.097</ele>
        <time>2018-08-28T14:45:02.196Z</time>
      </trkpt>
      <trkpt lat="47.7843344" lon="-1.8474737">
        <ele>3.938</ele>
        <time>2018-08-28T14:45:05.270Z</time>
      </trkpt>
      <trkpt lat="47.7844349" lon="-1.8475216">
        <ele>3.817</ele>
        <time>2018-08-28T14:45:08.558Z</time>
      </trkpt>
      <trkpt lat="47.7845310" lon="-1.8475785">
        <ele>3.511</ele>
        <time>2018-08-28T14:45:11.929Z</time>
      </trkpt>
      <trkpt lat="47.7846141" lon="-1.8476341">
        <ele>3.063</ele>
        <time>2018-08-28T14:45:15.099Z</time>
      </trkpt>
      <trkpt lat="47.7847139" lon="-1.8476888">
        <ele>2.618</ele>
        <time>2018-08-28T14:45:18.887Z</time>
      </trkpt>
      <trkpt lat="47.7848227" lon="-1.8477312">
        <ele>2.284</ele>
        <time>2018-08-28T14:45:22.857Z</time>
      </trkpt>
      <trkpt lat="47.7849326" lon="-1.8477807">
        <ele>2.134</ele>
        <time>2018-08-28T14:45:26.810Z</time>
      </trkpt>
      <trkpt lat="47.7850274" lon="-1.8478084">
        <ele>2.119</ele>
        <time>2018-08-28T14:45:30.213Z</time>
      </trkpt>
      <trkpt lat="47.7851430" lon="-1.8478376">
        <ele>2.040</ele>
        <time>2018-08-28T14:45:34.482Z</time>
      </trkpt>
      <trkpt lat="47.7852377" lon="-1.8478679">
        <ele>1.774</ele>
        <time>2018-08-28T14:45:38.063Z</time>
      </trkpt>
      <trkpt lat="47.7853545" lon="-1.8478733">
        <ele>1.466</ele>
        <time>2018-08-28T14:45:42.262Z</time>
      </trkpt>
      <trkpt lat="47.7854716" lon="-1.8478687">
        <ele>1.268</ele>
        <time>2018-08-28T14:45:46.353Z</time>
      </trkpt>
      <trkpt lat="47.7855683" lon="-1.8478506">
        <ele>1.124</ele>
        <time>2018-08-28T14:45:49.814Z</time>
      </trkpt>
      <trkpt lat="47.7856643" lon="-1.8478210">
        <ele>0.984</ele>
        <time>2018-08-28T14:45:53.382Z</time>
      </trkpt>
      <trkpt lat="47.7857607" lon="-1.8477687">
        <ele>0.882</ele>
        <time>2018-08-28T14:45:57.151Z</time>
      </trkpt>
      <trkpt lat="47.7858720" lon="-1.8477313">
        <ele>0.813</ele>
        <time>2018-08-28T14:46:01.412Z</time>
      </trkpt>
      <trkpt lat="47.7859727" lon="-1.8477072">
        <ele>0.728</ele>
        <time>2018-08-28T14:46:05.208Z</time>
      </trkpt>
      <trkpt lat="47.7860679" lon="-1.8476326">
        <ele>0.598</ele>
        <time>2018-08-28T14:46:09.188Z</time>
      </trkpt>
      <trkpt lat="47.7861494" lon="-1.8475642">
        <ele>0.460</ele>
        <time>2018-08-28T14:46:12.652Z</time>
      </trkpt>
      <trkpt lat="47.7862355" lon="-1.8474765">
        <ele>0.389</ele>
        <time>2018-08-28T14:46:16.526Z</time>
      </trkpt>
      <trkpt lat="47.7863349" lon="-1.8473891">
        <ele>0.386</ele>
        <time>2018-08-28T14:46:20.797Z</time>
      </trkpt>
      <trkpt lat="47.7864279" lon="-1.8473052">
        <ele>0.343</ele>
        <time>2018-08-28T14:46:24.745Z</time>
      </trkpt>
      <trkpt lat="47.7865252" lon="-1.8472107">
        <ele>0.173</ele>
        <time>2018-08-28T14:46:28.930Z</time>
      </trkpt>
      <trkpt lat="47.7865985" lon="-1.8471271">
        <ele>0.000</ele>
        <time>2018-08-28T14:46:32.210Z</time>
      </trkpt>
      <trkpt lat="47.7866887" lon="-1.8470229">
        <ele>0.000</ele>
        <time>2018-08-28T14:46:36.133Z</time>
      </trkpt>
      <trkpt lat="47.7867835" lon="-1.8469105">
        <ele>0.000</ele>
        <time>2018-08-28T14:46:40.188Z</time>
      </trkpt>
      <trkpt lat="47.7868494" lon="-1.8468096">
        <ele>0.069</ele>
        <time>2018-08-28T14:46:43.244Z</time>
      </trkpt>
      <trkpt lat="47.7869153" lon="-1.8467133">
        <ele>0.719</ele>
        <time>2018-08-28T14:46:46.116Z</time>
      </trkpt>
      <trkpt lat="47.7869790" lon="-1.8466074">
        <ele>1.601</ele>
        <time>2018-08-28T14:46:49.025Z</time>
      </trkpt>
      <trkpt lat="47.7870486" lon="-1.8465012">
        <ele>2.436</ele>
        <time>2018-08-28T14:46:52.063Z</time>
      </trkpt>
      <trkpt lat="47.7871194" lon="-1.8463900">
        <ele>3.105</ele>
        <time>2018-08-28T14:46:55.236Z</time>
      </trkpt>
      <trkpt lat="47.7871889" lon="-1.8462842">
        <ele>3.700</ele>
        <time>2018-08-28T14:46:58.334Z</time>
      </trkpt>
      <trkpt lat="47.7872550" lon="-1.8461740">
        <ele>4.234</ele>
        <time>2018-08-28T14:47:01.454Z</time>
      </trkpt>
      <trkpt lat="47.7873193" lon="-1.8460693">
        <ele>4.567</ele>
        <time>2018-08-28T14:47:04.505Z</time>
      </trkpt>
      <trkpt lat="47.7873850" lon="-1.8459579">
        <ele>4.682</ele>
        <time>2018-08-28T14:47:07.740Z</time>
      </trkpt>
      <trkpt lat="47.7874442" lon="-1.8458513">
        <ele>4.756</ele>
        <time>2018-08-28T14:47:10.740Z</time>
      </trkpt>
      <trkpt lat="47.7875006" lon="-1.8457408">
        <ele>4.948</ele>
        <time>2018-08-28T14:47:13.742Z</time>
      </trkpt>
      <trkpt lat="47.7875608" lon="-1.8456357">
        <ele>5.184</ele>
        <time>2018-08-28T14:47:16.751Z</time>
      </trkpt>
      <trkpt lat="47.7876274" lon="-1.8455191">
        <ele>5.300</ele>
        <time>2018-08-28T14:47:20.149Z</time>
      </trkpt>
      <trkpt lat="47.7876811" lon="-1.8453980">
        <ele>5.277</ele>
        <time>2018-08-28T14:47:23.484Z</time>
      </trkpt>
      <trkpt lat="47.7877298" lon="-1.8452775">
        <ele>5.201</ele>
        <time>2018-08-28T14:47:26.890Z</time>
      </trkpt>
      <trkpt lat="47.7877988" lon="-1.8451819">
        <ele>5.088</ele>
        <time>2018-08-28T14:47:30.403Z</time>
      </trkpt>
      <trkpt lat="47.7878772" lon="-1.8450685">
        <ele>4.880</ele>
        <time>2018-08-28T14:47:34.331Z</time>
      </trkpt>
      <trkpt lat="47.7879577" lon="-1.8449680">
        <ele>4.542</ele>
        <time>2018-08-28T14:47:37.728Z</time>
      </trkpt>
      <trkpt lat="47.7880382" lon="-1.8448571">
        <ele>4.113</ele>
        <time>2018-08-28T14:47:41.058Z</time>
      </trkpt>
      <trkpt lat="47.7881068" lon="-1.8447283">
        <ele>3.699</ele>
        <time>2018-08-28T14:47:44.364Z</time>
      </trkpt>
      <trkpt lat="47.7881846" lon="-1.8446032">
        <ele>3.401</ele>
        <time>2018-08-28T14:47:47.816Z</time>
      </trkpt>
      <trkpt lat="47.7882647" lon="-1.8445034">
        <ele>3.345</ele>
        <time>2018-08-28T14:47:51.045Z</time>
      </trkpt>
      <trkpt lat="47.7883367" lon="-1.8443937">
        <ele>3.601</ele>
        <time>2018-08-28T14:47:54.351Z</time>
      </trkpt>
      <trkpt lat="47.7884079" lon="-1.8442842">
        <ele>4.045</ele>
        <time>2018-08-28T14:47:57.778Z</time>
      </trkpt>
      <trkpt lat="47.7884687" lon="-1.8441844">
        <ele>4.472</ele>
        <time>2018-08-28T14:48:00.936Z</time>
      </trkpt>
      <trkpt lat="47.7885474" lon="-1.8441160">
        <ele>4.713</ele>
        <time>2018-08-28T14:48:04.223Z</time>
      </trkpt>
      <trkpt lat="47.7886302" lon="-1.8440635">
        <ele>4.624</ele>
        <time>2018-08-28T14:48:07.526Z</time>
      </trkpt>
      <trkpt lat="47.7887353" lon="-1.8439982">
        <ele>4.268</ele>
        <time>2018-08-28T14:48:11.605Z</time>
      </trkpt>
      <trkpt lat="47.7888326" lon="-1.8439272">
        <ele>3.964</ele>
        <time>2018-08-28T14:48:15.378Z</time>
      </trkpt>
      <trkpt lat="47.7889313" lon="-1.8438376">
        <ele>3.936</ele>
        <time>2018-08-28T14:48:19.356Z</time>
      </trkpt>
      <trkpt lat="47.7890072" lon="-1.8437603">
        <ele>4.058</ele>
        <time>2018-08-28T14:48:22.556Z</time>
      </trkpt>
      <trkpt lat="47.7890851" lon="-1.8436889">
        <ele>4.127</ele>
        <time>2018-08-28T14:48:25.854Z</time>
      </trkpt>
      <trkpt lat="47.7891854" lon="-1.8435929">
        <ele>4.095</ele>
        <time>2018-08-28T14:48:30.413Z</time>
      </trkpt>
      <trkpt lat="47.7892621" lon="-1.8435162">
        <ele>4.074</ele>
        <time>2018-08-28T14:48:36.040Z</time>
      </trkpt>
      <trkpt lat="47.7893499" lon="-1.8434331">
        <ele>4.145</ele>
        <time>2018-08-28T14:48:44.111Z</time>
      </trkpt>
      <trkpt lat="47.7894356" lon="-1.8433559">
        <ele>4.219</ele>
        <time>2018-08-28T14:48:51.875Z</time>
      </trkpt>
      <trkpt lat="47.7895153" lon="-1.8432844">
        <ele>4.070</ele>
        <time>2018-08-28T14:48:59.089Z</time>
      </trkpt>
      <trkpt lat="47.7895995" lon="-1.8431988">
        <ele>3.618</ele>
        <time>2018-08-28T14:49:07.000Z</time>
      </trkpt>
      <trkpt lat="47.7895995" lon="-1.8431988">
        <ele>3.107</ele>
        <time>2018-08-28T14:49:12.000Z</time>
      </trkpt>
      <trkpt lat="47.7895995" lon="-1.8431988">
        <ele>2.848</ele>
        <time>2018-08-28T14:49:24.000Z</time>
      </trkpt>
      <trkpt lat="47.7895995" lon="-1.8431988">
        <ele>2.871</ele>
        <time>2018-08-28T14:49:36.452Z</time>
      </trkpt>
      <trkpt lat="47.7896563" lon="-1.8433031">
        <ele>2.964</ele>
        <time>2018-08-28T14:49:48.000Z</time>
      </trkpt>
      <trkpt lat="47.7896563" lon="-1.8433031">
        <ele>2.900</ele>
        <time>2018-08-28T14:49:56.000Z</time>
      </trkpt>
      <trkpt lat="47.7896400" lon="-1.8432590">
        <ele>2.988</ele>
        <time>2018-08-28T15:28:46.000Z</time>
      </trkpt>
      <trkpt lat="47.7896400" lon="-1.8432590">
        <ele>2.988</ele>
        <time>2018-08-28T15:29:42.862Z</time>
      </trkpt>
      <trkpt lat="47.7896400" lon="-1.8432590">
        <ele>2.986</ele>
        <time>2018-08-28T15:30:01.000Z</time>
      </trkpt>
      <trkpt lat="47.7896400" lon="-1.8432590">
        <ele>2.985</ele>
        <time>2018-08-28T15:30:01.100Z</time>
      </trkpt>
      <trkpt lat="47.7896400" lon="-1.8432590">
        <ele>2.983</ele>
        <time>2018-08-28T15:30:04.000Z</time>
      </trkpt>
      <trkpt lat="47.7896400" lon="-1.8432590">
        <ele>2.982</ele>
        <time>2018-08-28T15:30:16.000Z</time>
      </trkpt>
      <trkpt lat="47.7896400" lon="-1.8432590">
        <ele>2.981</ele>
        <time>2018-08-28T15:30:30.322Z</time>
      </trkpt>
      <trkpt lat="47.7897263" lon="-1.8430855">
        <ele>2.980</ele>
        <time>2018-08-28T15:30:44.150Z</time>
      </trkpt>
      <trkpt lat="47.7898098" lon="-1.8429715">
        <ele>2.294</ele>
        <time>2018-08-28T15:30:50.000Z</time>
      </trkpt>
      <trkpt lat="47.7899046" lon="-1.8428864">
        <ele>0.509</ele>
        <time>2018-08-28T15:30:55.288Z</time>
      </trkpt>
      <trkpt lat="47.7899991" lon="-1.8428213">
        <ele>0.000</ele>
        <time>2018-08-28T15:31:00.175Z</time>
      </trkpt>
      <trkpt lat="47.7900723" lon="-1.8427433">
        <ele>0.000</ele>
        <time>2018-08-28T15:31:04.216Z</time>
      </trkpt>
      <trkpt lat="47.7901586" lon="-1.8426710">
        <ele>0.000</ele>
        <time>2018-08-28T15:31:08.416Z</time>
      </trkpt>
      <trkpt lat="47.7902478" lon="-1.8426088">
        <ele>0.000</ele>
        <time>2018-08-28T15:31:12.424Z</time>
      </trkpt>
      <trkpt lat="47.7903408" lon="-1.8425492">
        <ele>0.000</ele>
        <time>2018-08-28T15:31:16.450Z</time>
      </trkpt>
      <trkpt lat="47.7904330" lon="-1.8424857">
        <ele>0.000</ele>
        <time>2018-08-28T15:31:20.498Z</time>
      </trkpt>
      <trkpt lat="47.7905188" lon="-1.8424411">
        <ele>0.000</ele>
        <time>2018-08-28T15:31:24.197Z</time>
      </trkpt>
      <trkpt lat="47.7906060" lon="-1.8423782">
        <ele>0.000</ele>
        <time>2018-08-28T15:31:28.133Z</time>
      </trkpt>
      <trkpt lat="47.7906935" lon="-1.8422855">
        <ele>0.000</ele>
        <time>2018-08-28T15:31:32.261Z</time>
      </trkpt>
      <trkpt lat="47.7907876" lon="-1.8421789">
        <ele>0.000</ele>
        <time>2018-08-28T15:31:36.395Z</time>
      </trkpt>
      <trkpt lat="47.7908630" lon="-1.8420836">
        <ele>0.000</ele>
        <time>2018-08-28T15:31:39.663Z</time>
      </trkpt>
      <trkpt lat="47.7909329" lon="-1.8419824">
        <ele>0.000</ele>
        <time>2018-08-28T15:31:42.854Z</time>
      </trkpt>
      <trkpt lat="47.7910236" lon="-1.8418691">
        <ele>0.000</ele>
        <time>2018-08-28T15:31:46.819Z</time>
      </trkpt>
      <trkpt lat="47.7911068" lon="-1.8417660">
        <ele>0.000</ele>
        <time>2018-08-28T15:31:50.550Z</time>
      </trkpt>
      <trkpt lat="47.7911979" lon="-1.8416581">
        <ele>0.000</ele>
        <time>2018-08-28T15:31:54.577Z</time>
      </trkpt>
      <trkpt lat="47.7912910" lon="-1.8415575">
        <ele>0.000</ele>
        <time>2018-08-28T15:31:58.509Z</time>
      </trkpt>
      <trkpt lat="47.7913924" lon="-1.8414624">
        <ele>0.000</ele>
        <time>2018-08-28T15:32:02.440Z</time>
      </trkpt>
      <trkpt lat="47.7914782" lon="-1.8413854">
        <ele>0.389</ele>
        <time>2018-08-28T15:32:05.572Z</time>
      </trkpt>
      <trkpt lat="47.7915711" lon="-1.8413143">
        <ele>0.930</ele>
        <time>2018-08-28T15:32:08.751Z</time>
      </trkpt>
      <trkpt lat="47.7916602" lon="-1.8412510">
        <ele>1.168</ele>
        <time>2018-08-28T15:32:11.727Z</time>
      </trkpt>
      <trkpt lat="47.7917496" lon="-1.8411961">
        <ele>1.208</ele>
        <time>2018-08-28T15:32:14.707Z</time>
      </trkpt>
      <trkpt lat="47.7918420" lon="-1.8411310">
        <ele>1.226</ele>
        <time>2018-08-28T15:32:17.983Z</time>
      </trkpt>
      <trkpt lat="47.7919414" lon="-1.8410821">
        <ele>1.330</ele>
        <time>2018-08-28T15:32:21.498Z</time>
      </trkpt>
      <trkpt lat="47.7920581" lon="-1.8410388">
        <ele>1.387</ele>
        <time>2018-08-28T15:32:25.413Z</time>
      </trkpt>
      <trkpt lat="47.7921576" lon="-1.8409836">
        <ele>1.248</ele>
        <time>2018-08-28T15:32:28.710Z</time>
      </trkpt>
      <trkpt lat="47.7922476" lon="-1.8409411">
        <ele>1.016</ele>
        <time>2018-08-28T15:32:31.579Z</time>
      </trkpt>
      <trkpt lat="47.7923476" lon="-1.8409077">
        <ele>0.921</ele>
        <time>2018-08-28T15:32:34.661Z</time>
      </trkpt>
      <trkpt lat="47.7924472" lon="-1.8408709">
        <ele>1.059</ele>
        <time>2018-08-28T15:32:37.739Z</time>
      </trkpt>
      <trkpt lat="47.7925465" lon="-1.8408335">
        <ele>1.310</ele>
        <time>2018-08-28T15:32:40.846Z</time>
      </trkpt>
      <trkpt lat="47.7926437" lon="-1.8407913">
        <ele>1.527</ele>
        <time>2018-08-28T15:32:43.919Z</time>
      </trkpt>
      <trkpt lat="47.7927387" lon="-1.8407493">
        <ele>1.683</ele>
        <time>2018-08-28T15:32:46.936Z</time>
      </trkpt>
      <trkpt lat="47.7928425" lon="-1.8406967">
        <ele>1.755</ele>
        <time>2018-08-28T15:32:50.396Z</time>
      </trkpt>
      <trkpt lat="47.7929541" lon="-1.8406579">
        <ele>1.720</ele>
        <time>2018-08-28T15:32:54.239Z</time>
      </trkpt>
      <trkpt lat="47.7930492" lon="-1.8406136">
        <ele>1.636</ele>
        <time>2018-08-28T15:32:57.568Z</time>
      </trkpt>
      <trkpt lat="47.7931422" lon="-1.8405616">
        <ele>1.592</ele>
        <time>2018-08-28T15:33:00.619Z</time>
      </trkpt>
      <trkpt lat="47.7932521" lon="-1.8404910">
        <ele>1.662</ele>
        <time>2018-08-28T15:33:04.028Z</time>
      </trkpt>
      <trkpt lat="47.7933609" lon="-1.8404127">
        <ele>1.842</ele>
        <time>2018-08-28T15:33:07.287Z</time>
      </trkpt>
      <trkpt lat="47.7934659" lon="-1.8403486">
        <ele>2.044</ele>
        <time>2018-08-28T15:33:10.263Z</time>
      </trkpt>
      <trkpt lat="47.7935824" lon="-1.8402898">
        <ele>2.288</ele>
        <time>2018-08-28T15:33:13.509Z</time>
      </trkpt>
      <trkpt lat="47.7936848" lon="-1.8402484">
        <ele>2.665</ele>
        <time>2018-08-28T15:33:16.316Z</time>
      </trkpt>
      <trkpt lat="47.7937987" lon="-1.8402203">
        <ele>3.072</ele>
        <time>2018-08-28T15:33:19.369Z</time>
      </trkpt>
      <trkpt lat="47.7939175" lon="-1.8401976">
        <ele>3.303</ele>
        <time>2018-08-28T15:33:22.586Z</time>
      </trkpt>
      <trkpt lat="47.7940236" lon="-1.8401725">
        <ele>3.131</ele>
        <time>2018-08-28T15:33:25.555Z</time>
      </trkpt>
      <trkpt lat="47.7941308" lon="-1.8401549">
        <ele>2.464</ele>
        <time>2018-08-28T15:33:28.655Z</time>
      </trkpt>
      <trkpt lat="47.7942327" lon="-1.8401542">
        <ele>1.611</ele>
        <time>2018-08-28T15:33:31.659Z</time>
      </trkpt>
      <trkpt lat="47.7943285" lon="-1.8401660">
        <ele>0.910</ele>
        <time>2018-08-28T15:33:34.514Z</time>
      </trkpt>
      <trkpt lat="47.7944320" lon="-1.8401676">
        <ele>0.410</ele>
        <time>2018-08-28T15:33:37.597Z</time>
      </trkpt>
      <trkpt lat="47.7945321" lon="-1.8401871">
        <ele>0.086</ele>
        <time>2018-08-28T15:33:40.638Z</time>
      </trkpt>
      <trkpt lat="47.7946371" lon="-1.8402042">
        <ele>0.000</ele>
        <time>2018-08-28T15:33:43.850Z</time>
      </trkpt>
      <trkpt lat="47.7947322" lon="-1.8402252">
        <ele>0.000</ele>
        <time>2018-08-28T15:33:46.744Z</time>
      </trkpt>
      <trkpt lat="47.7948340" lon="-1.8402513">
        <ele>0.000</ele>
        <time>2018-08-28T15:33:49.799Z</time>
      </trkpt>
      <trkpt lat="47.7949341" lon="-1.8402788">
        <ele>0.000</ele>
        <time>2018-08-28T15:33:52.767Z</time>
      </trkpt>
      <trkpt lat="47.7950367" lon="-1.8403087">
        <ele>0.000</ele>
        <time>2018-08-28T15:33:55.789Z</time>
      </trkpt>
      <trkpt lat="47.7951335" lon="-1.8403395">
        <ele>0.000</ele>
        <time>2018-08-28T15:33:58.592Z</time>
      </trkpt>
      <trkpt lat="47.7952395" lon="-1.8403697">
        <ele>0.000</ele>
        <time>2018-08-28T15:34:01.603Z</time>
      </trkpt>
      <trkpt lat="47.7953466" lon="-1.8404089">
        <ele>0.000</ele>
        <time>2018-08-28T15:34:04.692Z</time>
      </trkpt>
      <trkpt lat="47.7954485" lon="-1.8404461">
        <ele>0.000</ele>
        <time>2018-08-28T15:34:07.702Z</time>
      </trkpt>
      <trkpt lat="47.7955479" lon="-1.8404688">
        <ele>0.000</ele>
        <time>2018-08-28T15:34:10.661Z</time>
      </trkpt>
      <trkpt lat="47.7956420" lon="-1.8404980">
        <ele>0.143</ele>
        <time>2018-08-28T15:34:13.536Z</time>
      </trkpt>
      <trkpt lat="47.7957364" lon="-1.8405525">
        <ele>1.107</ele>
        <time>2018-08-28T15:34:16.574Z</time>
      </trkpt>
      <trkpt lat="47.7958304" lon="-1.8406031">
        <ele>1.878</ele>
        <time>2018-08-28T15:34:19.561Z</time>
      </trkpt>
      <trkpt lat="47.7959332" lon="-1.8406479">
        <ele>2.208</ele>
        <time>2018-08-28T15:34:22.763Z</time>
      </trkpt>
      <trkpt lat="47.7960286" lon="-1.8407017">
        <ele>2.066</ele>
        <time>2018-08-28T15:34:25.806Z</time>
      </trkpt>
      <trkpt lat="47.7961188" lon="-1.8407669">
        <ele>1.615</ele>
        <time>2018-08-28T15:34:28.750Z</time>
      </trkpt>
      <trkpt lat="47.7962109" lon="-1.8408382">
        <ele>1.165</ele>
        <time>2018-08-28T15:34:31.785Z</time>
      </trkpt>
      <trkpt lat="47.7963062" lon="-1.8409016">
        <ele>0.875</ele>
        <time>2018-08-28T15:34:34.876Z</time>
      </trkpt>
      <trkpt lat="47.7963978" lon="-1.8409607">
        <ele>0.703</ele>
        <time>2018-08-28T15:34:37.933Z</time>
      </trkpt>
      <trkpt lat="47.7964797" lon="-1.8410242">
        <ele>0.629</ele>
        <time>2018-08-28T15:34:40.817Z</time>
      </trkpt>
      <trkpt lat="47.7965631" lon="-1.8410812">
        <ele>0.698</ele>
        <time>2018-08-28T15:34:43.662Z</time>
      </trkpt>
      <trkpt lat="47.7966502" lon="-1.8411507">
        <ele>0.953</ele>
        <time>2018-08-28T15:34:46.637Z</time>
      </trkpt>
      <trkpt lat="47.7967335" lon="-1.8412380">
        <ele>1.382</ele>
        <time>2018-08-28T15:34:49.595Z</time>
      </trkpt>
      <trkpt lat="47.7968317" lon="-1.8413142">
        <ele>1.855</ele>
        <time>2018-08-28T15:34:52.765Z</time>
      </trkpt>
      <trkpt lat="47.7969228" lon="-1.8413899">
        <ele>2.178</ele>
        <time>2018-08-28T15:34:55.745Z</time>
      </trkpt>
      <trkpt lat="47.7970053" lon="-1.8414819">
        <ele>2.353</ele>
        <time>2018-08-28T15:34:58.688Z</time>
      </trkpt>
      <trkpt lat="47.7970891" lon="-1.8415714">
        <ele>2.551</ele>
        <time>2018-08-28T15:35:01.638Z</time>
      </trkpt>
      <trkpt lat="47.7971762" lon="-1.8416526">
        <ele>2.855</ele>
        <time>2018-08-28T15:35:04.602Z</time>
      </trkpt>
      <trkpt lat="47.7972643" lon="-1.8417350">
        <ele>3.210</ele>
        <time>2018-08-28T15:35:07.649Z</time>
      </trkpt>
      <trkpt lat="47.7973464" lon="-1.8418184">
        <ele>3.489</ele>
        <time>2018-08-28T15:35:10.594Z</time>
      </trkpt>
      <trkpt lat="47.7974200" lon="-1.8419082">
        <ele>3.645</ele>
        <time>2018-08-28T15:35:13.425Z</time>
      </trkpt>
      <trkpt lat="47.7975100" lon="-1.8419875">
        <ele>3.747</ele>
        <time>2018-08-28T15:35:16.580Z</time>
      </trkpt>
      <trkpt lat="47.7975917" lon="-1.8420635">
        <ele>3.788</ele>
        <time>2018-08-28T15:35:19.549Z</time>
      </trkpt>
      <trkpt lat="47.7976702" lon="-1.8421382">
        <ele>3.744</ele>
        <time>2018-08-28T15:35:22.433Z</time>
      </trkpt>
      <trkpt lat="47.7977448" lon="-1.8422208">
        <ele>3.697</ele>
        <time>2018-08-28T15:35:25.281Z</time>
      </trkpt>
      <trkpt lat="47.7978323" lon="-1.8422989">
        <ele>3.720</ele>
        <time>2018-08-28T15:35:28.379Z</time>
      </trkpt>
      <trkpt lat="47.7979197" lon="-1.8423711">
        <ele>3.775</ele>
        <time>2018-08-28T15:35:31.402Z</time>
      </trkpt>
      <trkpt lat="47.7980042" lon="-1.8424368">
        <ele>3.842</ele>
        <time>2018-08-28T15:35:34.260Z</time>
      </trkpt>
      <trkpt lat="47.7980910" lon="-1.8425081">
        <ele>3.977</ele>
        <time>2018-08-28T15:35:37.184Z</time>
      </trkpt>
      <trkpt lat="47.7981782" lon="-1.8425898">
        <ele>4.163</ele>
        <time>2018-08-28T15:35:40.119Z</time>
      </trkpt>
      <trkpt lat="47.7982741" lon="-1.8426604">
        <ele>4.347</ele>
        <time>2018-08-28T15:35:43.083Z</time>
      </trkpt>
      <trkpt lat="47.7983768" lon="-1.8427323">
        <ele>4.509</ele>
        <time>2018-08-28T15:35:46.236Z</time>
      </trkpt>
      <trkpt lat="47.7984654" lon="-1.8428097">
        <ele>4.641</ele>
        <time>2018-08-28T15:35:49.183Z</time>
      </trkpt>
      <trkpt lat="47.7985384" lon="-1.8429067">
        <ele>4.709</ele>
        <time>2018-08-28T15:35:52.089Z</time>
      </trkpt>
      <trkpt lat="47.7986109" lon="-1.8429992">
        <ele>4.700</ele>
        <time>2018-08-28T15:35:54.994Z</time>
      </trkpt>
      <trkpt lat="47.7987010" lon="-1.8430539">
        <ele>4.651</ele>
        <time>2018-08-28T15:35:57.984Z</time>
      </trkpt>
      <trkpt lat="47.7987935" lon="-1.8431040">
        <ele>4.610</ele>
        <time>2018-08-28T15:36:01.023Z</time>
      </trkpt>
      <trkpt lat="47.7988849" lon="-1.8431539">
        <ele>4.581</ele>
        <time>2018-08-28T15:36:04.036Z</time>
      </trkpt>
      <trkpt lat="47.7989798" lon="-1.8431878">
        <ele>4.560</ele>
        <time>2018-08-28T15:36:07.098Z</time>
      </trkpt>
      <trkpt lat="47.7990729" lon="-1.8432202">
        <ele>4.548</ele>
        <time>2018-08-28T15:36:10.119Z</time>
      </trkpt>
      <trkpt lat="47.7991615" lon="-1.8432421">
        <ele>4.542</ele>
        <time>2018-08-28T15:36:12.941Z</time>
      </trkpt>
      <trkpt lat="47.7992511" lon="-1.8432829">
        <ele>4.578</ele>
        <time>2018-08-28T15:36:15.801Z</time>
      </trkpt>
      <trkpt lat="47.7993431" lon="-1.8433256">
        <ele>4.693</ele>
        <time>2018-08-28T15:36:18.635Z</time>
      </trkpt>
      <trkpt lat="47.7994557" lon="-1.8433615">
        <ele>4.853</ele>
        <time>2018-08-28T15:36:21.953Z</time>
      </trkpt>
      <trkpt lat="47.7995521" lon="-1.8434004">
        <ele>4.978</ele>
        <time>2018-08-28T15:36:24.844Z</time>
      </trkpt>
      <trkpt lat="47.7996493" lon="-1.8434346">
        <ele>5.025</ele>
        <time>2018-08-28T15:36:27.762Z</time>
      </trkpt>
      <trkpt lat="47.7997476" lon="-1.8434711">
        <ele>4.941</ele>
        <time>2018-08-28T15:36:30.735Z</time>
      </trkpt>
      <trkpt lat="47.7998472" lon="-1.8435027">
        <ele>4.653</ele>
        <time>2018-08-28T15:36:33.723Z</time>
      </trkpt>
      <trkpt lat="47.7999452" lon="-1.8435413">
        <ele>4.231</ele>
        <time>2018-08-28T15:36:36.679Z</time>
      </trkpt>
      <trkpt lat="47.8000439" lon="-1.8435799">
        <ele>3.808</ele>
        <time>2018-08-28T15:36:39.621Z</time>
      </trkpt>
      <trkpt lat="47.8001451" lon="-1.8436139">
        <ele>3.428</ele>
        <time>2018-08-28T15:36:42.570Z</time>
      </trkpt>
      <trkpt lat="47.8002541" lon="-1.8436491">
        <ele>3.137</ele>
        <time>2018-08-28T15:36:45.700Z</time>
      </trkpt>
      <trkpt lat="47.8003569" lon="-1.8436852">
        <ele>2.889</ele>
        <time>2018-08-28T15:36:48.657Z</time>
      </trkpt>
      <trkpt lat="47.8004603" lon="-1.8437219">
        <ele>2.578</ele>
        <time>2018-08-28T15:36:51.658Z</time>
      </trkpt>
      <trkpt lat="47.8005597" lon="-1.8437551">
        <ele>2.267</ele>
        <time>2018-08-28T15:36:54.582Z</time>
      </trkpt>
      <trkpt lat="47.8006562" lon="-1.8438008">
        <ele>2.065</ele>
        <time>2018-08-28T15:36:57.562Z</time>
      </trkpt>
      <trkpt lat="47.8007429" lon="-1.8438515">
        <ele>1.986</ele>
        <time>2018-08-28T15:37:00.360Z</time>
      </trkpt>
      <trkpt lat="47.8008321" lon="-1.8438972">
        <ele>1.900</ele>
        <time>2018-08-28T15:37:03.183Z</time>
      </trkpt>
      <trkpt lat="47.8009338" lon="-1.8439284">
        <ele>1.701</ele>
        <time>2018-08-28T15:37:06.227Z</time>
      </trkpt>
      <trkpt lat="47.8010375" lon="-1.8439630">
        <ele>1.570</ele>
        <time>2018-08-28T15:37:09.293Z</time>
      </trkpt>
      <trkpt lat="47.8011430" lon="-1.8439907">
        <ele>1.681</ele>
        <time>2018-08-28T15:37:12.357Z</time>
      </trkpt>
      <trkpt lat="47.8012428" lon="-1.8440405">
        <ele>1.899</ele>
        <time>2018-08-28T15:37:15.334Z</time>
      </trkpt>
      <trkpt lat="47.8013436" lon="-1.8441034">
        <ele>2.050</ele>
        <time>2018-08-28T15:37:18.376Z</time>
      </trkpt>
      <trkpt lat="47.8014486" lon="-1.8441637">
        <ele>2.128</ele>
        <time>2018-08-28T15:37:21.485Z</time>
      </trkpt>
      <trkpt lat="47.8015491" lon="-1.8442166">
        <ele>2.182</ele>
        <time>2018-08-28T15:37:24.429Z</time>
      </trkpt>
      <trkpt lat="47.8016538" lon="-1.8442760">
        <ele>2.262</ele>
        <time>2018-08-28T15:37:27.551Z</time>
      </trkpt>
      <trkpt lat="47.8017476" lon="-1.8443372">
        <ele>2.375</ele>
        <time>2018-08-28T15:37:30.429Z</time>
      </trkpt>
      <trkpt lat="47.8018412" lon="-1.8443961">
        <ele>2.399</ele>
        <time>2018-08-28T15:37:33.276Z</time>
      </trkpt>
      <trkpt lat="47.8019375" lon="-1.8444675">
        <ele>2.236</ele>
        <time>2018-08-28T15:37:36.263Z</time>
      </trkpt>
      <trkpt lat="47.8020328" lon="-1.8445402">
        <ele>1.967</ele>
        <time>2018-08-28T15:37:39.215Z</time>
      </trkpt>
      <trkpt lat="47.8021312" lon="-1.8446150">
        <ele>1.721</ele>
        <time>2018-08-28T15:37:42.256Z</time>
      </trkpt>
      <trkpt lat="47.8022276" lon="-1.8446866">
        <ele>1.597</ele>
        <time>2018-08-28T15:37:45.223Z</time>
      </trkpt>
      <trkpt lat="47.8023153" lon="-1.8447781">
        <ele>1.623</ele>
        <time>2018-08-28T15:37:48.172Z</time>
      </trkpt>
      <trkpt lat="47.8023984" lon="-1.8448909">
        <ele>1.707</ele>
        <time>2018-08-28T15:37:51.319Z</time>
      </trkpt>
      <trkpt lat="47.8024857" lon="-1.8449882">
        <ele>1.763</ele>
        <time>2018-08-28T15:37:54.492Z</time>
      </trkpt>
      <trkpt lat="47.8025614" lon="-1.8450638">
        <ele>1.758</ele>
        <time>2018-08-28T15:37:57.212Z</time>
      </trkpt>
      <trkpt lat="47.8026457" lon="-1.8451410">
        <ele>1.683</ele>
        <time>2018-08-28T15:38:00.162Z</time>
      </trkpt>
      <trkpt lat="47.8027344" lon="-1.8452163">
        <ele>1.579</ele>
        <time>2018-08-28T15:38:03.148Z</time>
      </trkpt>
      <trkpt lat="47.8028247" lon="-1.8452969">
        <ele>1.617</ele>
        <time>2018-08-28T15:38:06.175Z</time>
      </trkpt>
      <trkpt lat="47.8029142" lon="-1.8453639">
        <ele>1.889</ele>
        <time>2018-08-28T15:38:08.998Z</time>
      </trkpt>
      <trkpt lat="47.8030104" lon="-1.8454506">
        <ele>2.233</ele>
        <time>2018-08-28T15:38:12.103Z</time>
      </trkpt>
      <trkpt lat="47.8031064" lon="-1.8455342">
        <ele>2.500</ele>
        <time>2018-08-28T15:38:15.151Z</time>
      </trkpt>
      <trkpt lat="47.8031988" lon="-1.8456108">
        <ele>2.706</ele>
        <time>2018-08-28T15:38:18.031Z</time>
      </trkpt>
      <trkpt lat="47.8032999" lon="-1.8456841">
        <ele>2.874</ele>
        <time>2018-08-28T15:38:21.083Z</time>
      </trkpt>
      <trkpt lat="47.8034015" lon="-1.8457486">
        <ele>3.055</ele>
        <time>2018-08-28T15:38:24.126Z</time>
      </trkpt>
      <trkpt lat="47.8034924" lon="-1.8458067">
        <ele>3.414</ele>
        <time>2018-08-28T15:38:26.933Z</time>
      </trkpt>
      <trkpt lat="47.8035823" lon="-1.8458652">
        <ele>3.961</ele>
        <time>2018-08-28T15:38:29.790Z</time>
      </trkpt>
      <trkpt lat="47.8036707" lon="-1.8459299">
        <ele>4.423</ele>
        <time>2018-08-28T15:38:32.701Z</time>
      </trkpt>
      <trkpt lat="47.8037626" lon="-1.8459930">
        <ele>4.613</ele>
        <time>2018-08-28T15:38:35.721Z</time>
      </trkpt>
      <trkpt lat="47.8038547" lon="-1.8460461">
        <ele>4.722</ele>
        <time>2018-08-28T15:38:38.682Z</time>
      </trkpt>
      <trkpt lat="47.8039496" lon="-1.8460956">
        <ele>4.985</ele>
        <time>2018-08-28T15:38:41.710Z</time>
      </trkpt>
      <trkpt lat="47.8040471" lon="-1.8461164">
        <ele>5.348</ele>
        <time>2018-08-28T15:38:44.670Z</time>
      </trkpt>
      <trkpt lat="47.8041463" lon="-1.8461200">
        <ele>5.496</ele>
        <time>2018-08-28T15:38:47.587Z</time>
      </trkpt>
      <trkpt lat="47.8042516" lon="-1.8461223">
        <ele>5.238</ele>
        <time>2018-08-28T15:38:50.601Z</time>
      </trkpt>
      <trkpt lat="47.8043574" lon="-1.8461397">
        <ele>4.746</ele>
        <time>2018-08-28T15:38:53.630Z</time>
      </trkpt>
      <trkpt lat="47.8044538" lon="-1.8461733">
        <ele>4.214</ele>
        <time>2018-08-28T15:38:56.465Z</time>
      </trkpt>
      <trkpt lat="47.8045551" lon="-1.8461868">
        <ele>3.682</ele>
        <time>2018-08-28T15:38:59.422Z</time>
      </trkpt>
      <trkpt lat="47.8046507" lon="-1.8462049">
        <ele>3.196</ele>
        <time>2018-08-28T15:39:02.290Z</time>
      </trkpt>
      <trkpt lat="47.8047433" lon="-1.8462448">
        <ele>2.889</ele>
        <time>2018-08-28T15:39:05.226Z</time>
      </trkpt>
      <trkpt lat="47.8048371" lon="-1.8462837">
        <ele>2.843</ele>
        <time>2018-08-28T15:39:08.292Z</time>
      </trkpt>
      <trkpt lat="47.8049516" lon="-1.8463231">
        <ele>3.114</ele>
        <time>2018-08-28T15:39:12.174Z</time>
      </trkpt>
      <trkpt lat="47.8050634" lon="-1.8463425">
        <ele>3.612</ele>
        <time>2018-08-28T15:39:15.997Z</time>
      </trkpt>
      <trkpt lat="47.8051822" lon="-1.8463620">
        <ele>3.993</ele>
        <time>2018-08-28T15:39:20.004Z</time>
      </trkpt>
      <trkpt lat="47.8052751" lon="-1.8463868">
        <ele>3.939</ele>
        <time>2018-08-28T15:39:23.044Z</time>
      </trkpt>
      <trkpt lat="47.8053708" lon="-1.8464145">
        <ele>3.575</ele>
        <time>2018-08-28T15:39:26.104Z</time>
      </trkpt>
      <trkpt lat="47.8054688" lon="-1.8464398">
        <ele>3.219</ele>
        <time>2018-08-28T15:39:29.173Z</time>
      </trkpt>
      <trkpt lat="47.8055634" lon="-1.8464568">
        <ele>3.067</ele>
        <time>2018-08-28T15:39:32.088Z</time>
      </trkpt>
      <trkpt lat="47.8056615" lon="-1.8464677">
        <ele>3.100</ele>
        <time>2018-08-28T15:39:35.072Z</time>
      </trkpt>
      <trkpt lat="47.8057592" lon="-1.8464759">
        <ele>3.201</ele>
        <time>2018-08-28T15:39:37.998Z</time>
      </trkpt>
      <trkpt lat="47.8058650" lon="-1.8464816">
        <ele>3.299</ele>
        <time>2018-08-28T15:39:41.070Z</time>
      </trkpt>
      <trkpt lat="47.8059736" lon="-1.8464839">
        <ele>3.398</ele>
        <time>2018-08-28T15:39:44.124Z</time>
      </trkpt>
      <trkpt lat="47.8060860" lon="-1.8464861">
        <ele>3.492</ele>
        <time>2018-08-28T15:39:47.222Z</time>
      </trkpt>
      <trkpt lat="47.8061957" lon="-1.8464956">
        <ele>3.465</ele>
        <time>2018-08-28T15:39:50.200Z</time>
      </trkpt>
      <trkpt lat="47.8063094" lon="-1.8465012">
        <ele>3.258</ele>
        <time>2018-08-28T15:39:53.237Z</time>
      </trkpt>
      <trkpt lat="47.8064206" lon="-1.8465120">
        <ele>3.042</ele>
        <time>2018-08-28T15:39:56.214Z</time>
      </trkpt>
      <trkpt lat="47.8065292" lon="-1.8465286">
        <ele>2.974</ele>
        <time>2018-08-28T15:39:59.160Z</time>
      </trkpt>
      <trkpt lat="47.8066338" lon="-1.8465509">
        <ele>2.967</ele>
        <time>2018-08-28T15:40:02.055Z</time>
      </trkpt>
      <trkpt lat="47.8067386" lon="-1.8465722">
        <ele>2.905</ele>
        <time>2018-08-28T15:40:05.011Z</time>
      </trkpt>
      <trkpt lat="47.8068386" lon="-1.8466091">
        <ele>2.787</ele>
        <time>2018-08-28T15:40:07.958Z</time>
      </trkpt>
      <trkpt lat="47.8069353" lon="-1.8466416">
        <ele>2.670</ele>
        <time>2018-08-28T15:40:10.808Z</time>
      </trkpt>
      <trkpt lat="47.8070411" lon="-1.8466774">
        <ele>2.591</ele>
        <time>2018-08-28T15:40:13.920Z</time>
      </trkpt>
      <trkpt lat="47.8071439" lon="-1.8467060">
        <ele>2.604</ele>
        <time>2018-08-28T15:40:16.938Z</time>
      </trkpt>
      <trkpt lat="47.8072467" lon="-1.8467264">
        <ele>2.718</ele>
        <time>2018-08-28T15:40:19.969Z</time>
      </trkpt>
      <trkpt lat="47.8073426" lon="-1.8467644">
        <ele>2.872</ele>
        <time>2018-08-28T15:40:22.920Z</time>
      </trkpt>
      <trkpt lat="47.8074366" lon="-1.8467880">
        <ele>3.007</ele>
        <time>2018-08-28T15:40:25.818Z</time>
      </trkpt>
      <trkpt lat="47.8075287" lon="-1.8468015">
        <ele>3.095</ele>
        <time>2018-08-28T15:40:28.695Z</time>
      </trkpt>
      <trkpt lat="47.8076224" lon="-1.8468105">
        <ele>3.192</ele>
        <time>2018-08-28T15:40:31.661Z</time>
      </trkpt>
      <trkpt lat="47.8077123" lon="-1.8468332">
        <ele>3.370</ele>
        <time>2018-08-28T15:40:34.556Z</time>
      </trkpt>
      <trkpt lat="47.8078094" lon="-1.8468527">
        <ele>3.598</ele>
        <time>2018-08-28T15:40:37.599Z</time>
      </trkpt>
      <trkpt lat="47.8079123" lon="-1.8468805">
        <ele>3.802</ele>
        <time>2018-08-28T15:40:40.716Z</time>
      </trkpt>
      <trkpt lat="47.8080191" lon="-1.8469074">
        <ele>3.884</ele>
        <time>2018-08-28T15:40:43.837Z</time>
      </trkpt>
      <trkpt lat="47.8081199" lon="-1.8469350">
        <ele>3.797</ele>
        <time>2018-08-28T15:40:46.803Z</time>
      </trkpt>
      <trkpt lat="47.8082117" lon="-1.8469624">
        <ele>3.732</ele>
        <time>2018-08-28T15:40:49.562Z</time>
      </trkpt>
      <trkpt lat="47.8083144" lon="-1.8469914">
        <ele>3.964</ele>
        <time>2018-08-28T15:40:52.605Z</time>
      </trkpt>
      <trkpt lat="47.8084234" lon="-1.8470165">
        <ele>4.466</ele>
        <time>2018-08-28T15:40:55.728Z</time>
      </trkpt>
      <trkpt lat="47.8085307" lon="-1.8470463">
        <ele>4.996</ele>
        <time>2018-08-28T15:40:58.754Z</time>
      </trkpt>
      <trkpt lat="47.8086431" lon="-1.8470695">
        <ele>5.484</ele>
        <time>2018-08-28T15:41:01.834Z</time>
      </trkpt>
      <trkpt lat="47.8087543" lon="-1.8470908">
        <ele>5.931</ele>
        <time>2018-08-28T15:41:04.841Z</time>
      </trkpt>
      <trkpt lat="47.8088643" lon="-1.8471032">
        <ele>6.228</ele>
        <time>2018-08-28T15:41:07.814Z</time>
      </trkpt>
      <trkpt lat="47.8089687" lon="-1.8471061">
        <ele>6.419</ele>
        <time>2018-08-28T15:41:10.705Z</time>
      </trkpt>
      <trkpt lat="47.8090679" lon="-1.8471096">
        <ele>6.622</ele>
        <time>2018-08-28T15:41:13.539Z</time>
      </trkpt>
      <trkpt lat="47.8091685" lon="-1.8471043">
        <ele>6.668</ele>
        <time>2018-08-28T15:41:16.485Z</time>
      </trkpt>
      <trkpt lat="47.8092659" lon="-1.8470933">
        <ele>6.409</ele>
        <time>2018-08-28T15:41:19.404Z</time>
      </trkpt>
      <trkpt lat="47.8093604" lon="-1.8470790">
        <ele>6.165</ele>
        <time>2018-08-28T15:41:22.284Z</time>
      </trkpt>
      <trkpt lat="47.8094537" lon="-1.8470664">
        <ele>6.308</ele>
        <time>2018-08-28T15:41:25.153Z</time>
      </trkpt>
      <trkpt lat="47.8095504" lon="-1.8470560">
        <ele>6.737</ele>
        <time>2018-08-28T15:41:28.126Z</time>
      </trkpt>
      <trkpt lat="47.8096499" lon="-1.8470471">
        <ele>7.107</ele>
        <time>2018-08-28T15:41:31.152Z</time>
      </trkpt>
      <trkpt lat="47.8097530" lon="-1.8470324">
        <ele>7.132</ele>
        <time>2018-08-28T15:41:34.239Z</time>
      </trkpt>
      <trkpt lat="47.8098577" lon="-1.8470136">
        <ele>6.795</ele>
        <time>2018-08-28T15:41:37.330Z</time>
      </trkpt>
      <trkpt lat="47.8099548" lon="-1.8469836">
        <ele>6.384</ele>
        <time>2018-08-28T15:41:40.219Z</time>
      </trkpt>
      <trkpt lat="47.8100560" lon="-1.8469514">
        <ele>6.112</ele>
        <time>2018-08-28T15:41:43.208Z</time>
      </trkpt>
      <trkpt lat="47.8101640" lon="-1.8469167">
        <ele>5.915</ele>
        <time>2018-08-28T15:41:46.349Z</time>
      </trkpt>
      <trkpt lat="47.8102692" lon="-1.8468822">
        <ele>5.759</ele>
        <time>2018-08-28T15:41:49.402Z</time>
      </trkpt>
      <trkpt lat="47.8103659" lon="-1.8468526">
        <ele>5.682</ele>
        <time>2018-08-28T15:41:52.247Z</time>
      </trkpt>
      <trkpt lat="47.8104650" lon="-1.8468317">
        <ele>5.676</ele>
        <time>2018-08-28T15:41:55.172Z</time>
      </trkpt>
      <trkpt lat="47.8105628" lon="-1.8468082">
        <ele>5.634</ele>
        <time>2018-08-28T15:41:58.093Z</time>
      </trkpt>
      <trkpt lat="47.8106625" lon="-1.8467754">
        <ele>5.375</ele>
        <time>2018-08-28T15:42:01.097Z</time>
      </trkpt>
      <trkpt lat="47.8107638" lon="-1.8467277">
        <ele>4.827</ele>
        <time>2018-08-28T15:42:04.181Z</time>
      </trkpt>
      <trkpt lat="47.8108658" lon="-1.8466678">
        <ele>4.178</ele>
        <time>2018-08-28T15:42:07.312Z</time>
      </trkpt>
      <trkpt lat="47.8109631" lon="-1.8466109">
        <ele>3.682</ele>
        <time>2018-08-28T15:42:10.272Z</time>
      </trkpt>
      <trkpt lat="47.8110580" lon="-1.8465505">
        <ele>3.449</ele>
        <time>2018-08-28T15:42:13.194Z</time>
      </trkpt>
      <trkpt lat="47.8111535" lon="-1.8464830">
        <ele>3.321</ele>
        <time>2018-08-28T15:42:16.156Z</time>
      </trkpt>
      <trkpt lat="47.8112553" lon="-1.8464084">
        <ele>3.110</ele>
        <time>2018-08-28T15:42:19.259Z</time>
      </trkpt>
      <trkpt lat="47.8113575" lon="-1.8463417">
        <ele>2.872</ele>
        <time>2018-08-28T15:42:22.281Z</time>
      </trkpt>
      <trkpt lat="47.8114523" lon="-1.8462733">
        <ele>2.740</ele>
        <time>2018-08-28T15:42:25.152Z</time>
      </trkpt>
      <trkpt lat="47.8115474" lon="-1.8461939">
        <ele>2.716</ele>
        <time>2018-08-28T15:42:28.149Z</time>
      </trkpt>
      <trkpt lat="47.8116411" lon="-1.8461166">
        <ele>2.751</ele>
        <time>2018-08-28T15:42:31.109Z</time>
      </trkpt>
      <trkpt lat="47.8117368" lon="-1.8460413">
        <ele>2.824</ele>
        <time>2018-08-28T15:42:34.108Z</time>
      </trkpt>
      <trkpt lat="47.8118304" lon="-1.8459646">
        <ele>2.992</ele>
        <time>2018-08-28T15:42:37.076Z</time>
      </trkpt>
      <trkpt lat="47.8119207" lon="-1.8458800">
        <ele>3.248</ele>
        <time>2018-08-28T15:42:40.047Z</time>
      </trkpt>
      <trkpt lat="47.8120111" lon="-1.8457979">
        <ele>3.485</ele>
        <time>2018-08-28T15:42:42.977Z</time>
      </trkpt>
      <trkpt lat="47.8121015" lon="-1.8457045">
        <ele>3.663</ele>
        <time>2018-08-28T15:42:45.995Z</time>
      </trkpt>
      <trkpt lat="47.8121856" lon="-1.8456066">
        <ele>3.803</ele>
        <time>2018-08-28T15:42:48.935Z</time>
      </trkpt>
      <trkpt lat="47.8122732" lon="-1.8455266">
        <ele>3.885</ele>
        <time>2018-08-28T15:42:51.813Z</time>
      </trkpt>
      <trkpt lat="47.8123622" lon="-1.8454435">
        <ele>3.944</ele>
        <time>2018-08-28T15:42:54.788Z</time>
      </trkpt>
      <trkpt lat="47.8124482" lon="-1.8453490">
        <ele>4.004</ele>
        <time>2018-08-28T15:42:57.849Z</time>
      </trkpt>
      <trkpt lat="47.8125243" lon="-1.8452530">
        <ele>4.045</ele>
        <time>2018-08-28T15:43:00.725Z</time>
      </trkpt>
      <trkpt lat="47.8125993" lon="-1.8451396">
        <ele>4.054</ele>
        <time>2018-08-28T15:43:03.775Z</time>
      </trkpt>
      <trkpt lat="47.8126804" lon="-1.8450186">
        <ele>3.965</ele>
        <time>2018-08-28T15:43:06.967Z</time>
      </trkpt>
      <trkpt lat="47.8127673" lon="-1.8449135">
        <ele>3.758</ele>
        <time>2018-08-28T15:43:10.028Z</time>
      </trkpt>
      <trkpt lat="47.8128479" lon="-1.8448106">
        <ele>3.615</ele>
        <time>2018-08-28T15:43:12.951Z</time>
      </trkpt>
      <trkpt lat="47.8129303" lon="-1.8447167">
        <ele>3.666</ele>
        <time>2018-08-28T15:43:15.836Z</time>
      </trkpt>
      <trkpt lat="47.8130218" lon="-1.8446238">
        <ele>3.809</ele>
        <time>2018-08-28T15:43:18.900Z</time>
      </trkpt>
      <trkpt lat="47.8131170" lon="-1.8445366">
        <ele>3.861</ele>
        <time>2018-08-28T15:43:21.959Z</time>
      </trkpt>
      <trkpt lat="47.8132120" lon="-1.8444520">
        <ele>3.768</ele>
        <time>2018-08-28T15:43:24.951Z</time>
      </trkpt>
      <trkpt lat="47.8133086" lon="-1.8443552">
        <ele>3.684</ele>
        <time>2018-08-28T15:43:28.033Z</time>
      </trkpt>
      <trkpt lat="47.8134050" lon="-1.8442577">
        <ele>3.743</ele>
        <time>2018-08-28T15:43:31.062Z</time>
      </trkpt>
      <trkpt lat="47.8135034" lon="-1.8441641">
        <ele>3.692</ele>
        <time>2018-08-28T15:43:34.064Z</time>
      </trkpt>
      <trkpt lat="47.8135973" lon="-1.8440741">
        <ele>3.321</ele>
        <time>2018-08-28T15:43:36.965Z</time>
      </trkpt>
      <trkpt lat="47.8136892" lon="-1.8439916">
        <ele>2.939</ele>
        <time>2018-08-28T15:43:39.827Z</time>
      </trkpt>
      <trkpt lat="47.8137774" lon="-1.8439238">
        <ele>2.859</ele>
        <time>2018-08-28T15:43:42.592Z</time>
      </trkpt>
      <trkpt lat="47.8138523" lon="-1.8438449">
        <ele>2.969</ele>
        <time>2018-08-28T15:43:45.287Z</time>
      </trkpt>
      <trkpt lat="47.8139261" lon="-1.8437677">
        <ele>3.034</ele>
        <time>2018-08-28T15:43:48.109Z</time>
      </trkpt>
      <trkpt lat="47.8140177" lon="-1.8436693">
        <ele>2.966</ele>
        <time>2018-08-28T15:43:51.840Z</time>
      </trkpt>
      <trkpt lat="47.8140988" lon="-1.8435812">
        <ele>2.828</ele>
        <time>2018-08-28T15:43:55.173Z</time>
      </trkpt>
      <trkpt lat="47.8141770" lon="-1.8434859">
        <ele>2.594</ele>
        <time>2018-08-28T15:43:58.376Z</time>
      </trkpt>
      <trkpt lat="47.8142589" lon="-1.8434005">
        <ele>2.206</ele>
        <time>2018-08-28T15:44:01.443Z</time>
      </trkpt>
      <trkpt lat="47.8143400" lon="-1.8433225">
        <ele>1.820</ele>
        <time>2018-08-28T15:44:04.373Z</time>
      </trkpt>
      <trkpt lat="47.8144176" lon="-1.8432403">
        <ele>1.654</ele>
        <time>2018-08-28T15:44:07.298Z</time>
      </trkpt>
      <trkpt lat="47.8145019" lon="-1.8431239">
        <ele>1.712</ele>
        <time>2018-08-28T15:44:10.943Z</time>
      </trkpt>
      <trkpt lat="47.8145782" lon="-1.8429963">
        <ele>1.909</ele>
        <time>2018-08-28T15:44:14.761Z</time>
      </trkpt>
      <trkpt lat="47.8146563" lon="-1.8428627">
        <ele>2.177</ele>
        <time>2018-08-28T15:44:18.808Z</time>
      </trkpt>
      <trkpt lat="47.8147272" lon="-1.8427742">
        <ele>2.410</ele>
        <time>2018-08-28T15:44:21.926Z</time>
      </trkpt>
      <trkpt lat="47.8147984" lon="-1.8426887">
        <ele>2.520</ele>
        <time>2018-08-28T15:44:24.952Z</time>
      </trkpt>
      <trkpt lat="47.8148704" lon="-1.8425989">
        <ele>2.579</ele>
        <time>2018-08-28T15:44:28.003Z</time>
      </trkpt>
      <trkpt lat="47.8149440" lon="-1.8425133">
        <ele>2.810</ele>
        <time>2018-08-28T15:44:31.003Z</time>
      </trkpt>
      <trkpt lat="47.8150079" lon="-1.8424119">
        <ele>3.287</ele>
        <time>2018-08-28T15:44:33.991Z</time>
      </trkpt>
      <trkpt lat="47.8150677" lon="-1.8423028">
        <ele>3.734</ele>
        <time>2018-08-28T15:44:36.997Z</time>
      </trkpt>
      <trkpt lat="47.8151271" lon="-1.8421872">
        <ele>3.910</ele>
        <time>2018-08-28T15:44:40.069Z</time>
      </trkpt>
      <trkpt lat="47.8151912" lon="-1.8420747">
        <ele>3.881</ele>
        <time>2018-08-28T15:44:43.121Z</time>
      </trkpt>
      <trkpt lat="47.8152567" lon="-1.8419621">
        <ele>3.820</ele>
        <time>2018-08-28T15:44:46.150Z</time>
      </trkpt>
      <trkpt lat="47.8153148" lon="-1.8418390">
        <ele>3.826</ele>
        <time>2018-08-28T15:44:49.169Z</time>
      </trkpt>
      <trkpt lat="47.8153711" lon="-1.8417128">
        <ele>3.895</ele>
        <time>2018-08-28T15:44:52.174Z</time>
      </trkpt>
      <trkpt lat="47.8154288" lon="-1.8415826">
        <ele>4.095</ele>
        <time>2018-08-28T15:44:55.228Z</time>
      </trkpt>
      <trkpt lat="47.8154782" lon="-1.8414460">
        <ele>4.453</ele>
        <time>2018-08-28T15:44:58.224Z</time>
      </trkpt>
      <trkpt lat="47.8155157" lon="-1.8412928">
        <ele>4.782</ele>
        <time>2018-08-28T15:45:01.318Z</time>
      </trkpt>
      <trkpt lat="47.8155429" lon="-1.8411356">
        <ele>4.948</ele>
        <time>2018-08-28T15:45:04.361Z</time>
      </trkpt>
      <trkpt lat="47.8155618" lon="-1.8409795">
        <ele>5.011</ele>
        <time>2018-08-28T15:45:07.320Z</time>
      </trkpt>
      <trkpt lat="47.8155670" lon="-1.8408152">
        <ele>5.093</ele>
        <time>2018-08-28T15:45:10.379Z</time>
      </trkpt>
      <trkpt lat="47.8155643" lon="-1.8406555">
        <ele>5.212</ele>
        <time>2018-08-28T15:45:13.353Z</time>
      </trkpt>
      <trkpt lat="47.8155643" lon="-1.8404956">
        <ele>5.288</ele>
        <time>2018-08-28T15:45:16.342Z</time>
      </trkpt>
      <trkpt lat="47.8155671" lon="-1.8403399">
        <ele>5.290</ele>
        <time>2018-08-28T15:45:19.277Z</time>
      </trkpt>
      <trkpt lat="47.8155718" lon="-1.8401857">
        <ele>5.273</ele>
        <time>2018-08-28T15:45:22.189Z</time>
      </trkpt>
      <trkpt lat="47.8155708" lon="-1.8400189">
        <ele>5.290</ele>
        <time>2018-08-28T15:45:25.294Z</time>
      </trkpt>
      <trkpt lat="47.8155647" lon="-1.8398464">
        <ele>5.352</ele>
        <time>2018-08-28T15:45:28.445Z</time>
      </trkpt>
      <trkpt lat="47.8155429" lon="-1.8396834">
        <ele>5.330</ele>
        <time>2018-08-28T15:45:31.457Z</time>
      </trkpt>
      <trkpt lat="47.8155080" lon="-1.8395315">
        <ele>5.107</ele>
        <time>2018-08-28T15:45:34.383Z</time>
      </trkpt>
      <trkpt lat="47.8154726" lon="-1.8393817">
        <ele>4.776</ele>
        <time>2018-08-28T15:45:37.288Z</time>
      </trkpt>
      <trkpt lat="47.8154381" lon="-1.8392279">
        <ele>4.538</ele>
        <time>2018-08-28T15:45:40.256Z</time>
      </trkpt>
      <trkpt lat="47.8153975" lon="-1.8390803">
        <ele>4.453</ele>
        <time>2018-08-28T15:45:43.194Z</time>
      </trkpt>
      <trkpt lat="47.8153571" lon="-1.8389376">
        <ele>4.214</ele>
        <time>2018-08-28T15:45:46.089Z</time>
      </trkpt>
      <trkpt lat="47.8153128" lon="-1.8388000">
        <ele>3.611</ele>
        <time>2018-08-28T15:45:48.965Z</time>
      </trkpt>
      <trkpt lat="47.8152721" lon="-1.8386576">
        <ele>3.024</ele>
        <time>2018-08-28T15:45:51.889Z</time>
      </trkpt>
      <trkpt lat="47.8152273" lon="-1.8385031">
        <ele>2.824</ele>
        <time>2018-08-28T15:45:55.044Z</time>
      </trkpt>
      <trkpt lat="47.8151667" lon="-1.8383592">
        <ele>2.814</ele>
        <time>2018-08-28T15:45:58.174Z</time>
      </trkpt>
      <trkpt lat="47.8151128" lon="-1.8382138">
        <ele>2.706</ele>
        <time>2018-08-28T15:46:01.191Z</time>
      </trkpt>
      <trkpt lat="47.8150484" lon="-1.8380819">
        <ele>2.377</ele>
        <time>2018-08-28T15:46:04.131Z</time>
      </trkpt>
      <trkpt lat="47.8149719" lon="-1.8379507">
        <ele>1.866</ele>
        <time>2018-08-28T15:46:07.237Z</time>
      </trkpt>
      <trkpt lat="47.8149001" lon="-1.8378259">
        <ele>1.421</ele>
        <time>2018-08-28T15:46:10.179Z</time>
      </trkpt>
      <trkpt lat="47.8148256" lon="-1.8377122">
        <ele>1.270</ele>
        <time>2018-08-28T15:46:13.067Z</time>
      </trkpt>
      <trkpt lat="47.8147521" lon="-1.8376086">
        <ele>1.327</ele>
        <time>2018-08-28T15:46:15.870Z</time>
      </trkpt>
      <trkpt lat="47.8146736" lon="-1.8375138">
        <ele>1.412</ele>
        <time>2018-08-28T15:46:18.744Z</time>
      </trkpt>
      <trkpt lat="47.8146017" lon="-1.8374070">
        <ele>1.550</ele>
        <time>2018-08-28T15:46:21.684Z</time>
      </trkpt>
      <trkpt lat="47.8145386" lon="-1.8372847">
        <ele>1.794</ele>
        <time>2018-08-28T15:46:24.707Z</time>
      </trkpt>
      <trkpt lat="47.8144842" lon="-1.8371528">
        <ele>2.028</ele>
        <time>2018-08-28T15:46:27.747Z</time>
      </trkpt>
      <trkpt lat="47.8144472" lon="-1.8370154">
        <ele>2.179</ele>
        <time>2018-08-28T15:46:30.670Z</time>
      </trkpt>
      <trkpt lat="47.8144180" lon="-1.8368669">
        <ele>2.305</ele>
        <time>2018-08-28T15:46:33.733Z</time>
      </trkpt>
      <trkpt lat="47.8143969" lon="-1.8367228">
        <ele>2.421</ele>
        <time>2018-08-28T15:46:36.662Z</time>
      </trkpt>
      <trkpt lat="47.8143827" lon="-1.8365736">
        <ele>2.564</ele>
        <time>2018-08-28T15:46:39.647Z</time>
      </trkpt>
      <trkpt lat="47.8143870" lon="-1.8364236">
        <ele>2.825</ele>
        <time>2018-08-28T15:46:42.618Z</time>
      </trkpt>
      <trkpt lat="47.8144023" lon="-1.8362791">
        <ele>3.157</ele>
        <time>2018-08-28T15:46:45.535Z</time>
      </trkpt>
      <trkpt lat="47.8144309" lon="-1.8361366">
        <ele>3.371</ele>
        <time>2018-08-28T15:46:48.529Z</time>
      </trkpt>
      <trkpt lat="47.8144543" lon="-1.8359893">
        <ele>3.340</ele>
        <time>2018-08-28T15:46:51.574Z</time>
      </trkpt>
      <trkpt lat="47.8144756" lon="-1.8358490">
        <ele>3.133</ele>
        <time>2018-08-28T15:46:54.457Z</time>
      </trkpt>
      <trkpt lat="47.8145051" lon="-1.8357049">
        <ele>2.900</ele>
        <time>2018-08-28T15:46:57.475Z</time>
      </trkpt>
      <trkpt lat="47.8145331" lon="-1.8355534">
        <ele>2.682</ele>
        <time>2018-08-28T15:47:00.593Z</time>
      </trkpt>
      <trkpt lat="47.8145632" lon="-1.8354091">
        <ele>2.406</ele>
        <time>2018-08-28T15:47:03.551Z</time>
      </trkpt>
      <trkpt lat="47.8146019" lon="-1.8352615">
        <ele>2.133</ele>
        <time>2018-08-28T15:47:06.602Z</time>
      </trkpt>
      <trkpt lat="47.8146498" lon="-1.8351116">
        <ele>2.024</ele>
        <time>2018-08-28T15:47:09.713Z</time>
      </trkpt>
      <trkpt lat="47.8146994" lon="-1.8349564">
        <ele>2.071</ele>
        <time>2018-08-28T15:47:12.832Z</time>
      </trkpt>
      <trkpt lat="47.8147540" lon="-1.8348126">
        <ele>2.122</ele>
        <time>2018-08-28T15:47:15.811Z</time>
      </trkpt>
      <trkpt lat="47.8148126" lon="-1.8346879">
        <ele>2.098</ele>
        <time>2018-08-28T15:47:18.603Z</time>
      </trkpt>
      <trkpt lat="47.8148655" lon="-1.8345402">
        <ele>1.954</ele>
        <time>2018-08-28T15:47:21.694Z</time>
      </trkpt>
      <trkpt lat="47.8149227" lon="-1.8343943">
        <ele>1.657</ele>
        <time>2018-08-28T15:47:24.765Z</time>
      </trkpt>
      <trkpt lat="47.8149855" lon="-1.8342576">
        <ele>1.281</ele>
        <time>2018-08-28T15:47:27.743Z</time>
      </trkpt>
      <trkpt lat="47.8150541" lon="-1.8341332">
        <ele>1.056</ele>
        <time>2018-08-28T15:47:30.646Z</time>
      </trkpt>
      <trkpt lat="47.8151244" lon="-1.8340110">
        <ele>1.234</ele>
        <time>2018-08-28T15:47:33.576Z</time>
      </trkpt>
      <trkpt lat="47.8151946" lon="-1.8338877">
        <ele>1.759</ele>
        <time>2018-08-28T15:47:36.548Z</time>
      </trkpt>
      <trkpt lat="47.8152591" lon="-1.8337623">
        <ele>2.282</ele>
        <time>2018-08-28T15:47:39.483Z</time>
      </trkpt>
      <trkpt lat="47.8153215" lon="-1.8336358">
        <ele>2.736</ele>
        <time>2018-08-28T15:47:42.435Z</time>
      </trkpt>
      <trkpt lat="47.8153818" lon="-1.8335078">
        <ele>3.273</ele>
        <time>2018-08-28T15:47:45.406Z</time>
      </trkpt>
      <trkpt lat="47.8154393" lon="-1.8333769">
        <ele>3.787</ele>
        <time>2018-08-28T15:47:48.396Z</time>
      </trkpt>
      <trkpt lat="47.8155026" lon="-1.8332527">
        <ele>4.167</ele>
        <time>2018-08-28T15:47:51.378Z</time>
      </trkpt>
      <trkpt lat="47.8155635" lon="-1.8331221">
        <ele>4.548</ele>
        <time>2018-08-28T15:47:54.417Z</time>
      </trkpt>
      <trkpt lat="47.8156274" lon="-1.8329874">
        <ele>4.961</ele>
        <time>2018-08-28T15:47:57.532Z</time>
      </trkpt>
      <trkpt lat="47.8156992" lon="-1.8328641">
        <ele>5.328</ele>
        <time>2018-08-28T15:48:00.575Z</time>
      </trkpt>
      <trkpt lat="47.8157720" lon="-1.8327441">
        <ele>5.635</ele>
        <time>2018-08-28T15:48:03.566Z</time>
      </trkpt>
      <trkpt lat="47.8158420" lon="-1.8326236">
        <ele>5.878</ele>
        <time>2018-08-28T15:48:06.499Z</time>
      </trkpt>
      <trkpt lat="47.8159121" lon="-1.8324917">
        <ele>6.020</ele>
        <time>2018-08-28T15:48:09.569Z</time>
      </trkpt>
      <trkpt lat="47.8159691" lon="-1.8323462">
        <ele>6.060</ele>
        <time>2018-08-28T15:48:12.593Z</time>
      </trkpt>
      <trkpt lat="47.8160137" lon="-1.8321871">
        <ele>5.963</ele>
        <time>2018-08-28T15:48:15.635Z</time>
      </trkpt>
      <trkpt lat="47.8160622" lon="-1.8320208">
        <ele>5.742</ele>
        <time>2018-08-28T15:48:18.775Z</time>
      </trkpt>
      <trkpt lat="47.8161123" lon="-1.8318606">
        <ele>5.520</ele>
        <time>2018-08-28T15:48:21.784Z</time>
      </trkpt>
      <trkpt lat="47.8161461" lon="-1.8316873">
        <ele>5.286</ele>
        <time>2018-08-28T15:48:24.826Z</time>
      </trkpt>
      <trkpt lat="47.8161691" lon="-1.8315059">
        <ele>4.901</ele>
        <time>2018-08-28T15:48:27.918Z</time>
      </trkpt>
      <trkpt lat="47.8161911" lon="-1.8313315">
        <ele>4.411</ele>
        <time>2018-08-28T15:48:30.911Z</time>
      </trkpt>
      <trkpt lat="47.8162139" lon="-1.8311764">
        <ele>4.007</ele>
        <time>2018-08-28T15:48:33.657Z</time>
      </trkpt>
      <trkpt lat="47.8162343" lon="-1.8310273">
        <ele>3.845</ele>
        <time>2018-08-28T15:48:36.379Z</time>
      </trkpt>
      <trkpt lat="47.8162584" lon="-1.8308760">
        <ele>3.929</ele>
        <time>2018-08-28T15:48:39.258Z</time>
      </trkpt>
      <trkpt lat="47.8162877" lon="-1.8307299">
        <ele>3.944</ele>
        <time>2018-08-28T15:48:42.170Z</time>
      </trkpt>
      <trkpt lat="47.8163264" lon="-1.8305922">
        <ele>3.666</ele>
        <time>2018-08-28T15:48:45.093Z</time>
      </trkpt>
      <trkpt lat="47.8163778" lon="-1.8304637">
        <ele>3.423</ele>
        <time>2018-08-28T15:48:48.074Z</time>
      </trkpt>
      <trkpt lat="47.8164392" lon="-1.8303357">
        <ele>3.666</ele>
        <time>2018-08-28T15:48:51.215Z</time>
      </trkpt>
      <trkpt lat="47.8165013" lon="-1.8302062">
        <ele>4.382</ele>
        <time>2018-08-28T15:48:54.342Z</time>
      </trkpt>
      <trkpt lat="47.8165665" lon="-1.8300828">
        <ele>5.169</ele>
        <time>2018-08-28T15:48:57.383Z</time>
      </trkpt>
      <trkpt lat="47.8166308" lon="-1.8299564">
        <ele>5.640</ele>
        <time>2018-08-28T15:49:00.421Z</time>
      </trkpt>
      <trkpt lat="47.8167009" lon="-1.8298333">
        <ele>5.744</ele>
        <time>2018-08-28T15:49:03.466Z</time>
      </trkpt>
      <trkpt lat="47.8167710" lon="-1.8297125">
        <ele>5.720</ele>
        <time>2018-08-28T15:49:06.435Z</time>
      </trkpt>
      <trkpt lat="47.8168475" lon="-1.8295971">
        <ele>5.782</ele>
        <time>2018-08-28T15:49:09.430Z</time>
      </trkpt>
      <trkpt lat="47.8169160" lon="-1.8294881">
        <ele>5.947</ele>
        <time>2018-08-28T15:49:12.217Z</time>
      </trkpt>
      <trkpt lat="47.8169819" lon="-1.8293806">
        <ele>6.141</ele>
        <time>2018-08-28T15:49:14.999Z</time>
      </trkpt>
      <trkpt lat="47.8169819" lon="-1.8293806">
        <ele>6.310</ele>
        <time>2018-08-28T15:49:16.999Z</time>
      </trkpt>
      <trkpt lat="47.8169819" lon="-1.8293806">
        <ele>6.395</ele>
        <time>2018-08-28T15:49:17.099Z</time>
      </trkpt>
      <trkpt lat="47.8171582" lon="-1.8291681">
        <ele>6.361</ele>
        <time>2018-08-28T15:49:26.311Z</time>
      </trkpt>
      <trkpt lat="47.8172454" lon="-1.8290876">
        <ele>6.277</ele>
        <time>2018-08-28T15:49:29.261Z</time>
      </trkpt>
      <trkpt lat="47.8173381" lon="-1.8290127">
        <ele>6.293</ele>
        <time>2018-08-28T15:49:32.221Z</time>
      </trkpt>
      <trkpt lat="47.8174348" lon="-1.8289601">
        <ele>6.465</ele>
        <time>2018-08-28T15:49:35.018Z</time>
      </trkpt>
      <trkpt lat="47.8175513" lon="-1.8289402">
        <ele>6.677</ele>
        <time>2018-08-28T15:49:38.096Z</time>
      </trkpt>
      <trkpt lat="47.8176678" lon="-1.8289397">
        <ele>6.738</ele>
        <time>2018-08-28T15:49:41.073Z</time>
      </trkpt>
      <trkpt lat="47.8177856" lon="-1.8289572">
        <ele>6.528</ele>
        <time>2018-08-28T15:49:44.042Z</time>
      </trkpt>
      <trkpt lat="47.8179011" lon="-1.8289838">
        <ele>6.033</ele>
        <time>2018-08-28T15:49:46.959Z</time>
      </trkpt>
      <trkpt lat="47.8180156" lon="-1.8290052">
        <ele>5.420</ele>
        <time>2018-08-28T15:49:49.882Z</time>
      </trkpt>
      <trkpt lat="47.8181214" lon="-1.8290315">
        <ele>5.057</ele>
        <time>2018-08-28T15:49:52.678Z</time>
      </trkpt>
      <trkpt lat="47.8182254" lon="-1.8290549">
        <ele>5.114</ele>
        <time>2018-08-28T15:49:55.489Z</time>
      </trkpt>
      <trkpt lat="47.8183286" lon="-1.8290714">
        <ele>5.269</ele>
        <time>2018-08-28T15:49:58.313Z</time>
      </trkpt>
      <trkpt lat="47.8184349" lon="-1.8290787">
        <ele>5.205</ele>
        <time>2018-08-28T15:50:01.264Z</time>
      </trkpt>
      <trkpt lat="47.8185378" lon="-1.8290758">
        <ele>4.944</ele>
        <time>2018-08-28T15:50:04.181Z</time>
      </trkpt>
      <trkpt lat="47.8186339" lon="-1.8290536">
        <ele>4.641</ele>
        <time>2018-08-28T15:50:07.056Z</time>
      </trkpt>
      <trkpt lat="47.8187501" lon="-1.8290366">
        <ele>4.365</ele>
        <time>2018-08-28T15:50:10.691Z</time>
      </trkpt>
      <trkpt lat="47.8188637" lon="-1.8290050">
        <ele>4.134</ele>
        <time>2018-08-28T15:50:14.474Z</time>
      </trkpt>
      <trkpt lat="47.8189748" lon="-1.8289743">
        <ele>4.065</ele>
        <time>2018-08-28T15:50:18.302Z</time>
      </trkpt>
      <trkpt lat="47.8190770" lon="-1.8289191">
        <ele>4.236</ele>
        <time>2018-08-28T15:50:22.055Z</time>
      </trkpt>
      <trkpt lat="47.8191745" lon="-1.8288375">
        <ele>4.474</ele>
        <time>2018-08-28T15:50:25.936Z</time>
      </trkpt>
      <trkpt lat="47.8192574" lon="-1.8287220">
        <ele>4.580</ele>
        <time>2018-08-28T15:50:29.873Z</time>
      </trkpt>
      <trkpt lat="47.8193525" lon="-1.8286494">
        <ele>4.505</ele>
        <time>2018-08-28T15:50:33.547Z</time>
      </trkpt>
      <trkpt lat="47.8194170" lon="-1.8285452">
        <ele>4.229</ele>
        <time>2018-08-28T15:50:36.706Z</time>
      </trkpt>
      <trkpt lat="47.8194826" lon="-1.8284444">
        <ele>3.834</ele>
        <time>2018-08-28T15:50:39.709Z</time>
      </trkpt>
      <trkpt lat="47.8195455" lon="-1.8283402">
        <ele>3.635</ele>
        <time>2018-08-28T15:50:42.591Z</time>
      </trkpt>
      <trkpt lat="47.8196148" lon="-1.8282219">
        <ele>3.866</ele>
        <time>2018-08-28T15:50:45.677Z</time>
      </trkpt>
      <trkpt lat="47.8196821" lon="-1.8280978">
        <ele>4.352</ele>
        <time>2018-08-28T15:50:48.703Z</time>
      </trkpt>
      <trkpt lat="47.8197437" lon="-1.8279789">
        <ele>4.738</ele>
        <time>2018-08-28T15:50:51.520Z</time>
      </trkpt>
      <trkpt lat="47.8198086" lon="-1.8278668">
        <ele>4.795</ele>
        <time>2018-08-28T15:50:54.297Z</time>
      </trkpt>
      <trkpt lat="47.8198793" lon="-1.8277491">
        <ele>4.526</ele>
        <time>2018-08-28T15:50:57.242Z</time>
      </trkpt>
      <trkpt lat="47.8199554" lon="-1.8276336">
        <ele>4.158</ele>
        <time>2018-08-28T15:51:00.218Z</time>
      </trkpt>
      <trkpt lat="47.8200314" lon="-1.8275252">
        <ele>3.949</ele>
        <time>2018-08-28T15:51:03.078Z</time>
      </trkpt>
      <trkpt lat="47.8201055" lon="-1.8274167">
        <ele>3.999</ele>
        <time>2018-08-28T15:51:05.901Z</time>
      </trkpt>
      <trkpt lat="47.8201807" lon="-1.8273002">
        <ele>4.410</ele>
        <time>2018-08-28T15:51:08.836Z</time>
      </trkpt>
      <trkpt lat="47.8202541" lon="-1.8271786">
        <ele>5.111</ele>
        <time>2018-08-28T15:51:11.790Z</time>
      </trkpt>
      <trkpt lat="47.8203172" lon="-1.8270632">
        <ele>5.730</ele>
        <time>2018-08-28T15:51:14.490Z</time>
      </trkpt>
      <trkpt lat="47.8203774" lon="-1.8269370">
        <ele>6.023</ele>
        <time>2018-08-28T15:51:17.331Z</time>
      </trkpt>
      <trkpt lat="47.8204361" lon="-1.8268236">
        <ele>5.990</ele>
        <time>2018-08-28T15:51:20.000Z</time>
      </trkpt>
      <trkpt lat="47.8204361" lon="-1.8268236">
        <ele>5.718</ele>
        <time>2018-08-28T15:51:20.000Z</time>
      </trkpt>
      <trkpt lat="47.8204361" lon="-1.8268236">
        <ele>5.486</ele>
        <time>2018-08-28T15:51:20.279Z</time>
      </trkpt>
      <trkpt lat="47.8205265" lon="-1.8266547">
        <ele>5.524</ele>
        <time>2018-08-28T15:51:27.075Z</time>
      </trkpt>
      <trkpt lat="47.8206089" lon="-1.8265249">
        <ele>5.815</ele>
        <time>2018-08-28T15:51:30.796Z</time>
      </trkpt>
      <trkpt lat="47.8206703" lon="-1.8264160">
        <ele>6.196</ele>
        <time>2018-08-28T15:51:33.759Z</time>
      </trkpt>
      <trkpt lat="47.8207314" lon="-1.8263030">
        <ele>6.333</ele>
        <time>2018-08-28T15:51:36.737Z</time>
      </trkpt>
      <trkpt lat="47.8207892" lon="-1.8261936">
        <ele>5.959</ele>
        <time>2018-08-28T15:51:39.548Z</time>
      </trkpt>
      <trkpt lat="47.8208573" lon="-1.8260931">
        <ele>5.210</ele>
        <time>2018-08-28T15:51:42.394Z</time>
      </trkpt>
      <trkpt lat="47.8209244" lon="-1.8259906">
        <ele>4.416</ele>
        <time>2018-08-28T15:51:45.235Z</time>
      </trkpt>
      <trkpt lat="47.8209863" lon="-1.8258933">
        <ele>3.823</ele>
        <time>2018-08-28T15:51:47.940Z</time>
      </trkpt>
      <trkpt lat="47.8210508" lon="-1.8257812">
        <ele>3.634</ele>
        <time>2018-08-28T15:51:51.000Z</time>
      </trkpt>
      <trkpt lat="47.8210508" lon="-1.8257812">
        <ele>3.843</ele>
        <time>2018-08-28T15:51:53.000Z</time>
      </trkpt>
      <trkpt lat="47.8210508" lon="-1.8257812">
        <ele>4.087</ele>
        <time>2018-08-28T15:52:44.809Z</time>
      </trkpt>
      <trkpt lat="47.8212124" lon="-1.8255357">
        <ele>4.089</ele>
        <time>2018-08-28T15:53:00.216Z</time>
      </trkpt>
      <trkpt lat="47.8213070" lon="-1.8254923">
        <ele>3.956</ele>
        <time>2018-08-28T15:53:04.275Z</time>
      </trkpt>
      <trkpt lat="47.8213993" lon="-1.8254980">
        <ele>4.235</ele>
        <time>2018-08-28T15:53:08.346Z</time>
      </trkpt>
      <trkpt lat="47.8215000" lon="-1.8254302">
        <ele>5.431</ele>
        <time>2018-08-28T15:53:13.318Z</time>
      </trkpt>
      <trkpt lat="47.8216015" lon="-1.8254321">
        <ele>7.303</ele>
        <time>2018-08-28T15:53:17.876Z</time>
      </trkpt>
      <trkpt lat="47.8216733" lon="-1.8253483">
        <ele>9.012</ele>
        <time>2018-08-28T15:53:21.721Z</time>
      </trkpt>
      <trkpt lat="47.8217306" lon="-1.8252148">
        <ele>9.930</ele>
        <time>2018-08-28T15:53:25.853Z</time>
      </trkpt>
      <trkpt lat="47.8218174" lon="-1.8251396">
        <ele>10.043</ele>
        <time>2018-08-28T15:53:29.455Z</time>
      </trkpt>
      <trkpt lat="47.8219350" lon="-1.8250969">
        <ele>9.818</ele>
        <time>2018-08-28T15:53:33.504Z</time>
      </trkpt>
      <trkpt lat="47.8220383" lon="-1.8250776">
        <ele>9.473</ele>
        <time>2018-08-28T15:53:36.855Z</time>
      </trkpt>
      <trkpt lat="47.8221475" lon="-1.8250376">
        <ele>8.984</ele>
        <time>2018-08-28T15:53:40.438Z</time>
      </trkpt>
      <trkpt lat="47.8222511" lon="-1.8249867">
        <ele>8.480</ele>
        <time>2018-08-28T15:53:43.901Z</time>
      </trkpt>
      <trkpt lat="47.8223627" lon="-1.8249325">
        <ele>8.136</ele>
        <time>2018-08-28T15:53:47.568Z</time>
      </trkpt>
      <trkpt lat="47.8224699" lon="-1.8248894">
        <ele>8.026</ele>
        <time>2018-08-28T15:53:51.000Z</time>
      </trkpt>
      <trkpt lat="47.8224699" lon="-1.8248894">
        <ele>8.132</ele>
        <time>2018-08-28T15:53:53.000Z</time>
      </trkpt>
      <trkpt lat="47.8224699" lon="-1.8248894">
        <ele>8.257</ele>
        <time>2018-08-28T15:55:59.000Z</time>
      </trkpt>
      <trkpt lat="47.8224699" lon="-1.8248894">
        <ele>8.256</ele>
        <time>2018-08-28T15:55:59.100Z</time>
      </trkpt>
      <trkpt lat="47.8225789" lon="-1.8248189">
        <ele>8.202</ele>
        <time>2018-08-28T15:56:34.000Z</time>
      </trkpt>
      <trkpt lat="47.8225789" lon="-1.8248189">
        <ele>8.194</ele>
        <time>2018-08-28T15:56:41.000Z</time>
      </trkpt>
      <trkpt lat="47.8225789" lon="-1.8248189">
        <ele>8.212</ele>
        <time>2018-08-28T15:57:09.072Z</time>
      </trkpt>
      <trkpt lat="47.8226681" lon="-1.8247270">
        <ele>8.199</ele>
        <time>2018-08-28T15:57:27.324Z</time>
      </trkpt>
      <trkpt lat="47.8227599" lon="-1.8246604">
        <ele>8.795</ele>
        <time>2018-08-28T15:57:34.485Z</time>
      </trkpt>
      <trkpt lat="47.8228496" lon="-1.8246453">
        <ele>10.373</ele>
        <time>2018-08-28T15:57:40.367Z</time>
      </trkpt>
      <trkpt lat="47.8229382" lon="-1.8245847">
        <ele>11.996</ele>
        <time>2018-08-28T15:57:47.404Z</time>
      </trkpt>
      <trkpt lat="47.8230278" lon="-1.8245513">
        <ele>12.761</ele>
        <time>2018-08-28T15:57:55.000Z</time>
      </trkpt>
      <trkpt lat="47.8230278" lon="-1.8245513">
        <ele>12.898</ele>
        <time>2018-08-28T15:58:01.000Z</time>
      </trkpt>
      <trkpt lat="47.8230278" lon="-1.8245513">
        <ele>12.849</ele>
        <time>2018-08-28T15:58:03.400Z</time>
      </trkpt>
      <trkpt lat="47.8230983" lon="-1.8244464">
        <ele>12.835</ele>
        <time>2018-08-28T15:58:14.000Z</time>
      </trkpt>
      <trkpt lat="47.8230983" lon="-1.8244464">
        <ele>12.856</ele>
        <time>2018-08-28T15:58:23.000Z</time>
      </trkpt>
      <trkpt lat="47.8230983" lon="-1.8244464">
        <ele>12.871</ele>
        <time>2018-08-28T15:58:35.106Z</time>
      </trkpt>
      <trkpt lat="47.8231600" lon="-1.8243272">
        <ele>12.865</ele>
        <time>2018-08-28T15:58:53.000Z</time>
      </trkpt>
      <trkpt lat="47.8231600" lon="-1.8243272">
        <ele>12.852</ele>
        <time>2018-08-28T15:58:58.000Z</time>
      </trkpt>
      <trkpt lat="47.8231600" lon="-1.8243272">
        <ele>12.846</ele>
        <time>2018-08-28T15:59:02.000Z</time>
      </trkpt>
      <trkpt lat="47.8231098" lon="-1.8243542">
        <ele>9.901</ele>
        <time>2018-08-28T16:00:21.000Z</time>
      </trkpt>
      <trkpt lat="47.8231098" lon="-1.8243542">
        <ele>9.896</ele>
        <time>2018-08-28T16:00:28.000Z</time>
      </trkpt>
      <trkpt lat="47.8231098" lon="-1.8243542">
        <ele>9.894</ele>
        <time>2018-08-28T16:00:46.863Z</time>
      </trkpt>
      <trkpt lat="47.8231235" lon="-1.8242036">
        <ele>9.892</ele>
        <time>2018-08-28T16:01:01.285Z</time>
      </trkpt>
      <trkpt lat="47.8232001" lon="-1.8241209">
        <ele>9.889</ele>
        <time>2018-08-28T16:01:10.000Z</time>
      </trkpt>
      <trkpt lat="47.8232001" lon="-1.8241209">
        <ele>9.886</ele>
        <time>2018-08-28T16:01:13.000Z</time>
      </trkpt>
      <trkpt lat="47.8229835" lon="-1.8243572">
        <ele>11.155</ele>
        <time>2018-08-29T08:55:04.000Z</time>
      </trkpt>
      <trkpt lat="47.8229835" lon="-1.8243572">
        <ele>11.153</ele>
        <time>2018-08-29T08:55:05.000Z</time>
      </trkpt>
      <trkpt lat="47.8229835" lon="-1.8243572">
        <ele>11.152</ele>
        <time>2018-08-29T08:55:19.054Z</time>
      </trkpt>
      <trkpt lat="47.8229915" lon="-1.8241141">
        <ele>11.148</ele>
        <time>2018-08-29T08:55:29.618Z</time>
      </trkpt>
      <trkpt lat="47.8229764" lon="-1.8240781">
        <ele>10.880</ele>
        <time>2018-08-29T08:55:30.672Z</time>
      </trkpt>
      <trkpt lat="47.8229281" lon="-1.8239617">
        <ele>10.191</ele>
        <time>2018-08-29T08:55:33.690Z</time>
      </trkpt>
      <trkpt lat="47.8228670" lon="-1.8238503">
        <ele>9.544</ele>
        <time>2018-08-29T08:55:36.584Z</time>
      </trkpt>
      <trkpt lat="47.8227942" lon="-1.8237078">
        <ele>9.395</ele>
        <time>2018-08-29T08:55:40.053Z</time>
      </trkpt>
      <trkpt lat="47.8227329" lon="-1.8235940">
        <ele>9.554</ele>
        <time>2018-08-29T08:55:42.757Z</time>
      </trkpt>
      <trkpt lat="47.8226691" lon="-1.8234731">
        <ele>9.695</ele>
        <time>2018-08-29T08:55:45.563Z</time>
      </trkpt>
      <trkpt lat="47.8225997" lon="-1.8233553">
        <ele>9.738</ele>
        <time>2018-08-29T08:55:48.427Z</time>
      </trkpt>
      <trkpt lat="47.8225441" lon="-1.8232457">
        <ele>9.748</ele>
        <time>2018-08-29T08:55:51.000Z</time>
      </trkpt>
      <trkpt lat="47.8225441" lon="-1.8232457">
        <ele>9.763</ele>
        <time>2018-08-29T08:55:52.000Z</time>
      </trkpt>
      <trkpt lat="47.8225441" lon="-1.8232457">
        <ele>9.776</ele>
        <time>2018-08-29T08:55:54.424Z</time>
      </trkpt>
      <trkpt lat="47.8225448" lon="-1.8230234">
        <ele>9.772</ele>
        <time>2018-08-29T08:56:03.000Z</time>
      </trkpt>
      <trkpt lat="47.8225448" lon="-1.8230234">
        <ele>9.761</ele>
        <time>2018-08-29T08:56:06.000Z</time>
      </trkpt>
      <trkpt lat="47.8225448" lon="-1.8230234">
        <ele>9.757</ele>
        <time>2018-08-29T08:56:19.284Z</time>
      </trkpt>
      <trkpt lat="47.8227237" lon="-1.8227776">
        <ele>9.758</ele>
        <time>2018-08-29T08:56:34.500Z</time>
      </trkpt>
      <trkpt lat="47.8228017" lon="-1.8226777">
        <ele>9.758</ele>
        <time>2018-08-29T08:56:37.448Z</time>
      </trkpt>
      <trkpt lat="47.8228787" lon="-1.8225658">
        <ele>9.492</ele>
        <time>2018-08-29T08:56:40.370Z</time>
      </trkpt>
      <trkpt lat="47.8229497" lon="-1.8224687">
        <ele>8.728</ele>
        <time>2018-08-29T08:56:43.148Z</time>
      </trkpt>
      <trkpt lat="47.8230216" lon="-1.8223520">
        <ele>7.829</ele>
        <time>2018-08-29T08:56:46.477Z</time>
      </trkpt>
      <trkpt lat="47.8230931" lon="-1.8222517">
        <ele>7.269</ele>
        <time>2018-08-29T08:56:49.667Z</time>
      </trkpt>
      <trkpt lat="47.8231817" lon="-1.8221400">
        <ele>7.040</ele>
        <time>2018-08-29T08:56:53.397Z</time>
      </trkpt>
      <trkpt lat="47.8232521" lon="-1.8220411">
        <ele>6.880</ele>
        <time>2018-08-29T08:56:56.408Z</time>
      </trkpt>
      <trkpt lat="47.8233183" lon="-1.8219275">
        <ele>6.528</ele>
        <time>2018-08-29T08:56:59.564Z</time>
      </trkpt>
      <trkpt lat="47.8233888" lon="-1.8218059">
        <ele>6.008</ele>
        <time>2018-08-29T08:57:02.998Z</time>
      </trkpt>
      <trkpt lat="47.8233888" lon="-1.8218059">
        <ele>5.629</ele>
        <time>2018-08-29T08:57:02.998Z</time>
      </trkpt>
      <trkpt lat="47.8233888" lon="-1.8218059">
        <ele>5.541</ele>
        <time>2018-08-29T08:57:03.098Z</time>
      </trkpt>
      <trkpt lat="47.8234831" lon="-1.8216585">
        <ele>5.650</ele>
        <time>2018-08-29T08:57:11.725Z</time>
      </trkpt>
      <trkpt lat="47.8235462" lon="-1.8215527">
        <ele>5.824</ele>
        <time>2018-08-29T08:57:15.635Z</time>
      </trkpt>
      <trkpt lat="47.8236169" lon="-1.8214445">
        <ele>5.955</ele>
        <time>2018-08-29T08:57:19.876Z</time>
      </trkpt>
      <trkpt lat="47.8236894" lon="-1.8213484">
        <ele>6.000</ele>
        <time>2018-08-29T08:57:24.177Z</time>
      </trkpt>
      <trkpt lat="47.8237592" lon="-1.8212550">
        <ele>6.027</ele>
        <time>2018-08-29T08:57:28.744Z</time>
      </trkpt>
      <trkpt lat="47.8238357" lon="-1.8211573">
        <ele>6.171</ele>
        <time>2018-08-29T08:57:33.567Z</time>
      </trkpt>
      <trkpt lat="47.8239182" lon="-1.8210773">
        <ele>6.492</ele>
        <time>2018-08-29T08:57:37.363Z</time>
      </trkpt>
      <trkpt lat="47.8240050" lon="-1.8209838">
        <ele>6.872</ele>
        <time>2018-08-29T08:57:41.116Z</time>
      </trkpt>
      <trkpt lat="47.8240879" lon="-1.8208963">
        <ele>7.138</ele>
        <time>2018-08-29T08:57:44.565Z</time>
      </trkpt>
      <trkpt lat="47.8241550" lon="-1.8208060">
        <ele>7.236</ele>
        <time>2018-08-29T08:57:47.562Z</time>
      </trkpt>
      <trkpt lat="47.8242262" lon="-1.8207095">
        <ele>7.122</ele>
        <time>2018-08-29T08:57:50.644Z</time>
      </trkpt>
      <trkpt lat="47.8242944" lon="-1.8206170">
        <ele>6.807</ele>
        <time>2018-08-29T08:57:53.515Z</time>
      </trkpt>
      <trkpt lat="47.8243848" lon="-1.8205180">
        <ele>6.475</ele>
        <time>2018-08-29T08:57:56.998Z</time>
      </trkpt>
      <trkpt lat="47.8243848" lon="-1.8205180">
        <ele>6.317</ele>
        <time>2018-08-29T08:57:58.998Z</time>
      </trkpt>
      <trkpt lat="47.8243848" lon="-1.8205180">
        <ele>6.331</ele>
        <time>2018-08-29T08:58:09.480Z</time>
      </trkpt>
      <trkpt lat="47.8244790" lon="-1.8203036">
        <ele>6.408</ele>
        <time>2018-08-29T08:58:22.909Z</time>
      </trkpt>
      <trkpt lat="47.8244068" lon="-1.8202204">
        <ele>6.440</ele>
        <time>2018-08-29T08:58:26.404Z</time>
      </trkpt>
      <trkpt lat="47.8243389" lon="-1.8201225">
        <ele>6.370</ele>
        <time>2018-08-29T08:58:29.868Z</time>
      </trkpt>
      <trkpt lat="47.8242674" lon="-1.8200106">
        <ele>6.172</ele>
        <time>2018-08-29T08:58:33.764Z</time>
      </trkpt>
      <trkpt lat="47.8242077" lon="-1.8198797">
        <ele>5.885</ele>
        <time>2018-08-29T08:58:38.227Z</time>
      </trkpt>
      <trkpt lat="47.8241778" lon="-1.8197418">
        <ele>5.630</ele>
        <time>2018-08-29T08:58:42.801Z</time>
      </trkpt>
      <trkpt lat="47.8240889" lon="-1.8196549">
        <ele>5.484</ele>
        <time>2018-08-29T08:58:48.111Z</time>
      </trkpt>
      <trkpt lat="47.8240329" lon="-1.8195368">
        <ele>5.410</ele>
        <time>2018-08-29T08:58:53.376Z</time>
      </trkpt>
      <trkpt lat="47.8240364" lon="-1.8193942">
        <ele>5.338</ele>
        <time>2018-08-29T08:58:58.795Z</time>
      </trkpt>
      <trkpt lat="47.8240959" lon="-1.8192931">
        <ele>5.246</ele>
        <time>2018-08-29T08:59:03.076Z</time>
      </trkpt>
      <trkpt lat="47.8241926" lon="-1.8191954">
        <ele>5.143</ele>
        <time>2018-08-29T08:59:07.497Z</time>
      </trkpt>
      <trkpt lat="47.8242827" lon="-1.8190825">
        <ele>5.019</ele>
        <time>2018-08-29T08:59:11.456Z</time>
      </trkpt>
      <trkpt lat="47.8243504" lon="-1.8189809">
        <ele>4.892</ele>
        <time>2018-08-29T08:59:14.558Z</time>
      </trkpt>
      <trkpt lat="47.8244162" lon="-1.8188810">
        <ele>4.838</ele>
        <time>2018-08-29T08:59:17.541Z</time>
      </trkpt>
      <trkpt lat="47.8244879" lon="-1.8187845">
        <ele>4.935</ele>
        <time>2018-08-29T08:59:20.573Z</time>
      </trkpt>
      <trkpt lat="47.8245567" lon="-1.8186913">
        <ele>5.171</ele>
        <time>2018-08-29T08:59:23.462Z</time>
      </trkpt>
      <trkpt lat="47.8246289" lon="-1.8185880">
        <ele>5.613</ele>
        <time>2018-08-29T08:59:26.547Z</time>
      </trkpt>
      <trkpt lat="47.8247006" lon="-1.8184926">
        <ele>5.837</ele>
        <time>2018-08-29T08:59:29.491Z</time>
      </trkpt>
      <trkpt lat="47.8247730" lon="-1.8183952">
        <ele>6.088</ele>
        <time>2018-08-29T08:59:32.436Z</time>
      </trkpt>
      <trkpt lat="47.8248538" lon="-1.8182916">
        <ele>6.188</ele>
        <time>2018-08-29T08:59:35.588Z</time>
      </trkpt>
      <trkpt lat="47.8249331" lon="-1.8181920">
        <ele>5.863</ele>
        <time>2018-08-29T08:59:38.599Z</time>
      </trkpt>
      <trkpt lat="47.8250142" lon="-1.8180946">
        <ele>5.730</ele>
        <time>2018-08-29T08:59:41.593Z</time>
      </trkpt>
      <trkpt lat="47.8251006" lon="-1.8180040">
        <ele>5.650</ele>
        <time>2018-08-29T08:59:44.633Z</time>
      </trkpt>
      <trkpt lat="47.8251843" lon="-1.8179155">
        <ele>5.613</ele>
        <time>2018-08-29T08:59:47.641Z</time>
      </trkpt>
      <trkpt lat="47.8252647" lon="-1.8178336">
        <ele>5.620</ele>
        <time>2018-08-29T08:59:50.577Z</time>
      </trkpt>
      <trkpt lat="47.8253447" lon="-1.8177601">
        <ele>5.644</ele>
        <time>2018-08-29T08:59:53.481Z</time>
      </trkpt>
      <trkpt lat="47.8254190" lon="-1.8176806">
        <ele>5.651</ele>
        <time>2018-08-29T08:59:56.345Z</time>
      </trkpt>
      <trkpt lat="47.8254953" lon="-1.8176014">
        <ele>5.571</ele>
        <time>2018-08-29T08:59:59.252Z</time>
      </trkpt>
      <trkpt lat="47.8255674" lon="-1.8175108">
        <ele>5.363</ele>
        <time>2018-08-29T09:00:02.142Z</time>
      </trkpt>
      <trkpt lat="47.8256404" lon="-1.8174118">
        <ele>5.109</ele>
        <time>2018-08-29T09:00:05.052Z</time>
      </trkpt>
      <trkpt lat="47.8257324" lon="-1.8173165">
        <ele>4.944</ele>
        <time>2018-08-29T09:00:08.204Z</time>
      </trkpt>
      <trkpt lat="47.8258293" lon="-1.8172264">
        <ele>4.910</ele>
        <time>2018-08-29T09:00:11.336Z</time>
      </trkpt>
      <trkpt lat="47.8259257" lon="-1.8171533">
        <ele>4.970</ele>
        <time>2018-08-29T09:00:14.334Z</time>
      </trkpt>
      <trkpt lat="47.8260130" lon="-1.8170829">
        <ele>5.096</ele>
        <time>2018-08-29T09:00:17.147Z</time>
      </trkpt>
      <trkpt lat="47.8261018" lon="-1.8170146">
        <ele>5.257</ele>
        <time>2018-08-29T09:00:20.028Z</time>
      </trkpt>
      <trkpt lat="47.8261885" lon="-1.8169349">
        <ele>5.385</ele>
        <time>2018-08-29T09:00:22.973Z</time>
      </trkpt>
      <trkpt lat="47.8262762" lon="-1.8168592">
        <ele>5.424</ele>
        <time>2018-08-29T09:00:25.888Z</time>
      </trkpt>
      <trkpt lat="47.8263651" lon="-1.8167774">
        <ele>5.395</ele>
        <time>2018-08-29T09:00:28.870Z</time>
      </trkpt>
      <trkpt lat="47.8264557" lon="-1.8166994">
        <ele>5.389</ele>
        <time>2018-08-29T09:00:31.844Z</time>
      </trkpt>
      <trkpt lat="47.8265418" lon="-1.8166114">
        <ele>5.523</ele>
        <time>2018-08-29T09:00:34.767Z</time>
      </trkpt>
      <trkpt lat="47.8266341" lon="-1.8165239">
        <ele>5.814</ele>
        <time>2018-08-29T09:00:37.771Z</time>
      </trkpt>
      <trkpt lat="47.8267367" lon="-1.8164423">
        <ele>6.130</ele>
        <time>2018-08-29T09:00:40.927Z</time>
      </trkpt>
      <trkpt lat="47.8268267" lon="-1.8163520">
        <ele>6.341</ele>
        <time>2018-08-29T09:00:43.870Z</time>
      </trkpt>
      <trkpt lat="47.8269170" lon="-1.8162656">
        <ele>6.437</ele>
        <time>2018-08-29T09:00:46.775Z</time>
      </trkpt>
      <trkpt lat="47.8270115" lon="-1.8161872">
        <ele>6.485</ele>
        <time>2018-08-29T09:00:49.701Z</time>
      </trkpt>
      <trkpt lat="47.8271095" lon="-1.8161104">
        <ele>6.549</ele>
        <time>2018-08-29T09:00:52.717Z</time>
      </trkpt>
      <trkpt lat="47.8272040" lon="-1.8160467">
        <ele>6.640</ele>
        <time>2018-08-29T09:00:55.605Z</time>
      </trkpt>
      <trkpt lat="47.8272948" lon="-1.8159804">
        <ele>6.726</ele>
        <time>2018-08-29T09:00:58.479Z</time>
      </trkpt>
      <trkpt lat="47.8273822" lon="-1.8159064">
        <ele>6.764</ele>
        <time>2018-08-29T09:01:01.378Z</time>
      </trkpt>
      <trkpt lat="47.8274757" lon="-1.8158454">
        <ele>6.711</ele>
        <time>2018-08-29T09:01:04.336Z</time>
      </trkpt>
      <trkpt lat="47.8275668" lon="-1.8157838">
        <ele>6.545</ele>
        <time>2018-08-29T09:01:07.256Z</time>
      </trkpt>
      <trkpt lat="47.8276554" lon="-1.8157235">
        <ele>6.318</ele>
        <time>2018-08-29T09:01:10.109Z</time>
      </trkpt>
      <trkpt lat="47.8277483" lon="-1.8156596">
        <ele>6.220</ele>
        <time>2018-08-29T09:01:13.092Z</time>
      </trkpt>
      <trkpt lat="47.8278470" lon="-1.8156121">
        <ele>6.392</ele>
        <time>2018-08-29T09:01:16.072Z</time>
      </trkpt>
      <trkpt lat="47.8279561" lon="-1.8155776">
        <ele>6.697</ele>
        <time>2018-08-29T09:01:19.200Z</time>
      </trkpt>
      <trkpt lat="47.8280662" lon="-1.8155538">
        <ele>6.907</ele>
        <time>2018-08-29T09:01:22.283Z</time>
      </trkpt>
      <trkpt lat="47.8281747" lon="-1.8155514">
        <ele>6.927</ele>
        <time>2018-08-29T09:01:25.297Z</time>
      </trkpt>
      <trkpt lat="47.8282798" lon="-1.8155465">
        <ele>6.804</ele>
        <time>2018-08-29T09:01:28.267Z</time>
      </trkpt>
      <trkpt lat="47.8283791" lon="-1.8155289">
        <ele>6.731</ele>
        <time>2018-08-29T09:01:31.164Z</time>
      </trkpt>
      <trkpt lat="47.8284792" lon="-1.8155288">
        <ele>6.823</ele>
        <time>2018-08-29T09:01:34.113Z</time>
      </trkpt>
      <trkpt lat="47.8285799" lon="-1.8155279">
        <ele>6.973</ele>
        <time>2018-08-29T09:01:37.135Z</time>
      </trkpt>
      <trkpt lat="47.8286730" lon="-1.8155275">
        <ele>7.042</ele>
        <time>2018-08-29T09:01:39.959Z</time>
      </trkpt>
      <trkpt lat="47.8287741" lon="-1.8155241">
        <ele>7.022</ele>
        <time>2018-08-29T09:01:43.034Z</time>
      </trkpt>
      <trkpt lat="47.8288669" lon="-1.8155379">
        <ele>6.919</ele>
        <time>2018-08-29T09:01:45.917Z</time>
      </trkpt>
      <trkpt lat="47.8289586" lon="-1.8155505">
        <ele>6.716</ele>
        <time>2018-08-29T09:01:48.784Z</time>
      </trkpt>
      <trkpt lat="47.8290540" lon="-1.8155553">
        <ele>6.482</ele>
        <time>2018-08-29T09:01:51.739Z</time>
      </trkpt>
      <trkpt lat="47.8291503" lon="-1.8155602">
        <ele>6.343</ele>
        <time>2018-08-29T09:01:54.706Z</time>
      </trkpt>
      <trkpt lat="47.8292466" lon="-1.8155631">
        <ele>6.326</ele>
        <time>2018-08-29T09:01:57.683Z</time>
      </trkpt>
      <trkpt lat="47.8293392" lon="-1.8155539">
        <ele>6.333</ele>
        <time>2018-08-29T09:02:00.571Z</time>
      </trkpt>
      <trkpt lat="47.8294340" lon="-1.8155522">
        <ele>6.248</ele>
        <time>2018-08-29T09:02:03.473Z</time>
      </trkpt>
      <trkpt lat="47.8295384" lon="-1.8155545">
        <ele>6.069</ele>
        <time>2018-08-29T09:02:06.596Z</time>
      </trkpt>
      <trkpt lat="47.8296399" lon="-1.8155602">
        <ele>5.823</ele>
        <time>2018-08-29T09:02:09.582Z</time>
      </trkpt>
      <trkpt lat="47.8297417" lon="-1.8155772">
        <ele>5.544</ele>
        <time>2018-08-29T09:02:12.557Z</time>
      </trkpt>
      <trkpt lat="47.8298439" lon="-1.8155722">
        <ele>5.365</ele>
        <time>2018-08-29T09:02:15.522Z</time>
      </trkpt>
      <trkpt lat="47.8299398" lon="-1.8155705">
        <ele>5.376</ele>
        <time>2018-08-29T09:02:18.329Z</time>
      </trkpt>
      <trkpt lat="47.8300414" lon="-1.8155621">
        <ele>5.497</ele>
        <time>2018-08-29T09:02:21.282Z</time>
      </trkpt>
      <trkpt lat="47.8301523" lon="-1.8155642">
        <ele>5.639</ele>
        <time>2018-08-29T09:02:24.414Z</time>
      </trkpt>
      <trkpt lat="47.8302685" lon="-1.8155719">
        <ele>5.768</ele>
        <time>2018-08-29T09:02:27.586Z</time>
      </trkpt>
      <trkpt lat="47.8303837" lon="-1.8155676">
        <ele>5.849</ele>
        <time>2018-08-29T09:02:30.695Z</time>
      </trkpt>
      <trkpt lat="47.8304889" lon="-1.8155610">
        <ele>5.769</ele>
        <time>2018-08-29T09:02:33.576Z</time>
      </trkpt>
      <trkpt lat="47.8305938" lon="-1.8155545">
        <ele>5.499</ele>
        <time>2018-08-29T09:02:36.489Z</time>
      </trkpt>
      <trkpt lat="47.8306964" lon="-1.8155501">
        <ele>5.250</ele>
        <time>2018-08-29T09:02:39.377Z</time>
      </trkpt>
      <trkpt lat="47.8307993" lon="-1.8155445">
        <ele>5.205</ele>
        <time>2018-08-29T09:02:42.314Z</time>
      </trkpt>
      <trkpt lat="47.8308975" lon="-1.8155488">
        <ele>5.282</ele>
        <time>2018-08-29T09:02:45.112Z</time>
      </trkpt>
      <trkpt lat="47.8310065" lon="-1.8155419">
        <ele>5.345</ele>
        <time>2018-08-29T09:02:48.158Z</time>
      </trkpt>
      <trkpt lat="47.8311149" lon="-1.8155222">
        <ele>5.329</ele>
        <time>2018-08-29T09:02:51.183Z</time>
      </trkpt>
      <trkpt lat="47.8312133" lon="-1.8154908">
        <ele>5.243</ele>
        <time>2018-08-29T09:02:54.008Z</time>
      </trkpt>
      <trkpt lat="47.8313086" lon="-1.8154497">
        <ele>5.146</ele>
        <time>2018-08-29T09:02:56.832Z</time>
      </trkpt>
      <trkpt lat="47.8314106" lon="-1.8153969">
        <ele>5.095</ele>
        <time>2018-08-29T09:02:59.929Z</time>
      </trkpt>
      <trkpt lat="47.8315078" lon="-1.8153510">
        <ele>5.096</ele>
        <time>2018-08-29T09:03:02.886Z</time>
      </trkpt>
      <trkpt lat="47.8316055" lon="-1.8153104">
        <ele>5.186</ele>
        <time>2018-08-29T09:03:05.865Z</time>
      </trkpt>
      <trkpt lat="47.8317077" lon="-1.8152717">
        <ele>5.378</ele>
        <time>2018-08-29T09:03:08.972Z</time>
      </trkpt>
      <trkpt lat="47.8318089" lon="-1.8152275">
        <ele>5.473</ele>
        <time>2018-08-29T09:03:12.080Z</time>
      </trkpt>
      <trkpt lat="47.8319053" lon="-1.8151825">
        <ele>5.325</ele>
        <time>2018-08-29T09:03:15.055Z</time>
      </trkpt>
      <trkpt lat="47.8320010" lon="-1.8151363">
        <ele>5.129</ele>
        <time>2018-08-29T09:03:17.988Z</time>
      </trkpt>
      <trkpt lat="47.8321052" lon="-1.8150812">
        <ele>5.080</ele>
        <time>2018-08-29T09:03:21.160Z</time>
      </trkpt>
      <trkpt lat="47.8322034" lon="-1.8150316">
        <ele>5.127</ele>
        <time>2018-08-29T09:03:24.099Z</time>
      </trkpt>
      <trkpt lat="47.8323054" lon="-1.8149830">
        <ele>5.156</ele>
        <time>2018-08-29T09:03:27.107Z</time>
      </trkpt>
      <trkpt lat="47.8324090" lon="-1.8149338">
        <ele>5.123</ele>
        <time>2018-08-29T09:03:30.113Z</time>
      </trkpt>
      <trkpt lat="47.8325142" lon="-1.8148849">
        <ele>5.053</ele>
        <time>2018-08-29T09:03:33.115Z</time>
      </trkpt>
      <trkpt lat="47.8326187" lon="-1.8148370">
        <ele>5.029</ele>
        <time>2018-08-29T09:03:36.082Z</time>
      </trkpt>
      <trkpt lat="47.8327211" lon="-1.8147891">
        <ele>5.086</ele>
        <time>2018-08-29T09:03:39.019Z</time>
      </trkpt>
      <trkpt lat="47.8328254" lon="-1.8147448">
        <ele>5.149</ele>
        <time>2018-08-29T09:03:42.005Z</time>
      </trkpt>
      <trkpt lat="47.8329275" lon="-1.8147001">
        <ele>5.095</ele>
        <time>2018-08-29T09:03:44.960Z</time>
      </trkpt>
      <trkpt lat="47.8330273" lon="-1.8146750">
        <ele>4.894</ele>
        <time>2018-08-29T09:03:47.813Z</time>
      </trkpt>
      <trkpt lat="47.8331222" lon="-1.8146510">
        <ele>4.645</ele>
        <time>2018-08-29T09:03:50.587Z</time>
      </trkpt>
      <trkpt lat="47.8332140" lon="-1.8146285">
        <ele>4.473</ele>
        <time>2018-08-29T09:03:53.350Z</time>
      </trkpt>
      <trkpt lat="47.8333044" lon="-1.8146123">
        <ele>4.429</ele>
        <time>2018-08-29T09:03:56.151Z</time>
      </trkpt>
      <trkpt lat="47.8334212" lon="-1.8145714">
        <ele>4.550</ele>
        <time>2018-08-29T09:03:59.949Z</time>
      </trkpt>
      <trkpt lat="47.8335051" lon="-1.8144898">
        <ele>4.808</ele>
        <time>2018-08-29T09:04:03.127Z</time>
      </trkpt>
      <trkpt lat="47.8335882" lon="-1.8143873">
        <ele>5.059</ele>
        <time>2018-08-29T09:04:06.407Z</time>
      </trkpt>
      <trkpt lat="47.8336693" lon="-1.8142794">
        <ele>5.187</ele>
        <time>2018-08-29T09:04:09.544Z</time>
      </trkpt>
      <trkpt lat="47.8337523" lon="-1.8141702">
        <ele>5.221</ele>
        <time>2018-08-29T09:04:12.599Z</time>
      </trkpt>
      <trkpt lat="47.8338356" lon="-1.8140645">
        <ele>5.276</ele>
        <time>2018-08-29T09:04:15.527Z</time>
      </trkpt>
      <trkpt lat="47.8339222" lon="-1.8139543">
        <ele>5.408</ele>
        <time>2018-08-29T09:04:18.544Z</time>
      </trkpt>
      <trkpt lat="47.8340028" lon="-1.8138506">
        <ele>5.574</ele>
        <time>2018-08-29T09:04:21.365Z</time>
      </trkpt>
      <trkpt lat="47.8340829" lon="-1.8137382">
        <ele>5.719</ele>
        <time>2018-08-29T09:04:24.290Z</time>
      </trkpt>
      <trkpt lat="47.8341631" lon="-1.8136330">
        <ele>5.783</ele>
        <time>2018-08-29T09:04:27.153Z</time>
      </trkpt>
      <trkpt lat="47.8342424" lon="-1.8135258">
        <ele>5.739</ele>
        <time>2018-08-29T09:04:30.046Z</time>
      </trkpt>
      <trkpt lat="47.8343170" lon="-1.8134084">
        <ele>5.678</ele>
        <time>2018-08-29T09:04:33.006Z</time>
      </trkpt>
      <trkpt lat="47.8343852" lon="-1.8132953">
        <ele>5.696</ele>
        <time>2018-08-29T09:04:35.819Z</time>
      </trkpt>
      <trkpt lat="47.8344518" lon="-1.8131721">
        <ele>5.778</ele>
        <time>2018-08-29T09:04:38.784Z</time>
      </trkpt>
      <trkpt lat="47.8345140" lon="-1.8130467">
        <ele>5.813</ele>
        <time>2018-08-29T09:04:41.726Z</time>
      </trkpt>
      <trkpt lat="47.8345714" lon="-1.8129203">
        <ele>5.722</ele>
        <time>2018-08-29T09:04:44.662Z</time>
      </trkpt>
      <trkpt lat="47.8346297" lon="-1.8127785">
        <ele>5.546</ele>
        <time>2018-08-29T09:04:48.000Z</time>
      </trkpt>
      <trkpt lat="47.8346297" lon="-1.8127785">
        <ele>5.380</ele>
        <time>2018-08-29T09:04:48.000Z</time>
      </trkpt>
      <trkpt lat="47.8346297" lon="-1.8127785">
        <ele>5.297</ele>
        <time>2018-08-29T09:07:01.472Z</time>
      </trkpt>
      <trkpt lat="47.8347208" lon="-1.8125473">
        <ele>5.326</ele>
        <time>2018-08-29T09:07:13.442Z</time>
      </trkpt>
      <trkpt lat="47.8347724" lon="-1.8124224">
        <ele>5.436</ele>
        <time>2018-08-29T09:07:16.734Z</time>
      </trkpt>
      <trkpt lat="47.8348308" lon="-1.8122815">
        <ele>5.645</ele>
        <time>2018-08-29T09:07:20.155Z</time>
      </trkpt>
      <trkpt lat="47.8348850" lon="-1.8121442">
        <ele>6.003</ele>
        <time>2018-08-29T09:07:23.323Z</time>
      </trkpt>
      <trkpt lat="47.8349309" lon="-1.8120168">
        <ele>6.397</ele>
        <time>2018-08-29T09:07:26.136Z</time>
      </trkpt>
      <trkpt lat="47.8349815" lon="-1.8118899">
        <ele>6.619</ele>
        <time>2018-08-29T09:07:28.932Z</time>
      </trkpt>
      <trkpt lat="47.8350119" lon="-1.8117371">
        <ele>6.557</ele>
        <time>2018-08-29T09:07:31.831Z</time>
      </trkpt>
      <trkpt lat="47.8350244" lon="-1.8115552">
        <ele>6.254</ele>
        <time>2018-08-29T09:07:34.985Z</time>
      </trkpt>
      <trkpt lat="47.8350338" lon="-1.8113596">
        <ele>5.667</ele>
        <time>2018-08-29T09:07:38.202Z</time>
      </trkpt>
      <trkpt lat="47.8350290" lon="-1.8111736">
        <ele>5.432</ele>
        <time>2018-08-29T09:07:41.113Z</time>
      </trkpt>
      <trkpt lat="47.8350210" lon="-1.8110362">
        <ele>5.131</ele>
        <time>2018-08-29T09:07:43.250Z</time>
      </trkpt>
      <trkpt lat="47.8350102" lon="-1.8108690">
        <ele>4.833</ele>
        <time>2018-08-29T09:07:45.830Z</time>
      </trkpt>
      <trkpt lat="47.8349958" lon="-1.8106698">
        <ele>4.625</ele>
        <time>2018-08-29T09:07:48.866Z</time>
      </trkpt>
      <trkpt lat="47.8349801" lon="-1.8105343">
        <ele>4.507</ele>
        <time>2018-08-29T09:07:50.970Z</time>
      </trkpt>
      <trkpt lat="47.8349754" lon="-1.8103302">
        <ele>4.463</ele>
        <time>2018-08-29T09:07:54.264Z</time>
      </trkpt>
      <trkpt lat="47.8349860" lon="-1.8101818">
        <ele>4.483</ele>
        <time>2018-08-29T09:07:56.889Z</time>
      </trkpt>
      <trkpt lat="47.8350175" lon="-1.8100530">
        <ele>4.360</ele>
        <time>2018-08-29T09:07:59.455Z</time>
      </trkpt>
      <trkpt lat="47.8350425" lon="-1.8099069">
        <ele>3.966</ele>
        <time>2018-08-29T09:08:02.407Z</time>
      </trkpt>
      <trkpt lat="47.8350660" lon="-1.8097669">
        <ele>3.681</ele>
        <time>2018-08-29T09:08:05.356Z</time>
      </trkpt>
      <trkpt lat="47.8350800" lon="-1.8096256">
        <ele>3.834</ele>
        <time>2018-08-29T09:08:08.239Z</time>
      </trkpt>
      <trkpt lat="47.8351083" lon="-1.8094552">
        <ele>4.127</ele>
        <time>2018-08-29T09:08:11.512Z</time>
      </trkpt>
      <trkpt lat="47.8351334" lon="-1.8092658">
        <ele>4.217</ele>
        <time>2018-08-29T09:08:14.897Z</time>
      </trkpt>
      <trkpt lat="47.8351747" lon="-1.8090888">
        <ele>4.049</ele>
        <time>2018-08-29T09:08:18.141Z</time>
      </trkpt>
      <trkpt lat="47.8352196" lon="-1.8089327">
        <ele>3.988</ele>
        <time>2018-08-29T09:08:21.070Z</time>
      </trkpt>
      <trkpt lat="47.8352334" lon="-1.8087493">
        <ele>3.932</ele>
        <time>2018-08-29T09:08:24.254Z</time>
      </trkpt>
      <trkpt lat="47.8352615" lon="-1.8085871">
        <ele>3.847</ele>
        <time>2018-08-29T09:08:27.174Z</time>
      </trkpt>
      <trkpt lat="47.8352942" lon="-1.8084285">
        <ele>3.716</ele>
        <time>2018-08-29T09:08:30.107Z</time>
      </trkpt>
      <trkpt lat="47.8353274" lon="-1.8082851">
        <ele>3.549</ele>
        <time>2018-08-29T09:08:32.791Z</time>
      </trkpt>
      <trkpt lat="47.8353597" lon="-1.8081216">
        <ele>3.420</ele>
        <time>2018-08-29T09:08:35.796Z</time>
      </trkpt>
      <trkpt lat="47.8353806" lon="-1.8079535">
        <ele>3.444</ele>
        <time>2018-08-29T09:08:38.871Z</time>
      </trkpt>
      <trkpt lat="47.8353953" lon="-1.8077931">
        <ele>3.623</ele>
        <time>2018-08-29T09:08:41.877Z</time>
      </trkpt>
      <trkpt lat="47.8354082" lon="-1.8076455">
        <ele>3.840</ele>
        <time>2018-08-29T09:08:44.667Z</time>
      </trkpt>
      <trkpt lat="47.8354166" lon="-1.8074836">
        <ele>3.974</ele>
        <time>2018-08-29T09:08:47.624Z</time>
      </trkpt>
      <trkpt lat="47.8354216" lon="-1.8072972">
        <ele>4.014</ele>
        <time>2018-08-29T09:08:50.940Z</time>
      </trkpt>
      <trkpt lat="47.8354413" lon="-1.8071279">
        <ele>4.006</ele>
        <time>2018-08-29T09:08:53.992Z</time>
      </trkpt>
      <trkpt lat="47.8354462" lon="-1.8069476">
        <ele>4.000</ele>
        <time>2018-08-29T09:08:57.248Z</time>
      </trkpt>
      <trkpt lat="47.8354587" lon="-1.8068052">
        <ele>4.006</ele>
        <time>2018-08-29T09:08:59.857Z</time>
      </trkpt>
      <trkpt lat="47.8354680" lon="-1.8066370">
        <ele>3.983</ele>
        <time>2018-08-29T09:09:02.874Z</time>
      </trkpt>
      <trkpt lat="47.8354634" lon="-1.8064628">
        <ele>3.924</ele>
        <time>2018-08-29T09:09:05.923Z</time>
      </trkpt>
      <trkpt lat="47.8354560" lon="-1.8062825">
        <ele>3.887</ele>
        <time>2018-08-29T09:09:09.065Z</time>
      </trkpt>
      <trkpt lat="47.8354512" lon="-1.8061164">
        <ele>3.898</ele>
        <time>2018-08-29T09:09:11.971Z</time>
      </trkpt>
      <trkpt lat="47.8354619" lon="-1.8059427">
        <ele>3.911</ele>
        <time>2018-08-29T09:09:15.026Z</time>
      </trkpt>
      <trkpt lat="47.8354718" lon="-1.8057722">
        <ele>3.886</ele>
        <time>2018-08-29T09:09:18.038Z</time>
      </trkpt>
      <trkpt lat="47.8354884" lon="-1.8056139">
        <ele>3.866</ele>
        <time>2018-08-29T09:09:20.875Z</time>
      </trkpt>
      <trkpt lat="47.8355077" lon="-1.8054404">
        <ele>3.922</ele>
        <time>2018-08-29T09:09:24.032Z</time>
      </trkpt>
      <trkpt lat="47.8355432" lon="-1.8052923">
        <ele>4.069</ele>
        <time>2018-08-29T09:09:26.922Z</time>
      </trkpt>
      <trkpt lat="47.8355749" lon="-1.8051455">
        <ele>4.245</ele>
        <time>2018-08-29T09:09:29.820Z</time>
      </trkpt>
      <trkpt lat="47.8356058" lon="-1.8050001">
        <ele>4.332</ele>
        <time>2018-08-29T09:09:32.739Z</time>
      </trkpt>
      <trkpt lat="47.8356249" lon="-1.8048527">
        <ele>4.285</ele>
        <time>2018-08-29T09:09:35.606Z</time>
      </trkpt>
      <trkpt lat="47.8356437" lon="-1.8046896">
        <ele>4.245</ele>
        <time>2018-08-29T09:09:38.691Z</time>
      </trkpt>
      <trkpt lat="47.8356658" lon="-1.8045293">
        <ele>4.325</ele>
        <time>2018-08-29T09:09:41.678Z</time>
      </trkpt>
      <trkpt lat="47.8356894" lon="-1.8043725">
        <ele>4.443</ele>
        <time>2018-08-29T09:09:44.532Z</time>
      </trkpt>
      <trkpt lat="47.8357159" lon="-1.8041969">
        <ele>4.348</ele>
        <time>2018-08-29T09:09:47.633Z</time>
      </trkpt>
      <trkpt lat="47.8357286" lon="-1.8040172">
        <ele>3.961</ele>
        <time>2018-08-29T09:09:50.728Z</time>
      </trkpt>
      <trkpt lat="47.8357497" lon="-1.8038589">
        <ele>3.643</ele>
        <time>2018-08-29T09:09:53.522Z</time>
      </trkpt>
      <trkpt lat="47.8357662" lon="-1.8036984">
        <ele>3.690</ele>
        <time>2018-08-29T09:09:56.367Z</time>
      </trkpt>
      <trkpt lat="47.8357853" lon="-1.8035341">
        <ele>3.911</ele>
        <time>2018-08-29T09:09:59.292Z</time>
      </trkpt>
      <trkpt lat="47.8358074" lon="-1.8033676">
        <ele>4.038</ele>
        <time>2018-08-29T09:10:02.233Z</time>
      </trkpt>
      <trkpt lat="47.8358433" lon="-1.8031967">
        <ele>4.050</ele>
        <time>2018-08-29T09:10:05.253Z</time>
      </trkpt>
      <trkpt lat="47.8358775" lon="-1.8030221">
        <ele>4.064</ele>
        <time>2018-08-29T09:10:08.240Z</time>
      </trkpt>
      <trkpt lat="47.8359176" lon="-1.8028394">
        <ele>4.178</ele>
        <time>2018-08-29T09:10:11.360Z</time>
      </trkpt>
      <trkpt lat="47.8359518" lon="-1.8026752">
        <ele>4.370</ele>
        <time>2018-08-29T09:10:14.169Z</time>
      </trkpt>
      <trkpt lat="47.8359907" lon="-1.8025076">
        <ele>4.605</ele>
        <time>2018-08-29T09:10:17.125Z</time>
      </trkpt>
      <trkpt lat="47.8360303" lon="-1.8023502">
        <ele>4.788</ele>
        <time>2018-08-29T09:10:19.989Z</time>
      </trkpt>
      <trkpt lat="47.8360710" lon="-1.8021959">
        <ele>4.793</ele>
        <time>2018-08-29T09:10:22.832Z</time>
      </trkpt>
      <trkpt lat="47.8361150" lon="-1.8020361">
        <ele>4.603</ele>
        <time>2018-08-29T09:10:25.782Z</time>
      </trkpt>
      <trkpt lat="47.8361632" lon="-1.8018825">
        <ele>4.341</ele>
        <time>2018-08-29T09:10:28.660Z</time>
      </trkpt>
      <trkpt lat="47.8362169" lon="-1.8017311">
        <ele>4.165</ele>
        <time>2018-08-29T09:10:31.576Z</time>
      </trkpt>
      <trkpt lat="47.8362721" lon="-1.8015829">
        <ele>4.168</ele>
        <time>2018-08-29T09:10:34.502Z</time>
      </trkpt>
      <trkpt lat="47.8363213" lon="-1.8014297">
        <ele>4.298</ele>
        <time>2018-08-29T09:10:37.492Z</time>
      </trkpt>
      <trkpt lat="47.8363682" lon="-1.8012882">
        <ele>4.450</ele>
        <time>2018-08-29T09:10:40.322Z</time>
      </trkpt>
      <trkpt lat="47.8364081" lon="-1.8011359">
        <ele>4.547</ele>
        <time>2018-08-29T09:10:43.246Z</time>
      </trkpt>
      <trkpt lat="47.8364409" lon="-1.8009657">
        <ele>4.591</ele>
        <time>2018-08-29T09:10:46.356Z</time>
      </trkpt>
      <trkpt lat="47.8364697" lon="-1.8007967">
        <ele>4.682</ele>
        <time>2018-08-29T09:10:49.356Z</time>
      </trkpt>
      <trkpt lat="47.8365035" lon="-1.8006292">
        <ele>4.858</ele>
        <time>2018-08-29T09:10:52.281Z</time>
      </trkpt>
      <trkpt lat="47.8365346" lon="-1.8004446">
        <ele>5.044</ele>
        <time>2018-08-29T09:10:55.385Z</time>
      </trkpt>
      <trkpt lat="47.8365667" lon="-1.8002713">
        <ele>5.149</ele>
        <time>2018-08-29T09:10:58.337Z</time>
      </trkpt>
      <trkpt lat="47.8366000" lon="-1.8001183">
        <ele>5.121</ele>
        <time>2018-08-29T09:11:01.111Z</time>
      </trkpt>
      <trkpt lat="47.8366506" lon="-1.7999947">
        <ele>4.993</ele>
        <time>2018-08-29T09:11:03.737Z</time>
      </trkpt>
      <trkpt lat="47.8367007" lon="-1.7998526">
        <ele>4.875</ele>
        <time>2018-08-29T09:11:06.732Z</time>
      </trkpt>
      <trkpt lat="47.8367512" lon="-1.7997092">
        <ele>4.805</ele>
        <time>2018-08-29T09:11:09.765Z</time>
      </trkpt>
      <trkpt lat="47.8368008" lon="-1.7995765">
        <ele>4.746</ele>
        <time>2018-08-29T09:11:12.603Z</time>
      </trkpt>
      <trkpt lat="47.8368477" lon="-1.7994333">
        <ele>4.670</ele>
        <time>2018-08-29T09:11:15.576Z</time>
      </trkpt>
      <trkpt lat="47.8368851" lon="-1.7992826">
        <ele>4.563</ele>
        <time>2018-08-29T09:11:18.580Z</time>
      </trkpt>
      <trkpt lat="47.8369263" lon="-1.7991401">
        <ele>4.438</ele>
        <time>2018-08-29T09:11:21.475Z</time>
      </trkpt>
      <trkpt lat="47.8369757" lon="-1.7989887">
        <ele>4.351</ele>
        <time>2018-08-29T09:11:24.559Z</time>
      </trkpt>
      <trkpt lat="47.8370269" lon="-1.7988263">
        <ele>4.413</ele>
        <time>2018-08-29T09:11:27.761Z</time>
      </trkpt>
      <trkpt lat="47.8370748" lon="-1.7986763">
        <ele>4.660</ele>
        <time>2018-08-29T09:11:30.686Z</time>
      </trkpt>
      <trkpt lat="47.8371279" lon="-1.7985220">
        <ele>4.942</ele>
        <time>2018-08-29T09:11:33.735Z</time>
      </trkpt>
      <trkpt lat="47.8371817" lon="-1.7983822">
        <ele>5.081</ele>
        <time>2018-08-29T09:11:36.606Z</time>
      </trkpt>
      <trkpt lat="47.8372337" lon="-1.7982525">
        <ele>5.072</ele>
        <time>2018-08-29T09:11:39.393Z</time>
      </trkpt>
      <trkpt lat="47.8373020" lon="-1.7981076">
        <ele>5.064</ele>
        <time>2018-08-29T09:11:42.801Z</time>
      </trkpt>
      <trkpt lat="47.8373565" lon="-1.7979940">
        <ele>5.165</ele>
        <time>2018-08-29T09:11:45.625Z</time>
      </trkpt>
      <trkpt lat="47.8374013" lon="-1.7978618">
        <ele>5.250</ele>
        <time>2018-08-29T09:11:48.635Z</time>
      </trkpt>
      <trkpt lat="47.8374331" lon="-1.7977044">
        <ele>5.190</ele>
        <time>2018-08-29T09:11:51.891Z</time>
      </trkpt>
      <trkpt lat="47.8374654" lon="-1.7975519">
        <ele>5.098</ele>
        <time>2018-08-29T09:11:54.970Z</time>
      </trkpt>
      <trkpt lat="47.8374920" lon="-1.7974001">
        <ele>5.100</ele>
        <time>2018-08-29T09:11:57.927Z</time>
      </trkpt>
      <trkpt lat="47.8375166" lon="-1.7972260">
        <ele>5.173</ele>
        <time>2018-08-29T09:12:01.184Z</time>
      </trkpt>
      <trkpt lat="47.8375463" lon="-1.7970593">
        <ele>5.326</ele>
        <time>2018-08-29T09:12:04.241Z</time>
      </trkpt>
      <trkpt lat="47.8375710" lon="-1.7968861">
        <ele>5.581</ele>
        <time>2018-08-29T09:12:07.307Z</time>
      </trkpt>
      <trkpt lat="47.8375855" lon="-1.7967231">
        <ele>5.885</ele>
        <time>2018-08-29T09:12:10.150Z</time>
      </trkpt>
      <trkpt lat="47.8376004" lon="-1.7965650">
        <ele>6.156</ele>
        <time>2018-08-29T09:12:12.951Z</time>
      </trkpt>
      <trkpt lat="47.8376154" lon="-1.7964103">
        <ele>6.311</ele>
        <time>2018-08-29T09:12:15.761Z</time>
      </trkpt>
      <trkpt lat="47.8376445" lon="-1.7962755">
        <ele>6.319</ele>
        <time>2018-08-29T09:12:18.393Z</time>
      </trkpt>
      <trkpt lat="47.8376791" lon="-1.7961276">
        <ele>6.259</ele>
        <time>2018-08-29T09:12:21.406Z</time>
      </trkpt>
      <trkpt lat="47.8377008" lon="-1.7959652">
        <ele>6.180</ele>
        <time>2018-08-29T09:12:24.591Z</time>
      </trkpt>
      <trkpt lat="47.8377230" lon="-1.7958293">
        <ele>6.083</ele>
        <time>2018-08-29T09:12:27.269Z</time>
      </trkpt>
      <trkpt lat="47.8377400" lon="-1.7956795">
        <ele>5.985</ele>
        <time>2018-08-29T09:12:30.203Z</time>
      </trkpt>
      <trkpt lat="47.8377432" lon="-1.7955163">
        <ele>5.907</ele>
        <time>2018-08-29T09:12:33.349Z</time>
      </trkpt>
      <trkpt lat="47.8377408" lon="-1.7953619">
        <ele>5.793</ele>
        <time>2018-08-29T09:12:36.335Z</time>
      </trkpt>
      <trkpt lat="47.8377330" lon="-1.7952283">
        <ele>5.612</ele>
        <time>2018-08-29T09:12:39.000Z</time>
      </trkpt>
      <trkpt lat="47.8377330" lon="-1.7952283">
        <ele>5.480</ele>
        <time>2018-08-29T09:12:41.000Z</time>
      </trkpt>
      <trkpt lat="47.8377330" lon="-1.7952283">
        <ele>5.482</ele>
        <time>2018-08-29T09:21:32.996Z</time>
      </trkpt>
      <trkpt lat="47.8377102" lon="-1.7949908">
        <ele>5.530</ele>
        <time>2018-08-29T09:23:28.549Z</time>
      </trkpt>
      <trkpt lat="47.8376692" lon="-1.7948673">
        <ele>5.532</ele>
        <time>2018-08-29T09:23:39.000Z</time>
      </trkpt>
      <trkpt lat="47.8376692" lon="-1.7948673">
        <ele>5.508</ele>
        <time>2018-08-29T09:23:40.000Z</time>
      </trkpt>
      <trkpt lat="47.8376692" lon="-1.7948673">
        <ele>5.504</ele>
        <time>2018-08-29T09:23:40.100Z</time>
      </trkpt>
      <trkpt lat="47.8376069" lon="-1.7946379">
        <ele>5.514</ele>
        <time>2018-08-29T09:23:48.939Z</time>
      </trkpt>
      <trkpt lat="47.8375537" lon="-1.7945272">
        <ele>5.520</ele>
        <time>2018-08-29T09:23:52.060Z</time>
      </trkpt>
      <trkpt lat="47.8375087" lon="-1.7944099">
        <ele>5.523</ele>
        <time>2018-08-29T09:23:54.991Z</time>
      </trkpt>
      <trkpt lat="47.8374658" lon="-1.7942813">
        <ele>5.535</ele>
        <time>2018-08-29T09:23:58.045Z</time>
      </trkpt>
      <trkpt lat="47.8374017" lon="-1.7941298">
        <ele>5.563</ele>
        <time>2018-08-29T09:24:01.885Z</time>
      </trkpt>
      <trkpt lat="47.8373512" lon="-1.7940184">
        <ele>5.608</ele>
        <time>2018-08-29T09:24:04.780Z</time>
      </trkpt>
      <trkpt lat="47.8373129" lon="-1.7938914">
        <ele>5.652</ele>
        <time>2018-08-29T09:24:07.728Z</time>
      </trkpt>
      <trkpt lat="47.8372603" lon="-1.7937642">
        <ele>5.644</ele>
        <time>2018-08-29T09:24:10.783Z</time>
      </trkpt>
      <trkpt lat="47.8371894" lon="-1.7936469">
        <ele>5.538</ele>
        <time>2018-08-29T09:24:13.899Z</time>
      </trkpt>
      <trkpt lat="47.8371067" lon="-1.7935399">
        <ele>5.348</ele>
        <time>2018-08-29T09:24:17.054Z</time>
      </trkpt>
      <trkpt lat="47.8370176" lon="-1.7934514">
        <ele>5.151</ele>
        <time>2018-08-29T09:24:20.177Z</time>
      </trkpt>
      <trkpt lat="47.8369363" lon="-1.7933811">
        <ele>5.016</ele>
        <time>2018-08-29T09:24:22.985Z</time>
      </trkpt>
      <trkpt lat="47.8368450" lon="-1.7933255">
        <ele>4.946</ele>
        <time>2018-08-29T09:24:25.960Z</time>
      </trkpt>
      <trkpt lat="47.8367477" lon="-1.7932872">
        <ele>4.902</ele>
        <time>2018-08-29T09:24:28.934Z</time>
      </trkpt>
      <trkpt lat="47.8366381" lon="-1.7932539">
        <ele>4.873</ele>
        <time>2018-08-29T09:24:32.095Z</time>
      </trkpt>
      <trkpt lat="47.8365292" lon="-1.7932173">
        <ele>4.934</ele>
        <time>2018-08-29T09:24:35.123Z</time>
      </trkpt>
      <trkpt lat="47.8364163" lon="-1.7931854">
        <ele>5.132</ele>
        <time>2018-08-29T09:24:38.174Z</time>
      </trkpt>
      <trkpt lat="47.8363088" lon="-1.7931446">
        <ele>5.426</ele>
        <time>2018-08-29T09:24:41.128Z</time>
      </trkpt>
      <trkpt lat="47.8362061" lon="-1.7930970">
        <ele>5.724</ele>
        <time>2018-08-29T09:24:44.068Z</time>
      </trkpt>
      <trkpt lat="47.8361158" lon="-1.7930350">
        <ele>5.914</ele>
        <time>2018-08-29T09:24:46.863Z</time>
      </trkpt>
      <trkpt lat="47.8360279" lon="-1.7929602">
        <ele>5.946</ele>
        <time>2018-08-29T09:24:49.744Z</time>
      </trkpt>
      <trkpt lat="47.8359408" lon="-1.7928686">
        <ele>5.893</ele>
        <time>2018-08-29T09:24:52.757Z</time>
      </trkpt>
      <trkpt lat="47.8358540" lon="-1.7927696">
        <ele>5.827</ele>
        <time>2018-08-29T09:24:55.803Z</time>
      </trkpt>
      <trkpt lat="47.8357749" lon="-1.7926523">
        <ele>5.783</ele>
        <time>2018-08-29T09:24:58.868Z</time>
      </trkpt>
      <trkpt lat="47.8357011" lon="-1.7925325">
        <ele>5.793</ele>
        <time>2018-08-29T09:25:01.845Z</time>
      </trkpt>
      <trkpt lat="47.8356357" lon="-1.7924071">
        <ele>5.935</ele>
        <time>2018-08-29T09:25:04.746Z</time>
      </trkpt>
      <trkpt lat="47.8355752" lon="-1.7922734">
        <ele>6.216</ele>
        <time>2018-08-29T09:25:07.686Z</time>
      </trkpt>
      <trkpt lat="47.8355176" lon="-1.7921345">
        <ele>6.476</ele>
        <time>2018-08-29T09:25:10.675Z</time>
      </trkpt>
      <trkpt lat="47.8354703" lon="-1.7919904">
        <ele>6.603</ele>
        <time>2018-08-29T09:25:13.677Z</time>
      </trkpt>
      <trkpt lat="47.8354385" lon="-1.7918449">
        <ele>6.563</ele>
        <time>2018-08-29T09:25:16.626Z</time>
      </trkpt>
      <trkpt lat="47.8354179" lon="-1.7917005">
        <ele>6.337</ele>
        <time>2018-08-29T09:25:19.515Z</time>
      </trkpt>
      <trkpt lat="47.8354004" lon="-1.7915503">
        <ele>6.036</ele>
        <time>2018-08-29T09:25:22.514Z</time>
      </trkpt>
      <trkpt lat="47.8353901" lon="-1.7913958">
        <ele>5.848</ele>
        <time>2018-08-29T09:25:25.585Z</time>
      </trkpt>
      <trkpt lat="47.8353934" lon="-1.7912413">
        <ele>5.829</ele>
        <time>2018-08-29T09:25:28.656Z</time>
      </trkpt>
      <trkpt lat="47.8354007" lon="-1.7910881">
        <ele>5.902</ele>
        <time>2018-08-29T09:25:31.704Z</time>
      </trkpt>
      <trkpt lat="47.8354095" lon="-1.7909422">
        <ele>5.971</ele>
        <time>2018-08-29T09:25:34.561Z</time>
      </trkpt>
      <trkpt lat="47.8354266" lon="-1.7907839">
        <ele>6.069</ele>
        <time>2018-08-29T09:25:37.584Z</time>
      </trkpt>
      <trkpt lat="47.8354520" lon="-1.7906216">
        <ele>6.245</ele>
        <time>2018-08-29T09:25:40.659Z</time>
      </trkpt>
      <trkpt lat="47.8354857" lon="-1.7904790">
        <ele>6.412</ele>
        <time>2018-08-29T09:25:43.438Z</time>
      </trkpt>
      <trkpt lat="47.8355249" lon="-1.7903320">
        <ele>6.475</ele>
        <time>2018-08-29T09:25:46.354Z</time>
      </trkpt>
      <trkpt lat="47.8355720" lon="-1.7901918">
        <ele>6.393</ele>
        <time>2018-08-29T09:25:49.247Z</time>
      </trkpt>
      <trkpt lat="47.8356315" lon="-1.7900412">
        <ele>6.115</ele>
        <time>2018-08-29T09:25:52.447Z</time>
      </trkpt>
      <trkpt lat="47.8356843" lon="-1.7898961">
        <ele>5.663</ele>
        <time>2018-08-29T09:25:55.514Z</time>
      </trkpt>
      <trkpt lat="47.8357346" lon="-1.7897656">
        <ele>5.164</ele>
        <time>2018-08-29T09:25:58.413Z</time>
      </trkpt>
      <trkpt lat="47.8357817" lon="-1.7896425">
        <ele>4.778</ele>
        <time>2018-08-29T09:26:01.241Z</time>
      </trkpt>
      <trkpt lat="47.8358281" lon="-1.7895207">
        <ele>4.604</ele>
        <time>2018-08-29T09:26:04.111Z</time>
      </trkpt>
      <trkpt lat="47.8358691" lon="-1.7893886">
        <ele>4.612</ele>
        <time>2018-08-29T09:26:07.084Z</time>
      </trkpt>
      <trkpt lat="47.8359275" lon="-1.7892554">
        <ele>4.700</ele>
        <time>2018-08-29T09:26:10.321Z</time>
      </trkpt>
      <trkpt lat="47.8359752" lon="-1.7891384">
        <ele>4.719</ele>
        <time>2018-08-29T09:26:13.212Z</time>
      </trkpt>
      <trkpt lat="47.8360225" lon="-1.7889827">
        <ele>4.574</ele>
        <time>2018-08-29T09:26:16.954Z</time>
      </trkpt>
      <trkpt lat="47.8360798" lon="-1.7888747">
        <ele>4.294</ele>
        <time>2018-08-29T09:26:19.959Z</time>
      </trkpt>
      <trkpt lat="47.8361411" lon="-1.7887422">
        <ele>3.981</ele>
        <time>2018-08-29T09:26:23.312Z</time>
      </trkpt>
      <trkpt lat="47.8362017" lon="-1.7886038">
        <ele>3.780</ele>
        <time>2018-08-29T09:26:26.673Z</time>
      </trkpt>
      <trkpt lat="47.8362540" lon="-1.7884828">
        <ele>3.770</ele>
        <time>2018-08-29T09:26:29.596Z</time>
      </trkpt>
      <trkpt lat="47.8362945" lon="-1.7883554">
        <ele>3.854</ele>
        <time>2018-08-29T09:26:32.445Z</time>
      </trkpt>
      <trkpt lat="47.8363318" lon="-1.7882132">
        <ele>3.908</ele>
        <time>2018-08-29T09:26:35.495Z</time>
      </trkpt>
      <trkpt lat="47.8363674" lon="-1.7880747">
        <ele>3.912</ele>
        <time>2018-08-29T09:26:38.402Z</time>
      </trkpt>
      <trkpt lat="47.8364099" lon="-1.7879190">
        <ele>3.901</ele>
        <time>2018-08-29T09:26:41.622Z</time>
      </trkpt>
      <trkpt lat="47.8364496" lon="-1.7877675">
        <ele>3.858</ele>
        <time>2018-08-29T09:26:44.678Z</time>
      </trkpt>
      <trkpt lat="47.8364839" lon="-1.7876123">
        <ele>3.705</ele>
        <time>2018-08-29T09:26:47.686Z</time>
      </trkpt>
      <trkpt lat="47.8365198" lon="-1.7874527">
        <ele>3.399</ele>
        <time>2018-08-29T09:26:50.731Z</time>
      </trkpt>
      <trkpt lat="47.8365596" lon="-1.7872936">
        <ele>2.965</ele>
        <time>2018-08-29T09:26:53.747Z</time>
      </trkpt>
      <trkpt lat="47.8366018" lon="-1.7871348">
        <ele>2.503</ele>
        <time>2018-08-29T09:26:56.763Z</time>
      </trkpt>
      <trkpt lat="47.8366465" lon="-1.7869793">
        <ele>2.165</ele>
        <time>2018-08-29T09:26:59.769Z</time>
      </trkpt>
      <trkpt lat="47.8366911" lon="-1.7868249">
        <ele>2.043</ele>
        <time>2018-08-29T09:27:02.811Z</time>
      </trkpt>
      <trkpt lat="47.8367401" lon="-1.7866856">
        <ele>2.106</ele>
        <time>2018-08-29T09:27:05.735Z</time>
      </trkpt>
      <trkpt lat="47.8367937" lon="-1.7865563">
        <ele>2.277</ele>
        <time>2018-08-29T09:27:08.621Z</time>
      </trkpt>
      <trkpt lat="47.8368469" lon="-1.7864299">
        <ele>2.517</ele>
        <time>2018-08-29T09:27:11.477Z</time>
      </trkpt>
      <trkpt lat="47.8369107" lon="-1.7863049">
        <ele>2.804</ele>
        <time>2018-08-29T09:27:14.443Z</time>
      </trkpt>
      <trkpt lat="47.8369858" lon="-1.7861721">
        <ele>3.126</ele>
        <time>2018-08-29T09:27:17.645Z</time>
      </trkpt>
      <trkpt lat="47.8370633" lon="-1.7860502">
        <ele>3.456</ele>
        <time>2018-08-29T09:27:20.714Z</time>
      </trkpt>
      <trkpt lat="47.8371451" lon="-1.7859424">
        <ele>3.604</ele>
        <time>2018-08-29T09:27:23.695Z</time>
      </trkpt>
      <trkpt lat="47.8372316" lon="-1.7858430">
        <ele>3.453</ele>
        <time>2018-08-29T09:27:26.693Z</time>
      </trkpt>
      <trkpt lat="47.8373186" lon="-1.7857522">
        <ele>3.205</ele>
        <time>2018-08-29T09:27:29.632Z</time>
      </trkpt>
      <trkpt lat="47.8374053" lon="-1.7856561">
        <ele>3.026</ele>
        <time>2018-08-29T09:27:32.639Z</time>
      </trkpt>
      <trkpt lat="47.8374942" lon="-1.7855562">
        <ele>2.891</ele>
        <time>2018-08-29T09:27:35.725Z</time>
      </trkpt>
      <trkpt lat="47.8375826" lon="-1.7854585">
        <ele>2.743</ele>
        <time>2018-08-29T09:27:38.752Z</time>
      </trkpt>
      <trkpt lat="47.8376695" lon="-1.7853629">
        <ele>2.572</ele>
        <time>2018-08-29T09:27:41.692Z</time>
      </trkpt>
      <trkpt lat="47.8377563" lon="-1.7852642">
        <ele>2.433</ele>
        <time>2018-08-29T09:27:44.619Z</time>
      </trkpt>
      <trkpt lat="47.8378475" lon="-1.7851613">
        <ele>2.371</ele>
        <time>2018-08-29T09:27:47.707Z</time>
      </trkpt>
      <trkpt lat="47.8379313" lon="-1.7850804">
        <ele>2.359</ele>
        <time>2018-08-29T09:27:50.497Z</time>
      </trkpt>
      <trkpt lat="47.8380111" lon="-1.7849948">
        <ele>2.375</ele>
        <time>2018-08-29T09:27:53.337Z</time>
      </trkpt>
      <trkpt lat="47.8380899" lon="-1.7849052">
        <ele>2.521</ele>
        <time>2018-08-29T09:27:56.224Z</time>
      </trkpt>
      <trkpt lat="47.8381739" lon="-1.7848107">
        <ele>2.844</ele>
        <time>2018-08-29T09:27:59.238Z</time>
      </trkpt>
      <trkpt lat="47.8382622" lon="-1.7847104">
        <ele>3.198</ele>
        <time>2018-08-29T09:28:02.347Z</time>
      </trkpt>
      <trkpt lat="47.8383539" lon="-1.7846109">
        <ele>3.440</ele>
        <time>2018-08-29T09:28:05.478Z</time>
      </trkpt>
      <trkpt lat="47.8384454" lon="-1.7845246">
        <ele>3.542</ele>
        <time>2018-08-29T09:28:08.453Z</time>
      </trkpt>
      <trkpt lat="47.8385376" lon="-1.7844387">
        <ele>3.506</ele>
        <time>2018-08-29T09:28:11.412Z</time>
      </trkpt>
      <trkpt lat="47.8386316" lon="-1.7843431">
        <ele>3.345</ele>
        <time>2018-08-29T09:28:14.471Z</time>
      </trkpt>
      <trkpt lat="47.8387248" lon="-1.7842513">
        <ele>3.083</ele>
        <time>2018-08-29T09:28:17.462Z</time>
      </trkpt>
      <trkpt lat="47.8388186" lon="-1.7841620">
        <ele>2.830</ele>
        <time>2018-08-29T09:28:20.448Z</time>
      </trkpt>
      <trkpt lat="47.8389093" lon="-1.7840837">
        <ele>2.826</ele>
        <time>2018-08-29T09:28:23.283Z</time>
      </trkpt>
      <trkpt lat="47.8390053" lon="-1.7840077">
        <ele>3.168</ele>
        <time>2018-08-29T09:28:26.257Z</time>
      </trkpt>
      <trkpt lat="47.8390943" lon="-1.7839339">
        <ele>3.669</ele>
        <time>2018-08-29T09:28:29.093Z</time>
      </trkpt>
      <trkpt lat="47.8391816" lon="-1.7838542">
        <ele>4.119</ele>
        <time>2018-08-29T09:28:32.006Z</time>
      </trkpt>
      <trkpt lat="47.8392713" lon="-1.7837879">
        <ele>4.464</ele>
        <time>2018-08-29T09:28:34.898Z</time>
      </trkpt>
      <trkpt lat="47.8393608" lon="-1.7837177">
        <ele>4.690</ele>
        <time>2018-08-29T09:28:37.876Z</time>
      </trkpt>
      <trkpt lat="47.8394485" lon="-1.7836629">
        <ele>4.799</ele>
        <time>2018-08-29T09:28:40.725Z</time>
      </trkpt>
      <trkpt lat="47.8395438" lon="-1.7836057">
        <ele>4.771</ele>
        <time>2018-08-29T09:28:43.761Z</time>
      </trkpt>
      <trkpt lat="47.8396428" lon="-1.7835311">
        <ele>4.632</ele>
        <time>2018-08-29T09:28:46.886Z</time>
      </trkpt>
      <trkpt lat="47.8397505" lon="-1.7834416">
        <ele>4.489</ele>
        <time>2018-08-29T09:28:50.135Z</time>
      </trkpt>
      <trkpt lat="47.8398614" lon="-1.7833557">
        <ele>4.373</ele>
        <time>2018-08-29T09:28:53.286Z</time>
      </trkpt>
      <trkpt lat="47.8399745" lon="-1.7832818">
        <ele>4.242</ele>
        <time>2018-08-29T09:28:56.379Z</time>
      </trkpt>
      <trkpt lat="47.8400830" lon="-1.7832194">
        <ele>4.106</ele>
        <time>2018-08-29T09:28:59.311Z</time>
      </trkpt>
      <trkpt lat="47.8401893" lon="-1.7831665">
        <ele>3.932</ele>
        <time>2018-08-29T09:29:02.194Z</time>
      </trkpt>
      <trkpt lat="47.8402913" lon="-1.7831216">
        <ele>3.692</ele>
        <time>2018-08-29T09:29:05.006Z</time>
      </trkpt>
      <trkpt lat="47.8403928" lon="-1.7830650">
        <ele>3.491</ele>
        <time>2018-08-29T09:29:07.911Z</time>
      </trkpt>
      <trkpt lat="47.8404921" lon="-1.7830000">
        <ele>3.440</ele>
        <time>2018-08-29T09:29:10.851Z</time>
      </trkpt>
      <trkpt lat="47.8405909" lon="-1.7829339">
        <ele>3.516</ele>
        <time>2018-08-29T09:29:13.810Z</time>
      </trkpt>
      <trkpt lat="47.8406903" lon="-1.7828719">
        <ele>3.673</ele>
        <time>2018-08-29T09:29:16.784Z</time>
      </trkpt>
      <trkpt lat="47.8407900" lon="-1.7828202">
        <ele>3.889</ele>
        <time>2018-08-29T09:29:19.749Z</time>
      </trkpt>
      <trkpt lat="47.8408862" lon="-1.7827777">
        <ele>4.113</ele>
        <time>2018-08-29T09:29:22.656Z</time>
      </trkpt>
      <trkpt lat="47.8409755" lon="-1.7827586">
        <ele>4.317</ele>
        <time>2018-08-29T09:29:25.342Z</time>
      </trkpt>
      <trkpt lat="47.8410747" lon="-1.7827339">
        <ele>4.556</ele>
        <time>2018-08-29T09:29:28.336Z</time>
      </trkpt>
      <trkpt lat="47.8411774" lon="-1.7827019">
        <ele>4.819</ele>
        <time>2018-08-29T09:29:31.430Z</time>
      </trkpt>
      <trkpt lat="47.8412799" lon="-1.7826782">
        <ele>5.005</ele>
        <time>2018-08-29T09:29:34.459Z</time>
      </trkpt>
      <trkpt lat="47.8413863" lon="-1.7826587">
        <ele>5.125</ele>
        <time>2018-08-29T09:29:37.557Z</time>
      </trkpt>
      <trkpt lat="47.8414900" lon="-1.7826513">
        <ele>5.260</ele>
        <time>2018-08-29T09:29:40.552Z</time>
      </trkpt>
      <trkpt lat="47.8415901" lon="-1.7826426">
        <ele>5.375</ele>
        <time>2018-08-29T09:29:43.502Z</time>
      </trkpt>
      <trkpt lat="47.8416827" lon="-1.7826379">
        <ele>5.411</ele>
        <time>2018-08-29T09:29:46.327Z</time>
      </trkpt>
      <trkpt lat="47.8417726" lon="-1.7826291">
        <ele>5.416</ele>
        <time>2018-08-29T09:29:49.204Z</time>
      </trkpt>
      <trkpt lat="47.8418807" lon="-1.7826303">
        <ele>5.440</ele>
        <time>2018-08-29T09:29:52.806Z</time>
      </trkpt>
      <trkpt lat="47.8419912" lon="-1.7826213">
        <ele>5.474</ele>
        <time>2018-08-29T09:29:56.626Z</time>
      </trkpt>
      <trkpt lat="47.8421090" lon="-1.7826087">
        <ele>5.525</ele>
        <time>2018-08-29T09:30:00.706Z</time>
      </trkpt>
      <trkpt lat="47.8422001" lon="-1.7826025">
        <ele>5.614</ele>
        <time>2018-08-29T09:30:03.801Z</time>
      </trkpt>
      <trkpt lat="47.8423173" lon="-1.7825942">
        <ele>5.660</ele>
        <time>2018-08-29T09:30:07.737Z</time>
      </trkpt>
      <trkpt lat="47.8424085" lon="-1.7825824">
        <ele>5.596</ele>
        <time>2018-08-29T09:30:10.762Z</time>
      </trkpt>
      <trkpt lat="47.8425028" lon="-1.7825675">
        <ele>5.535</ele>
        <time>2018-08-29T09:30:13.815Z</time>
      </trkpt>
      <trkpt lat="47.8426044" lon="-1.7825537">
        <ele>5.584</ele>
        <time>2018-08-29T09:30:16.981Z</time>
      </trkpt>
      <trkpt lat="47.8427049" lon="-1.7825432">
        <ele>5.707</ele>
        <time>2018-08-29T09:30:20.040Z</time>
      </trkpt>
      <trkpt lat="47.8428013" lon="-1.7825399">
        <ele>5.877</ele>
        <time>2018-08-29T09:30:23.014Z</time>
      </trkpt>
      <trkpt lat="47.8429167" lon="-1.7825460">
        <ele>6.082</ele>
        <time>2018-08-29T09:30:26.699Z</time>
      </trkpt>
      <trkpt lat="47.8430274" lon="-1.7825591">
        <ele>6.229</ele>
        <time>2018-08-29T09:30:30.408Z</time>
      </trkpt>
      <trkpt lat="47.8431393" lon="-1.7825678">
        <ele>6.264</ele>
        <time>2018-08-29T09:30:34.300Z</time>
      </trkpt>
      <trkpt lat="47.8432432" lon="-1.7825877">
        <ele>6.237</ele>
        <time>2018-08-29T09:30:38.062Z</time>
      </trkpt>
      <trkpt lat="47.8433534" lon="-1.7826013">
        <ele>6.215</ele>
        <time>2018-08-29T09:30:42.079Z</time>
      </trkpt>
      <trkpt lat="47.8434450" lon="-1.7826062">
        <ele>6.239</ele>
        <time>2018-08-29T09:30:45.307Z</time>
      </trkpt>
      <trkpt lat="47.8435405" lon="-1.7825925">
        <ele>6.338</ele>
        <time>2018-08-29T09:30:48.522Z</time>
      </trkpt>
      <trkpt lat="47.8436383" lon="-1.7825696">
        <ele>6.490</ele>
        <time>2018-08-29T09:30:51.657Z</time>
      </trkpt>
      <trkpt lat="47.8437427" lon="-1.7825393">
        <ele>6.597</ele>
        <time>2018-08-29T09:30:54.845Z</time>
      </trkpt>
      <trkpt lat="47.8438431" lon="-1.7825089">
        <ele>6.605</ele>
        <time>2018-08-29T09:30:57.835Z</time>
      </trkpt>
      <trkpt lat="47.8439352" lon="-1.7824877">
        <ele>6.599</ele>
        <time>2018-08-29T09:31:00.565Z</time>
      </trkpt>
      <trkpt lat="47.8440287" lon="-1.7824632">
        <ele>6.680</ele>
        <time>2018-08-29T09:31:03.384Z</time>
      </trkpt>
      <trkpt lat="47.8441251" lon="-1.7824333">
        <ele>6.889</ele>
        <time>2018-08-29T09:31:06.337Z</time>
      </trkpt>
      <trkpt lat="47.8442205" lon="-1.7824133">
        <ele>7.194</ele>
        <time>2018-08-29T09:31:09.247Z</time>
      </trkpt>
      <trkpt lat="47.8443160" lon="-1.7823936">
        <ele>7.480</ele>
        <time>2018-08-29T09:31:12.167Z</time>
      </trkpt>
      <trkpt lat="47.8444170" lon="-1.7823579">
        <ele>7.649</ele>
        <time>2018-08-29T09:31:15.302Z</time>
      </trkpt>
      <trkpt lat="47.8445156" lon="-1.7823170">
        <ele>7.712</ele>
        <time>2018-08-29T09:31:18.364Z</time>
      </trkpt>
      <trkpt lat="47.8446153" lon="-1.7822790">
        <ele>7.741</ele>
        <time>2018-08-29T09:31:21.413Z</time>
      </trkpt>
      <trkpt lat="47.8447173" lon="-1.7822419">
        <ele>7.818</ele>
        <time>2018-08-29T09:31:24.493Z</time>
      </trkpt>
      <trkpt lat="47.8448201" lon="-1.7822090">
        <ele>7.954</ele>
        <time>2018-08-29T09:31:27.535Z</time>
      </trkpt>
      <trkpt lat="47.8449226" lon="-1.7821862">
        <ele>8.096</ele>
        <time>2018-08-29T09:31:30.516Z</time>
      </trkpt>
      <trkpt lat="47.8450200" lon="-1.7821768">
        <ele>8.233</ele>
        <time>2018-08-29T09:31:33.362Z</time>
      </trkpt>
      <trkpt lat="47.8451152" lon="-1.7821805">
        <ele>8.364</ele>
        <time>2018-08-29T09:31:36.215Z</time>
      </trkpt>
      <trkpt lat="47.8452068" lon="-1.7821804">
        <ele>8.368</ele>
        <time>2018-08-29T09:31:39.057Z</time>
      </trkpt>
      <trkpt lat="47.8453277" lon="-1.7821825">
        <ele>8.182</ele>
        <time>2018-08-29T09:31:42.927Z</time>
      </trkpt>
      <trkpt lat="47.8454251" lon="-1.7821877">
        <ele>7.959</ele>
        <time>2018-08-29T09:31:46.061Z</time>
      </trkpt>
      <trkpt lat="47.8455305" lon="-1.7821849">
        <ele>7.871</ele>
        <time>2018-08-29T09:31:49.353Z</time>
      </trkpt>
      <trkpt lat="47.8456327" lon="-1.7821733">
        <ele>7.943</ele>
        <time>2018-08-29T09:31:52.472Z</time>
      </trkpt>
      <trkpt lat="47.8457277" lon="-1.7821686">
        <ele>8.106</ele>
        <time>2018-08-29T09:31:55.381Z</time>
      </trkpt>
      <trkpt lat="47.8458443" lon="-1.7821667">
        <ele>8.249</ele>
        <time>2018-08-29T09:31:59.033Z</time>
      </trkpt>
      <trkpt lat="47.8459357" lon="-1.7821668">
        <ele>8.318</ele>
        <time>2018-08-29T09:32:01.983Z</time>
      </trkpt>
      <trkpt lat="47.8460493" lon="-1.7821674">
        <ele>8.323</ele>
        <time>2018-08-29T09:32:05.707Z</time>
      </trkpt>
      <trkpt lat="47.8461484" lon="-1.7821805">
        <ele>8.287</ele>
        <time>2018-08-29T09:32:08.961Z</time>
      </trkpt>
      <trkpt lat="47.8462382" lon="-1.7821874">
        <ele>8.233</ele>
        <time>2018-08-29T09:32:11.878Z</time>
      </trkpt>
      <trkpt lat="47.8463311" lon="-1.7822165">
        <ele>8.186</ele>
        <time>2018-08-29T09:32:14.959Z</time>
      </trkpt>
      <trkpt lat="47.8464228" lon="-1.7822074">
        <ele>8.164</ele>
        <time>2018-08-29T09:32:18.000Z</time>
      </trkpt>
      <trkpt lat="47.8464228" lon="-1.7822074">
        <ele>8.169</ele>
        <time>2018-08-29T09:32:21.000Z</time>
      </trkpt>
      <trkpt lat="47.8464228" lon="-1.7822074">
        <ele>8.179</ele>
        <time>2018-08-29T09:32:31.504Z</time>
      </trkpt>
      <trkpt lat="47.8466478" lon="-1.7821609">
        <ele>8.176</ele>
        <time>2018-08-29T09:32:47.423Z</time>
      </trkpt>
      <trkpt lat="47.8467511" lon="-1.7821704">
        <ele>8.138</ele>
        <time>2018-08-29T09:32:51.125Z</time>
      </trkpt>
      <trkpt lat="47.8468487" lon="-1.7821850">
        <ele>7.825</ele>
        <time>2018-08-29T09:32:54.344Z</time>
      </trkpt>
      <trkpt lat="47.8469397" lon="-1.7821981">
        <ele>6.922</ele>
        <time>2018-08-29T09:32:57.149Z</time>
      </trkpt>
      <trkpt lat="47.8470364" lon="-1.7821960">
        <ele>5.699</ele>
        <time>2018-08-29T09:32:59.929Z</time>
      </trkpt>
      <trkpt lat="47.8471413" lon="-1.7821988">
        <ele>4.919</ele>
        <time>2018-08-29T09:33:02.852Z</time>
      </trkpt>
      <trkpt lat="47.8472355" lon="-1.7821983">
        <ele>4.857</ele>
        <time>2018-08-29T09:33:05.500Z</time>
      </trkpt>
      <trkpt lat="47.8473294" lon="-1.7822043">
        <ele>5.046</ele>
        <time>2018-08-29T09:33:08.166Z</time>
      </trkpt>
      <trkpt lat="47.8474263" lon="-1.7822313">
        <ele>4.978</ele>
        <time>2018-08-29T09:33:10.958Z</time>
      </trkpt>
      <trkpt lat="47.8475181" lon="-1.7822825">
        <ele>4.648</ele>
        <time>2018-08-29T09:33:13.856Z</time>
      </trkpt>
      <trkpt lat="47.8476248" lon="-1.7823146">
        <ele>4.276</ele>
        <time>2018-08-29T09:33:17.193Z</time>
      </trkpt>
      <trkpt lat="47.8477094" lon="-1.7823618">
        <ele>3.851</ele>
        <time>2018-08-29T09:33:20.049Z</time>
      </trkpt>
      <trkpt lat="47.8478258" lon="-1.7824076">
        <ele>3.349</ele>
        <time>2018-08-29T09:33:23.875Z</time>
      </trkpt>
      <trkpt lat="47.8479166" lon="-1.7824384">
        <ele>3.038</ele>
        <time>2018-08-29T09:33:26.815Z</time>
      </trkpt>
      <trkpt lat="47.8480052" lon="-1.7824612">
        <ele>3.076</ele>
        <time>2018-08-29T09:33:29.613Z</time>
      </trkpt>
      <trkpt lat="47.8481015" lon="-1.7824911">
        <ele>3.251</ele>
        <time>2018-08-29T09:33:32.614Z</time>
      </trkpt>
      <trkpt lat="47.8481989" lon="-1.7825180">
        <ele>3.351</ele>
        <time>2018-08-29T09:33:35.518Z</time>
      </trkpt>
      <trkpt lat="47.8483026" lon="-1.7825504">
        <ele>3.383</ele>
        <time>2018-08-29T09:33:38.519Z</time>
      </trkpt>
      <trkpt lat="47.8483961" lon="-1.7825520">
        <ele>3.415</ele>
        <time>2018-08-29T09:33:41.143Z</time>
      </trkpt>
      <trkpt lat="47.8484928" lon="-1.7825394">
        <ele>3.412</ele>
        <time>2018-08-29T09:33:43.909Z</time>
      </trkpt>
      <trkpt lat="47.8486103" lon="-1.7825418">
        <ele>3.336</ele>
        <time>2018-08-29T09:33:47.328Z</time>
      </trkpt>
      <trkpt lat="47.8487054" lon="-1.7825223">
        <ele>3.298</ele>
        <time>2018-08-29T09:33:50.192Z</time>
      </trkpt>
      <trkpt lat="47.8488130" lon="-1.7825074">
        <ele>3.390</ele>
        <time>2018-08-29T09:33:53.348Z</time>
      </trkpt>
      <trkpt lat="47.8489200" lon="-1.7824810">
        <ele>3.513</ele>
        <time>2018-08-29T09:33:56.381Z</time>
      </trkpt>
      <trkpt lat="47.8490293" lon="-1.7824524">
        <ele>3.482</ele>
        <time>2018-08-29T09:33:59.363Z</time>
      </trkpt>
      <trkpt lat="47.8491282" lon="-1.7824312">
        <ele>3.220</ele>
        <time>2018-08-29T09:34:02.000Z</time>
      </trkpt>
      <trkpt lat="47.8491282" lon="-1.7824312">
        <ele>2.863</ele>
        <time>2018-08-29T09:34:06.000Z</time>
      </trkpt>
      <trkpt lat="47.8491282" lon="-1.7824312">
        <ele>2.655</ele>
        <time>2018-08-29T09:35:05.312Z</time>
      </trkpt>
      <trkpt lat="47.8493205" lon="-1.7823767">
        <ele>2.703</ele>
        <time>2018-08-29T09:35:17.553Z</time>
      </trkpt>
      <trkpt lat="47.8494148" lon="-1.7823119">
        <ele>2.898</ele>
        <time>2018-08-29T09:35:20.798Z</time>
      </trkpt>
      <trkpt lat="47.8495122" lon="-1.7822229">
        <ele>3.066</ele>
        <time>2018-08-29T09:35:24.055Z</time>
      </trkpt>
      <trkpt lat="47.8496074" lon="-1.7821093">
        <ele>3.160</ele>
        <time>2018-08-29T09:35:27.280Z</time>
      </trkpt>
      <trkpt lat="47.8496866" lon="-1.7819636">
        <ele>3.175</ele>
        <time>2018-08-29T09:35:30.445Z</time>
      </trkpt>
      <trkpt lat="47.8497663" lon="-1.7818194">
        <ele>3.089</ele>
        <time>2018-08-29T09:35:33.570Z</time>
      </trkpt>
      <trkpt lat="47.8498351" lon="-1.7816952">
        <ele>2.834</ele>
        <time>2018-08-29T09:35:36.297Z</time>
      </trkpt>
      <trkpt lat="47.8499081" lon="-1.7815684">
        <ele>2.415</ele>
        <time>2018-08-29T09:35:39.161Z</time>
      </trkpt>
      <trkpt lat="47.8499931" lon="-1.7814479">
        <ele>2.101</ele>
        <time>2018-08-29T09:35:42.204Z</time>
      </trkpt>
      <trkpt lat="47.8500758" lon="-1.7813312">
        <ele>2.100</ele>
        <time>2018-08-29T09:35:45.190Z</time>
      </trkpt>
      <trkpt lat="47.8501611" lon="-1.7812268">
        <ele>2.001</ele>
        <time>2018-08-29T09:35:48.123Z</time>
      </trkpt>
      <trkpt lat="47.8502486" lon="-1.7811229">
        <ele>1.460</ele>
        <time>2018-08-29T09:35:51.146Z</time>
      </trkpt>
      <trkpt lat="47.8503318" lon="-1.7810282">
        <ele>0.868</ele>
        <time>2018-08-29T09:35:54.033Z</time>
      </trkpt>
      <trkpt lat="47.8504151" lon="-1.7809334">
        <ele>0.870</ele>
        <time>2018-08-29T09:35:56.962Z</time>
      </trkpt>
      <trkpt lat="47.8504985" lon="-1.7808405">
        <ele>1.511</ele>
        <time>2018-08-29T09:35:59.884Z</time>
      </trkpt>
      <trkpt lat="47.8505812" lon="-1.7807382">
        <ele>2.277</ele>
        <time>2018-08-29T09:36:02.877Z</time>
      </trkpt>
      <trkpt lat="47.8506628" lon="-1.7806307">
        <ele>2.744</ele>
        <time>2018-08-29T09:36:05.868Z</time>
      </trkpt>
      <trkpt lat="47.8507477" lon="-1.7805215">
        <ele>2.944</ele>
        <time>2018-08-29T09:36:08.913Z</time>
      </trkpt>
      <trkpt lat="47.8508358" lon="-1.7804241">
        <ele>3.062</ele>
        <time>2018-08-29T09:36:11.879Z</time>
      </trkpt>
      <trkpt lat="47.8509207" lon="-1.7803244">
        <ele>3.205</ele>
        <time>2018-08-29T09:36:14.802Z</time>
      </trkpt>
      <trkpt lat="47.8510055" lon="-1.7802207">
        <ele>3.327</ele>
        <time>2018-08-29T09:36:17.769Z</time>
      </trkpt>
      <trkpt lat="47.8510903" lon="-1.7801118">
        <ele>3.380</ele>
        <time>2018-08-29T09:36:20.778Z</time>
      </trkpt>
      <trkpt lat="47.8511749" lon="-1.7799951">
        <ele>3.389</ele>
        <time>2018-08-29T09:36:23.825Z</time>
      </trkpt>
      <trkpt lat="47.8512636" lon="-1.7798812">
        <ele>3.365</ele>
        <time>2018-08-29T09:36:26.925Z</time>
      </trkpt>
      <trkpt lat="47.8513418" lon="-1.7797782">
        <ele>3.311</ele>
        <time>2018-08-29T09:36:29.753Z</time>
      </trkpt>
      <trkpt lat="47.8514150" lon="-1.7796717">
        <ele>3.258</ele>
        <time>2018-08-29T09:36:32.586Z</time>
      </trkpt>
      <trkpt lat="47.8514889" lon="-1.7795609">
        <ele>3.174</ele>
        <time>2018-08-29T09:36:35.549Z</time>
      </trkpt>
      <trkpt lat="47.8515668" lon="-1.7794571">
        <ele>3.015</ele>
        <time>2018-08-29T09:36:38.588Z</time>
      </trkpt>
      <trkpt lat="47.8516348" lon="-1.7793616">
        <ele>2.929</ele>
        <time>2018-08-29T09:36:41.373Z</time>
      </trkpt>
      <trkpt lat="47.8517084" lon="-1.7792639">
        <ele>3.039</ele>
        <time>2018-08-29T09:36:44.341Z</time>
      </trkpt>
      <trkpt lat="47.8517835" lon="-1.7791665">
        <ele>3.165</ele>
        <time>2018-08-29T09:36:47.312Z</time>
      </trkpt>
      <trkpt lat="47.8518621" lon="-1.7790597">
        <ele>3.115</ele>
        <time>2018-08-29T09:36:50.417Z</time>
      </trkpt>
      <trkpt lat="47.8519438" lon="-1.7789603">
        <ele>2.955</ele>
        <time>2018-08-29T09:36:53.461Z</time>
      </trkpt>
      <trkpt lat="47.8520254" lon="-1.7788672">
        <ele>2.823</ele>
        <time>2018-08-29T09:36:56.439Z</time>
      </trkpt>
      <trkpt lat="47.8521094" lon="-1.7787784">
        <ele>2.759</ele>
        <time>2018-08-29T09:36:59.486Z</time>
      </trkpt>
      <trkpt lat="47.8521882" lon="-1.7787079">
        <ele>2.743</ele>
        <time>2018-08-29T09:37:02.268Z</time>
      </trkpt>
      <trkpt lat="47.8522759" lon="-1.7786301">
        <ele>2.755</ele>
        <time>2018-08-29T09:37:05.356Z</time>
      </trkpt>
      <trkpt lat="47.8523658" lon="-1.7785632">
        <ele>2.848</ele>
        <time>2018-08-29T09:37:08.413Z</time>
      </trkpt>
      <trkpt lat="47.8524495" lon="-1.7785063">
        <ele>3.094</ele>
        <time>2018-08-29T09:37:11.255Z</time>
      </trkpt>
      <trkpt lat="47.8525322" lon="-1.7784447">
        <ele>3.435</ele>
        <time>2018-08-29T09:37:14.130Z</time>
      </trkpt>
      <trkpt lat="47.8526181" lon="-1.7783912">
        <ele>3.710</ele>
        <time>2018-08-29T09:37:17.023Z</time>
      </trkpt>
      <trkpt lat="47.8527066" lon="-1.7783457">
        <ele>3.841</ele>
        <time>2018-08-29T09:37:19.937Z</time>
      </trkpt>
      <trkpt lat="47.8527971" lon="-1.7782865">
        <ele>3.888</ele>
        <time>2018-08-29T09:37:22.960Z</time>
      </trkpt>
      <trkpt lat="47.8528942" lon="-1.7782357">
        <ele>3.994</ele>
        <time>2018-08-29T09:37:26.096Z</time>
      </trkpt>
      <trkpt lat="47.8529799" lon="-1.7781825">
        <ele>4.203</ele>
        <time>2018-08-29T09:37:28.966Z</time>
      </trkpt>
      <trkpt lat="47.8530653" lon="-1.7781236">
        <ele>4.405</ele>
        <time>2018-08-29T09:37:31.842Z</time>
      </trkpt>
      <trkpt lat="47.8531643" lon="-1.7780728">
        <ele>4.498</ele>
        <time>2018-08-29T09:37:34.912Z</time>
      </trkpt>
      <trkpt lat="47.8532747" lon="-1.7780245">
        <ele>4.498</ele>
        <time>2018-08-29T09:37:38.136Z</time>
      </trkpt>
      <trkpt lat="47.8533861" lon="-1.7779838">
        <ele>4.477</ele>
        <time>2018-08-29T09:37:41.264Z</time>
      </trkpt>
      <trkpt lat="47.8534951" lon="-1.7779582">
        <ele>4.499</ele>
        <time>2018-08-29T09:37:44.251Z</time>
      </trkpt>
      <trkpt lat="47.8536061" lon="-1.7779486">
        <ele>4.588</ele>
        <time>2018-08-29T09:37:47.265Z</time>
      </trkpt>
      <trkpt lat="47.8537165" lon="-1.7779499">
        <ele>4.727</ele>
        <time>2018-08-29T09:37:50.290Z</time>
      </trkpt>
      <trkpt lat="47.8538219" lon="-1.7779529">
        <ele>4.864</ele>
        <time>2018-08-29T09:37:53.234Z</time>
      </trkpt>
      <trkpt lat="47.8539234" lon="-1.7779410">
        <ele>4.954</ele>
        <time>2018-08-29T09:37:56.080Z</time>
      </trkpt>
      <trkpt lat="47.8540351" lon="-1.7779318">
        <ele>4.953</ele>
        <time>2018-08-29T09:37:59.188Z</time>
      </trkpt>
      <trkpt lat="47.8541361" lon="-1.7779247">
        <ele>4.841</ele>
        <time>2018-08-29T09:38:02.063Z</time>
      </trkpt>
      <trkpt lat="47.8542330" lon="-1.7779121">
        <ele>4.653</ele>
        <time>2018-08-29T09:38:04.916Z</time>
      </trkpt>
      <trkpt lat="47.8543259" lon="-1.7778868">
        <ele>4.445</ele>
        <time>2018-08-29T09:38:07.754Z</time>
      </trkpt>
      <trkpt lat="47.8544215" lon="-1.7778581">
        <ele>4.277</ele>
        <time>2018-08-29T09:38:10.729Z</time>
      </trkpt>
      <trkpt lat="47.8545155" lon="-1.7778352">
        <ele>4.269</ele>
        <time>2018-08-29T09:38:13.637Z</time>
      </trkpt>
      <trkpt lat="47.8546101" lon="-1.7778105">
        <ele>4.468</ele>
        <time>2018-08-29T09:38:16.545Z</time>
      </trkpt>
      <trkpt lat="47.8547083" lon="-1.7777875">
        <ele>4.744</ele>
        <time>2018-08-29T09:38:19.512Z</time>
      </trkpt>
      <trkpt lat="47.8548112" lon="-1.7777513">
        <ele>4.942</ele>
        <time>2018-08-29T09:38:22.598Z</time>
      </trkpt>
      <trkpt lat="47.8549123" lon="-1.7777033">
        <ele>5.124</ele>
        <time>2018-08-29T09:38:25.645Z</time>
      </trkpt>
      <trkpt lat="47.8550100" lon="-1.7776520">
        <ele>5.445</ele>
        <time>2018-08-29T09:38:28.607Z</time>
      </trkpt>
      <trkpt lat="47.8551071" lon="-1.7775933">
        <ele>5.848</ele>
        <time>2018-08-29T09:38:31.602Z</time>
      </trkpt>
      <trkpt lat="47.8552026" lon="-1.7775382">
        <ele>6.069</ele>
        <time>2018-08-29T09:38:34.519Z</time>
      </trkpt>
      <trkpt lat="47.8553071" lon="-1.7774905">
        <ele>6.018</ele>
        <time>2018-08-29T09:38:37.554Z</time>
      </trkpt>
      <trkpt lat="47.8554144" lon="-1.7774206">
        <ele>5.861</ele>
        <time>2018-08-29T09:38:40.692Z</time>
      </trkpt>
      <trkpt lat="47.8555191" lon="-1.7773511">
        <ele>5.755</ele>
        <time>2018-08-29T09:38:43.688Z</time>
      </trkpt>
      <trkpt lat="47.8556244" lon="-1.7772865">
        <ele>5.698</ele>
        <time>2018-08-29T09:38:46.656Z</time>
      </trkpt>
      <trkpt lat="47.8557202" lon="-1.7772244">
        <ele>5.668</ele>
        <time>2018-08-29T09:38:49.454Z</time>
      </trkpt>
      <trkpt lat="47.8558153" lon="-1.7771826">
        <ele>5.692</ele>
        <time>2018-08-29T09:38:52.220Z</time>
      </trkpt>
      <trkpt lat="47.8559091" lon="-1.7771353">
        <ele>5.765</ele>
        <time>2018-08-29T09:38:55.079Z</time>
      </trkpt>
      <trkpt lat="47.8560012" lon="-1.7770848">
        <ele>5.795</ele>
        <time>2018-08-29T09:38:57.973Z</time>
      </trkpt>
      <trkpt lat="47.8560951" lon="-1.7770294">
        <ele>5.725</ele>
        <time>2018-08-29T09:39:00.990Z</time>
      </trkpt>
      <trkpt lat="47.8561869" lon="-1.7769721">
        <ele>5.605</ele>
        <time>2018-08-29T09:39:04.002Z</time>
      </trkpt>
      <trkpt lat="47.8562775" lon="-1.7769215">
        <ele>5.458</ele>
        <time>2018-08-29T09:39:06.986Z</time>
      </trkpt>
      <trkpt lat="47.8563660" lon="-1.7768757">
        <ele>5.285</ele>
        <time>2018-08-29T09:39:09.913Z</time>
      </trkpt>
      <trkpt lat="47.8564513" lon="-1.7768212">
        <ele>5.114</ele>
        <time>2018-08-29T09:39:12.839Z</time>
      </trkpt>
      <trkpt lat="47.8565385" lon="-1.7767624">
        <ele>4.964</ele>
        <time>2018-08-29T09:39:15.832Z</time>
      </trkpt>
      <trkpt lat="47.8566274" lon="-1.7766916">
        <ele>4.861</ele>
        <time>2018-08-29T09:39:18.911Z</time>
      </trkpt>
      <trkpt lat="47.8567277" lon="-1.7766322">
        <ele>4.811</ele>
        <time>2018-08-29T09:39:22.097Z</time>
      </trkpt>
      <trkpt lat="47.8568251" lon="-1.7765661">
        <ele>4.770</ele>
        <time>2018-08-29T09:39:25.209Z</time>
      </trkpt>
      <trkpt lat="47.8569134" lon="-1.7765183">
        <ele>4.773</ele>
        <time>2018-08-29T09:39:27.939Z</time>
      </trkpt>
      <trkpt lat="47.8570073" lon="-1.7764624">
        <ele>4.908</ele>
        <time>2018-08-29T09:39:30.887Z</time>
      </trkpt>
      <trkpt lat="47.8570964" lon="-1.7764155">
        <ele>5.159</ele>
        <time>2018-08-29T09:39:33.668Z</time>
      </trkpt>
      <trkpt lat="47.8571888" lon="-1.7763777">
        <ele>5.407</ele>
        <time>2018-08-29T09:39:36.505Z</time>
      </trkpt>
      <trkpt lat="47.8572871" lon="-1.7763279">
        <ele>5.577</ele>
        <time>2018-08-29T09:39:39.548Z</time>
      </trkpt>
      <trkpt lat="47.8573888" lon="-1.7762874">
        <ele>5.650</ele>
        <time>2018-08-29T09:39:42.592Z</time>
      </trkpt>
      <trkpt lat="47.8574868" lon="-1.7762445">
        <ele>5.638</ele>
        <time>2018-08-29T09:39:45.549Z</time>
      </trkpt>
      <trkpt lat="47.8575785" lon="-1.7761965">
        <ele>5.597</ele>
        <time>2018-08-29T09:39:48.443Z</time>
      </trkpt>
      <trkpt lat="47.8576892" lon="-1.7761691">
        <ele>5.561</ele>
        <time>2018-08-29T09:39:51.938Z</time>
      </trkpt>
      <trkpt lat="47.8577997" lon="-1.7761308">
        <ele>5.487</ele>
        <time>2018-08-29T09:39:55.668Z</time>
      </trkpt>
      <trkpt lat="47.8579152" lon="-1.7761074">
        <ele>5.327</ele>
        <time>2018-08-29T09:39:59.601Z</time>
      </trkpt>
      <trkpt lat="47.8580102" lon="-1.7760969">
        <ele>5.138</ele>
        <time>2018-08-29T09:40:02.792Z</time>
      </trkpt>
      <trkpt lat="47.8581093" lon="-1.7760825">
        <ele>5.009</ele>
        <time>2018-08-29T09:40:06.010Z</time>
      </trkpt>
      <trkpt lat="47.8582085" lon="-1.7760703">
        <ele>4.959</ele>
        <time>2018-08-29T09:40:09.104Z</time>
      </trkpt>
      <trkpt lat="47.8583138" lon="-1.7760673">
        <ele>4.957</ele>
        <time>2018-08-29T09:40:12.277Z</time>
      </trkpt>
      <trkpt lat="47.8584182" lon="-1.7760682">
        <ele>5.043</ele>
        <time>2018-08-29T09:40:15.361Z</time>
      </trkpt>
      <trkpt lat="47.8585225" lon="-1.7760637">
        <ele>5.278</ele>
        <time>2018-08-29T09:40:18.404Z</time>
      </trkpt>
      <trkpt lat="47.8586205" lon="-1.7760617">
        <ele>5.573</ele>
        <time>2018-08-29T09:40:21.264Z</time>
      </trkpt>
      <trkpt lat="47.8587206" lon="-1.7760607">
        <ele>5.768</ele>
        <time>2018-08-29T09:40:24.199Z</time>
      </trkpt>
      <trkpt lat="47.8588213" lon="-1.7760840">
        <ele>5.723</ele>
        <time>2018-08-29T09:40:27.206Z</time>
      </trkpt>
      <trkpt lat="47.8589268" lon="-1.7761038">
        <ele>5.356</ele>
        <time>2018-08-29T09:40:30.331Z</time>
      </trkpt>
      <trkpt lat="47.8590320" lon="-1.7761275">
        <ele>4.840</ele>
        <time>2018-08-29T09:40:33.386Z</time>
      </trkpt>
      <trkpt lat="47.8591460" lon="-1.7761556">
        <ele>4.502</ele>
        <time>2018-08-29T09:40:36.589Z</time>
      </trkpt>
      <trkpt lat="47.8592558" lon="-1.7761790">
        <ele>4.460</ele>
        <time>2018-08-29T09:40:39.589Z</time>
      </trkpt>
      <trkpt lat="47.8593595" lon="-1.7762102">
        <ele>4.589</ele>
        <time>2018-08-29T09:40:42.432Z</time>
      </trkpt>
      <trkpt lat="47.8594690" lon="-1.7762375">
        <ele>4.725</ele>
        <time>2018-08-29T09:40:45.425Z</time>
      </trkpt>
      <trkpt lat="47.8595709" lon="-1.7762546">
        <ele>4.795</ele>
        <time>2018-08-29T09:40:48.234Z</time>
      </trkpt>
      <trkpt lat="47.8596718" lon="-1.7762752">
        <ele>4.806</ele>
        <time>2018-08-29T09:40:51.094Z</time>
      </trkpt>
      <trkpt lat="47.8597622" lon="-1.7763009">
        <ele>4.761</ele>
        <time>2018-08-29T09:40:53.806Z</time>
      </trkpt>
      <trkpt lat="47.8598552" lon="-1.7763417">
        <ele>4.672</ele>
        <time>2018-08-29T09:40:56.850Z</time>
      </trkpt>
      <trkpt lat="47.8599563" lon="-1.7763627">
        <ele>4.592</ele>
        <time>2018-08-29T09:41:00.618Z</time>
      </trkpt>
      <trkpt lat="47.8600700" lon="-1.7763979">
        <ele>4.527</ele>
        <time>2018-08-29T09:41:05.212Z</time>
      </trkpt>
      <trkpt lat="47.8601626" lon="-1.7763974">
        <ele>4.446</ele>
        <time>2018-08-29T09:41:08.812Z</time>
      </trkpt>
      <trkpt lat="47.8602604" lon="-1.7763991">
        <ele>4.422</ele>
        <time>2018-08-29T09:41:12.309Z</time>
      </trkpt>
      <trkpt lat="47.8603521" lon="-1.7763919">
        <ele>4.520</ele>
        <time>2018-08-29T09:41:15.393Z</time>
      </trkpt>
      <trkpt lat="47.8604480" lon="-1.7763892">
        <ele>4.694</ele>
        <time>2018-08-29T09:41:18.503Z</time>
      </trkpt>
      <trkpt lat="47.8605381" lon="-1.7763938">
        <ele>4.899</ele>
        <time>2018-08-29T09:41:21.416Z</time>
      </trkpt>
      <trkpt lat="47.8606317" lon="-1.7763975">
        <ele>5.108</ele>
        <time>2018-08-29T09:41:24.473Z</time>
      </trkpt>
      <trkpt lat="47.8607507" lon="-1.7764093">
        <ele>5.260</ele>
        <time>2018-08-29T09:41:28.420Z</time>
      </trkpt>
      <trkpt lat="47.8608535" lon="-1.7764093">
        <ele>5.313</ele>
        <time>2018-08-29T09:41:31.952Z</time>
      </trkpt>
      <trkpt lat="47.8609510" lon="-1.7764108">
        <ele>5.255</ele>
        <time>2018-08-29T09:41:35.520Z</time>
      </trkpt>
      <trkpt lat="47.8610652" lon="-1.7764152">
        <ele>5.159</ele>
        <time>2018-08-29T09:41:39.792Z</time>
      </trkpt>
      <trkpt lat="47.8611766" lon="-1.7764311">
        <ele>5.176</ele>
        <time>2018-08-29T09:41:43.931Z</time>
      </trkpt>
      <trkpt lat="47.8612667" lon="-1.7764441">
        <ele>5.357</ele>
        <time>2018-08-29T09:41:47.181Z</time>
      </trkpt>
      <trkpt lat="47.8613846" lon="-1.7764528">
        <ele>5.616</ele>
        <time>2018-08-29T09:41:51.268Z</time>
      </trkpt>
      <trkpt lat="47.8615021" lon="-1.7764647">
        <ele>5.846</ele>
        <time>2018-08-29T09:41:55.227Z</time>
      </trkpt>
      <trkpt lat="47.8616200" lon="-1.7764663">
        <ele>5.944</ele>
        <time>2018-08-29T09:41:59.134Z</time>
      </trkpt>
      <trkpt lat="47.8617410" lon="-1.7764773">
        <ele>5.869</ele>
        <time>2018-08-29T09:42:03.136Z</time>
      </trkpt>
      <trkpt lat="47.8618324" lon="-1.7764881">
        <ele>5.724</ele>
        <time>2018-08-29T09:42:06.154Z</time>
      </trkpt>
      <trkpt lat="47.8619234" lon="-1.7764990">
        <ele>5.634</ele>
        <time>2018-08-29T09:42:09.139Z</time>
      </trkpt>
      <trkpt lat="47.8620151" lon="-1.7765126">
        <ele>5.653</ele>
        <time>2018-08-29T09:42:12.131Z</time>
      </trkpt>
      <trkpt lat="47.8621109" lon="-1.7765282">
        <ele>5.767</ele>
        <time>2018-08-29T09:42:15.220Z</time>
      </trkpt>
      <trkpt lat="47.8622119" lon="-1.7765519">
        <ele>5.906</ele>
        <time>2018-08-29T09:42:18.390Z</time>
      </trkpt>
      <trkpt lat="47.8623161" lon="-1.7765860">
        <ele>5.978</ele>
        <time>2018-08-29T09:42:21.560Z</time>
      </trkpt>
      <trkpt lat="47.8624144" lon="-1.7766249">
        <ele>5.960</ele>
        <time>2018-08-29T09:42:24.510Z</time>
      </trkpt>
      <trkpt lat="47.8625143" lon="-1.7766647">
        <ele>5.962</ele>
        <time>2018-08-29T09:42:27.487Z</time>
      </trkpt>
      <trkpt lat="47.8626181" lon="-1.7767056">
        <ele>6.133</ele>
        <time>2018-08-29T09:42:30.550Z</time>
      </trkpt>
      <trkpt lat="47.8627251" lon="-1.7767455">
        <ele>6.536</ele>
        <time>2018-08-29T09:42:33.650Z</time>
      </trkpt>
      <trkpt lat="47.8628190" lon="-1.7767912">
        <ele>7.089</ele>
        <time>2018-08-29T09:42:36.430Z</time>
      </trkpt>
      <trkpt lat="47.8629105" lon="-1.7768404">
        <ele>7.576</ele>
        <time>2018-08-29T09:42:39.221Z</time>
      </trkpt>
      <trkpt lat="47.8630083" lon="-1.7768761">
        <ele>7.835</ele>
        <time>2018-08-29T09:42:42.169Z</time>
      </trkpt>
      <trkpt lat="47.8630993" lon="-1.7769114">
        <ele>7.926</ele>
        <time>2018-08-29T09:42:44.986Z</time>
      </trkpt>
      <trkpt lat="47.8631909" lon="-1.7769453">
        <ele>7.981</ele>
        <time>2018-08-29T09:42:47.889Z</time>
      </trkpt>
      <trkpt lat="47.8632797" lon="-1.7769727">
        <ele>8.078</ele>
        <time>2018-08-29T09:42:50.730Z</time>
      </trkpt>
      <trkpt lat="47.8633898" lon="-1.7770208">
        <ele>8.302</ele>
        <time>2018-08-29T09:42:54.429Z</time>
      </trkpt>
      <trkpt lat="47.8634851" lon="-1.7770509">
        <ele>8.641</ele>
        <time>2018-08-29T09:42:57.607Z</time>
      </trkpt>
      <trkpt lat="47.8635833" lon="-1.7770721">
        <ele>8.943</ele>
        <time>2018-08-29T09:43:00.815Z</time>
      </trkpt>
      <trkpt lat="47.8636736" lon="-1.7770962">
        <ele>9.158</ele>
        <time>2018-08-29T09:43:03.736Z</time>
      </trkpt>
      <trkpt lat="47.8637643" lon="-1.7771120">
        <ele>9.332</ele>
        <time>2018-08-29T09:43:06.652Z</time>
      </trkpt>
      <trkpt lat="47.8638551" lon="-1.7771117">
        <ele>9.469</ele>
        <time>2018-08-29T09:43:09.569Z</time>
      </trkpt>
      <trkpt lat="47.8639724" lon="-1.7771120">
        <ele>9.541</ele>
        <time>2018-08-29T09:43:13.391Z</time>
      </trkpt>
      <trkpt lat="47.8640838" lon="-1.7771146">
        <ele>9.524</ele>
        <time>2018-08-29T09:43:17.122Z</time>
      </trkpt>
      <trkpt lat="47.8641984" lon="-1.7771299">
        <ele>9.445</ele>
        <time>2018-08-29T09:43:21.063Z</time>
      </trkpt>
      <trkpt lat="47.8642909" lon="-1.7771444">
        <ele>9.395</ele>
        <time>2018-08-29T09:43:24.246Z</time>
      </trkpt>
      <trkpt lat="47.8643870" lon="-1.7771589">
        <ele>9.413</ele>
        <time>2018-08-29T09:43:27.459Z</time>
      </trkpt>
      <trkpt lat="47.8644811" lon="-1.7771797">
        <ele>9.456</ele>
        <time>2018-08-29T09:43:30.509Z</time>
      </trkpt>
      <trkpt lat="47.8645679" lon="-1.7772207">
        <ele>9.479</ele>
        <time>2018-08-29T09:43:33.385Z</time>
      </trkpt>
      <trkpt lat="47.8646644" lon="-1.7772617">
        <ele>9.495</ele>
        <time>2018-08-29T09:43:36.517Z</time>
      </trkpt>
      <trkpt lat="47.8647603" lon="-1.7773044">
        <ele>9.567</ele>
        <time>2018-08-29T09:43:39.575Z</time>
      </trkpt>
      <trkpt lat="47.8648551" lon="-1.7773578">
        <ele>9.740</ele>
        <time>2018-08-29T09:43:42.606Z</time>
      </trkpt>
      <trkpt lat="47.8649719" lon="-1.7774183">
        <ele>9.945</ele>
        <time>2018-08-29T09:43:46.294Z</time>
      </trkpt>
      <trkpt lat="47.8650716" lon="-1.7774505">
        <ele>10.052</ele>
        <time>2018-08-29T09:43:49.362Z</time>
      </trkpt>
      <trkpt lat="47.8651751" lon="-1.7774647">
        <ele>9.986</ele>
        <time>2018-08-29T09:43:52.472Z</time>
      </trkpt>
      <trkpt lat="47.8652663" lon="-1.7774811">
        <ele>9.731</ele>
        <time>2018-08-29T09:43:55.242Z</time>
      </trkpt>
      <trkpt lat="47.8653674" lon="-1.7774954">
        <ele>9.349</ele>
        <time>2018-08-29T09:43:58.351Z</time>
      </trkpt>
      <trkpt lat="47.8654621" lon="-1.7775069">
        <ele>8.959</ele>
        <time>2018-08-29T09:44:01.284Z</time>
      </trkpt>
      <trkpt lat="47.8655544" lon="-1.7775192">
        <ele>8.645</ele>
        <time>2018-08-29T09:44:04.160Z</time>
      </trkpt>
      <trkpt lat="47.8656464" lon="-1.7775297">
        <ele>8.444</ele>
        <time>2018-08-29T09:44:07.043Z</time>
      </trkpt>
      <trkpt lat="47.8657623" lon="-1.7775482">
        <ele>8.425</ele>
        <time>2018-08-29T09:44:10.767Z</time>
      </trkpt>
      <trkpt lat="47.8658570" lon="-1.7775663">
        <ele>8.580</ele>
        <time>2018-08-29T09:44:13.871Z</time>
      </trkpt>
      <trkpt lat="47.8659481" lon="-1.7775807">
        <ele>8.771</ele>
        <time>2018-08-29T09:44:16.869Z</time>
      </trkpt>
      <trkpt lat="47.8660440" lon="-1.7775984">
        <ele>8.906</ele>
        <time>2018-08-29T09:44:19.998Z</time>
      </trkpt>
      <trkpt lat="47.8661461" lon="-1.7776199">
        <ele>9.007</ele>
        <time>2018-08-29T09:44:23.256Z</time>
      </trkpt>
      <trkpt lat="47.8662420" lon="-1.7776443">
        <ele>9.101</ele>
        <time>2018-08-29T09:44:26.239Z</time>
      </trkpt>
      <trkpt lat="47.8663440" lon="-1.7776634">
        <ele>9.192</ele>
        <time>2018-08-29T09:44:29.336Z</time>
      </trkpt>
      <trkpt lat="47.8664423" lon="-1.7776746">
        <ele>9.266</ele>
        <time>2018-08-29T09:44:32.308Z</time>
      </trkpt>
      <trkpt lat="47.8665488" lon="-1.7776950">
        <ele>9.309</ele>
        <time>2018-08-29T09:44:35.695Z</time>
      </trkpt>
      <trkpt lat="47.8666675" lon="-1.7776964">
        <ele>9.327</ele>
        <time>2018-08-29T09:44:39.632Z</time>
      </trkpt>
      <trkpt lat="47.8667788" lon="-1.7777363">
        <ele>9.365</ele>
        <time>2018-08-29T09:44:43.538Z</time>
      </trkpt>
      <trkpt lat="47.8668745" lon="-1.7777188">
        <ele>9.459</ele>
        <time>2018-08-29T09:44:46.931Z</time>
      </trkpt>
      <trkpt lat="47.8669716" lon="-1.7777147">
        <ele>9.457</ele>
        <time>2018-08-29T09:44:50.517Z</time>
      </trkpt>
      <trkpt lat="47.8670631" lon="-1.7777228">
        <ele>9.202</ele>
        <time>2018-08-29T09:44:54.017Z</time>
      </trkpt>
      <trkpt lat="47.8671818" lon="-1.7777353">
        <ele>8.830</ele>
        <time>2018-08-29T09:44:58.410Z</time>
      </trkpt>
      <trkpt lat="47.8672735" lon="-1.7777453">
        <ele>8.610</ele>
        <time>2018-08-29T09:45:01.639Z</time>
      </trkpt>
      <trkpt lat="47.8673762" lon="-1.7777536">
        <ele>8.610</ele>
        <time>2018-08-29T09:45:05.051Z</time>
      </trkpt>
      <trkpt lat="47.8674849" lon="-1.7777556">
        <ele>8.718</ele>
        <time>2018-08-29T09:45:08.434Z</time>
      </trkpt>
      <trkpt lat="47.8675844" lon="-1.7777599">
        <ele>8.837</ele>
        <time>2018-08-29T09:45:11.401Z</time>
      </trkpt>
      <trkpt lat="47.8676788" lon="-1.7777522">
        <ele>8.960</ele>
        <time>2018-08-29T09:45:14.219Z</time>
      </trkpt>
      <trkpt lat="47.8677962" lon="-1.7777226">
        <ele>9.110</ele>
        <time>2018-08-29T09:45:17.864Z</time>
      </trkpt>
      <trkpt lat="47.8678949" lon="-1.7777075">
        <ele>9.266</ele>
        <time>2018-08-29T09:45:20.949Z</time>
      </trkpt>
      <trkpt lat="47.8679963" lon="-1.7777091">
        <ele>9.291</ele>
        <time>2018-08-29T09:45:24.091Z</time>
      </trkpt>
      <trkpt lat="47.8680987" lon="-1.7777131">
        <ele>9.104</ele>
        <time>2018-08-29T09:45:27.225Z</time>
      </trkpt>
      <trkpt lat="47.8682007" lon="-1.7777065">
        <ele>8.844</ele>
        <time>2018-08-29T09:45:30.304Z</time>
      </trkpt>
      <trkpt lat="47.8683017" lon="-1.7776883">
        <ele>8.707</ele>
        <time>2018-08-29T09:45:33.335Z</time>
      </trkpt>
      <trkpt lat="47.8683938" lon="-1.7776763">
        <ele>8.720</ele>
        <time>2018-08-29T09:45:36.108Z</time>
      </trkpt>
      <trkpt lat="47.8684890" lon="-1.7776640">
        <ele>8.819</ele>
        <time>2018-08-29T09:45:39.034Z</time>
      </trkpt>
      <trkpt lat="47.8685882" lon="-1.7776512">
        <ele>8.896</ele>
        <time>2018-08-29T09:45:42.121Z</time>
      </trkpt>
      <trkpt lat="47.8687041" lon="-1.7776289">
        <ele>8.873</ele>
        <time>2018-08-29T09:45:45.799Z</time>
      </trkpt>
      <trkpt lat="47.8688109" lon="-1.7776086">
        <ele>8.781</ele>
        <time>2018-08-29T09:45:49.310Z</time>
      </trkpt>
      <trkpt lat="47.8689219" lon="-1.7776134">
        <ele>8.693</ele>
        <time>2018-08-29T09:45:53.073Z</time>
      </trkpt>
      <trkpt lat="47.8690364" lon="-1.7776221">
        <ele>8.626</ele>
        <time>2018-08-29T09:45:57.060Z</time>
      </trkpt>
      <trkpt lat="47.8691265" lon="-1.7776199">
        <ele>8.553</ele>
        <time>2018-08-29T09:46:00.205Z</time>
      </trkpt>
      <trkpt lat="47.8692431" lon="-1.7776168">
        <ele>8.437</ele>
        <time>2018-08-29T09:46:04.212Z</time>
      </trkpt>
      <trkpt lat="47.8693441" lon="-1.7776023">
        <ele>8.283</ele>
        <time>2018-08-29T09:46:07.609Z</time>
      </trkpt>
      <trkpt lat="47.8694446" lon="-1.7775876">
        <ele>8.110</ele>
        <time>2018-08-29T09:46:10.842Z</time>
      </trkpt>
      <trkpt lat="47.8695421" lon="-1.7775748">
        <ele>7.947</ele>
        <time>2018-08-29T09:46:13.876Z</time>
      </trkpt>
      <trkpt lat="47.8696409" lon="-1.7775673">
        <ele>7.858</ele>
        <time>2018-08-29T09:46:16.913Z</time>
      </trkpt>
      <trkpt lat="47.8697564" lon="-1.7775811">
        <ele>7.860</ele>
        <time>2018-08-29T09:46:20.498Z</time>
      </trkpt>
      <trkpt lat="47.8698690" lon="-1.7776122">
        <ele>7.900</ele>
        <time>2018-08-29T09:46:24.142Z</time>
      </trkpt>
      <trkpt lat="47.8699633" lon="-1.7776237">
        <ele>7.953</ele>
        <time>2018-08-29T09:46:27.250Z</time>
      </trkpt>
      <trkpt lat="47.8700818" lon="-1.7776520">
        <ele>8.090</ele>
        <time>2018-08-29T09:46:31.299Z</time>
      </trkpt>
      <trkpt lat="47.8701775" lon="-1.7776826">
        <ele>8.328</ele>
        <time>2018-08-29T09:46:34.603Z</time>
      </trkpt>
      <trkpt lat="47.8702771" lon="-1.7777040">
        <ele>8.554</ele>
        <time>2018-08-29T09:46:37.918Z</time>
      </trkpt>
      <trkpt lat="47.8703710" lon="-1.7777302">
        <ele>8.670</ele>
        <time>2018-08-29T09:46:40.958Z</time>
      </trkpt>
      <trkpt lat="47.8704617" lon="-1.7777591">
        <ele>8.687</ele>
        <time>2018-08-29T09:46:43.854Z</time>
      </trkpt>
      <trkpt lat="47.8705529" lon="-1.7777965">
        <ele>8.645</ele>
        <time>2018-08-29T09:46:46.787Z</time>
      </trkpt>
      <trkpt lat="47.8706488" lon="-1.7778305">
        <ele>8.520</ele>
        <time>2018-08-29T09:46:49.827Z</time>
      </trkpt>
      <trkpt lat="47.8707443" lon="-1.7778562">
        <ele>8.293</ele>
        <time>2018-08-29T09:46:52.790Z</time>
      </trkpt>
      <trkpt lat="47.8708432" lon="-1.7778727">
        <ele>7.986</ele>
        <time>2018-08-29T09:46:55.811Z</time>
      </trkpt>
      <trkpt lat="47.8709417" lon="-1.7778938">
        <ele>7.656</ele>
        <time>2018-08-29T09:46:58.838Z</time>
      </trkpt>
      <trkpt lat="47.8710366" lon="-1.7779162">
        <ele>7.411</ele>
        <time>2018-08-29T09:47:01.757Z</time>
      </trkpt>
      <trkpt lat="47.8711296" lon="-1.7779425">
        <ele>7.351</ele>
        <time>2018-08-29T09:47:04.636Z</time>
      </trkpt>
      <trkpt lat="47.8712210" lon="-1.7779644">
        <ele>7.443</ele>
        <time>2018-08-29T09:47:07.483Z</time>
      </trkpt>
      <trkpt lat="47.8713168" lon="-1.7779856">
        <ele>7.566</ele>
        <time>2018-08-29T09:47:10.491Z</time>
      </trkpt>
      <trkpt lat="47.8714090" lon="-1.7780063">
        <ele>7.612</ele>
        <time>2018-08-29T09:47:13.409Z</time>
      </trkpt>
      <trkpt lat="47.8715006" lon="-1.7780151">
        <ele>7.571</ele>
        <time>2018-08-29T09:47:16.296Z</time>
      </trkpt>
      <trkpt lat="47.8716132" lon="-1.7780389">
        <ele>7.506</ele>
        <time>2018-08-29T09:47:19.932Z</time>
      </trkpt>
      <trkpt lat="47.8717246" lon="-1.7780652">
        <ele>7.439</ele>
        <time>2018-08-29T09:47:23.631Z</time>
      </trkpt>
      <trkpt lat="47.8718368" lon="-1.7780849">
        <ele>7.351</ele>
        <time>2018-08-29T09:47:27.478Z</time>
      </trkpt>
      <trkpt lat="47.8719469" lon="-1.7781192">
        <ele>7.319</ele>
        <time>2018-08-29T09:47:31.421Z</time>
      </trkpt>
      <trkpt lat="47.8720578" lon="-1.7781368">
        <ele>7.458</ele>
        <time>2018-08-29T09:47:35.387Z</time>
      </trkpt>
      <trkpt lat="47.8721482" lon="-1.7781444">
        <ele>7.720</ele>
        <time>2018-08-29T09:47:38.623Z</time>
      </trkpt>
      <trkpt lat="47.8722414" lon="-1.7781533">
        <ele>7.935</ele>
        <time>2018-08-29T09:47:41.923Z</time>
      </trkpt>
      <trkpt lat="47.8723577" lon="-1.7781583">
        <ele>8.025</ele>
        <time>2018-08-29T09:47:45.905Z</time>
      </trkpt>
      <trkpt lat="47.8724732" lon="-1.7781618">
        <ele>8.041</ele>
        <time>2018-08-29T09:47:49.812Z</time>
      </trkpt>
      <trkpt lat="47.8725836" lon="-1.7781539">
        <ele>8.061</ele>
        <time>2018-08-29T09:47:53.566Z</time>
      </trkpt>
      <trkpt lat="47.8726813" lon="-1.7781823">
        <ele>8.131</ele>
        <time>2018-08-29T09:47:57.032Z</time>
      </trkpt>
      <trkpt lat="47.8726953" lon="-1.7783317">
        <ele>8.245</ele>
        <time>2018-08-29T09:48:00.919Z</time>
      </trkpt>
      <trkpt lat="47.8727298" lon="-1.7784642">
        <ele>8.519</ele>
        <time>2018-08-29T09:48:05.326Z</time>
      </trkpt>
      <trkpt lat="47.8727521" lon="-1.7786023">
        <ele>9.020</ele>
        <time>2018-08-29T09:48:10.642Z</time>
      </trkpt>
      <trkpt lat="47.8728610" lon="-1.7786404">
        <ele>9.549</ele>
        <time>2018-08-29T09:48:17.000Z</time>
      </trkpt>
      <trkpt lat="47.8729676" lon="-1.7786751">
        <ele>9.995</ele>
        <time>2018-08-29T09:48:23.296Z</time>
      </trkpt>
      <trkpt lat="47.8730695" lon="-1.7787337">
        <ele>10.474</ele>
        <time>2018-08-29T09:48:28.990Z</time>
      </trkpt>
      <trkpt lat="47.8731350" lon="-1.7788460">
        <ele>11.016</ele>
        <time>2018-08-29T09:48:33.665Z</time>
      </trkpt>
      <trkpt lat="47.8732267" lon="-1.7788358">
        <ele>11.508</ele>
        <time>2018-08-29T09:48:38.084Z</time>
      </trkpt>
      <trkpt lat="47.8732731" lon="-1.7786813">
        <ele>11.775</ele>
        <time>2018-08-29T09:48:44.458Z</time>
      </trkpt>
      <trkpt lat="47.8733145" lon="-1.7785168">
        <ele>11.760</ele>
        <time>2018-08-29T09:48:50.000Z</time>
      </trkpt>
      <trkpt lat="47.8733145" lon="-1.7785168">
        <ele>11.609</ele>
        <time>2018-08-29T09:48:51.000Z</time>
      </trkpt>
      <trkpt lat="47.8733145" lon="-1.7785168">
        <ele>11.501</ele>
        <time>2018-08-29T09:48:51.100Z</time>
      </trkpt>
      <trkpt lat="47.8733362" lon="-1.7782088">
        <ele>11.501</ele>
        <time>2018-08-29T09:48:58.936Z</time>
      </trkpt>
      <trkpt lat="47.8733931" lon="-1.7780918">
        <ele>11.430</ele>
        <time>2018-08-29T09:49:02.100Z</time>
      </trkpt>
      <trkpt lat="47.8735077" lon="-1.7780682">
        <ele>11.153</ele>
        <time>2018-08-29T09:49:06.381Z</time>
      </trkpt>
      <trkpt lat="47.8736081" lon="-1.7780524">
        <ele>10.851</ele>
        <time>2018-08-29T09:49:10.155Z</time>
      </trkpt>
      <trkpt lat="47.8737205" lon="-1.7780429">
        <ele>10.750</ele>
        <time>2018-08-29T09:49:14.317Z</time>
      </trkpt>
      <trkpt lat="47.8738291" lon="-1.7780257">
        <ele>10.825</ele>
        <time>2018-08-29T09:49:18.377Z</time>
      </trkpt>
      <trkpt lat="47.8739243" lon="-1.7780207">
        <ele>10.839</ele>
        <time>2018-08-29T09:49:22.038Z</time>
      </trkpt>
      <trkpt lat="47.8740155" lon="-1.7780311">
        <ele>10.579</ele>
        <time>2018-08-29T09:49:25.772Z</time>
      </trkpt>
      <trkpt lat="47.8741063" lon="-1.7780313">
        <ele>10.148</ele>
        <time>2018-08-29T09:49:29.576Z</time>
      </trkpt>
      <trkpt lat="47.8742066" lon="-1.7780292">
        <ele>9.804</ele>
        <time>2018-08-29T09:49:33.496Z</time>
      </trkpt>
      <trkpt lat="47.8742981" lon="-1.7780255">
        <ele>9.649</ele>
        <time>2018-08-29T09:49:36.681Z</time>
      </trkpt>
      <trkpt lat="47.8743952" lon="-1.7780271">
        <ele>9.659</ele>
        <time>2018-08-29T09:49:39.858Z</time>
      </trkpt>
      <trkpt lat="47.8744882" lon="-1.7780298">
        <ele>9.764</ele>
        <time>2018-08-29T09:49:42.803Z</time>
      </trkpt>
      <trkpt lat="47.8745853" lon="-1.7780325">
        <ele>9.869</ele>
        <time>2018-08-29T09:49:45.818Z</time>
      </trkpt>
      <trkpt lat="47.8746808" lon="-1.7780416">
        <ele>9.897</ele>
        <time>2018-08-29T09:49:48.733Z</time>
      </trkpt>
      <trkpt lat="47.8747849" lon="-1.7780518">
        <ele>9.848</ele>
        <time>2018-08-29T09:49:51.864Z</time>
      </trkpt>
      <trkpt lat="47.8748831" lon="-1.7780698">
        <ele>9.776</ele>
        <time>2018-08-29T09:49:54.784Z</time>
      </trkpt>
      <trkpt lat="47.8749875" lon="-1.7780845">
        <ele>9.734</ele>
        <time>2018-08-29T09:49:57.805Z</time>
      </trkpt>
      <trkpt lat="47.8750953" lon="-1.7780957">
        <ele>9.747</ele>
        <time>2018-08-29T09:50:00.852Z</time>
      </trkpt>
      <trkpt lat="47.8752002" lon="-1.7781103">
        <ele>9.847</ele>
        <time>2018-08-29T09:50:03.802Z</time>
      </trkpt>
      <trkpt lat="47.8753070" lon="-1.7781108">
        <ele>10.001</ele>
        <time>2018-08-29T09:50:06.839Z</time>
      </trkpt>
      <trkpt lat="47.8754060" lon="-1.7781108">
        <ele>10.088</ele>
        <time>2018-08-29T09:50:09.702Z</time>
      </trkpt>
      <trkpt lat="47.8755079" lon="-1.7781217">
        <ele>9.994</ele>
        <time>2018-08-29T09:50:12.681Z</time>
      </trkpt>
      <trkpt lat="47.8756064" lon="-1.7781369">
        <ele>9.760</ele>
        <time>2018-08-29T09:50:15.585Z</time>
      </trkpt>
      <trkpt lat="47.8757048" lon="-1.7781616">
        <ele>9.556</ele>
        <time>2018-08-29T09:50:18.514Z</time>
      </trkpt>
      <trkpt lat="47.8758118" lon="-1.7781714">
        <ele>9.476</ele>
        <time>2018-08-29T09:50:21.641Z</time>
      </trkpt>
      <trkpt lat="47.8759146" lon="-1.7781979">
        <ele>9.509</ele>
        <time>2018-08-29T09:50:24.655Z</time>
      </trkpt>
      <trkpt lat="47.8760194" lon="-1.7782224">
        <ele>9.648</ele>
        <time>2018-08-29T09:50:27.700Z</time>
      </trkpt>
      <trkpt lat="47.8761238" lon="-1.7782448">
        <ele>9.907</ele>
        <time>2018-08-29T09:50:30.731Z</time>
      </trkpt>
      <trkpt lat="47.8762242" lon="-1.7782791">
        <ele>10.256</ele>
        <time>2018-08-29T09:50:33.700Z</time>
      </trkpt>
      <trkpt lat="47.8763178" lon="-1.7783234">
        <ele>10.565</ele>
        <time>2018-08-29T09:50:36.514Z</time>
      </trkpt>
      <trkpt lat="47.8764213" lon="-1.7783700">
        <ele>10.722</ele>
        <time>2018-08-29T09:50:39.557Z</time>
      </trkpt>
      <trkpt lat="47.8765262" lon="-1.7784157">
        <ele>10.781</ele>
        <time>2018-08-29T09:50:42.578Z</time>
      </trkpt>
      <trkpt lat="47.8766276" lon="-1.7784768">
        <ele>10.835</ele>
        <time>2018-08-29T09:50:45.540Z</time>
      </trkpt>
      <trkpt lat="47.8767282" lon="-1.7785535">
        <ele>10.881</ele>
        <time>2018-08-29T09:50:48.524Z</time>
      </trkpt>
      <trkpt lat="47.8768286" lon="-1.7786298">
        <ele>10.887</ele>
        <time>2018-08-29T09:50:51.478Z</time>
      </trkpt>
      <trkpt lat="47.8769230" lon="-1.7787107">
        <ele>10.869</ele>
        <time>2018-08-29T09:50:54.350Z</time>
      </trkpt>
      <trkpt lat="47.8770213" lon="-1.7787890">
        <ele>10.755</ele>
        <time>2018-08-29T09:50:57.318Z</time>
      </trkpt>
      <trkpt lat="47.8771162" lon="-1.7788694">
        <ele>10.438</ele>
        <time>2018-08-29T09:51:00.251Z</time>
      </trkpt>
      <trkpt lat="47.8772073" lon="-1.7789569">
        <ele>10.033</ele>
        <time>2018-08-29T09:51:03.097Z</time>
      </trkpt>
      <trkpt lat="47.8773072" lon="-1.7790584">
        <ele>9.811</ele>
        <time>2018-08-29T09:51:06.348Z</time>
      </trkpt>
      <trkpt lat="47.8774013" lon="-1.7791566">
        <ele>9.884</ele>
        <time>2018-08-29T09:51:09.695Z</time>
      </trkpt>
      <trkpt lat="47.8775006" lon="-1.7792445">
        <ele>10.150</ele>
        <time>2018-08-29T09:51:13.256Z</time>
      </trkpt>
      <trkpt lat="47.8775797" lon="-1.7793112">
        <ele>10.426</ele>
        <time>2018-08-29T09:51:16.208Z</time>
      </trkpt>
      <trkpt lat="47.8776702" lon="-1.7794054">
        <ele>10.613</ele>
        <time>2018-08-29T09:51:19.876Z</time>
      </trkpt>
      <trkpt lat="47.8777492" lon="-1.7794796">
        <ele>10.714</ele>
        <time>2018-08-29T09:51:22.976Z</time>
      </trkpt>
      <trkpt lat="47.8778404" lon="-1.7795470">
        <ele>10.783</ele>
        <time>2018-08-29T09:51:26.242Z</time>
      </trkpt>
      <trkpt lat="47.8779282" lon="-1.7796199">
        <ele>10.847</ele>
        <time>2018-08-29T09:51:29.334Z</time>
      </trkpt>
      <trkpt lat="47.8780192" lon="-1.7796928">
        <ele>10.864</ele>
        <time>2018-08-29T09:51:32.395Z</time>
      </trkpt>
      <trkpt lat="47.8781174" lon="-1.7797592">
        <ele>10.801</ele>
        <time>2018-08-29T09:51:35.501Z</time>
      </trkpt>
      <trkpt lat="47.8782127" lon="-1.7798196">
        <ele>10.797</ele>
        <time>2018-08-29T09:51:38.455Z</time>
      </trkpt>
      <trkpt lat="47.8783048" lon="-1.7798802">
        <ele>10.966</ele>
        <time>2018-08-29T09:51:41.305Z</time>
      </trkpt>
      <trkpt lat="47.8784012" lon="-1.7799484">
        <ele>11.193</ele>
        <time>2018-08-29T09:51:44.310Z</time>
      </trkpt>
      <trkpt lat="47.8784939" lon="-1.7800149">
        <ele>11.340</ele>
        <time>2018-08-29T09:51:47.186Z</time>
      </trkpt>
      <trkpt lat="47.8785907" lon="-1.7800906">
        <ele>11.378</ele>
        <time>2018-08-29T09:51:50.203Z</time>
      </trkpt>
      <trkpt lat="47.8786869" lon="-1.7801708">
        <ele>11.333</ele>
        <time>2018-08-29T09:51:53.221Z</time>
      </trkpt>
      <trkpt lat="47.8787752" lon="-1.7802542">
        <ele>11.313</ele>
        <time>2018-08-29T09:51:56.102Z</time>
      </trkpt>
      <trkpt lat="47.8788603" lon="-1.7803443">
        <ele>11.385</ele>
        <time>2018-08-29T09:51:59.040Z</time>
      </trkpt>
      <trkpt lat="47.8789392" lon="-1.7804353">
        <ele>11.455</ele>
        <time>2018-08-29T09:52:01.913Z</time>
      </trkpt>
      <trkpt lat="47.8790186" lon="-1.7805251">
        <ele>11.406</ele>
        <time>2018-08-29T09:52:04.840Z</time>
      </trkpt>
      <trkpt lat="47.8790913" lon="-1.7806206">
        <ele>11.275</ele>
        <time>2018-08-29T09:52:07.699Z</time>
      </trkpt>
      <trkpt lat="47.8791774" lon="-1.7807155">
        <ele>11.200</ele>
        <time>2018-08-29T09:52:10.834Z</time>
      </trkpt>
      <trkpt lat="47.8792636" lon="-1.7808106">
        <ele>11.290</ele>
        <time>2018-08-29T09:52:13.992Z</time>
      </trkpt>
      <trkpt lat="47.8793329" lon="-1.7808979">
        <ele>11.506</ele>
        <time>2018-08-29T09:52:16.713Z</time>
      </trkpt>
      <trkpt lat="47.8794114" lon="-1.7809870">
        <ele>11.717</ele>
        <time>2018-08-29T09:52:19.704Z</time>
      </trkpt>
      <trkpt lat="47.8794907" lon="-1.7810721">
        <ele>11.843</ele>
        <time>2018-08-29T09:52:22.684Z</time>
      </trkpt>
      <trkpt lat="47.8795695" lon="-1.7811636">
        <ele>11.829</ele>
        <time>2018-08-29T09:52:25.764Z</time>
      </trkpt>
      <trkpt lat="47.8796442" lon="-1.7812475">
        <ele>11.681</ele>
        <time>2018-08-29T09:52:28.697Z</time>
      </trkpt>
      <trkpt lat="47.8797251" lon="-1.7813155">
        <ele>11.534</ele>
        <time>2018-08-29T09:52:31.673Z</time>
      </trkpt>
      <trkpt lat="47.8798085" lon="-1.7813837">
        <ele>11.552</ele>
        <time>2018-08-29T09:52:34.701Z</time>
      </trkpt>
      <trkpt lat="47.8799075" lon="-1.7814634">
        <ele>11.753</ele>
        <time>2018-08-29T09:52:38.163Z</time>
      </trkpt>
      <trkpt lat="47.8799880" lon="-1.7815416">
        <ele>12.015</ele>
        <time>2018-08-29T09:52:41.040Z</time>
      </trkpt>
      <trkpt lat="47.8800905" lon="-1.7816249">
        <ele>12.221</ele>
        <time>2018-08-29T09:52:44.406Z</time>
      </trkpt>
      <trkpt lat="47.8801901" lon="-1.7817018">
        <ele>12.356</ele>
        <time>2018-08-29T09:52:47.608Z</time>
      </trkpt>
      <trkpt lat="47.8802591" lon="-1.7817940">
        <ele>12.433</ele>
        <time>2018-08-29T09:52:50.256Z</time>
      </trkpt>
      <trkpt lat="47.8803638" lon="-1.7818987">
        <ele>12.485</ele>
        <time>2018-08-29T09:52:53.662Z</time>
      </trkpt>
      <trkpt lat="47.8804842" lon="-1.7819871">
        <ele>12.544</ele>
        <time>2018-08-29T09:52:57.027Z</time>
      </trkpt>
      <trkpt lat="47.8805991" lon="-1.7820691">
        <ele>12.527</ele>
        <time>2018-08-29T09:53:00.142Z</time>
      </trkpt>
      <trkpt lat="47.8807000" lon="-1.7821613">
        <ele>12.263</ele>
        <time>2018-08-29T09:53:03.090Z</time>
      </trkpt>
      <trkpt lat="47.8807820" lon="-1.7822662">
        <ele>11.752</ele>
        <time>2018-08-29T09:53:05.911Z</time>
      </trkpt>
      <trkpt lat="47.8808566" lon="-1.7823606">
        <ele>11.250</ele>
        <time>2018-08-29T09:53:08.631Z</time>
      </trkpt>
      <trkpt lat="47.8809262" lon="-1.7824544">
        <ele>10.987</ele>
        <time>2018-08-29T09:53:11.371Z</time>
      </trkpt>
      <trkpt lat="47.8809972" lon="-1.7825453">
        <ele>10.970</ele>
        <time>2018-08-29T09:53:14.201Z</time>
      </trkpt>
      <trkpt lat="47.8810946" lon="-1.7826571">
        <ele>11.079</ele>
        <time>2018-08-29T09:53:17.961Z</time>
      </trkpt>
      <trkpt lat="47.8811724" lon="-1.7827586">
        <ele>11.134</ele>
        <time>2018-08-29T09:53:21.079Z</time>
      </trkpt>
      <trkpt lat="47.8812544" lon="-1.7828558">
        <ele>11.026</ele>
        <time>2018-08-29T09:53:24.170Z</time>
      </trkpt>
      <trkpt lat="47.8813428" lon="-1.7829482">
        <ele>10.833</ele>
        <time>2018-08-29T09:53:27.282Z</time>
      </trkpt>
      <trkpt lat="47.8814344" lon="-1.7830580">
        <ele>10.695</ele>
        <time>2018-08-29T09:53:30.602Z</time>
      </trkpt>
      <trkpt lat="47.8815052" lon="-1.7831785">
        <ele>10.686</ele>
        <time>2018-08-29T09:53:33.606Z</time>
      </trkpt>
      <trkpt lat="47.8815840" lon="-1.7832930">
        <ele>10.819</ele>
        <time>2018-08-29T09:53:36.684Z</time>
      </trkpt>
      <trkpt lat="47.8816477" lon="-1.7834051">
        <ele>11.031</ele>
        <time>2018-08-29T09:53:39.505Z</time>
      </trkpt>
      <trkpt lat="47.8817051" lon="-1.7835170">
        <ele>11.245</ele>
        <time>2018-08-29T09:53:42.233Z</time>
      </trkpt>
      <trkpt lat="47.8817887" lon="-1.7836312">
        <ele>11.457</ele>
        <time>2018-08-29T09:53:45.467Z</time>
      </trkpt>
      <trkpt lat="47.8818651" lon="-1.7837449">
        <ele>11.664</ele>
        <time>2018-08-29T09:53:48.487Z</time>
      </trkpt>
      <trkpt lat="47.8819495" lon="-1.7838511">
        <ele>11.809</ele>
        <time>2018-08-29T09:53:51.503Z</time>
      </trkpt>
      <trkpt lat="47.8820402" lon="-1.7839558">
        <ele>11.864</ele>
        <time>2018-08-29T09:53:54.709Z</time>
      </trkpt>
      <trkpt lat="47.8821151" lon="-1.7840898">
        <ele>11.872</ele>
        <time>2018-08-29T09:53:58.146Z</time>
      </trkpt>
      <trkpt lat="47.8821828" lon="-1.7841809">
        <ele>11.861</ele>
        <time>2018-08-29T09:54:00.952Z</time>
      </trkpt>
      <trkpt lat="47.8822661" lon="-1.7842744">
        <ele>11.836</ele>
        <time>2018-08-29T09:54:04.191Z</time>
      </trkpt>
      <trkpt lat="47.8823526" lon="-1.7843565">
        <ele>11.800</ele>
        <time>2018-08-29T09:54:07.323Z</time>
      </trkpt>
      <trkpt lat="47.8824471" lon="-1.7844343">
        <ele>11.779</ele>
        <time>2018-08-29T09:54:10.500Z</time>
      </trkpt>
      <trkpt lat="47.8825559" lon="-1.7844988">
        <ele>11.792</ele>
        <time>2018-08-29T09:54:13.742Z</time>
      </trkpt>
      <trkpt lat="47.8826726" lon="-1.7845758">
        <ele>11.800</ele>
        <time>2018-08-29T09:54:17.053Z</time>
      </trkpt>
      <trkpt lat="47.8827732" lon="-1.7846742">
        <ele>11.772</ele>
        <time>2018-08-29T09:54:20.088Z</time>
      </trkpt>
      <trkpt lat="47.8828673" lon="-1.7847747">
        <ele>11.741</ele>
        <time>2018-08-29T09:54:22.957Z</time>
      </trkpt>
      <trkpt lat="47.8829676" lon="-1.7848884">
        <ele>11.757</ele>
        <time>2018-08-29T09:54:26.032Z</time>
      </trkpt>
      <trkpt lat="47.8830623" lon="-1.7849979">
        <ele>11.808</ele>
        <time>2018-08-29T09:54:28.991Z</time>
      </trkpt>
      <trkpt lat="47.8831549" lon="-1.7850958">
        <ele>11.890</ele>
        <time>2018-08-29T09:54:31.896Z</time>
      </trkpt>
      <trkpt lat="47.8832439" lon="-1.7851784">
        <ele>12.003</ele>
        <time>2018-08-29T09:54:34.700Z</time>
      </trkpt>
      <trkpt lat="47.8833340" lon="-1.7852561">
        <ele>12.098</ele>
        <time>2018-08-29T09:54:37.574Z</time>
      </trkpt>
      <trkpt lat="47.8834231" lon="-1.7853349">
        <ele>12.133</ele>
        <time>2018-08-29T09:54:40.479Z</time>
      </trkpt>
      <trkpt lat="47.8835225" lon="-1.7853965">
        <ele>12.186</ele>
        <time>2018-08-29T09:54:43.521Z</time>
      </trkpt>
      <trkpt lat="47.8836123" lon="-1.7854619">
        <ele>12.319</ele>
        <time>2018-08-29T09:54:46.354Z</time>
      </trkpt>
      <trkpt lat="47.8837075" lon="-1.7855298">
        <ele>12.423</ele>
        <time>2018-08-29T09:54:49.321Z</time>
      </trkpt>
      <trkpt lat="47.8838092" lon="-1.7855833">
        <ele>12.297</ele>
        <time>2018-08-29T09:54:52.294Z</time>
      </trkpt>
      <trkpt lat="47.8839214" lon="-1.7856350">
        <ele>11.909</ele>
        <time>2018-08-29T09:54:55.443Z</time>
      </trkpt>
      <trkpt lat="47.8840325" lon="-1.7856815">
        <ele>11.469</ele>
        <time>2018-08-29T09:54:58.483Z</time>
      </trkpt>
      <trkpt lat="47.8841361" lon="-1.7857589">
        <ele>11.195</ele>
        <time>2018-08-29T09:55:01.505Z</time>
      </trkpt>
      <trkpt lat="47.8842409" lon="-1.7858219">
        <ele>11.109</ele>
        <time>2018-08-29T09:55:04.453Z</time>
      </trkpt>
      <trkpt lat="47.8843425" lon="-1.7858868">
        <ele>11.079</ele>
        <time>2018-08-29T09:55:07.389Z</time>
      </trkpt>
      <trkpt lat="47.8844393" lon="-1.7859485">
        <ele>10.992</ele>
        <time>2018-08-29T09:55:10.275Z</time>
      </trkpt>
      <trkpt lat="47.8845320" lon="-1.7859979">
        <ele>10.816</ele>
        <time>2018-08-29T09:55:13.084Z</time>
      </trkpt>
      <trkpt lat="47.8846232" lon="-1.7860252">
        <ele>10.527</ele>
        <time>2018-08-29T09:55:15.814Z</time>
      </trkpt>
      <trkpt lat="47.8847234" lon="-1.7860447">
        <ele>10.157</ele>
        <time>2018-08-29T09:55:18.812Z</time>
      </trkpt>
      <trkpt lat="47.8848188" lon="-1.7860697">
        <ele>9.850</ele>
        <time>2018-08-29T09:55:21.694Z</time>
      </trkpt>
      <trkpt lat="47.8849206" lon="-1.7861034">
        <ele>9.699</ele>
        <time>2018-08-29T09:55:24.764Z</time>
      </trkpt>
      <trkpt lat="47.8850325" lon="-1.7861248">
        <ele>9.655</ele>
        <time>2018-08-29T09:55:27.994Z</time>
      </trkpt>
      <trkpt lat="47.8851413" lon="-1.7861390">
        <ele>9.494</ele>
        <time>2018-08-29T09:55:31.044Z</time>
      </trkpt>
      <trkpt lat="47.8852509" lon="-1.7861541">
        <ele>9.113</ele>
        <time>2018-08-29T09:55:34.067Z</time>
      </trkpt>
      <trkpt lat="47.8853629" lon="-1.7861728">
        <ele>8.765</ele>
        <time>2018-08-29T09:55:37.117Z</time>
      </trkpt>
      <trkpt lat="47.8854760" lon="-1.7861847">
        <ele>8.691</ele>
        <time>2018-08-29T09:55:40.180Z</time>
      </trkpt>
      <trkpt lat="47.8855777" lon="-1.7861944">
        <ele>8.861</ele>
        <time>2018-08-29T09:55:42.969Z</time>
      </trkpt>
      <trkpt lat="47.8856808" lon="-1.7862190">
        <ele>9.147</ele>
        <time>2018-08-29T09:55:45.871Z</time>
      </trkpt>
      <trkpt lat="47.8857822" lon="-1.7862434">
        <ele>9.433</ele>
        <time>2018-08-29T09:55:48.756Z</time>
      </trkpt>
      <trkpt lat="47.8858879" lon="-1.7862748">
        <ele>9.676</ele>
        <time>2018-08-29T09:55:51.783Z</time>
      </trkpt>
      <trkpt lat="47.8859953" lon="-1.7863105">
        <ele>9.890</ele>
        <time>2018-08-29T09:55:54.847Z</time>
      </trkpt>
      <trkpt lat="47.8861043" lon="-1.7863349">
        <ele>10.061</ele>
        <time>2018-08-29T09:55:57.901Z</time>
      </trkpt>
      <trkpt lat="47.8862074" lon="-1.7863444">
        <ele>10.121</ele>
        <time>2018-08-29T09:56:00.762Z</time>
      </trkpt>
      <trkpt lat="47.8863190" lon="-1.7863706">
        <ele>10.015</ele>
        <time>2018-08-29T09:56:03.879Z</time>
      </trkpt>
      <trkpt lat="47.8864222" lon="-1.7863836">
        <ele>9.799</ele>
        <time>2018-08-29T09:56:06.751Z</time>
      </trkpt>
      <trkpt lat="47.8865230" lon="-1.7863862">
        <ele>9.558</ele>
        <time>2018-08-29T09:56:09.592Z</time>
      </trkpt>
      <trkpt lat="47.8866243" lon="-1.7864023">
        <ele>9.334</ele>
        <time>2018-08-29T09:56:12.490Z</time>
      </trkpt>
      <trkpt lat="47.8867247" lon="-1.7864214">
        <ele>9.079</ele>
        <time>2018-08-29T09:56:15.376Z</time>
      </trkpt>
      <trkpt lat="47.8868280" lon="-1.7864317">
        <ele>8.772</ele>
        <time>2018-08-29T09:56:18.317Z</time>
      </trkpt>
      <trkpt lat="47.8869300" lon="-1.7864322">
        <ele>8.559</ele>
        <time>2018-08-29T09:56:21.226Z</time>
      </trkpt>
      <trkpt lat="47.8870301" lon="-1.7864175">
        <ele>8.643</ele>
        <time>2018-08-29T09:56:24.127Z</time>
      </trkpt>
      <trkpt lat="47.8871292" lon="-1.7864079">
        <ele>8.985</ele>
        <time>2018-08-29T09:56:27.025Z</time>
      </trkpt>
      <trkpt lat="47.8872305" lon="-1.7864065">
        <ele>9.333</ele>
        <time>2018-08-29T09:56:29.991Z</time>
      </trkpt>
      <trkpt lat="47.8873331" lon="-1.7863912">
        <ele>9.578</ele>
        <time>2018-08-29T09:56:32.983Z</time>
      </trkpt>
      <trkpt lat="47.8874386" lon="-1.7863821">
        <ele>9.805</ele>
        <time>2018-08-29T09:56:36.019Z</time>
      </trkpt>
      <trkpt lat="47.8875409" lon="-1.7863640">
        <ele>10.017</ele>
        <time>2018-08-29T09:56:38.976Z</time>
      </trkpt>
      <trkpt lat="47.8876423" lon="-1.7863562">
        <ele>10.155</ele>
        <time>2018-08-29T09:56:41.900Z</time>
      </trkpt>
      <trkpt lat="47.8877441" lon="-1.7863440">
        <ele>10.191</ele>
        <time>2018-08-29T09:56:44.849Z</time>
      </trkpt>
      <trkpt lat="47.8878451" lon="-1.7863325">
        <ele>10.113</ele>
        <time>2018-08-29T09:56:47.792Z</time>
      </trkpt>
      <trkpt lat="47.8879448" lon="-1.7863314">
        <ele>9.978</ele>
        <time>2018-08-29T09:56:50.709Z</time>
      </trkpt>
      <trkpt lat="47.8880454" lon="-1.7863480">
        <ele>9.872</ele>
        <time>2018-08-29T09:56:53.690Z</time>
      </trkpt>
      <trkpt lat="47.8881394" lon="-1.7863676">
        <ele>9.830</ele>
        <time>2018-08-29T09:56:56.520Z</time>
      </trkpt>
      <trkpt lat="47.8882397" lon="-1.7863881">
        <ele>9.809</ele>
        <time>2018-08-29T09:56:59.581Z</time>
      </trkpt>
      <trkpt lat="47.8883345" lon="-1.7864256">
        <ele>9.730</ele>
        <time>2018-08-29T09:57:02.566Z</time>
      </trkpt>
      <trkpt lat="47.8884290" lon="-1.7864814">
        <ele>9.584</ele>
        <time>2018-08-29T09:57:05.651Z</time>
      </trkpt>
      <trkpt lat="47.8885251" lon="-1.7865430">
        <ele>9.471</ele>
        <time>2018-08-29T09:57:08.762Z</time>
      </trkpt>
      <trkpt lat="47.8886268" lon="-1.7865946">
        <ele>9.462</ele>
        <time>2018-08-29T09:57:11.878Z</time>
      </trkpt>
      <trkpt lat="47.8887267" lon="-1.7866323">
        <ele>9.512</ele>
        <time>2018-08-29T09:57:14.846Z</time>
      </trkpt>
      <trkpt lat="47.8888223" lon="-1.7866680">
        <ele>9.555</ele>
        <time>2018-08-29T09:57:17.694Z</time>
      </trkpt>
      <trkpt lat="47.8889204" lon="-1.7866994">
        <ele>9.501</ele>
        <time>2018-08-29T09:57:20.606Z</time>
      </trkpt>
      <trkpt lat="47.8890217" lon="-1.7867180">
        <ele>9.294</ele>
        <time>2018-08-29T09:57:23.563Z</time>
      </trkpt>
      <trkpt lat="47.8891288" lon="-1.7867345">
        <ele>9.041</ele>
        <time>2018-08-29T09:57:26.643Z</time>
      </trkpt>
      <trkpt lat="47.8892369" lon="-1.7867535">
        <ele>8.887</ele>
        <time>2018-08-29T09:57:29.685Z</time>
      </trkpt>
      <trkpt lat="47.8893521" lon="-1.7867773">
        <ele>8.833</ele>
        <time>2018-08-29T09:57:32.816Z</time>
      </trkpt>
      <trkpt lat="47.8894712" lon="-1.7867944">
        <ele>8.792</ele>
        <time>2018-08-29T09:57:35.928Z</time>
      </trkpt>
      <trkpt lat="47.8895923" lon="-1.7868022">
        <ele>8.708</ele>
        <time>2018-08-29T09:57:39.010Z</time>
      </trkpt>
      <trkpt lat="47.8897055" lon="-1.7868063">
        <ele>8.606</ele>
        <time>2018-08-29T09:57:41.873Z</time>
      </trkpt>
      <trkpt lat="47.8898187" lon="-1.7868002">
        <ele>8.540</ele>
        <time>2018-08-29T09:57:44.757Z</time>
      </trkpt>
      <trkpt lat="47.8899295" lon="-1.7867875">
        <ele>8.513</ele>
        <time>2018-08-29T09:57:47.608Z</time>
      </trkpt>
      <trkpt lat="47.8900430" lon="-1.7867584">
        <ele>8.495</ele>
        <time>2018-08-29T09:57:50.578Z</time>
      </trkpt>
      <trkpt lat="47.8901572" lon="-1.7867178">
        <ele>8.398</ele>
        <time>2018-08-29T09:57:53.607Z</time>
      </trkpt>
      <trkpt lat="47.8902616" lon="-1.7866794">
        <ele>8.157</ele>
        <time>2018-08-29T09:57:56.384Z</time>
      </trkpt>
      <trkpt lat="47.8903726" lon="-1.7866397">
        <ele>7.903</ele>
        <time>2018-08-29T09:57:59.335Z</time>
      </trkpt>
      <trkpt lat="47.8904852" lon="-1.7865830">
        <ele>7.844</ele>
        <time>2018-08-29T09:58:02.394Z</time>
      </trkpt>
      <trkpt lat="47.8905971" lon="-1.7865281">
        <ele>7.985</ele>
        <time>2018-08-29T09:58:05.408Z</time>
      </trkpt>
      <trkpt lat="47.8907038" lon="-1.7864560">
        <ele>8.156</ele>
        <time>2018-08-29T09:58:08.394Z</time>
      </trkpt>
      <trkpt lat="47.8907954" lon="-1.7863556">
        <ele>8.247</ele>
        <time>2018-08-29T09:58:11.322Z</time>
      </trkpt>
      <trkpt lat="47.8908616" lon="-1.7862372">
        <ele>8.259</ele>
        <time>2018-08-29T09:58:14.038Z</time>
      </trkpt>
      <trkpt lat="47.8909293" lon="-1.7861137">
        <ele>8.161</ele>
        <time>2018-08-29T09:58:16.921Z</time>
      </trkpt>
      <trkpt lat="47.8910058" lon="-1.7859899">
        <ele>7.909</ele>
        <time>2018-08-29T09:58:19.999Z</time>
      </trkpt>
      <trkpt lat="47.8910058" lon="-1.7859899">
        <ele>7.610</ele>
        <time>2018-08-29T09:58:24.999Z</time>
      </trkpt>
      <trkpt lat="47.8910058" lon="-1.7859899">
        <ele>7.443</ele>
        <time>2018-08-29T09:59:37.888Z</time>
      </trkpt>
      <trkpt lat="47.8911498" lon="-1.7857346">
        <ele>7.494</ele>
        <time>2018-08-29T09:59:50.909Z</time>
      </trkpt>
      <trkpt lat="47.8912073" lon="-1.7856269">
        <ele>7.901</ele>
        <time>2018-08-29T09:59:53.501Z</time>
      </trkpt>
      <trkpt lat="47.8912422" lon="-1.7854879">
        <ele>8.663</ele>
        <time>2018-08-29T09:59:56.060Z</time>
      </trkpt>
      <trkpt lat="47.8912650" lon="-1.7853212">
        <ele>9.421</ele>
        <time>2018-08-29T09:59:58.839Z</time>
      </trkpt>
      <trkpt lat="47.8913038" lon="-1.7851813">
        <ele>9.868</ele>
        <time>2018-08-29T10:00:01.310Z</time>
      </trkpt>
      <trkpt lat="47.8913380" lon="-1.7850274">
        <ele>10.021</ele>
        <time>2018-08-29T10:00:03.999Z</time>
      </trkpt>
      <trkpt lat="47.8913380" lon="-1.7850274">
        <ele>10.004</ele>
        <time>2018-08-29T10:00:03.999Z</time>
      </trkpt>
      <trkpt lat="47.8913380" lon="-1.7850274">
        <ele>9.957</ele>
        <time>2018-08-29T10:01:00.079Z</time>
      </trkpt>
      <trkpt lat="47.8914114" lon="-1.7848044">
        <ele>9.950</ele>
        <time>2018-08-29T10:01:11.263Z</time>
      </trkpt>
      <trkpt lat="47.8914421" lon="-1.7846672">
        <ele>9.961</ele>
        <time>2018-08-29T10:01:15.033Z</time>
      </trkpt>
      <trkpt lat="47.8914766" lon="-1.7845127">
        <ele>9.899</ele>
        <time>2018-08-29T10:01:19.052Z</time>
      </trkpt>
      <trkpt lat="47.8915171" lon="-1.7843446">
        <ele>9.742</ele>
        <time>2018-08-29T10:01:23.177Z</time>
      </trkpt>
      <trkpt lat="47.8915535" lon="-1.7842164">
        <ele>9.695</ele>
        <time>2018-08-29T10:01:26.146Z</time>
      </trkpt>
      <trkpt lat="47.8915910" lon="-1.7840803">
        <ele>9.901</ele>
        <time>2018-08-29T10:01:29.157Z</time>
      </trkpt>
      <trkpt lat="47.8916283" lon="-1.7839502">
        <ele>10.108</ele>
        <time>2018-08-29T10:01:31.987Z</time>
      </trkpt>
      <trkpt lat="47.8916655" lon="-1.7838187">
        <ele>9.981</ele>
        <time>2018-08-29T10:01:34.820Z</time>
      </trkpt>
      <trkpt lat="47.8916945" lon="-1.7836842">
        <ele>9.535</ele>
        <time>2018-08-29T10:01:37.635Z</time>
      </trkpt>
      <trkpt lat="47.8917244" lon="-1.7835567">
        <ele>8.986</ele>
        <time>2018-08-29T10:01:40.371Z</time>
      </trkpt>
      <trkpt lat="47.8917581" lon="-1.7833864">
        <ele>8.474</ele>
        <time>2018-08-29T10:01:43.988Z</time>
      </trkpt>
      <trkpt lat="47.8917840" lon="-1.7832465">
        <ele>8.075</ele>
        <time>2018-08-29T10:01:46.931Z</time>
      </trkpt>
      <trkpt lat="47.8918059" lon="-1.7831107">
        <ele>7.836</ele>
        <time>2018-08-29T10:01:49.735Z</time>
      </trkpt>
      <trkpt lat="47.8918296" lon="-1.7829703">
        <ele>7.695</ele>
        <time>2018-08-29T10:01:52.637Z</time>
      </trkpt>
      <trkpt lat="47.8918542" lon="-1.7828409">
        <ele>7.586</ele>
        <time>2018-08-29T10:01:55.350Z</time>
      </trkpt>
      <trkpt lat="47.8918825" lon="-1.7827067">
        <ele>7.524</ele>
        <time>2018-08-29T10:01:58.192Z</time>
      </trkpt>
      <trkpt lat="47.8919168" lon="-1.7825670">
        <ele>7.524</ele>
        <time>2018-08-29T10:02:01.155Z</time>
      </trkpt>
      <trkpt lat="47.8919573" lon="-1.7824229">
        <ele>7.572</ele>
        <time>2018-08-29T10:02:04.187Z</time>
      </trkpt>
      <trkpt lat="47.8920013" lon="-1.7822846">
        <ele>7.647</ele>
        <time>2018-08-29T10:02:07.104Z</time>
      </trkpt>
      <trkpt lat="47.8920461" lon="-1.7821569">
        <ele>7.711</ele>
        <time>2018-08-29T10:02:09.855Z</time>
      </trkpt>
      <trkpt lat="47.8920926" lon="-1.7820327">
        <ele>7.732</ele>
        <time>2018-08-29T10:02:12.606Z</time>
      </trkpt>
      <trkpt lat="47.8921383" lon="-1.7819137">
        <ele>7.719</ele>
        <time>2018-08-29T10:02:15.296Z</time>
      </trkpt>
      <trkpt lat="47.8921872" lon="-1.7817918">
        <ele>7.699</ele>
        <time>2018-08-29T10:02:18.112Z</time>
      </trkpt>
      <trkpt lat="47.8922327" lon="-1.7816623">
        <ele>7.658</ele>
        <time>2018-08-29T10:02:21.023Z</time>
      </trkpt>
      <trkpt lat="47.8922749" lon="-1.7815266">
        <ele>7.571</ele>
        <time>2018-08-29T10:02:24.000Z</time>
      </trkpt>
      <trkpt lat="47.8922749" lon="-1.7815266">
        <ele>7.481</ele>
        <time>2018-08-29T10:02:25.000Z</time>
      </trkpt>
      <trkpt lat="47.8922749" lon="-1.7815266">
        <ele>7.441</ele>
        <time>2018-08-29T10:05:31.294Z</time>
      </trkpt>
      <trkpt lat="47.8923367" lon="-1.7812389">
        <ele>7.455</ele>
        <time>2018-08-29T10:05:45.023Z</time>
      </trkpt>
      <trkpt lat="47.8923452" lon="-1.7810931">
        <ele>7.522</ele>
        <time>2018-08-29T10:05:48.324Z</time>
      </trkpt>
      <trkpt lat="47.8923546" lon="-1.7809343">
        <ele>7.665</ele>
        <time>2018-08-29T10:05:51.541Z</time>
      </trkpt>
      <trkpt lat="47.8923720" lon="-1.7807671">
        <ele>7.922</ele>
        <time>2018-08-29T10:05:54.796Z</time>
      </trkpt>
      <trkpt lat="47.8923877" lon="-1.7806124">
        <ele>8.236</ele>
        <time>2018-08-29T10:05:57.839Z</time>
      </trkpt>
      <trkpt lat="47.8924146" lon="-1.7804698">
        <ele>8.492</ele>
        <time>2018-08-29T10:06:00.798Z</time>
      </trkpt>
      <trkpt lat="47.8924376" lon="-1.7803390">
        <ele>8.651</ele>
        <time>2018-08-29T10:06:03.517Z</time>
      </trkpt>
      <trkpt lat="47.8924450" lon="-1.7801770">
        <ele>8.673</ele>
        <time>2018-08-29T10:06:06.795Z</time>
      </trkpt>
      <trkpt lat="47.8924569" lon="-1.7800289">
        <ele>8.262</ele>
        <time>2018-08-29T10:06:09.885Z</time>
      </trkpt>
      <trkpt lat="47.8924737" lon="-1.7798965">
        <ele>7.373</ele>
        <time>2018-08-29T10:06:12.747Z</time>
      </trkpt>
      <trkpt lat="47.8924973" lon="-1.7797622">
        <ele>6.703</ele>
        <time>2018-08-29T10:06:15.694Z</time>
      </trkpt>
      <trkpt lat="47.8925065" lon="-1.7796190">
        <ele>6.795</ele>
        <time>2018-08-29T10:06:18.677Z</time>
      </trkpt>
      <trkpt lat="47.8925171" lon="-1.7794701">
        <ele>7.296</ele>
        <time>2018-08-29T10:06:21.671Z</time>
      </trkpt>
      <trkpt lat="47.8925211" lon="-1.7793111">
        <ele>7.687</ele>
        <time>2018-08-29T10:06:24.747Z</time>
      </trkpt>
      <trkpt lat="47.8925241" lon="-1.7791465">
        <ele>7.827</ele>
        <time>2018-08-29T10:06:27.888Z</time>
      </trkpt>
      <trkpt lat="47.8925302" lon="-1.7789860">
        <ele>7.787</ele>
        <time>2018-08-29T10:06:31.032Z</time>
      </trkpt>
      <trkpt lat="47.8925429" lon="-1.7788440">
        <ele>7.675</ele>
        <time>2018-08-29T10:06:33.904Z</time>
      </trkpt>
      <trkpt lat="47.8925305" lon="-1.7786644">
        <ele>7.629</ele>
        <time>2018-08-29T10:06:37.619Z</time>
      </trkpt>
      <trkpt lat="47.8925229" lon="-1.7785137">
        <ele>7.724</ele>
        <time>2018-08-29T10:06:40.848Z</time>
      </trkpt>
      <trkpt lat="47.8925216" lon="-1.7783780">
        <ele>7.883</ele>
        <time>2018-08-29T10:06:43.838Z</time>
      </trkpt>
      <trkpt lat="47.8925415" lon="-1.7782136">
        <ele>7.968</ele>
        <time>2018-08-29T10:06:47.533Z</time>
      </trkpt>
      <trkpt lat="47.8925425" lon="-1.7780704">
        <ele>7.942</ele>
        <time>2018-08-29T10:06:50.536Z</time>
      </trkpt>
      <trkpt lat="47.8925478" lon="-1.7779128">
        <ele>7.879</ele>
        <time>2018-08-29T10:06:53.711Z</time>
      </trkpt>
      <trkpt lat="47.8925548" lon="-1.7777572">
        <ele>7.863</ele>
        <time>2018-08-29T10:06:56.810Z</time>
      </trkpt>
      <trkpt lat="47.8925617" lon="-1.7776182">
        <ele>7.892</ele>
        <time>2018-08-29T10:06:59.589Z</time>
      </trkpt>
      <trkpt lat="47.8925676" lon="-1.7774712">
        <ele>7.911</ele>
        <time>2018-08-29T10:07:02.556Z</time>
      </trkpt>
      <trkpt lat="47.8925760" lon="-1.7773250">
        <ele>7.863</ele>
        <time>2018-08-29T10:07:05.526Z</time>
      </trkpt>
      <trkpt lat="47.8925817" lon="-1.7771832">
        <ele>7.677</ele>
        <time>2018-08-29T10:07:08.333Z</time>
      </trkpt>
      <trkpt lat="47.8925807" lon="-1.7770071">
        <ele>7.386</ele>
        <time>2018-08-29T10:07:11.661Z</time>
      </trkpt>
      <trkpt lat="47.8925830" lon="-1.7768351">
        <ele>7.184</ele>
        <time>2018-08-29T10:07:14.788Z</time>
      </trkpt>
      <trkpt lat="47.8925779" lon="-1.7766577">
        <ele>7.217</ele>
        <time>2018-08-29T10:07:17.945Z</time>
      </trkpt>
      <trkpt lat="47.8925831" lon="-1.7764909">
        <ele>7.419</ele>
        <time>2018-08-29T10:07:20.900Z</time>
      </trkpt>
      <trkpt lat="47.8925930" lon="-1.7763176">
        <ele>7.610</ele>
        <time>2018-08-29T10:07:23.997Z</time>
      </trkpt>
      <trkpt lat="47.8926083" lon="-1.7761633">
        <ele>7.710</ele>
        <time>2018-08-29T10:07:26.810Z</time>
      </trkpt>
      <trkpt lat="47.8926298" lon="-1.7759996">
        <ele>7.755</ele>
        <time>2018-08-29T10:07:29.916Z</time>
      </trkpt>
      <trkpt lat="47.8926497" lon="-1.7758542">
        <ele>7.774</ele>
        <time>2018-08-29T10:07:32.810Z</time>
      </trkpt>
      <trkpt lat="47.8926600" lon="-1.7757137">
        <ele>7.787</ele>
        <time>2018-08-29T10:07:35.664Z</time>
      </trkpt>
      <trkpt lat="47.8926801" lon="-1.7755758">
        <ele>7.808</ele>
        <time>2018-08-29T10:07:38.570Z</time>
      </trkpt>
      <trkpt lat="47.8926969" lon="-1.7754365">
        <ele>7.810</ele>
        <time>2018-08-29T10:07:41.491Z</time>
      </trkpt>
      <trkpt lat="47.8927197" lon="-1.7752911">
        <ele>7.766</ele>
        <time>2018-08-29T10:07:44.542Z</time>
      </trkpt>
      <trkpt lat="47.8927471" lon="-1.7751456">
        <ele>7.783</ele>
        <time>2018-08-29T10:07:47.594Z</time>
      </trkpt>
      <trkpt lat="47.8927805" lon="-1.7750002">
        <ele>7.941</ele>
        <time>2018-08-29T10:07:50.684Z</time>
      </trkpt>
      <trkpt lat="47.8928158" lon="-1.7748604">
        <ele>8.126</ele>
        <time>2018-08-29T10:07:53.702Z</time>
      </trkpt>
      <trkpt lat="47.8928468" lon="-1.7747193">
        <ele>8.245</ele>
        <time>2018-08-29T10:07:56.733Z</time>
      </trkpt>
      <trkpt lat="47.8928847" lon="-1.7745827">
        <ele>8.336</ele>
        <time>2018-08-29T10:07:59.777Z</time>
      </trkpt>
      <trkpt lat="47.8929228" lon="-1.7744554">
        <ele>8.456</ele>
        <time>2018-08-29T10:08:02.653Z</time>
      </trkpt>
      <trkpt lat="47.8929643" lon="-1.7743235">
        <ele>8.612</ele>
        <time>2018-08-29T10:08:05.715Z</time>
      </trkpt>
      <trkpt lat="47.8930127" lon="-1.7742007">
        <ele>8.742</ele>
        <time>2018-08-29T10:08:08.775Z</time>
      </trkpt>
      <trkpt lat="47.8930723" lon="-1.7740515">
        <ele>8.760</ele>
        <time>2018-08-29T10:08:12.570Z</time>
      </trkpt>
      <trkpt lat="47.8931177" lon="-1.7739339">
        <ele>8.658</ele>
        <time>2018-08-29T10:08:15.513Z</time>
      </trkpt>
      <trkpt lat="47.8931720" lon="-1.7738254">
        <ele>8.498</ele>
        <time>2018-08-29T10:08:18.445Z</time>
      </trkpt>
      <trkpt lat="47.8932400" lon="-1.7736789">
        <ele>8.357</ele>
        <time>2018-08-29T10:08:22.277Z</time>
      </trkpt>
      <trkpt lat="47.8932825" lon="-1.7735534">
        <ele>8.276</ele>
        <time>2018-08-29T10:08:25.258Z</time>
      </trkpt>
      <trkpt lat="47.8933165" lon="-1.7734223">
        <ele>8.254</ele>
        <time>2018-08-29T10:08:28.189Z</time>
      </trkpt>
      <trkpt lat="47.8933520" lon="-1.7732919">
        <ele>8.240</ele>
        <time>2018-08-29T10:08:31.040Z</time>
      </trkpt>
      <trkpt lat="47.8933915" lon="-1.7731490">
        <ele>8.199</ele>
        <time>2018-08-29T10:08:34.085Z</time>
      </trkpt>
      <trkpt lat="47.8934305" lon="-1.7730044">
        <ele>8.166</ele>
        <time>2018-08-29T10:08:37.094Z</time>
      </trkpt>
      <trkpt lat="47.8934594" lon="-1.7728542">
        <ele>8.176</ele>
        <time>2018-08-29T10:08:40.065Z</time>
      </trkpt>
      <trkpt lat="47.8934885" lon="-1.7726961">
        <ele>8.188</ele>
        <time>2018-08-29T10:08:43.159Z</time>
      </trkpt>
      <trkpt lat="47.8935205" lon="-1.7725488">
        <ele>8.149</ele>
        <time>2018-08-29T10:08:46.097Z</time>
      </trkpt>
      <trkpt lat="47.8935545" lon="-1.7724044">
        <ele>8.078</ele>
        <time>2018-08-29T10:08:49.024Z</time>
      </trkpt>
      <trkpt lat="47.8935797" lon="-1.7722538">
        <ele>8.029</ele>
        <time>2018-08-29T10:08:52.026Z</time>
      </trkpt>
      <trkpt lat="47.8936069" lon="-1.7721098">
        <ele>8.017</ele>
        <time>2018-08-29T10:08:54.963Z</time>
      </trkpt>
      <trkpt lat="47.8936327" lon="-1.7719664">
        <ele>8.011</ele>
        <time>2018-08-29T10:08:57.899Z</time>
      </trkpt>
      <trkpt lat="47.8936593" lon="-1.7718203">
        <ele>7.981</ele>
        <time>2018-08-29T10:09:00.882Z</time>
      </trkpt>
      <trkpt lat="47.8936868" lon="-1.7716752">
        <ele>7.946</ele>
        <time>2018-08-29T10:09:03.807Z</time>
      </trkpt>
      <trkpt lat="47.8937151" lon="-1.7715221">
        <ele>7.895</ele>
        <time>2018-08-29T10:09:06.809Z</time>
      </trkpt>
      <trkpt lat="47.8937384" lon="-1.7713614">
        <ele>7.784</ele>
        <time>2018-08-29T10:09:09.852Z</time>
      </trkpt>
      <trkpt lat="47.8937582" lon="-1.7712012">
        <ele>7.631</ele>
        <time>2018-08-29T10:09:12.795Z</time>
      </trkpt>
      <trkpt lat="47.8937799" lon="-1.7710272">
        <ele>7.518</ele>
        <time>2018-08-29T10:09:15.924Z</time>
      </trkpt>
      <trkpt lat="47.8938079" lon="-1.7708565">
        <ele>7.483</ele>
        <time>2018-08-29T10:09:19.026Z</time>
      </trkpt>
      <trkpt lat="47.8938258" lon="-1.7707009">
        <ele>7.499</ele>
        <time>2018-08-29T10:09:21.856Z</time>
      </trkpt>
      <trkpt lat="47.8938480" lon="-1.7705478">
        <ele>7.521</ele>
        <time>2018-08-29T10:09:24.729Z</time>
      </trkpt>
      <trkpt lat="47.8938695" lon="-1.7703942">
        <ele>7.494</ele>
        <time>2018-08-29T10:09:27.687Z</time>
      </trkpt>
      <trkpt lat="47.8938944" lon="-1.7702512">
        <ele>7.361</ele>
        <time>2018-08-29T10:09:30.506Z</time>
      </trkpt>
      <trkpt lat="47.8939076" lon="-1.7700900">
        <ele>7.166</ele>
        <time>2018-08-29T10:09:33.562Z</time>
      </trkpt>
      <trkpt lat="47.8939244" lon="-1.7699267">
        <ele>7.019</ele>
        <time>2018-08-29T10:09:36.644Z</time>
      </trkpt>
      <trkpt lat="47.8939406" lon="-1.7697724">
        <ele>6.895</ele>
        <time>2018-08-29T10:09:39.540Z</time>
      </trkpt>
      <trkpt lat="47.8939691" lon="-1.7696203">
        <ele>6.721</ele>
        <time>2018-08-29T10:09:42.444Z</time>
      </trkpt>
      <trkpt lat="47.8939943" lon="-1.7694555">
        <ele>6.559</ele>
        <time>2018-08-29T10:09:45.543Z</time>
      </trkpt>
      <trkpt lat="47.8940026" lon="-1.7693012">
        <ele>6.502</ele>
        <time>2018-08-29T10:09:48.418Z</time>
      </trkpt>
      <trkpt lat="47.8940263" lon="-1.7691634">
        <ele>6.604</ele>
        <time>2018-08-29T10:09:51.140Z</time>
      </trkpt>
      <trkpt lat="47.8940535" lon="-1.7690238">
        <ele>6.943</ele>
        <time>2018-08-29T10:09:54.008Z</time>
      </trkpt>
      <trkpt lat="47.8940802" lon="-1.7688872">
        <ele>7.450</ele>
        <time>2018-08-29T10:09:56.897Z</time>
      </trkpt>
      <trkpt lat="47.8941026" lon="-1.7687525">
        <ele>7.888</ele>
        <time>2018-08-29T10:09:59.777Z</time>
      </trkpt>
      <trkpt lat="47.8941214" lon="-1.7686154">
        <ele>8.122</ele>
        <time>2018-08-29T10:10:02.674Z</time>
      </trkpt>
      <trkpt lat="47.8941409" lon="-1.7684662">
        <ele>8.180</ele>
        <time>2018-08-29T10:10:05.764Z</time>
      </trkpt>
      <trkpt lat="47.8941627" lon="-1.7683187">
        <ele>8.157</ele>
        <time>2018-08-29T10:10:08.773Z</time>
      </trkpt>
      <trkpt lat="47.8941870" lon="-1.7681731">
        <ele>8.101</ele>
        <time>2018-08-29T10:10:11.755Z</time>
      </trkpt>
      <trkpt lat="47.8942163" lon="-1.7680346">
        <ele>7.952</ele>
        <time>2018-08-29T10:10:14.609Z</time>
      </trkpt>
      <trkpt lat="47.8942379" lon="-1.7678673">
        <ele>7.686</ele>
        <time>2018-08-29T10:10:17.866Z</time>
      </trkpt>
      <trkpt lat="47.8942581" lon="-1.7677119">
        <ele>7.420</ele>
        <time>2018-08-29T10:10:20.857Z</time>
      </trkpt>
      <trkpt lat="47.8942811" lon="-1.7675586">
        <ele>7.353</ele>
        <time>2018-08-29T10:10:23.821Z</time>
      </trkpt>
      <trkpt lat="47.8943025" lon="-1.7674033">
        <ele>7.579</ele>
        <time>2018-08-29T10:10:26.808Z</time>
      </trkpt>
      <trkpt lat="47.8943216" lon="-1.7672480">
        <ele>7.948</ele>
        <time>2018-08-29T10:10:29.793Z</time>
      </trkpt>
      <trkpt lat="47.8943396" lon="-1.7670925">
        <ele>8.246</ele>
        <time>2018-08-29T10:10:32.759Z</time>
      </trkpt>
      <trkpt lat="47.8943551" lon="-1.7669266">
        <ele>8.399</ele>
        <time>2018-08-29T10:10:35.821Z</time>
      </trkpt>
      <trkpt lat="47.8943614" lon="-1.7667526">
        <ele>8.367</ele>
        <time>2018-08-29T10:10:38.925Z</time>
      </trkpt>
      <trkpt lat="47.8943825" lon="-1.7665890">
        <ele>8.141</ele>
        <time>2018-08-29T10:10:41.869Z</time>
      </trkpt>
      <trkpt lat="47.8944028" lon="-1.7664266">
        <ele>7.791</ele>
        <time>2018-08-29T10:10:44.836Z</time>
      </trkpt>
      <trkpt lat="47.8944244" lon="-1.7662759">
        <ele>7.433</ele>
        <time>2018-08-29T10:10:47.690Z</time>
      </trkpt>
      <trkpt lat="47.8944408" lon="-1.7661248">
        <ele>7.173</ele>
        <time>2018-08-29T10:10:50.609Z</time>
      </trkpt>
      <trkpt lat="47.8944551" lon="-1.7659830">
        <ele>7.061</ele>
        <time>2018-08-29T10:10:53.397Z</time>
      </trkpt>
      <trkpt lat="47.8944721" lon="-1.7658344">
        <ele>7.084</ele>
        <time>2018-08-29T10:10:56.329Z</time>
      </trkpt>
      <trkpt lat="47.8944853" lon="-1.7656781">
        <ele>7.198</ele>
        <time>2018-08-29T10:10:59.344Z</time>
      </trkpt>
      <trkpt lat="47.8944952" lon="-1.7655135">
        <ele>7.290</ele>
        <time>2018-08-29T10:11:02.449Z</time>
      </trkpt>
      <trkpt lat="47.8945017" lon="-1.7653495">
        <ele>7.286</ele>
        <time>2018-08-29T10:11:05.513Z</time>
      </trkpt>
      <trkpt lat="47.8945054" lon="-1.7651919">
        <ele>7.243</ele>
        <time>2018-08-29T10:11:08.440Z</time>
      </trkpt>
      <trkpt lat="47.8945003" lon="-1.7650286">
        <ele>7.224</ele>
        <time>2018-08-29T10:11:11.468Z</time>
      </trkpt>
      <trkpt lat="47.8944977" lon="-1.7648752">
        <ele>7.201</ele>
        <time>2018-08-29T10:11:14.302Z</time>
      </trkpt>
      <trkpt lat="47.8944931" lon="-1.7647009">
        <ele>7.113</ele>
        <time>2018-08-29T10:11:17.531Z</time>
      </trkpt>
      <trkpt lat="47.8944927" lon="-1.7645442">
        <ele>6.850</ele>
        <time>2018-08-29T10:11:20.446Z</time>
      </trkpt>
      <trkpt lat="47.8944864" lon="-1.7643746">
        <ele>6.399</ele>
        <time>2018-08-29T10:11:23.612Z</time>
      </trkpt>
      <trkpt lat="47.8944929" lon="-1.7642234">
        <ele>5.980</ele>
        <time>2018-08-29T10:11:26.507Z</time>
      </trkpt>
      <trkpt lat="47.8945116" lon="-1.7640839">
        <ele>5.782</ele>
        <time>2018-08-29T10:11:29.301Z</time>
      </trkpt>
      <trkpt lat="47.8945387" lon="-1.7639338">
        <ele>5.759</ele>
        <time>2018-08-29T10:11:32.378Z</time>
      </trkpt>
      <trkpt lat="47.8945693" lon="-1.7637828">
        <ele>5.811</ele>
        <time>2018-08-29T10:11:35.476Z</time>
      </trkpt>
      <trkpt lat="47.8945967" lon="-1.7636360">
        <ele>5.948</ele>
        <time>2018-08-29T10:11:38.472Z</time>
      </trkpt>
      <trkpt lat="47.8946271" lon="-1.7635006">
        <ele>6.215</ele>
        <time>2018-08-29T10:11:41.301Z</time>
      </trkpt>
      <trkpt lat="47.8946636" lon="-1.7633611">
        <ele>6.534</ele>
        <time>2018-08-29T10:11:44.270Z</time>
      </trkpt>
      <trkpt lat="47.8947114" lon="-1.7632211">
        <ele>6.750</ele>
        <time>2018-08-29T10:11:47.343Z</time>
      </trkpt>
      <trkpt lat="47.8947691" lon="-1.7630856">
        <ele>6.809</ele>
        <time>2018-08-29T10:11:50.408Z</time>
      </trkpt>
      <trkpt lat="47.8948271" lon="-1.7629513">
        <ele>6.754</ele>
        <time>2018-08-29T10:11:53.420Z</time>
      </trkpt>
      <trkpt lat="47.8948862" lon="-1.7628325">
        <ele>6.682</ele>
        <time>2018-08-29T10:11:56.237Z</time>
      </trkpt>
      <trkpt lat="47.8949373" lon="-1.7627106">
        <ele>6.638</ele>
        <time>2018-08-29T10:11:59.049Z</time>
      </trkpt>
      <trkpt lat="47.8949884" lon="-1.7625940">
        <ele>6.551</ele>
        <time>2018-08-29T10:12:01.872Z</time>
      </trkpt>
      <trkpt lat="47.8950435" lon="-1.7624821">
        <ele>6.382</ele>
        <time>2018-08-29T10:12:04.755Z</time>
      </trkpt>
      <trkpt lat="47.8950985" lon="-1.7623664">
        <ele>6.421</ele>
        <time>2018-08-29T10:12:07.723Z</time>
      </trkpt>
      <trkpt lat="47.8951507" lon="-1.7622465">
        <ele>6.841</ele>
        <time>2018-08-29T10:12:10.733Z</time>
      </trkpt>
      <trkpt lat="47.8952041" lon="-1.7621366">
        <ele>7.281</ele>
        <time>2018-08-29T10:12:13.651Z</time>
      </trkpt>
      <trkpt lat="47.8952842" lon="-1.7620094">
        <ele>7.405</ele>
        <time>2018-08-29T10:12:17.457Z</time>
      </trkpt>
      <trkpt lat="47.8953490" lon="-1.7618967">
        <ele>7.386</ele>
        <time>2018-08-29T10:12:20.740Z</time>
      </trkpt>
      <trkpt lat="47.8954152" lon="-1.7617823">
        <ele>7.493</ele>
        <time>2018-08-29T10:12:24.185Z</time>
      </trkpt>
      <trkpt lat="47.8954782" lon="-1.7616577">
        <ele>7.756</ele>
        <time>2018-08-29T10:12:27.901Z</time>
      </trkpt>
      <trkpt lat="47.8955295" lon="-1.7615449">
        <ele>8.031</ele>
        <time>2018-08-29T10:12:31.158Z</time>
      </trkpt>
      <trkpt lat="47.8955979" lon="-1.7614195">
        <ele>8.156</ele>
        <time>2018-08-29T10:12:34.973Z</time>
      </trkpt>
      <trkpt lat="47.8956509" lon="-1.7613008">
        <ele>8.066</ele>
        <time>2018-08-29T10:12:38.260Z</time>
      </trkpt>
      <trkpt lat="47.8957041" lon="-1.7611866">
        <ele>7.897</ele>
        <time>2018-08-29T10:12:41.362Z</time>
      </trkpt>
      <trkpt lat="47.8957554" lon="-1.7610743">
        <ele>7.861</ele>
        <time>2018-08-29T10:12:44.318Z</time>
      </trkpt>
      <trkpt lat="47.8958088" lon="-1.7609543">
        <ele>7.988</ele>
        <time>2018-08-29T10:12:47.393Z</time>
      </trkpt>
      <trkpt lat="47.8958622" lon="-1.7608348">
        <ele>8.141</ele>
        <time>2018-08-29T10:12:50.391Z</time>
      </trkpt>
      <trkpt lat="47.8959086" lon="-1.7607031">
        <ele>8.319</ele>
        <time>2018-08-29T10:12:53.418Z</time>
      </trkpt>
      <trkpt lat="47.8959494" lon="-1.7605628">
        <ele>8.589</ele>
        <time>2018-08-29T10:12:56.440Z</time>
      </trkpt>
      <trkpt lat="47.8959983" lon="-1.7604284">
        <ele>8.913</ele>
        <time>2018-08-29T10:12:59.396Z</time>
      </trkpt>
      <trkpt lat="47.8960514" lon="-1.7602894">
        <ele>9.252</ele>
        <time>2018-08-29T10:13:02.435Z</time>
      </trkpt>
      <trkpt lat="47.8961096" lon="-1.7601509">
        <ele>9.554</ele>
        <time>2018-08-29T10:13:05.500Z</time>
      </trkpt>
      <trkpt lat="47.8961628" lon="-1.7600146">
        <ele>9.692</ele>
        <time>2018-08-29T10:13:08.454Z</time>
      </trkpt>
      <trkpt lat="47.8962151" lon="-1.7598864">
        <ele>9.591</ele>
        <time>2018-08-29T10:13:11.314Z</time>
      </trkpt>
      <trkpt lat="47.8962662" lon="-1.7597589">
        <ele>9.249</ele>
        <time>2018-08-29T10:13:14.210Z</time>
      </trkpt>
      <trkpt lat="47.8963130" lon="-1.7596333">
        <ele>8.793</ele>
        <time>2018-08-29T10:13:17.077Z</time>
      </trkpt>
      <trkpt lat="47.8963649" lon="-1.7595166">
        <ele>8.435</ele>
        <time>2018-08-29T10:13:19.932Z</time>
      </trkpt>
      <trkpt lat="47.8964242" lon="-1.7594076">
        <ele>8.290</ele>
        <time>2018-08-29T10:13:22.843Z</time>
      </trkpt>
      <trkpt lat="47.8964895" lon="-1.7593003">
        <ele>8.348</ele>
        <time>2018-08-29T10:13:25.864Z</time>
      </trkpt>
      <trkpt lat="47.8965538" lon="-1.7591947">
        <ele>8.532</ele>
        <time>2018-08-29T10:13:28.828Z</time>
      </trkpt>
      <trkpt lat="47.8966247" lon="-1.7590960">
        <ele>8.695</ele>
        <time>2018-08-29T10:13:31.822Z</time>
      </trkpt>
      <trkpt lat="47.8966976" lon="-1.7589969">
        <ele>8.754</ele>
        <time>2018-08-29T10:13:34.856Z</time>
      </trkpt>
      <trkpt lat="47.8967733" lon="-1.7588993">
        <ele>8.734</ele>
        <time>2018-08-29T10:13:37.925Z</time>
      </trkpt>
      <trkpt lat="47.8968485" lon="-1.7588047">
        <ele>8.678</ele>
        <time>2018-08-29T10:13:40.939Z</time>
      </trkpt>
      <trkpt lat="47.8969206" lon="-1.7587090">
        <ele>8.598</ele>
        <time>2018-08-29T10:13:43.892Z</time>
      </trkpt>
      <trkpt lat="47.8969944" lon="-1.7586190">
        <ele>8.489</ele>
        <time>2018-08-29T10:13:46.800Z</time>
      </trkpt>
      <trkpt lat="47.8970734" lon="-1.7585318">
        <ele>8.385</ele>
        <time>2018-08-29T10:13:49.787Z</time>
      </trkpt>
      <trkpt lat="47.8971543" lon="-1.7584499">
        <ele>8.336</ele>
        <time>2018-08-29T10:13:52.735Z</time>
      </trkpt>
      <trkpt lat="47.8972434" lon="-1.7583715">
        <ele>8.339</ele>
        <time>2018-08-29T10:13:55.812Z</time>
      </trkpt>
      <trkpt lat="47.8973388" lon="-1.7582992">
        <ele>8.335</ele>
        <time>2018-08-29T10:13:58.935Z</time>
      </trkpt>
      <trkpt lat="47.8974226" lon="-1.7582408">
        <ele>8.267</ele>
        <time>2018-08-29T10:14:01.650Z</time>
      </trkpt>
      <trkpt lat="47.8975123" lon="-1.7581794">
        <ele>8.164</ele>
        <time>2018-08-29T10:14:04.614Z</time>
      </trkpt>
      <trkpt lat="47.8976013" lon="-1.7581328">
        <ele>8.090</ele>
        <time>2018-08-29T10:14:07.487Z</time>
      </trkpt>
      <trkpt lat="47.8976990" lon="-1.7580812">
        <ele>8.079</ele>
        <time>2018-08-29T10:14:10.636Z</time>
      </trkpt>
      <trkpt lat="47.8977937" lon="-1.7580361">
        <ele>8.138</ele>
        <time>2018-08-29T10:14:13.640Z</time>
      </trkpt>
      <trkpt lat="47.8979108" lon="-1.7579941">
        <ele>8.246</ele>
        <time>2018-08-29T10:14:17.355Z</time>
      </trkpt>
      <trkpt lat="47.8980126" lon="-1.7579602">
        <ele>8.354</ele>
        <time>2018-08-29T10:14:20.572Z</time>
      </trkpt>
      <trkpt lat="47.8981195" lon="-1.7579223">
        <ele>8.416</ele>
        <time>2018-08-29T10:14:23.784Z</time>
      </trkpt>
      <trkpt lat="47.8982242" lon="-1.7578827">
        <ele>8.494</ele>
        <time>2018-08-29T10:14:26.836Z</time>
      </trkpt>
      <trkpt lat="47.8983205" lon="-1.7578536">
        <ele>8.693</ele>
        <time>2018-08-29T10:14:29.620Z</time>
      </trkpt>
      <trkpt lat="47.8984223" lon="-1.7578267">
        <ele>8.975</ele>
        <time>2018-08-29T10:14:32.601Z</time>
      </trkpt>
      <trkpt lat="47.8985215" lon="-1.7578003">
        <ele>9.242</ele>
        <time>2018-08-29T10:14:35.538Z</time>
      </trkpt>
      <trkpt lat="47.8986175" lon="-1.7577745">
        <ele>9.548</ele>
        <time>2018-08-29T10:14:38.426Z</time>
      </trkpt>
      <trkpt lat="47.8987106" lon="-1.7577459">
        <ele>9.925</ele>
        <time>2018-08-29T10:14:41.305Z</time>
      </trkpt>
      <trkpt lat="47.8988190" lon="-1.7577169">
        <ele>10.226</ele>
        <time>2018-08-29T10:14:44.769Z</time>
      </trkpt>
      <trkpt lat="47.8989209" lon="-1.7576964">
        <ele>10.356</ele>
        <time>2018-08-29T10:14:48.237Z</time>
      </trkpt>
      <trkpt lat="47.8990208" lon="-1.7576895">
        <ele>10.372</ele>
        <time>2018-08-29T10:14:51.828Z</time>
      </trkpt>
      <trkpt lat="47.8991214" lon="-1.7576579">
        <ele>10.335</ele>
        <time>2018-08-29T10:14:55.532Z</time>
      </trkpt>
      <trkpt lat="47.8992156" lon="-1.7576354">
        <ele>10.188</ele>
        <time>2018-08-29T10:14:58.769Z</time>
      </trkpt>
      <trkpt lat="47.8993154" lon="-1.7576445">
        <ele>9.904</ele>
        <time>2018-08-29T10:15:02.002Z</time>
      </trkpt>
      <trkpt lat="47.8994096" lon="-1.7576858">
        <ele>9.692</ele>
        <time>2018-08-29T10:15:05.096Z</time>
      </trkpt>
      <trkpt lat="47.8995227" lon="-1.7577361">
        <ele>9.751</ele>
        <time>2018-08-29T10:15:08.863Z</time>
      </trkpt>
      <trkpt lat="47.8996260" lon="-1.7577913">
        <ele>10.056</ele>
        <time>2018-08-29T10:15:12.479Z</time>
      </trkpt>
      <trkpt lat="47.8997215" lon="-1.7578495">
        <ele>10.462</ele>
        <time>2018-08-29T10:15:16.068Z</time>
      </trkpt>
      <trkpt lat="47.8998365" lon="-1.7578567">
        <ele>10.804</ele>
        <time>2018-08-29T10:15:20.261Z</time>
      </trkpt>
      <trkpt lat="47.8999532" lon="-1.7578729">
        <ele>10.977</ele>
        <time>2018-08-29T10:15:24.522Z</time>
      </trkpt>
      <trkpt lat="47.9000413" lon="-1.7579012">
        <ele>10.904</ele>
        <time>2018-08-29T10:15:27.707Z</time>
      </trkpt>
      <trkpt lat="47.9001571" lon="-1.7579453">
        <ele>10.612</ele>
        <time>2018-08-29T10:15:31.806Z</time>
      </trkpt>
      <trkpt lat="47.9002682" lon="-1.7580060">
        <ele>10.335</ele>
        <time>2018-08-29T10:15:35.772Z</time>
      </trkpt>
      <trkpt lat="47.9003569" lon="-1.7580559">
        <ele>10.248</ele>
        <time>2018-08-29T10:15:38.887Z</time>
      </trkpt>
      <trkpt lat="47.9004425" lon="-1.7581152">
        <ele>10.321</ele>
        <time>2018-08-29T10:15:41.917Z</time>
      </trkpt>
      <trkpt lat="47.9005314" lon="-1.7581752">
        <ele>10.542</ele>
        <time>2018-08-29T10:15:45.000Z</time>
      </trkpt>
      <trkpt lat="47.9005314" lon="-1.7581752">
        <ele>10.875</ele>
        <time>2018-08-29T10:15:48.000Z</time>
      </trkpt>
      <trkpt lat="47.9005314" lon="-1.7581752">
        <ele>11.104</ele>
        <time>2018-08-29T10:17:43.768Z</time>
      </trkpt>
      <trkpt lat="47.9007795" lon="-1.7583244">
        <ele>11.044</ele>
        <time>2018-08-29T10:18:03.802Z</time>
      </trkpt>
      <trkpt lat="47.9008675" lon="-1.7583840">
        <ele>10.780</ele>
        <time>2018-08-29T10:18:07.609Z</time>
      </trkpt>
      <trkpt lat="47.9009605" lon="-1.7584423">
        <ele>10.442</ele>
        <time>2018-08-29T10:18:11.425Z</time>
      </trkpt>
      <trkpt lat="47.9010500" lon="-1.7585121">
        <ele>10.103</ele>
        <time>2018-08-29T10:18:15.030Z</time>
      </trkpt>
      <trkpt lat="47.9011387" lon="-1.7585630">
        <ele>9.857</ele>
        <time>2018-08-29T10:18:18.265Z</time>
      </trkpt>
      <trkpt lat="47.9012435" lon="-1.7586357">
        <ele>9.748</ele>
        <time>2018-08-29T10:18:22.004Z</time>
      </trkpt>
      <trkpt lat="47.9013233" lon="-1.7587213">
        <ele>9.699</ele>
        <time>2018-08-29T10:18:25.064Z</time>
      </trkpt>
      <trkpt lat="47.9014066" lon="-1.7588023">
        <ele>9.646</ele>
        <time>2018-08-29T10:18:28.098Z</time>
      </trkpt>
      <trkpt lat="47.9014892" lon="-1.7588834">
        <ele>9.574</ele>
        <time>2018-08-29T10:18:31.066Z</time>
      </trkpt>
      <trkpt lat="47.9015709" lon="-1.7589659">
        <ele>9.476</ele>
        <time>2018-08-29T10:18:33.993Z</time>
      </trkpt>
      <trkpt lat="47.9016533" lon="-1.7590528">
        <ele>9.333</ele>
        <time>2018-08-29T10:18:36.958Z</time>
      </trkpt>
      <trkpt lat="47.9017339" lon="-1.7591419">
        <ele>9.097</ele>
        <time>2018-08-29T10:18:39.884Z</time>
      </trkpt>
      <trkpt lat="47.9018184" lon="-1.7592312">
        <ele>8.767</ele>
        <time>2018-08-29T10:18:42.870Z</time>
      </trkpt>
      <trkpt lat="47.9019109" lon="-1.7593090">
        <ele>8.435</ele>
        <time>2018-08-29T10:18:45.884Z</time>
      </trkpt>
      <trkpt lat="47.9020016" lon="-1.7593881">
        <ele>8.156</ele>
        <time>2018-08-29T10:18:48.844Z</time>
      </trkpt>
      <trkpt lat="47.9020993" lon="-1.7594555">
        <ele>7.949</ele>
        <time>2018-08-29T10:18:51.877Z</time>
      </trkpt>
      <trkpt lat="47.9021950" lon="-1.7595294">
        <ele>7.837</ele>
        <time>2018-08-29T10:18:54.960Z</time>
      </trkpt>
      <trkpt lat="47.9022857" lon="-1.7596026">
        <ele>7.726</ele>
        <time>2018-08-29T10:18:57.957Z</time>
      </trkpt>
      <trkpt lat="47.9023749" lon="-1.7596661">
        <ele>7.551</ele>
        <time>2018-08-29T10:19:00.835Z</time>
      </trkpt>
      <trkpt lat="47.9024645" lon="-1.7597361">
        <ele>7.419</ele>
        <time>2018-08-29T10:19:03.778Z</time>
      </trkpt>
      <trkpt lat="47.9025591" lon="-1.7597921">
        <ele>7.423</ele>
        <time>2018-08-29T10:19:06.752Z</time>
      </trkpt>
      <trkpt lat="47.9026603" lon="-1.7598315">
        <ele>7.493</ele>
        <time>2018-08-29T10:19:09.820Z</time>
      </trkpt>
      <trkpt lat="47.9027523" lon="-1.7598987">
        <ele>7.443</ele>
        <time>2018-08-29T10:19:12.796Z</time>
      </trkpt>
      <trkpt lat="47.9028342" lon="-1.7599889">
        <ele>7.192</ele>
        <time>2018-08-29T10:19:15.668Z</time>
      </trkpt>
      <trkpt lat="47.9029170" lon="-1.7600993">
        <ele>6.906</ele>
        <time>2018-08-29T10:19:18.703Z</time>
      </trkpt>
      <trkpt lat="47.9030026" lon="-1.7602084">
        <ele>6.837</ele>
        <time>2018-08-29T10:19:21.737Z</time>
      </trkpt>
      <trkpt lat="47.9030830" lon="-1.7603189">
        <ele>7.023</ele>
        <time>2018-08-29T10:19:24.670Z</time>
      </trkpt>
      <trkpt lat="47.9031669" lon="-1.7604214">
        <ele>7.295</ele>
        <time>2018-08-29T10:19:27.577Z</time>
      </trkpt>
      <trkpt lat="47.9032610" lon="-1.7605070">
        <ele>7.494</ele>
        <time>2018-08-29T10:19:30.524Z</time>
      </trkpt>
      <trkpt lat="47.9033644" lon="-1.7605810">
        <ele>7.639</ele>
        <time>2018-08-29T10:19:33.548Z</time>
      </trkpt>
      <trkpt lat="47.9034646" lon="-1.7606613">
        <ele>7.780</ele>
        <time>2018-08-29T10:19:36.495Z</time>
      </trkpt>
      <trkpt lat="47.9035667" lon="-1.7607499">
        <ele>7.866</ele>
        <time>2018-08-29T10:19:39.539Z</time>
      </trkpt>
      <trkpt lat="47.9036656" lon="-1.7608370">
        <ele>7.833</ele>
        <time>2018-08-29T10:19:42.562Z</time>
      </trkpt>
      <trkpt lat="47.9037490" lon="-1.7609136">
        <ele>7.725</ele>
        <time>2018-08-29T10:19:45.194Z</time>
      </trkpt>
      <trkpt lat="47.9038340" lon="-1.7609985">
        <ele>7.617</ele>
        <time>2018-08-29T10:19:47.959Z</time>
      </trkpt>
      <trkpt lat="47.9039221" lon="-1.7610958">
        <ele>7.550</ele>
        <time>2018-08-29T10:19:50.900Z</time>
      </trkpt>
      <trkpt lat="47.9040183" lon="-1.7611860">
        <ele>7.634</ele>
        <time>2018-08-29T10:19:53.908Z</time>
      </trkpt>
      <trkpt lat="47.9041181" lon="-1.7612721">
        <ele>7.910</ele>
        <time>2018-08-29T10:19:56.937Z</time>
      </trkpt>
      <trkpt lat="47.9042251" lon="-1.7613417">
        <ele>8.197</ele>
        <time>2018-08-29T10:20:00.002Z</time>
      </trkpt>
      <trkpt lat="47.9043332" lon="-1.7613994">
        <ele>8.317</ele>
        <time>2018-08-29T10:20:03.017Z</time>
      </trkpt>
      <trkpt lat="47.9044385" lon="-1.7614558">
        <ele>8.325</ele>
        <time>2018-08-29T10:20:05.931Z</time>
      </trkpt>
      <trkpt lat="47.9045527" lon="-1.7615114">
        <ele>8.336</ele>
        <time>2018-08-29T10:20:09.010Z</time>
      </trkpt>
      <trkpt lat="47.9046638" lon="-1.7615756">
        <ele>8.374</ele>
        <time>2018-08-29T10:20:12.037Z</time>
      </trkpt>
      <trkpt lat="47.9047751" lon="-1.7616362">
        <ele>8.401</ele>
        <time>2018-08-29T10:20:15.064Z</time>
      </trkpt>
      <trkpt lat="47.9048793" lon="-1.7617015">
        <ele>8.486</ele>
        <time>2018-08-29T10:20:17.983Z</time>
      </trkpt>
      <trkpt lat="47.9049801" lon="-1.7617692">
        <ele>8.677</ele>
        <time>2018-08-29T10:20:20.850Z</time>
      </trkpt>
      <trkpt lat="47.9050816" lon="-1.7618388">
        <ele>8.868</ele>
        <time>2018-08-29T10:20:23.741Z</time>
      </trkpt>
      <trkpt lat="47.9051858" lon="-1.7619133">
        <ele>8.969</ele>
        <time>2018-08-29T10:20:26.732Z</time>
      </trkpt>
      <trkpt lat="47.9052820" lon="-1.7619925">
        <ele>9.012</ele>
        <time>2018-08-29T10:20:29.583Z</time>
      </trkpt>
      <trkpt lat="47.9053799" lon="-1.7620774">
        <ele>9.041</ele>
        <time>2018-08-29T10:20:32.504Z</time>
      </trkpt>
      <trkpt lat="47.9054843" lon="-1.7621609">
        <ele>9.108</ele>
        <time>2018-08-29T10:20:35.522Z</time>
      </trkpt>
      <trkpt lat="47.9055912" lon="-1.7622357">
        <ele>9.259</ele>
        <time>2018-08-29T10:20:38.537Z</time>
      </trkpt>
      <trkpt lat="47.9056898" lon="-1.7623047">
        <ele>9.452</ele>
        <time>2018-08-29T10:20:41.345Z</time>
      </trkpt>
      <trkpt lat="47.9057910" lon="-1.7623720">
        <ele>9.630</ele>
        <time>2018-08-29T10:20:44.196Z</time>
      </trkpt>
      <trkpt lat="47.9059032" lon="-1.7624370">
        <ele>9.851</ele>
        <time>2018-08-29T10:20:47.263Z</time>
      </trkpt>
      <trkpt lat="47.9060144" lon="-1.7624880">
        <ele>10.159</ele>
        <time>2018-08-29T10:20:50.258Z</time>
      </trkpt>
      <trkpt lat="47.9061171" lon="-1.7625461">
        <ele>10.483</ele>
        <time>2018-08-29T10:20:53.138Z</time>
      </trkpt>
      <trkpt lat="47.9062180" lon="-1.7626036">
        <ele>10.695</ele>
        <time>2018-08-29T10:20:55.999Z</time>
      </trkpt>
      <trkpt lat="47.9063130" lon="-1.7626832">
        <ele>10.696</ele>
        <time>2018-08-29T10:20:58.850Z</time>
      </trkpt>
      <trkpt lat="47.9064101" lon="-1.7627825">
        <ele>10.518</ele>
        <time>2018-08-29T10:21:01.856Z</time>
      </trkpt>
      <trkpt lat="47.9065028" lon="-1.7628887">
        <ele>10.306</ele>
        <time>2018-08-29T10:21:04.770Z</time>
      </trkpt>
      <trkpt lat="47.9066006" lon="-1.7629969">
        <ele>10.097</ele>
        <time>2018-08-29T10:21:07.760Z</time>
      </trkpt>
      <trkpt lat="47.9066947" lon="-1.7631042">
        <ele>10.134</ele>
        <time>2018-08-29T10:21:10.695Z</time>
      </trkpt>
      <trkpt lat="47.9067778" lon="-1.7632120">
        <ele>10.247</ele>
        <time>2018-08-29T10:21:13.470Z</time>
      </trkpt>
      <trkpt lat="47.9068638" lon="-1.7633140">
        <ele>10.490</ele>
        <time>2018-08-29T10:21:16.263Z</time>
      </trkpt>
      <trkpt lat="47.9069656" lon="-1.7634080">
        <ele>10.852</ele>
        <time>2018-08-29T10:21:19.291Z</time>
      </trkpt>
      <trkpt lat="47.9070792" lon="-1.7634945">
        <ele>11.136</ele>
        <time>2018-08-29T10:21:22.458Z</time>
      </trkpt>
      <trkpt lat="47.9071907" lon="-1.7635778">
        <ele>11.150</ele>
        <time>2018-08-29T10:21:25.532Z</time>
      </trkpt>
      <trkpt lat="47.9072912" lon="-1.7636497">
        <ele>10.798</ele>
        <time>2018-08-29T10:21:28.327Z</time>
      </trkpt>
      <trkpt lat="47.9073953" lon="-1.7637225">
        <ele>10.190</ele>
        <time>2018-08-29T10:21:31.255Z</time>
      </trkpt>
      <trkpt lat="47.9075031" lon="-1.7637911">
        <ele>9.604</ele>
        <time>2018-08-29T10:21:34.272Z</time>
      </trkpt>
      <trkpt lat="47.9076087" lon="-1.7638594">
        <ele>9.722</ele>
        <time>2018-08-29T10:21:37.279Z</time>
      </trkpt>
      <trkpt lat="47.9077022" lon="-1.7639332">
        <ele>9.874</ele>
        <time>2018-08-29T10:21:40.087Z</time>
      </trkpt>
      <trkpt lat="47.9078011" lon="-1.7639943">
        <ele>9.924</ele>
        <time>2018-08-29T10:21:42.978Z</time>
      </trkpt>
      <trkpt lat="47.9078995" lon="-1.7640397">
        <ele>9.872</ele>
        <time>2018-08-29T10:21:45.828Z</time>
      </trkpt>
      <trkpt lat="47.9079931" lon="-1.7640797">
        <ele>9.762</ele>
        <time>2018-08-29T10:21:48.598Z</time>
      </trkpt>
      <trkpt lat="47.9080858" lon="-1.7641149">
        <ele>9.585</ele>
        <time>2018-08-29T10:21:51.393Z</time>
      </trkpt>
      <trkpt lat="47.9081744" lon="-1.7641553">
        <ele>9.288</ele>
        <time>2018-08-29T10:21:54.169Z</time>
      </trkpt>
      <trkpt lat="47.9082619" lon="-1.7641936">
        <ele>8.804</ele>
        <time>2018-08-29T10:21:56.957Z</time>
      </trkpt>
      <trkpt lat="47.9083495" lon="-1.7642340">
        <ele>8.244</ele>
        <time>2018-08-29T10:21:59.842Z</time>
      </trkpt>
      <trkpt lat="47.9084446" lon="-1.7642648">
        <ele>7.897</ele>
        <time>2018-08-29T10:22:03.000Z</time>
      </trkpt>
      <trkpt lat="47.9084446" lon="-1.7642648">
        <ele>7.865</ele>
        <time>2018-08-29T10:22:05.000Z</time>
      </trkpt>
      <trkpt lat="47.9084446" lon="-1.7642648">
        <ele>7.949</ele>
        <time>2018-08-29T10:24:04.067Z</time>
      </trkpt>
      <trkpt lat="47.9085978" lon="-1.7643424">
        <ele>7.969</ele>
        <time>2018-08-29T10:24:15.239Z</time>
      </trkpt>
      <trkpt lat="47.9087116" lon="-1.7643743">
        <ele>7.948</ele>
        <time>2018-08-29T10:24:19.591Z</time>
      </trkpt>
      <trkpt lat="47.9088071" lon="-1.7643909">
        <ele>7.956</ele>
        <time>2018-08-29T10:24:22.881Z</time>
      </trkpt>
      <trkpt lat="47.9089025" lon="-1.7644221">
        <ele>7.984</ele>
        <time>2018-08-29T10:24:26.066Z</time>
      </trkpt>
      <trkpt lat="47.9089937" lon="-1.7644671">
        <ele>8.026</ele>
        <time>2018-08-29T10:24:29.120Z</time>
      </trkpt>
      <trkpt lat="47.9090772" lon="-1.7645176">
        <ele>8.092</ele>
        <time>2018-08-29T10:24:31.966Z</time>
      </trkpt>
      <trkpt lat="47.9091630" lon="-1.7645746">
        <ele>8.169</ele>
        <time>2018-08-29T10:24:34.948Z</time>
      </trkpt>
      <trkpt lat="47.9092566" lon="-1.7646557">
        <ele>8.242</ele>
        <time>2018-08-29T10:24:38.529Z</time>
      </trkpt>
      <trkpt lat="47.9093481" lon="-1.7647351">
        <ele>8.369</ele>
        <time>2018-08-29T10:24:42.145Z</time>
      </trkpt>
      <trkpt lat="47.9094390" lon="-1.7648302">
        <ele>8.609</ele>
        <time>2018-08-29T10:24:45.935Z</time>
      </trkpt>
      <trkpt lat="47.9095383" lon="-1.7649173">
        <ele>8.896</ele>
        <time>2018-08-29T10:24:49.819Z</time>
      </trkpt>
      <trkpt lat="47.9096412" lon="-1.7649972">
        <ele>9.102</ele>
        <time>2018-08-29T10:24:53.679Z</time>
      </trkpt>
      <trkpt lat="47.9097463" lon="-1.7650810">
        <ele>9.180</ele>
        <time>2018-08-29T10:24:57.545Z</time>
      </trkpt>
      <trkpt lat="47.9098302" lon="-1.7651473">
        <ele>9.170</ele>
        <time>2018-08-29T10:25:00.514Z</time>
      </trkpt>
      <trkpt lat="47.9099159" lon="-1.7652046">
        <ele>9.146</ele>
        <time>2018-08-29T10:25:03.447Z</time>
      </trkpt>
      <trkpt lat="47.9100199" lon="-1.7652871">
        <ele>9.151</ele>
        <time>2018-08-29T10:25:07.153Z</time>
      </trkpt>
      <trkpt lat="47.9101016" lon="-1.7653503">
        <ele>9.208</ele>
        <time>2018-08-29T10:25:10.060Z</time>
      </trkpt>
      <trkpt lat="47.9101863" lon="-1.7654107">
        <ele>9.324</ele>
        <time>2018-08-29T10:25:13.013Z</time>
      </trkpt>
      <trkpt lat="47.9102709" lon="-1.7654681">
        <ele>9.498</ele>
        <time>2018-08-29T10:25:15.940Z</time>
      </trkpt>
      <trkpt lat="47.9103702" lon="-1.7655472">
        <ele>9.704</ele>
        <time>2018-08-29T10:25:19.545Z</time>
      </trkpt>
      <trkpt lat="47.9104777" lon="-1.7656005">
        <ele>9.883</ele>
        <time>2018-08-29T10:25:23.277Z</time>
      </trkpt>
      <trkpt lat="47.9105749" lon="-1.7656676">
        <ele>9.987</ele>
        <time>2018-08-29T10:25:26.892Z</time>
      </trkpt>
      <trkpt lat="47.9106694" lon="-1.7657249">
        <ele>9.882</ele>
        <time>2018-08-29T10:25:30.429Z</time>
      </trkpt>
      <trkpt lat="47.9107717" lon="-1.7657818">
        <ele>9.510</ele>
        <time>2018-08-29T10:25:34.345Z</time>
      </trkpt>
      <trkpt lat="47.9108650" lon="-1.7658350">
        <ele>9.104</ele>
        <time>2018-08-29T10:25:38.000Z</time>
      </trkpt>
      <trkpt lat="47.9108650" lon="-1.7658350">
        <ele>8.916</ele>
        <time>2018-08-29T10:25:39.000Z</time>
      </trkpt>
      <trkpt lat="47.9108650" lon="-1.7658350">
        <ele>8.934</ele>
        <time>2018-08-29T10:25:39.100Z</time>
      </trkpt>
      <trkpt lat="47.9110750" lon="-1.7659259">
        <ele>9.024</ele>
        <time>2018-08-29T10:25:54.892Z</time>
      </trkpt>
      <trkpt lat="47.9111943" lon="-1.7659238">
        <ele>9.096</ele>
        <time>2018-08-29T10:25:59.288Z</time>
      </trkpt>
      <trkpt lat="47.9112824" lon="-1.7659590">
        <ele>9.144</ele>
        <time>2018-08-29T10:26:02.467Z</time>
      </trkpt>
      <trkpt lat="47.9113686" lon="-1.7659979">
        <ele>9.187</ele>
        <time>2018-08-29T10:26:05.592Z</time>
      </trkpt>
      <trkpt lat="47.9114631" lon="-1.7660496">
        <ele>9.221</ele>
        <time>2018-08-29T10:26:09.073Z</time>
      </trkpt>
      <trkpt lat="47.9115620" lon="-1.7661051">
        <ele>9.009</ele>
        <time>2018-08-29T10:26:12.679Z</time>
      </trkpt>
      <trkpt lat="47.9116476" lon="-1.7661569">
        <ele>8.436</ele>
        <time>2018-08-29T10:26:15.726Z</time>
      </trkpt>
      <trkpt lat="47.9117342" lon="-1.7662024">
        <ele>7.909</ele>
        <time>2018-08-29T10:26:18.592Z</time>
      </trkpt>
      <trkpt lat="47.9118387" lon="-1.7662382">
        <ele>7.776</ele>
        <time>2018-08-29T10:26:21.839Z</time>
      </trkpt>
      <trkpt lat="47.9119389" lon="-1.7662800">
        <ele>7.816</ele>
        <time>2018-08-29T10:26:24.965Z</time>
      </trkpt>
      <trkpt lat="47.9120283" lon="-1.7663418">
        <ele>7.763</ele>
        <time>2018-08-29T10:26:27.901Z</time>
      </trkpt>
      <trkpt lat="47.9121177" lon="-1.7664128">
        <ele>7.680</ele>
        <time>2018-08-29T10:26:30.912Z</time>
      </trkpt>
      <trkpt lat="47.9122099" lon="-1.7664734">
        <ele>7.711</ele>
        <time>2018-08-29T10:26:33.944Z</time>
      </trkpt>
      <trkpt lat="47.9122995" lon="-1.7665286">
        <ele>7.820</ele>
        <time>2018-08-29T10:26:36.902Z</time>
      </trkpt>
      <trkpt lat="47.9123858" lon="-1.7665879">
        <ele>7.880</ele>
        <time>2018-08-29T10:26:39.796Z</time>
      </trkpt>
      <trkpt lat="47.9124801" lon="-1.7666396">
        <ele>7.844</ele>
        <time>2018-08-29T10:26:42.853Z</time>
      </trkpt>
      <trkpt lat="47.9125723" lon="-1.7666905">
        <ele>7.813</ele>
        <time>2018-08-29T10:26:45.880Z</time>
      </trkpt>
      <trkpt lat="47.9126576" lon="-1.7667529">
        <ele>7.920</ele>
        <time>2018-08-29T10:26:48.808Z</time>
      </trkpt>
      <trkpt lat="47.9127380" lon="-1.7668181">
        <ele>8.136</ele>
        <time>2018-08-29T10:26:51.619Z</time>
      </trkpt>
      <trkpt lat="47.9128291" lon="-1.7668804">
        <ele>8.317</ele>
        <time>2018-08-29T10:26:54.744Z</time>
      </trkpt>
      <trkpt lat="47.9129170" lon="-1.7669484">
        <ele>8.395</ele>
        <time>2018-08-29T10:26:57.869Z</time>
      </trkpt>
      <trkpt lat="47.9130213" lon="-1.7670215">
        <ele>8.410</ele>
        <time>2018-08-29T10:27:01.497Z</time>
      </trkpt>
      <trkpt lat="47.9131092" lon="-1.7670991">
        <ele>8.414</ele>
        <time>2018-08-29T10:27:04.676Z</time>
      </trkpt>
      <trkpt lat="47.9131986" lon="-1.7671682">
        <ele>8.420</ele>
        <time>2018-08-29T10:27:07.863Z</time>
      </trkpt>
      <trkpt lat="47.9132812" lon="-1.7672391">
        <ele>8.422</ele>
        <time>2018-08-29T10:27:10.946Z</time>
      </trkpt>
      <trkpt lat="47.9133782" lon="-1.7673282">
        <ele>8.444</ele>
        <time>2018-08-29T10:27:14.684Z</time>
      </trkpt>
      <trkpt lat="47.9134425" lon="-1.7674293">
        <ele>8.582</ele>
        <time>2018-08-29T10:27:17.740Z</time>
      </trkpt>
      <trkpt lat="47.9135028" lon="-1.7675381">
        <ele>8.889</ele>
        <time>2018-08-29T10:27:20.791Z</time>
      </trkpt>
      <trkpt lat="47.9135601" lon="-1.7676441">
        <ele>9.255</ele>
        <time>2018-08-29T10:27:23.701Z</time>
      </trkpt>
      <trkpt lat="47.9136318" lon="-1.7677461">
        <ele>9.556</ele>
        <time>2018-08-29T10:27:26.862Z</time>
      </trkpt>
      <trkpt lat="47.9136991" lon="-1.7678497">
        <ele>9.787</ele>
        <time>2018-08-29T10:27:29.903Z</time>
      </trkpt>
      <trkpt lat="47.9137659" lon="-1.7679529">
        <ele>9.997</ele>
        <time>2018-08-29T10:27:32.848Z</time>
      </trkpt>
      <trkpt lat="47.9138419" lon="-1.7680556">
        <ele>10.217</ele>
        <time>2018-08-29T10:27:35.953Z</time>
      </trkpt>
      <trkpt lat="47.9139202" lon="-1.7681541">
        <ele>10.413</ele>
        <time>2018-08-29T10:27:39.024Z</time>
      </trkpt>
      <trkpt lat="47.9140030" lon="-1.7682438">
        <ele>10.529</ele>
        <time>2018-08-29T10:27:42.086Z</time>
      </trkpt>
      <trkpt lat="47.9140869" lon="-1.7683320">
        <ele>10.565</ele>
        <time>2018-08-29T10:27:45.096Z</time>
      </trkpt>
      <trkpt lat="47.9141575" lon="-1.7684282">
        <ele>10.571</ele>
        <time>2018-08-29T10:27:47.753Z</time>
      </trkpt>
      <trkpt lat="47.9142457" lon="-1.7685324">
        <ele>10.609</ele>
        <time>2018-08-29T10:27:50.826Z</time>
      </trkpt>
      <trkpt lat="47.9143331" lon="-1.7686602">
        <ele>10.791</ele>
        <time>2018-08-29T10:27:54.273Z</time>
      </trkpt>
      <trkpt lat="47.9144097" lon="-1.7687497">
        <ele>11.174</ele>
        <time>2018-08-29T10:27:57.098Z</time>
      </trkpt>
      <trkpt lat="47.9144923" lon="-1.7688109">
        <ele>11.613</ele>
        <time>2018-08-29T10:27:59.821Z</time>
      </trkpt>
      <trkpt lat="47.9145770" lon="-1.7688898">
        <ele>11.931</ele>
        <time>2018-08-29T10:28:02.784Z</time>
      </trkpt>
      <trkpt lat="47.9146621" lon="-1.7689581">
        <ele>12.147</ele>
        <time>2018-08-29T10:28:05.681Z</time>
      </trkpt>
      <trkpt lat="47.9147651" lon="-1.7689949">
        <ele>12.392</ele>
        <time>2018-08-29T10:28:08.950Z</time>
      </trkpt>
      <trkpt lat="47.9148529" lon="-1.7690239">
        <ele>12.696</ele>
        <time>2018-08-29T10:28:11.795Z</time>
      </trkpt>
      <trkpt lat="47.9149539" lon="-1.7690900">
        <ele>12.933</ele>
        <time>2018-08-29T10:28:15.377Z</time>
      </trkpt>
      <trkpt lat="47.9150326" lon="-1.7691556">
        <ele>12.821</ele>
        <time>2018-08-29T10:28:18.332Z</time>
      </trkpt>
      <trkpt lat="47.9151372" lon="-1.7692283">
        <ele>12.289</ele>
        <time>2018-08-29T10:28:22.112Z</time>
      </trkpt>
      <trkpt lat="47.9152242" lon="-1.7692837">
        <ele>11.669</ele>
        <time>2018-08-29T10:28:25.154Z</time>
      </trkpt>
      <trkpt lat="47.9153122" lon="-1.7693285">
        <ele>11.240</ele>
        <time>2018-08-29T10:28:28.093Z</time>
      </trkpt>
      <trkpt lat="47.9154062" lon="-1.7693701">
        <ele>10.981</ele>
        <time>2018-08-29T10:28:31.167Z</time>
      </trkpt>
      <trkpt lat="47.9154982" lon="-1.7694244">
        <ele>10.828</ele>
        <time>2018-08-29T10:28:34.287Z</time>
      </trkpt>
      <trkpt lat="47.9155841" lon="-1.7694672">
        <ele>10.699</ele>
        <time>2018-08-29T10:28:37.185Z</time>
      </trkpt>
      <trkpt lat="47.9156721" lon="-1.7695094">
        <ele>10.557</ele>
        <time>2018-08-29T10:28:40.130Z</time>
      </trkpt>
      <trkpt lat="47.9157864" lon="-1.7695706">
        <ele>10.529</ele>
        <time>2018-08-29T10:28:43.881Z</time>
      </trkpt>
      <trkpt lat="47.9158888" lon="-1.7696171">
        <ele>10.695</ele>
        <time>2018-08-29T10:28:47.113Z</time>
      </trkpt>
      <trkpt lat="47.9159867" lon="-1.7696596">
        <ele>10.907</ele>
        <time>2018-08-29T10:28:50.169Z</time>
      </trkpt>
      <trkpt lat="47.9160787" lon="-1.7697054">
        <ele>11.014</ele>
        <time>2018-08-29T10:28:53.074Z</time>
      </trkpt>
      <trkpt lat="47.9161780" lon="-1.7697689">
        <ele>11.032</ele>
        <time>2018-08-29T10:28:56.363Z</time>
      </trkpt>
      <trkpt lat="47.9162621" lon="-1.7698182">
        <ele>11.033</ele>
        <time>2018-08-29T10:28:59.163Z</time>
      </trkpt>
      <trkpt lat="47.9163551" lon="-1.7698772">
        <ele>11.055</ele>
        <time>2018-08-29T10:29:02.359Z</time>
      </trkpt>
      <trkpt lat="47.9164398" lon="-1.7699265">
        <ele>11.145</ele>
        <time>2018-08-29T10:29:05.287Z</time>
      </trkpt>
      <trkpt lat="47.9165522" lon="-1.7699818">
        <ele>11.324</ele>
        <time>2018-08-29T10:29:09.176Z</time>
      </trkpt>
      <trkpt lat="47.9166607" lon="-1.7700254">
        <ele>11.443</ele>
        <time>2018-08-29T10:29:12.931Z</time>
      </trkpt>
      <trkpt lat="47.9167702" lon="-1.7700885">
        <ele>11.331</ele>
        <time>2018-08-29T10:29:16.922Z</time>
      </trkpt>
      <trkpt lat="47.9168773" lon="-1.7701405">
        <ele>11.032</ele>
        <time>2018-08-29T10:29:20.773Z</time>
      </trkpt>
      <trkpt lat="47.9169910" lon="-1.7701947">
        <ele>10.711</ele>
        <time>2018-08-29T10:29:24.811Z</time>
      </trkpt>
      <trkpt lat="47.9171036" lon="-1.7702412">
        <ele>10.445</ele>
        <time>2018-08-29T10:29:28.732Z</time>
      </trkpt>
      <trkpt lat="47.9172207" lon="-1.7702857">
        <ele>10.230</ele>
        <time>2018-08-29T10:29:32.612Z</time>
      </trkpt>
      <trkpt lat="47.9173219" lon="-1.7703173">
        <ele>10.073</ele>
        <time>2018-08-29T10:29:35.740Z</time>
      </trkpt>
      <trkpt lat="47.9174240" lon="-1.7703710">
        <ele>9.966</ele>
        <time>2018-08-29T10:29:38.873Z</time>
      </trkpt>
      <trkpt lat="47.9175363" lon="-1.7704093">
        <ele>9.889</ele>
        <time>2018-08-29T10:29:42.115Z</time>
      </trkpt>
      <trkpt lat="47.9176470" lon="-1.7704303">
        <ele>9.836</ele>
        <time>2018-08-29T10:29:45.286Z</time>
      </trkpt>
      <trkpt lat="47.9177494" lon="-1.7704320">
        <ele>9.817</ele>
        <time>2018-08-29T10:29:48.316Z</time>
      </trkpt>
      <trkpt lat="47.9178446" lon="-1.7704487">
        <ele>9.835</ele>
        <time>2018-08-29T10:29:51.238Z</time>
      </trkpt>
      <trkpt lat="47.9179639" lon="-1.7704707">
        <ele>9.864</ele>
        <time>2018-08-29T10:29:55.023Z</time>
      </trkpt>
      <trkpt lat="47.9180831" lon="-1.7704988">
        <ele>9.897</ele>
        <time>2018-08-29T10:29:58.909Z</time>
      </trkpt>
      <trkpt lat="47.9182023" lon="-1.7705186">
        <ele>9.944</ele>
        <time>2018-08-29T10:30:02.807Z</time>
      </trkpt>
      <trkpt lat="47.9182927" lon="-1.7705294">
        <ele>9.984</ele>
        <time>2018-08-29T10:30:05.776Z</time>
      </trkpt>
      <trkpt lat="47.9184113" lon="-1.7705411">
        <ele>9.996</ele>
        <time>2018-08-29T10:30:09.760Z</time>
      </trkpt>
      <trkpt lat="47.9185224" lon="-1.7705513">
        <ele>9.938</ele>
        <time>2018-08-29T10:30:13.539Z</time>
      </trkpt>
      <trkpt lat="47.9186122" lon="-1.7705889">
        <ele>9.771</ele>
        <time>2018-08-29T10:30:16.664Z</time>
      </trkpt>
      <trkpt lat="47.9186985" lon="-1.7706262">
        <ele>9.508</ele>
        <time>2018-08-29T10:30:19.653Z</time>
      </trkpt>
      <trkpt lat="47.9188187" lon="-1.7706381">
        <ele>9.176</ele>
        <time>2018-08-29T10:30:23.566Z</time>
      </trkpt>
      <trkpt lat="47.9189183" lon="-1.7706150">
        <ele>8.849</ele>
        <time>2018-08-29T10:30:26.715Z</time>
      </trkpt>
      <trkpt lat="47.9190188" lon="-1.7705821">
        <ele>8.690</ele>
        <time>2018-08-29T10:30:29.813Z</time>
      </trkpt>
      <trkpt lat="47.9191195" lon="-1.7705568">
        <ele>8.861</ele>
        <time>2018-08-29T10:30:32.827Z</time>
      </trkpt>
      <trkpt lat="47.9192216" lon="-1.7705229">
        <ele>9.384</ele>
        <time>2018-08-29T10:30:35.933Z</time>
      </trkpt>
      <trkpt lat="47.9193147" lon="-1.7704893">
        <ele>10.120</ele>
        <time>2018-08-29T10:30:38.820Z</time>
      </trkpt>
      <trkpt lat="47.9194091" lon="-1.7704506">
        <ele>10.917</ele>
        <time>2018-08-29T10:30:41.808Z</time>
      </trkpt>
      <trkpt lat="47.9195018" lon="-1.7704042">
        <ele>11.612</ele>
        <time>2018-08-29T10:30:44.833Z</time>
      </trkpt>
      <trkpt lat="47.9195929" lon="-1.7703574">
        <ele>12.065</ele>
        <time>2018-08-29T10:30:47.834Z</time>
      </trkpt>
      <trkpt lat="47.9196807" lon="-1.7703112">
        <ele>12.250</ele>
        <time>2018-08-29T10:30:50.727Z</time>
      </trkpt>
      <trkpt lat="47.9197713" lon="-1.7702618">
        <ele>12.254</ele>
        <time>2018-08-29T10:30:53.714Z</time>
      </trkpt>
      <trkpt lat="47.9198641" lon="-1.7702339">
        <ele>12.209</ele>
        <time>2018-08-29T10:30:56.636Z</time>
      </trkpt>
      <trkpt lat="47.9199584" lon="-1.7701928">
        <ele>12.269</ele>
        <time>2018-08-29T10:30:59.657Z</time>
      </trkpt>
      <trkpt lat="47.9200532" lon="-1.7701491">
        <ele>12.481</ele>
        <time>2018-08-29T10:31:02.680Z</time>
      </trkpt>
      <trkpt lat="47.9201507" lon="-1.7701073">
        <ele>12.783</ele>
        <time>2018-08-29T10:31:05.719Z</time>
      </trkpt>
      <trkpt lat="47.9202456" lon="-1.7700580">
        <ele>13.071</ele>
        <time>2018-08-29T10:31:08.653Z</time>
      </trkpt>
      <trkpt lat="47.9203408" lon="-1.7699984">
        <ele>13.254</ele>
        <time>2018-08-29T10:31:11.550Z</time>
      </trkpt>
      <trkpt lat="47.9204442" lon="-1.7699341">
        <ele>13.304</ele>
        <time>2018-08-29T10:31:14.541Z</time>
      </trkpt>
      <trkpt lat="47.9205512" lon="-1.7698579">
        <ele>13.323</ele>
        <time>2018-08-29T10:31:17.595Z</time>
      </trkpt>
      <trkpt lat="47.9206587" lon="-1.7697733">
        <ele>13.393</ele>
        <time>2018-08-29T10:31:20.726Z</time>
      </trkpt>
      <trkpt lat="47.9207595" lon="-1.7697104">
        <ele>13.389</ele>
        <time>2018-08-29T10:31:23.610Z</time>
      </trkpt>
      <trkpt lat="47.9208548" lon="-1.7696408">
        <ele>13.087</ele>
        <time>2018-08-29T10:31:26.486Z</time>
      </trkpt>
      <trkpt lat="47.9209427" lon="-1.7695607">
        <ele>12.540</ele>
        <time>2018-08-29T10:31:29.331Z</time>
      </trkpt>
      <trkpt lat="47.9210171" lon="-1.7694473">
        <ele>12.010</ele>
        <time>2018-08-29T10:31:32.283Z</time>
      </trkpt>
      <trkpt lat="47.9210810" lon="-1.7693149">
        <ele>11.605</ele>
        <time>2018-08-29T10:31:35.336Z</time>
      </trkpt>
      <trkpt lat="47.9211352" lon="-1.7691690">
        <ele>11.241</ele>
        <time>2018-08-29T10:31:38.548Z</time>
      </trkpt>
      <trkpt lat="47.9211769" lon="-1.7690406">
        <ele>10.894</ele>
        <time>2018-08-29T10:31:41.401Z</time>
      </trkpt>
      <trkpt lat="47.9212313" lon="-1.7689325">
        <ele>10.622</ele>
        <time>2018-08-29T10:31:44.199Z</time>
      </trkpt>
      <trkpt lat="47.9212888" lon="-1.7688229">
        <ele>10.453</ele>
        <time>2018-08-29T10:31:47.151Z</time>
      </trkpt>
      <trkpt lat="47.9213629" lon="-1.7687408">
        <ele>10.329</ele>
        <time>2018-08-29T10:31:50.079Z</time>
      </trkpt>
      <trkpt lat="47.9214356" lon="-1.7686389">
        <ele>10.154</ele>
        <time>2018-08-29T10:31:53.238Z</time>
      </trkpt>
      <trkpt lat="47.9215028" lon="-1.7685367">
        <ele>9.930</ele>
        <time>2018-08-29T10:31:56.278Z</time>
      </trkpt>
      <trkpt lat="47.9215643" lon="-1.7684304">
        <ele>9.772</ele>
        <time>2018-08-29T10:31:59.233Z</time>
      </trkpt>
      <trkpt lat="47.9216248" lon="-1.7683164">
        <ele>9.736</ele>
        <time>2018-08-29T10:32:02.211Z</time>
      </trkpt>
      <trkpt lat="47.9216865" lon="-1.7681850">
        <ele>9.781</ele>
        <time>2018-08-29T10:32:05.379Z</time>
      </trkpt>
      <trkpt lat="47.9217480" lon="-1.7680468">
        <ele>9.836</ele>
        <time>2018-08-29T10:32:08.575Z</time>
      </trkpt>
      <trkpt lat="47.9217999" lon="-1.7679134">
        <ele>9.932</ele>
        <time>2018-08-29T10:32:11.496Z</time>
      </trkpt>
      <trkpt lat="47.9218520" lon="-1.7677683">
        <ele>10.118</ele>
        <time>2018-08-29T10:32:14.551Z</time>
      </trkpt>
      <trkpt lat="47.9219027" lon="-1.7676178">
        <ele>10.305</ele>
        <time>2018-08-29T10:32:17.686Z</time>
      </trkpt>
      <trkpt lat="47.9219456" lon="-1.7674690">
        <ele>10.344</ele>
        <time>2018-08-29T10:32:20.781Z</time>
      </trkpt>
      <trkpt lat="47.9219889" lon="-1.7673067">
        <ele>10.127</ele>
        <time>2018-08-29T10:32:24.272Z</time>
      </trkpt>
      <trkpt lat="47.9220367" lon="-1.7671770">
        <ele>9.722</ele>
        <time>2018-08-29T10:32:27.244Z</time>
      </trkpt>
      <trkpt lat="47.9220869" lon="-1.7670371">
        <ele>9.405</ele>
        <time>2018-08-29T10:32:30.410Z</time>
      </trkpt>
      <trkpt lat="47.9221401" lon="-1.7669022">
        <ele>9.331</ele>
        <time>2018-08-29T10:32:33.566Z</time>
      </trkpt>
      <trkpt lat="47.9221995" lon="-1.7667821">
        <ele>9.397</ele>
        <time>2018-08-29T10:32:36.651Z</time>
      </trkpt>
      <trkpt lat="47.9222820" lon="-1.7666570">
        <ele>9.465</ele>
        <time>2018-08-29T10:32:40.446Z</time>
      </trkpt>
      <trkpt lat="47.9223531" lon="-1.7665215">
        <ele>9.498</ele>
        <time>2018-08-29T10:32:44.282Z</time>
      </trkpt>
      <trkpt lat="47.9224195" lon="-1.7663807">
        <ele>9.533</ele>
        <time>2018-08-29T10:32:48.101Z</time>
      </trkpt>
      <trkpt lat="47.9224699" lon="-1.7662682">
        <ele>9.618</ele>
        <time>2018-08-29T10:32:51.034Z</time>
      </trkpt>
      <trkpt lat="47.9225107" lon="-1.7661406">
        <ele>9.716</ele>
        <time>2018-08-29T10:32:54.003Z</time>
      </trkpt>
      <trkpt lat="47.9225486" lon="-1.7660008">
        <ele>9.708</ele>
        <time>2018-08-29T10:32:57.060Z</time>
      </trkpt>
      <trkpt lat="47.9225782" lon="-1.7658492">
        <ele>9.555</ele>
        <time>2018-08-29T10:33:00.176Z</time>
      </trkpt>
      <trkpt lat="47.9225976" lon="-1.7656974">
        <ele>9.368</ele>
        <time>2018-08-29T10:33:03.184Z</time>
      </trkpt>
      <trkpt lat="47.9226240" lon="-1.7655502">
        <ele>9.262</ele>
        <time>2018-08-29T10:33:06.144Z</time>
      </trkpt>
      <trkpt lat="47.9226601" lon="-1.7654041">
        <ele>9.301</ele>
        <time>2018-08-29T10:33:09.193Z</time>
      </trkpt>
      <trkpt lat="47.9226879" lon="-1.7652621">
        <ele>9.540</ele>
        <time>2018-08-29T10:33:12.115Z</time>
      </trkpt>
      <trkpt lat="47.9227123" lon="-1.7651176">
        <ele>9.903</ele>
        <time>2018-08-29T10:33:15.064Z</time>
      </trkpt>
      <trkpt lat="47.9227275" lon="-1.7649690">
        <ele>10.165</ele>
        <time>2018-08-29T10:33:18.045Z</time>
      </trkpt>
      <trkpt lat="47.9227387" lon="-1.7648202">
        <ele>10.202</ele>
        <time>2018-08-29T10:33:21.028Z</time>
      </trkpt>
      <trkpt lat="47.9227515" lon="-1.7646704">
        <ele>10.113</ele>
        <time>2018-08-29T10:33:24.041Z</time>
      </trkpt>
      <trkpt lat="47.9227705" lon="-1.7645220">
        <ele>10.043</ele>
        <time>2018-08-29T10:33:27.019Z</time>
      </trkpt>
      <trkpt lat="47.9227687" lon="-1.7643635">
        <ele>10.031</ele>
        <time>2018-08-29T10:33:30.079Z</time>
      </trkpt>
      <trkpt lat="47.9227727" lon="-1.7642045">
        <ele>9.928</ele>
        <time>2018-08-29T10:33:33.084Z</time>
      </trkpt>
      <trkpt lat="47.9227696" lon="-1.7640413">
        <ele>9.613</ele>
        <time>2018-08-29T10:33:36.115Z</time>
      </trkpt>
      <trkpt lat="47.9227651" lon="-1.7638799">
        <ele>9.220</ele>
        <time>2018-08-29T10:33:39.107Z</time>
      </trkpt>
      <trkpt lat="47.9227546" lon="-1.7637253">
        <ele>8.901</ele>
        <time>2018-08-29T10:33:41.989Z</time>
      </trkpt>
      <trkpt lat="47.9227411" lon="-1.7635701">
        <ele>8.578</ele>
        <time>2018-08-29T10:33:44.875Z</time>
      </trkpt>
      <trkpt lat="47.9227146" lon="-1.7634120">
        <ele>8.227</ele>
        <time>2018-08-29T10:33:47.847Z</time>
      </trkpt>
      <trkpt lat="47.9226981" lon="-1.7632410">
        <ele>7.979</ele>
        <time>2018-08-29T10:33:51.008Z</time>
      </trkpt>
      <trkpt lat="47.9226857" lon="-1.7630873">
        <ele>7.768</ele>
        <time>2018-08-29T10:33:53.906Z</time>
      </trkpt>
      <trkpt lat="47.9226840" lon="-1.7629401">
        <ele>7.406</ele>
        <time>2018-08-29T10:33:56.731Z</time>
      </trkpt>
      <trkpt lat="47.9226903" lon="-1.7627910">
        <ele>6.972</ele>
        <time>2018-08-29T10:33:59.620Z</time>
      </trkpt>
      <trkpt lat="47.9226906" lon="-1.7626323">
        <ele>6.662</ele>
        <time>2018-08-29T10:34:02.687Z</time>
      </trkpt>
      <trkpt lat="47.9226896" lon="-1.7624764">
        <ele>6.427</ele>
        <time>2018-08-29T10:34:05.725Z</time>
      </trkpt>
      <trkpt lat="47.9226870" lon="-1.7623259">
        <ele>6.130</ele>
        <time>2018-08-29T10:34:08.691Z</time>
      </trkpt>
      <trkpt lat="47.9226805" lon="-1.7621797">
        <ele>5.813</ele>
        <time>2018-08-29T10:34:11.607Z</time>
      </trkpt>
      <trkpt lat="47.9226747" lon="-1.7620340">
        <ele>5.617</ele>
        <time>2018-08-29T10:34:14.545Z</time>
      </trkpt>
      <trkpt lat="47.9226713" lon="-1.7618874">
        <ele>5.508</ele>
        <time>2018-08-29T10:34:17.521Z</time>
      </trkpt>
      <trkpt lat="47.9226828" lon="-1.7617455">
        <ele>5.374</ele>
        <time>2018-08-29T10:34:20.465Z</time>
      </trkpt>
      <trkpt lat="47.9227069" lon="-1.7616067">
        <ele>5.207</ele>
        <time>2018-08-29T10:34:23.469Z</time>
      </trkpt>
      <trkpt lat="47.9227299" lon="-1.7614675">
        <ele>5.027</ele>
        <time>2018-08-29T10:34:26.480Z</time>
      </trkpt>
      <trkpt lat="47.9227507" lon="-1.7613294">
        <ele>4.874</ele>
        <time>2018-08-29T10:34:29.398Z</time>
      </trkpt>
      <trkpt lat="47.9227675" lon="-1.7611705">
        <ele>4.821</ele>
        <time>2018-08-29T10:34:32.604Z</time>
      </trkpt>
      <trkpt lat="47.9227848" lon="-1.7610115">
        <ele>4.864</ele>
        <time>2018-08-29T10:34:35.803Z</time>
      </trkpt>
      <trkpt lat="47.9228030" lon="-1.7608695">
        <ele>4.945</ele>
        <time>2018-08-29T10:34:38.755Z</time>
      </trkpt>
      <trkpt lat="47.9228226" lon="-1.7606999">
        <ele>5.069</ele>
        <time>2018-08-29T10:34:42.408Z</time>
      </trkpt>
      <trkpt lat="47.9228368" lon="-1.7605592">
        <ele>5.290</ele>
        <time>2018-08-29T10:34:45.497Z</time>
      </trkpt>
      <trkpt lat="47.9228504" lon="-1.7603859">
        <ele>5.602</ele>
        <time>2018-08-29T10:34:49.348Z</time>
      </trkpt>
      <trkpt lat="47.9228478" lon="-1.7602500">
        <ele>5.881</ele>
        <time>2018-08-29T10:34:52.351Z</time>
      </trkpt>
      <trkpt lat="47.9228528" lon="-1.7601097">
        <ele>6.050</ele>
        <time>2018-08-29T10:34:55.409Z</time>
      </trkpt>
      <trkpt lat="47.9228570" lon="-1.7599692">
        <ele>6.135</ele>
        <time>2018-08-29T10:34:58.457Z</time>
      </trkpt>
      <trkpt lat="47.9228510" lon="-1.7598354">
        <ele>6.179</ele>
        <time>2018-08-29T10:35:01.383Z</time>
      </trkpt>
      <trkpt lat="47.9228452" lon="-1.7596986">
        <ele>6.212</ele>
        <time>2018-08-29T10:35:04.350Z</time>
      </trkpt>
      <trkpt lat="47.9228451" lon="-1.7595545">
        <ele>6.248</ele>
        <time>2018-08-29T10:35:07.401Z</time>
      </trkpt>
      <trkpt lat="47.9228410" lon="-1.7594056">
        <ele>6.260</ele>
        <time>2018-08-29T10:35:10.499Z</time>
      </trkpt>
      <trkpt lat="47.9228375" lon="-1.7592622">
        <ele>6.233</ele>
        <time>2018-08-29T10:35:13.435Z</time>
      </trkpt>
      <trkpt lat="47.9228359" lon="-1.7591189">
        <ele>6.214</ele>
        <time>2018-08-29T10:35:16.354Z</time>
      </trkpt>
      <trkpt lat="47.9228317" lon="-1.7589738">
        <ele>6.257</ele>
        <time>2018-08-29T10:35:19.304Z</time>
      </trkpt>
      <trkpt lat="47.9228316" lon="-1.7588270">
        <ele>6.365</ele>
        <time>2018-08-29T10:35:22.256Z</time>
      </trkpt>
      <trkpt lat="47.9228278" lon="-1.7586758">
        <ele>6.521</ele>
        <time>2018-08-29T10:35:25.267Z</time>
      </trkpt>
      <trkpt lat="47.9228235" lon="-1.7585267">
        <ele>6.687</ele>
        <time>2018-08-29T10:35:28.245Z</time>
      </trkpt>
      <trkpt lat="47.9228238" lon="-1.7583847">
        <ele>6.543</ele>
        <time>2018-08-29T10:35:31.086Z</time>
      </trkpt>
      <trkpt lat="47.9228232" lon="-1.7582356">
        <ele>5.917</ele>
        <time>2018-08-29T10:35:34.045Z</time>
      </trkpt>
      <trkpt lat="47.9228156" lon="-1.7580851">
        <ele>5.465</ele>
        <time>2018-08-29T10:35:37.025Z</time>
      </trkpt>
      <trkpt lat="47.9228120" lon="-1.7579283">
        <ele>5.784</ele>
        <time>2018-08-29T10:35:40.128Z</time>
      </trkpt>
      <trkpt lat="47.9228153" lon="-1.7577770">
        <ele>6.481</ele>
        <time>2018-08-29T10:35:43.220Z</time>
      </trkpt>
      <trkpt lat="47.9228159" lon="-1.7575992">
        <ele>6.939</ele>
        <time>2018-08-29T10:35:47.013Z</time>
      </trkpt>
      <trkpt lat="47.9228069" lon="-1.7574276">
        <ele>7.033</ele>
        <time>2018-08-29T10:35:50.922Z</time>
      </trkpt>
      <trkpt lat="47.9227804" lon="-1.7572973">
        <ele>6.962</ele>
        <time>2018-08-29T10:35:54.320Z</time>
      </trkpt>
      <trkpt lat="47.9227486" lon="-1.7571422">
        <ele>6.911</ele>
        <time>2018-08-29T10:35:58.559Z</time>
      </trkpt>
      <trkpt lat="47.9227067" lon="-1.7569752">
        <ele>6.947</ele>
        <time>2018-08-29T10:36:03.089Z</time>
      </trkpt>
      <trkpt lat="47.9226535" lon="-1.7568554">
        <ele>7.006</ele>
        <time>2018-08-29T10:36:06.344Z</time>
      </trkpt>
      <trkpt lat="47.9225863" lon="-1.7567315">
        <ele>7.014</ele>
        <time>2018-08-29T10:36:09.580Z</time>
      </trkpt>
      <trkpt lat="47.9225048" lon="-1.7566059">
        <ele>6.980</ele>
        <time>2018-08-29T10:36:12.796Z</time>
      </trkpt>
      <trkpt lat="47.9224241" lon="-1.7564754">
        <ele>6.894</ele>
        <time>2018-08-29T10:36:15.863Z</time>
      </trkpt>
      <trkpt lat="47.9223416" lon="-1.7563417">
        <ele>6.754</ele>
        <time>2018-08-29T10:36:18.937Z</time>
      </trkpt>
      <trkpt lat="47.9222633" lon="-1.7562120">
        <ele>6.722</ele>
        <time>2018-08-29T10:36:21.924Z</time>
      </trkpt>
      <trkpt lat="47.9221904" lon="-1.7560909">
        <ele>6.882</ele>
        <time>2018-08-29T10:36:24.771Z</time>
      </trkpt>
      <trkpt lat="47.9221163" lon="-1.7559686">
        <ele>7.079</ele>
        <time>2018-08-29T10:36:27.730Z</time>
      </trkpt>
      <trkpt lat="47.9220482" lon="-1.7558495">
        <ele>7.166</ele>
        <time>2018-08-29T10:36:30.628Z</time>
      </trkpt>
      <trkpt lat="47.9219845" lon="-1.7557328">
        <ele>7.166</ele>
        <time>2018-08-29T10:36:33.491Z</time>
      </trkpt>
      <trkpt lat="47.9219273" lon="-1.7556078">
        <ele>7.084</ele>
        <time>2018-08-29T10:36:36.439Z</time>
      </trkpt>
      <trkpt lat="47.9218754" lon="-1.7554825">
        <ele>6.914</ele>
        <time>2018-08-29T10:36:39.340Z</time>
      </trkpt>
      <trkpt lat="47.9218206" lon="-1.7553460">
        <ele>6.765</ele>
        <time>2018-08-29T10:36:42.479Z</time>
      </trkpt>
      <trkpt lat="47.9217717" lon="-1.7552155">
        <ele>6.760</ele>
        <time>2018-08-29T10:36:45.449Z</time>
      </trkpt>
      <trkpt lat="47.9217159" lon="-1.7550886">
        <ele>6.956</ele>
        <time>2018-08-29T10:36:48.484Z</time>
      </trkpt>
      <trkpt lat="47.9216620" lon="-1.7549659">
        <ele>7.289</ele>
        <time>2018-08-29T10:36:51.436Z</time>
      </trkpt>
      <trkpt lat="47.9216089" lon="-1.7548405">
        <ele>7.549</ele>
        <time>2018-08-29T10:36:54.470Z</time>
      </trkpt>
      <trkpt lat="47.9215449" lon="-1.7547390">
        <ele>7.603</ele>
        <time>2018-08-29T10:36:57.457Z</time>
      </trkpt>
      <trkpt lat="47.9214790" lon="-1.7546093">
        <ele>7.536</ele>
        <time>2018-08-29T10:37:01.088Z</time>
      </trkpt>
      <trkpt lat="47.9214126" lon="-1.7544711">
        <ele>7.592</ele>
        <time>2018-08-29T10:37:04.966Z</time>
      </trkpt>
      <trkpt lat="47.9213516" lon="-1.7543622">
        <ele>7.867</ele>
        <time>2018-08-29T10:37:08.156Z</time>
      </trkpt>
      <trkpt lat="47.9212935" lon="-1.7542540">
        <ele>8.084</ele>
        <time>2018-08-29T10:37:11.204Z</time>
      </trkpt>
      <trkpt lat="47.9212337" lon="-1.7541464">
        <ele>8.022</ele>
        <time>2018-08-29T10:37:14.260Z</time>
      </trkpt>
      <trkpt lat="47.9211661" lon="-1.7540020">
        <ele>7.819</ele>
        <time>2018-08-29T10:37:18.181Z</time>
      </trkpt>
      <trkpt lat="47.9211276" lon="-1.7538432">
        <ele>7.664</ele>
        <time>2018-08-29T10:37:22.025Z</time>
      </trkpt>
      <trkpt lat="47.9210936" lon="-1.7537187">
        <ele>7.597</ele>
        <time>2018-08-29T10:37:25.046Z</time>
      </trkpt>
      <trkpt lat="47.9210632" lon="-1.7535791">
        <ele>7.544</ele>
        <time>2018-08-29T10:37:28.213Z</time>
      </trkpt>
      <trkpt lat="47.9210359" lon="-1.7534372">
        <ele>7.428</ele>
        <time>2018-08-29T10:37:31.299Z</time>
      </trkpt>
      <trkpt lat="47.9210137" lon="-1.7532957">
        <ele>7.301</ele>
        <time>2018-08-29T10:37:34.328Z</time>
      </trkpt>
      <trkpt lat="47.9210000" lon="-1.7531609">
        <ele>7.303</ele>
        <time>2018-08-29T10:37:37.194Z</time>
      </trkpt>
      <trkpt lat="47.9209899" lon="-1.7530181">
        <ele>7.492</ele>
        <time>2018-08-29T10:37:40.213Z</time>
      </trkpt>
      <trkpt lat="47.9209871" lon="-1.7528741">
        <ele>7.818</ele>
        <time>2018-08-29T10:37:43.228Z</time>
      </trkpt>
      <trkpt lat="47.9209885" lon="-1.7527317">
        <ele>8.150</ele>
        <time>2018-08-29T10:37:46.210Z</time>
      </trkpt>
      <trkpt lat="47.9209936" lon="-1.7525923">
        <ele>8.342</ele>
        <time>2018-08-29T10:37:49.131Z</time>
      </trkpt>
      <trkpt lat="47.9210002" lon="-1.7524468">
        <ele>8.356</ele>
        <time>2018-08-29T10:37:52.164Z</time>
      </trkpt>
      <trkpt lat="47.9210148" lon="-1.7523012">
        <ele>8.369</ele>
        <time>2018-08-29T10:37:55.184Z</time>
      </trkpt>
      <trkpt lat="47.9210148" lon="-1.7521447">
        <ele>8.518</ele>
        <time>2018-08-29T10:37:58.304Z</time>
      </trkpt>
      <trkpt lat="47.9210140" lon="-1.7519870">
        <ele>8.662</ele>
        <time>2018-08-29T10:38:01.373Z</time>
      </trkpt>
      <trkpt lat="47.9210021" lon="-1.7518284">
        <ele>8.641</ele>
        <time>2018-08-29T10:38:04.424Z</time>
      </trkpt>
      <trkpt lat="47.9209826" lon="-1.7516635">
        <ele>8.521</ele>
        <time>2018-08-29T10:38:07.543Z</time>
      </trkpt>
      <trkpt lat="47.9209611" lon="-1.7514931">
        <ele>8.412</ele>
        <time>2018-08-29T10:38:10.689Z</time>
      </trkpt>
      <trkpt lat="47.9209390" lon="-1.7513287">
        <ele>8.338</ele>
        <time>2018-08-29T10:38:13.698Z</time>
      </trkpt>
      <trkpt lat="47.9209155" lon="-1.7511731">
        <ele>8.229</ele>
        <time>2018-08-29T10:38:16.581Z</time>
      </trkpt>
      <trkpt lat="47.9208982" lon="-1.7510159">
        <ele>8.040</ele>
        <time>2018-08-29T10:38:19.501Z</time>
      </trkpt>
      <trkpt lat="47.9208819" lon="-1.7508647">
        <ele>7.856</ele>
        <time>2018-08-29T10:38:22.337Z</time>
      </trkpt>
      <trkpt lat="47.9208724" lon="-1.7507058">
        <ele>7.792</ele>
        <time>2018-08-29T10:38:25.321Z</time>
      </trkpt>
      <trkpt lat="47.9208735" lon="-1.7505516">
        <ele>7.870</ele>
        <time>2018-08-29T10:38:28.255Z</time>
      </trkpt>
      <trkpt lat="47.9208839" lon="-1.7504026">
        <ele>8.063</ele>
        <time>2018-08-29T10:38:31.158Z</time>
      </trkpt>
      <trkpt lat="47.9208982" lon="-1.7502552">
        <ele>8.321</ele>
        <time>2018-08-29T10:38:34.116Z</time>
      </trkpt>
      <trkpt lat="47.9209153" lon="-1.7501200">
        <ele>8.552</ele>
        <time>2018-08-29T10:38:36.923Z</time>
      </trkpt>
      <trkpt lat="47.9209282" lon="-1.7499807">
        <ele>8.635</ele>
        <time>2018-08-29T10:38:39.848Z</time>
      </trkpt>
      <trkpt lat="47.9209460" lon="-1.7498385">
        <ele>8.471</ele>
        <time>2018-08-29T10:38:42.873Z</time>
      </trkpt>
      <trkpt lat="47.9209664" lon="-1.7496965">
        <ele>8.110</ele>
        <time>2018-08-29T10:38:45.889Z</time>
      </trkpt>
      <trkpt lat="47.9209879" lon="-1.7495506">
        <ele>7.668</ele>
        <time>2018-08-29T10:38:48.964Z</time>
      </trkpt>
      <trkpt lat="47.9210164" lon="-1.7494111">
        <ele>7.205</ele>
        <time>2018-08-29T10:38:51.951Z</time>
      </trkpt>
      <trkpt lat="47.9210474" lon="-1.7492688">
        <ele>6.734</ele>
        <time>2018-08-29T10:38:54.998Z</time>
      </trkpt>
      <trkpt lat="47.9210947" lon="-1.7491397">
        <ele>6.234</ele>
        <time>2018-08-29T10:38:57.976Z</time>
      </trkpt>
      <trkpt lat="47.9211487" lon="-1.7490081">
        <ele>5.757</ele>
        <time>2018-08-29T10:39:01.071Z</time>
      </trkpt>
      <trkpt lat="47.9212077" lon="-1.7488844">
        <ele>5.567</ele>
        <time>2018-08-29T10:39:04.092Z</time>
      </trkpt>
      <trkpt lat="47.9212701" lon="-1.7487625">
        <ele>5.760</ele>
        <time>2018-08-29T10:39:07.147Z</time>
      </trkpt>
      <trkpt lat="47.9213344" lon="-1.7486497">
        <ele>6.047</ele>
        <time>2018-08-29T10:39:10.099Z</time>
      </trkpt>
      <trkpt lat="47.9214056" lon="-1.7485390">
        <ele>6.174</ele>
        <time>2018-08-29T10:39:13.137Z</time>
      </trkpt>
      <trkpt lat="47.9214821" lon="-1.7484284">
        <ele>6.210</ele>
        <time>2018-08-29T10:39:16.255Z</time>
      </trkpt>
      <trkpt lat="47.9215542" lon="-1.7483186">
        <ele>6.281</ele>
        <time>2018-08-29T10:39:19.264Z</time>
      </trkpt>
      <trkpt lat="47.9216247" lon="-1.7482072">
        <ele>6.380</ele>
        <time>2018-08-29T10:39:22.266Z</time>
      </trkpt>
      <trkpt lat="47.9216966" lon="-1.7480981">
        <ele>6.461</ele>
        <time>2018-08-29T10:39:25.242Z</time>
      </trkpt>
      <trkpt lat="47.9217755" lon="-1.7479821">
        <ele>6.507</ele>
        <time>2018-08-29T10:39:28.419Z</time>
      </trkpt>
      <trkpt lat="47.9218536" lon="-1.7478777">
        <ele>6.518</ele>
        <time>2018-08-29T10:39:31.388Z</time>
      </trkpt>
      <trkpt lat="47.9219343" lon="-1.7477816">
        <ele>6.502</ele>
        <time>2018-08-29T10:39:34.311Z</time>
      </trkpt>
      <trkpt lat="47.9220151" lon="-1.7476939">
        <ele>6.469</ele>
        <time>2018-08-29T10:39:37.189Z</time>
      </trkpt>
      <trkpt lat="47.9221015" lon="-1.7476238">
        <ele>6.460</ele>
        <time>2018-08-29T10:39:40.087Z</time>
      </trkpt>
      <trkpt lat="47.9221905" lon="-1.7475588">
        <ele>6.519</ele>
        <time>2018-08-29T10:39:43.074Z</time>
      </trkpt>
      <trkpt lat="47.9222802" lon="-1.7475019">
        <ele>6.624</ele>
        <time>2018-08-29T10:39:46.082Z</time>
      </trkpt>
      <trkpt lat="47.9223668" lon="-1.7474550">
        <ele>6.708</ele>
        <time>2018-08-29T10:39:49.037Z</time>
      </trkpt>
      <trkpt lat="47.9224735" lon="-1.7474005">
        <ele>6.660</ele>
        <time>2018-08-29T10:39:52.796Z</time>
      </trkpt>
      <trkpt lat="47.9225830" lon="-1.7473386">
        <ele>6.447</ele>
        <time>2018-08-29T10:39:56.812Z</time>
      </trkpt>
      <trkpt lat="47.9226715" lon="-1.7472953">
        <ele>6.364</ele>
        <time>2018-08-29T10:39:59.964Z</time>
      </trkpt>
      <trkpt lat="47.9227606" lon="-1.7472438">
        <ele>6.656</ele>
        <time>2018-08-29T10:40:03.091Z</time>
      </trkpt>
      <trkpt lat="47.9228522" lon="-1.7471883">
        <ele>7.073</ele>
        <time>2018-08-29T10:40:06.247Z</time>
      </trkpt>
      <trkpt lat="47.9229398" lon="-1.7471322">
        <ele>7.297</ele>
        <time>2018-08-29T10:40:09.237Z</time>
      </trkpt>
      <trkpt lat="47.9230293" lon="-1.7470739">
        <ele>7.330</ele>
        <time>2018-08-29T10:40:12.281Z</time>
      </trkpt>
      <trkpt lat="47.9231137" lon="-1.7470148">
        <ele>7.300</ele>
        <time>2018-08-29T10:40:15.188Z</time>
      </trkpt>
      <trkpt lat="47.9231970" lon="-1.7469484">
        <ele>7.307</ele>
        <time>2018-08-29T10:40:18.122Z</time>
      </trkpt>
      <trkpt lat="47.9232831" lon="-1.7468790">
        <ele>7.349</ele>
        <time>2018-08-29T10:40:21.137Z</time>
      </trkpt>
      <trkpt lat="47.9233707" lon="-1.7468051">
        <ele>7.256</ele>
        <time>2018-08-29T10:40:24.205Z</time>
      </trkpt>
      <trkpt lat="47.9234533" lon="-1.7467257">
        <ele>6.916</ele>
        <time>2018-08-29T10:40:27.172Z</time>
      </trkpt>
      <trkpt lat="47.9235370" lon="-1.7466419">
        <ele>6.502</ele>
        <time>2018-08-29T10:40:30.183Z</time>
      </trkpt>
      <trkpt lat="47.9236234" lon="-1.7465667">
        <ele>6.379</ele>
        <time>2018-08-29T10:40:33.156Z</time>
      </trkpt>
      <trkpt lat="47.9237192" lon="-1.7465082">
        <ele>6.686</ele>
        <time>2018-08-29T10:40:36.227Z</time>
      </trkpt>
      <trkpt lat="47.9238163" lon="-1.7464638">
        <ele>7.161</ele>
        <time>2018-08-29T10:40:39.256Z</time>
      </trkpt>
      <trkpt lat="47.9239134" lon="-1.7464348">
        <ele>7.524</ele>
        <time>2018-08-29T10:40:42.240Z</time>
      </trkpt>
      <trkpt lat="47.9240094" lon="-1.7464176">
        <ele>7.783</ele>
        <time>2018-08-29T10:40:45.194Z</time>
      </trkpt>
      <trkpt lat="47.9241054" lon="-1.7464200">
        <ele>8.014</ele>
        <time>2018-08-29T10:40:48.177Z</time>
      </trkpt>
      <trkpt lat="47.9241946" lon="-1.7464390">
        <ele>8.262</ele>
        <time>2018-08-29T10:40:51.036Z</time>
      </trkpt>
      <trkpt lat="47.9242840" lon="-1.7464669">
        <ele>8.548</ele>
        <time>2018-08-29T10:40:53.973Z</time>
      </trkpt>
      <trkpt lat="47.9243766" lon="-1.7465047">
        <ele>8.824</ele>
        <time>2018-08-29T10:40:57.069Z</time>
      </trkpt>
      <trkpt lat="47.9244609" lon="-1.7465521">
        <ele>9.022</ele>
        <time>2018-08-29T10:40:59.994Z</time>
      </trkpt>
      <trkpt lat="47.9245462" lon="-1.7466065">
        <ele>9.161</ele>
        <time>2018-08-29T10:41:03.017Z</time>
      </trkpt>
      <trkpt lat="47.9246568" lon="-1.7466793">
        <ele>9.313</ele>
        <time>2018-08-29T10:41:06.933Z</time>
      </trkpt>
      <trkpt lat="47.9247470" lon="-1.7467379">
        <ele>9.494</ele>
        <time>2018-08-29T10:41:10.062Z</time>
      </trkpt>
      <trkpt lat="47.9248338" lon="-1.7467957">
        <ele>9.677</ele>
        <time>2018-08-29T10:41:13.076Z</time>
      </trkpt>
      <trkpt lat="47.9249146" lon="-1.7468605">
        <ele>9.866</ele>
        <time>2018-08-29T10:41:16.018Z</time>
      </trkpt>
      <trkpt lat="47.9249926" lon="-1.7469299">
        <ele>10.065</ele>
        <time>2018-08-29T10:41:18.959Z</time>
      </trkpt>
      <trkpt lat="47.9250723" lon="-1.7469930">
        <ele>10.260</ele>
        <time>2018-08-29T10:41:21.876Z</time>
      </trkpt>
      <trkpt lat="47.9251788" lon="-1.7470760">
        <ele>10.427</ele>
        <time>2018-08-29T10:41:25.722Z</time>
      </trkpt>
      <trkpt lat="47.9252617" lon="-1.7471380">
        <ele>10.582</ele>
        <time>2018-08-29T10:41:28.674Z</time>
      </trkpt>
      <trkpt lat="47.9253452" lon="-1.7471970">
        <ele>10.756</ele>
        <time>2018-08-29T10:41:31.661Z</time>
      </trkpt>
      <trkpt lat="47.9254340" lon="-1.7472637">
        <ele>10.996</ele>
        <time>2018-08-29T10:41:34.874Z</time>
      </trkpt>
      <trkpt lat="47.9255202" lon="-1.7473329">
        <ele>11.304</ele>
        <time>2018-08-29T10:41:38.019Z</time>
      </trkpt>
      <trkpt lat="47.9256093" lon="-1.7474388">
        <ele>11.582</ele>
        <time>2018-08-29T10:41:41.744Z</time>
      </trkpt>
      <trkpt lat="47.9256916" lon="-1.7475541">
        <ele>11.727</ele>
        <time>2018-08-29T10:41:45.552Z</time>
      </trkpt>
      <trkpt lat="47.9257678" lon="-1.7476838">
        <ele>11.730</ele>
        <time>2018-08-29T10:41:49.532Z</time>
      </trkpt>
      <trkpt lat="47.9258470" lon="-1.7478153">
        <ele>11.635</ele>
        <time>2018-08-29T10:41:53.612Z</time>
      </trkpt>
      <trkpt lat="47.9259026" lon="-1.7479235">
        <ele>11.517</ele>
        <time>2018-08-29T10:41:56.737Z</time>
      </trkpt>
      <trkpt lat="47.9259595" lon="-1.7480697">
        <ele>11.361</ele>
        <time>2018-08-29T10:42:00.608Z</time>
      </trkpt>
      <trkpt lat="47.9260144" lon="-1.7482178">
        <ele>11.022</ele>
        <time>2018-08-29T10:42:04.499Z</time>
      </trkpt>
      <trkpt lat="47.9260636" lon="-1.7483682">
        <ele>10.502</ele>
        <time>2018-08-29T10:42:08.365Z</time>
      </trkpt>
      <trkpt lat="47.9261225" lon="-1.7485183">
        <ele>9.947</ele>
        <time>2018-08-29T10:42:12.378Z</time>
      </trkpt>
      <trkpt lat="47.9261733" lon="-1.7486380">
        <ele>9.425</ele>
        <time>2018-08-29T10:42:15.577Z</time>
      </trkpt>
      <trkpt lat="47.9262241" lon="-1.7487564">
        <ele>9.006</ele>
        <time>2018-08-29T10:42:18.684Z</time>
      </trkpt>
      <trkpt lat="47.9262743" lon="-1.7488750">
        <ele>8.787</ele>
        <time>2018-08-29T10:42:21.761Z</time>
      </trkpt>
      <trkpt lat="47.9263374" lon="-1.7490199">
        <ele>8.835</ele>
        <time>2018-08-29T10:42:25.596Z</time>
      </trkpt>
      <trkpt lat="47.9263916" lon="-1.7491655">
        <ele>9.122</ele>
        <time>2018-08-29T10:42:29.435Z</time>
      </trkpt>
      <trkpt lat="47.9264423" lon="-1.7492805">
        <ele>9.486</ele>
        <time>2018-08-29T10:42:32.789Z</time>
      </trkpt>
      <trkpt lat="47.9264992" lon="-1.7494163">
        <ele>9.781</ele>
        <time>2018-08-29T10:42:37.000Z</time>
      </trkpt>
      <trkpt lat="47.9264992" lon="-1.7494163">
        <ele>9.949</ele>
        <time>2018-08-29T10:42:37.000Z</time>
      </trkpt>
      <trkpt lat="47.9264992" lon="-1.7494163">
        <ele>9.987</ele>
        <time>2018-08-29T10:42:37.701Z</time>
      </trkpt>
      <trkpt lat="47.9265694" lon="-1.7496085">
        <ele>9.967</ele>
        <time>2018-08-29T10:42:47.450Z</time>
      </trkpt>
      <trkpt lat="47.9266265" lon="-1.7497292">
        <ele>10.061</ele>
        <time>2018-08-29T10:42:52.000Z</time>
      </trkpt>
      <trkpt lat="47.9266265" lon="-1.7497292">
        <ele>10.353</ele>
        <time>2018-08-29T10:43:04.000Z</time>
      </trkpt>
      <trkpt lat="47.9266265" lon="-1.7497292">
        <ele>10.601</ele>
        <time>2018-08-29T10:46:30.000Z</time>
      </trkpt>
      <trkpt lat="47.9266265" lon="-1.7497292">
        <ele>10.593</ele>
        <time>2018-08-29T10:50:14.000Z</time>
      </trkpt>
      <trkpt lat="47.9266265" lon="-1.7497292">
        <ele>10.490</ele>
        <time>2018-08-29T10:50:35.736Z</time>
      </trkpt>
      <trkpt lat="47.9267047" lon="-1.7498383">
        <ele>10.476</ele>
        <time>2018-08-29T10:50:45.000Z</time>
      </trkpt>
      <trkpt lat="47.9267047" lon="-1.7498383">
        <ele>10.512</ele>
        <time>2018-08-29T10:50:46.000Z</time>
      </trkpt>
      <trkpt lat="47.9267047" lon="-1.7498383">
        <ele>10.513</ele>
        <time>2018-08-29T10:50:46.100Z</time>
      </trkpt>
      <trkpt lat="47.9266556" lon="-1.7501457">
        <ele>10.487</ele>
        <time>2018-08-29T10:50:58.783Z</time>
      </trkpt>
      <trkpt lat="47.9266108" lon="-1.7502657">
        <ele>10.460</ele>
        <time>2018-08-29T10:51:02.036Z</time>
      </trkpt>
      <trkpt lat="47.9265486" lon="-1.7504107">
        <ele>10.432</ele>
        <time>2018-08-29T10:51:05.958Z</time>
      </trkpt>
      <trkpt lat="47.9264822" lon="-1.7505565">
        <ele>10.480</ele>
        <time>2018-08-29T10:51:09.986Z</time>
      </trkpt>
      <trkpt lat="47.9264309" lon="-1.7507069">
        <ele>10.650</ele>
        <time>2018-08-29T10:51:13.858Z</time>
      </trkpt>
      <trkpt lat="47.9263968" lon="-1.7508353">
        <ele>10.815</ele>
        <time>2018-08-29T10:51:17.011Z</time>
      </trkpt>
      <trkpt lat="47.9263687" lon="-1.7510078">
        <ele>10.776</ele>
        <time>2018-08-29T10:51:21.069Z</time>
      </trkpt>
      <trkpt lat="47.9263384" lon="-1.7511665">
        <ele>10.527</ele>
        <time>2018-08-29T10:51:24.875Z</time>
      </trkpt>
      <trkpt lat="47.9262917" lon="-1.7513235">
        <ele>10.258</ele>
        <time>2018-08-29T10:51:28.914Z</time>
      </trkpt>
      <trkpt lat="47.9262442" lon="-1.7514685">
        <ele>10.102</ele>
        <time>2018-08-29T10:51:32.803Z</time>
      </trkpt>
      <trkpt lat="47.9261968" lon="-1.7516123">
        <ele>10.036</ele>
        <time>2018-08-29T10:51:36.783Z</time>
      </trkpt>
      <trkpt lat="47.9261439" lon="-1.7517429">
        <ele>9.990</ele>
        <time>2018-08-29T10:51:40.633Z</time>
      </trkpt>
      <trkpt lat="47.9260919" lon="-1.7518854">
        <ele>9.844</ele>
        <time>2018-08-29T10:51:44.652Z</time>
      </trkpt>
      <trkpt lat="47.9260400" lon="-1.7520367">
        <ele>9.574</ele>
        <time>2018-08-29T10:51:48.712Z</time>
      </trkpt>
      <trkpt lat="47.9259798" lon="-1.7521898">
        <ele>9.426</ele>
        <time>2018-08-29T10:51:52.861Z</time>
      </trkpt>
      <trkpt lat="47.9259169" lon="-1.7523334">
        <ele>9.572</ele>
        <time>2018-08-29T10:51:56.821Z</time>
      </trkpt>
      <trkpt lat="47.9258388" lon="-1.7524683">
        <ele>9.828</ele>
        <time>2018-08-29T10:52:00.857Z</time>
      </trkpt>
      <trkpt lat="47.9257767" lon="-1.7525664">
        <ele>10.010</ele>
        <time>2018-08-29T10:52:03.859Z</time>
      </trkpt>
      <trkpt lat="47.9257126" lon="-1.7526606">
        <ele>10.108</ele>
        <time>2018-08-29T10:52:06.823Z</time>
      </trkpt>
      <trkpt lat="47.9256184" lon="-1.7527720">
        <ele>10.154</ele>
        <time>2018-08-29T10:52:10.693Z</time>
      </trkpt>
      <trkpt lat="47.9255454" lon="-1.7528652">
        <ele>10.180</ele>
        <time>2018-08-29T10:52:13.703Z</time>
      </trkpt>
      <trkpt lat="47.9254868" lon="-1.7529803">
        <ele>10.247</ele>
        <time>2018-08-29T10:52:16.698Z</time>
      </trkpt>
      <trkpt lat="47.9254340" lon="-1.7531098">
        <ele>10.387</ele>
        <time>2018-08-29T10:52:19.890Z</time>
      </trkpt>
      <trkpt lat="47.9253976" lon="-1.7532334">
        <ele>10.536</ele>
        <time>2018-08-29T10:52:22.803Z</time>
      </trkpt>
      <trkpt lat="47.9253648" lon="-1.7533975">
        <ele>10.630</ele>
        <time>2018-08-29T10:52:26.627Z</time>
      </trkpt>
      <trkpt lat="47.9253461" lon="-1.7535596">
        <ele>10.677</ele>
        <time>2018-08-29T10:52:30.366Z</time>
      </trkpt>
      <trkpt lat="47.9253126" lon="-1.7537282">
        <ele>10.698</ele>
        <time>2018-08-29T10:52:34.371Z</time>
      </trkpt>
      <trkpt lat="47.9252740" lon="-1.7538885">
        <ele>10.713</ele>
        <time>2018-08-29T10:52:38.208Z</time>
      </trkpt>
      <trkpt lat="47.9252460" lon="-1.7540204">
        <ele>10.734</ele>
        <time>2018-08-29T10:52:41.320Z</time>
      </trkpt>
      <trkpt lat="47.9252195" lon="-1.7541890">
        <ele>10.799</ele>
        <time>2018-08-29T10:52:45.254Z</time>
      </trkpt>
      <trkpt lat="47.9251941" lon="-1.7543541">
        <ele>10.985</ele>
        <time>2018-08-29T10:52:49.029Z</time>
      </trkpt>
      <trkpt lat="47.9251855" lon="-1.7545001">
        <ele>11.263</ele>
        <time>2018-08-29T10:52:52.187Z</time>
      </trkpt>
      <trkpt lat="47.9251955" lon="-1.7546504">
        <ele>11.521</ele>
        <time>2018-08-29T10:52:55.424Z</time>
      </trkpt>
      <trkpt lat="47.9252536" lon="-1.7548048">
        <ele>11.705</ele>
        <time>2018-08-29T10:52:59.171Z</time>
      </trkpt>
      <trkpt lat="47.9253092" lon="-1.7549264">
        <ele>11.816</ele>
        <time>2018-08-29T10:53:02.182Z</time>
      </trkpt>
      <trkpt lat="47.9253511" lon="-1.7550643">
        <ele>11.903</ele>
        <time>2018-08-29T10:53:05.236Z</time>
      </trkpt>
      <trkpt lat="47.9253891" lon="-1.7551934">
        <ele>12.018</ele>
        <time>2018-08-29T10:53:08.113Z</time>
      </trkpt>
      <trkpt lat="47.9254318" lon="-1.7553171">
        <ele>12.134</ele>
        <time>2018-08-29T10:53:11.013Z</time>
      </trkpt>
      <trkpt lat="47.9254766" lon="-1.7554370">
        <ele>12.224</ele>
        <time>2018-08-29T10:53:13.942Z</time>
      </trkpt>
      <trkpt lat="47.9255237" lon="-1.7555515">
        <ele>12.306</ele>
        <time>2018-08-29T10:53:16.861Z</time>
      </trkpt>
      <trkpt lat="47.9255792" lon="-1.7557025">
        <ele>12.401</ele>
        <time>2018-08-29T10:53:20.592Z</time>
      </trkpt>
      <trkpt lat="47.9256310" lon="-1.7558364">
        <ele>12.522</ele>
        <time>2018-08-29T10:53:23.892Z</time>
      </trkpt>
      <trkpt lat="47.9256779" lon="-1.7559547">
        <ele>12.681</ele>
        <time>2018-08-29T10:53:26.838Z</time>
      </trkpt>
      <trkpt lat="47.9257205" lon="-1.7560733">
        <ele>12.891</ele>
        <time>2018-08-29T10:53:29.719Z</time>
      </trkpt>
      <trkpt lat="47.9257694" lon="-1.7561929">
        <ele>13.111</ele>
        <time>2018-08-29T10:53:32.675Z</time>
      </trkpt>
      <trkpt lat="47.9258242" lon="-1.7563161">
        <ele>13.254</ele>
        <time>2018-08-29T10:53:35.758Z</time>
      </trkpt>
      <trkpt lat="47.9258708" lon="-1.7564354">
        <ele>13.301</ele>
        <time>2018-08-29T10:53:38.653Z</time>
      </trkpt>
      <trkpt lat="47.9259168" lon="-1.7566026">
        <ele>13.333</ele>
        <time>2018-08-29T10:53:42.498Z</time>
      </trkpt>
      <trkpt lat="47.9259701" lon="-1.7567612">
        <ele>13.435</ele>
        <time>2018-08-29T10:53:46.267Z</time>
      </trkpt>
      <trkpt lat="47.9260137" lon="-1.7568943">
        <ele>13.612</ele>
        <time>2018-08-29T10:53:49.316Z</time>
      </trkpt>
      <trkpt lat="47.9260667" lon="-1.7570337">
        <ele>13.829</ele>
        <time>2018-08-29T10:53:52.575Z</time>
      </trkpt>
      <trkpt lat="47.9261390" lon="-1.7571801">
        <ele>14.063</ele>
        <time>2018-08-29T10:53:56.292Z</time>
      </trkpt>
      <trkpt lat="47.9262110" lon="-1.7572834">
        <ele>14.278</ele>
        <time>2018-08-29T10:53:59.364Z</time>
      </trkpt>
      <trkpt lat="47.9262801" lon="-1.7573870">
        <ele>14.492</ele>
        <time>2018-08-29T10:54:02.356Z</time>
      </trkpt>
      <trkpt lat="47.9263542" lon="-1.7575042">
        <ele>14.758</ele>
        <time>2018-08-29T10:54:05.577Z</time>
      </trkpt>
      <trkpt lat="47.9264190" lon="-1.7576356">
        <ele>15.027</ele>
        <time>2018-08-29T10:54:08.786Z</time>
      </trkpt>
      <trkpt lat="47.9264777" lon="-1.7577594">
        <ele>15.221</ele>
        <time>2018-08-29T10:54:11.751Z</time>
      </trkpt>
      <trkpt lat="47.9265373" lon="-1.7578848">
        <ele>15.388</ele>
        <time>2018-08-29T10:54:14.783Z</time>
      </trkpt>
      <trkpt lat="47.9265935" lon="-1.7580058">
        <ele>15.601</ele>
        <time>2018-08-29T10:54:17.763Z</time>
      </trkpt>
      <trkpt lat="47.9266548" lon="-1.7581376">
        <ele>15.837</ele>
        <time>2018-08-29T10:54:21.138Z</time>
      </trkpt>
      <trkpt lat="47.9267163" lon="-1.7582911">
        <ele>16.052</ele>
        <time>2018-08-29T10:54:24.961Z</time>
      </trkpt>
      <trkpt lat="47.9267746" lon="-1.7584025">
        <ele>16.296</ele>
        <time>2018-08-29T10:54:27.983Z</time>
      </trkpt>
      <trkpt lat="47.9268315" lon="-1.7585141">
        <ele>16.616</ele>
        <time>2018-08-29T10:54:30.957Z</time>
      </trkpt>
      <trkpt lat="47.9268937" lon="-1.7586210">
        <ele>16.930</ele>
        <time>2018-08-29T10:54:33.933Z</time>
      </trkpt>
      <trkpt lat="47.9269553" lon="-1.7587312">
        <ele>17.127</ele>
        <time>2018-08-29T10:54:37.002Z</time>
      </trkpt>
      <trkpt lat="47.9270386" lon="-1.7588586">
        <ele>17.199</ele>
        <time>2018-08-29T10:54:40.832Z</time>
      </trkpt>
      <trkpt lat="47.9271082" lon="-1.7589671">
        <ele>17.281</ele>
        <time>2018-08-29T10:54:44.036Z</time>
      </trkpt>
      <trkpt lat="47.9271869" lon="-1.7590838">
        <ele>17.503</ele>
        <time>2018-08-29T10:54:47.709Z</time>
      </trkpt>
      <trkpt lat="47.9272339" lon="-1.7592265">
        <ele>17.785</ele>
        <time>2018-08-29T10:54:51.368Z</time>
      </trkpt>
      <trkpt lat="47.9272656" lon="-1.7593595">
        <ele>18.005</ele>
        <time>2018-08-29T10:54:54.508Z</time>
      </trkpt>
      <trkpt lat="47.9273173" lon="-1.7595185">
        <ele>18.124</ele>
        <time>2018-08-29T10:54:58.146Z</time>
      </trkpt>
      <trkpt lat="47.9273806" lon="-1.7596744">
        <ele>18.086</ele>
        <time>2018-08-29T10:55:01.773Z</time>
      </trkpt>
      <trkpt lat="47.9274202" lon="-1.7598000">
        <ele>17.919</ele>
        <time>2018-08-29T10:55:04.617Z</time>
      </trkpt>
      <trkpt lat="47.9274348" lon="-1.7599713">
        <ele>17.895</ele>
        <time>2018-08-29T10:55:08.305Z</time>
      </trkpt>
      <trkpt lat="47.9274679" lon="-1.7601448">
        <ele>18.168</ele>
        <time>2018-08-29T10:55:12.241Z</time>
      </trkpt>
      <trkpt lat="47.9274912" lon="-1.7602762">
        <ele>18.486</ele>
        <time>2018-08-29T10:55:15.220Z</time>
      </trkpt>
      <trkpt lat="47.9275336" lon="-1.7603999">
        <ele>18.552</ele>
        <time>2018-08-29T10:55:18.208Z</time>
      </trkpt>
      <trkpt lat="47.9275816" lon="-1.7605311">
        <ele>18.297</ele>
        <time>2018-08-29T10:55:21.295Z</time>
      </trkpt>
      <trkpt lat="47.9276311" lon="-1.7606649">
        <ele>17.853</ele>
        <time>2018-08-29T10:55:24.370Z</time>
      </trkpt>
      <trkpt lat="47.9276898" lon="-1.7607870">
        <ele>17.659</ele>
        <time>2018-08-29T10:55:27.386Z</time>
      </trkpt>
      <trkpt lat="47.9277590" lon="-1.7608904">
        <ele>17.990</ele>
        <time>2018-08-29T10:55:30.356Z</time>
      </trkpt>
      <trkpt lat="47.9278399" lon="-1.7610206">
        <ele>18.572</ele>
        <time>2018-08-29T10:55:34.066Z</time>
      </trkpt>
      <trkpt lat="47.9279252" lon="-1.7611420">
        <ele>19.044</ele>
        <time>2018-08-29T10:55:37.836Z</time>
      </trkpt>
      <trkpt lat="47.9279939" lon="-1.7612373">
        <ele>19.403</ele>
        <time>2018-08-29T10:55:40.870Z</time>
      </trkpt>
      <trkpt lat="47.9280566" lon="-1.7613370">
        <ele>19.738</ele>
        <time>2018-08-29T10:55:43.842Z</time>
      </trkpt>
      <trkpt lat="47.9281170" lon="-1.7614391">
        <ele>20.058</ele>
        <time>2018-08-29T10:55:46.771Z</time>
      </trkpt>
      <trkpt lat="47.9281908" lon="-1.7615350">
        <ele>20.347</ele>
        <time>2018-08-29T10:55:49.851Z</time>
      </trkpt>
      <trkpt lat="47.9282651" lon="-1.7616261">
        <ele>20.606</ele>
        <time>2018-08-29T10:55:52.835Z</time>
      </trkpt>
      <trkpt lat="47.9283359" lon="-1.7617190">
        <ele>20.807</ele>
        <time>2018-08-29T10:55:55.781Z</time>
      </trkpt>
      <trkpt lat="47.9284309" lon="-1.7618187">
        <ele>20.937</ele>
        <time>2018-08-29T10:55:59.471Z</time>
      </trkpt>
      <trkpt lat="47.9285374" lon="-1.7618989">
        <ele>20.995</ele>
        <time>2018-08-29T10:56:03.284Z</time>
      </trkpt>
      <trkpt lat="47.9286306" lon="-1.7619546">
        <ele>21.011</ele>
        <time>2018-08-29T10:56:06.435Z</time>
      </trkpt>
      <trkpt lat="47.9287192" lon="-1.7620113">
        <ele>21.011</ele>
        <time>2018-08-29T10:56:09.443Z</time>
      </trkpt>
      <trkpt lat="47.9288307" lon="-1.7620575">
        <ele>21.010</ele>
        <time>2018-08-29T10:56:13.047Z</time>
      </trkpt>
      <trkpt lat="47.9289301" lon="-1.7620882">
        <ele>20.928</ele>
        <time>2018-08-29T10:56:16.160Z</time>
      </trkpt>
      <trkpt lat="47.9290244" lon="-1.7621407">
        <ele>20.591</ele>
        <time>2018-08-29T10:56:19.162Z</time>
      </trkpt>
      <trkpt lat="47.9291278" lon="-1.7621649">
        <ele>20.011</ele>
        <time>2018-08-29T10:56:22.224Z</time>
      </trkpt>
      <trkpt lat="47.9292295" lon="-1.7621627">
        <ele>19.343</ele>
        <time>2018-08-29T10:56:25.199Z</time>
      </trkpt>
      <trkpt lat="47.9293322" lon="-1.7621548">
        <ele>18.605</ele>
        <time>2018-08-29T10:56:28.256Z</time>
      </trkpt>
      <trkpt lat="47.9294194" lon="-1.7621153">
        <ele>17.815</ele>
        <time>2018-08-29T10:56:31.029Z</time>
      </trkpt>
      <trkpt lat="47.9295100" lon="-1.7620835">
        <ele>17.025</ele>
        <time>2018-08-29T10:56:33.882Z</time>
      </trkpt>
      <trkpt lat="47.9296090" lon="-1.7620677">
        <ele>16.218</ele>
        <time>2018-08-29T10:56:36.909Z</time>
      </trkpt>
      <trkpt lat="47.9297126" lon="-1.7620663">
        <ele>15.528</ele>
        <time>2018-08-29T10:56:40.032Z</time>
      </trkpt>
      <trkpt lat="47.9298105" lon="-1.7620538">
        <ele>15.154</ele>
        <time>2018-08-29T10:56:42.973Z</time>
      </trkpt>
      <trkpt lat="47.9299136" lon="-1.7620330">
        <ele>15.073</ele>
        <time>2018-08-29T10:56:46.056Z</time>
      </trkpt>
      <trkpt lat="47.9300113" lon="-1.7620093">
        <ele>15.137</ele>
        <time>2018-08-29T10:56:49.016Z</time>
      </trkpt>
      <trkpt lat="47.9301237" lon="-1.7619776">
        <ele>15.249</ele>
        <time>2018-08-29T10:56:52.501Z</time>
      </trkpt>
      <trkpt lat="47.9302211" lon="-1.7619530">
        <ele>15.357</ele>
        <time>2018-08-29T10:56:55.546Z</time>
      </trkpt>
      <trkpt lat="47.9303246" lon="-1.7619375">
        <ele>15.422</ele>
        <time>2018-08-29T10:56:58.698Z</time>
      </trkpt>
      <trkpt lat="47.9304317" lon="-1.7619162">
        <ele>15.409</ele>
        <time>2018-08-29T10:57:01.874Z</time>
      </trkpt>
      <trkpt lat="47.9305395" lon="-1.7618964">
        <ele>15.323</ele>
        <time>2018-08-29T10:57:04.979Z</time>
      </trkpt>
      <trkpt lat="47.9306430" lon="-1.7618621">
        <ele>15.241</ele>
        <time>2018-08-29T10:57:07.984Z</time>
      </trkpt>
      <trkpt lat="47.9307381" lon="-1.7618061">
        <ele>15.214</ele>
        <time>2018-08-29T10:57:10.917Z</time>
      </trkpt>
      <trkpt lat="47.9308295" lon="-1.7617495">
        <ele>15.220</ele>
        <time>2018-08-29T10:57:13.794Z</time>
      </trkpt>
      <trkpt lat="47.9309219" lon="-1.7616950">
        <ele>15.163</ele>
        <time>2018-08-29T10:57:16.720Z</time>
      </trkpt>
      <trkpt lat="47.9310170" lon="-1.7616696">
        <ele>14.981</ele>
        <time>2018-08-29T10:57:19.626Z</time>
      </trkpt>
      <trkpt lat="47.9311104" lon="-1.7616887">
        <ele>14.766</ele>
        <time>2018-08-29T10:57:22.555Z</time>
      </trkpt>
      <trkpt lat="47.9312297" lon="-1.7616902">
        <ele>14.638</ele>
        <time>2018-08-29T10:57:26.349Z</time>
      </trkpt>
      <trkpt lat="47.9313252" lon="-1.7616825">
        <ele>14.723</ele>
        <time>2018-08-29T10:57:29.414Z</time>
      </trkpt>
      <trkpt lat="47.9314198" lon="-1.7616640">
        <ele>15.084</ele>
        <time>2018-08-29T10:57:32.463Z</time>
      </trkpt>
      <trkpt lat="47.9315101" lon="-1.7616266">
        <ele>15.564</ele>
        <time>2018-08-29T10:57:35.492Z</time>
      </trkpt>
      <trkpt lat="47.9316090" lon="-1.7615274">
        <ele>15.934</ele>
        <time>2018-08-29T10:57:39.451Z</time>
      </trkpt>
      <trkpt lat="47.9316981" lon="-1.7614264">
        <ele>16.111</ele>
        <time>2018-08-29T10:57:43.288Z</time>
      </trkpt>
      <trkpt lat="47.9317895" lon="-1.7613330">
        <ele>16.039</ele>
        <time>2018-08-29T10:57:47.158Z</time>
      </trkpt>
      <trkpt lat="47.9318947" lon="-1.7612705">
        <ele>15.762</ele>
        <time>2018-08-29T10:57:51.115Z</time>
      </trkpt>
      <trkpt lat="47.9319837" lon="-1.7612254">
        <ele>15.494</ele>
        <time>2018-08-29T10:57:54.309Z</time>
      </trkpt>
      <trkpt lat="47.9320708" lon="-1.7611735">
        <ele>15.392</ele>
        <time>2018-08-29T10:57:57.394Z</time>
      </trkpt>
      <trkpt lat="47.9321531" lon="-1.7611028">
        <ele>15.402</ele>
        <time>2018-08-29T10:58:00.442Z</time>
      </trkpt>
      <trkpt lat="47.9322271" lon="-1.7609974">
        <ele>15.438</ele>
        <time>2018-08-29T10:58:03.696Z</time>
      </trkpt>
      <trkpt lat="47.9322846" lon="-1.7608940">
        <ele>15.465</ele>
        <time>2018-08-29T10:58:06.601Z</time>
      </trkpt>
      <trkpt lat="47.9323622" lon="-1.7607722">
        <ele>15.500</ele>
        <time>2018-08-29T10:58:10.328Z</time>
      </trkpt>
      <trkpt lat="47.9324503" lon="-1.7606650">
        <ele>15.588</ele>
        <time>2018-08-29T10:58:14.188Z</time>
      </trkpt>
      <trkpt lat="47.9325248" lon="-1.7605779">
        <ele>15.731</ele>
        <time>2018-08-29T10:58:17.430Z</time>
      </trkpt>
      <trkpt lat="47.9326120" lon="-1.7604683">
        <ele>15.811</ele>
        <time>2018-08-29T10:58:21.336Z</time>
      </trkpt>
      <trkpt lat="47.9326983" lon="-1.7603644">
        <ele>15.723</ele>
        <time>2018-08-29T10:58:25.171Z</time>
      </trkpt>
      <trkpt lat="47.9327661" lon="-1.7602689">
        <ele>15.494</ele>
        <time>2018-08-29T10:58:28.365Z</time>
      </trkpt>
      <trkpt lat="47.9328356" lon="-1.7601781">
        <ele>15.244</ele>
        <time>2018-08-29T10:58:31.486Z</time>
      </trkpt>
      <trkpt lat="47.9329277" lon="-1.7600894">
        <ele>15.082</ele>
        <time>2018-08-29T10:58:35.236Z</time>
      </trkpt>
      <trkpt lat="47.9330060" lon="-1.7599937">
        <ele>15.030</ele>
        <time>2018-08-29T10:58:38.854Z</time>
      </trkpt>
      <trkpt lat="47.9330553" lon="-1.7598501">
        <ele>14.987</ele>
        <time>2018-08-29T10:58:42.860Z</time>
      </trkpt>
      <trkpt lat="47.9331101" lon="-1.7597432">
        <ele>14.849</ele>
        <time>2018-08-29T10:58:46.150Z</time>
      </trkpt>
      <trkpt lat="47.9331955" lon="-1.7596392">
        <ele>14.634</ele>
        <time>2018-08-29T10:58:50.100Z</time>
      </trkpt>
      <trkpt lat="47.9332834" lon="-1.7595265">
        <ele>14.466</ele>
        <time>2018-08-29T10:58:54.186Z</time>
      </trkpt>
      <trkpt lat="47.9333415" lon="-1.7594147">
        <ele>14.414</ele>
        <time>2018-08-29T10:58:57.391Z</time>
      </trkpt>
      <trkpt lat="47.9333964" lon="-1.7592833">
        <ele>14.441</ele>
        <time>2018-08-29T10:59:00.705Z</time>
      </trkpt>
      <trkpt lat="47.9334483" lon="-1.7591493">
        <ele>14.480</ele>
        <time>2018-08-29T10:59:03.847Z</time>
      </trkpt>
      <trkpt lat="47.9334955" lon="-1.7590105">
        <ele>14.501</ele>
        <time>2018-08-29T10:59:06.887Z</time>
      </trkpt>
      <trkpt lat="47.9335385" lon="-1.7588636">
        <ele>14.513</ele>
        <time>2018-08-29T10:59:09.930Z</time>
      </trkpt>
      <trkpt lat="47.9335843" lon="-1.7587160">
        <ele>14.525</ele>
        <time>2018-08-29T10:59:12.953Z</time>
      </trkpt>
      <trkpt lat="47.9336281" lon="-1.7585665">
        <ele>14.528</ele>
        <time>2018-08-29T10:59:15.974Z</time>
      </trkpt>
      <trkpt lat="47.9336720" lon="-1.7584387">
        <ele>14.486</ele>
        <time>2018-08-29T10:59:18.664Z</time>
      </trkpt>
      <trkpt lat="47.9337260" lon="-1.7583075">
        <ele>14.376</ele>
        <time>2018-08-29T10:59:21.568Z</time>
      </trkpt>
      <trkpt lat="47.9337832" lon="-1.7581710">
        <ele>14.216</ele>
        <time>2018-08-29T10:59:24.614Z</time>
      </trkpt>
      <trkpt lat="47.9338332" lon="-1.7580273">
        <ele>14.060</ele>
        <time>2018-08-29T10:59:27.692Z</time>
      </trkpt>
      <trkpt lat="47.9338816" lon="-1.7578967">
        <ele>13.937</ele>
        <time>2018-08-29T10:59:30.558Z</time>
      </trkpt>
      <trkpt lat="47.9339278" lon="-1.7577428">
        <ele>13.824</ele>
        <time>2018-08-29T10:59:33.814Z</time>
      </trkpt>
      <trkpt lat="47.9339825" lon="-1.7576177">
        <ele>13.716</ele>
        <time>2018-08-29T10:59:36.719Z</time>
      </trkpt>
      <trkpt lat="47.9340520" lon="-1.7575143">
        <ele>13.639</ele>
        <time>2018-08-29T10:59:39.584Z</time>
      </trkpt>
      <trkpt lat="47.9341268" lon="-1.7574055">
        <ele>13.597</ele>
        <time>2018-08-29T10:59:42.613Z</time>
      </trkpt>
      <trkpt lat="47.9342085" lon="-1.7572989">
        <ele>13.539</ele>
        <time>2018-08-29T10:59:45.716Z</time>
      </trkpt>
      <trkpt lat="47.9342835" lon="-1.7571847">
        <ele>13.320</ele>
        <time>2018-08-29T10:59:48.750Z</time>
      </trkpt>
      <trkpt lat="47.9343552" lon="-1.7570678">
        <ele>12.872</ele>
        <time>2018-08-29T10:59:51.726Z</time>
      </trkpt>
      <trkpt lat="47.9344274" lon="-1.7569491">
        <ele>12.356</ele>
        <time>2018-08-29T10:59:54.709Z</time>
      </trkpt>
      <trkpt lat="47.9344925" lon="-1.7568210">
        <ele>11.983</ele>
        <time>2018-08-29T10:59:57.683Z</time>
      </trkpt>
      <trkpt lat="47.9345536" lon="-1.7566887">
        <ele>11.775</ele>
        <time>2018-08-29T11:00:00.649Z</time>
      </trkpt>
      <trkpt lat="47.9346115" lon="-1.7565469">
        <ele>11.629</ele>
        <time>2018-08-29T11:00:03.700Z</time>
      </trkpt>
      <trkpt lat="47.9346822" lon="-1.7564220">
        <ele>11.491</ele>
        <time>2018-08-29T11:00:06.681Z</time>
      </trkpt>
      <trkpt lat="47.9347520" lon="-1.7562924">
        <ele>11.399</ele>
        <time>2018-08-29T11:00:09.689Z</time>
      </trkpt>
      <trkpt lat="47.9348120" lon="-1.7561660">
        <ele>11.382</ele>
        <time>2018-08-29T11:00:12.533Z</time>
      </trkpt>
      <trkpt lat="47.9348728" lon="-1.7560593">
        <ele>11.436</ele>
        <time>2018-08-29T11:00:15.193Z</time>
      </trkpt>
      <trkpt lat="47.9349278" lon="-1.7559396">
        <ele>11.603</ele>
        <time>2018-08-29T11:00:18.042Z</time>
      </trkpt>
      <trkpt lat="47.9349827" lon="-1.7558083">
        <ele>11.876</ele>
        <time>2018-08-29T11:00:21.131Z</time>
      </trkpt>
      <trkpt lat="47.9350364" lon="-1.7556805">
        <ele>12.092</ele>
        <time>2018-08-29T11:00:24.150Z</time>
      </trkpt>
      <trkpt lat="47.9350860" lon="-1.7555507">
        <ele>12.131</ele>
        <time>2018-08-29T11:00:27.144Z</time>
      </trkpt>
      <trkpt lat="47.9351362" lon="-1.7554159">
        <ele>12.112</ele>
        <time>2018-08-29T11:00:30.224Z</time>
      </trkpt>
      <trkpt lat="47.9351899" lon="-1.7552824">
        <ele>12.167</ele>
        <time>2018-08-29T11:00:33.307Z</time>
      </trkpt>
      <trkpt lat="47.9352548" lon="-1.7551862">
        <ele>12.261</ele>
        <time>2018-08-29T11:00:36.035Z</time>
      </trkpt>
      <trkpt lat="47.9353377" lon="-1.7550683">
        <ele>12.287</ele>
        <time>2018-08-29T11:00:39.518Z</time>
      </trkpt>
      <trkpt lat="47.9353889" lon="-1.7549380">
        <ele>12.116</ele>
        <time>2018-08-29T11:00:42.647Z</time>
      </trkpt>
      <trkpt lat="47.9354438" lon="-1.7548083">
        <ele>11.726</ele>
        <time>2018-08-29T11:00:45.779Z</time>
      </trkpt>
      <trkpt lat="47.9354852" lon="-1.7546715">
        <ele>11.327</ele>
        <time>2018-08-29T11:00:48.801Z</time>
      </trkpt>
      <trkpt lat="47.9355321" lon="-1.7545409">
        <ele>11.106</ele>
        <time>2018-08-29T11:00:51.767Z</time>
      </trkpt>
      <trkpt lat="47.9355856" lon="-1.7544191">
        <ele>11.024</ele>
        <time>2018-08-29T11:00:54.676Z</time>
      </trkpt>
      <trkpt lat="47.9356421" lon="-1.7542882">
        <ele>10.970</ele>
        <time>2018-08-29T11:00:57.767Z</time>
      </trkpt>
      <trkpt lat="47.9356961" lon="-1.7541648">
        <ele>10.864</ele>
        <time>2018-08-29T11:01:00.679Z</time>
      </trkpt>
      <trkpt lat="47.9357496" lon="-1.7540398">
        <ele>10.716</ele>
        <time>2018-08-29T11:01:03.617Z</time>
      </trkpt>
      <trkpt lat="47.9358119" lon="-1.7539202">
        <ele>10.568</ele>
        <time>2018-08-29T11:01:06.614Z</time>
      </trkpt>
      <trkpt lat="47.9358693" lon="-1.7537889">
        <ele>10.434</ele>
        <time>2018-08-29T11:01:09.686Z</time>
      </trkpt>
      <trkpt lat="47.9359231" lon="-1.7536484">
        <ele>10.330</ele>
        <time>2018-08-29T11:01:12.822Z</time>
      </trkpt>
      <trkpt lat="47.9359925" lon="-1.7535613">
        <ele>10.271</ele>
        <time>2018-08-29T11:01:15.470Z</time>
      </trkpt>
      <trkpt lat="47.9360725" lon="-1.7534708">
        <ele>10.244</ele>
        <time>2018-08-29T11:01:18.494Z</time>
      </trkpt>
      <trkpt lat="47.9361554" lon="-1.7534178">
        <ele>10.302</ele>
        <time>2018-08-29T11:01:21.300Z</time>
      </trkpt>
      <trkpt lat="47.9362591" lon="-1.7533429">
        <ele>10.488</ele>
        <time>2018-08-29T11:01:25.025Z</time>
      </trkpt>
      <trkpt lat="47.9363516" lon="-1.7532781">
        <ele>10.698</ele>
        <time>2018-08-29T11:01:28.364Z</time>
      </trkpt>
      <trkpt lat="47.9364552" lon="-1.7532102">
        <ele>10.862</ele>
        <time>2018-08-29T11:01:31.899Z</time>
      </trkpt>
      <trkpt lat="47.9365481" lon="-1.7531431">
        <ele>11.055</ele>
        <time>2018-08-29T11:01:35.004Z</time>
      </trkpt>
      <trkpt lat="47.9366372" lon="-1.7530711">
        <ele>11.284</ele>
        <time>2018-08-29T11:01:38.017Z</time>
      </trkpt>
      <trkpt lat="47.9367310" lon="-1.7530150">
        <ele>11.518</ele>
        <time>2018-08-29T11:01:41.003Z</time>
      </trkpt>
      <trkpt lat="47.9368214" lon="-1.7529549">
        <ele>11.758</ele>
        <time>2018-08-29T11:01:43.941Z</time>
      </trkpt>
      <trkpt lat="47.9369115" lon="-1.7528931">
        <ele>11.939</ele>
        <time>2018-08-29T11:01:46.901Z</time>
      </trkpt>
      <trkpt lat="47.9370068" lon="-1.7528338">
        <ele>11.929</ele>
        <time>2018-08-29T11:01:49.995Z</time>
      </trkpt>
      <trkpt lat="47.9371002" lon="-1.7527800">
        <ele>11.718</ele>
        <time>2018-08-29T11:01:53.003Z</time>
      </trkpt>
      <trkpt lat="47.9371923" lon="-1.7527310">
        <ele>11.488</ele>
        <time>2018-08-29T11:01:55.960Z</time>
      </trkpt>
      <trkpt lat="47.9372824" lon="-1.7526791">
        <ele>11.389</ele>
        <time>2018-08-29T11:01:58.893Z</time>
      </trkpt>
      <trkpt lat="47.9373793" lon="-1.7526258">
        <ele>11.352</ele>
        <time>2018-08-29T11:02:02.009Z</time>
      </trkpt>
      <trkpt lat="47.9374713" lon="-1.7525736">
        <ele>11.287</ele>
        <time>2018-08-29T11:02:04.982Z</time>
      </trkpt>
      <trkpt lat="47.9375799" lon="-1.7525286">
        <ele>11.251</ele>
        <time>2018-08-29T11:02:08.468Z</time>
      </trkpt>
      <trkpt lat="47.9376931" lon="-1.7524812">
        <ele>11.341</ele>
        <time>2018-08-29T11:02:12.256Z</time>
      </trkpt>
      <trkpt lat="47.9377817" lon="-1.7524358">
        <ele>11.513</ele>
        <time>2018-08-29T11:02:15.316Z</time>
      </trkpt>
      <trkpt lat="47.9378739" lon="-1.7523783">
        <ele>11.707</ele>
        <time>2018-08-29T11:02:18.509Z</time>
      </trkpt>
      <trkpt lat="47.9379659" lon="-1.7523180">
        <ele>11.910</ele>
        <time>2018-08-29T11:02:21.622Z</time>
      </trkpt>
      <trkpt lat="47.9380536" lon="-1.7522400">
        <ele>12.126</ele>
        <time>2018-08-29T11:02:24.712Z</time>
      </trkpt>
      <trkpt lat="47.9381352" lon="-1.7521583">
        <ele>12.382</ele>
        <time>2018-08-29T11:02:27.648Z</time>
      </trkpt>
      <trkpt lat="47.9382224" lon="-1.7520688">
        <ele>12.638</ele>
        <time>2018-08-29T11:02:30.753Z</time>
      </trkpt>
      <trkpt lat="47.9383023" lon="-1.7519594">
        <ele>12.774</ele>
        <time>2018-08-29T11:02:33.855Z</time>
      </trkpt>
      <trkpt lat="47.9383729" lon="-1.7518495">
        <ele>12.761</ele>
        <time>2018-08-29T11:02:36.761Z</time>
      </trkpt>
      <trkpt lat="47.9384497" lon="-1.7517471">
        <ele>12.681</ele>
        <time>2018-08-29T11:02:39.720Z</time>
      </trkpt>
      <trkpt lat="47.9385219" lon="-1.7516274">
        <ele>12.589</ele>
        <time>2018-08-29T11:02:42.818Z</time>
      </trkpt>
      <trkpt lat="47.9385874" lon="-1.7515160">
        <ele>12.458</ele>
        <time>2018-08-29T11:02:45.689Z</time>
      </trkpt>
      <trkpt lat="47.9386593" lon="-1.7514259">
        <ele>12.257</ele>
        <time>2018-08-29T11:02:48.452Z</time>
      </trkpt>
      <trkpt lat="47.9387624" lon="-1.7513442">
        <ele>11.986</ele>
        <time>2018-08-29T11:02:52.022Z</time>
      </trkpt>
      <trkpt lat="47.9388551" lon="-1.7512838">
        <ele>11.649</ele>
        <time>2018-08-29T11:02:55.243Z</time>
      </trkpt>
      <trkpt lat="47.9389475" lon="-1.7512356">
        <ele>11.292</ele>
        <time>2018-08-29T11:02:58.362Z</time>
      </trkpt>
      <trkpt lat="47.9390151" lon="-1.7511416">
        <ele>11.010</ele>
        <time>2018-08-29T11:03:01.320Z</time>
      </trkpt>
      <trkpt lat="47.9390831" lon="-1.7510387">
        <ele>10.864</ele>
        <time>2018-08-29T11:03:04.446Z</time>
      </trkpt>
      <trkpt lat="47.9391721" lon="-1.7509418">
        <ele>10.831</ele>
        <time>2018-08-29T11:03:08.079Z</time>
      </trkpt>
      <trkpt lat="47.9392576" lon="-1.7508890">
        <ele>10.850</ele>
        <time>2018-08-29T11:03:11.226Z</time>
      </trkpt>
      <trkpt lat="47.9393434" lon="-1.7508444">
        <ele>10.884</ele>
        <time>2018-08-29T11:03:14.326Z</time>
      </trkpt>
      <trkpt lat="47.9394427" lon="-1.7507481">
        <ele>10.921</ele>
        <time>2018-08-29T11:03:18.353Z</time>
      </trkpt>
      <trkpt lat="47.9395393" lon="-1.7506777">
        <ele>10.948</ele>
        <time>2018-08-29T11:03:22.063Z</time>
      </trkpt>
      <trkpt lat="47.9396291" lon="-1.7506310">
        <ele>10.894</ele>
        <time>2018-08-29T11:03:25.372Z</time>
      </trkpt>
      <trkpt lat="47.9397291" lon="-1.7505899">
        <ele>10.626</ele>
        <time>2018-08-29T11:03:28.800Z</time>
      </trkpt>
      <trkpt lat="47.9398167" lon="-1.7505332">
        <ele>10.157</ele>
        <time>2018-08-29T11:03:31.841Z</time>
      </trkpt>
      <trkpt lat="47.9398990" lon="-1.7504792">
        <ele>9.726</ele>
        <time>2018-08-29T11:03:34.687Z</time>
      </trkpt>
      <trkpt lat="47.9399867" lon="-1.7504342">
        <ele>9.509</ele>
        <time>2018-08-29T11:03:37.636Z</time>
      </trkpt>
      <trkpt lat="47.9400709" lon="-1.7503793">
        <ele>9.439</ele>
        <time>2018-08-29T11:03:40.584Z</time>
      </trkpt>
      <trkpt lat="47.9401565" lon="-1.7503198">
        <ele>9.337</ele>
        <time>2018-08-29T11:03:43.606Z</time>
      </trkpt>
      <trkpt lat="47.9402474" lon="-1.7502611">
        <ele>9.148</ele>
        <time>2018-08-29T11:03:46.717Z</time>
      </trkpt>
      <trkpt lat="47.9403403" lon="-1.7502005">
        <ele>8.984</ele>
        <time>2018-08-29T11:03:49.846Z</time>
      </trkpt>
      <trkpt lat="47.9404264" lon="-1.7501457">
        <ele>8.926</ele>
        <time>2018-08-29T11:03:52.745Z</time>
      </trkpt>
      <trkpt lat="47.9405173" lon="-1.7500983">
        <ele>8.924</ele>
        <time>2018-08-29T11:03:55.761Z</time>
      </trkpt>
      <trkpt lat="47.9406101" lon="-1.7500502">
        <ele>8.922</ele>
        <time>2018-08-29T11:03:58.833Z</time>
      </trkpt>
      <trkpt lat="47.9407010" lon="-1.7500015">
        <ele>8.933</ele>
        <time>2018-08-29T11:04:01.834Z</time>
      </trkpt>
      <trkpt lat="47.9407884" lon="-1.7499632">
        <ele>8.981</ele>
        <time>2018-08-29T11:04:04.675Z</time>
      </trkpt>
      <trkpt lat="47.9408746" lon="-1.7499120">
        <ele>8.998</ele>
        <time>2018-08-29T11:04:07.594Z</time>
      </trkpt>
      <trkpt lat="47.9409662" lon="-1.7498634">
        <ele>8.636</ele>
        <time>2018-08-29T11:04:10.663Z</time>
      </trkpt>
      <trkpt lat="47.9410548" lon="-1.7498309">
        <ele>7.720</ele>
        <time>2018-08-29T11:04:13.589Z</time>
      </trkpt>
      <trkpt lat="47.9411665" lon="-1.7498318">
        <ele>6.735</ele>
        <time>2018-08-29T11:04:17.269Z</time>
      </trkpt>
      <trkpt lat="47.9412767" lon="-1.7498660">
        <ele>6.481</ele>
        <time>2018-08-29T11:04:20.903Z</time>
      </trkpt>
      <trkpt lat="47.9413789" lon="-1.7499204">
        <ele>7.148</ele>
        <time>2018-08-29T11:04:24.220Z</time>
      </trkpt>
      <trkpt lat="47.9414635" lon="-1.7499890">
        <ele>8.109</ele>
        <time>2018-08-29T11:04:27.164Z</time>
      </trkpt>
      <trkpt lat="47.9415505" lon="-1.7500924">
        <ele>8.707</ele>
        <time>2018-08-29T11:04:30.682Z</time>
      </trkpt>
      <trkpt lat="47.9416278" lon="-1.7501947">
        <ele>8.926</ele>
        <time>2018-08-29T11:04:34.036Z</time>
      </trkpt>
      <trkpt lat="47.9417006" lon="-1.7502962">
        <ele>8.994</ele>
        <time>2018-08-29T11:04:37.216Z</time>
      </trkpt>
      <trkpt lat="47.9417808" lon="-1.7503815">
        <ele>9.037</ele>
        <time>2018-08-29T11:04:40.270Z</time>
      </trkpt>
      <trkpt lat="47.9418761" lon="-1.7504639">
        <ele>9.072</ele>
        <time>2018-08-29T11:04:43.516Z</time>
      </trkpt>
      <trkpt lat="47.9419820" lon="-1.7505419">
        <ele>9.127</ele>
        <time>2018-08-29T11:04:46.861Z</time>
      </trkpt>
      <trkpt lat="47.9420737" lon="-1.7506052">
        <ele>9.305</ele>
        <time>2018-08-29T11:04:49.749Z</time>
      </trkpt>
      <trkpt lat="47.9421570" lon="-1.7506625">
        <ele>9.654</ele>
        <time>2018-08-29T11:04:52.493Z</time>
      </trkpt>
      <trkpt lat="47.9422557" lon="-1.7507345">
        <ele>10.072</ele>
        <time>2018-08-29T11:04:55.913Z</time>
      </trkpt>
      <trkpt lat="47.9423362" lon="-1.7508034">
        <ele>10.411</ele>
        <time>2018-08-29T11:04:58.914Z</time>
      </trkpt>
      <trkpt lat="47.9424236" lon="-1.7508709">
        <ele>10.593</ele>
        <time>2018-08-29T11:05:02.111Z</time>
      </trkpt>
      <trkpt lat="47.9425123" lon="-1.7509237">
        <ele>10.628</ele>
        <time>2018-08-29T11:05:05.202Z</time>
      </trkpt>
      <trkpt lat="47.9425970" lon="-1.7509758">
        <ele>10.579</ele>
        <time>2018-08-29T11:05:08.155Z</time>
      </trkpt>
      <trkpt lat="47.9427048" lon="-1.7510405">
        <ele>10.505</ele>
        <time>2018-08-29T11:05:11.921Z</time>
      </trkpt>
      <trkpt lat="47.9428092" lon="-1.7511129">
        <ele>10.438</ele>
        <time>2018-08-29T11:05:15.714Z</time>
      </trkpt>
      <trkpt lat="47.9429112" lon="-1.7511682">
        <ele>10.386</ele>
        <time>2018-08-29T11:05:19.354Z</time>
      </trkpt>
      <trkpt lat="47.9430292" lon="-1.7512196">
        <ele>10.365</ele>
        <time>2018-08-29T11:05:23.498Z</time>
      </trkpt>
      <trkpt lat="47.9431237" lon="-1.7512446">
        <ele>10.445</ele>
        <time>2018-08-29T11:05:26.707Z</time>
      </trkpt>
      <trkpt lat="47.9432370" lon="-1.7512653">
        <ele>10.634</ele>
        <time>2018-08-29T11:05:30.535Z</time>
      </trkpt>
      <trkpt lat="47.9433352" lon="-1.7512875">
        <ele>10.852</ele>
        <time>2018-08-29T11:05:33.811Z</time>
      </trkpt>
      <trkpt lat="47.9434386" lon="-1.7513110">
        <ele>11.140</ele>
        <time>2018-08-29T11:05:37.104Z</time>
      </trkpt>
      <trkpt lat="47.9435372" lon="-1.7513327">
        <ele>11.632</ele>
        <time>2018-08-29T11:05:40.145Z</time>
      </trkpt>
      <trkpt lat="47.9436342" lon="-1.7513566">
        <ele>12.239</ele>
        <time>2018-08-29T11:05:43.119Z</time>
      </trkpt>
      <trkpt lat="47.9437378" lon="-1.7513939">
        <ele>12.710</ele>
        <time>2018-08-29T11:05:46.308Z</time>
      </trkpt>
      <trkpt lat="47.9438349" lon="-1.7514420">
        <ele>12.974</ele>
        <time>2018-08-29T11:05:49.346Z</time>
      </trkpt>
      <trkpt lat="47.9439280" lon="-1.7514831">
        <ele>13.132</ele>
        <time>2018-08-29T11:05:52.246Z</time>
      </trkpt>
      <trkpt lat="47.9440197" lon="-1.7515299">
        <ele>13.232</ele>
        <time>2018-08-29T11:05:55.196Z</time>
      </trkpt>
      <trkpt lat="47.9441345" lon="-1.7515725">
        <ele>13.273</ele>
        <time>2018-08-29T11:05:58.931Z</time>
      </trkpt>
      <trkpt lat="47.9442342" lon="-1.7516060">
        <ele>13.282</ele>
        <time>2018-08-29T11:06:02.349Z</time>
      </trkpt>
      <trkpt lat="47.9443248" lon="-1.7516451">
        <ele>13.316</ele>
        <time>2018-08-29T11:06:05.757Z</time>
      </trkpt>
      <trkpt lat="47.9444213" lon="-1.7516806">
        <ele>13.403</ele>
        <time>2018-08-29T11:06:09.619Z</time>
      </trkpt>
      <trkpt lat="47.9445121" lon="-1.7517267">
        <ele>13.476</ele>
        <time>2018-08-29T11:06:13.487Z</time>
      </trkpt>
      <trkpt lat="47.9446006" lon="-1.7517588">
        <ele>13.475</ele>
        <time>2018-08-29T11:06:17.273Z</time>
      </trkpt>
      <trkpt lat="47.9446921" lon="-1.7517954">
        <ele>13.541</ele>
        <time>2018-08-29T11:06:21.280Z</time>
      </trkpt>
      <trkpt lat="47.9448027" lon="-1.7518167">
        <ele>13.808</ele>
        <time>2018-08-29T11:06:25.893Z</time>
      </trkpt>
      <trkpt lat="47.9448977" lon="-1.7518482">
        <ele>14.165</ele>
        <time>2018-08-29T11:06:29.729Z</time>
      </trkpt>
      <trkpt lat="47.9449870" lon="-1.7518782">
        <ele>14.446</ele>
        <time>2018-08-29T11:06:33.337Z</time>
      </trkpt>
      <trkpt lat="47.9450942" lon="-1.7519128">
        <ele>14.626</ele>
        <time>2018-08-29T11:06:37.835Z</time>
      </trkpt>
      <trkpt lat="47.9452013" lon="-1.7519458">
        <ele>14.729</ele>
        <time>2018-08-29T11:06:42.541Z</time>
      </trkpt>
      <trkpt lat="47.9452921" lon="-1.7519605">
        <ele>14.798</ele>
        <time>2018-08-29T11:06:46.581Z</time>
      </trkpt>
      <trkpt lat="47.9453835" lon="-1.7519596">
        <ele>14.854</ele>
        <time>2018-08-29T11:06:50.654Z</time>
      </trkpt>
      <trkpt lat="47.9454784" lon="-1.7519779">
        <ele>14.894</ele>
        <time>2018-08-29T11:06:54.828Z</time>
      </trkpt>
      <trkpt lat="47.9455895" lon="-1.7519470">
        <ele>15.035</ele>
        <time>2018-08-29T11:06:59.472Z</time>
      </trkpt>
      <trkpt lat="47.9456809" lon="-1.7519050">
        <ele>15.435</ele>
        <time>2018-08-29T11:07:03.061Z</time>
      </trkpt>
      <trkpt lat="47.9457757" lon="-1.7518600">
        <ele>15.949</ele>
        <time>2018-08-29T11:07:06.461Z</time>
      </trkpt>
      <trkpt lat="47.9458710" lon="-1.7518150">
        <ele>16.303</ele>
        <time>2018-08-29T11:07:09.701Z</time>
      </trkpt>
      <trkpt lat="47.9459770" lon="-1.7517629">
        <ele>16.461</ele>
        <time>2018-08-29T11:07:13.332Z</time>
      </trkpt>
      <trkpt lat="47.9460734" lon="-1.7517236">
        <ele>16.596</ele>
        <time>2018-08-29T11:07:16.841Z</time>
      </trkpt>
      <trkpt lat="47.9461620" lon="-1.7516620">
        <ele>16.969</ele>
        <time>2018-08-29T11:07:20.707Z</time>
      </trkpt>
      <trkpt lat="47.9462643" lon="-1.7515936">
        <ele>17.703</ele>
        <time>2018-08-29T11:07:25.680Z</time>
      </trkpt>
      <trkpt lat="47.9463650" lon="-1.7515381">
        <ele>18.518</ele>
        <time>2018-08-29T11:07:30.507Z</time>
      </trkpt>
      <trkpt lat="47.9464708" lon="-1.7514850">
        <ele>19.012</ele>
        <time>2018-08-29T11:07:35.011Z</time>
      </trkpt>
      <trkpt lat="47.9465791" lon="-1.7514389">
        <ele>19.079</ele>
        <time>2018-08-29T11:07:39.202Z</time>
      </trkpt>
      <trkpt lat="47.9466824" lon="-1.7513967">
        <ele>18.926</ele>
        <time>2018-08-29T11:07:43.087Z</time>
      </trkpt>
      <trkpt lat="47.9467810" lon="-1.7513605">
        <ele>18.766</ele>
        <time>2018-08-29T11:07:46.792Z</time>
      </trkpt>
      <trkpt lat="47.9468780" lon="-1.7513187">
        <ele>18.655</ele>
        <time>2018-08-29T11:07:50.575Z</time>
      </trkpt>
      <trkpt lat="47.9469829" lon="-1.7512793">
        <ele>18.586</ele>
        <time>2018-08-29T11:07:54.712Z</time>
      </trkpt>
      <trkpt lat="47.9470873" lon="-1.7512237">
        <ele>18.564</ele>
        <time>2018-08-29T11:07:58.907Z</time>
      </trkpt>
      <trkpt lat="47.9471937" lon="-1.7511878">
        <ele>18.565</ele>
        <time>2018-08-29T11:08:02.921Z</time>
      </trkpt>
      <trkpt lat="47.9473051" lon="-1.7511486">
        <ele>18.569</ele>
        <time>2018-08-29T11:08:07.026Z</time>
      </trkpt>
      <trkpt lat="47.9474198" lon="-1.7511107">
        <ele>18.577</ele>
        <time>2018-08-29T11:08:11.150Z</time>
      </trkpt>
      <trkpt lat="47.9475359" lon="-1.7510734">
        <ele>18.590</ele>
        <time>2018-08-29T11:08:15.219Z</time>
      </trkpt>
      <trkpt lat="47.9476276" lon="-1.7510337">
        <ele>18.564</ele>
        <time>2018-08-29T11:08:18.402Z</time>
      </trkpt>
      <trkpt lat="47.9477402" lon="-1.7509781">
        <ele>18.474</ele>
        <time>2018-08-29T11:08:22.274Z</time>
      </trkpt>
      <trkpt lat="47.9478254" lon="-1.7509324">
        <ele>18.376</ele>
        <time>2018-08-29T11:08:25.214Z</time>
      </trkpt>
      <trkpt lat="47.9479166" lon="-1.7508858">
        <ele>18.316</ele>
        <time>2018-08-29T11:08:28.333Z</time>
      </trkpt>
      <trkpt lat="47.9480102" lon="-1.7508538">
        <ele>18.203</ele>
        <time>2018-08-29T11:08:31.397Z</time>
      </trkpt>
      <trkpt lat="47.9481065" lon="-1.7508106">
        <ele>17.963</ele>
        <time>2018-08-29T11:08:34.537Z</time>
      </trkpt>
      <trkpt lat="47.9482095" lon="-1.7507600">
        <ele>17.679</ele>
        <time>2018-08-29T11:08:37.814Z</time>
      </trkpt>
      <trkpt lat="47.9482969" lon="-1.7507171">
        <ele>17.411</ele>
        <time>2018-08-29T11:08:40.527Z</time>
      </trkpt>
      <trkpt lat="47.9483838" lon="-1.7506680">
        <ele>17.144</ele>
        <time>2018-08-29T11:08:43.296Z</time>
      </trkpt>
      <trkpt lat="47.9484726" lon="-1.7506186">
        <ele>16.903</ele>
        <time>2018-08-29T11:08:46.173Z</time>
      </trkpt>
      <trkpt lat="47.9485680" lon="-1.7505676">
        <ele>16.720</ele>
        <time>2018-08-29T11:08:49.281Z</time>
      </trkpt>
      <trkpt lat="47.9486637" lon="-1.7505051">
        <ele>16.584</ele>
        <time>2018-08-29T11:08:52.462Z</time>
      </trkpt>
      <trkpt lat="47.9487552" lon="-1.7504382">
        <ele>16.481</ele>
        <time>2018-08-29T11:08:55.519Z</time>
      </trkpt>
      <trkpt lat="47.9488490" lon="-1.7503739">
        <ele>16.417</ele>
        <time>2018-08-29T11:08:58.584Z</time>
      </trkpt>
      <trkpt lat="47.9489492" lon="-1.7503226">
        <ele>16.285</ele>
        <time>2018-08-29T11:09:01.702Z</time>
      </trkpt>
      <trkpt lat="47.9490469" lon="-1.7502809">
        <ele>15.839</ele>
        <time>2018-08-29T11:09:04.693Z</time>
      </trkpt>
      <trkpt lat="47.9491417" lon="-1.7502457">
        <ele>15.123</ele>
        <time>2018-08-29T11:09:07.611Z</time>
      </trkpt>
      <trkpt lat="47.9492348" lon="-1.7502324">
        <ele>14.529</ele>
        <time>2018-08-29T11:09:10.474Z</time>
      </trkpt>
      <trkpt lat="47.9493522" lon="-1.7502122">
        <ele>14.338</ele>
        <time>2018-08-29T11:09:14.193Z</time>
      </trkpt>
      <trkpt lat="47.9494626" lon="-1.7501904">
        <ele>14.547</ele>
        <time>2018-08-29T11:09:17.804Z</time>
      </trkpt>
      <trkpt lat="47.9495783" lon="-1.7501866">
        <ele>15.006</ele>
        <time>2018-08-29T11:09:21.644Z</time>
      </trkpt>
      <trkpt lat="47.9496691" lon="-1.7501658">
        <ele>15.499</ele>
        <time>2018-08-29T11:09:24.718Z</time>
      </trkpt>
      <trkpt lat="47.9497765" lon="-1.7501429">
        <ele>15.845</ele>
        <time>2018-08-29T11:09:28.382Z</time>
      </trkpt>
      <trkpt lat="47.9498859" lon="-1.7501182">
        <ele>16.004</ele>
        <time>2018-08-29T11:09:32.200Z</time>
      </trkpt>
      <trkpt lat="47.9499761" lon="-1.7500971">
        <ele>16.060</ele>
        <time>2018-08-29T11:09:35.395Z</time>
      </trkpt>
      <trkpt lat="47.9500859" lon="-1.7500533">
        <ele>16.048</ele>
        <time>2018-08-29T11:09:39.370Z</time>
      </trkpt>
      <trkpt lat="47.9501761" lon="-1.7500188">
        <ele>15.956</ele>
        <time>2018-08-29T11:09:42.601Z</time>
      </trkpt>
      <trkpt lat="47.9502681" lon="-1.7499850">
        <ele>15.773</ele>
        <time>2018-08-29T11:09:45.813Z</time>
      </trkpt>
      <trkpt lat="47.9503622" lon="-1.7499530">
        <ele>15.523</ele>
        <time>2018-08-29T11:09:48.994Z</time>
      </trkpt>
      <trkpt lat="47.9504545" lon="-1.7499177">
        <ele>15.306</ele>
        <time>2018-08-29T11:09:52.069Z</time>
      </trkpt>
      <trkpt lat="47.9505485" lon="-1.7498898">
        <ele>15.194</ele>
        <time>2018-08-29T11:09:55.131Z</time>
      </trkpt>
      <trkpt lat="47.9506410" lon="-1.7498660">
        <ele>15.221</ele>
        <time>2018-08-29T11:09:58.125Z</time>
      </trkpt>
      <trkpt lat="47.9507399" lon="-1.7498383">
        <ele>15.435</ele>
        <time>2018-08-29T11:10:01.323Z</time>
      </trkpt>
      <trkpt lat="47.9508343" lon="-1.7498162">
        <ele>15.742</ele>
        <time>2018-08-29T11:10:04.342Z</time>
      </trkpt>
      <trkpt lat="47.9509255" lon="-1.7497914">
        <ele>15.897</ele>
        <time>2018-08-29T11:10:07.252Z</time>
      </trkpt>
      <trkpt lat="47.9510352" lon="-1.7497635">
        <ele>15.801</ele>
        <time>2018-08-29T11:10:10.797Z</time>
      </trkpt>
      <trkpt lat="47.9511272" lon="-1.7497380">
        <ele>15.581</ele>
        <time>2018-08-29T11:10:13.842Z</time>
      </trkpt>
      <trkpt lat="47.9512303" lon="-1.7497116">
        <ele>15.323</ele>
        <time>2018-08-29T11:10:17.238Z</time>
      </trkpt>
      <trkpt lat="47.9513288" lon="-1.7496869">
        <ele>14.982</ele>
        <time>2018-08-29T11:10:20.376Z</time>
      </trkpt>
      <trkpt lat="47.9514218" lon="-1.7496518">
        <ele>14.616</ele>
        <time>2018-08-29T11:10:23.326Z</time>
      </trkpt>
      <trkpt lat="47.9515147" lon="-1.7496243">
        <ele>14.367</ele>
        <time>2018-08-29T11:10:26.237Z</time>
      </trkpt>
      <trkpt lat="47.9516053" lon="-1.7495966">
        <ele>14.332</ele>
        <time>2018-08-29T11:10:29.105Z</time>
      </trkpt>
      <trkpt lat="47.9516957" lon="-1.7495665">
        <ele>14.483</ele>
        <time>2018-08-29T11:10:32.017Z</time>
      </trkpt>
      <trkpt lat="47.9517867" lon="-1.7495251">
        <ele>14.742</ele>
        <time>2018-08-29T11:10:35.050Z</time>
      </trkpt>
      <trkpt lat="47.9518735" lon="-1.7494782">
        <ele>15.025</ele>
        <time>2018-08-29T11:10:38.023Z</time>
      </trkpt>
      <trkpt lat="47.9519836" lon="-1.7494224">
        <ele>15.271</ele>
        <time>2018-08-29T11:10:41.812Z</time>
      </trkpt>
      <trkpt lat="47.9520701" lon="-1.7493635">
        <ele>15.444</ele>
        <time>2018-08-29T11:10:44.937Z</time>
      </trkpt>
      <trkpt lat="47.9521546" lon="-1.7492981">
        <ele>15.534</ele>
        <time>2018-08-29T11:10:48.043Z</time>
      </trkpt>
      <trkpt lat="47.9522396" lon="-1.7492156">
        <ele>15.544</ele>
        <time>2018-08-29T11:10:51.272Z</time>
      </trkpt>
      <trkpt lat="47.9523251" lon="-1.7491174">
        <ele>15.452</ele>
        <time>2018-08-29T11:10:54.593Z</time>
      </trkpt>
      <trkpt lat="47.9524098" lon="-1.7490315">
        <ele>15.241</ele>
        <time>2018-08-29T11:10:57.630Z</time>
      </trkpt>
      <trkpt lat="47.9525027" lon="-1.7489561">
        <ele>14.998</ele>
        <time>2018-08-29T11:11:00.716Z</time>
      </trkpt>
      <trkpt lat="47.9525872" lon="-1.7488943">
        <ele>14.844</ele>
        <time>2018-08-29T11:11:03.485Z</time>
      </trkpt>
      <trkpt lat="47.9527026" lon="-1.7488434">
        <ele>14.840</ele>
        <time>2018-08-29T11:11:07.154Z</time>
      </trkpt>
      <trkpt lat="47.9527950" lon="-1.7487813">
        <ele>14.965</ele>
        <time>2018-08-29T11:11:10.307Z</time>
      </trkpt>
      <trkpt lat="47.9528842" lon="-1.7487275">
        <ele>15.201</ele>
        <time>2018-08-29T11:11:13.288Z</time>
      </trkpt>
      <trkpt lat="47.9529685" lon="-1.7486300">
        <ele>15.539</ele>
        <time>2018-08-29T11:11:16.533Z</time>
      </trkpt>
      <trkpt lat="47.9530478" lon="-1.7485186">
        <ele>15.862</ele>
        <time>2018-08-29T11:11:19.760Z</time>
      </trkpt>
      <trkpt lat="47.9531203" lon="-1.7484157">
        <ele>16.015</ele>
        <time>2018-08-29T11:11:22.697Z</time>
      </trkpt>
      <trkpt lat="47.9532136" lon="-1.7483150">
        <ele>16.003</ele>
        <time>2018-08-29T11:11:26.212Z</time>
      </trkpt>
      <trkpt lat="47.9533100" lon="-1.7482160">
        <ele>15.934</ele>
        <time>2018-08-29T11:11:29.995Z</time>
      </trkpt>
      <trkpt lat="47.9533829" lon="-1.7481061">
        <ele>15.887</ele>
        <time>2018-08-29T11:11:33.424Z</time>
      </trkpt>
      <trkpt lat="47.9534518" lon="-1.7479903">
        <ele>15.857</ele>
        <time>2018-08-29T11:11:36.759Z</time>
      </trkpt>
      <trkpt lat="47.9535201" lon="-1.7478863">
        <ele>15.807</ele>
        <time>2018-08-29T11:11:39.797Z</time>
      </trkpt>
      <trkpt lat="47.9535958" lon="-1.7478058">
        <ele>15.738</ele>
        <time>2018-08-29T11:11:42.689Z</time>
      </trkpt>
      <trkpt lat="47.9536787" lon="-1.7477436">
        <ele>15.672</ele>
        <time>2018-08-29T11:11:45.629Z</time>
      </trkpt>
      <trkpt lat="47.9537654" lon="-1.7476358">
        <ele>15.606</ele>
        <time>2018-08-29T11:11:49.322Z</time>
      </trkpt>
      <trkpt lat="47.9538455" lon="-1.7475266">
        <ele>15.530</ele>
        <time>2018-08-29T11:11:53.036Z</time>
      </trkpt>
      <trkpt lat="47.9539334" lon="-1.7474381">
        <ele>15.434</ele>
        <time>2018-08-29T11:11:56.823Z</time>
      </trkpt>
      <trkpt lat="47.9540191" lon="-1.7473746">
        <ele>15.292</ele>
        <time>2018-08-29T11:12:00.283Z</time>
      </trkpt>
      <trkpt lat="47.9541093" lon="-1.7473154">
        <ele>15.075</ele>
        <time>2018-08-29T11:12:03.710Z</time>
      </trkpt>
      <trkpt lat="47.9541990" lon="-1.7472587">
        <ele>14.821</ele>
        <time>2018-08-29T11:12:06.917Z</time>
      </trkpt>
      <trkpt lat="47.9542819" lon="-1.7471911">
        <ele>14.607</ele>
        <time>2018-08-29T11:12:09.940Z</time>
      </trkpt>
      <trkpt lat="47.9543748" lon="-1.7471459">
        <ele>14.445</ele>
        <time>2018-08-29T11:12:13.013Z</time>
      </trkpt>
      <trkpt lat="47.9544748" lon="-1.7471055">
        <ele>14.236</ele>
        <time>2018-08-29T11:12:16.213Z</time>
      </trkpt>
      <trkpt lat="47.9545623" lon="-1.7470726">
        <ele>13.849</ele>
        <time>2018-08-29T11:12:19.015Z</time>
      </trkpt>
      <trkpt lat="47.9546606" lon="-1.7470548">
        <ele>13.289</ele>
        <time>2018-08-29T11:12:22.180Z</time>
      </trkpt>
      <trkpt lat="47.9547637" lon="-1.7470316">
        <ele>12.756</ele>
        <time>2018-08-29T11:12:25.486Z</time>
      </trkpt>
      <trkpt lat="47.9548548" lon="-1.7470261">
        <ele>12.450</ele>
        <time>2018-08-29T11:12:28.364Z</time>
      </trkpt>
      <trkpt lat="47.9549524" lon="-1.7470321">
        <ele>12.382</ele>
        <time>2018-08-29T11:12:31.487Z</time>
      </trkpt>
      <trkpt lat="47.9550643" lon="-1.7470282">
        <ele>12.371</ele>
        <time>2018-08-29T11:12:35.123Z</time>
      </trkpt>
      <trkpt lat="47.9551845" lon="-1.7470119">
        <ele>12.287</ele>
        <time>2018-08-29T11:12:39.136Z</time>
      </trkpt>
      <trkpt lat="47.9552829" lon="-1.7469890">
        <ele>12.178</ele>
        <time>2018-08-29T11:12:42.418Z</time>
      </trkpt>
      <trkpt lat="47.9553805" lon="-1.7469697">
        <ele>12.131</ele>
        <time>2018-08-29T11:12:45.566Z</time>
      </trkpt>
      <trkpt lat="47.9554780" lon="-1.7469579">
        <ele>12.132</ele>
        <time>2018-08-29T11:12:48.624Z</time>
      </trkpt>
      <trkpt lat="47.9555777" lon="-1.7469360">
        <ele>12.173</ele>
        <time>2018-08-29T11:12:51.730Z</time>
      </trkpt>
      <trkpt lat="47.9556798" lon="-1.7469237">
        <ele>12.271</ele>
        <time>2018-08-29T11:12:54.831Z</time>
      </trkpt>
      <trkpt lat="47.9557815" lon="-1.7469143">
        <ele>12.428</ele>
        <time>2018-08-29T11:12:57.871Z</time>
      </trkpt>
      <trkpt lat="47.9558771" lon="-1.7469076">
        <ele>12.597</ele>
        <time>2018-08-29T11:13:00.727Z</time>
      </trkpt>
      <trkpt lat="47.9559709" lon="-1.7469035">
        <ele>12.722</ele>
        <time>2018-08-29T11:13:03.574Z</time>
      </trkpt>
      <trkpt lat="47.9560650" lon="-1.7468984">
        <ele>12.785</ele>
        <time>2018-08-29T11:13:06.458Z</time>
      </trkpt>
      <trkpt lat="47.9561600" lon="-1.7469108">
        <ele>12.847</ele>
        <time>2018-08-29T11:13:09.397Z</time>
      </trkpt>
      <trkpt lat="47.9562627" lon="-1.7469294">
        <ele>12.962</ele>
        <time>2018-08-29T11:13:12.552Z</time>
      </trkpt>
      <trkpt lat="47.9563822" lon="-1.7469444">
        <ele>13.104</ele>
        <time>2018-08-29T11:13:16.227Z</time>
      </trkpt>
      <trkpt lat="47.9564762" lon="-1.7469650">
        <ele>13.325</ele>
        <time>2018-08-29T11:13:19.228Z</time>
      </trkpt>
      <trkpt lat="47.9565904" lon="-1.7469739">
        <ele>13.736</ele>
        <time>2018-08-29T11:13:22.973Z</time>
      </trkpt>
      <trkpt lat="47.9566904" lon="-1.7469885">
        <ele>14.239</ele>
        <time>2018-08-29T11:13:26.434Z</time>
      </trkpt>
      <trkpt lat="47.9568024" lon="-1.7469910">
        <ele>14.652</ele>
        <time>2018-08-29T11:13:30.355Z</time>
      </trkpt>
      <trkpt lat="47.9569233" lon="-1.7469842">
        <ele>14.921</ele>
        <time>2018-08-29T11:13:34.563Z</time>
      </trkpt>
      <trkpt lat="47.9570183" lon="-1.7469918">
        <ele>15.053</ele>
        <time>2018-08-29T11:13:37.811Z</time>
      </trkpt>
      <trkpt lat="47.9571201" lon="-1.7469940">
        <ele>15.082</ele>
        <time>2018-08-29T11:13:41.171Z</time>
      </trkpt>
      <trkpt lat="47.9572250" lon="-1.7469755">
        <ele>15.070</ele>
        <time>2018-08-29T11:13:44.529Z</time>
      </trkpt>
      <trkpt lat="47.9573147" lon="-1.7469850">
        <ele>15.076</ele>
        <time>2018-08-29T11:13:47.371Z</time>
      </trkpt>
      <trkpt lat="47.9573911" lon="-1.7470720">
        <ele>15.150</ele>
        <time>2018-08-29T11:13:50.510Z</time>
      </trkpt>
      <trkpt lat="47.9574817" lon="-1.7471593">
        <ele>15.293</ele>
        <time>2018-08-29T11:13:54.024Z</time>
      </trkpt>
      <trkpt lat="47.9575718" lon="-1.7472200">
        <ele>15.465</ele>
        <time>2018-08-29T11:13:57.120Z</time>
      </trkpt>
      <trkpt lat="47.9576858" lon="-1.7472309">
        <ele>15.613</ele>
        <time>2018-08-29T11:14:00.722Z</time>
      </trkpt>
      <trkpt lat="47.9577735" lon="-1.7472630">
        <ele>15.674</ele>
        <time>2018-08-29T11:14:03.771Z</time>
      </trkpt>
      <trkpt lat="47.9578653" lon="-1.7472881">
        <ele>15.605</ele>
        <time>2018-08-29T11:14:06.973Z</time>
      </trkpt>
      <trkpt lat="47.9579615" lon="-1.7472902">
        <ele>15.457</ele>
        <time>2018-08-29T11:14:10.207Z</time>
      </trkpt>
      <trkpt lat="47.9580620" lon="-1.7472538">
        <ele>15.333</ele>
        <time>2018-08-29T11:14:13.733Z</time>
      </trkpt>
      <trkpt lat="47.9581792" lon="-1.7472312">
        <ele>15.314</ele>
        <time>2018-08-29T11:14:17.944Z</time>
      </trkpt>
      <trkpt lat="47.9582752" lon="-1.7472298">
        <ele>15.439</ele>
        <time>2018-08-29T11:14:21.431Z</time>
      </trkpt>
      <trkpt lat="47.9583809" lon="-1.7472353">
        <ele>15.673</ele>
        <time>2018-08-29T11:14:25.513Z</time>
      </trkpt>
      <trkpt lat="47.9584732" lon="-1.7472191">
        <ele>15.964</ele>
        <time>2018-08-29T11:14:29.333Z</time>
      </trkpt>
      <trkpt lat="47.9585619" lon="-1.7471858">
        <ele>16.263</ele>
        <time>2018-08-29T11:14:33.307Z</time>
      </trkpt>
      <trkpt lat="47.9586707" lon="-1.7471967">
        <ele>16.439</ele>
        <time>2018-08-29T11:14:37.826Z</time>
      </trkpt>
      <trkpt lat="47.9587683" lon="-1.7472355">
        <ele>16.425</ele>
        <time>2018-08-29T11:14:41.575Z</time>
      </trkpt>
      <trkpt lat="47.9588703" lon="-1.7472292">
        <ele>16.325</ele>
        <time>2018-08-29T11:14:45.485Z</time>
      </trkpt>
      <trkpt lat="47.9589818" lon="-1.7471861">
        <ele>16.245</ele>
        <time>2018-08-29T11:14:49.997Z</time>
      </trkpt>
      <trkpt lat="47.9590836" lon="-1.7471836">
        <ele>16.206</ele>
        <time>2018-08-29T11:14:53.937Z</time>
      </trkpt>
      <trkpt lat="47.9591750" lon="-1.7471522">
        <ele>16.180</ele>
        <time>2018-08-29T11:14:57.731Z</time>
      </trkpt>
      <trkpt lat="47.9592838" lon="-1.7471647">
        <ele>16.128</ele>
        <time>2018-08-29T11:15:02.547Z</time>
      </trkpt>
      <trkpt lat="47.9593848" lon="-1.7471790">
        <ele>16.060</ele>
        <time>2018-08-29T11:15:07.035Z</time>
      </trkpt>
      <trkpt lat="47.9594872" lon="-1.7472129">
        <ele>16.013</ele>
        <time>2018-08-29T11:15:11.025Z</time>
      </trkpt>
      <trkpt lat="47.9595967" lon="-1.7472547">
        <ele>15.996</ele>
        <time>2018-08-29T11:15:15.085Z</time>
      </trkpt>
      <trkpt lat="47.9596912" lon="-1.7472858">
        <ele>15.979</ele>
        <time>2018-08-29T11:15:18.484Z</time>
      </trkpt>
      <trkpt lat="47.9598069" lon="-1.7473113">
        <ele>15.937</ele>
        <time>2018-08-29T11:15:22.569Z</time>
      </trkpt>
      <trkpt lat="47.9598959" lon="-1.7473466">
        <ele>16.001</ele>
        <time>2018-08-29T11:15:25.750Z</time>
      </trkpt>
      <trkpt lat="47.9599994" lon="-1.7473581">
        <ele>16.262</ele>
        <time>2018-08-29T11:15:29.301Z</time>
      </trkpt>
      <trkpt lat="47.9601104" lon="-1.7473669">
        <ele>16.528</ele>
        <time>2018-08-29T11:15:33.029Z</time>
      </trkpt>
      <trkpt lat="47.9601994" lon="-1.7474026">
        <ele>16.615</ele>
        <time>2018-08-29T11:15:35.884Z</time>
      </trkpt>
      <trkpt lat="47.9603017" lon="-1.7473951">
        <ele>16.590</ele>
        <time>2018-08-29T11:15:39.000Z</time>
      </trkpt>
      <trkpt lat="47.9603017" lon="-1.7473951">
        <ele>16.561</ele>
        <time>2018-08-29T11:15:40.000Z</time>
      </trkpt>
      <trkpt lat="47.9603017" lon="-1.7473951">
        <ele>16.556</ele>
        <time>2018-08-29T11:15:40.100Z</time>
      </trkpt>
      <trkpt lat="47.9605188" lon="-1.7474248">
        <ele>16.559</ele>
        <time>2018-08-29T11:15:45.824Z</time>
      </trkpt>
      <trkpt lat="47.9606788" lon="-1.7474542">
        <ele>16.476</ele>
        <time>2018-08-29T11:15:49.179Z</time>
      </trkpt>
      <trkpt lat="47.9607850" lon="-1.7474570">
        <ele>16.257</ele>
        <time>2018-08-29T11:15:51.733Z</time>
      </trkpt>
      <trkpt lat="47.9608964" lon="-1.7474230">
        <ele>16.031</ele>
        <time>2018-08-29T11:15:55.018Z</time>
      </trkpt>
      <trkpt lat="47.9609893" lon="-1.7473753">
        <ele>15.923</ele>
        <time>2018-08-29T11:15:58.016Z</time>
      </trkpt>
      <trkpt lat="47.9610831" lon="-1.7472645">
        <ele>15.875</ele>
        <time>2018-08-29T11:16:01.555Z</time>
      </trkpt>
      <trkpt lat="47.9611587" lon="-1.7471328">
        <ele>15.798</ele>
        <time>2018-08-29T11:16:04.857Z</time>
      </trkpt>
      <trkpt lat="47.9612344" lon="-1.7470110">
        <ele>15.672</ele>
        <time>2018-08-29T11:16:08.018Z</time>
      </trkpt>
      <trkpt lat="47.9613111" lon="-1.7468993">
        <ele>15.548</ele>
        <time>2018-08-29T11:16:11.157Z</time>
      </trkpt>
      <trkpt lat="47.9613880" lon="-1.7468079">
        <ele>15.473</ele>
        <time>2018-08-29T11:16:14.127Z</time>
      </trkpt>
      <trkpt lat="47.9614628" lon="-1.7467069">
        <ele>15.493</ele>
        <time>2018-08-29T11:16:17.198Z</time>
      </trkpt>
      <trkpt lat="47.9615339" lon="-1.7465980">
        <ele>15.607</ele>
        <time>2018-08-29T11:16:20.253Z</time>
      </trkpt>
      <trkpt lat="47.9616167" lon="-1.7465010">
        <ele>15.666</ele>
        <time>2018-08-29T11:16:23.388Z</time>
      </trkpt>
      <trkpt lat="47.9616904" lon="-1.7463855">
        <ele>15.507</ele>
        <time>2018-08-29T11:16:26.646Z</time>
      </trkpt>
      <trkpt lat="47.9617672" lon="-1.7462937">
        <ele>15.198</ele>
        <time>2018-08-29T11:16:29.716Z</time>
      </trkpt>
      <trkpt lat="47.9618426" lon="-1.7462138">
        <ele>14.947</ele>
        <time>2018-08-29T11:16:32.587Z</time>
      </trkpt>
      <trkpt lat="47.9619225" lon="-1.7461322">
        <ele>14.835</ele>
        <time>2018-08-29T11:16:35.577Z</time>
      </trkpt>
      <trkpt lat="47.9620016" lon="-1.7460498">
        <ele>14.761</ele>
        <time>2018-08-29T11:16:38.596Z</time>
      </trkpt>
      <trkpt lat="47.9620781" lon="-1.7459727">
        <ele>14.601</ele>
        <time>2018-08-29T11:16:41.563Z</time>
      </trkpt>
      <trkpt lat="47.9621514" lon="-1.7458951">
        <ele>14.376</ele>
        <time>2018-08-29T11:16:44.519Z</time>
      </trkpt>
      <trkpt lat="47.9622391" lon="-1.7457949">
        <ele>14.210</ele>
        <time>2018-08-29T11:16:48.221Z</time>
      </trkpt>
      <trkpt lat="47.9623153" lon="-1.7457211">
        <ele>14.130</ele>
        <time>2018-08-29T11:16:51.263Z</time>
      </trkpt>
      <trkpt lat="47.9624163" lon="-1.7456342">
        <ele>14.030</ele>
        <time>2018-08-29T11:16:55.164Z</time>
      </trkpt>
      <trkpt lat="47.9624989" lon="-1.7455730">
        <ele>13.850</ele>
        <time>2018-08-29T11:16:58.240Z</time>
      </trkpt>
      <trkpt lat="47.9626044" lon="-1.7455033">
        <ele>13.641</ele>
        <time>2018-08-29T11:17:02.087Z</time>
      </trkpt>
      <trkpt lat="47.9627107" lon="-1.7454359">
        <ele>13.474</ele>
        <time>2018-08-29T11:17:05.951Z</time>
      </trkpt>
      <trkpt lat="47.9628169" lon="-1.7453684">
        <ele>13.397</ele>
        <time>2018-08-29T11:17:09.830Z</time>
      </trkpt>
      <trkpt lat="47.9629302" lon="-1.7453132">
        <ele>13.418</ele>
        <time>2018-08-29T11:17:13.848Z</time>
      </trkpt>
      <trkpt lat="47.9630380" lon="-1.7452484">
        <ele>13.423</ele>
        <time>2018-08-29T11:17:17.814Z</time>
      </trkpt>
      <trkpt lat="47.9631469" lon="-1.7451935">
        <ele>13.265</ele>
        <time>2018-08-29T11:17:21.763Z</time>
      </trkpt>
      <trkpt lat="47.9632593" lon="-1.7451505">
        <ele>12.968</ele>
        <time>2018-08-29T11:17:25.741Z</time>
      </trkpt>
      <trkpt lat="47.9633718" lon="-1.7451180">
        <ele>12.789</ele>
        <time>2018-08-29T11:17:29.671Z</time>
      </trkpt>
      <trkpt lat="47.9634870" lon="-1.7450968">
        <ele>12.897</ele>
        <time>2018-08-29T11:17:33.615Z</time>
      </trkpt>
      <trkpt lat="47.9636056" lon="-1.7450743">
        <ele>13.171</ele>
        <time>2018-08-29T11:17:37.547Z</time>
      </trkpt>
      <trkpt lat="47.9636965" lon="-1.7450506">
        <ele>13.431</ele>
        <time>2018-08-29T11:17:40.505Z</time>
      </trkpt>
      <trkpt lat="47.9637859" lon="-1.7450112">
        <ele>13.660</ele>
        <time>2018-08-29T11:17:43.451Z</time>
      </trkpt>
      <trkpt lat="47.9638731" lon="-1.7449583">
        <ele>13.881</ele>
        <time>2018-08-29T11:17:46.386Z</time>
      </trkpt>
      <trkpt lat="47.9639601" lon="-1.7449022">
        <ele>14.022</ele>
        <time>2018-08-29T11:17:49.263Z</time>
      </trkpt>
      <trkpt lat="47.9640549" lon="-1.7448354">
        <ele>14.040</ele>
        <time>2018-08-29T11:17:52.329Z</time>
      </trkpt>
      <trkpt lat="47.9641525" lon="-1.7447749">
        <ele>13.997</ele>
        <time>2018-08-29T11:17:55.414Z</time>
      </trkpt>
      <trkpt lat="47.9642454" lon="-1.7447431">
        <ele>13.974</ele>
        <time>2018-08-29T11:17:58.270Z</time>
      </trkpt>
      <trkpt lat="47.9643337" lon="-1.7447092">
        <ele>14.006</ele>
        <time>2018-08-29T11:18:01.066Z</time>
      </trkpt>
      <trkpt lat="47.9644319" lon="-1.7447131">
        <ele>14.080</ele>
        <time>2018-08-29T11:18:04.145Z</time>
      </trkpt>
      <trkpt lat="47.9645508" lon="-1.7447155">
        <ele>14.168</ele>
        <time>2018-08-29T11:18:07.925Z</time>
      </trkpt>
      <trkpt lat="47.9646702" lon="-1.7447119">
        <ele>14.293</ele>
        <time>2018-08-29T11:18:11.783Z</time>
      </trkpt>
      <trkpt lat="47.9647858" lon="-1.7447278">
        <ele>14.466</ele>
        <time>2018-08-29T11:18:15.603Z</time>
      </trkpt>
      <trkpt lat="47.9648790" lon="-1.7447517">
        <ele>14.608</ele>
        <time>2018-08-29T11:18:18.733Z</time>
      </trkpt>
      <trkpt lat="47.9649943" lon="-1.7447714">
        <ele>14.659</ele>
        <time>2018-08-29T11:18:22.550Z</time>
      </trkpt>
      <trkpt lat="47.9650871" lon="-1.7447983">
        <ele>14.639</ele>
        <time>2018-08-29T11:18:25.635Z</time>
      </trkpt>
      <trkpt lat="47.9651760" lon="-1.7448308">
        <ele>14.545</ele>
        <time>2018-08-29T11:18:28.603Z</time>
      </trkpt>
      <trkpt lat="47.9652666" lon="-1.7448650">
        <ele>14.368</ele>
        <time>2018-08-29T11:18:31.614Z</time>
      </trkpt>
      <trkpt lat="47.9653761" lon="-1.7449152">
        <ele>14.185</ele>
        <time>2018-08-29T11:18:35.330Z</time>
      </trkpt>
      <trkpt lat="47.9654635" lon="-1.7449580">
        <ele>14.084</ele>
        <time>2018-08-29T11:18:38.366Z</time>
      </trkpt>
      <trkpt lat="47.9655445" lon="-1.7450174">
        <ele>14.062</ele>
        <time>2018-08-29T11:18:41.386Z</time>
      </trkpt>
      <trkpt lat="47.9656444" lon="-1.7451127">
        <ele>14.087</ele>
        <time>2018-08-29T11:18:45.372Z</time>
      </trkpt>
      <trkpt lat="47.9657215" lon="-1.7451886">
        <ele>14.155</ele>
        <time>2018-08-29T11:18:48.515Z</time>
      </trkpt>
      <trkpt lat="47.9658197" lon="-1.7452601">
        <ele>14.292</ele>
        <time>2018-08-29T11:18:52.243Z</time>
      </trkpt>
      <trkpt lat="47.9658974" lon="-1.7453497">
        <ele>14.502</ele>
        <time>2018-08-29T11:18:55.505Z</time>
      </trkpt>
      <trkpt lat="47.9659776" lon="-1.7454485">
        <ele>14.713</ele>
        <time>2018-08-29T11:18:58.834Z</time>
      </trkpt>
      <trkpt lat="47.9660576" lon="-1.7455365">
        <ele>14.857</ele>
        <time>2018-08-29T11:19:01.906Z</time>
      </trkpt>
      <trkpt lat="47.9661404" lon="-1.7456276">
        <ele>14.928</ele>
        <time>2018-08-29T11:19:04.989Z</time>
      </trkpt>
      <trkpt lat="47.9662243" lon="-1.7457108">
        <ele>14.944</ele>
        <time>2018-08-29T11:19:07.980Z</time>
      </trkpt>
      <trkpt lat="47.9662996" lon="-1.7457902">
        <ele>14.916</ele>
        <time>2018-08-29T11:19:10.766Z</time>
      </trkpt>
      <trkpt lat="47.9663701" lon="-1.7458792">
        <ele>14.763</ele>
        <time>2018-08-29T11:19:13.646Z</time>
      </trkpt>
      <trkpt lat="47.9664535" lon="-1.7460012">
        <ele>14.459</ele>
        <time>2018-08-29T11:19:17.402Z</time>
      </trkpt>
      <trkpt lat="47.9665186" lon="-1.7460971">
        <ele>14.191</ele>
        <time>2018-08-29T11:19:20.427Z</time>
      </trkpt>
      <trkpt lat="47.9665896" lon="-1.7461905">
        <ele>14.104</ele>
        <time>2018-08-29T11:19:23.589Z</time>
      </trkpt>
      <trkpt lat="47.9666743" lon="-1.7463158">
        <ele>14.134</ele>
        <time>2018-08-29T11:19:27.606Z</time>
      </trkpt>
      <trkpt lat="47.9667652" lon="-1.7464218">
        <ele>14.196</ele>
        <time>2018-08-29T11:19:31.480Z</time>
      </trkpt>
      <trkpt lat="47.9668636" lon="-1.7465210">
        <ele>14.250</ele>
        <time>2018-08-29T11:19:35.423Z</time>
      </trkpt>
      <trkpt lat="47.9669441" lon="-1.7465901">
        <ele>14.279</ele>
        <time>2018-08-29T11:19:38.462Z</time>
      </trkpt>
      <trkpt lat="47.9670233" lon="-1.7466603">
        <ele>14.289</ele>
        <time>2018-08-29T11:19:41.457Z</time>
      </trkpt>
      <trkpt lat="47.9671004" lon="-1.7467328">
        <ele>14.324</ele>
        <time>2018-08-29T11:19:44.409Z</time>
      </trkpt>
      <trkpt lat="47.9671773" lon="-1.7468060">
        <ele>14.408</ele>
        <time>2018-08-29T11:19:47.358Z</time>
      </trkpt>
      <trkpt lat="47.9672756" lon="-1.7469028">
        <ele>14.485</ele>
        <time>2018-08-29T11:19:51.209Z</time>
      </trkpt>
      <trkpt lat="47.9673699" lon="-1.7469940">
        <ele>14.501</ele>
        <time>2018-08-29T11:19:54.964Z</time>
      </trkpt>
      <trkpt lat="47.9674686" lon="-1.7470871">
        <ele>14.482</ele>
        <time>2018-08-29T11:19:58.928Z</time>
      </trkpt>
      <trkpt lat="47.9675707" lon="-1.7471701">
        <ele>14.487</ele>
        <time>2018-08-29T11:20:02.878Z</time>
      </trkpt>
      <trkpt lat="47.9676498" lon="-1.7472373">
        <ele>14.540</ele>
        <time>2018-08-29T11:20:05.947Z</time>
      </trkpt>
      <trkpt lat="47.9677489" lon="-1.7473278">
        <ele>14.604</ele>
        <time>2018-08-29T11:20:09.857Z</time>
      </trkpt>
      <trkpt lat="47.9678502" lon="-1.7474107">
        <ele>14.664</ele>
        <time>2018-08-29T11:20:13.775Z</time>
      </trkpt>
      <trkpt lat="47.9679384" lon="-1.7474805">
        <ele>14.752</ele>
        <time>2018-08-29T11:20:17.225Z</time>
      </trkpt>
      <trkpt lat="47.9680404" lon="-1.7475639">
        <ele>14.883</ele>
        <time>2018-08-29T11:20:21.288Z</time>
      </trkpt>
      <trkpt lat="47.9681216" lon="-1.7476292">
        <ele>15.024</ele>
        <time>2018-08-29T11:20:24.471Z</time>
      </trkpt>
      <trkpt lat="47.9682249" lon="-1.7477095">
        <ele>15.114</ele>
        <time>2018-08-29T11:20:28.442Z</time>
      </trkpt>
      <trkpt lat="47.9683037" lon="-1.7477748">
        <ele>15.131</ele>
        <time>2018-08-29T11:20:31.482Z</time>
      </trkpt>
      <trkpt lat="47.9684052" lon="-1.7478464">
        <ele>15.113</ele>
        <time>2018-08-29T11:20:35.248Z</time>
      </trkpt>
      <trkpt lat="47.9684870" lon="-1.7479099">
        <ele>15.094</ele>
        <time>2018-08-29T11:20:38.289Z</time>
      </trkpt>
      <trkpt lat="47.9685751" lon="-1.7479760">
        <ele>15.067</ele>
        <time>2018-08-29T11:20:41.448Z</time>
      </trkpt>
      <trkpt lat="47.9686594" lon="-1.7480379">
        <ele>15.028</ele>
        <time>2018-08-29T11:20:44.414Z</time>
      </trkpt>
      <trkpt lat="47.9687436" lon="-1.7480990">
        <ele>15.004</ele>
        <time>2018-08-29T11:20:47.368Z</time>
      </trkpt>
      <trkpt lat="47.9688293" lon="-1.7481493">
        <ele>15.018</ele>
        <time>2018-08-29T11:20:50.313Z</time>
      </trkpt>
      <trkpt lat="47.9689306" lon="-1.7482254">
        <ele>15.077</ele>
        <time>2018-08-29T11:20:54.006Z</time>
      </trkpt>
      <trkpt lat="47.9690419" lon="-1.7482862">
        <ele>15.191</ele>
        <time>2018-08-29T11:20:57.913Z</time>
      </trkpt>
      <trkpt lat="47.9691327" lon="-1.7483189">
        <ele>15.361</ele>
        <time>2018-08-29T11:21:00.948Z</time>
      </trkpt>
      <trkpt lat="47.9692213" lon="-1.7483624">
        <ele>15.548</ele>
        <time>2018-08-29T11:21:03.956Z</time>
      </trkpt>
      <trkpt lat="47.9693064" lon="-1.7484115">
        <ele>15.585</ele>
        <time>2018-08-29T11:21:06.922Z</time>
      </trkpt>
      <trkpt lat="47.9694179" lon="-1.7484698">
        <ele>15.353</ele>
        <time>2018-08-29T11:21:10.820Z</time>
      </trkpt>
      <trkpt lat="47.9695202" lon="-1.7485124">
        <ele>15.013</ele>
        <time>2018-08-29T11:21:14.392Z</time>
      </trkpt>
      <trkpt lat="47.9696230" lon="-1.7485404">
        <ele>14.781</ele>
        <time>2018-08-29T11:21:18.063Z</time>
      </trkpt>
      <trkpt lat="47.9697185" lon="-1.7485660">
        <ele>14.683</ele>
        <time>2018-08-29T11:21:21.668Z</time>
      </trkpt>
      <trkpt lat="47.9698088" lon="-1.7485957">
        <ele>14.664</ele>
        <time>2018-08-29T11:21:25.089Z</time>
      </trkpt>
      <trkpt lat="47.9699195" lon="-1.7486169">
        <ele>14.679</ele>
        <time>2018-08-29T11:21:29.045Z</time>
      </trkpt>
      <trkpt lat="47.9700381" lon="-1.7486281">
        <ele>14.759</ele>
        <time>2018-08-29T11:21:33.145Z</time>
      </trkpt>
      <trkpt lat="47.9701521" lon="-1.7486358">
        <ele>14.935</ele>
        <time>2018-08-29T11:21:37.056Z</time>
      </trkpt>
      <trkpt lat="47.9702457" lon="-1.7486429">
        <ele>15.181</ele>
        <time>2018-08-29T11:21:40.345Z</time>
      </trkpt>
      <trkpt lat="47.9703610" lon="-1.7486551">
        <ele>15.438</ele>
        <time>2018-08-29T11:21:44.691Z</time>
      </trkpt>
      <trkpt lat="47.9704733" lon="-1.7486687">
        <ele>15.581</ele>
        <time>2018-08-29T11:21:49.111Z</time>
      </trkpt>
      <trkpt lat="47.9705665" lon="-1.7486674">
        <ele>15.495</ele>
        <time>2018-08-29T11:21:52.666Z</time>
      </trkpt>
      <trkpt lat="47.9706851" lon="-1.7486791">
        <ele>15.266</ele>
        <time>2018-08-29T11:21:56.904Z</time>
      </trkpt>
      <trkpt lat="47.9707864" lon="-1.7486944">
        <ele>15.091</ele>
        <time>2018-08-29T11:22:00.324Z</time>
      </trkpt>
      <trkpt lat="47.9708894" lon="-1.7487180">
        <ele>15.104</ele>
        <time>2018-08-29T11:22:03.607Z</time>
      </trkpt>
      <trkpt lat="47.9709919" lon="-1.7487542">
        <ele>15.357</ele>
        <time>2018-08-29T11:22:06.761Z</time>
      </trkpt>
      <trkpt lat="47.9710968" lon="-1.7487864">
        <ele>15.750</ele>
        <time>2018-08-29T11:22:09.857Z</time>
      </trkpt>
      <trkpt lat="47.9712031" lon="-1.7488123">
        <ele>16.048</ele>
        <time>2018-08-29T11:22:12.916Z</time>
      </trkpt>
      <trkpt lat="47.9713078" lon="-1.7488340">
        <ele>16.098</ele>
        <time>2018-08-29T11:22:15.932Z</time>
      </trkpt>
      <trkpt lat="47.9714234" lon="-1.7488501">
        <ele>15.884</ele>
        <time>2018-08-29T11:22:19.327Z</time>
      </trkpt>
      <trkpt lat="47.9715148" lon="-1.7488639">
        <ele>15.511</ele>
        <time>2018-08-29T11:22:22.134Z</time>
      </trkpt>
      <trkpt lat="47.9716230" lon="-1.7489103">
        <ele>15.144</ele>
        <time>2018-08-29T11:22:25.731Z</time>
      </trkpt>
      <trkpt lat="47.9717445" lon="-1.7489358">
        <ele>14.819</ele>
        <time>2018-08-29T11:22:29.765Z</time>
      </trkpt>
      <trkpt lat="47.9718443" lon="-1.7489454">
        <ele>14.523</ele>
        <time>2018-08-29T11:22:33.000Z</time>
      </trkpt>
      <trkpt lat="47.9718443" lon="-1.7489454">
        <ele>14.328</ele>
        <time>2018-08-29T11:22:33.000Z</time>
      </trkpt>
      <trkpt lat="47.9718443" lon="-1.7489454">
        <ele>14.272</ele>
        <time>2018-08-29T11:22:33.043Z</time>
      </trkpt>
      <trkpt lat="47.9720013" lon="-1.7489602">
        <ele>14.285</ele>
        <time>2018-08-29T11:22:41.857Z</time>
      </trkpt>
      <trkpt lat="47.9720978" lon="-1.7489771">
        <ele>14.290</ele>
        <time>2018-08-29T11:22:45.336Z</time>
      </trkpt>
      <trkpt lat="47.9721890" lon="-1.7490038">
        <ele>14.264</ele>
        <time>2018-08-29T11:22:48.561Z</time>
      </trkpt>
      <trkpt lat="47.9723012" lon="-1.7490459">
        <ele>14.251</ele>
        <time>2018-08-29T11:22:52.518Z</time>
      </trkpt>
      <trkpt lat="47.9723964" lon="-1.7490663">
        <ele>14.290</ele>
        <time>2018-08-29T11:22:55.764Z</time>
      </trkpt>
      <trkpt lat="47.9724868" lon="-1.7490931">
        <ele>14.317</ele>
        <time>2018-08-29T11:22:58.854Z</time>
      </trkpt>
      <trkpt lat="47.9726028" lon="-1.7491223">
        <ele>14.238</ele>
        <time>2018-08-29T11:23:02.841Z</time>
      </trkpt>
      <trkpt lat="47.9727011" lon="-1.7491587">
        <ele>14.051</ele>
        <time>2018-08-29T11:23:06.399Z</time>
      </trkpt>
      <trkpt lat="47.9728049" lon="-1.7492107">
        <ele>13.838</ele>
        <time>2018-08-29T11:23:10.333Z</time>
      </trkpt>
      <trkpt lat="47.9728914" lon="-1.7492586">
        <ele>13.691</ele>
        <time>2018-08-29T11:23:13.563Z</time>
      </trkpt>
      <trkpt lat="47.9729792" lon="-1.7493150">
        <ele>13.656</ele>
        <time>2018-08-29T11:23:16.765Z</time>
      </trkpt>
      <trkpt lat="47.9730616" lon="-1.7493695">
        <ele>13.786</ele>
        <time>2018-08-29T11:23:19.726Z</time>
      </trkpt>
      <trkpt lat="47.9731711" lon="-1.7494419">
        <ele>14.056</ele>
        <time>2018-08-29T11:23:23.610Z</time>
      </trkpt>
      <trkpt lat="47.9732644" lon="-1.7494982">
        <ele>14.311</ele>
        <time>2018-08-29T11:23:26.776Z</time>
      </trkpt>
      <trkpt lat="47.9733520" lon="-1.7495613">
        <ele>14.476</ele>
        <time>2018-08-29T11:23:29.727Z</time>
      </trkpt>
      <trkpt lat="47.9734513" lon="-1.7496284">
        <ele>14.588</ele>
        <time>2018-08-29T11:23:32.910Z</time>
      </trkpt>
      <trkpt lat="47.9735472" lon="-1.7496962">
        <ele>14.562</ele>
        <time>2018-08-29T11:23:35.961Z</time>
      </trkpt>
      <trkpt lat="47.9736348" lon="-1.7497751">
        <ele>14.343</ele>
        <time>2018-08-29T11:23:38.942Z</time>
      </trkpt>
      <trkpt lat="47.9737168" lon="-1.7498530">
        <ele>14.142</ele>
        <time>2018-08-29T11:23:41.829Z</time>
      </trkpt>
      <trkpt lat="47.9737979" lon="-1.7499321">
        <ele>14.154</ele>
        <time>2018-08-29T11:23:44.729Z</time>
      </trkpt>
      <trkpt lat="47.9738876" lon="-1.7500030">
        <ele>14.291</ele>
        <time>2018-08-29T11:23:47.748Z</time>
      </trkpt>
      <trkpt lat="47.9739737" lon="-1.7500834">
        <ele>14.368</ele>
        <time>2018-08-29T11:23:50.741Z</time>
      </trkpt>
      <trkpt lat="47.9740645" lon="-1.7501545">
        <ele>14.294</ele>
        <time>2018-08-29T11:23:53.762Z</time>
      </trkpt>
      <trkpt lat="47.9741514" lon="-1.7502141">
        <ele>14.132</ele>
        <time>2018-08-29T11:23:56.679Z</time>
      </trkpt>
      <trkpt lat="47.9742543" lon="-1.7502794">
        <ele>14.023</ele>
        <time>2018-08-29T11:24:00.218Z</time>
      </trkpt>
      <trkpt lat="47.9743406" lon="-1.7503199">
        <ele>14.075</ele>
        <time>2018-08-29T11:24:03.234Z</time>
      </trkpt>
      <trkpt lat="47.9744472" lon="-1.7503638">
        <ele>14.268</ele>
        <time>2018-08-29T11:24:07.028Z</time>
      </trkpt>
      <trkpt lat="47.9745591" lon="-1.7503921">
        <ele>14.462</ele>
        <time>2018-08-29T11:24:11.015Z</time>
      </trkpt>
      <trkpt lat="47.9746709" lon="-1.7503976">
        <ele>14.548</ele>
        <time>2018-08-29T11:24:15.005Z</time>
      </trkpt>
      <trkpt lat="47.9747789" lon="-1.7503420">
        <ele>14.506</ele>
        <time>2018-08-29T11:24:19.088Z</time>
      </trkpt>
      <trkpt lat="47.9748684" lon="-1.7502867">
        <ele>14.294</ele>
        <time>2018-08-29T11:24:22.374Z</time>
      </trkpt>
      <trkpt lat="47.9749579" lon="-1.7502398">
        <ele>13.941</ele>
        <time>2018-08-29T11:24:25.472Z</time>
      </trkpt>
      <trkpt lat="47.9750683" lon="-1.7501890">
        <ele>13.621</ele>
        <time>2018-08-29T11:24:29.308Z</time>
      </trkpt>
      <trkpt lat="47.9751694" lon="-1.7501902">
        <ele>13.465</ele>
        <time>2018-08-29T11:24:32.780Z</time>
      </trkpt>
      <trkpt lat="47.9752659" lon="-1.7501906">
        <ele>13.405</ele>
        <time>2018-08-29T11:24:36.060Z</time>
      </trkpt>
      <trkpt lat="47.9753724" lon="-1.7501755">
        <ele>13.342</ele>
        <time>2018-08-29T11:24:39.426Z</time>
      </trkpt>
      <trkpt lat="47.9754851" lon="-1.7501623">
        <ele>13.291</ele>
        <time>2018-08-29T11:24:42.762Z</time>
      </trkpt>
      <trkpt lat="47.9755908" lon="-1.7501879">
        <ele>13.314</ele>
        <time>2018-08-29T11:24:45.848Z</time>
      </trkpt>
      <trkpt lat="47.9756890" lon="-1.7502313">
        <ele>13.395</ele>
        <time>2018-08-29T11:24:48.784Z</time>
      </trkpt>
      <trkpt lat="47.9757903" lon="-1.7502818">
        <ele>13.468</ele>
        <time>2018-08-29T11:24:51.842Z</time>
      </trkpt>
      <trkpt lat="47.9758848" lon="-1.7503394">
        <ele>13.497</ele>
        <time>2018-08-29T11:24:54.775Z</time>
      </trkpt>
      <trkpt lat="47.9759717" lon="-1.7504094">
        <ele>13.409</ele>
        <time>2018-08-29T11:24:57.688Z</time>
      </trkpt>
      <trkpt lat="47.9760544" lon="-1.7504652">
        <ele>13.129</ele>
        <time>2018-08-29T11:25:00.468Z</time>
      </trkpt>
      <trkpt lat="47.9761388" lon="-1.7505255">
        <ele>12.776</ele>
        <time>2018-08-29T11:25:03.412Z</time>
      </trkpt>
      <trkpt lat="47.9762152" lon="-1.7505969">
        <ele>12.600</ele>
        <time>2018-08-29T11:25:06.297Z</time>
      </trkpt>
      <trkpt lat="47.9762954" lon="-1.7506648">
        <ele>12.715</ele>
        <time>2018-08-29T11:25:09.295Z</time>
      </trkpt>
      <trkpt lat="47.9763976" lon="-1.7507469">
        <ele>12.998</ele>
        <time>2018-08-29T11:25:13.137Z</time>
      </trkpt>
      <trkpt lat="47.9764990" lon="-1.7508300">
        <ele>13.249</ele>
        <time>2018-08-29T11:25:17.074Z</time>
      </trkpt>
      <trkpt lat="47.9765882" lon="-1.7509315">
        <ele>13.375</ele>
        <time>2018-08-29T11:25:20.986Z</time>
      </trkpt>
      <trkpt lat="47.9766731" lon="-1.7510341">
        <ele>13.403</ele>
        <time>2018-08-29T11:25:24.825Z</time>
      </trkpt>
      <trkpt lat="47.9767635" lon="-1.7511524">
        <ele>13.396</ele>
        <time>2018-08-29T11:25:28.978Z</time>
      </trkpt>
      <trkpt lat="47.9768337" lon="-1.7512415">
        <ele>13.399</ele>
        <time>2018-08-29T11:25:32.054Z</time>
      </trkpt>
      <trkpt lat="47.9769099" lon="-1.7513284">
        <ele>13.423</ele>
        <time>2018-08-29T11:25:35.197Z</time>
      </trkpt>
      <trkpt lat="47.9769817" lon="-1.7514094">
        <ele>13.420</ele>
        <time>2018-08-29T11:25:38.128Z</time>
      </trkpt>
      <trkpt lat="47.9770547" lon="-1.7514934">
        <ele>13.346</ele>
        <time>2018-08-29T11:25:41.111Z</time>
      </trkpt>
      <trkpt lat="47.9771311" lon="-1.7515753">
        <ele>13.177</ele>
        <time>2018-08-29T11:25:44.123Z</time>
      </trkpt>
      <trkpt lat="47.9772083" lon="-1.7516603">
        <ele>12.911</ele>
        <time>2018-08-29T11:25:47.157Z</time>
      </trkpt>
      <trkpt lat="47.9772842" lon="-1.7517511">
        <ele>12.608</ele>
        <time>2018-08-29T11:25:50.208Z</time>
      </trkpt>
      <trkpt lat="47.9773623" lon="-1.7518419">
        <ele>12.303</ele>
        <time>2018-08-29T11:25:53.305Z</time>
      </trkpt>
      <trkpt lat="47.9774367" lon="-1.7519195">
        <ele>11.987</ele>
        <time>2018-08-29T11:25:56.215Z</time>
      </trkpt>
      <trkpt lat="47.9775209" lon="-1.7520357">
        <ele>11.712</ele>
        <time>2018-08-29T11:26:00.009Z</time>
      </trkpt>
      <trkpt lat="47.9776064" lon="-1.7521457">
        <ele>11.505</ele>
        <time>2018-08-29T11:26:03.856Z</time>
      </trkpt>
      <trkpt lat="47.9776815" lon="-1.7522280">
        <ele>11.341</ele>
        <time>2018-08-29T11:26:07.015Z</time>
      </trkpt>
      <trkpt lat="47.9777817" lon="-1.7523166">
        <ele>11.250</ele>
        <time>2018-08-29T11:26:10.919Z</time>
      </trkpt>
      <trkpt lat="47.9778846" lon="-1.7523959">
        <ele>11.265</ele>
        <time>2018-08-29T11:26:14.787Z</time>
      </trkpt>
      <trkpt lat="47.9779605" lon="-1.7524724">
        <ele>11.365</ele>
        <time>2018-08-29T11:26:17.801Z</time>
      </trkpt>
      <trkpt lat="47.9780547" lon="-1.7525339">
        <ele>11.490</ele>
        <time>2018-08-29T11:26:21.073Z</time>
      </trkpt>
      <trkpt lat="47.9781428" lon="-1.7525974">
        <ele>11.538</ele>
        <time>2018-08-29T11:26:24.143Z</time>
      </trkpt>
      <trkpt lat="47.9782420" lon="-1.7526995">
        <ele>11.437</ele>
        <time>2018-08-29T11:26:27.938Z</time>
      </trkpt>
      <trkpt lat="47.9783212" lon="-1.7527797">
        <ele>11.188</ele>
        <time>2018-08-29T11:26:30.981Z</time>
      </trkpt>
      <trkpt lat="47.9784256" lon="-1.7528640">
        <ele>10.881</ele>
        <time>2018-08-29T11:26:34.793Z</time>
      </trkpt>
      <trkpt lat="47.9785067" lon="-1.7529235">
        <ele>10.633</ele>
        <time>2018-08-29T11:26:37.746Z</time>
      </trkpt>
      <trkpt lat="47.9786128" lon="-1.7529924">
        <ele>10.492</ele>
        <time>2018-08-29T11:26:41.581Z</time>
      </trkpt>
      <trkpt lat="47.9786987" lon="-1.7530399">
        <ele>10.465</ele>
        <time>2018-08-29T11:26:44.626Z</time>
      </trkpt>
      <trkpt lat="47.9787861" lon="-1.7530856">
        <ele>10.546</ele>
        <time>2018-08-29T11:26:47.682Z</time>
      </trkpt>
      <trkpt lat="47.9788737" lon="-1.7531176">
        <ele>10.618</ele>
        <time>2018-08-29T11:26:50.651Z</time>
      </trkpt>
      <trkpt lat="47.9789816" lon="-1.7531631">
        <ele>10.569</ele>
        <time>2018-08-29T11:26:54.361Z</time>
      </trkpt>
      <trkpt lat="47.9790735" lon="-1.7531996">
        <ele>10.424</ele>
        <time>2018-08-29T11:26:57.474Z</time>
      </trkpt>
      <trkpt lat="47.9791647" lon="-1.7532426">
        <ele>10.292</ele>
        <time>2018-08-29T11:27:00.539Z</time>
      </trkpt>
      <trkpt lat="47.9792588" lon="-1.7532891">
        <ele>10.243</ele>
        <time>2018-08-29T11:27:03.667Z</time>
      </trkpt>
      <trkpt lat="47.9793504" lon="-1.7533470">
        <ele>10.254</ele>
        <time>2018-08-29T11:27:06.785Z</time>
      </trkpt>
      <trkpt lat="47.9794373" lon="-1.7533989">
        <ele>10.176</ele>
        <time>2018-08-29T11:27:09.755Z</time>
      </trkpt>
      <trkpt lat="47.9795400" lon="-1.7534736">
        <ele>9.925</ele>
        <time>2018-08-29T11:27:13.490Z</time>
      </trkpt>
      <trkpt lat="47.9796333" lon="-1.7535459">
        <ele>9.665</ele>
        <time>2018-08-29T11:27:17.060Z</time>
      </trkpt>
      <trkpt lat="47.9797417" lon="-1.7536158">
        <ele>9.600</ele>
        <time>2018-08-29T11:27:21.167Z</time>
      </trkpt>
      <trkpt lat="47.9798410" lon="-1.7536874">
        <ele>9.773</ele>
        <time>2018-08-29T11:27:25.064Z</time>
      </trkpt>
      <trkpt lat="47.9799402" lon="-1.7537622">
        <ele>10.116</ele>
        <time>2018-08-29T11:27:29.073Z</time>
      </trkpt>
      <trkpt lat="47.9800382" lon="-1.7538412">
        <ele>10.468</ele>
        <time>2018-08-29T11:27:33.082Z</time>
      </trkpt>
      <trkpt lat="47.9801484" lon="-1.7538980">
        <ele>10.690</ele>
        <time>2018-08-29T11:27:37.195Z</time>
      </trkpt>
      <trkpt lat="47.9802368" lon="-1.7539522">
        <ele>10.733</ele>
        <time>2018-08-29T11:27:40.601Z</time>
      </trkpt>
      <trkpt lat="47.9803364" lon="-1.7540444">
        <ele>10.639</ele>
        <time>2018-08-29T11:27:44.941Z</time>
      </trkpt>
      <trkpt lat="47.9804304" lon="-1.7541264">
        <ele>10.421</ele>
        <time>2018-08-29T11:27:49.010Z</time>
      </trkpt>
      <trkpt lat="47.9805044" lon="-1.7542043">
        <ele>10.104</ele>
        <time>2018-08-29T11:27:52.439Z</time>
      </trkpt>
      <trkpt lat="47.9805984" lon="-1.7542732">
        <ele>9.861</ele>
        <time>2018-08-29T11:27:56.516Z</time>
      </trkpt>
      <trkpt lat="47.9806863" lon="-1.7543524">
        <ele>9.910</ele>
        <time>2018-08-29T11:28:00.548Z</time>
      </trkpt>
      <trkpt lat="47.9807812" lon="-1.7544295">
        <ele>10.275</ele>
        <time>2018-08-29T11:28:04.738Z</time>
      </trkpt>
      <trkpt lat="47.9808661" lon="-1.7544996">
        <ele>10.751</ele>
        <time>2018-08-29T11:28:08.478Z</time>
      </trkpt>
      <trkpt lat="47.9809626" lon="-1.7545726">
        <ele>11.040</ele>
        <time>2018-08-29T11:28:12.663Z</time>
      </trkpt>
      <trkpt lat="47.9810576" lon="-1.7546371">
        <ele>11.008</ele>
        <time>2018-08-29T11:28:16.660Z</time>
      </trkpt>
      <trkpt lat="47.9811550" lon="-1.7546845">
        <ele>10.774</ele>
        <time>2018-08-29T11:28:20.595Z</time>
      </trkpt>
      <trkpt lat="47.9812521" lon="-1.7547549">
        <ele>10.573</ele>
        <time>2018-08-29T11:28:24.867Z</time>
      </trkpt>
      <trkpt lat="47.9813411" lon="-1.7548194">
        <ele>10.514</ele>
        <time>2018-08-29T11:28:28.968Z</time>
      </trkpt>
      <trkpt lat="47.9814352" lon="-1.7548762">
        <ele>10.543</ele>
        <time>2018-08-29T11:28:33.196Z</time>
      </trkpt>
      <trkpt lat="47.9815229" lon="-1.7549338">
        <ele>10.764</ele>
        <time>2018-08-29T11:28:37.096Z</time>
      </trkpt>
      <trkpt lat="47.9816077" lon="-1.7549960">
        <ele>11.392</ele>
        <time>2018-08-29T11:28:40.931Z</time>
      </trkpt>
      <trkpt lat="47.9816943" lon="-1.7550576">
        <ele>12.224</ele>
        <time>2018-08-29T11:28:44.849Z</time>
      </trkpt>
      <trkpt lat="47.9817832" lon="-1.7551130">
        <ele>12.498</ele>
        <time>2018-08-29T11:28:48.764Z</time>
      </trkpt>
      <trkpt lat="47.9818792" lon="-1.7551826">
        <ele>11.729</ele>
        <time>2018-08-29T11:28:53.000Z</time>
      </trkpt>
      <trkpt lat="47.9818792" lon="-1.7551826">
        <ele>10.444</ele>
        <time>2018-08-29T11:28:55.000Z</time>
      </trkpt>
      <trkpt lat="47.9818792" lon="-1.7551826">
        <ele>9.663</ele>
        <time>2018-08-29T11:28:55.100Z</time>
      </trkpt>
      <trkpt lat="47.9820657" lon="-1.7553268">
        <ele>9.707</ele>
        <time>2018-08-29T11:29:05.740Z</time>
      </trkpt>
      <trkpt lat="47.9821588" lon="-1.7554004">
        <ele>10.038</ele>
        <time>2018-08-29T11:29:09.493Z</time>
      </trkpt>
      <trkpt lat="47.9822550" lon="-1.7554776">
        <ele>10.149</ele>
        <time>2018-08-29T11:29:13.255Z</time>
      </trkpt>
      <trkpt lat="47.9823386" lon="-1.7555364">
        <ele>10.108</ele>
        <time>2018-08-29T11:29:16.351Z</time>
      </trkpt>
      <trkpt lat="47.9824240" lon="-1.7555936">
        <ele>10.115</ele>
        <time>2018-08-29T11:29:19.466Z</time>
      </trkpt>
      <trkpt lat="47.9825248" lon="-1.7556794">
        <ele>10.171</ele>
        <time>2018-08-29T11:29:23.339Z</time>
      </trkpt>
      <trkpt lat="47.9826282" lon="-1.7557561">
        <ele>10.267</ele>
        <time>2018-08-29T11:29:27.287Z</time>
      </trkpt>
      <trkpt lat="47.9827249" lon="-1.7558277">
        <ele>10.433</ele>
        <time>2018-08-29T11:29:31.107Z</time>
      </trkpt>
      <trkpt lat="47.9828244" lon="-1.7558925">
        <ele>10.593</ele>
        <time>2018-08-29T11:29:35.061Z</time>
      </trkpt>
      <trkpt lat="47.9829158" lon="-1.7559539">
        <ele>10.667</ele>
        <time>2018-08-29T11:29:38.792Z</time>
      </trkpt>
      <trkpt lat="47.9830082" lon="-1.7560288">
        <ele>10.669</ele>
        <time>2018-08-29T11:29:42.694Z</time>
      </trkpt>
      <trkpt lat="47.9831038" lon="-1.7561005">
        <ele>10.638</ele>
        <time>2018-08-29T11:29:46.567Z</time>
      </trkpt>
      <trkpt lat="47.9832042" lon="-1.7561736">
        <ele>10.613</ele>
        <time>2018-08-29T11:29:50.526Z</time>
      </trkpt>
      <trkpt lat="47.9833063" lon="-1.7562435">
        <ele>10.608</ele>
        <time>2018-08-29T11:29:54.464Z</time>
      </trkpt>
      <trkpt lat="47.9834091" lon="-1.7563103">
        <ele>10.641</ele>
        <time>2018-08-29T11:29:58.365Z</time>
      </trkpt>
      <trkpt lat="47.9835122" lon="-1.7563788">
        <ele>10.874</ele>
        <time>2018-08-29T11:30:02.365Z</time>
      </trkpt>
      <trkpt lat="47.9836021" lon="-1.7564244">
        <ele>11.349</ele>
        <time>2018-08-29T11:30:05.800Z</time>
      </trkpt>
      <trkpt lat="47.9836976" lon="-1.7564876">
        <ele>11.880</ele>
        <time>2018-08-29T11:30:09.528Z</time>
      </trkpt>
      <trkpt lat="47.9837759" lon="-1.7565550">
        <ele>12.328</ele>
        <time>2018-08-29T11:30:12.766Z</time>
      </trkpt>
      <trkpt lat="47.9838775" lon="-1.7566226">
        <ele>12.649</ele>
        <time>2018-08-29T11:30:16.852Z</time>
      </trkpt>
      <trkpt lat="47.9839671" lon="-1.7566955">
        <ele>12.819</ele>
        <time>2018-08-29T11:30:20.698Z</time>
      </trkpt>
      <trkpt lat="47.9840655" lon="-1.7567738">
        <ele>12.905</ele>
        <time>2018-08-29T11:30:24.887Z</time>
      </trkpt>
      <trkpt lat="47.9841593" lon="-1.7568503">
        <ele>12.865</ele>
        <time>2018-08-29T11:30:29.000Z</time>
      </trkpt>
      <trkpt lat="47.9842366" lon="-1.7569380">
        <ele>12.662</ele>
        <time>2018-08-29T11:30:33.026Z</time>
      </trkpt>
      <trkpt lat="47.9843184" lon="-1.7570067">
        <ele>12.446</ele>
        <time>2018-08-29T11:30:36.958Z</time>
      </trkpt>
      <trkpt lat="47.9843956" lon="-1.7570775">
        <ele>12.353</ele>
        <time>2018-08-29T11:30:40.397Z</time>
      </trkpt>
      <trkpt lat="47.9844733" lon="-1.7571506">
        <ele>12.352</ele>
        <time>2018-08-29T11:30:43.774Z</time>
      </trkpt>
      <trkpt lat="47.9845573" lon="-1.7572223">
        <ele>12.484</ele>
        <time>2018-08-29T11:30:47.386Z</time>
      </trkpt>
      <trkpt lat="47.9846295" lon="-1.7573030">
        <ele>12.781</ele>
        <time>2018-08-29T11:30:50.919Z</time>
      </trkpt>
      <trkpt lat="47.9847155" lon="-1.7573857">
        <ele>12.956</ele>
        <time>2018-08-29T11:30:55.040Z</time>
      </trkpt>
      <trkpt lat="47.9848064" lon="-1.7574730">
        <ele>12.752</ele>
        <time>2018-08-29T11:30:59.435Z</time>
      </trkpt>
      <trkpt lat="47.9848927" lon="-1.7575371">
        <ele>12.348</ele>
        <time>2018-08-29T11:31:03.406Z</time>
      </trkpt>
      <trkpt lat="47.9849752" lon="-1.7576072">
        <ele>11.950</ele>
        <time>2018-08-29T11:31:07.274Z</time>
      </trkpt>
      <trkpt lat="47.9850525" lon="-1.7576821">
        <ele>11.594</ele>
        <time>2018-08-29T11:31:10.992Z</time>
      </trkpt>
      <trkpt lat="47.9851288" lon="-1.7577589">
        <ele>11.358</ele>
        <time>2018-08-29T11:31:14.738Z</time>
      </trkpt>
      <trkpt lat="47.9852099" lon="-1.7578397">
        <ele>11.284</ele>
        <time>2018-08-29T11:31:18.993Z</time>
      </trkpt>
      <trkpt lat="47.9852913" lon="-1.7579163">
        <ele>11.301</ele>
        <time>2018-08-29T11:31:23.511Z</time>
      </trkpt>
      <trkpt lat="47.9853827" lon="-1.7579827">
        <ele>11.396</ele>
        <time>2018-08-29T11:31:28.715Z</time>
      </trkpt>
      <trkpt lat="47.9854794" lon="-1.7580248">
        <ele>11.610</ele>
        <time>2018-08-29T11:31:33.446Z</time>
      </trkpt>
      <trkpt lat="47.9855938" lon="-1.7580691">
        <ele>11.872</ele>
        <time>2018-08-29T11:31:38.252Z</time>
      </trkpt>
      <trkpt lat="47.9856922" lon="-1.7581097">
        <ele>12.046</ele>
        <time>2018-08-29T11:31:41.889Z</time>
      </trkpt>
      <trkpt lat="47.9857848" lon="-1.7581522">
        <ele>12.116</ele>
        <time>2018-08-29T11:31:45.000Z</time>
      </trkpt>
      <trkpt lat="47.9857848" lon="-1.7581522">
        <ele>12.143</ele>
        <time>2018-08-29T11:31:46.000Z</time>
      </trkpt>
      <trkpt lat="47.9857848" lon="-1.7581522">
        <ele>12.153</ele>
        <time>2018-08-29T11:31:46.100Z</time>
      </trkpt>
      <trkpt lat="47.9859466" lon="-1.7582242">
        <ele>12.143</ele>
        <time>2018-08-29T11:31:52.975Z</time>
      </trkpt>
      <trkpt lat="47.9860328" lon="-1.7582656">
        <ele>12.077</ele>
        <time>2018-08-29T11:31:55.753Z</time>
      </trkpt>
      <trkpt lat="47.9861390" lon="-1.7583085">
        <ele>11.945</ele>
        <time>2018-08-29T11:31:59.237Z</time>
      </trkpt>
      <trkpt lat="47.9862355" lon="-1.7583431">
        <ele>11.863</ele>
        <time>2018-08-29T11:32:02.475Z</time>
      </trkpt>
      <trkpt lat="47.9863403" lon="-1.7583795">
        <ele>11.962</ele>
        <time>2018-08-29T11:32:06.079Z</time>
      </trkpt>
      <trkpt lat="47.9864458" lon="-1.7584187">
        <ele>12.182</ele>
        <time>2018-08-29T11:32:09.792Z</time>
      </trkpt>
      <trkpt lat="47.9865485" lon="-1.7584598">
        <ele>12.371</ele>
        <time>2018-08-29T11:32:13.487Z</time>
      </trkpt>
      <trkpt lat="47.9866575" lon="-1.7584877">
        <ele>12.479</ele>
        <time>2018-08-29T11:32:17.317Z</time>
      </trkpt>
      <trkpt lat="47.9867719" lon="-1.7585077">
        <ele>12.567</ele>
        <time>2018-08-29T11:32:21.191Z</time>
      </trkpt>
      <trkpt lat="47.9868824" lon="-1.7585196">
        <ele>12.668</ele>
        <time>2018-08-29T11:32:24.859Z</time>
      </trkpt>
      <trkpt lat="47.9869919" lon="-1.7585364">
        <ele>12.802</ele>
        <time>2018-08-29T11:32:28.524Z</time>
      </trkpt>
      <trkpt lat="47.9870945" lon="-1.7585535">
        <ele>12.973</ele>
        <time>2018-08-29T11:32:32.011Z</time>
      </trkpt>
      <trkpt lat="47.9871914" lon="-1.7585681">
        <ele>13.196</ele>
        <time>2018-08-29T11:32:35.382Z</time>
      </trkpt>
      <trkpt lat="47.9872896" lon="-1.7585820">
        <ele>13.475</ele>
        <time>2018-08-29T11:32:38.879Z</time>
      </trkpt>
      <trkpt lat="47.9874004" lon="-1.7586001">
        <ele>13.771</ele>
        <time>2018-08-29T11:32:42.979Z</time>
      </trkpt>
      <trkpt lat="47.9874972" lon="-1.7586092">
        <ele>14.122</ele>
        <time>2018-08-29T11:32:46.673Z</time>
      </trkpt>
      <trkpt lat="47.9875884" lon="-1.7586277">
        <ele>14.558</ele>
        <time>2018-08-29T11:32:50.298Z</time>
      </trkpt>
      <trkpt lat="47.9876921" lon="-1.7586322">
        <ele>14.986</ele>
        <time>2018-08-29T11:32:54.375Z</time>
      </trkpt>
      <trkpt lat="47.9878205" lon="-1.7586162">
        <ele>15.323</ele>
        <time>2018-08-29T11:32:58.668Z</time>
      </trkpt>
      <trkpt lat="47.9879176" lon="-1.7585688">
        <ele>15.447</ele>
        <time>2018-08-29T11:33:01.456Z</time>
      </trkpt>
      <trkpt lat="47.9880166" lon="-1.7584939">
        <ele>15.295</ele>
        <time>2018-08-29T11:33:04.000Z</time>
      </trkpt>
      <trkpt lat="47.9880166" lon="-1.7584939">
        <ele>15.061</ele>
        <time>2018-08-29T11:33:05.000Z</time>
      </trkpt>
      <trkpt lat="47.9880166" lon="-1.7584939">
        <ele>14.947</ele>
        <time>2018-08-29T11:33:05.100Z</time>
      </trkpt>
      <trkpt lat="47.9882422" lon="-1.7582102">
        <ele>14.956</ele>
        <time>2018-08-29T11:33:14.520Z</time>
      </trkpt>
      <trkpt lat="47.9883274" lon="-1.7581090">
        <ele>14.943</ele>
        <time>2018-08-29T11:33:17.734Z</time>
      </trkpt>
      <trkpt lat="47.9884000" lon="-1.7580271">
        <ele>14.744</ele>
        <time>2018-08-29T11:33:20.671Z</time>
      </trkpt>
      <trkpt lat="47.9884717" lon="-1.7579433">
        <ele>14.348</ele>
        <time>2018-08-29T11:33:23.711Z</time>
      </trkpt>
      <trkpt lat="47.9885655" lon="-1.7578505">
        <ele>13.901</ele>
        <time>2018-08-29T11:33:27.533Z</time>
      </trkpt>
      <trkpt lat="47.9886509" lon="-1.7577488">
        <ele>13.572</ele>
        <time>2018-08-29T11:33:31.218Z</time>
      </trkpt>
      <trkpt lat="47.9887476" lon="-1.7576587">
        <ele>13.428</ele>
        <time>2018-08-29T11:33:35.081Z</time>
      </trkpt>
      <trkpt lat="47.9888496" lon="-1.7575890">
        <ele>13.417</ele>
        <time>2018-08-29T11:33:38.920Z</time>
      </trkpt>
      <trkpt lat="47.9889526" lon="-1.7575225">
        <ele>13.395</ele>
        <time>2018-08-29T11:33:42.789Z</time>
      </trkpt>
      <trkpt lat="47.9890500" lon="-1.7574474">
        <ele>13.221</ele>
        <time>2018-08-29T11:33:46.503Z</time>
      </trkpt>
      <trkpt lat="47.9891503" lon="-1.7573735">
        <ele>12.942</ele>
        <time>2018-08-29T11:33:50.233Z</time>
      </trkpt>
      <trkpt lat="47.9892486" lon="-1.7573080">
        <ele>12.745</ele>
        <time>2018-08-29T11:33:53.829Z</time>
      </trkpt>
      <trkpt lat="47.9893336" lon="-1.7572565">
        <ele>12.739</ele>
        <time>2018-08-29T11:33:56.896Z</time>
      </trkpt>
      <trkpt lat="47.9894162" lon="-1.7572030">
        <ele>12.867</ele>
        <time>2018-08-29T11:33:59.888Z</time>
      </trkpt>
      <trkpt lat="47.9895262" lon="-1.7571314">
        <ele>12.996</ele>
        <time>2018-08-29T11:34:03.800Z</time>
      </trkpt>
      <trkpt lat="47.9896169" lon="-1.7570786">
        <ele>13.068</ele>
        <time>2018-08-29T11:34:06.898Z</time>
      </trkpt>
      <trkpt lat="47.9897211" lon="-1.7570157">
        <ele>13.123</ele>
        <time>2018-08-29T11:34:10.528Z</time>
      </trkpt>
      <trkpt lat="47.9898237" lon="-1.7569580">
        <ele>13.200</ele>
        <time>2018-08-29T11:34:14.176Z</time>
      </trkpt>
      <trkpt lat="47.9899274" lon="-1.7569132">
        <ele>13.315</ele>
        <time>2018-08-29T11:34:17.859Z</time>
      </trkpt>
      <trkpt lat="47.9900320" lon="-1.7568486">
        <ele>13.457</ele>
        <time>2018-08-29T11:34:21.753Z</time>
      </trkpt>
      <trkpt lat="47.9901440" lon="-1.7568243">
        <ele>13.616</ele>
        <time>2018-08-29T11:34:25.629Z</time>
      </trkpt>
      <trkpt lat="47.9902573" lon="-1.7567902">
        <ele>13.789</ele>
        <time>2018-08-29T11:34:29.543Z</time>
      </trkpt>
      <trkpt lat="47.9903465" lon="-1.7567720">
        <ele>13.960</ele>
        <time>2018-08-29T11:34:32.531Z</time>
      </trkpt>
      <trkpt lat="47.9904396" lon="-1.7567606">
        <ele>14.147</ele>
        <time>2018-08-29T11:34:35.586Z</time>
      </trkpt>
      <trkpt lat="47.9905479" lon="-1.7567399">
        <ele>14.388</ele>
        <time>2018-08-29T11:34:39.187Z</time>
      </trkpt>
      <trkpt lat="47.9906416" lon="-1.7567017">
        <ele>14.674</ele>
        <time>2018-08-29T11:34:42.513Z</time>
      </trkpt>
      <trkpt lat="47.9907446" lon="-1.7567267">
        <ele>14.949</ele>
        <time>2018-08-29T11:34:46.301Z</time>
      </trkpt>
      <trkpt lat="47.9908410" lon="-1.7567345">
        <ele>15.061</ele>
        <time>2018-08-29T11:34:49.961Z</time>
      </trkpt>
      <trkpt lat="47.9909492" lon="-1.7566833">
        <ele>14.889</ele>
        <time>2018-08-29T11:34:54.468Z</time>
      </trkpt>
      <trkpt lat="47.9910396" lon="-1.7566239">
        <ele>14.530</ele>
        <time>2018-08-29T11:34:58.483Z</time>
      </trkpt>
      <trkpt lat="47.9911332" lon="-1.7565258">
        <ele>14.147</ele>
        <time>2018-08-29T11:35:02.957Z</time>
      </trkpt>
      <trkpt lat="47.9912223" lon="-1.7564245">
        <ele>13.833</ele>
        <time>2018-08-29T11:35:07.060Z</time>
      </trkpt>
      <trkpt lat="47.9913033" lon="-1.7563120">
        <ele>13.631</ele>
        <time>2018-08-29T11:35:10.963Z</time>
      </trkpt>
      <trkpt lat="47.9913786" lon="-1.7562351">
        <ele>13.547</ele>
        <time>2018-08-29T11:35:14.115Z</time>
      </trkpt>
      <trkpt lat="47.9914762" lon="-1.7561492">
        <ele>13.526</ele>
        <time>2018-08-29T11:35:18.000Z</time>
      </trkpt>
      <trkpt lat="47.9914762" lon="-1.7561492">
        <ele>13.508</ele>
        <time>2018-08-29T11:35:18.000Z</time>
      </trkpt>
      <trkpt lat="47.9914762" lon="-1.7561492">
        <ele>13.487</ele>
        <time>2018-08-29T11:35:18.644Z</time>
      </trkpt>
      <trkpt lat="47.9915823" lon="-1.7561031">
        <ele>13.481</ele>
        <time>2018-08-29T11:35:24.759Z</time>
      </trkpt>
      <trkpt lat="47.9916759" lon="-1.7560748">
        <ele>13.426</ele>
        <time>2018-08-29T11:35:28.275Z</time>
      </trkpt>
      <trkpt lat="47.9917595" lon="-1.7560178">
        <ele>13.262</ele>
        <time>2018-08-29T11:35:31.777Z</time>
      </trkpt>
      <trkpt lat="47.9918444" lon="-1.7559733">
        <ele>12.990</ele>
        <time>2018-08-29T11:35:35.266Z</time>
      </trkpt>
      <trkpt lat="47.9919393" lon="-1.7559422">
        <ele>12.605</ele>
        <time>2018-08-29T11:35:39.000Z</time>
      </trkpt>
      <trkpt lat="47.9919393" lon="-1.7559422">
        <ele>12.184</ele>
        <time>2018-08-29T11:35:44.000Z</time>
      </trkpt>
      <trkpt lat="47.9919393" lon="-1.7559422">
        <ele>11.944</ele>
        <time>2018-08-29T11:36:07.000Z</time>
      </trkpt>
      <trkpt lat="47.9919393" lon="-1.7559422">
        <ele>11.957</ele>
        <time>2018-08-29T11:36:56.000Z</time>
      </trkpt>
      <trkpt lat="47.9942816" lon="-1.7530689">
        <ele>2.361</ele>
        <time>2018-08-29T11:36:59.217Z</time>
      </trkpt>
      <trkpt lat="47.9942832" lon="-1.7530593">
        <ele>4.016</ele>
        <time>2018-08-29T11:37:02.434Z</time>
      </trkpt>
      <trkpt lat="47.9943581" lon="-1.7529621">
        <ele>8.326</ele>
        <time>2018-08-29T11:37:50.390Z</time>
      </trkpt>
      <trkpt lat="47.9944194" lon="-1.7528256">
        <ele>12.419</ele>
        <time>2018-08-29T11:38:43.606Z</time>
      </trkpt>
      <trkpt lat="47.9944818" lon="-1.7526961">
        <ele>13.654</ele>
        <time>2018-08-29T11:39:35.301Z</time>
      </trkpt>
      <trkpt lat="47.9945378" lon="-1.7525587">
        <ele>13.099</ele>
        <time>2018-08-29T11:40:27.343Z</time>
      </trkpt>
      <trkpt lat="47.9945877" lon="-1.7524203">
        <ele>12.502</ele>
        <time>2018-08-29T11:41:18.255Z</time>
      </trkpt>
      <trkpt lat="47.9946385" lon="-1.7522894">
        <ele>12.493</ele>
        <time>2018-08-29T11:42:07.254Z</time>
      </trkpt>
      <trkpt lat="47.9947088" lon="-1.7521891">
        <ele>12.745</ele>
        <time>2018-08-29T11:42:54.297Z</time>
      </trkpt>
      <trkpt lat="47.9947803" lon="-1.7520973">
        <ele>12.722</ele>
        <time>2018-08-29T11:43:39.905Z</time>
      </trkpt>
      <trkpt lat="47.9948548" lon="-1.7519912">
        <ele>12.348</ele>
        <time>2018-08-29T11:44:29.686Z</time>
      </trkpt>
      <trkpt lat="47.9949430" lon="-1.7519018">
        <ele>11.882</ele>
        <time>2018-08-29T11:45:21.250Z</time>
      </trkpt>
      <trkpt lat="47.9950413" lon="-1.7518291">
        <ele>11.543</ele>
        <time>2018-08-29T11:46:14.293Z</time>
      </trkpt>
      <trkpt lat="47.9951417" lon="-1.7517716">
        <ele>11.385</ele>
        <time>2018-08-29T11:47:06.335Z</time>
      </trkpt>
      <trkpt lat="47.9952507" lon="-1.7517344">
        <ele>11.406</ele>
        <time>2018-08-29T11:48:00.421Z</time>
      </trkpt>
      <trkpt lat="47.9953534" lon="-1.7517068">
        <ele>11.575</ele>
        <time>2018-08-29T11:48:50.898Z</time>
      </trkpt>
      <trkpt lat="47.9954669" lon="-1.7516953">
        <ele>11.889</ele>
        <time>2018-08-29T11:49:45.941Z</time>
      </trkpt>
      <trkpt lat="47.9955571" lon="-1.7516988">
        <ele>12.350</ele>
        <time>2018-08-29T11:50:29.592Z</time>
      </trkpt>
      <trkpt lat="47.9956715" lon="-1.7517191">
        <ele>12.914</ele>
        <time>2018-08-29T11:51:25.330Z</time>
      </trkpt>
      <trkpt lat="47.9957823" lon="-1.7517712">
        <ele>13.483</ele>
        <time>2018-08-29T11:52:21.503Z</time>
      </trkpt>
      <trkpt lat="47.9958733" lon="-1.7518172">
        <ele>13.924</ele>
        <time>2018-08-29T11:53:07.980Z</time>
      </trkpt>
      <trkpt lat="47.9959576" lon="-1.7518840">
        <ele>14.151</ele>
        <time>2018-08-29T11:53:54.153Z</time>
      </trkpt>
      <trkpt lat="47.9960337" lon="-1.7519732">
        <ele>14.179</ele>
        <time>2018-08-29T11:54:40.935Z</time>
      </trkpt>
      <trkpt lat="47.9961097" lon="-1.7520596">
        <ele>13.986</ele>
        <time>2018-08-29T11:55:27.151Z</time>
      </trkpt>
      <trkpt lat="47.9961804" lon="-1.7521435">
        <ele>13.603</ele>
        <time>2018-08-29T11:56:10.802Z</time>
      </trkpt>
      <trkpt lat="47.9962665" lon="-1.7522566">
        <ele>13.185</ele>
        <time>2018-08-29T11:57:06.279Z</time>
      </trkpt>
      <trkpt lat="47.9963423" lon="-1.7523686">
        <ele>12.752</ele>
        <time>2018-08-29T11:57:57.844Z</time>
      </trkpt>
      <trkpt lat="47.9964158" lon="-1.7524768">
        <ele>12.270</ele>
        <time>2018-08-29T11:58:47.756Z</time>
      </trkpt>
      <trkpt lat="47.9964552" lon="-1.7526125">
        <ele>11.891</ele>
        <time>2018-08-29T11:59:35.624Z</time>
      </trkpt>
      <trkpt lat="47.9964780" lon="-1.7527821">
        <ele>11.807</ele>
        <time>2018-08-29T12:00:31.667Z</time>
      </trkpt>
      <trkpt lat="47.9965205" lon="-1.7529424">
        <ele>12.053</ele>
        <time>2018-08-29T12:01:27.492Z</time>
      </trkpt>
      <trkpt lat="47.9965580" lon="-1.7530843">
        <ele>12.466</ele>
        <time>2018-08-29T12:02:16.882Z</time>
      </trkpt>
      <trkpt lat="47.9966217" lon="-1.7532248">
        <ele>12.867</ele>
        <time>2018-08-29T12:03:11.881Z</time>
      </trkpt>
      <trkpt lat="47.9966792" lon="-1.7533455">
        <ele>13.204</ele>
        <time>2018-08-29T12:03:59.836Z</time>
      </trkpt>
      <trkpt lat="47.9967330" lon="-1.7534909">
        <ele>13.524</ele>
        <time>2018-08-29T12:04:53.618Z</time>
      </trkpt>
      <trkpt lat="47.9967777" lon="-1.7536516">
        <ele>13.851</ele>
        <time>2018-08-29T12:05:49.921Z</time>
      </trkpt>
      <trkpt lat="47.9968157" lon="-1.7538105">
        <ele>14.099</ele>
        <time>2018-08-29T12:06:44.572Z</time>
      </trkpt>
      <trkpt lat="47.9968533" lon="-1.7539644">
        <ele>14.176</ele>
        <time>2018-08-29T12:07:37.614Z</time>
      </trkpt>
      <trkpt lat="47.9968814" lon="-1.7541105">
        <ele>14.125</ele>
        <time>2018-08-29T12:08:26.831Z</time>
      </trkpt>
      <trkpt lat="47.9969039" lon="-1.7542618">
        <ele>14.032</ele>
        <time>2018-08-29T12:09:17.047Z</time>
      </trkpt>
      <trkpt lat="47.9969289" lon="-1.7544076">
        <ele>13.923</ele>
        <time>2018-08-29T12:10:05.742Z</time>
      </trkpt>
      <trkpt lat="47.9969520" lon="-1.7545594">
        <ele>13.803</ele>
        <time>2018-08-29T12:10:56.132Z</time>
      </trkpt>
      <trkpt lat="47.9969721" lon="-1.7547280">
        <ele>13.819</ele>
        <time>2018-08-29T12:11:51.566Z</time>
      </trkpt>
      <trkpt lat="47.9969901" lon="-1.7548921">
        <ele>14.100</ele>
        <time>2018-08-29T12:12:45.391Z</time>
      </trkpt>
      <trkpt lat="47.9970079" lon="-1.7550553">
        <ele>14.517</ele>
        <time>2018-08-29T12:13:38.911Z</time>
      </trkpt>
      <trkpt lat="47.9970220" lon="-1.7552129">
        <ele>14.890</ele>
        <time>2018-08-29T12:14:30.389Z</time>
      </trkpt>
      <trkpt lat="47.9970246" lon="-1.7553728">
        <ele>15.172</ele>
        <time>2018-08-29T12:15:22.170Z</time>
      </trkpt>
      <trkpt lat="47.9970279" lon="-1.7555335">
        <ele>15.381</ele>
        <time>2018-08-29T12:16:14.213Z</time>
      </trkpt>
      <trkpt lat="47.9970351" lon="-1.7557009">
        <ele>15.538</ele>
        <time>2018-08-29T12:17:08.559Z</time>
      </trkpt>
      <trkpt lat="47.9970416" lon="-1.7558619">
        <ele>15.662</ele>
        <time>2018-08-29T12:18:00.776Z</time>
      </trkpt>
      <trkpt lat="47.9970375" lon="-1.7560277">
        <ele>15.786</ele>
        <time>2018-08-29T12:18:54.470Z</time>
      </trkpt>
      <trkpt lat="47.9970276" lon="-1.7561938">
        <ele>16.027</ele>
        <time>2018-08-29T12:19:48.469Z</time>
      </trkpt>
      <trkpt lat="47.9970179" lon="-1.7563635">
        <ele>16.487</ele>
        <time>2018-08-29T12:20:43.599Z</time>
      </trkpt>
      <trkpt lat="47.9970343" lon="-1.7565256">
        <ele>17.110</ele>
        <time>2018-08-29T12:21:36.684Z</time>
      </trkpt>
      <trkpt lat="47.9970644" lon="-1.7566907">
        <ele>17.726</ele>
        <time>2018-08-29T12:22:32.075Z</time>
      </trkpt>
      <trkpt lat="47.9971068" lon="-1.7568392">
        <ele>18.197</ele>
        <time>2018-08-29T12:23:24.334Z</time>
      </trkpt>
      <trkpt lat="47.9971261" lon="-1.7569736">
        <ele>18.455</ele>
        <time>2018-08-29T12:24:08.855Z</time>
      </trkpt>
      <trkpt lat="47.9971115" lon="-1.7571409">
        <ele>18.532</ele>
        <time>2018-08-29T12:25:03.463Z</time>
      </trkpt>
      <trkpt lat="47.9971109" lon="-1.7573051">
        <ele>18.542</ele>
        <time>2018-08-29T12:25:56.636Z</time>
      </trkpt>
      <trkpt lat="47.9971280" lon="-1.7574708">
        <ele>18.589</ele>
        <time>2018-08-29T12:26:50.895Z</time>
      </trkpt>
      <trkpt lat="47.9971342" lon="-1.7576485">
        <ele>18.674</ele>
        <time>2018-08-29T12:27:48.546Z</time>
      </trkpt>
      <trkpt lat="47.9971322" lon="-1.7577838">
        <ele>18.832</ele>
        <time>2018-08-29T12:28:32.328Z</time>
      </trkpt>
      <trkpt lat="47.9971367" lon="-1.7579614">
        <ele>19.058</ele>
        <time>2018-08-29T12:29:29.849Z</time>
      </trkpt>
      <trkpt lat="47.9971395" lon="-1.7581323">
        <ele>19.418</ele>
        <time>2018-08-29T12:30:25.195Z</time>
      </trkpt>
      <trkpt lat="47.9971480" lon="-1.7582991">
        <ele>19.837</ele>
        <time>2018-08-29T12:31:19.368Z</time>
      </trkpt>
      <trkpt lat="47.9971414" lon="-1.7584484">
        <ele>20.293</ele>
        <time>2018-08-29T12:32:07.846Z</time>
      </trkpt>
      <trkpt lat="47.9971648" lon="-1.7586245">
        <ele>20.790</ele>
        <time>2018-08-29T12:33:05.931Z</time>
      </trkpt>
      <trkpt lat="47.9971662" lon="-1.7587872">
        <ele>21.314</ele>
        <time>2018-08-29T12:33:58.626Z</time>
      </trkpt>
      <trkpt lat="47.9971554" lon="-1.7589582">
        <ele>21.827</ele>
        <time>2018-08-29T12:34:54.233Z</time>
      </trkpt>
      <trkpt lat="47.9971615" lon="-1.7591253">
        <ele>22.408</ele>
        <time>2018-08-29T12:35:48.406Z</time>
      </trkpt>
      <trkpt lat="47.9971636" lon="-1.7592912">
        <ele>23.093</ele>
        <time>2018-08-29T12:36:42.101Z</time>
      </trkpt>
      <trkpt lat="47.9971735" lon="-1.7594327">
        <ele>23.658</ele>
        <time>2018-08-29T12:37:28.187Z</time>
      </trkpt>
      <trkpt lat="47.9971840" lon="-1.7596033">
        <ele>24.010</ele>
        <time>2018-08-29T12:38:22.793Z</time>
      </trkpt>
      <trkpt lat="47.9971946" lon="-1.7597714">
        <ele>24.221</ele>
        <time>2018-08-29T12:38:39.626Z</time>
      </trkpt>
      <trkpt lat="47.9971930" lon="-1.7599357">
        <ele>24.614</ele>
        <time>2018-08-29T12:38:51.368Z</time>
      </trkpt>
      <trkpt lat="47.9972115" lon="-1.7601108">
        <ele>24.982</ele>
        <time>2018-08-29T12:39:04.364Z</time>
      </trkpt>
      <trkpt lat="47.9972145" lon="-1.7602759">
        <ele>25.361</ele>
        <time>2018-08-29T12:39:16.071Z</time>
      </trkpt>
      <trkpt lat="47.9972209" lon="-1.7604297">
        <ele>25.863</ele>
        <time>2018-08-29T12:39:26.568Z</time>
      </trkpt>
      <trkpt lat="47.9972374" lon="-1.7606033">
        <ele>26.288</ele>
        <time>2018-08-29T12:39:37.983Z</time>
      </trkpt>
      <trkpt lat="47.9972552" lon="-1.7607445">
        <ele>26.359</ele>
        <time>2018-08-29T12:39:46.803Z</time>
      </trkpt>
      <trkpt lat="47.9972630" lon="-1.7609167">
        <ele>26.108</ele>
        <time>2018-08-29T12:39:57.276Z</time>
      </trkpt>
      <trkpt lat="47.9972567" lon="-1.7610677">
        <ele>25.752</ele>
        <time>2018-08-29T12:40:07.428Z</time>
      </trkpt>
      <trkpt lat="47.9972528" lon="-1.7612126">
        <ele>25.465</ele>
        <time>2018-08-29T12:40:17.689Z</time>
      </trkpt>
      <trkpt lat="47.9972555" lon="-1.7613780">
        <ele>25.296</ele>
        <time>2018-08-29T12:40:29.032Z</time>
      </trkpt>
      <trkpt lat="47.9972547" lon="-1.7615323">
        <ele>25.275</ele>
        <time>2018-08-29T12:40:39.589Z</time>
      </trkpt>
      <trkpt lat="47.9972581" lon="-1.7616903">
        <ele>25.411</ele>
        <time>2018-08-29T12:40:50.282Z</time>
      </trkpt>
      <trkpt lat="47.9972947" lon="-1.7618578">
        <ele>25.764</ele>
        <time>2018-08-29T12:41:02.776Z</time>
      </trkpt>
      <trkpt lat="47.9973372" lon="-1.7619822">
        <ele>26.275</ele>
        <time>2018-08-29T12:41:12.071Z</time>
      </trkpt>
      <trkpt lat="47.9973819" lon="-1.7621041">
        <ele>26.766</ele>
        <time>2018-08-29T12:41:21.347Z</time>
      </trkpt>
      <trkpt lat="47.9974336" lon="-1.7622212">
        <ele>27.130</ele>
        <time>2018-08-29T12:41:30.917Z</time>
      </trkpt>
      <trkpt lat="47.9974925" lon="-1.7623362">
        <ele>27.305</ele>
        <time>2018-08-29T12:41:40.755Z</time>
      </trkpt>
      <trkpt lat="47.9975498" lon="-1.7624778">
        <ele>27.148</ele>
        <time>2018-08-29T12:41:51.709Z</time>
      </trkpt>
      <trkpt lat="47.9976038" lon="-1.7626104">
        <ele>26.680</ele>
        <time>2018-08-29T12:42:01.558Z</time>
      </trkpt>
      <trkpt lat="47.9976252" lon="-1.7627451">
        <ele>25.125</ele>
        <time>2018-08-29T12:42:10.552Z</time>
      </trkpt>
      <trkpt lat="47.9976506" lon="-1.7628933">
        <ele>24.665</ele>
        <time>2018-08-29T12:42:20.335Z</time>
      </trkpt>
      <trkpt lat="47.9976759" lon="-1.7630457">
        <ele>24.328</ele>
        <time>2018-08-29T12:42:30.310Z</time>
      </trkpt>
      <trkpt lat="47.9976897" lon="-1.7631951">
        <ele>24.084</ele>
        <time>2018-08-29T12:42:40.461Z</time>
      </trkpt>
      <trkpt lat="47.9977110" lon="-1.7633433">
        <ele>24.013</ele>
        <time>2018-08-29T12:42:50.722Z</time>
      </trkpt>
      <trkpt lat="47.9977491" lon="-1.7634913">
        <ele>24.091</ele>
        <time>2018-08-29T12:43:01.550Z</time>
      </trkpt>
      <trkpt lat="47.9977999" lon="-1.7636287">
        <ele>24.177</ele>
        <time>2018-08-29T12:43:12.122Z</time>
      </trkpt>
      <trkpt lat="47.9978445" lon="-1.7637564">
        <ele>23.901</ele>
        <time>2018-08-29T12:43:21.656Z</time>
      </trkpt>
      <trkpt lat="47.9978952" lon="-1.7638880">
        <ele>23.145</ele>
        <time>2018-08-29T12:43:31.619Z</time>
      </trkpt>
      <trkpt lat="47.9979548" lon="-1.7640145">
        <ele>22.437</ele>
        <time>2018-08-29T12:43:41.969Z</time>
      </trkpt>
      <trkpt lat="47.9980060" lon="-1.7641531">
        <ele>22.242</ele>
        <time>2018-08-29T12:43:53.048Z</time>
      </trkpt>
      <trkpt lat="47.9980520" lon="-1.7642982">
        <ele>22.407</ele>
        <time>2018-08-29T12:44:03.676Z</time>
      </trkpt>
      <trkpt lat="47.9980889" lon="-1.7644411">
        <ele>22.633</ele>
        <time>2018-08-29T12:44:12.930Z</time>
      </trkpt>
      <trkpt lat="47.9981325" lon="-1.7645842">
        <ele>22.792</ele>
        <time>2018-08-29T12:44:23.382Z</time>
      </trkpt>
      <trkpt lat="47.9981962" lon="-1.7647204">
        <ele>22.828</ele>
        <time>2018-08-29T12:44:35.448Z</time>
      </trkpt>
      <trkpt lat="47.9982657" lon="-1.7648398">
        <ele>22.718</ele>
        <time>2018-08-29T12:44:46.760Z</time>
      </trkpt>
      <trkpt lat="47.9983418" lon="-1.7649468">
        <ele>22.563</ele>
        <time>2018-08-29T12:44:58.097Z</time>
      </trkpt>
      <trkpt lat="47.9984356" lon="-1.7650247">
        <ele>22.462</ele>
        <time>2018-08-29T12:45:09.484Z</time>
      </trkpt>
      <trkpt lat="47.9985231" lon="-1.7650741">
        <ele>22.299</ele>
        <time>2018-08-29T12:45:19.124Z</time>
      </trkpt>
      <trkpt lat="47.9986116" lon="-1.7651194">
        <ele>21.848</ele>
        <time>2018-08-29T12:45:28.689Z</time>
      </trkpt>
      <trkpt lat="47.9987083" lon="-1.7651498">
        <ele>21.125</ele>
        <time>2018-08-29T12:45:38.000Z</time>
      </trkpt>
      <trkpt lat="47.9987083" lon="-1.7651498">
        <ele>20.472</ele>
        <time>2018-08-29T12:45:38.000Z</time>
      </trkpt>
      <trkpt lat="47.9987083" lon="-1.7651498">
        <ele>20.177</ele>
        <time>2018-08-29T12:45:38.100Z</time>
      </trkpt>
      <trkpt lat="47.9988622" lon="-1.7651634">
        <ele>20.204</ele>
        <time>2018-08-29T12:45:45.540Z</time>
      </trkpt>
      <trkpt lat="47.9989559" lon="-1.7651447">
        <ele>20.180</ele>
        <time>2018-08-29T12:45:48.583Z</time>
      </trkpt>
      <trkpt lat="47.9990494" lon="-1.7651131">
        <ele>19.854</ele>
        <time>2018-08-29T12:45:51.616Z</time>
      </trkpt>
      <trkpt lat="47.9991368" lon="-1.7650481">
        <ele>19.417</ele>
        <time>2018-08-29T12:45:54.669Z</time>
      </trkpt>
      <trkpt lat="47.9992144" lon="-1.7649640">
        <ele>19.081</ele>
        <time>2018-08-29T12:45:57.676Z</time>
      </trkpt>
      <trkpt lat="47.9992808" lon="-1.7648685">
        <ele>18.730</ele>
        <time>2018-08-29T12:46:00.624Z</time>
      </trkpt>
      <trkpt lat="47.9993402" lon="-1.7647216">
        <ele>18.234</ele>
        <time>2018-08-29T12:46:04.367Z</time>
      </trkpt>
      <trkpt lat="47.9993614" lon="-1.7645905">
        <ele>17.642</ele>
        <time>2018-08-29T12:46:07.413Z</time>
      </trkpt>
      <trkpt lat="47.9993820" lon="-1.7644328">
        <ele>17.105</ele>
        <time>2018-08-29T12:46:11.181Z</time>
      </trkpt>
      <trkpt lat="47.9993956" lon="-1.7642789">
        <ele>16.703</ele>
        <time>2018-08-29T12:46:14.983Z</time>
      </trkpt>
      <trkpt lat="47.9994224" lon="-1.7641276">
        <ele>16.414</ele>
        <time>2018-08-29T12:46:18.875Z</time>
      </trkpt>
      <trkpt lat="47.9994348" lon="-1.7639922">
        <ele>16.195</ele>
        <time>2018-08-29T12:46:22.209Z</time>
      </trkpt>
      <trkpt lat="47.9994557" lon="-1.7638370">
        <ele>16.074</ele>
        <time>2018-08-29T12:46:26.035Z</time>
      </trkpt>
      <trkpt lat="47.9994877" lon="-1.7636774">
        <ele>15.920</ele>
        <time>2018-08-29T12:46:30.039Z</time>
      </trkpt>
      <trkpt lat="47.9995372" lon="-1.7635217">
        <ele>15.567</ele>
        <time>2018-08-29T12:46:34.137Z</time>
      </trkpt>
      <trkpt lat="47.9996053" lon="-1.7633789">
        <ele>15.079</ele>
        <time>2018-08-29T12:46:38.264Z</time>
      </trkpt>
      <trkpt lat="47.9996885" lon="-1.7632670">
        <ele>14.642</ele>
        <time>2018-08-29T12:46:42.231Z</time>
      </trkpt>
      <trkpt lat="47.9997659" lon="-1.7631551">
        <ele>14.407</ele>
        <time>2018-08-29T12:46:46.119Z</time>
      </trkpt>
      <trkpt lat="47.9998517" lon="-1.7630521">
        <ele>14.400</ele>
        <time>2018-08-29T12:46:50.110Z</time>
      </trkpt>
      <trkpt lat="47.9999417" lon="-1.7629519">
        <ele>14.506</ele>
        <time>2018-08-29T12:46:54.114Z</time>
      </trkpt>
      <trkpt lat="48.0000307" lon="-1.7628375">
        <ele>14.617</ele>
        <time>2018-08-29T12:46:58.220Z</time>
      </trkpt>
      <trkpt lat="48.0001227" lon="-1.7627381">
        <ele>14.680</ele>
        <time>2018-08-29T12:47:02.205Z</time>
      </trkpt>
      <trkpt lat="48.0002102" lon="-1.7626423">
        <ele>14.682</ele>
        <time>2018-08-29T12:47:06.057Z</time>
      </trkpt>
      <trkpt lat="48.0003035" lon="-1.7625441">
        <ele>14.650</ele>
        <time>2018-08-29T12:47:10.121Z</time>
      </trkpt>
      <trkpt lat="48.0003984" lon="-1.7624495">
        <ele>14.645</ele>
        <time>2018-08-29T12:47:14.146Z</time>
      </trkpt>
      <trkpt lat="48.0005024" lon="-1.7623648">
        <ele>14.773</ele>
        <time>2018-08-29T12:47:18.294Z</time>
      </trkpt>
      <trkpt lat="48.0006043" lon="-1.7623031">
        <ele>15.031</ele>
        <time>2018-08-29T12:47:22.144Z</time>
      </trkpt>
      <trkpt lat="48.0007119" lon="-1.7622423">
        <ele>15.213</ele>
        <time>2018-08-29T12:47:26.176Z</time>
      </trkpt>
      <trkpt lat="48.0008241" lon="-1.7621977">
        <ele>15.191</ele>
        <time>2018-08-29T12:47:30.261Z</time>
      </trkpt>
      <trkpt lat="48.0009345" lon="-1.7621783">
        <ele>15.077</ele>
        <time>2018-08-29T12:47:34.216Z</time>
      </trkpt>
      <trkpt lat="48.0010452" lon="-1.7621673">
        <ele>14.970</ele>
        <time>2018-08-29T12:47:38.175Z</time>
      </trkpt>
      <trkpt lat="48.0011574" lon="-1.7621754">
        <ele>14.827</ele>
        <time>2018-08-29T12:47:42.166Z</time>
      </trkpt>
      <trkpt lat="48.0012702" lon="-1.7621993">
        <ele>14.563</ele>
        <time>2018-08-29T12:47:46.187Z</time>
      </trkpt>
      <trkpt lat="48.0013794" lon="-1.7622590">
        <ele>14.163</ele>
        <time>2018-08-29T12:47:50.273Z</time>
      </trkpt>
      <trkpt lat="48.0014765" lon="-1.7623469">
        <ele>13.730</ele>
        <time>2018-08-29T12:47:54.279Z</time>
      </trkpt>
      <trkpt lat="48.0015590" lon="-1.7624584">
        <ele>13.379</ele>
        <time>2018-08-29T12:47:58.252Z</time>
      </trkpt>
      <trkpt lat="48.0016277" lon="-1.7625821">
        <ele>13.148</ele>
        <time>2018-08-29T12:48:02.163Z</time>
      </trkpt>
      <trkpt lat="48.0016897" lon="-1.7627070">
        <ele>13.047</ele>
        <time>2018-08-29T12:48:06.041Z</time>
      </trkpt>
      <trkpt lat="48.0017477" lon="-1.7628331">
        <ele>13.133</ele>
        <time>2018-08-29T12:48:09.938Z</time>
      </trkpt>
      <trkpt lat="48.0017991" lon="-1.7629643">
        <ele>13.383</ele>
        <time>2018-08-29T12:48:13.860Z</time>
      </trkpt>
      <trkpt lat="48.0018433" lon="-1.7630947">
        <ele>13.687</ele>
        <time>2018-08-29T12:48:17.631Z</time>
      </trkpt>
      <trkpt lat="48.0018643" lon="-1.7632641">
        <ele>13.954</ele>
        <time>2018-08-29T12:48:21.965Z</time>
      </trkpt>
      <trkpt lat="48.0018748" lon="-1.7634357">
        <ele>13.987</ele>
        <time>2018-08-29T12:48:26.141Z</time>
      </trkpt>
      <trkpt lat="48.0018754" lon="-1.7635871">
        <ele>13.682</ele>
        <time>2018-08-29T12:48:29.816Z</time>
      </trkpt>
      <trkpt lat="48.0018738" lon="-1.7637330">
        <ele>13.308</ele>
        <time>2018-08-29T12:48:33.434Z</time>
      </trkpt>
      <trkpt lat="48.0018656" lon="-1.7639025">
        <ele>13.078</ele>
        <time>2018-08-29T12:48:37.659Z</time>
      </trkpt>
      <trkpt lat="48.0018520" lon="-1.7640632">
        <ele>12.948</ele>
        <time>2018-08-29T12:48:41.616Z</time>
      </trkpt>
      <trkpt lat="48.0018449" lon="-1.7642273">
        <ele>12.893</ele>
        <time>2018-08-29T12:48:45.588Z</time>
      </trkpt>
      <trkpt lat="48.0018415" lon="-1.7643977">
        <ele>12.911</ele>
        <time>2018-08-29T12:48:49.684Z</time>
      </trkpt>
      <trkpt lat="48.0018423" lon="-1.7645617">
        <ele>12.938</ele>
        <time>2018-08-29T12:48:53.599Z</time>
      </trkpt>
      <trkpt lat="48.0018526" lon="-1.7647356">
        <ele>12.915</ele>
        <time>2018-08-29T12:48:57.740Z</time>
      </trkpt>
      <trkpt lat="48.0018625" lon="-1.7648981">
        <ele>12.845</ele>
        <time>2018-08-29T12:49:01.650Z</time>
      </trkpt>
      <trkpt lat="48.0018813" lon="-1.7650541">
        <ele>12.718</ele>
        <time>2018-08-29T12:49:05.546Z</time>
      </trkpt>
      <trkpt lat="48.0019002" lon="-1.7652132">
        <ele>12.509</ele>
        <time>2018-08-29T12:49:09.572Z</time>
      </trkpt>
      <trkpt lat="48.0019180" lon="-1.7653745">
        <ele>12.290</ele>
        <time>2018-08-29T12:49:13.612Z</time>
      </trkpt>
      <trkpt lat="48.0019434" lon="-1.7655400">
        <ele>12.203</ele>
        <time>2018-08-29T12:49:17.715Z</time>
      </trkpt>
      <trkpt lat="48.0019740" lon="-1.7657054">
        <ele>12.376</ele>
        <time>2018-08-29T12:49:21.772Z</time>
      </trkpt>
      <trkpt lat="48.0020092" lon="-1.7658723">
        <ele>12.790</ele>
        <time>2018-08-29T12:49:25.849Z</time>
      </trkpt>
      <trkpt lat="48.0020434" lon="-1.7660321">
        <ele>13.211</ele>
        <time>2018-08-29T12:49:29.768Z</time>
      </trkpt>
      <trkpt lat="48.0020691" lon="-1.7661899">
        <ele>13.363</ele>
        <time>2018-08-29T12:49:33.658Z</time>
      </trkpt>
      <trkpt lat="48.0021012" lon="-1.7663365">
        <ele>13.209</ele>
        <time>2018-08-29T12:49:37.498Z</time>
      </trkpt>
      <trkpt lat="48.0021243" lon="-1.7664809">
        <ele>12.970</ele>
        <time>2018-08-29T12:49:41.310Z</time>
      </trkpt>
      <trkpt lat="48.0021582" lon="-1.7666324">
        <ele>12.869</ele>
        <time>2018-08-29T12:49:45.417Z</time>
      </trkpt>
      <trkpt lat="48.0021934" lon="-1.7667830">
        <ele>12.923</ele>
        <time>2018-08-29T12:49:49.451Z</time>
      </trkpt>
      <trkpt lat="48.0022354" lon="-1.7669311">
        <ele>13.035</ele>
        <time>2018-08-29T12:49:53.492Z</time>
      </trkpt>
      <trkpt lat="48.0022724" lon="-1.7670753">
        <ele>13.122</ele>
        <time>2018-08-29T12:49:57.394Z</time>
      </trkpt>
      <trkpt lat="48.0022989" lon="-1.7672291">
        <ele>13.173</ele>
        <time>2018-08-29T12:50:01.424Z</time>
      </trkpt>
      <trkpt lat="48.0023117" lon="-1.7673918">
        <ele>13.195</ele>
        <time>2018-08-29T12:50:05.540Z</time>
      </trkpt>
      <trkpt lat="48.0023073" lon="-1.7675604">
        <ele>13.092</ele>
        <time>2018-08-29T12:50:09.670Z</time>
      </trkpt>
      <trkpt lat="48.0022994" lon="-1.7676974">
        <ele>12.811</ele>
        <time>2018-08-29T12:50:12.898Z</time>
      </trkpt>
      <trkpt lat="48.0022840" lon="-1.7678691">
        <ele>12.601</ele>
        <time>2018-08-29T12:50:16.878Z</time>
      </trkpt>
      <trkpt lat="48.0022665" lon="-1.7680384">
        <ele>12.778</ele>
        <time>2018-08-29T12:50:20.783Z</time>
      </trkpt>
      <trkpt lat="48.0022369" lon="-1.7682069">
        <ele>13.255</ele>
        <time>2018-08-29T12:50:24.747Z</time>
      </trkpt>
      <trkpt lat="48.0022106" lon="-1.7683386">
        <ele>13.674</ele>
        <time>2018-08-29T12:50:27.855Z</time>
      </trkpt>
      <trkpt lat="48.0021805" lon="-1.7685065">
        <ele>13.846</ele>
        <time>2018-08-29T12:50:31.811Z</time>
      </trkpt>
      <trkpt lat="48.0021564" lon="-1.7686640">
        <ele>13.848</ele>
        <time>2018-08-29T12:50:35.587Z</time>
      </trkpt>
      <trkpt lat="48.0021299" lon="-1.7688211">
        <ele>13.804</ele>
        <time>2018-08-29T12:50:39.493Z</time>
      </trkpt>
      <trkpt lat="48.0020932" lon="-1.7689704">
        <ele>13.799</ele>
        <time>2018-08-29T12:50:43.416Z</time>
      </trkpt>
      <trkpt lat="48.0020746" lon="-1.7691196">
        <ele>13.880</ele>
        <time>2018-08-29T12:50:47.233Z</time>
      </trkpt>
      <trkpt lat="48.0020667" lon="-1.7692793">
        <ele>14.060</ele>
        <time>2018-08-29T12:50:51.269Z</time>
      </trkpt>
      <trkpt lat="48.0020720" lon="-1.7694517">
        <ele>14.266</ele>
        <time>2018-08-29T12:50:55.501Z</time>
      </trkpt>
      <trkpt lat="48.0020749" lon="-1.7696262">
        <ele>14.364</ele>
        <time>2018-08-29T12:50:59.646Z</time>
      </trkpt>
      <trkpt lat="48.0020784" lon="-1.7698033">
        <ele>14.238</ele>
        <time>2018-08-29T12:51:03.760Z</time>
      </trkpt>
      <trkpt lat="48.0020757" lon="-1.7699786">
        <ele>13.873</ele>
        <time>2018-08-29T12:51:07.806Z</time>
      </trkpt>
      <trkpt lat="48.0020798" lon="-1.7701436">
        <ele>13.369</ele>
        <time>2018-08-29T12:51:11.661Z</time>
      </trkpt>
      <trkpt lat="48.0020926" lon="-1.7703092">
        <ele>12.852</ele>
        <time>2018-08-29T12:51:15.609Z</time>
      </trkpt>
      <trkpt lat="48.0021070" lon="-1.7704687">
        <ele>12.384</ele>
        <time>2018-08-29T12:51:19.478Z</time>
      </trkpt>
      <trkpt lat="48.0021139" lon="-1.7706278">
        <ele>12.020</ele>
        <time>2018-08-29T12:51:23.408Z</time>
      </trkpt>
      <trkpt lat="48.0021212" lon="-1.7707726">
        <ele>11.832</ele>
        <time>2018-08-29T12:51:27.107Z</time>
      </trkpt>
      <trkpt lat="48.0021264" lon="-1.7709246">
        <ele>11.806</ele>
        <time>2018-08-29T12:51:31.090Z</time>
      </trkpt>
      <trkpt lat="48.0021311" lon="-1.7710800">
        <ele>11.857</ele>
        <time>2018-08-29T12:51:35.171Z</time>
      </trkpt>
      <trkpt lat="48.0021360" lon="-1.7712218">
        <ele>11.918</ele>
        <time>2018-08-29T12:51:38.923Z</time>
      </trkpt>
      <trkpt lat="48.0021378" lon="-1.7713594">
        <ele>12.046</ele>
        <time>2018-08-29T12:51:42.653Z</time>
      </trkpt>
      <trkpt lat="48.0021582" lon="-1.7715018">
        <ele>12.311</ele>
        <time>2018-08-29T12:51:46.649Z</time>
      </trkpt>
      <trkpt lat="48.0021775" lon="-1.7716523">
        <ele>12.696</ele>
        <time>2018-08-29T12:51:50.781Z</time>
      </trkpt>
      <trkpt lat="48.0021844" lon="-1.7718172">
        <ele>13.132</ele>
        <time>2018-08-29T12:51:55.091Z</time>
      </trkpt>
      <trkpt lat="48.0021955" lon="-1.7719773">
        <ele>13.493</ele>
        <time>2018-08-29T12:51:59.169Z</time>
      </trkpt>
      <trkpt lat="48.0022203" lon="-1.7721406">
        <ele>13.666</ele>
        <time>2018-08-29T12:52:03.309Z</time>
      </trkpt>
      <trkpt lat="48.0022316" lon="-1.7723084">
        <ele>13.789</ele>
        <time>2018-08-29T12:52:07.401Z</time>
      </trkpt>
      <trkpt lat="48.0022450" lon="-1.7724753">
        <ele>14.022</ele>
        <time>2018-08-29T12:52:11.431Z</time>
      </trkpt>
      <trkpt lat="48.0022419" lon="-1.7726371">
        <ele>14.291</ele>
        <time>2018-08-29T12:52:15.344Z</time>
      </trkpt>
      <trkpt lat="48.0022367" lon="-1.7727747">
        <ele>14.460</ele>
        <time>2018-08-29T12:52:18.795Z</time>
      </trkpt>
      <trkpt lat="48.0022347" lon="-1.7729153">
        <ele>14.594</ele>
        <time>2018-08-29T12:52:22.506Z</time>
      </trkpt>
      <trkpt lat="48.0022263" lon="-1.7730616">
        <ele>14.807</ele>
        <time>2018-08-29T12:52:26.534Z</time>
      </trkpt>
      <trkpt lat="48.0022153" lon="-1.7732015">
        <ele>15.092</ele>
        <time>2018-08-29T12:52:30.429Z</time>
      </trkpt>
      <trkpt lat="48.0022147" lon="-1.7733563">
        <ele>15.339</ele>
        <time>2018-08-29T12:52:34.671Z</time>
      </trkpt>
      <trkpt lat="48.0022269" lon="-1.7735201">
        <ele>15.474</ele>
        <time>2018-08-29T12:52:39.038Z</time>
      </trkpt>
      <trkpt lat="48.0022390" lon="-1.7736808">
        <ele>15.386</ele>
        <time>2018-08-29T12:52:43.182Z</time>
      </trkpt>
      <trkpt lat="48.0022333" lon="-1.7738199">
        <ele>15.061</ele>
        <time>2018-08-29T12:52:46.775Z</time>
      </trkpt>
      <trkpt lat="48.0022405" lon="-1.7739766">
        <ele>14.717</ele>
        <time>2018-08-29T12:52:51.000Z</time>
      </trkpt>
      <trkpt lat="48.0022405" lon="-1.7739766">
        <ele>14.562</ele>
        <time>2018-08-29T12:52:55.000Z</time>
      </trkpt>
      <trkpt lat="48.0022405" lon="-1.7739766">
        <ele>14.575</ele>
        <time>2018-08-29T12:57:53.973Z</time>
      </trkpt>
      <trkpt lat="48.0021824" lon="-1.7743310">
        <ele>14.645</ele>
        <time>2018-08-29T12:58:10.961Z</time>
      </trkpt>
      <trkpt lat="48.0021528" lon="-1.7744957">
        <ele>14.947</ele>
        <time>2018-08-29T12:58:15.562Z</time>
      </trkpt>
      <trkpt lat="48.0021362" lon="-1.7746466">
        <ele>15.621</ele>
        <time>2018-08-29T12:58:19.610Z</time>
      </trkpt>
      <trkpt lat="48.0021220" lon="-1.7748018">
        <ele>16.276</ele>
        <time>2018-08-29T12:58:24.115Z</time>
      </trkpt>
      <trkpt lat="48.0020818" lon="-1.7749462">
        <ele>16.402</ele>
        <time>2018-08-29T12:58:29.301Z</time>
      </trkpt>
      <trkpt lat="48.0020719" lon="-1.7750893">
        <ele>15.742</ele>
        <time>2018-08-29T12:58:35.016Z</time>
      </trkpt>
      <trkpt lat="48.0021385" lon="-1.7751977">
        <ele>14.533</ele>
        <time>2018-08-29T12:58:42.187Z</time>
      </trkpt>
      <trkpt lat="48.0022461" lon="-1.7751956">
        <ele>13.520</ele>
        <time>2018-08-29T12:58:48.914Z</time>
      </trkpt>
      <trkpt lat="48.0023456" lon="-1.7752019">
        <ele>13.150</ele>
        <time>2018-08-29T12:58:53.722Z</time>
      </trkpt>
      <trkpt lat="48.0024457" lon="-1.7752146">
        <ele>13.290</ele>
        <time>2018-08-29T12:58:58.203Z</time>
      </trkpt>
      <trkpt lat="48.0025425" lon="-1.7752267">
        <ele>13.631</ele>
        <time>2018-08-29T12:59:02.562Z</time>
      </trkpt>
      <trkpt lat="48.0026448" lon="-1.7752298">
        <ele>14.049</ele>
        <time>2018-08-29T12:59:07.276Z</time>
      </trkpt>
      <trkpt lat="48.0027464" lon="-1.7752412">
        <ele>14.568</ele>
        <time>2018-08-29T12:59:12.000Z</time>
      </trkpt>
      <trkpt lat="48.0027464" lon="-1.7752412">
        <ele>15.027</ele>
        <time>2018-08-29T12:59:15.000Z</time>
      </trkpt>
      <trkpt lat="48.0027464" lon="-1.7752412">
        <ele>15.222</ele>
        <time>2018-08-29T13:00:29.518Z</time>
      </trkpt>
      <trkpt lat="48.0030163" lon="-1.7753320">
        <ele>15.190</ele>
        <time>2018-08-29T13:00:46.711Z</time>
      </trkpt>
      <trkpt lat="48.0030438" lon="-1.7755167">
        <ele>15.288</ele>
        <time>2018-08-29T13:00:49.855Z</time>
      </trkpt>
      <trkpt lat="48.0030372" lon="-1.7756686">
        <ele>15.746</ele>
        <time>2018-08-29T13:00:52.417Z</time>
      </trkpt>
      <trkpt lat="48.0030497" lon="-1.7758241">
        <ele>16.227</ele>
        <time>2018-08-29T13:00:55.227Z</time>
      </trkpt>
      <trkpt lat="48.0030879" lon="-1.7759692">
        <ele>16.360</ele>
        <time>2018-08-29T13:00:58.334Z</time>
      </trkpt>
      <trkpt lat="48.0030983" lon="-1.7761265">
        <ele>16.237</ele>
        <time>2018-08-29T13:01:01.694Z</time>
      </trkpt>
      <trkpt lat="48.0031174" lon="-1.7762839">
        <ele>16.190</ele>
        <time>2018-08-29T13:01:05.186Z</time>
      </trkpt>
      <trkpt lat="48.0031218" lon="-1.7764247">
        <ele>16.455</ele>
        <time>2018-08-29T13:01:08.361Z</time>
      </trkpt>
      <trkpt lat="48.0031207" lon="-1.7765890">
        <ele>16.894</ele>
        <time>2018-08-29T13:01:12.137Z</time>
      </trkpt>
      <trkpt lat="48.0031402" lon="-1.7767305">
        <ele>17.165</ele>
        <time>2018-08-29T13:01:15.466Z</time>
      </trkpt>
      <trkpt lat="48.0031568" lon="-1.7768902">
        <ele>17.098</ele>
        <time>2018-08-29T13:01:19.317Z</time>
      </trkpt>
      <trkpt lat="48.0031746" lon="-1.7770530">
        <ele>16.604</ele>
        <time>2018-08-29T13:01:23.143Z</time>
      </trkpt>
      <trkpt lat="48.0031893" lon="-1.7772205">
        <ele>15.804</ele>
        <time>2018-08-29T13:01:26.924Z</time>
      </trkpt>
      <trkpt lat="48.0032083" lon="-1.7773899">
        <ele>15.089</ele>
        <time>2018-08-29T13:01:30.775Z</time>
      </trkpt>
      <trkpt lat="48.0032191" lon="-1.7775575">
        <ele>14.697</ele>
        <time>2018-08-29T13:01:34.591Z</time>
      </trkpt>
      <trkpt lat="48.0032240" lon="-1.7777385">
        <ele>14.578</ele>
        <time>2018-08-29T13:01:38.669Z</time>
      </trkpt>
      <trkpt lat="48.0032378" lon="-1.7778770">
        <ele>14.665</ele>
        <time>2018-08-29T13:01:41.861Z</time>
      </trkpt>
      <trkpt lat="48.0032704" lon="-1.7780412">
        <ele>14.862</ele>
        <time>2018-08-29T13:01:45.871Z</time>
      </trkpt>
      <trkpt lat="48.0032707" lon="-1.7781960">
        <ele>15.063</ele>
        <time>2018-08-29T13:01:49.525Z</time>
      </trkpt>
      <trkpt lat="48.0032920" lon="-1.7783689">
        <ele>15.237</ele>
        <time>2018-08-29T13:01:53.580Z</time>
      </trkpt>
      <trkpt lat="48.0033209" lon="-1.7785388">
        <ele>15.459</ele>
        <time>2018-08-29T13:01:57.545Z</time>
      </trkpt>
      <trkpt lat="48.0033739" lon="-1.7786581">
        <ele>15.728</ele>
        <time>2018-08-29T13:02:00.797Z</time>
      </trkpt>
      <trkpt lat="48.0034535" lon="-1.7787797">
        <ele>15.940</ele>
        <time>2018-08-29T13:02:04.705Z</time>
      </trkpt>
      <trkpt lat="48.0035166" lon="-1.7789031">
        <ele>16.014</ele>
        <time>2018-08-29T13:02:08.340Z</time>
      </trkpt>
      <trkpt lat="48.0035502" lon="-1.7790617">
        <ele>15.953</ele>
        <time>2018-08-29T13:02:12.303Z</time>
      </trkpt>
      <trkpt lat="48.0036074" lon="-1.7792018">
        <ele>15.785</ele>
        <time>2018-08-29T13:02:16.229Z</time>
      </trkpt>
      <trkpt lat="48.0036775" lon="-1.7793293">
        <ele>15.543</ele>
        <time>2018-08-29T13:02:20.167Z</time>
      </trkpt>
      <trkpt lat="48.0037445" lon="-1.7794583">
        <ele>15.307</ele>
        <time>2018-08-29T13:02:24.025Z</time>
      </trkpt>
      <trkpt lat="48.0038229" lon="-1.7795851">
        <ele>15.172</ele>
        <time>2018-08-29T13:02:28.043Z</time>
      </trkpt>
      <trkpt lat="48.0039063" lon="-1.7796954">
        <ele>15.070</ele>
        <time>2018-08-29T13:02:31.839Z</time>
      </trkpt>
      <trkpt lat="48.0039752" lon="-1.7797849">
        <ele>14.900</ele>
        <time>2018-08-29T13:02:34.889Z</time>
      </trkpt>
      <trkpt lat="48.0040526" lon="-1.7799134">
        <ele>14.716</ele>
        <time>2018-08-29T13:02:38.747Z</time>
      </trkpt>
      <trkpt lat="48.0041120" lon="-1.7800504">
        <ele>14.601</ele>
        <time>2018-08-29T13:02:42.444Z</time>
      </trkpt>
      <trkpt lat="48.0041500" lon="-1.7801975">
        <ele>14.540</ele>
        <time>2018-08-29T13:02:46.111Z</time>
      </trkpt>
      <trkpt lat="48.0041588" lon="-1.7803685">
        <ele>14.507</ele>
        <time>2018-08-29T13:02:50.168Z</time>
      </trkpt>
      <trkpt lat="48.0041461" lon="-1.7805430">
        <ele>14.494</ele>
        <time>2018-08-29T13:02:54.265Z</time>
      </trkpt>
      <trkpt lat="48.0041256" lon="-1.7807096">
        <ele>14.502</ele>
        <time>2018-08-29T13:02:58.087Z</time>
      </trkpt>
      <trkpt lat="48.0041087" lon="-1.7808564">
        <ele>14.444</ele>
        <time>2018-08-29T13:03:01.329Z</time>
      </trkpt>
      <trkpt lat="48.0040725" lon="-1.7809939">
        <ele>14.260</ele>
        <time>2018-08-29T13:03:04.493Z</time>
      </trkpt>
      <trkpt lat="48.0040075" lon="-1.7811387">
        <ele>14.036</ele>
        <time>2018-08-29T13:03:08.275Z</time>
      </trkpt>
      <trkpt lat="48.0039253" lon="-1.7812501">
        <ele>13.914</ele>
        <time>2018-08-29T13:03:12.016Z</time>
      </trkpt>
      <trkpt lat="48.0038564" lon="-1.7813661">
        <ele>14.054</ele>
        <time>2018-08-29T13:03:15.658Z</time>
      </trkpt>
      <trkpt lat="48.0037980" lon="-1.7814987">
        <ele>14.436</ele>
        <time>2018-08-29T13:03:19.482Z</time>
      </trkpt>
      <trkpt lat="48.0037493" lon="-1.7816505">
        <ele>14.983</ele>
        <time>2018-08-29T13:03:23.517Z</time>
      </trkpt>
      <trkpt lat="48.0037329" lon="-1.7817907">
        <ele>15.377</ele>
        <time>2018-08-29T13:03:26.802Z</time>
      </trkpt>
      <trkpt lat="48.0036865" lon="-1.7819475">
        <ele>15.468</ele>
        <time>2018-08-29T13:03:30.629Z</time>
      </trkpt>
      <trkpt lat="48.0036450" lon="-1.7820735">
        <ele>15.401</ele>
        <time>2018-08-29T13:03:33.685Z</time>
      </trkpt>
      <trkpt lat="48.0036008" lon="-1.7822082">
        <ele>15.417</ele>
        <time>2018-08-29T13:03:36.862Z</time>
      </trkpt>
      <trkpt lat="48.0035680" lon="-1.7823489">
        <ele>15.410</ele>
        <time>2018-08-29T13:03:39.914Z</time>
      </trkpt>
      <trkpt lat="48.0035403" lon="-1.7824804">
        <ele>15.322</ele>
        <time>2018-08-29T13:03:42.707Z</time>
      </trkpt>
      <trkpt lat="48.0035022" lon="-1.7826488">
        <ele>15.142</ele>
        <time>2018-08-29T13:03:46.361Z</time>
      </trkpt>
      <trkpt lat="48.0034849" lon="-1.7827831">
        <ele>14.937</ele>
        <time>2018-08-29T13:03:49.242Z</time>
      </trkpt>
      <trkpt lat="48.0034893" lon="-1.7829349">
        <ele>14.726</ele>
        <time>2018-08-29T13:03:52.481Z</time>
      </trkpt>
      <trkpt lat="48.0034901" lon="-1.7830704">
        <ele>14.506</ele>
        <time>2018-08-29T13:03:55.389Z</time>
      </trkpt>
      <trkpt lat="48.0034854" lon="-1.7832074">
        <ele>14.368</ele>
        <time>2018-08-29T13:03:58.362Z</time>
      </trkpt>
      <trkpt lat="48.0034715" lon="-1.7833427">
        <ele>14.398</ele>
        <time>2018-08-29T13:04:01.366Z</time>
      </trkpt>
      <trkpt lat="48.0034552" lon="-1.7834791">
        <ele>14.560</ele>
        <time>2018-08-29T13:04:04.437Z</time>
      </trkpt>
      <trkpt lat="48.0034312" lon="-1.7836410">
        <ele>14.844</ele>
        <time>2018-08-29T13:04:08.149Z</time>
      </trkpt>
      <trkpt lat="48.0034345" lon="-1.7838070">
        <ele>15.008</ele>
        <time>2018-08-29T13:04:11.941Z</time>
      </trkpt>
      <trkpt lat="48.0034596" lon="-1.7839433">
        <ele>15.198</ele>
        <time>2018-08-29T13:04:15.199Z</time>
      </trkpt>
      <trkpt lat="48.0035139" lon="-1.7841026">
        <ele>15.248</ele>
        <time>2018-08-29T13:04:19.271Z</time>
      </trkpt>
      <trkpt lat="48.0035755" lon="-1.7842152">
        <ele>15.109</ele>
        <time>2018-08-29T13:04:22.482Z</time>
      </trkpt>
      <trkpt lat="48.0036445" lon="-1.7843157">
        <ele>14.930</ele>
        <time>2018-08-29T13:04:25.560Z</time>
      </trkpt>
      <trkpt lat="48.0037247" lon="-1.7843932">
        <ele>14.872</ele>
        <time>2018-08-29T13:04:28.560Z</time>
      </trkpt>
      <trkpt lat="48.0038085" lon="-1.7844485">
        <ele>14.935</ele>
        <time>2018-08-29T13:04:31.463Z</time>
      </trkpt>
      <trkpt lat="48.0039132" lon="-1.7845043">
        <ele>15.037</ele>
        <time>2018-08-29T13:04:35.084Z</time>
      </trkpt>
      <trkpt lat="48.0040024" lon="-1.7845460">
        <ele>15.164</ele>
        <time>2018-08-29T13:04:38.211Z</time>
      </trkpt>
      <trkpt lat="48.0041050" lon="-1.7845944">
        <ele>15.394</ele>
        <time>2018-08-29T13:04:41.869Z</time>
      </trkpt>
      <trkpt lat="48.0041961" lon="-1.7846329">
        <ele>15.712</ele>
        <time>2018-08-29T13:04:45.110Z</time>
      </trkpt>
      <trkpt lat="48.0042851" lon="-1.7846624">
        <ele>15.971</ele>
        <time>2018-08-29T13:04:48.248Z</time>
      </trkpt>
      <trkpt lat="48.0043856" lon="-1.7847027">
        <ele>16.039</ele>
        <time>2018-08-29T13:04:51.935Z</time>
      </trkpt>
      <trkpt lat="48.0045048" lon="-1.7847193">
        <ele>15.934</ele>
        <time>2018-08-29T13:04:56.251Z</time>
      </trkpt>
      <trkpt lat="48.0046191" lon="-1.7847403">
        <ele>15.795</ele>
        <time>2018-08-29T13:05:00.351Z</time>
      </trkpt>
      <trkpt lat="48.0047102" lon="-1.7847809">
        <ele>15.765</ele>
        <time>2018-08-29T13:05:03.653Z</time>
      </trkpt>
      <trkpt lat="48.0048044" lon="-1.7848287">
        <ele>15.993</ele>
        <time>2018-08-29T13:05:06.980Z</time>
      </trkpt>
      <trkpt lat="48.0049104" lon="-1.7848610">
        <ele>16.068</ele>
        <time>2018-08-29T13:05:10.382Z</time>
      </trkpt>
      <trkpt lat="48.0050206" lon="-1.7848720">
        <ele>16.027</ele>
        <time>2018-08-29T13:05:13.784Z</time>
      </trkpt>
      <trkpt lat="48.0051149" lon="-1.7848953">
        <ele>15.793</ele>
        <time>2018-08-29T13:05:16.855Z</time>
      </trkpt>
      <trkpt lat="48.0052361" lon="-1.7849233">
        <ele>15.591</ele>
        <time>2018-08-29T13:05:20.955Z</time>
      </trkpt>
      <trkpt lat="48.0053270" lon="-1.7849493">
        <ele>15.427</ele>
        <time>2018-08-29T13:05:24.097Z</time>
      </trkpt>
      <trkpt lat="48.0054181" lon="-1.7849744">
        <ele>15.375</ele>
        <time>2018-08-29T13:05:27.201Z</time>
      </trkpt>
      <trkpt lat="48.0055210" lon="-1.7850036">
        <ele>15.366</ele>
        <time>2018-08-29T13:05:30.624Z</time>
      </trkpt>
      <trkpt lat="48.0056253" lon="-1.7850296">
        <ele>15.320</ele>
        <time>2018-08-29T13:05:33.946Z</time>
      </trkpt>
      <trkpt lat="48.0057294" lon="-1.7850630">
        <ele>15.152</ele>
        <time>2018-08-29T13:05:37.171Z</time>
      </trkpt>
      <trkpt lat="48.0058489" lon="-1.7850765">
        <ele>14.871</ele>
        <time>2018-08-29T13:05:40.774Z</time>
      </trkpt>
      <trkpt lat="48.0059379" lon="-1.7850953">
        <ele>14.597</ele>
        <time>2018-08-29T13:05:43.549Z</time>
      </trkpt>
      <trkpt lat="48.0060351" lon="-1.7851190">
        <ele>14.442</ele>
        <time>2018-08-29T13:05:46.748Z</time>
      </trkpt>
      <trkpt lat="48.0061370" lon="-1.7851311">
        <ele>14.431</ele>
        <time>2018-08-29T13:05:50.142Z</time>
      </trkpt>
      <trkpt lat="48.0062465" lon="-1.7851269">
        <ele>14.549</ele>
        <time>2018-08-29T13:05:53.705Z</time>
      </trkpt>
      <trkpt lat="48.0063446" lon="-1.7851304">
        <ele>14.732</ele>
        <time>2018-08-29T13:05:56.775Z</time>
      </trkpt>
      <trkpt lat="48.0064608" lon="-1.7851188">
        <ele>14.886</ele>
        <time>2018-08-29T13:06:00.279Z</time>
      </trkpt>
      <trkpt lat="48.0065572" lon="-1.7851145">
        <ele>14.900</ele>
        <time>2018-08-29T13:06:03.088Z</time>
      </trkpt>
      <trkpt lat="48.0066485" lon="-1.7851137">
        <ele>14.775</ele>
        <time>2018-08-29T13:06:05.813Z</time>
      </trkpt>
      <trkpt lat="48.0067489" lon="-1.7851043">
        <ele>14.648</ele>
        <time>2018-08-29T13:06:08.870Z</time>
      </trkpt>
      <trkpt lat="48.0068387" lon="-1.7850870">
        <ele>14.658</ele>
        <time>2018-08-29T13:06:11.621Z</time>
      </trkpt>
      <trkpt lat="48.0069346" lon="-1.7850689">
        <ele>14.813</ele>
        <time>2018-08-29T13:06:14.730Z</time>
      </trkpt>
      <trkpt lat="48.0070220" lon="-1.7850288">
        <ele>15.042</ele>
        <time>2018-08-29T13:06:17.818Z</time>
      </trkpt>
      <trkpt lat="48.0071063" lon="-1.7849779">
        <ele>15.247</ele>
        <time>2018-08-29T13:06:20.979Z</time>
      </trkpt>
      <trkpt lat="48.0071953" lon="-1.7849268">
        <ele>15.484</ele>
        <time>2018-08-29T13:06:24.219Z</time>
      </trkpt>
      <trkpt lat="48.0072890" lon="-1.7848777">
        <ele>15.892</ele>
        <time>2018-08-29T13:06:27.466Z</time>
      </trkpt>
      <trkpt lat="48.0073876" lon="-1.7848265">
        <ele>16.386</ele>
        <time>2018-08-29T13:06:30.755Z</time>
      </trkpt>
      <trkpt lat="48.0074798" lon="-1.7847752">
        <ele>16.732</ele>
        <time>2018-08-29T13:06:33.765Z</time>
      </trkpt>
      <trkpt lat="48.0075663" lon="-1.7847268">
        <ele>16.824</ele>
        <time>2018-08-29T13:06:36.567Z</time>
      </trkpt>
      <trkpt lat="48.0076584" lon="-1.7846640">
        <ele>16.712</ele>
        <time>2018-08-29T13:06:39.631Z</time>
      </trkpt>
      <trkpt lat="48.0077584" lon="-1.7845849">
        <ele>16.544</ele>
        <time>2018-08-29T13:06:42.984Z</time>
      </trkpt>
      <trkpt lat="48.0078434" lon="-1.7844934">
        <ele>16.502</ele>
        <time>2018-08-29T13:06:46.000Z</time>
      </trkpt>
      <trkpt lat="48.0078434" lon="-1.7844934">
        <ele>16.628</ele>
        <time>2018-08-29T13:06:49.000Z</time>
      </trkpt>
      <trkpt lat="48.0078434" lon="-1.7844934">
        <ele>16.758</ele>
        <time>2018-08-29T13:08:02.316Z</time>
      </trkpt>
      <trkpt lat="48.0080233" lon="-1.7842648">
        <ele>16.752</ele>
        <time>2018-08-29T13:08:20.882Z</time>
      </trkpt>
      <trkpt lat="48.0081094" lon="-1.7841600">
        <ele>16.799</ele>
        <time>2018-08-29T13:08:26.172Z</time>
      </trkpt>
      <trkpt lat="48.0081902" lon="-1.7840852">
        <ele>17.069</ele>
        <time>2018-08-29T13:08:30.360Z</time>
      </trkpt>
      <trkpt lat="48.0082851" lon="-1.7839868">
        <ele>17.383</ele>
        <time>2018-08-29T13:08:35.178Z</time>
      </trkpt>
      <trkpt lat="48.0083805" lon="-1.7838951">
        <ele>17.591</ele>
        <time>2018-08-29T13:08:39.781Z</time>
      </trkpt>
      <trkpt lat="48.0084779" lon="-1.7838174">
        <ele>17.769</ele>
        <time>2018-08-29T13:08:44.080Z</time>
      </trkpt>
      <trkpt lat="48.0085819" lon="-1.7837421">
        <ele>17.936</ele>
        <time>2018-08-29T13:08:48.333Z</time>
      </trkpt>
      <trkpt lat="48.0086699" lon="-1.7836975">
        <ele>18.034</ele>
        <time>2018-08-29T13:08:51.620Z</time>
      </trkpt>
      <trkpt lat="48.0087606" lon="-1.7836640">
        <ele>18.049</ele>
        <time>2018-08-29T13:08:54.959Z</time>
      </trkpt>
      <trkpt lat="48.0088592" lon="-1.7836287">
        <ele>18.063</ele>
        <time>2018-08-29T13:08:58.697Z</time>
      </trkpt>
      <trkpt lat="48.0089523" lon="-1.7835983">
        <ele>18.135</ele>
        <time>2018-08-29T13:09:02.275Z</time>
      </trkpt>
      <trkpt lat="48.0090470" lon="-1.7835698">
        <ele>18.272</ele>
        <time>2018-08-29T13:09:05.833Z</time>
      </trkpt>
      <trkpt lat="48.0091634" lon="-1.7835611">
        <ele>18.564</ele>
        <time>2018-08-29T13:09:10.124Z</time>
      </trkpt>
      <trkpt lat="48.0092583" lon="-1.7835599">
        <ele>18.579</ele>
        <time>2018-08-29T13:09:13.648Z</time>
      </trkpt>
      <trkpt lat="48.0093559" lon="-1.7835595">
        <ele>18.499</ele>
        <time>2018-08-29T13:09:17.267Z</time>
      </trkpt>
      <trkpt lat="48.0094527" lon="-1.7835649">
        <ele>18.343</ele>
        <time>2018-08-29T13:09:20.852Z</time>
      </trkpt>
      <trkpt lat="48.0095423" lon="-1.7835488">
        <ele>18.118</ele>
        <time>2018-08-29T13:09:24.260Z</time>
      </trkpt>
      <trkpt lat="48.0096343" lon="-1.7835157">
        <ele>17.901</ele>
        <time>2018-08-29T13:09:27.979Z</time>
      </trkpt>
      <trkpt lat="48.0097224" lon="-1.7834554">
        <ele>17.803</ele>
        <time>2018-08-29T13:09:31.931Z</time>
      </trkpt>
      <trkpt lat="48.0098058" lon="-1.7833957">
        <ele>17.823</ele>
        <time>2018-08-29T13:09:35.776Z</time>
      </trkpt>
      <trkpt lat="48.0098910" lon="-1.7833283">
        <ele>17.907</ele>
        <time>2018-08-29T13:09:39.805Z</time>
      </trkpt>
      <trkpt lat="48.0099833" lon="-1.7832746">
        <ele>18.018</ele>
        <time>2018-08-29T13:09:43.913Z</time>
      </trkpt>
      <trkpt lat="48.0100865" lon="-1.7831943">
        <ele>18.138</ele>
        <time>2018-08-29T13:09:48.729Z</time>
      </trkpt>
      <trkpt lat="48.0101929" lon="-1.7831475">
        <ele>18.251</ele>
        <time>2018-08-29T13:09:55.029Z</time>
      </trkpt>
      <trkpt lat="48.0102964" lon="-1.7831059">
        <ele>18.342</ele>
        <time>2018-08-29T13:10:01.741Z</time>
      </trkpt>
      <trkpt lat="48.0104046" lon="-1.7830515">
        <ele>18.404</ele>
        <time>2018-08-29T13:10:08.886Z</time>
      </trkpt>
      <trkpt lat="48.0105102" lon="-1.7830048">
        <ele>18.449</ele>
        <time>2018-08-29T13:10:15.783Z</time>
      </trkpt>
      <trkpt lat="48.0106211" lon="-1.7829776">
        <ele>18.513</ele>
        <time>2018-08-29T13:10:22.816Z</time>
      </trkpt>
      <trkpt lat="48.0107344" lon="-1.7829684">
        <ele>18.611</ele>
        <time>2018-08-29T13:10:29.922Z</time>
      </trkpt>
      <trkpt lat="48.0108298" lon="-1.7829267">
        <ele>18.462</ele>
        <time>2018-08-29T13:10:36.144Z</time>
      </trkpt>
      <trkpt lat="48.0109314" lon="-1.7828958">
        <ele>17.884</ele>
        <time>2018-08-29T13:10:42.636Z</time>
      </trkpt>
      <trkpt lat="48.0110419" lon="-1.7828707">
        <ele>17.236</ele>
        <time>2018-08-29T13:10:49.635Z</time>
      </trkpt>
      <trkpt lat="48.0111458" lon="-1.7828552">
        <ele>16.896</ele>
        <time>2018-08-29T13:10:56.167Z</time>
      </trkpt>
      <trkpt lat="48.0112414" lon="-1.7828444">
        <ele>16.821</ele>
        <time>2018-08-29T13:11:02.170Z</time>
      </trkpt>
      <trkpt lat="48.0113543" lon="-1.7828296">
        <ele>16.864</ele>
        <time>2018-08-29T13:11:09.264Z</time>
      </trkpt>
      <trkpt lat="48.0114515" lon="-1.7828118">
        <ele>16.945</ele>
        <time>2018-08-29T13:11:15.397Z</time>
      </trkpt>
      <trkpt lat="48.0115539" lon="-1.7827755">
        <ele>17.042</ele>
        <time>2018-08-29T13:11:21.985Z</time>
      </trkpt>
      <trkpt lat="48.0116650" lon="-1.7827260">
        <ele>17.119</ele>
        <time>2018-08-29T13:11:29.243Z</time>
      </trkpt>
      <trkpt lat="48.0117713" lon="-1.7826783">
        <ele>17.156</ele>
        <time>2018-08-29T13:11:36.984Z</time>
      </trkpt>
      <trkpt lat="48.0118760" lon="-1.7826325">
        <ele>17.194</ele>
        <time>2018-08-29T13:11:42.417Z</time>
      </trkpt>
      <trkpt lat="48.0119807" lon="-1.7825710">
        <ele>17.292</ele>
        <time>2018-08-29T13:11:47.322Z</time>
      </trkpt>
      <trkpt lat="48.0120899" lon="-1.7825108">
        <ele>17.502</ele>
        <time>2018-08-29T13:11:52.353Z</time>
      </trkpt>
      <trkpt lat="48.0121752" lon="-1.7824558">
        <ele>17.792</ele>
        <time>2018-08-29T13:11:56.581Z</time>
      </trkpt>
      <trkpt lat="48.0122677" lon="-1.7823986">
        <ele>17.998</ele>
        <time>2018-08-29T13:12:01.340Z</time>
      </trkpt>
      <trkpt lat="48.0123604" lon="-1.7823472">
        <ele>18.021</ele>
        <time>2018-08-29T13:12:05.999Z</time>
      </trkpt>
      <trkpt lat="48.0124502" lon="-1.7822986">
        <ele>17.957</ele>
        <time>2018-08-29T13:12:10.250Z</time>
      </trkpt>
      <trkpt lat="48.0125416" lon="-1.7822378">
        <ele>17.912</ele>
        <time>2018-08-29T13:12:14.528Z</time>
      </trkpt>
      <trkpt lat="48.0126306" lon="-1.7821816">
        <ele>17.910</ele>
        <time>2018-08-29T13:12:18.656Z</time>
      </trkpt>
      <trkpt lat="48.0127216" lon="-1.7821203">
        <ele>17.973</ele>
        <time>2018-08-29T13:12:22.937Z</time>
      </trkpt>
      <trkpt lat="48.0128069" lon="-1.7820629">
        <ele>18.061</ele>
        <time>2018-08-29T13:12:26.870Z</time>
      </trkpt>
      <trkpt lat="48.0128957" lon="-1.7819944">
        <ele>18.115</ele>
        <time>2018-08-29T13:12:30.851Z</time>
      </trkpt>
      <trkpt lat="48.0129850" lon="-1.7819241">
        <ele>18.153</ele>
        <time>2018-08-29T13:12:34.623Z</time>
      </trkpt>
      <trkpt lat="48.0130724" lon="-1.7818661">
        <ele>18.191</ele>
        <time>2018-08-29T13:12:38.124Z</time>
      </trkpt>
      <trkpt lat="48.0131819" lon="-1.7818017">
        <ele>18.202</ele>
        <time>2018-08-29T13:12:42.385Z</time>
      </trkpt>
      <trkpt lat="48.0132682" lon="-1.7817611">
        <ele>18.201</ele>
        <time>2018-08-29T13:12:45.636Z</time>
      </trkpt>
      <trkpt lat="48.0133567" lon="-1.7817255">
        <ele>18.216</ele>
        <time>2018-08-29T13:12:48.943Z</time>
      </trkpt>
      <trkpt lat="48.0134451" lon="-1.7816949">
        <ele>18.262</ele>
        <time>2018-08-29T13:12:52.259Z</time>
      </trkpt>
      <trkpt lat="48.0135618" lon="-1.7816610">
        <ele>18.284</ele>
        <time>2018-08-29T13:12:56.590Z</time>
      </trkpt>
      <trkpt lat="48.0136766" lon="-1.7816324">
        <ele>18.199</ele>
        <time>2018-08-29T13:13:00.903Z</time>
      </trkpt>
      <trkpt lat="48.0137700" lon="-1.7816184">
        <ele>17.985</ele>
        <time>2018-08-29T13:13:04.466Z</time>
      </trkpt>
      <trkpt lat="48.0138697" lon="-1.7816213">
        <ele>17.646</ele>
        <time>2018-08-29T13:13:08.272Z</time>
      </trkpt>
      <trkpt lat="48.0139597" lon="-1.7816507">
        <ele>17.307</ele>
        <time>2018-08-29T13:13:11.802Z</time>
      </trkpt>
      <trkpt lat="48.0140649" lon="-1.7817206">
        <ele>17.065</ele>
        <time>2018-08-29T13:13:16.244Z</time>
      </trkpt>
      <trkpt lat="48.0141551" lon="-1.7817886">
        <ele>16.924</ele>
        <time>2018-08-29T13:13:20.140Z</time>
      </trkpt>
      <trkpt lat="48.0142416" lon="-1.7818516">
        <ele>16.858</ele>
        <time>2018-08-29T13:13:23.793Z</time>
      </trkpt>
      <trkpt lat="48.0143490" lon="-1.7819256">
        <ele>16.843</ele>
        <time>2018-08-29T13:13:28.231Z</time>
      </trkpt>
      <trkpt lat="48.0144384" lon="-1.7819753">
        <ele>16.850</ele>
        <time>2018-08-29T13:13:31.932Z</time>
      </trkpt>
      <trkpt lat="48.0145234" lon="-1.7820245">
        <ele>16.840</ele>
        <time>2018-08-29T13:13:35.422Z</time>
      </trkpt>
      <trkpt lat="48.0146159" lon="-1.7820662">
        <ele>16.797</ele>
        <time>2018-08-29T13:13:38.992Z</time>
      </trkpt>
      <trkpt lat="48.0147076" lon="-1.7820927">
        <ele>16.716</ele>
        <time>2018-08-29T13:13:42.463Z</time>
      </trkpt>
      <trkpt lat="48.0148231" lon="-1.7821147">
        <ele>16.704</ele>
        <time>2018-08-29T13:13:46.876Z</time>
      </trkpt>
      <trkpt lat="48.0149348" lon="-1.7821276">
        <ele>16.843</ele>
        <time>2018-08-29T13:13:51.155Z</time>
      </trkpt>
      <trkpt lat="48.0150430" lon="-1.7821231">
        <ele>17.124</ele>
        <time>2018-08-29T13:13:55.327Z</time>
      </trkpt>
      <trkpt lat="48.0151400" lon="-1.7821175">
        <ele>17.560</ele>
        <time>2018-08-29T13:13:59.100Z</time>
      </trkpt>
      <trkpt lat="48.0152464" lon="-1.7820993">
        <ele>18.100</ele>
        <time>2018-08-29T13:14:03.339Z</time>
      </trkpt>
      <trkpt lat="48.0153378" lon="-1.7820843">
        <ele>18.553</ele>
        <time>2018-08-29T13:14:07.104Z</time>
      </trkpt>
      <trkpt lat="48.0154287" lon="-1.7820773">
        <ele>18.710</ele>
        <time>2018-08-29T13:14:10.994Z</time>
      </trkpt>
      <trkpt lat="48.0155262" lon="-1.7820624">
        <ele>18.501</ele>
        <time>2018-08-29T13:14:15.232Z</time>
      </trkpt>
      <trkpt lat="48.0156185" lon="-1.7820411">
        <ele>18.242</ele>
        <time>2018-08-29T13:14:19.065Z</time>
      </trkpt>
      <trkpt lat="48.0157070" lon="-1.7820156">
        <ele>18.092</ele>
        <time>2018-08-29T13:14:22.574Z</time>
      </trkpt>
      <trkpt lat="48.0158162" lon="-1.7819742">
        <ele>18.143</ele>
        <time>2018-08-29T13:14:26.814Z</time>
      </trkpt>
      <trkpt lat="48.0159152" lon="-1.7819294">
        <ele>18.370</ele>
        <time>2018-08-29T13:14:30.722Z</time>
      </trkpt>
      <trkpt lat="48.0160178" lon="-1.7818651">
        <ele>18.268</ele>
        <time>2018-08-29T13:14:35.069Z</time>
      </trkpt>
      <trkpt lat="48.0161167" lon="-1.7817987">
        <ele>18.047</ele>
        <time>2018-08-29T13:14:39.505Z</time>
      </trkpt>
      <trkpt lat="48.0162153" lon="-1.7817195">
        <ele>17.835</ele>
        <time>2018-08-29T13:14:44.184Z</time>
      </trkpt>
      <trkpt lat="48.0163123" lon="-1.7816277">
        <ele>17.704</ele>
        <time>2018-08-29T13:14:48.958Z</time>
      </trkpt>
      <trkpt lat="48.0164043" lon="-1.7815285">
        <ele>17.720</ele>
        <time>2018-08-29T13:14:53.576Z</time>
      </trkpt>
      <trkpt lat="48.0164779" lon="-1.7814477">
        <ele>17.952</ele>
        <time>2018-08-29T13:14:57.253Z</time>
      </trkpt>
      <trkpt lat="48.0165568" lon="-1.7813304">
        <ele>18.317</ele>
        <time>2018-08-29T13:15:01.673Z</time>
      </trkpt>
      <trkpt lat="48.0166220" lon="-1.7811920">
        <ele>18.629</ele>
        <time>2018-08-29T13:15:06.205Z</time>
      </trkpt>
      <trkpt lat="48.0166836" lon="-1.7810446">
        <ele>18.796</ele>
        <time>2018-08-29T13:15:10.925Z</time>
      </trkpt>
      <trkpt lat="48.0167451" lon="-1.7809050">
        <ele>18.831</ele>
        <time>2018-08-29T13:15:15.503Z</time>
      </trkpt>
      <trkpt lat="48.0168042" lon="-1.7807684">
        <ele>18.789</ele>
        <time>2018-08-29T13:15:20.000Z</time>
      </trkpt>
      <trkpt lat="48.0168042" lon="-1.7807684">
        <ele>18.744</ele>
        <time>2018-08-29T13:15:23.000Z</time>
      </trkpt>
      <trkpt lat="48.0168042" lon="-1.7807684">
        <ele>18.736</ele>
        <time>2018-08-29T13:16:45.884Z</time>
      </trkpt>
      <trkpt lat="48.0168635" lon="-1.7805991">
        <ele>18.745</ele>
        <time>2018-08-29T13:16:57.609Z</time>
      </trkpt>
      <trkpt lat="48.0169165" lon="-1.7804852">
        <ele>18.508</ele>
        <time>2018-08-29T13:17:01.959Z</time>
      </trkpt>
      <trkpt lat="48.0169647" lon="-1.7803716">
        <ele>17.868</ele>
        <time>2018-08-29T13:17:05.291Z</time>
      </trkpt>
      <trkpt lat="48.0170192" lon="-1.7802582">
        <ele>17.179</ele>
        <time>2018-08-29T13:17:08.442Z</time>
      </trkpt>
      <trkpt lat="48.0170902" lon="-1.7801131">
        <ele>16.883</ele>
        <time>2018-08-29T13:17:12.334Z</time>
      </trkpt>
      <trkpt lat="48.0171467" lon="-1.7800074">
        <ele>16.971</ele>
        <time>2018-08-29T13:17:15.289Z</time>
      </trkpt>
      <trkpt lat="48.0172219" lon="-1.7798872">
        <ele>17.167</ele>
        <time>2018-08-29T13:17:19.022Z</time>
      </trkpt>
      <trkpt lat="48.0172892" lon="-1.7797654">
        <ele>17.087</ele>
        <time>2018-08-29T13:17:22.726Z</time>
      </trkpt>
      <trkpt lat="48.0173652" lon="-1.7796448">
        <ele>16.638</ele>
        <time>2018-08-29T13:17:26.622Z</time>
      </trkpt>
      <trkpt lat="48.0174421" lon="-1.7795211">
        <ele>16.180</ele>
        <time>2018-08-29T13:17:30.509Z</time>
      </trkpt>
      <trkpt lat="48.0175317" lon="-1.7793965">
        <ele>16.037</ele>
        <time>2018-08-29T13:17:34.517Z</time>
      </trkpt>
      <trkpt lat="48.0176064" lon="-1.7792977">
        <ele>16.153</ele>
        <time>2018-08-29T13:17:37.638Z</time>
      </trkpt>
      <trkpt lat="48.0176810" lon="-1.7792042">
        <ele>16.481</ele>
        <time>2018-08-29T13:17:40.695Z</time>
      </trkpt>
      <trkpt lat="48.0177715" lon="-1.7791025">
        <ele>16.563</ele>
        <time>2018-08-29T13:17:44.325Z</time>
      </trkpt>
      <trkpt lat="48.0178366" lon="-1.7789989">
        <ele>16.652</ele>
        <time>2018-08-29T13:17:47.367Z</time>
      </trkpt>
      <trkpt lat="48.0179019" lon="-1.7788899">
        <ele>16.706</ele>
        <time>2018-08-29T13:17:50.461Z</time>
      </trkpt>
      <trkpt lat="48.0179688" lon="-1.7787906">
        <ele>16.675</ele>
        <time>2018-08-29T13:17:53.422Z</time>
      </trkpt>
      <trkpt lat="48.0180430" lon="-1.7787083">
        <ele>16.727</ele>
        <time>2018-08-29T13:17:56.331Z</time>
      </trkpt>
      <trkpt lat="48.0181411" lon="-1.7786116">
        <ele>16.956</ele>
        <time>2018-08-29T13:18:00.077Z</time>
      </trkpt>
      <trkpt lat="48.0182406" lon="-1.7785204">
        <ele>17.315</ele>
        <time>2018-08-29T13:18:03.831Z</time>
      </trkpt>
      <trkpt lat="48.0183425" lon="-1.7784266">
        <ele>17.624</ele>
        <time>2018-08-29T13:18:07.686Z</time>
      </trkpt>
      <trkpt lat="48.0184254" lon="-1.7783624">
        <ele>17.779</ele>
        <time>2018-08-29T13:18:10.668Z</time>
      </trkpt>
      <trkpt lat="48.0185041" lon="-1.7782910">
        <ele>17.784</ele>
        <time>2018-08-29T13:18:13.576Z</time>
      </trkpt>
      <trkpt lat="48.0185856" lon="-1.7782156">
        <ele>17.658</ele>
        <time>2018-08-29T13:18:16.562Z</time>
      </trkpt>
      <trkpt lat="48.0186700" lon="-1.7781394">
        <ele>17.476</ele>
        <time>2018-08-29T13:18:19.603Z</time>
      </trkpt>
      <trkpt lat="48.0187511" lon="-1.7780681">
        <ele>17.323</ele>
        <time>2018-08-29T13:18:22.480Z</time>
      </trkpt>
      <trkpt lat="48.0188329" lon="-1.7779905">
        <ele>17.216</ele>
        <time>2018-08-29T13:18:25.428Z</time>
      </trkpt>
      <trkpt lat="48.0189113" lon="-1.7779093">
        <ele>17.149</ele>
        <time>2018-08-29T13:18:28.341Z</time>
      </trkpt>
      <trkpt lat="48.0189859" lon="-1.7778281">
        <ele>17.140</ele>
        <time>2018-08-29T13:18:31.186Z</time>
      </trkpt>
      <trkpt lat="48.0190615" lon="-1.7777492">
        <ele>17.181</ele>
        <time>2018-08-29T13:18:34.077Z</time>
      </trkpt>
      <trkpt lat="48.0191611" lon="-1.7776527">
        <ele>17.216</ele>
        <time>2018-08-29T13:18:37.835Z</time>
      </trkpt>
      <trkpt lat="48.0192394" lon="-1.7775704">
        <ele>17.188</ele>
        <time>2018-08-29T13:18:40.860Z</time>
      </trkpt>
      <trkpt lat="48.0193185" lon="-1.7774883">
        <ele>17.108</ele>
        <time>2018-08-29T13:18:43.895Z</time>
      </trkpt>
      <trkpt lat="48.0194185" lon="-1.7773930">
        <ele>16.957</ele>
        <time>2018-08-29T13:18:47.666Z</time>
      </trkpt>
      <trkpt lat="48.0195212" lon="-1.7773022">
        <ele>16.719</ele>
        <time>2018-08-29T13:18:51.513Z</time>
      </trkpt>
      <trkpt lat="48.0196188" lon="-1.7772094">
        <ele>16.536</ele>
        <time>2018-08-29T13:18:55.266Z</time>
      </trkpt>
      <trkpt lat="48.0196982" lon="-1.7771335">
        <ele>16.529</ele>
        <time>2018-08-29T13:18:58.317Z</time>
      </trkpt>
      <trkpt lat="48.0197755" lon="-1.7770542">
        <ele>16.619</ele>
        <time>2018-08-29T13:19:01.352Z</time>
      </trkpt>
      <trkpt lat="48.0198662" lon="-1.7769536">
        <ele>16.646</ele>
        <time>2018-08-29T13:19:05.040Z</time>
      </trkpt>
      <trkpt lat="48.0199558" lon="-1.7768308">
        <ele>16.551</ele>
        <time>2018-08-29T13:19:09.036Z</time>
      </trkpt>
      <trkpt lat="48.0200302" lon="-1.7767027">
        <ele>16.521</ele>
        <time>2018-08-29T13:19:12.775Z</time>
      </trkpt>
      <trkpt lat="48.0200992" lon="-1.7765687">
        <ele>16.713</ele>
        <time>2018-08-29T13:19:16.561Z</time>
      </trkpt>
      <trkpt lat="48.0201722" lon="-1.7764480">
        <ele>16.986</ele>
        <time>2018-08-29T13:19:20.288Z</time>
      </trkpt>
      <trkpt lat="48.0202513" lon="-1.7763416">
        <ele>17.193</ele>
        <time>2018-08-29T13:19:24.037Z</time>
      </trkpt>
      <trkpt lat="48.0203427" lon="-1.7762465">
        <ele>17.375</ele>
        <time>2018-08-29T13:19:28.043Z</time>
      </trkpt>
      <trkpt lat="48.0204449" lon="-1.7761553">
        <ele>17.664</ele>
        <time>2018-08-29T13:19:32.261Z</time>
      </trkpt>
      <trkpt lat="48.0205348" lon="-1.7760435">
        <ele>17.739</ele>
        <time>2018-08-29T13:19:36.297Z</time>
      </trkpt>
      <trkpt lat="48.0206130" lon="-1.7759299">
        <ele>17.961</ele>
        <time>2018-08-29T13:19:40.059Z</time>
      </trkpt>
      <trkpt lat="48.0206853" lon="-1.7758102">
        <ele>18.109</ele>
        <time>2018-08-29T13:19:43.895Z</time>
      </trkpt>
      <trkpt lat="48.0207606" lon="-1.7757032">
        <ele>18.225</ele>
        <time>2018-08-29T13:19:47.700Z</time>
      </trkpt>
      <trkpt lat="48.0208274" lon="-1.7756041">
        <ele>18.247</ele>
        <time>2018-08-29T13:19:51.232Z</time>
      </trkpt>
      <trkpt lat="48.0209074" lon="-1.7754927">
        <ele>18.114</ele>
        <time>2018-08-29T13:19:55.354Z</time>
      </trkpt>
      <trkpt lat="48.0209848" lon="-1.7753737">
        <ele>17.848</ele>
        <time>2018-08-29T13:19:59.453Z</time>
      </trkpt>
      <trkpt lat="48.0210557" lon="-1.7752826">
        <ele>17.596</ele>
        <time>2018-08-29T13:20:02.785Z</time>
      </trkpt>
      <trkpt lat="48.0211352" lon="-1.7752032">
        <ele>17.451</ele>
        <time>2018-08-29T13:20:06.000Z</time>
      </trkpt>
      <trkpt lat="48.0211352" lon="-1.7752032">
        <ele>17.454</ele>
        <time>2018-08-29T13:20:06.000Z</time>
      </trkpt>
      <trkpt lat="48.0211352" lon="-1.7752032">
        <ele>17.442</ele>
        <time>2018-08-29T13:20:06.100Z</time>
      </trkpt>
      <trkpt lat="48.0212576" lon="-1.7750823">
        <ele>17.433</ele>
        <time>2018-08-29T13:20:13.229Z</time>
      </trkpt>
      <trkpt lat="48.0213371" lon="-1.7750159">
        <ele>17.283</ele>
        <time>2018-08-29T13:20:16.341Z</time>
      </trkpt>
      <trkpt lat="48.0214403" lon="-1.7749511">
        <ele>16.862</ele>
        <time>2018-08-29T13:20:20.274Z</time>
      </trkpt>
      <trkpt lat="48.0215393" lon="-1.7749217">
        <ele>16.367</ele>
        <time>2018-08-29T13:20:23.932Z</time>
      </trkpt>
      <trkpt lat="48.0216355" lon="-1.7748881">
        <ele>16.155</ele>
        <time>2018-08-29T13:20:27.572Z</time>
      </trkpt>
      <trkpt lat="48.0217315" lon="-1.7748393">
        <ele>16.361</ele>
        <time>2018-08-29T13:20:31.322Z</time>
      </trkpt>
      <trkpt lat="48.0218232" lon="-1.7748038">
        <ele>16.588</ele>
        <time>2018-08-29T13:20:34.822Z</time>
      </trkpt>
      <trkpt lat="48.0219323" lon="-1.7747790">
        <ele>16.772</ele>
        <time>2018-08-29T13:20:39.029Z</time>
      </trkpt>
      <trkpt lat="48.0220382" lon="-1.7747275">
        <ele>16.875</ele>
        <time>2018-08-29T13:20:43.291Z</time>
      </trkpt>
      <trkpt lat="48.0221403" lon="-1.7746621">
        <ele>16.885</ele>
        <time>2018-08-29T13:20:47.328Z</time>
      </trkpt>
      <trkpt lat="48.0222358" lon="-1.7746107">
        <ele>16.820</ele>
        <time>2018-08-29T13:20:50.791Z</time>
      </trkpt>
      <trkpt lat="48.0223311" lon="-1.7745601">
        <ele>16.735</ele>
        <time>2018-08-29T13:20:54.000Z</time>
      </trkpt>
      <trkpt lat="48.0223311" lon="-1.7745601">
        <ele>16.685</ele>
        <time>2018-08-29T13:20:55.000Z</time>
      </trkpt>
      <trkpt lat="48.0223311" lon="-1.7745601">
        <ele>16.677</ele>
        <time>2018-08-29T13:20:55.100Z</time>
      </trkpt>
      <trkpt lat="48.0225182" lon="-1.7745316">
        <ele>16.687</ele>
        <time>2018-08-29T13:21:04.060Z</time>
      </trkpt>
      <trkpt lat="48.0226061" lon="-1.7744999">
        <ele>16.758</ele>
        <time>2018-08-29T13:21:07.123Z</time>
      </trkpt>
      <trkpt lat="48.0227166" lon="-1.7744379">
        <ele>16.952</ele>
        <time>2018-08-29T13:21:11.002Z</time>
      </trkpt>
      <trkpt lat="48.0228273" lon="-1.7743900">
        <ele>17.206</ele>
        <time>2018-08-29T13:21:14.819Z</time>
      </trkpt>
      <trkpt lat="48.0229184" lon="-1.7743350">
        <ele>17.409</ele>
        <time>2018-08-29T13:21:18.451Z</time>
      </trkpt>
      <trkpt lat="48.0229999" lon="-1.7742746">
        <ele>17.291</ele>
        <time>2018-08-29T13:21:22.150Z</time>
      </trkpt>
      <trkpt lat="48.0231057" lon="-1.7742186">
        <ele>16.992</ele>
        <time>2018-08-29T13:21:27.108Z</time>
      </trkpt>
      <trkpt lat="48.0231843" lon="-1.7741284">
        <ele>17.042</ele>
        <time>2018-08-29T13:21:31.428Z</time>
      </trkpt>
      <trkpt lat="48.0232648" lon="-1.7740394">
        <ele>17.142</ele>
        <time>2018-08-29T13:21:35.483Z</time>
      </trkpt>
      <trkpt lat="48.0233563" lon="-1.7739371">
        <ele>17.186</ele>
        <time>2018-08-29T13:21:39.703Z</time>
      </trkpt>
      <trkpt lat="48.0234583" lon="-1.7738365">
        <ele>17.182</ele>
        <time>2018-08-29T13:21:43.786Z</time>
      </trkpt>
      <trkpt lat="48.0235586" lon="-1.7737428">
        <ele>17.190</ele>
        <time>2018-08-29T13:21:47.438Z</time>
      </trkpt>
      <trkpt lat="48.0236456" lon="-1.7736659">
        <ele>17.241</ele>
        <time>2018-08-29T13:21:50.544Z</time>
      </trkpt>
      <trkpt lat="48.0237424" lon="-1.7735886">
        <ele>17.300</ele>
        <time>2018-08-29T13:21:53.857Z</time>
      </trkpt>
      <trkpt lat="48.0238469" lon="-1.7735090">
        <ele>17.285</ele>
        <time>2018-08-29T13:21:57.305Z</time>
      </trkpt>
      <trkpt lat="48.0239473" lon="-1.7734240">
        <ele>17.174</ele>
        <time>2018-08-29T13:22:00.673Z</time>
      </trkpt>
      <trkpt lat="48.0240377" lon="-1.7733337">
        <ele>17.062</ele>
        <time>2018-08-29T13:22:03.911Z</time>
      </trkpt>
      <trkpt lat="48.0241187" lon="-1.7732537">
        <ele>17.085</ele>
        <time>2018-08-29T13:22:06.879Z</time>
      </trkpt>
      <trkpt lat="48.0241996" lon="-1.7731761">
        <ele>17.196</ele>
        <time>2018-08-29T13:22:09.883Z</time>
      </trkpt>
      <trkpt lat="48.0242807" lon="-1.7731113">
        <ele>17.362</ele>
        <time>2018-08-29T13:22:12.787Z</time>
      </trkpt>
      <trkpt lat="48.0243892" lon="-1.7730386">
        <ele>17.581</ele>
        <time>2018-08-29T13:22:16.547Z</time>
      </trkpt>
      <trkpt lat="48.0244731" lon="-1.7729648">
        <ele>17.899</ele>
        <time>2018-08-29T13:22:19.653Z</time>
      </trkpt>
      <trkpt lat="48.0245614" lon="-1.7728733">
        <ele>17.923</ele>
        <time>2018-08-29T13:22:23.293Z</time>
      </trkpt>
      <trkpt lat="48.0246436" lon="-1.7728135">
        <ele>17.942</ele>
        <time>2018-08-29T13:22:26.638Z</time>
      </trkpt>
      <trkpt lat="48.0247567" lon="-1.7728015">
        <ele>18.004</ele>
        <time>2018-08-29T13:22:30.799Z</time>
      </trkpt>
      <trkpt lat="48.0248735" lon="-1.7727900">
        <ele>18.066</ele>
        <time>2018-08-29T13:22:34.982Z</time>
      </trkpt>
      <trkpt lat="48.0249830" lon="-1.7727871">
        <ele>18.084</ele>
        <time>2018-08-29T13:22:38.790Z</time>
      </trkpt>
      <trkpt lat="48.0250945" lon="-1.7727711">
        <ele>17.998</ele>
        <time>2018-08-29T13:22:42.696Z</time>
      </trkpt>
      <trkpt lat="48.0251959" lon="-1.7727824">
        <ele>17.586</ele>
        <time>2018-08-29T13:22:46.338Z</time>
      </trkpt>
      <trkpt lat="48.0253021" lon="-1.7727843">
        <ele>17.440</ele>
        <time>2018-08-29T13:22:50.306Z</time>
      </trkpt>
      <trkpt lat="48.0254087" lon="-1.7727772">
        <ele>17.229</ele>
        <time>2018-08-29T13:22:54.612Z</time>
      </trkpt>
      <trkpt lat="48.0255062" lon="-1.7727926">
        <ele>16.865</ele>
        <time>2018-08-29T13:22:58.877Z</time>
      </trkpt>
      <trkpt lat="48.0256023" lon="-1.7728013">
        <ele>16.431</ele>
        <time>2018-08-29T13:23:03.007Z</time>
      </trkpt>
      <trkpt lat="48.0257041" lon="-1.7728011">
        <ele>16.110</ele>
        <time>2018-08-29T13:23:06.626Z</time>
      </trkpt>
      <trkpt lat="48.0258339" lon="-1.7727956">
        <ele>15.965</ele>
        <time>2018-08-29T13:23:10.556Z</time>
      </trkpt>
      <trkpt lat="48.0259491" lon="-1.7727601">
        <ele>15.917</ele>
        <time>2018-08-29T13:23:14.005Z</time>
      </trkpt>
      <trkpt lat="48.0260655" lon="-1.7727487">
        <ele>16.006</ele>
        <time>2018-08-29T13:23:17.565Z</time>
      </trkpt>
      <trkpt lat="48.0261783" lon="-1.7727289">
        <ele>16.382</ele>
        <time>2018-08-29T13:23:21.233Z</time>
      </trkpt>
      <trkpt lat="48.0262961" lon="-1.7727306">
        <ele>17.069</ele>
        <time>2018-08-29T13:23:25.107Z</time>
      </trkpt>
      <trkpt lat="48.0263952" lon="-1.7727356">
        <ele>17.920</ele>
        <time>2018-08-29T13:23:28.303Z</time>
      </trkpt>
      <trkpt lat="48.0265089" lon="-1.7727530">
        <ele>18.731</ele>
        <time>2018-08-29T13:23:32.039Z</time>
      </trkpt>
      <trkpt lat="48.0266168" lon="-1.7727788">
        <ele>19.288</ele>
        <time>2018-08-29T13:23:35.761Z</time>
      </trkpt>
      <trkpt lat="48.0267116" lon="-1.7727974">
        <ele>19.436</ele>
        <time>2018-08-29T13:23:39.170Z</time>
      </trkpt>
      <trkpt lat="48.0268133" lon="-1.7728061">
        <ele>19.176</ele>
        <time>2018-08-29T13:23:42.940Z</time>
      </trkpt>
      <trkpt lat="48.0269156" lon="-1.7728215">
        <ele>18.729</ele>
        <time>2018-08-29T13:23:46.834Z</time>
      </trkpt>
      <trkpt lat="48.0270105" lon="-1.7728397">
        <ele>18.353</ele>
        <time>2018-08-29T13:23:50.503Z</time>
      </trkpt>
      <trkpt lat="48.0271093" lon="-1.7728451">
        <ele>18.078</ele>
        <time>2018-08-29T13:23:54.340Z</time>
      </trkpt>
      <trkpt lat="48.0272081" lon="-1.7728491">
        <ele>17.844</ele>
        <time>2018-08-29T13:23:58.190Z</time>
      </trkpt>
      <trkpt lat="48.0273260" lon="-1.7728442">
        <ele>17.781</ele>
        <time>2018-08-29T13:24:02.620Z</time>
      </trkpt>
      <trkpt lat="48.0274170" lon="-1.7728306">
        <ele>17.982</ele>
        <time>2018-08-29T13:24:05.856Z</time>
      </trkpt>
      <trkpt lat="48.0275139" lon="-1.7728159">
        <ele>18.208</ele>
        <time>2018-08-29T13:24:09.222Z</time>
      </trkpt>
      <trkpt lat="48.0276200" lon="-1.7728274">
        <ele>18.245</ele>
        <time>2018-08-29T13:24:13.000Z</time>
      </trkpt>
      <trkpt lat="48.0276200" lon="-1.7728274">
        <ele>18.170</ele>
        <time>2018-08-29T13:24:14.000Z</time>
      </trkpt>
      <trkpt lat="48.0276200" lon="-1.7728274">
        <ele>18.117</ele>
        <time>2018-08-29T13:24:14.100Z</time>
      </trkpt>
      <trkpt lat="48.0277972" lon="-1.7728106">
        <ele>18.123</ele>
        <time>2018-08-29T13:24:22.828Z</time>
      </trkpt>
      <trkpt lat="48.0278904" lon="-1.7727930">
        <ele>18.203</ele>
        <time>2018-08-29T13:24:26.066Z</time>
      </trkpt>
      <trkpt lat="48.0279804" lon="-1.7727784">
        <ele>18.338</ele>
        <time>2018-08-29T13:24:29.195Z</time>
      </trkpt>
      <trkpt lat="48.0280955" lon="-1.7727699">
        <ele>18.498</ele>
        <time>2018-08-29T13:24:33.229Z</time>
      </trkpt>
      <trkpt lat="48.0282048" lon="-1.7727744">
        <ele>18.776</ele>
        <time>2018-08-29T13:24:37.252Z</time>
      </trkpt>
      <trkpt lat="48.0283047" lon="-1.7727807">
        <ele>19.316</ele>
        <time>2018-08-29T13:24:41.108Z</time>
      </trkpt>
      <trkpt lat="48.0284104" lon="-1.7727968">
        <ele>20.075</ele>
        <time>2018-08-29T13:24:45.388Z</time>
      </trkpt>
      <trkpt lat="48.0285181" lon="-1.7728177">
        <ele>21.241</ele>
        <time>2018-08-29T13:24:50.115Z</time>
      </trkpt>
      <trkpt lat="48.0286125" lon="-1.7728407">
        <ele>21.467</ele>
        <time>2018-08-29T13:24:54.822Z</time>
      </trkpt>
      <trkpt lat="48.0287188" lon="-1.7728342">
        <ele>21.546</ele>
        <time>2018-08-29T13:25:00.638Z</time>
      </trkpt>
      <trkpt lat="48.0288113" lon="-1.7728472">
        <ele>21.539</ele>
        <time>2018-08-29T13:25:07.286Z</time>
      </trkpt>
      <trkpt lat="48.0289040" lon="-1.7728641">
        <ele>21.458</ele>
        <time>2018-08-29T13:25:15.000Z</time>
      </trkpt>
      <trkpt lat="48.0289040" lon="-1.7728641">
        <ele>21.310</ele>
        <time>2018-08-29T13:25:25.000Z</time>
      </trkpt>
      <trkpt lat="48.0289040" lon="-1.7728641">
        <ele>21.201</ele>
        <time>2018-08-29T13:25:25.100Z</time>
      </trkpt>
      <trkpt lat="48.0291481" lon="-1.7728589">
        <ele>21.196</ele>
        <time>2018-08-29T13:25:34.514Z</time>
      </trkpt>
      <trkpt lat="48.0292874" lon="-1.7728771">
        <ele>21.021</ele>
        <time>2018-08-29T13:25:37.424Z</time>
      </trkpt>
      <trkpt lat="48.0293972" lon="-1.7728842">
        <ele>20.472</ele>
        <time>2018-08-29T13:25:39.836Z</time>
      </trkpt>
      <trkpt lat="48.0295421" lon="-1.7728901">
        <ele>19.871</ele>
        <time>2018-08-29T13:25:43.460Z</time>
      </trkpt>
      <trkpt lat="48.0296627" lon="-1.7728994">
        <ele>19.564</ele>
        <time>2018-08-29T13:25:46.999Z</time>
      </trkpt>
      <trkpt lat="48.0297665" lon="-1.7728969">
        <ele>19.503</ele>
        <time>2018-08-29T13:25:50.332Z</time>
      </trkpt>
      <trkpt lat="48.0298583" lon="-1.7728962">
        <ele>19.546</ele>
        <time>2018-08-29T13:25:53.278Z</time>
      </trkpt>
      <trkpt lat="48.0299532" lon="-1.7728966">
        <ele>19.589</ele>
        <time>2018-08-29T13:25:56.241Z</time>
      </trkpt>
      <trkpt lat="48.0300487" lon="-1.7728935">
        <ele>19.563</ele>
        <time>2018-08-29T13:25:59.133Z</time>
      </trkpt>
      <trkpt lat="48.0301448" lon="-1.7728607">
        <ele>19.388</ele>
        <time>2018-08-29T13:26:02.067Z</time>
      </trkpt>
      <trkpt lat="48.0302437" lon="-1.7728692">
        <ele>19.067</ele>
        <time>2018-08-29T13:26:05.232Z</time>
      </trkpt>
      <trkpt lat="48.0303445" lon="-1.7728807">
        <ele>18.720</ele>
        <time>2018-08-29T13:26:08.981Z</time>
      </trkpt>
      <trkpt lat="48.0304552" lon="-1.7728905">
        <ele>18.460</ele>
        <time>2018-08-29T13:26:13.348Z</time>
      </trkpt>
      <trkpt lat="48.0305640" lon="-1.7729423">
        <ele>18.355</ele>
        <time>2018-08-29T13:26:17.655Z</time>
      </trkpt>
      <trkpt lat="48.0306830" lon="-1.7729473">
        <ele>18.409</ele>
        <time>2018-08-29T13:26:22.052Z</time>
      </trkpt>
      <trkpt lat="48.0307729" lon="-1.7729384">
        <ele>18.517</ele>
        <time>2018-08-29T13:26:25.537Z</time>
      </trkpt>
      <trkpt lat="48.0308814" lon="-1.7729436">
        <ele>18.647</ele>
        <time>2018-08-29T13:26:29.728Z</time>
      </trkpt>
      <trkpt lat="48.0309945" lon="-1.7729394">
        <ele>18.851</ele>
        <time>2018-08-29T13:26:33.987Z</time>
      </trkpt>
      <trkpt lat="48.0311090" lon="-1.7729493">
        <ele>19.082</ele>
        <time>2018-08-29T13:26:38.271Z</time>
      </trkpt>
      <trkpt lat="48.0312054" lon="-1.7729718">
        <ele>19.241</ele>
        <time>2018-08-29T13:26:41.864Z</time>
      </trkpt>
      <trkpt lat="48.0313092" lon="-1.7729631">
        <ele>19.254</ele>
        <time>2018-08-29T13:26:45.549Z</time>
      </trkpt>
      <trkpt lat="48.0314252" lon="-1.7729480">
        <ele>19.124</ele>
        <time>2018-08-29T13:26:49.648Z</time>
      </trkpt>
      <trkpt lat="48.0315422" lon="-1.7729589">
        <ele>19.037</ele>
        <time>2018-08-29T13:26:53.690Z</time>
      </trkpt>
      <trkpt lat="48.0316439" lon="-1.7729722">
        <ele>19.190</ele>
        <time>2018-08-29T13:26:56.969Z</time>
      </trkpt>
      <trkpt lat="48.0317428" lon="-1.7729786">
        <ele>19.502</ele>
        <time>2018-08-29T13:26:59.971Z</time>
      </trkpt>
      <trkpt lat="48.0318526" lon="-1.7729804">
        <ele>19.673</ele>
        <time>2018-08-29T13:27:03.177Z</time>
      </trkpt>
      <trkpt lat="48.0319568" lon="-1.7729765">
        <ele>19.511</ele>
        <time>2018-08-29T13:27:06.191Z</time>
      </trkpt>
      <trkpt lat="48.0320624" lon="-1.7729715">
        <ele>19.350</ele>
        <time>2018-08-29T13:27:09.315Z</time>
      </trkpt>
      <trkpt lat="48.0321624" lon="-1.7729721">
        <ele>19.209</ele>
        <time>2018-08-29T13:27:12.374Z</time>
      </trkpt>
      <trkpt lat="48.0322567" lon="-1.7729765">
        <ele>19.030</ele>
        <time>2018-08-29T13:27:15.342Z</time>
      </trkpt>
      <trkpt lat="48.0323750" lon="-1.7729828">
        <ele>18.969</ele>
        <time>2018-08-29T13:27:19.060Z</time>
      </trkpt>
      <trkpt lat="48.0324789" lon="-1.7729873">
        <ele>18.914</ele>
        <time>2018-08-29T13:27:22.286Z</time>
      </trkpt>
      <trkpt lat="48.0325750" lon="-1.7729949">
        <ele>18.855</ele>
        <time>2018-08-29T13:27:25.247Z</time>
      </trkpt>
      <trkpt lat="48.0326729" lon="-1.7730098">
        <ele>18.780</ele>
        <time>2018-08-29T13:27:28.262Z</time>
      </trkpt>
      <trkpt lat="48.0327664" lon="-1.7730314">
        <ele>18.714</ele>
        <time>2018-08-29T13:27:31.144Z</time>
      </trkpt>
      <trkpt lat="48.0328664" lon="-1.7730511">
        <ele>18.680</ele>
        <time>2018-08-29T13:27:34.189Z</time>
      </trkpt>
      <trkpt lat="48.0329665" lon="-1.7730688">
        <ele>18.674</ele>
        <time>2018-08-29T13:27:37.226Z</time>
      </trkpt>
      <trkpt lat="48.0330689" lon="-1.7730827">
        <ele>18.688</ele>
        <time>2018-08-29T13:27:40.334Z</time>
      </trkpt>
      <trkpt lat="48.0331701" lon="-1.7730904">
        <ele>18.707</ele>
        <time>2018-08-29T13:27:43.399Z</time>
      </trkpt>
      <trkpt lat="48.0332658" lon="-1.7730929">
        <ele>18.631</ele>
        <time>2018-08-29T13:27:46.312Z</time>
      </trkpt>
      <trkpt lat="48.0333701" lon="-1.7730956">
        <ele>18.389</ele>
        <time>2018-08-29T13:27:49.529Z</time>
      </trkpt>
      <trkpt lat="48.0334652" lon="-1.7731251">
        <ele>18.121</ele>
        <time>2018-08-29T13:27:52.527Z</time>
      </trkpt>
      <trkpt lat="48.0335568" lon="-1.7731566">
        <ele>17.979</ele>
        <time>2018-08-29T13:27:55.370Z</time>
      </trkpt>
      <trkpt lat="48.0336487" lon="-1.7731741">
        <ele>17.966</ele>
        <time>2018-08-29T13:27:58.155Z</time>
      </trkpt>
      <trkpt lat="48.0337494" lon="-1.7731920">
        <ele>18.051</ele>
        <time>2018-08-29T13:28:01.249Z</time>
      </trkpt>
      <trkpt lat="48.0338502" lon="-1.7732070">
        <ele>18.207</ele>
        <time>2018-08-29T13:28:04.443Z</time>
      </trkpt>
      <trkpt lat="48.0339611" lon="-1.7732514">
        <ele>18.374</ele>
        <time>2018-08-29T13:28:08.049Z</time>
      </trkpt>
      <trkpt lat="48.0340558" lon="-1.7732884">
        <ele>18.433</ele>
        <time>2018-08-29T13:28:11.073Z</time>
      </trkpt>
      <trkpt lat="48.0341488" lon="-1.7733401">
        <ele>18.305</ele>
        <time>2018-08-29T13:28:14.108Z</time>
      </trkpt>
      <trkpt lat="48.0342376" lon="-1.7734062">
        <ele>18.075</ele>
        <time>2018-08-29T13:28:17.135Z</time>
      </trkpt>
      <trkpt lat="48.0343285" lon="-1.7734606">
        <ele>17.882</ele>
        <time>2018-08-29T13:28:20.099Z</time>
      </trkpt>
      <trkpt lat="48.0344199" lon="-1.7735248">
        <ele>17.767</ele>
        <time>2018-08-29T13:28:23.125Z</time>
      </trkpt>
      <trkpt lat="48.0345051" lon="-1.7736042">
        <ele>17.730</ele>
        <time>2018-08-29T13:28:26.111Z</time>
      </trkpt>
      <trkpt lat="48.0345906" lon="-1.7736918">
        <ele>17.771</ele>
        <time>2018-08-29T13:28:29.152Z</time>
      </trkpt>
      <trkpt lat="48.0346632" lon="-1.7737847">
        <ele>17.842</ele>
        <time>2018-08-29T13:28:31.902Z</time>
      </trkpt>
      <trkpt lat="48.0347412" lon="-1.7738814">
        <ele>17.896</ele>
        <time>2018-08-29T13:28:34.788Z</time>
      </trkpt>
      <trkpt lat="48.0348190" lon="-1.7739918">
        <ele>17.923</ele>
        <time>2018-08-29T13:28:37.869Z</time>
      </trkpt>
      <trkpt lat="48.0348791" lon="-1.7741145">
        <ele>17.888</ele>
        <time>2018-08-29T13:28:40.838Z</time>
      </trkpt>
      <trkpt lat="48.0349304" lon="-1.7742378">
        <ele>17.724</ele>
        <time>2018-08-29T13:28:43.669Z</time>
      </trkpt>
      <trkpt lat="48.0349808" lon="-1.7743665">
        <ele>17.407</ele>
        <time>2018-08-29T13:28:46.545Z</time>
      </trkpt>
      <trkpt lat="48.0350440" lon="-1.7744908">
        <ele>17.028</ele>
        <time>2018-08-29T13:28:49.565Z</time>
      </trkpt>
      <trkpt lat="48.0351033" lon="-1.7746191">
        <ele>16.742</ele>
        <time>2018-08-29T13:28:52.631Z</time>
      </trkpt>
      <trkpt lat="48.0351609" lon="-1.7747309">
        <ele>16.620</ele>
        <time>2018-08-29T13:28:55.402Z</time>
      </trkpt>
      <trkpt lat="48.0352200" lon="-1.7748477">
        <ele>16.638</ele>
        <time>2018-08-29T13:28:58.286Z</time>
      </trkpt>
      <trkpt lat="48.0352757" lon="-1.7749755">
        <ele>16.764</ele>
        <time>2018-08-29T13:29:01.341Z</time>
      </trkpt>
      <trkpt lat="48.0353461" lon="-1.7750692">
        <ele>16.926</ele>
        <time>2018-08-29T13:29:04.186Z</time>
      </trkpt>
      <trkpt lat="48.0354238" lon="-1.7751583">
        <ele>17.044</ele>
        <time>2018-08-29T13:29:07.160Z</time>
      </trkpt>
      <trkpt lat="48.0355110" lon="-1.7752216">
        <ele>17.094</ele>
        <time>2018-08-29T13:29:10.264Z</time>
      </trkpt>
      <trkpt lat="48.0356060" lon="-1.7752507">
        <ele>17.106</ele>
        <time>2018-08-29T13:29:13.542Z</time>
      </trkpt>
      <trkpt lat="48.0357062" lon="-1.7752536">
        <ele>17.169</ele>
        <time>2018-08-29T13:29:16.994Z</time>
      </trkpt>
      <trkpt lat="48.0357943" lon="-1.7752126">
        <ele>17.413</ele>
        <time>2018-08-29T13:29:20.123Z</time>
      </trkpt>
      <trkpt lat="48.0359023" lon="-1.7751430">
        <ele>17.822</ele>
        <time>2018-08-29T13:29:23.981Z</time>
      </trkpt>
      <trkpt lat="48.0359845" lon="-1.7750879">
        <ele>18.187</ele>
        <time>2018-08-29T13:29:26.741Z</time>
      </trkpt>
      <trkpt lat="48.0360773" lon="-1.7750530">
        <ele>18.347</ele>
        <time>2018-08-29T13:29:29.575Z</time>
      </trkpt>
      <trkpt lat="48.0361796" lon="-1.7749656">
        <ele>18.291</ele>
        <time>2018-08-29T13:29:33.129Z</time>
      </trkpt>
      <trkpt lat="48.0362549" lon="-1.7748731">
        <ele>18.080</ele>
        <time>2018-08-29T13:29:36.227Z</time>
      </trkpt>
      <trkpt lat="48.0363389" lon="-1.7748040">
        <ele>17.779</ele>
        <time>2018-08-29T13:29:39.336Z</time>
      </trkpt>
      <trkpt lat="48.0364395" lon="-1.7747356">
        <ele>17.421</ele>
        <time>2018-08-29T13:29:43.018Z</time>
      </trkpt>
      <trkpt lat="48.0365295" lon="-1.7746820">
        <ele>17.078</ele>
        <time>2018-08-29T13:29:46.335Z</time>
      </trkpt>
      <trkpt lat="48.0366398" lon="-1.7746584">
        <ele>16.795</ele>
        <time>2018-08-29T13:29:50.110Z</time>
      </trkpt>
      <trkpt lat="48.0367574" lon="-1.7746985">
        <ele>16.521</ele>
        <time>2018-08-29T13:29:53.915Z</time>
      </trkpt>
      <trkpt lat="48.0368610" lon="-1.7747197">
        <ele>16.271</ele>
        <time>2018-08-29T13:29:57.035Z</time>
      </trkpt>
      <trkpt lat="48.0369583" lon="-1.7747574">
        <ele>16.138</ele>
        <time>2018-08-29T13:30:00.009Z</time>
      </trkpt>
      <trkpt lat="48.0370466" lon="-1.7748167">
        <ele>16.144</ele>
        <time>2018-08-29T13:30:02.927Z</time>
      </trkpt>
      <trkpt lat="48.0371397" lon="-1.7748770">
        <ele>16.305</ele>
        <time>2018-08-29T13:30:06.029Z</time>
      </trkpt>
      <trkpt lat="48.0372171" lon="-1.7749465">
        <ele>16.595</ele>
        <time>2018-08-29T13:30:08.811Z</time>
      </trkpt>
      <trkpt lat="48.0373041" lon="-1.7750206">
        <ele>16.796</ele>
        <time>2018-08-29T13:30:12.062Z</time>
      </trkpt>
      <trkpt lat="48.0373872" lon="-1.7750766">
        <ele>16.715</ele>
        <time>2018-08-29T13:30:15.164Z</time>
      </trkpt>
      <trkpt lat="48.0374710" lon="-1.7751641">
        <ele>16.443</ele>
        <time>2018-08-29T13:30:18.759Z</time>
      </trkpt>
      <trkpt lat="48.0375660" lon="-1.7752553">
        <ele>16.206</ele>
        <time>2018-08-29T13:30:22.811Z</time>
      </trkpt>
      <trkpt lat="48.0376624" lon="-1.7753376">
        <ele>16.170</ele>
        <time>2018-08-29T13:30:26.857Z</time>
      </trkpt>
      <trkpt lat="48.0377506" lon="-1.7754218">
        <ele>16.331</ele>
        <time>2018-08-29T13:30:30.664Z</time>
      </trkpt>
      <trkpt lat="48.0378486" lon="-1.7754961">
        <ele>16.572</ele>
        <time>2018-08-29T13:30:34.591Z</time>
      </trkpt>
      <trkpt lat="48.0379492" lon="-1.7755684">
        <ele>16.805</ele>
        <time>2018-08-29T13:30:38.487Z</time>
      </trkpt>
      <trkpt lat="48.0380557" lon="-1.7756343">
        <ele>16.995</ele>
        <time>2018-08-29T13:30:42.355Z</time>
      </trkpt>
      <trkpt lat="48.0381444" lon="-1.7756828">
        <ele>17.100</ele>
        <time>2018-08-29T13:30:45.490Z</time>
      </trkpt>
      <trkpt lat="48.0382335" lon="-1.7757383">
        <ele>17.111</ele>
        <time>2018-08-29T13:30:48.731Z</time>
      </trkpt>
      <trkpt lat="48.0383275" lon="-1.7758141">
        <ele>17.059</ele>
        <time>2018-08-29T13:30:52.394Z</time>
      </trkpt>
      <trkpt lat="48.0384283" lon="-1.7758728">
        <ele>16.948</ele>
        <time>2018-08-29T13:30:56.183Z</time>
      </trkpt>
      <trkpt lat="48.0385259" lon="-1.7759286">
        <ele>16.722</ele>
        <time>2018-08-29T13:30:59.852Z</time>
      </trkpt>
      <trkpt lat="48.0386093" lon="-1.7759849">
        <ele>16.430</ele>
        <time>2018-08-29T13:31:03.124Z</time>
      </trkpt>
      <trkpt lat="48.0387067" lon="-1.7760452">
        <ele>16.231</ele>
        <time>2018-08-29T13:31:07.027Z</time>
      </trkpt>
      <trkpt lat="48.0388151" lon="-1.7760886">
        <ele>16.196</ele>
        <time>2018-08-29T13:31:11.614Z</time>
      </trkpt>
      <trkpt lat="48.0389144" lon="-1.7761244">
        <ele>16.249</ele>
        <time>2018-08-29T13:31:16.203Z</time>
      </trkpt>
      <trkpt lat="48.0390127" lon="-1.7761580">
        <ele>16.339</ele>
        <time>2018-08-29T13:31:20.896Z</time>
      </trkpt>
      <trkpt lat="48.0391090" lon="-1.7761564">
        <ele>16.448</ele>
        <time>2018-08-29T13:31:25.015Z</time>
      </trkpt>
      <trkpt lat="48.0392294" lon="-1.7761535">
        <ele>16.553</ele>
        <time>2018-08-29T13:31:29.534Z</time>
      </trkpt>
      <trkpt lat="48.0393361" lon="-1.7761564">
        <ele>16.613</ele>
        <time>2018-08-29T13:31:33.421Z</time>
      </trkpt>
      <trkpt lat="48.0394349" lon="-1.7761664">
        <ele>16.627</ele>
        <time>2018-08-29T13:31:37.236Z</time>
      </trkpt>
      <trkpt lat="48.0395365" lon="-1.7761653">
        <ele>16.641</ele>
        <time>2018-08-29T13:31:41.324Z</time>
      </trkpt>
      <trkpt lat="48.0396488" lon="-1.7761701">
        <ele>16.672</ele>
        <time>2018-08-29T13:31:45.671Z</time>
      </trkpt>
      <trkpt lat="48.0397396" lon="-1.7761701">
        <ele>16.677</ele>
        <time>2018-08-29T13:31:48.917Z</time>
      </trkpt>
      <trkpt lat="48.0398303" lon="-1.7761824">
        <ele>16.647</ele>
        <time>2018-08-29T13:31:52.063Z</time>
      </trkpt>
      <trkpt lat="48.0399338" lon="-1.7761915">
        <ele>16.658</ele>
        <time>2018-08-29T13:31:55.560Z</time>
      </trkpt>
      <trkpt lat="48.0400298" lon="-1.7761889">
        <ele>16.819</ele>
        <time>2018-08-29T13:31:58.774Z</time>
      </trkpt>
      <trkpt lat="48.0401391" lon="-1.7762068">
        <ele>17.109</ele>
        <time>2018-08-29T13:32:02.464Z</time>
      </trkpt>
      <trkpt lat="48.0402557" lon="-1.7762438">
        <ele>17.400</ele>
        <time>2018-08-29T13:32:06.388Z</time>
      </trkpt>
      <trkpt lat="48.0403636" lon="-1.7762627">
        <ele>17.698</ele>
        <time>2018-08-29T13:32:09.759Z</time>
      </trkpt>
      <trkpt lat="48.0404806" lon="-1.7762485">
        <ele>18.041</ele>
        <time>2018-08-29T13:32:13.255Z</time>
      </trkpt>
      <trkpt lat="48.0405904" lon="-1.7762415">
        <ele>18.342</ele>
        <time>2018-08-29T13:32:16.546Z</time>
      </trkpt>
      <trkpt lat="48.0406915" lon="-1.7762337">
        <ele>18.556</ele>
        <time>2018-08-29T13:32:19.702Z</time>
      </trkpt>
      <trkpt lat="48.0407817" lon="-1.7762243">
        <ele>18.744</ele>
        <time>2018-08-29T13:32:22.641Z</time>
      </trkpt>
      <trkpt lat="48.0408870" lon="-1.7762182">
        <ele>18.911</ele>
        <time>2018-08-29T13:32:26.306Z</time>
      </trkpt>
      <trkpt lat="48.0409971" lon="-1.7762224">
        <ele>18.991</ele>
        <time>2018-08-29T13:32:30.476Z</time>
      </trkpt>
      <trkpt lat="48.0410973" lon="-1.7762269">
        <ele>18.847</ele>
        <time>2018-08-29T13:32:34.407Z</time>
      </trkpt>
      <trkpt lat="48.0412120" lon="-1.7762239">
        <ele>18.417</ele>
        <time>2018-08-29T13:32:38.629Z</time>
      </trkpt>
      <trkpt lat="48.0413148" lon="-1.7762094">
        <ele>17.831</ele>
        <time>2018-08-29T13:32:42.189Z</time>
      </trkpt>
      <trkpt lat="48.0414270" lon="-1.7761876">
        <ele>17.317</ele>
        <time>2018-08-29T13:32:46.014Z</time>
      </trkpt>
      <trkpt lat="48.0415152" lon="-1.7761616">
        <ele>17.063</ele>
        <time>2018-08-29T13:32:49.064Z</time>
      </trkpt>
      <trkpt lat="48.0416211" lon="-1.7761106">
        <ele>17.109</ele>
        <time>2018-08-29T13:32:52.904Z</time>
      </trkpt>
      <trkpt lat="48.0417259" lon="-1.7760343">
        <ele>17.299</ele>
        <time>2018-08-29T13:32:56.934Z</time>
      </trkpt>
      <trkpt lat="48.0418178" lon="-1.7759359">
        <ele>17.528</ele>
        <time>2018-08-29T13:33:00.836Z</time>
      </trkpt>
      <trkpt lat="48.0418995" lon="-1.7758061">
        <ele>17.779</ele>
        <time>2018-08-29T13:33:04.938Z</time>
      </trkpt>
      <trkpt lat="48.0419576" lon="-1.7757005">
        <ele>17.967</ele>
        <time>2018-08-29T13:33:08.057Z</time>
      </trkpt>
      <trkpt lat="48.0420134" lon="-1.7755640">
        <ele>18.017</ele>
        <time>2018-08-29T13:33:11.778Z</time>
      </trkpt>
      <trkpt lat="48.0420617" lon="-1.7754176">
        <ele>17.978</ele>
        <time>2018-08-29T13:33:15.738Z</time>
      </trkpt>
      <trkpt lat="48.0421104" lon="-1.7752921">
        <ele>17.956</ele>
        <time>2018-08-29T13:33:19.403Z</time>
      </trkpt>
      <trkpt lat="48.0421632" lon="-1.7751745">
        <ele>18.007</ele>
        <time>2018-08-29T13:33:23.093Z</time>
      </trkpt>
      <trkpt lat="48.0422250" lon="-1.7750583">
        <ele>18.075</ele>
        <time>2018-08-29T13:33:26.954Z</time>
      </trkpt>
      <trkpt lat="48.0422970" lon="-1.7749407">
        <ele>18.075</ele>
        <time>2018-08-29T13:33:30.967Z</time>
      </trkpt>
      <trkpt lat="48.0423655" lon="-1.7748111">
        <ele>17.975</ele>
        <time>2018-08-29T13:33:34.984Z</time>
      </trkpt>
      <trkpt lat="48.0424390" lon="-1.7746834">
        <ele>17.818</ele>
        <time>2018-08-29T13:33:38.987Z</time>
      </trkpt>
      <trkpt lat="48.0425123" lon="-1.7745568">
        <ele>17.720</ele>
        <time>2018-08-29T13:33:42.947Z</time>
      </trkpt>
      <trkpt lat="48.0425793" lon="-1.7744340">
        <ele>17.759</ele>
        <time>2018-08-29T13:33:46.753Z</time>
      </trkpt>
      <trkpt lat="48.0426451" lon="-1.7743160">
        <ele>17.890</ele>
        <time>2018-08-29T13:33:50.550Z</time>
      </trkpt>
      <trkpt lat="48.0427124" lon="-1.7742194">
        <ele>17.973</ele>
        <time>2018-08-29T13:33:54.112Z</time>
      </trkpt>
      <trkpt lat="48.0427816" lon="-1.7741129">
        <ele>17.941</ele>
        <time>2018-08-29T13:33:58.020Z</time>
      </trkpt>
      <trkpt lat="48.0428535" lon="-1.7740191">
        <ele>17.861</ele>
        <time>2018-08-29T13:34:01.846Z</time>
      </trkpt>
      <trkpt lat="48.0429401" lon="-1.7739558">
        <ele>17.817</ele>
        <time>2018-08-29T13:34:05.691Z</time>
      </trkpt>
      <trkpt lat="48.0430455" lon="-1.7738972">
        <ele>17.772</ele>
        <time>2018-08-29T13:34:09.942Z</time>
      </trkpt>
      <trkpt lat="48.0431326" lon="-1.7738478">
        <ele>17.674</ele>
        <time>2018-08-29T13:34:13.173Z</time>
      </trkpt>
      <trkpt lat="48.0432183" lon="-1.7737908">
        <ele>17.470</ele>
        <time>2018-08-29T13:34:16.300Z</time>
      </trkpt>
      <trkpt lat="48.0432929" lon="-1.7737119">
        <ele>17.090</ele>
        <time>2018-08-29T13:34:19.379Z</time>
      </trkpt>
      <trkpt lat="48.0433771" lon="-1.7736193">
        <ele>16.627</ele>
        <time>2018-08-29T13:34:23.014Z</time>
      </trkpt>
      <trkpt lat="48.0434650" lon="-1.7735578">
        <ele>16.367</ele>
        <time>2018-08-29T13:34:26.581Z</time>
      </trkpt>
      <trkpt lat="48.0435642" lon="-1.7734989">
        <ele>16.405</ele>
        <time>2018-08-29T13:34:30.710Z</time>
      </trkpt>
      <trkpt lat="48.0436579" lon="-1.7734342">
        <ele>16.563</ele>
        <time>2018-08-29T13:34:34.870Z</time>
      </trkpt>
      <trkpt lat="48.0437533" lon="-1.7733668">
        <ele>16.676</ele>
        <time>2018-08-29T13:34:39.015Z</time>
      </trkpt>
      <trkpt lat="48.0438550" lon="-1.7732830">
        <ele>16.737</ele>
        <time>2018-08-29T13:34:43.379Z</time>
      </trkpt>
      <trkpt lat="48.0439497" lon="-1.7731936">
        <ele>16.758</ele>
        <time>2018-08-29T13:34:47.417Z</time>
      </trkpt>
      <trkpt lat="48.0440393" lon="-1.7730931">
        <ele>16.709</ele>
        <time>2018-08-29T13:34:51.169Z</time>
      </trkpt>
      <trkpt lat="48.0441203" lon="-1.7730029">
        <ele>16.549</ele>
        <time>2018-08-29T13:34:54.386Z</time>
      </trkpt>
      <trkpt lat="48.0441952" lon="-1.7729212">
        <ele>16.280</ele>
        <time>2018-08-29T13:34:57.364Z</time>
      </trkpt>
      <trkpt lat="48.0442805" lon="-1.7728307">
        <ele>16.074</ele>
        <time>2018-08-29T13:35:00.847Z</time>
      </trkpt>
      <trkpt lat="48.0443627" lon="-1.7727198">
        <ele>16.086</ele>
        <time>2018-08-29T13:35:04.691Z</time>
      </trkpt>
      <trkpt lat="48.0444475" lon="-1.7726436">
        <ele>16.285</ele>
        <time>2018-08-29T13:35:08.118Z</time>
      </trkpt>
      <trkpt lat="48.0445194" lon="-1.7725533">
        <ele>16.550</ele>
        <time>2018-08-29T13:35:11.292Z</time>
      </trkpt>
      <trkpt lat="48.0445821" lon="-1.7724501">
        <ele>16.762</ele>
        <time>2018-08-29T13:35:14.390Z</time>
      </trkpt>
      <trkpt lat="48.0446387" lon="-1.7723406">
        <ele>16.873</ele>
        <time>2018-08-29T13:35:17.439Z</time>
      </trkpt>
      <trkpt lat="48.0446751" lon="-1.7722153">
        <ele>16.922</ele>
        <time>2018-08-29T13:35:20.499Z</time>
      </trkpt>
      <trkpt lat="48.0446760" lon="-1.7720455">
        <ele>16.994</ele>
        <time>2018-08-29T13:35:24.429Z</time>
      </trkpt>
      <trkpt lat="48.0446569" lon="-1.7719026">
        <ele>17.109</ele>
        <time>2018-08-29T13:35:27.940Z</time>
      </trkpt>
      <trkpt lat="48.0446067" lon="-1.7717651">
        <ele>17.261</ele>
        <time>2018-08-29T13:35:31.788Z</time>
      </trkpt>
      <trkpt lat="48.0445582" lon="-1.7716193">
        <ele>17.283</ele>
        <time>2018-08-29T13:35:35.731Z</time>
      </trkpt>
      <trkpt lat="48.0445100" lon="-1.7714718">
        <ele>17.314</ele>
        <time>2018-08-29T13:35:39.625Z</time>
      </trkpt>
      <trkpt lat="48.0444654" lon="-1.7713175">
        <ele>17.403</ele>
        <time>2018-08-29T13:35:43.615Z</time>
      </trkpt>
      <trkpt lat="48.0444354" lon="-1.7711847">
        <ele>17.566</ele>
        <time>2018-08-29T13:35:46.997Z</time>
      </trkpt>
      <trkpt lat="48.0444009" lon="-1.7710307">
        <ele>17.742</ele>
        <time>2018-08-29T13:35:50.964Z</time>
      </trkpt>
      <trkpt lat="48.0443680" lon="-1.7708733">
        <ele>17.876</ele>
        <time>2018-08-29T13:35:54.901Z</time>
      </trkpt>
      <trkpt lat="48.0443495" lon="-1.7707399">
        <ele>17.991</ele>
        <time>2018-08-29T13:35:58.053Z</time>
      </trkpt>
      <trkpt lat="48.0443272" lon="-1.7705889">
        <ele>18.103</ele>
        <time>2018-08-29T13:36:01.642Z</time>
      </trkpt>
      <trkpt lat="48.0442934" lon="-1.7704357">
        <ele>18.188</ele>
        <time>2018-08-29T13:36:05.480Z</time>
      </trkpt>
      <trkpt lat="48.0442480" lon="-1.7702838">
        <ele>18.243</ele>
        <time>2018-08-29T13:36:09.474Z</time>
      </trkpt>
      <trkpt lat="48.0441960" lon="-1.7701376">
        <ele>18.276</ele>
        <time>2018-08-29T13:36:13.451Z</time>
      </trkpt>
      <trkpt lat="48.0441442" lon="-1.7700011">
        <ele>18.287</ele>
        <time>2018-08-29T13:36:17.244Z</time>
      </trkpt>
      <trkpt lat="48.0441166" lon="-1.7698576">
        <ele>18.388</ele>
        <time>2018-08-29T13:36:20.895Z</time>
      </trkpt>
      <trkpt lat="48.0440783" lon="-1.7697236">
        <ele>18.670</ele>
        <time>2018-08-29T13:36:24.548Z</time>
      </trkpt>
      <trkpt lat="48.0440454" lon="-1.7695798">
        <ele>19.035</ele>
        <time>2018-08-29T13:36:28.445Z</time>
      </trkpt>
      <trkpt lat="48.0440145" lon="-1.7694149">
        <ele>19.338</ele>
        <time>2018-08-29T13:36:32.761Z</time>
      </trkpt>
      <trkpt lat="48.0439961" lon="-1.7692421">
        <ele>19.532</ele>
        <time>2018-08-29T13:36:36.969Z</time>
      </trkpt>
      <trkpt lat="48.0439824" lon="-1.7690687">
        <ele>19.656</ele>
        <time>2018-08-29T13:36:41.000Z</time>
      </trkpt>
      <trkpt lat="48.0439824" lon="-1.7690687">
        <ele>19.755</ele>
        <time>2018-08-29T13:36:44.000Z</time>
      </trkpt>
      <trkpt lat="48.0439824" lon="-1.7690687">
        <ele>19.808</ele>
        <time>2018-08-29T13:36:44.100Z</time>
      </trkpt>
      <trkpt lat="48.0440195" lon="-1.7687416">
        <ele>19.796</ele>
        <time>2018-08-29T13:36:55.652Z</time>
      </trkpt>
      <trkpt lat="48.0440451" lon="-1.7685719">
        <ele>19.803</ele>
        <time>2018-08-29T13:36:59.776Z</time>
      </trkpt>
      <trkpt lat="48.0440872" lon="-1.7684146">
        <ele>19.913</ele>
        <time>2018-08-29T13:37:03.693Z</time>
      </trkpt>
      <trkpt lat="48.0441372" lon="-1.7682519">
        <ele>20.093</ele>
        <time>2018-08-29T13:37:07.891Z</time>
      </trkpt>
      <trkpt lat="48.0441899" lon="-1.7681118">
        <ele>20.326</ele>
        <time>2018-08-29T13:37:11.865Z</time>
      </trkpt>
      <trkpt lat="48.0442384" lon="-1.7679861">
        <ele>20.606</ele>
        <time>2018-08-29T13:37:15.616Z</time>
      </trkpt>
      <trkpt lat="48.0442811" lon="-1.7678637">
        <ele>20.638</ele>
        <time>2018-08-29T13:37:19.219Z</time>
      </trkpt>
      <trkpt lat="48.0443457" lon="-1.7677346">
        <ele>20.238</ele>
        <time>2018-08-29T13:37:23.210Z</time>
      </trkpt>
      <trkpt lat="48.0444047" lon="-1.7676281">
        <ele>19.740</ele>
        <time>2018-08-29T13:37:26.405Z</time>
      </trkpt>
      <trkpt lat="48.0444679" lon="-1.7675165">
        <ele>19.533</ele>
        <time>2018-08-29T13:37:29.712Z</time>
      </trkpt>
      <trkpt lat="48.0445539" lon="-1.7674042">
        <ele>19.616</ele>
        <time>2018-08-29T13:37:33.652Z</time>
      </trkpt>
      <trkpt lat="48.0446332" lon="-1.7673105">
        <ele>19.708</ele>
        <time>2018-08-29T13:37:37.315Z</time>
      </trkpt>
      <trkpt lat="48.0447316" lon="-1.7672384">
        <ele>19.607</ele>
        <time>2018-08-29T13:37:41.532Z</time>
      </trkpt>
      <trkpt lat="48.0448274" lon="-1.7671596">
        <ele>19.365</ele>
        <time>2018-08-29T13:37:45.660Z</time>
      </trkpt>
      <trkpt lat="48.0449252" lon="-1.7670945">
        <ele>19.078</ele>
        <time>2018-08-29T13:37:49.630Z</time>
      </trkpt>
      <trkpt lat="48.0450279" lon="-1.7670472">
        <ele>18.798</ele>
        <time>2018-08-29T13:37:53.532Z</time>
      </trkpt>
      <trkpt lat="48.0451290" lon="-1.7669881">
        <ele>18.585</ele>
        <time>2018-08-29T13:37:57.308Z</time>
      </trkpt>
      <trkpt lat="48.0452100" lon="-1.7669156">
        <ele>18.471</ele>
        <time>2018-08-29T13:38:00.545Z</time>
      </trkpt>
      <trkpt lat="48.0453201" lon="-1.7668487">
        <ele>18.402</ele>
        <time>2018-08-29T13:38:04.660Z</time>
      </trkpt>
      <trkpt lat="48.0454251" lon="-1.7667754">
        <ele>18.253</ele>
        <time>2018-08-29T13:38:08.699Z</time>
      </trkpt>
      <trkpt lat="48.0455089" lon="-1.7667178">
        <ele>18.015</ele>
        <time>2018-08-29T13:38:11.904Z</time>
      </trkpt>
      <trkpt lat="48.0456151" lon="-1.7666557">
        <ele>17.801</ele>
        <time>2018-08-29T13:38:15.865Z</time>
      </trkpt>
      <trkpt lat="48.0457170" lon="-1.7665985">
        <ele>17.638</ele>
        <time>2018-08-29T13:38:19.700Z</time>
      </trkpt>
      <trkpt lat="48.0458322" lon="-1.7665625">
        <ele>17.415</ele>
        <time>2018-08-29T13:38:23.816Z</time>
      </trkpt>
      <trkpt lat="48.0459233" lon="-1.7665397">
        <ele>17.112</ele>
        <time>2018-08-29T13:38:26.888Z</time>
      </trkpt>
      <trkpt lat="48.0460190" lon="-1.7665170">
        <ele>16.818</ele>
        <time>2018-08-29T13:38:29.967Z</time>
      </trkpt>
      <trkpt lat="48.0461225" lon="-1.7664822">
        <ele>16.586</ele>
        <time>2018-08-29T13:38:33.303Z</time>
      </trkpt>
      <trkpt lat="48.0462204" lon="-1.7664534">
        <ele>16.440</ele>
        <time>2018-08-29T13:38:36.549Z</time>
      </trkpt>
      <trkpt lat="48.0463341" lon="-1.7664274">
        <ele>16.386</ele>
        <time>2018-08-29T13:38:40.472Z</time>
      </trkpt>
      <trkpt lat="48.0464374" lon="-1.7663996">
        <ele>16.406</ele>
        <time>2018-08-29T13:38:44.333Z</time>
      </trkpt>
      <trkpt lat="48.0465247" lon="-1.7663668">
        <ele>16.469</ele>
        <time>2018-08-29T13:38:47.610Z</time>
      </trkpt>
      <trkpt lat="48.0466174" lon="-1.7663485">
        <ele>16.536</ele>
        <time>2018-08-29T13:38:50.905Z</time>
      </trkpt>
      <trkpt lat="48.0467296" lon="-1.7663234">
        <ele>16.690</ele>
        <time>2018-08-29T13:38:54.598Z</time>
      </trkpt>
      <trkpt lat="48.0468322" lon="-1.7662874">
        <ele>17.017</ele>
        <time>2018-08-29T13:38:57.775Z</time>
      </trkpt>
      <trkpt lat="48.0469429" lon="-1.7662504">
        <ele>17.406</ele>
        <time>2018-08-29T13:39:01.105Z</time>
      </trkpt>
      <trkpt lat="48.0470397" lon="-1.7662227">
        <ele>17.727</ele>
        <time>2018-08-29T13:39:03.965Z</time>
      </trkpt>
      <trkpt lat="48.0471428" lon="-1.7661936">
        <ele>17.948</ele>
        <time>2018-08-29T13:39:06.970Z</time>
      </trkpt>
      <trkpt lat="48.0472537" lon="-1.7661656">
        <ele>18.063</ele>
        <time>2018-08-29T13:39:10.192Z</time>
      </trkpt>
      <trkpt lat="48.0473568" lon="-1.7661468">
        <ele>18.111</ele>
        <time>2018-08-29T13:39:13.190Z</time>
      </trkpt>
      <trkpt lat="48.0474626" lon="-1.7661368">
        <ele>18.197</ele>
        <time>2018-08-29T13:39:16.280Z</time>
      </trkpt>
      <trkpt lat="48.0475668" lon="-1.7661401">
        <ele>18.387</ele>
        <time>2018-08-29T13:39:19.309Z</time>
      </trkpt>
      <trkpt lat="48.0476679" lon="-1.7661404">
        <ele>18.588</ele>
        <time>2018-08-29T13:39:22.221Z</time>
      </trkpt>
      <trkpt lat="48.0477774" lon="-1.7661559">
        <ele>18.648</ele>
        <time>2018-08-29T13:39:25.415Z</time>
      </trkpt>
      <trkpt lat="48.0478787" lon="-1.7661827">
        <ele>18.522</ele>
        <time>2018-08-29T13:39:28.455Z</time>
      </trkpt>
      <trkpt lat="48.0479712" lon="-1.7662262">
        <ele>18.290</ele>
        <time>2018-08-29T13:39:31.309Z</time>
      </trkpt>
      <trkpt lat="48.0480630" lon="-1.7662835">
        <ele>18.067</ele>
        <time>2018-08-29T13:39:34.209Z</time>
      </trkpt>
      <trkpt lat="48.0481632" lon="-1.7663336">
        <ele>17.903</ele>
        <time>2018-08-29T13:39:37.248Z</time>
      </trkpt>
      <trkpt lat="48.0482644" lon="-1.7663858">
        <ele>17.803</ele>
        <time>2018-08-29T13:39:40.306Z</time>
      </trkpt>
      <trkpt lat="48.0483709" lon="-1.7664200">
        <ele>17.793</ele>
        <time>2018-08-29T13:39:43.433Z</time>
      </trkpt>
      <trkpt lat="48.0484701" lon="-1.7664476">
        <ele>17.897</ele>
        <time>2018-08-29T13:39:46.369Z</time>
      </trkpt>
      <trkpt lat="48.0485726" lon="-1.7664616">
        <ele>18.112</ele>
        <time>2018-08-29T13:39:49.445Z</time>
      </trkpt>
      <trkpt lat="48.0486679" lon="-1.7664685">
        <ele>18.380</ele>
        <time>2018-08-29T13:39:52.352Z</time>
      </trkpt>
      <trkpt lat="48.0487614" lon="-1.7664710">
        <ele>18.642</ele>
        <time>2018-08-29T13:39:55.257Z</time>
      </trkpt>
      <trkpt lat="48.0488618" lon="-1.7664601">
        <ele>18.886</ele>
        <time>2018-08-29T13:39:58.439Z</time>
      </trkpt>
      <trkpt lat="48.0489794" lon="-1.7664608">
        <ele>19.134</ele>
        <time>2018-08-29T13:40:02.245Z</time>
      </trkpt>
      <trkpt lat="48.0490743" lon="-1.7664713">
        <ele>19.349</ele>
        <time>2018-08-29T13:40:05.383Z</time>
      </trkpt>
      <trkpt lat="48.0491928" lon="-1.7664872">
        <ele>19.440</ele>
        <time>2018-08-29T13:40:09.439Z</time>
      </trkpt>
      <trkpt lat="48.0493004" lon="-1.7665026">
        <ele>19.379</ele>
        <time>2018-08-29T13:40:13.220Z</time>
      </trkpt>
      <trkpt lat="48.0494128" lon="-1.7665043">
        <ele>19.263</ele>
        <time>2018-08-29T13:40:17.119Z</time>
      </trkpt>
      <trkpt lat="48.0495322" lon="-1.7665210">
        <ele>19.185</ele>
        <time>2018-08-29T13:40:21.170Z</time>
      </trkpt>
      <trkpt lat="48.0496234" lon="-1.7665319">
        <ele>19.152</ele>
        <time>2018-08-29T13:40:24.285Z</time>
      </trkpt>
      <trkpt lat="48.0497323" lon="-1.7665488">
        <ele>19.101</ele>
        <time>2018-08-29T13:40:28.083Z</time>
      </trkpt>
      <trkpt lat="48.0498400" lon="-1.7665736">
        <ele>18.977</ele>
        <time>2018-08-29T13:40:31.901Z</time>
      </trkpt>
      <trkpt lat="48.0499569" lon="-1.7665889">
        <ele>18.784</ele>
        <time>2018-08-29T13:40:36.050Z</time>
      </trkpt>
      <trkpt lat="48.0500625" lon="-1.7666005">
        <ele>18.576</ele>
        <time>2018-08-29T13:40:39.935Z</time>
      </trkpt>
      <trkpt lat="48.0501596" lon="-1.7666177">
        <ele>18.404</ele>
        <time>2018-08-29T13:40:43.680Z</time>
      </trkpt>
      <trkpt lat="48.0502514" lon="-1.7666285">
        <ele>18.281</ele>
        <time>2018-08-29T13:40:47.319Z</time>
      </trkpt>
      <trkpt lat="48.0503501" lon="-1.7666563">
        <ele>18.183</ele>
        <time>2018-08-29T13:40:51.328Z</time>
      </trkpt>
      <trkpt lat="48.0504450" lon="-1.7666592">
        <ele>18.097</ele>
        <time>2018-08-29T13:40:55.204Z</time>
      </trkpt>
      <trkpt lat="48.0505545" lon="-1.7666362">
        <ele>18.106</ele>
        <time>2018-08-29T13:41:00.014Z</time>
      </trkpt>
      <trkpt lat="48.0506478" lon="-1.7666098">
        <ele>18.281</ele>
        <time>2018-08-29T13:41:04.523Z</time>
      </trkpt>
      <trkpt lat="48.0507396" lon="-1.7665884">
        <ele>18.552</ele>
        <time>2018-08-29T13:41:09.234Z</time>
      </trkpt>
      <trkpt lat="48.0508325" lon="-1.7665663">
        <ele>18.867</ele>
        <time>2018-08-29T13:41:14.097Z</time>
      </trkpt>
      <trkpt lat="48.0509335" lon="-1.7665407">
        <ele>19.218</ele>
        <time>2018-08-29T13:41:19.296Z</time>
      </trkpt>
      <trkpt lat="48.0510216" lon="-1.7664828">
        <ele>19.534</ele>
        <time>2018-08-29T13:41:24.979Z</time>
      </trkpt>
      <trkpt lat="48.0511099" lon="-1.7664329">
        <ele>19.805</ele>
        <time>2018-08-29T13:41:30.998Z</time>
      </trkpt>
      <trkpt lat="48.0511099" lon="-1.7664329">
        <ele>20.049</ele>
        <time>2018-08-29T13:41:33.998Z</time>
      </trkpt>
      <trkpt lat="48.0511099" lon="-1.7664329">
        <ele>20.182</ele>
        <time>2018-08-29T13:43:33.974Z</time>
      </trkpt>
      <trkpt lat="48.0512378" lon="-1.7663945">
        <ele>20.130</ele>
        <time>2018-08-29T13:43:45.743Z</time>
      </trkpt>
      <trkpt lat="48.0513260" lon="-1.7663645">
        <ele>19.916</ele>
        <time>2018-08-29T13:43:50.560Z</time>
      </trkpt>
      <trkpt lat="48.0514158" lon="-1.7663319">
        <ele>19.607</ele>
        <time>2018-08-29T13:43:54.733Z</time>
      </trkpt>
      <trkpt lat="48.0515178" lon="-1.7662856">
        <ele>19.310</ele>
        <time>2018-08-29T13:43:58.900Z</time>
      </trkpt>
      <trkpt lat="48.0516207" lon="-1.7662288">
        <ele>19.171</ele>
        <time>2018-08-29T13:44:02.899Z</time>
      </trkpt>
      <trkpt lat="48.0517282" lon="-1.7661833">
        <ele>19.269</ele>
        <time>2018-08-29T13:44:06.869Z</time>
      </trkpt>
      <trkpt lat="48.0518378" lon="-1.7661424">
        <ele>19.533</ele>
        <time>2018-08-29T13:44:10.864Z</time>
      </trkpt>
      <trkpt lat="48.0519461" lon="-1.7661063">
        <ele>19.850</ele>
        <time>2018-08-29T13:44:14.768Z</time>
      </trkpt>
      <trkpt lat="48.0520566" lon="-1.7660577">
        <ele>20.205</ele>
        <time>2018-08-29T13:44:18.818Z</time>
      </trkpt>
      <trkpt lat="48.0521620" lon="-1.7660097">
        <ele>20.603</ele>
        <time>2018-08-29T13:44:22.705Z</time>
      </trkpt>
      <trkpt lat="48.0522705" lon="-1.7659684">
        <ele>21.050</ele>
        <time>2018-08-29T13:44:26.643Z</time>
      </trkpt>
      <trkpt lat="48.0523843" lon="-1.7659207">
        <ele>21.510</ele>
        <time>2018-08-29T13:44:30.727Z</time>
      </trkpt>
      <trkpt lat="48.0524718" lon="-1.7658797">
        <ele>21.819</ele>
        <time>2018-08-29T13:44:33.817Z</time>
      </trkpt>
      <trkpt lat="48.0525599" lon="-1.7658422">
        <ele>21.899</ele>
        <time>2018-08-29T13:44:36.831Z</time>
      </trkpt>
      <trkpt lat="48.0526496" lon="-1.7658041">
        <ele>21.901</ele>
        <time>2018-08-29T13:44:39.837Z</time>
      </trkpt>
      <trkpt lat="48.0527414" lon="-1.7657661">
        <ele>22.044</ele>
        <time>2018-08-29T13:44:42.898Z</time>
      </trkpt>
      <trkpt lat="48.0528292" lon="-1.7657290">
        <ele>22.080</ele>
        <time>2018-08-29T13:44:45.869Z</time>
      </trkpt>
      <trkpt lat="48.0529382" lon="-1.7656844">
        <ele>22.030</ele>
        <time>2018-08-29T13:44:49.679Z</time>
      </trkpt>
      <trkpt lat="48.0530425" lon="-1.7656323">
        <ele>21.938</ele>
        <time>2018-08-29T13:44:53.524Z</time>
      </trkpt>
      <trkpt lat="48.0531506" lon="-1.7655838">
        <ele>21.811</ele>
        <time>2018-08-29T13:44:57.536Z</time>
      </trkpt>
      <trkpt lat="48.0532586" lon="-1.7655384">
        <ele>21.635</ele>
        <time>2018-08-29T13:45:01.508Z</time>
      </trkpt>
      <trkpt lat="48.0533651" lon="-1.7654897">
        <ele>21.457</ele>
        <time>2018-08-29T13:45:05.540Z</time>
      </trkpt>
      <trkpt lat="48.0534565" lon="-1.7654596">
        <ele>21.234</ele>
        <time>2018-08-29T13:45:09.111Z</time>
      </trkpt>
      <trkpt lat="48.0535529" lon="-1.7654254">
        <ele>21.219</ele>
        <time>2018-08-29T13:45:12.973Z</time>
      </trkpt>
      <trkpt lat="48.0536612" lon="-1.7653769">
        <ele>21.247</ele>
        <time>2018-08-29T13:45:17.043Z</time>
      </trkpt>
      <trkpt lat="48.0537525" lon="-1.7653382">
        <ele>21.349</ele>
        <time>2018-08-29T13:45:20.303Z</time>
      </trkpt>
      <trkpt lat="48.0538634" lon="-1.7652909">
        <ele>21.732</ele>
        <time>2018-08-29T13:45:24.281Z</time>
      </trkpt>
      <trkpt lat="48.0539664" lon="-1.7652504">
        <ele>21.783</ele>
        <time>2018-08-29T13:45:27.973Z</time>
      </trkpt>
      <trkpt lat="48.0540574" lon="-1.7652130">
        <ele>21.738</ele>
        <time>2018-08-29T13:45:31.248Z</time>
      </trkpt>
      <trkpt lat="48.0541659" lon="-1.7651602">
        <ele>21.723</ele>
        <time>2018-08-29T13:45:35.297Z</time>
      </trkpt>
      <trkpt lat="48.0542697" lon="-1.7651003">
        <ele>21.749</ele>
        <time>2018-08-29T13:45:39.166Z</time>
      </trkpt>
      <trkpt lat="48.0543613" lon="-1.7650403">
        <ele>21.848</ele>
        <time>2018-08-29T13:45:42.580Z</time>
      </trkpt>
      <trkpt lat="48.0544659" lon="-1.7649962">
        <ele>22.056</ele>
        <time>2018-08-29T13:45:46.384Z</time>
      </trkpt>
      <trkpt lat="48.0545692" lon="-1.7649677">
        <ele>22.323</ele>
        <time>2018-08-29T13:45:50.174Z</time>
      </trkpt>
      <trkpt lat="48.0546786" lon="-1.7649247">
        <ele>22.577</ele>
        <time>2018-08-29T13:45:54.361Z</time>
      </trkpt>
      <trkpt lat="48.0547694" lon="-1.7648998">
        <ele>22.754</ele>
        <time>2018-08-29T13:45:57.885Z</time>
      </trkpt>
      <trkpt lat="48.0548688" lon="-1.7648557">
        <ele>22.797</ele>
        <time>2018-08-29T13:46:01.844Z</time>
      </trkpt>
      <trkpt lat="48.0549795" lon="-1.7648101">
        <ele>22.675</ele>
        <time>2018-08-29T13:46:06.027Z</time>
      </trkpt>
      <trkpt lat="48.0550721" lon="-1.7647836">
        <ele>22.401</ele>
        <time>2018-08-29T13:46:09.299Z</time>
      </trkpt>
      <trkpt lat="48.0551590" lon="-1.7647444">
        <ele>22.098</ele>
        <time>2018-08-29T13:46:12.391Z</time>
      </trkpt>
      <trkpt lat="48.0552621" lon="-1.7646929">
        <ele>21.909</ele>
        <time>2018-08-29T13:46:16.167Z</time>
      </trkpt>
      <trkpt lat="48.0553642" lon="-1.7646544">
        <ele>21.842</ele>
        <time>2018-08-29T13:46:19.938Z</time>
      </trkpt>
      <trkpt lat="48.0554556" lon="-1.7646180">
        <ele>21.793</ele>
        <time>2018-08-29T13:46:23.325Z</time>
      </trkpt>
      <trkpt lat="48.0555642" lon="-1.7645857">
        <ele>21.703</ele>
        <time>2018-08-29T13:46:27.313Z</time>
      </trkpt>
      <trkpt lat="48.0556632" lon="-1.7645534">
        <ele>21.623</ele>
        <time>2018-08-29T13:46:31.003Z</time>
      </trkpt>
      <trkpt lat="48.0557685" lon="-1.7645023">
        <ele>21.650</ele>
        <time>2018-08-29T13:46:35.183Z</time>
      </trkpt>
      <trkpt lat="48.0558752" lon="-1.7644588">
        <ele>21.804</ele>
        <time>2018-08-29T13:46:39.502Z</time>
      </trkpt>
      <trkpt lat="48.0559742" lon="-1.7644252">
        <ele>21.935</ele>
        <time>2018-08-29T13:46:43.565Z</time>
      </trkpt>
      <trkpt lat="48.0560678" lon="-1.7643879">
        <ele>21.923</ele>
        <time>2018-08-29T13:46:47.493Z</time>
      </trkpt>
      <trkpt lat="48.0561592" lon="-1.7643564">
        <ele>21.843</ele>
        <time>2018-08-29T13:46:51.326Z</time>
      </trkpt>
      <trkpt lat="48.0562508" lon="-1.7643134">
        <ele>21.795</ele>
        <time>2018-08-29T13:46:55.287Z</time>
      </trkpt>
      <trkpt lat="48.0563418" lon="-1.7642670">
        <ele>21.796</ele>
        <time>2018-08-29T13:46:59.248Z</time>
      </trkpt>
      <trkpt lat="48.0564345" lon="-1.7642402">
        <ele>21.860</ele>
        <time>2018-08-29T13:47:03.053Z</time>
      </trkpt>
      <trkpt lat="48.0565389" lon="-1.7642004">
        <ele>21.980</ele>
        <time>2018-08-29T13:47:07.231Z</time>
      </trkpt>
      <trkpt lat="48.0566467" lon="-1.7641537">
        <ele>22.039</ele>
        <time>2018-08-29T13:47:11.358Z</time>
      </trkpt>
      <trkpt lat="48.0567556" lon="-1.7641043">
        <ele>21.954</ele>
        <time>2018-08-29T13:47:15.396Z</time>
      </trkpt>
      <trkpt lat="48.0568580" lon="-1.7640600">
        <ele>21.825</ele>
        <time>2018-08-29T13:47:19.147Z</time>
      </trkpt>
      <trkpt lat="48.0569702" lon="-1.7640079">
        <ele>21.774</ele>
        <time>2018-08-29T13:47:23.273Z</time>
      </trkpt>
      <trkpt lat="48.0570785" lon="-1.7639675">
        <ele>21.795</ele>
        <time>2018-08-29T13:47:27.237Z</time>
      </trkpt>
      <trkpt lat="48.0571804" lon="-1.7639383">
        <ele>21.818</ele>
        <time>2018-08-29T13:47:31.040Z</time>
      </trkpt>
      <trkpt lat="48.0572731" lon="-1.7639040">
        <ele>21.817</ele>
        <time>2018-08-29T13:47:34.665Z</time>
      </trkpt>
      <trkpt lat="48.0573754" lon="-1.7638564">
        <ele>21.826</ele>
        <time>2018-08-29T13:47:38.865Z</time>
      </trkpt>
      <trkpt lat="48.0574794" lon="-1.7638188">
        <ele>21.869</ele>
        <time>2018-08-29T13:47:43.326Z</time>
      </trkpt>
      <trkpt lat="48.0575712" lon="-1.7637935">
        <ele>21.928</ele>
        <time>2018-08-29T13:47:47.471Z</time>
      </trkpt>
      <trkpt lat="48.0576765" lon="-1.7637383">
        <ele>21.968</ele>
        <time>2018-08-29T13:47:52.335Z</time>
      </trkpt>
      <trkpt lat="48.0577648" lon="-1.7636970">
        <ele>21.943</ele>
        <time>2018-08-29T13:47:55.885Z</time>
      </trkpt>
      <trkpt lat="48.0578577" lon="-1.7636478">
        <ele>21.838</ele>
        <time>2018-08-29T13:47:59.305Z</time>
      </trkpt>
      <trkpt lat="48.0579561" lon="-1.7636011">
        <ele>21.699</ele>
        <time>2018-08-29T13:48:02.740Z</time>
      </trkpt>
      <trkpt lat="48.0580463" lon="-1.7635622">
        <ele>21.541</ele>
        <time>2018-08-29T13:48:05.847Z</time>
      </trkpt>
      <trkpt lat="48.0581328" lon="-1.7635199">
        <ele>21.407</ele>
        <time>2018-08-29T13:48:08.878Z</time>
      </trkpt>
      <trkpt lat="48.0582282" lon="-1.7634689">
        <ele>21.398</ele>
        <time>2018-08-29T13:48:12.328Z</time>
      </trkpt>
      <trkpt lat="48.0583149" lon="-1.7634208">
        <ele>21.495</ele>
        <time>2018-08-29T13:48:15.526Z</time>
      </trkpt>
      <trkpt lat="48.0584173" lon="-1.7633817">
        <ele>21.584</ele>
        <time>2018-08-29T13:48:19.177Z</time>
      </trkpt>
      <trkpt lat="48.0585120" lon="-1.7633551">
        <ele>21.606</ele>
        <time>2018-08-29T13:48:22.404Z</time>
      </trkpt>
      <trkpt lat="48.0586058" lon="-1.7633187">
        <ele>21.444</ele>
        <time>2018-08-29T13:48:25.540Z</time>
      </trkpt>
      <trkpt lat="48.0587015" lon="-1.7632843">
        <ele>21.149</ele>
        <time>2018-08-29T13:48:28.729Z</time>
      </trkpt>
      <trkpt lat="48.0588109" lon="-1.7632400">
        <ele>20.731</ele>
        <time>2018-08-29T13:48:32.586Z</time>
      </trkpt>
      <trkpt lat="48.0589205" lon="-1.7632051">
        <ele>20.399</ele>
        <time>2018-08-29T13:48:36.510Z</time>
      </trkpt>
      <trkpt lat="48.0590325" lon="-1.7631595">
        <ele>20.194</ele>
        <time>2018-08-29T13:48:40.534Z</time>
      </trkpt>
      <trkpt lat="48.0591205" lon="-1.7631229">
        <ele>19.998</ele>
        <time>2018-08-29T13:48:43.730Z</time>
      </trkpt>
      <trkpt lat="48.0592189" lon="-1.7630752">
        <ele>19.832</ele>
        <time>2018-08-29T13:48:47.502Z</time>
      </trkpt>
      <trkpt lat="48.0593108" lon="-1.7630335">
        <ele>19.796</ele>
        <time>2018-08-29T13:48:51.167Z</time>
      </trkpt>
      <trkpt lat="48.0593961" lon="-1.7629846">
        <ele>19.907</ele>
        <time>2018-08-29T13:48:54.852Z</time>
      </trkpt>
      <trkpt lat="48.0594882" lon="-1.7629605">
        <ele>20.110</ele>
        <time>2018-08-29T13:48:58.782Z</time>
      </trkpt>
      <trkpt lat="48.0595790" lon="-1.7629330">
        <ele>20.333</ele>
        <time>2018-08-29T13:49:02.697Z</time>
      </trkpt>
      <trkpt lat="48.0596770" lon="-1.7628805">
        <ele>20.617</ele>
        <time>2018-08-29T13:49:06.894Z</time>
      </trkpt>
      <trkpt lat="48.0597838" lon="-1.7628255">
        <ele>21.068</ele>
        <time>2018-08-29T13:49:11.120Z</time>
      </trkpt>
      <trkpt lat="48.0598723" lon="-1.7627789">
        <ele>21.554</ele>
        <time>2018-08-29T13:49:14.463Z</time>
      </trkpt>
      <trkpt lat="48.0599662" lon="-1.7627372">
        <ele>21.855</ele>
        <time>2018-08-29T13:49:17.963Z</time>
      </trkpt>
      <trkpt lat="48.0600735" lon="-1.7626888">
        <ele>21.922</ele>
        <time>2018-08-29T13:49:21.931Z</time>
      </trkpt>
      <trkpt lat="48.0601679" lon="-1.7626461">
        <ele>21.848</ele>
        <time>2018-08-29T13:49:25.263Z</time>
      </trkpt>
      <trkpt lat="48.0602629" lon="-1.7626067">
        <ele>21.746</ele>
        <time>2018-08-29T13:49:28.429Z</time>
      </trkpt>
      <trkpt lat="48.0603620" lon="-1.7625754">
        <ele>21.640</ele>
        <time>2018-08-29T13:49:31.536Z</time>
      </trkpt>
      <trkpt lat="48.0604621" lon="-1.7625300">
        <ele>21.515</ele>
        <time>2018-08-29T13:49:34.718Z</time>
      </trkpt>
      <trkpt lat="48.0605527" lon="-1.7624972">
        <ele>21.456</ele>
        <time>2018-08-29T13:49:37.616Z</time>
      </trkpt>
      <trkpt lat="48.0606429" lon="-1.7624659">
        <ele>21.524</ele>
        <time>2018-08-29T13:49:40.524Z</time>
      </trkpt>
      <trkpt lat="48.0607362" lon="-1.7624311">
        <ele>21.633</ele>
        <time>2018-08-29T13:49:43.490Z</time>
      </trkpt>
      <trkpt lat="48.0608381" lon="-1.7623748">
        <ele>21.669</ele>
        <time>2018-08-29T13:49:46.782Z</time>
      </trkpt>
      <trkpt lat="48.0609350" lon="-1.7623232">
        <ele>21.596</ele>
        <time>2018-08-29T13:49:49.919Z</time>
      </trkpt>
      <trkpt lat="48.0610232" lon="-1.7622833">
        <ele>21.474</ele>
        <time>2018-08-29T13:49:52.737Z</time>
      </trkpt>
      <trkpt lat="48.0611200" lon="-1.7622547">
        <ele>21.411</ele>
        <time>2018-08-29T13:49:55.713Z</time>
      </trkpt>
      <trkpt lat="48.0612263" lon="-1.7622231">
        <ele>21.445</ele>
        <time>2018-08-29T13:49:58.958Z</time>
      </trkpt>
      <trkpt lat="48.0613197" lon="-1.7621936">
        <ele>21.501</ele>
        <time>2018-08-29T13:50:01.860Z</time>
      </trkpt>
      <trkpt lat="48.0614145" lon="-1.7621595">
        <ele>21.514</ele>
        <time>2018-08-29T13:50:04.921Z</time>
      </trkpt>
      <trkpt lat="48.0615038" lon="-1.7621068">
        <ele>21.541</ele>
        <time>2018-08-29T13:50:08.084Z</time>
      </trkpt>
      <trkpt lat="48.0616013" lon="-1.7620519">
        <ele>21.672</ele>
        <time>2018-08-29T13:50:12.188Z</time>
      </trkpt>
      <trkpt lat="48.0616957" lon="-1.7620051">
        <ele>21.942</ele>
        <time>2018-08-29T13:50:16.597Z</time>
      </trkpt>
      <trkpt lat="48.0618008" lon="-1.7619708">
        <ele>22.281</ele>
        <time>2018-08-29T13:50:21.617Z</time>
      </trkpt>
      <trkpt lat="48.0618954" lon="-1.7619211">
        <ele>22.536</ele>
        <time>2018-08-29T13:50:25.623Z</time>
      </trkpt>
      <trkpt lat="48.0619909" lon="-1.7618594">
        <ele>22.588</ele>
        <time>2018-08-29T13:50:29.781Z</time>
      </trkpt>
      <trkpt lat="48.0620791" lon="-1.7618274">
        <ele>22.448</ele>
        <time>2018-08-29T13:50:33.507Z</time>
      </trkpt>
      <trkpt lat="48.0621809" lon="-1.7617988">
        <ele>22.224</ele>
        <time>2018-08-29T13:50:37.678Z</time>
      </trkpt>
      <trkpt lat="48.0622953" lon="-1.7617503">
        <ele>22.047</ele>
        <time>2018-08-29T13:50:42.118Z</time>
      </trkpt>
      <trkpt lat="48.0623865" lon="-1.7617175">
        <ele>21.962</ele>
        <time>2018-08-29T13:50:45.382Z</time>
      </trkpt>
      <trkpt lat="48.0624769" lon="-1.7616730">
        <ele>21.944</ele>
        <time>2018-08-29T13:50:48.630Z</time>
      </trkpt>
      <trkpt lat="48.0625824" lon="-1.7616113">
        <ele>22.005</ele>
        <time>2018-08-29T13:50:52.463Z</time>
      </trkpt>
      <trkpt lat="48.0626869" lon="-1.7615560">
        <ele>22.147</ele>
        <time>2018-08-29T13:50:56.302Z</time>
      </trkpt>
      <trkpt lat="48.0627846" lon="-1.7615282">
        <ele>22.283</ele>
        <time>2018-08-29T13:50:59.939Z</time>
      </trkpt>
      <trkpt lat="48.0628806" lon="-1.7615082">
        <ele>22.360</ele>
        <time>2018-08-29T13:51:03.688Z</time>
      </trkpt>
      <trkpt lat="48.0629689" lon="-1.7614570">
        <ele>22.430</ele>
        <time>2018-08-29T13:51:07.461Z</time>
      </trkpt>
      <trkpt lat="48.0630698" lon="-1.7614088">
        <ele>22.551</ele>
        <time>2018-08-29T13:51:11.652Z</time>
      </trkpt>
      <trkpt lat="48.0631718" lon="-1.7613569">
        <ele>22.705</ele>
        <time>2018-08-29T13:51:15.779Z</time>
      </trkpt>
      <trkpt lat="48.0632602" lon="-1.7613196">
        <ele>22.812</ele>
        <time>2018-08-29T13:51:19.282Z</time>
      </trkpt>
      <trkpt lat="48.0633591" lon="-1.7613083">
        <ele>22.806</ele>
        <time>2018-08-29T13:51:23.162Z</time>
      </trkpt>
      <trkpt lat="48.0634633" lon="-1.7612692">
        <ele>22.741</ele>
        <time>2018-08-29T13:51:27.541Z</time>
      </trkpt>
      <trkpt lat="48.0635664" lon="-1.7612016">
        <ele>22.721</ele>
        <time>2018-08-29T13:51:32.253Z</time>
      </trkpt>
      <trkpt lat="48.0636580" lon="-1.7611803">
        <ele>22.762</ele>
        <time>2018-08-29T13:51:36.132Z</time>
      </trkpt>
      <trkpt lat="48.0637429" lon="-1.7611299">
        <ele>22.789</ele>
        <time>2018-08-29T13:51:39.694Z</time>
      </trkpt>
      <trkpt lat="48.0638465" lon="-1.7610553">
        <ele>22.722</ele>
        <time>2018-08-29T13:51:43.922Z</time>
      </trkpt>
      <trkpt lat="48.0639564" lon="-1.7610023">
        <ele>22.543</ele>
        <time>2018-08-29T13:51:48.069Z</time>
      </trkpt>
      <trkpt lat="48.0640662" lon="-1.7609483">
        <ele>22.250</ele>
        <time>2018-08-29T13:51:52.218Z</time>
      </trkpt>
      <trkpt lat="48.0641700" lon="-1.7609096">
        <ele>21.884</ele>
        <time>2018-08-29T13:51:56.063Z</time>
      </trkpt>
      <trkpt lat="48.0642705" lon="-1.7608706">
        <ele>21.595</ele>
        <time>2018-08-29T13:51:59.836Z</time>
      </trkpt>
      <trkpt lat="48.0643718" lon="-1.7608280">
        <ele>21.421</ele>
        <time>2018-08-29T13:52:03.756Z</time>
      </trkpt>
      <trkpt lat="48.0644654" lon="-1.7607896">
        <ele>21.246</ele>
        <time>2018-08-29T13:52:07.512Z</time>
      </trkpt>
      <trkpt lat="48.0645545" lon="-1.7607454">
        <ele>21.078</ele>
        <time>2018-08-29T13:52:11.237Z</time>
      </trkpt>
      <trkpt lat="48.0646550" lon="-1.7607064">
        <ele>21.035</ele>
        <time>2018-08-29T13:52:15.345Z</time>
      </trkpt>
      <trkpt lat="48.0647633" lon="-1.7606608">
        <ele>21.139</ele>
        <time>2018-08-29T13:52:19.675Z</time>
      </trkpt>
      <trkpt lat="48.0648691" lon="-1.7606116">
        <ele>21.263</ele>
        <time>2018-08-29T13:52:23.871Z</time>
      </trkpt>
      <trkpt lat="48.0649561" lon="-1.7605610">
        <ele>21.303</ele>
        <time>2018-08-29T13:52:27.531Z</time>
      </trkpt>
      <trkpt lat="48.0650481" lon="-1.7604937">
        <ele>21.315</ele>
        <time>2018-08-29T13:52:31.789Z</time>
      </trkpt>
      <trkpt lat="48.0651317" lon="-1.7604076">
        <ele>21.388</ele>
        <time>2018-08-29T13:52:36.451Z</time>
      </trkpt>
      <trkpt lat="48.0652195" lon="-1.7603342">
        <ele>21.520</ele>
        <time>2018-08-29T13:52:41.554Z</time>
      </trkpt>
      <trkpt lat="48.0653112" lon="-1.7602817">
        <ele>21.668</ele>
        <time>2018-08-29T13:52:47.347Z</time>
      </trkpt>
      <trkpt lat="48.0653743" lon="-1.7603874">
        <ele>21.883</ele>
        <time>2018-08-29T13:52:54.000Z</time>
      </trkpt>
      <trkpt lat="48.0653743" lon="-1.7603874">
        <ele>22.187</ele>
        <time>2018-08-29T13:52:55.000Z</time>
      </trkpt>
      <trkpt lat="48.0653743" lon="-1.7603874">
        <ele>22.396</ele>
        <time>2018-08-29T13:54:10.180Z</time>
      </trkpt>
      <trkpt lat="48.0655614" lon="-1.7604294">
        <ele>22.337</ele>
        <time>2018-08-29T13:54:19.000Z</time>
      </trkpt>
      <trkpt lat="48.0655614" lon="-1.7604294">
        <ele>22.148</ele>
        <time>2018-08-29T13:54:23.000Z</time>
      </trkpt>
      <trkpt lat="48.0655614" lon="-1.7604294">
        <ele>22.055</ele>
        <time>2018-08-29T13:54:23.100Z</time>
      </trkpt>
      <trkpt lat="48.0655614" lon="-1.7604294">
        <ele>22.102</ele>
        <time>2018-08-29T13:54:26.000Z</time>
      </trkpt>
      <trkpt lat="48.0655614" lon="-1.7604294">
        <ele>22.116</ele>
        <time>2018-08-29T13:55:40.921Z</time>
      </trkpt>
      <trkpt lat="48.0657629" lon="-1.7602959">
        <ele>22.101</ele>
        <time>2018-08-29T13:55:56.257Z</time>
      </trkpt>
      <trkpt lat="48.0658387" lon="-1.7601894">
        <ele>21.763</ele>
        <time>2018-08-29T13:56:00.704Z</time>
      </trkpt>
      <trkpt lat="48.0659008" lon="-1.7600858">
        <ele>20.936</ele>
        <time>2018-08-29T13:56:04.408Z</time>
      </trkpt>
      <trkpt lat="48.0659688" lon="-1.7599808">
        <ele>20.103</ele>
        <time>2018-08-29T13:56:08.086Z</time>
      </trkpt>
      <trkpt lat="48.0660392" lon="-1.7598889">
        <ele>19.629</ele>
        <time>2018-08-29T13:56:11.457Z</time>
      </trkpt>
      <trkpt lat="48.0661187" lon="-1.7597869">
        <ele>19.307</ele>
        <time>2018-08-29T13:56:15.186Z</time>
      </trkpt>
      <trkpt lat="48.0662060" lon="-1.7596741">
        <ele>19.021</ele>
        <time>2018-08-29T13:56:19.235Z</time>
      </trkpt>
      <trkpt lat="48.0662970" lon="-1.7595576">
        <ele>18.829</ele>
        <time>2018-08-29T13:56:23.296Z</time>
      </trkpt>
      <trkpt lat="48.0663782" lon="-1.7594545">
        <ele>18.739</ele>
        <time>2018-08-29T13:56:26.821Z</time>
      </trkpt>
      <trkpt lat="48.0664496" lon="-1.7593621">
        <ele>18.707</ele>
        <time>2018-08-29T13:56:29.994Z</time>
      </trkpt>
      <trkpt lat="48.0665368" lon="-1.7592528">
        <ele>18.689</ele>
        <time>2018-08-29T13:56:33.963Z</time>
      </trkpt>
      <trkpt lat="48.0666205" lon="-1.7591416">
        <ele>18.669</ele>
        <time>2018-08-29T13:56:38.000Z</time>
      </trkpt>
      <trkpt lat="48.0666205" lon="-1.7591416">
        <ele>18.657</ele>
        <time>2018-08-29T13:56:41.000Z</time>
      </trkpt>
      <trkpt lat="48.0666205" lon="-1.7591416">
        <ele>18.651</ele>
        <time>2018-08-29T13:56:41.100Z</time>
      </trkpt>
      <trkpt lat="48.0667909" lon="-1.7589348">
        <ele>18.646</ele>
        <time>2018-08-29T13:56:51.913Z</time>
      </trkpt>
      <trkpt lat="48.0668783" lon="-1.7588254">
        <ele>18.625</ele>
        <time>2018-08-29T13:56:56.418Z</time>
      </trkpt>
      <trkpt lat="48.0669477" lon="-1.7587166">
        <ele>18.515</ele>
        <time>2018-08-29T13:57:00.131Z</time>
      </trkpt>
      <trkpt lat="48.0670279" lon="-1.7585981">
        <ele>18.300</ele>
        <time>2018-08-29T13:57:04.072Z</time>
      </trkpt>
      <trkpt lat="48.0671150" lon="-1.7584918">
        <ele>18.145</ele>
        <time>2018-08-29T13:57:08.016Z</time>
      </trkpt>
      <trkpt lat="48.0671951" lon="-1.7583909">
        <ele>18.165</ele>
        <time>2018-08-29T13:57:11.776Z</time>
      </trkpt>
      <trkpt lat="48.0672746" lon="-1.7582971">
        <ele>18.358</ele>
        <time>2018-08-29T13:57:15.404Z</time>
      </trkpt>
      <trkpt lat="48.0673637" lon="-1.7582074">
        <ele>18.667</ele>
        <time>2018-08-29T13:57:19.280Z</time>
      </trkpt>
      <trkpt lat="48.0674518" lon="-1.7581252">
        <ele>18.945</ele>
        <time>2018-08-29T13:57:23.374Z</time>
      </trkpt>
      <trkpt lat="48.0675458" lon="-1.7580467">
        <ele>19.120</ele>
        <time>2018-08-29T13:57:28.178Z</time>
      </trkpt>
      <trkpt lat="48.0676362" lon="-1.7579829">
        <ele>19.286</ele>
        <time>2018-08-29T13:57:32.960Z</time>
      </trkpt>
      <trkpt lat="48.0677269" lon="-1.7579244">
        <ele>19.469</ele>
        <time>2018-08-29T13:57:38.075Z</time>
      </trkpt>
      <trkpt lat="48.0678244" lon="-1.7578677">
        <ele>19.561</ele>
        <time>2018-08-29T13:57:43.940Z</time>
      </trkpt>
      <trkpt lat="48.0679211" lon="-1.7578201">
        <ele>19.505</ele>
        <time>2018-08-29T13:57:49.341Z</time>
      </trkpt>
      <trkpt lat="48.0680198" lon="-1.7577597">
        <ele>19.478</ele>
        <time>2018-08-29T13:57:54.160Z</time>
      </trkpt>
      <trkpt lat="48.0681123" lon="-1.7577019">
        <ele>19.696</ele>
        <time>2018-08-29T13:57:58.368Z</time>
      </trkpt>
      <trkpt lat="48.0682049" lon="-1.7576579">
        <ele>20.106</ele>
        <time>2018-08-29T13:58:02.268Z</time>
      </trkpt>
      <trkpt lat="48.0683160" lon="-1.7576355">
        <ele>20.465</ele>
        <time>2018-08-29T13:58:06.445Z</time>
      </trkpt>
      <trkpt lat="48.0684373" lon="-1.7576170">
        <ele>20.579</ele>
        <time>2018-08-29T13:58:10.657Z</time>
      </trkpt>
      <trkpt lat="48.0685545" lon="-1.7576073">
        <ele>20.432</ele>
        <time>2018-08-29T13:58:14.523Z</time>
      </trkpt>
      <trkpt lat="48.0686548" lon="-1.7576050">
        <ele>20.177</ele>
        <time>2018-08-29T13:58:17.754Z</time>
      </trkpt>
      <trkpt lat="48.0687507" lon="-1.7576389">
        <ele>19.953</ele>
        <time>2018-08-29T13:58:20.996Z</time>
      </trkpt>
      <trkpt lat="48.0688494" lon="-1.7576622">
        <ele>19.698</ele>
        <time>2018-08-29T13:58:24.405Z</time>
      </trkpt>
      <trkpt lat="48.0689510" lon="-1.7576777">
        <ele>19.261</ele>
        <time>2018-08-29T13:58:28.090Z</time>
      </trkpt>
      <trkpt lat="48.0690453" lon="-1.7577196">
        <ele>18.720</ele>
        <time>2018-08-29T13:58:31.857Z</time>
      </trkpt>
      <trkpt lat="48.0691397" lon="-1.7577536">
        <ele>18.367</ele>
        <time>2018-08-29T13:58:36.239Z</time>
      </trkpt>
      <trkpt lat="48.0692243" lon="-1.7578542">
        <ele>18.312</ele>
        <time>2018-08-29T13:58:41.893Z</time>
      </trkpt>
      <trkpt lat="48.0692982" lon="-1.7579598">
        <ele>18.469</ele>
        <time>2018-08-29T13:58:47.725Z</time>
      </trkpt>
      <trkpt lat="48.0693602" lon="-1.7580756">
        <ele>18.766</ele>
        <time>2018-08-29T13:58:52.978Z</time>
      </trkpt>
      <trkpt lat="48.0694057" lon="-1.7581940">
        <ele>19.092</ele>
        <time>2018-08-29T13:58:57.000Z</time>
      </trkpt>
      <trkpt lat="48.0694057" lon="-1.7581940">
        <ele>19.272</ele>
        <time>2018-08-29T13:58:57.000Z</time>
      </trkpt>
      <trkpt lat="48.0694057" lon="-1.7581940">
        <ele>19.263</ele>
        <time>2018-08-29T13:58:57.100Z</time>
      </trkpt>
      <trkpt lat="48.0695898" lon="-1.7584679">
        <ele>19.172</ele>
        <time>2018-08-29T13:59:04.473Z</time>
      </trkpt>
      <trkpt lat="48.0696845" lon="-1.7585598">
        <ele>19.062</ele>
        <time>2018-08-29T13:59:07.042Z</time>
      </trkpt>
      <trkpt lat="48.0697746" lon="-1.7586446">
        <ele>18.904</ele>
        <time>2018-08-29T13:59:09.756Z</time>
      </trkpt>
      <trkpt lat="48.0698549" lon="-1.7587250">
        <ele>18.715</ele>
        <time>2018-08-29T13:59:12.638Z</time>
      </trkpt>
      <trkpt lat="48.0699584" lon="-1.7588223">
        <ele>18.529</ele>
        <time>2018-08-29T13:59:16.574Z</time>
      </trkpt>
      <trkpt lat="48.0700423" lon="-1.7588884">
        <ele>18.357</ele>
        <time>2018-08-29T13:59:19.638Z</time>
      </trkpt>
      <trkpt lat="48.0701315" lon="-1.7589570">
        <ele>18.245</ele>
        <time>2018-08-29T13:59:22.930Z</time>
      </trkpt>
      <trkpt lat="48.0702108" lon="-1.7590270">
        <ele>18.223</ele>
        <time>2018-08-29T13:59:25.953Z</time>
      </trkpt>
      <trkpt lat="48.0702968" lon="-1.7590753">
        <ele>18.244</ele>
        <time>2018-08-29T13:59:28.934Z</time>
      </trkpt>
      <trkpt lat="48.0703831" lon="-1.7591148">
        <ele>18.225</ele>
        <time>2018-08-29T13:59:31.784Z</time>
      </trkpt>
      <trkpt lat="48.0704709" lon="-1.7591453">
        <ele>18.173</ele>
        <time>2018-08-29T13:59:34.578Z</time>
      </trkpt>
      <trkpt lat="48.0705638" lon="-1.7591738">
        <ele>18.169</ele>
        <time>2018-08-29T13:59:37.562Z</time>
      </trkpt>
      <trkpt lat="48.0706529" lon="-1.7592228">
        <ele>18.210</ele>
        <time>2018-08-29T13:59:40.688Z</time>
      </trkpt>
      <trkpt lat="48.0707429" lon="-1.7592537">
        <ele>18.186</ele>
        <time>2018-08-29T13:59:44.061Z</time>
      </trkpt>
      <trkpt lat="48.0708536" lon="-1.7592767">
        <ele>18.153</ele>
        <time>2018-08-29T13:59:48.681Z</time>
      </trkpt>
      <trkpt lat="48.0709477" lon="-1.7592792">
        <ele>18.131</ele>
        <time>2018-08-29T13:59:52.832Z</time>
      </trkpt>
      <trkpt lat="48.0710595" lon="-1.7592584">
        <ele>18.119</ele>
        <time>2018-08-29T13:59:57.529Z</time>
      </trkpt>
      <trkpt lat="48.0711608" lon="-1.7592444">
        <ele>18.114</ele>
        <time>2018-08-29T14:00:01.356Z</time>
      </trkpt>
      <trkpt lat="48.0712688" lon="-1.7591950">
        <ele>18.109</ele>
        <time>2018-08-29T14:00:05.380Z</time>
      </trkpt>
      <trkpt lat="48.0713650" lon="-1.7591407">
        <ele>18.043</ele>
        <time>2018-08-29T14:00:08.796Z</time>
      </trkpt>
      <trkpt lat="48.0714517" lon="-1.7590818">
        <ele>17.888</ele>
        <time>2018-08-29T14:00:11.789Z</time>
      </trkpt>
      <trkpt lat="48.0715394" lon="-1.7590021">
        <ele>17.732</ele>
        <time>2018-08-29T14:00:14.953Z</time>
      </trkpt>
      <trkpt lat="48.0716266" lon="-1.7589146">
        <ele>17.665</ele>
        <time>2018-08-29T14:00:18.270Z</time>
      </trkpt>
      <trkpt lat="48.0716978" lon="-1.7588285">
        <ele>17.676</ele>
        <time>2018-08-29T14:00:21.216Z</time>
      </trkpt>
      <trkpt lat="48.0717575" lon="-1.7587260">
        <ele>17.773</ele>
        <time>2018-08-29T14:00:24.096Z</time>
      </trkpt>
      <trkpt lat="48.0718257" lon="-1.7586364">
        <ele>17.960</ele>
        <time>2018-08-29T14:00:26.903Z</time>
      </trkpt>
      <trkpt lat="48.0719052" lon="-1.7585271">
        <ele>18.158</ele>
        <time>2018-08-29T14:00:30.223Z</time>
      </trkpt>
      <trkpt lat="48.0719780" lon="-1.7584128">
        <ele>18.307</ele>
        <time>2018-08-29T14:00:33.517Z</time>
      </trkpt>
      <trkpt lat="48.0720248" lon="-1.7582837">
        <ele>18.422</ele>
        <time>2018-08-29T14:00:36.630Z</time>
      </trkpt>
      <trkpt lat="48.0720765" lon="-1.7581713">
        <ele>18.446</ele>
        <time>2018-08-29T14:00:39.618Z</time>
      </trkpt>
      <trkpt lat="48.0721384" lon="-1.7580266">
        <ele>18.288</ele>
        <time>2018-08-29T14:00:43.694Z</time>
      </trkpt>
      <trkpt lat="48.0721968" lon="-1.7578898">
        <ele>17.999</ele>
        <time>2018-08-29T14:00:47.925Z</time>
      </trkpt>
      <trkpt lat="48.0722572" lon="-1.7577563">
        <ele>17.766</ele>
        <time>2018-08-29T14:00:52.309Z</time>
      </trkpt>
      <trkpt lat="48.0723338" lon="-1.7576402">
        <ele>17.683</ele>
        <time>2018-08-29T14:00:56.301Z</time>
      </trkpt>
      <trkpt lat="48.0724036" lon="-1.7575239">
        <ele>17.692</ele>
        <time>2018-08-29T14:00:59.749Z</time>
      </trkpt>
      <trkpt lat="48.0724788" lon="-1.7574133">
        <ele>17.718</ele>
        <time>2018-08-29T14:01:03.107Z</time>
      </trkpt>
      <trkpt lat="48.0725615" lon="-1.7573182">
        <ele>17.714</ele>
        <time>2018-08-29T14:01:06.377Z</time>
      </trkpt>
      <trkpt lat="48.0726392" lon="-1.7572395">
        <ele>17.725</ele>
        <time>2018-08-29T14:01:09.311Z</time>
      </trkpt>
      <trkpt lat="48.0727157" lon="-1.7571569">
        <ele>17.780</ele>
        <time>2018-08-29T14:01:12.279Z</time>
      </trkpt>
      <trkpt lat="48.0728136" lon="-1.7570573">
        <ele>17.714</ele>
        <time>2018-08-29T14:01:16.145Z</time>
      </trkpt>
      <trkpt lat="48.0728865" lon="-1.7569771">
        <ele>17.333</ele>
        <time>2018-08-29T14:01:19.270Z</time>
      </trkpt>
      <trkpt lat="48.0729810" lon="-1.7569129">
        <ele>16.740</ele>
        <time>2018-08-29T14:01:22.935Z</time>
      </trkpt>
      <trkpt lat="48.0730808" lon="-1.7568518">
        <ele>16.180</ele>
        <time>2018-08-29T14:01:26.849Z</time>
      </trkpt>
      <trkpt lat="48.0731748" lon="-1.7567755">
        <ele>15.720</ele>
        <time>2018-08-29T14:01:30.813Z</time>
      </trkpt>
      <trkpt lat="48.0732532" lon="-1.7566754">
        <ele>15.351</ele>
        <time>2018-08-29T14:01:34.588Z</time>
      </trkpt>
      <trkpt lat="48.0733248" lon="-1.7565446">
        <ele>15.213</ele>
        <time>2018-08-29T14:01:38.522Z</time>
      </trkpt>
      <trkpt lat="48.0733996" lon="-1.7564623">
        <ele>15.416</ele>
        <time>2018-08-29T14:01:41.663Z</time>
      </trkpt>
      <trkpt lat="48.0734698" lon="-1.7563763">
        <ele>15.810</ele>
        <time>2018-08-29T14:01:44.743Z</time>
      </trkpt>
      <trkpt lat="48.0735533" lon="-1.7562609">
        <ele>16.210</ele>
        <time>2018-08-29T14:01:48.652Z</time>
      </trkpt>
      <trkpt lat="48.0736249" lon="-1.7561344">
        <ele>16.528</ele>
        <time>2018-08-29T14:01:52.541Z</time>
      </trkpt>
      <trkpt lat="48.0736964" lon="-1.7560062">
        <ele>16.703</ele>
        <time>2018-08-29T14:01:56.550Z</time>
      </trkpt>
      <trkpt lat="48.0737583" lon="-1.7558870">
        <ele>16.722</ele>
        <time>2018-08-29T14:02:00.248Z</time>
      </trkpt>
      <trkpt lat="48.0738305" lon="-1.7557687">
        <ele>16.611</ele>
        <time>2018-08-29T14:02:04.230Z</time>
      </trkpt>
      <trkpt lat="48.0738988" lon="-1.7556548">
        <ele>16.433</ele>
        <time>2018-08-29T14:02:08.000Z</time>
      </trkpt>
      <trkpt lat="48.0739760" lon="-1.7555417">
        <ele>16.371</ele>
        <time>2018-08-29T14:02:11.905Z</time>
      </trkpt>
      <trkpt lat="48.0740579" lon="-1.7554254">
        <ele>16.532</ele>
        <time>2018-08-29T14:02:15.955Z</time>
      </trkpt>
      <trkpt lat="48.0741366" lon="-1.7553192">
        <ele>16.829</ele>
        <time>2018-08-29T14:02:19.766Z</time>
      </trkpt>
      <trkpt lat="48.0742214" lon="-1.7552260">
        <ele>17.146</ele>
        <time>2018-08-29T14:02:23.571Z</time>
      </trkpt>
      <trkpt lat="48.0743129" lon="-1.7551363">
        <ele>17.398</ele>
        <time>2018-08-29T14:02:27.617Z</time>
      </trkpt>
      <trkpt lat="48.0743945" lon="-1.7550565">
        <ele>17.523</ele>
        <time>2018-08-29T14:02:31.335Z</time>
      </trkpt>
      <trkpt lat="48.0744812" lon="-1.7549781">
        <ele>17.585</ele>
        <time>2018-08-29T14:02:35.319Z</time>
      </trkpt>
      <trkpt lat="48.0745677" lon="-1.7549243">
        <ele>17.672</ele>
        <time>2018-08-29T14:02:39.103Z</time>
      </trkpt>
      <trkpt lat="48.0746560" lon="-1.7548730">
        <ele>17.771</ele>
        <time>2018-08-29T14:02:42.935Z</time>
      </trkpt>
      <trkpt lat="48.0747470" lon="-1.7548166">
        <ele>17.835</ele>
        <time>2018-08-29T14:02:46.857Z</time>
      </trkpt>
      <trkpt lat="48.0748327" lon="-1.7547425">
        <ele>17.860</ele>
        <time>2018-08-29T14:02:50.797Z</time>
      </trkpt>
      <trkpt lat="48.0749111" lon="-1.7546652">
        <ele>17.956</ele>
        <time>2018-08-29T14:02:54.540Z</time>
      </trkpt>
      <trkpt lat="48.0749810" lon="-1.7545588">
        <ele>18.195</ele>
        <time>2018-08-29T14:02:58.461Z</time>
      </trkpt>
      <trkpt lat="48.0750576" lon="-1.7544622">
        <ele>18.441</ele>
        <time>2018-08-29T14:03:02.315Z</time>
      </trkpt>
      <trkpt lat="48.0751442" lon="-1.7543698">
        <ele>18.592</ele>
        <time>2018-08-29T14:03:06.314Z</time>
      </trkpt>
      <trkpt lat="48.0752314" lon="-1.7542719">
        <ele>18.705</ele>
        <time>2018-08-29T14:03:10.335Z</time>
      </trkpt>
      <trkpt lat="48.0753225" lon="-1.7541787">
        <ele>18.799</ele>
        <time>2018-08-29T14:03:14.211Z</time>
      </trkpt>
      <trkpt lat="48.0753946" lon="-1.7540918">
        <ele>18.849</ele>
        <time>2018-08-29T14:03:17.381Z</time>
      </trkpt>
      <trkpt lat="48.0754761" lon="-1.7540036">
        <ele>18.856</ele>
        <time>2018-08-29T14:03:20.856Z</time>
      </trkpt>
      <trkpt lat="48.0755711" lon="-1.7539182">
        <ele>18.749</ele>
        <time>2018-08-29T14:03:24.819Z</time>
      </trkpt>
      <trkpt lat="48.0756575" lon="-1.7538457">
        <ele>18.449</ele>
        <time>2018-08-29T14:03:28.661Z</time>
      </trkpt>
      <trkpt lat="48.0757515" lon="-1.7538095">
        <ele>18.074</ele>
        <time>2018-08-29T14:03:32.553Z</time>
      </trkpt>
      <trkpt lat="48.0758516" lon="-1.7537265">
        <ele>17.867</ele>
        <time>2018-08-29T14:03:37.026Z</time>
      </trkpt>
      <trkpt lat="48.0759441" lon="-1.7536157">
        <ele>17.971</ele>
        <time>2018-08-29T14:03:41.386Z</time>
      </trkpt>
      <trkpt lat="48.0760330" lon="-1.7535053">
        <ele>18.326</ele>
        <time>2018-08-29T14:03:45.492Z</time>
      </trkpt>
      <trkpt lat="48.0761189" lon="-1.7533936">
        <ele>18.720</ele>
        <time>2018-08-29T14:03:49.517Z</time>
      </trkpt>
      <trkpt lat="48.0762001" lon="-1.7532948">
        <ele>18.988</ele>
        <time>2018-08-29T14:03:53.304Z</time>
      </trkpt>
      <trkpt lat="48.0762814" lon="-1.7532124">
        <ele>19.078</ele>
        <time>2018-08-29T14:03:56.983Z</time>
      </trkpt>
      <trkpt lat="48.0763625" lon="-1.7531388">
        <ele>19.021</ele>
        <time>2018-08-29T14:04:00.647Z</time>
      </trkpt>
      <trkpt lat="48.0764418" lon="-1.7530588">
        <ele>18.959</ele>
        <time>2018-08-29T14:04:04.398Z</time>
      </trkpt>
      <trkpt lat="48.0765218" lon="-1.7529704">
        <ele>18.986</ele>
        <time>2018-08-29T14:04:08.329Z</time>
      </trkpt>
      <trkpt lat="48.0766073" lon="-1.7528989">
        <ele>19.050</ele>
        <time>2018-08-29T14:04:12.211Z</time>
      </trkpt>
      <trkpt lat="48.0766965" lon="-1.7528308">
        <ele>18.997</ele>
        <time>2018-08-29T14:04:16.261Z</time>
      </trkpt>
      <trkpt lat="48.0767870" lon="-1.7527791">
        <ele>18.762</ele>
        <time>2018-08-29T14:04:20.291Z</time>
      </trkpt>
      <trkpt lat="48.0768795" lon="-1.7527188">
        <ele>18.466</ele>
        <time>2018-08-29T14:04:24.558Z</time>
      </trkpt>
      <trkpt lat="48.0769825" lon="-1.7526591">
        <ele>18.248</ele>
        <time>2018-08-29T14:04:28.981Z</time>
      </trkpt>
      <trkpt lat="48.0770744" lon="-1.7526209">
        <ele>18.100</ele>
        <time>2018-08-29T14:04:32.739Z</time>
      </trkpt>
      <trkpt lat="48.0771746" lon="-1.7525962">
        <ele>17.987</ele>
        <time>2018-08-29T14:04:36.924Z</time>
      </trkpt>
      <trkpt lat="48.0772743" lon="-1.7525570">
        <ele>17.855</ele>
        <time>2018-08-29T14:04:41.627Z</time>
      </trkpt>
      <trkpt lat="48.0773683" lon="-1.7524860">
        <ele>17.668</ele>
        <time>2018-08-29T14:04:46.702Z</time>
      </trkpt>
      <trkpt lat="48.0774833" lon="-1.7524284">
        <ele>17.461</ele>
        <time>2018-08-29T14:04:51.700Z</time>
      </trkpt>
      <trkpt lat="48.0775746" lon="-1.7523861">
        <ele>17.308</ele>
        <time>2018-08-29T14:04:55.106Z</time>
      </trkpt>
      <trkpt lat="48.0776634" lon="-1.7523623">
        <ele>17.222</ele>
        <time>2018-08-29T14:04:58.174Z</time>
      </trkpt>
      <trkpt lat="48.0777546" lon="-1.7523415">
        <ele>17.171</ele>
        <time>2018-08-29T14:05:01.288Z</time>
      </trkpt>
      <trkpt lat="48.0778719" lon="-1.7523323">
        <ele>17.113</ele>
        <time>2018-08-29T14:05:05.273Z</time>
      </trkpt>
      <trkpt lat="48.0779811" lon="-1.7523612">
        <ele>17.139</ele>
        <time>2018-08-29T14:05:09.097Z</time>
      </trkpt>
      <trkpt lat="48.0780858" lon="-1.7524166">
        <ele>17.362</ele>
        <time>2018-08-29T14:05:12.979Z</time>
      </trkpt>
      <trkpt lat="48.0781915" lon="-1.7524722">
        <ele>17.733</ele>
        <time>2018-08-29T14:05:16.931Z</time>
      </trkpt>
      <trkpt lat="48.0782956" lon="-1.7525244">
        <ele>18.118</ele>
        <time>2018-08-29T14:05:20.843Z</time>
      </trkpt>
      <trkpt lat="48.0783968" lon="-1.7525774">
        <ele>18.467</ele>
        <time>2018-08-29T14:05:24.719Z</time>
      </trkpt>
      <trkpt lat="48.0784973" lon="-1.7526358">
        <ele>18.755</ele>
        <time>2018-08-29T14:05:28.669Z</time>
      </trkpt>
      <trkpt lat="48.0785961" lon="-1.7526741">
        <ele>18.914</ele>
        <time>2018-08-29T14:05:32.477Z</time>
      </trkpt>
      <trkpt lat="48.0786882" lon="-1.7526930">
        <ele>18.901</ele>
        <time>2018-08-29T14:05:36.052Z</time>
      </trkpt>
      <trkpt lat="48.0788002" lon="-1.7527023">
        <ele>18.813</ele>
        <time>2018-08-29T14:05:40.559Z</time>
      </trkpt>
      <trkpt lat="48.0789099" lon="-1.7527030">
        <ele>18.797</ele>
        <time>2018-08-29T14:05:45.215Z</time>
      </trkpt>
      <trkpt lat="48.0790058" lon="-1.7526788">
        <ele>18.881</ele>
        <time>2018-08-29T14:05:49.416Z</time>
      </trkpt>
      <trkpt lat="48.0790982" lon="-1.7526539">
        <ele>18.760</ele>
        <time>2018-08-29T14:05:53.511Z</time>
      </trkpt>
      <trkpt lat="48.0791894" lon="-1.7526508">
        <ele>18.244</ele>
        <time>2018-08-29T14:05:57.769Z</time>
      </trkpt>
      <trkpt lat="48.0792945" lon="-1.7526045">
        <ele>17.731</ele>
        <time>2018-08-29T14:06:03.192Z</time>
      </trkpt>
      <trkpt lat="48.0793798" lon="-1.7525480">
        <ele>17.665</ele>
        <time>2018-08-29T14:06:07.712Z</time>
      </trkpt>
      <trkpt lat="48.0794631" lon="-1.7524763">
        <ele>18.000</ele>
        <time>2018-08-29T14:06:12.000Z</time>
      </trkpt>
      <trkpt lat="48.0794631" lon="-1.7524763">
        <ele>18.448</ele>
        <time>2018-08-29T14:06:18.000Z</time>
      </trkpt>
      <trkpt lat="48.0794631" lon="-1.7524763">
        <ele>18.700</ele>
        <time>2018-08-29T14:12:21.707Z</time>
      </trkpt>
      <trkpt lat="48.0796734" lon="-1.7522359">
        <ele>18.674</ele>
        <time>2018-08-29T14:12:41.394Z</time>
      </trkpt>
      <trkpt lat="48.0797556" lon="-1.7521177">
        <ele>18.907</ele>
        <time>2018-08-29T14:12:46.597Z</time>
      </trkpt>
      <trkpt lat="48.0798242" lon="-1.7520290">
        <ele>19.780</ele>
        <time>2018-08-29T14:12:50.506Z</time>
      </trkpt>
      <trkpt lat="48.0799154" lon="-1.7519315">
        <ele>20.668</ele>
        <time>2018-08-29T14:12:55.079Z</time>
      </trkpt>
      <trkpt lat="48.0799987" lon="-1.7518257">
        <ele>20.840</ele>
        <time>2018-08-29T14:12:59.378Z</time>
      </trkpt>
      <trkpt lat="48.0800796" lon="-1.7517289">
        <ele>20.439</ele>
        <time>2018-08-29T14:13:03.371Z</time>
      </trkpt>
      <trkpt lat="48.0801653" lon="-1.7516444">
        <ele>19.990</ele>
        <time>2018-08-29T14:13:07.253Z</time>
      </trkpt>
      <trkpt lat="48.0802632" lon="-1.7515786">
        <ele>19.785</ele>
        <time>2018-08-29T14:13:11.157Z</time>
      </trkpt>
      <trkpt lat="48.0803683" lon="-1.7515263">
        <ele>19.723</ele>
        <time>2018-08-29T14:13:15.047Z</time>
      </trkpt>
      <trkpt lat="48.0804522" lon="-1.7514768">
        <ele>19.648</ele>
        <time>2018-08-29T14:13:18.297Z</time>
      </trkpt>
      <trkpt lat="48.0805506" lon="-1.7514304">
        <ele>19.556</ele>
        <time>2018-08-29T14:13:22.208Z</time>
      </trkpt>
      <trkpt lat="48.0806443" lon="-1.7513931">
        <ele>19.501</ele>
        <time>2018-08-29T14:13:26.053Z</time>
      </trkpt>
      <trkpt lat="48.0807525" lon="-1.7513516">
        <ele>19.467</ele>
        <time>2018-08-29T14:13:30.614Z</time>
      </trkpt>
      <trkpt lat="48.0808592" lon="-1.7513253">
        <ele>19.363</ele>
        <time>2018-08-29T14:13:34.940Z</time>
      </trkpt>
      <trkpt lat="48.0809586" lon="-1.7513173">
        <ele>19.139</ele>
        <time>2018-08-29T14:13:38.773Z</time>
      </trkpt>
      <trkpt lat="48.0810725" lon="-1.7513204">
        <ele>18.799</ele>
        <time>2018-08-29T14:13:42.949Z</time>
      </trkpt>
      <trkpt lat="48.0811628" lon="-1.7513346">
        <ele>18.380</ele>
        <time>2018-08-29T14:13:46.260Z</time>
      </trkpt>
      <trkpt lat="48.0812703" lon="-1.7513671">
        <ele>18.013</ele>
        <time>2018-08-29T14:13:50.340Z</time>
      </trkpt>
      <trkpt lat="48.0813724" lon="-1.7513615">
        <ele>17.830</ele>
        <time>2018-08-29T14:13:54.223Z</time>
      </trkpt>
      <trkpt lat="48.0814741" lon="-1.7513489">
        <ele>17.817</ele>
        <time>2018-08-29T14:13:58.133Z</time>
      </trkpt>
      <trkpt lat="48.0815839" lon="-1.7513356">
        <ele>17.896</ele>
        <time>2018-08-29T14:14:02.359Z</time>
      </trkpt>
      <trkpt lat="48.0816854" lon="-1.7513040">
        <ele>17.979</ele>
        <time>2018-08-29T14:14:06.325Z</time>
      </trkpt>
      <trkpt lat="48.0817890" lon="-1.7512686">
        <ele>18.008</ele>
        <time>2018-08-29T14:14:10.427Z</time>
      </trkpt>
      <trkpt lat="48.0818859" lon="-1.7512329">
        <ele>17.986</ele>
        <time>2018-08-29T14:14:14.363Z</time>
      </trkpt>
      <trkpt lat="48.0819770" lon="-1.7511956">
        <ele>17.951</ele>
        <time>2018-08-29T14:14:18.177Z</time>
      </trkpt>
      <trkpt lat="48.0820714" lon="-1.7511600">
        <ele>17.923</ele>
        <time>2018-08-29T14:14:22.198Z</time>
      </trkpt>
      <trkpt lat="48.0821624" lon="-1.7511293">
        <ele>17.892</ele>
        <time>2018-08-29T14:14:26.090Z</time>
      </trkpt>
      <trkpt lat="48.0822516" lon="-1.7510853">
        <ele>17.818</ele>
        <time>2018-08-29T14:14:30.060Z</time>
      </trkpt>
      <trkpt lat="48.0823435" lon="-1.7510330">
        <ele>17.696</ele>
        <time>2018-08-29T14:14:34.265Z</time>
      </trkpt>
      <trkpt lat="48.0824339" lon="-1.7509666">
        <ele>17.596</ele>
        <time>2018-08-29T14:14:38.464Z</time>
      </trkpt>
      <trkpt lat="48.0825338" lon="-1.7509009">
        <ele>17.573</ele>
        <time>2018-08-29T14:14:42.659Z</time>
      </trkpt>
      <trkpt lat="48.0826173" lon="-1.7508445">
        <ele>17.622</ele>
        <time>2018-08-29T14:14:46.100Z</time>
      </trkpt>
      <trkpt lat="48.0827168" lon="-1.7507949">
        <ele>17.775</ele>
        <time>2018-08-29T14:14:50.063Z</time>
      </trkpt>
      <trkpt lat="48.0828127" lon="-1.7507487">
        <ele>18.084</ele>
        <time>2018-08-29T14:14:53.874Z</time>
      </trkpt>
      <trkpt lat="48.0829142" lon="-1.7507020">
        <ele>18.540</ele>
        <time>2018-08-29T14:14:57.697Z</time>
      </trkpt>
      <trkpt lat="48.0830025" lon="-1.7506709">
        <ele>19.008</ele>
        <time>2018-08-29T14:15:00.715Z</time>
      </trkpt>
      <trkpt lat="48.0830963" lon="-1.7506377">
        <ele>19.264</ele>
        <time>2018-08-29T14:15:03.771Z</time>
      </trkpt>
      <trkpt lat="48.0831925" lon="-1.7506014">
        <ele>19.108</ele>
        <time>2018-08-29T14:15:06.856Z</time>
      </trkpt>
      <trkpt lat="48.0832891" lon="-1.7505613">
        <ele>18.898</ele>
        <time>2018-08-29T14:15:10.064Z</time>
      </trkpt>
      <trkpt lat="48.0833785" lon="-1.7505218">
        <ele>18.658</ele>
        <time>2018-08-29T14:15:13.188Z</time>
      </trkpt>
      <trkpt lat="48.0834883" lon="-1.7504783">
        <ele>18.487</ele>
        <time>2018-08-29T14:15:17.293Z</time>
      </trkpt>
      <trkpt lat="48.0835850" lon="-1.7504594">
        <ele>18.465</ele>
        <time>2018-08-29T14:15:21.085Z</time>
      </trkpt>
      <trkpt lat="48.0836956" lon="-1.7504458">
        <ele>18.482</ele>
        <time>2018-08-29T14:15:25.749Z</time>
      </trkpt>
      <trkpt lat="48.0837893" lon="-1.7504385">
        <ele>18.483</ele>
        <time>2018-08-29T14:15:29.718Z</time>
      </trkpt>
      <trkpt lat="48.0838876" lon="-1.7504323">
        <ele>18.433</ele>
        <time>2018-08-29T14:15:33.792Z</time>
      </trkpt>
      <trkpt lat="48.0839866" lon="-1.7504244">
        <ele>18.295</ele>
        <time>2018-08-29T14:15:37.814Z</time>
      </trkpt>
      <trkpt lat="48.0840858" lon="-1.7504184">
        <ele>18.110</ele>
        <time>2018-08-29T14:15:41.765Z</time>
      </trkpt>
      <trkpt lat="48.0841846" lon="-1.7504280">
        <ele>17.938</ele>
        <time>2018-08-29T14:15:45.592Z</time>
      </trkpt>
      <trkpt lat="48.0842971" lon="-1.7504334">
        <ele>17.813</ele>
        <time>2018-08-29T14:15:49.821Z</time>
      </trkpt>
      <trkpt lat="48.0844079" lon="-1.7504421">
        <ele>17.698</ele>
        <time>2018-08-29T14:15:53.956Z</time>
      </trkpt>
      <trkpt lat="48.0845168" lon="-1.7504239">
        <ele>17.475</ele>
        <time>2018-08-29T14:15:58.030Z</time>
      </trkpt>
      <trkpt lat="48.0846158" lon="-1.7504591">
        <ele>17.161</ele>
        <time>2018-08-29T14:16:01.757Z</time>
      </trkpt>
      <trkpt lat="48.0847222" lon="-1.7505019">
        <ele>16.869</ele>
        <time>2018-08-29T14:16:05.738Z</time>
      </trkpt>
      <trkpt lat="48.0848347" lon="-1.7505072">
        <ele>16.487</ele>
        <time>2018-08-29T14:16:09.764Z</time>
      </trkpt>
      <trkpt lat="48.0849439" lon="-1.7505135">
        <ele>15.919</ele>
        <time>2018-08-29T14:16:13.613Z</time>
      </trkpt>
      <trkpt lat="48.0850612" lon="-1.7505353">
        <ele>15.400</ele>
        <time>2018-08-29T14:16:17.754Z</time>
      </trkpt>
      <trkpt lat="48.0851679" lon="-1.7505903">
        <ele>15.305</ele>
        <time>2018-08-29T14:16:21.756Z</time>
      </trkpt>
      <trkpt lat="48.0852748" lon="-1.7506370">
        <ele>15.688</ele>
        <time>2018-08-29T14:16:25.739Z</time>
      </trkpt>
      <trkpt lat="48.0853804" lon="-1.7506655">
        <ele>16.210</ele>
        <time>2018-08-29T14:16:29.504Z</time>
      </trkpt>
      <trkpt lat="48.0854711" lon="-1.7506764">
        <ele>16.537</ele>
        <time>2018-08-29T14:16:32.589Z</time>
      </trkpt>
      <trkpt lat="48.0855616" lon="-1.7507066">
        <ele>16.620</ele>
        <time>2018-08-29T14:16:35.587Z</time>
      </trkpt>
      <trkpt lat="48.0856480" lon="-1.7507601">
        <ele>16.395</ele>
        <time>2018-08-29T14:16:38.449Z</time>
      </trkpt>
      <trkpt lat="48.0857449" lon="-1.7508481">
        <ele>16.225</ele>
        <time>2018-08-29T14:16:41.891Z</time>
      </trkpt>
      <trkpt lat="48.0858297" lon="-1.7509238">
        <ele>16.062</ele>
        <time>2018-08-29T14:16:44.927Z</time>
      </trkpt>
      <trkpt lat="48.0859376" lon="-1.7510039">
        <ele>15.963</ele>
        <time>2018-08-29T14:16:48.704Z</time>
      </trkpt>
      <trkpt lat="48.0860207" lon="-1.7510760">
        <ele>15.914</ele>
        <time>2018-08-29T14:16:51.769Z</time>
      </trkpt>
      <trkpt lat="48.0861212" lon="-1.7511656">
        <ele>15.863</ele>
        <time>2018-08-29T14:16:55.630Z</time>
      </trkpt>
      <trkpt lat="48.0861964" lon="-1.7512407">
        <ele>15.810</ele>
        <time>2018-08-29T14:16:58.764Z</time>
      </trkpt>
      <trkpt lat="48.0862896" lon="-1.7513237">
        <ele>15.763</ele>
        <time>2018-08-29T14:17:02.749Z</time>
      </trkpt>
      <trkpt lat="48.0863799" lon="-1.7513799">
        <ele>15.766</ele>
        <time>2018-08-29T14:17:06.532Z</time>
      </trkpt>
      <trkpt lat="48.0864777" lon="-1.7514210">
        <ele>15.812</ele>
        <time>2018-08-29T14:17:10.602Z</time>
      </trkpt>
      <trkpt lat="48.0865580" lon="-1.7514967">
        <ele>16.007</ele>
        <time>2018-08-29T14:17:14.489Z</time>
      </trkpt>
      <trkpt lat="48.0866399" lon="-1.7515723">
        <ele>16.397</ele>
        <time>2018-08-29T14:17:18.423Z</time>
      </trkpt>
      <trkpt lat="48.0867210" lon="-1.7516541">
        <ele>16.815</ele>
        <time>2018-08-29T14:17:22.353Z</time>
      </trkpt>
      <trkpt lat="48.0868088" lon="-1.7517383">
        <ele>17.088</ele>
        <time>2018-08-29T14:17:26.517Z</time>
      </trkpt>
      <trkpt lat="48.0868903" lon="-1.7518174">
        <ele>17.220</ele>
        <time>2018-08-29T14:17:30.432Z</time>
      </trkpt>
      <trkpt lat="48.0869737" lon="-1.7518825">
        <ele>17.275</ele>
        <time>2018-08-29T14:17:34.260Z</time>
      </trkpt>
      <trkpt lat="48.0870619" lon="-1.7519348">
        <ele>17.213</ele>
        <time>2018-08-29T14:17:38.147Z</time>
      </trkpt>
      <trkpt lat="48.0871466" lon="-1.7519803">
        <ele>17.017</ele>
        <time>2018-08-29T14:17:41.831Z</time>
      </trkpt>
      <trkpt lat="48.0872442" lon="-1.7520303">
        <ele>16.766</ele>
        <time>2018-08-29T14:17:46.100Z</time>
      </trkpt>
      <trkpt lat="48.0873330" lon="-1.7521050">
        <ele>16.538</ele>
        <time>2018-08-29T14:17:50.525Z</time>
      </trkpt>
      <trkpt lat="48.0874421" lon="-1.7521567">
        <ele>16.365</ele>
        <time>2018-08-29T14:17:55.422Z</time>
      </trkpt>
      <trkpt lat="48.0875364" lon="-1.7522074">
        <ele>16.244</ele>
        <time>2018-08-29T14:17:59.496Z</time>
      </trkpt>
      <trkpt lat="48.0876357" lon="-1.7522465">
        <ele>16.152</ele>
        <time>2018-08-29T14:18:03.535Z</time>
      </trkpt>
      <trkpt lat="48.0877376" lon="-1.7522746">
        <ele>16.140</ele>
        <time>2018-08-29T14:18:07.548Z</time>
      </trkpt>
      <trkpt lat="48.0878391" lon="-1.7522804">
        <ele>16.234</ele>
        <time>2018-08-29T14:18:11.394Z</time>
      </trkpt>
      <trkpt lat="48.0879528" lon="-1.7522701">
        <ele>16.389</ele>
        <time>2018-08-29T14:18:15.678Z</time>
      </trkpt>
      <trkpt lat="48.0880500" lon="-1.7522461">
        <ele>16.605</ele>
        <time>2018-08-29T14:18:19.512Z</time>
      </trkpt>
      <trkpt lat="48.0881414" lon="-1.7522218">
        <ele>16.878</ele>
        <time>2018-08-29T14:18:23.238Z</time>
      </trkpt>
      <trkpt lat="48.0882343" lon="-1.7521863">
        <ele>17.011</ele>
        <time>2018-08-29T14:18:27.247Z</time>
      </trkpt>
      <trkpt lat="48.0883328" lon="-1.7521463">
        <ele>16.885</ele>
        <time>2018-08-29T14:18:31.695Z</time>
      </trkpt>
      <trkpt lat="48.0884253" lon="-1.7521248">
        <ele>16.670</ele>
        <time>2018-08-29T14:18:35.840Z</time>
      </trkpt>
      <trkpt lat="48.0885188" lon="-1.7521004">
        <ele>16.581</ele>
        <time>2018-08-29T14:18:39.835Z</time>
      </trkpt>
      <trkpt lat="48.0886276" lon="-1.7520732">
        <ele>16.656</ele>
        <time>2018-08-29T14:18:44.255Z</time>
      </trkpt>
      <trkpt lat="48.0887202" lon="-1.7520465">
        <ele>16.805</ele>
        <time>2018-08-29T14:18:47.846Z</time>
      </trkpt>
      <trkpt lat="48.0888155" lon="-1.7520296">
        <ele>16.921</ele>
        <time>2018-08-29T14:18:51.264Z</time>
      </trkpt>
      <trkpt lat="48.0889106" lon="-1.7520126">
        <ele>16.911</ele>
        <time>2018-08-29T14:18:54.525Z</time>
      </trkpt>
      <trkpt lat="48.0890070" lon="-1.7520162">
        <ele>16.791</ele>
        <time>2018-08-29T14:18:57.762Z</time>
      </trkpt>
      <trkpt lat="48.0891004" lon="-1.7519933">
        <ele>16.700</ele>
        <time>2018-08-29T14:19:00.968Z</time>
      </trkpt>
      <trkpt lat="48.0891894" lon="-1.7519734">
        <ele>16.706</ele>
        <time>2018-08-29T14:19:04.052Z</time>
      </trkpt>
      <trkpt lat="48.0892806" lon="-1.7519370">
        <ele>16.791</ele>
        <time>2018-08-29T14:19:07.375Z</time>
      </trkpt>
      <trkpt lat="48.0893831" lon="-1.7519042">
        <ele>16.930</ele>
        <time>2018-08-29T14:19:11.200Z</time>
      </trkpt>
      <trkpt lat="48.0894910" lon="-1.7518738">
        <ele>16.938</ele>
        <time>2018-08-29T14:19:15.660Z</time>
      </trkpt>
      <trkpt lat="48.0895981" lon="-1.7518353">
        <ele>16.944</ele>
        <time>2018-08-29T14:19:20.460Z</time>
      </trkpt>
      <trkpt lat="48.0896906" lon="-1.7518224">
        <ele>17.072</ele>
        <time>2018-08-29T14:19:24.505Z</time>
      </trkpt>
      <trkpt lat="48.0897849" lon="-1.7517905">
        <ele>17.408</ele>
        <time>2018-08-29T14:19:28.537Z</time>
      </trkpt>
      <trkpt lat="48.0898868" lon="-1.7517606">
        <ele>17.807</ele>
        <time>2018-08-29T14:19:32.624Z</time>
      </trkpt>
      <trkpt lat="48.0899922" lon="-1.7517218">
        <ele>18.060</ele>
        <time>2018-08-29T14:19:36.672Z</time>
      </trkpt>
      <trkpt lat="48.0901081" lon="-1.7516819">
        <ele>18.147</ele>
        <time>2018-08-29T14:19:40.972Z</time>
      </trkpt>
      <trkpt lat="48.0902217" lon="-1.7516733">
        <ele>18.161</ele>
        <time>2018-08-29T14:19:45.062Z</time>
      </trkpt>
      <trkpt lat="48.0903254" lon="-1.7516708">
        <ele>18.157</ele>
        <time>2018-08-29T14:19:48.818Z</time>
      </trkpt>
      <trkpt lat="48.0904358" lon="-1.7516455">
        <ele>18.064</ele>
        <time>2018-08-29T14:19:52.867Z</time>
      </trkpt>
      <trkpt lat="48.0905498" lon="-1.7516225">
        <ele>17.798</ele>
        <time>2018-08-29T14:19:56.994Z</time>
      </trkpt>
      <trkpt lat="48.0906612" lon="-1.7516117">
        <ele>17.472</ele>
        <time>2018-08-29T14:20:01.011Z</time>
      </trkpt>
      <trkpt lat="48.0907719" lon="-1.7515910">
        <ele>17.332</ele>
        <time>2018-08-29T14:20:05.129Z</time>
      </trkpt>
      <trkpt lat="48.0908656" lon="-1.7515565">
        <ele>17.451</ele>
        <time>2018-08-29T14:20:08.857Z</time>
      </trkpt>
      <trkpt lat="48.0909712" lon="-1.7514975">
        <ele>17.718</ele>
        <time>2018-08-29T14:20:13.732Z</time>
      </trkpt>
      <trkpt lat="48.0910630" lon="-1.7514553">
        <ele>18.027</ele>
        <time>2018-08-29T14:20:18.255Z</time>
      </trkpt>
      <trkpt lat="48.0911657" lon="-1.7514037">
        <ele>18.299</ele>
        <time>2018-08-29T14:20:23.389Z</time>
      </trkpt>
      <trkpt lat="48.0912712" lon="-1.7513612">
        <ele>18.543</ele>
        <time>2018-08-29T14:20:28.458Z</time>
      </trkpt>
      <trkpt lat="48.0913745" lon="-1.7513138">
        <ele>18.825</ele>
        <time>2018-08-29T14:20:33.366Z</time>
      </trkpt>
      <trkpt lat="48.0914634" lon="-1.7512691">
        <ele>18.968</ele>
        <time>2018-08-29T14:20:37.580Z</time>
      </trkpt>
      <trkpt lat="48.0915571" lon="-1.7511953">
        <ele>18.768</ele>
        <time>2018-08-29T14:20:42.399Z</time>
      </trkpt>
      <trkpt lat="48.0916525" lon="-1.7511342">
        <ele>18.346</ele>
        <time>2018-08-29T14:20:47.297Z</time>
      </trkpt>
      <trkpt lat="48.0917343" lon="-1.7510552">
        <ele>17.948</ele>
        <time>2018-08-29T14:20:51.947Z</time>
      </trkpt>
      <trkpt lat="48.0918132" lon="-1.7509313">
        <ele>17.710</ele>
        <time>2018-08-29T14:20:57.233Z</time>
      </trkpt>
      <trkpt lat="48.0918796" lon="-1.7508017">
        <ele>17.630</ele>
        <time>2018-08-29T14:21:02.166Z</time>
      </trkpt>
      <trkpt lat="48.0919373" lon="-1.7506670">
        <ele>17.659</ele>
        <time>2018-08-29T14:21:06.957Z</time>
      </trkpt>
      <trkpt lat="48.0919996" lon="-1.7505536">
        <ele>17.785</ele>
        <time>2018-08-29T14:21:11.152Z</time>
      </trkpt>
      <trkpt lat="48.0920640" lon="-1.7504378">
        <ele>18.115</ele>
        <time>2018-08-29T14:21:15.319Z</time>
      </trkpt>
      <trkpt lat="48.0921167" lon="-1.7503254">
        <ele>18.294</ele>
        <time>2018-08-29T14:21:19.135Z</time>
      </trkpt>
      <trkpt lat="48.0921638" lon="-1.7502095">
        <ele>18.534</ele>
        <time>2018-08-29T14:21:22.944Z</time>
      </trkpt>
      <trkpt lat="48.0922231" lon="-1.7500963">
        <ele>18.724</ele>
        <time>2018-08-29T14:21:26.943Z</time>
      </trkpt>
      <trkpt lat="48.0922716" lon="-1.7499645">
        <ele>18.787</ele>
        <time>2018-08-29T14:21:31.024Z</time>
      </trkpt>
      <trkpt lat="48.0923283" lon="-1.7498332">
        <ele>18.879</ele>
        <time>2018-08-29T14:21:35.087Z</time>
      </trkpt>
      <trkpt lat="48.0924003" lon="-1.7497053">
        <ele>19.125</ele>
        <time>2018-08-29T14:21:39.328Z</time>
      </trkpt>
      <trkpt lat="48.0924610" lon="-1.7495843">
        <ele>19.427</ele>
        <time>2018-08-29T14:21:43.163Z</time>
      </trkpt>
      <trkpt lat="48.0925212" lon="-1.7494557">
        <ele>19.650</ele>
        <time>2018-08-29T14:21:47.154Z</time>
      </trkpt>
      <trkpt lat="48.0925702" lon="-1.7493188">
        <ele>19.654</ele>
        <time>2018-08-29T14:21:51.091Z</time>
      </trkpt>
      <trkpt lat="48.0926156" lon="-1.7491760">
        <ele>19.371</ele>
        <time>2018-08-29T14:21:55.108Z</time>
      </trkpt>
      <trkpt lat="48.0926747" lon="-1.7490481">
        <ele>19.003</ele>
        <time>2018-08-29T14:21:59.127Z</time>
      </trkpt>
      <trkpt lat="48.0927224" lon="-1.7489151">
        <ele>18.665</ele>
        <time>2018-08-29T14:22:03.122Z</time>
      </trkpt>
      <trkpt lat="48.0927805" lon="-1.7488032">
        <ele>18.689</ele>
        <time>2018-08-29T14:22:06.927Z</time>
      </trkpt>
      <trkpt lat="48.0928353" lon="-1.7486795">
        <ele>18.785</ele>
        <time>2018-08-29T14:22:10.881Z</time>
      </trkpt>
      <trkpt lat="48.0928949" lon="-1.7485537">
        <ele>18.899</ele>
        <time>2018-08-29T14:22:14.949Z</time>
      </trkpt>
      <trkpt lat="48.0929467" lon="-1.7484227">
        <ele>19.021</ele>
        <time>2018-08-29T14:22:18.988Z</time>
      </trkpt>
      <trkpt lat="48.0929984" lon="-1.7483048">
        <ele>19.233</ele>
        <time>2018-08-29T14:22:22.764Z</time>
      </trkpt>
      <trkpt lat="48.0930571" lon="-1.7481833">
        <ele>19.560</ele>
        <time>2018-08-29T14:22:26.759Z</time>
      </trkpt>
      <trkpt lat="48.0931152" lon="-1.7480612">
        <ele>19.865</ele>
        <time>2018-08-29T14:22:30.745Z</time>
      </trkpt>
      <trkpt lat="48.0931842" lon="-1.7479572">
        <ele>19.989</ele>
        <time>2018-08-29T14:22:34.674Z</time>
      </trkpt>
      <trkpt lat="48.0932368" lon="-1.7478326">
        <ele>19.931</ele>
        <time>2018-08-29T14:22:38.651Z</time>
      </trkpt>
      <trkpt lat="48.0932801" lon="-1.7476976">
        <ele>19.808</ele>
        <time>2018-08-29T14:22:42.777Z</time>
      </trkpt>
      <trkpt lat="48.0933385" lon="-1.7475656">
        <ele>19.724</ele>
        <time>2018-08-29T14:22:47.438Z</time>
      </trkpt>
      <trkpt lat="48.0933904" lon="-1.7474498">
        <ele>19.708</ele>
        <time>2018-08-29T14:22:51.898Z</time>
      </trkpt>
      <trkpt lat="48.0934476" lon="-1.7473312">
        <ele>19.748</ele>
        <time>2018-08-29T14:22:56.887Z</time>
      </trkpt>
      <trkpt lat="48.0934981" lon="-1.7472169">
        <ele>19.806</ele>
        <time>2018-08-29T14:23:01.632Z</time>
      </trkpt>
      <trkpt lat="48.0935473" lon="-1.7470998">
        <ele>19.763</ele>
        <time>2018-08-29T14:23:06.041Z</time>
      </trkpt>
      <trkpt lat="48.0935996" lon="-1.7469691">
        <ele>19.530</ele>
        <time>2018-08-29T14:23:10.400Z</time>
      </trkpt>
      <trkpt lat="48.0936484" lon="-1.7468464">
        <ele>19.181</ele>
        <time>2018-08-29T14:23:14.342Z</time>
      </trkpt>
      <trkpt lat="48.0937126" lon="-1.7467415">
        <ele>18.852</ele>
        <time>2018-08-29T14:23:18.333Z</time>
      </trkpt>
      <trkpt lat="48.0937654" lon="-1.7466036">
        <ele>18.632</ele>
        <time>2018-08-29T14:23:23.110Z</time>
      </trkpt>
      <trkpt lat="48.0938210" lon="-1.7464759">
        <ele>18.546</ele>
        <time>2018-08-29T14:23:27.975Z</time>
      </trkpt>
      <trkpt lat="48.0938835" lon="-1.7463588">
        <ele>18.595</ele>
        <time>2018-08-29T14:23:32.567Z</time>
      </trkpt>
      <trkpt lat="48.0939439" lon="-1.7462404">
        <ele>18.844</ele>
        <time>2018-08-29T14:23:35.586Z</time>
      </trkpt>
      <trkpt lat="48.0940004" lon="-1.7461095">
        <ele>19.246</ele>
        <time>2018-08-29T14:23:38.226Z</time>
      </trkpt>
      <trkpt lat="48.0940738" lon="-1.7459365">
        <ele>19.562</ele>
        <time>2018-08-29T14:23:41.628Z</time>
      </trkpt>
      <trkpt lat="48.0941293" lon="-1.7458126">
        <ele>19.663</ele>
        <time>2018-08-29T14:23:44.372Z</time>
      </trkpt>
      <trkpt lat="48.0941980" lon="-1.7456855">
        <ele>19.624</ele>
        <time>2018-08-29T14:23:47.747Z</time>
      </trkpt>
      <trkpt lat="48.0942684" lon="-1.7455618">
        <ele>19.543</ele>
        <time>2018-08-29T14:23:51.636Z</time>
      </trkpt>
      <trkpt lat="48.0943557" lon="-1.7454888">
        <ele>19.414</ele>
        <time>2018-08-29T14:23:55.877Z</time>
      </trkpt>
      <trkpt lat="48.0944445" lon="-1.7454289">
        <ele>19.217</ele>
        <time>2018-08-29T14:24:00.084Z</time>
      </trkpt>
      <trkpt lat="48.0945409" lon="-1.7453724">
        <ele>19.055</ele>
        <time>2018-08-29T14:24:04.372Z</time>
      </trkpt>
      <trkpt lat="48.0946416" lon="-1.7453300">
        <ele>19.076</ele>
        <time>2018-08-29T14:24:08.525Z</time>
      </trkpt>
      <trkpt lat="48.0947408" lon="-1.7453026">
        <ele>19.258</ele>
        <time>2018-08-29T14:24:12.420Z</time>
      </trkpt>
      <trkpt lat="48.0948452" lon="-1.7452680">
        <ele>19.382</ele>
        <time>2018-08-29T14:24:16.509Z</time>
      </trkpt>
      <trkpt lat="48.0949410" lon="-1.7452650">
        <ele>19.232</ele>
        <time>2018-08-29T14:24:20.206Z</time>
      </trkpt>
      <trkpt lat="48.0950400" lon="-1.7452391">
        <ele>18.831</ele>
        <time>2018-08-29T14:24:24.194Z</time>
      </trkpt>
      <trkpt lat="48.0951474" lon="-1.7452276">
        <ele>18.402</ele>
        <time>2018-08-29T14:24:28.619Z</time>
      </trkpt>
      <trkpt lat="48.0952565" lon="-1.7451977">
        <ele>18.002</ele>
        <time>2018-08-29T14:24:33.421Z</time>
      </trkpt>
      <trkpt lat="48.0953542" lon="-1.7451636">
        <ele>17.539</ele>
        <time>2018-08-29T14:24:37.802Z</time>
      </trkpt>
      <trkpt lat="48.0954482" lon="-1.7451310">
        <ele>17.105</ele>
        <time>2018-08-29T14:24:41.889Z</time>
      </trkpt>
      <trkpt lat="48.0955446" lon="-1.7451052">
        <ele>16.873</ele>
        <time>2018-08-29T14:24:45.933Z</time>
      </trkpt>
      <trkpt lat="48.0956458" lon="-1.7450901">
        <ele>16.821</ele>
        <time>2018-08-29T14:24:50.069Z</time>
      </trkpt>
      <trkpt lat="48.0957516" lon="-1.7450516">
        <ele>16.855</ele>
        <time>2018-08-29T14:24:54.531Z</time>
      </trkpt>
      <trkpt lat="48.0958519" lon="-1.7450087">
        <ele>17.004</ele>
        <time>2018-08-29T14:24:59.000Z</time>
      </trkpt>
      <trkpt lat="48.0958519" lon="-1.7450087">
        <ele>17.292</ele>
        <time>2018-08-29T14:25:02.000Z</time>
      </trkpt>
      <trkpt lat="48.0958519" lon="-1.7450087">
        <ele>17.508</ele>
        <time>2018-08-29T14:25:29.522Z</time>
      </trkpt>
      <trkpt lat="48.0959490" lon="-1.7447793">
        <ele>17.495</ele>
        <time>2018-08-29T14:25:41.381Z</time>
      </trkpt>
      <trkpt lat="48.0959861" lon="-1.7446303">
        <ele>17.603</ele>
        <time>2018-08-29T14:25:45.007Z</time>
      </trkpt>
      <trkpt lat="48.0960958" lon="-1.7445890">
        <ele>18.154</ele>
        <time>2018-08-29T14:25:49.028Z</time>
      </trkpt>
      <trkpt lat="48.0962013" lon="-1.7445464">
        <ele>18.902</ele>
        <time>2018-08-29T14:25:52.890Z</time>
      </trkpt>
      <trkpt lat="48.0963159" lon="-1.7445216">
        <ele>19.465</ele>
        <time>2018-08-29T14:25:56.930Z</time>
      </trkpt>
      <trkpt lat="48.0964218" lon="-1.7444685">
        <ele>19.723</ele>
        <time>2018-08-29T14:26:00.846Z</time>
      </trkpt>
      <trkpt lat="48.0965264" lon="-1.7444267">
        <ele>19.693</ele>
        <time>2018-08-29T14:26:04.788Z</time>
      </trkpt>
      <trkpt lat="48.0966309" lon="-1.7443875">
        <ele>19.469</ele>
        <time>2018-08-29T14:26:08.807Z</time>
      </trkpt>
      <trkpt lat="48.0967364" lon="-1.7443595">
        <ele>19.127</ele>
        <time>2018-08-29T14:26:12.871Z</time>
      </trkpt>
      <trkpt lat="48.0968378" lon="-1.7443268">
        <ele>18.757</ele>
        <time>2018-08-29T14:26:16.858Z</time>
      </trkpt>
      <trkpt lat="48.0969368" lon="-1.7442827">
        <ele>18.415</ele>
        <time>2018-08-29T14:26:20.878Z</time>
      </trkpt>
      <trkpt lat="48.0970290" lon="-1.7442512">
        <ele>18.083</ele>
        <time>2018-08-29T14:26:24.623Z</time>
      </trkpt>
      <trkpt lat="48.0971236" lon="-1.7442049">
        <ele>17.798</ele>
        <time>2018-08-29T14:26:28.596Z</time>
      </trkpt>
      <trkpt lat="48.0972182" lon="-1.7441592">
        <ele>17.635</ele>
        <time>2018-08-29T14:26:32.524Z</time>
      </trkpt>
      <trkpt lat="48.0973195" lon="-1.7441005">
        <ele>17.542</ele>
        <time>2018-08-29T14:26:36.660Z</time>
      </trkpt>
      <trkpt lat="48.0974297" lon="-1.7440378">
        <ele>17.446</ele>
        <time>2018-08-29T14:26:40.942Z</time>
      </trkpt>
      <trkpt lat="48.0975370" lon="-1.7439819">
        <ele>17.365</ele>
        <time>2018-08-29T14:26:44.967Z</time>
      </trkpt>
      <trkpt lat="48.0976402" lon="-1.7439498">
        <ele>17.335</ele>
        <time>2018-08-29T14:26:48.772Z</time>
      </trkpt>
      <trkpt lat="48.0977476" lon="-1.7439207">
        <ele>17.343</ele>
        <time>2018-08-29T14:26:52.845Z</time>
      </trkpt>
      <trkpt lat="48.0978429" lon="-1.7438938">
        <ele>17.326</ele>
        <time>2018-08-29T14:26:56.618Z</time>
      </trkpt>
      <trkpt lat="48.0979276" lon="-1.7438489">
        <ele>17.244</ele>
        <time>2018-08-29T14:27:00.212Z</time>
      </trkpt>
      <trkpt lat="48.0980270" lon="-1.7437833">
        <ele>17.149</ele>
        <time>2018-08-29T14:27:04.766Z</time>
      </trkpt>
      <trkpt lat="48.0981189" lon="-1.7438213">
        <ele>17.142</ele>
        <time>2018-08-29T14:27:09.142Z</time>
      </trkpt>
      <trkpt lat="48.0981562" lon="-1.7439796">
        <ele>17.271</ele>
        <time>2018-08-29T14:27:14.258Z</time>
      </trkpt>
      <trkpt lat="48.0981810" lon="-1.7441196">
        <ele>17.502</ele>
        <time>2018-08-29T14:27:19.155Z</time>
      </trkpt>
      <trkpt lat="48.0982840" lon="-1.7441072">
        <ele>17.774</ele>
        <time>2018-08-29T14:27:24.866Z</time>
      </trkpt>
      <trkpt lat="48.0983753" lon="-1.7440372">
        <ele>18.043</ele>
        <time>2018-08-29T14:27:29.504Z</time>
      </trkpt>
      <trkpt lat="48.0984592" lon="-1.7439550">
        <ele>18.248</ele>
        <time>2018-08-29T14:27:33.546Z</time>
      </trkpt>
      <trkpt lat="48.0985441" lon="-1.7438857">
        <ele>18.390</ele>
        <time>2018-08-29T14:27:37.288Z</time>
      </trkpt>
      <trkpt lat="48.0986328" lon="-1.7438182">
        <ele>18.558</ele>
        <time>2018-08-29T14:27:41.079Z</time>
      </trkpt>
      <trkpt lat="48.0987280" lon="-1.7437388">
        <ele>18.765</ele>
        <time>2018-08-29T14:27:45.162Z</time>
      </trkpt>
      <trkpt lat="48.0988145" lon="-1.7436475">
        <ele>18.890</ele>
        <time>2018-08-29T14:27:49.160Z</time>
      </trkpt>
      <trkpt lat="48.0988968" lon="-1.7435675">
        <ele>18.878</ele>
        <time>2018-08-29T14:27:52.943Z</time>
      </trkpt>
      <trkpt lat="48.0989789" lon="-1.7434841">
        <ele>18.890</ele>
        <time>2018-08-29T14:27:56.786Z</time>
      </trkpt>
      <trkpt lat="48.0990727" lon="-1.7433971">
        <ele>19.051</ele>
        <time>2018-08-29T14:28:01.173Z</time>
      </trkpt>
      <trkpt lat="48.0991626" lon="-1.7433271">
        <ele>19.224</ele>
        <time>2018-08-29T14:28:05.373Z</time>
      </trkpt>
      <trkpt lat="48.0992469" lon="-1.7432282">
        <ele>19.253</ele>
        <time>2018-08-29T14:28:09.538Z</time>
      </trkpt>
      <trkpt lat="48.0993206" lon="-1.7431438">
        <ele>19.192</ele>
        <time>2018-08-29T14:28:12.978Z</time>
      </trkpt>
      <trkpt lat="48.0994122" lon="-1.7430384">
        <ele>19.139</ele>
        <time>2018-08-29T14:28:17.218Z</time>
      </trkpt>
      <trkpt lat="48.0994885" lon="-1.7429389">
        <ele>19.122</ele>
        <time>2018-08-29T14:28:20.955Z</time>
      </trkpt>
      <trkpt lat="48.0995573" lon="-1.7428236">
        <ele>19.109</ele>
        <time>2018-08-29T14:28:24.662Z</time>
      </trkpt>
      <trkpt lat="48.0996251" lon="-1.7427325">
        <ele>19.041</ele>
        <time>2018-08-29T14:28:27.809Z</time>
      </trkpt>
      <trkpt lat="48.0996910" lon="-1.7426330">
        <ele>18.894</ele>
        <time>2018-08-29T14:28:30.993Z</time>
      </trkpt>
      <trkpt lat="48.0997714" lon="-1.7425093">
        <ele>18.749</ele>
        <time>2018-08-29T14:28:34.892Z</time>
      </trkpt>
      <trkpt lat="48.0998518" lon="-1.7423867">
        <ele>18.694</ele>
        <time>2018-08-29T14:28:38.768Z</time>
      </trkpt>
      <trkpt lat="48.0999333" lon="-1.7422574">
        <ele>18.711</ele>
        <time>2018-08-29T14:28:42.767Z</time>
      </trkpt>
      <trkpt lat="48.1000140" lon="-1.7421352">
        <ele>18.696</ele>
        <time>2018-08-29T14:28:46.668Z</time>
      </trkpt>
      <trkpt lat="48.1000927" lon="-1.7420076">
        <ele>18.596</ele>
        <time>2018-08-29T14:28:50.557Z</time>
      </trkpt>
      <trkpt lat="48.1001587" lon="-1.7419012">
        <ele>18.451</ele>
        <time>2018-08-29T14:28:53.734Z</time>
      </trkpt>
      <trkpt lat="48.1002246" lon="-1.7417974">
        <ele>18.324</ele>
        <time>2018-08-29T14:28:56.851Z</time>
      </trkpt>
      <trkpt lat="48.1002874" lon="-1.7416992">
        <ele>18.244</ele>
        <time>2018-08-29T14:28:59.814Z</time>
      </trkpt>
      <trkpt lat="48.1003473" lon="-1.7415966">
        <ele>18.221</ele>
        <time>2018-08-29T14:29:02.797Z</time>
      </trkpt>
      <trkpt lat="48.1004020" lon="-1.7414843">
        <ele>18.231</ele>
        <time>2018-08-29T14:29:05.869Z</time>
      </trkpt>
      <trkpt lat="48.1004700" lon="-1.7413447">
        <ele>18.196</ele>
        <time>2018-08-29T14:29:09.760Z</time>
      </trkpt>
      <trkpt lat="48.1005317" lon="-1.7412094">
        <ele>18.069</ele>
        <time>2018-08-29T14:29:13.538Z</time>
      </trkpt>
      <trkpt lat="48.1005925" lon="-1.7410731">
        <ele>17.932</ele>
        <time>2018-08-29T14:29:17.427Z</time>
      </trkpt>
      <trkpt lat="48.1006495" lon="-1.7409483">
        <ele>17.844</ele>
        <time>2018-08-29T14:29:21.138Z</time>
      </trkpt>
      <trkpt lat="48.1007086" lon="-1.7408282">
        <ele>17.763</ele>
        <time>2018-08-29T14:29:24.892Z</time>
      </trkpt>
      <trkpt lat="48.1007695" lon="-1.7406954">
        <ele>17.678</ele>
        <time>2018-08-29T14:29:28.882Z</time>
      </trkpt>
      <trkpt lat="48.1008263" lon="-1.7405447">
        <ele>17.635</ele>
        <time>2018-08-29T14:29:33.036Z</time>
      </trkpt>
      <trkpt lat="48.1008821" lon="-1.7403996">
        <ele>17.761</ele>
        <time>2018-08-29T14:29:37.000Z</time>
      </trkpt>
      <trkpt lat="48.1009277" lon="-1.7402456">
        <ele>18.180</ele>
        <time>2018-08-29T14:29:41.002Z</time>
      </trkpt>
      <trkpt lat="48.1009633" lon="-1.7400891">
        <ele>18.775</ele>
        <time>2018-08-29T14:29:44.933Z</time>
      </trkpt>
      <trkpt lat="48.1009868" lon="-1.7399188">
        <ele>19.273</ele>
        <time>2018-08-29T14:29:49.053Z</time>
      </trkpt>
      <trkpt lat="48.1010054" lon="-1.7397513">
        <ele>19.573</ele>
        <time>2018-08-29T14:29:53.028Z</time>
      </trkpt>
      <trkpt lat="48.1010214" lon="-1.7395798">
        <ele>19.758</ele>
        <time>2018-08-29T14:29:57.010Z</time>
      </trkpt>
      <trkpt lat="48.1010371" lon="-1.7394054">
        <ele>19.906</ele>
        <time>2018-08-29T14:30:01.054Z</time>
      </trkpt>
      <trkpt lat="48.1010396" lon="-1.7392364">
        <ele>20.037</ele>
        <time>2018-08-29T14:30:04.974Z</time>
      </trkpt>
      <trkpt lat="48.1010440" lon="-1.7390705">
        <ele>20.223</ele>
        <time>2018-08-29T14:30:08.819Z</time>
      </trkpt>
      <trkpt lat="48.1010508" lon="-1.7388998">
        <ele>20.482</ele>
        <time>2018-08-29T14:30:12.843Z</time>
      </trkpt>
      <trkpt lat="48.1010646" lon="-1.7387547">
        <ele>20.691</ele>
        <time>2018-08-29T14:30:16.403Z</time>
      </trkpt>
      <trkpt lat="48.1010583" lon="-1.7385956">
        <ele>20.775</ele>
        <time>2018-08-29T14:30:20.325Z</time>
      </trkpt>
      <trkpt lat="48.1010601" lon="-1.7384393">
        <ele>20.777</ele>
        <time>2018-08-29T14:30:24.237Z</time>
      </trkpt>
      <trkpt lat="48.1010520" lon="-1.7382776">
        <ele>20.764</ele>
        <time>2018-08-29T14:30:28.230Z</time>
      </trkpt>
      <trkpt lat="48.1010292" lon="-1.7381401">
        <ele>20.827</ele>
        <time>2018-08-29T14:30:31.485Z</time>
      </trkpt>
      <trkpt lat="48.1009991" lon="-1.7379971">
        <ele>20.988</ele>
        <time>2018-08-29T14:30:34.804Z</time>
      </trkpt>
      <trkpt lat="48.1009723" lon="-1.7378310">
        <ele>21.221</ele>
        <time>2018-08-29T14:30:38.610Z</time>
      </trkpt>
      <trkpt lat="48.1009561" lon="-1.7376704">
        <ele>21.502</ele>
        <time>2018-08-29T14:30:42.420Z</time>
      </trkpt>
      <trkpt lat="48.1009354" lon="-1.7375360">
        <ele>21.743</ele>
        <time>2018-08-29T14:30:45.797Z</time>
      </trkpt>
      <trkpt lat="48.1008986" lon="-1.7373787">
        <ele>21.843</ele>
        <time>2018-08-29T14:30:49.829Z</time>
      </trkpt>
      <trkpt lat="48.1008684" lon="-1.7372497">
        <ele>21.730</ele>
        <time>2018-08-29T14:30:52.982Z</time>
      </trkpt>
      <trkpt lat="48.1008342" lon="-1.7371240">
        <ele>21.599</ele>
        <time>2018-08-29T14:30:56.030Z</time>
      </trkpt>
      <trkpt lat="48.1007918" lon="-1.7370039">
        <ele>21.466</ele>
        <time>2018-08-29T14:30:59.069Z</time>
      </trkpt>
      <trkpt lat="48.1007325" lon="-1.7368453">
        <ele>21.220</ele>
        <time>2018-08-29T14:31:03.111Z</time>
      </trkpt>
      <trkpt lat="48.1006861" lon="-1.7367157">
        <ele>20.379</ele>
        <time>2018-08-29T14:31:06.288Z</time>
      </trkpt>
      <trkpt lat="48.1006392" lon="-1.7365853">
        <ele>20.141</ele>
        <time>2018-08-29T14:31:09.399Z</time>
      </trkpt>
      <trkpt lat="48.1005908" lon="-1.7364549">
        <ele>20.059</ele>
        <time>2018-08-29T14:31:12.461Z</time>
      </trkpt>
      <trkpt lat="48.1005446" lon="-1.7363188">
        <ele>20.069</ele>
        <time>2018-08-29T14:31:15.549Z</time>
      </trkpt>
      <trkpt lat="48.1004974" lon="-1.7361857">
        <ele>20.047</ele>
        <time>2018-08-29T14:31:18.582Z</time>
      </trkpt>
      <trkpt lat="48.1004434" lon="-1.7360624">
        <ele>19.810</ele>
        <time>2018-08-29T14:31:21.588Z</time>
      </trkpt>
      <trkpt lat="48.1003960" lon="-1.7359444">
        <ele>19.317</ele>
        <time>2018-08-29T14:31:24.451Z</time>
      </trkpt>
      <trkpt lat="48.1003529" lon="-1.7358205">
        <ele>18.791</ele>
        <time>2018-08-29T14:31:27.327Z</time>
      </trkpt>
      <trkpt lat="48.1003067" lon="-1.7356839">
        <ele>18.453</ele>
        <time>2018-08-29T14:31:30.408Z</time>
      </trkpt>
      <trkpt lat="48.1002628" lon="-1.7355483">
        <ele>18.326</ele>
        <time>2018-08-29T14:31:33.404Z</time>
      </trkpt>
      <trkpt lat="48.1002171" lon="-1.7354132">
        <ele>18.350</ele>
        <time>2018-08-29T14:31:36.451Z</time>
      </trkpt>
      <trkpt lat="48.1001613" lon="-1.7352567">
        <ele>18.453</ele>
        <time>2018-08-29T14:31:40.143Z</time>
      </trkpt>
      <trkpt lat="48.1001249" lon="-1.7351332">
        <ele>18.584</ele>
        <time>2018-08-29T14:31:42.981Z</time>
      </trkpt>
      <trkpt lat="48.1000795" lon="-1.7349987">
        <ele>18.747</ele>
        <time>2018-08-29T14:31:46.088Z</time>
      </trkpt>
      <trkpt lat="48.1000363" lon="-1.7348636">
        <ele>18.940</ele>
        <time>2018-08-29T14:31:49.124Z</time>
      </trkpt>
      <trkpt lat="48.0999885" lon="-1.7347303">
        <ele>19.213</ele>
        <time>2018-08-29T14:31:52.175Z</time>
      </trkpt>
      <trkpt lat="48.0999456" lon="-1.7346042">
        <ele>19.580</ele>
        <time>2018-08-29T14:31:55.054Z</time>
      </trkpt>
      <trkpt lat="48.0998987" lon="-1.7344822">
        <ele>19.881</ele>
        <time>2018-08-29T14:31:57.948Z</time>
      </trkpt>
      <trkpt lat="48.0998528" lon="-1.7343587">
        <ele>19.982</ele>
        <time>2018-08-29T14:32:00.872Z</time>
      </trkpt>
      <trkpt lat="48.0998111" lon="-1.7342284">
        <ele>19.979</ele>
        <time>2018-08-29T14:32:03.854Z</time>
      </trkpt>
      <trkpt lat="48.0997655" lon="-1.7340910">
        <ele>20.021</ele>
        <time>2018-08-29T14:32:06.959Z</time>
      </trkpt>
      <trkpt lat="48.0997134" lon="-1.7339548">
        <ele>20.118</ele>
        <time>2018-08-29T14:32:10.059Z</time>
      </trkpt>
      <trkpt lat="48.0996616" lon="-1.7338263">
        <ele>20.150</ele>
        <time>2018-08-29T14:32:13.038Z</time>
      </trkpt>
      <trkpt lat="48.0996212" lon="-1.7337036">
        <ele>20.078</ele>
        <time>2018-08-29T14:32:15.757Z</time>
      </trkpt>
      <trkpt lat="48.0995692" lon="-1.7335649">
        <ele>19.977</ele>
        <time>2018-08-29T14:32:18.878Z</time>
      </trkpt>
      <trkpt lat="48.0995185" lon="-1.7334316">
        <ele>19.921</ele>
        <time>2018-08-29T14:32:21.870Z</time>
      </trkpt>
      <trkpt lat="48.0994750" lon="-1.7332969">
        <ele>19.914</ele>
        <time>2018-08-29T14:32:24.806Z</time>
      </trkpt>
      <trkpt lat="48.0994361" lon="-1.7331562">
        <ele>19.976</ele>
        <time>2018-08-29T14:32:27.834Z</time>
      </trkpt>
      <trkpt lat="48.0993948" lon="-1.7330266">
        <ele>20.137</ele>
        <time>2018-08-29T14:32:30.758Z</time>
      </trkpt>
      <trkpt lat="48.0993520" lon="-1.7329066">
        <ele>20.338</ele>
        <time>2018-08-29T14:32:33.571Z</time>
      </trkpt>
      <trkpt lat="48.0993112" lon="-1.7327690">
        <ele>20.435</ele>
        <time>2018-08-29T14:32:36.717Z</time>
      </trkpt>
      <trkpt lat="48.0992576" lon="-1.7326056">
        <ele>20.355</ele>
        <time>2018-08-29T14:32:40.559Z</time>
      </trkpt>
      <trkpt lat="48.0992232" lon="-1.7324689">
        <ele>20.186</ele>
        <time>2018-08-29T14:32:43.617Z</time>
      </trkpt>
      <trkpt lat="48.0991937" lon="-1.7323287">
        <ele>20.060</ele>
        <time>2018-08-29T14:32:46.582Z</time>
      </trkpt>
      <trkpt lat="48.0991668" lon="-1.7321672">
        <ele>20.010</ele>
        <time>2018-08-29T14:32:49.777Z</time>
      </trkpt>
      <trkpt lat="48.0991314" lon="-1.7320055">
        <ele>19.999</ele>
        <time>2018-08-29T14:32:52.859Z</time>
      </trkpt>
      <trkpt lat="48.0991048" lon="-1.7318439">
        <ele>19.998</ele>
        <time>2018-08-29T14:32:55.831Z</time>
      </trkpt>
      <trkpt lat="48.0991007" lon="-1.7316945">
        <ele>20.000</ele>
        <time>2018-08-29T14:32:58.585Z</time>
      </trkpt>
      <trkpt lat="48.0991044" lon="-1.7315414">
        <ele>20.011</ele>
        <time>2018-08-29T14:33:01.462Z</time>
      </trkpt>
      <trkpt lat="48.0991043" lon="-1.7313811">
        <ele>20.052</ele>
        <time>2018-08-29T14:33:04.514Z</time>
      </trkpt>
      <trkpt lat="48.0991289" lon="-1.7312368">
        <ele>20.150</ele>
        <time>2018-08-29T14:33:07.411Z</time>
      </trkpt>
      <trkpt lat="48.0991675" lon="-1.7311051">
        <ele>20.312</ele>
        <time>2018-08-29T14:33:10.305Z</time>
      </trkpt>
      <trkpt lat="48.0992045" lon="-1.7309756">
        <ele>20.558</ele>
        <time>2018-08-29T14:33:13.243Z</time>
      </trkpt>
      <trkpt lat="48.0992538" lon="-1.7308134">
        <ele>20.853</ele>
        <time>2018-08-29T14:33:17.082Z</time>
      </trkpt>
      <trkpt lat="48.0993301" lon="-1.7306905">
        <ele>20.988</ele>
        <time>2018-08-29T14:33:20.845Z</time>
      </trkpt>
      <trkpt lat="48.0994185" lon="-1.7305838">
        <ele>20.820</ele>
        <time>2018-08-29T14:33:24.762Z</time>
      </trkpt>
      <trkpt lat="48.0995028" lon="-1.7305167">
        <ele>20.531</ele>
        <time>2018-08-29T14:33:28.055Z</time>
      </trkpt>
      <trkpt lat="48.0995819" lon="-1.7304417">
        <ele>20.341</ele>
        <time>2018-08-29T14:33:31.135Z</time>
      </trkpt>
      <trkpt lat="48.0996613" lon="-1.7303313">
        <ele>20.318</ele>
        <time>2018-08-29T14:33:34.519Z</time>
      </trkpt>
      <trkpt lat="48.0997396" lon="-1.7302471">
        <ele>20.425</ele>
        <time>2018-08-29T14:33:37.517Z</time>
      </trkpt>
      <trkpt lat="48.0998322" lon="-1.7301378">
        <ele>20.507</ele>
        <time>2018-08-29T14:33:41.281Z</time>
      </trkpt>
      <trkpt lat="48.0999194" lon="-1.7300252">
        <ele>20.455</ele>
        <time>2018-08-29T14:33:45.110Z</time>
      </trkpt>
      <trkpt lat="48.0999935" lon="-1.7299001">
        <ele>20.303</ele>
        <time>2018-08-29T14:33:49.017Z</time>
      </trkpt>
      <trkpt lat="48.1000614" lon="-1.7297899">
        <ele>20.091</ele>
        <time>2018-08-29T14:33:52.677Z</time>
      </trkpt>
      <trkpt lat="48.1001242" lon="-1.7296563">
        <ele>19.866</ele>
        <time>2018-08-29T14:33:56.739Z</time>
      </trkpt>
      <trkpt lat="48.1001661" lon="-1.7295051">
        <ele>19.721</ele>
        <time>2018-08-29T14:34:00.803Z</time>
      </trkpt>
      <trkpt lat="48.1001742" lon="-1.7293404">
        <ele>19.672</ele>
        <time>2018-08-29T14:34:04.911Z</time>
      </trkpt>
      <trkpt lat="48.1001943" lon="-1.7291994">
        <ele>19.677</ele>
        <time>2018-08-29T14:34:08.524Z</time>
      </trkpt>
      <trkpt lat="48.1002247" lon="-1.7290597">
        <ele>19.698</ele>
        <time>2018-08-29T14:34:12.245Z</time>
      </trkpt>
      <trkpt lat="48.1002568" lon="-1.7289184">
        <ele>19.673</ele>
        <time>2018-08-29T14:34:16.061Z</time>
      </trkpt>
      <trkpt lat="48.1002980" lon="-1.7287696">
        <ele>19.523</ele>
        <time>2018-08-29T14:34:20.165Z</time>
      </trkpt>
      <trkpt lat="48.1003193" lon="-1.7286050">
        <ele>19.283</ele>
        <time>2018-08-29T14:34:24.356Z</time>
      </trkpt>
      <trkpt lat="48.1003598" lon="-1.7284432">
        <ele>19.168</ele>
        <time>2018-08-29T14:34:28.536Z</time>
      </trkpt>
      <trkpt lat="48.1003980" lon="-1.7283136">
        <ele>19.297</ele>
        <time>2018-08-29T14:34:31.802Z</time>
      </trkpt>
      <trkpt lat="48.1004336" lon="-1.7281845">
        <ele>19.618</ele>
        <time>2018-08-29T14:34:34.912Z</time>
      </trkpt>
      <trkpt lat="48.1004639" lon="-1.7280578">
        <ele>20.025</ele>
        <time>2018-08-29T14:34:37.864Z</time>
      </trkpt>
      <trkpt lat="48.1004786" lon="-1.7279194">
        <ele>20.361</ele>
        <time>2018-08-29T14:34:40.991Z</time>
      </trkpt>
      <trkpt lat="48.1004983" lon="-1.7277696">
        <ele>20.326</ele>
        <time>2018-08-29T14:34:44.475Z</time>
      </trkpt>
      <trkpt lat="48.1005126" lon="-1.7275976">
        <ele>19.800</ele>
        <time>2018-08-29T14:34:48.518Z</time>
      </trkpt>
      <trkpt lat="48.1005278" lon="-1.7274409">
        <ele>19.115</ele>
        <time>2018-08-29T14:34:52.241Z</time>
      </trkpt>
      <trkpt lat="48.1005514" lon="-1.7273104">
        <ele>18.665</ele>
        <time>2018-08-29T14:34:55.388Z</time>
      </trkpt>
      <trkpt lat="48.1005751" lon="-1.7271704">
        <ele>18.476</ele>
        <time>2018-08-29T14:34:58.639Z</time>
      </trkpt>
      <trkpt lat="48.1005896" lon="-1.7270351">
        <ele>18.548</ele>
        <time>2018-08-29T14:35:01.667Z</time>
      </trkpt>
      <trkpt lat="48.1006048" lon="-1.7269015">
        <ele>18.699</ele>
        <time>2018-08-29T14:35:04.644Z</time>
      </trkpt>
      <trkpt lat="48.1006205" lon="-1.7267676">
        <ele>18.858</ele>
        <time>2018-08-29T14:35:07.622Z</time>
      </trkpt>
      <trkpt lat="48.1006501" lon="-1.7265942">
        <ele>18.864</ele>
        <time>2018-08-29T14:35:11.573Z</time>
      </trkpt>
      <trkpt lat="48.1006759" lon="-1.7264333">
        <ele>18.731</ele>
        <time>2018-08-29T14:35:15.344Z</time>
      </trkpt>
      <trkpt lat="48.1007038" lon="-1.7262840">
        <ele>18.567</ele>
        <time>2018-08-29T14:35:19.042Z</time>
      </trkpt>
      <trkpt lat="48.1007351" lon="-1.7261340">
        <ele>18.603</ele>
        <time>2018-08-29T14:35:22.925Z</time>
      </trkpt>
      <trkpt lat="48.1007702" lon="-1.7259798">
        <ele>18.631</ele>
        <time>2018-08-29T14:35:26.996Z</time>
      </trkpt>
      <trkpt lat="48.1007938" lon="-1.7258334">
        <ele>18.585</ele>
        <time>2018-08-29T14:35:30.803Z</time>
      </trkpt>
      <trkpt lat="48.1008109" lon="-1.7256841">
        <ele>18.512</ele>
        <time>2018-08-29T14:35:34.698Z</time>
      </trkpt>
      <trkpt lat="48.1008332" lon="-1.7255345">
        <ele>18.520</ele>
        <time>2018-08-29T14:35:38.657Z</time>
      </trkpt>
      <trkpt lat="48.1008648" lon="-1.7253813">
        <ele>18.681</ele>
        <time>2018-08-29T14:35:42.756Z</time>
      </trkpt>
      <trkpt lat="48.1008958" lon="-1.7252222">
        <ele>18.950</ele>
        <time>2018-08-29T14:35:46.898Z</time>
      </trkpt>
      <trkpt lat="48.1009267" lon="-1.7250638">
        <ele>19.186</ele>
        <time>2018-08-29T14:35:50.952Z</time>
      </trkpt>
      <trkpt lat="48.1009582" lon="-1.7249118">
        <ele>19.380</ele>
        <time>2018-08-29T14:35:54.846Z</time>
      </trkpt>
      <trkpt lat="48.1009907" lon="-1.7247505">
        <ele>19.603</ele>
        <time>2018-08-29T14:35:58.929Z</time>
      </trkpt>
      <trkpt lat="48.1010150" lon="-1.7245941">
        <ele>19.805</ele>
        <time>2018-08-29T14:36:02.799Z</time>
      </trkpt>
      <trkpt lat="48.1010426" lon="-1.7244527">
        <ele>19.903</ele>
        <time>2018-08-29T14:36:06.430Z</time>
      </trkpt>
      <trkpt lat="48.1010719" lon="-1.7242912">
        <ele>19.900</ele>
        <time>2018-08-29T14:36:10.624Z</time>
      </trkpt>
      <trkpt lat="48.1011051" lon="-1.7241494">
        <ele>19.753</ele>
        <time>2018-08-29T14:36:14.397Z</time>
      </trkpt>
      <trkpt lat="48.1011429" lon="-1.7240069">
        <ele>19.368</ele>
        <time>2018-08-29T14:36:18.311Z</time>
      </trkpt>
      <trkpt lat="48.1011882" lon="-1.7238587">
        <ele>18.703</ele>
        <time>2018-08-29T14:36:22.478Z</time>
      </trkpt>
      <trkpt lat="48.1012310" lon="-1.7237082">
        <ele>17.951</ele>
        <time>2018-08-29T14:36:26.557Z</time>
      </trkpt>
      <trkpt lat="48.1012705" lon="-1.7235571">
        <ele>17.470</ele>
        <time>2018-08-29T14:36:30.551Z</time>
      </trkpt>
      <trkpt lat="48.1013132" lon="-1.7234145">
        <ele>17.476</ele>
        <time>2018-08-29T14:36:34.407Z</time>
      </trkpt>
      <trkpt lat="48.1013569" lon="-1.7232583">
        <ele>17.822</ele>
        <time>2018-08-29T14:36:38.523Z</time>
      </trkpt>
      <trkpt lat="48.1014026" lon="-1.7230889">
        <ele>18.020</ele>
        <time>2018-08-29T14:36:42.775Z</time>
      </trkpt>
      <trkpt lat="48.1014514" lon="-1.7229679">
        <ele>17.408</ele>
        <time>2018-08-29T14:36:45.925Z</time>
      </trkpt>
      <trkpt lat="48.1015066" lon="-1.7228603">
        <ele>17.066</ele>
        <time>2018-08-29T14:36:48.879Z</time>
      </trkpt>
      <trkpt lat="48.1015709" lon="-1.7227633">
        <ele>16.654</ele>
        <time>2018-08-29T14:36:51.810Z</time>
      </trkpt>
      <trkpt lat="48.1016497" lon="-1.7226769">
        <ele>16.243</ele>
        <time>2018-08-29T14:36:54.899Z</time>
      </trkpt>
      <trkpt lat="48.1017270" lon="-1.7226000">
        <ele>15.982</ele>
        <time>2018-08-29T14:36:57.804Z</time>
      </trkpt>
      <trkpt lat="48.1018032" lon="-1.7225171">
        <ele>15.879</ele>
        <time>2018-08-29T14:37:00.766Z</time>
      </trkpt>
      <trkpt lat="48.1018834" lon="-1.7224410">
        <ele>15.904</ele>
        <time>2018-08-29T14:37:03.783Z</time>
      </trkpt>
      <trkpt lat="48.1019702" lon="-1.7223761">
        <ele>16.046</ele>
        <time>2018-08-29T14:37:06.870Z</time>
      </trkpt>
      <trkpt lat="48.1020655" lon="-1.7223152">
        <ele>16.343</ele>
        <time>2018-08-29T14:37:10.140Z</time>
      </trkpt>
      <trkpt lat="48.1021538" lon="-1.7222585">
        <ele>16.747</ele>
        <time>2018-08-29T14:37:13.167Z</time>
      </trkpt>
      <trkpt lat="48.1022577" lon="-1.7222027">
        <ele>17.227</ele>
        <time>2018-08-29T14:37:16.705Z</time>
      </trkpt>
      <trkpt lat="48.1023483" lon="-1.7221721">
        <ele>17.205</ele>
        <time>2018-08-29T14:37:19.844Z</time>
      </trkpt>
      <trkpt lat="48.1024590" lon="-1.7221150">
        <ele>17.012</ele>
        <time>2018-08-29T14:37:24.060Z</time>
      </trkpt>
      <trkpt lat="48.1025421" lon="-1.7220521">
        <ele>16.779</ele>
        <time>2018-08-29T14:37:27.422Z</time>
      </trkpt>
      <trkpt lat="48.1026421" lon="-1.7219704">
        <ele>16.642</ele>
        <time>2018-08-29T14:37:31.506Z</time>
      </trkpt>
      <trkpt lat="48.1027361" lon="-1.7218910">
        <ele>16.710</ele>
        <time>2018-08-29T14:37:35.398Z</time>
      </trkpt>
      <trkpt lat="48.1028356" lon="-1.7217955">
        <ele>17.042</ele>
        <time>2018-08-29T14:37:39.650Z</time>
      </trkpt>
      <trkpt lat="48.1029157" lon="-1.7216713">
        <ele>17.539</ele>
        <time>2018-08-29T14:37:43.744Z</time>
      </trkpt>
      <trkpt lat="48.1029755" lon="-1.7215346">
        <ele>18.015</ele>
        <time>2018-08-29T14:37:47.625Z</time>
      </trkpt>
      <trkpt lat="48.1030246" lon="-1.7213880">
        <ele>18.313</ele>
        <time>2018-08-29T14:37:51.532Z</time>
      </trkpt>
      <trkpt lat="48.1030517" lon="-1.7212197">
        <ele>18.373</ele>
        <time>2018-08-29T14:37:55.640Z</time>
      </trkpt>
      <trkpt lat="48.1030884" lon="-1.7210688">
        <ele>18.297</ele>
        <time>2018-08-29T14:37:59.481Z</time>
      </trkpt>
      <trkpt lat="48.1031439" lon="-1.7209278">
        <ele>18.350</ele>
        <time>2018-08-29T14:38:03.461Z</time>
      </trkpt>
      <trkpt lat="48.1031896" lon="-1.7208113">
        <ele>18.680</ele>
        <time>2018-08-29T14:38:06.673Z</time>
      </trkpt>
      <trkpt lat="48.1032427" lon="-1.7206623">
        <ele>19.059</ele>
        <time>2018-08-29T14:38:10.608Z</time>
      </trkpt>
      <trkpt lat="48.1032905" lon="-1.7205166">
        <ele>19.260</ele>
        <time>2018-08-29T14:38:14.431Z</time>
      </trkpt>
      <trkpt lat="48.1033259" lon="-1.7203684">
        <ele>19.327</ele>
        <time>2018-08-29T14:38:18.242Z</time>
      </trkpt>
      <trkpt lat="48.1033552" lon="-1.7202293">
        <ele>19.519</ele>
        <time>2018-08-29T14:38:21.903Z</time>
      </trkpt>
      <trkpt lat="48.1033941" lon="-1.7200866">
        <ele>19.987</ele>
        <time>2018-08-29T14:38:25.899Z</time>
      </trkpt>
      <trkpt lat="48.1034326" lon="-1.7199297">
        <ele>20.400</ele>
        <time>2018-08-29T14:38:30.190Z</time>
      </trkpt>
      <trkpt lat="48.1034672" lon="-1.7197678">
        <ele>20.445</ele>
        <time>2018-08-29T14:38:34.408Z</time>
      </trkpt>
      <trkpt lat="48.1035027" lon="-1.7196049">
        <ele>20.314</ele>
        <time>2018-08-29T14:38:38.550Z</time>
      </trkpt>
      <trkpt lat="48.1035499" lon="-1.7194665">
        <ele>20.245</ele>
        <time>2018-08-29T14:38:42.317Z</time>
      </trkpt>
      <trkpt lat="48.1035970" lon="-1.7193240">
        <ele>20.215</ele>
        <time>2018-08-29T14:38:46.257Z</time>
      </trkpt>
      <trkpt lat="48.1036368" lon="-1.7191884">
        <ele>20.087</ele>
        <time>2018-08-29T14:38:50.014Z</time>
      </trkpt>
      <trkpt lat="48.1036876" lon="-1.7190530">
        <ele>19.852</ele>
        <time>2018-08-29T14:38:53.999Z</time>
      </trkpt>
      <trkpt lat="48.1036876" lon="-1.7190530">
        <ele>19.650</ele>
        <time>2018-08-29T14:38:55.999Z</time>
      </trkpt>
      <trkpt lat="48.1036876" lon="-1.7190530">
        <ele>19.571</ele>
        <time>2018-08-29T14:38:56.099Z</time>
      </trkpt>
      <trkpt lat="48.1037959" lon="-1.7188101">
        <ele>19.577</ele>
        <time>2018-08-29T14:39:08.554Z</time>
      </trkpt>
      <trkpt lat="48.1038542" lon="-1.7187046">
        <ele>19.260</ele>
        <time>2018-08-29T14:39:13.021Z</time>
      </trkpt>
      <trkpt lat="48.1039225" lon="-1.7185947">
        <ele>18.321</ele>
        <time>2018-08-29T14:39:17.618Z</time>
      </trkpt>
      <trkpt lat="48.1039952" lon="-1.7185032">
        <ele>17.215</ele>
        <time>2018-08-29T14:39:21.681Z</time>
      </trkpt>
      <trkpt lat="48.1040628" lon="-1.7184029">
        <ele>16.447</ele>
        <time>2018-08-29T14:39:25.463Z</time>
      </trkpt>
      <trkpt lat="48.1041418" lon="-1.7183002">
        <ele>15.940</ele>
        <time>2018-08-29T14:39:29.368Z</time>
      </trkpt>
      <trkpt lat="48.1042284" lon="-1.7181947">
        <ele>15.576</ele>
        <time>2018-08-29T14:39:33.379Z</time>
      </trkpt>
      <trkpt lat="48.1043202" lon="-1.7180924">
        <ele>15.431</ele>
        <time>2018-08-29T14:39:37.384Z</time>
      </trkpt>
      <trkpt lat="48.1044174" lon="-1.7180013">
        <ele>15.809</ele>
        <time>2018-08-29T14:39:41.262Z</time>
      </trkpt>
      <trkpt lat="48.1045193" lon="-1.7179099">
        <ele>16.747</ele>
        <time>2018-08-29T14:39:45.093Z</time>
      </trkpt>
      <trkpt lat="48.1045914" lon="-1.7178193">
        <ele>17.682</ele>
        <time>2018-08-29T14:39:48.042Z</time>
      </trkpt>
      <trkpt lat="48.1046661" lon="-1.7177248">
        <ele>18.139</ele>
        <time>2018-08-29T14:39:51.079Z</time>
      </trkpt>
      <trkpt lat="48.1047528" lon="-1.7176064">
        <ele>18.202</ele>
        <time>2018-08-29T14:39:54.772Z</time>
      </trkpt>
      <trkpt lat="48.1048179" lon="-1.7175109">
        <ele>18.091</ele>
        <time>2018-08-29T14:39:57.641Z</time>
      </trkpt>
      <trkpt lat="48.1048886" lon="-1.7174177">
        <ele>17.956</ele>
        <time>2018-08-29T14:40:00.593Z</time>
      </trkpt>
      <trkpt lat="48.1049618" lon="-1.7173233">
        <ele>17.833</ele>
        <time>2018-08-29T14:40:03.627Z</time>
      </trkpt>
      <trkpt lat="48.1050334" lon="-1.7172386">
        <ele>17.669</ele>
        <time>2018-08-29T14:40:06.543Z</time>
      </trkpt>
      <trkpt lat="48.1051053" lon="-1.7171487">
        <ele>17.403</ele>
        <time>2018-08-29T14:40:10.031Z</time>
      </trkpt>
      <trkpt lat="48.1051692" lon="-1.7170478">
        <ele>17.093</ele>
        <time>2018-08-29T14:40:13.572Z</time>
      </trkpt>
      <trkpt lat="48.1054906" lon="-1.7164666">
        <ele>16.915</ele>
        <time>2018-08-29T14:40:32.550Z</time>
      </trkpt>
      <trkpt lat="48.1055772" lon="-1.7163817">
        <ele>17.480</ele>
        <time>2018-08-29T14:40:35.952Z</time>
      </trkpt>
      <trkpt lat="48.1056552" lon="-1.7162874">
        <ele>18.566</ele>
        <time>2018-08-29T14:40:39.452Z</time>
      </trkpt>
      <trkpt lat="48.1057130" lon="-1.7161756">
        <ele>19.658</ele>
        <time>2018-08-29T14:40:42.954Z</time>
      </trkpt>
      <trkpt lat="48.1057636" lon="-1.7160599">
        <ele>20.046</ele>
        <time>2018-08-29T14:40:46.553Z</time>
      </trkpt>
      <trkpt lat="48.1058217" lon="-1.7159260">
        <ele>19.808</ele>
        <time>2018-08-29T14:40:50.913Z</time>
      </trkpt>
      <trkpt lat="48.1058737" lon="-1.7158053">
        <ele>19.706</ele>
        <time>2018-08-29T14:40:55.040Z</time>
      </trkpt>
      <trkpt lat="48.1059172" lon="-1.7156819">
        <ele>19.924</ele>
        <time>2018-08-29T14:40:59.259Z</time>
      </trkpt>
      <trkpt lat="48.1059773" lon="-1.7155374">
        <ele>20.517</ele>
        <time>2018-08-29T14:41:04.326Z</time>
      </trkpt>
      <trkpt lat="48.1060357" lon="-1.7153945">
        <ele>21.246</ele>
        <time>2018-08-29T14:41:08.550Z</time>
      </trkpt>
      <trkpt lat="48.1060895" lon="-1.7152471">
        <ele>21.747</ele>
        <time>2018-08-29T14:41:11.998Z</time>
      </trkpt>
      <trkpt lat="48.1060895" lon="-1.7152471">
        <ele>21.905</ele>
        <time>2018-08-29T14:41:11.998Z</time>
      </trkpt>
      <trkpt lat="48.1060895" lon="-1.7152471">
        <ele>21.885</ele>
        <time>2018-08-29T14:41:12.098Z</time>
      </trkpt>
      <trkpt lat="48.1061513" lon="-1.7150257">
        <ele>21.854</ele>
        <time>2018-08-29T14:41:19.685Z</time>
      </trkpt>
      <trkpt lat="48.1061968" lon="-1.7148662">
        <ele>22.023</ele>
        <time>2018-08-29T14:41:23.586Z</time>
      </trkpt>
      <trkpt lat="48.1062134" lon="-1.7147229">
        <ele>22.564</ele>
        <time>2018-08-29T14:41:26.973Z</time>
      </trkpt>
      <trkpt lat="48.1061984" lon="-1.7145755">
        <ele>23.274</ele>
        <time>2018-08-29T14:41:30.434Z</time>
      </trkpt>
      <trkpt lat="48.1061972" lon="-1.7144121">
        <ele>23.755</ele>
        <time>2018-08-29T14:41:34.213Z</time>
      </trkpt>
      <trkpt lat="48.1061805" lon="-1.7142736">
        <ele>23.943</ele>
        <time>2018-08-29T14:41:37.467Z</time>
      </trkpt>
      <trkpt lat="48.1061868" lon="-1.7141106">
        <ele>24.054</ele>
        <time>2018-08-29T14:41:41.272Z</time>
      </trkpt>
      <trkpt lat="48.1062062" lon="-1.7139363">
        <ele>24.352</ele>
        <time>2018-08-29T14:41:45.414Z</time>
      </trkpt>
      <trkpt lat="48.1062206" lon="-1.7137654">
        <ele>24.976</ele>
        <time>2018-08-29T14:41:49.406Z</time>
      </trkpt>
      <trkpt lat="48.1062275" lon="-1.7136312">
        <ele>25.726</ele>
        <time>2018-08-29T14:41:52.504Z</time>
      </trkpt>
      <trkpt lat="48.1062377" lon="-1.7134711">
        <ele>26.155</ele>
        <time>2018-08-29T14:41:56.245Z</time>
      </trkpt>
      <trkpt lat="48.1062508" lon="-1.7133037">
        <ele>26.115</ele>
        <time>2018-08-29T14:42:00.227Z</time>
      </trkpt>
      <trkpt lat="48.1062512" lon="-1.7131378">
        <ele>26.188</ele>
        <time>2018-08-29T14:42:04.184Z</time>
      </trkpt>
      <trkpt lat="48.1062422" lon="-1.7129666">
        <ele>26.822</ele>
        <time>2018-08-29T14:42:08.317Z</time>
      </trkpt>
      <trkpt lat="48.1062491" lon="-1.7128111">
        <ele>27.590</ele>
        <time>2018-08-29T14:42:12.064Z</time>
      </trkpt>
      <trkpt lat="48.1062498" lon="-1.7126351">
        <ele>27.999</ele>
        <time>2018-08-29T14:42:16.182Z</time>
      </trkpt>
      <trkpt lat="48.1062477" lon="-1.7124992">
        <ele>28.172</ele>
        <time>2018-08-29T14:42:19.233Z</time>
      </trkpt>
      <trkpt lat="48.1062557" lon="-1.7123550">
        <ele>28.331</ele>
        <time>2018-08-29T14:42:22.353Z</time>
      </trkpt>
      <trkpt lat="48.1062578" lon="-1.7122082">
        <ele>28.475</ele>
        <time>2018-08-29T14:42:25.432Z</time>
      </trkpt>
      <trkpt lat="48.1062585" lon="-1.7120661">
        <ele>28.530</ele>
        <time>2018-08-29T14:42:28.394Z</time>
      </trkpt>
      <trkpt lat="48.1062523" lon="-1.7119200">
        <ele>28.508</ele>
        <time>2018-08-29T14:42:31.452Z</time>
      </trkpt>
      <trkpt lat="48.1062559" lon="-1.7117830">
        <ele>28.381</ele>
        <time>2018-08-29T14:42:34.342Z</time>
      </trkpt>
      <trkpt lat="48.1062502" lon="-1.7116462">
        <ele>28.110</ele>
        <time>2018-08-29T14:42:37.281Z</time>
      </trkpt>
      <trkpt lat="48.1062555" lon="-1.7114767">
        <ele>27.744</ele>
        <time>2018-08-29T14:42:40.994Z</time>
      </trkpt>
      <trkpt lat="48.1062583" lon="-1.7113037">
        <ele>27.355</ele>
        <time>2018-08-29T14:42:44.900Z</time>
      </trkpt>
      <trkpt lat="48.1062647" lon="-1.7111387">
        <ele>26.965</ele>
        <time>2018-08-29T14:42:48.709Z</time>
      </trkpt>
      <trkpt lat="48.1062562" lon="-1.7109955">
        <ele>26.592</ele>
        <time>2018-08-29T14:42:51.987Z</time>
      </trkpt>
      <trkpt lat="48.1062554" lon="-1.7108573">
        <ele>26.099</ele>
        <time>2018-08-29T14:42:55.053Z</time>
      </trkpt>
      <trkpt lat="48.1062554" lon="-1.7107169">
        <ele>26.012</ele>
        <time>2018-08-29T14:42:58.151Z</time>
      </trkpt>
      <trkpt lat="48.1062684" lon="-1.7105529">
        <ele>25.984</ele>
        <time>2018-08-29T14:43:01.868Z</time>
      </trkpt>
      <trkpt lat="48.1062706" lon="-1.7103914">
        <ele>26.078</ele>
        <time>2018-08-29T14:43:05.636Z</time>
      </trkpt>
      <trkpt lat="48.1062754" lon="-1.7102294">
        <ele>26.325</ele>
        <time>2018-08-29T14:43:09.541Z</time>
      </trkpt>
      <trkpt lat="48.1062865" lon="-1.7100694">
        <ele>26.492</ele>
        <time>2018-08-29T14:43:13.461Z</time>
      </trkpt>
      <trkpt lat="48.1062870" lon="-1.7099294">
        <ele>26.364</ele>
        <time>2018-08-29T14:43:16.778Z</time>
      </trkpt>
      <trkpt lat="48.1062894" lon="-1.7097569">
        <ele>26.082</ele>
        <time>2018-08-29T14:43:20.766Z</time>
      </trkpt>
      <trkpt lat="48.1062959" lon="-1.7095814">
        <ele>25.885</ele>
        <time>2018-08-29T14:43:24.782Z</time>
      </trkpt>
      <trkpt lat="48.1063004" lon="-1.7094072">
        <ele>25.878</ele>
        <time>2018-08-29T14:43:28.745Z</time>
      </trkpt>
      <trkpt lat="48.1063075" lon="-1.7092304">
        <ele>26.090</ele>
        <time>2018-08-29T14:43:32.768Z</time>
      </trkpt>
      <trkpt lat="48.1063091" lon="-1.7090576">
        <ele>26.438</ele>
        <time>2018-08-29T14:43:36.749Z</time>
      </trkpt>
      <trkpt lat="48.1063162" lon="-1.7088922">
        <ele>26.731</ele>
        <time>2018-08-29T14:43:40.646Z</time>
      </trkpt>
      <trkpt lat="48.1063223" lon="-1.7087194">
        <ele>26.924</ele>
        <time>2018-08-29T14:43:44.746Z</time>
      </trkpt>
      <trkpt lat="48.1063145" lon="-1.7085604">
        <ele>27.094</ele>
        <time>2018-08-29T14:43:48.572Z</time>
      </trkpt>
      <trkpt lat="48.1063079" lon="-1.7084075">
        <ele>27.001</ele>
        <time>2018-08-29T14:43:52.381Z</time>
      </trkpt>
      <trkpt lat="48.1063033" lon="-1.7082532">
        <ele>26.363</ele>
        <time>2018-08-29T14:43:56.376Z</time>
      </trkpt>
      <trkpt lat="48.1063317" lon="-1.7081043">
        <ele>25.461</ele>
        <time>2018-08-29T14:44:00.407Z</time>
      </trkpt>
      <trkpt lat="48.1063342" lon="-1.7079288">
        <ele>24.646</ele>
        <time>2018-08-29T14:44:04.836Z</time>
      </trkpt>
      <trkpt lat="48.1063313" lon="-1.7077692">
        <ele>24.168</ele>
        <time>2018-08-29T14:44:08.805Z</time>
      </trkpt>
      <trkpt lat="48.1063251" lon="-1.7076220">
        <ele>23.733</ele>
        <time>2018-08-29T14:44:12.546Z</time>
      </trkpt>
      <trkpt lat="48.1063326" lon="-1.7074757">
        <ele>22.951</ele>
        <time>2018-08-29T14:44:16.372Z</time>
      </trkpt>
      <trkpt lat="48.1063309" lon="-1.7073355">
        <ele>22.145</ele>
        <time>2018-08-29T14:44:20.153Z</time>
      </trkpt>
      <trkpt lat="48.1063419" lon="-1.7071704">
        <ele>21.744</ele>
        <time>2018-08-29T14:44:24.791Z</time>
      </trkpt>
      <trkpt lat="48.1063524" lon="-1.7070177">
        <ele>21.749</ele>
        <time>2018-08-29T14:44:29.126Z</time>
      </trkpt>
      <trkpt lat="48.1063601" lon="-1.7068729">
        <ele>22.048</ele>
        <time>2018-08-29T14:44:33.099Z</time>
      </trkpt>
      <trkpt lat="48.1063461" lon="-1.7066974">
        <ele>22.468</ele>
        <time>2018-08-29T14:44:37.672Z</time>
      </trkpt>
      <trkpt lat="48.1063266" lon="-1.7065291">
        <ele>23.073</ele>
        <time>2018-08-29T14:44:41.914Z</time>
      </trkpt>
      <trkpt lat="48.1063271" lon="-1.7063659">
        <ele>23.927</ele>
        <time>2018-08-29T14:44:45.930Z</time>
      </trkpt>
      <trkpt lat="48.1063251" lon="-1.7061999">
        <ele>24.655</ele>
        <time>2018-08-29T14:44:49.971Z</time>
      </trkpt>
      <trkpt lat="48.1063184" lon="-1.7060295">
        <ele>24.967</ele>
        <time>2018-08-29T14:44:54.093Z</time>
      </trkpt>
      <trkpt lat="48.1063249" lon="-1.7058752">
        <ele>24.988</ele>
        <time>2018-08-29T14:44:57.855Z</time>
      </trkpt>
      <trkpt lat="48.1063335" lon="-1.7057170">
        <ele>24.858</ele>
        <time>2018-08-29T14:45:01.734Z</time>
      </trkpt>
      <trkpt lat="48.1063472" lon="-1.7055524">
        <ele>24.349</ele>
        <time>2018-08-29T14:45:05.753Z</time>
      </trkpt>
      <trkpt lat="48.1063517" lon="-1.7053934">
        <ele>23.242</ele>
        <time>2018-08-29T14:45:09.646Z</time>
      </trkpt>
      <trkpt lat="48.1063611" lon="-1.7052500">
        <ele>21.881</ele>
        <time>2018-08-29T14:45:13.287Z</time>
      </trkpt>
      <trkpt lat="48.1063738" lon="-1.7051070">
        <ele>20.831</ele>
        <time>2018-08-29T14:45:17.058Z</time>
      </trkpt>
      <trkpt lat="48.1063836" lon="-1.7049675">
        <ele>20.281</ele>
        <time>2018-08-29T14:45:20.827Z</time>
      </trkpt>
      <trkpt lat="48.1063903" lon="-1.7048177">
        <ele>20.112</ele>
        <time>2018-08-29T14:45:24.883Z</time>
      </trkpt>
      <trkpt lat="48.1064034" lon="-1.7046649">
        <ele>20.181</ele>
        <time>2018-08-29T14:45:28.936Z</time>
      </trkpt>
      <trkpt lat="48.1064163" lon="-1.7045065">
        <ele>20.433</ele>
        <time>2018-08-29T14:45:33.013Z</time>
      </trkpt>
      <trkpt lat="48.1064290" lon="-1.7043505">
        <ele>20.753</ele>
        <time>2018-08-29T14:45:36.965Z</time>
      </trkpt>
      <trkpt lat="48.1064475" lon="-1.7041864">
        <ele>21.134</ele>
        <time>2018-08-29T14:45:41.047Z</time>
      </trkpt>
      <trkpt lat="48.1064669" lon="-1.7040136">
        <ele>21.590</ele>
        <time>2018-08-29T14:45:45.201Z</time>
      </trkpt>
      <trkpt lat="48.1064878" lon="-1.7038398">
        <ele>21.926</ele>
        <time>2018-08-29T14:45:49.268Z</time>
      </trkpt>
      <trkpt lat="48.1065033" lon="-1.7036625">
        <ele>22.005</ele>
        <time>2018-08-29T14:45:53.316Z</time>
      </trkpt>
      <trkpt lat="48.1065207" lon="-1.7034890">
        <ele>22.000</ele>
        <time>2018-08-29T14:45:57.299Z</time>
      </trkpt>
      <trkpt lat="48.1065514" lon="-1.7033216">
        <ele>22.119</ele>
        <time>2018-08-29T14:46:01.295Z</time>
      </trkpt>
      <trkpt lat="48.1065749" lon="-1.7031901">
        <ele>22.489</ele>
        <time>2018-08-29T14:46:04.408Z</time>
      </trkpt>
      <trkpt lat="48.1065969" lon="-1.7030139">
        <ele>23.110</ele>
        <time>2018-08-29T14:46:08.443Z</time>
      </trkpt>
      <trkpt lat="48.1066022" lon="-1.7028788">
        <ele>23.763</ele>
        <time>2018-08-29T14:46:11.464Z</time>
      </trkpt>
      <trkpt lat="48.1066184" lon="-1.7027104">
        <ele>24.331</ele>
        <time>2018-08-29T14:46:15.292Z</time>
      </trkpt>
      <trkpt lat="48.1066379" lon="-1.7025355">
        <ele>24.915</ele>
        <time>2018-08-29T14:46:19.315Z</time>
      </trkpt>
      <trkpt lat="48.1066536" lon="-1.7023630">
        <ele>25.646</ele>
        <time>2018-08-29T14:46:23.305Z</time>
      </trkpt>
      <trkpt lat="48.1066760" lon="-1.7022065">
        <ele>26.561</ele>
        <time>2018-08-29T14:46:27.039Z</time>
      </trkpt>
      <trkpt lat="48.1067092" lon="-1.7020394">
        <ele>27.438</ele>
        <time>2018-08-29T14:46:31.165Z</time>
      </trkpt>
      <trkpt lat="48.1067262" lon="-1.7018673">
        <ele>28.205</ele>
        <time>2018-08-29T14:46:35.266Z</time>
      </trkpt>
      <trkpt lat="48.1067469" lon="-1.7016996">
        <ele>29.075</ele>
        <time>2018-08-29T14:46:39.246Z</time>
      </trkpt>
      <trkpt lat="48.1067553" lon="-1.7015356">
        <ele>29.930</ele>
        <time>2018-08-29T14:46:43.083Z</time>
      </trkpt>
      <trkpt lat="48.1067556" lon="-1.7013734">
        <ele>30.456</ele>
        <time>2018-08-29T14:46:46.920Z</time>
      </trkpt>
      <trkpt lat="48.1067674" lon="-1.7012066">
        <ele>30.514</ele>
        <time>2018-08-29T14:46:50.904Z</time>
      </trkpt>
      <trkpt lat="48.1067811" lon="-1.7010254">
        <ele>30.190</ele>
        <time>2018-08-29T14:46:55.097Z</time>
      </trkpt>
      <trkpt lat="48.1067962" lon="-1.7008761">
        <ele>29.871</ele>
        <time>2018-08-29T14:46:58.374Z</time>
      </trkpt>
      <trkpt lat="48.1068483" lon="-1.7007141">
        <ele>30.013</ele>
        <time>2018-08-29T14:47:02.167Z</time>
      </trkpt>
      <trkpt lat="48.1068963" lon="-1.7005780">
        <ele>30.114</ele>
        <time>2018-08-29T14:47:05.338Z</time>
      </trkpt>
      <trkpt lat="48.1069338" lon="-1.7004425">
        <ele>30.143</ele>
        <time>2018-08-29T14:47:08.390Z</time>
      </trkpt>
      <trkpt lat="48.1069577" lon="-1.7002878">
        <ele>30.037</ele>
        <time>2018-08-29T14:47:11.826Z</time>
      </trkpt>
      <trkpt lat="48.1069774" lon="-1.7001520">
        <ele>29.634</ele>
        <time>2018-08-29T14:47:14.947Z</time>
      </trkpt>
      <trkpt lat="48.1070019" lon="-1.7000125">
        <ele>29.000</ele>
        <time>2018-08-29T14:47:18.137Z</time>
      </trkpt>
      <trkpt lat="48.1070322" lon="-1.6998775">
        <ele>28.439</ele>
        <time>2018-08-29T14:47:21.251Z</time>
      </trkpt>
      <trkpt lat="48.1070749" lon="-1.6997231">
        <ele>27.908</ele>
        <time>2018-08-29T14:47:24.935Z</time>
      </trkpt>
      <trkpt lat="48.1071059" lon="-1.6995631">
        <ele>27.163</ele>
        <time>2018-08-29T14:47:28.699Z</time>
      </trkpt>
      <trkpt lat="48.1071334" lon="-1.6994035">
        <ele>26.339</ele>
        <time>2018-08-29T14:47:32.506Z</time>
      </trkpt>
      <trkpt lat="48.1071593" lon="-1.6992476">
        <ele>25.738</ele>
        <time>2018-08-29T14:47:36.322Z</time>
      </trkpt>
      <trkpt lat="48.1071786" lon="-1.6991161">
        <ele>25.416</ele>
        <time>2018-08-29T14:47:39.542Z</time>
      </trkpt>
      <trkpt lat="48.1072017" lon="-1.6989416">
        <ele>25.202</ele>
        <time>2018-08-29T14:47:43.700Z</time>
      </trkpt>
      <trkpt lat="48.1072352" lon="-1.6987871">
        <ele>24.945</ele>
        <time>2018-08-29T14:47:47.485Z</time>
      </trkpt>
      <trkpt lat="48.1072494" lon="-1.6986376">
        <ele>24.685</ele>
        <time>2018-08-29T14:47:50.948Z</time>
      </trkpt>
      <trkpt lat="48.1072849" lon="-1.6984925">
        <ele>24.499</ele>
        <time>2018-08-29T14:47:54.466Z</time>
      </trkpt>
      <trkpt lat="48.1073113" lon="-1.6983421">
        <ele>24.399</ele>
        <time>2018-08-29T14:47:58.158Z</time>
      </trkpt>
      <trkpt lat="48.1073381" lon="-1.6981715">
        <ele>24.314</ele>
        <time>2018-08-29T14:48:02.410Z</time>
      </trkpt>
      <trkpt lat="48.1073770" lon="-1.6980097">
        <ele>24.162</ele>
        <time>2018-08-29T14:48:06.476Z</time>
      </trkpt>
      <trkpt lat="48.1074166" lon="-1.6978788">
        <ele>23.976</ele>
        <time>2018-08-29T14:48:09.794Z</time>
      </trkpt>
      <trkpt lat="48.1074612" lon="-1.6977412">
        <ele>23.849</ele>
        <time>2018-08-29T14:48:13.193Z</time>
      </trkpt>
      <trkpt lat="48.1075080" lon="-1.6976136">
        <ele>23.812</ele>
        <time>2018-08-29T14:48:16.318Z</time>
      </trkpt>
      <trkpt lat="48.1075458" lon="-1.6974809">
        <ele>23.855</ele>
        <time>2018-08-29T14:48:19.359Z</time>
      </trkpt>
      <trkpt lat="48.1075934" lon="-1.6973221">
        <ele>23.941</ele>
        <time>2018-08-29T14:48:23.059Z</time>
      </trkpt>
      <trkpt lat="48.1076243" lon="-1.6971740">
        <ele>24.016</ele>
        <time>2018-08-29T14:48:26.473Z</time>
      </trkpt>
      <trkpt lat="48.1076555" lon="-1.6970459">
        <ele>23.992</ele>
        <time>2018-08-29T14:48:29.584Z</time>
      </trkpt>
      <trkpt lat="48.1076943" lon="-1.6969081">
        <ele>23.838</ele>
        <time>2018-08-29T14:48:33.062Z</time>
      </trkpt>
      <trkpt lat="48.1077312" lon="-1.6967736">
        <ele>23.489</ele>
        <time>2018-08-29T14:48:36.631Z</time>
      </trkpt>
      <trkpt lat="48.1077565" lon="-1.6966183">
        <ele>23.214</ele>
        <time>2018-08-29T14:48:40.670Z</time>
      </trkpt>
      <trkpt lat="48.1077663" lon="-1.6964674">
        <ele>22.909</ele>
        <time>2018-08-29T14:48:44.531Z</time>
      </trkpt>
      <trkpt lat="48.1077524" lon="-1.6963044">
        <ele>22.736</ele>
        <time>2018-08-29T14:48:48.771Z</time>
      </trkpt>
      <trkpt lat="48.1077524" lon="-1.6961334">
        <ele>22.703</ele>
        <time>2018-08-29T14:48:53.118Z</time>
      </trkpt>
      <trkpt lat="48.1077571" lon="-1.6959813">
        <ele>22.735</ele>
        <time>2018-08-29T14:48:56.936Z</time>
      </trkpt>
      <trkpt lat="48.1077486" lon="-1.6958255">
        <ele>22.761</ele>
        <time>2018-08-29T14:49:00.847Z</time>
      </trkpt>
      <trkpt lat="48.1077338" lon="-1.6956709">
        <ele>22.696</ele>
        <time>2018-08-29T14:49:04.752Z</time>
      </trkpt>
      <trkpt lat="48.1077172" lon="-1.6955175">
        <ele>22.430</ele>
        <time>2018-08-29T14:49:08.690Z</time>
      </trkpt>
      <trkpt lat="48.1077004" lon="-1.6953444">
        <ele>22.002</ele>
        <time>2018-08-29T14:49:13.251Z</time>
      </trkpt>
      <trkpt lat="48.1076669" lon="-1.6952128">
        <ele>21.624</ele>
        <time>2018-08-29T14:49:17.042Z</time>
      </trkpt>
      <trkpt lat="48.1075751" lon="-1.6951420">
        <ele>21.454</ele>
        <time>2018-08-29T14:49:21.491Z</time>
      </trkpt>
      <trkpt lat="48.1074557" lon="-1.6951678">
        <ele>21.468</ele>
        <time>2018-08-29T14:49:27.000Z</time>
      </trkpt>
      <trkpt lat="48.1074557" lon="-1.6951678">
        <ele>21.526</ele>
        <time>2018-08-29T14:49:29.000Z</time>
      </trkpt>
      <trkpt lat="48.1074557" lon="-1.6951678">
        <ele>21.526</ele>
        <time>2018-08-29T14:49:29.100Z</time>
      </trkpt>
      <trkpt lat="48.1072320" lon="-1.6951612">
        <ele>21.494</ele>
        <time>2018-08-29T14:49:39.530Z</time>
      </trkpt>
      <trkpt lat="48.1071157" lon="-1.6951584">
        <ele>21.483</ele>
        <time>2018-08-29T14:49:43.281Z</time>
      </trkpt>
      <trkpt lat="48.1070039" lon="-1.6951433">
        <ele>21.448</ele>
        <time>2018-08-29T14:49:46.869Z</time>
      </trkpt>
      <trkpt lat="48.1068896" lon="-1.6951481">
        <ele>21.347</ele>
        <time>2018-08-29T14:49:50.479Z</time>
      </trkpt>
      <trkpt lat="48.1067725" lon="-1.6951498">
        <ele>21.237</ele>
        <time>2018-08-29T14:49:54.167Z</time>
      </trkpt>
      <trkpt lat="48.1066656" lon="-1.6951377">
        <ele>21.196</ele>
        <time>2018-08-29T14:49:57.536Z</time>
      </trkpt>
      <trkpt lat="48.1065541" lon="-1.6950756">
        <ele>21.221</ele>
        <time>2018-08-29T14:50:01.280Z</time>
      </trkpt>
      <trkpt lat="48.1064453" lon="-1.6950149">
        <ele>21.202</ele>
        <time>2018-08-29T14:50:04.989Z</time>
      </trkpt>
      <trkpt lat="48.1063676" lon="-1.6949149">
        <ele>21.064</ele>
        <time>2018-08-29T14:50:08.395Z</time>
      </trkpt>
      <trkpt lat="48.1063629" lon="-1.6947804">
        <ele>20.951</ele>
        <time>2018-08-29T14:50:11.577Z</time>
      </trkpt>
      <trkpt lat="48.1063822" lon="-1.6946275">
        <ele>21.100</ele>
        <time>2018-08-29T14:50:15.318Z</time>
      </trkpt>
      <trkpt lat="48.1063977" lon="-1.6944871">
        <ele>21.532</ele>
        <time>2018-08-29T14:50:18.658Z</time>
      </trkpt>
      <trkpt lat="48.1064173" lon="-1.6943177">
        <ele>22.054</ele>
        <time>2018-08-29T14:50:22.507Z</time>
      </trkpt>
      <trkpt lat="48.1064518" lon="-1.6941632">
        <ele>22.543</ele>
        <time>2018-08-29T14:50:26.000Z</time>
      </trkpt>
      <trkpt lat="48.1064518" lon="-1.6941632">
        <ele>22.963</ele>
        <time>2018-08-29T14:50:29.000Z</time>
      </trkpt>
      <trkpt lat="48.1064518" lon="-1.6941632">
        <ele>23.182</ele>
        <time>2018-08-29T14:50:29.100Z</time>
      </trkpt>
      <trkpt lat="48.1064073" lon="-1.6939280">
        <ele>23.154</ele>
        <time>2018-08-29T14:50:34.626Z</time>
      </trkpt>
      <trkpt lat="48.1063969" lon="-1.6937598">
        <ele>23.308</ele>
        <time>2018-08-29T14:50:37.000Z</time>
      </trkpt>
      <trkpt lat="48.1063969" lon="-1.6937598">
        <ele>23.947</ele>
        <time>2018-08-29T14:50:39.000Z</time>
      </trkpt>
      <trkpt lat="48.1063969" lon="-1.6937598">
        <ele>24.520</ele>
        <time>2018-08-29T14:50:39.100Z</time>
      </trkpt>
      <trkpt lat="48.1063310" lon="-1.6934935">
        <ele>24.505</ele>
        <time>2018-08-29T14:50:53.000Z</time>
      </trkpt>
      <trkpt lat="48.1063310" lon="-1.6934935">
        <ele>24.266</ele>
        <time>2018-08-29T14:50:54.000Z</time>
      </trkpt>
      <trkpt lat="48.1063310" lon="-1.6934935">
        <ele>24.233</ele>
        <time>2018-08-29T14:50:54.100Z</time>
      </trkpt>
      <trkpt lat="48.1063310" lon="-1.6934935">
        <ele>24.335</ele>
        <time>2018-08-29T14:50:57.000Z</time>
      </trkpt>
      <trkpt lat="48.1063310" lon="-1.6934935">
        <ele>24.295</ele>
        <time>2018-08-29T14:51:36.299Z</time>
      </trkpt>
      <trkpt lat="48.1062694" lon="-1.6931709">
        <ele>24.277</ele>
        <time>2018-08-29T14:51:52.344Z</time>
      </trkpt>
      <trkpt lat="48.1063818" lon="-1.6931289">
        <ele>24.306</ele>
        <time>2018-08-29T14:51:56.858Z</time>
      </trkpt>
      <trkpt lat="48.1065007" lon="-1.6930967">
        <ele>24.372</ele>
        <time>2018-08-29T14:52:00.990Z</time>
      </trkpt>
      <trkpt lat="48.1066123" lon="-1.6930827">
        <ele>24.434</ele>
        <time>2018-08-29T14:52:04.683Z</time>
      </trkpt>
      <trkpt lat="48.1067035" lon="-1.6930650">
        <ele>24.474</ele>
        <time>2018-08-29T14:52:08.046Z</time>
      </trkpt>
      <trkpt lat="48.1068014" lon="-1.6930392">
        <ele>24.520</ele>
        <time>2018-08-29T14:52:11.871Z</time>
      </trkpt>
      <trkpt lat="48.1069090" lon="-1.6930232">
        <ele>24.581</ele>
        <time>2018-08-29T14:52:16.685Z</time>
      </trkpt>
      <trkpt lat="48.1070095" lon="-1.6930330">
        <ele>24.615</ele>
        <time>2018-08-29T14:52:21.092Z</time>
      </trkpt>
      <trkpt lat="48.1071024" lon="-1.6930257">
        <ele>24.577</ele>
        <time>2018-08-29T14:52:25.000Z</time>
      </trkpt>
      <trkpt lat="48.1071024" lon="-1.6930257">
        <ele>24.505</ele>
        <time>2018-08-29T14:52:28.000Z</time>
      </trkpt>
      <trkpt lat="48.1071024" lon="-1.6930257">
        <ele>24.472</ele>
        <time>2018-08-29T14:52:28.100Z</time>
      </trkpt>
      <trkpt lat="48.1071592" lon="-1.6926233">
        <ele>24.485</ele>
        <time>2018-08-29T14:52:42.083Z</time>
      </trkpt>
      <trkpt lat="48.1071868" lon="-1.6924891">
        <ele>24.645</ele>
        <time>2018-08-29T14:52:45.028Z</time>
      </trkpt>
      <trkpt lat="48.1072239" lon="-1.6923236">
        <ele>25.041</ele>
        <time>2018-08-29T14:52:48.711Z</time>
      </trkpt>
      <trkpt lat="48.1072402" lon="-1.6921665">
        <ele>25.540</ele>
        <time>2018-08-29T14:52:52.238Z</time>
      </trkpt>
      <trkpt lat="48.1072552" lon="-1.6920159">
        <ele>25.982</ele>
        <time>2018-08-29T14:52:55.845Z</time>
      </trkpt>
      <trkpt lat="48.1073289" lon="-1.6919072">
        <ele>26.376</ele>
        <time>2018-08-29T14:52:59.651Z</time>
      </trkpt>
      <trkpt lat="48.1073709" lon="-1.6917825">
        <ele>26.726</ele>
        <time>2018-08-29T14:53:02.784Z</time>
      </trkpt>
      <trkpt lat="48.1073992" lon="-1.6916373">
        <ele>26.936</ele>
        <time>2018-08-29T14:53:05.899Z</time>
      </trkpt>
      <trkpt lat="48.1074492" lon="-1.6914982">
        <ele>26.959</ele>
        <time>2018-08-29T14:53:09.069Z</time>
      </trkpt>
      <trkpt lat="48.1074996" lon="-1.6913486">
        <ele>26.965</ele>
        <time>2018-08-29T14:53:12.551Z</time>
      </trkpt>
      <trkpt lat="48.1075379" lon="-1.6911945">
        <ele>27.140</ele>
        <time>2018-08-29T14:53:16.115Z</time>
      </trkpt>
      <trkpt lat="48.1075536" lon="-1.6910344">
        <ele>27.471</ele>
        <time>2018-08-29T14:53:19.687Z</time>
      </trkpt>
      <trkpt lat="48.1076106" lon="-1.6908834">
        <ele>27.790</ele>
        <time>2018-08-29T14:53:23.437Z</time>
      </trkpt>
      <trkpt lat="48.1076619" lon="-1.6907599">
        <ele>27.927</ele>
        <time>2018-08-29T14:53:26.450Z</time>
      </trkpt>
      <trkpt lat="48.1076916" lon="-1.6906285">
        <ele>27.688</ele>
        <time>2018-08-29T14:53:29.288Z</time>
      </trkpt>
      <trkpt lat="48.1077209" lon="-1.6904659">
        <ele>27.496</ele>
        <time>2018-08-29T14:53:32.799Z</time>
      </trkpt>
      <trkpt lat="48.1077609" lon="-1.6903295">
        <ele>27.187</ele>
        <time>2018-08-29T14:53:35.987Z</time>
      </trkpt>
      <trkpt lat="48.1078157" lon="-1.6901768">
        <ele>26.542</ele>
        <time>2018-08-29T14:53:39.751Z</time>
      </trkpt>
      <trkpt lat="48.1078677" lon="-1.6900136">
        <ele>26.671</ele>
        <time>2018-08-29T14:53:43.597Z</time>
      </trkpt>
      <trkpt lat="48.1079076" lon="-1.6898897">
        <ele>26.936</ele>
        <time>2018-08-29T14:53:46.462Z</time>
      </trkpt>
      <trkpt lat="48.1079654" lon="-1.6897419">
        <ele>27.018</ele>
        <time>2018-08-29T14:53:50.000Z</time>
      </trkpt>
      <trkpt lat="48.1079654" lon="-1.6897419">
        <ele>26.863</ele>
        <time>2018-08-29T14:53:52.000Z</time>
      </trkpt>
      <trkpt lat="48.1079654" lon="-1.6897419">
        <ele>26.688</ele>
        <time>2018-08-29T14:53:52.100Z</time>
      </trkpt>
      <trkpt lat="48.1080926" lon="-1.6895239">
        <ele>26.675</ele>
        <time>2018-08-29T14:54:03.783Z</time>
      </trkpt>
      <trkpt lat="48.1081548" lon="-1.6893826">
        <ele>26.603</ele>
        <time>2018-08-29T14:54:08.056Z</time>
      </trkpt>
      <trkpt lat="48.1081946" lon="-1.6892470">
        <ele>26.265</ele>
        <time>2018-08-29T14:54:11.253Z</time>
      </trkpt>
      <trkpt lat="48.1082440" lon="-1.6891167">
        <ele>25.869</ele>
        <time>2018-08-29T14:54:14.200Z</time>
      </trkpt>
      <trkpt lat="48.1082930" lon="-1.6889911">
        <ele>25.660</ele>
        <time>2018-08-29T14:54:16.925Z</time>
      </trkpt>
      <trkpt lat="48.1083339" lon="-1.6888524">
        <ele>25.611</ele>
        <time>2018-08-29T14:54:19.716Z</time>
      </trkpt>
      <trkpt lat="48.1083819" lon="-1.6886875">
        <ele>25.623</ele>
        <time>2018-08-29T14:54:23.105Z</time>
      </trkpt>
      <trkpt lat="48.1084305" lon="-1.6885284">
        <ele>25.629</ele>
        <time>2018-08-29T14:54:26.482Z</time>
      </trkpt>
      <trkpt lat="48.1084604" lon="-1.6883979">
        <ele>25.628</ele>
        <time>2018-08-29T14:54:29.220Z</time>
      </trkpt>
      <trkpt lat="48.1084984" lon="-1.6882425">
        <ele>25.610</ele>
        <time>2018-08-29T14:54:32.558Z</time>
      </trkpt>
      <trkpt lat="48.1085269" lon="-1.6880781">
        <ele>25.538</ele>
        <time>2018-08-29T14:54:36.038Z</time>
      </trkpt>
      <trkpt lat="48.1085724" lon="-1.6879127">
        <ele>25.452</ele>
        <time>2018-08-29T14:54:39.716Z</time>
      </trkpt>
      <trkpt lat="48.1086297" lon="-1.6878014">
        <ele>25.293</ele>
        <time>2018-08-29T14:54:42.585Z</time>
      </trkpt>
      <trkpt lat="48.1086642" lon="-1.6876420">
        <ele>25.113</ele>
        <time>2018-08-29T14:54:46.000Z</time>
      </trkpt>
      <trkpt lat="48.1086642" lon="-1.6876420">
        <ele>24.993</ele>
        <time>2018-08-29T14:54:49.000Z</time>
      </trkpt>
      <trkpt lat="48.1086642" lon="-1.6876420">
        <ele>24.955</ele>
        <time>2018-08-29T14:54:49.100Z</time>
      </trkpt>
      <trkpt lat="48.1088034" lon="-1.6872883">
        <ele>24.959</ele>
        <time>2018-08-29T14:55:05.720Z</time>
      </trkpt>
      <trkpt lat="48.1088429" lon="-1.6871229">
        <ele>24.963</ele>
        <time>2018-08-29T14:55:09.647Z</time>
      </trkpt>
      <trkpt lat="48.1088867" lon="-1.6869569">
        <ele>24.912</ele>
        <time>2018-08-29T14:55:13.496Z</time>
      </trkpt>
      <trkpt lat="48.1089370" lon="-1.6868009">
        <ele>24.760</ele>
        <time>2018-08-29T14:55:17.410Z</time>
      </trkpt>
      <trkpt lat="48.1089623" lon="-1.6866519">
        <ele>24.561</ele>
        <time>2018-08-29T14:55:21.146Z</time>
      </trkpt>
      <trkpt lat="48.1090103" lon="-1.6865282">
        <ele>24.418</ele>
        <time>2018-08-29T14:55:24.954Z</time>
      </trkpt>
      <trkpt lat="48.1090741" lon="-1.6864263">
        <ele>24.361</ele>
        <time>2018-08-29T14:55:28.578Z</time>
      </trkpt>
      <trkpt lat="48.1091239" lon="-1.6862660">
        <ele>24.357</ele>
        <time>2018-08-29T14:55:32.663Z</time>
      </trkpt>
      <trkpt lat="48.1091705" lon="-1.6861413">
        <ele>24.363</ele>
        <time>2018-08-29T14:55:35.775Z</time>
      </trkpt>
      <trkpt lat="48.1092110" lon="-1.6860199">
        <ele>24.363</ele>
        <time>2018-08-29T14:55:38.679Z</time>
      </trkpt>
      <trkpt lat="48.1092690" lon="-1.6858690">
        <ele>24.365</ele>
        <time>2018-08-29T14:55:42.360Z</time>
      </trkpt>
      <trkpt lat="48.1093157" lon="-1.6857524">
        <ele>24.379</ele>
        <time>2018-08-29T14:55:45.237Z</time>
      </trkpt>
      <trkpt lat="48.1093740" lon="-1.6856146">
        <ele>24.408</ele>
        <time>2018-08-29T14:55:48.837Z</time>
      </trkpt>
      <trkpt lat="48.1093883" lon="-1.6854812">
        <ele>24.458</ele>
        <time>2018-08-29T14:55:52.041Z</time>
      </trkpt>
      <trkpt lat="48.1094278" lon="-1.6853466">
        <ele>24.535</ele>
        <time>2018-08-29T14:55:55.754Z</time>
      </trkpt>
      <trkpt lat="48.1094896" lon="-1.6852168">
        <ele>24.649</ele>
        <time>2018-08-29T14:56:00.014Z</time>
      </trkpt>
      <trkpt lat="48.1095487" lon="-1.6850934">
        <ele>24.808</ele>
        <time>2018-08-29T14:56:04.392Z</time>
      </trkpt>
      <trkpt lat="48.1095936" lon="-1.6849609">
        <ele>24.988</ele>
        <time>2018-08-29T14:56:09.000Z</time>
      </trkpt>
      <trkpt lat="48.1095936" lon="-1.6849609">
        <ele>25.116</ele>
        <time>2018-08-29T14:56:13.000Z</time>
      </trkpt>
      <trkpt lat="48.1095936" lon="-1.6849609">
        <ele>25.151</ele>
        <time>2018-08-29T14:57:45.586Z</time>
      </trkpt>
      <trkpt lat="48.1096465" lon="-1.6848295">
        <ele>25.129</ele>
        <time>2018-08-29T14:58:00.945Z</time>
      </trkpt>
      <trkpt lat="48.1097552" lon="-1.6847850">
        <ele>25.313</ele>
        <time>2018-08-29T14:58:08.758Z</time>
      </trkpt>
      <trkpt lat="48.1098671" lon="-1.6847508">
        <ele>25.924</ele>
        <time>2018-08-29T14:58:13.415Z</time>
      </trkpt>
      <trkpt lat="48.1099703" lon="-1.6847179">
        <ele>26.669</ele>
        <time>2018-08-29T14:58:17.000Z</time>
      </trkpt>
      <trkpt lat="48.1099703" lon="-1.6847179">
        <ele>27.106</ele>
        <time>2018-08-29T14:58:17.000Z</time>
      </trkpt>
      <trkpt lat="48.1099703" lon="-1.6847179">
        <ele>27.212</ele>
        <time>2018-08-29T14:58:30.843Z</time>
      </trkpt>
      <trkpt lat="48.1101114" lon="-1.6845658">
        <ele>27.167</ele>
        <time>2018-08-29T14:58:44.304Z</time>
      </trkpt>
      <trkpt lat="48.1102040" lon="-1.6845411">
        <ele>27.210</ele>
        <time>2018-08-29T14:58:49.220Z</time>
      </trkpt>
      <trkpt lat="48.1102651" lon="-1.6846620">
        <ele>27.507</ele>
        <time>2018-08-29T14:58:54.310Z</time>
      </trkpt>
      <trkpt lat="48.1103039" lon="-1.6848334">
        <ele>28.065</ele>
        <time>2018-08-29T14:58:58.885Z</time>
      </trkpt>
      <trkpt lat="48.1103170" lon="-1.6849847">
        <ele>28.713</ele>
        <time>2018-08-29T14:59:01.861Z</time>
      </trkpt>
      <trkpt lat="48.1103189" lon="-1.6851382">
        <ele>29.144</ele>
        <time>2018-08-29T14:59:04.633Z</time>
      </trkpt>
      <trkpt lat="48.1103194" lon="-1.6852767">
        <ele>29.198</ele>
        <time>2018-08-29T14:59:07.115Z</time>
      </trkpt>
      <trkpt lat="48.1103278" lon="-1.6854297">
        <ele>28.971</ele>
        <time>2018-08-29T14:59:09.951Z</time>
      </trkpt>
      <trkpt lat="48.1103365" lon="-1.6855764">
        <ele>28.561</ele>
        <time>2018-08-29T14:59:12.849Z</time>
      </trkpt>
      <trkpt lat="48.1103582" lon="-1.6857137">
        <ele>28.082</ele>
        <time>2018-08-29T14:59:15.864Z</time>
      </trkpt>
      <trkpt lat="48.1104456" lon="-1.6857612">
        <ele>27.667</ele>
        <time>2018-08-29T14:59:19.083Z</time>
      </trkpt>
      <trkpt lat="48.1105616" lon="-1.6857765">
        <ele>27.383</ele>
        <time>2018-08-29T14:59:23.147Z</time>
      </trkpt>
      <trkpt lat="48.1106985" lon="-1.6858125">
        <ele>27.251</ele>
        <time>2018-08-29T14:59:27.000Z</time>
      </trkpt>
      <trkpt lat="48.1106985" lon="-1.6858125">
        <ele>27.222</ele>
        <time>2018-08-29T14:59:29.000Z</time>
      </trkpt>
      <trkpt lat="48.1106985" lon="-1.6858125">
        <ele>27.218</ele>
        <time>2018-08-29T14:59:29.100Z</time>
      </trkpt>
      <trkpt lat="48.1109801" lon="-1.6859478">
        <ele>27.206</ele>
        <time>2018-08-29T14:59:37.376Z</time>
      </trkpt>
      <trkpt lat="48.1110666" lon="-1.6859867">
        <ele>27.183</ele>
        <time>2018-08-29T14:59:39.575Z</time>
      </trkpt>
      <trkpt lat="48.1111861" lon="-1.6860445">
        <ele>27.148</ele>
        <time>2018-08-29T14:59:42.944Z</time>
      </trkpt>
      <trkpt lat="48.1112893" lon="-1.6860921">
        <ele>27.116</ele>
        <time>2018-08-29T14:59:46.046Z</time>
      </trkpt>
      <trkpt lat="48.1113849" lon="-1.6861237">
        <ele>27.092</ele>
        <time>2018-08-29T14:59:48.739Z</time>
      </trkpt>
      <trkpt lat="48.1114860" lon="-1.6861663">
        <ele>27.057</ele>
        <time>2018-08-29T14:59:51.418Z</time>
      </trkpt>
      <trkpt lat="48.1115960" lon="-1.6862205">
        <ele>27.011</ele>
        <time>2018-08-29T14:59:54.187Z</time>
      </trkpt>
      <trkpt lat="48.1116991" lon="-1.6863008">
        <ele>26.989</ele>
        <time>2018-08-29T14:59:56.698Z</time>
      </trkpt>
      <trkpt lat="48.1117904" lon="-1.6863471">
        <ele>27.004</ele>
        <time>2018-08-29T14:59:58.586Z</time>
      </trkpt>
      <trkpt lat="48.1118981" lon="-1.6863854">
        <ele>27.025</ele>
        <time>2018-08-29T15:00:00.633Z</time>
      </trkpt>
      <trkpt lat="48.1119942" lon="-1.6864440">
        <ele>27.024</ele>
        <time>2018-08-29T15:00:02.503Z</time>
      </trkpt>
      <trkpt lat="48.1121509" lon="-1.6865412">
        <ele>27.039</ele>
        <time>2018-08-29T15:00:05.503Z</time>
      </trkpt>
      <trkpt lat="48.1122573" lon="-1.6866042">
        <ele>27.114</ele>
        <time>2018-08-29T15:00:07.677Z</time>
      </trkpt>
      <trkpt lat="48.1123403" lon="-1.6866671">
        <ele>27.215</ele>
        <time>2018-08-29T15:00:09.492Z</time>
      </trkpt>
      <trkpt lat="48.1124610" lon="-1.6867531">
        <ele>27.282</ele>
        <time>2018-08-29T15:00:12.167Z</time>
      </trkpt>
      <trkpt lat="48.1125941" lon="-1.6868350">
        <ele>27.319</ele>
        <time>2018-08-29T15:00:15.118Z</time>
      </trkpt>
      <trkpt lat="48.1127233" lon="-1.6868985">
        <ele>27.370</ele>
        <time>2018-08-29T15:00:18.054Z</time>
      </trkpt>
      <trkpt lat="48.1128476" lon="-1.6869398">
        <ele>27.449</ele>
        <time>2018-08-29T15:00:21.153Z</time>
      </trkpt>
      <trkpt lat="48.1129565" lon="-1.6869791">
        <ele>27.606</ele>
        <time>2018-08-29T15:00:24.370Z</time>
      </trkpt>
      <trkpt lat="48.1130516" lon="-1.6870133">
        <ele>27.854</ele>
        <time>2018-08-29T15:00:27.739Z</time>
      </trkpt>
      <trkpt lat="48.1131444" lon="-1.6870547">
        <ele>28.020</ele>
        <time>2018-08-29T15:00:31.333Z</time>
      </trkpt>
      <trkpt lat="48.1132455" lon="-1.6871023">
        <ele>27.845</ele>
        <time>2018-08-29T15:00:34.924Z</time>
      </trkpt>
      <trkpt lat="48.1133573" lon="-1.6871502">
        <ele>27.587</ele>
        <time>2018-08-29T15:00:38.607Z</time>
      </trkpt>
      <trkpt lat="48.1134416" lon="-1.6871971">
        <ele>27.442</ele>
        <time>2018-08-29T15:00:41.320Z</time>
      </trkpt>
      <trkpt lat="48.1135338" lon="-1.6872410">
        <ele>27.587</ele>
        <time>2018-08-29T15:00:44.064Z</time>
      </trkpt>
      <trkpt lat="48.1136277" lon="-1.6872916">
        <ele>27.527</ele>
        <time>2018-08-29T15:00:46.723Z</time>
      </trkpt>
      <trkpt lat="48.1137451" lon="-1.6873252">
        <ele>27.059</ele>
        <time>2018-08-29T15:00:49.796Z</time>
      </trkpt>
      <trkpt lat="48.1138557" lon="-1.6873782">
        <ele>26.359</ele>
        <time>2018-08-29T15:00:52.657Z</time>
      </trkpt>
      <trkpt lat="48.1139733" lon="-1.6874370">
        <ele>25.741</ele>
        <time>2018-08-29T15:00:55.647Z</time>
      </trkpt>
      <trkpt lat="48.1140809" lon="-1.6874869">
        <ele>25.299</ele>
        <time>2018-08-29T15:00:58.453Z</time>
      </trkpt>
      <trkpt lat="48.1141887" lon="-1.6875223">
        <ele>24.893</ele>
        <time>2018-08-29T15:01:01.362Z</time>
      </trkpt>
      <trkpt lat="48.1142873" lon="-1.6875665">
        <ele>25.021</ele>
        <time>2018-08-29T15:01:04.204Z</time>
      </trkpt>
      <trkpt lat="48.1143910" lon="-1.6876046">
        <ele>25.228</ele>
        <time>2018-08-29T15:01:07.192Z</time>
      </trkpt>
      <trkpt lat="48.1145054" lon="-1.6876066">
        <ele>25.375</ele>
        <time>2018-08-29T15:01:10.288Z</time>
      </trkpt>
      <trkpt lat="48.1146233" lon="-1.6875784">
        <ele>25.454</ele>
        <time>2018-08-29T15:01:13.360Z</time>
      </trkpt>
      <trkpt lat="48.1147382" lon="-1.6875110">
        <ele>25.493</ele>
        <time>2018-08-29T15:01:16.393Z</time>
      </trkpt>
      <trkpt lat="48.1148490" lon="-1.6874329">
        <ele>25.515</ele>
        <time>2018-08-29T15:01:19.381Z</time>
      </trkpt>
      <trkpt lat="48.1149471" lon="-1.6873662">
        <ele>25.536</ele>
        <time>2018-08-29T15:01:22.086Z</time>
      </trkpt>
      <trkpt lat="48.1150517" lon="-1.6872945">
        <ele>25.557</ele>
        <time>2018-08-29T15:01:25.009Z</time>
      </trkpt>
      <trkpt lat="48.1151539" lon="-1.6872087">
        <ele>25.580</ele>
        <time>2018-08-29T15:01:27.971Z</time>
      </trkpt>
      <trkpt lat="48.1152542" lon="-1.6871395">
        <ele>25.598</ele>
        <time>2018-08-29T15:01:30.974Z</time>
      </trkpt>
      <trkpt lat="48.1153584" lon="-1.6871298">
        <ele>25.616</ele>
        <time>2018-08-29T15:01:34.174Z</time>
      </trkpt>
      <trkpt lat="48.1154786" lon="-1.6870920">
        <ele>25.651</ele>
        <time>2018-08-29T15:01:37.725Z</time>
      </trkpt>
      <trkpt lat="48.1155950" lon="-1.6870229">
        <ele>25.695</ele>
        <time>2018-08-29T15:01:40.892Z</time>
      </trkpt>
      <trkpt lat="48.1157119" lon="-1.6869343">
        <ele>25.725</ele>
        <time>2018-08-29T15:01:44.162Z</time>
      </trkpt>
      <trkpt lat="48.1158145" lon="-1.6868681">
        <ele>25.694</ele>
        <time>2018-08-29T15:01:47.130Z</time>
      </trkpt>
      <trkpt lat="48.1158998" lon="-1.6868173">
        <ele>25.536</ele>
        <time>2018-08-29T15:01:49.857Z</time>
      </trkpt>
      <trkpt lat="48.1160210" lon="-1.6867692">
        <ele>25.268</ele>
        <time>2018-08-29T15:01:53.710Z</time>
      </trkpt>
      <trkpt lat="48.1161369" lon="-1.6866724">
        <ele>25.020</ele>
        <time>2018-08-29T15:01:57.424Z</time>
      </trkpt>
      <trkpt lat="48.1162440" lon="-1.6866167">
        <ele>24.891</ele>
        <time>2018-08-29T15:02:00.634Z</time>
      </trkpt>
      <trkpt lat="48.1163614" lon="-1.6865826">
        <ele>24.853</ele>
        <time>2018-08-29T15:02:04.294Z</time>
      </trkpt>
      <trkpt lat="48.1164479" lon="-1.6865444">
        <ele>24.842</ele>
        <time>2018-08-29T15:02:07.209Z</time>
      </trkpt>
      <trkpt lat="48.1165473" lon="-1.6864907">
        <ele>24.910</ele>
        <time>2018-08-29T15:02:10.443Z</time>
      </trkpt>
      <trkpt lat="48.1166500" lon="-1.6864125">
        <ele>25.144</ele>
        <time>2018-08-29T15:02:13.649Z</time>
      </trkpt>
      <trkpt lat="48.1167611" lon="-1.6863213">
        <ele>25.453</ele>
        <time>2018-08-29T15:02:16.940Z</time>
      </trkpt>
      <trkpt lat="48.1168694" lon="-1.6862396">
        <ele>25.685</ele>
        <time>2018-08-29T15:02:20.076Z</time>
      </trkpt>
      <trkpt lat="48.1169678" lon="-1.6861651">
        <ele>25.811</ele>
        <time>2018-08-29T15:02:22.974Z</time>
      </trkpt>
      <trkpt lat="48.1170570" lon="-1.6860985">
        <ele>25.815</ele>
        <time>2018-08-29T15:02:25.657Z</time>
      </trkpt>
      <trkpt lat="48.1171519" lon="-1.6860326">
        <ele>25.697</ele>
        <time>2018-08-29T15:02:28.584Z</time>
      </trkpt>
      <trkpt lat="48.1172452" lon="-1.6859693">
        <ele>25.552</ele>
        <time>2018-08-29T15:02:31.525Z</time>
      </trkpt>
      <trkpt lat="48.1173351" lon="-1.6858899">
        <ele>25.440</ele>
        <time>2018-08-29T15:02:34.723Z</time>
      </trkpt>
      <trkpt lat="48.1174227" lon="-1.6858290">
        <ele>25.338</ele>
        <time>2018-08-29T15:02:37.924Z</time>
      </trkpt>
      <trkpt lat="48.1175328" lon="-1.6857980">
        <ele>25.252</ele>
        <time>2018-08-29T15:02:42.401Z</time>
      </trkpt>
      <trkpt lat="48.1176251" lon="-1.6857388">
        <ele>25.349</ele>
        <time>2018-08-29T15:02:47.089Z</time>
      </trkpt>
      <trkpt lat="48.1177230" lon="-1.6856715">
        <ele>25.759</ele>
        <time>2018-08-29T15:02:52.000Z</time>
      </trkpt>
      <trkpt lat="48.1177230" lon="-1.6856715">
        <ele>26.288</ele>
        <time>2018-08-29T15:02:56.000Z</time>
      </trkpt>
      <trkpt lat="48.1177230" lon="-1.6856715">
        <ele>26.575</ele>
        <time>2018-08-29T15:03:29.408Z</time>
      </trkpt>
      <trkpt lat="48.1178296" lon="-1.6855950">
        <ele>26.473</ele>
        <time>2018-08-29T15:03:38.382Z</time>
      </trkpt>
      <trkpt lat="48.1179366" lon="-1.6855177">
        <ele>26.168</ele>
        <time>2018-08-29T15:03:42.667Z</time>
      </trkpt>
      <trkpt lat="48.1180361" lon="-1.6854473">
        <ele>25.929</ele>
        <time>2018-08-29T15:03:45.612Z</time>
      </trkpt>
      <trkpt lat="48.1181489" lon="-1.6853799">
        <ele>25.841</ele>
        <time>2018-08-29T15:03:48.283Z</time>
      </trkpt>
      <trkpt lat="48.1182373" lon="-1.6853297">
        <ele>25.938</ele>
        <time>2018-08-29T15:03:50.035Z</time>
      </trkpt>
      <trkpt lat="48.1183739" lon="-1.6852299">
        <ele>26.217</ele>
        <time>2018-08-29T15:03:52.634Z</time>
      </trkpt>
      <trkpt lat="48.1184986" lon="-1.6851063">
        <ele>26.511</ele>
        <time>2018-08-29T15:03:55.000Z</time>
      </trkpt>
      <trkpt lat="48.1184986" lon="-1.6851063">
        <ele>26.682</ele>
        <time>2018-08-29T15:03:55.000Z</time>
      </trkpt>
      <trkpt lat="48.1184986" lon="-1.6851063">
        <ele>26.726</ele>
        <time>2018-08-29T15:03:55.100Z</time>
      </trkpt>
      <trkpt lat="48.1186629" lon="-1.6849382">
        <ele>26.703</ele>
        <time>2018-08-29T15:04:01.546Z</time>
      </trkpt>
      <trkpt lat="48.1187350" lon="-1.6848533">
        <ele>26.713</ele>
        <time>2018-08-29T15:04:03.806Z</time>
      </trkpt>
      <trkpt lat="48.1188224" lon="-1.6847438">
        <ele>26.808</ele>
        <time>2018-08-29T15:04:06.760Z</time>
      </trkpt>
      <trkpt lat="48.1189048" lon="-1.6846214">
        <ele>26.804</ele>
        <time>2018-08-29T15:04:09.816Z</time>
      </trkpt>
      <trkpt lat="48.1189858" lon="-1.6845056">
        <ele>26.518</ele>
        <time>2018-08-29T15:04:12.807Z</time>
      </trkpt>
      <trkpt lat="48.1190770" lon="-1.6844075">
        <ele>26.092</ele>
        <time>2018-08-29T15:04:15.657Z</time>
      </trkpt>
      <trkpt lat="48.1191759" lon="-1.6842767">
        <ele>25.768</ele>
        <time>2018-08-29T15:04:19.005Z</time>
      </trkpt>
      <trkpt lat="48.1192678" lon="-1.6841636">
        <ele>25.577</ele>
        <time>2018-08-29T15:04:21.801Z</time>
      </trkpt>
      <trkpt lat="48.1193756" lon="-1.6840158">
        <ele>25.413</ele>
        <time>2018-08-29T15:04:24.941Z</time>
      </trkpt>
      <trkpt lat="48.1194801" lon="-1.6838901">
        <ele>25.216</ele>
        <time>2018-08-29T15:04:27.854Z</time>
      </trkpt>
      <trkpt lat="48.1195495" lon="-1.6837998">
        <ele>25.016</ele>
        <time>2018-08-29T15:04:29.881Z</time>
      </trkpt>
      <trkpt lat="48.1196138" lon="-1.6836971">
        <ele>24.822</ele>
        <time>2018-08-29T15:04:31.997Z</time>
      </trkpt>
      <trkpt lat="48.1197052" lon="-1.6835639">
        <ele>24.640</ele>
        <time>2018-08-29T15:04:35.001Z</time>
      </trkpt>
      <trkpt lat="48.1197925" lon="-1.6834354">
        <ele>24.515</ele>
        <time>2018-08-29T15:04:37.893Z</time>
      </trkpt>
      <trkpt lat="48.1198888" lon="-1.6833112">
        <ele>24.389</ele>
        <time>2018-08-29T15:04:40.736Z</time>
      </trkpt>
      <trkpt lat="48.1199858" lon="-1.6831643">
        <ele>24.140</ele>
        <time>2018-08-29T15:04:43.798Z</time>
      </trkpt>
      <trkpt lat="48.1200710" lon="-1.6830365">
        <ele>23.836</ele>
        <time>2018-08-29T15:04:46.688Z</time>
      </trkpt>
      <trkpt lat="48.1201469" lon="-1.6829344">
        <ele>23.662</ele>
        <time>2018-08-29T15:04:49.297Z</time>
      </trkpt>
      <trkpt lat="48.1202212" lon="-1.6828190">
        <ele>23.667</ele>
        <time>2018-08-29T15:04:52.256Z</time>
      </trkpt>
      <trkpt lat="48.1202904" lon="-1.6827256">
        <ele>23.766</ele>
        <time>2018-08-29T15:04:54.980Z</time>
      </trkpt>
      <trkpt lat="48.1203777" lon="-1.6826353">
        <ele>23.873</ele>
        <time>2018-08-29T15:04:58.352Z</time>
      </trkpt>
      <trkpt lat="48.1204650" lon="-1.6825438">
        <ele>23.939</ele>
        <time>2018-08-29T15:05:02.023Z</time>
      </trkpt>
      <trkpt lat="48.1205518" lon="-1.6824507">
        <ele>23.955</ele>
        <time>2018-08-29T15:05:05.426Z</time>
      </trkpt>
      <trkpt lat="48.1206595" lon="-1.6823394">
        <ele>23.945</ele>
        <time>2018-08-29T15:05:08.598Z</time>
      </trkpt>
      <trkpt lat="48.1207345" lon="-1.6822342">
        <ele>23.933</ele>
        <time>2018-08-29T15:05:10.552Z</time>
      </trkpt>
      <trkpt lat="48.1208623" lon="-1.6820624">
        <ele>23.946</ele>
        <time>2018-08-29T15:05:14.512Z</time>
      </trkpt>
      <trkpt lat="48.1211832" lon="-1.6815202">
        <ele>24.062</ele>
        <time>2018-08-29T15:05:27.542Z</time>
      </trkpt>
      <trkpt lat="48.1212159" lon="-1.6813921">
        <ele>24.561</ele>
        <time>2018-08-29T15:05:32.223Z</time>
      </trkpt>
      <trkpt lat="48.1212854" lon="-1.6812649">
        <ele>25.651</ele>
        <time>2018-08-29T15:05:36.976Z</time>
      </trkpt>
      <trkpt lat="48.1213571" lon="-1.6811387">
        <ele>26.766</ele>
        <time>2018-08-29T15:05:40.881Z</time>
      </trkpt>
      <trkpt lat="48.1214022" lon="-1.6810143">
        <ele>27.421</ele>
        <time>2018-08-29T15:05:45.092Z</time>
      </trkpt>
      <trkpt lat="48.1213241" lon="-1.6809378">
        <ele>27.689</ele>
        <time>2018-08-29T15:05:50.000Z</time>
      </trkpt>
      <trkpt lat="48.1213241" lon="-1.6809378">
        <ele>27.759</ele>
        <time>2018-08-29T15:05:55.000Z</time>
      </trkpt>
      <trkpt lat="48.1213241" lon="-1.6809378">
        <ele>27.764</ele>
        <time>2018-08-29T15:05:56.000Z</time>
      </trkpt>
      <trkpt lat="48.1213241" lon="-1.6809378">
        <ele>27.746</ele>
        <time>2018-08-29T15:05:56.100Z</time>
      </trkpt>
      <trkpt lat="48.1212481" lon="-1.6810135">
        <ele>27.727</ele>
        <time>2018-08-29T15:06:26.000Z</time>
      </trkpt>
      <trkpt lat="48.1212481" lon="-1.6810135">
        <ele>27.723</ele>
        <time>2018-08-29T15:06:27.000Z</time>
      </trkpt>
    </trkseg>
  </trk>
</gpx>
